<?xml version="1.0" encoding="UTF-8" standalone="no" ?>
<gpx xmlns="http://www.topografix.com/GPX/1/1" xmlns:xsi="http://www.w3.org/2001/XMLSchema-instance" xsi:schemaLocation="http://www.topografix.com/GPX/1/1 http://www.topografix.com/GPX/1/1/gpx.xsd" version="1.1" creator="VisuGPX - https://www.visugpx.com">
  <metadata>
    <name>13 - D+  St Marc Jaumegarde </name>
    <desc><![CDATA[13 - D+  St Marc Jaumegarde : Barrage du Bimont, Croix de Provence barrage Zola
2023-05-28]]></desc>
  </metadata>
  <trk>
    <name><![CDATA[SAINT-MARC-JAUMEGARDE  Barrage du Bimont, Croix de Provence barrage Zola 28 05 2023]]></name>
    <trkseg>
      <trkpt lat="43.54074" lon="5.53053">
        <ele>355.8</ele>
        <time>2023-05-28T07:14:26Z</time>
      </trkpt>
      <trkpt lat="43.54074" lon="5.53053">
        <ele>355.8</ele>
        <time>2023-05-28T07:14:27Z</time>
      </trkpt>
      <trkpt lat="43.54074" lon="5.53053">
        <ele>355.7</ele>
        <time>2023-05-28T07:14:28Z</time>
      </trkpt>
      <trkpt lat="43.54074" lon="5.53053">
        <ele>355.8</ele>
        <time>2023-05-28T07:14:29Z</time>
      </trkpt>
      <trkpt lat="43.54074" lon="5.53053">
        <ele>355.8</ele>
        <time>2023-05-28T07:14:30Z</time>
      </trkpt>
      <trkpt lat="43.54074" lon="5.53053">
        <ele>355.8</ele>
        <time>2023-05-28T07:14:31Z</time>
      </trkpt>
      <trkpt lat="43.54074" lon="5.53053">
        <ele>355.9</ele>
        <time>2023-05-28T07:14:32Z</time>
      </trkpt>
      <trkpt lat="43.54074" lon="5.53053">
        <ele>355.9</ele>
        <time>2023-05-28T07:14:33Z</time>
      </trkpt>
      <trkpt lat="43.54073" lon="5.53053">
        <ele>355.9</ele>
        <time>2023-05-28T07:14:34Z</time>
      </trkpt>
      <trkpt lat="43.54073" lon="5.53053">
        <ele>356</ele>
        <time>2023-05-28T07:14:35Z</time>
      </trkpt>
      <trkpt lat="43.54073" lon="5.53054">
        <ele>356</ele>
        <time>2023-05-28T07:14:36Z</time>
      </trkpt>
      <trkpt lat="43.54073" lon="5.53054">
        <ele>356.8</ele>
        <time>2023-05-28T07:14:37Z</time>
      </trkpt>
      <trkpt lat="43.54073" lon="5.53054">
        <ele>357.5</ele>
        <time>2023-05-28T07:14:38Z</time>
      </trkpt>
      <trkpt lat="43.54073" lon="5.53053">
        <ele>357.5</ele>
        <time>2023-05-28T07:14:39Z</time>
      </trkpt>
      <trkpt lat="43.54073" lon="5.53053">
        <ele>356.9</ele>
        <time>2023-05-28T07:14:40Z</time>
      </trkpt>
      <trkpt lat="43.54073" lon="5.53054">
        <ele>359.2</ele>
        <time>2023-05-28T07:14:41Z</time>
      </trkpt>
      <trkpt lat="43.54072" lon="5.53054">
        <ele>358.6</ele>
        <time>2023-05-28T07:14:42Z</time>
      </trkpt>
      <trkpt lat="43.54072" lon="5.53054">
        <ele>358.1</ele>
        <time>2023-05-28T07:14:43Z</time>
      </trkpt>
      <trkpt lat="43.54071" lon="5.53055">
        <ele>357.8</ele>
        <time>2023-05-28T07:14:44Z</time>
      </trkpt>
      <trkpt lat="43.54071" lon="5.53055">
        <ele>357.4</ele>
        <time>2023-05-28T07:14:45Z</time>
      </trkpt>
      <trkpt lat="43.54072" lon="5.53055">
        <ele>357.2</ele>
        <time>2023-05-28T07:14:46Z</time>
      </trkpt>
      <trkpt lat="43.54071" lon="5.53055">
        <ele>357</ele>
        <time>2023-05-28T07:14:47Z</time>
      </trkpt>
      <trkpt lat="43.54071" lon="5.53055">
        <ele>356.8</ele>
        <time>2023-05-28T07:14:48Z</time>
      </trkpt>
      <trkpt lat="43.5407" lon="5.53055">
        <ele>356.6</ele>
        <time>2023-05-28T07:14:49Z</time>
      </trkpt>
      <trkpt lat="43.5407" lon="5.53055">
        <ele>356.5</ele>
        <time>2023-05-28T07:14:50Z</time>
      </trkpt>
      <trkpt lat="43.5407" lon="5.53056">
        <ele>356.3</ele>
        <time>2023-05-28T07:14:51Z</time>
      </trkpt>
      <trkpt lat="43.54071" lon="5.53056">
        <ele>356.2</ele>
        <time>2023-05-28T07:14:52Z</time>
      </trkpt>
      <trkpt lat="43.5407" lon="5.53056">
        <ele>356.1</ele>
        <time>2023-05-28T07:14:53Z</time>
      </trkpt>
      <trkpt lat="43.54071" lon="5.53056">
        <ele>356</ele>
        <time>2023-05-28T07:14:54Z</time>
      </trkpt>
      <trkpt lat="43.54071" lon="5.53056">
        <ele>355.9</ele>
        <time>2023-05-28T07:14:55Z</time>
      </trkpt>
      <trkpt lat="43.54071" lon="5.53056">
        <ele>355.6</ele>
        <time>2023-05-28T07:14:56Z</time>
      </trkpt>
      <trkpt lat="43.54071" lon="5.53056">
        <ele>355.6</ele>
        <time>2023-05-28T07:14:57Z</time>
      </trkpt>
      <trkpt lat="43.54071" lon="5.53056">
        <ele>355.6</ele>
        <time>2023-05-28T07:14:58Z</time>
      </trkpt>
      <trkpt lat="43.54071" lon="5.53056">
        <ele>355.5</ele>
        <time>2023-05-28T07:14:59Z</time>
      </trkpt>
      <trkpt lat="43.54071" lon="5.53056">
        <ele>355.5</ele>
        <time>2023-05-28T07:15:00Z</time>
      </trkpt>
      <trkpt lat="43.54071" lon="5.53056">
        <ele>355.3</ele>
        <time>2023-05-28T07:15:01Z</time>
      </trkpt>
      <trkpt lat="43.54071" lon="5.53056">
        <ele>355.4</ele>
        <time>2023-05-28T07:15:02Z</time>
      </trkpt>
      <trkpt lat="43.54071" lon="5.53056">
        <ele>355.3</ele>
        <time>2023-05-28T07:15:03Z</time>
      </trkpt>
      <trkpt lat="43.54071" lon="5.53056">
        <ele>355.2</ele>
        <time>2023-05-28T07:15:04Z</time>
      </trkpt>
      <trkpt lat="43.54071" lon="5.53056">
        <ele>355.2</ele>
        <time>2023-05-28T07:15:05Z</time>
      </trkpt>
      <trkpt lat="43.54071" lon="5.53056">
        <ele>355.2</ele>
        <time>2023-05-28T07:15:06Z</time>
      </trkpt>
      <trkpt lat="43.54071" lon="5.53056">
        <ele>355.2</ele>
        <time>2023-05-28T07:15:07Z</time>
      </trkpt>
      <trkpt lat="43.54071" lon="5.53056">
        <ele>355.2</ele>
        <time>2023-05-28T07:15:08Z</time>
      </trkpt>
      <trkpt lat="43.54071" lon="5.53056">
        <ele>355.3</ele>
        <time>2023-05-28T07:15:09Z</time>
      </trkpt>
      <trkpt lat="43.54071" lon="5.53056">
        <ele>355.3</ele>
        <time>2023-05-28T07:15:10Z</time>
      </trkpt>
      <trkpt lat="43.5407" lon="5.53056">
        <ele>355.4</ele>
        <time>2023-05-28T07:15:11Z</time>
      </trkpt>
      <trkpt lat="43.5407" lon="5.53056">
        <ele>355.4</ele>
        <time>2023-05-28T07:15:12Z</time>
      </trkpt>
      <trkpt lat="43.5407" lon="5.53056">
        <ele>355.4</ele>
        <time>2023-05-28T07:15:13Z</time>
      </trkpt>
      <trkpt lat="43.5407" lon="5.53056">
        <ele>355.4</ele>
        <time>2023-05-28T07:15:14Z</time>
      </trkpt>
      <trkpt lat="43.5407" lon="5.53056">
        <ele>355.4</ele>
        <time>2023-05-28T07:15:15Z</time>
      </trkpt>
      <trkpt lat="43.5407" lon="5.53056">
        <ele>355.4</ele>
        <time>2023-05-28T07:15:16Z</time>
      </trkpt>
      <trkpt lat="43.5407" lon="5.53056">
        <ele>355.4</ele>
        <time>2023-05-28T07:15:17Z</time>
      </trkpt>
      <trkpt lat="43.5407" lon="5.53056">
        <ele>355.3</ele>
        <time>2023-05-28T07:15:18Z</time>
      </trkpt>
      <trkpt lat="43.5407" lon="5.53056">
        <ele>355.3</ele>
        <time>2023-05-28T07:15:19Z</time>
      </trkpt>
      <trkpt lat="43.5407" lon="5.53056">
        <ele>355.3</ele>
        <time>2023-05-28T07:15:20Z</time>
      </trkpt>
      <trkpt lat="43.5407" lon="5.53056">
        <ele>355.3</ele>
        <time>2023-05-28T07:15:21Z</time>
      </trkpt>
      <trkpt lat="43.5407" lon="5.53056">
        <ele>355.3</ele>
        <time>2023-05-28T07:15:22Z</time>
      </trkpt>
      <trkpt lat="43.5407" lon="5.53057">
        <ele>355.3</ele>
        <time>2023-05-28T07:15:23Z</time>
      </trkpt>
      <trkpt lat="43.5407" lon="5.53057">
        <ele>355.3</ele>
        <time>2023-05-28T07:15:24Z</time>
      </trkpt>
      <trkpt lat="43.5407" lon="5.53057">
        <ele>355.3</ele>
        <time>2023-05-28T07:15:25Z</time>
      </trkpt>
      <trkpt lat="43.5407" lon="5.53057">
        <ele>355.4</ele>
        <time>2023-05-28T07:15:26Z</time>
      </trkpt>
      <trkpt lat="43.5407" lon="5.53057">
        <ele>355.4</ele>
        <time>2023-05-28T07:15:27Z</time>
      </trkpt>
      <trkpt lat="43.5407" lon="5.53057">
        <ele>355.5</ele>
        <time>2023-05-28T07:15:28Z</time>
      </trkpt>
      <trkpt lat="43.5407" lon="5.53057">
        <ele>355.5</ele>
        <time>2023-05-28T07:15:29Z</time>
      </trkpt>
      <trkpt lat="43.5407" lon="5.53057">
        <ele>355.6</ele>
        <time>2023-05-28T07:15:30Z</time>
      </trkpt>
      <trkpt lat="43.5407" lon="5.53057">
        <ele>355.6</ele>
        <time>2023-05-28T07:15:31Z</time>
      </trkpt>
      <trkpt lat="43.5407" lon="5.53057">
        <ele>355.6</ele>
        <time>2023-05-28T07:15:32Z</time>
      </trkpt>
      <trkpt lat="43.5407" lon="5.53057">
        <ele>355.5</ele>
        <time>2023-05-28T07:15:33Z</time>
      </trkpt>
      <trkpt lat="43.54069" lon="5.53057">
        <ele>355.5</ele>
        <time>2023-05-28T07:15:34Z</time>
      </trkpt>
      <trkpt lat="43.54069" lon="5.53057">
        <ele>355.5</ele>
        <time>2023-05-28T07:15:35Z</time>
      </trkpt>
      <trkpt lat="43.54069" lon="5.53057">
        <ele>355.5</ele>
        <time>2023-05-28T07:15:36Z</time>
      </trkpt>
      <trkpt lat="43.54069" lon="5.53058">
        <ele>355.5</ele>
        <time>2023-05-28T07:15:37Z</time>
      </trkpt>
      <trkpt lat="43.54069" lon="5.53058">
        <ele>355.5</ele>
        <time>2023-05-28T07:15:38Z</time>
      </trkpt>
      <trkpt lat="43.54069" lon="5.53058">
        <ele>355.4</ele>
        <time>2023-05-28T07:15:39Z</time>
      </trkpt>
      <trkpt lat="43.54069" lon="5.53058">
        <ele>355.4</ele>
        <time>2023-05-28T07:15:40Z</time>
      </trkpt>
      <trkpt lat="43.54069" lon="5.53058">
        <ele>355.3</ele>
        <time>2023-05-28T07:15:41Z</time>
      </trkpt>
      <trkpt lat="43.54069" lon="5.53058">
        <ele>355.3</ele>
        <time>2023-05-28T07:15:42Z</time>
      </trkpt>
      <trkpt lat="43.54069" lon="5.53058">
        <ele>355.3</ele>
        <time>2023-05-28T07:15:43Z</time>
      </trkpt>
      <trkpt lat="43.54069" lon="5.53058">
        <ele>355.3</ele>
        <time>2023-05-28T07:15:44Z</time>
      </trkpt>
      <trkpt lat="43.54069" lon="5.53058">
        <ele>355.3</ele>
        <time>2023-05-28T07:15:45Z</time>
      </trkpt>
      <trkpt lat="43.54069" lon="5.53058">
        <ele>355.4</ele>
        <time>2023-05-28T07:15:46Z</time>
      </trkpt>
      <trkpt lat="43.54069" lon="5.53057">
        <ele>355.4</ele>
        <time>2023-05-28T07:15:47Z</time>
      </trkpt>
      <trkpt lat="43.54069" lon="5.53058">
        <ele>355.5</ele>
        <time>2023-05-28T07:15:48Z</time>
      </trkpt>
      <trkpt lat="43.54069" lon="5.53058">
        <ele>355.5</ele>
        <time>2023-05-28T07:15:49Z</time>
      </trkpt>
      <trkpt lat="43.54069" lon="5.53058">
        <ele>355.5</ele>
        <time>2023-05-28T07:15:50Z</time>
      </trkpt>
      <trkpt lat="43.54069" lon="5.53058">
        <ele>355.5</ele>
        <time>2023-05-28T07:15:51Z</time>
      </trkpt>
      <trkpt lat="43.54068" lon="5.53058">
        <ele>355.3</ele>
        <time>2023-05-28T07:15:52Z</time>
      </trkpt>
      <trkpt lat="43.54068" lon="5.53058">
        <ele>355.4</ele>
        <time>2023-05-28T07:15:53Z</time>
      </trkpt>
      <trkpt lat="43.54068" lon="5.53059">
        <ele>355.5</ele>
        <time>2023-05-28T07:15:54Z</time>
      </trkpt>
      <trkpt lat="43.54068" lon="5.53059">
        <ele>355.4</ele>
        <time>2023-05-28T07:15:55Z</time>
      </trkpt>
      <trkpt lat="43.54068" lon="5.53059">
        <ele>355.5</ele>
        <time>2023-05-28T07:15:56Z</time>
      </trkpt>
      <trkpt lat="43.54068" lon="5.53059">
        <ele>355.6</ele>
        <time>2023-05-28T07:15:57Z</time>
      </trkpt>
      <trkpt lat="43.54068" lon="5.53059">
        <ele>355.6</ele>
        <time>2023-05-28T07:15:58Z</time>
      </trkpt>
      <trkpt lat="43.54068" lon="5.53059">
        <ele>355.6</ele>
        <time>2023-05-28T07:15:59Z</time>
      </trkpt>
      <trkpt lat="43.54068" lon="5.5306">
        <ele>355.6</ele>
        <time>2023-05-28T07:16:00Z</time>
      </trkpt>
      <trkpt lat="43.54068" lon="5.5306">
        <ele>355.7</ele>
        <time>2023-05-28T07:16:01Z</time>
      </trkpt>
      <trkpt lat="43.54068" lon="5.5306">
        <ele>355.7</ele>
        <time>2023-05-28T07:16:02Z</time>
      </trkpt>
      <trkpt lat="43.54068" lon="5.5306">
        <ele>355.6</ele>
        <time>2023-05-28T07:16:03Z</time>
      </trkpt>
      <trkpt lat="43.54068" lon="5.5306">
        <ele>355.7</ele>
        <time>2023-05-28T07:16:04Z</time>
      </trkpt>
      <trkpt lat="43.54068" lon="5.5306">
        <ele>355.8</ele>
        <time>2023-05-28T07:16:05Z</time>
      </trkpt>
      <trkpt lat="43.54067" lon="5.5306">
        <ele>355.8</ele>
        <time>2023-05-28T07:16:06Z</time>
      </trkpt>
      <trkpt lat="43.54067" lon="5.5306">
        <ele>355.8</ele>
        <time>2023-05-28T07:16:07Z</time>
      </trkpt>
      <trkpt lat="43.54067" lon="5.53061">
        <ele>355.8</ele>
        <time>2023-05-28T07:16:08Z</time>
      </trkpt>
      <trkpt lat="43.54067" lon="5.53061">
        <ele>355.8</ele>
        <time>2023-05-28T07:16:09Z</time>
      </trkpt>
      <trkpt lat="43.54067" lon="5.53061">
        <ele>355.8</ele>
        <time>2023-05-28T07:16:10Z</time>
      </trkpt>
      <trkpt lat="43.54067" lon="5.53061">
        <ele>355.8</ele>
        <time>2023-05-28T07:16:11Z</time>
      </trkpt>
      <trkpt lat="43.54067" lon="5.53061">
        <ele>355.9</ele>
        <time>2023-05-28T07:16:12Z</time>
      </trkpt>
      <trkpt lat="43.54067" lon="5.53061">
        <ele>355.9</ele>
        <time>2023-05-28T07:16:13Z</time>
      </trkpt>
      <trkpt lat="43.54067" lon="5.53061">
        <ele>355.8</ele>
        <time>2023-05-28T07:16:14Z</time>
      </trkpt>
      <trkpt lat="43.54067" lon="5.53061">
        <ele>355.8</ele>
        <time>2023-05-28T07:16:15Z</time>
      </trkpt>
      <trkpt lat="43.54067" lon="5.53061">
        <ele>355.7</ele>
        <time>2023-05-28T07:16:16Z</time>
      </trkpt>
      <trkpt lat="43.54067" lon="5.53062">
        <ele>355.6</ele>
        <time>2023-05-28T07:16:17Z</time>
      </trkpt>
      <trkpt lat="43.54067" lon="5.53062">
        <ele>355.6</ele>
        <time>2023-05-28T07:16:18Z</time>
      </trkpt>
      <trkpt lat="43.54067" lon="5.53061">
        <ele>355.5</ele>
        <time>2023-05-28T07:16:19Z</time>
      </trkpt>
      <trkpt lat="43.54067" lon="5.53062">
        <ele>355.6</ele>
        <time>2023-05-28T07:16:20Z</time>
      </trkpt>
      <trkpt lat="43.54067" lon="5.53062">
        <ele>355.6</ele>
        <time>2023-05-28T07:16:21Z</time>
      </trkpt>
      <trkpt lat="43.54067" lon="5.53062">
        <ele>355.6</ele>
        <time>2023-05-28T07:16:22Z</time>
      </trkpt>
      <trkpt lat="43.54067" lon="5.53062">
        <ele>355.6</ele>
        <time>2023-05-28T07:16:23Z</time>
      </trkpt>
      <trkpt lat="43.54067" lon="5.53062">
        <ele>355.6</ele>
        <time>2023-05-28T07:16:24Z</time>
      </trkpt>
      <trkpt lat="43.54067" lon="5.53062">
        <ele>355.6</ele>
        <time>2023-05-28T07:16:25Z</time>
      </trkpt>
      <trkpt lat="43.54067" lon="5.53061">
        <ele>355.7</ele>
        <time>2023-05-28T07:16:26Z</time>
      </trkpt>
      <trkpt lat="43.54067" lon="5.53061">
        <ele>355.7</ele>
        <time>2023-05-28T07:16:27Z</time>
      </trkpt>
      <trkpt lat="43.54067" lon="5.53061">
        <ele>355.8</ele>
        <time>2023-05-28T07:16:28Z</time>
      </trkpt>
      <trkpt lat="43.54067" lon="5.53061">
        <ele>355.8</ele>
        <time>2023-05-28T07:16:29Z</time>
      </trkpt>
      <trkpt lat="43.54067" lon="5.53061">
        <ele>355.8</ele>
        <time>2023-05-28T07:16:30Z</time>
      </trkpt>
      <trkpt lat="43.54067" lon="5.53061">
        <ele>355.7</ele>
        <time>2023-05-28T07:16:31Z</time>
      </trkpt>
      <trkpt lat="43.54067" lon="5.53061">
        <ele>355.7</ele>
        <time>2023-05-28T07:16:32Z</time>
      </trkpt>
      <trkpt lat="43.54067" lon="5.53061">
        <ele>355.7</ele>
        <time>2023-05-28T07:16:33Z</time>
      </trkpt>
      <trkpt lat="43.54067" lon="5.53061">
        <ele>355.7</ele>
        <time>2023-05-28T07:16:34Z</time>
      </trkpt>
      <trkpt lat="43.54067" lon="5.53061">
        <ele>355.7</ele>
        <time>2023-05-28T07:16:35Z</time>
      </trkpt>
      <trkpt lat="43.54067" lon="5.53061">
        <ele>355.7</ele>
        <time>2023-05-28T07:16:36Z</time>
      </trkpt>
      <trkpt lat="43.54067" lon="5.53061">
        <ele>355.7</ele>
        <time>2023-05-28T07:16:37Z</time>
      </trkpt>
      <trkpt lat="43.54067" lon="5.53061">
        <ele>355.7</ele>
        <time>2023-05-28T07:16:38Z</time>
      </trkpt>
      <trkpt lat="43.54067" lon="5.53061">
        <ele>355.8</ele>
        <time>2023-05-28T07:16:39Z</time>
      </trkpt>
      <trkpt lat="43.54067" lon="5.5306">
        <ele>355.7</ele>
        <time>2023-05-28T07:16:40Z</time>
      </trkpt>
      <trkpt lat="43.54067" lon="5.5306">
        <ele>355.7</ele>
        <time>2023-05-28T07:16:41Z</time>
      </trkpt>
      <trkpt lat="43.54066" lon="5.5306">
        <ele>355.5</ele>
        <time>2023-05-28T07:16:42Z</time>
      </trkpt>
      <trkpt lat="43.54066" lon="5.5306">
        <ele>355.6</ele>
        <time>2023-05-28T07:16:43Z</time>
      </trkpt>
      <trkpt lat="43.54067" lon="5.5306">
        <ele>355.6</ele>
        <time>2023-05-28T07:16:44Z</time>
      </trkpt>
      <trkpt lat="43.54067" lon="5.53061">
        <ele>355.6</ele>
        <time>2023-05-28T07:16:45Z</time>
      </trkpt>
      <trkpt lat="43.54067" lon="5.53061">
        <ele>355.6</ele>
        <time>2023-05-28T07:16:46Z</time>
      </trkpt>
      <trkpt lat="43.54066" lon="5.53061">
        <ele>355.6</ele>
        <time>2023-05-28T07:16:47Z</time>
      </trkpt>
      <trkpt lat="43.54066" lon="5.53062">
        <ele>355.7</ele>
        <time>2023-05-28T07:16:48Z</time>
      </trkpt>
      <trkpt lat="43.54066" lon="5.53062">
        <ele>355.6</ele>
        <time>2023-05-28T07:16:49Z</time>
      </trkpt>
      <trkpt lat="43.54067" lon="5.53063">
        <ele>355.6</ele>
        <time>2023-05-28T07:16:50Z</time>
      </trkpt>
      <trkpt lat="43.54067" lon="5.53064">
        <ele>355.7</ele>
        <time>2023-05-28T07:16:51Z</time>
      </trkpt>
      <trkpt lat="43.54068" lon="5.53065">
        <ele>355.7</ele>
        <time>2023-05-28T07:16:52Z</time>
      </trkpt>
      <trkpt lat="43.54069" lon="5.53066">
        <ele>355.7</ele>
        <time>2023-05-28T07:16:53Z</time>
      </trkpt>
      <trkpt lat="43.54069" lon="5.53067">
        <ele>355.7</ele>
        <time>2023-05-28T07:16:54Z</time>
      </trkpt>
      <trkpt lat="43.54069" lon="5.53067">
        <ele>355.7</ele>
        <time>2023-05-28T07:16:55Z</time>
      </trkpt>
      <trkpt lat="43.54069" lon="5.53068">
        <ele>355.7</ele>
        <time>2023-05-28T07:16:56Z</time>
      </trkpt>
      <trkpt lat="43.54069" lon="5.53068">
        <ele>355.7</ele>
        <time>2023-05-28T07:16:57Z</time>
      </trkpt>
      <trkpt lat="43.54069" lon="5.53068">
        <ele>355.6</ele>
        <time>2023-05-28T07:16:58Z</time>
      </trkpt>
      <trkpt lat="43.54069" lon="5.53068">
        <ele>355.6</ele>
        <time>2023-05-28T07:16:59Z</time>
      </trkpt>
      <trkpt lat="43.54069" lon="5.53068">
        <ele>355.7</ele>
        <time>2023-05-28T07:17:00Z</time>
      </trkpt>
      <trkpt lat="43.54069" lon="5.53068">
        <ele>355.7</ele>
        <time>2023-05-28T07:17:01Z</time>
      </trkpt>
      <trkpt lat="43.54069" lon="5.53068">
        <ele>355.7</ele>
        <time>2023-05-28T07:17:02Z</time>
      </trkpt>
      <trkpt lat="43.54069" lon="5.53068">
        <ele>355.8</ele>
        <time>2023-05-28T07:17:03Z</time>
      </trkpt>
      <trkpt lat="43.54069" lon="5.53068">
        <ele>355.9</ele>
        <time>2023-05-28T07:17:04Z</time>
      </trkpt>
      <trkpt lat="43.5407" lon="5.53068">
        <ele>355.9</ele>
        <time>2023-05-28T07:17:05Z</time>
      </trkpt>
      <trkpt lat="43.5407" lon="5.53067">
        <ele>355.9</ele>
        <time>2023-05-28T07:17:06Z</time>
      </trkpt>
      <trkpt lat="43.54071" lon="5.53066">
        <ele>355.9</ele>
        <time>2023-05-28T07:17:07Z</time>
      </trkpt>
      <trkpt lat="43.54071" lon="5.53066">
        <ele>355.9</ele>
        <time>2023-05-28T07:17:08Z</time>
      </trkpt>
      <trkpt lat="43.54071" lon="5.53065">
        <ele>356</ele>
        <time>2023-05-28T07:17:09Z</time>
      </trkpt>
      <trkpt lat="43.54071" lon="5.53065">
        <ele>356</ele>
        <time>2023-05-28T07:17:10Z</time>
      </trkpt>
      <trkpt lat="43.54071" lon="5.53065">
        <ele>356</ele>
        <time>2023-05-28T07:17:11Z</time>
      </trkpt>
      <trkpt lat="43.54071" lon="5.53065">
        <ele>355.9</ele>
        <time>2023-05-28T07:17:12Z</time>
      </trkpt>
      <trkpt lat="43.54071" lon="5.53065">
        <ele>355.9</ele>
        <time>2023-05-28T07:17:13Z</time>
      </trkpt>
      <trkpt lat="43.54071" lon="5.53065">
        <ele>355.9</ele>
        <time>2023-05-28T07:17:14Z</time>
      </trkpt>
      <trkpt lat="43.54071" lon="5.53065">
        <ele>355.9</ele>
        <time>2023-05-28T07:17:15Z</time>
      </trkpt>
      <trkpt lat="43.54071" lon="5.53065">
        <ele>355.9</ele>
        <time>2023-05-28T07:17:16Z</time>
      </trkpt>
      <trkpt lat="43.54071" lon="5.53065">
        <ele>355.9</ele>
        <time>2023-05-28T07:17:17Z</time>
      </trkpt>
      <trkpt lat="43.54071" lon="5.53065">
        <ele>356</ele>
        <time>2023-05-28T07:17:18Z</time>
      </trkpt>
      <trkpt lat="43.54071" lon="5.53065">
        <ele>356</ele>
        <time>2023-05-28T07:17:19Z</time>
      </trkpt>
      <trkpt lat="43.54071" lon="5.53065">
        <ele>355.9</ele>
        <time>2023-05-28T07:17:20Z</time>
      </trkpt>
      <trkpt lat="43.54071" lon="5.53065">
        <ele>355.9</ele>
        <time>2023-05-28T07:17:21Z</time>
      </trkpt>
      <trkpt lat="43.54071" lon="5.53065">
        <ele>355.9</ele>
        <time>2023-05-28T07:17:22Z</time>
      </trkpt>
      <trkpt lat="43.54071" lon="5.53065">
        <ele>355.9</ele>
        <time>2023-05-28T07:17:23Z</time>
      </trkpt>
      <trkpt lat="43.54072" lon="5.53065">
        <ele>355.8</ele>
        <time>2023-05-28T07:17:24Z</time>
      </trkpt>
      <trkpt lat="43.54072" lon="5.53065">
        <ele>355.8</ele>
        <time>2023-05-28T07:17:25Z</time>
      </trkpt>
      <trkpt lat="43.54072" lon="5.53065">
        <ele>355.8</ele>
        <time>2023-05-28T07:17:26Z</time>
      </trkpt>
      <trkpt lat="43.54073" lon="5.53065">
        <ele>355.7</ele>
        <time>2023-05-28T07:17:27Z</time>
      </trkpt>
      <trkpt lat="43.54074" lon="5.53064">
        <ele>355.8</ele>
        <time>2023-05-28T07:17:28Z</time>
      </trkpt>
      <trkpt lat="43.54074" lon="5.53063">
        <ele>355.8</ele>
        <time>2023-05-28T07:17:29Z</time>
      </trkpt>
      <trkpt lat="43.54074" lon="5.53062">
        <ele>355.8</ele>
        <time>2023-05-28T07:17:30Z</time>
      </trkpt>
      <trkpt lat="43.54075" lon="5.53061">
        <ele>355.8</ele>
        <time>2023-05-28T07:17:31Z</time>
      </trkpt>
      <trkpt lat="43.54075" lon="5.5306">
        <ele>355.7</ele>
        <time>2023-05-28T07:17:32Z</time>
      </trkpt>
      <trkpt lat="43.54076" lon="5.53059">
        <ele>355.8</ele>
        <time>2023-05-28T07:17:33Z</time>
      </trkpt>
      <trkpt lat="43.54076" lon="5.53058">
        <ele>355.8</ele>
        <time>2023-05-28T07:17:34Z</time>
      </trkpt>
      <trkpt lat="43.54076" lon="5.53058">
        <ele>355.9</ele>
        <time>2023-05-28T07:17:35Z</time>
      </trkpt>
      <trkpt lat="43.54076" lon="5.53058">
        <ele>355.9</ele>
        <time>2023-05-28T07:17:36Z</time>
      </trkpt>
      <trkpt lat="43.54076" lon="5.53058">
        <ele>355.9</ele>
        <time>2023-05-28T07:17:37Z</time>
      </trkpt>
      <trkpt lat="43.54076" lon="5.53058">
        <ele>355.9</ele>
        <time>2023-05-28T07:17:38Z</time>
      </trkpt>
      <trkpt lat="43.54077" lon="5.53057">
        <ele>356</ele>
        <time>2023-05-28T07:17:39Z</time>
      </trkpt>
      <trkpt lat="43.54077" lon="5.53057">
        <ele>355.9</ele>
        <time>2023-05-28T07:17:40Z</time>
      </trkpt>
      <trkpt lat="43.54077" lon="5.53057">
        <ele>355.9</ele>
        <time>2023-05-28T07:17:41Z</time>
      </trkpt>
      <trkpt lat="43.54077" lon="5.53057">
        <ele>356</ele>
        <time>2023-05-28T07:17:42Z</time>
      </trkpt>
      <trkpt lat="43.54077" lon="5.53057">
        <ele>356</ele>
        <time>2023-05-28T07:17:43Z</time>
      </trkpt>
      <trkpt lat="43.54077" lon="5.53057">
        <ele>356</ele>
        <time>2023-05-28T07:17:44Z</time>
      </trkpt>
      <trkpt lat="43.54077" lon="5.53057">
        <ele>356</ele>
        <time>2023-05-28T07:17:45Z</time>
      </trkpt>
      <trkpt lat="43.54077" lon="5.53057">
        <ele>355.9</ele>
        <time>2023-05-28T07:17:46Z</time>
      </trkpt>
      <trkpt lat="43.54078" lon="5.53057">
        <ele>355.7</ele>
        <time>2023-05-28T07:17:47Z</time>
      </trkpt>
      <trkpt lat="43.54078" lon="5.53057">
        <ele>355.7</ele>
        <time>2023-05-28T07:17:48Z</time>
      </trkpt>
      <trkpt lat="43.54078" lon="5.53058">
        <ele>355.8</ele>
        <time>2023-05-28T07:17:49Z</time>
      </trkpt>
      <trkpt lat="43.54078" lon="5.53058">
        <ele>355.9</ele>
        <time>2023-05-28T07:17:50Z</time>
      </trkpt>
      <trkpt lat="43.54077" lon="5.53058">
        <ele>356</ele>
        <time>2023-05-28T07:17:51Z</time>
      </trkpt>
      <trkpt lat="43.54077" lon="5.53058">
        <ele>355.9</ele>
        <time>2023-05-28T07:17:52Z</time>
      </trkpt>
      <trkpt lat="43.54077" lon="5.53058">
        <ele>355.9</ele>
        <time>2023-05-28T07:17:53Z</time>
      </trkpt>
      <trkpt lat="43.54077" lon="5.53058">
        <ele>356</ele>
        <time>2023-05-28T07:17:54Z</time>
      </trkpt>
      <trkpt lat="43.54077" lon="5.53058">
        <ele>356.1</ele>
        <time>2023-05-28T07:17:55Z</time>
      </trkpt>
      <trkpt lat="43.54077" lon="5.53058">
        <ele>356.1</ele>
        <time>2023-05-28T07:17:56Z</time>
      </trkpt>
      <trkpt lat="43.54077" lon="5.53058">
        <ele>356.1</ele>
        <time>2023-05-28T07:17:57Z</time>
      </trkpt>
      <trkpt lat="43.54077" lon="5.53058">
        <ele>356.1</ele>
        <time>2023-05-28T07:17:58Z</time>
      </trkpt>
      <trkpt lat="43.54077" lon="5.53057">
        <ele>356.1</ele>
        <time>2023-05-28T07:17:59Z</time>
      </trkpt>
      <trkpt lat="43.54077" lon="5.53057">
        <ele>356.1</ele>
        <time>2023-05-28T07:18:00Z</time>
      </trkpt>
      <trkpt lat="43.54077" lon="5.53057">
        <ele>356.1</ele>
        <time>2023-05-28T07:18:01Z</time>
      </trkpt>
      <trkpt lat="43.54077" lon="5.53057">
        <ele>356.1</ele>
        <time>2023-05-28T07:18:02Z</time>
      </trkpt>
      <trkpt lat="43.54077" lon="5.53057">
        <ele>356.1</ele>
        <time>2023-05-28T07:18:03Z</time>
      </trkpt>
      <trkpt lat="43.54078" lon="5.53056">
        <ele>356.1</ele>
        <time>2023-05-28T07:18:04Z</time>
      </trkpt>
      <trkpt lat="43.54078" lon="5.53056">
        <ele>356</ele>
        <time>2023-05-28T07:18:05Z</time>
      </trkpt>
      <trkpt lat="43.54078" lon="5.53056">
        <ele>356</ele>
        <time>2023-05-28T07:18:06Z</time>
      </trkpt>
      <trkpt lat="43.54078" lon="5.53057">
        <ele>356</ele>
        <time>2023-05-28T07:18:07Z</time>
      </trkpt>
      <trkpt lat="43.54078" lon="5.53057">
        <ele>356</ele>
        <time>2023-05-28T07:18:08Z</time>
      </trkpt>
      <trkpt lat="43.54078" lon="5.53057">
        <ele>356</ele>
        <time>2023-05-28T07:18:09Z</time>
      </trkpt>
      <trkpt lat="43.54078" lon="5.53057">
        <ele>355.9</ele>
        <time>2023-05-28T07:18:10Z</time>
      </trkpt>
      <trkpt lat="43.54078" lon="5.53057">
        <ele>355.9</ele>
        <time>2023-05-28T07:18:11Z</time>
      </trkpt>
      <trkpt lat="43.54078" lon="5.53057">
        <ele>355.9</ele>
        <time>2023-05-28T07:18:12Z</time>
      </trkpt>
      <trkpt lat="43.54078" lon="5.53057">
        <ele>355.8</ele>
        <time>2023-05-28T07:18:13Z</time>
      </trkpt>
      <trkpt lat="43.54078" lon="5.53057">
        <ele>355.9</ele>
        <time>2023-05-28T07:18:14Z</time>
      </trkpt>
      <trkpt lat="43.54078" lon="5.53057">
        <ele>355.9</ele>
        <time>2023-05-28T07:18:15Z</time>
      </trkpt>
      <trkpt lat="43.54078" lon="5.53057">
        <ele>356</ele>
        <time>2023-05-28T07:18:16Z</time>
      </trkpt>
      <trkpt lat="43.54078" lon="5.53057">
        <ele>356</ele>
        <time>2023-05-28T07:18:17Z</time>
      </trkpt>
      <trkpt lat="43.54078" lon="5.53057">
        <ele>355.9</ele>
        <time>2023-05-28T07:18:18Z</time>
      </trkpt>
      <trkpt lat="43.54078" lon="5.53057">
        <ele>355.9</ele>
        <time>2023-05-28T07:18:19Z</time>
      </trkpt>
      <trkpt lat="43.54078" lon="5.53057">
        <ele>355.9</ele>
        <time>2023-05-28T07:18:20Z</time>
      </trkpt>
      <trkpt lat="43.54078" lon="5.53057">
        <ele>356</ele>
        <time>2023-05-28T07:18:21Z</time>
      </trkpt>
      <trkpt lat="43.54078" lon="5.53057">
        <ele>356</ele>
        <time>2023-05-28T07:18:22Z</time>
      </trkpt>
      <trkpt lat="43.54078" lon="5.53057">
        <ele>356</ele>
        <time>2023-05-28T07:18:23Z</time>
      </trkpt>
      <trkpt lat="43.54078" lon="5.53057">
        <ele>356.1</ele>
        <time>2023-05-28T07:18:24Z</time>
      </trkpt>
      <trkpt lat="43.54079" lon="5.53057">
        <ele>356.1</ele>
        <time>2023-05-28T07:18:25Z</time>
      </trkpt>
      <trkpt lat="43.54079" lon="5.53057">
        <ele>356.1</ele>
        <time>2023-05-28T07:18:26Z</time>
      </trkpt>
      <trkpt lat="43.54079" lon="5.53057">
        <ele>356.1</ele>
        <time>2023-05-28T07:18:27Z</time>
      </trkpt>
      <trkpt lat="43.54079" lon="5.53057">
        <ele>356.1</ele>
        <time>2023-05-28T07:18:28Z</time>
      </trkpt>
      <trkpt lat="43.54079" lon="5.53057">
        <ele>356.2</ele>
        <time>2023-05-28T07:18:29Z</time>
      </trkpt>
      <trkpt lat="43.54079" lon="5.53057">
        <ele>356.3</ele>
        <time>2023-05-28T07:18:30Z</time>
      </trkpt>
      <trkpt lat="43.54079" lon="5.53057">
        <ele>356.4</ele>
        <time>2023-05-28T07:18:31Z</time>
      </trkpt>
      <trkpt lat="43.54079" lon="5.53057">
        <ele>356.4</ele>
        <time>2023-05-28T07:18:32Z</time>
      </trkpt>
      <trkpt lat="43.54079" lon="5.53058">
        <ele>356.4</ele>
        <time>2023-05-28T07:18:33Z</time>
      </trkpt>
      <trkpt lat="43.54078" lon="5.53058">
        <ele>356.3</ele>
        <time>2023-05-28T07:18:34Z</time>
      </trkpt>
      <trkpt lat="43.54078" lon="5.53058">
        <ele>356.3</ele>
        <time>2023-05-28T07:18:35Z</time>
      </trkpt>
      <trkpt lat="43.54078" lon="5.53058">
        <ele>356.2</ele>
        <time>2023-05-28T07:18:36Z</time>
      </trkpt>
      <trkpt lat="43.54078" lon="5.53058">
        <ele>356.2</ele>
        <time>2023-05-28T07:18:37Z</time>
      </trkpt>
      <trkpt lat="43.54078" lon="5.53058">
        <ele>356.3</ele>
        <time>2023-05-28T07:18:38Z</time>
      </trkpt>
      <trkpt lat="43.54078" lon="5.53058">
        <ele>356.3</ele>
        <time>2023-05-28T07:18:39Z</time>
      </trkpt>
      <trkpt lat="43.54078" lon="5.53058">
        <ele>356.3</ele>
        <time>2023-05-28T07:18:40Z</time>
      </trkpt>
      <trkpt lat="43.54078" lon="5.53058">
        <ele>356.4</ele>
        <time>2023-05-28T07:18:41Z</time>
      </trkpt>
      <trkpt lat="43.54078" lon="5.53059">
        <ele>356.4</ele>
        <time>2023-05-28T07:18:42Z</time>
      </trkpt>
      <trkpt lat="43.54079" lon="5.53059">
        <ele>356.4</ele>
        <time>2023-05-28T07:18:43Z</time>
      </trkpt>
      <trkpt lat="43.54079" lon="5.53059">
        <ele>356.3</ele>
        <time>2023-05-28T07:18:44Z</time>
      </trkpt>
      <trkpt lat="43.54079" lon="5.53059">
        <ele>356.3</ele>
        <time>2023-05-28T07:18:45Z</time>
      </trkpt>
      <trkpt lat="43.54079" lon="5.53059">
        <ele>356.3</ele>
        <time>2023-05-28T07:18:46Z</time>
      </trkpt>
      <trkpt lat="43.54079" lon="5.53059">
        <ele>356.3</ele>
        <time>2023-05-28T07:18:47Z</time>
      </trkpt>
      <trkpt lat="43.54079" lon="5.53059">
        <ele>356.3</ele>
        <time>2023-05-28T07:18:48Z</time>
      </trkpt>
      <trkpt lat="43.54079" lon="5.53059">
        <ele>356.2</ele>
        <time>2023-05-28T07:18:49Z</time>
      </trkpt>
      <trkpt lat="43.54079" lon="5.5306">
        <ele>356.2</ele>
        <time>2023-05-28T07:18:50Z</time>
      </trkpt>
      <trkpt lat="43.54079" lon="5.5306">
        <ele>356.1</ele>
        <time>2023-05-28T07:18:51Z</time>
      </trkpt>
      <trkpt lat="43.54079" lon="5.5306">
        <ele>356.1</ele>
        <time>2023-05-28T07:18:52Z</time>
      </trkpt>
      <trkpt lat="43.5408" lon="5.5306">
        <ele>356</ele>
        <time>2023-05-28T07:18:53Z</time>
      </trkpt>
      <trkpt lat="43.5408" lon="5.5306">
        <ele>356</ele>
        <time>2023-05-28T07:18:54Z</time>
      </trkpt>
      <trkpt lat="43.5408" lon="5.5306">
        <ele>355.9</ele>
        <time>2023-05-28T07:18:55Z</time>
      </trkpt>
      <trkpt lat="43.5408" lon="5.5306">
        <ele>356</ele>
        <time>2023-05-28T07:18:56Z</time>
      </trkpt>
      <trkpt lat="43.5408" lon="5.5306">
        <ele>356</ele>
        <time>2023-05-28T07:18:57Z</time>
      </trkpt>
      <trkpt lat="43.5408" lon="5.5306">
        <ele>356.1</ele>
        <time>2023-05-28T07:18:58Z</time>
      </trkpt>
      <trkpt lat="43.5408" lon="5.5306">
        <ele>356.1</ele>
        <time>2023-05-28T07:18:59Z</time>
      </trkpt>
      <trkpt lat="43.5408" lon="5.5306">
        <ele>356.1</ele>
        <time>2023-05-28T07:19:00Z</time>
      </trkpt>
      <trkpt lat="43.5408" lon="5.5306">
        <ele>356.2</ele>
        <time>2023-05-28T07:19:01Z</time>
      </trkpt>
      <trkpt lat="43.5408" lon="5.5306">
        <ele>356.2</ele>
        <time>2023-05-28T07:19:02Z</time>
      </trkpt>
      <trkpt lat="43.5408" lon="5.5306">
        <ele>356.1</ele>
        <time>2023-05-28T07:19:03Z</time>
      </trkpt>
      <trkpt lat="43.5408" lon="5.5306">
        <ele>356.1</ele>
        <time>2023-05-28T07:19:04Z</time>
      </trkpt>
      <trkpt lat="43.5408" lon="5.5306">
        <ele>356.1</ele>
        <time>2023-05-28T07:19:05Z</time>
      </trkpt>
      <trkpt lat="43.5408" lon="5.5306">
        <ele>356.1</ele>
        <time>2023-05-28T07:19:06Z</time>
      </trkpt>
      <trkpt lat="43.5408" lon="5.5306">
        <ele>356.1</ele>
        <time>2023-05-28T07:19:07Z</time>
      </trkpt>
      <trkpt lat="43.5408" lon="5.5306">
        <ele>356</ele>
        <time>2023-05-28T07:19:08Z</time>
      </trkpt>
      <trkpt lat="43.5408" lon="5.5306">
        <ele>356</ele>
        <time>2023-05-28T07:19:09Z</time>
      </trkpt>
      <trkpt lat="43.5408" lon="5.5306">
        <ele>356.1</ele>
        <time>2023-05-28T07:19:10Z</time>
      </trkpt>
      <trkpt lat="43.54079" lon="5.5306">
        <ele>356</ele>
        <time>2023-05-28T07:19:11Z</time>
      </trkpt>
      <trkpt lat="43.54079" lon="5.53061">
        <ele>355.9</ele>
        <time>2023-05-28T07:19:12Z</time>
      </trkpt>
      <trkpt lat="43.54079" lon="5.53061">
        <ele>356</ele>
        <time>2023-05-28T07:19:13Z</time>
      </trkpt>
      <trkpt lat="43.54078" lon="5.53062">
        <ele>355.9</ele>
        <time>2023-05-28T07:19:14Z</time>
      </trkpt>
      <trkpt lat="43.54077" lon="5.53063">
        <ele>355.8</ele>
        <time>2023-05-28T07:19:15Z</time>
      </trkpt>
      <trkpt lat="43.54077" lon="5.53063">
        <ele>355.8</ele>
        <time>2023-05-28T07:19:16Z</time>
      </trkpt>
      <trkpt lat="43.54076" lon="5.53064">
        <ele>355.8</ele>
        <time>2023-05-28T07:19:17Z</time>
      </trkpt>
      <trkpt lat="43.54075" lon="5.53065">
        <ele>355.7</ele>
        <time>2023-05-28T07:19:18Z</time>
      </trkpt>
      <trkpt lat="43.54075" lon="5.53066">
        <ele>355.7</ele>
        <time>2023-05-28T07:19:19Z</time>
      </trkpt>
      <trkpt lat="43.54075" lon="5.53066">
        <ele>355.7</ele>
        <time>2023-05-28T07:19:20Z</time>
      </trkpt>
      <trkpt lat="43.54075" lon="5.53066">
        <ele>355.7</ele>
        <time>2023-05-28T07:19:21Z</time>
      </trkpt>
      <trkpt lat="43.54075" lon="5.53066">
        <ele>355.8</ele>
        <time>2023-05-28T07:19:22Z</time>
      </trkpt>
      <trkpt lat="43.54074" lon="5.53066">
        <ele>355.8</ele>
        <time>2023-05-28T07:19:23Z</time>
      </trkpt>
      <trkpt lat="43.54074" lon="5.53066">
        <ele>355.7</ele>
        <time>2023-05-28T07:19:24Z</time>
      </trkpt>
      <trkpt lat="43.54074" lon="5.53066">
        <ele>355.3</ele>
        <time>2023-05-28T07:19:25Z</time>
      </trkpt>
      <trkpt lat="43.54074" lon="5.53066">
        <ele>355.2</ele>
        <time>2023-05-28T07:19:26Z</time>
      </trkpt>
      <trkpt lat="43.54074" lon="5.53066">
        <ele>355.3</ele>
        <time>2023-05-28T07:19:27Z</time>
      </trkpt>
      <trkpt lat="43.54074" lon="5.53066">
        <ele>355.3</ele>
        <time>2023-05-28T07:19:28Z</time>
      </trkpt>
      <trkpt lat="43.54074" lon="5.53066">
        <ele>355.7</ele>
        <time>2023-05-28T07:19:29Z</time>
      </trkpt>
      <trkpt lat="43.54074" lon="5.53066">
        <ele>355.8</ele>
        <time>2023-05-28T07:19:30Z</time>
      </trkpt>
      <trkpt lat="43.54074" lon="5.53066">
        <ele>355.7</ele>
        <time>2023-05-28T07:19:31Z</time>
      </trkpt>
      <trkpt lat="43.54074" lon="5.53066">
        <ele>355.7</ele>
        <time>2023-05-28T07:19:32Z</time>
      </trkpt>
      <trkpt lat="43.54074" lon="5.53066">
        <ele>355.6</ele>
        <time>2023-05-28T07:19:33Z</time>
      </trkpt>
      <trkpt lat="43.54074" lon="5.53065">
        <ele>355.5</ele>
        <time>2023-05-28T07:19:34Z</time>
      </trkpt>
      <trkpt lat="43.54074" lon="5.53065">
        <ele>355.5</ele>
        <time>2023-05-28T07:19:35Z</time>
      </trkpt>
      <trkpt lat="43.54074" lon="5.53065">
        <ele>355.5</ele>
        <time>2023-05-28T07:19:36Z</time>
      </trkpt>
      <trkpt lat="43.54074" lon="5.53065">
        <ele>355.6</ele>
        <time>2023-05-28T07:19:37Z</time>
      </trkpt>
      <trkpt lat="43.54074" lon="5.53065">
        <ele>355.6</ele>
        <time>2023-05-28T07:19:38Z</time>
      </trkpt>
      <trkpt lat="43.54073" lon="5.53065">
        <ele>355.6</ele>
        <time>2023-05-28T07:19:39Z</time>
      </trkpt>
      <trkpt lat="43.54073" lon="5.53065">
        <ele>355.6</ele>
        <time>2023-05-28T07:19:40Z</time>
      </trkpt>
      <trkpt lat="43.54072" lon="5.53067">
        <ele>355.8</ele>
        <time>2023-05-28T07:19:41Z</time>
      </trkpt>
      <trkpt lat="43.54072" lon="5.53068">
        <ele>356</ele>
        <time>2023-05-28T07:19:42Z</time>
      </trkpt>
      <trkpt lat="43.54071" lon="5.53069">
        <ele>356.1</ele>
        <time>2023-05-28T07:19:43Z</time>
      </trkpt>
      <trkpt lat="43.54071" lon="5.5307">
        <ele>356.1</ele>
        <time>2023-05-28T07:19:44Z</time>
      </trkpt>
      <trkpt lat="43.54071" lon="5.53072">
        <ele>356.1</ele>
        <time>2023-05-28T07:19:45Z</time>
      </trkpt>
      <trkpt lat="43.54071" lon="5.53073">
        <ele>356</ele>
        <time>2023-05-28T07:19:46Z</time>
      </trkpt>
      <trkpt lat="43.54071" lon="5.53074">
        <ele>355.9</ele>
        <time>2023-05-28T07:19:47Z</time>
      </trkpt>
      <trkpt lat="43.54071" lon="5.53076">
        <ele>355.9</ele>
        <time>2023-05-28T07:19:48Z</time>
      </trkpt>
      <trkpt lat="43.54072" lon="5.53077">
        <ele>355.9</ele>
        <time>2023-05-28T07:19:49Z</time>
      </trkpt>
      <trkpt lat="43.54072" lon="5.53079">
        <ele>355.9</ele>
        <time>2023-05-28T07:19:50Z</time>
      </trkpt>
      <trkpt lat="43.54072" lon="5.5308">
        <ele>355.9</ele>
        <time>2023-05-28T07:19:51Z</time>
      </trkpt>
      <trkpt lat="43.54072" lon="5.53081">
        <ele>355.9</ele>
        <time>2023-05-28T07:19:52Z</time>
      </trkpt>
      <trkpt lat="43.54073" lon="5.53083">
        <ele>356</ele>
        <time>2023-05-28T07:19:53Z</time>
      </trkpt>
      <trkpt lat="43.54073" lon="5.53084">
        <ele>356</ele>
        <time>2023-05-28T07:19:54Z</time>
      </trkpt>
      <trkpt lat="43.54073" lon="5.53086">
        <ele>355.9</ele>
        <time>2023-05-28T07:19:55Z</time>
      </trkpt>
      <trkpt lat="43.54073" lon="5.53087">
        <ele>355.8</ele>
        <time>2023-05-28T07:19:56Z</time>
      </trkpt>
      <trkpt lat="43.54074" lon="5.53089">
        <ele>355.9</ele>
        <time>2023-05-28T07:19:57Z</time>
      </trkpt>
      <trkpt lat="43.54074" lon="5.5309">
        <ele>355.9</ele>
        <time>2023-05-28T07:19:58Z</time>
      </trkpt>
      <trkpt lat="43.54074" lon="5.53092">
        <ele>355.9</ele>
        <time>2023-05-28T07:19:59Z</time>
      </trkpt>
      <trkpt lat="43.54075" lon="5.53093">
        <ele>355.9</ele>
        <time>2023-05-28T07:20:00Z</time>
      </trkpt>
      <trkpt lat="43.54075" lon="5.53094">
        <ele>356</ele>
        <time>2023-05-28T07:20:01Z</time>
      </trkpt>
      <trkpt lat="43.54075" lon="5.53095">
        <ele>356</ele>
        <time>2023-05-28T07:20:02Z</time>
      </trkpt>
      <trkpt lat="43.54076" lon="5.53097">
        <ele>356</ele>
        <time>2023-05-28T07:20:03Z</time>
      </trkpt>
      <trkpt lat="43.54076" lon="5.53098">
        <ele>356</ele>
        <time>2023-05-28T07:20:04Z</time>
      </trkpt>
      <trkpt lat="43.54076" lon="5.531">
        <ele>356</ele>
        <time>2023-05-28T07:20:05Z</time>
      </trkpt>
      <trkpt lat="43.54077" lon="5.53102">
        <ele>356</ele>
        <time>2023-05-28T07:20:06Z</time>
      </trkpt>
      <trkpt lat="43.54077" lon="5.53103">
        <ele>356.1</ele>
        <time>2023-05-28T07:20:07Z</time>
      </trkpt>
      <trkpt lat="43.54077" lon="5.53105">
        <ele>356.1</ele>
        <time>2023-05-28T07:20:08Z</time>
      </trkpt>
      <trkpt lat="43.54077" lon="5.53106">
        <ele>356.1</ele>
        <time>2023-05-28T07:20:09Z</time>
      </trkpt>
      <trkpt lat="43.54078" lon="5.53108">
        <ele>356.1</ele>
        <time>2023-05-28T07:20:10Z</time>
      </trkpt>
      <trkpt lat="43.54078" lon="5.53109">
        <ele>356.1</ele>
        <time>2023-05-28T07:20:11Z</time>
      </trkpt>
      <trkpt lat="43.54078" lon="5.5311">
        <ele>356.1</ele>
        <time>2023-05-28T07:20:12Z</time>
      </trkpt>
      <trkpt lat="43.54079" lon="5.53112">
        <ele>356.1</ele>
        <time>2023-05-28T07:20:13Z</time>
      </trkpt>
      <trkpt lat="43.54079" lon="5.53113">
        <ele>356.1</ele>
        <time>2023-05-28T07:20:14Z</time>
      </trkpt>
      <trkpt lat="43.54079" lon="5.53114">
        <ele>356.2</ele>
        <time>2023-05-28T07:20:15Z</time>
      </trkpt>
      <trkpt lat="43.54079" lon="5.53116">
        <ele>356.2</ele>
        <time>2023-05-28T07:20:16Z</time>
      </trkpt>
      <trkpt lat="43.5408" lon="5.53118">
        <ele>356.1</ele>
        <time>2023-05-28T07:20:17Z</time>
      </trkpt>
      <trkpt lat="43.5408" lon="5.53119">
        <ele>356.1</ele>
        <time>2023-05-28T07:20:18Z</time>
      </trkpt>
      <trkpt lat="43.5408" lon="5.5312">
        <ele>356.1</ele>
        <time>2023-05-28T07:20:19Z</time>
      </trkpt>
      <trkpt lat="43.54081" lon="5.53122">
        <ele>356.1</ele>
        <time>2023-05-28T07:20:20Z</time>
      </trkpt>
      <trkpt lat="43.54081" lon="5.53123">
        <ele>356.1</ele>
        <time>2023-05-28T07:20:21Z</time>
      </trkpt>
      <trkpt lat="43.54082" lon="5.53125">
        <ele>356.1</ele>
        <time>2023-05-28T07:20:22Z</time>
      </trkpt>
      <trkpt lat="43.54082" lon="5.53126">
        <ele>356.2</ele>
        <time>2023-05-28T07:20:23Z</time>
      </trkpt>
      <trkpt lat="43.54082" lon="5.53128">
        <ele>356.2</ele>
        <time>2023-05-28T07:20:24Z</time>
      </trkpt>
      <trkpt lat="43.54082" lon="5.53129">
        <ele>356.3</ele>
        <time>2023-05-28T07:20:25Z</time>
      </trkpt>
      <trkpt lat="43.54083" lon="5.53131">
        <ele>356.3</ele>
        <time>2023-05-28T07:20:26Z</time>
      </trkpt>
      <trkpt lat="43.54083" lon="5.53132">
        <ele>356.2</ele>
        <time>2023-05-28T07:20:27Z</time>
      </trkpt>
      <trkpt lat="43.54083" lon="5.53134">
        <ele>356.2</ele>
        <time>2023-05-28T07:20:28Z</time>
      </trkpt>
      <trkpt lat="43.54084" lon="5.53135">
        <ele>356.2</ele>
        <time>2023-05-28T07:20:29Z</time>
      </trkpt>
      <trkpt lat="43.54084" lon="5.53137">
        <ele>356.2</ele>
        <time>2023-05-28T07:20:30Z</time>
      </trkpt>
      <trkpt lat="43.54084" lon="5.53138">
        <ele>356.2</ele>
        <time>2023-05-28T07:20:31Z</time>
      </trkpt>
      <trkpt lat="43.54085" lon="5.5314">
        <ele>356.1</ele>
        <time>2023-05-28T07:20:32Z</time>
      </trkpt>
      <trkpt lat="43.54085" lon="5.53141">
        <ele>356.1</ele>
        <time>2023-05-28T07:20:33Z</time>
      </trkpt>
      <trkpt lat="43.54085" lon="5.53142">
        <ele>356.1</ele>
        <time>2023-05-28T07:20:34Z</time>
      </trkpt>
      <trkpt lat="43.54086" lon="5.53144">
        <ele>355.9</ele>
        <time>2023-05-28T07:20:35Z</time>
      </trkpt>
      <trkpt lat="43.54086" lon="5.53145">
        <ele>355.8</ele>
        <time>2023-05-28T07:20:36Z</time>
      </trkpt>
      <trkpt lat="43.54087" lon="5.53146">
        <ele>355.7</ele>
        <time>2023-05-28T07:20:37Z</time>
      </trkpt>
      <trkpt lat="43.54087" lon="5.53148">
        <ele>355.7</ele>
        <time>2023-05-28T07:20:38Z</time>
      </trkpt>
      <trkpt lat="43.54087" lon="5.53148">
        <ele>355.7</ele>
        <time>2023-05-28T07:20:39Z</time>
      </trkpt>
      <trkpt lat="43.54088" lon="5.53148">
        <ele>355.7</ele>
        <time>2023-05-28T07:20:40Z</time>
      </trkpt>
      <trkpt lat="43.54088" lon="5.53148">
        <ele>355.7</ele>
        <time>2023-05-28T07:20:41Z</time>
      </trkpt>
      <trkpt lat="43.54088" lon="5.53148">
        <ele>355.7</ele>
        <time>2023-05-28T07:20:42Z</time>
      </trkpt>
      <trkpt lat="43.54088" lon="5.53148">
        <ele>355.7</ele>
        <time>2023-05-28T07:20:43Z</time>
      </trkpt>
      <trkpt lat="43.54088" lon="5.53148">
        <ele>355.7</ele>
        <time>2023-05-28T07:20:44Z</time>
      </trkpt>
      <trkpt lat="43.54089" lon="5.53148">
        <ele>355.7</ele>
        <time>2023-05-28T07:20:45Z</time>
      </trkpt>
      <trkpt lat="43.54089" lon="5.53148">
        <ele>355.8</ele>
        <time>2023-05-28T07:20:46Z</time>
      </trkpt>
      <trkpt lat="43.54089" lon="5.53147">
        <ele>355.9</ele>
        <time>2023-05-28T07:20:47Z</time>
      </trkpt>
      <trkpt lat="43.5409" lon="5.53147">
        <ele>356</ele>
        <time>2023-05-28T07:20:48Z</time>
      </trkpt>
      <trkpt lat="43.5409" lon="5.53147">
        <ele>356</ele>
        <time>2023-05-28T07:20:49Z</time>
      </trkpt>
      <trkpt lat="43.5409" lon="5.53147">
        <ele>356</ele>
        <time>2023-05-28T07:20:50Z</time>
      </trkpt>
      <trkpt lat="43.5409" lon="5.53147">
        <ele>356</ele>
        <time>2023-05-28T07:20:51Z</time>
      </trkpt>
      <trkpt lat="43.54091" lon="5.53146">
        <ele>355.9</ele>
        <time>2023-05-28T07:20:52Z</time>
      </trkpt>
      <trkpt lat="43.54091" lon="5.53146">
        <ele>355.9</ele>
        <time>2023-05-28T07:20:53Z</time>
      </trkpt>
      <trkpt lat="43.54091" lon="5.53146">
        <ele>355.9</ele>
        <time>2023-05-28T07:20:54Z</time>
      </trkpt>
      <trkpt lat="43.5409" lon="5.53146">
        <ele>355.8</ele>
        <time>2023-05-28T07:20:55Z</time>
      </trkpt>
      <trkpt lat="43.5409" lon="5.53146">
        <ele>355.8</ele>
        <time>2023-05-28T07:20:56Z</time>
      </trkpt>
      <trkpt lat="43.5409" lon="5.53146">
        <ele>355.8</ele>
        <time>2023-05-28T07:20:57Z</time>
      </trkpt>
      <trkpt lat="43.5409" lon="5.53146">
        <ele>355.8</ele>
        <time>2023-05-28T07:20:58Z</time>
      </trkpt>
      <trkpt lat="43.5409" lon="5.53146">
        <ele>355.8</ele>
        <time>2023-05-28T07:20:59Z</time>
      </trkpt>
      <trkpt lat="43.5409" lon="5.53146">
        <ele>355.8</ele>
        <time>2023-05-28T07:21:00Z</time>
      </trkpt>
      <trkpt lat="43.5409" lon="5.53146">
        <ele>355.8</ele>
        <time>2023-05-28T07:21:01Z</time>
      </trkpt>
      <trkpt lat="43.5409" lon="5.53146">
        <ele>355.8</ele>
        <time>2023-05-28T07:21:02Z</time>
      </trkpt>
      <trkpt lat="43.5409" lon="5.53146">
        <ele>355.8</ele>
        <time>2023-05-28T07:21:03Z</time>
      </trkpt>
      <trkpt lat="43.5409" lon="5.53146">
        <ele>355.8</ele>
        <time>2023-05-28T07:21:04Z</time>
      </trkpt>
      <trkpt lat="43.5409" lon="5.53146">
        <ele>355.8</ele>
        <time>2023-05-28T07:21:05Z</time>
      </trkpt>
      <trkpt lat="43.54089" lon="5.53146">
        <ele>355.9</ele>
        <time>2023-05-28T07:21:06Z</time>
      </trkpt>
      <trkpt lat="43.54089" lon="5.53146">
        <ele>356</ele>
        <time>2023-05-28T07:21:07Z</time>
      </trkpt>
      <trkpt lat="43.54089" lon="5.53146">
        <ele>356</ele>
        <time>2023-05-28T07:21:08Z</time>
      </trkpt>
      <trkpt lat="43.54089" lon="5.53146">
        <ele>356</ele>
        <time>2023-05-28T07:21:09Z</time>
      </trkpt>
      <trkpt lat="43.54089" lon="5.53145">
        <ele>356.1</ele>
        <time>2023-05-28T07:21:10Z</time>
      </trkpt>
      <trkpt lat="43.54089" lon="5.53145">
        <ele>356.1</ele>
        <time>2023-05-28T07:21:11Z</time>
      </trkpt>
      <trkpt lat="43.54089" lon="5.53145">
        <ele>356.2</ele>
        <time>2023-05-28T07:21:12Z</time>
      </trkpt>
      <trkpt lat="43.54089" lon="5.53145">
        <ele>356.2</ele>
        <time>2023-05-28T07:21:13Z</time>
      </trkpt>
      <trkpt lat="43.54089" lon="5.53146">
        <ele>356.2</ele>
        <time>2023-05-28T07:21:14Z</time>
      </trkpt>
      <trkpt lat="43.54089" lon="5.53146">
        <ele>356.2</ele>
        <time>2023-05-28T07:21:15Z</time>
      </trkpt>
      <trkpt lat="43.54088" lon="5.53147">
        <ele>356.2</ele>
        <time>2023-05-28T07:21:16Z</time>
      </trkpt>
      <trkpt lat="43.54088" lon="5.53147">
        <ele>356.1</ele>
        <time>2023-05-28T07:21:17Z</time>
      </trkpt>
      <trkpt lat="43.54088" lon="5.53148">
        <ele>356</ele>
        <time>2023-05-28T07:21:18Z</time>
      </trkpt>
      <trkpt lat="43.54089" lon="5.53149">
        <ele>356</ele>
        <time>2023-05-28T07:21:19Z</time>
      </trkpt>
      <trkpt lat="43.54089" lon="5.5315">
        <ele>355.9</ele>
        <time>2023-05-28T07:21:20Z</time>
      </trkpt>
      <trkpt lat="43.54089" lon="5.53152">
        <ele>355.9</ele>
        <time>2023-05-28T07:21:21Z</time>
      </trkpt>
      <trkpt lat="43.54089" lon="5.53153">
        <ele>355.9</ele>
        <time>2023-05-28T07:21:22Z</time>
      </trkpt>
      <trkpt lat="43.54089" lon="5.53154">
        <ele>355.7</ele>
        <time>2023-05-28T07:21:23Z</time>
      </trkpt>
      <trkpt lat="43.54089" lon="5.53155">
        <ele>355.7</ele>
        <time>2023-05-28T07:21:24Z</time>
      </trkpt>
      <trkpt lat="43.5409" lon="5.53156">
        <ele>355.7</ele>
        <time>2023-05-28T07:21:25Z</time>
      </trkpt>
      <trkpt lat="43.5409" lon="5.53157">
        <ele>355.8</ele>
        <time>2023-05-28T07:21:26Z</time>
      </trkpt>
      <trkpt lat="43.5409" lon="5.53157">
        <ele>355.8</ele>
        <time>2023-05-28T07:21:27Z</time>
      </trkpt>
      <trkpt lat="43.5409" lon="5.53157">
        <ele>355.9</ele>
        <time>2023-05-28T07:21:28Z</time>
      </trkpt>
      <trkpt lat="43.5409" lon="5.53157">
        <ele>355.9</ele>
        <time>2023-05-28T07:21:29Z</time>
      </trkpt>
      <trkpt lat="43.5409" lon="5.53158">
        <ele>355.9</ele>
        <time>2023-05-28T07:21:30Z</time>
      </trkpt>
      <trkpt lat="43.54091" lon="5.53159">
        <ele>355.9</ele>
        <time>2023-05-28T07:21:31Z</time>
      </trkpt>
      <trkpt lat="43.54092" lon="5.53161">
        <ele>356</ele>
        <time>2023-05-28T07:21:32Z</time>
      </trkpt>
      <trkpt lat="43.54092" lon="5.53162">
        <ele>356</ele>
        <time>2023-05-28T07:21:33Z</time>
      </trkpt>
      <trkpt lat="43.54093" lon="5.53163">
        <ele>355.9</ele>
        <time>2023-05-28T07:21:34Z</time>
      </trkpt>
      <trkpt lat="43.54094" lon="5.53164">
        <ele>355.9</ele>
        <time>2023-05-28T07:21:35Z</time>
      </trkpt>
      <trkpt lat="43.54095" lon="5.53165">
        <ele>356</ele>
        <time>2023-05-28T07:21:36Z</time>
      </trkpt>
      <trkpt lat="43.54095" lon="5.53166">
        <ele>356.1</ele>
        <time>2023-05-28T07:21:37Z</time>
      </trkpt>
      <trkpt lat="43.54095" lon="5.53167">
        <ele>356.2</ele>
        <time>2023-05-28T07:21:38Z</time>
      </trkpt>
      <trkpt lat="43.54096" lon="5.53168">
        <ele>356.2</ele>
        <time>2023-05-28T07:21:39Z</time>
      </trkpt>
      <trkpt lat="43.54097" lon="5.53169">
        <ele>356.2</ele>
        <time>2023-05-28T07:21:40Z</time>
      </trkpt>
      <trkpt lat="43.54097" lon="5.5317">
        <ele>356.2</ele>
        <time>2023-05-28T07:21:41Z</time>
      </trkpt>
      <trkpt lat="43.54098" lon="5.53171">
        <ele>356.2</ele>
        <time>2023-05-28T07:21:42Z</time>
      </trkpt>
      <trkpt lat="43.54098" lon="5.53172">
        <ele>356.2</ele>
        <time>2023-05-28T07:21:43Z</time>
      </trkpt>
      <trkpt lat="43.54099" lon="5.53173">
        <ele>356</ele>
        <time>2023-05-28T07:21:44Z</time>
      </trkpt>
      <trkpt lat="43.54099" lon="5.53174">
        <ele>356</ele>
        <time>2023-05-28T07:21:45Z</time>
      </trkpt>
      <trkpt lat="43.541" lon="5.53175">
        <ele>356</ele>
        <time>2023-05-28T07:21:46Z</time>
      </trkpt>
      <trkpt lat="43.54101" lon="5.53176">
        <ele>355.9</ele>
        <time>2023-05-28T07:21:47Z</time>
      </trkpt>
      <trkpt lat="43.54101" lon="5.53177">
        <ele>355.9</ele>
        <time>2023-05-28T07:21:48Z</time>
      </trkpt>
      <trkpt lat="43.54101" lon="5.53178">
        <ele>356</ele>
        <time>2023-05-28T07:21:49Z</time>
      </trkpt>
      <trkpt lat="43.54101" lon="5.53178">
        <ele>355.9</ele>
        <time>2023-05-28T07:21:50Z</time>
      </trkpt>
      <trkpt lat="43.54101" lon="5.5318">
        <ele>355.9</ele>
        <time>2023-05-28T07:21:51Z</time>
      </trkpt>
      <trkpt lat="43.54101" lon="5.53181">
        <ele>355.9</ele>
        <time>2023-05-28T07:21:52Z</time>
      </trkpt>
      <trkpt lat="43.541" lon="5.53183">
        <ele>355.9</ele>
        <time>2023-05-28T07:21:53Z</time>
      </trkpt>
      <trkpt lat="43.541" lon="5.53183">
        <ele>355.9</ele>
        <time>2023-05-28T07:21:54Z</time>
      </trkpt>
      <trkpt lat="43.541" lon="5.53183">
        <ele>355.9</ele>
        <time>2023-05-28T07:21:55Z</time>
      </trkpt>
      <trkpt lat="43.541" lon="5.53183">
        <ele>355.9</ele>
        <time>2023-05-28T07:21:56Z</time>
      </trkpt>
      <trkpt lat="43.541" lon="5.53183">
        <ele>355.9</ele>
        <time>2023-05-28T07:21:57Z</time>
      </trkpt>
      <trkpt lat="43.541" lon="5.53183">
        <ele>355.9</ele>
        <time>2023-05-28T07:21:58Z</time>
      </trkpt>
      <trkpt lat="43.541" lon="5.53183">
        <ele>355.9</ele>
        <time>2023-05-28T07:21:59Z</time>
      </trkpt>
      <trkpt lat="43.541" lon="5.53183">
        <ele>355.9</ele>
        <time>2023-05-28T07:22:00Z</time>
      </trkpt>
      <trkpt lat="43.541" lon="5.53183">
        <ele>355.8</ele>
        <time>2023-05-28T07:22:01Z</time>
      </trkpt>
      <trkpt lat="43.541" lon="5.53183">
        <ele>355.8</ele>
        <time>2023-05-28T07:22:02Z</time>
      </trkpt>
      <trkpt lat="43.541" lon="5.53183">
        <ele>355.8</ele>
        <time>2023-05-28T07:22:03Z</time>
      </trkpt>
      <trkpt lat="43.541" lon="5.53183">
        <ele>355.7</ele>
        <time>2023-05-28T07:22:04Z</time>
      </trkpt>
      <trkpt lat="43.541" lon="5.53183">
        <ele>355.6</ele>
        <time>2023-05-28T07:22:05Z</time>
      </trkpt>
      <trkpt lat="43.541" lon="5.53183">
        <ele>355.7</ele>
        <time>2023-05-28T07:22:06Z</time>
      </trkpt>
      <trkpt lat="43.541" lon="5.53183">
        <ele>355.6</ele>
        <time>2023-05-28T07:22:07Z</time>
      </trkpt>
      <trkpt lat="43.541" lon="5.53183">
        <ele>355.7</ele>
        <time>2023-05-28T07:22:08Z</time>
      </trkpt>
      <trkpt lat="43.541" lon="5.53183">
        <ele>355.7</ele>
        <time>2023-05-28T07:22:09Z</time>
      </trkpt>
      <trkpt lat="43.541" lon="5.53183">
        <ele>355.8</ele>
        <time>2023-05-28T07:22:10Z</time>
      </trkpt>
      <trkpt lat="43.541" lon="5.53183">
        <ele>355.8</ele>
        <time>2023-05-28T07:22:11Z</time>
      </trkpt>
      <trkpt lat="43.541" lon="5.53184">
        <ele>355.8</ele>
        <time>2023-05-28T07:22:12Z</time>
      </trkpt>
      <trkpt lat="43.541" lon="5.53184">
        <ele>355.8</ele>
        <time>2023-05-28T07:22:13Z</time>
      </trkpt>
      <trkpt lat="43.541" lon="5.53184">
        <ele>355.8</ele>
        <time>2023-05-28T07:22:14Z</time>
      </trkpt>
      <trkpt lat="43.541" lon="5.53184">
        <ele>355.9</ele>
        <time>2023-05-28T07:22:15Z</time>
      </trkpt>
      <trkpt lat="43.54102" lon="5.53185">
        <ele>355.9</ele>
        <time>2023-05-28T07:22:16Z</time>
      </trkpt>
      <trkpt lat="43.54102" lon="5.53185">
        <ele>355.8</ele>
        <time>2023-05-28T07:22:17Z</time>
      </trkpt>
      <trkpt lat="43.54103" lon="5.53185">
        <ele>355.8</ele>
        <time>2023-05-28T07:22:18Z</time>
      </trkpt>
      <trkpt lat="43.54104" lon="5.53186">
        <ele>355.8</ele>
        <time>2023-05-28T07:22:19Z</time>
      </trkpt>
      <trkpt lat="43.54104" lon="5.53187">
        <ele>355.8</ele>
        <time>2023-05-28T07:22:20Z</time>
      </trkpt>
      <trkpt lat="43.54105" lon="5.53188">
        <ele>355.8</ele>
        <time>2023-05-28T07:22:21Z</time>
      </trkpt>
      <trkpt lat="43.54106" lon="5.53189">
        <ele>355.8</ele>
        <time>2023-05-28T07:22:22Z</time>
      </trkpt>
      <trkpt lat="43.54107" lon="5.53191">
        <ele>355.8</ele>
        <time>2023-05-28T07:22:23Z</time>
      </trkpt>
      <trkpt lat="43.54107" lon="5.53192">
        <ele>355.8</ele>
        <time>2023-05-28T07:22:24Z</time>
      </trkpt>
      <trkpt lat="43.54108" lon="5.53193">
        <ele>355.8</ele>
        <time>2023-05-28T07:22:25Z</time>
      </trkpt>
      <trkpt lat="43.54108" lon="5.53195">
        <ele>355.8</ele>
        <time>2023-05-28T07:22:26Z</time>
      </trkpt>
      <trkpt lat="43.54109" lon="5.53196">
        <ele>355.8</ele>
        <time>2023-05-28T07:22:27Z</time>
      </trkpt>
      <trkpt lat="43.54109" lon="5.53197">
        <ele>355.8</ele>
        <time>2023-05-28T07:22:28Z</time>
      </trkpt>
      <trkpt lat="43.54109" lon="5.53199">
        <ele>355.8</ele>
        <time>2023-05-28T07:22:29Z</time>
      </trkpt>
      <trkpt lat="43.5411" lon="5.532">
        <ele>355.8</ele>
        <time>2023-05-28T07:22:30Z</time>
      </trkpt>
      <trkpt lat="43.5411" lon="5.53201">
        <ele>355.8</ele>
        <time>2023-05-28T07:22:31Z</time>
      </trkpt>
      <trkpt lat="43.54111" lon="5.53203">
        <ele>355.8</ele>
        <time>2023-05-28T07:22:32Z</time>
      </trkpt>
      <trkpt lat="43.54112" lon="5.53204">
        <ele>355.8</ele>
        <time>2023-05-28T07:22:33Z</time>
      </trkpt>
      <trkpt lat="43.54112" lon="5.53205">
        <ele>355.7</ele>
        <time>2023-05-28T07:22:34Z</time>
      </trkpt>
      <trkpt lat="43.54113" lon="5.53207">
        <ele>355.7</ele>
        <time>2023-05-28T07:22:35Z</time>
      </trkpt>
      <trkpt lat="43.54114" lon="5.53208">
        <ele>355.7</ele>
        <time>2023-05-28T07:22:36Z</time>
      </trkpt>
      <trkpt lat="43.54114" lon="5.53209">
        <ele>355.7</ele>
        <time>2023-05-28T07:22:37Z</time>
      </trkpt>
      <trkpt lat="43.54115" lon="5.53211">
        <ele>355.8</ele>
        <time>2023-05-28T07:22:38Z</time>
      </trkpt>
      <trkpt lat="43.54116" lon="5.53212">
        <ele>355.8</ele>
        <time>2023-05-28T07:22:39Z</time>
      </trkpt>
      <trkpt lat="43.54117" lon="5.53213">
        <ele>355.9</ele>
        <time>2023-05-28T07:22:40Z</time>
      </trkpt>
      <trkpt lat="43.54117" lon="5.53214">
        <ele>355.8</ele>
        <time>2023-05-28T07:22:41Z</time>
      </trkpt>
      <trkpt lat="43.54118" lon="5.53215">
        <ele>355.9</ele>
        <time>2023-05-28T07:22:42Z</time>
      </trkpt>
      <trkpt lat="43.54119" lon="5.53217">
        <ele>355.9</ele>
        <time>2023-05-28T07:22:43Z</time>
      </trkpt>
      <trkpt lat="43.54119" lon="5.53218">
        <ele>355.9</ele>
        <time>2023-05-28T07:22:44Z</time>
      </trkpt>
      <trkpt lat="43.5412" lon="5.5322">
        <ele>355.9</ele>
        <time>2023-05-28T07:22:45Z</time>
      </trkpt>
      <trkpt lat="43.54121" lon="5.53221">
        <ele>355.9</ele>
        <time>2023-05-28T07:22:46Z</time>
      </trkpt>
      <trkpt lat="43.54122" lon="5.53222">
        <ele>355.8</ele>
        <time>2023-05-28T07:22:47Z</time>
      </trkpt>
      <trkpt lat="43.54123" lon="5.53224">
        <ele>356</ele>
        <time>2023-05-28T07:22:48Z</time>
      </trkpt>
      <trkpt lat="43.54123" lon="5.53225">
        <ele>356.1</ele>
        <time>2023-05-28T07:22:49Z</time>
      </trkpt>
      <trkpt lat="43.54124" lon="5.53226">
        <ele>356.2</ele>
        <time>2023-05-28T07:22:50Z</time>
      </trkpt>
      <trkpt lat="43.54125" lon="5.53228">
        <ele>356.1</ele>
        <time>2023-05-28T07:22:51Z</time>
      </trkpt>
      <trkpt lat="43.54125" lon="5.53229">
        <ele>356</ele>
        <time>2023-05-28T07:22:52Z</time>
      </trkpt>
      <trkpt lat="43.54126" lon="5.53231">
        <ele>355.9</ele>
        <time>2023-05-28T07:22:53Z</time>
      </trkpt>
      <trkpt lat="43.54127" lon="5.53232">
        <ele>355.9</ele>
        <time>2023-05-28T07:22:54Z</time>
      </trkpt>
      <trkpt lat="43.54128" lon="5.53233">
        <ele>355.8</ele>
        <time>2023-05-28T07:22:55Z</time>
      </trkpt>
      <trkpt lat="43.54129" lon="5.53234">
        <ele>355.8</ele>
        <time>2023-05-28T07:22:56Z</time>
      </trkpt>
      <trkpt lat="43.54129" lon="5.53236">
        <ele>355.7</ele>
        <time>2023-05-28T07:22:57Z</time>
      </trkpt>
      <trkpt lat="43.5413" lon="5.53237">
        <ele>355.7</ele>
        <time>2023-05-28T07:22:58Z</time>
      </trkpt>
      <trkpt lat="43.54131" lon="5.53238">
        <ele>355.8</ele>
        <time>2023-05-28T07:22:59Z</time>
      </trkpt>
      <trkpt lat="43.54132" lon="5.53239">
        <ele>355.9</ele>
        <time>2023-05-28T07:23:00Z</time>
      </trkpt>
      <trkpt lat="43.54132" lon="5.5324">
        <ele>356</ele>
        <time>2023-05-28T07:23:01Z</time>
      </trkpt>
      <trkpt lat="43.54133" lon="5.53241">
        <ele>356.1</ele>
        <time>2023-05-28T07:23:02Z</time>
      </trkpt>
      <trkpt lat="43.54134" lon="5.53242">
        <ele>356.1</ele>
        <time>2023-05-28T07:23:03Z</time>
      </trkpt>
      <trkpt lat="43.54135" lon="5.53244">
        <ele>356</ele>
        <time>2023-05-28T07:23:04Z</time>
      </trkpt>
      <trkpt lat="43.54135" lon="5.53245">
        <ele>355.9</ele>
        <time>2023-05-28T07:23:05Z</time>
      </trkpt>
      <trkpt lat="43.54136" lon="5.53247">
        <ele>355.3</ele>
        <time>2023-05-28T07:23:06Z</time>
      </trkpt>
      <trkpt lat="43.54137" lon="5.53248">
        <ele>355.5</ele>
        <time>2023-05-28T07:23:07Z</time>
      </trkpt>
      <trkpt lat="43.54139" lon="5.5325">
        <ele>355.6</ele>
        <time>2023-05-28T07:23:08Z</time>
      </trkpt>
      <trkpt lat="43.54139" lon="5.5325">
        <ele>355.7</ele>
        <time>2023-05-28T07:23:09Z</time>
      </trkpt>
      <trkpt lat="43.5414" lon="5.53252">
        <ele>355.8</ele>
        <time>2023-05-28T07:23:10Z</time>
      </trkpt>
      <trkpt lat="43.54141" lon="5.53253">
        <ele>356</ele>
        <time>2023-05-28T07:23:11Z</time>
      </trkpt>
      <trkpt lat="43.54142" lon="5.53253">
        <ele>356.1</ele>
        <time>2023-05-28T07:23:12Z</time>
      </trkpt>
      <trkpt lat="43.54143" lon="5.53254">
        <ele>356.2</ele>
        <time>2023-05-28T07:23:13Z</time>
      </trkpt>
      <trkpt lat="43.54144" lon="5.53254">
        <ele>356.2</ele>
        <time>2023-05-28T07:23:14Z</time>
      </trkpt>
      <trkpt lat="43.54145" lon="5.53255">
        <ele>356.2</ele>
        <time>2023-05-28T07:23:15Z</time>
      </trkpt>
      <trkpt lat="43.54146" lon="5.53256">
        <ele>356.1</ele>
        <time>2023-05-28T07:23:16Z</time>
      </trkpt>
      <trkpt lat="43.54147" lon="5.53257">
        <ele>356.1</ele>
        <time>2023-05-28T07:23:17Z</time>
      </trkpt>
      <trkpt lat="43.54148" lon="5.53258">
        <ele>356.1</ele>
        <time>2023-05-28T07:23:18Z</time>
      </trkpt>
      <trkpt lat="43.54148" lon="5.53259">
        <ele>356.2</ele>
        <time>2023-05-28T07:23:19Z</time>
      </trkpt>
      <trkpt lat="43.54149" lon="5.5326">
        <ele>356.3</ele>
        <time>2023-05-28T07:23:20Z</time>
      </trkpt>
      <trkpt lat="43.54149" lon="5.53262">
        <ele>356.4</ele>
        <time>2023-05-28T07:23:21Z</time>
      </trkpt>
      <trkpt lat="43.5415" lon="5.53263">
        <ele>356.4</ele>
        <time>2023-05-28T07:23:22Z</time>
      </trkpt>
      <trkpt lat="43.5415" lon="5.53265">
        <ele>356.5</ele>
        <time>2023-05-28T07:23:23Z</time>
      </trkpt>
      <trkpt lat="43.5415" lon="5.53266">
        <ele>356.4</ele>
        <time>2023-05-28T07:23:24Z</time>
      </trkpt>
      <trkpt lat="43.54151" lon="5.53267">
        <ele>356.4</ele>
        <time>2023-05-28T07:23:25Z</time>
      </trkpt>
      <trkpt lat="43.54152" lon="5.53269">
        <ele>356.4</ele>
        <time>2023-05-28T07:23:26Z</time>
      </trkpt>
      <trkpt lat="43.54153" lon="5.5327">
        <ele>356.4</ele>
        <time>2023-05-28T07:23:27Z</time>
      </trkpt>
      <trkpt lat="43.54153" lon="5.53272">
        <ele>356.3</ele>
        <time>2023-05-28T07:23:28Z</time>
      </trkpt>
      <trkpt lat="43.54153" lon="5.53273">
        <ele>355.9</ele>
        <time>2023-05-28T07:23:29Z</time>
      </trkpt>
      <trkpt lat="43.54154" lon="5.53275">
        <ele>356.4</ele>
        <time>2023-05-28T07:23:30Z</time>
      </trkpt>
      <trkpt lat="43.54154" lon="5.53277">
        <ele>356.5</ele>
        <time>2023-05-28T07:23:31Z</time>
      </trkpt>
      <trkpt lat="43.54154" lon="5.53278">
        <ele>356.5</ele>
        <time>2023-05-28T07:23:32Z</time>
      </trkpt>
      <trkpt lat="43.54155" lon="5.53279">
        <ele>356.5</ele>
        <time>2023-05-28T07:23:33Z</time>
      </trkpt>
      <trkpt lat="43.54155" lon="5.53281">
        <ele>356.4</ele>
        <time>2023-05-28T07:23:34Z</time>
      </trkpt>
      <trkpt lat="43.54155" lon="5.53283">
        <ele>356.3</ele>
        <time>2023-05-28T07:23:35Z</time>
      </trkpt>
      <trkpt lat="43.54155" lon="5.53284">
        <ele>356</ele>
        <time>2023-05-28T07:23:36Z</time>
      </trkpt>
      <trkpt lat="43.54156" lon="5.53285">
        <ele>355.9</ele>
        <time>2023-05-28T07:23:37Z</time>
      </trkpt>
      <trkpt lat="43.54156" lon="5.53287">
        <ele>355.8</ele>
        <time>2023-05-28T07:23:38Z</time>
      </trkpt>
      <trkpt lat="43.54157" lon="5.53288">
        <ele>355.6</ele>
        <time>2023-05-28T07:23:39Z</time>
      </trkpt>
      <trkpt lat="43.54157" lon="5.5329">
        <ele>355.6</ele>
        <time>2023-05-28T07:23:40Z</time>
      </trkpt>
      <trkpt lat="43.54157" lon="5.53291">
        <ele>355.8</ele>
        <time>2023-05-28T07:23:41Z</time>
      </trkpt>
      <trkpt lat="43.54157" lon="5.53293">
        <ele>356.1</ele>
        <time>2023-05-28T07:23:42Z</time>
      </trkpt>
      <trkpt lat="43.54158" lon="5.53294">
        <ele>356.1</ele>
        <time>2023-05-28T07:23:43Z</time>
      </trkpt>
      <trkpt lat="43.54158" lon="5.53296">
        <ele>356.1</ele>
        <time>2023-05-28T07:23:44Z</time>
      </trkpt>
      <trkpt lat="43.54158" lon="5.53296">
        <ele>356.1</ele>
        <time>2023-05-28T07:23:45Z</time>
      </trkpt>
      <trkpt lat="43.54158" lon="5.53298">
        <ele>356.3</ele>
        <time>2023-05-28T07:23:46Z</time>
      </trkpt>
      <trkpt lat="43.54159" lon="5.533">
        <ele>356.4</ele>
        <time>2023-05-28T07:23:47Z</time>
      </trkpt>
      <trkpt lat="43.54157" lon="5.53302">
        <ele>356.5</ele>
        <time>2023-05-28T07:23:48Z</time>
      </trkpt>
      <trkpt lat="43.54157" lon="5.53303">
        <ele>356.7</ele>
        <time>2023-05-28T07:23:49Z</time>
      </trkpt>
      <trkpt lat="43.54157" lon="5.53305">
        <ele>356.8</ele>
        <time>2023-05-28T07:23:50Z</time>
      </trkpt>
      <trkpt lat="43.54158" lon="5.53306">
        <ele>356.8</ele>
        <time>2023-05-28T07:23:51Z</time>
      </trkpt>
      <trkpt lat="43.54158" lon="5.53308">
        <ele>356.8</ele>
        <time>2023-05-28T07:23:52Z</time>
      </trkpt>
      <trkpt lat="43.54158" lon="5.5331">
        <ele>356.9</ele>
        <time>2023-05-28T07:23:53Z</time>
      </trkpt>
      <trkpt lat="43.54159" lon="5.53311">
        <ele>356.9</ele>
        <time>2023-05-28T07:23:54Z</time>
      </trkpt>
      <trkpt lat="43.5416" lon="5.53312">
        <ele>356.9</ele>
        <time>2023-05-28T07:23:55Z</time>
      </trkpt>
      <trkpt lat="43.5416" lon="5.53314">
        <ele>357</ele>
        <time>2023-05-28T07:23:56Z</time>
      </trkpt>
      <trkpt lat="43.5416" lon="5.53316">
        <ele>357</ele>
        <time>2023-05-28T07:23:57Z</time>
      </trkpt>
      <trkpt lat="43.54161" lon="5.53317">
        <ele>357</ele>
        <time>2023-05-28T07:23:58Z</time>
      </trkpt>
      <trkpt lat="43.54162" lon="5.53318">
        <ele>357.1</ele>
        <time>2023-05-28T07:23:59Z</time>
      </trkpt>
      <trkpt lat="43.54162" lon="5.53319">
        <ele>357.2</ele>
        <time>2023-05-28T07:24:00Z</time>
      </trkpt>
      <trkpt lat="43.54163" lon="5.53321">
        <ele>357.1</ele>
        <time>2023-05-28T07:24:01Z</time>
      </trkpt>
      <trkpt lat="43.54163" lon="5.53322">
        <ele>357.1</ele>
        <time>2023-05-28T07:24:02Z</time>
      </trkpt>
      <trkpt lat="43.54163" lon="5.53323">
        <ele>357.2</ele>
        <time>2023-05-28T07:24:03Z</time>
      </trkpt>
      <trkpt lat="43.54164" lon="5.53325">
        <ele>357.2</ele>
        <time>2023-05-28T07:24:04Z</time>
      </trkpt>
      <trkpt lat="43.54164" lon="5.53326">
        <ele>357.2</ele>
        <time>2023-05-28T07:24:05Z</time>
      </trkpt>
      <trkpt lat="43.54164" lon="5.53328">
        <ele>357.2</ele>
        <time>2023-05-28T07:24:06Z</time>
      </trkpt>
      <trkpt lat="43.54165" lon="5.5333">
        <ele>357.2</ele>
        <time>2023-05-28T07:24:07Z</time>
      </trkpt>
      <trkpt lat="43.54165" lon="5.53331">
        <ele>357.3</ele>
        <time>2023-05-28T07:24:08Z</time>
      </trkpt>
      <trkpt lat="43.54165" lon="5.53332">
        <ele>357.3</ele>
        <time>2023-05-28T07:24:09Z</time>
      </trkpt>
      <trkpt lat="43.54166" lon="5.53333">
        <ele>357.5</ele>
        <time>2023-05-28T07:24:10Z</time>
      </trkpt>
      <trkpt lat="43.54166" lon="5.53335">
        <ele>357.6</ele>
        <time>2023-05-28T07:24:11Z</time>
      </trkpt>
      <trkpt lat="43.54166" lon="5.53336">
        <ele>357.6</ele>
        <time>2023-05-28T07:24:12Z</time>
      </trkpt>
      <trkpt lat="43.54166" lon="5.53337">
        <ele>357.7</ele>
        <time>2023-05-28T07:24:13Z</time>
      </trkpt>
      <trkpt lat="43.54167" lon="5.53338">
        <ele>357.7</ele>
        <time>2023-05-28T07:24:14Z</time>
      </trkpt>
      <trkpt lat="43.54167" lon="5.53339">
        <ele>357.6</ele>
        <time>2023-05-28T07:24:15Z</time>
      </trkpt>
      <trkpt lat="43.54168" lon="5.5334">
        <ele>357.7</ele>
        <time>2023-05-28T07:24:16Z</time>
      </trkpt>
      <trkpt lat="43.54168" lon="5.53341">
        <ele>357.7</ele>
        <time>2023-05-28T07:24:17Z</time>
      </trkpt>
      <trkpt lat="43.54169" lon="5.53342">
        <ele>357.7</ele>
        <time>2023-05-28T07:24:18Z</time>
      </trkpt>
      <trkpt lat="43.54169" lon="5.53343">
        <ele>357.7</ele>
        <time>2023-05-28T07:24:19Z</time>
      </trkpt>
      <trkpt lat="43.54169" lon="5.53343">
        <ele>357.8</ele>
        <time>2023-05-28T07:24:20Z</time>
      </trkpt>
      <trkpt lat="43.54169" lon="5.53343">
        <ele>357.8</ele>
        <time>2023-05-28T07:24:21Z</time>
      </trkpt>
      <trkpt lat="43.54169" lon="5.53343">
        <ele>357.8</ele>
        <time>2023-05-28T07:24:22Z</time>
      </trkpt>
      <trkpt lat="43.54169" lon="5.53343">
        <ele>357.7</ele>
        <time>2023-05-28T07:24:23Z</time>
      </trkpt>
      <trkpt lat="43.54169" lon="5.53343">
        <ele>357.7</ele>
        <time>2023-05-28T07:24:24Z</time>
      </trkpt>
      <trkpt lat="43.54169" lon="5.53343">
        <ele>357.8</ele>
        <time>2023-05-28T07:24:25Z</time>
      </trkpt>
      <trkpt lat="43.54168" lon="5.53343">
        <ele>357.8</ele>
        <time>2023-05-28T07:24:26Z</time>
      </trkpt>
      <trkpt lat="43.54168" lon="5.53344">
        <ele>357.9</ele>
        <time>2023-05-28T07:24:27Z</time>
      </trkpt>
      <trkpt lat="43.54168" lon="5.53345">
        <ele>357.9</ele>
        <time>2023-05-28T07:24:28Z</time>
      </trkpt>
      <trkpt lat="43.54167" lon="5.53345">
        <ele>357.9</ele>
        <time>2023-05-28T07:24:29Z</time>
      </trkpt>
      <trkpt lat="43.54167" lon="5.53345">
        <ele>357.8</ele>
        <time>2023-05-28T07:24:30Z</time>
      </trkpt>
      <trkpt lat="43.54167" lon="5.53345">
        <ele>357.8</ele>
        <time>2023-05-28T07:24:31Z</time>
      </trkpt>
      <trkpt lat="43.54167" lon="5.53345">
        <ele>357.8</ele>
        <time>2023-05-28T07:24:32Z</time>
      </trkpt>
      <trkpt lat="43.54167" lon="5.53345">
        <ele>357.7</ele>
        <time>2023-05-28T07:24:33Z</time>
      </trkpt>
      <trkpt lat="43.54167" lon="5.53345">
        <ele>357.7</ele>
        <time>2023-05-28T07:24:34Z</time>
      </trkpt>
      <trkpt lat="43.54167" lon="5.53345">
        <ele>357.7</ele>
        <time>2023-05-28T07:24:35Z</time>
      </trkpt>
      <trkpt lat="43.54167" lon="5.53346">
        <ele>357.7</ele>
        <time>2023-05-28T07:24:36Z</time>
      </trkpt>
      <trkpt lat="43.54167" lon="5.53346">
        <ele>357.7</ele>
        <time>2023-05-28T07:24:37Z</time>
      </trkpt>
      <trkpt lat="43.54167" lon="5.53345">
        <ele>357.7</ele>
        <time>2023-05-28T07:24:38Z</time>
      </trkpt>
      <trkpt lat="43.54167" lon="5.53345">
        <ele>357.6</ele>
        <time>2023-05-28T07:24:39Z</time>
      </trkpt>
      <trkpt lat="43.54167" lon="5.53344">
        <ele>357.7</ele>
        <time>2023-05-28T07:24:40Z</time>
      </trkpt>
      <trkpt lat="43.54169" lon="5.53344">
        <ele>357.8</ele>
        <time>2023-05-28T07:24:41Z</time>
      </trkpt>
      <trkpt lat="43.54169" lon="5.53344">
        <ele>357.8</ele>
        <time>2023-05-28T07:24:42Z</time>
      </trkpt>
      <trkpt lat="43.54169" lon="5.53345">
        <ele>357.9</ele>
        <time>2023-05-28T07:24:43Z</time>
      </trkpt>
      <trkpt lat="43.54169" lon="5.53345">
        <ele>357.9</ele>
        <time>2023-05-28T07:24:44Z</time>
      </trkpt>
      <trkpt lat="43.54169" lon="5.53345">
        <ele>357.9</ele>
        <time>2023-05-28T07:24:45Z</time>
      </trkpt>
      <trkpt lat="43.54169" lon="5.53345">
        <ele>357.9</ele>
        <time>2023-05-28T07:24:46Z</time>
      </trkpt>
      <trkpt lat="43.54169" lon="5.53345">
        <ele>357.9</ele>
        <time>2023-05-28T07:24:47Z</time>
      </trkpt>
      <trkpt lat="43.54169" lon="5.53343">
        <ele>357.9</ele>
        <time>2023-05-28T07:24:48Z</time>
      </trkpt>
      <trkpt lat="43.54168" lon="5.53344">
        <ele>357.9</ele>
        <time>2023-05-28T07:24:49Z</time>
      </trkpt>
      <trkpt lat="43.54168" lon="5.53344">
        <ele>357.9</ele>
        <time>2023-05-28T07:24:50Z</time>
      </trkpt>
      <trkpt lat="43.54168" lon="5.53344">
        <ele>357.9</ele>
        <time>2023-05-28T07:24:51Z</time>
      </trkpt>
      <trkpt lat="43.54168" lon="5.53344">
        <ele>357.9</ele>
        <time>2023-05-28T07:24:52Z</time>
      </trkpt>
      <trkpt lat="43.54168" lon="5.53344">
        <ele>357.9</ele>
        <time>2023-05-28T07:24:53Z</time>
      </trkpt>
      <trkpt lat="43.54168" lon="5.53344">
        <ele>357.9</ele>
        <time>2023-05-28T07:24:54Z</time>
      </trkpt>
      <trkpt lat="43.54168" lon="5.53344">
        <ele>358</ele>
        <time>2023-05-28T07:24:55Z</time>
      </trkpt>
      <trkpt lat="43.54168" lon="5.53344">
        <ele>358</ele>
        <time>2023-05-28T07:24:56Z</time>
      </trkpt>
      <trkpt lat="43.54167" lon="5.53344">
        <ele>358</ele>
        <time>2023-05-28T07:24:57Z</time>
      </trkpt>
      <trkpt lat="43.54167" lon="5.53344">
        <ele>358</ele>
        <time>2023-05-28T07:24:58Z</time>
      </trkpt>
      <trkpt lat="43.54167" lon="5.53344">
        <ele>358</ele>
        <time>2023-05-28T07:24:59Z</time>
      </trkpt>
      <trkpt lat="43.54167" lon="5.53344">
        <ele>358</ele>
        <time>2023-05-28T07:25:00Z</time>
      </trkpt>
      <trkpt lat="43.54167" lon="5.53344">
        <ele>358</ele>
        <time>2023-05-28T07:25:01Z</time>
      </trkpt>
      <trkpt lat="43.54167" lon="5.53344">
        <ele>357.9</ele>
        <time>2023-05-28T07:25:02Z</time>
      </trkpt>
      <trkpt lat="43.54167" lon="5.53344">
        <ele>357.9</ele>
        <time>2023-05-28T07:25:03Z</time>
      </trkpt>
      <trkpt lat="43.54167" lon="5.53344">
        <ele>357.9</ele>
        <time>2023-05-28T07:25:04Z</time>
      </trkpt>
      <trkpt lat="43.54167" lon="5.53344">
        <ele>357.8</ele>
        <time>2023-05-28T07:25:05Z</time>
      </trkpt>
      <trkpt lat="43.54167" lon="5.53344">
        <ele>357.8</ele>
        <time>2023-05-28T07:25:06Z</time>
      </trkpt>
      <trkpt lat="43.54167" lon="5.53344">
        <ele>357.9</ele>
        <time>2023-05-28T07:25:07Z</time>
      </trkpt>
      <trkpt lat="43.54166" lon="5.53344">
        <ele>357.9</ele>
        <time>2023-05-28T07:25:08Z</time>
      </trkpt>
      <trkpt lat="43.54166" lon="5.53343">
        <ele>358</ele>
        <time>2023-05-28T07:25:09Z</time>
      </trkpt>
      <trkpt lat="43.54166" lon="5.53343">
        <ele>358</ele>
        <time>2023-05-28T07:25:10Z</time>
      </trkpt>
      <trkpt lat="43.54166" lon="5.53343">
        <ele>358</ele>
        <time>2023-05-28T07:25:11Z</time>
      </trkpt>
      <trkpt lat="43.54165" lon="5.53343">
        <ele>357.9</ele>
        <time>2023-05-28T07:25:12Z</time>
      </trkpt>
      <trkpt lat="43.54166" lon="5.53344">
        <ele>357.9</ele>
        <time>2023-05-28T07:25:13Z</time>
      </trkpt>
      <trkpt lat="43.54166" lon="5.53344">
        <ele>357.9</ele>
        <time>2023-05-28T07:25:14Z</time>
      </trkpt>
      <trkpt lat="43.54166" lon="5.53344">
        <ele>357.9</ele>
        <time>2023-05-28T07:25:15Z</time>
      </trkpt>
      <trkpt lat="43.54166" lon="5.53344">
        <ele>357.8</ele>
        <time>2023-05-28T07:25:16Z</time>
      </trkpt>
      <trkpt lat="43.54165" lon="5.53344">
        <ele>357.8</ele>
        <time>2023-05-28T07:25:17Z</time>
      </trkpt>
      <trkpt lat="43.54165" lon="5.53344">
        <ele>357.8</ele>
        <time>2023-05-28T07:25:18Z</time>
      </trkpt>
      <trkpt lat="43.54165" lon="5.53345">
        <ele>357.7</ele>
        <time>2023-05-28T07:25:19Z</time>
      </trkpt>
      <trkpt lat="43.54165" lon="5.53345">
        <ele>357.7</ele>
        <time>2023-05-28T07:25:20Z</time>
      </trkpt>
      <trkpt lat="43.54165" lon="5.53345">
        <ele>357.7</ele>
        <time>2023-05-28T07:25:21Z</time>
      </trkpt>
      <trkpt lat="43.54165" lon="5.53345">
        <ele>357.8</ele>
        <time>2023-05-28T07:25:22Z</time>
      </trkpt>
      <trkpt lat="43.54164" lon="5.53345">
        <ele>357.8</ele>
        <time>2023-05-28T07:25:23Z</time>
      </trkpt>
      <trkpt lat="43.54164" lon="5.53345">
        <ele>357.7</ele>
        <time>2023-05-28T07:25:24Z</time>
      </trkpt>
      <trkpt lat="43.54164" lon="5.53346">
        <ele>357.6</ele>
        <time>2023-05-28T07:25:25Z</time>
      </trkpt>
      <trkpt lat="43.54164" lon="5.53346">
        <ele>357.5</ele>
        <time>2023-05-28T07:25:26Z</time>
      </trkpt>
      <trkpt lat="43.54163" lon="5.53346">
        <ele>357.5</ele>
        <time>2023-05-28T07:25:27Z</time>
      </trkpt>
      <trkpt lat="43.54163" lon="5.53346">
        <ele>357.5</ele>
        <time>2023-05-28T07:25:28Z</time>
      </trkpt>
      <trkpt lat="43.54163" lon="5.53347">
        <ele>357.5</ele>
        <time>2023-05-28T07:25:29Z</time>
      </trkpt>
      <trkpt lat="43.54163" lon="5.53347">
        <ele>357.6</ele>
        <time>2023-05-28T07:25:30Z</time>
      </trkpt>
      <trkpt lat="43.54162" lon="5.53347">
        <ele>357.6</ele>
        <time>2023-05-28T07:25:31Z</time>
      </trkpt>
      <trkpt lat="43.54162" lon="5.53347">
        <ele>357.6</ele>
        <time>2023-05-28T07:25:32Z</time>
      </trkpt>
      <trkpt lat="43.54162" lon="5.53347">
        <ele>357.6</ele>
        <time>2023-05-28T07:25:33Z</time>
      </trkpt>
      <trkpt lat="43.54162" lon="5.53347">
        <ele>357.7</ele>
        <time>2023-05-28T07:25:34Z</time>
      </trkpt>
      <trkpt lat="43.54162" lon="5.53347">
        <ele>357.6</ele>
        <time>2023-05-28T07:25:35Z</time>
      </trkpt>
      <trkpt lat="43.54162" lon="5.53347">
        <ele>357.5</ele>
        <time>2023-05-28T07:25:36Z</time>
      </trkpt>
      <trkpt lat="43.54162" lon="5.53347">
        <ele>357.4</ele>
        <time>2023-05-28T07:25:37Z</time>
      </trkpt>
      <trkpt lat="43.54162" lon="5.53347">
        <ele>357.4</ele>
        <time>2023-05-28T07:25:38Z</time>
      </trkpt>
      <trkpt lat="43.54162" lon="5.53347">
        <ele>357.4</ele>
        <time>2023-05-28T07:25:39Z</time>
      </trkpt>
      <trkpt lat="43.54162" lon="5.53347">
        <ele>357.4</ele>
        <time>2023-05-28T07:25:40Z</time>
      </trkpt>
      <trkpt lat="43.54162" lon="5.53347">
        <ele>357.4</ele>
        <time>2023-05-28T07:25:41Z</time>
      </trkpt>
      <trkpt lat="43.54162" lon="5.53347">
        <ele>357.4</ele>
        <time>2023-05-28T07:25:42Z</time>
      </trkpt>
      <trkpt lat="43.54162" lon="5.53347">
        <ele>357.4</ele>
        <time>2023-05-28T07:25:43Z</time>
      </trkpt>
      <trkpt lat="43.54162" lon="5.53347">
        <ele>357.4</ele>
        <time>2023-05-28T07:25:44Z</time>
      </trkpt>
      <trkpt lat="43.54162" lon="5.53346">
        <ele>357.4</ele>
        <time>2023-05-28T07:25:45Z</time>
      </trkpt>
      <trkpt lat="43.54162" lon="5.53346">
        <ele>357.3</ele>
        <time>2023-05-28T07:25:46Z</time>
      </trkpt>
      <trkpt lat="43.54162" lon="5.53346">
        <ele>357.4</ele>
        <time>2023-05-28T07:25:47Z</time>
      </trkpt>
      <trkpt lat="43.54162" lon="5.53346">
        <ele>357.4</ele>
        <time>2023-05-28T07:25:48Z</time>
      </trkpt>
      <trkpt lat="43.54162" lon="5.53346">
        <ele>357.4</ele>
        <time>2023-05-28T07:25:49Z</time>
      </trkpt>
      <trkpt lat="43.54162" lon="5.53346">
        <ele>357.4</ele>
        <time>2023-05-28T07:25:50Z</time>
      </trkpt>
      <trkpt lat="43.54162" lon="5.53346">
        <ele>357.4</ele>
        <time>2023-05-28T07:25:51Z</time>
      </trkpt>
      <trkpt lat="43.54163" lon="5.53346">
        <ele>357.4</ele>
        <time>2023-05-28T07:25:52Z</time>
      </trkpt>
      <trkpt lat="43.54163" lon="5.53347">
        <ele>357.4</ele>
        <time>2023-05-28T07:25:53Z</time>
      </trkpt>
      <trkpt lat="43.54163" lon="5.53347">
        <ele>357.4</ele>
        <time>2023-05-28T07:25:54Z</time>
      </trkpt>
      <trkpt lat="43.54163" lon="5.53347">
        <ele>357.4</ele>
        <time>2023-05-28T07:25:55Z</time>
      </trkpt>
      <trkpt lat="43.54163" lon="5.53347">
        <ele>357.4</ele>
        <time>2023-05-28T07:25:56Z</time>
      </trkpt>
      <trkpt lat="43.54163" lon="5.53347">
        <ele>357.4</ele>
        <time>2023-05-28T07:25:57Z</time>
      </trkpt>
      <trkpt lat="43.54163" lon="5.53347">
        <ele>357.4</ele>
        <time>2023-05-28T07:25:58Z</time>
      </trkpt>
      <trkpt lat="43.54163" lon="5.53347">
        <ele>357.5</ele>
        <time>2023-05-28T07:25:59Z</time>
      </trkpt>
      <trkpt lat="43.54163" lon="5.53347">
        <ele>357.5</ele>
        <time>2023-05-28T07:26:00Z</time>
      </trkpt>
      <trkpt lat="43.54163" lon="5.53347">
        <ele>357.5</ele>
        <time>2023-05-28T07:26:01Z</time>
      </trkpt>
      <trkpt lat="43.54163" lon="5.53347">
        <ele>357.5</ele>
        <time>2023-05-28T07:26:02Z</time>
      </trkpt>
      <trkpt lat="43.54163" lon="5.53347">
        <ele>357.6</ele>
        <time>2023-05-28T07:26:03Z</time>
      </trkpt>
      <trkpt lat="43.54163" lon="5.53347">
        <ele>357.6</ele>
        <time>2023-05-28T07:26:04Z</time>
      </trkpt>
      <trkpt lat="43.54163" lon="5.53347">
        <ele>357.6</ele>
        <time>2023-05-28T07:26:05Z</time>
      </trkpt>
      <trkpt lat="43.54163" lon="5.53347">
        <ele>357.6</ele>
        <time>2023-05-28T07:26:06Z</time>
      </trkpt>
      <trkpt lat="43.54164" lon="5.53347">
        <ele>357.7</ele>
        <time>2023-05-28T07:26:07Z</time>
      </trkpt>
      <trkpt lat="43.54163" lon="5.53347">
        <ele>357.7</ele>
        <time>2023-05-28T07:26:08Z</time>
      </trkpt>
      <trkpt lat="43.54164" lon="5.53347">
        <ele>357.8</ele>
        <time>2023-05-28T07:26:09Z</time>
      </trkpt>
      <trkpt lat="43.54164" lon="5.53347">
        <ele>357.8</ele>
        <time>2023-05-28T07:26:10Z</time>
      </trkpt>
      <trkpt lat="43.54164" lon="5.53347">
        <ele>357.9</ele>
        <time>2023-05-28T07:26:11Z</time>
      </trkpt>
      <trkpt lat="43.54164" lon="5.53347">
        <ele>357.9</ele>
        <time>2023-05-28T07:26:12Z</time>
      </trkpt>
      <trkpt lat="43.54164" lon="5.53347">
        <ele>358</ele>
        <time>2023-05-28T07:26:13Z</time>
      </trkpt>
      <trkpt lat="43.54164" lon="5.53347">
        <ele>358</ele>
        <time>2023-05-28T07:26:14Z</time>
      </trkpt>
      <trkpt lat="43.54164" lon="5.53347">
        <ele>358.1</ele>
        <time>2023-05-28T07:26:15Z</time>
      </trkpt>
      <trkpt lat="43.54164" lon="5.53347">
        <ele>358</ele>
        <time>2023-05-28T07:26:16Z</time>
      </trkpt>
      <trkpt lat="43.54164" lon="5.53347">
        <ele>358</ele>
        <time>2023-05-28T07:26:17Z</time>
      </trkpt>
      <trkpt lat="43.54164" lon="5.53347">
        <ele>358</ele>
        <time>2023-05-28T07:26:18Z</time>
      </trkpt>
      <trkpt lat="43.54164" lon="5.53347">
        <ele>358</ele>
        <time>2023-05-28T07:26:19Z</time>
      </trkpt>
      <trkpt lat="43.54165" lon="5.53347">
        <ele>357.9</ele>
        <time>2023-05-28T07:26:20Z</time>
      </trkpt>
      <trkpt lat="43.54165" lon="5.53347">
        <ele>357.9</ele>
        <time>2023-05-28T07:26:21Z</time>
      </trkpt>
      <trkpt lat="43.54165" lon="5.53347">
        <ele>357.9</ele>
        <time>2023-05-28T07:26:22Z</time>
      </trkpt>
      <trkpt lat="43.54165" lon="5.53347">
        <ele>357.8</ele>
        <time>2023-05-28T07:26:23Z</time>
      </trkpt>
      <trkpt lat="43.54165" lon="5.53347">
        <ele>357.8</ele>
        <time>2023-05-28T07:26:24Z</time>
      </trkpt>
      <trkpt lat="43.54165" lon="5.53347">
        <ele>357.8</ele>
        <time>2023-05-28T07:26:25Z</time>
      </trkpt>
      <trkpt lat="43.54165" lon="5.53347">
        <ele>357.8</ele>
        <time>2023-05-28T07:26:26Z</time>
      </trkpt>
      <trkpt lat="43.54165" lon="5.53347">
        <ele>357.8</ele>
        <time>2023-05-28T07:26:27Z</time>
      </trkpt>
      <trkpt lat="43.54165" lon="5.53348">
        <ele>357.8</ele>
        <time>2023-05-28T07:26:28Z</time>
      </trkpt>
      <trkpt lat="43.54165" lon="5.53347">
        <ele>357.8</ele>
        <time>2023-05-28T07:26:29Z</time>
      </trkpt>
      <trkpt lat="43.54165" lon="5.53347">
        <ele>357.9</ele>
        <time>2023-05-28T07:26:30Z</time>
      </trkpt>
      <trkpt lat="43.54165" lon="5.53348">
        <ele>357.9</ele>
        <time>2023-05-28T07:26:31Z</time>
      </trkpt>
      <trkpt lat="43.54165" lon="5.53348">
        <ele>357.9</ele>
        <time>2023-05-28T07:26:32Z</time>
      </trkpt>
      <trkpt lat="43.54165" lon="5.53348">
        <ele>357.9</ele>
        <time>2023-05-28T07:26:33Z</time>
      </trkpt>
      <trkpt lat="43.54165" lon="5.53348">
        <ele>357.9</ele>
        <time>2023-05-28T07:26:34Z</time>
      </trkpt>
      <trkpt lat="43.54165" lon="5.53348">
        <ele>357.9</ele>
        <time>2023-05-28T07:26:35Z</time>
      </trkpt>
      <trkpt lat="43.54165" lon="5.53348">
        <ele>357.9</ele>
        <time>2023-05-28T07:26:36Z</time>
      </trkpt>
      <trkpt lat="43.54165" lon="5.53348">
        <ele>357.9</ele>
        <time>2023-05-28T07:26:37Z</time>
      </trkpt>
      <trkpt lat="43.54165" lon="5.53348">
        <ele>357.9</ele>
        <time>2023-05-28T07:26:38Z</time>
      </trkpt>
      <trkpt lat="43.54165" lon="5.53348">
        <ele>357.9</ele>
        <time>2023-05-28T07:26:39Z</time>
      </trkpt>
      <trkpt lat="43.54165" lon="5.53348">
        <ele>357.9</ele>
        <time>2023-05-28T07:26:40Z</time>
      </trkpt>
      <trkpt lat="43.54165" lon="5.53348">
        <ele>357.9</ele>
        <time>2023-05-28T07:26:41Z</time>
      </trkpt>
      <trkpt lat="43.54165" lon="5.53348">
        <ele>357.9</ele>
        <time>2023-05-28T07:26:42Z</time>
      </trkpt>
      <trkpt lat="43.54165" lon="5.53348">
        <ele>357.9</ele>
        <time>2023-05-28T07:26:43Z</time>
      </trkpt>
      <trkpt lat="43.54165" lon="5.53348">
        <ele>357.8</ele>
        <time>2023-05-28T07:26:44Z</time>
      </trkpt>
      <trkpt lat="43.54165" lon="5.53348">
        <ele>357.8</ele>
        <time>2023-05-28T07:26:45Z</time>
      </trkpt>
      <trkpt lat="43.54165" lon="5.53348">
        <ele>357.8</ele>
        <time>2023-05-28T07:26:46Z</time>
      </trkpt>
      <trkpt lat="43.54164" lon="5.53348">
        <ele>357.7</ele>
        <time>2023-05-28T07:26:47Z</time>
      </trkpt>
      <trkpt lat="43.54164" lon="5.53348">
        <ele>357.7</ele>
        <time>2023-05-28T07:26:48Z</time>
      </trkpt>
      <trkpt lat="43.54164" lon="5.53348">
        <ele>357.7</ele>
        <time>2023-05-28T07:26:49Z</time>
      </trkpt>
      <trkpt lat="43.54164" lon="5.53348">
        <ele>357.7</ele>
        <time>2023-05-28T07:26:50Z</time>
      </trkpt>
      <trkpt lat="43.54164" lon="5.53348">
        <ele>357.7</ele>
        <time>2023-05-28T07:26:51Z</time>
      </trkpt>
      <trkpt lat="43.54164" lon="5.53348">
        <ele>357.7</ele>
        <time>2023-05-28T07:26:52Z</time>
      </trkpt>
      <trkpt lat="43.54164" lon="5.53348">
        <ele>357.6</ele>
        <time>2023-05-28T07:26:53Z</time>
      </trkpt>
      <trkpt lat="43.54164" lon="5.53348">
        <ele>357.7</ele>
        <time>2023-05-28T07:26:54Z</time>
      </trkpt>
      <trkpt lat="43.54164" lon="5.53348">
        <ele>357.6</ele>
        <time>2023-05-28T07:26:55Z</time>
      </trkpt>
      <trkpt lat="43.54164" lon="5.53348">
        <ele>357.6</ele>
        <time>2023-05-28T07:26:56Z</time>
      </trkpt>
      <trkpt lat="43.54164" lon="5.53348">
        <ele>357.6</ele>
        <time>2023-05-28T07:26:57Z</time>
      </trkpt>
      <trkpt lat="43.54164" lon="5.53348">
        <ele>357.6</ele>
        <time>2023-05-28T07:26:58Z</time>
      </trkpt>
      <trkpt lat="43.54164" lon="5.53348">
        <ele>357.6</ele>
        <time>2023-05-28T07:26:59Z</time>
      </trkpt>
      <trkpt lat="43.54164" lon="5.53348">
        <ele>357.7</ele>
        <time>2023-05-28T07:27:00Z</time>
      </trkpt>
      <trkpt lat="43.54164" lon="5.53347">
        <ele>357.7</ele>
        <time>2023-05-28T07:27:01Z</time>
      </trkpt>
      <trkpt lat="43.54163" lon="5.53346">
        <ele>357.7</ele>
        <time>2023-05-28T07:27:02Z</time>
      </trkpt>
      <trkpt lat="43.54163" lon="5.53346">
        <ele>357.8</ele>
        <time>2023-05-28T07:27:03Z</time>
      </trkpt>
      <trkpt lat="43.54163" lon="5.53346">
        <ele>357.8</ele>
        <time>2023-05-28T07:27:04Z</time>
      </trkpt>
      <trkpt lat="43.54163" lon="5.53345">
        <ele>357.8</ele>
        <time>2023-05-28T07:27:05Z</time>
      </trkpt>
      <trkpt lat="43.54163" lon="5.53345">
        <ele>357.8</ele>
        <time>2023-05-28T07:27:06Z</time>
      </trkpt>
      <trkpt lat="43.54163" lon="5.53345">
        <ele>357.7</ele>
        <time>2023-05-28T07:27:07Z</time>
      </trkpt>
      <trkpt lat="43.54163" lon="5.53345">
        <ele>357.7</ele>
        <time>2023-05-28T07:27:08Z</time>
      </trkpt>
      <trkpt lat="43.54163" lon="5.53345">
        <ele>357.8</ele>
        <time>2023-05-28T07:27:09Z</time>
      </trkpt>
      <trkpt lat="43.54163" lon="5.53345">
        <ele>357.8</ele>
        <time>2023-05-28T07:27:10Z</time>
      </trkpt>
      <trkpt lat="43.54163" lon="5.53345">
        <ele>357.9</ele>
        <time>2023-05-28T07:27:11Z</time>
      </trkpt>
      <trkpt lat="43.54163" lon="5.53345">
        <ele>357.9</ele>
        <time>2023-05-28T07:27:12Z</time>
      </trkpt>
      <trkpt lat="43.54163" lon="5.53345">
        <ele>357.9</ele>
        <time>2023-05-28T07:27:13Z</time>
      </trkpt>
      <trkpt lat="43.54162" lon="5.53345">
        <ele>357.8</ele>
        <time>2023-05-28T07:27:14Z</time>
      </trkpt>
      <trkpt lat="43.54162" lon="5.53345">
        <ele>357.8</ele>
        <time>2023-05-28T07:27:15Z</time>
      </trkpt>
      <trkpt lat="43.54162" lon="5.53345">
        <ele>357.8</ele>
        <time>2023-05-28T07:27:16Z</time>
      </trkpt>
      <trkpt lat="43.54162" lon="5.53345">
        <ele>357.7</ele>
        <time>2023-05-28T07:27:17Z</time>
      </trkpt>
      <trkpt lat="43.54162" lon="5.53346">
        <ele>357.7</ele>
        <time>2023-05-28T07:27:18Z</time>
      </trkpt>
      <trkpt lat="43.54162" lon="5.53346">
        <ele>357.7</ele>
        <time>2023-05-28T07:27:19Z</time>
      </trkpt>
      <trkpt lat="43.54162" lon="5.53346">
        <ele>357.7</ele>
        <time>2023-05-28T07:27:20Z</time>
      </trkpt>
      <trkpt lat="43.54162" lon="5.53346">
        <ele>357.7</ele>
        <time>2023-05-28T07:27:21Z</time>
      </trkpt>
      <trkpt lat="43.54162" lon="5.53346">
        <ele>357.7</ele>
        <time>2023-05-28T07:27:22Z</time>
      </trkpt>
      <trkpt lat="43.54162" lon="5.53345">
        <ele>357.6</ele>
        <time>2023-05-28T07:27:23Z</time>
      </trkpt>
      <trkpt lat="43.54161" lon="5.53345">
        <ele>357.6</ele>
        <time>2023-05-28T07:27:24Z</time>
      </trkpt>
      <trkpt lat="43.54161" lon="5.53345">
        <ele>357.6</ele>
        <time>2023-05-28T07:27:25Z</time>
      </trkpt>
      <trkpt lat="43.54161" lon="5.53345">
        <ele>357.6</ele>
        <time>2023-05-28T07:27:26Z</time>
      </trkpt>
      <trkpt lat="43.54161" lon="5.53345">
        <ele>357.6</ele>
        <time>2023-05-28T07:27:27Z</time>
      </trkpt>
      <trkpt lat="43.54161" lon="5.53345">
        <ele>357.6</ele>
        <time>2023-05-28T07:27:28Z</time>
      </trkpt>
      <trkpt lat="43.54161" lon="5.53345">
        <ele>357.6</ele>
        <time>2023-05-28T07:27:29Z</time>
      </trkpt>
      <trkpt lat="43.54161" lon="5.53345">
        <ele>357.6</ele>
        <time>2023-05-28T07:27:30Z</time>
      </trkpt>
      <trkpt lat="43.54161" lon="5.53345">
        <ele>357.7</ele>
        <time>2023-05-28T07:27:31Z</time>
      </trkpt>
      <trkpt lat="43.5416" lon="5.53345">
        <ele>357.6</ele>
        <time>2023-05-28T07:27:32Z</time>
      </trkpt>
      <trkpt lat="43.54161" lon="5.53345">
        <ele>357.6</ele>
        <time>2023-05-28T07:27:33Z</time>
      </trkpt>
      <trkpt lat="43.5416" lon="5.53345">
        <ele>357.6</ele>
        <time>2023-05-28T07:27:34Z</time>
      </trkpt>
      <trkpt lat="43.5416" lon="5.53345">
        <ele>357.6</ele>
        <time>2023-05-28T07:27:35Z</time>
      </trkpt>
      <trkpt lat="43.5416" lon="5.53345">
        <ele>357.6</ele>
        <time>2023-05-28T07:27:36Z</time>
      </trkpt>
      <trkpt lat="43.5416" lon="5.53345">
        <ele>357.6</ele>
        <time>2023-05-28T07:27:37Z</time>
      </trkpt>
      <trkpt lat="43.54162" lon="5.53344">
        <ele>357.6</ele>
        <time>2023-05-28T07:27:38Z</time>
      </trkpt>
      <trkpt lat="43.54162" lon="5.53344">
        <ele>357.6</ele>
        <time>2023-05-28T07:27:39Z</time>
      </trkpt>
      <trkpt lat="43.54162" lon="5.53344">
        <ele>357.6</ele>
        <time>2023-05-28T07:27:40Z</time>
      </trkpt>
      <trkpt lat="43.54162" lon="5.53344">
        <ele>357.6</ele>
        <time>2023-05-28T07:27:41Z</time>
      </trkpt>
      <trkpt lat="43.54162" lon="5.53344">
        <ele>357.7</ele>
        <time>2023-05-28T07:27:42Z</time>
      </trkpt>
      <trkpt lat="43.54162" lon="5.53344">
        <ele>357.8</ele>
        <time>2023-05-28T07:27:43Z</time>
      </trkpt>
      <trkpt lat="43.54162" lon="5.53344">
        <ele>357.7</ele>
        <time>2023-05-28T07:27:44Z</time>
      </trkpt>
      <trkpt lat="43.54162" lon="5.53344">
        <ele>357.7</ele>
        <time>2023-05-28T07:27:45Z</time>
      </trkpt>
      <trkpt lat="43.54161" lon="5.53345">
        <ele>357.7</ele>
        <time>2023-05-28T07:27:46Z</time>
      </trkpt>
      <trkpt lat="43.54161" lon="5.53346">
        <ele>357.7</ele>
        <time>2023-05-28T07:27:47Z</time>
      </trkpt>
      <trkpt lat="43.54161" lon="5.53346">
        <ele>357.7</ele>
        <time>2023-05-28T07:27:48Z</time>
      </trkpt>
      <trkpt lat="43.54161" lon="5.53347">
        <ele>357.8</ele>
        <time>2023-05-28T07:27:49Z</time>
      </trkpt>
      <trkpt lat="43.54161" lon="5.53348">
        <ele>357.8</ele>
        <time>2023-05-28T07:27:50Z</time>
      </trkpt>
      <trkpt lat="43.54162" lon="5.53348">
        <ele>357.8</ele>
        <time>2023-05-28T07:27:51Z</time>
      </trkpt>
      <trkpt lat="43.54162" lon="5.53348">
        <ele>357.9</ele>
        <time>2023-05-28T07:27:52Z</time>
      </trkpt>
      <trkpt lat="43.54163" lon="5.53347">
        <ele>357.9</ele>
        <time>2023-05-28T07:27:53Z</time>
      </trkpt>
      <trkpt lat="43.54164" lon="5.53347">
        <ele>357.9</ele>
        <time>2023-05-28T07:27:54Z</time>
      </trkpt>
      <trkpt lat="43.54164" lon="5.53348">
        <ele>357.9</ele>
        <time>2023-05-28T07:27:55Z</time>
      </trkpt>
      <trkpt lat="43.54164" lon="5.53347">
        <ele>357.9</ele>
        <time>2023-05-28T07:27:56Z</time>
      </trkpt>
      <trkpt lat="43.54164" lon="5.53348">
        <ele>358</ele>
        <time>2023-05-28T07:27:57Z</time>
      </trkpt>
      <trkpt lat="43.54164" lon="5.53348">
        <ele>358</ele>
        <time>2023-05-28T07:27:58Z</time>
      </trkpt>
      <trkpt lat="43.54164" lon="5.53349">
        <ele>358</ele>
        <time>2023-05-28T07:27:59Z</time>
      </trkpt>
      <trkpt lat="43.54163" lon="5.53349">
        <ele>357.9</ele>
        <time>2023-05-28T07:28:00Z</time>
      </trkpt>
      <trkpt lat="43.54163" lon="5.53349">
        <ele>357.9</ele>
        <time>2023-05-28T07:28:01Z</time>
      </trkpt>
      <trkpt lat="43.54163" lon="5.5335">
        <ele>357.9</ele>
        <time>2023-05-28T07:28:02Z</time>
      </trkpt>
      <trkpt lat="43.54163" lon="5.53351">
        <ele>357.9</ele>
        <time>2023-05-28T07:28:03Z</time>
      </trkpt>
      <trkpt lat="43.54164" lon="5.53351">
        <ele>357.9</ele>
        <time>2023-05-28T07:28:04Z</time>
      </trkpt>
      <trkpt lat="43.54164" lon="5.53351">
        <ele>357.9</ele>
        <time>2023-05-28T07:28:05Z</time>
      </trkpt>
      <trkpt lat="43.54164" lon="5.53351">
        <ele>357.9</ele>
        <time>2023-05-28T07:28:06Z</time>
      </trkpt>
      <trkpt lat="43.54164" lon="5.53352">
        <ele>357.9</ele>
        <time>2023-05-28T07:28:07Z</time>
      </trkpt>
      <trkpt lat="43.54164" lon="5.53352">
        <ele>358</ele>
        <time>2023-05-28T07:28:08Z</time>
      </trkpt>
      <trkpt lat="43.54164" lon="5.53352">
        <ele>358</ele>
        <time>2023-05-28T07:28:09Z</time>
      </trkpt>
      <trkpt lat="43.54164" lon="5.53352">
        <ele>358</ele>
        <time>2023-05-28T07:28:10Z</time>
      </trkpt>
      <trkpt lat="43.54164" lon="5.53352">
        <ele>358</ele>
        <time>2023-05-28T07:28:11Z</time>
      </trkpt>
      <trkpt lat="43.54164" lon="5.53352">
        <ele>358</ele>
        <time>2023-05-28T07:28:12Z</time>
      </trkpt>
      <trkpt lat="43.54164" lon="5.53353">
        <ele>358</ele>
        <time>2023-05-28T07:28:13Z</time>
      </trkpt>
      <trkpt lat="43.54164" lon="5.53353">
        <ele>358</ele>
        <time>2023-05-28T07:28:14Z</time>
      </trkpt>
      <trkpt lat="43.54164" lon="5.53353">
        <ele>358</ele>
        <time>2023-05-28T07:28:15Z</time>
      </trkpt>
      <trkpt lat="43.54164" lon="5.53352">
        <ele>357.9</ele>
        <time>2023-05-28T07:28:16Z</time>
      </trkpt>
      <trkpt lat="43.54163" lon="5.53352">
        <ele>357.9</ele>
        <time>2023-05-28T07:28:17Z</time>
      </trkpt>
      <trkpt lat="43.54163" lon="5.53352">
        <ele>357.9</ele>
        <time>2023-05-28T07:28:18Z</time>
      </trkpt>
      <trkpt lat="43.54162" lon="5.53352">
        <ele>357.9</ele>
        <time>2023-05-28T07:28:19Z</time>
      </trkpt>
      <trkpt lat="43.54162" lon="5.53353">
        <ele>357.8</ele>
        <time>2023-05-28T07:28:20Z</time>
      </trkpt>
      <trkpt lat="43.54162" lon="5.53353">
        <ele>357.9</ele>
        <time>2023-05-28T07:28:21Z</time>
      </trkpt>
      <trkpt lat="43.54162" lon="5.53353">
        <ele>357.9</ele>
        <time>2023-05-28T07:28:22Z</time>
      </trkpt>
      <trkpt lat="43.54162" lon="5.53353">
        <ele>357.9</ele>
        <time>2023-05-28T07:28:23Z</time>
      </trkpt>
      <trkpt lat="43.54162" lon="5.53353">
        <ele>357.9</ele>
        <time>2023-05-28T07:28:24Z</time>
      </trkpt>
      <trkpt lat="43.54162" lon="5.53353">
        <ele>357.9</ele>
        <time>2023-05-28T07:28:25Z</time>
      </trkpt>
      <trkpt lat="43.54162" lon="5.53353">
        <ele>357.9</ele>
        <time>2023-05-28T07:28:26Z</time>
      </trkpt>
      <trkpt lat="43.54162" lon="5.53353">
        <ele>357.9</ele>
        <time>2023-05-28T07:28:27Z</time>
      </trkpt>
      <trkpt lat="43.54162" lon="5.53353">
        <ele>357.9</ele>
        <time>2023-05-28T07:28:28Z</time>
      </trkpt>
      <trkpt lat="43.54162" lon="5.53352">
        <ele>357.9</ele>
        <time>2023-05-28T07:28:29Z</time>
      </trkpt>
      <trkpt lat="43.54162" lon="5.53352">
        <ele>357.9</ele>
        <time>2023-05-28T07:28:30Z</time>
      </trkpt>
      <trkpt lat="43.54162" lon="5.53352">
        <ele>357.9</ele>
        <time>2023-05-28T07:28:31Z</time>
      </trkpt>
      <trkpt lat="43.54161" lon="5.53353">
        <ele>357.9</ele>
        <time>2023-05-28T07:28:32Z</time>
      </trkpt>
      <trkpt lat="43.54161" lon="5.53355">
        <ele>357.9</ele>
        <time>2023-05-28T07:28:33Z</time>
      </trkpt>
      <trkpt lat="43.54161" lon="5.53356">
        <ele>357.9</ele>
        <time>2023-05-28T07:28:34Z</time>
      </trkpt>
      <trkpt lat="43.54161" lon="5.53357">
        <ele>357.9</ele>
        <time>2023-05-28T07:28:35Z</time>
      </trkpt>
      <trkpt lat="43.54161" lon="5.53358">
        <ele>357.8</ele>
        <time>2023-05-28T07:28:36Z</time>
      </trkpt>
      <trkpt lat="43.54161" lon="5.53359">
        <ele>357.8</ele>
        <time>2023-05-28T07:28:37Z</time>
      </trkpt>
      <trkpt lat="43.54161" lon="5.53361">
        <ele>357.8</ele>
        <time>2023-05-28T07:28:38Z</time>
      </trkpt>
      <trkpt lat="43.54161" lon="5.53362">
        <ele>357.8</ele>
        <time>2023-05-28T07:28:39Z</time>
      </trkpt>
      <trkpt lat="43.54161" lon="5.53364">
        <ele>357.9</ele>
        <time>2023-05-28T07:28:40Z</time>
      </trkpt>
      <trkpt lat="43.54161" lon="5.53366">
        <ele>358</ele>
        <time>2023-05-28T07:28:41Z</time>
      </trkpt>
      <trkpt lat="43.5416" lon="5.53367">
        <ele>358</ele>
        <time>2023-05-28T07:28:42Z</time>
      </trkpt>
      <trkpt lat="43.5416" lon="5.53367">
        <ele>358.1</ele>
        <time>2023-05-28T07:28:43Z</time>
      </trkpt>
      <trkpt lat="43.5416" lon="5.53368">
        <ele>358.1</ele>
        <time>2023-05-28T07:28:44Z</time>
      </trkpt>
      <trkpt lat="43.54159" lon="5.53369">
        <ele>358.2</ele>
        <time>2023-05-28T07:28:45Z</time>
      </trkpt>
      <trkpt lat="43.54158" lon="5.5337">
        <ele>358.1</ele>
        <time>2023-05-28T07:28:46Z</time>
      </trkpt>
      <trkpt lat="43.54158" lon="5.53371">
        <ele>358</ele>
        <time>2023-05-28T07:28:47Z</time>
      </trkpt>
      <trkpt lat="43.54158" lon="5.53373">
        <ele>358</ele>
        <time>2023-05-28T07:28:48Z</time>
      </trkpt>
      <trkpt lat="43.54158" lon="5.53374">
        <ele>358</ele>
        <time>2023-05-28T07:28:49Z</time>
      </trkpt>
      <trkpt lat="43.54157" lon="5.53376">
        <ele>358.1</ele>
        <time>2023-05-28T07:28:50Z</time>
      </trkpt>
      <trkpt lat="43.54156" lon="5.53377">
        <ele>358.1</ele>
        <time>2023-05-28T07:28:51Z</time>
      </trkpt>
      <trkpt lat="43.54156" lon="5.53378">
        <ele>358.2</ele>
        <time>2023-05-28T07:28:52Z</time>
      </trkpt>
      <trkpt lat="43.54156" lon="5.53379">
        <ele>358.2</ele>
        <time>2023-05-28T07:28:53Z</time>
      </trkpt>
      <trkpt lat="43.54156" lon="5.5338">
        <ele>358.2</ele>
        <time>2023-05-28T07:28:54Z</time>
      </trkpt>
      <trkpt lat="43.54156" lon="5.53382">
        <ele>358.3</ele>
        <time>2023-05-28T07:28:55Z</time>
      </trkpt>
      <trkpt lat="43.54155" lon="5.53383">
        <ele>358.2</ele>
        <time>2023-05-28T07:28:56Z</time>
      </trkpt>
      <trkpt lat="43.54155" lon="5.53384">
        <ele>358.2</ele>
        <time>2023-05-28T07:28:57Z</time>
      </trkpt>
      <trkpt lat="43.54154" lon="5.53385">
        <ele>358.3</ele>
        <time>2023-05-28T07:28:58Z</time>
      </trkpt>
      <trkpt lat="43.54154" lon="5.53387">
        <ele>358.4</ele>
        <time>2023-05-28T07:28:59Z</time>
      </trkpt>
      <trkpt lat="43.54154" lon="5.53388">
        <ele>358.4</ele>
        <time>2023-05-28T07:29:00Z</time>
      </trkpt>
      <trkpt lat="43.54153" lon="5.5339">
        <ele>358.5</ele>
        <time>2023-05-28T07:29:01Z</time>
      </trkpt>
      <trkpt lat="43.54153" lon="5.53391">
        <ele>358.4</ele>
        <time>2023-05-28T07:29:02Z</time>
      </trkpt>
      <trkpt lat="43.54152" lon="5.53393">
        <ele>358.3</ele>
        <time>2023-05-28T07:29:03Z</time>
      </trkpt>
      <trkpt lat="43.54152" lon="5.53394">
        <ele>358.3</ele>
        <time>2023-05-28T07:29:04Z</time>
      </trkpt>
      <trkpt lat="43.54151" lon="5.53395">
        <ele>358.2</ele>
        <time>2023-05-28T07:29:05Z</time>
      </trkpt>
      <trkpt lat="43.5415" lon="5.53396">
        <ele>358.2</ele>
        <time>2023-05-28T07:29:06Z</time>
      </trkpt>
      <trkpt lat="43.5415" lon="5.53397">
        <ele>358.2</ele>
        <time>2023-05-28T07:29:07Z</time>
      </trkpt>
      <trkpt lat="43.54149" lon="5.53397">
        <ele>358.2</ele>
        <time>2023-05-28T07:29:08Z</time>
      </trkpt>
      <trkpt lat="43.5415" lon="5.53398">
        <ele>358.2</ele>
        <time>2023-05-28T07:29:09Z</time>
      </trkpt>
      <trkpt lat="43.54149" lon="5.53399">
        <ele>358.3</ele>
        <time>2023-05-28T07:29:10Z</time>
      </trkpt>
      <trkpt lat="43.54149" lon="5.534">
        <ele>358.3</ele>
        <time>2023-05-28T07:29:11Z</time>
      </trkpt>
      <trkpt lat="43.54149" lon="5.53401">
        <ele>358.3</ele>
        <time>2023-05-28T07:29:12Z</time>
      </trkpt>
      <trkpt lat="43.54149" lon="5.53401">
        <ele>358.3</ele>
        <time>2023-05-28T07:29:13Z</time>
      </trkpt>
      <trkpt lat="43.5415" lon="5.53402">
        <ele>358.3</ele>
        <time>2023-05-28T07:29:14Z</time>
      </trkpt>
      <trkpt lat="43.5415" lon="5.53403">
        <ele>358.3</ele>
        <time>2023-05-28T07:29:15Z</time>
      </trkpt>
      <trkpt lat="43.5415" lon="5.53403">
        <ele>358.2</ele>
        <time>2023-05-28T07:29:16Z</time>
      </trkpt>
      <trkpt lat="43.5415" lon="5.53403">
        <ele>358.3</ele>
        <time>2023-05-28T07:29:17Z</time>
      </trkpt>
      <trkpt lat="43.54151" lon="5.53404">
        <ele>358.3</ele>
        <time>2023-05-28T07:29:18Z</time>
      </trkpt>
      <trkpt lat="43.54151" lon="5.53404">
        <ele>358.3</ele>
        <time>2023-05-28T07:29:19Z</time>
      </trkpt>
      <trkpt lat="43.54151" lon="5.53405">
        <ele>358.4</ele>
        <time>2023-05-28T07:29:20Z</time>
      </trkpt>
      <trkpt lat="43.54151" lon="5.53405">
        <ele>358.4</ele>
        <time>2023-05-28T07:29:21Z</time>
      </trkpt>
      <trkpt lat="43.54151" lon="5.53405">
        <ele>358.4</ele>
        <time>2023-05-28T07:29:22Z</time>
      </trkpt>
      <trkpt lat="43.54151" lon="5.53405">
        <ele>358.4</ele>
        <time>2023-05-28T07:29:23Z</time>
      </trkpt>
      <trkpt lat="43.54152" lon="5.53405">
        <ele>358.4</ele>
        <time>2023-05-28T07:29:24Z</time>
      </trkpt>
      <trkpt lat="43.54152" lon="5.53405">
        <ele>358.4</ele>
        <time>2023-05-28T07:29:25Z</time>
      </trkpt>
      <trkpt lat="43.54152" lon="5.53406">
        <ele>358.4</ele>
        <time>2023-05-28T07:29:26Z</time>
      </trkpt>
      <trkpt lat="43.54152" lon="5.53406">
        <ele>358.5</ele>
        <time>2023-05-28T07:29:27Z</time>
      </trkpt>
      <trkpt lat="43.54152" lon="5.53406">
        <ele>358.4</ele>
        <time>2023-05-28T07:29:28Z</time>
      </trkpt>
      <trkpt lat="43.54152" lon="5.53406">
        <ele>358.4</ele>
        <time>2023-05-28T07:29:29Z</time>
      </trkpt>
      <trkpt lat="43.54153" lon="5.53407">
        <ele>358.4</ele>
        <time>2023-05-28T07:29:30Z</time>
      </trkpt>
      <trkpt lat="43.54153" lon="5.53407">
        <ele>358.4</ele>
        <time>2023-05-28T07:29:31Z</time>
      </trkpt>
      <trkpt lat="43.54153" lon="5.53407">
        <ele>358.4</ele>
        <time>2023-05-28T07:29:32Z</time>
      </trkpt>
      <trkpt lat="43.54153" lon="5.53407">
        <ele>358.5</ele>
        <time>2023-05-28T07:29:33Z</time>
      </trkpt>
      <trkpt lat="43.54153" lon="5.53407">
        <ele>358.6</ele>
        <time>2023-05-28T07:29:34Z</time>
      </trkpt>
      <trkpt lat="43.54153" lon="5.53407">
        <ele>358.6</ele>
        <time>2023-05-28T07:29:35Z</time>
      </trkpt>
      <trkpt lat="43.54153" lon="5.53407">
        <ele>358.5</ele>
        <time>2023-05-28T07:29:36Z</time>
      </trkpt>
      <trkpt lat="43.54153" lon="5.53407">
        <ele>358.5</ele>
        <time>2023-05-28T07:29:37Z</time>
      </trkpt>
      <trkpt lat="43.54153" lon="5.53407">
        <ele>358.5</ele>
        <time>2023-05-28T07:29:38Z</time>
      </trkpt>
      <trkpt lat="43.54153" lon="5.53407">
        <ele>358.4</ele>
        <time>2023-05-28T07:29:39Z</time>
      </trkpt>
      <trkpt lat="43.54153" lon="5.53408">
        <ele>358.4</ele>
        <time>2023-05-28T07:29:40Z</time>
      </trkpt>
      <trkpt lat="43.54154" lon="5.53408">
        <ele>358.3</ele>
        <time>2023-05-28T07:29:41Z</time>
      </trkpt>
      <trkpt lat="43.54154" lon="5.53408">
        <ele>358.3</ele>
        <time>2023-05-28T07:29:42Z</time>
      </trkpt>
      <trkpt lat="43.54154" lon="5.53408">
        <ele>358.3</ele>
        <time>2023-05-28T07:29:43Z</time>
      </trkpt>
      <trkpt lat="43.54154" lon="5.53408">
        <ele>358.3</ele>
        <time>2023-05-28T07:29:44Z</time>
      </trkpt>
      <trkpt lat="43.54154" lon="5.53408">
        <ele>358.3</ele>
        <time>2023-05-28T07:29:45Z</time>
      </trkpt>
      <trkpt lat="43.54154" lon="5.53408">
        <ele>358.2</ele>
        <time>2023-05-28T07:29:46Z</time>
      </trkpt>
      <trkpt lat="43.54154" lon="5.53408">
        <ele>358.2</ele>
        <time>2023-05-28T07:29:47Z</time>
      </trkpt>
      <trkpt lat="43.54154" lon="5.53408">
        <ele>358.2</ele>
        <time>2023-05-28T07:29:48Z</time>
      </trkpt>
      <trkpt lat="43.54155" lon="5.53408">
        <ele>358.2</ele>
        <time>2023-05-28T07:29:49Z</time>
      </trkpt>
      <trkpt lat="43.54155" lon="5.53408">
        <ele>358.2</ele>
        <time>2023-05-28T07:29:50Z</time>
      </trkpt>
      <trkpt lat="43.54155" lon="5.53408">
        <ele>358.2</ele>
        <time>2023-05-28T07:29:51Z</time>
      </trkpt>
      <trkpt lat="43.54155" lon="5.53408">
        <ele>358.2</ele>
        <time>2023-05-28T07:29:52Z</time>
      </trkpt>
      <trkpt lat="43.54155" lon="5.53408">
        <ele>358.3</ele>
        <time>2023-05-28T07:29:53Z</time>
      </trkpt>
      <trkpt lat="43.54155" lon="5.53408">
        <ele>358.4</ele>
        <time>2023-05-28T07:29:54Z</time>
      </trkpt>
      <trkpt lat="43.54155" lon="5.53408">
        <ele>358.5</ele>
        <time>2023-05-28T07:29:55Z</time>
      </trkpt>
      <trkpt lat="43.54155" lon="5.53408">
        <ele>358.5</ele>
        <time>2023-05-28T07:29:56Z</time>
      </trkpt>
      <trkpt lat="43.54155" lon="5.53408">
        <ele>358.4</ele>
        <time>2023-05-28T07:29:57Z</time>
      </trkpt>
      <trkpt lat="43.54154" lon="5.53408">
        <ele>358.4</ele>
        <time>2023-05-28T07:29:58Z</time>
      </trkpt>
      <trkpt lat="43.54154" lon="5.53408">
        <ele>358.4</ele>
        <time>2023-05-28T07:29:59Z</time>
      </trkpt>
      <trkpt lat="43.54154" lon="5.53408">
        <ele>358.4</ele>
        <time>2023-05-28T07:30:00Z</time>
      </trkpt>
      <trkpt lat="43.54154" lon="5.53408">
        <ele>358.4</ele>
        <time>2023-05-28T07:30:01Z</time>
      </trkpt>
      <trkpt lat="43.54154" lon="5.53408">
        <ele>358.4</ele>
        <time>2023-05-28T07:30:02Z</time>
      </trkpt>
      <trkpt lat="43.54154" lon="5.53408">
        <ele>358.3</ele>
        <time>2023-05-28T07:30:03Z</time>
      </trkpt>
      <trkpt lat="43.54155" lon="5.53408">
        <ele>358.3</ele>
        <time>2023-05-28T07:30:04Z</time>
      </trkpt>
      <trkpt lat="43.54155" lon="5.53408">
        <ele>358.3</ele>
        <time>2023-05-28T07:30:05Z</time>
      </trkpt>
      <trkpt lat="43.54155" lon="5.53408">
        <ele>358.3</ele>
        <time>2023-05-28T07:30:06Z</time>
      </trkpt>
      <trkpt lat="43.54155" lon="5.53408">
        <ele>358.3</ele>
        <time>2023-05-28T07:30:07Z</time>
      </trkpt>
      <trkpt lat="43.54155" lon="5.53408">
        <ele>358.4</ele>
        <time>2023-05-28T07:30:08Z</time>
      </trkpt>
      <trkpt lat="43.54155" lon="5.53408">
        <ele>358.4</ele>
        <time>2023-05-28T07:30:09Z</time>
      </trkpt>
      <trkpt lat="43.54155" lon="5.53408">
        <ele>358.5</ele>
        <time>2023-05-28T07:30:10Z</time>
      </trkpt>
      <trkpt lat="43.54155" lon="5.53408">
        <ele>358.5</ele>
        <time>2023-05-28T07:30:11Z</time>
      </trkpt>
      <trkpt lat="43.54155" lon="5.53408">
        <ele>358.4</ele>
        <time>2023-05-28T07:30:12Z</time>
      </trkpt>
      <trkpt lat="43.54156" lon="5.53408">
        <ele>358.3</ele>
        <time>2023-05-28T07:30:13Z</time>
      </trkpt>
      <trkpt lat="43.54156" lon="5.53408">
        <ele>358.2</ele>
        <time>2023-05-28T07:30:14Z</time>
      </trkpt>
      <trkpt lat="43.54156" lon="5.53407">
        <ele>358.3</ele>
        <time>2023-05-28T07:30:15Z</time>
      </trkpt>
      <trkpt lat="43.54156" lon="5.53407">
        <ele>358.3</ele>
        <time>2023-05-28T07:30:16Z</time>
      </trkpt>
      <trkpt lat="43.54156" lon="5.53407">
        <ele>358.4</ele>
        <time>2023-05-28T07:30:17Z</time>
      </trkpt>
      <trkpt lat="43.54156" lon="5.53407">
        <ele>358.4</ele>
        <time>2023-05-28T07:30:18Z</time>
      </trkpt>
      <trkpt lat="43.54156" lon="5.53407">
        <ele>358.4</ele>
        <time>2023-05-28T07:30:19Z</time>
      </trkpt>
      <trkpt lat="43.54156" lon="5.53407">
        <ele>358.4</ele>
        <time>2023-05-28T07:30:20Z</time>
      </trkpt>
      <trkpt lat="43.54156" lon="5.53407">
        <ele>358.4</ele>
        <time>2023-05-28T07:30:21Z</time>
      </trkpt>
      <trkpt lat="43.54156" lon="5.53407">
        <ele>358.4</ele>
        <time>2023-05-28T07:30:22Z</time>
      </trkpt>
      <trkpt lat="43.54156" lon="5.53407">
        <ele>358.4</ele>
        <time>2023-05-28T07:30:23Z</time>
      </trkpt>
      <trkpt lat="43.54155" lon="5.53407">
        <ele>358.4</ele>
        <time>2023-05-28T07:30:24Z</time>
      </trkpt>
      <trkpt lat="43.54156" lon="5.53407">
        <ele>358.4</ele>
        <time>2023-05-28T07:30:25Z</time>
      </trkpt>
      <trkpt lat="43.54156" lon="5.53407">
        <ele>358.4</ele>
        <time>2023-05-28T07:30:26Z</time>
      </trkpt>
      <trkpt lat="43.54156" lon="5.53407">
        <ele>358.4</ele>
        <time>2023-05-28T07:30:27Z</time>
      </trkpt>
      <trkpt lat="43.54156" lon="5.53407">
        <ele>358.4</ele>
        <time>2023-05-28T07:30:28Z</time>
      </trkpt>
      <trkpt lat="43.54156" lon="5.53407">
        <ele>358.4</ele>
        <time>2023-05-28T07:30:29Z</time>
      </trkpt>
      <trkpt lat="43.54156" lon="5.53407">
        <ele>358.4</ele>
        <time>2023-05-28T07:30:30Z</time>
      </trkpt>
      <trkpt lat="43.54156" lon="5.53407">
        <ele>358.5</ele>
        <time>2023-05-28T07:30:31Z</time>
      </trkpt>
      <trkpt lat="43.54156" lon="5.53407">
        <ele>358.5</ele>
        <time>2023-05-28T07:30:32Z</time>
      </trkpt>
      <trkpt lat="43.54156" lon="5.53407">
        <ele>358.5</ele>
        <time>2023-05-28T07:30:33Z</time>
      </trkpt>
      <trkpt lat="43.54156" lon="5.53407">
        <ele>358.4</ele>
        <time>2023-05-28T07:30:34Z</time>
      </trkpt>
      <trkpt lat="43.54156" lon="5.53407">
        <ele>358.5</ele>
        <time>2023-05-28T07:30:35Z</time>
      </trkpt>
      <trkpt lat="43.54156" lon="5.53407">
        <ele>358.5</ele>
        <time>2023-05-28T07:30:36Z</time>
      </trkpt>
      <trkpt lat="43.54156" lon="5.53407">
        <ele>358.6</ele>
        <time>2023-05-28T07:30:37Z</time>
      </trkpt>
      <trkpt lat="43.54156" lon="5.53408">
        <ele>358.5</ele>
        <time>2023-05-28T07:30:38Z</time>
      </trkpt>
      <trkpt lat="43.54156" lon="5.53408">
        <ele>358.4</ele>
        <time>2023-05-28T07:30:39Z</time>
      </trkpt>
      <trkpt lat="43.54156" lon="5.53408">
        <ele>358.3</ele>
        <time>2023-05-28T07:30:40Z</time>
      </trkpt>
      <trkpt lat="43.54156" lon="5.53408">
        <ele>358.3</ele>
        <time>2023-05-28T07:30:41Z</time>
      </trkpt>
      <trkpt lat="43.54156" lon="5.53408">
        <ele>358.2</ele>
        <time>2023-05-28T07:30:42Z</time>
      </trkpt>
      <trkpt lat="43.54156" lon="5.53409">
        <ele>358.2</ele>
        <time>2023-05-28T07:30:43Z</time>
      </trkpt>
      <trkpt lat="43.54155" lon="5.5341">
        <ele>358.3</ele>
        <time>2023-05-28T07:30:44Z</time>
      </trkpt>
      <trkpt lat="43.54154" lon="5.53411">
        <ele>358.4</ele>
        <time>2023-05-28T07:30:45Z</time>
      </trkpt>
      <trkpt lat="43.54154" lon="5.53412">
        <ele>358.4</ele>
        <time>2023-05-28T07:30:46Z</time>
      </trkpt>
      <trkpt lat="43.54153" lon="5.53412">
        <ele>358.4</ele>
        <time>2023-05-28T07:30:47Z</time>
      </trkpt>
      <trkpt lat="43.54152" lon="5.53414">
        <ele>358.4</ele>
        <time>2023-05-28T07:30:48Z</time>
      </trkpt>
      <trkpt lat="43.54151" lon="5.53414">
        <ele>358.4</ele>
        <time>2023-05-28T07:30:49Z</time>
      </trkpt>
      <trkpt lat="43.5415" lon="5.53415">
        <ele>358.5</ele>
        <time>2023-05-28T07:30:50Z</time>
      </trkpt>
      <trkpt lat="43.5415" lon="5.53416">
        <ele>358.5</ele>
        <time>2023-05-28T07:30:51Z</time>
      </trkpt>
      <trkpt lat="43.54149" lon="5.53417">
        <ele>358.5</ele>
        <time>2023-05-28T07:30:52Z</time>
      </trkpt>
      <trkpt lat="43.54148" lon="5.53417">
        <ele>358.5</ele>
        <time>2023-05-28T07:30:53Z</time>
      </trkpt>
      <trkpt lat="43.54147" lon="5.53418">
        <ele>358.5</ele>
        <time>2023-05-28T07:30:54Z</time>
      </trkpt>
      <trkpt lat="43.54146" lon="5.53418">
        <ele>358.5</ele>
        <time>2023-05-28T07:30:55Z</time>
      </trkpt>
      <trkpt lat="43.54145" lon="5.5342">
        <ele>358.5</ele>
        <time>2023-05-28T07:30:56Z</time>
      </trkpt>
      <trkpt lat="43.54144" lon="5.53421">
        <ele>358.5</ele>
        <time>2023-05-28T07:30:57Z</time>
      </trkpt>
      <trkpt lat="43.54144" lon="5.53422">
        <ele>358.6</ele>
        <time>2023-05-28T07:30:58Z</time>
      </trkpt>
      <trkpt lat="43.54143" lon="5.53423">
        <ele>358.6</ele>
        <time>2023-05-28T07:30:59Z</time>
      </trkpt>
      <trkpt lat="43.54142" lon="5.53425">
        <ele>358.7</ele>
        <time>2023-05-28T07:31:00Z</time>
      </trkpt>
      <trkpt lat="43.54141" lon="5.53426">
        <ele>358.7</ele>
        <time>2023-05-28T07:31:01Z</time>
      </trkpt>
      <trkpt lat="43.5414" lon="5.53427">
        <ele>358.8</ele>
        <time>2023-05-28T07:31:02Z</time>
      </trkpt>
      <trkpt lat="43.54139" lon="5.53428">
        <ele>358.8</ele>
        <time>2023-05-28T07:31:03Z</time>
      </trkpt>
      <trkpt lat="43.54138" lon="5.53429">
        <ele>358.8</ele>
        <time>2023-05-28T07:31:04Z</time>
      </trkpt>
      <trkpt lat="43.54137" lon="5.5343">
        <ele>358.8</ele>
        <time>2023-05-28T07:31:05Z</time>
      </trkpt>
      <trkpt lat="43.54136" lon="5.53431">
        <ele>358.7</ele>
        <time>2023-05-28T07:31:06Z</time>
      </trkpt>
      <trkpt lat="43.54135" lon="5.53433">
        <ele>358.7</ele>
        <time>2023-05-28T07:31:07Z</time>
      </trkpt>
      <trkpt lat="43.54134" lon="5.53434">
        <ele>358.7</ele>
        <time>2023-05-28T07:31:08Z</time>
      </trkpt>
      <trkpt lat="43.54133" lon="5.53435">
        <ele>358.6</ele>
        <time>2023-05-28T07:31:09Z</time>
      </trkpt>
      <trkpt lat="43.54132" lon="5.53437">
        <ele>358.5</ele>
        <time>2023-05-28T07:31:10Z</time>
      </trkpt>
      <trkpt lat="43.54132" lon="5.53438">
        <ele>358.5</ele>
        <time>2023-05-28T07:31:11Z</time>
      </trkpt>
      <trkpt lat="43.54131" lon="5.53439">
        <ele>358.5</ele>
        <time>2023-05-28T07:31:12Z</time>
      </trkpt>
      <trkpt lat="43.5413" lon="5.5344">
        <ele>358.6</ele>
        <time>2023-05-28T07:31:13Z</time>
      </trkpt>
      <trkpt lat="43.54129" lon="5.53441">
        <ele>358.6</ele>
        <time>2023-05-28T07:31:14Z</time>
      </trkpt>
      <trkpt lat="43.54128" lon="5.53442">
        <ele>358.6</ele>
        <time>2023-05-28T07:31:15Z</time>
      </trkpt>
      <trkpt lat="43.54127" lon="5.53443">
        <ele>358.6</ele>
        <time>2023-05-28T07:31:16Z</time>
      </trkpt>
      <trkpt lat="43.54126" lon="5.53444">
        <ele>358.6</ele>
        <time>2023-05-28T07:31:17Z</time>
      </trkpt>
      <trkpt lat="43.54125" lon="5.53444">
        <ele>358.7</ele>
        <time>2023-05-28T07:31:18Z</time>
      </trkpt>
      <trkpt lat="43.54124" lon="5.53445">
        <ele>358.7</ele>
        <time>2023-05-28T07:31:19Z</time>
      </trkpt>
      <trkpt lat="43.54123" lon="5.53446">
        <ele>358.6</ele>
        <time>2023-05-28T07:31:20Z</time>
      </trkpt>
      <trkpt lat="43.54122" lon="5.53446">
        <ele>358.6</ele>
        <time>2023-05-28T07:31:21Z</time>
      </trkpt>
      <trkpt lat="43.54121" lon="5.53447">
        <ele>358.5</ele>
        <time>2023-05-28T07:31:22Z</time>
      </trkpt>
      <trkpt lat="43.5412" lon="5.53448">
        <ele>358.5</ele>
        <time>2023-05-28T07:31:23Z</time>
      </trkpt>
      <trkpt lat="43.54119" lon="5.53448">
        <ele>358.6</ele>
        <time>2023-05-28T07:31:24Z</time>
      </trkpt>
      <trkpt lat="43.54117" lon="5.53449">
        <ele>358.6</ele>
        <time>2023-05-28T07:31:25Z</time>
      </trkpt>
      <trkpt lat="43.54116" lon="5.53449">
        <ele>358.6</ele>
        <time>2023-05-28T07:31:26Z</time>
      </trkpt>
      <trkpt lat="43.54116" lon="5.5345">
        <ele>358.5</ele>
        <time>2023-05-28T07:31:27Z</time>
      </trkpt>
      <trkpt lat="43.54115" lon="5.5345">
        <ele>358.5</ele>
        <time>2023-05-28T07:31:28Z</time>
      </trkpt>
      <trkpt lat="43.54114" lon="5.53451">
        <ele>358.5</ele>
        <time>2023-05-28T07:31:29Z</time>
      </trkpt>
      <trkpt lat="43.54114" lon="5.53451">
        <ele>358.4</ele>
        <time>2023-05-28T07:31:30Z</time>
      </trkpt>
      <trkpt lat="43.54113" lon="5.53451">
        <ele>358.4</ele>
        <time>2023-05-28T07:31:31Z</time>
      </trkpt>
      <trkpt lat="43.54112" lon="5.53452">
        <ele>358.4</ele>
        <time>2023-05-28T07:31:32Z</time>
      </trkpt>
      <trkpt lat="43.54112" lon="5.53452">
        <ele>358.4</ele>
        <time>2023-05-28T07:31:33Z</time>
      </trkpt>
      <trkpt lat="43.54111" lon="5.53452">
        <ele>358.3</ele>
        <time>2023-05-28T07:31:34Z</time>
      </trkpt>
      <trkpt lat="43.54111" lon="5.53452">
        <ele>358.3</ele>
        <time>2023-05-28T07:31:35Z</time>
      </trkpt>
      <trkpt lat="43.54111" lon="5.53452">
        <ele>358.3</ele>
        <time>2023-05-28T07:31:36Z</time>
      </trkpt>
      <trkpt lat="43.54111" lon="5.53452">
        <ele>358.4</ele>
        <time>2023-05-28T07:31:37Z</time>
      </trkpt>
      <trkpt lat="43.54111" lon="5.53452">
        <ele>358.4</ele>
        <time>2023-05-28T07:31:38Z</time>
      </trkpt>
      <trkpt lat="43.54111" lon="5.53452">
        <ele>358.4</ele>
        <time>2023-05-28T07:31:39Z</time>
      </trkpt>
      <trkpt lat="43.54112" lon="5.53452">
        <ele>358.4</ele>
        <time>2023-05-28T07:31:40Z</time>
      </trkpt>
      <trkpt lat="43.54112" lon="5.53452">
        <ele>358.5</ele>
        <time>2023-05-28T07:31:41Z</time>
      </trkpt>
      <trkpt lat="43.54112" lon="5.53452">
        <ele>358.5</ele>
        <time>2023-05-28T07:31:42Z</time>
      </trkpt>
      <trkpt lat="43.54112" lon="5.53452">
        <ele>358.5</ele>
        <time>2023-05-28T07:31:43Z</time>
      </trkpt>
      <trkpt lat="43.54112" lon="5.53452">
        <ele>358.5</ele>
        <time>2023-05-28T07:31:44Z</time>
      </trkpt>
      <trkpt lat="43.54112" lon="5.53452">
        <ele>358.5</ele>
        <time>2023-05-28T07:31:45Z</time>
      </trkpt>
      <trkpt lat="43.54112" lon="5.53453">
        <ele>358.5</ele>
        <time>2023-05-28T07:31:46Z</time>
      </trkpt>
      <trkpt lat="43.54112" lon="5.53454">
        <ele>358.6</ele>
        <time>2023-05-28T07:31:47Z</time>
      </trkpt>
      <trkpt lat="43.54112" lon="5.53454">
        <ele>358.7</ele>
        <time>2023-05-28T07:31:48Z</time>
      </trkpt>
      <trkpt lat="43.54112" lon="5.53454">
        <ele>358.6</ele>
        <time>2023-05-28T07:31:49Z</time>
      </trkpt>
      <trkpt lat="43.54111" lon="5.53454">
        <ele>358.5</ele>
        <time>2023-05-28T07:31:50Z</time>
      </trkpt>
      <trkpt lat="43.54111" lon="5.53454">
        <ele>358.5</ele>
        <time>2023-05-28T07:31:51Z</time>
      </trkpt>
      <trkpt lat="43.54111" lon="5.53454">
        <ele>358.4</ele>
        <time>2023-05-28T07:31:52Z</time>
      </trkpt>
      <trkpt lat="43.54111" lon="5.53454">
        <ele>358.3</ele>
        <time>2023-05-28T07:31:53Z</time>
      </trkpt>
      <trkpt lat="43.54111" lon="5.53454">
        <ele>358.3</ele>
        <time>2023-05-28T07:31:54Z</time>
      </trkpt>
      <trkpt lat="43.54111" lon="5.53455">
        <ele>358.2</ele>
        <time>2023-05-28T07:31:55Z</time>
      </trkpt>
      <trkpt lat="43.54111" lon="5.53455">
        <ele>358.2</ele>
        <time>2023-05-28T07:31:56Z</time>
      </trkpt>
      <trkpt lat="43.54112" lon="5.53456">
        <ele>358.2</ele>
        <time>2023-05-28T07:31:57Z</time>
      </trkpt>
      <trkpt lat="43.54112" lon="5.53456">
        <ele>358.2</ele>
        <time>2023-05-28T07:31:58Z</time>
      </trkpt>
      <trkpt lat="43.54112" lon="5.53456">
        <ele>358.2</ele>
        <time>2023-05-28T07:31:59Z</time>
      </trkpt>
      <trkpt lat="43.54112" lon="5.53456">
        <ele>358.2</ele>
        <time>2023-05-28T07:32:00Z</time>
      </trkpt>
      <trkpt lat="43.54112" lon="5.53456">
        <ele>358.2</ele>
        <time>2023-05-28T07:32:01Z</time>
      </trkpt>
      <trkpt lat="43.54112" lon="5.53456">
        <ele>358.2</ele>
        <time>2023-05-28T07:32:02Z</time>
      </trkpt>
      <trkpt lat="43.54112" lon="5.53456">
        <ele>358.3</ele>
        <time>2023-05-28T07:32:03Z</time>
      </trkpt>
      <trkpt lat="43.54112" lon="5.53456">
        <ele>358.3</ele>
        <time>2023-05-28T07:32:04Z</time>
      </trkpt>
      <trkpt lat="43.54112" lon="5.53456">
        <ele>358.4</ele>
        <time>2023-05-28T07:32:05Z</time>
      </trkpt>
      <trkpt lat="43.54112" lon="5.53456">
        <ele>358.4</ele>
        <time>2023-05-28T07:32:06Z</time>
      </trkpt>
      <trkpt lat="43.54112" lon="5.53456">
        <ele>358.4</ele>
        <time>2023-05-28T07:32:07Z</time>
      </trkpt>
      <trkpt lat="43.54112" lon="5.53456">
        <ele>358.4</ele>
        <time>2023-05-28T07:32:08Z</time>
      </trkpt>
      <trkpt lat="43.54112" lon="5.53455">
        <ele>358.4</ele>
        <time>2023-05-28T07:32:09Z</time>
      </trkpt>
      <trkpt lat="43.54112" lon="5.53456">
        <ele>358.4</ele>
        <time>2023-05-28T07:32:10Z</time>
      </trkpt>
      <trkpt lat="43.54112" lon="5.53456">
        <ele>358.5</ele>
        <time>2023-05-28T07:32:11Z</time>
      </trkpt>
      <trkpt lat="43.54112" lon="5.53456">
        <ele>358.4</ele>
        <time>2023-05-28T07:32:12Z</time>
      </trkpt>
      <trkpt lat="43.54112" lon="5.53456">
        <ele>358.4</ele>
        <time>2023-05-28T07:32:13Z</time>
      </trkpt>
      <trkpt lat="43.54112" lon="5.53456">
        <ele>358.4</ele>
        <time>2023-05-28T07:32:14Z</time>
      </trkpt>
      <trkpt lat="43.54112" lon="5.53457">
        <ele>358.4</ele>
        <time>2023-05-28T07:32:15Z</time>
      </trkpt>
      <trkpt lat="43.54112" lon="5.53457">
        <ele>358.4</ele>
        <time>2023-05-28T07:32:16Z</time>
      </trkpt>
      <trkpt lat="43.54112" lon="5.53457">
        <ele>358.5</ele>
        <time>2023-05-28T07:32:17Z</time>
      </trkpt>
      <trkpt lat="43.54112" lon="5.53457">
        <ele>358.5</ele>
        <time>2023-05-28T07:32:18Z</time>
      </trkpt>
      <trkpt lat="43.54112" lon="5.53458">
        <ele>358.5</ele>
        <time>2023-05-28T07:32:19Z</time>
      </trkpt>
      <trkpt lat="43.54112" lon="5.53458">
        <ele>358.6</ele>
        <time>2023-05-28T07:32:20Z</time>
      </trkpt>
      <trkpt lat="43.54112" lon="5.53458">
        <ele>358.6</ele>
        <time>2023-05-28T07:32:21Z</time>
      </trkpt>
      <trkpt lat="43.54112" lon="5.53458">
        <ele>358.5</ele>
        <time>2023-05-28T07:32:22Z</time>
      </trkpt>
      <trkpt lat="43.54112" lon="5.53458">
        <ele>358.5</ele>
        <time>2023-05-28T07:32:23Z</time>
      </trkpt>
      <trkpt lat="43.54112" lon="5.53458">
        <ele>358.5</ele>
        <time>2023-05-28T07:32:24Z</time>
      </trkpt>
      <trkpt lat="43.54112" lon="5.53458">
        <ele>358.5</ele>
        <time>2023-05-28T07:32:25Z</time>
      </trkpt>
      <trkpt lat="43.54112" lon="5.53458">
        <ele>358.4</ele>
        <time>2023-05-28T07:32:26Z</time>
      </trkpt>
      <trkpt lat="43.54113" lon="5.53458">
        <ele>358.4</ele>
        <time>2023-05-28T07:32:27Z</time>
      </trkpt>
      <trkpt lat="43.54113" lon="5.53459">
        <ele>358.4</ele>
        <time>2023-05-28T07:32:28Z</time>
      </trkpt>
      <trkpt lat="43.54113" lon="5.53459">
        <ele>358.5</ele>
        <time>2023-05-28T07:32:29Z</time>
      </trkpt>
      <trkpt lat="43.54113" lon="5.53459">
        <ele>358.5</ele>
        <time>2023-05-28T07:32:30Z</time>
      </trkpt>
      <trkpt lat="43.54113" lon="5.53459">
        <ele>358.5</ele>
        <time>2023-05-28T07:32:31Z</time>
      </trkpt>
      <trkpt lat="43.54113" lon="5.53459">
        <ele>358.5</ele>
        <time>2023-05-28T07:32:32Z</time>
      </trkpt>
      <trkpt lat="43.54113" lon="5.53459">
        <ele>358.5</ele>
        <time>2023-05-28T07:32:33Z</time>
      </trkpt>
      <trkpt lat="43.54113" lon="5.53459">
        <ele>358.5</ele>
        <time>2023-05-28T07:32:34Z</time>
      </trkpt>
      <trkpt lat="43.54113" lon="5.53459">
        <ele>358.5</ele>
        <time>2023-05-28T07:32:35Z</time>
      </trkpt>
      <trkpt lat="43.54113" lon="5.53459">
        <ele>358.5</ele>
        <time>2023-05-28T07:32:36Z</time>
      </trkpt>
      <trkpt lat="43.54113" lon="5.53459">
        <ele>358.5</ele>
        <time>2023-05-28T07:32:37Z</time>
      </trkpt>
      <trkpt lat="43.54113" lon="5.53459">
        <ele>358.5</ele>
        <time>2023-05-28T07:32:38Z</time>
      </trkpt>
      <trkpt lat="43.54113" lon="5.53459">
        <ele>358.5</ele>
        <time>2023-05-28T07:32:39Z</time>
      </trkpt>
      <trkpt lat="43.54113" lon="5.53459">
        <ele>358.6</ele>
        <time>2023-05-28T07:32:40Z</time>
      </trkpt>
      <trkpt lat="43.54113" lon="5.53459">
        <ele>358.5</ele>
        <time>2023-05-28T07:32:41Z</time>
      </trkpt>
      <trkpt lat="43.54113" lon="5.53459">
        <ele>358.5</ele>
        <time>2023-05-28T07:32:42Z</time>
      </trkpt>
      <trkpt lat="43.54113" lon="5.53459">
        <ele>358.5</ele>
        <time>2023-05-28T07:32:43Z</time>
      </trkpt>
      <trkpt lat="43.54113" lon="5.53459">
        <ele>358.5</ele>
        <time>2023-05-28T07:32:44Z</time>
      </trkpt>
      <trkpt lat="43.54113" lon="5.53459">
        <ele>358.4</ele>
        <time>2023-05-28T07:32:45Z</time>
      </trkpt>
      <trkpt lat="43.54113" lon="5.53459">
        <ele>358.4</ele>
        <time>2023-05-28T07:32:46Z</time>
      </trkpt>
      <trkpt lat="43.54113" lon="5.53459">
        <ele>358.5</ele>
        <time>2023-05-28T07:32:47Z</time>
      </trkpt>
      <trkpt lat="43.54113" lon="5.53459">
        <ele>358.5</ele>
        <time>2023-05-28T07:32:48Z</time>
      </trkpt>
      <trkpt lat="43.54113" lon="5.53459">
        <ele>358.6</ele>
        <time>2023-05-28T07:32:49Z</time>
      </trkpt>
      <trkpt lat="43.54113" lon="5.53459">
        <ele>358.6</ele>
        <time>2023-05-28T07:32:50Z</time>
      </trkpt>
      <trkpt lat="43.54113" lon="5.53459">
        <ele>358.7</ele>
        <time>2023-05-28T07:32:51Z</time>
      </trkpt>
      <trkpt lat="43.54113" lon="5.53459">
        <ele>358.7</ele>
        <time>2023-05-28T07:32:52Z</time>
      </trkpt>
      <trkpt lat="43.54113" lon="5.53459">
        <ele>358.7</ele>
        <time>2023-05-28T07:32:53Z</time>
      </trkpt>
      <trkpt lat="43.54113" lon="5.53459">
        <ele>358.7</ele>
        <time>2023-05-28T07:32:54Z</time>
      </trkpt>
      <trkpt lat="43.54113" lon="5.53459">
        <ele>358.6</ele>
        <time>2023-05-28T07:32:55Z</time>
      </trkpt>
      <trkpt lat="43.54113" lon="5.53459">
        <ele>358.5</ele>
        <time>2023-05-28T07:32:56Z</time>
      </trkpt>
      <trkpt lat="43.54113" lon="5.53459">
        <ele>358.5</ele>
        <time>2023-05-28T07:32:57Z</time>
      </trkpt>
      <trkpt lat="43.54113" lon="5.53459">
        <ele>358.5</ele>
        <time>2023-05-28T07:32:58Z</time>
      </trkpt>
      <trkpt lat="43.54113" lon="5.53459">
        <ele>358.4</ele>
        <time>2023-05-28T07:32:59Z</time>
      </trkpt>
      <trkpt lat="43.54113" lon="5.53459">
        <ele>358.4</ele>
        <time>2023-05-28T07:33:00Z</time>
      </trkpt>
      <trkpt lat="43.54113" lon="5.53459">
        <ele>358.4</ele>
        <time>2023-05-28T07:33:01Z</time>
      </trkpt>
      <trkpt lat="43.54113" lon="5.53459">
        <ele>358.5</ele>
        <time>2023-05-28T07:33:02Z</time>
      </trkpt>
      <trkpt lat="43.54113" lon="5.53459">
        <ele>358.6</ele>
        <time>2023-05-28T07:33:03Z</time>
      </trkpt>
      <trkpt lat="43.54113" lon="5.53459">
        <ele>358.6</ele>
        <time>2023-05-28T07:33:04Z</time>
      </trkpt>
      <trkpt lat="43.54113" lon="5.53459">
        <ele>358.6</ele>
        <time>2023-05-28T07:33:05Z</time>
      </trkpt>
      <trkpt lat="43.54113" lon="5.53459">
        <ele>358.6</ele>
        <time>2023-05-28T07:33:06Z</time>
      </trkpt>
      <trkpt lat="43.54113" lon="5.53458">
        <ele>358.6</ele>
        <time>2023-05-28T07:33:07Z</time>
      </trkpt>
      <trkpt lat="43.54113" lon="5.53458">
        <ele>358.6</ele>
        <time>2023-05-28T07:33:08Z</time>
      </trkpt>
      <trkpt lat="43.54113" lon="5.53458">
        <ele>358.7</ele>
        <time>2023-05-28T07:33:09Z</time>
      </trkpt>
      <trkpt lat="43.54113" lon="5.53458">
        <ele>358.7</ele>
        <time>2023-05-28T07:33:10Z</time>
      </trkpt>
      <trkpt lat="43.54113" lon="5.53458">
        <ele>358.7</ele>
        <time>2023-05-28T07:33:11Z</time>
      </trkpt>
      <trkpt lat="43.54113" lon="5.53458">
        <ele>358.7</ele>
        <time>2023-05-28T07:33:12Z</time>
      </trkpt>
      <trkpt lat="43.54113" lon="5.53458">
        <ele>358.6</ele>
        <time>2023-05-28T07:33:13Z</time>
      </trkpt>
      <trkpt lat="43.54113" lon="5.53458">
        <ele>358.6</ele>
        <time>2023-05-28T07:33:14Z</time>
      </trkpt>
      <trkpt lat="43.54113" lon="5.53458">
        <ele>358.5</ele>
        <time>2023-05-28T07:33:15Z</time>
      </trkpt>
      <trkpt lat="43.54113" lon="5.53458">
        <ele>358.5</ele>
        <time>2023-05-28T07:33:16Z</time>
      </trkpt>
      <trkpt lat="43.54113" lon="5.53458">
        <ele>358.5</ele>
        <time>2023-05-28T07:33:17Z</time>
      </trkpt>
      <trkpt lat="43.54113" lon="5.53458">
        <ele>358.5</ele>
        <time>2023-05-28T07:33:18Z</time>
      </trkpt>
      <trkpt lat="43.54113" lon="5.53458">
        <ele>358.5</ele>
        <time>2023-05-28T07:33:19Z</time>
      </trkpt>
      <trkpt lat="43.54113" lon="5.53458">
        <ele>358.5</ele>
        <time>2023-05-28T07:33:20Z</time>
      </trkpt>
      <trkpt lat="43.54113" lon="5.53458">
        <ele>358.6</ele>
        <time>2023-05-28T07:33:21Z</time>
      </trkpt>
      <trkpt lat="43.54113" lon="5.53458">
        <ele>358.6</ele>
        <time>2023-05-28T07:33:22Z</time>
      </trkpt>
      <trkpt lat="43.54113" lon="5.53458">
        <ele>358.5</ele>
        <time>2023-05-28T07:33:23Z</time>
      </trkpt>
      <trkpt lat="43.54113" lon="5.53458">
        <ele>358.5</ele>
        <time>2023-05-28T07:33:24Z</time>
      </trkpt>
      <trkpt lat="43.54113" lon="5.53458">
        <ele>358.4</ele>
        <time>2023-05-28T07:33:25Z</time>
      </trkpt>
      <trkpt lat="43.54113" lon="5.53458">
        <ele>358.4</ele>
        <time>2023-05-28T07:33:26Z</time>
      </trkpt>
      <trkpt lat="43.54113" lon="5.53458">
        <ele>358.4</ele>
        <time>2023-05-28T07:33:27Z</time>
      </trkpt>
      <trkpt lat="43.54113" lon="5.53458">
        <ele>358.4</ele>
        <time>2023-05-28T07:33:28Z</time>
      </trkpt>
      <trkpt lat="43.54113" lon="5.53458">
        <ele>358.4</ele>
        <time>2023-05-28T07:33:29Z</time>
      </trkpt>
      <trkpt lat="43.54113" lon="5.53458">
        <ele>358.4</ele>
        <time>2023-05-28T07:33:30Z</time>
      </trkpt>
      <trkpt lat="43.54113" lon="5.53458">
        <ele>358.4</ele>
        <time>2023-05-28T07:33:31Z</time>
      </trkpt>
      <trkpt lat="43.54113" lon="5.53458">
        <ele>358.5</ele>
        <time>2023-05-28T07:33:32Z</time>
      </trkpt>
      <trkpt lat="43.54113" lon="5.53458">
        <ele>358.5</ele>
        <time>2023-05-28T07:33:33Z</time>
      </trkpt>
      <trkpt lat="43.54113" lon="5.53458">
        <ele>358.4</ele>
        <time>2023-05-28T07:33:34Z</time>
      </trkpt>
      <trkpt lat="43.54113" lon="5.53458">
        <ele>358.4</ele>
        <time>2023-05-28T07:33:35Z</time>
      </trkpt>
      <trkpt lat="43.54113" lon="5.53458">
        <ele>358.4</ele>
        <time>2023-05-28T07:33:36Z</time>
      </trkpt>
      <trkpt lat="43.54113" lon="5.53458">
        <ele>358.4</ele>
        <time>2023-05-28T07:33:37Z</time>
      </trkpt>
      <trkpt lat="43.54113" lon="5.53458">
        <ele>358.3</ele>
        <time>2023-05-28T07:33:38Z</time>
      </trkpt>
      <trkpt lat="43.54113" lon="5.53458">
        <ele>358.3</ele>
        <time>2023-05-28T07:33:39Z</time>
      </trkpt>
      <trkpt lat="43.54114" lon="5.53457">
        <ele>358.4</ele>
        <time>2023-05-28T07:33:40Z</time>
      </trkpt>
      <trkpt lat="43.54114" lon="5.53457">
        <ele>358.4</ele>
        <time>2023-05-28T07:33:41Z</time>
      </trkpt>
      <trkpt lat="43.54113" lon="5.53457">
        <ele>358.4</ele>
        <time>2023-05-28T07:33:42Z</time>
      </trkpt>
      <trkpt lat="43.54113" lon="5.53458">
        <ele>358.4</ele>
        <time>2023-05-28T07:33:43Z</time>
      </trkpt>
      <trkpt lat="43.54113" lon="5.53458">
        <ele>358.4</ele>
        <time>2023-05-28T07:33:44Z</time>
      </trkpt>
      <trkpt lat="43.54113" lon="5.53458">
        <ele>358.4</ele>
        <time>2023-05-28T07:33:45Z</time>
      </trkpt>
      <trkpt lat="43.54113" lon="5.53458">
        <ele>358.3</ele>
        <time>2023-05-28T07:33:46Z</time>
      </trkpt>
      <trkpt lat="43.54113" lon="5.53458">
        <ele>358.3</ele>
        <time>2023-05-28T07:33:47Z</time>
      </trkpt>
      <trkpt lat="43.54113" lon="5.53458">
        <ele>358.3</ele>
        <time>2023-05-28T07:33:48Z</time>
      </trkpt>
      <trkpt lat="43.54113" lon="5.53458">
        <ele>358.2</ele>
        <time>2023-05-28T07:33:49Z</time>
      </trkpt>
      <trkpt lat="43.54113" lon="5.53458">
        <ele>358.3</ele>
        <time>2023-05-28T07:33:50Z</time>
      </trkpt>
      <trkpt lat="43.54113" lon="5.53458">
        <ele>358.4</ele>
        <time>2023-05-28T07:33:51Z</time>
      </trkpt>
      <trkpt lat="43.54113" lon="5.53458">
        <ele>358.5</ele>
        <time>2023-05-28T07:33:52Z</time>
      </trkpt>
      <trkpt lat="43.54113" lon="5.53458">
        <ele>358.5</ele>
        <time>2023-05-28T07:33:53Z</time>
      </trkpt>
      <trkpt lat="43.54113" lon="5.53458">
        <ele>358.5</ele>
        <time>2023-05-28T07:33:54Z</time>
      </trkpt>
      <trkpt lat="43.54113" lon="5.53458">
        <ele>358.5</ele>
        <time>2023-05-28T07:33:55Z</time>
      </trkpt>
      <trkpt lat="43.54113" lon="5.53458">
        <ele>358.4</ele>
        <time>2023-05-28T07:33:56Z</time>
      </trkpt>
      <trkpt lat="43.54113" lon="5.53458">
        <ele>358.3</ele>
        <time>2023-05-28T07:33:57Z</time>
      </trkpt>
      <trkpt lat="43.54113" lon="5.53458">
        <ele>358.3</ele>
        <time>2023-05-28T07:33:58Z</time>
      </trkpt>
      <trkpt lat="43.54113" lon="5.53458">
        <ele>358.2</ele>
        <time>2023-05-28T07:33:59Z</time>
      </trkpt>
      <trkpt lat="43.54113" lon="5.53458">
        <ele>358.2</ele>
        <time>2023-05-28T07:34:00Z</time>
      </trkpt>
      <trkpt lat="43.54113" lon="5.53458">
        <ele>358.2</ele>
        <time>2023-05-28T07:34:01Z</time>
      </trkpt>
      <trkpt lat="43.54113" lon="5.53458">
        <ele>358.2</ele>
        <time>2023-05-28T07:34:02Z</time>
      </trkpt>
      <trkpt lat="43.54113" lon="5.53458">
        <ele>358.2</ele>
        <time>2023-05-28T07:34:03Z</time>
      </trkpt>
      <trkpt lat="43.54113" lon="5.53458">
        <ele>358.3</ele>
        <time>2023-05-28T07:34:04Z</time>
      </trkpt>
      <trkpt lat="43.54113" lon="5.53458">
        <ele>358.3</ele>
        <time>2023-05-28T07:34:05Z</time>
      </trkpt>
      <trkpt lat="43.54113" lon="5.53458">
        <ele>358.3</ele>
        <time>2023-05-28T07:34:06Z</time>
      </trkpt>
      <trkpt lat="43.54114" lon="5.53458">
        <ele>358.4</ele>
        <time>2023-05-28T07:34:07Z</time>
      </trkpt>
      <trkpt lat="43.54113" lon="5.53458">
        <ele>358.5</ele>
        <time>2023-05-28T07:34:08Z</time>
      </trkpt>
      <trkpt lat="43.54113" lon="5.53458">
        <ele>358.6</ele>
        <time>2023-05-28T07:34:09Z</time>
      </trkpt>
      <trkpt lat="43.54114" lon="5.53458">
        <ele>358.6</ele>
        <time>2023-05-28T07:34:10Z</time>
      </trkpt>
      <trkpt lat="43.54114" lon="5.53458">
        <ele>358.6</ele>
        <time>2023-05-28T07:34:11Z</time>
      </trkpt>
      <trkpt lat="43.54113" lon="5.53458">
        <ele>358.6</ele>
        <time>2023-05-28T07:34:12Z</time>
      </trkpt>
      <trkpt lat="43.54114" lon="5.53458">
        <ele>358.6</ele>
        <time>2023-05-28T07:34:13Z</time>
      </trkpt>
      <trkpt lat="43.54114" lon="5.53458">
        <ele>358.6</ele>
        <time>2023-05-28T07:34:14Z</time>
      </trkpt>
      <trkpt lat="43.54114" lon="5.53458">
        <ele>358.6</ele>
        <time>2023-05-28T07:34:15Z</time>
      </trkpt>
      <trkpt lat="43.54114" lon="5.53458">
        <ele>358.5</ele>
        <time>2023-05-28T07:34:16Z</time>
      </trkpt>
      <trkpt lat="43.54114" lon="5.53458">
        <ele>358.5</ele>
        <time>2023-05-28T07:34:17Z</time>
      </trkpt>
      <trkpt lat="43.54114" lon="5.53458">
        <ele>358.5</ele>
        <time>2023-05-28T07:34:18Z</time>
      </trkpt>
      <trkpt lat="43.54114" lon="5.53458">
        <ele>358.5</ele>
        <time>2023-05-28T07:34:19Z</time>
      </trkpt>
      <trkpt lat="43.54114" lon="5.53458">
        <ele>358.5</ele>
        <time>2023-05-28T07:34:20Z</time>
      </trkpt>
      <trkpt lat="43.54114" lon="5.53458">
        <ele>358.5</ele>
        <time>2023-05-28T07:34:21Z</time>
      </trkpt>
      <trkpt lat="43.54114" lon="5.53458">
        <ele>358.4</ele>
        <time>2023-05-28T07:34:22Z</time>
      </trkpt>
      <trkpt lat="43.54114" lon="5.53458">
        <ele>358.3</ele>
        <time>2023-05-28T07:34:23Z</time>
      </trkpt>
      <trkpt lat="43.54114" lon="5.53458">
        <ele>358.4</ele>
        <time>2023-05-28T07:34:24Z</time>
      </trkpt>
      <trkpt lat="43.54114" lon="5.53457">
        <ele>358.2</ele>
        <time>2023-05-28T07:34:25Z</time>
      </trkpt>
      <trkpt lat="43.54114" lon="5.53457">
        <ele>358.3</ele>
        <time>2023-05-28T07:34:26Z</time>
      </trkpt>
      <trkpt lat="43.54114" lon="5.53457">
        <ele>358.3</ele>
        <time>2023-05-28T07:34:27Z</time>
      </trkpt>
      <trkpt lat="43.54114" lon="5.53457">
        <ele>358.2</ele>
        <time>2023-05-28T07:34:28Z</time>
      </trkpt>
      <trkpt lat="43.54114" lon="5.53457">
        <ele>358.2</ele>
        <time>2023-05-28T07:34:29Z</time>
      </trkpt>
      <trkpt lat="43.54114" lon="5.53457">
        <ele>358.3</ele>
        <time>2023-05-28T07:34:30Z</time>
      </trkpt>
      <trkpt lat="43.54114" lon="5.53457">
        <ele>358.3</ele>
        <time>2023-05-28T07:34:31Z</time>
      </trkpt>
      <trkpt lat="43.54114" lon="5.53457">
        <ele>358.4</ele>
        <time>2023-05-28T07:34:32Z</time>
      </trkpt>
      <trkpt lat="43.54113" lon="5.53457">
        <ele>358.3</ele>
        <time>2023-05-28T07:34:33Z</time>
      </trkpt>
      <trkpt lat="43.54113" lon="5.53458">
        <ele>358.3</ele>
        <time>2023-05-28T07:34:34Z</time>
      </trkpt>
      <trkpt lat="43.54113" lon="5.53458">
        <ele>358.3</ele>
        <time>2023-05-28T07:34:35Z</time>
      </trkpt>
      <trkpt lat="43.54113" lon="5.53458">
        <ele>358.2</ele>
        <time>2023-05-28T07:34:36Z</time>
      </trkpt>
      <trkpt lat="43.54113" lon="5.53458">
        <ele>358.2</ele>
        <time>2023-05-28T07:34:37Z</time>
      </trkpt>
      <trkpt lat="43.54113" lon="5.53458">
        <ele>358.2</ele>
        <time>2023-05-28T07:34:38Z</time>
      </trkpt>
      <trkpt lat="43.54113" lon="5.53458">
        <ele>358.2</ele>
        <time>2023-05-28T07:34:39Z</time>
      </trkpt>
      <trkpt lat="43.54113" lon="5.53458">
        <ele>358.3</ele>
        <time>2023-05-28T07:34:40Z</time>
      </trkpt>
      <trkpt lat="43.54113" lon="5.53458">
        <ele>358.3</ele>
        <time>2023-05-28T07:34:41Z</time>
      </trkpt>
      <trkpt lat="43.54113" lon="5.53458">
        <ele>358.3</ele>
        <time>2023-05-28T07:34:42Z</time>
      </trkpt>
      <trkpt lat="43.54112" lon="5.53458">
        <ele>358.3</ele>
        <time>2023-05-28T07:34:43Z</time>
      </trkpt>
      <trkpt lat="43.54112" lon="5.53459">
        <ele>358.3</ele>
        <time>2023-05-28T07:34:44Z</time>
      </trkpt>
      <trkpt lat="43.54112" lon="5.53459">
        <ele>358.3</ele>
        <time>2023-05-28T07:34:45Z</time>
      </trkpt>
      <trkpt lat="43.54112" lon="5.53459">
        <ele>358.3</ele>
        <time>2023-05-28T07:34:46Z</time>
      </trkpt>
      <trkpt lat="43.54112" lon="5.53459">
        <ele>358.3</ele>
        <time>2023-05-28T07:34:47Z</time>
      </trkpt>
      <trkpt lat="43.54112" lon="5.53459">
        <ele>358.3</ele>
        <time>2023-05-28T07:34:48Z</time>
      </trkpt>
      <trkpt lat="43.54112" lon="5.53459">
        <ele>358.3</ele>
        <time>2023-05-28T07:34:49Z</time>
      </trkpt>
      <trkpt lat="43.54112" lon="5.53459">
        <ele>358.3</ele>
        <time>2023-05-28T07:34:50Z</time>
      </trkpt>
      <trkpt lat="43.54112" lon="5.53459">
        <ele>358.3</ele>
        <time>2023-05-28T07:34:51Z</time>
      </trkpt>
      <trkpt lat="43.54112" lon="5.53459">
        <ele>358.3</ele>
        <time>2023-05-28T07:34:52Z</time>
      </trkpt>
      <trkpt lat="43.54113" lon="5.53459">
        <ele>358.4</ele>
        <time>2023-05-28T07:34:53Z</time>
      </trkpt>
      <trkpt lat="43.54113" lon="5.53459">
        <ele>358.5</ele>
        <time>2023-05-28T07:34:54Z</time>
      </trkpt>
      <trkpt lat="43.54113" lon="5.53459">
        <ele>358.5</ele>
        <time>2023-05-28T07:34:55Z</time>
      </trkpt>
      <trkpt lat="43.54113" lon="5.5346">
        <ele>358.6</ele>
        <time>2023-05-28T07:34:56Z</time>
      </trkpt>
      <trkpt lat="43.54113" lon="5.5346">
        <ele>358.5</ele>
        <time>2023-05-28T07:34:57Z</time>
      </trkpt>
      <trkpt lat="43.54113" lon="5.5346">
        <ele>358.5</ele>
        <time>2023-05-28T07:34:58Z</time>
      </trkpt>
      <trkpt lat="43.54113" lon="5.5346">
        <ele>358.6</ele>
        <time>2023-05-28T07:34:59Z</time>
      </trkpt>
      <trkpt lat="43.54113" lon="5.5346">
        <ele>358.5</ele>
        <time>2023-05-28T07:35:00Z</time>
      </trkpt>
      <trkpt lat="43.54113" lon="5.5346">
        <ele>358.5</ele>
        <time>2023-05-28T07:35:01Z</time>
      </trkpt>
      <trkpt lat="43.54113" lon="5.5346">
        <ele>358.5</ele>
        <time>2023-05-28T07:35:02Z</time>
      </trkpt>
      <trkpt lat="43.54113" lon="5.5346">
        <ele>358.5</ele>
        <time>2023-05-28T07:35:03Z</time>
      </trkpt>
      <trkpt lat="43.54113" lon="5.5346">
        <ele>358.5</ele>
        <time>2023-05-28T07:35:04Z</time>
      </trkpt>
      <trkpt lat="43.54114" lon="5.5346">
        <ele>358.5</ele>
        <time>2023-05-28T07:35:05Z</time>
      </trkpt>
      <trkpt lat="43.54114" lon="5.5346">
        <ele>358.5</ele>
        <time>2023-05-28T07:35:06Z</time>
      </trkpt>
      <trkpt lat="43.54114" lon="5.5346">
        <ele>358.5</ele>
        <time>2023-05-28T07:35:07Z</time>
      </trkpt>
      <trkpt lat="43.54114" lon="5.53459">
        <ele>358.6</ele>
        <time>2023-05-28T07:35:08Z</time>
      </trkpt>
      <trkpt lat="43.54114" lon="5.53459">
        <ele>358.6</ele>
        <time>2023-05-28T07:35:09Z</time>
      </trkpt>
      <trkpt lat="43.54114" lon="5.53459">
        <ele>358.6</ele>
        <time>2023-05-28T07:35:10Z</time>
      </trkpt>
      <trkpt lat="43.54114" lon="5.53459">
        <ele>358.6</ele>
        <time>2023-05-28T07:35:11Z</time>
      </trkpt>
      <trkpt lat="43.54114" lon="5.53459">
        <ele>358.6</ele>
        <time>2023-05-28T07:35:12Z</time>
      </trkpt>
      <trkpt lat="43.54114" lon="5.53459">
        <ele>358.6</ele>
        <time>2023-05-28T07:35:13Z</time>
      </trkpt>
      <trkpt lat="43.54114" lon="5.53459">
        <ele>358.7</ele>
        <time>2023-05-28T07:35:14Z</time>
      </trkpt>
      <trkpt lat="43.54114" lon="5.53459">
        <ele>358.7</ele>
        <time>2023-05-28T07:35:15Z</time>
      </trkpt>
      <trkpt lat="43.54114" lon="5.53459">
        <ele>358.7</ele>
        <time>2023-05-28T07:35:16Z</time>
      </trkpt>
      <trkpt lat="43.54114" lon="5.53459">
        <ele>358.7</ele>
        <time>2023-05-28T07:35:17Z</time>
      </trkpt>
      <trkpt lat="43.54114" lon="5.5346">
        <ele>358.7</ele>
        <time>2023-05-28T07:35:18Z</time>
      </trkpt>
      <trkpt lat="43.54114" lon="5.5346">
        <ele>358.8</ele>
        <time>2023-05-28T07:35:19Z</time>
      </trkpt>
      <trkpt lat="43.54114" lon="5.53459">
        <ele>358.8</ele>
        <time>2023-05-28T07:35:20Z</time>
      </trkpt>
      <trkpt lat="43.54114" lon="5.53458">
        <ele>358.8</ele>
        <time>2023-05-28T07:35:21Z</time>
      </trkpt>
      <trkpt lat="43.54114" lon="5.53458">
        <ele>358.9</ele>
        <time>2023-05-28T07:35:22Z</time>
      </trkpt>
      <trkpt lat="43.54115" lon="5.53457">
        <ele>358.8</ele>
        <time>2023-05-28T07:35:23Z</time>
      </trkpt>
      <trkpt lat="43.54115" lon="5.53457">
        <ele>358.8</ele>
        <time>2023-05-28T07:35:24Z</time>
      </trkpt>
      <trkpt lat="43.54117" lon="5.53457">
        <ele>358.8</ele>
        <time>2023-05-28T07:35:25Z</time>
      </trkpt>
      <trkpt lat="43.54118" lon="5.53456">
        <ele>358.8</ele>
        <time>2023-05-28T07:35:26Z</time>
      </trkpt>
      <trkpt lat="43.54119" lon="5.53456">
        <ele>358.8</ele>
        <time>2023-05-28T07:35:27Z</time>
      </trkpt>
      <trkpt lat="43.5412" lon="5.53456">
        <ele>358.7</ele>
        <time>2023-05-28T07:35:28Z</time>
      </trkpt>
      <trkpt lat="43.54121" lon="5.53455">
        <ele>358.7</ele>
        <time>2023-05-28T07:35:29Z</time>
      </trkpt>
      <trkpt lat="43.54122" lon="5.53455">
        <ele>358.7</ele>
        <time>2023-05-28T07:35:30Z</time>
      </trkpt>
      <trkpt lat="43.54123" lon="5.53455">
        <ele>358.7</ele>
        <time>2023-05-28T07:35:31Z</time>
      </trkpt>
      <trkpt lat="43.54124" lon="5.53456">
        <ele>358.6</ele>
        <time>2023-05-28T07:35:32Z</time>
      </trkpt>
      <trkpt lat="43.54125" lon="5.53456">
        <ele>358.6</ele>
        <time>2023-05-28T07:35:33Z</time>
      </trkpt>
      <trkpt lat="43.54126" lon="5.53456">
        <ele>358.6</ele>
        <time>2023-05-28T07:35:34Z</time>
      </trkpt>
      <trkpt lat="43.54127" lon="5.53457">
        <ele>358.7</ele>
        <time>2023-05-28T07:35:35Z</time>
      </trkpt>
      <trkpt lat="43.54127" lon="5.53458">
        <ele>358.7</ele>
        <time>2023-05-28T07:35:36Z</time>
      </trkpt>
      <trkpt lat="43.54128" lon="5.53458">
        <ele>358.7</ele>
        <time>2023-05-28T07:35:37Z</time>
      </trkpt>
      <trkpt lat="43.54129" lon="5.53459">
        <ele>358.7</ele>
        <time>2023-05-28T07:35:38Z</time>
      </trkpt>
      <trkpt lat="43.5413" lon="5.5346">
        <ele>358.8</ele>
        <time>2023-05-28T07:35:39Z</time>
      </trkpt>
      <trkpt lat="43.54131" lon="5.53461">
        <ele>358.8</ele>
        <time>2023-05-28T07:35:40Z</time>
      </trkpt>
      <trkpt lat="43.54131" lon="5.53462">
        <ele>358.7</ele>
        <time>2023-05-28T07:35:41Z</time>
      </trkpt>
      <trkpt lat="43.54132" lon="5.53463">
        <ele>358.7</ele>
        <time>2023-05-28T07:35:42Z</time>
      </trkpt>
      <trkpt lat="43.54133" lon="5.53464">
        <ele>358.7</ele>
        <time>2023-05-28T07:35:43Z</time>
      </trkpt>
      <trkpt lat="43.54134" lon="5.53465">
        <ele>358.7</ele>
        <time>2023-05-28T07:35:44Z</time>
      </trkpt>
      <trkpt lat="43.54134" lon="5.53466">
        <ele>358.7</ele>
        <time>2023-05-28T07:35:45Z</time>
      </trkpt>
      <trkpt lat="43.54135" lon="5.53467">
        <ele>358.7</ele>
        <time>2023-05-28T07:35:46Z</time>
      </trkpt>
      <trkpt lat="43.54135" lon="5.53468">
        <ele>358.5</ele>
        <time>2023-05-28T07:35:47Z</time>
      </trkpt>
      <trkpt lat="43.54135" lon="5.5347">
        <ele>358.4</ele>
        <time>2023-05-28T07:35:48Z</time>
      </trkpt>
      <trkpt lat="43.54135" lon="5.53471">
        <ele>358.3</ele>
        <time>2023-05-28T07:35:49Z</time>
      </trkpt>
      <trkpt lat="43.54136" lon="5.53472">
        <ele>358.3</ele>
        <time>2023-05-28T07:35:50Z</time>
      </trkpt>
      <trkpt lat="43.54136" lon="5.53473">
        <ele>358.3</ele>
        <time>2023-05-28T07:35:51Z</time>
      </trkpt>
      <trkpt lat="43.54136" lon="5.53474">
        <ele>358.3</ele>
        <time>2023-05-28T07:35:52Z</time>
      </trkpt>
      <trkpt lat="43.54136" lon="5.53475">
        <ele>358.3</ele>
        <time>2023-05-28T07:35:53Z</time>
      </trkpt>
      <trkpt lat="43.54136" lon="5.53477">
        <ele>358.3</ele>
        <time>2023-05-28T07:35:54Z</time>
      </trkpt>
      <trkpt lat="43.54136" lon="5.53478">
        <ele>358.2</ele>
        <time>2023-05-28T07:35:55Z</time>
      </trkpt>
      <trkpt lat="43.54136" lon="5.53479">
        <ele>358.2</ele>
        <time>2023-05-28T07:35:56Z</time>
      </trkpt>
      <trkpt lat="43.54136" lon="5.53481">
        <ele>358.2</ele>
        <time>2023-05-28T07:35:57Z</time>
      </trkpt>
      <trkpt lat="43.54137" lon="5.53482">
        <ele>358.2</ele>
        <time>2023-05-28T07:35:58Z</time>
      </trkpt>
      <trkpt lat="43.54137" lon="5.53483">
        <ele>358.2</ele>
        <time>2023-05-28T07:35:59Z</time>
      </trkpt>
      <trkpt lat="43.54137" lon="5.53484">
        <ele>358.1</ele>
        <time>2023-05-28T07:36:00Z</time>
      </trkpt>
      <trkpt lat="43.54138" lon="5.53486">
        <ele>358.1</ele>
        <time>2023-05-28T07:36:01Z</time>
      </trkpt>
      <trkpt lat="43.54138" lon="5.53488">
        <ele>358</ele>
        <time>2023-05-28T07:36:02Z</time>
      </trkpt>
      <trkpt lat="43.54138" lon="5.53489">
        <ele>357.9</ele>
        <time>2023-05-28T07:36:03Z</time>
      </trkpt>
      <trkpt lat="43.54139" lon="5.5349">
        <ele>357.8</ele>
        <time>2023-05-28T07:36:04Z</time>
      </trkpt>
      <trkpt lat="43.54139" lon="5.53492">
        <ele>357.7</ele>
        <time>2023-05-28T07:36:05Z</time>
      </trkpt>
      <trkpt lat="43.54139" lon="5.53493">
        <ele>357.5</ele>
        <time>2023-05-28T07:36:06Z</time>
      </trkpt>
      <trkpt lat="43.5414" lon="5.53495">
        <ele>357.4</ele>
        <time>2023-05-28T07:36:07Z</time>
      </trkpt>
      <trkpt lat="43.5414" lon="5.53496">
        <ele>357.3</ele>
        <time>2023-05-28T07:36:08Z</time>
      </trkpt>
      <trkpt lat="43.54141" lon="5.53498">
        <ele>357.2</ele>
        <time>2023-05-28T07:36:09Z</time>
      </trkpt>
      <trkpt lat="43.54141" lon="5.53499">
        <ele>357.1</ele>
        <time>2023-05-28T07:36:10Z</time>
      </trkpt>
      <trkpt lat="43.54141" lon="5.53501">
        <ele>357.1</ele>
        <time>2023-05-28T07:36:11Z</time>
      </trkpt>
      <trkpt lat="43.54142" lon="5.53502">
        <ele>357</ele>
        <time>2023-05-28T07:36:12Z</time>
      </trkpt>
      <trkpt lat="43.54142" lon="5.53504">
        <ele>357</ele>
        <time>2023-05-28T07:36:13Z</time>
      </trkpt>
      <trkpt lat="43.54143" lon="5.53505">
        <ele>356.9</ele>
        <time>2023-05-28T07:36:14Z</time>
      </trkpt>
      <trkpt lat="43.54143" lon="5.53507">
        <ele>357</ele>
        <time>2023-05-28T07:36:15Z</time>
      </trkpt>
      <trkpt lat="43.54144" lon="5.53508">
        <ele>356.9</ele>
        <time>2023-05-28T07:36:16Z</time>
      </trkpt>
      <trkpt lat="43.54144" lon="5.5351">
        <ele>356.6</ele>
        <time>2023-05-28T07:36:17Z</time>
      </trkpt>
      <trkpt lat="43.54145" lon="5.53511">
        <ele>356.4</ele>
        <time>2023-05-28T07:36:18Z</time>
      </trkpt>
      <trkpt lat="43.54145" lon="5.53513">
        <ele>356.2</ele>
        <time>2023-05-28T07:36:19Z</time>
      </trkpt>
      <trkpt lat="43.54146" lon="5.53514">
        <ele>356.2</ele>
        <time>2023-05-28T07:36:20Z</time>
      </trkpt>
      <trkpt lat="43.54146" lon="5.53516">
        <ele>356.1</ele>
        <time>2023-05-28T07:36:21Z</time>
      </trkpt>
      <trkpt lat="43.54147" lon="5.53518">
        <ele>356.1</ele>
        <time>2023-05-28T07:36:22Z</time>
      </trkpt>
      <trkpt lat="43.54147" lon="5.53519">
        <ele>355.9</ele>
        <time>2023-05-28T07:36:23Z</time>
      </trkpt>
      <trkpt lat="43.54147" lon="5.53521">
        <ele>355.8</ele>
        <time>2023-05-28T07:36:24Z</time>
      </trkpt>
      <trkpt lat="43.54147" lon="5.53523">
        <ele>355.8</ele>
        <time>2023-05-28T07:36:25Z</time>
      </trkpt>
      <trkpt lat="43.54148" lon="5.53525">
        <ele>355.5</ele>
        <time>2023-05-28T07:36:26Z</time>
      </trkpt>
      <trkpt lat="43.54148" lon="5.53527">
        <ele>355.4</ele>
        <time>2023-05-28T07:36:27Z</time>
      </trkpt>
      <trkpt lat="43.54149" lon="5.53528">
        <ele>355.4</ele>
        <time>2023-05-28T07:36:28Z</time>
      </trkpt>
      <trkpt lat="43.54149" lon="5.5353">
        <ele>355.3</ele>
        <time>2023-05-28T07:36:29Z</time>
      </trkpt>
      <trkpt lat="43.54149" lon="5.53531">
        <ele>355.2</ele>
        <time>2023-05-28T07:36:30Z</time>
      </trkpt>
      <trkpt lat="43.54149" lon="5.53533">
        <ele>355.1</ele>
        <time>2023-05-28T07:36:31Z</time>
      </trkpt>
      <trkpt lat="43.54149" lon="5.53535">
        <ele>355</ele>
        <time>2023-05-28T07:36:32Z</time>
      </trkpt>
      <trkpt lat="43.54149" lon="5.53537">
        <ele>354.9</ele>
        <time>2023-05-28T07:36:33Z</time>
      </trkpt>
      <trkpt lat="43.54149" lon="5.53538">
        <ele>354.8</ele>
        <time>2023-05-28T07:36:34Z</time>
      </trkpt>
      <trkpt lat="43.54148" lon="5.5354">
        <ele>354.7</ele>
        <time>2023-05-28T07:36:35Z</time>
      </trkpt>
      <trkpt lat="43.54148" lon="5.53542">
        <ele>354.6</ele>
        <time>2023-05-28T07:36:36Z</time>
      </trkpt>
      <trkpt lat="43.54148" lon="5.53543">
        <ele>354.6</ele>
        <time>2023-05-28T07:36:37Z</time>
      </trkpt>
      <trkpt lat="43.54148" lon="5.53545">
        <ele>354.5</ele>
        <time>2023-05-28T07:36:38Z</time>
      </trkpt>
      <trkpt lat="43.54147" lon="5.53546">
        <ele>354.3</ele>
        <time>2023-05-28T07:36:39Z</time>
      </trkpt>
      <trkpt lat="43.54147" lon="5.53548">
        <ele>354.2</ele>
        <time>2023-05-28T07:36:40Z</time>
      </trkpt>
      <trkpt lat="43.54147" lon="5.5355">
        <ele>354</ele>
        <time>2023-05-28T07:36:41Z</time>
      </trkpt>
      <trkpt lat="43.54147" lon="5.53552">
        <ele>353.8</ele>
        <time>2023-05-28T07:36:42Z</time>
      </trkpt>
      <trkpt lat="43.54147" lon="5.53554">
        <ele>353.7</ele>
        <time>2023-05-28T07:36:43Z</time>
      </trkpt>
      <trkpt lat="43.54147" lon="5.53556">
        <ele>353.7</ele>
        <time>2023-05-28T07:36:44Z</time>
      </trkpt>
      <trkpt lat="43.54146" lon="5.53557">
        <ele>353.7</ele>
        <time>2023-05-28T07:36:45Z</time>
      </trkpt>
      <trkpt lat="43.54147" lon="5.53559">
        <ele>353.7</ele>
        <time>2023-05-28T07:36:46Z</time>
      </trkpt>
      <trkpt lat="43.54147" lon="5.53561">
        <ele>353.6</ele>
        <time>2023-05-28T07:36:47Z</time>
      </trkpt>
      <trkpt lat="43.54147" lon="5.53563">
        <ele>353.5</ele>
        <time>2023-05-28T07:36:48Z</time>
      </trkpt>
      <trkpt lat="43.54147" lon="5.53565">
        <ele>353.4</ele>
        <time>2023-05-28T07:36:49Z</time>
      </trkpt>
      <trkpt lat="43.54146" lon="5.53567">
        <ele>353.3</ele>
        <time>2023-05-28T07:36:50Z</time>
      </trkpt>
      <trkpt lat="43.54146" lon="5.53568">
        <ele>353.2</ele>
        <time>2023-05-28T07:36:51Z</time>
      </trkpt>
      <trkpt lat="43.54146" lon="5.5357">
        <ele>353.1</ele>
        <time>2023-05-28T07:36:52Z</time>
      </trkpt>
      <trkpt lat="43.54147" lon="5.53572">
        <ele>353.2</ele>
        <time>2023-05-28T07:36:53Z</time>
      </trkpt>
      <trkpt lat="43.54147" lon="5.53574">
        <ele>353</ele>
        <time>2023-05-28T07:36:54Z</time>
      </trkpt>
      <trkpt lat="43.54147" lon="5.53576">
        <ele>353</ele>
        <time>2023-05-28T07:36:55Z</time>
      </trkpt>
      <trkpt lat="43.54148" lon="5.53577">
        <ele>353</ele>
        <time>2023-05-28T07:36:56Z</time>
      </trkpt>
      <trkpt lat="43.54148" lon="5.53577">
        <ele>353</ele>
        <time>2023-05-28T07:36:57Z</time>
      </trkpt>
      <trkpt lat="43.54149" lon="5.53577">
        <ele>353.2</ele>
        <time>2023-05-28T07:36:58Z</time>
      </trkpt>
      <trkpt lat="43.54149" lon="5.53578">
        <ele>353.4</ele>
        <time>2023-05-28T07:36:59Z</time>
      </trkpt>
      <trkpt lat="43.54149" lon="5.53578">
        <ele>353.5</ele>
        <time>2023-05-28T07:37:00Z</time>
      </trkpt>
      <trkpt lat="43.54149" lon="5.53579">
        <ele>353.7</ele>
        <time>2023-05-28T07:37:01Z</time>
      </trkpt>
      <trkpt lat="43.5415" lon="5.5358">
        <ele>353.9</ele>
        <time>2023-05-28T07:37:02Z</time>
      </trkpt>
      <trkpt lat="43.5415" lon="5.53581">
        <ele>354.1</ele>
        <time>2023-05-28T07:37:03Z</time>
      </trkpt>
      <trkpt lat="43.54151" lon="5.53581">
        <ele>354.3</ele>
        <time>2023-05-28T07:37:04Z</time>
      </trkpt>
      <trkpt lat="43.54152" lon="5.53582">
        <ele>354.5</ele>
        <time>2023-05-28T07:37:05Z</time>
      </trkpt>
      <trkpt lat="43.54153" lon="5.53583">
        <ele>354.6</ele>
        <time>2023-05-28T07:37:06Z</time>
      </trkpt>
      <trkpt lat="43.54154" lon="5.53584">
        <ele>354.7</ele>
        <time>2023-05-28T07:37:07Z</time>
      </trkpt>
      <trkpt lat="43.54155" lon="5.53585">
        <ele>354.8</ele>
        <time>2023-05-28T07:37:08Z</time>
      </trkpt>
      <trkpt lat="43.54156" lon="5.53586">
        <ele>354.9</ele>
        <time>2023-05-28T07:37:09Z</time>
      </trkpt>
      <trkpt lat="43.54156" lon="5.53587">
        <ele>355</ele>
        <time>2023-05-28T07:37:10Z</time>
      </trkpt>
      <trkpt lat="43.54157" lon="5.53587">
        <ele>355.1</ele>
        <time>2023-05-28T07:37:11Z</time>
      </trkpt>
      <trkpt lat="43.54158" lon="5.53588">
        <ele>355.2</ele>
        <time>2023-05-28T07:37:12Z</time>
      </trkpt>
      <trkpt lat="43.54159" lon="5.53589">
        <ele>355.2</ele>
        <time>2023-05-28T07:37:13Z</time>
      </trkpt>
      <trkpt lat="43.5416" lon="5.5359">
        <ele>355.2</ele>
        <time>2023-05-28T07:37:14Z</time>
      </trkpt>
      <trkpt lat="43.54161" lon="5.5359">
        <ele>355.2</ele>
        <time>2023-05-28T07:37:15Z</time>
      </trkpt>
      <trkpt lat="43.54162" lon="5.53591">
        <ele>355.3</ele>
        <time>2023-05-28T07:37:16Z</time>
      </trkpt>
      <trkpt lat="43.54163" lon="5.53591">
        <ele>355.3</ele>
        <time>2023-05-28T07:37:17Z</time>
      </trkpt>
      <trkpt lat="43.54163" lon="5.53592">
        <ele>355.2</ele>
        <time>2023-05-28T07:37:18Z</time>
      </trkpt>
      <trkpt lat="43.54164" lon="5.53592">
        <ele>355.2</ele>
        <time>2023-05-28T07:37:19Z</time>
      </trkpt>
      <trkpt lat="43.54164" lon="5.53592">
        <ele>355.2</ele>
        <time>2023-05-28T07:37:20Z</time>
      </trkpt>
      <trkpt lat="43.54164" lon="5.53592">
        <ele>355.2</ele>
        <time>2023-05-28T07:37:21Z</time>
      </trkpt>
      <trkpt lat="43.54164" lon="5.53592">
        <ele>355.2</ele>
        <time>2023-05-28T07:37:22Z</time>
      </trkpt>
      <trkpt lat="43.54164" lon="5.53593">
        <ele>355.3</ele>
        <time>2023-05-28T07:37:23Z</time>
      </trkpt>
      <trkpt lat="43.54164" lon="5.53593">
        <ele>355.2</ele>
        <time>2023-05-28T07:37:24Z</time>
      </trkpt>
      <trkpt lat="43.54164" lon="5.53593">
        <ele>355.2</ele>
        <time>2023-05-28T07:37:25Z</time>
      </trkpt>
      <trkpt lat="43.54164" lon="5.53593">
        <ele>355.2</ele>
        <time>2023-05-28T07:37:26Z</time>
      </trkpt>
      <trkpt lat="43.54164" lon="5.53593">
        <ele>355.2</ele>
        <time>2023-05-28T07:37:27Z</time>
      </trkpt>
      <trkpt lat="43.54164" lon="5.53593">
        <ele>355.2</ele>
        <time>2023-05-28T07:37:28Z</time>
      </trkpt>
      <trkpt lat="43.54164" lon="5.53593">
        <ele>355.2</ele>
        <time>2023-05-28T07:37:29Z</time>
      </trkpt>
      <trkpt lat="43.54164" lon="5.53593">
        <ele>355.1</ele>
        <time>2023-05-28T07:37:30Z</time>
      </trkpt>
      <trkpt lat="43.54164" lon="5.53593">
        <ele>355.1</ele>
        <time>2023-05-28T07:37:31Z</time>
      </trkpt>
      <trkpt lat="43.54164" lon="5.53593">
        <ele>355.1</ele>
        <time>2023-05-28T07:37:32Z</time>
      </trkpt>
      <trkpt lat="43.54164" lon="5.53593">
        <ele>355.1</ele>
        <time>2023-05-28T07:37:33Z</time>
      </trkpt>
      <trkpt lat="43.54164" lon="5.53593">
        <ele>355.1</ele>
        <time>2023-05-28T07:37:34Z</time>
      </trkpt>
      <trkpt lat="43.54164" lon="5.53593">
        <ele>355.2</ele>
        <time>2023-05-28T07:37:35Z</time>
      </trkpt>
      <trkpt lat="43.54164" lon="5.53593">
        <ele>355.1</ele>
        <time>2023-05-28T07:37:36Z</time>
      </trkpt>
      <trkpt lat="43.54164" lon="5.53593">
        <ele>355.1</ele>
        <time>2023-05-28T07:37:37Z</time>
      </trkpt>
      <trkpt lat="43.54165" lon="5.53593">
        <ele>355.2</ele>
        <time>2023-05-28T07:37:38Z</time>
      </trkpt>
      <trkpt lat="43.54165" lon="5.53594">
        <ele>355.1</ele>
        <time>2023-05-28T07:37:39Z</time>
      </trkpt>
      <trkpt lat="43.54165" lon="5.53594">
        <ele>355.1</ele>
        <time>2023-05-28T07:37:40Z</time>
      </trkpt>
      <trkpt lat="43.54165" lon="5.53594">
        <ele>355.1</ele>
        <time>2023-05-28T07:37:41Z</time>
      </trkpt>
      <trkpt lat="43.54165" lon="5.53594">
        <ele>355.1</ele>
        <time>2023-05-28T07:37:42Z</time>
      </trkpt>
      <trkpt lat="43.54166" lon="5.53595">
        <ele>355</ele>
        <time>2023-05-28T07:37:43Z</time>
      </trkpt>
      <trkpt lat="43.54166" lon="5.53595">
        <ele>355</ele>
        <time>2023-05-28T07:37:44Z</time>
      </trkpt>
      <trkpt lat="43.54166" lon="5.53595">
        <ele>354.9</ele>
        <time>2023-05-28T07:37:45Z</time>
      </trkpt>
      <trkpt lat="43.54166" lon="5.53595">
        <ele>354.9</ele>
        <time>2023-05-28T07:37:46Z</time>
      </trkpt>
      <trkpt lat="43.54166" lon="5.53595">
        <ele>354.8</ele>
        <time>2023-05-28T07:37:47Z</time>
      </trkpt>
      <trkpt lat="43.54166" lon="5.53595">
        <ele>354.9</ele>
        <time>2023-05-28T07:37:48Z</time>
      </trkpt>
      <trkpt lat="43.54166" lon="5.53595">
        <ele>354.9</ele>
        <time>2023-05-28T07:37:49Z</time>
      </trkpt>
      <trkpt lat="43.54166" lon="5.53595">
        <ele>354.9</ele>
        <time>2023-05-28T07:37:50Z</time>
      </trkpt>
      <trkpt lat="43.54166" lon="5.53595">
        <ele>354.9</ele>
        <time>2023-05-28T07:37:51Z</time>
      </trkpt>
      <trkpt lat="43.54166" lon="5.53595">
        <ele>354.9</ele>
        <time>2023-05-28T07:37:52Z</time>
      </trkpt>
      <trkpt lat="43.54166" lon="5.53595">
        <ele>354.9</ele>
        <time>2023-05-28T07:37:53Z</time>
      </trkpt>
      <trkpt lat="43.54166" lon="5.53595">
        <ele>354.9</ele>
        <time>2023-05-28T07:37:54Z</time>
      </trkpt>
      <trkpt lat="43.54166" lon="5.53595">
        <ele>354.9</ele>
        <time>2023-05-28T07:37:55Z</time>
      </trkpt>
      <trkpt lat="43.54166" lon="5.53595">
        <ele>354.9</ele>
        <time>2023-05-28T07:37:56Z</time>
      </trkpt>
      <trkpt lat="43.54166" lon="5.53595">
        <ele>354.9</ele>
        <time>2023-05-28T07:37:57Z</time>
      </trkpt>
      <trkpt lat="43.54166" lon="5.53595">
        <ele>355</ele>
        <time>2023-05-28T07:37:58Z</time>
      </trkpt>
      <trkpt lat="43.54166" lon="5.53595">
        <ele>355</ele>
        <time>2023-05-28T07:37:59Z</time>
      </trkpt>
      <trkpt lat="43.54166" lon="5.53594">
        <ele>355.1</ele>
        <time>2023-05-28T07:38:00Z</time>
      </trkpt>
      <trkpt lat="43.54166" lon="5.53594">
        <ele>355.1</ele>
        <time>2023-05-28T07:38:01Z</time>
      </trkpt>
      <trkpt lat="43.54166" lon="5.53594">
        <ele>355.1</ele>
        <time>2023-05-28T07:38:02Z</time>
      </trkpt>
      <trkpt lat="43.54166" lon="5.53594">
        <ele>355</ele>
        <time>2023-05-28T07:38:03Z</time>
      </trkpt>
      <trkpt lat="43.54166" lon="5.53594">
        <ele>354.9</ele>
        <time>2023-05-28T07:38:04Z</time>
      </trkpt>
      <trkpt lat="43.54166" lon="5.53594">
        <ele>354.9</ele>
        <time>2023-05-28T07:38:05Z</time>
      </trkpt>
      <trkpt lat="43.54166" lon="5.53594">
        <ele>354.9</ele>
        <time>2023-05-28T07:38:06Z</time>
      </trkpt>
      <trkpt lat="43.54166" lon="5.53594">
        <ele>354.9</ele>
        <time>2023-05-28T07:38:07Z</time>
      </trkpt>
      <trkpt lat="43.54166" lon="5.53594">
        <ele>354.9</ele>
        <time>2023-05-28T07:38:08Z</time>
      </trkpt>
      <trkpt lat="43.54166" lon="5.53594">
        <ele>354.9</ele>
        <time>2023-05-28T07:38:09Z</time>
      </trkpt>
      <trkpt lat="43.54166" lon="5.53594">
        <ele>354.9</ele>
        <time>2023-05-28T07:38:10Z</time>
      </trkpt>
      <trkpt lat="43.54167" lon="5.53594">
        <ele>355</ele>
        <time>2023-05-28T07:38:11Z</time>
      </trkpt>
      <trkpt lat="43.54167" lon="5.53594">
        <ele>355.1</ele>
        <time>2023-05-28T07:38:12Z</time>
      </trkpt>
      <trkpt lat="43.54167" lon="5.53594">
        <ele>355.1</ele>
        <time>2023-05-28T07:38:13Z</time>
      </trkpt>
      <trkpt lat="43.54167" lon="5.53594">
        <ele>355.1</ele>
        <time>2023-05-28T07:38:14Z</time>
      </trkpt>
      <trkpt lat="43.54167" lon="5.53594">
        <ele>355.1</ele>
        <time>2023-05-28T07:38:15Z</time>
      </trkpt>
      <trkpt lat="43.54168" lon="5.53594">
        <ele>355.1</ele>
        <time>2023-05-28T07:38:16Z</time>
      </trkpt>
      <trkpt lat="43.54168" lon="5.53594">
        <ele>355.2</ele>
        <time>2023-05-28T07:38:17Z</time>
      </trkpt>
      <trkpt lat="43.54168" lon="5.53594">
        <ele>355.2</ele>
        <time>2023-05-28T07:38:18Z</time>
      </trkpt>
      <trkpt lat="43.54168" lon="5.53594">
        <ele>355.2</ele>
        <time>2023-05-28T07:38:19Z</time>
      </trkpt>
      <trkpt lat="43.54168" lon="5.53594">
        <ele>355.2</ele>
        <time>2023-05-28T07:38:20Z</time>
      </trkpt>
      <trkpt lat="43.54168" lon="5.53594">
        <ele>355.1</ele>
        <time>2023-05-28T07:38:21Z</time>
      </trkpt>
      <trkpt lat="43.54168" lon="5.53594">
        <ele>355.1</ele>
        <time>2023-05-28T07:38:22Z</time>
      </trkpt>
      <trkpt lat="43.54167" lon="5.53593">
        <ele>355</ele>
        <time>2023-05-28T07:38:23Z</time>
      </trkpt>
      <trkpt lat="43.54167" lon="5.53593">
        <ele>355</ele>
        <time>2023-05-28T07:38:24Z</time>
      </trkpt>
      <trkpt lat="43.54166" lon="5.53592">
        <ele>355</ele>
        <time>2023-05-28T07:38:25Z</time>
      </trkpt>
      <trkpt lat="43.54166" lon="5.53592">
        <ele>355.1</ele>
        <time>2023-05-28T07:38:26Z</time>
      </trkpt>
      <trkpt lat="43.54166" lon="5.53593">
        <ele>355.1</ele>
        <time>2023-05-28T07:38:27Z</time>
      </trkpt>
      <trkpt lat="43.54166" lon="5.53593">
        <ele>355.1</ele>
        <time>2023-05-28T07:38:28Z</time>
      </trkpt>
      <trkpt lat="43.54166" lon="5.53593">
        <ele>355.1</ele>
        <time>2023-05-28T07:38:29Z</time>
      </trkpt>
      <trkpt lat="43.54166" lon="5.53593">
        <ele>355.1</ele>
        <time>2023-05-28T07:38:30Z</time>
      </trkpt>
      <trkpt lat="43.54165" lon="5.53593">
        <ele>355.2</ele>
        <time>2023-05-28T07:38:31Z</time>
      </trkpt>
      <trkpt lat="43.54165" lon="5.53593">
        <ele>355.2</ele>
        <time>2023-05-28T07:38:32Z</time>
      </trkpt>
      <trkpt lat="43.54165" lon="5.53593">
        <ele>355.2</ele>
        <time>2023-05-28T07:38:33Z</time>
      </trkpt>
      <trkpt lat="43.54165" lon="5.53592">
        <ele>355.1</ele>
        <time>2023-05-28T07:38:34Z</time>
      </trkpt>
      <trkpt lat="43.54165" lon="5.53592">
        <ele>355.1</ele>
        <time>2023-05-28T07:38:35Z</time>
      </trkpt>
      <trkpt lat="43.54165" lon="5.53591">
        <ele>355.1</ele>
        <time>2023-05-28T07:38:36Z</time>
      </trkpt>
      <trkpt lat="43.54165" lon="5.53591">
        <ele>355.1</ele>
        <time>2023-05-28T07:38:37Z</time>
      </trkpt>
      <trkpt lat="43.54164" lon="5.5359">
        <ele>355.1</ele>
        <time>2023-05-28T07:38:38Z</time>
      </trkpt>
      <trkpt lat="43.54163" lon="5.5359">
        <ele>355.2</ele>
        <time>2023-05-28T07:38:39Z</time>
      </trkpt>
      <trkpt lat="43.54163" lon="5.53589">
        <ele>355.3</ele>
        <time>2023-05-28T07:38:40Z</time>
      </trkpt>
      <trkpt lat="43.54162" lon="5.53589">
        <ele>355.3</ele>
        <time>2023-05-28T07:38:41Z</time>
      </trkpt>
      <trkpt lat="43.54162" lon="5.53589">
        <ele>355.3</ele>
        <time>2023-05-28T07:38:42Z</time>
      </trkpt>
      <trkpt lat="43.54161" lon="5.53588">
        <ele>355.4</ele>
        <time>2023-05-28T07:38:43Z</time>
      </trkpt>
      <trkpt lat="43.54161" lon="5.53587">
        <ele>355.3</ele>
        <time>2023-05-28T07:38:44Z</time>
      </trkpt>
      <trkpt lat="43.5416" lon="5.53587">
        <ele>355.2</ele>
        <time>2023-05-28T07:38:45Z</time>
      </trkpt>
      <trkpt lat="43.54159" lon="5.53587">
        <ele>355.2</ele>
        <time>2023-05-28T07:38:46Z</time>
      </trkpt>
      <trkpt lat="43.54159" lon="5.53586">
        <ele>355.1</ele>
        <time>2023-05-28T07:38:47Z</time>
      </trkpt>
      <trkpt lat="43.54158" lon="5.53586">
        <ele>355.1</ele>
        <time>2023-05-28T07:38:48Z</time>
      </trkpt>
      <trkpt lat="43.54157" lon="5.53586">
        <ele>355.1</ele>
        <time>2023-05-28T07:38:49Z</time>
      </trkpt>
      <trkpt lat="43.54157" lon="5.53585">
        <ele>355.1</ele>
        <time>2023-05-28T07:38:50Z</time>
      </trkpt>
      <trkpt lat="43.54156" lon="5.53585">
        <ele>355.2</ele>
        <time>2023-05-28T07:38:51Z</time>
      </trkpt>
      <trkpt lat="43.54155" lon="5.53584">
        <ele>355.3</ele>
        <time>2023-05-28T07:38:52Z</time>
      </trkpt>
      <trkpt lat="43.54154" lon="5.53584">
        <ele>355.3</ele>
        <time>2023-05-28T07:38:53Z</time>
      </trkpt>
      <trkpt lat="43.54154" lon="5.53583">
        <ele>355.3</ele>
        <time>2023-05-28T07:38:54Z</time>
      </trkpt>
      <trkpt lat="43.54153" lon="5.53583">
        <ele>355.4</ele>
        <time>2023-05-28T07:38:55Z</time>
      </trkpt>
      <trkpt lat="43.54153" lon="5.53582">
        <ele>355.4</ele>
        <time>2023-05-28T07:38:56Z</time>
      </trkpt>
      <trkpt lat="43.54152" lon="5.53581">
        <ele>355.4</ele>
        <time>2023-05-28T07:38:57Z</time>
      </trkpt>
      <trkpt lat="43.54151" lon="5.53581">
        <ele>355.3</ele>
        <time>2023-05-28T07:38:58Z</time>
      </trkpt>
      <trkpt lat="43.54151" lon="5.53581">
        <ele>355.3</ele>
        <time>2023-05-28T07:38:59Z</time>
      </trkpt>
      <trkpt lat="43.54151" lon="5.53581">
        <ele>355.2</ele>
        <time>2023-05-28T07:39:00Z</time>
      </trkpt>
      <trkpt lat="43.5415" lon="5.5358">
        <ele>355.2</ele>
        <time>2023-05-28T07:39:01Z</time>
      </trkpt>
      <trkpt lat="43.5415" lon="5.5358">
        <ele>355</ele>
        <time>2023-05-28T07:39:02Z</time>
      </trkpt>
      <trkpt lat="43.5415" lon="5.5358">
        <ele>354.8</ele>
        <time>2023-05-28T07:39:03Z</time>
      </trkpt>
      <trkpt lat="43.54149" lon="5.53579">
        <ele>354.6</ele>
        <time>2023-05-28T07:39:04Z</time>
      </trkpt>
      <trkpt lat="43.54149" lon="5.53578">
        <ele>354.4</ele>
        <time>2023-05-28T07:39:05Z</time>
      </trkpt>
      <trkpt lat="43.54148" lon="5.53577">
        <ele>354.2</ele>
        <time>2023-05-28T07:39:06Z</time>
      </trkpt>
      <trkpt lat="43.54148" lon="5.53576">
        <ele>353.9</ele>
        <time>2023-05-28T07:39:07Z</time>
      </trkpt>
      <trkpt lat="43.54147" lon="5.53576">
        <ele>353.6</ele>
        <time>2023-05-28T07:39:08Z</time>
      </trkpt>
      <trkpt lat="43.54146" lon="5.53576">
        <ele>353.4</ele>
        <time>2023-05-28T07:39:09Z</time>
      </trkpt>
      <trkpt lat="43.54145" lon="5.53576">
        <ele>353.3</ele>
        <time>2023-05-28T07:39:10Z</time>
      </trkpt>
      <trkpt lat="43.54145" lon="5.53576">
        <ele>353.1</ele>
        <time>2023-05-28T07:39:11Z</time>
      </trkpt>
      <trkpt lat="43.54144" lon="5.53577">
        <ele>352.9</ele>
        <time>2023-05-28T07:39:12Z</time>
      </trkpt>
      <trkpt lat="43.54144" lon="5.53578">
        <ele>352.7</ele>
        <time>2023-05-28T07:39:13Z</time>
      </trkpt>
      <trkpt lat="43.54143" lon="5.53579">
        <ele>352.8</ele>
        <time>2023-05-28T07:39:14Z</time>
      </trkpt>
      <trkpt lat="43.54142" lon="5.53579">
        <ele>352.7</ele>
        <time>2023-05-28T07:39:15Z</time>
      </trkpt>
      <trkpt lat="43.54141" lon="5.5358">
        <ele>352.6</ele>
        <time>2023-05-28T07:39:16Z</time>
      </trkpt>
      <trkpt lat="43.5414" lon="5.5358">
        <ele>352.5</ele>
        <time>2023-05-28T07:39:17Z</time>
      </trkpt>
      <trkpt lat="43.54139" lon="5.53581">
        <ele>352.4</ele>
        <time>2023-05-28T07:39:18Z</time>
      </trkpt>
      <trkpt lat="43.54139" lon="5.53582">
        <ele>352.4</ele>
        <time>2023-05-28T07:39:19Z</time>
      </trkpt>
      <trkpt lat="43.54138" lon="5.53583">
        <ele>352.4</ele>
        <time>2023-05-28T07:39:20Z</time>
      </trkpt>
      <trkpt lat="43.54137" lon="5.53584">
        <ele>352.4</ele>
        <time>2023-05-28T07:39:21Z</time>
      </trkpt>
      <trkpt lat="43.54136" lon="5.53584">
        <ele>352.4</ele>
        <time>2023-05-28T07:39:22Z</time>
      </trkpt>
      <trkpt lat="43.54136" lon="5.53585">
        <ele>352.3</ele>
        <time>2023-05-28T07:39:23Z</time>
      </trkpt>
      <trkpt lat="43.54135" lon="5.53586">
        <ele>352.2</ele>
        <time>2023-05-28T07:39:24Z</time>
      </trkpt>
      <trkpt lat="43.54134" lon="5.53587">
        <ele>352.2</ele>
        <time>2023-05-28T07:39:25Z</time>
      </trkpt>
      <trkpt lat="43.54133" lon="5.53588">
        <ele>352.2</ele>
        <time>2023-05-28T07:39:26Z</time>
      </trkpt>
      <trkpt lat="43.54133" lon="5.53589">
        <ele>352.2</ele>
        <time>2023-05-28T07:39:27Z</time>
      </trkpt>
      <trkpt lat="43.54132" lon="5.5359">
        <ele>352.3</ele>
        <time>2023-05-28T07:39:28Z</time>
      </trkpt>
      <trkpt lat="43.54131" lon="5.53591">
        <ele>352.4</ele>
        <time>2023-05-28T07:39:29Z</time>
      </trkpt>
      <trkpt lat="43.54131" lon="5.53592">
        <ele>352.5</ele>
        <time>2023-05-28T07:39:30Z</time>
      </trkpt>
      <trkpt lat="43.5413" lon="5.53592">
        <ele>352.5</ele>
        <time>2023-05-28T07:39:31Z</time>
      </trkpt>
      <trkpt lat="43.54129" lon="5.53593">
        <ele>352.4</ele>
        <time>2023-05-28T07:39:32Z</time>
      </trkpt>
      <trkpt lat="43.54128" lon="5.53594">
        <ele>352.4</ele>
        <time>2023-05-28T07:39:33Z</time>
      </trkpt>
      <trkpt lat="43.54128" lon="5.53595">
        <ele>352.4</ele>
        <time>2023-05-28T07:39:34Z</time>
      </trkpt>
      <trkpt lat="43.54127" lon="5.53596">
        <ele>352.3</ele>
        <time>2023-05-28T07:39:35Z</time>
      </trkpt>
      <trkpt lat="43.54126" lon="5.53597">
        <ele>352.3</ele>
        <time>2023-05-28T07:39:36Z</time>
      </trkpt>
      <trkpt lat="43.54125" lon="5.53598">
        <ele>352.3</ele>
        <time>2023-05-28T07:39:37Z</time>
      </trkpt>
      <trkpt lat="43.54125" lon="5.53599">
        <ele>352.2</ele>
        <time>2023-05-28T07:39:38Z</time>
      </trkpt>
      <trkpt lat="43.54124" lon="5.536">
        <ele>352.2</ele>
        <time>2023-05-28T07:39:39Z</time>
      </trkpt>
      <trkpt lat="43.54123" lon="5.53601">
        <ele>352.1</ele>
        <time>2023-05-28T07:39:40Z</time>
      </trkpt>
      <trkpt lat="43.54123" lon="5.53602">
        <ele>352.1</ele>
        <time>2023-05-28T07:39:41Z</time>
      </trkpt>
      <trkpt lat="43.54122" lon="5.53603">
        <ele>352.1</ele>
        <time>2023-05-28T07:39:42Z</time>
      </trkpt>
      <trkpt lat="43.54121" lon="5.53604">
        <ele>352.2</ele>
        <time>2023-05-28T07:39:43Z</time>
      </trkpt>
      <trkpt lat="43.5412" lon="5.53604">
        <ele>352.2</ele>
        <time>2023-05-28T07:39:44Z</time>
      </trkpt>
      <trkpt lat="43.5412" lon="5.53605">
        <ele>352.3</ele>
        <time>2023-05-28T07:39:45Z</time>
      </trkpt>
      <trkpt lat="43.54119" lon="5.53607">
        <ele>352.3</ele>
        <time>2023-05-28T07:39:46Z</time>
      </trkpt>
      <trkpt lat="43.54118" lon="5.53608">
        <ele>352.3</ele>
        <time>2023-05-28T07:39:47Z</time>
      </trkpt>
      <trkpt lat="43.54117" lon="5.53609">
        <ele>352.3</ele>
        <time>2023-05-28T07:39:48Z</time>
      </trkpt>
      <trkpt lat="43.54116" lon="5.5361">
        <ele>352.4</ele>
        <time>2023-05-28T07:39:49Z</time>
      </trkpt>
      <trkpt lat="43.54116" lon="5.5361">
        <ele>352.5</ele>
        <time>2023-05-28T07:39:50Z</time>
      </trkpt>
      <trkpt lat="43.54115" lon="5.53611">
        <ele>352.5</ele>
        <time>2023-05-28T07:39:51Z</time>
      </trkpt>
      <trkpt lat="43.54114" lon="5.53612">
        <ele>352.5</ele>
        <time>2023-05-28T07:39:52Z</time>
      </trkpt>
      <trkpt lat="43.54113" lon="5.53613">
        <ele>352.5</ele>
        <time>2023-05-28T07:39:53Z</time>
      </trkpt>
      <trkpt lat="43.54112" lon="5.53614">
        <ele>352.5</ele>
        <time>2023-05-28T07:39:54Z</time>
      </trkpt>
      <trkpt lat="43.54112" lon="5.53615">
        <ele>352.5</ele>
        <time>2023-05-28T07:39:55Z</time>
      </trkpt>
      <trkpt lat="43.54111" lon="5.53615">
        <ele>352.6</ele>
        <time>2023-05-28T07:39:56Z</time>
      </trkpt>
      <trkpt lat="43.5411" lon="5.53616">
        <ele>352.5</ele>
        <time>2023-05-28T07:39:57Z</time>
      </trkpt>
      <trkpt lat="43.54109" lon="5.53616">
        <ele>352.4</ele>
        <time>2023-05-28T07:39:58Z</time>
      </trkpt>
      <trkpt lat="43.54108" lon="5.53617">
        <ele>352.4</ele>
        <time>2023-05-28T07:39:59Z</time>
      </trkpt>
      <trkpt lat="43.54108" lon="5.53618">
        <ele>352.3</ele>
        <time>2023-05-28T07:40:00Z</time>
      </trkpt>
      <trkpt lat="43.54107" lon="5.53619">
        <ele>352.3</ele>
        <time>2023-05-28T07:40:01Z</time>
      </trkpt>
      <trkpt lat="43.54106" lon="5.53619">
        <ele>352.3</ele>
        <time>2023-05-28T07:40:02Z</time>
      </trkpt>
      <trkpt lat="43.54105" lon="5.5362">
        <ele>352.3</ele>
        <time>2023-05-28T07:40:03Z</time>
      </trkpt>
      <trkpt lat="43.54104" lon="5.53621">
        <ele>352.3</ele>
        <time>2023-05-28T07:40:04Z</time>
      </trkpt>
      <trkpt lat="43.54104" lon="5.53621">
        <ele>352.3</ele>
        <time>2023-05-28T07:40:05Z</time>
      </trkpt>
      <trkpt lat="43.54103" lon="5.53622">
        <ele>352.4</ele>
        <time>2023-05-28T07:40:06Z</time>
      </trkpt>
      <trkpt lat="43.54102" lon="5.53623">
        <ele>352.4</ele>
        <time>2023-05-28T07:40:07Z</time>
      </trkpt>
      <trkpt lat="43.54101" lon="5.53624">
        <ele>352.4</ele>
        <time>2023-05-28T07:40:08Z</time>
      </trkpt>
      <trkpt lat="43.541" lon="5.53625">
        <ele>352.4</ele>
        <time>2023-05-28T07:40:09Z</time>
      </trkpt>
      <trkpt lat="43.54099" lon="5.53625">
        <ele>352.4</ele>
        <time>2023-05-28T07:40:10Z</time>
      </trkpt>
      <trkpt lat="43.54098" lon="5.53626">
        <ele>352.5</ele>
        <time>2023-05-28T07:40:11Z</time>
      </trkpt>
      <trkpt lat="43.54097" lon="5.53627">
        <ele>352.5</ele>
        <time>2023-05-28T07:40:12Z</time>
      </trkpt>
      <trkpt lat="43.54097" lon="5.53628">
        <ele>352.5</ele>
        <time>2023-05-28T07:40:13Z</time>
      </trkpt>
      <trkpt lat="43.54096" lon="5.53628">
        <ele>352.5</ele>
        <time>2023-05-28T07:40:14Z</time>
      </trkpt>
      <trkpt lat="43.54095" lon="5.53629">
        <ele>352.5</ele>
        <time>2023-05-28T07:40:15Z</time>
      </trkpt>
      <trkpt lat="43.54094" lon="5.5363">
        <ele>352.6</ele>
        <time>2023-05-28T07:40:16Z</time>
      </trkpt>
      <trkpt lat="43.54093" lon="5.53631">
        <ele>352.6</ele>
        <time>2023-05-28T07:40:17Z</time>
      </trkpt>
      <trkpt lat="43.54092" lon="5.53632">
        <ele>352.5</ele>
        <time>2023-05-28T07:40:18Z</time>
      </trkpt>
      <trkpt lat="43.54091" lon="5.53632">
        <ele>352.6</ele>
        <time>2023-05-28T07:40:19Z</time>
      </trkpt>
      <trkpt lat="43.5409" lon="5.53633">
        <ele>352.5</ele>
        <time>2023-05-28T07:40:20Z</time>
      </trkpt>
      <trkpt lat="43.54089" lon="5.53634">
        <ele>352.5</ele>
        <time>2023-05-28T07:40:21Z</time>
      </trkpt>
      <trkpt lat="43.54088" lon="5.53634">
        <ele>352.5</ele>
        <time>2023-05-28T07:40:22Z</time>
      </trkpt>
      <trkpt lat="43.54087" lon="5.53635">
        <ele>352.5</ele>
        <time>2023-05-28T07:40:23Z</time>
      </trkpt>
      <trkpt lat="43.54086" lon="5.53636">
        <ele>352.5</ele>
        <time>2023-05-28T07:40:24Z</time>
      </trkpt>
      <trkpt lat="43.54085" lon="5.53636">
        <ele>352.4</ele>
        <time>2023-05-28T07:40:25Z</time>
      </trkpt>
      <trkpt lat="43.54084" lon="5.53637">
        <ele>352.5</ele>
        <time>2023-05-28T07:40:26Z</time>
      </trkpt>
      <trkpt lat="43.54083" lon="5.53638">
        <ele>352.5</ele>
        <time>2023-05-28T07:40:27Z</time>
      </trkpt>
      <trkpt lat="43.54082" lon="5.53638">
        <ele>352.6</ele>
        <time>2023-05-28T07:40:28Z</time>
      </trkpt>
      <trkpt lat="43.54081" lon="5.53639">
        <ele>352.6</ele>
        <time>2023-05-28T07:40:29Z</time>
      </trkpt>
      <trkpt lat="43.5408" lon="5.53639">
        <ele>352.7</ele>
        <time>2023-05-28T07:40:30Z</time>
      </trkpt>
      <trkpt lat="43.54079" lon="5.5364">
        <ele>352.6</ele>
        <time>2023-05-28T07:40:31Z</time>
      </trkpt>
      <trkpt lat="43.54078" lon="5.5364">
        <ele>352.6</ele>
        <time>2023-05-28T07:40:32Z</time>
      </trkpt>
      <trkpt lat="43.54077" lon="5.53641">
        <ele>352.5</ele>
        <time>2023-05-28T07:40:33Z</time>
      </trkpt>
      <trkpt lat="43.54076" lon="5.53641">
        <ele>352.5</ele>
        <time>2023-05-28T07:40:34Z</time>
      </trkpt>
      <trkpt lat="43.54075" lon="5.53642">
        <ele>352.5</ele>
        <time>2023-05-28T07:40:35Z</time>
      </trkpt>
      <trkpt lat="43.54074" lon="5.53642">
        <ele>352.4</ele>
        <time>2023-05-28T07:40:36Z</time>
      </trkpt>
      <trkpt lat="43.54073" lon="5.53642">
        <ele>352.4</ele>
        <time>2023-05-28T07:40:37Z</time>
      </trkpt>
      <trkpt lat="43.54072" lon="5.53643">
        <ele>352.4</ele>
        <time>2023-05-28T07:40:38Z</time>
      </trkpt>
      <trkpt lat="43.54071" lon="5.53643">
        <ele>352.3</ele>
        <time>2023-05-28T07:40:39Z</time>
      </trkpt>
      <trkpt lat="43.5407" lon="5.53644">
        <ele>352.3</ele>
        <time>2023-05-28T07:40:40Z</time>
      </trkpt>
      <trkpt lat="43.54069" lon="5.53644">
        <ele>352.3</ele>
        <time>2023-05-28T07:40:41Z</time>
      </trkpt>
      <trkpt lat="43.54068" lon="5.53645">
        <ele>352.3</ele>
        <time>2023-05-28T07:40:42Z</time>
      </trkpt>
      <trkpt lat="43.54067" lon="5.53645">
        <ele>352.3</ele>
        <time>2023-05-28T07:40:43Z</time>
      </trkpt>
      <trkpt lat="43.54066" lon="5.53645">
        <ele>352.3</ele>
        <time>2023-05-28T07:40:44Z</time>
      </trkpt>
      <trkpt lat="43.54065" lon="5.53646">
        <ele>352.4</ele>
        <time>2023-05-28T07:40:45Z</time>
      </trkpt>
      <trkpt lat="43.54064" lon="5.53646">
        <ele>352.5</ele>
        <time>2023-05-28T07:40:46Z</time>
      </trkpt>
      <trkpt lat="43.54063" lon="5.53646">
        <ele>352.5</ele>
        <time>2023-05-28T07:40:47Z</time>
      </trkpt>
      <trkpt lat="43.54062" lon="5.53647">
        <ele>352.6</ele>
        <time>2023-05-28T07:40:48Z</time>
      </trkpt>
      <trkpt lat="43.54061" lon="5.53647">
        <ele>352.7</ele>
        <time>2023-05-28T07:40:49Z</time>
      </trkpt>
      <trkpt lat="43.54059" lon="5.53647">
        <ele>352.6</ele>
        <time>2023-05-28T07:40:50Z</time>
      </trkpt>
      <trkpt lat="43.54058" lon="5.53648">
        <ele>352.6</ele>
        <time>2023-05-28T07:40:51Z</time>
      </trkpt>
      <trkpt lat="43.54057" lon="5.53648">
        <ele>352.6</ele>
        <time>2023-05-28T07:40:52Z</time>
      </trkpt>
      <trkpt lat="43.54056" lon="5.53648">
        <ele>352.5</ele>
        <time>2023-05-28T07:40:53Z</time>
      </trkpt>
      <trkpt lat="43.54055" lon="5.53648">
        <ele>352.5</ele>
        <time>2023-05-28T07:40:54Z</time>
      </trkpt>
      <trkpt lat="43.54054" lon="5.53649">
        <ele>352.5</ele>
        <time>2023-05-28T07:40:55Z</time>
      </trkpt>
      <trkpt lat="43.54054" lon="5.5365">
        <ele>352.5</ele>
        <time>2023-05-28T07:40:56Z</time>
      </trkpt>
      <trkpt lat="43.54053" lon="5.53651">
        <ele>352.5</ele>
        <time>2023-05-28T07:40:57Z</time>
      </trkpt>
      <trkpt lat="43.54052" lon="5.53652">
        <ele>352.5</ele>
        <time>2023-05-28T07:40:58Z</time>
      </trkpt>
      <trkpt lat="43.54051" lon="5.53653">
        <ele>352.5</ele>
        <time>2023-05-28T07:40:59Z</time>
      </trkpt>
      <trkpt lat="43.5405" lon="5.53653">
        <ele>352.4</ele>
        <time>2023-05-28T07:41:00Z</time>
      </trkpt>
      <trkpt lat="43.54049" lon="5.53653">
        <ele>352.4</ele>
        <time>2023-05-28T07:41:01Z</time>
      </trkpt>
      <trkpt lat="43.54048" lon="5.53653">
        <ele>352.4</ele>
        <time>2023-05-28T07:41:02Z</time>
      </trkpt>
      <trkpt lat="43.54046" lon="5.53653">
        <ele>352.4</ele>
        <time>2023-05-28T07:41:03Z</time>
      </trkpt>
      <trkpt lat="43.54045" lon="5.53653">
        <ele>352.4</ele>
        <time>2023-05-28T07:41:04Z</time>
      </trkpt>
      <trkpt lat="43.54044" lon="5.53653">
        <ele>352.4</ele>
        <time>2023-05-28T07:41:05Z</time>
      </trkpt>
      <trkpt lat="43.54043" lon="5.53653">
        <ele>352.4</ele>
        <time>2023-05-28T07:41:06Z</time>
      </trkpt>
      <trkpt lat="43.54041" lon="5.53653">
        <ele>352.4</ele>
        <time>2023-05-28T07:41:07Z</time>
      </trkpt>
      <trkpt lat="43.5404" lon="5.53653">
        <ele>352.5</ele>
        <time>2023-05-28T07:41:08Z</time>
      </trkpt>
      <trkpt lat="43.54039" lon="5.53653">
        <ele>352.4</ele>
        <time>2023-05-28T07:41:09Z</time>
      </trkpt>
      <trkpt lat="43.54037" lon="5.53653">
        <ele>352.3</ele>
        <time>2023-05-28T07:41:10Z</time>
      </trkpt>
      <trkpt lat="43.54036" lon="5.53653">
        <ele>352.3</ele>
        <time>2023-05-28T07:41:11Z</time>
      </trkpt>
      <trkpt lat="43.54035" lon="5.53652">
        <ele>352.2</ele>
        <time>2023-05-28T07:41:12Z</time>
      </trkpt>
      <trkpt lat="43.54034" lon="5.53652">
        <ele>352.2</ele>
        <time>2023-05-28T07:41:13Z</time>
      </trkpt>
      <trkpt lat="43.54032" lon="5.53652">
        <ele>352.2</ele>
        <time>2023-05-28T07:41:14Z</time>
      </trkpt>
      <trkpt lat="43.54031" lon="5.53652">
        <ele>352.2</ele>
        <time>2023-05-28T07:41:15Z</time>
      </trkpt>
      <trkpt lat="43.5403" lon="5.53652">
        <ele>352.1</ele>
        <time>2023-05-28T07:41:16Z</time>
      </trkpt>
      <trkpt lat="43.54029" lon="5.53651">
        <ele>352.2</ele>
        <time>2023-05-28T07:41:17Z</time>
      </trkpt>
      <trkpt lat="43.54027" lon="5.53651">
        <ele>352.2</ele>
        <time>2023-05-28T07:41:18Z</time>
      </trkpt>
      <trkpt lat="43.54026" lon="5.53651">
        <ele>352.2</ele>
        <time>2023-05-28T07:41:19Z</time>
      </trkpt>
      <trkpt lat="43.54025" lon="5.53651">
        <ele>352.2</ele>
        <time>2023-05-28T07:41:20Z</time>
      </trkpt>
      <trkpt lat="43.54024" lon="5.53651">
        <ele>352.1</ele>
        <time>2023-05-28T07:41:21Z</time>
      </trkpt>
      <trkpt lat="43.54023" lon="5.53651">
        <ele>352.1</ele>
        <time>2023-05-28T07:41:22Z</time>
      </trkpt>
      <trkpt lat="43.54022" lon="5.5365">
        <ele>352.2</ele>
        <time>2023-05-28T07:41:23Z</time>
      </trkpt>
      <trkpt lat="43.54021" lon="5.53651">
        <ele>352.1</ele>
        <time>2023-05-28T07:41:24Z</time>
      </trkpt>
      <trkpt lat="43.5402" lon="5.53651">
        <ele>352</ele>
        <time>2023-05-28T07:41:25Z</time>
      </trkpt>
      <trkpt lat="43.54018" lon="5.53651">
        <ele>352.1</ele>
        <time>2023-05-28T07:41:26Z</time>
      </trkpt>
      <trkpt lat="43.54017" lon="5.53651">
        <ele>352.2</ele>
        <time>2023-05-28T07:41:27Z</time>
      </trkpt>
      <trkpt lat="43.54016" lon="5.5365">
        <ele>352.2</ele>
        <time>2023-05-28T07:41:28Z</time>
      </trkpt>
      <trkpt lat="43.54015" lon="5.5365">
        <ele>352.2</ele>
        <time>2023-05-28T07:41:29Z</time>
      </trkpt>
      <trkpt lat="43.54013" lon="5.5365">
        <ele>352.2</ele>
        <time>2023-05-28T07:41:30Z</time>
      </trkpt>
      <trkpt lat="43.54012" lon="5.53649">
        <ele>352.2</ele>
        <time>2023-05-28T07:41:31Z</time>
      </trkpt>
      <trkpt lat="43.54011" lon="5.53649">
        <ele>352.2</ele>
        <time>2023-05-28T07:41:32Z</time>
      </trkpt>
      <trkpt lat="43.5401" lon="5.53649">
        <ele>352.2</ele>
        <time>2023-05-28T07:41:33Z</time>
      </trkpt>
      <trkpt lat="43.54009" lon="5.53649">
        <ele>352.1</ele>
        <time>2023-05-28T07:41:34Z</time>
      </trkpt>
      <trkpt lat="43.54008" lon="5.53649">
        <ele>352.1</ele>
        <time>2023-05-28T07:41:35Z</time>
      </trkpt>
      <trkpt lat="43.54007" lon="5.53649">
        <ele>352.1</ele>
        <time>2023-05-28T07:41:36Z</time>
      </trkpt>
      <trkpt lat="43.54006" lon="5.53649">
        <ele>352</ele>
        <time>2023-05-28T07:41:37Z</time>
      </trkpt>
      <trkpt lat="43.54004" lon="5.53648">
        <ele>352.1</ele>
        <time>2023-05-28T07:41:38Z</time>
      </trkpt>
      <trkpt lat="43.54004" lon="5.53648">
        <ele>352.2</ele>
        <time>2023-05-28T07:41:39Z</time>
      </trkpt>
      <trkpt lat="43.54004" lon="5.53649">
        <ele>352.2</ele>
        <time>2023-05-28T07:41:40Z</time>
      </trkpt>
      <trkpt lat="43.54004" lon="5.53649">
        <ele>352.3</ele>
        <time>2023-05-28T07:41:41Z</time>
      </trkpt>
      <trkpt lat="43.54004" lon="5.53649">
        <ele>352.3</ele>
        <time>2023-05-28T07:41:42Z</time>
      </trkpt>
      <trkpt lat="43.54004" lon="5.53649">
        <ele>352.3</ele>
        <time>2023-05-28T07:41:43Z</time>
      </trkpt>
      <trkpt lat="43.54004" lon="5.53649">
        <ele>352.3</ele>
        <time>2023-05-28T07:41:44Z</time>
      </trkpt>
      <trkpt lat="43.54004" lon="5.53649">
        <ele>352.3</ele>
        <time>2023-05-28T07:41:45Z</time>
      </trkpt>
      <trkpt lat="43.54004" lon="5.53649">
        <ele>352.2</ele>
        <time>2023-05-28T07:41:46Z</time>
      </trkpt>
      <trkpt lat="43.54003" lon="5.53649">
        <ele>352.2</ele>
        <time>2023-05-28T07:41:47Z</time>
      </trkpt>
      <trkpt lat="43.54003" lon="5.53649">
        <ele>352.2</ele>
        <time>2023-05-28T07:41:48Z</time>
      </trkpt>
      <trkpt lat="43.54003" lon="5.53649">
        <ele>352.1</ele>
        <time>2023-05-28T07:41:49Z</time>
      </trkpt>
      <trkpt lat="43.54003" lon="5.53649">
        <ele>352.2</ele>
        <time>2023-05-28T07:41:50Z</time>
      </trkpt>
      <trkpt lat="43.54003" lon="5.53649">
        <ele>352.2</ele>
        <time>2023-05-28T07:41:51Z</time>
      </trkpt>
      <trkpt lat="43.54003" lon="5.53649">
        <ele>352.2</ele>
        <time>2023-05-28T07:41:52Z</time>
      </trkpt>
      <trkpt lat="43.54003" lon="5.53649">
        <ele>352.3</ele>
        <time>2023-05-28T07:41:53Z</time>
      </trkpt>
      <trkpt lat="43.54003" lon="5.53649">
        <ele>352.3</ele>
        <time>2023-05-28T07:41:54Z</time>
      </trkpt>
      <trkpt lat="43.54003" lon="5.53649">
        <ele>352.2</ele>
        <time>2023-05-28T07:41:55Z</time>
      </trkpt>
      <trkpt lat="43.54002" lon="5.53649">
        <ele>352.3</ele>
        <time>2023-05-28T07:41:56Z</time>
      </trkpt>
      <trkpt lat="43.54002" lon="5.53649">
        <ele>352.2</ele>
        <time>2023-05-28T07:41:57Z</time>
      </trkpt>
      <trkpt lat="43.54002" lon="5.5365">
        <ele>352.3</ele>
        <time>2023-05-28T07:41:58Z</time>
      </trkpt>
      <trkpt lat="43.54002" lon="5.53649">
        <ele>352.3</ele>
        <time>2023-05-28T07:41:59Z</time>
      </trkpt>
      <trkpt lat="43.54002" lon="5.53649">
        <ele>352.3</ele>
        <time>2023-05-28T07:42:00Z</time>
      </trkpt>
      <trkpt lat="43.54003" lon="5.53649">
        <ele>352.3</ele>
        <time>2023-05-28T07:42:01Z</time>
      </trkpt>
      <trkpt lat="43.54003" lon="5.53649">
        <ele>352.2</ele>
        <time>2023-05-28T07:42:02Z</time>
      </trkpt>
      <trkpt lat="43.54003" lon="5.53649">
        <ele>352.2</ele>
        <time>2023-05-28T07:42:03Z</time>
      </trkpt>
      <trkpt lat="43.54003" lon="5.53649">
        <ele>352.2</ele>
        <time>2023-05-28T07:42:04Z</time>
      </trkpt>
      <trkpt lat="43.54003" lon="5.53648">
        <ele>352.3</ele>
        <time>2023-05-28T07:42:05Z</time>
      </trkpt>
      <trkpt lat="43.54002" lon="5.53648">
        <ele>352.2</ele>
        <time>2023-05-28T07:42:06Z</time>
      </trkpt>
      <trkpt lat="43.54001" lon="5.53648">
        <ele>352.2</ele>
        <time>2023-05-28T07:42:07Z</time>
      </trkpt>
      <trkpt lat="43.54001" lon="5.53647">
        <ele>352.3</ele>
        <time>2023-05-28T07:42:08Z</time>
      </trkpt>
      <trkpt lat="43.54001" lon="5.53647">
        <ele>352.2</ele>
        <time>2023-05-28T07:42:09Z</time>
      </trkpt>
      <trkpt lat="43.54001" lon="5.53647">
        <ele>352.3</ele>
        <time>2023-05-28T07:42:10Z</time>
      </trkpt>
      <trkpt lat="43.54001" lon="5.53647">
        <ele>352.3</ele>
        <time>2023-05-28T07:42:11Z</time>
      </trkpt>
      <trkpt lat="43.54001" lon="5.53648">
        <ele>352.3</ele>
        <time>2023-05-28T07:42:12Z</time>
      </trkpt>
      <trkpt lat="43.54001" lon="5.53648">
        <ele>352.2</ele>
        <time>2023-05-28T07:42:13Z</time>
      </trkpt>
      <trkpt lat="43.54001" lon="5.53648">
        <ele>352.3</ele>
        <time>2023-05-28T07:42:14Z</time>
      </trkpt>
      <trkpt lat="43.54001" lon="5.53648">
        <ele>352.3</ele>
        <time>2023-05-28T07:42:15Z</time>
      </trkpt>
      <trkpt lat="43.54001" lon="5.53648">
        <ele>352.3</ele>
        <time>2023-05-28T07:42:16Z</time>
      </trkpt>
      <trkpt lat="43.54001" lon="5.53648">
        <ele>352.3</ele>
        <time>2023-05-28T07:42:17Z</time>
      </trkpt>
      <trkpt lat="43.54001" lon="5.53648">
        <ele>352.4</ele>
        <time>2023-05-28T07:42:18Z</time>
      </trkpt>
      <trkpt lat="43.54001" lon="5.53648">
        <ele>352.4</ele>
        <time>2023-05-28T07:42:19Z</time>
      </trkpt>
      <trkpt lat="43.54001" lon="5.53648">
        <ele>352.4</ele>
        <time>2023-05-28T07:42:20Z</time>
      </trkpt>
      <trkpt lat="43.54001" lon="5.53648">
        <ele>352.5</ele>
        <time>2023-05-28T07:42:21Z</time>
      </trkpt>
      <trkpt lat="43.54001" lon="5.53648">
        <ele>352.5</ele>
        <time>2023-05-28T07:42:22Z</time>
      </trkpt>
      <trkpt lat="43.54001" lon="5.53648">
        <ele>352.5</ele>
        <time>2023-05-28T07:42:23Z</time>
      </trkpt>
      <trkpt lat="43.54001" lon="5.53648">
        <ele>352.5</ele>
        <time>2023-05-28T07:42:24Z</time>
      </trkpt>
      <trkpt lat="43.54001" lon="5.53648">
        <ele>352.5</ele>
        <time>2023-05-28T07:42:25Z</time>
      </trkpt>
      <trkpt lat="43.54002" lon="5.53648">
        <ele>352.5</ele>
        <time>2023-05-28T07:42:26Z</time>
      </trkpt>
      <trkpt lat="43.54001" lon="5.53648">
        <ele>352.5</ele>
        <time>2023-05-28T07:42:27Z</time>
      </trkpt>
      <trkpt lat="43.54001" lon="5.53648">
        <ele>352.6</ele>
        <time>2023-05-28T07:42:28Z</time>
      </trkpt>
      <trkpt lat="43.54001" lon="5.53647">
        <ele>352.6</ele>
        <time>2023-05-28T07:42:29Z</time>
      </trkpt>
      <trkpt lat="43.54001" lon="5.53647">
        <ele>352.6</ele>
        <time>2023-05-28T07:42:30Z</time>
      </trkpt>
      <trkpt lat="43.54001" lon="5.53647">
        <ele>352.6</ele>
        <time>2023-05-28T07:42:31Z</time>
      </trkpt>
      <trkpt lat="43.54001" lon="5.53647">
        <ele>352.6</ele>
        <time>2023-05-28T07:42:32Z</time>
      </trkpt>
      <trkpt lat="43.54001" lon="5.53647">
        <ele>352.5</ele>
        <time>2023-05-28T07:42:33Z</time>
      </trkpt>
      <trkpt lat="43.54001" lon="5.53647">
        <ele>352.5</ele>
        <time>2023-05-28T07:42:34Z</time>
      </trkpt>
      <trkpt lat="43.54001" lon="5.53647">
        <ele>352.4</ele>
        <time>2023-05-28T07:42:35Z</time>
      </trkpt>
      <trkpt lat="43.54001" lon="5.53647">
        <ele>352.4</ele>
        <time>2023-05-28T07:42:36Z</time>
      </trkpt>
      <trkpt lat="43.54001" lon="5.53647">
        <ele>352.3</ele>
        <time>2023-05-28T07:42:37Z</time>
      </trkpt>
      <trkpt lat="43.54001" lon="5.53647">
        <ele>352.3</ele>
        <time>2023-05-28T07:42:38Z</time>
      </trkpt>
      <trkpt lat="43.54001" lon="5.53647">
        <ele>352.3</ele>
        <time>2023-05-28T07:42:39Z</time>
      </trkpt>
      <trkpt lat="43.54001" lon="5.53647">
        <ele>352.3</ele>
        <time>2023-05-28T07:42:40Z</time>
      </trkpt>
      <trkpt lat="43.54001" lon="5.53647">
        <ele>352.4</ele>
        <time>2023-05-28T07:42:41Z</time>
      </trkpt>
      <trkpt lat="43.54001" lon="5.53647">
        <ele>352.4</ele>
        <time>2023-05-28T07:42:42Z</time>
      </trkpt>
      <trkpt lat="43.54001" lon="5.53647">
        <ele>352.5</ele>
        <time>2023-05-28T07:42:43Z</time>
      </trkpt>
      <trkpt lat="43.54001" lon="5.53647">
        <ele>352.5</ele>
        <time>2023-05-28T07:42:44Z</time>
      </trkpt>
      <trkpt lat="43.54001" lon="5.53647">
        <ele>352.5</ele>
        <time>2023-05-28T07:42:45Z</time>
      </trkpt>
      <trkpt lat="43.54001" lon="5.53647">
        <ele>352.5</ele>
        <time>2023-05-28T07:42:46Z</time>
      </trkpt>
      <trkpt lat="43.54001" lon="5.53647">
        <ele>352.5</ele>
        <time>2023-05-28T07:42:47Z</time>
      </trkpt>
      <trkpt lat="43.54001" lon="5.53647">
        <ele>352.6</ele>
        <time>2023-05-28T07:42:48Z</time>
      </trkpt>
      <trkpt lat="43.54001" lon="5.53647">
        <ele>352.5</ele>
        <time>2023-05-28T07:42:49Z</time>
      </trkpt>
      <trkpt lat="43.54" lon="5.53647">
        <ele>352.5</ele>
        <time>2023-05-28T07:42:50Z</time>
      </trkpt>
      <trkpt lat="43.53999" lon="5.53647">
        <ele>352.5</ele>
        <time>2023-05-28T07:42:51Z</time>
      </trkpt>
      <trkpt lat="43.53998" lon="5.53646">
        <ele>352.5</ele>
        <time>2023-05-28T07:42:52Z</time>
      </trkpt>
      <trkpt lat="43.53997" lon="5.53645">
        <ele>352.5</ele>
        <time>2023-05-28T07:42:53Z</time>
      </trkpt>
      <trkpt lat="43.53996" lon="5.53645">
        <ele>352.5</ele>
        <time>2023-05-28T07:42:54Z</time>
      </trkpt>
      <trkpt lat="43.53995" lon="5.53645">
        <ele>352.5</ele>
        <time>2023-05-28T07:42:55Z</time>
      </trkpt>
      <trkpt lat="43.53994" lon="5.53644">
        <ele>352.5</ele>
        <time>2023-05-28T07:42:56Z</time>
      </trkpt>
      <trkpt lat="43.53993" lon="5.53644">
        <ele>352.5</ele>
        <time>2023-05-28T07:42:57Z</time>
      </trkpt>
      <trkpt lat="43.53992" lon="5.53643">
        <ele>352.5</ele>
        <time>2023-05-28T07:42:58Z</time>
      </trkpt>
      <trkpt lat="43.53991" lon="5.53643">
        <ele>352.5</ele>
        <time>2023-05-28T07:42:59Z</time>
      </trkpt>
      <trkpt lat="43.5399" lon="5.53642">
        <ele>352.5</ele>
        <time>2023-05-28T07:43:00Z</time>
      </trkpt>
      <trkpt lat="43.53989" lon="5.53641">
        <ele>352.6</ele>
        <time>2023-05-28T07:43:01Z</time>
      </trkpt>
      <trkpt lat="43.53987" lon="5.53641">
        <ele>352.6</ele>
        <time>2023-05-28T07:43:02Z</time>
      </trkpt>
      <trkpt lat="43.53987" lon="5.5364">
        <ele>352.5</ele>
        <time>2023-05-28T07:43:03Z</time>
      </trkpt>
      <trkpt lat="43.53986" lon="5.53639">
        <ele>352.5</ele>
        <time>2023-05-28T07:43:04Z</time>
      </trkpt>
      <trkpt lat="43.53985" lon="5.53639">
        <ele>352.5</ele>
        <time>2023-05-28T07:43:05Z</time>
      </trkpt>
      <trkpt lat="43.53984" lon="5.53638">
        <ele>352.5</ele>
        <time>2023-05-28T07:43:06Z</time>
      </trkpt>
      <trkpt lat="43.53983" lon="5.53638">
        <ele>352.5</ele>
        <time>2023-05-28T07:43:07Z</time>
      </trkpt>
      <trkpt lat="43.53982" lon="5.53638">
        <ele>352.5</ele>
        <time>2023-05-28T07:43:08Z</time>
      </trkpt>
      <trkpt lat="43.53981" lon="5.53637">
        <ele>352.5</ele>
        <time>2023-05-28T07:43:09Z</time>
      </trkpt>
      <trkpt lat="43.5398" lon="5.53636">
        <ele>352.5</ele>
        <time>2023-05-28T07:43:10Z</time>
      </trkpt>
      <trkpt lat="43.5398" lon="5.53636">
        <ele>352.5</ele>
        <time>2023-05-28T07:43:11Z</time>
      </trkpt>
      <trkpt lat="43.53979" lon="5.53635">
        <ele>352.5</ele>
        <time>2023-05-28T07:43:12Z</time>
      </trkpt>
      <trkpt lat="43.53978" lon="5.53634">
        <ele>352.6</ele>
        <time>2023-05-28T07:43:13Z</time>
      </trkpt>
      <trkpt lat="43.53978" lon="5.53633">
        <ele>352.6</ele>
        <time>2023-05-28T07:43:14Z</time>
      </trkpt>
      <trkpt lat="43.53977" lon="5.53632">
        <ele>352.6</ele>
        <time>2023-05-28T07:43:15Z</time>
      </trkpt>
      <trkpt lat="43.53976" lon="5.53631">
        <ele>352.6</ele>
        <time>2023-05-28T07:43:16Z</time>
      </trkpt>
      <trkpt lat="43.53975" lon="5.53631">
        <ele>352.6</ele>
        <time>2023-05-28T07:43:17Z</time>
      </trkpt>
      <trkpt lat="43.53974" lon="5.5363">
        <ele>352.5</ele>
        <time>2023-05-28T07:43:18Z</time>
      </trkpt>
      <trkpt lat="43.53973" lon="5.5363">
        <ele>352.4</ele>
        <time>2023-05-28T07:43:19Z</time>
      </trkpt>
      <trkpt lat="43.53972" lon="5.53629">
        <ele>352.4</ele>
        <time>2023-05-28T07:43:20Z</time>
      </trkpt>
      <trkpt lat="43.53971" lon="5.53628">
        <ele>352.3</ele>
        <time>2023-05-28T07:43:21Z</time>
      </trkpt>
      <trkpt lat="43.5397" lon="5.53628">
        <ele>352.3</ele>
        <time>2023-05-28T07:43:22Z</time>
      </trkpt>
      <trkpt lat="43.5397" lon="5.53627">
        <ele>352.3</ele>
        <time>2023-05-28T07:43:23Z</time>
      </trkpt>
      <trkpt lat="43.53969" lon="5.53626">
        <ele>352.3</ele>
        <time>2023-05-28T07:43:24Z</time>
      </trkpt>
      <trkpt lat="43.53968" lon="5.53625">
        <ele>352.3</ele>
        <time>2023-05-28T07:43:25Z</time>
      </trkpt>
      <trkpt lat="43.53967" lon="5.53625">
        <ele>352.3</ele>
        <time>2023-05-28T07:43:26Z</time>
      </trkpt>
      <trkpt lat="43.53966" lon="5.53624">
        <ele>352.3</ele>
        <time>2023-05-28T07:43:27Z</time>
      </trkpt>
      <trkpt lat="43.53965" lon="5.53624">
        <ele>352.4</ele>
        <time>2023-05-28T07:43:28Z</time>
      </trkpt>
      <trkpt lat="43.53964" lon="5.53623">
        <ele>352.4</ele>
        <time>2023-05-28T07:43:29Z</time>
      </trkpt>
      <trkpt lat="43.53963" lon="5.53623">
        <ele>352.5</ele>
        <time>2023-05-28T07:43:30Z</time>
      </trkpt>
      <trkpt lat="43.53962" lon="5.53622">
        <ele>352.4</ele>
        <time>2023-05-28T07:43:31Z</time>
      </trkpt>
      <trkpt lat="43.53961" lon="5.53621">
        <ele>352.5</ele>
        <time>2023-05-28T07:43:32Z</time>
      </trkpt>
      <trkpt lat="43.5396" lon="5.5362">
        <ele>352.5</ele>
        <time>2023-05-28T07:43:33Z</time>
      </trkpt>
      <trkpt lat="43.53959" lon="5.53619">
        <ele>352.6</ele>
        <time>2023-05-28T07:43:34Z</time>
      </trkpt>
      <trkpt lat="43.53958" lon="5.53618">
        <ele>352.6</ele>
        <time>2023-05-28T07:43:35Z</time>
      </trkpt>
      <trkpt lat="43.53957" lon="5.53617">
        <ele>352.6</ele>
        <time>2023-05-28T07:43:36Z</time>
      </trkpt>
      <trkpt lat="43.53957" lon="5.53616">
        <ele>352.6</ele>
        <time>2023-05-28T07:43:37Z</time>
      </trkpt>
      <trkpt lat="43.53956" lon="5.53615">
        <ele>352.6</ele>
        <time>2023-05-28T07:43:38Z</time>
      </trkpt>
      <trkpt lat="43.53955" lon="5.53615">
        <ele>352.6</ele>
        <time>2023-05-28T07:43:39Z</time>
      </trkpt>
      <trkpt lat="43.53953" lon="5.53614">
        <ele>352.5</ele>
        <time>2023-05-28T07:43:40Z</time>
      </trkpt>
      <trkpt lat="43.53952" lon="5.53613">
        <ele>352.5</ele>
        <time>2023-05-28T07:43:41Z</time>
      </trkpt>
      <trkpt lat="43.53951" lon="5.53612">
        <ele>352.4</ele>
        <time>2023-05-28T07:43:42Z</time>
      </trkpt>
      <trkpt lat="43.5395" lon="5.53611">
        <ele>352.4</ele>
        <time>2023-05-28T07:43:43Z</time>
      </trkpt>
      <trkpt lat="43.53949" lon="5.5361">
        <ele>352.4</ele>
        <time>2023-05-28T07:43:44Z</time>
      </trkpt>
      <trkpt lat="43.53948" lon="5.53609">
        <ele>352.4</ele>
        <time>2023-05-28T07:43:45Z</time>
      </trkpt>
      <trkpt lat="43.53947" lon="5.53608">
        <ele>352.4</ele>
        <time>2023-05-28T07:43:46Z</time>
      </trkpt>
      <trkpt lat="43.53945" lon="5.53608">
        <ele>352.4</ele>
        <time>2023-05-28T07:43:47Z</time>
      </trkpt>
      <trkpt lat="43.53944" lon="5.53607">
        <ele>352.5</ele>
        <time>2023-05-28T07:43:48Z</time>
      </trkpt>
      <trkpt lat="43.53943" lon="5.53607">
        <ele>352.7</ele>
        <time>2023-05-28T07:43:49Z</time>
      </trkpt>
      <trkpt lat="43.53941" lon="5.53607">
        <ele>352.7</ele>
        <time>2023-05-28T07:43:50Z</time>
      </trkpt>
      <trkpt lat="43.53941" lon="5.53608">
        <ele>352.7</ele>
        <time>2023-05-28T07:43:51Z</time>
      </trkpt>
      <trkpt lat="43.53941" lon="5.53608">
        <ele>352.7</ele>
        <time>2023-05-28T07:43:52Z</time>
      </trkpt>
      <trkpt lat="43.53941" lon="5.53608">
        <ele>352.6</ele>
        <time>2023-05-28T07:43:53Z</time>
      </trkpt>
      <trkpt lat="43.53941" lon="5.53609">
        <ele>352.6</ele>
        <time>2023-05-28T07:43:54Z</time>
      </trkpt>
      <trkpt lat="43.53941" lon="5.5361">
        <ele>352.5</ele>
        <time>2023-05-28T07:43:55Z</time>
      </trkpt>
      <trkpt lat="43.53942" lon="5.53611">
        <ele>352.5</ele>
        <time>2023-05-28T07:43:56Z</time>
      </trkpt>
      <trkpt lat="43.53943" lon="5.53612">
        <ele>352.4</ele>
        <time>2023-05-28T07:43:57Z</time>
      </trkpt>
      <trkpt lat="43.53944" lon="5.53612">
        <ele>352.4</ele>
        <time>2023-05-28T07:43:58Z</time>
      </trkpt>
      <trkpt lat="43.53945" lon="5.53613">
        <ele>352.3</ele>
        <time>2023-05-28T07:43:59Z</time>
      </trkpt>
      <trkpt lat="43.53946" lon="5.53613">
        <ele>352.3</ele>
        <time>2023-05-28T07:44:00Z</time>
      </trkpt>
      <trkpt lat="43.53946" lon="5.53614">
        <ele>352.2</ele>
        <time>2023-05-28T07:44:01Z</time>
      </trkpt>
      <trkpt lat="43.53946" lon="5.53616">
        <ele>352.1</ele>
        <time>2023-05-28T07:44:02Z</time>
      </trkpt>
      <trkpt lat="43.53946" lon="5.53616">
        <ele>352.1</ele>
        <time>2023-05-28T07:44:03Z</time>
      </trkpt>
      <trkpt lat="43.53946" lon="5.53617">
        <ele>352</ele>
        <time>2023-05-28T07:44:04Z</time>
      </trkpt>
      <trkpt lat="43.53946" lon="5.53618">
        <ele>352</ele>
        <time>2023-05-28T07:44:05Z</time>
      </trkpt>
      <trkpt lat="43.53946" lon="5.53618">
        <ele>352</ele>
        <time>2023-05-28T07:44:06Z</time>
      </trkpt>
      <trkpt lat="43.53946" lon="5.53618">
        <ele>352</ele>
        <time>2023-05-28T07:44:07Z</time>
      </trkpt>
      <trkpt lat="43.53946" lon="5.53618">
        <ele>351.9</ele>
        <time>2023-05-28T07:44:08Z</time>
      </trkpt>
      <trkpt lat="43.53946" lon="5.53618">
        <ele>351.9</ele>
        <time>2023-05-28T07:44:09Z</time>
      </trkpt>
      <trkpt lat="43.53946" lon="5.53618">
        <ele>351.9</ele>
        <time>2023-05-28T07:44:10Z</time>
      </trkpt>
      <trkpt lat="43.53945" lon="5.53618">
        <ele>351.8</ele>
        <time>2023-05-28T07:44:11Z</time>
      </trkpt>
      <trkpt lat="43.53945" lon="5.53618">
        <ele>351.8</ele>
        <time>2023-05-28T07:44:12Z</time>
      </trkpt>
      <trkpt lat="43.53945" lon="5.53618">
        <ele>351.7</ele>
        <time>2023-05-28T07:44:13Z</time>
      </trkpt>
      <trkpt lat="43.53945" lon="5.53618">
        <ele>351.8</ele>
        <time>2023-05-28T07:44:14Z</time>
      </trkpt>
      <trkpt lat="43.53945" lon="5.53618">
        <ele>351.9</ele>
        <time>2023-05-28T07:44:15Z</time>
      </trkpt>
      <trkpt lat="43.53945" lon="5.53618">
        <ele>351.9</ele>
        <time>2023-05-28T07:44:16Z</time>
      </trkpt>
      <trkpt lat="43.53945" lon="5.53618">
        <ele>351.9</ele>
        <time>2023-05-28T07:44:17Z</time>
      </trkpt>
      <trkpt lat="43.53945" lon="5.53618">
        <ele>352</ele>
        <time>2023-05-28T07:44:18Z</time>
      </trkpt>
      <trkpt lat="43.53945" lon="5.53618">
        <ele>352</ele>
        <time>2023-05-28T07:44:19Z</time>
      </trkpt>
      <trkpt lat="43.53945" lon="5.53619">
        <ele>351.9</ele>
        <time>2023-05-28T07:44:20Z</time>
      </trkpt>
      <trkpt lat="43.53945" lon="5.5362">
        <ele>351.9</ele>
        <time>2023-05-28T07:44:21Z</time>
      </trkpt>
      <trkpt lat="43.53945" lon="5.5362">
        <ele>351.8</ele>
        <time>2023-05-28T07:44:22Z</time>
      </trkpt>
      <trkpt lat="43.53945" lon="5.53621">
        <ele>351.9</ele>
        <time>2023-05-28T07:44:23Z</time>
      </trkpt>
      <trkpt lat="43.53945" lon="5.53621">
        <ele>352</ele>
        <time>2023-05-28T07:44:24Z</time>
      </trkpt>
      <trkpt lat="43.53945" lon="5.53622">
        <ele>352.1</ele>
        <time>2023-05-28T07:44:25Z</time>
      </trkpt>
      <trkpt lat="43.53944" lon="5.53623">
        <ele>352.1</ele>
        <time>2023-05-28T07:44:26Z</time>
      </trkpt>
      <trkpt lat="43.53944" lon="5.53623">
        <ele>352.2</ele>
        <time>2023-05-28T07:44:27Z</time>
      </trkpt>
      <trkpt lat="43.53944" lon="5.53624">
        <ele>352.2</ele>
        <time>2023-05-28T07:44:28Z</time>
      </trkpt>
      <trkpt lat="43.53943" lon="5.53624">
        <ele>352.4</ele>
        <time>2023-05-28T07:44:29Z</time>
      </trkpt>
      <trkpt lat="43.53942" lon="5.53624">
        <ele>352.6</ele>
        <time>2023-05-28T07:44:30Z</time>
      </trkpt>
      <trkpt lat="43.53942" lon="5.53625">
        <ele>352.8</ele>
        <time>2023-05-28T07:44:31Z</time>
      </trkpt>
      <trkpt lat="43.53942" lon="5.53627">
        <ele>353</ele>
        <time>2023-05-28T07:44:32Z</time>
      </trkpt>
      <trkpt lat="43.53942" lon="5.53628">
        <ele>353.2</ele>
        <time>2023-05-28T07:44:33Z</time>
      </trkpt>
      <trkpt lat="43.53941" lon="5.53629">
        <ele>353.4</ele>
        <time>2023-05-28T07:44:34Z</time>
      </trkpt>
      <trkpt lat="43.53941" lon="5.53629">
        <ele>353.6</ele>
        <time>2023-05-28T07:44:35Z</time>
      </trkpt>
      <trkpt lat="43.5394" lon="5.5363">
        <ele>353.9</ele>
        <time>2023-05-28T07:44:36Z</time>
      </trkpt>
      <trkpt lat="43.53941" lon="5.53631">
        <ele>354</ele>
        <time>2023-05-28T07:44:37Z</time>
      </trkpt>
      <trkpt lat="43.5394" lon="5.53632">
        <ele>354.2</ele>
        <time>2023-05-28T07:44:38Z</time>
      </trkpt>
      <trkpt lat="43.5394" lon="5.53633">
        <ele>354.5</ele>
        <time>2023-05-28T07:44:39Z</time>
      </trkpt>
      <trkpt lat="43.5394" lon="5.53634">
        <ele>354.7</ele>
        <time>2023-05-28T07:44:40Z</time>
      </trkpt>
      <trkpt lat="43.5394" lon="5.53635">
        <ele>354.8</ele>
        <time>2023-05-28T07:44:41Z</time>
      </trkpt>
      <trkpt lat="43.5394" lon="5.53635">
        <ele>355</ele>
        <time>2023-05-28T07:44:42Z</time>
      </trkpt>
      <trkpt lat="43.5394" lon="5.53635">
        <ele>355.1</ele>
        <time>2023-05-28T07:44:43Z</time>
      </trkpt>
      <trkpt lat="43.53939" lon="5.53636">
        <ele>355.1</ele>
        <time>2023-05-28T07:44:44Z</time>
      </trkpt>
      <trkpt lat="43.53939" lon="5.53636">
        <ele>355.3</ele>
        <time>2023-05-28T07:44:45Z</time>
      </trkpt>
      <trkpt lat="43.53938" lon="5.53637">
        <ele>355.5</ele>
        <time>2023-05-28T07:44:46Z</time>
      </trkpt>
      <trkpt lat="43.53937" lon="5.53637">
        <ele>355.7</ele>
        <time>2023-05-28T07:44:47Z</time>
      </trkpt>
      <trkpt lat="43.53937" lon="5.53637">
        <ele>355.9</ele>
        <time>2023-05-28T07:44:48Z</time>
      </trkpt>
      <trkpt lat="43.53936" lon="5.53638">
        <ele>356.1</ele>
        <time>2023-05-28T07:44:49Z</time>
      </trkpt>
      <trkpt lat="43.53935" lon="5.53639">
        <ele>356.3</ele>
        <time>2023-05-28T07:44:50Z</time>
      </trkpt>
      <trkpt lat="43.53935" lon="5.5364">
        <ele>356.5</ele>
        <time>2023-05-28T07:44:51Z</time>
      </trkpt>
      <trkpt lat="43.53935" lon="5.53641">
        <ele>356.7</ele>
        <time>2023-05-28T07:44:52Z</time>
      </trkpt>
      <trkpt lat="43.53934" lon="5.53642">
        <ele>356.9</ele>
        <time>2023-05-28T07:44:53Z</time>
      </trkpt>
      <trkpt lat="43.53934" lon="5.53643">
        <ele>357</ele>
        <time>2023-05-28T07:44:54Z</time>
      </trkpt>
      <trkpt lat="43.53934" lon="5.53644">
        <ele>357</ele>
        <time>2023-05-28T07:44:55Z</time>
      </trkpt>
      <trkpt lat="43.53934" lon="5.53645">
        <ele>357.2</ele>
        <time>2023-05-28T07:44:56Z</time>
      </trkpt>
      <trkpt lat="43.53934" lon="5.53647">
        <ele>357.3</ele>
        <time>2023-05-28T07:44:57Z</time>
      </trkpt>
      <trkpt lat="43.53934" lon="5.53648">
        <ele>357.4</ele>
        <time>2023-05-28T07:44:58Z</time>
      </trkpt>
      <trkpt lat="43.53935" lon="5.5365">
        <ele>357.4</ele>
        <time>2023-05-28T07:44:59Z</time>
      </trkpt>
      <trkpt lat="43.53935" lon="5.53651">
        <ele>357.5</ele>
        <time>2023-05-28T07:45:00Z</time>
      </trkpt>
      <trkpt lat="43.53935" lon="5.53652">
        <ele>357.5</ele>
        <time>2023-05-28T07:45:01Z</time>
      </trkpt>
      <trkpt lat="43.53936" lon="5.53653">
        <ele>357.5</ele>
        <time>2023-05-28T07:45:02Z</time>
      </trkpt>
      <trkpt lat="43.53936" lon="5.53654">
        <ele>357.5</ele>
        <time>2023-05-28T07:45:03Z</time>
      </trkpt>
      <trkpt lat="43.53935" lon="5.53655">
        <ele>357.5</ele>
        <time>2023-05-28T07:45:04Z</time>
      </trkpt>
      <trkpt lat="43.53935" lon="5.53656">
        <ele>357.4</ele>
        <time>2023-05-28T07:45:05Z</time>
      </trkpt>
      <trkpt lat="43.53935" lon="5.53657">
        <ele>357.5</ele>
        <time>2023-05-28T07:45:06Z</time>
      </trkpt>
      <trkpt lat="43.53934" lon="5.53659">
        <ele>357.6</ele>
        <time>2023-05-28T07:45:07Z</time>
      </trkpt>
      <trkpt lat="43.53934" lon="5.5366">
        <ele>357.7</ele>
        <time>2023-05-28T07:45:08Z</time>
      </trkpt>
      <trkpt lat="43.53934" lon="5.53661">
        <ele>357.8</ele>
        <time>2023-05-28T07:45:09Z</time>
      </trkpt>
      <trkpt lat="43.53934" lon="5.53662">
        <ele>357.8</ele>
        <time>2023-05-28T07:45:10Z</time>
      </trkpt>
      <trkpt lat="43.53934" lon="5.53662">
        <ele>357.8</ele>
        <time>2023-05-28T07:45:11Z</time>
      </trkpt>
      <trkpt lat="43.53934" lon="5.53662">
        <ele>357.8</ele>
        <time>2023-05-28T07:45:12Z</time>
      </trkpt>
      <trkpt lat="43.53934" lon="5.53662">
        <ele>357.8</ele>
        <time>2023-05-28T07:45:13Z</time>
      </trkpt>
      <trkpt lat="43.53934" lon="5.53663">
        <ele>357.9</ele>
        <time>2023-05-28T07:45:14Z</time>
      </trkpt>
      <trkpt lat="43.53934" lon="5.53664">
        <ele>358</ele>
        <time>2023-05-28T07:45:15Z</time>
      </trkpt>
      <trkpt lat="43.53933" lon="5.53664">
        <ele>358</ele>
        <time>2023-05-28T07:45:16Z</time>
      </trkpt>
      <trkpt lat="43.53933" lon="5.53665">
        <ele>358.1</ele>
        <time>2023-05-28T07:45:17Z</time>
      </trkpt>
      <trkpt lat="43.53932" lon="5.53666">
        <ele>358.1</ele>
        <time>2023-05-28T07:45:18Z</time>
      </trkpt>
      <trkpt lat="43.53932" lon="5.53667">
        <ele>358.1</ele>
        <time>2023-05-28T07:45:19Z</time>
      </trkpt>
      <trkpt lat="43.53932" lon="5.53668">
        <ele>358.2</ele>
        <time>2023-05-28T07:45:20Z</time>
      </trkpt>
      <trkpt lat="43.53931" lon="5.53669">
        <ele>358.3</ele>
        <time>2023-05-28T07:45:21Z</time>
      </trkpt>
      <trkpt lat="43.53931" lon="5.53669">
        <ele>358.4</ele>
        <time>2023-05-28T07:45:22Z</time>
      </trkpt>
      <trkpt lat="43.53931" lon="5.5367">
        <ele>358.5</ele>
        <time>2023-05-28T07:45:23Z</time>
      </trkpt>
      <trkpt lat="43.53931" lon="5.5367">
        <ele>358.7</ele>
        <time>2023-05-28T07:45:24Z</time>
      </trkpt>
      <trkpt lat="43.5393" lon="5.53671">
        <ele>358.8</ele>
        <time>2023-05-28T07:45:25Z</time>
      </trkpt>
      <trkpt lat="43.5393" lon="5.53671">
        <ele>358.9</ele>
        <time>2023-05-28T07:45:26Z</time>
      </trkpt>
      <trkpt lat="43.53929" lon="5.53673">
        <ele>359</ele>
        <time>2023-05-28T07:45:27Z</time>
      </trkpt>
      <trkpt lat="43.53928" lon="5.53674">
        <ele>359.2</ele>
        <time>2023-05-28T07:45:28Z</time>
      </trkpt>
      <trkpt lat="43.53928" lon="5.53676">
        <ele>359.3</ele>
        <time>2023-05-28T07:45:29Z</time>
      </trkpt>
      <trkpt lat="43.53928" lon="5.53677">
        <ele>359.4</ele>
        <time>2023-05-28T07:45:30Z</time>
      </trkpt>
      <trkpt lat="43.53928" lon="5.53678">
        <ele>359.4</ele>
        <time>2023-05-28T07:45:31Z</time>
      </trkpt>
      <trkpt lat="43.53928" lon="5.53678">
        <ele>359.5</ele>
        <time>2023-05-28T07:45:32Z</time>
      </trkpt>
      <trkpt lat="43.53927" lon="5.53678">
        <ele>359.5</ele>
        <time>2023-05-28T07:45:33Z</time>
      </trkpt>
      <trkpt lat="43.53927" lon="5.53679">
        <ele>359.7</ele>
        <time>2023-05-28T07:45:34Z</time>
      </trkpt>
      <trkpt lat="43.53927" lon="5.53679">
        <ele>359.9</ele>
        <time>2023-05-28T07:45:35Z</time>
      </trkpt>
      <trkpt lat="43.53927" lon="5.53679">
        <ele>360</ele>
        <time>2023-05-28T07:45:36Z</time>
      </trkpt>
      <trkpt lat="43.53927" lon="5.53679">
        <ele>360.1</ele>
        <time>2023-05-28T07:45:37Z</time>
      </trkpt>
      <trkpt lat="43.53927" lon="5.53679">
        <ele>360.2</ele>
        <time>2023-05-28T07:45:38Z</time>
      </trkpt>
      <trkpt lat="43.53927" lon="5.53679">
        <ele>360.3</ele>
        <time>2023-05-28T07:45:39Z</time>
      </trkpt>
      <trkpt lat="43.53927" lon="5.53679">
        <ele>360.3</ele>
        <time>2023-05-28T07:45:40Z</time>
      </trkpt>
      <trkpt lat="43.53927" lon="5.53679">
        <ele>360.4</ele>
        <time>2023-05-28T07:45:41Z</time>
      </trkpt>
      <trkpt lat="43.53926" lon="5.5368">
        <ele>360.4</ele>
        <time>2023-05-28T07:45:42Z</time>
      </trkpt>
      <trkpt lat="43.53926" lon="5.53681">
        <ele>360.5</ele>
        <time>2023-05-28T07:45:43Z</time>
      </trkpt>
      <trkpt lat="43.53925" lon="5.53682">
        <ele>360.5</ele>
        <time>2023-05-28T07:45:44Z</time>
      </trkpt>
      <trkpt lat="43.53924" lon="5.53682">
        <ele>360.5</ele>
        <time>2023-05-28T07:45:45Z</time>
      </trkpt>
      <trkpt lat="43.53924" lon="5.53683">
        <ele>360.6</ele>
        <time>2023-05-28T07:45:46Z</time>
      </trkpt>
      <trkpt lat="43.53923" lon="5.53685">
        <ele>360.8</ele>
        <time>2023-05-28T07:45:47Z</time>
      </trkpt>
      <trkpt lat="43.53923" lon="5.53686">
        <ele>360.8</ele>
        <time>2023-05-28T07:45:48Z</time>
      </trkpt>
      <trkpt lat="43.53923" lon="5.53687">
        <ele>360.9</ele>
        <time>2023-05-28T07:45:49Z</time>
      </trkpt>
      <trkpt lat="43.53923" lon="5.53688">
        <ele>361</ele>
        <time>2023-05-28T07:45:50Z</time>
      </trkpt>
      <trkpt lat="43.53923" lon="5.53689">
        <ele>361.1</ele>
        <time>2023-05-28T07:45:51Z</time>
      </trkpt>
      <trkpt lat="43.53922" lon="5.5369">
        <ele>361.1</ele>
        <time>2023-05-28T07:45:52Z</time>
      </trkpt>
      <trkpt lat="43.53922" lon="5.53691">
        <ele>361.2</ele>
        <time>2023-05-28T07:45:53Z</time>
      </trkpt>
      <trkpt lat="43.53921" lon="5.53691">
        <ele>361.3</ele>
        <time>2023-05-28T07:45:54Z</time>
      </trkpt>
      <trkpt lat="43.5392" lon="5.53692">
        <ele>361.4</ele>
        <time>2023-05-28T07:45:55Z</time>
      </trkpt>
      <trkpt lat="43.5392" lon="5.53693">
        <ele>361.5</ele>
        <time>2023-05-28T07:45:56Z</time>
      </trkpt>
      <trkpt lat="43.53919" lon="5.53693">
        <ele>361.6</ele>
        <time>2023-05-28T07:45:57Z</time>
      </trkpt>
      <trkpt lat="43.53919" lon="5.53693">
        <ele>361.6</ele>
        <time>2023-05-28T07:45:58Z</time>
      </trkpt>
      <trkpt lat="43.53918" lon="5.53694">
        <ele>361.7</ele>
        <time>2023-05-28T07:45:59Z</time>
      </trkpt>
      <trkpt lat="43.53918" lon="5.53695">
        <ele>361.9</ele>
        <time>2023-05-28T07:46:00Z</time>
      </trkpt>
      <trkpt lat="43.53918" lon="5.53695">
        <ele>362.1</ele>
        <time>2023-05-28T07:46:01Z</time>
      </trkpt>
      <trkpt lat="43.53917" lon="5.53695">
        <ele>362.2</ele>
        <time>2023-05-28T07:46:02Z</time>
      </trkpt>
      <trkpt lat="43.53916" lon="5.53696">
        <ele>362.2</ele>
        <time>2023-05-28T07:46:03Z</time>
      </trkpt>
      <trkpt lat="43.53916" lon="5.53696">
        <ele>362.3</ele>
        <time>2023-05-28T07:46:04Z</time>
      </trkpt>
      <trkpt lat="43.53915" lon="5.53697">
        <ele>362.4</ele>
        <time>2023-05-28T07:46:05Z</time>
      </trkpt>
      <trkpt lat="43.53915" lon="5.53698">
        <ele>362.5</ele>
        <time>2023-05-28T07:46:06Z</time>
      </trkpt>
      <trkpt lat="43.53914" lon="5.53699">
        <ele>362.6</ele>
        <time>2023-05-28T07:46:07Z</time>
      </trkpt>
      <trkpt lat="43.53914" lon="5.537">
        <ele>362.7</ele>
        <time>2023-05-28T07:46:08Z</time>
      </trkpt>
      <trkpt lat="43.53913" lon="5.53701">
        <ele>362.8</ele>
        <time>2023-05-28T07:46:09Z</time>
      </trkpt>
      <trkpt lat="43.53913" lon="5.53702">
        <ele>362.9</ele>
        <time>2023-05-28T07:46:10Z</time>
      </trkpt>
      <trkpt lat="43.53912" lon="5.53703">
        <ele>362.9</ele>
        <time>2023-05-28T07:46:11Z</time>
      </trkpt>
      <trkpt lat="43.53912" lon="5.53704">
        <ele>363</ele>
        <time>2023-05-28T07:46:12Z</time>
      </trkpt>
      <trkpt lat="43.53911" lon="5.53705">
        <ele>363.1</ele>
        <time>2023-05-28T07:46:13Z</time>
      </trkpt>
      <trkpt lat="43.53911" lon="5.53706">
        <ele>363.3</ele>
        <time>2023-05-28T07:46:14Z</time>
      </trkpt>
      <trkpt lat="43.5391" lon="5.53707">
        <ele>363.5</ele>
        <time>2023-05-28T07:46:15Z</time>
      </trkpt>
      <trkpt lat="43.53909" lon="5.53708">
        <ele>363.6</ele>
        <time>2023-05-28T07:46:16Z</time>
      </trkpt>
      <trkpt lat="43.53909" lon="5.53709">
        <ele>363.7</ele>
        <time>2023-05-28T07:46:17Z</time>
      </trkpt>
      <trkpt lat="43.53908" lon="5.53709">
        <ele>363.8</ele>
        <time>2023-05-28T07:46:18Z</time>
      </trkpt>
      <trkpt lat="43.53907" lon="5.5371">
        <ele>363.9</ele>
        <time>2023-05-28T07:46:19Z</time>
      </trkpt>
      <trkpt lat="43.53907" lon="5.5371">
        <ele>364</ele>
        <time>2023-05-28T07:46:20Z</time>
      </trkpt>
      <trkpt lat="43.53906" lon="5.53711">
        <ele>364.2</ele>
        <time>2023-05-28T07:46:21Z</time>
      </trkpt>
      <trkpt lat="43.53906" lon="5.53712">
        <ele>364.2</ele>
        <time>2023-05-28T07:46:22Z</time>
      </trkpt>
      <trkpt lat="43.53905" lon="5.53713">
        <ele>364.3</ele>
        <time>2023-05-28T07:46:23Z</time>
      </trkpt>
      <trkpt lat="43.53905" lon="5.53714">
        <ele>364.4</ele>
        <time>2023-05-28T07:46:24Z</time>
      </trkpt>
      <trkpt lat="43.53905" lon="5.53715">
        <ele>364.5</ele>
        <time>2023-05-28T07:46:25Z</time>
      </trkpt>
      <trkpt lat="43.53905" lon="5.53717">
        <ele>364.6</ele>
        <time>2023-05-28T07:46:26Z</time>
      </trkpt>
      <trkpt lat="43.53904" lon="5.53718">
        <ele>364.7</ele>
        <time>2023-05-28T07:46:27Z</time>
      </trkpt>
      <trkpt lat="43.53904" lon="5.53719">
        <ele>364.7</ele>
        <time>2023-05-28T07:46:28Z</time>
      </trkpt>
      <trkpt lat="43.53903" lon="5.53721">
        <ele>364.8</ele>
        <time>2023-05-28T07:46:29Z</time>
      </trkpt>
      <trkpt lat="43.53902" lon="5.53722">
        <ele>364.8</ele>
        <time>2023-05-28T07:46:30Z</time>
      </trkpt>
      <trkpt lat="43.53902" lon="5.53723">
        <ele>364.9</ele>
        <time>2023-05-28T07:46:31Z</time>
      </trkpt>
      <trkpt lat="43.53902" lon="5.53724">
        <ele>365</ele>
        <time>2023-05-28T07:46:32Z</time>
      </trkpt>
      <trkpt lat="43.53902" lon="5.53725">
        <ele>365</ele>
        <time>2023-05-28T07:46:33Z</time>
      </trkpt>
      <trkpt lat="43.53901" lon="5.53726">
        <ele>365</ele>
        <time>2023-05-28T07:46:34Z</time>
      </trkpt>
      <trkpt lat="43.53901" lon="5.53727">
        <ele>365.1</ele>
        <time>2023-05-28T07:46:35Z</time>
      </trkpt>
      <trkpt lat="43.539" lon="5.53728">
        <ele>365.2</ele>
        <time>2023-05-28T07:46:36Z</time>
      </trkpt>
      <trkpt lat="43.53899" lon="5.5373">
        <ele>365.4</ele>
        <time>2023-05-28T07:46:37Z</time>
      </trkpt>
      <trkpt lat="43.53898" lon="5.53731">
        <ele>365.6</ele>
        <time>2023-05-28T07:46:38Z</time>
      </trkpt>
      <trkpt lat="43.53897" lon="5.53732">
        <ele>365.7</ele>
        <time>2023-05-28T07:46:39Z</time>
      </trkpt>
      <trkpt lat="43.53896" lon="5.53733">
        <ele>365.8</ele>
        <time>2023-05-28T07:46:40Z</time>
      </trkpt>
      <trkpt lat="43.53896" lon="5.53734">
        <ele>365.9</ele>
        <time>2023-05-28T07:46:41Z</time>
      </trkpt>
      <trkpt lat="43.53895" lon="5.53734">
        <ele>366</ele>
        <time>2023-05-28T07:46:42Z</time>
      </trkpt>
      <trkpt lat="43.53894" lon="5.53736">
        <ele>366.1</ele>
        <time>2023-05-28T07:46:43Z</time>
      </trkpt>
      <trkpt lat="43.53894" lon="5.53736">
        <ele>366.2</ele>
        <time>2023-05-28T07:46:44Z</time>
      </trkpt>
      <trkpt lat="43.53893" lon="5.53737">
        <ele>366.3</ele>
        <time>2023-05-28T07:46:45Z</time>
      </trkpt>
      <trkpt lat="43.53892" lon="5.53739">
        <ele>366.4</ele>
        <time>2023-05-28T07:46:46Z</time>
      </trkpt>
      <trkpt lat="43.53891" lon="5.5374">
        <ele>366.5</ele>
        <time>2023-05-28T07:46:47Z</time>
      </trkpt>
      <trkpt lat="43.5389" lon="5.53742">
        <ele>366.5</ele>
        <time>2023-05-28T07:46:48Z</time>
      </trkpt>
      <trkpt lat="43.5389" lon="5.53743">
        <ele>366.5</ele>
        <time>2023-05-28T07:46:49Z</time>
      </trkpt>
      <trkpt lat="43.5389" lon="5.53745">
        <ele>366.6</ele>
        <time>2023-05-28T07:46:50Z</time>
      </trkpt>
      <trkpt lat="43.5389" lon="5.53746">
        <ele>366.5</ele>
        <time>2023-05-28T07:46:51Z</time>
      </trkpt>
      <trkpt lat="43.53889" lon="5.53746">
        <ele>366.5</ele>
        <time>2023-05-28T07:46:52Z</time>
      </trkpt>
      <trkpt lat="43.53889" lon="5.53747">
        <ele>366.6</ele>
        <time>2023-05-28T07:46:53Z</time>
      </trkpt>
      <trkpt lat="43.53888" lon="5.53747">
        <ele>366.6</ele>
        <time>2023-05-28T07:46:54Z</time>
      </trkpt>
      <trkpt lat="43.53887" lon="5.53749">
        <ele>366.6</ele>
        <time>2023-05-28T07:46:55Z</time>
      </trkpt>
      <trkpt lat="43.53887" lon="5.5375">
        <ele>366.5</ele>
        <time>2023-05-28T07:46:56Z</time>
      </trkpt>
      <trkpt lat="43.53887" lon="5.5375">
        <ele>366.5</ele>
        <time>2023-05-28T07:46:57Z</time>
      </trkpt>
      <trkpt lat="43.53887" lon="5.5375">
        <ele>366.6</ele>
        <time>2023-05-28T07:46:58Z</time>
      </trkpt>
      <trkpt lat="43.53886" lon="5.5375">
        <ele>366.7</ele>
        <time>2023-05-28T07:46:59Z</time>
      </trkpt>
      <trkpt lat="43.53885" lon="5.5375">
        <ele>366.9</ele>
        <time>2023-05-28T07:47:00Z</time>
      </trkpt>
      <trkpt lat="43.53885" lon="5.53751">
        <ele>367.1</ele>
        <time>2023-05-28T07:47:01Z</time>
      </trkpt>
      <trkpt lat="43.53884" lon="5.53752">
        <ele>367.2</ele>
        <time>2023-05-28T07:47:02Z</time>
      </trkpt>
      <trkpt lat="43.53883" lon="5.53752">
        <ele>367.3</ele>
        <time>2023-05-28T07:47:03Z</time>
      </trkpt>
      <trkpt lat="43.53882" lon="5.53753">
        <ele>367.3</ele>
        <time>2023-05-28T07:47:04Z</time>
      </trkpt>
      <trkpt lat="43.53881" lon="5.53753">
        <ele>367.4</ele>
        <time>2023-05-28T07:47:05Z</time>
      </trkpt>
      <trkpt lat="43.53881" lon="5.53753">
        <ele>367.5</ele>
        <time>2023-05-28T07:47:06Z</time>
      </trkpt>
      <trkpt lat="43.5388" lon="5.53754">
        <ele>367.5</ele>
        <time>2023-05-28T07:47:07Z</time>
      </trkpt>
      <trkpt lat="43.53879" lon="5.53755">
        <ele>367.5</ele>
        <time>2023-05-28T07:47:08Z</time>
      </trkpt>
      <trkpt lat="43.53879" lon="5.53756">
        <ele>367.5</ele>
        <time>2023-05-28T07:47:09Z</time>
      </trkpt>
      <trkpt lat="43.53878" lon="5.53757">
        <ele>367.5</ele>
        <time>2023-05-28T07:47:10Z</time>
      </trkpt>
      <trkpt lat="43.53876" lon="5.53758">
        <ele>367.5</ele>
        <time>2023-05-28T07:47:11Z</time>
      </trkpt>
      <trkpt lat="43.53875" lon="5.53759">
        <ele>367.6</ele>
        <time>2023-05-28T07:47:12Z</time>
      </trkpt>
      <trkpt lat="43.53874" lon="5.5376">
        <ele>367.6</ele>
        <time>2023-05-28T07:47:13Z</time>
      </trkpt>
      <trkpt lat="43.53874" lon="5.53761">
        <ele>367.7</ele>
        <time>2023-05-28T07:47:14Z</time>
      </trkpt>
      <trkpt lat="43.53873" lon="5.53762">
        <ele>367.8</ele>
        <time>2023-05-28T07:47:15Z</time>
      </trkpt>
      <trkpt lat="43.53873" lon="5.53763">
        <ele>367.9</ele>
        <time>2023-05-28T07:47:16Z</time>
      </trkpt>
      <trkpt lat="43.53873" lon="5.53765">
        <ele>367.9</ele>
        <time>2023-05-28T07:47:17Z</time>
      </trkpt>
      <trkpt lat="43.53873" lon="5.53767">
        <ele>368</ele>
        <time>2023-05-28T07:47:18Z</time>
      </trkpt>
      <trkpt lat="43.53873" lon="5.53769">
        <ele>368</ele>
        <time>2023-05-28T07:47:19Z</time>
      </trkpt>
      <trkpt lat="43.53872" lon="5.5377">
        <ele>368</ele>
        <time>2023-05-28T07:47:20Z</time>
      </trkpt>
      <trkpt lat="43.53872" lon="5.53772">
        <ele>368.1</ele>
        <time>2023-05-28T07:47:21Z</time>
      </trkpt>
      <trkpt lat="43.53872" lon="5.53774">
        <ele>368.1</ele>
        <time>2023-05-28T07:47:22Z</time>
      </trkpt>
      <trkpt lat="43.53872" lon="5.53776">
        <ele>368.1</ele>
        <time>2023-05-28T07:47:23Z</time>
      </trkpt>
      <trkpt lat="43.53872" lon="5.53778">
        <ele>368.2</ele>
        <time>2023-05-28T07:47:24Z</time>
      </trkpt>
      <trkpt lat="43.53872" lon="5.53779">
        <ele>368.2</ele>
        <time>2023-05-28T07:47:25Z</time>
      </trkpt>
      <trkpt lat="43.53871" lon="5.5378">
        <ele>368.3</ele>
        <time>2023-05-28T07:47:26Z</time>
      </trkpt>
      <trkpt lat="43.5387" lon="5.5378">
        <ele>368.3</ele>
        <time>2023-05-28T07:47:27Z</time>
      </trkpt>
      <trkpt lat="43.5387" lon="5.53781">
        <ele>368.4</ele>
        <time>2023-05-28T07:47:28Z</time>
      </trkpt>
      <trkpt lat="43.5387" lon="5.53783">
        <ele>368.4</ele>
        <time>2023-05-28T07:47:29Z</time>
      </trkpt>
      <trkpt lat="43.53869" lon="5.53784">
        <ele>368.4</ele>
        <time>2023-05-28T07:47:30Z</time>
      </trkpt>
      <trkpt lat="43.53869" lon="5.53785">
        <ele>368.4</ele>
        <time>2023-05-28T07:47:31Z</time>
      </trkpt>
      <trkpt lat="43.53869" lon="5.53786">
        <ele>368.4</ele>
        <time>2023-05-28T07:47:32Z</time>
      </trkpt>
      <trkpt lat="43.53869" lon="5.53787">
        <ele>368.4</ele>
        <time>2023-05-28T07:47:33Z</time>
      </trkpt>
      <trkpt lat="43.53869" lon="5.53788">
        <ele>368.5</ele>
        <time>2023-05-28T07:47:34Z</time>
      </trkpt>
      <trkpt lat="43.53869" lon="5.53788">
        <ele>368.5</ele>
        <time>2023-05-28T07:47:35Z</time>
      </trkpt>
      <trkpt lat="43.53869" lon="5.53788">
        <ele>368.5</ele>
        <time>2023-05-28T07:47:36Z</time>
      </trkpt>
      <trkpt lat="43.53869" lon="5.53789">
        <ele>368.5</ele>
        <time>2023-05-28T07:47:37Z</time>
      </trkpt>
      <trkpt lat="43.53869" lon="5.53789">
        <ele>368.4</ele>
        <time>2023-05-28T07:47:38Z</time>
      </trkpt>
      <trkpt lat="43.5387" lon="5.53789">
        <ele>368.4</ele>
        <time>2023-05-28T07:47:39Z</time>
      </trkpt>
      <trkpt lat="43.5387" lon="5.53789">
        <ele>368.3</ele>
        <time>2023-05-28T07:47:40Z</time>
      </trkpt>
      <trkpt lat="43.5387" lon="5.53789">
        <ele>368.3</ele>
        <time>2023-05-28T07:47:41Z</time>
      </trkpt>
      <trkpt lat="43.53871" lon="5.53788">
        <ele>368.2</ele>
        <time>2023-05-28T07:47:42Z</time>
      </trkpt>
      <trkpt lat="43.53872" lon="5.53788">
        <ele>368.2</ele>
        <time>2023-05-28T07:47:43Z</time>
      </trkpt>
      <trkpt lat="43.53872" lon="5.53787">
        <ele>368.1</ele>
        <time>2023-05-28T07:47:44Z</time>
      </trkpt>
      <trkpt lat="43.53872" lon="5.53786">
        <ele>368.1</ele>
        <time>2023-05-28T07:47:45Z</time>
      </trkpt>
      <trkpt lat="43.53872" lon="5.53785">
        <ele>368.3</ele>
        <time>2023-05-28T07:47:46Z</time>
      </trkpt>
      <trkpt lat="43.53872" lon="5.53785">
        <ele>368.3</ele>
        <time>2023-05-28T07:47:47Z</time>
      </trkpt>
      <trkpt lat="43.53872" lon="5.53785">
        <ele>368.4</ele>
        <time>2023-05-28T07:47:48Z</time>
      </trkpt>
      <trkpt lat="43.53872" lon="5.53785">
        <ele>368.4</ele>
        <time>2023-05-28T07:47:49Z</time>
      </trkpt>
      <trkpt lat="43.53872" lon="5.53785">
        <ele>368.4</ele>
        <time>2023-05-28T07:47:50Z</time>
      </trkpt>
      <trkpt lat="43.53872" lon="5.53785">
        <ele>368.4</ele>
        <time>2023-05-28T07:47:51Z</time>
      </trkpt>
      <trkpt lat="43.53872" lon="5.53786">
        <ele>368.3</ele>
        <time>2023-05-28T07:47:52Z</time>
      </trkpt>
      <trkpt lat="43.53871" lon="5.53787">
        <ele>368.3</ele>
        <time>2023-05-28T07:47:53Z</time>
      </trkpt>
      <trkpt lat="43.5387" lon="5.53787">
        <ele>368.3</ele>
        <time>2023-05-28T07:47:54Z</time>
      </trkpt>
      <trkpt lat="43.53869" lon="5.53788">
        <ele>368.3</ele>
        <time>2023-05-28T07:47:55Z</time>
      </trkpt>
      <trkpt lat="43.53868" lon="5.5379">
        <ele>368.2</ele>
        <time>2023-05-28T07:47:56Z</time>
      </trkpt>
      <trkpt lat="43.53867" lon="5.5379">
        <ele>368.2</ele>
        <time>2023-05-28T07:47:57Z</time>
      </trkpt>
      <trkpt lat="43.53867" lon="5.53791">
        <ele>368.2</ele>
        <time>2023-05-28T07:47:58Z</time>
      </trkpt>
      <trkpt lat="43.53866" lon="5.53792">
        <ele>368.2</ele>
        <time>2023-05-28T07:47:59Z</time>
      </trkpt>
      <trkpt lat="43.53866" lon="5.53794">
        <ele>368.2</ele>
        <time>2023-05-28T07:48:00Z</time>
      </trkpt>
      <trkpt lat="43.53866" lon="5.53795">
        <ele>368.2</ele>
        <time>2023-05-28T07:48:01Z</time>
      </trkpt>
      <trkpt lat="43.53866" lon="5.53795">
        <ele>368.2</ele>
        <time>2023-05-28T07:48:02Z</time>
      </trkpt>
      <trkpt lat="43.53865" lon="5.53796">
        <ele>368.2</ele>
        <time>2023-05-28T07:48:03Z</time>
      </trkpt>
      <trkpt lat="43.53864" lon="5.53796">
        <ele>368.2</ele>
        <time>2023-05-28T07:48:04Z</time>
      </trkpt>
      <trkpt lat="43.53863" lon="5.53796">
        <ele>368.2</ele>
        <time>2023-05-28T07:48:05Z</time>
      </trkpt>
      <trkpt lat="43.53862" lon="5.53797">
        <ele>368.3</ele>
        <time>2023-05-28T07:48:06Z</time>
      </trkpt>
      <trkpt lat="43.53862" lon="5.53797">
        <ele>368.3</ele>
        <time>2023-05-28T07:48:07Z</time>
      </trkpt>
      <trkpt lat="43.53861" lon="5.53798">
        <ele>368.2</ele>
        <time>2023-05-28T07:48:08Z</time>
      </trkpt>
      <trkpt lat="43.5386" lon="5.538">
        <ele>368.3</ele>
        <time>2023-05-28T07:48:09Z</time>
      </trkpt>
      <trkpt lat="43.53859" lon="5.53801">
        <ele>368.3</ele>
        <time>2023-05-28T07:48:10Z</time>
      </trkpt>
      <trkpt lat="43.53857" lon="5.53803">
        <ele>368.4</ele>
        <time>2023-05-28T07:48:11Z</time>
      </trkpt>
      <trkpt lat="43.53857" lon="5.53804">
        <ele>368.4</ele>
        <time>2023-05-28T07:48:12Z</time>
      </trkpt>
      <trkpt lat="43.53856" lon="5.53806">
        <ele>368.5</ele>
        <time>2023-05-28T07:48:13Z</time>
      </trkpt>
      <trkpt lat="43.53855" lon="5.53807">
        <ele>368.5</ele>
        <time>2023-05-28T07:48:14Z</time>
      </trkpt>
      <trkpt lat="43.53853" lon="5.53808">
        <ele>368.6</ele>
        <time>2023-05-28T07:48:15Z</time>
      </trkpt>
      <trkpt lat="43.53852" lon="5.53809">
        <ele>368.6</ele>
        <time>2023-05-28T07:48:16Z</time>
      </trkpt>
      <trkpt lat="43.53851" lon="5.5381">
        <ele>368.6</ele>
        <time>2023-05-28T07:48:17Z</time>
      </trkpt>
      <trkpt lat="43.5385" lon="5.53812">
        <ele>368.7</ele>
        <time>2023-05-28T07:48:18Z</time>
      </trkpt>
      <trkpt lat="43.53849" lon="5.53813">
        <ele>368.7</ele>
        <time>2023-05-28T07:48:19Z</time>
      </trkpt>
      <trkpt lat="43.53849" lon="5.53813">
        <ele>368.7</ele>
        <time>2023-05-28T07:48:20Z</time>
      </trkpt>
      <trkpt lat="43.53848" lon="5.53815">
        <ele>368.8</ele>
        <time>2023-05-28T07:48:21Z</time>
      </trkpt>
      <trkpt lat="43.53848" lon="5.53816">
        <ele>368.9</ele>
        <time>2023-05-28T07:48:22Z</time>
      </trkpt>
      <trkpt lat="43.53846" lon="5.53816">
        <ele>368.9</ele>
        <time>2023-05-28T07:48:23Z</time>
      </trkpt>
      <trkpt lat="43.53845" lon="5.53817">
        <ele>369</ele>
        <time>2023-05-28T07:48:24Z</time>
      </trkpt>
      <trkpt lat="43.53845" lon="5.53819">
        <ele>369</ele>
        <time>2023-05-28T07:48:25Z</time>
      </trkpt>
      <trkpt lat="43.53844" lon="5.5382">
        <ele>369.1</ele>
        <time>2023-05-28T07:48:26Z</time>
      </trkpt>
      <trkpt lat="43.53843" lon="5.53821">
        <ele>369.1</ele>
        <time>2023-05-28T07:48:27Z</time>
      </trkpt>
      <trkpt lat="43.53842" lon="5.53823">
        <ele>369.1</ele>
        <time>2023-05-28T07:48:28Z</time>
      </trkpt>
      <trkpt lat="43.53842" lon="5.53824">
        <ele>369.1</ele>
        <time>2023-05-28T07:48:29Z</time>
      </trkpt>
      <trkpt lat="43.53841" lon="5.53825">
        <ele>369.1</ele>
        <time>2023-05-28T07:48:30Z</time>
      </trkpt>
      <trkpt lat="43.5384" lon="5.53826">
        <ele>369.1</ele>
        <time>2023-05-28T07:48:31Z</time>
      </trkpt>
      <trkpt lat="43.53839" lon="5.53827">
        <ele>369.2</ele>
        <time>2023-05-28T07:48:32Z</time>
      </trkpt>
      <trkpt lat="43.53838" lon="5.53828">
        <ele>369.3</ele>
        <time>2023-05-28T07:48:33Z</time>
      </trkpt>
      <trkpt lat="43.53837" lon="5.53828">
        <ele>369.3</ele>
        <time>2023-05-28T07:48:34Z</time>
      </trkpt>
      <trkpt lat="43.53836" lon="5.5383">
        <ele>369.3</ele>
        <time>2023-05-28T07:48:35Z</time>
      </trkpt>
      <trkpt lat="43.53835" lon="5.53831">
        <ele>369.3</ele>
        <time>2023-05-28T07:48:36Z</time>
      </trkpt>
      <trkpt lat="43.53834" lon="5.53832">
        <ele>369.3</ele>
        <time>2023-05-28T07:48:37Z</time>
      </trkpt>
      <trkpt lat="43.53832" lon="5.53833">
        <ele>369.3</ele>
        <time>2023-05-28T07:48:38Z</time>
      </trkpt>
      <trkpt lat="43.53831" lon="5.53834">
        <ele>369.3</ele>
        <time>2023-05-28T07:48:39Z</time>
      </trkpt>
      <trkpt lat="43.5383" lon="5.53835">
        <ele>369.3</ele>
        <time>2023-05-28T07:48:40Z</time>
      </trkpt>
      <trkpt lat="43.53829" lon="5.53836">
        <ele>369.3</ele>
        <time>2023-05-28T07:48:41Z</time>
      </trkpt>
      <trkpt lat="43.53829" lon="5.53837">
        <ele>369.3</ele>
        <time>2023-05-28T07:48:42Z</time>
      </trkpt>
      <trkpt lat="43.53828" lon="5.53838">
        <ele>369.4</ele>
        <time>2023-05-28T07:48:43Z</time>
      </trkpt>
      <trkpt lat="43.53828" lon="5.53839">
        <ele>369.4</ele>
        <time>2023-05-28T07:48:44Z</time>
      </trkpt>
      <trkpt lat="43.53827" lon="5.5384">
        <ele>369.5</ele>
        <time>2023-05-28T07:48:45Z</time>
      </trkpt>
      <trkpt lat="43.53826" lon="5.53841">
        <ele>369.5</ele>
        <time>2023-05-28T07:48:46Z</time>
      </trkpt>
      <trkpt lat="43.53825" lon="5.53842">
        <ele>369.5</ele>
        <time>2023-05-28T07:48:47Z</time>
      </trkpt>
      <trkpt lat="43.53824" lon="5.53843">
        <ele>369.6</ele>
        <time>2023-05-28T07:48:48Z</time>
      </trkpt>
      <trkpt lat="43.53823" lon="5.53844">
        <ele>369.5</ele>
        <time>2023-05-28T07:48:49Z</time>
      </trkpt>
      <trkpt lat="43.53822" lon="5.53845">
        <ele>369.5</ele>
        <time>2023-05-28T07:48:50Z</time>
      </trkpt>
      <trkpt lat="43.53821" lon="5.53846">
        <ele>369.5</ele>
        <time>2023-05-28T07:48:51Z</time>
      </trkpt>
      <trkpt lat="43.5382" lon="5.53848">
        <ele>369.5</ele>
        <time>2023-05-28T07:48:52Z</time>
      </trkpt>
      <trkpt lat="43.5382" lon="5.5385">
        <ele>369.5</ele>
        <time>2023-05-28T07:48:53Z</time>
      </trkpt>
      <trkpt lat="43.53819" lon="5.53852">
        <ele>369.6</ele>
        <time>2023-05-28T07:48:54Z</time>
      </trkpt>
      <trkpt lat="43.53818" lon="5.53855">
        <ele>369.5</ele>
        <time>2023-05-28T07:48:55Z</time>
      </trkpt>
      <trkpt lat="43.53817" lon="5.53856">
        <ele>369.6</ele>
        <time>2023-05-28T07:48:56Z</time>
      </trkpt>
      <trkpt lat="43.53817" lon="5.53858">
        <ele>369.6</ele>
        <time>2023-05-28T07:48:57Z</time>
      </trkpt>
      <trkpt lat="43.53816" lon="5.53859">
        <ele>369.5</ele>
        <time>2023-05-28T07:48:58Z</time>
      </trkpt>
      <trkpt lat="43.53816" lon="5.5386">
        <ele>369.4</ele>
        <time>2023-05-28T07:48:59Z</time>
      </trkpt>
      <trkpt lat="43.53815" lon="5.53861">
        <ele>369.4</ele>
        <time>2023-05-28T07:49:00Z</time>
      </trkpt>
      <trkpt lat="43.53814" lon="5.53863">
        <ele>369.4</ele>
        <time>2023-05-28T07:49:01Z</time>
      </trkpt>
      <trkpt lat="43.53814" lon="5.53865">
        <ele>369.3</ele>
        <time>2023-05-28T07:49:02Z</time>
      </trkpt>
      <trkpt lat="43.53814" lon="5.53867">
        <ele>369.2</ele>
        <time>2023-05-28T07:49:03Z</time>
      </trkpt>
      <trkpt lat="43.53813" lon="5.53868">
        <ele>369.1</ele>
        <time>2023-05-28T07:49:04Z</time>
      </trkpt>
      <trkpt lat="43.53813" lon="5.5387">
        <ele>369</ele>
        <time>2023-05-28T07:49:05Z</time>
      </trkpt>
      <trkpt lat="43.53812" lon="5.53871">
        <ele>368.9</ele>
        <time>2023-05-28T07:49:06Z</time>
      </trkpt>
      <trkpt lat="43.53811" lon="5.53872">
        <ele>368.8</ele>
        <time>2023-05-28T07:49:07Z</time>
      </trkpt>
      <trkpt lat="43.53811" lon="5.53872">
        <ele>368.7</ele>
        <time>2023-05-28T07:49:08Z</time>
      </trkpt>
      <trkpt lat="43.5381" lon="5.53873">
        <ele>368.6</ele>
        <time>2023-05-28T07:49:09Z</time>
      </trkpt>
      <trkpt lat="43.53809" lon="5.53875">
        <ele>368.5</ele>
        <time>2023-05-28T07:49:10Z</time>
      </trkpt>
      <trkpt lat="43.53807" lon="5.53876">
        <ele>368.4</ele>
        <time>2023-05-28T07:49:11Z</time>
      </trkpt>
      <trkpt lat="43.53807" lon="5.53878">
        <ele>368.3</ele>
        <time>2023-05-28T07:49:12Z</time>
      </trkpt>
      <trkpt lat="43.53805" lon="5.53879">
        <ele>368.2</ele>
        <time>2023-05-28T07:49:13Z</time>
      </trkpt>
      <trkpt lat="43.53804" lon="5.5388">
        <ele>368.2</ele>
        <time>2023-05-28T07:49:14Z</time>
      </trkpt>
      <trkpt lat="43.53803" lon="5.53881">
        <ele>368.3</ele>
        <time>2023-05-28T07:49:15Z</time>
      </trkpt>
      <trkpt lat="43.53802" lon="5.53882">
        <ele>368.4</ele>
        <time>2023-05-28T07:49:16Z</time>
      </trkpt>
      <trkpt lat="43.53803" lon="5.53884">
        <ele>368.5</ele>
        <time>2023-05-28T07:49:17Z</time>
      </trkpt>
      <trkpt lat="43.53803" lon="5.53885">
        <ele>368.6</ele>
        <time>2023-05-28T07:49:18Z</time>
      </trkpt>
      <trkpt lat="43.53802" lon="5.53887">
        <ele>368.7</ele>
        <time>2023-05-28T07:49:19Z</time>
      </trkpt>
      <trkpt lat="43.538" lon="5.53887">
        <ele>368.8</ele>
        <time>2023-05-28T07:49:20Z</time>
      </trkpt>
      <trkpt lat="43.538" lon="5.53888">
        <ele>368.9</ele>
        <time>2023-05-28T07:49:21Z</time>
      </trkpt>
      <trkpt lat="43.53799" lon="5.53888">
        <ele>369</ele>
        <time>2023-05-28T07:49:22Z</time>
      </trkpt>
      <trkpt lat="43.53798" lon="5.53889">
        <ele>369.1</ele>
        <time>2023-05-28T07:49:23Z</time>
      </trkpt>
      <trkpt lat="43.53797" lon="5.53889">
        <ele>369.2</ele>
        <time>2023-05-28T07:49:24Z</time>
      </trkpt>
      <trkpt lat="43.53796" lon="5.53891">
        <ele>369.3</ele>
        <time>2023-05-28T07:49:25Z</time>
      </trkpt>
      <trkpt lat="43.53795" lon="5.53892">
        <ele>369.4</ele>
        <time>2023-05-28T07:49:26Z</time>
      </trkpt>
      <trkpt lat="43.53794" lon="5.53893">
        <ele>369.5</ele>
        <time>2023-05-28T07:49:27Z</time>
      </trkpt>
      <trkpt lat="43.53794" lon="5.53896">
        <ele>369.6</ele>
        <time>2023-05-28T07:49:28Z</time>
      </trkpt>
      <trkpt lat="43.53793" lon="5.53896">
        <ele>369.7</ele>
        <time>2023-05-28T07:49:29Z</time>
      </trkpt>
      <trkpt lat="43.53792" lon="5.53897">
        <ele>369.9</ele>
        <time>2023-05-28T07:49:30Z</time>
      </trkpt>
      <trkpt lat="43.53791" lon="5.53898">
        <ele>370</ele>
        <time>2023-05-28T07:49:31Z</time>
      </trkpt>
      <trkpt lat="43.5379" lon="5.53899">
        <ele>370.1</ele>
        <time>2023-05-28T07:49:32Z</time>
      </trkpt>
      <trkpt lat="43.53789" lon="5.539">
        <ele>370.2</ele>
        <time>2023-05-28T07:49:33Z</time>
      </trkpt>
      <trkpt lat="43.53788" lon="5.53901">
        <ele>370.3</ele>
        <time>2023-05-28T07:49:34Z</time>
      </trkpt>
      <trkpt lat="43.53787" lon="5.53902">
        <ele>370.4</ele>
        <time>2023-05-28T07:49:35Z</time>
      </trkpt>
      <trkpt lat="43.53787" lon="5.53903">
        <ele>370.5</ele>
        <time>2023-05-28T07:49:36Z</time>
      </trkpt>
      <trkpt lat="43.53786" lon="5.53904">
        <ele>370.6</ele>
        <time>2023-05-28T07:49:37Z</time>
      </trkpt>
      <trkpt lat="43.53786" lon="5.53904">
        <ele>370.7</ele>
        <time>2023-05-28T07:49:38Z</time>
      </trkpt>
      <trkpt lat="43.53785" lon="5.53905">
        <ele>371</ele>
        <time>2023-05-28T07:49:39Z</time>
      </trkpt>
      <trkpt lat="43.53783" lon="5.53905">
        <ele>371.1</ele>
        <time>2023-05-28T07:49:40Z</time>
      </trkpt>
      <trkpt lat="43.53783" lon="5.53907">
        <ele>371.2</ele>
        <time>2023-05-28T07:49:41Z</time>
      </trkpt>
      <trkpt lat="43.53782" lon="5.53907">
        <ele>371.3</ele>
        <time>2023-05-28T07:49:42Z</time>
      </trkpt>
      <trkpt lat="43.53781" lon="5.53908">
        <ele>371.3</ele>
        <time>2023-05-28T07:49:43Z</time>
      </trkpt>
      <trkpt lat="43.5378" lon="5.53909">
        <ele>371.4</ele>
        <time>2023-05-28T07:49:44Z</time>
      </trkpt>
      <trkpt lat="43.5378" lon="5.5391">
        <ele>371.5</ele>
        <time>2023-05-28T07:49:45Z</time>
      </trkpt>
      <trkpt lat="43.53779" lon="5.53911">
        <ele>371.6</ele>
        <time>2023-05-28T07:49:46Z</time>
      </trkpt>
      <trkpt lat="43.53778" lon="5.53913">
        <ele>371.7</ele>
        <time>2023-05-28T07:49:47Z</time>
      </trkpt>
      <trkpt lat="43.53778" lon="5.53914">
        <ele>372</ele>
        <time>2023-05-28T07:49:48Z</time>
      </trkpt>
      <trkpt lat="43.53777" lon="5.53914">
        <ele>372.2</ele>
        <time>2023-05-28T07:49:49Z</time>
      </trkpt>
      <trkpt lat="43.53777" lon="5.53915">
        <ele>372.4</ele>
        <time>2023-05-28T07:49:50Z</time>
      </trkpt>
      <trkpt lat="43.53776" lon="5.53917">
        <ele>372.5</ele>
        <time>2023-05-28T07:49:51Z</time>
      </trkpt>
      <trkpt lat="43.53774" lon="5.53918">
        <ele>372.6</ele>
        <time>2023-05-28T07:49:52Z</time>
      </trkpt>
      <trkpt lat="43.53773" lon="5.5392">
        <ele>372.8</ele>
        <time>2023-05-28T07:49:53Z</time>
      </trkpt>
      <trkpt lat="43.53772" lon="5.53921">
        <ele>373</ele>
        <time>2023-05-28T07:49:54Z</time>
      </trkpt>
      <trkpt lat="43.53772" lon="5.53923">
        <ele>373.1</ele>
        <time>2023-05-28T07:49:55Z</time>
      </trkpt>
      <trkpt lat="43.53772" lon="5.53923">
        <ele>373.1</ele>
        <time>2023-05-28T07:49:56Z</time>
      </trkpt>
      <trkpt lat="43.53771" lon="5.53925">
        <ele>373.1</ele>
        <time>2023-05-28T07:49:57Z</time>
      </trkpt>
      <trkpt lat="43.5377" lon="5.53926">
        <ele>373.3</ele>
        <time>2023-05-28T07:49:58Z</time>
      </trkpt>
      <trkpt lat="43.5377" lon="5.53927">
        <ele>373.5</ele>
        <time>2023-05-28T07:49:59Z</time>
      </trkpt>
      <trkpt lat="43.53768" lon="5.53928">
        <ele>373.6</ele>
        <time>2023-05-28T07:50:00Z</time>
      </trkpt>
      <trkpt lat="43.53767" lon="5.53929">
        <ele>373.7</ele>
        <time>2023-05-28T07:50:01Z</time>
      </trkpt>
      <trkpt lat="43.53767" lon="5.53931">
        <ele>373.8</ele>
        <time>2023-05-28T07:50:02Z</time>
      </trkpt>
      <trkpt lat="43.53766" lon="5.53932">
        <ele>373.9</ele>
        <time>2023-05-28T07:50:03Z</time>
      </trkpt>
      <trkpt lat="43.53765" lon="5.53933">
        <ele>374</ele>
        <time>2023-05-28T07:50:04Z</time>
      </trkpt>
      <trkpt lat="43.53764" lon="5.53934">
        <ele>374</ele>
        <time>2023-05-28T07:50:05Z</time>
      </trkpt>
      <trkpt lat="43.53764" lon="5.53936">
        <ele>374.1</ele>
        <time>2023-05-28T07:50:06Z</time>
      </trkpt>
      <trkpt lat="43.53763" lon="5.53937">
        <ele>374.1</ele>
        <time>2023-05-28T07:50:07Z</time>
      </trkpt>
      <trkpt lat="43.53763" lon="5.53938">
        <ele>374.3</ele>
        <time>2023-05-28T07:50:08Z</time>
      </trkpt>
      <trkpt lat="43.53763" lon="5.53939">
        <ele>374.4</ele>
        <time>2023-05-28T07:50:09Z</time>
      </trkpt>
      <trkpt lat="43.53761" lon="5.5394">
        <ele>374.5</ele>
        <time>2023-05-28T07:50:10Z</time>
      </trkpt>
      <trkpt lat="43.53759" lon="5.53943">
        <ele>374.6</ele>
        <time>2023-05-28T07:50:11Z</time>
      </trkpt>
      <trkpt lat="43.53758" lon="5.53944">
        <ele>374.7</ele>
        <time>2023-05-28T07:50:12Z</time>
      </trkpt>
      <trkpt lat="43.53757" lon="5.53946">
        <ele>374.8</ele>
        <time>2023-05-28T07:50:13Z</time>
      </trkpt>
      <trkpt lat="43.53757" lon="5.53948">
        <ele>374.8</ele>
        <time>2023-05-28T07:50:14Z</time>
      </trkpt>
      <trkpt lat="43.53756" lon="5.5395">
        <ele>374.9</ele>
        <time>2023-05-28T07:50:15Z</time>
      </trkpt>
      <trkpt lat="43.53755" lon="5.53951">
        <ele>374.9</ele>
        <time>2023-05-28T07:50:16Z</time>
      </trkpt>
      <trkpt lat="43.53754" lon="5.53952">
        <ele>374.9</ele>
        <time>2023-05-28T07:50:17Z</time>
      </trkpt>
      <trkpt lat="43.53753" lon="5.53953">
        <ele>374.9</ele>
        <time>2023-05-28T07:50:18Z</time>
      </trkpt>
      <trkpt lat="43.53752" lon="5.53954">
        <ele>375</ele>
        <time>2023-05-28T07:50:19Z</time>
      </trkpt>
      <trkpt lat="43.53751" lon="5.53955">
        <ele>375.1</ele>
        <time>2023-05-28T07:50:20Z</time>
      </trkpt>
      <trkpt lat="43.5375" lon="5.53957">
        <ele>375.2</ele>
        <time>2023-05-28T07:50:21Z</time>
      </trkpt>
      <trkpt lat="43.5375" lon="5.53958">
        <ele>375.2</ele>
        <time>2023-05-28T07:50:22Z</time>
      </trkpt>
      <trkpt lat="43.53749" lon="5.53959">
        <ele>375.2</ele>
        <time>2023-05-28T07:50:23Z</time>
      </trkpt>
      <trkpt lat="43.53748" lon="5.5396">
        <ele>375.3</ele>
        <time>2023-05-28T07:50:24Z</time>
      </trkpt>
      <trkpt lat="43.53747" lon="5.5396">
        <ele>375.3</ele>
        <time>2023-05-28T07:50:25Z</time>
      </trkpt>
      <trkpt lat="43.53746" lon="5.53961">
        <ele>375.2</ele>
        <time>2023-05-28T07:50:26Z</time>
      </trkpt>
      <trkpt lat="43.53745" lon="5.53962">
        <ele>375.1</ele>
        <time>2023-05-28T07:50:27Z</time>
      </trkpt>
      <trkpt lat="43.53744" lon="5.53963">
        <ele>375.1</ele>
        <time>2023-05-28T07:50:28Z</time>
      </trkpt>
      <trkpt lat="43.53743" lon="5.53964">
        <ele>375</ele>
        <time>2023-05-28T07:50:29Z</time>
      </trkpt>
      <trkpt lat="43.53742" lon="5.53965">
        <ele>375</ele>
        <time>2023-05-28T07:50:30Z</time>
      </trkpt>
      <trkpt lat="43.53742" lon="5.53966">
        <ele>375</ele>
        <time>2023-05-28T07:50:31Z</time>
      </trkpt>
      <trkpt lat="43.53741" lon="5.53967">
        <ele>375</ele>
        <time>2023-05-28T07:50:32Z</time>
      </trkpt>
      <trkpt lat="43.5374" lon="5.53969">
        <ele>375</ele>
        <time>2023-05-28T07:50:33Z</time>
      </trkpt>
      <trkpt lat="43.5374" lon="5.5397">
        <ele>375</ele>
        <time>2023-05-28T07:50:34Z</time>
      </trkpt>
      <trkpt lat="43.53739" lon="5.53971">
        <ele>375</ele>
        <time>2023-05-28T07:50:35Z</time>
      </trkpt>
      <trkpt lat="43.53737" lon="5.53973">
        <ele>374.9</ele>
        <time>2023-05-28T07:50:36Z</time>
      </trkpt>
      <trkpt lat="43.53736" lon="5.53974">
        <ele>374.9</ele>
        <time>2023-05-28T07:50:37Z</time>
      </trkpt>
      <trkpt lat="43.53735" lon="5.53975">
        <ele>374.9</ele>
        <time>2023-05-28T07:50:38Z</time>
      </trkpt>
      <trkpt lat="43.53735" lon="5.53976">
        <ele>374.9</ele>
        <time>2023-05-28T07:50:39Z</time>
      </trkpt>
      <trkpt lat="43.53734" lon="5.53977">
        <ele>375</ele>
        <time>2023-05-28T07:50:40Z</time>
      </trkpt>
      <trkpt lat="43.53733" lon="5.53978">
        <ele>375</ele>
        <time>2023-05-28T07:50:41Z</time>
      </trkpt>
      <trkpt lat="43.53732" lon="5.53979">
        <ele>374.9</ele>
        <time>2023-05-28T07:50:42Z</time>
      </trkpt>
      <trkpt lat="43.53731" lon="5.5398">
        <ele>374.8</ele>
        <time>2023-05-28T07:50:43Z</time>
      </trkpt>
      <trkpt lat="43.5373" lon="5.53981">
        <ele>374.8</ele>
        <time>2023-05-28T07:50:44Z</time>
      </trkpt>
      <trkpt lat="43.53729" lon="5.53982">
        <ele>374.7</ele>
        <time>2023-05-28T07:50:45Z</time>
      </trkpt>
      <trkpt lat="43.53728" lon="5.53984">
        <ele>374.8</ele>
        <time>2023-05-28T07:50:46Z</time>
      </trkpt>
      <trkpt lat="43.53728" lon="5.53985">
        <ele>374.7</ele>
        <time>2023-05-28T07:50:47Z</time>
      </trkpt>
      <trkpt lat="43.53727" lon="5.53987">
        <ele>374.6</ele>
        <time>2023-05-28T07:50:48Z</time>
      </trkpt>
      <trkpt lat="43.53726" lon="5.53988">
        <ele>374.6</ele>
        <time>2023-05-28T07:50:49Z</time>
      </trkpt>
      <trkpt lat="43.53726" lon="5.53989">
        <ele>374.5</ele>
        <time>2023-05-28T07:50:50Z</time>
      </trkpt>
      <trkpt lat="43.53725" lon="5.53989">
        <ele>374.5</ele>
        <time>2023-05-28T07:50:51Z</time>
      </trkpt>
      <trkpt lat="43.53725" lon="5.53991">
        <ele>374.5</ele>
        <time>2023-05-28T07:50:52Z</time>
      </trkpt>
      <trkpt lat="43.53724" lon="5.53992">
        <ele>374.5</ele>
        <time>2023-05-28T07:50:53Z</time>
      </trkpt>
      <trkpt lat="43.53722" lon="5.53992">
        <ele>374.5</ele>
        <time>2023-05-28T07:50:54Z</time>
      </trkpt>
      <trkpt lat="43.53722" lon="5.53993">
        <ele>374.4</ele>
        <time>2023-05-28T07:50:55Z</time>
      </trkpt>
      <trkpt lat="43.53721" lon="5.53995">
        <ele>374.4</ele>
        <time>2023-05-28T07:50:56Z</time>
      </trkpt>
      <trkpt lat="43.5372" lon="5.53996">
        <ele>374.2</ele>
        <time>2023-05-28T07:50:57Z</time>
      </trkpt>
      <trkpt lat="43.53719" lon="5.53998">
        <ele>374.2</ele>
        <time>2023-05-28T07:50:58Z</time>
      </trkpt>
      <trkpt lat="43.53718" lon="5.54">
        <ele>374.1</ele>
        <time>2023-05-28T07:50:59Z</time>
      </trkpt>
      <trkpt lat="43.53717" lon="5.54001">
        <ele>374.2</ele>
        <time>2023-05-28T07:51:00Z</time>
      </trkpt>
      <trkpt lat="43.53716" lon="5.54002">
        <ele>374.1</ele>
        <time>2023-05-28T07:51:01Z</time>
      </trkpt>
      <trkpt lat="43.53715" lon="5.54004">
        <ele>374.1</ele>
        <time>2023-05-28T07:51:02Z</time>
      </trkpt>
      <trkpt lat="43.53714" lon="5.54005">
        <ele>374.1</ele>
        <time>2023-05-28T07:51:03Z</time>
      </trkpt>
      <trkpt lat="43.53713" lon="5.54005">
        <ele>374.1</ele>
        <time>2023-05-28T07:51:04Z</time>
      </trkpt>
      <trkpt lat="43.53712" lon="5.54006">
        <ele>374</ele>
        <time>2023-05-28T07:51:05Z</time>
      </trkpt>
      <trkpt lat="43.53711" lon="5.54006">
        <ele>374</ele>
        <time>2023-05-28T07:51:06Z</time>
      </trkpt>
      <trkpt lat="43.53711" lon="5.54007">
        <ele>374</ele>
        <time>2023-05-28T07:51:07Z</time>
      </trkpt>
      <trkpt lat="43.53709" lon="5.54008">
        <ele>373.9</ele>
        <time>2023-05-28T07:51:08Z</time>
      </trkpt>
      <trkpt lat="43.53708" lon="5.5401">
        <ele>373.9</ele>
        <time>2023-05-28T07:51:09Z</time>
      </trkpt>
      <trkpt lat="43.53708" lon="5.54012">
        <ele>373.9</ele>
        <time>2023-05-28T07:51:10Z</time>
      </trkpt>
      <trkpt lat="43.53707" lon="5.54014">
        <ele>373.9</ele>
        <time>2023-05-28T07:51:11Z</time>
      </trkpt>
      <trkpt lat="43.53707" lon="5.54017">
        <ele>373.9</ele>
        <time>2023-05-28T07:51:12Z</time>
      </trkpt>
      <trkpt lat="43.53707" lon="5.54018">
        <ele>373.9</ele>
        <time>2023-05-28T07:51:13Z</time>
      </trkpt>
      <trkpt lat="43.53707" lon="5.5402">
        <ele>373.9</ele>
        <time>2023-05-28T07:51:14Z</time>
      </trkpt>
      <trkpt lat="43.53707" lon="5.54021">
        <ele>373.9</ele>
        <time>2023-05-28T07:51:15Z</time>
      </trkpt>
      <trkpt lat="43.53707" lon="5.54022">
        <ele>374</ele>
        <time>2023-05-28T07:51:16Z</time>
      </trkpt>
      <trkpt lat="43.53706" lon="5.54023">
        <ele>374.1</ele>
        <time>2023-05-28T07:51:17Z</time>
      </trkpt>
      <trkpt lat="43.53706" lon="5.54025">
        <ele>374.1</ele>
        <time>2023-05-28T07:51:18Z</time>
      </trkpt>
      <trkpt lat="43.53707" lon="5.54027">
        <ele>374.2</ele>
        <time>2023-05-28T07:51:19Z</time>
      </trkpt>
      <trkpt lat="43.53707" lon="5.54029">
        <ele>374.3</ele>
        <time>2023-05-28T07:51:20Z</time>
      </trkpt>
      <trkpt lat="43.53707" lon="5.54031">
        <ele>374.3</ele>
        <time>2023-05-28T07:51:21Z</time>
      </trkpt>
      <trkpt lat="43.53707" lon="5.54032">
        <ele>374.4</ele>
        <time>2023-05-28T07:51:22Z</time>
      </trkpt>
      <trkpt lat="43.53707" lon="5.54034">
        <ele>374.4</ele>
        <time>2023-05-28T07:51:23Z</time>
      </trkpt>
      <trkpt lat="43.53707" lon="5.54036">
        <ele>374.4</ele>
        <time>2023-05-28T07:51:24Z</time>
      </trkpt>
      <trkpt lat="43.53706" lon="5.54037">
        <ele>374.5</ele>
        <time>2023-05-28T07:51:25Z</time>
      </trkpt>
      <trkpt lat="43.53706" lon="5.54039">
        <ele>374.5</ele>
        <time>2023-05-28T07:51:26Z</time>
      </trkpt>
      <trkpt lat="43.53706" lon="5.54041">
        <ele>374.6</ele>
        <time>2023-05-28T07:51:27Z</time>
      </trkpt>
      <trkpt lat="43.53707" lon="5.54042">
        <ele>374.7</ele>
        <time>2023-05-28T07:51:28Z</time>
      </trkpt>
      <trkpt lat="43.53707" lon="5.54044">
        <ele>374.7</ele>
        <time>2023-05-28T07:51:29Z</time>
      </trkpt>
      <trkpt lat="43.53707" lon="5.54045">
        <ele>374.6</ele>
        <time>2023-05-28T07:51:30Z</time>
      </trkpt>
      <trkpt lat="43.53706" lon="5.54047">
        <ele>374.6</ele>
        <time>2023-05-28T07:51:31Z</time>
      </trkpt>
      <trkpt lat="43.53706" lon="5.54048">
        <ele>374.5</ele>
        <time>2023-05-28T07:51:32Z</time>
      </trkpt>
      <trkpt lat="43.53706" lon="5.5405">
        <ele>374.5</ele>
        <time>2023-05-28T07:51:33Z</time>
      </trkpt>
      <trkpt lat="43.53706" lon="5.54051">
        <ele>374.5</ele>
        <time>2023-05-28T07:51:34Z</time>
      </trkpt>
      <trkpt lat="43.53706" lon="5.54052">
        <ele>374.5</ele>
        <time>2023-05-28T07:51:35Z</time>
      </trkpt>
      <trkpt lat="43.53706" lon="5.54053">
        <ele>374.5</ele>
        <time>2023-05-28T07:51:36Z</time>
      </trkpt>
      <trkpt lat="43.53705" lon="5.54054">
        <ele>374.5</ele>
        <time>2023-05-28T07:51:37Z</time>
      </trkpt>
      <trkpt lat="43.53705" lon="5.54056">
        <ele>374.5</ele>
        <time>2023-05-28T07:51:38Z</time>
      </trkpt>
      <trkpt lat="43.53705" lon="5.54058">
        <ele>374.4</ele>
        <time>2023-05-28T07:51:39Z</time>
      </trkpt>
      <trkpt lat="43.53705" lon="5.54059">
        <ele>374.3</ele>
        <time>2023-05-28T07:51:40Z</time>
      </trkpt>
      <trkpt lat="43.53705" lon="5.5406">
        <ele>374.2</ele>
        <time>2023-05-28T07:51:41Z</time>
      </trkpt>
      <trkpt lat="43.53705" lon="5.54061">
        <ele>374.1</ele>
        <time>2023-05-28T07:51:42Z</time>
      </trkpt>
      <trkpt lat="43.53705" lon="5.54062">
        <ele>374.1</ele>
        <time>2023-05-28T07:51:43Z</time>
      </trkpt>
      <trkpt lat="43.53704" lon="5.54063">
        <ele>374</ele>
        <time>2023-05-28T07:51:44Z</time>
      </trkpt>
      <trkpt lat="43.53704" lon="5.54065">
        <ele>374</ele>
        <time>2023-05-28T07:51:45Z</time>
      </trkpt>
      <trkpt lat="43.53704" lon="5.54066">
        <ele>373.8</ele>
        <time>2023-05-28T07:51:46Z</time>
      </trkpt>
      <trkpt lat="43.53705" lon="5.54067">
        <ele>373.8</ele>
        <time>2023-05-28T07:51:47Z</time>
      </trkpt>
      <trkpt lat="43.53706" lon="5.54067">
        <ele>373.8</ele>
        <time>2023-05-28T07:51:48Z</time>
      </trkpt>
      <trkpt lat="43.53706" lon="5.54067">
        <ele>373.7</ele>
        <time>2023-05-28T07:51:49Z</time>
      </trkpt>
      <trkpt lat="43.53707" lon="5.54068">
        <ele>373.7</ele>
        <time>2023-05-28T07:51:50Z</time>
      </trkpt>
      <trkpt lat="43.53707" lon="5.54069">
        <ele>373.5</ele>
        <time>2023-05-28T07:51:51Z</time>
      </trkpt>
      <trkpt lat="43.53707" lon="5.5407">
        <ele>373.3</ele>
        <time>2023-05-28T07:51:52Z</time>
      </trkpt>
      <trkpt lat="43.53707" lon="5.54071">
        <ele>373.2</ele>
        <time>2023-05-28T07:51:53Z</time>
      </trkpt>
      <trkpt lat="43.53706" lon="5.54072">
        <ele>373.1</ele>
        <time>2023-05-28T07:51:54Z</time>
      </trkpt>
      <trkpt lat="43.53706" lon="5.54073">
        <ele>373</ele>
        <time>2023-05-28T07:51:55Z</time>
      </trkpt>
      <trkpt lat="43.53705" lon="5.54074">
        <ele>372.8</ele>
        <time>2023-05-28T07:51:56Z</time>
      </trkpt>
      <trkpt lat="43.53705" lon="5.54074">
        <ele>372.6</ele>
        <time>2023-05-28T07:51:57Z</time>
      </trkpt>
      <trkpt lat="43.53704" lon="5.54075">
        <ele>372.4</ele>
        <time>2023-05-28T07:51:58Z</time>
      </trkpt>
      <trkpt lat="43.53704" lon="5.54076">
        <ele>372.3</ele>
        <time>2023-05-28T07:51:59Z</time>
      </trkpt>
      <trkpt lat="43.53703" lon="5.54077">
        <ele>372.1</ele>
        <time>2023-05-28T07:52:00Z</time>
      </trkpt>
      <trkpt lat="43.53703" lon="5.54078">
        <ele>372</ele>
        <time>2023-05-28T07:52:01Z</time>
      </trkpt>
      <trkpt lat="43.53702" lon="5.54079">
        <ele>371.9</ele>
        <time>2023-05-28T07:52:02Z</time>
      </trkpt>
      <trkpt lat="43.53702" lon="5.54079">
        <ele>371.8</ele>
        <time>2023-05-28T07:52:03Z</time>
      </trkpt>
      <trkpt lat="43.53702" lon="5.5408">
        <ele>371.6</ele>
        <time>2023-05-28T07:52:04Z</time>
      </trkpt>
      <trkpt lat="43.53701" lon="5.5408">
        <ele>371.5</ele>
        <time>2023-05-28T07:52:05Z</time>
      </trkpt>
      <trkpt lat="43.53701" lon="5.54081">
        <ele>371.4</ele>
        <time>2023-05-28T07:52:06Z</time>
      </trkpt>
      <trkpt lat="43.53701" lon="5.54081">
        <ele>371.2</ele>
        <time>2023-05-28T07:52:07Z</time>
      </trkpt>
      <trkpt lat="43.537" lon="5.54082">
        <ele>371</ele>
        <time>2023-05-28T07:52:08Z</time>
      </trkpt>
      <trkpt lat="43.537" lon="5.54083">
        <ele>370.9</ele>
        <time>2023-05-28T07:52:09Z</time>
      </trkpt>
      <trkpt lat="43.537" lon="5.54084">
        <ele>370.7</ele>
        <time>2023-05-28T07:52:10Z</time>
      </trkpt>
      <trkpt lat="43.537" lon="5.54085">
        <ele>370.5</ele>
        <time>2023-05-28T07:52:11Z</time>
      </trkpt>
      <trkpt lat="43.537" lon="5.54085">
        <ele>370.4</ele>
        <time>2023-05-28T07:52:12Z</time>
      </trkpt>
      <trkpt lat="43.53699" lon="5.54086">
        <ele>370.2</ele>
        <time>2023-05-28T07:52:13Z</time>
      </trkpt>
      <trkpt lat="43.53699" lon="5.54087">
        <ele>370</ele>
        <time>2023-05-28T07:52:14Z</time>
      </trkpt>
      <trkpt lat="43.53699" lon="5.54088">
        <ele>369.9</ele>
        <time>2023-05-28T07:52:15Z</time>
      </trkpt>
      <trkpt lat="43.53698" lon="5.54089">
        <ele>369.7</ele>
        <time>2023-05-28T07:52:16Z</time>
      </trkpt>
      <trkpt lat="43.53698" lon="5.5409">
        <ele>369.5</ele>
        <time>2023-05-28T07:52:17Z</time>
      </trkpt>
      <trkpt lat="43.53697" lon="5.54091">
        <ele>369.4</ele>
        <time>2023-05-28T07:52:18Z</time>
      </trkpt>
      <trkpt lat="43.53696" lon="5.54091">
        <ele>369.3</ele>
        <time>2023-05-28T07:52:19Z</time>
      </trkpt>
      <trkpt lat="43.53696" lon="5.54092">
        <ele>369</ele>
        <time>2023-05-28T07:52:20Z</time>
      </trkpt>
      <trkpt lat="43.53695" lon="5.54093">
        <ele>368.8</ele>
        <time>2023-05-28T07:52:21Z</time>
      </trkpt>
      <trkpt lat="43.53694" lon="5.54094">
        <ele>368.7</ele>
        <time>2023-05-28T07:52:22Z</time>
      </trkpt>
      <trkpt lat="43.53694" lon="5.54094">
        <ele>368.6</ele>
        <time>2023-05-28T07:52:23Z</time>
      </trkpt>
      <trkpt lat="43.53694" lon="5.54094">
        <ele>368.3</ele>
        <time>2023-05-28T07:52:24Z</time>
      </trkpt>
      <trkpt lat="43.53694" lon="5.54094">
        <ele>368.2</ele>
        <time>2023-05-28T07:52:25Z</time>
      </trkpt>
      <trkpt lat="43.53694" lon="5.54095">
        <ele>368.2</ele>
        <time>2023-05-28T07:52:26Z</time>
      </trkpt>
      <trkpt lat="43.53693" lon="5.54095">
        <ele>368.2</ele>
        <time>2023-05-28T07:52:27Z</time>
      </trkpt>
      <trkpt lat="43.53693" lon="5.54095">
        <ele>368.1</ele>
        <time>2023-05-28T07:52:28Z</time>
      </trkpt>
      <trkpt lat="43.53693" lon="5.54095">
        <ele>368.1</ele>
        <time>2023-05-28T07:52:29Z</time>
      </trkpt>
      <trkpt lat="43.53693" lon="5.54096">
        <ele>367.9</ele>
        <time>2023-05-28T07:52:30Z</time>
      </trkpt>
      <trkpt lat="43.53694" lon="5.54097">
        <ele>367.7</ele>
        <time>2023-05-28T07:52:31Z</time>
      </trkpt>
      <trkpt lat="43.53695" lon="5.54097">
        <ele>367.5</ele>
        <time>2023-05-28T07:52:32Z</time>
      </trkpt>
      <trkpt lat="43.53695" lon="5.54098">
        <ele>367.4</ele>
        <time>2023-05-28T07:52:33Z</time>
      </trkpt>
      <trkpt lat="43.53695" lon="5.54099">
        <ele>367.3</ele>
        <time>2023-05-28T07:52:34Z</time>
      </trkpt>
      <trkpt lat="43.53694" lon="5.541">
        <ele>367.1</ele>
        <time>2023-05-28T07:52:35Z</time>
      </trkpt>
      <trkpt lat="43.53694" lon="5.54101">
        <ele>366.9</ele>
        <time>2023-05-28T07:52:36Z</time>
      </trkpt>
      <trkpt lat="43.53693" lon="5.54101">
        <ele>366.8</ele>
        <time>2023-05-28T07:52:37Z</time>
      </trkpt>
      <trkpt lat="43.53692" lon="5.54102">
        <ele>366.7</ele>
        <time>2023-05-28T07:52:38Z</time>
      </trkpt>
      <trkpt lat="43.53692" lon="5.54102">
        <ele>366.5</ele>
        <time>2023-05-28T07:52:39Z</time>
      </trkpt>
      <trkpt lat="43.53692" lon="5.54103">
        <ele>366.3</ele>
        <time>2023-05-28T07:52:40Z</time>
      </trkpt>
      <trkpt lat="43.53692" lon="5.54103">
        <ele>366.2</ele>
        <time>2023-05-28T07:52:41Z</time>
      </trkpt>
      <trkpt lat="43.53691" lon="5.54105">
        <ele>366.1</ele>
        <time>2023-05-28T07:52:42Z</time>
      </trkpt>
      <trkpt lat="43.53691" lon="5.54105">
        <ele>366</ele>
        <time>2023-05-28T07:52:43Z</time>
      </trkpt>
      <trkpt lat="43.5369" lon="5.54106">
        <ele>366</ele>
        <time>2023-05-28T07:52:44Z</time>
      </trkpt>
      <trkpt lat="43.5369" lon="5.54107">
        <ele>365.9</ele>
        <time>2023-05-28T07:52:45Z</time>
      </trkpt>
      <trkpt lat="43.5369" lon="5.54107">
        <ele>365.8</ele>
        <time>2023-05-28T07:52:46Z</time>
      </trkpt>
      <trkpt lat="43.5369" lon="5.54107">
        <ele>365.7</ele>
        <time>2023-05-28T07:52:47Z</time>
      </trkpt>
      <trkpt lat="43.53689" lon="5.54108">
        <ele>365.6</ele>
        <time>2023-05-28T07:52:48Z</time>
      </trkpt>
      <trkpt lat="43.53689" lon="5.54109">
        <ele>365.5</ele>
        <time>2023-05-28T07:52:49Z</time>
      </trkpt>
      <trkpt lat="43.53689" lon="5.5411">
        <ele>365.3</ele>
        <time>2023-05-28T07:52:50Z</time>
      </trkpt>
      <trkpt lat="43.53689" lon="5.5411">
        <ele>365.2</ele>
        <time>2023-05-28T07:52:51Z</time>
      </trkpt>
      <trkpt lat="43.53689" lon="5.54111">
        <ele>365.1</ele>
        <time>2023-05-28T07:52:52Z</time>
      </trkpt>
      <trkpt lat="43.53689" lon="5.54112">
        <ele>364.9</ele>
        <time>2023-05-28T07:52:53Z</time>
      </trkpt>
      <trkpt lat="43.53689" lon="5.54113">
        <ele>364.8</ele>
        <time>2023-05-28T07:52:54Z</time>
      </trkpt>
      <trkpt lat="43.53689" lon="5.54114">
        <ele>364.7</ele>
        <time>2023-05-28T07:52:55Z</time>
      </trkpt>
      <trkpt lat="43.53688" lon="5.54114">
        <ele>364.5</ele>
        <time>2023-05-28T07:52:56Z</time>
      </trkpt>
      <trkpt lat="43.53687" lon="5.54115">
        <ele>364.3</ele>
        <time>2023-05-28T07:52:57Z</time>
      </trkpt>
      <trkpt lat="43.53687" lon="5.54116">
        <ele>364.1</ele>
        <time>2023-05-28T07:52:58Z</time>
      </trkpt>
      <trkpt lat="43.53686" lon="5.54117">
        <ele>364</ele>
        <time>2023-05-28T07:52:59Z</time>
      </trkpt>
      <trkpt lat="43.53686" lon="5.54119">
        <ele>363.8</ele>
        <time>2023-05-28T07:53:00Z</time>
      </trkpt>
      <trkpt lat="43.53685" lon="5.5412">
        <ele>363.6</ele>
        <time>2023-05-28T07:53:01Z</time>
      </trkpt>
      <trkpt lat="43.53685" lon="5.54121">
        <ele>363.5</ele>
        <time>2023-05-28T07:53:02Z</time>
      </trkpt>
      <trkpt lat="43.53684" lon="5.54122">
        <ele>363.4</ele>
        <time>2023-05-28T07:53:03Z</time>
      </trkpt>
      <trkpt lat="43.53684" lon="5.54124">
        <ele>363.2</ele>
        <time>2023-05-28T07:53:04Z</time>
      </trkpt>
      <trkpt lat="43.53683" lon="5.54125">
        <ele>363.1</ele>
        <time>2023-05-28T07:53:05Z</time>
      </trkpt>
      <trkpt lat="43.53682" lon="5.54126">
        <ele>362.9</ele>
        <time>2023-05-28T07:53:06Z</time>
      </trkpt>
      <trkpt lat="43.5368" lon="5.54127">
        <ele>362.8</ele>
        <time>2023-05-28T07:53:07Z</time>
      </trkpt>
      <trkpt lat="43.53679" lon="5.54128">
        <ele>362.6</ele>
        <time>2023-05-28T07:53:08Z</time>
      </trkpt>
      <trkpt lat="43.53678" lon="5.54129">
        <ele>362.5</ele>
        <time>2023-05-28T07:53:09Z</time>
      </trkpt>
      <trkpt lat="43.53678" lon="5.54129">
        <ele>362.3</ele>
        <time>2023-05-28T07:53:10Z</time>
      </trkpt>
      <trkpt lat="43.53677" lon="5.5413">
        <ele>362.2</ele>
        <time>2023-05-28T07:53:11Z</time>
      </trkpt>
      <trkpt lat="43.53676" lon="5.54131">
        <ele>362</ele>
        <time>2023-05-28T07:53:12Z</time>
      </trkpt>
      <trkpt lat="43.53676" lon="5.54132">
        <ele>362</ele>
        <time>2023-05-28T07:53:13Z</time>
      </trkpt>
      <trkpt lat="43.53676" lon="5.54133">
        <ele>361.9</ele>
        <time>2023-05-28T07:53:14Z</time>
      </trkpt>
      <trkpt lat="43.53675" lon="5.54134">
        <ele>361.8</ele>
        <time>2023-05-28T07:53:15Z</time>
      </trkpt>
      <trkpt lat="43.53675" lon="5.54134">
        <ele>361.8</ele>
        <time>2023-05-28T07:53:16Z</time>
      </trkpt>
      <trkpt lat="43.53674" lon="5.54134">
        <ele>361.8</ele>
        <time>2023-05-28T07:53:17Z</time>
      </trkpt>
      <trkpt lat="43.53674" lon="5.54135">
        <ele>361.8</ele>
        <time>2023-05-28T07:53:18Z</time>
      </trkpt>
      <trkpt lat="43.53674" lon="5.54135">
        <ele>361.9</ele>
        <time>2023-05-28T07:53:19Z</time>
      </trkpt>
      <trkpt lat="43.53673" lon="5.54135">
        <ele>361.8</ele>
        <time>2023-05-28T07:53:20Z</time>
      </trkpt>
      <trkpt lat="43.53673" lon="5.54135">
        <ele>361.8</ele>
        <time>2023-05-28T07:53:21Z</time>
      </trkpt>
      <trkpt lat="43.53673" lon="5.54135">
        <ele>361.8</ele>
        <time>2023-05-28T07:53:22Z</time>
      </trkpt>
      <trkpt lat="43.53673" lon="5.54135">
        <ele>361.7</ele>
        <time>2023-05-28T07:53:23Z</time>
      </trkpt>
      <trkpt lat="43.53672" lon="5.54135">
        <ele>361.7</ele>
        <time>2023-05-28T07:53:24Z</time>
      </trkpt>
      <trkpt lat="43.53672" lon="5.54135">
        <ele>361.6</ele>
        <time>2023-05-28T07:53:25Z</time>
      </trkpt>
      <trkpt lat="43.53672" lon="5.54136">
        <ele>361.6</ele>
        <time>2023-05-28T07:53:26Z</time>
      </trkpt>
      <trkpt lat="43.53672" lon="5.54137">
        <ele>361.6</ele>
        <time>2023-05-28T07:53:27Z</time>
      </trkpt>
      <trkpt lat="43.53671" lon="5.54139">
        <ele>361.6</ele>
        <time>2023-05-28T07:53:28Z</time>
      </trkpt>
      <trkpt lat="43.53671" lon="5.54139">
        <ele>361.6</ele>
        <time>2023-05-28T07:53:29Z</time>
      </trkpt>
      <trkpt lat="43.53671" lon="5.54141">
        <ele>361.6</ele>
        <time>2023-05-28T07:53:30Z</time>
      </trkpt>
      <trkpt lat="43.5367" lon="5.54142">
        <ele>361.5</ele>
        <time>2023-05-28T07:53:31Z</time>
      </trkpt>
      <trkpt lat="43.5367" lon="5.54143">
        <ele>361.4</ele>
        <time>2023-05-28T07:53:32Z</time>
      </trkpt>
      <trkpt lat="43.5367" lon="5.54144">
        <ele>361.3</ele>
        <time>2023-05-28T07:53:33Z</time>
      </trkpt>
      <trkpt lat="43.53669" lon="5.54145">
        <ele>361.2</ele>
        <time>2023-05-28T07:53:34Z</time>
      </trkpt>
      <trkpt lat="43.53669" lon="5.54146">
        <ele>361.1</ele>
        <time>2023-05-28T07:53:35Z</time>
      </trkpt>
      <trkpt lat="43.53669" lon="5.54147">
        <ele>360.9</ele>
        <time>2023-05-28T07:53:36Z</time>
      </trkpt>
      <trkpt lat="43.53669" lon="5.54147">
        <ele>360.7</ele>
        <time>2023-05-28T07:53:37Z</time>
      </trkpt>
      <trkpt lat="43.53669" lon="5.54148">
        <ele>360.7</ele>
        <time>2023-05-28T07:53:38Z</time>
      </trkpt>
      <trkpt lat="43.53668" lon="5.54149">
        <ele>360.6</ele>
        <time>2023-05-28T07:53:39Z</time>
      </trkpt>
      <trkpt lat="43.53668" lon="5.5415">
        <ele>360.4</ele>
        <time>2023-05-28T07:53:40Z</time>
      </trkpt>
      <trkpt lat="43.53668" lon="5.54151">
        <ele>360.3</ele>
        <time>2023-05-28T07:53:41Z</time>
      </trkpt>
      <trkpt lat="43.53667" lon="5.54151">
        <ele>360.2</ele>
        <time>2023-05-28T07:53:42Z</time>
      </trkpt>
      <trkpt lat="43.53667" lon="5.54151">
        <ele>360</ele>
        <time>2023-05-28T07:53:43Z</time>
      </trkpt>
      <trkpt lat="43.53667" lon="5.54152">
        <ele>359.9</ele>
        <time>2023-05-28T07:53:44Z</time>
      </trkpt>
      <trkpt lat="43.53666" lon="5.54152">
        <ele>359.8</ele>
        <time>2023-05-28T07:53:45Z</time>
      </trkpt>
      <trkpt lat="43.53666" lon="5.54153">
        <ele>359.8</ele>
        <time>2023-05-28T07:53:46Z</time>
      </trkpt>
      <trkpt lat="43.53666" lon="5.54154">
        <ele>359.7</ele>
        <time>2023-05-28T07:53:47Z</time>
      </trkpt>
      <trkpt lat="43.53665" lon="5.54155">
        <ele>359.5</ele>
        <time>2023-05-28T07:53:48Z</time>
      </trkpt>
      <trkpt lat="43.53665" lon="5.54155">
        <ele>359.5</ele>
        <time>2023-05-28T07:53:49Z</time>
      </trkpt>
      <trkpt lat="43.53665" lon="5.54156">
        <ele>359.3</ele>
        <time>2023-05-28T07:53:50Z</time>
      </trkpt>
      <trkpt lat="43.53666" lon="5.54157">
        <ele>359.2</ele>
        <time>2023-05-28T07:53:51Z</time>
      </trkpt>
      <trkpt lat="43.53666" lon="5.54158">
        <ele>359</ele>
        <time>2023-05-28T07:53:52Z</time>
      </trkpt>
      <trkpt lat="43.53665" lon="5.54159">
        <ele>358.9</ele>
        <time>2023-05-28T07:53:53Z</time>
      </trkpt>
      <trkpt lat="43.53665" lon="5.5416">
        <ele>358.8</ele>
        <time>2023-05-28T07:53:54Z</time>
      </trkpt>
      <trkpt lat="43.53664" lon="5.54162">
        <ele>358.6</ele>
        <time>2023-05-28T07:53:55Z</time>
      </trkpt>
      <trkpt lat="43.53663" lon="5.54163">
        <ele>358.6</ele>
        <time>2023-05-28T07:53:56Z</time>
      </trkpt>
      <trkpt lat="43.53662" lon="5.54164">
        <ele>358.6</ele>
        <time>2023-05-28T07:53:57Z</time>
      </trkpt>
      <trkpt lat="43.53661" lon="5.54166">
        <ele>358.6</ele>
        <time>2023-05-28T07:53:58Z</time>
      </trkpt>
      <trkpt lat="43.53661" lon="5.54167">
        <ele>358.6</ele>
        <time>2023-05-28T07:53:59Z</time>
      </trkpt>
      <trkpt lat="43.5366" lon="5.54169">
        <ele>358.5</ele>
        <time>2023-05-28T07:54:00Z</time>
      </trkpt>
      <trkpt lat="43.5366" lon="5.5417">
        <ele>358.4</ele>
        <time>2023-05-28T07:54:01Z</time>
      </trkpt>
      <trkpt lat="43.53659" lon="5.54171">
        <ele>358.3</ele>
        <time>2023-05-28T07:54:02Z</time>
      </trkpt>
      <trkpt lat="43.53658" lon="5.54172">
        <ele>358.1</ele>
        <time>2023-05-28T07:54:03Z</time>
      </trkpt>
      <trkpt lat="43.53658" lon="5.54173">
        <ele>358</ele>
        <time>2023-05-28T07:54:04Z</time>
      </trkpt>
      <trkpt lat="43.53658" lon="5.54175">
        <ele>357.9</ele>
        <time>2023-05-28T07:54:05Z</time>
      </trkpt>
      <trkpt lat="43.53657" lon="5.54176">
        <ele>357.8</ele>
        <time>2023-05-28T07:54:06Z</time>
      </trkpt>
      <trkpt lat="43.53657" lon="5.54177">
        <ele>357.7</ele>
        <time>2023-05-28T07:54:07Z</time>
      </trkpt>
      <trkpt lat="43.53657" lon="5.54179">
        <ele>357.7</ele>
        <time>2023-05-28T07:54:08Z</time>
      </trkpt>
      <trkpt lat="43.53657" lon="5.54181">
        <ele>357.6</ele>
        <time>2023-05-28T07:54:09Z</time>
      </trkpt>
      <trkpt lat="43.53657" lon="5.54182">
        <ele>357.6</ele>
        <time>2023-05-28T07:54:10Z</time>
      </trkpt>
      <trkpt lat="43.53657" lon="5.54184">
        <ele>357.4</ele>
        <time>2023-05-28T07:54:11Z</time>
      </trkpt>
      <trkpt lat="43.53656" lon="5.54187">
        <ele>357.2</ele>
        <time>2023-05-28T07:54:12Z</time>
      </trkpt>
      <trkpt lat="43.53656" lon="5.54188">
        <ele>357.2</ele>
        <time>2023-05-28T07:54:13Z</time>
      </trkpt>
      <trkpt lat="43.53656" lon="5.5419">
        <ele>357.1</ele>
        <time>2023-05-28T07:54:14Z</time>
      </trkpt>
      <trkpt lat="43.53656" lon="5.54191">
        <ele>357</ele>
        <time>2023-05-28T07:54:15Z</time>
      </trkpt>
      <trkpt lat="43.53657" lon="5.54192">
        <ele>356.7</ele>
        <time>2023-05-28T07:54:16Z</time>
      </trkpt>
      <trkpt lat="43.53658" lon="5.54193">
        <ele>356.5</ele>
        <time>2023-05-28T07:54:17Z</time>
      </trkpt>
      <trkpt lat="43.53658" lon="5.54194">
        <ele>356.4</ele>
        <time>2023-05-28T07:54:18Z</time>
      </trkpt>
      <trkpt lat="43.53659" lon="5.54195">
        <ele>356.2</ele>
        <time>2023-05-28T07:54:19Z</time>
      </trkpt>
      <trkpt lat="43.5366" lon="5.54196">
        <ele>356.1</ele>
        <time>2023-05-28T07:54:20Z</time>
      </trkpt>
      <trkpt lat="43.53659" lon="5.54197">
        <ele>355.9</ele>
        <time>2023-05-28T07:54:21Z</time>
      </trkpt>
      <trkpt lat="43.5366" lon="5.542">
        <ele>355.8</ele>
        <time>2023-05-28T07:54:22Z</time>
      </trkpt>
      <trkpt lat="43.5366" lon="5.54201">
        <ele>355.7</ele>
        <time>2023-05-28T07:54:23Z</time>
      </trkpt>
      <trkpt lat="43.5366" lon="5.54204">
        <ele>355.6</ele>
        <time>2023-05-28T07:54:24Z</time>
      </trkpt>
      <trkpt lat="43.5366" lon="5.54206">
        <ele>355.5</ele>
        <time>2023-05-28T07:54:25Z</time>
      </trkpt>
      <trkpt lat="43.5366" lon="5.54207">
        <ele>355.4</ele>
        <time>2023-05-28T07:54:26Z</time>
      </trkpt>
      <trkpt lat="43.5366" lon="5.54208">
        <ele>355.4</ele>
        <time>2023-05-28T07:54:27Z</time>
      </trkpt>
      <trkpt lat="43.5366" lon="5.5421">
        <ele>355.3</ele>
        <time>2023-05-28T07:54:28Z</time>
      </trkpt>
      <trkpt lat="43.53661" lon="5.54211">
        <ele>355.3</ele>
        <time>2023-05-28T07:54:29Z</time>
      </trkpt>
      <trkpt lat="43.53661" lon="5.54214">
        <ele>355.3</ele>
        <time>2023-05-28T07:54:30Z</time>
      </trkpt>
      <trkpt lat="43.53661" lon="5.54216">
        <ele>355.2</ele>
        <time>2023-05-28T07:54:31Z</time>
      </trkpt>
      <trkpt lat="43.53661" lon="5.54217">
        <ele>355.2</ele>
        <time>2023-05-28T07:54:32Z</time>
      </trkpt>
      <trkpt lat="43.53661" lon="5.54219">
        <ele>355.1</ele>
        <time>2023-05-28T07:54:33Z</time>
      </trkpt>
      <trkpt lat="43.53661" lon="5.54221">
        <ele>355.1</ele>
        <time>2023-05-28T07:54:34Z</time>
      </trkpt>
      <trkpt lat="43.53661" lon="5.54222">
        <ele>355.1</ele>
        <time>2023-05-28T07:54:35Z</time>
      </trkpt>
      <trkpt lat="43.53661" lon="5.54224">
        <ele>355.1</ele>
        <time>2023-05-28T07:54:36Z</time>
      </trkpt>
      <trkpt lat="43.53661" lon="5.54225">
        <ele>355.1</ele>
        <time>2023-05-28T07:54:37Z</time>
      </trkpt>
      <trkpt lat="43.53661" lon="5.54226">
        <ele>355.1</ele>
        <time>2023-05-28T07:54:38Z</time>
      </trkpt>
      <trkpt lat="43.53662" lon="5.54227">
        <ele>355.1</ele>
        <time>2023-05-28T07:54:39Z</time>
      </trkpt>
      <trkpt lat="43.53662" lon="5.54228">
        <ele>355</ele>
        <time>2023-05-28T07:54:40Z</time>
      </trkpt>
      <trkpt lat="43.53663" lon="5.54228">
        <ele>355</ele>
        <time>2023-05-28T07:54:41Z</time>
      </trkpt>
      <trkpt lat="43.53663" lon="5.54229">
        <ele>354.8</ele>
        <time>2023-05-28T07:54:42Z</time>
      </trkpt>
      <trkpt lat="43.53664" lon="5.5423">
        <ele>354.6</ele>
        <time>2023-05-28T07:54:43Z</time>
      </trkpt>
      <trkpt lat="43.53663" lon="5.54231">
        <ele>354.5</ele>
        <time>2023-05-28T07:54:44Z</time>
      </trkpt>
      <trkpt lat="43.53663" lon="5.54233">
        <ele>354.4</ele>
        <time>2023-05-28T07:54:45Z</time>
      </trkpt>
      <trkpt lat="43.53664" lon="5.54234">
        <ele>354.3</ele>
        <time>2023-05-28T07:54:46Z</time>
      </trkpt>
      <trkpt lat="43.53665" lon="5.54235">
        <ele>354.2</ele>
        <time>2023-05-28T07:54:47Z</time>
      </trkpt>
      <trkpt lat="43.53665" lon="5.54236">
        <ele>354</ele>
        <time>2023-05-28T07:54:48Z</time>
      </trkpt>
      <trkpt lat="43.53666" lon="5.54236">
        <ele>353.8</ele>
        <time>2023-05-28T07:54:49Z</time>
      </trkpt>
      <trkpt lat="43.53666" lon="5.54237">
        <ele>353.5</ele>
        <time>2023-05-28T07:54:50Z</time>
      </trkpt>
      <trkpt lat="43.53666" lon="5.54238">
        <ele>353.2</ele>
        <time>2023-05-28T07:54:51Z</time>
      </trkpt>
      <trkpt lat="43.53667" lon="5.54239">
        <ele>352.9</ele>
        <time>2023-05-28T07:54:52Z</time>
      </trkpt>
      <trkpt lat="43.53667" lon="5.5424">
        <ele>352.8</ele>
        <time>2023-05-28T07:54:53Z</time>
      </trkpt>
      <trkpt lat="43.53667" lon="5.54241">
        <ele>352.6</ele>
        <time>2023-05-28T07:54:54Z</time>
      </trkpt>
      <trkpt lat="43.53667" lon="5.54241">
        <ele>352.5</ele>
        <time>2023-05-28T07:54:55Z</time>
      </trkpt>
      <trkpt lat="43.53668" lon="5.54242">
        <ele>352.3</ele>
        <time>2023-05-28T07:54:56Z</time>
      </trkpt>
      <trkpt lat="43.53668" lon="5.54244">
        <ele>352.1</ele>
        <time>2023-05-28T07:54:57Z</time>
      </trkpt>
      <trkpt lat="43.53667" lon="5.54246">
        <ele>351.9</ele>
        <time>2023-05-28T07:54:58Z</time>
      </trkpt>
      <trkpt lat="43.53667" lon="5.54247">
        <ele>351.8</ele>
        <time>2023-05-28T07:54:59Z</time>
      </trkpt>
      <trkpt lat="43.53667" lon="5.54249">
        <ele>351.6</ele>
        <time>2023-05-28T07:55:00Z</time>
      </trkpt>
      <trkpt lat="43.53667" lon="5.5425">
        <ele>351.5</ele>
        <time>2023-05-28T07:55:01Z</time>
      </trkpt>
      <trkpt lat="43.53667" lon="5.54251">
        <ele>351.4</ele>
        <time>2023-05-28T07:55:02Z</time>
      </trkpt>
      <trkpt lat="43.53667" lon="5.54251">
        <ele>351.3</ele>
        <time>2023-05-28T07:55:03Z</time>
      </trkpt>
      <trkpt lat="43.53666" lon="5.54253">
        <ele>351.2</ele>
        <time>2023-05-28T07:55:04Z</time>
      </trkpt>
      <trkpt lat="43.53665" lon="5.54255">
        <ele>351.2</ele>
        <time>2023-05-28T07:55:05Z</time>
      </trkpt>
      <trkpt lat="43.53665" lon="5.54256">
        <ele>351.2</ele>
        <time>2023-05-28T07:55:06Z</time>
      </trkpt>
      <trkpt lat="43.53665" lon="5.54257">
        <ele>351.3</ele>
        <time>2023-05-28T07:55:07Z</time>
      </trkpt>
      <trkpt lat="43.53666" lon="5.54258">
        <ele>351.3</ele>
        <time>2023-05-28T07:55:08Z</time>
      </trkpt>
      <trkpt lat="43.53667" lon="5.5426">
        <ele>351.3</ele>
        <time>2023-05-28T07:55:09Z</time>
      </trkpt>
      <trkpt lat="43.53668" lon="5.54261">
        <ele>351.3</ele>
        <time>2023-05-28T07:55:10Z</time>
      </trkpt>
      <trkpt lat="43.53668" lon="5.54264">
        <ele>351.3</ele>
        <time>2023-05-28T07:55:11Z</time>
      </trkpt>
      <trkpt lat="43.53668" lon="5.54265">
        <ele>351.3</ele>
        <time>2023-05-28T07:55:12Z</time>
      </trkpt>
      <trkpt lat="43.53668" lon="5.54267">
        <ele>351.3</ele>
        <time>2023-05-28T07:55:13Z</time>
      </trkpt>
      <trkpt lat="43.53669" lon="5.54269">
        <ele>351.3</ele>
        <time>2023-05-28T07:55:14Z</time>
      </trkpt>
      <trkpt lat="43.53669" lon="5.5427">
        <ele>351.2</ele>
        <time>2023-05-28T07:55:15Z</time>
      </trkpt>
      <trkpt lat="43.5367" lon="5.54272">
        <ele>351.2</ele>
        <time>2023-05-28T07:55:16Z</time>
      </trkpt>
      <trkpt lat="43.53669" lon="5.54273">
        <ele>351.2</ele>
        <time>2023-05-28T07:55:17Z</time>
      </trkpt>
      <trkpt lat="43.5367" lon="5.54275">
        <ele>351.2</ele>
        <time>2023-05-28T07:55:18Z</time>
      </trkpt>
      <trkpt lat="43.5367" lon="5.54277">
        <ele>351.2</ele>
        <time>2023-05-28T07:55:19Z</time>
      </trkpt>
      <trkpt lat="43.5367" lon="5.54278">
        <ele>351.2</ele>
        <time>2023-05-28T07:55:20Z</time>
      </trkpt>
      <trkpt lat="43.5367" lon="5.5428">
        <ele>351.2</ele>
        <time>2023-05-28T07:55:21Z</time>
      </trkpt>
      <trkpt lat="43.53669" lon="5.54281">
        <ele>351.2</ele>
        <time>2023-05-28T07:55:22Z</time>
      </trkpt>
      <trkpt lat="43.5367" lon="5.54284">
        <ele>351.3</ele>
        <time>2023-05-28T07:55:23Z</time>
      </trkpt>
      <trkpt lat="43.53669" lon="5.54286">
        <ele>351.3</ele>
        <time>2023-05-28T07:55:24Z</time>
      </trkpt>
      <trkpt lat="43.53669" lon="5.54287">
        <ele>351.4</ele>
        <time>2023-05-28T07:55:25Z</time>
      </trkpt>
      <trkpt lat="43.53669" lon="5.54289">
        <ele>351.4</ele>
        <time>2023-05-28T07:55:26Z</time>
      </trkpt>
      <trkpt lat="43.53669" lon="5.5429">
        <ele>351.5</ele>
        <time>2023-05-28T07:55:27Z</time>
      </trkpt>
      <trkpt lat="43.53669" lon="5.54292">
        <ele>351.6</ele>
        <time>2023-05-28T07:55:28Z</time>
      </trkpt>
      <trkpt lat="43.53668" lon="5.54292">
        <ele>351.7</ele>
        <time>2023-05-28T07:55:29Z</time>
      </trkpt>
      <trkpt lat="43.53668" lon="5.54293">
        <ele>351.7</ele>
        <time>2023-05-28T07:55:30Z</time>
      </trkpt>
      <trkpt lat="43.53667" lon="5.54295">
        <ele>351.8</ele>
        <time>2023-05-28T07:55:31Z</time>
      </trkpt>
      <trkpt lat="43.53667" lon="5.54297">
        <ele>351.8</ele>
        <time>2023-05-28T07:55:32Z</time>
      </trkpt>
      <trkpt lat="43.53666" lon="5.54299">
        <ele>351.9</ele>
        <time>2023-05-28T07:55:33Z</time>
      </trkpt>
      <trkpt lat="43.53666" lon="5.543">
        <ele>351.9</ele>
        <time>2023-05-28T07:55:34Z</time>
      </trkpt>
      <trkpt lat="43.53665" lon="5.54301">
        <ele>351.9</ele>
        <time>2023-05-28T07:55:35Z</time>
      </trkpt>
      <trkpt lat="43.53664" lon="5.54302">
        <ele>352</ele>
        <time>2023-05-28T07:55:36Z</time>
      </trkpt>
      <trkpt lat="43.53664" lon="5.54304">
        <ele>352.1</ele>
        <time>2023-05-28T07:55:37Z</time>
      </trkpt>
      <trkpt lat="43.53663" lon="5.54305">
        <ele>352.2</ele>
        <time>2023-05-28T07:55:38Z</time>
      </trkpt>
      <trkpt lat="43.53662" lon="5.54306">
        <ele>352.3</ele>
        <time>2023-05-28T07:55:39Z</time>
      </trkpt>
      <trkpt lat="43.53662" lon="5.54307">
        <ele>352.4</ele>
        <time>2023-05-28T07:55:40Z</time>
      </trkpt>
      <trkpt lat="43.53661" lon="5.54308">
        <ele>352.5</ele>
        <time>2023-05-28T07:55:41Z</time>
      </trkpt>
      <trkpt lat="43.5366" lon="5.54308">
        <ele>352.6</ele>
        <time>2023-05-28T07:55:42Z</time>
      </trkpt>
      <trkpt lat="43.53659" lon="5.54309">
        <ele>352.7</ele>
        <time>2023-05-28T07:55:43Z</time>
      </trkpt>
      <trkpt lat="43.53658" lon="5.54309">
        <ele>352.7</ele>
        <time>2023-05-28T07:55:44Z</time>
      </trkpt>
      <trkpt lat="43.53657" lon="5.54311">
        <ele>352.9</ele>
        <time>2023-05-28T07:55:45Z</time>
      </trkpt>
      <trkpt lat="43.53657" lon="5.54312">
        <ele>353</ele>
        <time>2023-05-28T07:55:46Z</time>
      </trkpt>
      <trkpt lat="43.53656" lon="5.54312">
        <ele>353.2</ele>
        <time>2023-05-28T07:55:47Z</time>
      </trkpt>
      <trkpt lat="43.53655" lon="5.54313">
        <ele>353.2</ele>
        <time>2023-05-28T07:55:48Z</time>
      </trkpt>
      <trkpt lat="43.53655" lon="5.54313">
        <ele>353.4</ele>
        <time>2023-05-28T07:55:49Z</time>
      </trkpt>
      <trkpt lat="43.53654" lon="5.54314">
        <ele>353.5</ele>
        <time>2023-05-28T07:55:50Z</time>
      </trkpt>
      <trkpt lat="43.53653" lon="5.54314">
        <ele>353.7</ele>
        <time>2023-05-28T07:55:51Z</time>
      </trkpt>
      <trkpt lat="43.53652" lon="5.54315">
        <ele>353.9</ele>
        <time>2023-05-28T07:55:52Z</time>
      </trkpt>
      <trkpt lat="43.53652" lon="5.54315">
        <ele>353.9</ele>
        <time>2023-05-28T07:55:53Z</time>
      </trkpt>
      <trkpt lat="43.53651" lon="5.54316">
        <ele>354.1</ele>
        <time>2023-05-28T07:55:54Z</time>
      </trkpt>
      <trkpt lat="43.5365" lon="5.54317">
        <ele>354.2</ele>
        <time>2023-05-28T07:55:55Z</time>
      </trkpt>
      <trkpt lat="43.53649" lon="5.54317">
        <ele>354.2</ele>
        <time>2023-05-28T07:55:56Z</time>
      </trkpt>
      <trkpt lat="43.53648" lon="5.54318">
        <ele>354.3</ele>
        <time>2023-05-28T07:55:57Z</time>
      </trkpt>
      <trkpt lat="43.53647" lon="5.54318">
        <ele>354.4</ele>
        <time>2023-05-28T07:55:58Z</time>
      </trkpt>
      <trkpt lat="43.53647" lon="5.5432">
        <ele>354.4</ele>
        <time>2023-05-28T07:55:59Z</time>
      </trkpt>
      <trkpt lat="43.53647" lon="5.54321">
        <ele>354.5</ele>
        <time>2023-05-28T07:56:00Z</time>
      </trkpt>
      <trkpt lat="43.53646" lon="5.54321">
        <ele>354.5</ele>
        <time>2023-05-28T07:56:01Z</time>
      </trkpt>
      <trkpt lat="43.53645" lon="5.54322">
        <ele>354.6</ele>
        <time>2023-05-28T07:56:02Z</time>
      </trkpt>
      <trkpt lat="43.53645" lon="5.54324">
        <ele>354.7</ele>
        <time>2023-05-28T07:56:03Z</time>
      </trkpt>
      <trkpt lat="43.53645" lon="5.54325">
        <ele>354.8</ele>
        <time>2023-05-28T07:56:04Z</time>
      </trkpt>
      <trkpt lat="43.53646" lon="5.54328">
        <ele>354.9</ele>
        <time>2023-05-28T07:56:05Z</time>
      </trkpt>
      <trkpt lat="43.53646" lon="5.5433">
        <ele>355.1</ele>
        <time>2023-05-28T07:56:06Z</time>
      </trkpt>
      <trkpt lat="43.53647" lon="5.54333">
        <ele>355.2</ele>
        <time>2023-05-28T07:56:07Z</time>
      </trkpt>
      <trkpt lat="43.53648" lon="5.54335">
        <ele>355.4</ele>
        <time>2023-05-28T07:56:08Z</time>
      </trkpt>
      <trkpt lat="43.53648" lon="5.54337">
        <ele>355.5</ele>
        <time>2023-05-28T07:56:09Z</time>
      </trkpt>
      <trkpt lat="43.5365" lon="5.54339">
        <ele>355.6</ele>
        <time>2023-05-28T07:56:10Z</time>
      </trkpt>
      <trkpt lat="43.5365" lon="5.54341">
        <ele>355.8</ele>
        <time>2023-05-28T07:56:11Z</time>
      </trkpt>
      <trkpt lat="43.53651" lon="5.54343">
        <ele>355.9</ele>
        <time>2023-05-28T07:56:12Z</time>
      </trkpt>
      <trkpt lat="43.53653" lon="5.54344">
        <ele>356</ele>
        <time>2023-05-28T07:56:13Z</time>
      </trkpt>
      <trkpt lat="43.53653" lon="5.54345">
        <ele>356.1</ele>
        <time>2023-05-28T07:56:14Z</time>
      </trkpt>
      <trkpt lat="43.53654" lon="5.54345">
        <ele>356.2</ele>
        <time>2023-05-28T07:56:15Z</time>
      </trkpt>
      <trkpt lat="43.53654" lon="5.54345">
        <ele>356.3</ele>
        <time>2023-05-28T07:56:16Z</time>
      </trkpt>
      <trkpt lat="43.53654" lon="5.54345">
        <ele>356.4</ele>
        <time>2023-05-28T07:56:17Z</time>
      </trkpt>
      <trkpt lat="43.53655" lon="5.54347">
        <ele>356.5</ele>
        <time>2023-05-28T07:56:18Z</time>
      </trkpt>
      <trkpt lat="43.53656" lon="5.54348">
        <ele>356.6</ele>
        <time>2023-05-28T07:56:19Z</time>
      </trkpt>
      <trkpt lat="43.53656" lon="5.54349">
        <ele>356.7</ele>
        <time>2023-05-28T07:56:20Z</time>
      </trkpt>
      <trkpt lat="43.53657" lon="5.5435">
        <ele>356.8</ele>
        <time>2023-05-28T07:56:21Z</time>
      </trkpt>
      <trkpt lat="43.53658" lon="5.54352">
        <ele>357</ele>
        <time>2023-05-28T07:56:22Z</time>
      </trkpt>
      <trkpt lat="43.53659" lon="5.54352">
        <ele>357.1</ele>
        <time>2023-05-28T07:56:23Z</time>
      </trkpt>
      <trkpt lat="43.53659" lon="5.54353">
        <ele>357.2</ele>
        <time>2023-05-28T07:56:24Z</time>
      </trkpt>
      <trkpt lat="43.5366" lon="5.54355">
        <ele>357.3</ele>
        <time>2023-05-28T07:56:25Z</time>
      </trkpt>
      <trkpt lat="43.53661" lon="5.54356">
        <ele>357.4</ele>
        <time>2023-05-28T07:56:26Z</time>
      </trkpt>
      <trkpt lat="43.53662" lon="5.54358">
        <ele>357.4</ele>
        <time>2023-05-28T07:56:27Z</time>
      </trkpt>
      <trkpt lat="43.53662" lon="5.54361">
        <ele>357.5</ele>
        <time>2023-05-28T07:56:28Z</time>
      </trkpt>
      <trkpt lat="43.53663" lon="5.54363">
        <ele>357.6</ele>
        <time>2023-05-28T07:56:29Z</time>
      </trkpt>
      <trkpt lat="43.53664" lon="5.54365">
        <ele>357.7</ele>
        <time>2023-05-28T07:56:30Z</time>
      </trkpt>
      <trkpt lat="43.53664" lon="5.54367">
        <ele>357.8</ele>
        <time>2023-05-28T07:56:31Z</time>
      </trkpt>
      <trkpt lat="43.53665" lon="5.54369">
        <ele>358.1</ele>
        <time>2023-05-28T07:56:32Z</time>
      </trkpt>
      <trkpt lat="43.53666" lon="5.54371">
        <ele>358.2</ele>
        <time>2023-05-28T07:56:33Z</time>
      </trkpt>
      <trkpt lat="43.53666" lon="5.54372">
        <ele>358.3</ele>
        <time>2023-05-28T07:56:34Z</time>
      </trkpt>
      <trkpt lat="43.53667" lon="5.54373">
        <ele>358.4</ele>
        <time>2023-05-28T07:56:35Z</time>
      </trkpt>
      <trkpt lat="43.53667" lon="5.54375">
        <ele>358.7</ele>
        <time>2023-05-28T07:56:36Z</time>
      </trkpt>
      <trkpt lat="43.53668" lon="5.54376">
        <ele>358.9</ele>
        <time>2023-05-28T07:56:37Z</time>
      </trkpt>
      <trkpt lat="43.53668" lon="5.54378">
        <ele>359</ele>
        <time>2023-05-28T07:56:38Z</time>
      </trkpt>
      <trkpt lat="43.53669" lon="5.5438">
        <ele>359.2</ele>
        <time>2023-05-28T07:56:39Z</time>
      </trkpt>
      <trkpt lat="43.5367" lon="5.54382">
        <ele>359.3</ele>
        <time>2023-05-28T07:56:40Z</time>
      </trkpt>
      <trkpt lat="43.53671" lon="5.54384">
        <ele>359.4</ele>
        <time>2023-05-28T07:56:41Z</time>
      </trkpt>
      <trkpt lat="43.53671" lon="5.54385">
        <ele>359.5</ele>
        <time>2023-05-28T07:56:42Z</time>
      </trkpt>
      <trkpt lat="43.53672" lon="5.54387">
        <ele>359.6</ele>
        <time>2023-05-28T07:56:43Z</time>
      </trkpt>
      <trkpt lat="43.53673" lon="5.54388">
        <ele>359.7</ele>
        <time>2023-05-28T07:56:44Z</time>
      </trkpt>
      <trkpt lat="43.53674" lon="5.54389">
        <ele>359.8</ele>
        <time>2023-05-28T07:56:45Z</time>
      </trkpt>
      <trkpt lat="43.53675" lon="5.5439">
        <ele>359.9</ele>
        <time>2023-05-28T07:56:46Z</time>
      </trkpt>
      <trkpt lat="43.53675" lon="5.54391">
        <ele>360</ele>
        <time>2023-05-28T07:56:47Z</time>
      </trkpt>
      <trkpt lat="43.53676" lon="5.54392">
        <ele>360.1</ele>
        <time>2023-05-28T07:56:48Z</time>
      </trkpt>
      <trkpt lat="43.53677" lon="5.54393">
        <ele>360.3</ele>
        <time>2023-05-28T07:56:49Z</time>
      </trkpt>
      <trkpt lat="43.53677" lon="5.54394">
        <ele>360.4</ele>
        <time>2023-05-28T07:56:50Z</time>
      </trkpt>
      <trkpt lat="43.53678" lon="5.54396">
        <ele>360.5</ele>
        <time>2023-05-28T07:56:51Z</time>
      </trkpt>
      <trkpt lat="43.53679" lon="5.54398">
        <ele>360.6</ele>
        <time>2023-05-28T07:56:52Z</time>
      </trkpt>
      <trkpt lat="43.5368" lon="5.54399">
        <ele>360.7</ele>
        <time>2023-05-28T07:56:53Z</time>
      </trkpt>
      <trkpt lat="43.5368" lon="5.54401">
        <ele>360.8</ele>
        <time>2023-05-28T07:56:54Z</time>
      </trkpt>
      <trkpt lat="43.53681" lon="5.54402">
        <ele>360.9</ele>
        <time>2023-05-28T07:56:55Z</time>
      </trkpt>
      <trkpt lat="43.53681" lon="5.54404">
        <ele>361.1</ele>
        <time>2023-05-28T07:56:56Z</time>
      </trkpt>
      <trkpt lat="43.53682" lon="5.54406">
        <ele>361.3</ele>
        <time>2023-05-28T07:56:57Z</time>
      </trkpt>
      <trkpt lat="43.53682" lon="5.54407">
        <ele>361.5</ele>
        <time>2023-05-28T07:56:58Z</time>
      </trkpt>
      <trkpt lat="43.53683" lon="5.54409">
        <ele>361.6</ele>
        <time>2023-05-28T07:56:59Z</time>
      </trkpt>
      <trkpt lat="43.53682" lon="5.5441">
        <ele>361.8</ele>
        <time>2023-05-28T07:57:00Z</time>
      </trkpt>
      <trkpt lat="43.53683" lon="5.54412">
        <ele>361.9</ele>
        <time>2023-05-28T07:57:01Z</time>
      </trkpt>
      <trkpt lat="43.53684" lon="5.54413">
        <ele>362.1</ele>
        <time>2023-05-28T07:57:02Z</time>
      </trkpt>
      <trkpt lat="43.53685" lon="5.54414">
        <ele>362.2</ele>
        <time>2023-05-28T07:57:03Z</time>
      </trkpt>
      <trkpt lat="43.53685" lon="5.54415">
        <ele>362.2</ele>
        <time>2023-05-28T07:57:04Z</time>
      </trkpt>
      <trkpt lat="43.53685" lon="5.54416">
        <ele>362.3</ele>
        <time>2023-05-28T07:57:05Z</time>
      </trkpt>
      <trkpt lat="43.53686" lon="5.54417">
        <ele>362.4</ele>
        <time>2023-05-28T07:57:06Z</time>
      </trkpt>
      <trkpt lat="43.53687" lon="5.54418">
        <ele>362.6</ele>
        <time>2023-05-28T07:57:07Z</time>
      </trkpt>
      <trkpt lat="43.53687" lon="5.54419">
        <ele>362.7</ele>
        <time>2023-05-28T07:57:08Z</time>
      </trkpt>
      <trkpt lat="43.53688" lon="5.5442">
        <ele>362.8</ele>
        <time>2023-05-28T07:57:09Z</time>
      </trkpt>
      <trkpt lat="43.53688" lon="5.54422">
        <ele>362.9</ele>
        <time>2023-05-28T07:57:10Z</time>
      </trkpt>
      <trkpt lat="43.53688" lon="5.54423">
        <ele>363</ele>
        <time>2023-05-28T07:57:11Z</time>
      </trkpt>
      <trkpt lat="43.53689" lon="5.54424">
        <ele>363.1</ele>
        <time>2023-05-28T07:57:12Z</time>
      </trkpt>
      <trkpt lat="43.53689" lon="5.54425">
        <ele>363.2</ele>
        <time>2023-05-28T07:57:13Z</time>
      </trkpt>
      <trkpt lat="43.5369" lon="5.54427">
        <ele>363.3</ele>
        <time>2023-05-28T07:57:14Z</time>
      </trkpt>
      <trkpt lat="43.53691" lon="5.54428">
        <ele>363.4</ele>
        <time>2023-05-28T07:57:15Z</time>
      </trkpt>
      <trkpt lat="43.53691" lon="5.54429">
        <ele>363.7</ele>
        <time>2023-05-28T07:57:16Z</time>
      </trkpt>
      <trkpt lat="43.53693" lon="5.54431">
        <ele>364</ele>
        <time>2023-05-28T07:57:17Z</time>
      </trkpt>
      <trkpt lat="43.53694" lon="5.54432">
        <ele>364.1</ele>
        <time>2023-05-28T07:57:18Z</time>
      </trkpt>
      <trkpt lat="43.53694" lon="5.54433">
        <ele>364.3</ele>
        <time>2023-05-28T07:57:19Z</time>
      </trkpt>
      <trkpt lat="43.53695" lon="5.54435">
        <ele>364.4</ele>
        <time>2023-05-28T07:57:20Z</time>
      </trkpt>
      <trkpt lat="43.53695" lon="5.54436">
        <ele>364.5</ele>
        <time>2023-05-28T07:57:21Z</time>
      </trkpt>
      <trkpt lat="43.53696" lon="5.54437">
        <ele>364.7</ele>
        <time>2023-05-28T07:57:22Z</time>
      </trkpt>
      <trkpt lat="43.53696" lon="5.54439">
        <ele>364.8</ele>
        <time>2023-05-28T07:57:23Z</time>
      </trkpt>
      <trkpt lat="43.53696" lon="5.5444">
        <ele>364.9</ele>
        <time>2023-05-28T07:57:24Z</time>
      </trkpt>
      <trkpt lat="43.53697" lon="5.54441">
        <ele>365.1</ele>
        <time>2023-05-28T07:57:25Z</time>
      </trkpt>
      <trkpt lat="43.53697" lon="5.54443">
        <ele>365.3</ele>
        <time>2023-05-28T07:57:26Z</time>
      </trkpt>
      <trkpt lat="43.53697" lon="5.54444">
        <ele>365.5</ele>
        <time>2023-05-28T07:57:27Z</time>
      </trkpt>
      <trkpt lat="43.53697" lon="5.54444">
        <ele>365.7</ele>
        <time>2023-05-28T07:57:28Z</time>
      </trkpt>
      <trkpt lat="43.53697" lon="5.54444">
        <ele>365.8</ele>
        <time>2023-05-28T07:57:29Z</time>
      </trkpt>
      <trkpt lat="43.53697" lon="5.54444">
        <ele>366</ele>
        <time>2023-05-28T07:57:30Z</time>
      </trkpt>
      <trkpt lat="43.53697" lon="5.54444">
        <ele>366.1</ele>
        <time>2023-05-28T07:57:31Z</time>
      </trkpt>
      <trkpt lat="43.53697" lon="5.54445">
        <ele>366</ele>
        <time>2023-05-28T07:57:32Z</time>
      </trkpt>
      <trkpt lat="43.53697" lon="5.54445">
        <ele>366.1</ele>
        <time>2023-05-28T07:57:33Z</time>
      </trkpt>
      <trkpt lat="43.53698" lon="5.54446">
        <ele>366.1</ele>
        <time>2023-05-28T07:57:34Z</time>
      </trkpt>
      <trkpt lat="43.53698" lon="5.54447">
        <ele>366.1</ele>
        <time>2023-05-28T07:57:35Z</time>
      </trkpt>
      <trkpt lat="43.53698" lon="5.54448">
        <ele>366.1</ele>
        <time>2023-05-28T07:57:36Z</time>
      </trkpt>
      <trkpt lat="43.53699" lon="5.5445">
        <ele>366.1</ele>
        <time>2023-05-28T07:57:37Z</time>
      </trkpt>
      <trkpt lat="43.53699" lon="5.54451">
        <ele>366.2</ele>
        <time>2023-05-28T07:57:38Z</time>
      </trkpt>
      <trkpt lat="43.537" lon="5.54452">
        <ele>366.3</ele>
        <time>2023-05-28T07:57:39Z</time>
      </trkpt>
      <trkpt lat="43.537" lon="5.54454">
        <ele>366.4</ele>
        <time>2023-05-28T07:57:40Z</time>
      </trkpt>
      <trkpt lat="43.537" lon="5.54455">
        <ele>366.6</ele>
        <time>2023-05-28T07:57:41Z</time>
      </trkpt>
      <trkpt lat="43.53701" lon="5.54456">
        <ele>366.7</ele>
        <time>2023-05-28T07:57:42Z</time>
      </trkpt>
      <trkpt lat="43.53702" lon="5.54457">
        <ele>366.8</ele>
        <time>2023-05-28T07:57:43Z</time>
      </trkpt>
      <trkpt lat="43.53702" lon="5.54459">
        <ele>366.9</ele>
        <time>2023-05-28T07:57:44Z</time>
      </trkpt>
      <trkpt lat="43.53702" lon="5.54459">
        <ele>367</ele>
        <time>2023-05-28T07:57:45Z</time>
      </trkpt>
      <trkpt lat="43.53702" lon="5.54461">
        <ele>367.1</ele>
        <time>2023-05-28T07:57:46Z</time>
      </trkpt>
      <trkpt lat="43.53703" lon="5.54463">
        <ele>367.2</ele>
        <time>2023-05-28T07:57:47Z</time>
      </trkpt>
      <trkpt lat="43.53704" lon="5.54464">
        <ele>367.3</ele>
        <time>2023-05-28T07:57:48Z</time>
      </trkpt>
      <trkpt lat="43.53704" lon="5.54465">
        <ele>367.5</ele>
        <time>2023-05-28T07:57:49Z</time>
      </trkpt>
      <trkpt lat="43.53705" lon="5.54467">
        <ele>367.6</ele>
        <time>2023-05-28T07:57:50Z</time>
      </trkpt>
      <trkpt lat="43.53705" lon="5.54468">
        <ele>367.7</ele>
        <time>2023-05-28T07:57:51Z</time>
      </trkpt>
      <trkpt lat="43.53706" lon="5.54469">
        <ele>367.7</ele>
        <time>2023-05-28T07:57:52Z</time>
      </trkpt>
      <trkpt lat="43.53706" lon="5.5447">
        <ele>367.8</ele>
        <time>2023-05-28T07:57:53Z</time>
      </trkpt>
      <trkpt lat="43.53706" lon="5.5447">
        <ele>367.9</ele>
        <time>2023-05-28T07:57:54Z</time>
      </trkpt>
      <trkpt lat="43.53706" lon="5.5447">
        <ele>368.1</ele>
        <time>2023-05-28T07:57:55Z</time>
      </trkpt>
      <trkpt lat="43.53706" lon="5.54472">
        <ele>368.2</ele>
        <time>2023-05-28T07:57:56Z</time>
      </trkpt>
      <trkpt lat="43.53706" lon="5.54473">
        <ele>368.4</ele>
        <time>2023-05-28T07:57:57Z</time>
      </trkpt>
      <trkpt lat="43.53707" lon="5.54474">
        <ele>368.5</ele>
        <time>2023-05-28T07:57:58Z</time>
      </trkpt>
      <trkpt lat="43.53707" lon="5.54476">
        <ele>368.7</ele>
        <time>2023-05-28T07:57:59Z</time>
      </trkpt>
      <trkpt lat="43.53707" lon="5.54477">
        <ele>368.8</ele>
        <time>2023-05-28T07:58:00Z</time>
      </trkpt>
      <trkpt lat="43.53708" lon="5.54478">
        <ele>368.9</ele>
        <time>2023-05-28T07:58:01Z</time>
      </trkpt>
      <trkpt lat="43.53709" lon="5.5448">
        <ele>369</ele>
        <time>2023-05-28T07:58:02Z</time>
      </trkpt>
      <trkpt lat="43.53709" lon="5.54481">
        <ele>369.1</ele>
        <time>2023-05-28T07:58:03Z</time>
      </trkpt>
      <trkpt lat="43.53709" lon="5.54482">
        <ele>369.1</ele>
        <time>2023-05-28T07:58:04Z</time>
      </trkpt>
      <trkpt lat="43.53709" lon="5.54484">
        <ele>369.2</ele>
        <time>2023-05-28T07:58:05Z</time>
      </trkpt>
      <trkpt lat="43.5371" lon="5.54485">
        <ele>369.3</ele>
        <time>2023-05-28T07:58:06Z</time>
      </trkpt>
      <trkpt lat="43.5371" lon="5.54486">
        <ele>369.4</ele>
        <time>2023-05-28T07:58:07Z</time>
      </trkpt>
      <trkpt lat="43.53711" lon="5.54487">
        <ele>369.6</ele>
        <time>2023-05-28T07:58:08Z</time>
      </trkpt>
      <trkpt lat="43.53712" lon="5.54489">
        <ele>369.7</ele>
        <time>2023-05-28T07:58:09Z</time>
      </trkpt>
      <trkpt lat="43.53712" lon="5.5449">
        <ele>369.9</ele>
        <time>2023-05-28T07:58:10Z</time>
      </trkpt>
      <trkpt lat="43.53712" lon="5.54491">
        <ele>370.1</ele>
        <time>2023-05-28T07:58:11Z</time>
      </trkpt>
      <trkpt lat="43.53712" lon="5.54492">
        <ele>370.3</ele>
        <time>2023-05-28T07:58:12Z</time>
      </trkpt>
      <trkpt lat="43.53713" lon="5.54494">
        <ele>370.5</ele>
        <time>2023-05-28T07:58:13Z</time>
      </trkpt>
      <trkpt lat="43.53713" lon="5.54495">
        <ele>370.7</ele>
        <time>2023-05-28T07:58:14Z</time>
      </trkpt>
      <trkpt lat="43.53713" lon="5.54495">
        <ele>370.9</ele>
        <time>2023-05-28T07:58:15Z</time>
      </trkpt>
      <trkpt lat="43.53714" lon="5.54496">
        <ele>371.1</ele>
        <time>2023-05-28T07:58:16Z</time>
      </trkpt>
      <trkpt lat="43.53714" lon="5.54498">
        <ele>371.3</ele>
        <time>2023-05-28T07:58:17Z</time>
      </trkpt>
      <trkpt lat="43.53714" lon="5.54499">
        <ele>371.4</ele>
        <time>2023-05-28T07:58:18Z</time>
      </trkpt>
      <trkpt lat="43.53714" lon="5.545">
        <ele>371.6</ele>
        <time>2023-05-28T07:58:19Z</time>
      </trkpt>
      <trkpt lat="43.53715" lon="5.54501">
        <ele>371.8</ele>
        <time>2023-05-28T07:58:20Z</time>
      </trkpt>
      <trkpt lat="43.53715" lon="5.54502">
        <ele>372</ele>
        <time>2023-05-28T07:58:21Z</time>
      </trkpt>
      <trkpt lat="43.53715" lon="5.54503">
        <ele>372.2</ele>
        <time>2023-05-28T07:58:22Z</time>
      </trkpt>
      <trkpt lat="43.53715" lon="5.54505">
        <ele>372.3</ele>
        <time>2023-05-28T07:58:23Z</time>
      </trkpt>
      <trkpt lat="43.53716" lon="5.54506">
        <ele>372.5</ele>
        <time>2023-05-28T07:58:24Z</time>
      </trkpt>
      <trkpt lat="43.53716" lon="5.54507">
        <ele>372.7</ele>
        <time>2023-05-28T07:58:25Z</time>
      </trkpt>
      <trkpt lat="43.53716" lon="5.54509">
        <ele>372.8</ele>
        <time>2023-05-28T07:58:26Z</time>
      </trkpt>
      <trkpt lat="43.53716" lon="5.54509">
        <ele>373</ele>
        <time>2023-05-28T07:58:27Z</time>
      </trkpt>
      <trkpt lat="43.53716" lon="5.5451">
        <ele>373.2</ele>
        <time>2023-05-28T07:58:28Z</time>
      </trkpt>
      <trkpt lat="43.53717" lon="5.54511">
        <ele>373.3</ele>
        <time>2023-05-28T07:58:29Z</time>
      </trkpt>
      <trkpt lat="43.53716" lon="5.54512">
        <ele>373.5</ele>
        <time>2023-05-28T07:58:30Z</time>
      </trkpt>
      <trkpt lat="43.53717" lon="5.54513">
        <ele>373.6</ele>
        <time>2023-05-28T07:58:31Z</time>
      </trkpt>
      <trkpt lat="43.53717" lon="5.54514">
        <ele>373.7</ele>
        <time>2023-05-28T07:58:32Z</time>
      </trkpt>
      <trkpt lat="43.53717" lon="5.54516">
        <ele>373.8</ele>
        <time>2023-05-28T07:58:33Z</time>
      </trkpt>
      <trkpt lat="43.53718" lon="5.54517">
        <ele>373.9</ele>
        <time>2023-05-28T07:58:34Z</time>
      </trkpt>
      <trkpt lat="43.53718" lon="5.54518">
        <ele>374</ele>
        <time>2023-05-28T07:58:35Z</time>
      </trkpt>
      <trkpt lat="43.53719" lon="5.54519">
        <ele>374.2</ele>
        <time>2023-05-28T07:58:36Z</time>
      </trkpt>
      <trkpt lat="43.53719" lon="5.5452">
        <ele>374.3</ele>
        <time>2023-05-28T07:58:37Z</time>
      </trkpt>
      <trkpt lat="43.5372" lon="5.54521">
        <ele>374.5</ele>
        <time>2023-05-28T07:58:38Z</time>
      </trkpt>
      <trkpt lat="43.5372" lon="5.54522">
        <ele>374.6</ele>
        <time>2023-05-28T07:58:39Z</time>
      </trkpt>
      <trkpt lat="43.5372" lon="5.54523">
        <ele>374.7</ele>
        <time>2023-05-28T07:58:40Z</time>
      </trkpt>
      <trkpt lat="43.5372" lon="5.54524">
        <ele>374.9</ele>
        <time>2023-05-28T07:58:41Z</time>
      </trkpt>
      <trkpt lat="43.5372" lon="5.54526">
        <ele>375</ele>
        <time>2023-05-28T07:58:42Z</time>
      </trkpt>
      <trkpt lat="43.5372" lon="5.54527">
        <ele>375.2</ele>
        <time>2023-05-28T07:58:43Z</time>
      </trkpt>
      <trkpt lat="43.5372" lon="5.54528">
        <ele>375.4</ele>
        <time>2023-05-28T07:58:44Z</time>
      </trkpt>
      <trkpt lat="43.5372" lon="5.54528">
        <ele>375.5</ele>
        <time>2023-05-28T07:58:45Z</time>
      </trkpt>
      <trkpt lat="43.5372" lon="5.54529">
        <ele>375.7</ele>
        <time>2023-05-28T07:58:46Z</time>
      </trkpt>
      <trkpt lat="43.53719" lon="5.5453">
        <ele>375.9</ele>
        <time>2023-05-28T07:58:47Z</time>
      </trkpt>
      <trkpt lat="43.53719" lon="5.54531">
        <ele>376</ele>
        <time>2023-05-28T07:58:48Z</time>
      </trkpt>
      <trkpt lat="43.53719" lon="5.54532">
        <ele>376.2</ele>
        <time>2023-05-28T07:58:49Z</time>
      </trkpt>
      <trkpt lat="43.53719" lon="5.54533">
        <ele>376.4</ele>
        <time>2023-05-28T07:58:50Z</time>
      </trkpt>
      <trkpt lat="43.53719" lon="5.54536">
        <ele>376.5</ele>
        <time>2023-05-28T07:58:51Z</time>
      </trkpt>
      <trkpt lat="43.53719" lon="5.54538">
        <ele>376.7</ele>
        <time>2023-05-28T07:58:52Z</time>
      </trkpt>
      <trkpt lat="43.53719" lon="5.54539">
        <ele>376.8</ele>
        <time>2023-05-28T07:58:53Z</time>
      </trkpt>
      <trkpt lat="43.53719" lon="5.54541">
        <ele>377</ele>
        <time>2023-05-28T07:58:54Z</time>
      </trkpt>
      <trkpt lat="43.53719" lon="5.54542">
        <ele>377.1</ele>
        <time>2023-05-28T07:58:55Z</time>
      </trkpt>
      <trkpt lat="43.53719" lon="5.54543">
        <ele>377.2</ele>
        <time>2023-05-28T07:58:56Z</time>
      </trkpt>
      <trkpt lat="43.53719" lon="5.54544">
        <ele>377.3</ele>
        <time>2023-05-28T07:58:57Z</time>
      </trkpt>
      <trkpt lat="43.53719" lon="5.54545">
        <ele>377.4</ele>
        <time>2023-05-28T07:58:58Z</time>
      </trkpt>
      <trkpt lat="43.5372" lon="5.54546">
        <ele>377.5</ele>
        <time>2023-05-28T07:58:59Z</time>
      </trkpt>
      <trkpt lat="43.5372" lon="5.54548">
        <ele>377.6</ele>
        <time>2023-05-28T07:59:00Z</time>
      </trkpt>
      <trkpt lat="43.5372" lon="5.54549">
        <ele>377.7</ele>
        <time>2023-05-28T07:59:01Z</time>
      </trkpt>
      <trkpt lat="43.53721" lon="5.5455">
        <ele>377.8</ele>
        <time>2023-05-28T07:59:02Z</time>
      </trkpt>
      <trkpt lat="43.53722" lon="5.54553">
        <ele>377.9</ele>
        <time>2023-05-28T07:59:03Z</time>
      </trkpt>
      <trkpt lat="43.53722" lon="5.54554">
        <ele>378</ele>
        <time>2023-05-28T07:59:04Z</time>
      </trkpt>
      <trkpt lat="43.53723" lon="5.54556">
        <ele>378.2</ele>
        <time>2023-05-28T07:59:05Z</time>
      </trkpt>
      <trkpt lat="43.53723" lon="5.54558">
        <ele>378.3</ele>
        <time>2023-05-28T07:59:06Z</time>
      </trkpt>
      <trkpt lat="43.53723" lon="5.54559">
        <ele>378.5</ele>
        <time>2023-05-28T07:59:07Z</time>
      </trkpt>
      <trkpt lat="43.53724" lon="5.54561">
        <ele>378.6</ele>
        <time>2023-05-28T07:59:08Z</time>
      </trkpt>
      <trkpt lat="43.53724" lon="5.54562">
        <ele>378.7</ele>
        <time>2023-05-28T07:59:09Z</time>
      </trkpt>
      <trkpt lat="43.53725" lon="5.54564">
        <ele>378.9</ele>
        <time>2023-05-28T07:59:10Z</time>
      </trkpt>
      <trkpt lat="43.53725" lon="5.54566">
        <ele>379</ele>
        <time>2023-05-28T07:59:11Z</time>
      </trkpt>
      <trkpt lat="43.53726" lon="5.54567">
        <ele>379</ele>
        <time>2023-05-28T07:59:12Z</time>
      </trkpt>
      <trkpt lat="43.53727" lon="5.54568">
        <ele>379.2</ele>
        <time>2023-05-28T07:59:13Z</time>
      </trkpt>
      <trkpt lat="43.53728" lon="5.54569">
        <ele>379.4</ele>
        <time>2023-05-28T07:59:14Z</time>
      </trkpt>
      <trkpt lat="43.53728" lon="5.5457">
        <ele>379.5</ele>
        <time>2023-05-28T07:59:15Z</time>
      </trkpt>
      <trkpt lat="43.53729" lon="5.54571">
        <ele>379.7</ele>
        <time>2023-05-28T07:59:16Z</time>
      </trkpt>
      <trkpt lat="43.53729" lon="5.54571">
        <ele>379.8</ele>
        <time>2023-05-28T07:59:17Z</time>
      </trkpt>
      <trkpt lat="43.5373" lon="5.54572">
        <ele>379.9</ele>
        <time>2023-05-28T07:59:18Z</time>
      </trkpt>
      <trkpt lat="43.5373" lon="5.54572">
        <ele>380</ele>
        <time>2023-05-28T07:59:19Z</time>
      </trkpt>
      <trkpt lat="43.53731" lon="5.54572">
        <ele>380.2</ele>
        <time>2023-05-28T07:59:20Z</time>
      </trkpt>
      <trkpt lat="43.53731" lon="5.54572">
        <ele>380.4</ele>
        <time>2023-05-28T07:59:21Z</time>
      </trkpt>
      <trkpt lat="43.53731" lon="5.54573">
        <ele>380.6</ele>
        <time>2023-05-28T07:59:22Z</time>
      </trkpt>
      <trkpt lat="43.53732" lon="5.54574">
        <ele>380.7</ele>
        <time>2023-05-28T07:59:23Z</time>
      </trkpt>
      <trkpt lat="43.53733" lon="5.54575">
        <ele>380.9</ele>
        <time>2023-05-28T07:59:24Z</time>
      </trkpt>
      <trkpt lat="43.53733" lon="5.54576">
        <ele>381</ele>
        <time>2023-05-28T07:59:25Z</time>
      </trkpt>
      <trkpt lat="43.53733" lon="5.54577">
        <ele>381.2</ele>
        <time>2023-05-28T07:59:26Z</time>
      </trkpt>
      <trkpt lat="43.53734" lon="5.54579">
        <ele>381.3</ele>
        <time>2023-05-28T07:59:27Z</time>
      </trkpt>
      <trkpt lat="43.53734" lon="5.5458">
        <ele>381.5</ele>
        <time>2023-05-28T07:59:28Z</time>
      </trkpt>
      <trkpt lat="43.53735" lon="5.54582">
        <ele>381.6</ele>
        <time>2023-05-28T07:59:29Z</time>
      </trkpt>
      <trkpt lat="43.53736" lon="5.54583">
        <ele>381.7</ele>
        <time>2023-05-28T07:59:30Z</time>
      </trkpt>
      <trkpt lat="43.53736" lon="5.54583">
        <ele>381.9</ele>
        <time>2023-05-28T07:59:31Z</time>
      </trkpt>
      <trkpt lat="43.53736" lon="5.54584">
        <ele>382</ele>
        <time>2023-05-28T07:59:32Z</time>
      </trkpt>
      <trkpt lat="43.53737" lon="5.54585">
        <ele>382.2</ele>
        <time>2023-05-28T07:59:33Z</time>
      </trkpt>
      <trkpt lat="43.53738" lon="5.54587">
        <ele>382.3</ele>
        <time>2023-05-28T07:59:34Z</time>
      </trkpt>
      <trkpt lat="43.53738" lon="5.54588">
        <ele>382.5</ele>
        <time>2023-05-28T07:59:35Z</time>
      </trkpt>
      <trkpt lat="43.53739" lon="5.54589">
        <ele>382.7</ele>
        <time>2023-05-28T07:59:36Z</time>
      </trkpt>
      <trkpt lat="43.5374" lon="5.5459">
        <ele>382.9</ele>
        <time>2023-05-28T07:59:37Z</time>
      </trkpt>
      <trkpt lat="43.5374" lon="5.54591">
        <ele>383</ele>
        <time>2023-05-28T07:59:38Z</time>
      </trkpt>
      <trkpt lat="43.5374" lon="5.54593">
        <ele>383.1</ele>
        <time>2023-05-28T07:59:39Z</time>
      </trkpt>
      <trkpt lat="43.53741" lon="5.54594">
        <ele>383.2</ele>
        <time>2023-05-28T07:59:40Z</time>
      </trkpt>
      <trkpt lat="43.53742" lon="5.54596">
        <ele>383.5</ele>
        <time>2023-05-28T07:59:41Z</time>
      </trkpt>
      <trkpt lat="43.53742" lon="5.54597">
        <ele>383.7</ele>
        <time>2023-05-28T07:59:42Z</time>
      </trkpt>
      <trkpt lat="43.53742" lon="5.54598">
        <ele>383.9</ele>
        <time>2023-05-28T07:59:43Z</time>
      </trkpt>
      <trkpt lat="43.53742" lon="5.54599">
        <ele>384</ele>
        <time>2023-05-28T07:59:44Z</time>
      </trkpt>
      <trkpt lat="43.53743" lon="5.546">
        <ele>384.2</ele>
        <time>2023-05-28T07:59:45Z</time>
      </trkpt>
      <trkpt lat="43.53744" lon="5.54601">
        <ele>384.3</ele>
        <time>2023-05-28T07:59:46Z</time>
      </trkpt>
      <trkpt lat="43.53744" lon="5.54603">
        <ele>384.5</ele>
        <time>2023-05-28T07:59:47Z</time>
      </trkpt>
      <trkpt lat="43.53745" lon="5.54604">
        <ele>384.6</ele>
        <time>2023-05-28T07:59:48Z</time>
      </trkpt>
      <trkpt lat="43.53746" lon="5.54605">
        <ele>384.6</ele>
        <time>2023-05-28T07:59:49Z</time>
      </trkpt>
      <trkpt lat="43.53747" lon="5.54606">
        <ele>384.7</ele>
        <time>2023-05-28T07:59:50Z</time>
      </trkpt>
      <trkpt lat="43.53747" lon="5.54607">
        <ele>384.8</ele>
        <time>2023-05-28T07:59:51Z</time>
      </trkpt>
      <trkpt lat="43.53747" lon="5.54608">
        <ele>384.9</ele>
        <time>2023-05-28T07:59:52Z</time>
      </trkpt>
      <trkpt lat="43.53748" lon="5.54609">
        <ele>385</ele>
        <time>2023-05-28T07:59:53Z</time>
      </trkpt>
      <trkpt lat="43.53749" lon="5.5461">
        <ele>385.1</ele>
        <time>2023-05-28T07:59:54Z</time>
      </trkpt>
      <trkpt lat="43.53749" lon="5.54611">
        <ele>385.2</ele>
        <time>2023-05-28T07:59:55Z</time>
      </trkpt>
      <trkpt lat="43.5375" lon="5.54613">
        <ele>385.4</ele>
        <time>2023-05-28T07:59:56Z</time>
      </trkpt>
      <trkpt lat="43.53751" lon="5.54614">
        <ele>385.5</ele>
        <time>2023-05-28T07:59:57Z</time>
      </trkpt>
      <trkpt lat="43.53751" lon="5.54615">
        <ele>385.7</ele>
        <time>2023-05-28T07:59:58Z</time>
      </trkpt>
      <trkpt lat="43.53752" lon="5.54616">
        <ele>386</ele>
        <time>2023-05-28T07:59:59Z</time>
      </trkpt>
      <trkpt lat="43.53752" lon="5.54618">
        <ele>386.1</ele>
        <time>2023-05-28T08:00:00Z</time>
      </trkpt>
      <trkpt lat="43.53753" lon="5.54618">
        <ele>386.3</ele>
        <time>2023-05-28T08:00:01Z</time>
      </trkpt>
      <trkpt lat="43.53755" lon="5.5462">
        <ele>386.4</ele>
        <time>2023-05-28T08:00:02Z</time>
      </trkpt>
      <trkpt lat="43.53755" lon="5.54621">
        <ele>386.6</ele>
        <time>2023-05-28T08:00:03Z</time>
      </trkpt>
      <trkpt lat="43.53755" lon="5.54622">
        <ele>386.8</ele>
        <time>2023-05-28T08:00:04Z</time>
      </trkpt>
      <trkpt lat="43.53756" lon="5.54622">
        <ele>387</ele>
        <time>2023-05-28T08:00:05Z</time>
      </trkpt>
      <trkpt lat="43.53757" lon="5.54623">
        <ele>387.1</ele>
        <time>2023-05-28T08:00:06Z</time>
      </trkpt>
      <trkpt lat="43.53758" lon="5.54623">
        <ele>387.3</ele>
        <time>2023-05-28T08:00:07Z</time>
      </trkpt>
      <trkpt lat="43.53758" lon="5.54624">
        <ele>387.5</ele>
        <time>2023-05-28T08:00:08Z</time>
      </trkpt>
      <trkpt lat="43.53759" lon="5.54624">
        <ele>387.7</ele>
        <time>2023-05-28T08:00:09Z</time>
      </trkpt>
      <trkpt lat="43.53759" lon="5.54624">
        <ele>387.9</ele>
        <time>2023-05-28T08:00:10Z</time>
      </trkpt>
      <trkpt lat="43.5376" lon="5.54624">
        <ele>388</ele>
        <time>2023-05-28T08:00:11Z</time>
      </trkpt>
      <trkpt lat="43.5376" lon="5.54625">
        <ele>388.2</ele>
        <time>2023-05-28T08:00:12Z</time>
      </trkpt>
      <trkpt lat="43.53761" lon="5.54626">
        <ele>388.4</ele>
        <time>2023-05-28T08:00:13Z</time>
      </trkpt>
      <trkpt lat="43.53762" lon="5.54627">
        <ele>388.5</ele>
        <time>2023-05-28T08:00:14Z</time>
      </trkpt>
      <trkpt lat="43.53763" lon="5.54627">
        <ele>388.6</ele>
        <time>2023-05-28T08:00:15Z</time>
      </trkpt>
      <trkpt lat="43.53764" lon="5.54627">
        <ele>388.8</ele>
        <time>2023-05-28T08:00:16Z</time>
      </trkpt>
      <trkpt lat="43.53765" lon="5.54628">
        <ele>389</ele>
        <time>2023-05-28T08:00:17Z</time>
      </trkpt>
      <trkpt lat="43.53766" lon="5.54628">
        <ele>389.1</ele>
        <time>2023-05-28T08:00:18Z</time>
      </trkpt>
      <trkpt lat="43.53766" lon="5.54628">
        <ele>389.2</ele>
        <time>2023-05-28T08:00:19Z</time>
      </trkpt>
      <trkpt lat="43.53767" lon="5.54629">
        <ele>389.4</ele>
        <time>2023-05-28T08:00:20Z</time>
      </trkpt>
      <trkpt lat="43.53767" lon="5.54629">
        <ele>389.5</ele>
        <time>2023-05-28T08:00:21Z</time>
      </trkpt>
      <trkpt lat="43.53768" lon="5.5463">
        <ele>389.7</ele>
        <time>2023-05-28T08:00:22Z</time>
      </trkpt>
      <trkpt lat="43.53768" lon="5.54631">
        <ele>389.8</ele>
        <time>2023-05-28T08:00:23Z</time>
      </trkpt>
      <trkpt lat="43.53769" lon="5.54632">
        <ele>390</ele>
        <time>2023-05-28T08:00:24Z</time>
      </trkpt>
      <trkpt lat="43.53769" lon="5.54633">
        <ele>390.1</ele>
        <time>2023-05-28T08:00:25Z</time>
      </trkpt>
      <trkpt lat="43.53769" lon="5.54635">
        <ele>390.2</ele>
        <time>2023-05-28T08:00:26Z</time>
      </trkpt>
      <trkpt lat="43.53769" lon="5.54636">
        <ele>390.4</ele>
        <time>2023-05-28T08:00:27Z</time>
      </trkpt>
      <trkpt lat="43.53769" lon="5.54638">
        <ele>390.4</ele>
        <time>2023-05-28T08:00:28Z</time>
      </trkpt>
      <trkpt lat="43.53769" lon="5.54638">
        <ele>390.5</ele>
        <time>2023-05-28T08:00:29Z</time>
      </trkpt>
      <trkpt lat="43.53768" lon="5.54639">
        <ele>390.6</ele>
        <time>2023-05-28T08:00:30Z</time>
      </trkpt>
      <trkpt lat="43.53768" lon="5.5464">
        <ele>390.7</ele>
        <time>2023-05-28T08:00:31Z</time>
      </trkpt>
      <trkpt lat="43.53768" lon="5.54641">
        <ele>390.8</ele>
        <time>2023-05-28T08:00:32Z</time>
      </trkpt>
      <trkpt lat="43.53767" lon="5.54641">
        <ele>390.9</ele>
        <time>2023-05-28T08:00:33Z</time>
      </trkpt>
      <trkpt lat="43.53767" lon="5.54643">
        <ele>390.9</ele>
        <time>2023-05-28T08:00:34Z</time>
      </trkpt>
      <trkpt lat="43.53767" lon="5.54644">
        <ele>391</ele>
        <time>2023-05-28T08:00:35Z</time>
      </trkpt>
      <trkpt lat="43.53767" lon="5.54646">
        <ele>391.1</ele>
        <time>2023-05-28T08:00:36Z</time>
      </trkpt>
      <trkpt lat="43.53767" lon="5.54647">
        <ele>391.2</ele>
        <time>2023-05-28T08:00:37Z</time>
      </trkpt>
      <trkpt lat="43.53767" lon="5.54649">
        <ele>391.3</ele>
        <time>2023-05-28T08:00:38Z</time>
      </trkpt>
      <trkpt lat="43.53767" lon="5.54651">
        <ele>391.4</ele>
        <time>2023-05-28T08:00:39Z</time>
      </trkpt>
      <trkpt lat="43.53767" lon="5.54652">
        <ele>391.4</ele>
        <time>2023-05-28T08:00:40Z</time>
      </trkpt>
      <trkpt lat="43.53767" lon="5.54654">
        <ele>391.5</ele>
        <time>2023-05-28T08:00:41Z</time>
      </trkpt>
      <trkpt lat="43.53768" lon="5.54656">
        <ele>391.6</ele>
        <time>2023-05-28T08:00:42Z</time>
      </trkpt>
      <trkpt lat="43.53768" lon="5.54657">
        <ele>391.7</ele>
        <time>2023-05-28T08:00:43Z</time>
      </trkpt>
      <trkpt lat="43.53768" lon="5.54659">
        <ele>391.9</ele>
        <time>2023-05-28T08:00:44Z</time>
      </trkpt>
      <trkpt lat="43.53768" lon="5.5466">
        <ele>392</ele>
        <time>2023-05-28T08:00:45Z</time>
      </trkpt>
      <trkpt lat="43.53768" lon="5.54662">
        <ele>392</ele>
        <time>2023-05-28T08:00:46Z</time>
      </trkpt>
      <trkpt lat="43.53768" lon="5.54664">
        <ele>392.1</ele>
        <time>2023-05-28T08:00:47Z</time>
      </trkpt>
      <trkpt lat="43.53768" lon="5.54665">
        <ele>392.2</ele>
        <time>2023-05-28T08:00:48Z</time>
      </trkpt>
      <trkpt lat="43.53768" lon="5.54667">
        <ele>392.3</ele>
        <time>2023-05-28T08:00:49Z</time>
      </trkpt>
      <trkpt lat="43.53769" lon="5.54669">
        <ele>392.5</ele>
        <time>2023-05-28T08:00:50Z</time>
      </trkpt>
      <trkpt lat="43.53769" lon="5.54671">
        <ele>392.6</ele>
        <time>2023-05-28T08:00:51Z</time>
      </trkpt>
      <trkpt lat="43.53769" lon="5.54672">
        <ele>392.7</ele>
        <time>2023-05-28T08:00:52Z</time>
      </trkpt>
      <trkpt lat="43.5377" lon="5.54673">
        <ele>393</ele>
        <time>2023-05-28T08:00:53Z</time>
      </trkpt>
      <trkpt lat="43.5377" lon="5.54674">
        <ele>393.3</ele>
        <time>2023-05-28T08:00:54Z</time>
      </trkpt>
      <trkpt lat="43.5377" lon="5.54676">
        <ele>393.5</ele>
        <time>2023-05-28T08:00:55Z</time>
      </trkpt>
      <trkpt lat="43.53771" lon="5.54677">
        <ele>393.8</ele>
        <time>2023-05-28T08:00:56Z</time>
      </trkpt>
      <trkpt lat="43.53771" lon="5.54678">
        <ele>394</ele>
        <time>2023-05-28T08:00:57Z</time>
      </trkpt>
      <trkpt lat="43.53772" lon="5.5468">
        <ele>394.2</ele>
        <time>2023-05-28T08:00:58Z</time>
      </trkpt>
      <trkpt lat="43.53772" lon="5.54681">
        <ele>394.4</ele>
        <time>2023-05-28T08:00:59Z</time>
      </trkpt>
      <trkpt lat="43.53772" lon="5.54683">
        <ele>394.5</ele>
        <time>2023-05-28T08:01:00Z</time>
      </trkpt>
      <trkpt lat="43.53773" lon="5.54684">
        <ele>394.6</ele>
        <time>2023-05-28T08:01:01Z</time>
      </trkpt>
      <trkpt lat="43.53773" lon="5.54686">
        <ele>394.8</ele>
        <time>2023-05-28T08:01:02Z</time>
      </trkpt>
      <trkpt lat="43.53773" lon="5.54687">
        <ele>394.9</ele>
        <time>2023-05-28T08:01:03Z</time>
      </trkpt>
      <trkpt lat="43.53774" lon="5.54688">
        <ele>395.1</ele>
        <time>2023-05-28T08:01:04Z</time>
      </trkpt>
      <trkpt lat="43.53774" lon="5.54689">
        <ele>395.3</ele>
        <time>2023-05-28T08:01:05Z</time>
      </trkpt>
      <trkpt lat="43.53774" lon="5.5469">
        <ele>395.6</ele>
        <time>2023-05-28T08:01:06Z</time>
      </trkpt>
      <trkpt lat="43.53774" lon="5.54691">
        <ele>395.7</ele>
        <time>2023-05-28T08:01:07Z</time>
      </trkpt>
      <trkpt lat="43.53774" lon="5.54691">
        <ele>395.9</ele>
        <time>2023-05-28T08:01:08Z</time>
      </trkpt>
      <trkpt lat="43.53774" lon="5.54692">
        <ele>396</ele>
        <time>2023-05-28T08:01:09Z</time>
      </trkpt>
      <trkpt lat="43.53774" lon="5.54693">
        <ele>396.1</ele>
        <time>2023-05-28T08:01:10Z</time>
      </trkpt>
      <trkpt lat="43.53774" lon="5.54694">
        <ele>396.2</ele>
        <time>2023-05-28T08:01:11Z</time>
      </trkpt>
      <trkpt lat="43.53774" lon="5.54695">
        <ele>396.4</ele>
        <time>2023-05-28T08:01:12Z</time>
      </trkpt>
      <trkpt lat="43.53775" lon="5.54696">
        <ele>396.6</ele>
        <time>2023-05-28T08:01:13Z</time>
      </trkpt>
      <trkpt lat="43.53775" lon="5.54696">
        <ele>396.8</ele>
        <time>2023-05-28T08:01:14Z</time>
      </trkpt>
      <trkpt lat="43.53775" lon="5.54697">
        <ele>397</ele>
        <time>2023-05-28T08:01:15Z</time>
      </trkpt>
      <trkpt lat="43.53776" lon="5.54697">
        <ele>397.1</ele>
        <time>2023-05-28T08:01:16Z</time>
      </trkpt>
      <trkpt lat="43.53776" lon="5.54698">
        <ele>397.2</ele>
        <time>2023-05-28T08:01:17Z</time>
      </trkpt>
      <trkpt lat="43.53776" lon="5.54698">
        <ele>397.3</ele>
        <time>2023-05-28T08:01:18Z</time>
      </trkpt>
      <trkpt lat="43.53776" lon="5.54698">
        <ele>397.4</ele>
        <time>2023-05-28T08:01:19Z</time>
      </trkpt>
      <trkpt lat="43.53776" lon="5.54698">
        <ele>397.5</ele>
        <time>2023-05-28T08:01:20Z</time>
      </trkpt>
      <trkpt lat="43.53775" lon="5.54699">
        <ele>397.7</ele>
        <time>2023-05-28T08:01:21Z</time>
      </trkpt>
      <trkpt lat="43.53775" lon="5.54699">
        <ele>397.8</ele>
        <time>2023-05-28T08:01:22Z</time>
      </trkpt>
      <trkpt lat="43.53775" lon="5.547">
        <ele>397.9</ele>
        <time>2023-05-28T08:01:23Z</time>
      </trkpt>
      <trkpt lat="43.53775" lon="5.54701">
        <ele>398</ele>
        <time>2023-05-28T08:01:24Z</time>
      </trkpt>
      <trkpt lat="43.53776" lon="5.54701">
        <ele>398.2</ele>
        <time>2023-05-28T08:01:25Z</time>
      </trkpt>
      <trkpt lat="43.53776" lon="5.54702">
        <ele>398.4</ele>
        <time>2023-05-28T08:01:26Z</time>
      </trkpt>
      <trkpt lat="43.53776" lon="5.54702">
        <ele>398.7</ele>
        <time>2023-05-28T08:01:27Z</time>
      </trkpt>
      <trkpt lat="43.53776" lon="5.54703">
        <ele>398.9</ele>
        <time>2023-05-28T08:01:28Z</time>
      </trkpt>
      <trkpt lat="43.53776" lon="5.54703">
        <ele>399.2</ele>
        <time>2023-05-28T08:01:29Z</time>
      </trkpt>
      <trkpt lat="43.53776" lon="5.54703">
        <ele>399.5</ele>
        <time>2023-05-28T08:01:30Z</time>
      </trkpt>
      <trkpt lat="43.53776" lon="5.54704">
        <ele>399.6</ele>
        <time>2023-05-28T08:01:31Z</time>
      </trkpt>
      <trkpt lat="43.53776" lon="5.54705">
        <ele>399.7</ele>
        <time>2023-05-28T08:01:32Z</time>
      </trkpt>
      <trkpt lat="43.53776" lon="5.54705">
        <ele>400</ele>
        <time>2023-05-28T08:01:33Z</time>
      </trkpt>
      <trkpt lat="43.53776" lon="5.54706">
        <ele>400.2</ele>
        <time>2023-05-28T08:01:34Z</time>
      </trkpt>
      <trkpt lat="43.53776" lon="5.54706">
        <ele>400.3</ele>
        <time>2023-05-28T08:01:35Z</time>
      </trkpt>
      <trkpt lat="43.53777" lon="5.54707">
        <ele>400.5</ele>
        <time>2023-05-28T08:01:36Z</time>
      </trkpt>
      <trkpt lat="43.53777" lon="5.54708">
        <ele>400.6</ele>
        <time>2023-05-28T08:01:37Z</time>
      </trkpt>
      <trkpt lat="43.53777" lon="5.54709">
        <ele>400.8</ele>
        <time>2023-05-28T08:01:38Z</time>
      </trkpt>
      <trkpt lat="43.53777" lon="5.54709">
        <ele>400.9</ele>
        <time>2023-05-28T08:01:39Z</time>
      </trkpt>
      <trkpt lat="43.53777" lon="5.5471">
        <ele>401.3</ele>
        <time>2023-05-28T08:01:40Z</time>
      </trkpt>
      <trkpt lat="43.53776" lon="5.54711">
        <ele>401.5</ele>
        <time>2023-05-28T08:01:41Z</time>
      </trkpt>
      <trkpt lat="43.53776" lon="5.54711">
        <ele>401.8</ele>
        <time>2023-05-28T08:01:42Z</time>
      </trkpt>
      <trkpt lat="43.53777" lon="5.54712">
        <ele>402</ele>
        <time>2023-05-28T08:01:43Z</time>
      </trkpt>
      <trkpt lat="43.53777" lon="5.54713">
        <ele>402.1</ele>
        <time>2023-05-28T08:01:44Z</time>
      </trkpt>
      <trkpt lat="43.53777" lon="5.54714">
        <ele>402.5</ele>
        <time>2023-05-28T08:01:45Z</time>
      </trkpt>
      <trkpt lat="43.53777" lon="5.54715">
        <ele>402.8</ele>
        <time>2023-05-28T08:01:46Z</time>
      </trkpt>
      <trkpt lat="43.53777" lon="5.54715">
        <ele>403.1</ele>
        <time>2023-05-28T08:01:47Z</time>
      </trkpt>
      <trkpt lat="43.53778" lon="5.54716">
        <ele>403.2</ele>
        <time>2023-05-28T08:01:48Z</time>
      </trkpt>
      <trkpt lat="43.53778" lon="5.54716">
        <ele>403.5</ele>
        <time>2023-05-28T08:01:49Z</time>
      </trkpt>
      <trkpt lat="43.53778" lon="5.54716">
        <ele>403.7</ele>
        <time>2023-05-28T08:01:50Z</time>
      </trkpt>
      <trkpt lat="43.53779" lon="5.54718">
        <ele>403.9</ele>
        <time>2023-05-28T08:01:51Z</time>
      </trkpt>
      <trkpt lat="43.5378" lon="5.54719">
        <ele>404</ele>
        <time>2023-05-28T08:01:52Z</time>
      </trkpt>
      <trkpt lat="43.5378" lon="5.5472">
        <ele>404.2</ele>
        <time>2023-05-28T08:01:53Z</time>
      </trkpt>
      <trkpt lat="43.53781" lon="5.54721">
        <ele>404.3</ele>
        <time>2023-05-28T08:01:54Z</time>
      </trkpt>
      <trkpt lat="43.53781" lon="5.54721">
        <ele>404.5</ele>
        <time>2023-05-28T08:01:55Z</time>
      </trkpt>
      <trkpt lat="43.53782" lon="5.54722">
        <ele>404.7</ele>
        <time>2023-05-28T08:01:56Z</time>
      </trkpt>
      <trkpt lat="43.53782" lon="5.54723">
        <ele>404.8</ele>
        <time>2023-05-28T08:01:57Z</time>
      </trkpt>
      <trkpt lat="43.53782" lon="5.54723">
        <ele>404.9</ele>
        <time>2023-05-28T08:01:58Z</time>
      </trkpt>
      <trkpt lat="43.53782" lon="5.54723">
        <ele>404.9</ele>
        <time>2023-05-28T08:01:59Z</time>
      </trkpt>
      <trkpt lat="43.53782" lon="5.54724">
        <ele>405</ele>
        <time>2023-05-28T08:02:00Z</time>
      </trkpt>
      <trkpt lat="43.53782" lon="5.54726">
        <ele>405.1</ele>
        <time>2023-05-28T08:02:01Z</time>
      </trkpt>
      <trkpt lat="43.53783" lon="5.54727">
        <ele>405.3</ele>
        <time>2023-05-28T08:02:02Z</time>
      </trkpt>
      <trkpt lat="43.53784" lon="5.54728">
        <ele>405.4</ele>
        <time>2023-05-28T08:02:03Z</time>
      </trkpt>
      <trkpt lat="43.53785" lon="5.54729">
        <ele>405.5</ele>
        <time>2023-05-28T08:02:04Z</time>
      </trkpt>
      <trkpt lat="43.53785" lon="5.5473">
        <ele>405.6</ele>
        <time>2023-05-28T08:02:05Z</time>
      </trkpt>
      <trkpt lat="43.53784" lon="5.5473">
        <ele>405.7</ele>
        <time>2023-05-28T08:02:06Z</time>
      </trkpt>
      <trkpt lat="43.53784" lon="5.5473">
        <ele>405.9</ele>
        <time>2023-05-28T08:02:07Z</time>
      </trkpt>
      <trkpt lat="43.53784" lon="5.54731">
        <ele>406.1</ele>
        <time>2023-05-28T08:02:08Z</time>
      </trkpt>
      <trkpt lat="43.53784" lon="5.54732">
        <ele>406.3</ele>
        <time>2023-05-28T08:02:09Z</time>
      </trkpt>
      <trkpt lat="43.53784" lon="5.54732">
        <ele>406.5</ele>
        <time>2023-05-28T08:02:10Z</time>
      </trkpt>
      <trkpt lat="43.53784" lon="5.54732">
        <ele>406.7</ele>
        <time>2023-05-28T08:02:11Z</time>
      </trkpt>
      <trkpt lat="43.53783" lon="5.54733">
        <ele>406.9</ele>
        <time>2023-05-28T08:02:12Z</time>
      </trkpt>
      <trkpt lat="43.53784" lon="5.54733">
        <ele>407.1</ele>
        <time>2023-05-28T08:02:13Z</time>
      </trkpt>
      <trkpt lat="43.53784" lon="5.54734">
        <ele>407.3</ele>
        <time>2023-05-28T08:02:14Z</time>
      </trkpt>
      <trkpt lat="43.53784" lon="5.54735">
        <ele>407.4</ele>
        <time>2023-05-28T08:02:15Z</time>
      </trkpt>
      <trkpt lat="43.53784" lon="5.54736">
        <ele>407.7</ele>
        <time>2023-05-28T08:02:16Z</time>
      </trkpt>
      <trkpt lat="43.53784" lon="5.54738">
        <ele>407.9</ele>
        <time>2023-05-28T08:02:17Z</time>
      </trkpt>
      <trkpt lat="43.53784" lon="5.54739">
        <ele>408.1</ele>
        <time>2023-05-28T08:02:18Z</time>
      </trkpt>
      <trkpt lat="43.53784" lon="5.5474">
        <ele>408.2</ele>
        <time>2023-05-28T08:02:19Z</time>
      </trkpt>
      <trkpt lat="43.53784" lon="5.54741">
        <ele>408.5</ele>
        <time>2023-05-28T08:02:20Z</time>
      </trkpt>
      <trkpt lat="43.53783" lon="5.54742">
        <ele>408.6</ele>
        <time>2023-05-28T08:02:21Z</time>
      </trkpt>
      <trkpt lat="43.53784" lon="5.54742">
        <ele>408.9</ele>
        <time>2023-05-28T08:02:22Z</time>
      </trkpt>
      <trkpt lat="43.53784" lon="5.54743">
        <ele>409</ele>
        <time>2023-05-28T08:02:23Z</time>
      </trkpt>
      <trkpt lat="43.53784" lon="5.54744">
        <ele>409.2</ele>
        <time>2023-05-28T08:02:24Z</time>
      </trkpt>
      <trkpt lat="43.53783" lon="5.54744">
        <ele>409.4</ele>
        <time>2023-05-28T08:02:25Z</time>
      </trkpt>
      <trkpt lat="43.53784" lon="5.54745">
        <ele>409.5</ele>
        <time>2023-05-28T08:02:26Z</time>
      </trkpt>
      <trkpt lat="43.53783" lon="5.54746">
        <ele>409.7</ele>
        <time>2023-05-28T08:02:27Z</time>
      </trkpt>
      <trkpt lat="43.53783" lon="5.54747">
        <ele>409.9</ele>
        <time>2023-05-28T08:02:28Z</time>
      </trkpt>
      <trkpt lat="43.53783" lon="5.54747">
        <ele>410</ele>
        <time>2023-05-28T08:02:29Z</time>
      </trkpt>
      <trkpt lat="43.53783" lon="5.54748">
        <ele>410.1</ele>
        <time>2023-05-28T08:02:30Z</time>
      </trkpt>
      <trkpt lat="43.53783" lon="5.54748">
        <ele>410.2</ele>
        <time>2023-05-28T08:02:31Z</time>
      </trkpt>
      <trkpt lat="43.53783" lon="5.54748">
        <ele>410.4</ele>
        <time>2023-05-28T08:02:32Z</time>
      </trkpt>
      <trkpt lat="43.53783" lon="5.5475">
        <ele>410.6</ele>
        <time>2023-05-28T08:02:33Z</time>
      </trkpt>
      <trkpt lat="43.53783" lon="5.5475">
        <ele>410.7</ele>
        <time>2023-05-28T08:02:34Z</time>
      </trkpt>
      <trkpt lat="43.53783" lon="5.5475">
        <ele>410.9</ele>
        <time>2023-05-28T08:02:35Z</time>
      </trkpt>
      <trkpt lat="43.53784" lon="5.54751">
        <ele>410.8</ele>
        <time>2023-05-28T08:02:36Z</time>
      </trkpt>
      <trkpt lat="43.53784" lon="5.54751">
        <ele>410.9</ele>
        <time>2023-05-28T08:02:37Z</time>
      </trkpt>
      <trkpt lat="43.53784" lon="5.54753">
        <ele>411</ele>
        <time>2023-05-28T08:02:38Z</time>
      </trkpt>
      <trkpt lat="43.53784" lon="5.54753">
        <ele>411.1</ele>
        <time>2023-05-28T08:02:39Z</time>
      </trkpt>
      <trkpt lat="43.53784" lon="5.54754">
        <ele>411.4</ele>
        <time>2023-05-28T08:02:40Z</time>
      </trkpt>
      <trkpt lat="43.53784" lon="5.54754">
        <ele>411.6</ele>
        <time>2023-05-28T08:02:41Z</time>
      </trkpt>
      <trkpt lat="43.53784" lon="5.54756">
        <ele>411.7</ele>
        <time>2023-05-28T08:02:42Z</time>
      </trkpt>
      <trkpt lat="43.53784" lon="5.54756">
        <ele>411.9</ele>
        <time>2023-05-28T08:02:43Z</time>
      </trkpt>
      <trkpt lat="43.53784" lon="5.54757">
        <ele>412.1</ele>
        <time>2023-05-28T08:02:44Z</time>
      </trkpt>
      <trkpt lat="43.53784" lon="5.54758">
        <ele>412.2</ele>
        <time>2023-05-28T08:02:45Z</time>
      </trkpt>
      <trkpt lat="43.53785" lon="5.54759">
        <ele>412.4</ele>
        <time>2023-05-28T08:02:46Z</time>
      </trkpt>
      <trkpt lat="43.53785" lon="5.54759">
        <ele>412.6</ele>
        <time>2023-05-28T08:02:47Z</time>
      </trkpt>
      <trkpt lat="43.53785" lon="5.54761">
        <ele>412.7</ele>
        <time>2023-05-28T08:02:48Z</time>
      </trkpt>
      <trkpt lat="43.53785" lon="5.54761">
        <ele>413</ele>
        <time>2023-05-28T08:02:49Z</time>
      </trkpt>
      <trkpt lat="43.53785" lon="5.54763">
        <ele>413.1</ele>
        <time>2023-05-28T08:02:50Z</time>
      </trkpt>
      <trkpt lat="43.53785" lon="5.54763">
        <ele>413.4</ele>
        <time>2023-05-28T08:02:51Z</time>
      </trkpt>
      <trkpt lat="43.53785" lon="5.54764">
        <ele>413.7</ele>
        <time>2023-05-28T08:02:52Z</time>
      </trkpt>
      <trkpt lat="43.53785" lon="5.54765">
        <ele>413.9</ele>
        <time>2023-05-28T08:02:53Z</time>
      </trkpt>
      <trkpt lat="43.53785" lon="5.54766">
        <ele>414.1</ele>
        <time>2023-05-28T08:02:54Z</time>
      </trkpt>
      <trkpt lat="43.53785" lon="5.54767">
        <ele>414.3</ele>
        <time>2023-05-28T08:02:55Z</time>
      </trkpt>
      <trkpt lat="43.53785" lon="5.54767">
        <ele>414.4</ele>
        <time>2023-05-28T08:02:56Z</time>
      </trkpt>
      <trkpt lat="43.53785" lon="5.54768">
        <ele>414.6</ele>
        <time>2023-05-28T08:02:57Z</time>
      </trkpt>
      <trkpt lat="43.53785" lon="5.54769">
        <ele>414.8</ele>
        <time>2023-05-28T08:02:58Z</time>
      </trkpt>
      <trkpt lat="43.53785" lon="5.5477">
        <ele>415</ele>
        <time>2023-05-28T08:02:59Z</time>
      </trkpt>
      <trkpt lat="43.53785" lon="5.54771">
        <ele>415.3</ele>
        <time>2023-05-28T08:03:00Z</time>
      </trkpt>
      <trkpt lat="43.53786" lon="5.54773">
        <ele>415.5</ele>
        <time>2023-05-28T08:03:01Z</time>
      </trkpt>
      <trkpt lat="43.53785" lon="5.54773">
        <ele>415.8</ele>
        <time>2023-05-28T08:03:02Z</time>
      </trkpt>
      <trkpt lat="43.53786" lon="5.54774">
        <ele>416</ele>
        <time>2023-05-28T08:03:03Z</time>
      </trkpt>
      <trkpt lat="43.53786" lon="5.54775">
        <ele>416.2</ele>
        <time>2023-05-28T08:03:04Z</time>
      </trkpt>
      <trkpt lat="43.53786" lon="5.54775">
        <ele>416.5</ele>
        <time>2023-05-28T08:03:05Z</time>
      </trkpt>
      <trkpt lat="43.53785" lon="5.54775">
        <ele>416.7</ele>
        <time>2023-05-28T08:03:06Z</time>
      </trkpt>
      <trkpt lat="43.53785" lon="5.54776">
        <ele>416.9</ele>
        <time>2023-05-28T08:03:07Z</time>
      </trkpt>
      <trkpt lat="43.53785" lon="5.54777">
        <ele>417</ele>
        <time>2023-05-28T08:03:08Z</time>
      </trkpt>
      <trkpt lat="43.53785" lon="5.54777">
        <ele>417.3</ele>
        <time>2023-05-28T08:03:09Z</time>
      </trkpt>
      <trkpt lat="43.53785" lon="5.54778">
        <ele>417.4</ele>
        <time>2023-05-28T08:03:10Z</time>
      </trkpt>
      <trkpt lat="43.53785" lon="5.54779">
        <ele>417.6</ele>
        <time>2023-05-28T08:03:11Z</time>
      </trkpt>
      <trkpt lat="43.53785" lon="5.5478">
        <ele>417.7</ele>
        <time>2023-05-28T08:03:12Z</time>
      </trkpt>
      <trkpt lat="43.53785" lon="5.5478">
        <ele>417.8</ele>
        <time>2023-05-28T08:03:13Z</time>
      </trkpt>
      <trkpt lat="43.53784" lon="5.54781">
        <ele>418</ele>
        <time>2023-05-28T08:03:14Z</time>
      </trkpt>
      <trkpt lat="43.53784" lon="5.54782">
        <ele>418.2</ele>
        <time>2023-05-28T08:03:15Z</time>
      </trkpt>
      <trkpt lat="43.53784" lon="5.54783">
        <ele>418.4</ele>
        <time>2023-05-28T08:03:16Z</time>
      </trkpt>
      <trkpt lat="43.53784" lon="5.54783">
        <ele>418.6</ele>
        <time>2023-05-28T08:03:17Z</time>
      </trkpt>
      <trkpt lat="43.53784" lon="5.54785">
        <ele>418.7</ele>
        <time>2023-05-28T08:03:18Z</time>
      </trkpt>
      <trkpt lat="43.53784" lon="5.54786">
        <ele>418.8</ele>
        <time>2023-05-28T08:03:19Z</time>
      </trkpt>
      <trkpt lat="43.53785" lon="5.54787">
        <ele>419</ele>
        <time>2023-05-28T08:03:20Z</time>
      </trkpt>
      <trkpt lat="43.53785" lon="5.54788">
        <ele>419.2</ele>
        <time>2023-05-28T08:03:21Z</time>
      </trkpt>
      <trkpt lat="43.53786" lon="5.54789">
        <ele>419.4</ele>
        <time>2023-05-28T08:03:22Z</time>
      </trkpt>
      <trkpt lat="43.53786" lon="5.54789">
        <ele>419.5</ele>
        <time>2023-05-28T08:03:23Z</time>
      </trkpt>
      <trkpt lat="43.53785" lon="5.5479">
        <ele>419.7</ele>
        <time>2023-05-28T08:03:24Z</time>
      </trkpt>
      <trkpt lat="43.53785" lon="5.54791">
        <ele>419.8</ele>
        <time>2023-05-28T08:03:25Z</time>
      </trkpt>
      <trkpt lat="43.53785" lon="5.54793">
        <ele>420</ele>
        <time>2023-05-28T08:03:26Z</time>
      </trkpt>
      <trkpt lat="43.53785" lon="5.54794">
        <ele>420.1</ele>
        <time>2023-05-28T08:03:27Z</time>
      </trkpt>
      <trkpt lat="43.53785" lon="5.54795">
        <ele>420.4</ele>
        <time>2023-05-28T08:03:28Z</time>
      </trkpt>
      <trkpt lat="43.53785" lon="5.54795">
        <ele>420.5</ele>
        <time>2023-05-28T08:03:29Z</time>
      </trkpt>
      <trkpt lat="43.53785" lon="5.54796">
        <ele>420.7</ele>
        <time>2023-05-28T08:03:30Z</time>
      </trkpt>
      <trkpt lat="43.53785" lon="5.54797">
        <ele>420.8</ele>
        <time>2023-05-28T08:03:31Z</time>
      </trkpt>
      <trkpt lat="43.53785" lon="5.54798">
        <ele>421</ele>
        <time>2023-05-28T08:03:32Z</time>
      </trkpt>
      <trkpt lat="43.53785" lon="5.54799">
        <ele>421.2</ele>
        <time>2023-05-28T08:03:33Z</time>
      </trkpt>
      <trkpt lat="43.53784" lon="5.548">
        <ele>421.3</ele>
        <time>2023-05-28T08:03:34Z</time>
      </trkpt>
      <trkpt lat="43.53784" lon="5.54801">
        <ele>421.4</ele>
        <time>2023-05-28T08:03:35Z</time>
      </trkpt>
      <trkpt lat="43.53784" lon="5.54802">
        <ele>421.7</ele>
        <time>2023-05-28T08:03:36Z</time>
      </trkpt>
      <trkpt lat="43.53784" lon="5.54803">
        <ele>421.8</ele>
        <time>2023-05-28T08:03:37Z</time>
      </trkpt>
      <trkpt lat="43.53785" lon="5.54805">
        <ele>422</ele>
        <time>2023-05-28T08:03:38Z</time>
      </trkpt>
      <trkpt lat="43.53785" lon="5.54806">
        <ele>422.1</ele>
        <time>2023-05-28T08:03:39Z</time>
      </trkpt>
      <trkpt lat="43.53786" lon="5.54807">
        <ele>422.3</ele>
        <time>2023-05-28T08:03:40Z</time>
      </trkpt>
      <trkpt lat="43.53786" lon="5.54808">
        <ele>422.5</ele>
        <time>2023-05-28T08:03:41Z</time>
      </trkpt>
      <trkpt lat="43.53786" lon="5.54809">
        <ele>422.7</ele>
        <time>2023-05-28T08:03:42Z</time>
      </trkpt>
      <trkpt lat="43.53787" lon="5.5481">
        <ele>422.8</ele>
        <time>2023-05-28T08:03:43Z</time>
      </trkpt>
      <trkpt lat="43.53787" lon="5.54811">
        <ele>423</ele>
        <time>2023-05-28T08:03:44Z</time>
      </trkpt>
      <trkpt lat="43.53788" lon="5.54812">
        <ele>423.2</ele>
        <time>2023-05-28T08:03:45Z</time>
      </trkpt>
      <trkpt lat="43.53788" lon="5.54813">
        <ele>423.4</ele>
        <time>2023-05-28T08:03:46Z</time>
      </trkpt>
      <trkpt lat="43.53788" lon="5.54815">
        <ele>423.6</ele>
        <time>2023-05-28T08:03:47Z</time>
      </trkpt>
      <trkpt lat="43.53787" lon="5.54816">
        <ele>423.8</ele>
        <time>2023-05-28T08:03:48Z</time>
      </trkpt>
      <trkpt lat="43.53788" lon="5.54817">
        <ele>423.9</ele>
        <time>2023-05-28T08:03:49Z</time>
      </trkpt>
      <trkpt lat="43.53788" lon="5.54819">
        <ele>424</ele>
        <time>2023-05-28T08:03:50Z</time>
      </trkpt>
      <trkpt lat="43.53788" lon="5.5482">
        <ele>424.1</ele>
        <time>2023-05-28T08:03:51Z</time>
      </trkpt>
      <trkpt lat="43.53788" lon="5.54822">
        <ele>424.1</ele>
        <time>2023-05-28T08:03:52Z</time>
      </trkpt>
      <trkpt lat="43.53788" lon="5.54823">
        <ele>424.2</ele>
        <time>2023-05-28T08:03:53Z</time>
      </trkpt>
      <trkpt lat="43.53789" lon="5.54825">
        <ele>424.2</ele>
        <time>2023-05-28T08:03:54Z</time>
      </trkpt>
      <trkpt lat="43.53789" lon="5.54826">
        <ele>424.4</ele>
        <time>2023-05-28T08:03:55Z</time>
      </trkpt>
      <trkpt lat="43.5379" lon="5.54828">
        <ele>424.5</ele>
        <time>2023-05-28T08:03:56Z</time>
      </trkpt>
      <trkpt lat="43.5379" lon="5.54829">
        <ele>424.6</ele>
        <time>2023-05-28T08:03:57Z</time>
      </trkpt>
      <trkpt lat="43.53791" lon="5.5483">
        <ele>424.8</ele>
        <time>2023-05-28T08:03:58Z</time>
      </trkpt>
      <trkpt lat="43.53791" lon="5.54832">
        <ele>424.8</ele>
        <time>2023-05-28T08:03:59Z</time>
      </trkpt>
      <trkpt lat="43.53792" lon="5.54833">
        <ele>424.9</ele>
        <time>2023-05-28T08:04:00Z</time>
      </trkpt>
      <trkpt lat="43.53792" lon="5.54835">
        <ele>424.9</ele>
        <time>2023-05-28T08:04:01Z</time>
      </trkpt>
      <trkpt lat="43.53793" lon="5.54836">
        <ele>425</ele>
        <time>2023-05-28T08:04:02Z</time>
      </trkpt>
      <trkpt lat="43.53794" lon="5.54837">
        <ele>425.1</ele>
        <time>2023-05-28T08:04:03Z</time>
      </trkpt>
      <trkpt lat="43.53795" lon="5.54839">
        <ele>425.2</ele>
        <time>2023-05-28T08:04:04Z</time>
      </trkpt>
      <trkpt lat="43.53795" lon="5.5484">
        <ele>425.3</ele>
        <time>2023-05-28T08:04:05Z</time>
      </trkpt>
      <trkpt lat="43.53796" lon="5.54841">
        <ele>425.5</ele>
        <time>2023-05-28T08:04:06Z</time>
      </trkpt>
      <trkpt lat="43.53798" lon="5.54842">
        <ele>425.6</ele>
        <time>2023-05-28T08:04:07Z</time>
      </trkpt>
      <trkpt lat="43.53799" lon="5.54843">
        <ele>425.7</ele>
        <time>2023-05-28T08:04:08Z</time>
      </trkpt>
      <trkpt lat="43.53799" lon="5.54844">
        <ele>425.8</ele>
        <time>2023-05-28T08:04:09Z</time>
      </trkpt>
      <trkpt lat="43.538" lon="5.54845">
        <ele>425.9</ele>
        <time>2023-05-28T08:04:10Z</time>
      </trkpt>
      <trkpt lat="43.53801" lon="5.54846">
        <ele>426</ele>
        <time>2023-05-28T08:04:11Z</time>
      </trkpt>
      <trkpt lat="43.53802" lon="5.54847">
        <ele>426.1</ele>
        <time>2023-05-28T08:04:12Z</time>
      </trkpt>
      <trkpt lat="43.53803" lon="5.54848">
        <ele>426.2</ele>
        <time>2023-05-28T08:04:13Z</time>
      </trkpt>
      <trkpt lat="43.53804" lon="5.54849">
        <ele>426.4</ele>
        <time>2023-05-28T08:04:14Z</time>
      </trkpt>
      <trkpt lat="43.53805" lon="5.5485">
        <ele>426.6</ele>
        <time>2023-05-28T08:04:15Z</time>
      </trkpt>
      <trkpt lat="43.53806" lon="5.54851">
        <ele>426.7</ele>
        <time>2023-05-28T08:04:16Z</time>
      </trkpt>
      <trkpt lat="43.53807" lon="5.54852">
        <ele>426.9</ele>
        <time>2023-05-28T08:04:17Z</time>
      </trkpt>
      <trkpt lat="43.53807" lon="5.54853">
        <ele>426.9</ele>
        <time>2023-05-28T08:04:18Z</time>
      </trkpt>
      <trkpt lat="43.53808" lon="5.54855">
        <ele>427.1</ele>
        <time>2023-05-28T08:04:19Z</time>
      </trkpt>
      <trkpt lat="43.53809" lon="5.54856">
        <ele>427.1</ele>
        <time>2023-05-28T08:04:20Z</time>
      </trkpt>
      <trkpt lat="43.5381" lon="5.54857">
        <ele>427.3</ele>
        <time>2023-05-28T08:04:21Z</time>
      </trkpt>
      <trkpt lat="43.5381" lon="5.54859">
        <ele>427.5</ele>
        <time>2023-05-28T08:04:22Z</time>
      </trkpt>
      <trkpt lat="43.53811" lon="5.5486">
        <ele>427.6</ele>
        <time>2023-05-28T08:04:23Z</time>
      </trkpt>
      <trkpt lat="43.53812" lon="5.54861">
        <ele>427.7</ele>
        <time>2023-05-28T08:04:24Z</time>
      </trkpt>
      <trkpt lat="43.53813" lon="5.54862">
        <ele>427.8</ele>
        <time>2023-05-28T08:04:25Z</time>
      </trkpt>
      <trkpt lat="43.53813" lon="5.54864">
        <ele>428</ele>
        <time>2023-05-28T08:04:26Z</time>
      </trkpt>
      <trkpt lat="43.53814" lon="5.54865">
        <ele>428.1</ele>
        <time>2023-05-28T08:04:27Z</time>
      </trkpt>
      <trkpt lat="43.53815" lon="5.54866">
        <ele>428.2</ele>
        <time>2023-05-28T08:04:28Z</time>
      </trkpt>
      <trkpt lat="43.53816" lon="5.54867">
        <ele>428.3</ele>
        <time>2023-05-28T08:04:29Z</time>
      </trkpt>
      <trkpt lat="43.53817" lon="5.54868">
        <ele>428.5</ele>
        <time>2023-05-28T08:04:30Z</time>
      </trkpt>
      <trkpt lat="43.53818" lon="5.54868">
        <ele>428.7</ele>
        <time>2023-05-28T08:04:31Z</time>
      </trkpt>
      <trkpt lat="43.53819" lon="5.54869">
        <ele>428.8</ele>
        <time>2023-05-28T08:04:32Z</time>
      </trkpt>
      <trkpt lat="43.53819" lon="5.5487">
        <ele>428.8</ele>
        <time>2023-05-28T08:04:33Z</time>
      </trkpt>
      <trkpt lat="43.5382" lon="5.54871">
        <ele>429</ele>
        <time>2023-05-28T08:04:34Z</time>
      </trkpt>
      <trkpt lat="43.53822" lon="5.54871">
        <ele>429.1</ele>
        <time>2023-05-28T08:04:35Z</time>
      </trkpt>
      <trkpt lat="43.53823" lon="5.54872">
        <ele>429.3</ele>
        <time>2023-05-28T08:04:36Z</time>
      </trkpt>
      <trkpt lat="43.53824" lon="5.54874">
        <ele>429.5</ele>
        <time>2023-05-28T08:04:37Z</time>
      </trkpt>
      <trkpt lat="43.53825" lon="5.54874">
        <ele>429.7</ele>
        <time>2023-05-28T08:04:38Z</time>
      </trkpt>
      <trkpt lat="43.53826" lon="5.54875">
        <ele>429.8</ele>
        <time>2023-05-28T08:04:39Z</time>
      </trkpt>
      <trkpt lat="43.53827" lon="5.54876">
        <ele>430</ele>
        <time>2023-05-28T08:04:40Z</time>
      </trkpt>
      <trkpt lat="43.53827" lon="5.54877">
        <ele>430.1</ele>
        <time>2023-05-28T08:04:41Z</time>
      </trkpt>
      <trkpt lat="43.53828" lon="5.54878">
        <ele>430.4</ele>
        <time>2023-05-28T08:04:42Z</time>
      </trkpt>
      <trkpt lat="43.53829" lon="5.54879">
        <ele>430.5</ele>
        <time>2023-05-28T08:04:43Z</time>
      </trkpt>
      <trkpt lat="43.53829" lon="5.54881">
        <ele>430.6</ele>
        <time>2023-05-28T08:04:44Z</time>
      </trkpt>
      <trkpt lat="43.5383" lon="5.54883">
        <ele>430.7</ele>
        <time>2023-05-28T08:04:45Z</time>
      </trkpt>
      <trkpt lat="43.53831" lon="5.54885">
        <ele>430.8</ele>
        <time>2023-05-28T08:04:46Z</time>
      </trkpt>
      <trkpt lat="43.53831" lon="5.54886">
        <ele>430.9</ele>
        <time>2023-05-28T08:04:47Z</time>
      </trkpt>
      <trkpt lat="43.53832" lon="5.54887">
        <ele>431</ele>
        <time>2023-05-28T08:04:48Z</time>
      </trkpt>
      <trkpt lat="43.53832" lon="5.54888">
        <ele>431.1</ele>
        <time>2023-05-28T08:04:49Z</time>
      </trkpt>
      <trkpt lat="43.53834" lon="5.54888">
        <ele>431.2</ele>
        <time>2023-05-28T08:04:50Z</time>
      </trkpt>
      <trkpt lat="43.53835" lon="5.54889">
        <ele>431.2</ele>
        <time>2023-05-28T08:04:51Z</time>
      </trkpt>
      <trkpt lat="43.53836" lon="5.5489">
        <ele>431.4</ele>
        <time>2023-05-28T08:04:52Z</time>
      </trkpt>
      <trkpt lat="43.53837" lon="5.5489">
        <ele>431.5</ele>
        <time>2023-05-28T08:04:53Z</time>
      </trkpt>
      <trkpt lat="43.53838" lon="5.54891">
        <ele>431.7</ele>
        <time>2023-05-28T08:04:54Z</time>
      </trkpt>
      <trkpt lat="43.53839" lon="5.54892">
        <ele>431.9</ele>
        <time>2023-05-28T08:04:55Z</time>
      </trkpt>
      <trkpt lat="43.5384" lon="5.54893">
        <ele>432</ele>
        <time>2023-05-28T08:04:56Z</time>
      </trkpt>
      <trkpt lat="43.5384" lon="5.54893">
        <ele>432.1</ele>
        <time>2023-05-28T08:04:57Z</time>
      </trkpt>
      <trkpt lat="43.53841" lon="5.54894">
        <ele>432.2</ele>
        <time>2023-05-28T08:04:58Z</time>
      </trkpt>
      <trkpt lat="43.53842" lon="5.54895">
        <ele>432.4</ele>
        <time>2023-05-28T08:04:59Z</time>
      </trkpt>
      <trkpt lat="43.53842" lon="5.54896">
        <ele>432.4</ele>
        <time>2023-05-28T08:05:00Z</time>
      </trkpt>
      <trkpt lat="43.53843" lon="5.54897">
        <ele>432.5</ele>
        <time>2023-05-28T08:05:01Z</time>
      </trkpt>
      <trkpt lat="43.53843" lon="5.54898">
        <ele>432.6</ele>
        <time>2023-05-28T08:05:02Z</time>
      </trkpt>
      <trkpt lat="43.53844" lon="5.54899">
        <ele>432.6</ele>
        <time>2023-05-28T08:05:03Z</time>
      </trkpt>
      <trkpt lat="43.53845" lon="5.549">
        <ele>432.7</ele>
        <time>2023-05-28T08:05:04Z</time>
      </trkpt>
      <trkpt lat="43.53845" lon="5.54902">
        <ele>432.8</ele>
        <time>2023-05-28T08:05:05Z</time>
      </trkpt>
      <trkpt lat="43.53846" lon="5.54903">
        <ele>433</ele>
        <time>2023-05-28T08:05:06Z</time>
      </trkpt>
      <trkpt lat="43.53846" lon="5.54904">
        <ele>433</ele>
        <time>2023-05-28T08:05:07Z</time>
      </trkpt>
      <trkpt lat="43.53846" lon="5.54905">
        <ele>433.2</ele>
        <time>2023-05-28T08:05:08Z</time>
      </trkpt>
      <trkpt lat="43.53846" lon="5.54905">
        <ele>433.4</ele>
        <time>2023-05-28T08:05:09Z</time>
      </trkpt>
      <trkpt lat="43.53847" lon="5.54906">
        <ele>433.6</ele>
        <time>2023-05-28T08:05:10Z</time>
      </trkpt>
      <trkpt lat="43.53847" lon="5.54908">
        <ele>433.8</ele>
        <time>2023-05-28T08:05:11Z</time>
      </trkpt>
      <trkpt lat="43.53848" lon="5.54909">
        <ele>434</ele>
        <time>2023-05-28T08:05:12Z</time>
      </trkpt>
      <trkpt lat="43.53848" lon="5.5491">
        <ele>434.1</ele>
        <time>2023-05-28T08:05:13Z</time>
      </trkpt>
      <trkpt lat="43.53849" lon="5.54912">
        <ele>434.3</ele>
        <time>2023-05-28T08:05:14Z</time>
      </trkpt>
      <trkpt lat="43.5385" lon="5.54913">
        <ele>434.4</ele>
        <time>2023-05-28T08:05:15Z</time>
      </trkpt>
      <trkpt lat="43.53851" lon="5.54915">
        <ele>434.6</ele>
        <time>2023-05-28T08:05:16Z</time>
      </trkpt>
      <trkpt lat="43.53851" lon="5.54917">
        <ele>434.8</ele>
        <time>2023-05-28T08:05:17Z</time>
      </trkpt>
      <trkpt lat="43.53852" lon="5.54918">
        <ele>435</ele>
        <time>2023-05-28T08:05:18Z</time>
      </trkpt>
      <trkpt lat="43.53852" lon="5.54919">
        <ele>435.2</ele>
        <time>2023-05-28T08:05:19Z</time>
      </trkpt>
      <trkpt lat="43.53853" lon="5.54921">
        <ele>435.3</ele>
        <time>2023-05-28T08:05:20Z</time>
      </trkpt>
      <trkpt lat="43.53854" lon="5.54922">
        <ele>435.5</ele>
        <time>2023-05-28T08:05:21Z</time>
      </trkpt>
      <trkpt lat="43.53854" lon="5.54923">
        <ele>435.7</ele>
        <time>2023-05-28T08:05:22Z</time>
      </trkpt>
      <trkpt lat="43.53854" lon="5.54924">
        <ele>435.8</ele>
        <time>2023-05-28T08:05:23Z</time>
      </trkpt>
      <trkpt lat="43.53855" lon="5.54925">
        <ele>436.1</ele>
        <time>2023-05-28T08:05:24Z</time>
      </trkpt>
      <trkpt lat="43.53855" lon="5.54927">
        <ele>436.3</ele>
        <time>2023-05-28T08:05:25Z</time>
      </trkpt>
      <trkpt lat="43.53856" lon="5.54928">
        <ele>436.5</ele>
        <time>2023-05-28T08:05:26Z</time>
      </trkpt>
      <trkpt lat="43.53856" lon="5.54929">
        <ele>436.6</ele>
        <time>2023-05-28T08:05:27Z</time>
      </trkpt>
      <trkpt lat="43.53856" lon="5.5493">
        <ele>436.7</ele>
        <time>2023-05-28T08:05:28Z</time>
      </trkpt>
      <trkpt lat="43.53857" lon="5.54932">
        <ele>436.8</ele>
        <time>2023-05-28T08:05:29Z</time>
      </trkpt>
      <trkpt lat="43.53858" lon="5.54933">
        <ele>437</ele>
        <time>2023-05-28T08:05:30Z</time>
      </trkpt>
      <trkpt lat="43.53859" lon="5.54934">
        <ele>437.1</ele>
        <time>2023-05-28T08:05:31Z</time>
      </trkpt>
      <trkpt lat="43.53859" lon="5.54936">
        <ele>437.2</ele>
        <time>2023-05-28T08:05:32Z</time>
      </trkpt>
      <trkpt lat="43.5386" lon="5.54938">
        <ele>437.3</ele>
        <time>2023-05-28T08:05:33Z</time>
      </trkpt>
      <trkpt lat="43.5386" lon="5.54939">
        <ele>437.6</ele>
        <time>2023-05-28T08:05:34Z</time>
      </trkpt>
      <trkpt lat="43.53861" lon="5.5494">
        <ele>437.8</ele>
        <time>2023-05-28T08:05:35Z</time>
      </trkpt>
      <trkpt lat="43.53861" lon="5.54941">
        <ele>437.9</ele>
        <time>2023-05-28T08:05:36Z</time>
      </trkpt>
      <trkpt lat="43.53862" lon="5.54943">
        <ele>438</ele>
        <time>2023-05-28T08:05:37Z</time>
      </trkpt>
      <trkpt lat="43.53862" lon="5.54944">
        <ele>438.1</ele>
        <time>2023-05-28T08:05:38Z</time>
      </trkpt>
      <trkpt lat="43.53863" lon="5.54946">
        <ele>438.4</ele>
        <time>2023-05-28T08:05:39Z</time>
      </trkpt>
      <trkpt lat="43.53863" lon="5.54947">
        <ele>438.5</ele>
        <time>2023-05-28T08:05:40Z</time>
      </trkpt>
      <trkpt lat="43.53863" lon="5.54948">
        <ele>438.7</ele>
        <time>2023-05-28T08:05:41Z</time>
      </trkpt>
      <trkpt lat="43.53863" lon="5.5495">
        <ele>438.8</ele>
        <time>2023-05-28T08:05:42Z</time>
      </trkpt>
      <trkpt lat="43.53863" lon="5.54951">
        <ele>439</ele>
        <time>2023-05-28T08:05:43Z</time>
      </trkpt>
      <trkpt lat="43.53863" lon="5.54952">
        <ele>439.2</ele>
        <time>2023-05-28T08:05:44Z</time>
      </trkpt>
      <trkpt lat="43.53863" lon="5.54954">
        <ele>439.4</ele>
        <time>2023-05-28T08:05:45Z</time>
      </trkpt>
      <trkpt lat="43.53863" lon="5.54955">
        <ele>439.4</ele>
        <time>2023-05-28T08:05:46Z</time>
      </trkpt>
      <trkpt lat="43.53863" lon="5.54957">
        <ele>439.6</ele>
        <time>2023-05-28T08:05:47Z</time>
      </trkpt>
      <trkpt lat="43.53863" lon="5.54959">
        <ele>439.8</ele>
        <time>2023-05-28T08:05:48Z</time>
      </trkpt>
      <trkpt lat="43.53864" lon="5.5496">
        <ele>440</ele>
        <time>2023-05-28T08:05:49Z</time>
      </trkpt>
      <trkpt lat="43.53865" lon="5.54961">
        <ele>440.1</ele>
        <time>2023-05-28T08:05:50Z</time>
      </trkpt>
      <trkpt lat="43.53865" lon="5.54962">
        <ele>440.2</ele>
        <time>2023-05-28T08:05:51Z</time>
      </trkpt>
      <trkpt lat="43.53866" lon="5.54964">
        <ele>440.3</ele>
        <time>2023-05-28T08:05:52Z</time>
      </trkpt>
      <trkpt lat="43.53867" lon="5.54965">
        <ele>440.5</ele>
        <time>2023-05-28T08:05:53Z</time>
      </trkpt>
      <trkpt lat="43.53867" lon="5.54966">
        <ele>440.8</ele>
        <time>2023-05-28T08:05:54Z</time>
      </trkpt>
      <trkpt lat="43.53867" lon="5.54968">
        <ele>441</ele>
        <time>2023-05-28T08:05:55Z</time>
      </trkpt>
      <trkpt lat="43.53867" lon="5.5497">
        <ele>441.2</ele>
        <time>2023-05-28T08:05:56Z</time>
      </trkpt>
      <trkpt lat="43.53868" lon="5.54971">
        <ele>441.4</ele>
        <time>2023-05-28T08:05:57Z</time>
      </trkpt>
      <trkpt lat="43.53868" lon="5.54972">
        <ele>441.8</ele>
        <time>2023-05-28T08:05:58Z</time>
      </trkpt>
      <trkpt lat="43.53869" lon="5.54973">
        <ele>442</ele>
        <time>2023-05-28T08:05:59Z</time>
      </trkpt>
      <trkpt lat="43.53868" lon="5.54974">
        <ele>442.2</ele>
        <time>2023-05-28T08:06:00Z</time>
      </trkpt>
      <trkpt lat="43.53869" lon="5.54974">
        <ele>442.4</ele>
        <time>2023-05-28T08:06:01Z</time>
      </trkpt>
      <trkpt lat="43.53869" lon="5.54975">
        <ele>442.5</ele>
        <time>2023-05-28T08:06:02Z</time>
      </trkpt>
      <trkpt lat="43.53869" lon="5.54975">
        <ele>442.7</ele>
        <time>2023-05-28T08:06:03Z</time>
      </trkpt>
      <trkpt lat="43.53869" lon="5.54977">
        <ele>442.9</ele>
        <time>2023-05-28T08:06:04Z</time>
      </trkpt>
      <trkpt lat="43.53869" lon="5.54977">
        <ele>443.1</ele>
        <time>2023-05-28T08:06:05Z</time>
      </trkpt>
      <trkpt lat="43.53869" lon="5.54978">
        <ele>443.3</ele>
        <time>2023-05-28T08:06:06Z</time>
      </trkpt>
      <trkpt lat="43.5387" lon="5.54978">
        <ele>443.4</ele>
        <time>2023-05-28T08:06:07Z</time>
      </trkpt>
      <trkpt lat="43.53871" lon="5.54978">
        <ele>443.6</ele>
        <time>2023-05-28T08:06:08Z</time>
      </trkpt>
      <trkpt lat="43.53871" lon="5.54979">
        <ele>443.7</ele>
        <time>2023-05-28T08:06:09Z</time>
      </trkpt>
      <trkpt lat="43.53871" lon="5.54979">
        <ele>443.8</ele>
        <time>2023-05-28T08:06:10Z</time>
      </trkpt>
      <trkpt lat="43.53872" lon="5.54979">
        <ele>443.9</ele>
        <time>2023-05-28T08:06:11Z</time>
      </trkpt>
      <trkpt lat="43.53872" lon="5.5498">
        <ele>444</ele>
        <time>2023-05-28T08:06:12Z</time>
      </trkpt>
      <trkpt lat="43.53873" lon="5.54981">
        <ele>443.9</ele>
        <time>2023-05-28T08:06:13Z</time>
      </trkpt>
      <trkpt lat="43.53874" lon="5.54982">
        <ele>444.1</ele>
        <time>2023-05-28T08:06:14Z</time>
      </trkpt>
      <trkpt lat="43.53875" lon="5.54983">
        <ele>444.2</ele>
        <time>2023-05-28T08:06:15Z</time>
      </trkpt>
      <trkpt lat="43.53875" lon="5.54984">
        <ele>444.3</ele>
        <time>2023-05-28T08:06:16Z</time>
      </trkpt>
      <trkpt lat="43.53876" lon="5.54985">
        <ele>444.5</ele>
        <time>2023-05-28T08:06:17Z</time>
      </trkpt>
      <trkpt lat="43.53877" lon="5.54987">
        <ele>444.6</ele>
        <time>2023-05-28T08:06:18Z</time>
      </trkpt>
      <trkpt lat="43.53877" lon="5.54988">
        <ele>444.7</ele>
        <time>2023-05-28T08:06:19Z</time>
      </trkpt>
      <trkpt lat="43.53878" lon="5.54989">
        <ele>444.9</ele>
        <time>2023-05-28T08:06:20Z</time>
      </trkpt>
      <trkpt lat="43.53878" lon="5.54991">
        <ele>445</ele>
        <time>2023-05-28T08:06:21Z</time>
      </trkpt>
      <trkpt lat="43.53879" lon="5.54992">
        <ele>445.2</ele>
        <time>2023-05-28T08:06:22Z</time>
      </trkpt>
      <trkpt lat="43.5388" lon="5.54993">
        <ele>445.4</ele>
        <time>2023-05-28T08:06:23Z</time>
      </trkpt>
      <trkpt lat="43.53881" lon="5.54994">
        <ele>445.6</ele>
        <time>2023-05-28T08:06:24Z</time>
      </trkpt>
      <trkpt lat="43.53881" lon="5.54995">
        <ele>445.7</ele>
        <time>2023-05-28T08:06:25Z</time>
      </trkpt>
      <trkpt lat="43.53883" lon="5.54996">
        <ele>445.8</ele>
        <time>2023-05-28T08:06:26Z</time>
      </trkpt>
      <trkpt lat="43.53883" lon="5.54997">
        <ele>446</ele>
        <time>2023-05-28T08:06:27Z</time>
      </trkpt>
      <trkpt lat="43.53884" lon="5.54998">
        <ele>446.1</ele>
        <time>2023-05-28T08:06:28Z</time>
      </trkpt>
      <trkpt lat="43.53885" lon="5.54999">
        <ele>446.3</ele>
        <time>2023-05-28T08:06:29Z</time>
      </trkpt>
      <trkpt lat="43.53885" lon="5.55">
        <ele>446.5</ele>
        <time>2023-05-28T08:06:30Z</time>
      </trkpt>
      <trkpt lat="43.53886" lon="5.55001">
        <ele>446.7</ele>
        <time>2023-05-28T08:06:31Z</time>
      </trkpt>
      <trkpt lat="43.53886" lon="5.55002">
        <ele>446.8</ele>
        <time>2023-05-28T08:06:32Z</time>
      </trkpt>
      <trkpt lat="43.53886" lon="5.55003">
        <ele>447</ele>
        <time>2023-05-28T08:06:33Z</time>
      </trkpt>
      <trkpt lat="43.53886" lon="5.55004">
        <ele>447</ele>
        <time>2023-05-28T08:06:34Z</time>
      </trkpt>
      <trkpt lat="43.53886" lon="5.55005">
        <ele>447.2</ele>
        <time>2023-05-28T08:06:35Z</time>
      </trkpt>
      <trkpt lat="43.53886" lon="5.55007">
        <ele>447.4</ele>
        <time>2023-05-28T08:06:36Z</time>
      </trkpt>
      <trkpt lat="43.53886" lon="5.55008">
        <ele>447.6</ele>
        <time>2023-05-28T08:06:37Z</time>
      </trkpt>
      <trkpt lat="43.53886" lon="5.55009">
        <ele>447.8</ele>
        <time>2023-05-28T08:06:38Z</time>
      </trkpt>
      <trkpt lat="43.53886" lon="5.5501">
        <ele>448</ele>
        <time>2023-05-28T08:06:39Z</time>
      </trkpt>
      <trkpt lat="43.53886" lon="5.55012">
        <ele>448.1</ele>
        <time>2023-05-28T08:06:40Z</time>
      </trkpt>
      <trkpt lat="43.53887" lon="5.55013">
        <ele>448.4</ele>
        <time>2023-05-28T08:06:41Z</time>
      </trkpt>
      <trkpt lat="43.53887" lon="5.55014">
        <ele>448.5</ele>
        <time>2023-05-28T08:06:42Z</time>
      </trkpt>
      <trkpt lat="43.53887" lon="5.55015">
        <ele>448.8</ele>
        <time>2023-05-28T08:06:43Z</time>
      </trkpt>
      <trkpt lat="43.53888" lon="5.55017">
        <ele>448.9</ele>
        <time>2023-05-28T08:06:44Z</time>
      </trkpt>
      <trkpt lat="43.53888" lon="5.55018">
        <ele>449.1</ele>
        <time>2023-05-28T08:06:45Z</time>
      </trkpt>
      <trkpt lat="43.53889" lon="5.55019">
        <ele>449.3</ele>
        <time>2023-05-28T08:06:46Z</time>
      </trkpt>
      <trkpt lat="43.53889" lon="5.5502">
        <ele>449.4</ele>
        <time>2023-05-28T08:06:47Z</time>
      </trkpt>
      <trkpt lat="43.53889" lon="5.55021">
        <ele>449.6</ele>
        <time>2023-05-28T08:06:48Z</time>
      </trkpt>
      <trkpt lat="43.53889" lon="5.55023">
        <ele>449.8</ele>
        <time>2023-05-28T08:06:49Z</time>
      </trkpt>
      <trkpt lat="43.5389" lon="5.55024">
        <ele>450</ele>
        <time>2023-05-28T08:06:50Z</time>
      </trkpt>
      <trkpt lat="43.5389" lon="5.55026">
        <ele>450.2</ele>
        <time>2023-05-28T08:06:51Z</time>
      </trkpt>
      <trkpt lat="43.53891" lon="5.55027">
        <ele>450.5</ele>
        <time>2023-05-28T08:06:52Z</time>
      </trkpt>
      <trkpt lat="43.53891" lon="5.55028">
        <ele>450.7</ele>
        <time>2023-05-28T08:06:53Z</time>
      </trkpt>
      <trkpt lat="43.53892" lon="5.55029">
        <ele>450.9</ele>
        <time>2023-05-28T08:06:54Z</time>
      </trkpt>
      <trkpt lat="43.53893" lon="5.55031">
        <ele>451</ele>
        <time>2023-05-28T08:06:55Z</time>
      </trkpt>
      <trkpt lat="43.53893" lon="5.55032">
        <ele>451.2</ele>
        <time>2023-05-28T08:06:56Z</time>
      </trkpt>
      <trkpt lat="43.53894" lon="5.55034">
        <ele>451.5</ele>
        <time>2023-05-28T08:06:57Z</time>
      </trkpt>
      <trkpt lat="43.53894" lon="5.55035">
        <ele>451.6</ele>
        <time>2023-05-28T08:06:58Z</time>
      </trkpt>
      <trkpt lat="43.53894" lon="5.55036">
        <ele>451.9</ele>
        <time>2023-05-28T08:06:59Z</time>
      </trkpt>
      <trkpt lat="43.53894" lon="5.55037">
        <ele>452.2</ele>
        <time>2023-05-28T08:07:00Z</time>
      </trkpt>
      <trkpt lat="43.53894" lon="5.55039">
        <ele>452.3</ele>
        <time>2023-05-28T08:07:01Z</time>
      </trkpt>
      <trkpt lat="43.53894" lon="5.5504">
        <ele>452.6</ele>
        <time>2023-05-28T08:07:02Z</time>
      </trkpt>
      <trkpt lat="43.53895" lon="5.55042">
        <ele>452.8</ele>
        <time>2023-05-28T08:07:03Z</time>
      </trkpt>
      <trkpt lat="43.53895" lon="5.55043">
        <ele>452.9</ele>
        <time>2023-05-28T08:07:04Z</time>
      </trkpt>
      <trkpt lat="43.53895" lon="5.55044">
        <ele>453.1</ele>
        <time>2023-05-28T08:07:05Z</time>
      </trkpt>
      <trkpt lat="43.53895" lon="5.55046">
        <ele>453.2</ele>
        <time>2023-05-28T08:07:06Z</time>
      </trkpt>
      <trkpt lat="43.53895" lon="5.55047">
        <ele>453.3</ele>
        <time>2023-05-28T08:07:07Z</time>
      </trkpt>
      <trkpt lat="43.53895" lon="5.55048">
        <ele>453.5</ele>
        <time>2023-05-28T08:07:08Z</time>
      </trkpt>
      <trkpt lat="43.53896" lon="5.5505">
        <ele>453.6</ele>
        <time>2023-05-28T08:07:09Z</time>
      </trkpt>
      <trkpt lat="43.53896" lon="5.55051">
        <ele>453.7</ele>
        <time>2023-05-28T08:07:10Z</time>
      </trkpt>
      <trkpt lat="43.53896" lon="5.55053">
        <ele>453.8</ele>
        <time>2023-05-28T08:07:11Z</time>
      </trkpt>
      <trkpt lat="43.53896" lon="5.55054">
        <ele>453.9</ele>
        <time>2023-05-28T08:07:12Z</time>
      </trkpt>
      <trkpt lat="43.53896" lon="5.55056">
        <ele>454.1</ele>
        <time>2023-05-28T08:07:13Z</time>
      </trkpt>
      <trkpt lat="43.53896" lon="5.55057">
        <ele>454.4</ele>
        <time>2023-05-28T08:07:14Z</time>
      </trkpt>
      <trkpt lat="43.53897" lon="5.55058">
        <ele>454.6</ele>
        <time>2023-05-28T08:07:15Z</time>
      </trkpt>
      <trkpt lat="43.53897" lon="5.5506">
        <ele>454.8</ele>
        <time>2023-05-28T08:07:16Z</time>
      </trkpt>
      <trkpt lat="43.53898" lon="5.55061">
        <ele>454.9</ele>
        <time>2023-05-28T08:07:17Z</time>
      </trkpt>
      <trkpt lat="43.53898" lon="5.55063">
        <ele>455.1</ele>
        <time>2023-05-28T08:07:18Z</time>
      </trkpt>
      <trkpt lat="43.53899" lon="5.55064">
        <ele>455.2</ele>
        <time>2023-05-28T08:07:19Z</time>
      </trkpt>
      <trkpt lat="43.53899" lon="5.55066">
        <ele>455.4</ele>
        <time>2023-05-28T08:07:20Z</time>
      </trkpt>
      <trkpt lat="43.539" lon="5.55068">
        <ele>455.5</ele>
        <time>2023-05-28T08:07:21Z</time>
      </trkpt>
      <trkpt lat="43.53901" lon="5.55069">
        <ele>455.6</ele>
        <time>2023-05-28T08:07:22Z</time>
      </trkpt>
      <trkpt lat="43.53901" lon="5.5507">
        <ele>455.7</ele>
        <time>2023-05-28T08:07:23Z</time>
      </trkpt>
      <trkpt lat="43.53902" lon="5.55072">
        <ele>455.9</ele>
        <time>2023-05-28T08:07:24Z</time>
      </trkpt>
      <trkpt lat="43.53903" lon="5.55073">
        <ele>456</ele>
        <time>2023-05-28T08:07:25Z</time>
      </trkpt>
      <trkpt lat="43.53903" lon="5.55074">
        <ele>456.1</ele>
        <time>2023-05-28T08:07:26Z</time>
      </trkpt>
      <trkpt lat="43.53903" lon="5.55076">
        <ele>456.2</ele>
        <time>2023-05-28T08:07:27Z</time>
      </trkpt>
      <trkpt lat="43.53904" lon="5.55077">
        <ele>456.3</ele>
        <time>2023-05-28T08:07:28Z</time>
      </trkpt>
      <trkpt lat="43.53904" lon="5.55078">
        <ele>456.5</ele>
        <time>2023-05-28T08:07:29Z</time>
      </trkpt>
      <trkpt lat="43.53905" lon="5.5508">
        <ele>456.6</ele>
        <time>2023-05-28T08:07:30Z</time>
      </trkpt>
      <trkpt lat="43.53905" lon="5.55081">
        <ele>456.8</ele>
        <time>2023-05-28T08:07:31Z</time>
      </trkpt>
      <trkpt lat="43.53906" lon="5.55083">
        <ele>456.9</ele>
        <time>2023-05-28T08:07:32Z</time>
      </trkpt>
      <trkpt lat="43.53907" lon="5.55084">
        <ele>457</ele>
        <time>2023-05-28T08:07:33Z</time>
      </trkpt>
      <trkpt lat="43.53908" lon="5.55085">
        <ele>457.1</ele>
        <time>2023-05-28T08:07:34Z</time>
      </trkpt>
      <trkpt lat="43.53908" lon="5.55087">
        <ele>457.1</ele>
        <time>2023-05-28T08:07:35Z</time>
      </trkpt>
      <trkpt lat="43.53909" lon="5.55088">
        <ele>457.3</ele>
        <time>2023-05-28T08:07:36Z</time>
      </trkpt>
      <trkpt lat="43.53909" lon="5.55089">
        <ele>457.4</ele>
        <time>2023-05-28T08:07:37Z</time>
      </trkpt>
      <trkpt lat="43.5391" lon="5.5509">
        <ele>457.6</ele>
        <time>2023-05-28T08:07:38Z</time>
      </trkpt>
      <trkpt lat="43.5391" lon="5.55091">
        <ele>457.7</ele>
        <time>2023-05-28T08:07:39Z</time>
      </trkpt>
      <trkpt lat="43.5391" lon="5.55092">
        <ele>457.9</ele>
        <time>2023-05-28T08:07:40Z</time>
      </trkpt>
      <trkpt lat="43.5391" lon="5.55093">
        <ele>458.1</ele>
        <time>2023-05-28T08:07:41Z</time>
      </trkpt>
      <trkpt lat="43.53909" lon="5.55095">
        <ele>458.2</ele>
        <time>2023-05-28T08:07:42Z</time>
      </trkpt>
      <trkpt lat="43.53909" lon="5.55096">
        <ele>458.4</ele>
        <time>2023-05-28T08:07:43Z</time>
      </trkpt>
      <trkpt lat="43.53909" lon="5.55097">
        <ele>458.6</ele>
        <time>2023-05-28T08:07:44Z</time>
      </trkpt>
      <trkpt lat="43.53909" lon="5.55098">
        <ele>458.7</ele>
        <time>2023-05-28T08:07:45Z</time>
      </trkpt>
      <trkpt lat="43.53909" lon="5.55099">
        <ele>458.9</ele>
        <time>2023-05-28T08:07:46Z</time>
      </trkpt>
      <trkpt lat="43.5391" lon="5.551">
        <ele>459</ele>
        <time>2023-05-28T08:07:47Z</time>
      </trkpt>
      <trkpt lat="43.5391" lon="5.55101">
        <ele>459.1</ele>
        <time>2023-05-28T08:07:48Z</time>
      </trkpt>
      <trkpt lat="43.5391" lon="5.55103">
        <ele>459.4</ele>
        <time>2023-05-28T08:07:49Z</time>
      </trkpt>
      <trkpt lat="43.5391" lon="5.55104">
        <ele>459.6</ele>
        <time>2023-05-28T08:07:50Z</time>
      </trkpt>
      <trkpt lat="43.5391" lon="5.55105">
        <ele>459.7</ele>
        <time>2023-05-28T08:07:51Z</time>
      </trkpt>
      <trkpt lat="43.53911" lon="5.55106">
        <ele>459.8</ele>
        <time>2023-05-28T08:07:52Z</time>
      </trkpt>
      <trkpt lat="43.53911" lon="5.55107">
        <ele>459.9</ele>
        <time>2023-05-28T08:07:53Z</time>
      </trkpt>
      <trkpt lat="43.53912" lon="5.55109">
        <ele>460.1</ele>
        <time>2023-05-28T08:07:54Z</time>
      </trkpt>
      <trkpt lat="43.53912" lon="5.5511">
        <ele>460.3</ele>
        <time>2023-05-28T08:07:55Z</time>
      </trkpt>
      <trkpt lat="43.53913" lon="5.55111">
        <ele>460.5</ele>
        <time>2023-05-28T08:07:56Z</time>
      </trkpt>
      <trkpt lat="43.53914" lon="5.55112">
        <ele>460.8</ele>
        <time>2023-05-28T08:07:57Z</time>
      </trkpt>
      <trkpt lat="43.53914" lon="5.55113">
        <ele>461</ele>
        <time>2023-05-28T08:07:58Z</time>
      </trkpt>
      <trkpt lat="43.53915" lon="5.55115">
        <ele>461.1</ele>
        <time>2023-05-28T08:07:59Z</time>
      </trkpt>
      <trkpt lat="43.53915" lon="5.55116">
        <ele>461.3</ele>
        <time>2023-05-28T08:08:00Z</time>
      </trkpt>
      <trkpt lat="43.53915" lon="5.55117">
        <ele>461.5</ele>
        <time>2023-05-28T08:08:01Z</time>
      </trkpt>
      <trkpt lat="43.53915" lon="5.55118">
        <ele>461.6</ele>
        <time>2023-05-28T08:08:02Z</time>
      </trkpt>
      <trkpt lat="43.53915" lon="5.55119">
        <ele>461.8</ele>
        <time>2023-05-28T08:08:03Z</time>
      </trkpt>
      <trkpt lat="43.53915" lon="5.5512">
        <ele>461.9</ele>
        <time>2023-05-28T08:08:04Z</time>
      </trkpt>
      <trkpt lat="43.53915" lon="5.55121">
        <ele>462</ele>
        <time>2023-05-28T08:08:05Z</time>
      </trkpt>
      <trkpt lat="43.53915" lon="5.55122">
        <ele>462</ele>
        <time>2023-05-28T08:08:06Z</time>
      </trkpt>
      <trkpt lat="43.53914" lon="5.55123">
        <ele>462.2</ele>
        <time>2023-05-28T08:08:07Z</time>
      </trkpt>
      <trkpt lat="43.53914" lon="5.55124">
        <ele>462.4</ele>
        <time>2023-05-28T08:08:08Z</time>
      </trkpt>
      <trkpt lat="43.53913" lon="5.55125">
        <ele>462.5</ele>
        <time>2023-05-28T08:08:09Z</time>
      </trkpt>
      <trkpt lat="43.53913" lon="5.55126">
        <ele>462.7</ele>
        <time>2023-05-28T08:08:10Z</time>
      </trkpt>
      <trkpt lat="43.53912" lon="5.55126">
        <ele>462.8</ele>
        <time>2023-05-28T08:08:11Z</time>
      </trkpt>
      <trkpt lat="43.53912" lon="5.55127">
        <ele>463</ele>
        <time>2023-05-28T08:08:12Z</time>
      </trkpt>
      <trkpt lat="43.53911" lon="5.55128">
        <ele>463.1</ele>
        <time>2023-05-28T08:08:13Z</time>
      </trkpt>
      <trkpt lat="43.53911" lon="5.55129">
        <ele>463.3</ele>
        <time>2023-05-28T08:08:14Z</time>
      </trkpt>
      <trkpt lat="43.5391" lon="5.5513">
        <ele>463.5</ele>
        <time>2023-05-28T08:08:15Z</time>
      </trkpt>
      <trkpt lat="43.5391" lon="5.55131">
        <ele>463.6</ele>
        <time>2023-05-28T08:08:16Z</time>
      </trkpt>
      <trkpt lat="43.5391" lon="5.55132">
        <ele>463.8</ele>
        <time>2023-05-28T08:08:17Z</time>
      </trkpt>
      <trkpt lat="43.53909" lon="5.55133">
        <ele>463.9</ele>
        <time>2023-05-28T08:08:18Z</time>
      </trkpt>
      <trkpt lat="43.53909" lon="5.55134">
        <ele>464</ele>
        <time>2023-05-28T08:08:19Z</time>
      </trkpt>
      <trkpt lat="43.53908" lon="5.55136">
        <ele>464.1</ele>
        <time>2023-05-28T08:08:20Z</time>
      </trkpt>
      <trkpt lat="43.53909" lon="5.55137">
        <ele>464.2</ele>
        <time>2023-05-28T08:08:21Z</time>
      </trkpt>
      <trkpt lat="43.53908" lon="5.55139">
        <ele>464.4</ele>
        <time>2023-05-28T08:08:22Z</time>
      </trkpt>
      <trkpt lat="43.53908" lon="5.5514">
        <ele>464.6</ele>
        <time>2023-05-28T08:08:23Z</time>
      </trkpt>
      <trkpt lat="43.53908" lon="5.55141">
        <ele>464.8</ele>
        <time>2023-05-28T08:08:24Z</time>
      </trkpt>
      <trkpt lat="43.53908" lon="5.55143">
        <ele>465</ele>
        <time>2023-05-28T08:08:25Z</time>
      </trkpt>
      <trkpt lat="43.53908" lon="5.55144">
        <ele>465.1</ele>
        <time>2023-05-28T08:08:26Z</time>
      </trkpt>
      <trkpt lat="43.53908" lon="5.55146">
        <ele>465.2</ele>
        <time>2023-05-28T08:08:27Z</time>
      </trkpt>
      <trkpt lat="43.53908" lon="5.55147">
        <ele>465.2</ele>
        <time>2023-05-28T08:08:28Z</time>
      </trkpt>
      <trkpt lat="43.53908" lon="5.55149">
        <ele>465.5</ele>
        <time>2023-05-28T08:08:29Z</time>
      </trkpt>
      <trkpt lat="43.53908" lon="5.5515">
        <ele>465.6</ele>
        <time>2023-05-28T08:08:30Z</time>
      </trkpt>
      <trkpt lat="43.53908" lon="5.55152">
        <ele>465.8</ele>
        <time>2023-05-28T08:08:31Z</time>
      </trkpt>
      <trkpt lat="43.53908" lon="5.55153">
        <ele>465.9</ele>
        <time>2023-05-28T08:08:32Z</time>
      </trkpt>
      <trkpt lat="43.53908" lon="5.55155">
        <ele>466</ele>
        <time>2023-05-28T08:08:33Z</time>
      </trkpt>
      <trkpt lat="43.53908" lon="5.55157">
        <ele>466.1</ele>
        <time>2023-05-28T08:08:34Z</time>
      </trkpt>
      <trkpt lat="43.53908" lon="5.55158">
        <ele>466.2</ele>
        <time>2023-05-28T08:08:35Z</time>
      </trkpt>
      <trkpt lat="43.53908" lon="5.55159">
        <ele>466.4</ele>
        <time>2023-05-28T08:08:36Z</time>
      </trkpt>
      <trkpt lat="43.53908" lon="5.55161">
        <ele>466.6</ele>
        <time>2023-05-28T08:08:37Z</time>
      </trkpt>
      <trkpt lat="43.53908" lon="5.55162">
        <ele>466.7</ele>
        <time>2023-05-28T08:08:38Z</time>
      </trkpt>
      <trkpt lat="43.53908" lon="5.55164">
        <ele>466.9</ele>
        <time>2023-05-28T08:08:39Z</time>
      </trkpt>
      <trkpt lat="43.53909" lon="5.55166">
        <ele>467.1</ele>
        <time>2023-05-28T08:08:40Z</time>
      </trkpt>
      <trkpt lat="43.53909" lon="5.55168">
        <ele>467.1</ele>
        <time>2023-05-28T08:08:41Z</time>
      </trkpt>
      <trkpt lat="43.53909" lon="5.55169">
        <ele>467.2</ele>
        <time>2023-05-28T08:08:42Z</time>
      </trkpt>
      <trkpt lat="43.53909" lon="5.55171">
        <ele>467.3</ele>
        <time>2023-05-28T08:08:43Z</time>
      </trkpt>
      <trkpt lat="43.53909" lon="5.55173">
        <ele>467.4</ele>
        <time>2023-05-28T08:08:44Z</time>
      </trkpt>
      <trkpt lat="43.53909" lon="5.55174">
        <ele>467.5</ele>
        <time>2023-05-28T08:08:45Z</time>
      </trkpt>
      <trkpt lat="43.53909" lon="5.55176">
        <ele>467.6</ele>
        <time>2023-05-28T08:08:46Z</time>
      </trkpt>
      <trkpt lat="43.53909" lon="5.55177">
        <ele>467.7</ele>
        <time>2023-05-28T08:08:47Z</time>
      </trkpt>
      <trkpt lat="43.53909" lon="5.55179">
        <ele>467.7</ele>
        <time>2023-05-28T08:08:48Z</time>
      </trkpt>
      <trkpt lat="43.53909" lon="5.5518">
        <ele>467.8</ele>
        <time>2023-05-28T08:08:49Z</time>
      </trkpt>
      <trkpt lat="43.53909" lon="5.55182">
        <ele>467.8</ele>
        <time>2023-05-28T08:08:50Z</time>
      </trkpt>
      <trkpt lat="43.53909" lon="5.55183">
        <ele>467.9</ele>
        <time>2023-05-28T08:08:51Z</time>
      </trkpt>
      <trkpt lat="43.53909" lon="5.55185">
        <ele>467.9</ele>
        <time>2023-05-28T08:08:52Z</time>
      </trkpt>
      <trkpt lat="43.53909" lon="5.55186">
        <ele>468</ele>
        <time>2023-05-28T08:08:53Z</time>
      </trkpt>
      <trkpt lat="43.53909" lon="5.55188">
        <ele>468.1</ele>
        <time>2023-05-28T08:08:54Z</time>
      </trkpt>
      <trkpt lat="43.53909" lon="5.55189">
        <ele>468.2</ele>
        <time>2023-05-28T08:08:55Z</time>
      </trkpt>
      <trkpt lat="43.53909" lon="5.55191">
        <ele>468.3</ele>
        <time>2023-05-28T08:08:56Z</time>
      </trkpt>
      <trkpt lat="43.53909" lon="5.55192">
        <ele>468.4</ele>
        <time>2023-05-28T08:08:57Z</time>
      </trkpt>
      <trkpt lat="43.5391" lon="5.55193">
        <ele>468.4</ele>
        <time>2023-05-28T08:08:58Z</time>
      </trkpt>
      <trkpt lat="43.5391" lon="5.55194">
        <ele>468.5</ele>
        <time>2023-05-28T08:08:59Z</time>
      </trkpt>
      <trkpt lat="43.5391" lon="5.55196">
        <ele>468.5</ele>
        <time>2023-05-28T08:09:00Z</time>
      </trkpt>
      <trkpt lat="43.53911" lon="5.55197">
        <ele>468.5</ele>
        <time>2023-05-28T08:09:01Z</time>
      </trkpt>
      <trkpt lat="43.53911" lon="5.55198">
        <ele>468.5</ele>
        <time>2023-05-28T08:09:02Z</time>
      </trkpt>
      <trkpt lat="43.53912" lon="5.552">
        <ele>468.5</ele>
        <time>2023-05-28T08:09:03Z</time>
      </trkpt>
      <trkpt lat="43.53912" lon="5.55202">
        <ele>468.5</ele>
        <time>2023-05-28T08:09:04Z</time>
      </trkpt>
      <trkpt lat="43.53913" lon="5.55203">
        <ele>468.5</ele>
        <time>2023-05-28T08:09:05Z</time>
      </trkpt>
      <trkpt lat="43.53913" lon="5.55203">
        <ele>468.4</ele>
        <time>2023-05-28T08:09:06Z</time>
      </trkpt>
      <trkpt lat="43.53913" lon="5.55205">
        <ele>468.4</ele>
        <time>2023-05-28T08:09:07Z</time>
      </trkpt>
      <trkpt lat="43.53914" lon="5.55206">
        <ele>468.3</ele>
        <time>2023-05-28T08:09:08Z</time>
      </trkpt>
      <trkpt lat="43.53915" lon="5.55207">
        <ele>468.3</ele>
        <time>2023-05-28T08:09:09Z</time>
      </trkpt>
      <trkpt lat="43.53915" lon="5.55209">
        <ele>468.2</ele>
        <time>2023-05-28T08:09:10Z</time>
      </trkpt>
      <trkpt lat="43.53916" lon="5.5521">
        <ele>468</ele>
        <time>2023-05-28T08:09:11Z</time>
      </trkpt>
      <trkpt lat="43.53916" lon="5.55211">
        <ele>467.8</ele>
        <time>2023-05-28T08:09:12Z</time>
      </trkpt>
      <trkpt lat="43.53917" lon="5.55213">
        <ele>467.8</ele>
        <time>2023-05-28T08:09:13Z</time>
      </trkpt>
      <trkpt lat="43.53918" lon="5.55214">
        <ele>467.8</ele>
        <time>2023-05-28T08:09:14Z</time>
      </trkpt>
      <trkpt lat="43.53918" lon="5.55215">
        <ele>467.7</ele>
        <time>2023-05-28T08:09:15Z</time>
      </trkpt>
      <trkpt lat="43.53919" lon="5.55216">
        <ele>467.6</ele>
        <time>2023-05-28T08:09:16Z</time>
      </trkpt>
      <trkpt lat="43.5392" lon="5.55217">
        <ele>467.5</ele>
        <time>2023-05-28T08:09:17Z</time>
      </trkpt>
      <trkpt lat="43.5392" lon="5.55217">
        <ele>467.5</ele>
        <time>2023-05-28T08:09:18Z</time>
      </trkpt>
      <trkpt lat="43.5392" lon="5.55219">
        <ele>467.4</ele>
        <time>2023-05-28T08:09:19Z</time>
      </trkpt>
      <trkpt lat="43.53921" lon="5.5522">
        <ele>467.3</ele>
        <time>2023-05-28T08:09:20Z</time>
      </trkpt>
      <trkpt lat="43.53921" lon="5.55222">
        <ele>467.3</ele>
        <time>2023-05-28T08:09:21Z</time>
      </trkpt>
      <trkpt lat="43.53922" lon="5.55224">
        <ele>467.4</ele>
        <time>2023-05-28T08:09:22Z</time>
      </trkpt>
      <trkpt lat="43.53922" lon="5.55226">
        <ele>467.3</ele>
        <time>2023-05-28T08:09:23Z</time>
      </trkpt>
      <trkpt lat="43.53923" lon="5.55228">
        <ele>467.3</ele>
        <time>2023-05-28T08:09:24Z</time>
      </trkpt>
      <trkpt lat="43.53923" lon="5.55229">
        <ele>467.3</ele>
        <time>2023-05-28T08:09:25Z</time>
      </trkpt>
      <trkpt lat="43.53923" lon="5.5523">
        <ele>467.4</ele>
        <time>2023-05-28T08:09:26Z</time>
      </trkpt>
      <trkpt lat="43.53924" lon="5.55232">
        <ele>467.4</ele>
        <time>2023-05-28T08:09:27Z</time>
      </trkpt>
      <trkpt lat="43.53924" lon="5.55233">
        <ele>467.5</ele>
        <time>2023-05-28T08:09:28Z</time>
      </trkpt>
      <trkpt lat="43.53925" lon="5.55235">
        <ele>467.6</ele>
        <time>2023-05-28T08:09:29Z</time>
      </trkpt>
      <trkpt lat="43.53925" lon="5.55236">
        <ele>467.6</ele>
        <time>2023-05-28T08:09:30Z</time>
      </trkpt>
      <trkpt lat="43.53925" lon="5.55237">
        <ele>467.6</ele>
        <time>2023-05-28T08:09:31Z</time>
      </trkpt>
      <trkpt lat="43.53926" lon="5.55238">
        <ele>467.6</ele>
        <time>2023-05-28T08:09:32Z</time>
      </trkpt>
      <trkpt lat="43.53927" lon="5.5524">
        <ele>467.6</ele>
        <time>2023-05-28T08:09:33Z</time>
      </trkpt>
      <trkpt lat="43.53927" lon="5.55241">
        <ele>467.7</ele>
        <time>2023-05-28T08:09:34Z</time>
      </trkpt>
      <trkpt lat="43.53927" lon="5.55242">
        <ele>467.8</ele>
        <time>2023-05-28T08:09:35Z</time>
      </trkpt>
      <trkpt lat="43.53927" lon="5.55244">
        <ele>467.9</ele>
        <time>2023-05-28T08:09:36Z</time>
      </trkpt>
      <trkpt lat="43.53927" lon="5.55244">
        <ele>468</ele>
        <time>2023-05-28T08:09:37Z</time>
      </trkpt>
      <trkpt lat="43.53927" lon="5.55246">
        <ele>468.2</ele>
        <time>2023-05-28T08:09:38Z</time>
      </trkpt>
      <trkpt lat="43.53927" lon="5.55246">
        <ele>468.3</ele>
        <time>2023-05-28T08:09:39Z</time>
      </trkpt>
      <trkpt lat="43.53927" lon="5.55247">
        <ele>468.5</ele>
        <time>2023-05-28T08:09:40Z</time>
      </trkpt>
      <trkpt lat="43.53926" lon="5.55248">
        <ele>468.7</ele>
        <time>2023-05-28T08:09:41Z</time>
      </trkpt>
      <trkpt lat="43.53926" lon="5.55249">
        <ele>468.9</ele>
        <time>2023-05-28T08:09:42Z</time>
      </trkpt>
      <trkpt lat="43.53926" lon="5.55251">
        <ele>469</ele>
        <time>2023-05-28T08:09:43Z</time>
      </trkpt>
      <trkpt lat="43.53926" lon="5.55252">
        <ele>469.1</ele>
        <time>2023-05-28T08:09:44Z</time>
      </trkpt>
      <trkpt lat="43.53926" lon="5.55253">
        <ele>469.2</ele>
        <time>2023-05-28T08:09:45Z</time>
      </trkpt>
      <trkpt lat="43.53926" lon="5.55254">
        <ele>469.4</ele>
        <time>2023-05-28T08:09:46Z</time>
      </trkpt>
      <trkpt lat="43.53927" lon="5.55255">
        <ele>469.6</ele>
        <time>2023-05-28T08:09:47Z</time>
      </trkpt>
      <trkpt lat="43.53927" lon="5.55257">
        <ele>469.8</ele>
        <time>2023-05-28T08:09:48Z</time>
      </trkpt>
      <trkpt lat="43.53927" lon="5.55258">
        <ele>469.9</ele>
        <time>2023-05-28T08:09:49Z</time>
      </trkpt>
      <trkpt lat="43.53927" lon="5.55259">
        <ele>470.1</ele>
        <time>2023-05-28T08:09:50Z</time>
      </trkpt>
      <trkpt lat="43.53927" lon="5.5526">
        <ele>470.2</ele>
        <time>2023-05-28T08:09:51Z</time>
      </trkpt>
      <trkpt lat="43.53928" lon="5.55261">
        <ele>470.2</ele>
        <time>2023-05-28T08:09:52Z</time>
      </trkpt>
      <trkpt lat="43.53928" lon="5.55261">
        <ele>470.3</ele>
        <time>2023-05-28T08:09:53Z</time>
      </trkpt>
      <trkpt lat="43.53928" lon="5.55261">
        <ele>470.5</ele>
        <time>2023-05-28T08:09:54Z</time>
      </trkpt>
      <trkpt lat="43.53929" lon="5.55262">
        <ele>470.6</ele>
        <time>2023-05-28T08:09:55Z</time>
      </trkpt>
      <trkpt lat="43.53929" lon="5.55263">
        <ele>470.7</ele>
        <time>2023-05-28T08:09:56Z</time>
      </trkpt>
      <trkpt lat="43.5393" lon="5.55263">
        <ele>470.8</ele>
        <time>2023-05-28T08:09:57Z</time>
      </trkpt>
      <trkpt lat="43.5393" lon="5.55264">
        <ele>470.9</ele>
        <time>2023-05-28T08:09:58Z</time>
      </trkpt>
      <trkpt lat="43.53931" lon="5.55265">
        <ele>470.9</ele>
        <time>2023-05-28T08:09:59Z</time>
      </trkpt>
      <trkpt lat="43.53931" lon="5.55265">
        <ele>471.1</ele>
        <time>2023-05-28T08:10:00Z</time>
      </trkpt>
      <trkpt lat="43.53931" lon="5.55265">
        <ele>471.1</ele>
        <time>2023-05-28T08:10:01Z</time>
      </trkpt>
      <trkpt lat="43.53931" lon="5.55264">
        <ele>471.2</ele>
        <time>2023-05-28T08:10:02Z</time>
      </trkpt>
      <trkpt lat="43.53931" lon="5.55264">
        <ele>471.2</ele>
        <time>2023-05-28T08:10:03Z</time>
      </trkpt>
      <trkpt lat="43.53931" lon="5.55264">
        <ele>471.2</ele>
        <time>2023-05-28T08:10:04Z</time>
      </trkpt>
      <trkpt lat="43.53931" lon="5.55264">
        <ele>471.2</ele>
        <time>2023-05-28T08:10:05Z</time>
      </trkpt>
      <trkpt lat="43.53931" lon="5.55264">
        <ele>471.3</ele>
        <time>2023-05-28T08:10:06Z</time>
      </trkpt>
      <trkpt lat="43.53932" lon="5.55264">
        <ele>471.4</ele>
        <time>2023-05-28T08:10:07Z</time>
      </trkpt>
      <trkpt lat="43.53932" lon="5.55264">
        <ele>471.4</ele>
        <time>2023-05-28T08:10:08Z</time>
      </trkpt>
      <trkpt lat="43.53932" lon="5.55265">
        <ele>471.5</ele>
        <time>2023-05-28T08:10:09Z</time>
      </trkpt>
      <trkpt lat="43.53933" lon="5.55265">
        <ele>471.5</ele>
        <time>2023-05-28T08:10:10Z</time>
      </trkpt>
      <trkpt lat="43.53933" lon="5.55265">
        <ele>471.5</ele>
        <time>2023-05-28T08:10:11Z</time>
      </trkpt>
      <trkpt lat="43.53933" lon="5.55265">
        <ele>471.5</ele>
        <time>2023-05-28T08:10:12Z</time>
      </trkpt>
      <trkpt lat="43.53933" lon="5.55265">
        <ele>471.5</ele>
        <time>2023-05-28T08:10:13Z</time>
      </trkpt>
      <trkpt lat="43.53933" lon="5.55265">
        <ele>471.5</ele>
        <time>2023-05-28T08:10:14Z</time>
      </trkpt>
      <trkpt lat="43.53933" lon="5.55265">
        <ele>471.5</ele>
        <time>2023-05-28T08:10:15Z</time>
      </trkpt>
      <trkpt lat="43.53933" lon="5.55265">
        <ele>471.5</ele>
        <time>2023-05-28T08:10:16Z</time>
      </trkpt>
      <trkpt lat="43.53933" lon="5.55265">
        <ele>471.5</ele>
        <time>2023-05-28T08:10:17Z</time>
      </trkpt>
      <trkpt lat="43.53933" lon="5.55265">
        <ele>471.4</ele>
        <time>2023-05-28T08:10:18Z</time>
      </trkpt>
      <trkpt lat="43.53933" lon="5.55265">
        <ele>471.4</ele>
        <time>2023-05-28T08:10:19Z</time>
      </trkpt>
      <trkpt lat="43.53933" lon="5.55265">
        <ele>471.3</ele>
        <time>2023-05-28T08:10:20Z</time>
      </trkpt>
      <trkpt lat="43.53933" lon="5.55266">
        <ele>471.4</ele>
        <time>2023-05-28T08:10:21Z</time>
      </trkpt>
      <trkpt lat="43.53934" lon="5.55266">
        <ele>471.4</ele>
        <time>2023-05-28T08:10:22Z</time>
      </trkpt>
      <trkpt lat="43.53934" lon="5.55266">
        <ele>471.4</ele>
        <time>2023-05-28T08:10:23Z</time>
      </trkpt>
      <trkpt lat="43.53934" lon="5.55267">
        <ele>471.4</ele>
        <time>2023-05-28T08:10:24Z</time>
      </trkpt>
      <trkpt lat="43.53934" lon="5.55267">
        <ele>471.4</ele>
        <time>2023-05-28T08:10:25Z</time>
      </trkpt>
      <trkpt lat="43.53934" lon="5.55267">
        <ele>471.4</ele>
        <time>2023-05-28T08:10:26Z</time>
      </trkpt>
      <trkpt lat="43.53934" lon="5.55267">
        <ele>471.5</ele>
        <time>2023-05-28T08:10:27Z</time>
      </trkpt>
      <trkpt lat="43.53934" lon="5.55267">
        <ele>471.5</ele>
        <time>2023-05-28T08:10:28Z</time>
      </trkpt>
      <trkpt lat="43.53934" lon="5.55268">
        <ele>471.6</ele>
        <time>2023-05-28T08:10:29Z</time>
      </trkpt>
      <trkpt lat="43.53934" lon="5.55268">
        <ele>471.6</ele>
        <time>2023-05-28T08:10:30Z</time>
      </trkpt>
      <trkpt lat="43.53933" lon="5.55268">
        <ele>471.6</ele>
        <time>2023-05-28T08:10:31Z</time>
      </trkpt>
      <trkpt lat="43.53933" lon="5.55268">
        <ele>471.5</ele>
        <time>2023-05-28T08:10:32Z</time>
      </trkpt>
      <trkpt lat="43.53933" lon="5.55268">
        <ele>471.6</ele>
        <time>2023-05-28T08:10:33Z</time>
      </trkpt>
      <trkpt lat="43.53933" lon="5.55268">
        <ele>471.6</ele>
        <time>2023-05-28T08:10:34Z</time>
      </trkpt>
      <trkpt lat="43.53933" lon="5.55268">
        <ele>471.6</ele>
        <time>2023-05-28T08:10:35Z</time>
      </trkpt>
      <trkpt lat="43.53933" lon="5.55268">
        <ele>471.6</ele>
        <time>2023-05-28T08:10:36Z</time>
      </trkpt>
      <trkpt lat="43.53933" lon="5.55268">
        <ele>471.6</ele>
        <time>2023-05-28T08:10:37Z</time>
      </trkpt>
      <trkpt lat="43.53933" lon="5.55268">
        <ele>471.6</ele>
        <time>2023-05-28T08:10:38Z</time>
      </trkpt>
      <trkpt lat="43.53933" lon="5.55269">
        <ele>471.5</ele>
        <time>2023-05-28T08:10:39Z</time>
      </trkpt>
      <trkpt lat="43.53933" lon="5.55269">
        <ele>471.5</ele>
        <time>2023-05-28T08:10:40Z</time>
      </trkpt>
      <trkpt lat="43.53933" lon="5.55269">
        <ele>471.5</ele>
        <time>2023-05-28T08:10:41Z</time>
      </trkpt>
      <trkpt lat="43.53933" lon="5.55269">
        <ele>471.5</ele>
        <time>2023-05-28T08:10:42Z</time>
      </trkpt>
      <trkpt lat="43.53934" lon="5.55269">
        <ele>471.5</ele>
        <time>2023-05-28T08:10:43Z</time>
      </trkpt>
      <trkpt lat="43.53934" lon="5.55268">
        <ele>471.4</ele>
        <time>2023-05-28T08:10:44Z</time>
      </trkpt>
      <trkpt lat="43.53934" lon="5.55268">
        <ele>471.4</ele>
        <time>2023-05-28T08:10:45Z</time>
      </trkpt>
      <trkpt lat="43.53934" lon="5.55268">
        <ele>471.4</ele>
        <time>2023-05-28T08:10:46Z</time>
      </trkpt>
      <trkpt lat="43.53935" lon="5.55267">
        <ele>471.4</ele>
        <time>2023-05-28T08:10:47Z</time>
      </trkpt>
      <trkpt lat="43.53935" lon="5.55267">
        <ele>471.3</ele>
        <time>2023-05-28T08:10:48Z</time>
      </trkpt>
      <trkpt lat="43.53936" lon="5.55267">
        <ele>471.3</ele>
        <time>2023-05-28T08:10:49Z</time>
      </trkpt>
      <trkpt lat="43.53936" lon="5.55267">
        <ele>471.2</ele>
        <time>2023-05-28T08:10:50Z</time>
      </trkpt>
      <trkpt lat="43.53936" lon="5.55268">
        <ele>471.2</ele>
        <time>2023-05-28T08:10:51Z</time>
      </trkpt>
      <trkpt lat="43.53936" lon="5.55268">
        <ele>471.1</ele>
        <time>2023-05-28T08:10:52Z</time>
      </trkpt>
      <trkpt lat="43.53936" lon="5.55268">
        <ele>471.1</ele>
        <time>2023-05-28T08:10:53Z</time>
      </trkpt>
      <trkpt lat="43.53936" lon="5.55269">
        <ele>471.1</ele>
        <time>2023-05-28T08:10:54Z</time>
      </trkpt>
      <trkpt lat="43.53936" lon="5.55269">
        <ele>471.3</ele>
        <time>2023-05-28T08:10:55Z</time>
      </trkpt>
      <trkpt lat="43.53936" lon="5.55269">
        <ele>471.4</ele>
        <time>2023-05-28T08:10:56Z</time>
      </trkpt>
      <trkpt lat="43.53936" lon="5.5527">
        <ele>471.4</ele>
        <time>2023-05-28T08:10:57Z</time>
      </trkpt>
      <trkpt lat="43.53936" lon="5.55269">
        <ele>471.5</ele>
        <time>2023-05-28T08:10:58Z</time>
      </trkpt>
      <trkpt lat="43.53936" lon="5.55269">
        <ele>471.5</ele>
        <time>2023-05-28T08:10:59Z</time>
      </trkpt>
      <trkpt lat="43.53936" lon="5.55269">
        <ele>471.5</ele>
        <time>2023-05-28T08:11:00Z</time>
      </trkpt>
      <trkpt lat="43.53936" lon="5.55268">
        <ele>471.5</ele>
        <time>2023-05-28T08:11:01Z</time>
      </trkpt>
      <trkpt lat="43.53936" lon="5.55268">
        <ele>471.5</ele>
        <time>2023-05-28T08:11:02Z</time>
      </trkpt>
      <trkpt lat="43.53937" lon="5.55268">
        <ele>471.5</ele>
        <time>2023-05-28T08:11:03Z</time>
      </trkpt>
      <trkpt lat="43.53937" lon="5.55268">
        <ele>471.5</ele>
        <time>2023-05-28T08:11:04Z</time>
      </trkpt>
      <trkpt lat="43.53937" lon="5.55268">
        <ele>471.5</ele>
        <time>2023-05-28T08:11:05Z</time>
      </trkpt>
      <trkpt lat="43.53937" lon="5.55268">
        <ele>471.5</ele>
        <time>2023-05-28T08:11:06Z</time>
      </trkpt>
      <trkpt lat="43.53937" lon="5.55268">
        <ele>471.6</ele>
        <time>2023-05-28T08:11:07Z</time>
      </trkpt>
      <trkpt lat="43.53937" lon="5.55268">
        <ele>471.6</ele>
        <time>2023-05-28T08:11:08Z</time>
      </trkpt>
      <trkpt lat="43.53937" lon="5.55268">
        <ele>471.6</ele>
        <time>2023-05-28T08:11:09Z</time>
      </trkpt>
      <trkpt lat="43.53938" lon="5.55269">
        <ele>471.6</ele>
        <time>2023-05-28T08:11:10Z</time>
      </trkpt>
      <trkpt lat="43.53938" lon="5.55269">
        <ele>471.5</ele>
        <time>2023-05-28T08:11:11Z</time>
      </trkpt>
      <trkpt lat="43.53939" lon="5.55269">
        <ele>471.5</ele>
        <time>2023-05-28T08:11:12Z</time>
      </trkpt>
      <trkpt lat="43.53939" lon="5.55269">
        <ele>471.4</ele>
        <time>2023-05-28T08:11:13Z</time>
      </trkpt>
      <trkpt lat="43.53939" lon="5.55269">
        <ele>471.3</ele>
        <time>2023-05-28T08:11:14Z</time>
      </trkpt>
      <trkpt lat="43.53939" lon="5.55269">
        <ele>471.3</ele>
        <time>2023-05-28T08:11:15Z</time>
      </trkpt>
      <trkpt lat="43.53939" lon="5.55269">
        <ele>471.3</ele>
        <time>2023-05-28T08:11:16Z</time>
      </trkpt>
      <trkpt lat="43.53939" lon="5.55269">
        <ele>471.3</ele>
        <time>2023-05-28T08:11:17Z</time>
      </trkpt>
      <trkpt lat="43.53939" lon="5.55269">
        <ele>471.2</ele>
        <time>2023-05-28T08:11:18Z</time>
      </trkpt>
      <trkpt lat="43.53938" lon="5.55269">
        <ele>471.1</ele>
        <time>2023-05-28T08:11:19Z</time>
      </trkpt>
      <trkpt lat="43.53938" lon="5.55269">
        <ele>471.1</ele>
        <time>2023-05-28T08:11:20Z</time>
      </trkpt>
      <trkpt lat="43.53938" lon="5.55269">
        <ele>471.1</ele>
        <time>2023-05-28T08:11:21Z</time>
      </trkpt>
      <trkpt lat="43.53939" lon="5.55269">
        <ele>471.2</ele>
        <time>2023-05-28T08:11:22Z</time>
      </trkpt>
      <trkpt lat="43.5394" lon="5.55269">
        <ele>471.1</ele>
        <time>2023-05-28T08:11:23Z</time>
      </trkpt>
      <trkpt lat="43.5394" lon="5.55269">
        <ele>471.2</ele>
        <time>2023-05-28T08:11:24Z</time>
      </trkpt>
      <trkpt lat="43.5394" lon="5.55269">
        <ele>471.2</ele>
        <time>2023-05-28T08:11:25Z</time>
      </trkpt>
      <trkpt lat="43.5394" lon="5.55269">
        <ele>471.2</ele>
        <time>2023-05-28T08:11:26Z</time>
      </trkpt>
      <trkpt lat="43.53941" lon="5.55269">
        <ele>471.2</ele>
        <time>2023-05-28T08:11:27Z</time>
      </trkpt>
      <trkpt lat="43.5394" lon="5.55269">
        <ele>471.3</ele>
        <time>2023-05-28T08:11:28Z</time>
      </trkpt>
      <trkpt lat="43.5394" lon="5.55269">
        <ele>471.3</ele>
        <time>2023-05-28T08:11:29Z</time>
      </trkpt>
      <trkpt lat="43.5394" lon="5.55269">
        <ele>471.4</ele>
        <time>2023-05-28T08:11:30Z</time>
      </trkpt>
      <trkpt lat="43.5394" lon="5.55269">
        <ele>471.4</ele>
        <time>2023-05-28T08:11:31Z</time>
      </trkpt>
      <trkpt lat="43.5394" lon="5.5527">
        <ele>471.3</ele>
        <time>2023-05-28T08:11:32Z</time>
      </trkpt>
      <trkpt lat="43.5394" lon="5.5527">
        <ele>471.3</ele>
        <time>2023-05-28T08:11:33Z</time>
      </trkpt>
      <trkpt lat="43.5394" lon="5.5527">
        <ele>471.3</ele>
        <time>2023-05-28T08:11:34Z</time>
      </trkpt>
      <trkpt lat="43.5394" lon="5.5527">
        <ele>471.3</ele>
        <time>2023-05-28T08:11:35Z</time>
      </trkpt>
      <trkpt lat="43.5394" lon="5.55269">
        <ele>471.3</ele>
        <time>2023-05-28T08:11:36Z</time>
      </trkpt>
      <trkpt lat="43.5394" lon="5.55269">
        <ele>471.3</ele>
        <time>2023-05-28T08:11:37Z</time>
      </trkpt>
      <trkpt lat="43.53939" lon="5.55269">
        <ele>471.3</ele>
        <time>2023-05-28T08:11:38Z</time>
      </trkpt>
      <trkpt lat="43.53938" lon="5.55268">
        <ele>471.3</ele>
        <time>2023-05-28T08:11:39Z</time>
      </trkpt>
      <trkpt lat="43.53938" lon="5.55268">
        <ele>471.3</ele>
        <time>2023-05-28T08:11:40Z</time>
      </trkpt>
      <trkpt lat="43.53938" lon="5.55268">
        <ele>471.3</ele>
        <time>2023-05-28T08:11:41Z</time>
      </trkpt>
      <trkpt lat="43.53937" lon="5.55267">
        <ele>471.3</ele>
        <time>2023-05-28T08:11:42Z</time>
      </trkpt>
      <trkpt lat="43.53937" lon="5.55267">
        <ele>471.2</ele>
        <time>2023-05-28T08:11:43Z</time>
      </trkpt>
      <trkpt lat="43.53936" lon="5.55267">
        <ele>471.2</ele>
        <time>2023-05-28T08:11:44Z</time>
      </trkpt>
      <trkpt lat="43.53936" lon="5.55267">
        <ele>471.2</ele>
        <time>2023-05-28T08:11:45Z</time>
      </trkpt>
      <trkpt lat="43.53936" lon="5.55267">
        <ele>471.2</ele>
        <time>2023-05-28T08:11:46Z</time>
      </trkpt>
      <trkpt lat="43.53936" lon="5.55267">
        <ele>471.2</ele>
        <time>2023-05-28T08:11:47Z</time>
      </trkpt>
      <trkpt lat="43.53936" lon="5.55267">
        <ele>471.3</ele>
        <time>2023-05-28T08:11:48Z</time>
      </trkpt>
      <trkpt lat="43.53935" lon="5.55267">
        <ele>471.4</ele>
        <time>2023-05-28T08:11:49Z</time>
      </trkpt>
      <trkpt lat="43.53935" lon="5.55267">
        <ele>471.5</ele>
        <time>2023-05-28T08:11:50Z</time>
      </trkpt>
      <trkpt lat="43.53935" lon="5.55267">
        <ele>471.4</ele>
        <time>2023-05-28T08:11:51Z</time>
      </trkpt>
      <trkpt lat="43.53935" lon="5.55267">
        <ele>471.4</ele>
        <time>2023-05-28T08:11:52Z</time>
      </trkpt>
      <trkpt lat="43.53934" lon="5.55267">
        <ele>471.3</ele>
        <time>2023-05-28T08:11:53Z</time>
      </trkpt>
      <trkpt lat="43.53934" lon="5.55267">
        <ele>471.3</ele>
        <time>2023-05-28T08:11:54Z</time>
      </trkpt>
      <trkpt lat="43.53934" lon="5.55267">
        <ele>471.4</ele>
        <time>2023-05-28T08:11:55Z</time>
      </trkpt>
      <trkpt lat="43.53934" lon="5.55267">
        <ele>471.4</ele>
        <time>2023-05-28T08:11:56Z</time>
      </trkpt>
      <trkpt lat="43.53934" lon="5.55267">
        <ele>471.3</ele>
        <time>2023-05-28T08:11:57Z</time>
      </trkpt>
      <trkpt lat="43.53934" lon="5.55267">
        <ele>471.3</ele>
        <time>2023-05-28T08:11:58Z</time>
      </trkpt>
      <trkpt lat="43.53934" lon="5.55267">
        <ele>471.3</ele>
        <time>2023-05-28T08:11:59Z</time>
      </trkpt>
      <trkpt lat="43.53933" lon="5.55267">
        <ele>471.3</ele>
        <time>2023-05-28T08:12:00Z</time>
      </trkpt>
      <trkpt lat="43.53933" lon="5.55267">
        <ele>471.3</ele>
        <time>2023-05-28T08:12:01Z</time>
      </trkpt>
      <trkpt lat="43.53933" lon="5.55267">
        <ele>471.2</ele>
        <time>2023-05-28T08:12:02Z</time>
      </trkpt>
      <trkpt lat="43.53933" lon="5.55267">
        <ele>471.2</ele>
        <time>2023-05-28T08:12:03Z</time>
      </trkpt>
      <trkpt lat="43.53933" lon="5.55267">
        <ele>471.2</ele>
        <time>2023-05-28T08:12:04Z</time>
      </trkpt>
      <trkpt lat="43.53933" lon="5.55267">
        <ele>471.3</ele>
        <time>2023-05-28T08:12:05Z</time>
      </trkpt>
      <trkpt lat="43.53932" lon="5.55266">
        <ele>471.3</ele>
        <time>2023-05-28T08:12:06Z</time>
      </trkpt>
      <trkpt lat="43.53932" lon="5.55266">
        <ele>471.3</ele>
        <time>2023-05-28T08:12:07Z</time>
      </trkpt>
      <trkpt lat="43.53932" lon="5.55266">
        <ele>471.3</ele>
        <time>2023-05-28T08:12:08Z</time>
      </trkpt>
      <trkpt lat="43.53932" lon="5.55266">
        <ele>471.4</ele>
        <time>2023-05-28T08:12:09Z</time>
      </trkpt>
      <trkpt lat="43.53932" lon="5.55266">
        <ele>471.4</ele>
        <time>2023-05-28T08:12:10Z</time>
      </trkpt>
      <trkpt lat="43.53932" lon="5.55266">
        <ele>471.5</ele>
        <time>2023-05-28T08:12:11Z</time>
      </trkpt>
      <trkpt lat="43.53932" lon="5.55267">
        <ele>471.4</ele>
        <time>2023-05-28T08:12:12Z</time>
      </trkpt>
      <trkpt lat="43.53932" lon="5.55267">
        <ele>471.5</ele>
        <time>2023-05-28T08:12:13Z</time>
      </trkpt>
      <trkpt lat="43.53932" lon="5.55267">
        <ele>471.6</ele>
        <time>2023-05-28T08:12:14Z</time>
      </trkpt>
      <trkpt lat="43.53932" lon="5.55267">
        <ele>471.6</ele>
        <time>2023-05-28T08:12:15Z</time>
      </trkpt>
      <trkpt lat="43.53932" lon="5.55267">
        <ele>471.4</ele>
        <time>2023-05-28T08:12:16Z</time>
      </trkpt>
      <trkpt lat="43.53932" lon="5.55267">
        <ele>471.4</ele>
        <time>2023-05-28T08:12:17Z</time>
      </trkpt>
      <trkpt lat="43.53932" lon="5.55267">
        <ele>471.4</ele>
        <time>2023-05-28T08:12:18Z</time>
      </trkpt>
      <trkpt lat="43.53932" lon="5.55267">
        <ele>471.4</ele>
        <time>2023-05-28T08:12:19Z</time>
      </trkpt>
      <trkpt lat="43.53932" lon="5.55267">
        <ele>471.4</ele>
        <time>2023-05-28T08:12:20Z</time>
      </trkpt>
      <trkpt lat="43.53932" lon="5.55267">
        <ele>471.4</ele>
        <time>2023-05-28T08:12:21Z</time>
      </trkpt>
      <trkpt lat="43.53932" lon="5.55268">
        <ele>471.3</ele>
        <time>2023-05-28T08:12:22Z</time>
      </trkpt>
      <trkpt lat="43.53932" lon="5.55267">
        <ele>471.4</ele>
        <time>2023-05-28T08:12:23Z</time>
      </trkpt>
      <trkpt lat="43.53932" lon="5.55267">
        <ele>471.5</ele>
        <time>2023-05-28T08:12:24Z</time>
      </trkpt>
      <trkpt lat="43.53932" lon="5.55267">
        <ele>471.5</ele>
        <time>2023-05-28T08:12:25Z</time>
      </trkpt>
      <trkpt lat="43.53932" lon="5.55268">
        <ele>471.5</ele>
        <time>2023-05-28T08:12:26Z</time>
      </trkpt>
      <trkpt lat="43.53932" lon="5.55268">
        <ele>471.5</ele>
        <time>2023-05-28T08:12:27Z</time>
      </trkpt>
      <trkpt lat="43.53932" lon="5.55268">
        <ele>471.5</ele>
        <time>2023-05-28T08:12:28Z</time>
      </trkpt>
      <trkpt lat="43.53932" lon="5.55268">
        <ele>471.5</ele>
        <time>2023-05-28T08:12:29Z</time>
      </trkpt>
      <trkpt lat="43.53932" lon="5.55268">
        <ele>471.5</ele>
        <time>2023-05-28T08:12:30Z</time>
      </trkpt>
      <trkpt lat="43.53933" lon="5.55268">
        <ele>471.6</ele>
        <time>2023-05-28T08:12:31Z</time>
      </trkpt>
      <trkpt lat="43.53933" lon="5.55268">
        <ele>471.7</ele>
        <time>2023-05-28T08:12:32Z</time>
      </trkpt>
      <trkpt lat="43.53933" lon="5.55268">
        <ele>471.8</ele>
        <time>2023-05-28T08:12:33Z</time>
      </trkpt>
      <trkpt lat="43.53933" lon="5.55268">
        <ele>471.8</ele>
        <time>2023-05-28T08:12:34Z</time>
      </trkpt>
      <trkpt lat="43.53933" lon="5.55268">
        <ele>471.9</ele>
        <time>2023-05-28T08:12:35Z</time>
      </trkpt>
      <trkpt lat="43.53933" lon="5.55268">
        <ele>471.9</ele>
        <time>2023-05-28T08:12:36Z</time>
      </trkpt>
      <trkpt lat="43.53933" lon="5.55268">
        <ele>471.9</ele>
        <time>2023-05-28T08:12:37Z</time>
      </trkpt>
      <trkpt lat="43.53933" lon="5.55268">
        <ele>471.9</ele>
        <time>2023-05-28T08:12:38Z</time>
      </trkpt>
      <trkpt lat="43.53933" lon="5.55268">
        <ele>471.9</ele>
        <time>2023-05-28T08:12:39Z</time>
      </trkpt>
      <trkpt lat="43.53933" lon="5.55268">
        <ele>471.9</ele>
        <time>2023-05-28T08:12:40Z</time>
      </trkpt>
      <trkpt lat="43.53933" lon="5.55268">
        <ele>471.8</ele>
        <time>2023-05-28T08:12:41Z</time>
      </trkpt>
      <trkpt lat="43.53933" lon="5.55268">
        <ele>471.8</ele>
        <time>2023-05-28T08:12:42Z</time>
      </trkpt>
      <trkpt lat="43.53933" lon="5.55268">
        <ele>471.8</ele>
        <time>2023-05-28T08:12:43Z</time>
      </trkpt>
      <trkpt lat="43.53933" lon="5.55268">
        <ele>471.8</ele>
        <time>2023-05-28T08:12:44Z</time>
      </trkpt>
      <trkpt lat="43.53933" lon="5.55268">
        <ele>471.9</ele>
        <time>2023-05-28T08:12:45Z</time>
      </trkpt>
      <trkpt lat="43.53933" lon="5.55268">
        <ele>471.9</ele>
        <time>2023-05-28T08:12:46Z</time>
      </trkpt>
      <trkpt lat="43.53933" lon="5.55268">
        <ele>471.9</ele>
        <time>2023-05-28T08:12:47Z</time>
      </trkpt>
      <trkpt lat="43.53933" lon="5.55268">
        <ele>471.9</ele>
        <time>2023-05-28T08:12:48Z</time>
      </trkpt>
      <trkpt lat="43.53933" lon="5.55268">
        <ele>471.9</ele>
        <time>2023-05-28T08:12:49Z</time>
      </trkpt>
      <trkpt lat="43.53933" lon="5.55268">
        <ele>471.9</ele>
        <time>2023-05-28T08:12:50Z</time>
      </trkpt>
      <trkpt lat="43.53933" lon="5.55269">
        <ele>471.8</ele>
        <time>2023-05-28T08:12:51Z</time>
      </trkpt>
      <trkpt lat="43.53933" lon="5.55268">
        <ele>471.7</ele>
        <time>2023-05-28T08:12:52Z</time>
      </trkpt>
      <trkpt lat="43.53933" lon="5.55268">
        <ele>471.7</ele>
        <time>2023-05-28T08:12:53Z</time>
      </trkpt>
      <trkpt lat="43.53933" lon="5.55269">
        <ele>471.7</ele>
        <time>2023-05-28T08:12:54Z</time>
      </trkpt>
      <trkpt lat="43.53933" lon="5.55269">
        <ele>471.7</ele>
        <time>2023-05-28T08:12:55Z</time>
      </trkpt>
      <trkpt lat="43.53932" lon="5.55269">
        <ele>471.7</ele>
        <time>2023-05-28T08:12:56Z</time>
      </trkpt>
      <trkpt lat="43.53932" lon="5.55269">
        <ele>471.7</ele>
        <time>2023-05-28T08:12:57Z</time>
      </trkpt>
      <trkpt lat="43.53932" lon="5.55269">
        <ele>471.6</ele>
        <time>2023-05-28T08:12:58Z</time>
      </trkpt>
      <trkpt lat="43.53932" lon="5.55269">
        <ele>471.6</ele>
        <time>2023-05-28T08:12:59Z</time>
      </trkpt>
      <trkpt lat="43.53932" lon="5.55269">
        <ele>471.6</ele>
        <time>2023-05-28T08:13:00Z</time>
      </trkpt>
      <trkpt lat="43.53932" lon="5.55269">
        <ele>471.6</ele>
        <time>2023-05-28T08:13:01Z</time>
      </trkpt>
      <trkpt lat="43.53932" lon="5.55269">
        <ele>471.6</ele>
        <time>2023-05-28T08:13:02Z</time>
      </trkpt>
      <trkpt lat="43.53932" lon="5.55269">
        <ele>471.6</ele>
        <time>2023-05-28T08:13:03Z</time>
      </trkpt>
      <trkpt lat="43.53932" lon="5.55269">
        <ele>471.7</ele>
        <time>2023-05-28T08:13:04Z</time>
      </trkpt>
      <trkpt lat="43.53932" lon="5.55268">
        <ele>471.6</ele>
        <time>2023-05-28T08:13:05Z</time>
      </trkpt>
      <trkpt lat="43.53932" lon="5.55268">
        <ele>471.6</ele>
        <time>2023-05-28T08:13:06Z</time>
      </trkpt>
      <trkpt lat="43.53932" lon="5.55268">
        <ele>471.6</ele>
        <time>2023-05-28T08:13:07Z</time>
      </trkpt>
      <trkpt lat="43.53932" lon="5.55268">
        <ele>471.6</ele>
        <time>2023-05-28T08:13:08Z</time>
      </trkpt>
      <trkpt lat="43.53932" lon="5.55267">
        <ele>471.6</ele>
        <time>2023-05-28T08:13:09Z</time>
      </trkpt>
      <trkpt lat="43.53932" lon="5.55267">
        <ele>471.6</ele>
        <time>2023-05-28T08:13:10Z</time>
      </trkpt>
      <trkpt lat="43.53932" lon="5.55267">
        <ele>471.6</ele>
        <time>2023-05-28T08:13:11Z</time>
      </trkpt>
      <trkpt lat="43.53932" lon="5.55267">
        <ele>471.6</ele>
        <time>2023-05-28T08:13:12Z</time>
      </trkpt>
      <trkpt lat="43.53931" lon="5.55267">
        <ele>471.7</ele>
        <time>2023-05-28T08:13:13Z</time>
      </trkpt>
      <trkpt lat="43.53931" lon="5.55267">
        <ele>471.8</ele>
        <time>2023-05-28T08:13:14Z</time>
      </trkpt>
      <trkpt lat="43.53931" lon="5.55267">
        <ele>471.8</ele>
        <time>2023-05-28T08:13:15Z</time>
      </trkpt>
      <trkpt lat="43.53932" lon="5.55266">
        <ele>471.7</ele>
        <time>2023-05-28T08:13:16Z</time>
      </trkpt>
      <trkpt lat="43.53932" lon="5.55266">
        <ele>471.6</ele>
        <time>2023-05-28T08:13:17Z</time>
      </trkpt>
      <trkpt lat="43.53932" lon="5.55266">
        <ele>471.5</ele>
        <time>2023-05-28T08:13:18Z</time>
      </trkpt>
      <trkpt lat="43.53932" lon="5.55267">
        <ele>471.7</ele>
        <time>2023-05-28T08:13:19Z</time>
      </trkpt>
      <trkpt lat="43.53932" lon="5.55267">
        <ele>471.8</ele>
        <time>2023-05-28T08:13:20Z</time>
      </trkpt>
      <trkpt lat="43.53932" lon="5.55267">
        <ele>471.8</ele>
        <time>2023-05-28T08:13:21Z</time>
      </trkpt>
      <trkpt lat="43.53932" lon="5.55267">
        <ele>471.8</ele>
        <time>2023-05-28T08:13:22Z</time>
      </trkpt>
      <trkpt lat="43.53932" lon="5.55267">
        <ele>471.9</ele>
        <time>2023-05-28T08:13:23Z</time>
      </trkpt>
      <trkpt lat="43.53932" lon="5.55267">
        <ele>471.8</ele>
        <time>2023-05-28T08:13:24Z</time>
      </trkpt>
      <trkpt lat="43.53932" lon="5.55267">
        <ele>471.8</ele>
        <time>2023-05-28T08:13:25Z</time>
      </trkpt>
      <trkpt lat="43.53932" lon="5.55267">
        <ele>471.8</ele>
        <time>2023-05-28T08:13:26Z</time>
      </trkpt>
      <trkpt lat="43.53932" lon="5.55267">
        <ele>471.8</ele>
        <time>2023-05-28T08:13:27Z</time>
      </trkpt>
      <trkpt lat="43.53932" lon="5.55267">
        <ele>471.8</ele>
        <time>2023-05-28T08:13:28Z</time>
      </trkpt>
      <trkpt lat="43.53932" lon="5.55267">
        <ele>471.8</ele>
        <time>2023-05-28T08:13:29Z</time>
      </trkpt>
      <trkpt lat="43.53932" lon="5.55267">
        <ele>471.8</ele>
        <time>2023-05-28T08:13:30Z</time>
      </trkpt>
      <trkpt lat="43.53932" lon="5.55268">
        <ele>471.9</ele>
        <time>2023-05-28T08:13:31Z</time>
      </trkpt>
      <trkpt lat="43.53932" lon="5.55267">
        <ele>471.9</ele>
        <time>2023-05-28T08:13:32Z</time>
      </trkpt>
      <trkpt lat="43.53932" lon="5.55268">
        <ele>471.9</ele>
        <time>2023-05-28T08:13:33Z</time>
      </trkpt>
      <trkpt lat="43.53933" lon="5.55268">
        <ele>471.9</ele>
        <time>2023-05-28T08:13:34Z</time>
      </trkpt>
      <trkpt lat="43.53933" lon="5.55268">
        <ele>471.9</ele>
        <time>2023-05-28T08:13:35Z</time>
      </trkpt>
      <trkpt lat="43.53933" lon="5.55268">
        <ele>471.9</ele>
        <time>2023-05-28T08:13:36Z</time>
      </trkpt>
      <trkpt lat="43.53933" lon="5.55268">
        <ele>471.9</ele>
        <time>2023-05-28T08:13:37Z</time>
      </trkpt>
      <trkpt lat="43.53933" lon="5.55268">
        <ele>471.9</ele>
        <time>2023-05-28T08:13:38Z</time>
      </trkpt>
      <trkpt lat="43.53933" lon="5.55268">
        <ele>471.9</ele>
        <time>2023-05-28T08:13:39Z</time>
      </trkpt>
      <trkpt lat="43.53933" lon="5.55268">
        <ele>471.9</ele>
        <time>2023-05-28T08:13:40Z</time>
      </trkpt>
      <trkpt lat="43.53933" lon="5.55268">
        <ele>471.9</ele>
        <time>2023-05-28T08:13:41Z</time>
      </trkpt>
      <trkpt lat="43.53933" lon="5.55268">
        <ele>471.9</ele>
        <time>2023-05-28T08:13:42Z</time>
      </trkpt>
      <trkpt lat="43.53933" lon="5.55268">
        <ele>471.9</ele>
        <time>2023-05-28T08:13:43Z</time>
      </trkpt>
      <trkpt lat="43.53933" lon="5.55269">
        <ele>471.8</ele>
        <time>2023-05-28T08:13:44Z</time>
      </trkpt>
      <trkpt lat="43.53933" lon="5.55269">
        <ele>471.8</ele>
        <time>2023-05-28T08:13:45Z</time>
      </trkpt>
      <trkpt lat="43.53933" lon="5.55269">
        <ele>471.8</ele>
        <time>2023-05-28T08:13:46Z</time>
      </trkpt>
      <trkpt lat="43.53933" lon="5.55269">
        <ele>471.8</ele>
        <time>2023-05-28T08:13:47Z</time>
      </trkpt>
      <trkpt lat="43.53933" lon="5.55269">
        <ele>471.8</ele>
        <time>2023-05-28T08:13:48Z</time>
      </trkpt>
      <trkpt lat="43.53933" lon="5.55269">
        <ele>471.7</ele>
        <time>2023-05-28T08:13:49Z</time>
      </trkpt>
      <trkpt lat="43.53933" lon="5.55269">
        <ele>471.7</ele>
        <time>2023-05-28T08:13:50Z</time>
      </trkpt>
      <trkpt lat="43.53933" lon="5.55269">
        <ele>471.7</ele>
        <time>2023-05-28T08:13:51Z</time>
      </trkpt>
      <trkpt lat="43.53933" lon="5.55269">
        <ele>471.7</ele>
        <time>2023-05-28T08:13:52Z</time>
      </trkpt>
      <trkpt lat="43.53933" lon="5.55269">
        <ele>471.7</ele>
        <time>2023-05-28T08:13:53Z</time>
      </trkpt>
      <trkpt lat="43.53933" lon="5.55269">
        <ele>471.7</ele>
        <time>2023-05-28T08:13:54Z</time>
      </trkpt>
      <trkpt lat="43.53933" lon="5.55268">
        <ele>471.8</ele>
        <time>2023-05-28T08:13:55Z</time>
      </trkpt>
      <trkpt lat="43.53933" lon="5.55268">
        <ele>471.8</ele>
        <time>2023-05-28T08:13:56Z</time>
      </trkpt>
      <trkpt lat="43.53933" lon="5.55268">
        <ele>471.8</ele>
        <time>2023-05-28T08:13:57Z</time>
      </trkpt>
      <trkpt lat="43.53933" lon="5.55267">
        <ele>471.8</ele>
        <time>2023-05-28T08:13:58Z</time>
      </trkpt>
      <trkpt lat="43.53933" lon="5.55267">
        <ele>471.7</ele>
        <time>2023-05-28T08:13:59Z</time>
      </trkpt>
      <trkpt lat="43.53933" lon="5.55267">
        <ele>471.7</ele>
        <time>2023-05-28T08:14:00Z</time>
      </trkpt>
      <trkpt lat="43.53933" lon="5.55267">
        <ele>471.7</ele>
        <time>2023-05-28T08:14:01Z</time>
      </trkpt>
      <trkpt lat="43.53933" lon="5.55267">
        <ele>471.7</ele>
        <time>2023-05-28T08:14:02Z</time>
      </trkpt>
      <trkpt lat="43.53933" lon="5.55267">
        <ele>471.7</ele>
        <time>2023-05-28T08:14:03Z</time>
      </trkpt>
      <trkpt lat="43.53933" lon="5.55267">
        <ele>471.7</ele>
        <time>2023-05-28T08:14:04Z</time>
      </trkpt>
      <trkpt lat="43.53933" lon="5.55267">
        <ele>471.7</ele>
        <time>2023-05-28T08:14:05Z</time>
      </trkpt>
      <trkpt lat="43.53933" lon="5.55266">
        <ele>471.6</ele>
        <time>2023-05-28T08:14:06Z</time>
      </trkpt>
      <trkpt lat="43.53933" lon="5.55266">
        <ele>471.6</ele>
        <time>2023-05-28T08:14:07Z</time>
      </trkpt>
      <trkpt lat="43.53932" lon="5.55267">
        <ele>471.6</ele>
        <time>2023-05-28T08:14:08Z</time>
      </trkpt>
      <trkpt lat="43.53932" lon="5.55266">
        <ele>471.6</ele>
        <time>2023-05-28T08:14:09Z</time>
      </trkpt>
      <trkpt lat="43.53932" lon="5.55267">
        <ele>471.6</ele>
        <time>2023-05-28T08:14:10Z</time>
      </trkpt>
      <trkpt lat="43.53932" lon="5.55267">
        <ele>471.6</ele>
        <time>2023-05-28T08:14:11Z</time>
      </trkpt>
      <trkpt lat="43.53933" lon="5.55267">
        <ele>471.6</ele>
        <time>2023-05-28T08:14:12Z</time>
      </trkpt>
      <trkpt lat="43.53933" lon="5.55267">
        <ele>471.7</ele>
        <time>2023-05-28T08:14:13Z</time>
      </trkpt>
      <trkpt lat="43.53933" lon="5.55267">
        <ele>471.7</ele>
        <time>2023-05-28T08:14:14Z</time>
      </trkpt>
      <trkpt lat="43.53933" lon="5.55267">
        <ele>471.7</ele>
        <time>2023-05-28T08:14:15Z</time>
      </trkpt>
      <trkpt lat="43.53933" lon="5.55267">
        <ele>471.7</ele>
        <time>2023-05-28T08:14:16Z</time>
      </trkpt>
      <trkpt lat="43.53933" lon="5.55267">
        <ele>471.7</ele>
        <time>2023-05-28T08:14:17Z</time>
      </trkpt>
      <trkpt lat="43.53933" lon="5.55266">
        <ele>471.7</ele>
        <time>2023-05-28T08:14:18Z</time>
      </trkpt>
      <trkpt lat="43.53933" lon="5.55266">
        <ele>471.8</ele>
        <time>2023-05-28T08:14:19Z</time>
      </trkpt>
      <trkpt lat="43.53933" lon="5.55266">
        <ele>471.8</ele>
        <time>2023-05-28T08:14:20Z</time>
      </trkpt>
      <trkpt lat="43.53933" lon="5.55266">
        <ele>471.8</ele>
        <time>2023-05-28T08:14:21Z</time>
      </trkpt>
      <trkpt lat="43.53933" lon="5.55267">
        <ele>471.8</ele>
        <time>2023-05-28T08:14:22Z</time>
      </trkpt>
      <trkpt lat="43.53933" lon="5.55267">
        <ele>471.8</ele>
        <time>2023-05-28T08:14:23Z</time>
      </trkpt>
      <trkpt lat="43.53934" lon="5.55267">
        <ele>471.9</ele>
        <time>2023-05-28T08:14:24Z</time>
      </trkpt>
      <trkpt lat="43.53934" lon="5.55267">
        <ele>471.9</ele>
        <time>2023-05-28T08:14:25Z</time>
      </trkpt>
      <trkpt lat="43.53933" lon="5.55267">
        <ele>471.9</ele>
        <time>2023-05-28T08:14:26Z</time>
      </trkpt>
      <trkpt lat="43.53933" lon="5.55266">
        <ele>472</ele>
        <time>2023-05-28T08:14:27Z</time>
      </trkpt>
      <trkpt lat="43.53933" lon="5.55267">
        <ele>471.9</ele>
        <time>2023-05-28T08:14:28Z</time>
      </trkpt>
      <trkpt lat="43.53934" lon="5.55267">
        <ele>471.9</ele>
        <time>2023-05-28T08:14:29Z</time>
      </trkpt>
      <trkpt lat="43.53934" lon="5.55266">
        <ele>471.9</ele>
        <time>2023-05-28T08:14:30Z</time>
      </trkpt>
      <trkpt lat="43.53934" lon="5.55266">
        <ele>471.9</ele>
        <time>2023-05-28T08:14:31Z</time>
      </trkpt>
      <trkpt lat="43.53934" lon="5.55266">
        <ele>471.9</ele>
        <time>2023-05-28T08:14:32Z</time>
      </trkpt>
      <trkpt lat="43.53934" lon="5.55266">
        <ele>471.9</ele>
        <time>2023-05-28T08:14:33Z</time>
      </trkpt>
      <trkpt lat="43.53934" lon="5.55266">
        <ele>472</ele>
        <time>2023-05-28T08:14:34Z</time>
      </trkpt>
      <trkpt lat="43.53934" lon="5.55266">
        <ele>472</ele>
        <time>2023-05-28T08:14:35Z</time>
      </trkpt>
      <trkpt lat="43.53934" lon="5.55266">
        <ele>472.1</ele>
        <time>2023-05-28T08:14:36Z</time>
      </trkpt>
      <trkpt lat="43.53934" lon="5.55266">
        <ele>472</ele>
        <time>2023-05-28T08:14:37Z</time>
      </trkpt>
      <trkpt lat="43.53934" lon="5.55266">
        <ele>471.9</ele>
        <time>2023-05-28T08:14:38Z</time>
      </trkpt>
      <trkpt lat="43.53934" lon="5.55266">
        <ele>471.9</ele>
        <time>2023-05-28T08:14:39Z</time>
      </trkpt>
      <trkpt lat="43.53934" lon="5.55266">
        <ele>471.8</ele>
        <time>2023-05-28T08:14:40Z</time>
      </trkpt>
      <trkpt lat="43.53934" lon="5.55267">
        <ele>471.7</ele>
        <time>2023-05-28T08:14:41Z</time>
      </trkpt>
      <trkpt lat="43.53934" lon="5.55266">
        <ele>471.7</ele>
        <time>2023-05-28T08:14:42Z</time>
      </trkpt>
      <trkpt lat="43.53934" lon="5.55266">
        <ele>471.6</ele>
        <time>2023-05-28T08:14:43Z</time>
      </trkpt>
      <trkpt lat="43.53934" lon="5.55266">
        <ele>471.7</ele>
        <time>2023-05-28T08:14:44Z</time>
      </trkpt>
      <trkpt lat="43.53934" lon="5.55266">
        <ele>471.6</ele>
        <time>2023-05-28T08:14:45Z</time>
      </trkpt>
      <trkpt lat="43.53934" lon="5.55266">
        <ele>471.6</ele>
        <time>2023-05-28T08:14:46Z</time>
      </trkpt>
      <trkpt lat="43.53933" lon="5.55266">
        <ele>471.6</ele>
        <time>2023-05-28T08:14:47Z</time>
      </trkpt>
      <trkpt lat="43.53933" lon="5.55266">
        <ele>471.6</ele>
        <time>2023-05-28T08:14:48Z</time>
      </trkpt>
      <trkpt lat="43.53933" lon="5.55266">
        <ele>471.6</ele>
        <time>2023-05-28T08:14:49Z</time>
      </trkpt>
      <trkpt lat="43.53933" lon="5.55266">
        <ele>471.6</ele>
        <time>2023-05-28T08:14:50Z</time>
      </trkpt>
      <trkpt lat="43.53933" lon="5.55266">
        <ele>471.6</ele>
        <time>2023-05-28T08:14:51Z</time>
      </trkpt>
      <trkpt lat="43.53933" lon="5.55266">
        <ele>471.7</ele>
        <time>2023-05-28T08:14:52Z</time>
      </trkpt>
      <trkpt lat="43.53933" lon="5.55266">
        <ele>471.7</ele>
        <time>2023-05-28T08:14:53Z</time>
      </trkpt>
      <trkpt lat="43.53934" lon="5.55266">
        <ele>471.7</ele>
        <time>2023-05-28T08:14:54Z</time>
      </trkpt>
      <trkpt lat="43.53934" lon="5.55266">
        <ele>471.6</ele>
        <time>2023-05-28T08:14:55Z</time>
      </trkpt>
      <trkpt lat="43.53933" lon="5.55266">
        <ele>471.6</ele>
        <time>2023-05-28T08:14:56Z</time>
      </trkpt>
      <trkpt lat="43.53933" lon="5.55266">
        <ele>471.6</ele>
        <time>2023-05-28T08:14:57Z</time>
      </trkpt>
      <trkpt lat="43.53933" lon="5.55266">
        <ele>471.6</ele>
        <time>2023-05-28T08:14:58Z</time>
      </trkpt>
      <trkpt lat="43.53933" lon="5.55266">
        <ele>471.5</ele>
        <time>2023-05-28T08:14:59Z</time>
      </trkpt>
      <trkpt lat="43.53933" lon="5.55266">
        <ele>471.5</ele>
        <time>2023-05-28T08:15:00Z</time>
      </trkpt>
      <trkpt lat="43.53933" lon="5.55266">
        <ele>471.4</ele>
        <time>2023-05-28T08:15:01Z</time>
      </trkpt>
      <trkpt lat="43.53934" lon="5.55266">
        <ele>471.4</ele>
        <time>2023-05-28T08:15:02Z</time>
      </trkpt>
      <trkpt lat="43.53934" lon="5.55266">
        <ele>471.4</ele>
        <time>2023-05-28T08:15:03Z</time>
      </trkpt>
      <trkpt lat="43.53934" lon="5.55266">
        <ele>471.4</ele>
        <time>2023-05-28T08:15:04Z</time>
      </trkpt>
      <trkpt lat="43.53934" lon="5.55266">
        <ele>471.6</ele>
        <time>2023-05-28T08:15:05Z</time>
      </trkpt>
      <trkpt lat="43.53934" lon="5.55266">
        <ele>471.7</ele>
        <time>2023-05-28T08:15:06Z</time>
      </trkpt>
      <trkpt lat="43.53934" lon="5.55266">
        <ele>471.8</ele>
        <time>2023-05-28T08:15:07Z</time>
      </trkpt>
      <trkpt lat="43.53934" lon="5.55266">
        <ele>471.8</ele>
        <time>2023-05-28T08:15:08Z</time>
      </trkpt>
      <trkpt lat="43.53935" lon="5.55268">
        <ele>471.7</ele>
        <time>2023-05-28T08:15:09Z</time>
      </trkpt>
      <trkpt lat="43.53935" lon="5.55268">
        <ele>471.7</ele>
        <time>2023-05-28T08:15:10Z</time>
      </trkpt>
      <trkpt lat="43.53935" lon="5.55268">
        <ele>471.7</ele>
        <time>2023-05-28T08:15:11Z</time>
      </trkpt>
      <trkpt lat="43.53935" lon="5.55268">
        <ele>471.7</ele>
        <time>2023-05-28T08:15:12Z</time>
      </trkpt>
      <trkpt lat="43.53935" lon="5.55268">
        <ele>471.6</ele>
        <time>2023-05-28T08:15:13Z</time>
      </trkpt>
      <trkpt lat="43.53935" lon="5.55268">
        <ele>471.6</ele>
        <time>2023-05-28T08:15:14Z</time>
      </trkpt>
      <trkpt lat="43.53935" lon="5.55268">
        <ele>471.6</ele>
        <time>2023-05-28T08:15:15Z</time>
      </trkpt>
      <trkpt lat="43.53935" lon="5.55268">
        <ele>471.6</ele>
        <time>2023-05-28T08:15:16Z</time>
      </trkpt>
      <trkpt lat="43.53935" lon="5.55268">
        <ele>471.5</ele>
        <time>2023-05-28T08:15:17Z</time>
      </trkpt>
      <trkpt lat="43.53935" lon="5.55268">
        <ele>471.5</ele>
        <time>2023-05-28T08:15:18Z</time>
      </trkpt>
      <trkpt lat="43.53935" lon="5.55269">
        <ele>471.6</ele>
        <time>2023-05-28T08:15:19Z</time>
      </trkpt>
      <trkpt lat="43.53935" lon="5.55269">
        <ele>471.6</ele>
        <time>2023-05-28T08:15:20Z</time>
      </trkpt>
      <trkpt lat="43.53935" lon="5.55269">
        <ele>471.6</ele>
        <time>2023-05-28T08:15:21Z</time>
      </trkpt>
      <trkpt lat="43.53935" lon="5.55269">
        <ele>471.6</ele>
        <time>2023-05-28T08:15:22Z</time>
      </trkpt>
      <trkpt lat="43.53935" lon="5.55269">
        <ele>471.5</ele>
        <time>2023-05-28T08:15:23Z</time>
      </trkpt>
      <trkpt lat="43.53935" lon="5.55269">
        <ele>471.4</ele>
        <time>2023-05-28T08:15:24Z</time>
      </trkpt>
      <trkpt lat="43.53935" lon="5.55269">
        <ele>471.5</ele>
        <time>2023-05-28T08:15:25Z</time>
      </trkpt>
      <trkpt lat="43.53935" lon="5.55269">
        <ele>471.6</ele>
        <time>2023-05-28T08:15:26Z</time>
      </trkpt>
      <trkpt lat="43.53935" lon="5.55269">
        <ele>471.8</ele>
        <time>2023-05-28T08:15:27Z</time>
      </trkpt>
      <trkpt lat="43.53935" lon="5.55269">
        <ele>472</ele>
        <time>2023-05-28T08:15:28Z</time>
      </trkpt>
      <trkpt lat="43.53935" lon="5.55269">
        <ele>472.1</ele>
        <time>2023-05-28T08:15:29Z</time>
      </trkpt>
      <trkpt lat="43.53936" lon="5.5527">
        <ele>472</ele>
        <time>2023-05-28T08:15:30Z</time>
      </trkpt>
      <trkpt lat="43.53936" lon="5.5527">
        <ele>472</ele>
        <time>2023-05-28T08:15:31Z</time>
      </trkpt>
      <trkpt lat="43.53936" lon="5.55269">
        <ele>472</ele>
        <time>2023-05-28T08:15:32Z</time>
      </trkpt>
      <trkpt lat="43.53936" lon="5.55268">
        <ele>471.9</ele>
        <time>2023-05-28T08:15:33Z</time>
      </trkpt>
      <trkpt lat="43.53936" lon="5.55268">
        <ele>471.9</ele>
        <time>2023-05-28T08:15:34Z</time>
      </trkpt>
      <trkpt lat="43.53936" lon="5.55268">
        <ele>472</ele>
        <time>2023-05-28T08:15:35Z</time>
      </trkpt>
      <trkpt lat="43.53936" lon="5.55268">
        <ele>471.9</ele>
        <time>2023-05-28T08:15:36Z</time>
      </trkpt>
      <trkpt lat="43.53936" lon="5.55268">
        <ele>471.9</ele>
        <time>2023-05-28T08:15:37Z</time>
      </trkpt>
      <trkpt lat="43.53937" lon="5.55268">
        <ele>471.8</ele>
        <time>2023-05-28T08:15:38Z</time>
      </trkpt>
      <trkpt lat="43.53937" lon="5.55268">
        <ele>471.8</ele>
        <time>2023-05-28T08:15:39Z</time>
      </trkpt>
      <trkpt lat="43.53937" lon="5.55268">
        <ele>471.7</ele>
        <time>2023-05-28T08:15:40Z</time>
      </trkpt>
      <trkpt lat="43.53937" lon="5.55268">
        <ele>471.7</ele>
        <time>2023-05-28T08:15:41Z</time>
      </trkpt>
      <trkpt lat="43.53937" lon="5.55268">
        <ele>471.7</ele>
        <time>2023-05-28T08:15:42Z</time>
      </trkpt>
      <trkpt lat="43.53937" lon="5.55268">
        <ele>471.6</ele>
        <time>2023-05-28T08:15:43Z</time>
      </trkpt>
      <trkpt lat="43.53937" lon="5.55268">
        <ele>471.6</ele>
        <time>2023-05-28T08:15:44Z</time>
      </trkpt>
      <trkpt lat="43.53937" lon="5.55267">
        <ele>471.5</ele>
        <time>2023-05-28T08:15:45Z</time>
      </trkpt>
      <trkpt lat="43.53937" lon="5.55267">
        <ele>471.5</ele>
        <time>2023-05-28T08:15:46Z</time>
      </trkpt>
      <trkpt lat="43.53937" lon="5.55266">
        <ele>471.5</ele>
        <time>2023-05-28T08:15:47Z</time>
      </trkpt>
      <trkpt lat="43.53937" lon="5.55266">
        <ele>471.5</ele>
        <time>2023-05-28T08:15:48Z</time>
      </trkpt>
      <trkpt lat="43.53937" lon="5.55266">
        <ele>471.5</ele>
        <time>2023-05-28T08:15:49Z</time>
      </trkpt>
      <trkpt lat="43.53937" lon="5.55266">
        <ele>471.5</ele>
        <time>2023-05-28T08:15:50Z</time>
      </trkpt>
      <trkpt lat="43.53937" lon="5.55265">
        <ele>471.5</ele>
        <time>2023-05-28T08:15:51Z</time>
      </trkpt>
      <trkpt lat="43.53937" lon="5.55265">
        <ele>471.5</ele>
        <time>2023-05-28T08:15:52Z</time>
      </trkpt>
      <trkpt lat="43.53937" lon="5.55265">
        <ele>471.5</ele>
        <time>2023-05-28T08:15:53Z</time>
      </trkpt>
      <trkpt lat="43.53937" lon="5.55265">
        <ele>471.6</ele>
        <time>2023-05-28T08:15:54Z</time>
      </trkpt>
      <trkpt lat="43.53937" lon="5.55265">
        <ele>471.6</ele>
        <time>2023-05-28T08:15:55Z</time>
      </trkpt>
      <trkpt lat="43.53937" lon="5.55265">
        <ele>471.6</ele>
        <time>2023-05-28T08:15:56Z</time>
      </trkpt>
      <trkpt lat="43.53937" lon="5.55264">
        <ele>471.5</ele>
        <time>2023-05-28T08:15:57Z</time>
      </trkpt>
      <trkpt lat="43.53936" lon="5.55264">
        <ele>471.6</ele>
        <time>2023-05-28T08:15:58Z</time>
      </trkpt>
      <trkpt lat="43.53936" lon="5.55264">
        <ele>471.6</ele>
        <time>2023-05-28T08:15:59Z</time>
      </trkpt>
      <trkpt lat="43.53936" lon="5.55264">
        <ele>471.7</ele>
        <time>2023-05-28T08:16:00Z</time>
      </trkpt>
      <trkpt lat="43.53936" lon="5.55264">
        <ele>471.7</ele>
        <time>2023-05-28T08:16:01Z</time>
      </trkpt>
      <trkpt lat="43.53936" lon="5.55264">
        <ele>471.7</ele>
        <time>2023-05-28T08:16:02Z</time>
      </trkpt>
      <trkpt lat="43.53936" lon="5.55265">
        <ele>471.6</ele>
        <time>2023-05-28T08:16:03Z</time>
      </trkpt>
      <trkpt lat="43.53936" lon="5.55265">
        <ele>471.6</ele>
        <time>2023-05-28T08:16:04Z</time>
      </trkpt>
      <trkpt lat="43.53936" lon="5.55265">
        <ele>471.5</ele>
        <time>2023-05-28T08:16:05Z</time>
      </trkpt>
      <trkpt lat="43.53936" lon="5.55265">
        <ele>471.4</ele>
        <time>2023-05-28T08:16:06Z</time>
      </trkpt>
      <trkpt lat="43.53936" lon="5.55265">
        <ele>471.4</ele>
        <time>2023-05-28T08:16:07Z</time>
      </trkpt>
      <trkpt lat="43.53936" lon="5.55265">
        <ele>471.4</ele>
        <time>2023-05-28T08:16:08Z</time>
      </trkpt>
      <trkpt lat="43.53936" lon="5.55265">
        <ele>471.5</ele>
        <time>2023-05-28T08:16:09Z</time>
      </trkpt>
      <trkpt lat="43.53936" lon="5.55265">
        <ele>471.6</ele>
        <time>2023-05-28T08:16:10Z</time>
      </trkpt>
      <trkpt lat="43.53936" lon="5.55265">
        <ele>471.6</ele>
        <time>2023-05-28T08:16:11Z</time>
      </trkpt>
      <trkpt lat="43.53936" lon="5.55265">
        <ele>471.6</ele>
        <time>2023-05-28T08:16:12Z</time>
      </trkpt>
      <trkpt lat="43.53936" lon="5.55265">
        <ele>471.6</ele>
        <time>2023-05-28T08:16:13Z</time>
      </trkpt>
      <trkpt lat="43.53936" lon="5.55265">
        <ele>471.6</ele>
        <time>2023-05-28T08:16:14Z</time>
      </trkpt>
      <trkpt lat="43.53936" lon="5.55265">
        <ele>471.6</ele>
        <time>2023-05-28T08:16:15Z</time>
      </trkpt>
      <trkpt lat="43.53936" lon="5.55265">
        <ele>471.7</ele>
        <time>2023-05-28T08:16:16Z</time>
      </trkpt>
      <trkpt lat="43.53937" lon="5.55265">
        <ele>471.8</ele>
        <time>2023-05-28T08:16:17Z</time>
      </trkpt>
      <trkpt lat="43.53937" lon="5.55265">
        <ele>471.8</ele>
        <time>2023-05-28T08:16:18Z</time>
      </trkpt>
      <trkpt lat="43.53937" lon="5.55265">
        <ele>471.7</ele>
        <time>2023-05-28T08:16:19Z</time>
      </trkpt>
      <trkpt lat="43.53937" lon="5.55265">
        <ele>471.7</ele>
        <time>2023-05-28T08:16:20Z</time>
      </trkpt>
      <trkpt lat="43.53937" lon="5.55265">
        <ele>471.7</ele>
        <time>2023-05-28T08:16:21Z</time>
      </trkpt>
      <trkpt lat="43.53937" lon="5.55265">
        <ele>471.7</ele>
        <time>2023-05-28T08:16:22Z</time>
      </trkpt>
      <trkpt lat="43.53937" lon="5.55265">
        <ele>471.8</ele>
        <time>2023-05-28T08:16:23Z</time>
      </trkpt>
      <trkpt lat="43.53937" lon="5.55265">
        <ele>471.8</ele>
        <time>2023-05-28T08:16:24Z</time>
      </trkpt>
      <trkpt lat="43.53937" lon="5.55265">
        <ele>471.8</ele>
        <time>2023-05-28T08:16:25Z</time>
      </trkpt>
      <trkpt lat="43.53937" lon="5.55265">
        <ele>471.8</ele>
        <time>2023-05-28T08:16:26Z</time>
      </trkpt>
      <trkpt lat="43.53938" lon="5.55266">
        <ele>471.8</ele>
        <time>2023-05-28T08:16:27Z</time>
      </trkpt>
      <trkpt lat="43.53938" lon="5.55266">
        <ele>471.9</ele>
        <time>2023-05-28T08:16:28Z</time>
      </trkpt>
      <trkpt lat="43.53938" lon="5.55266">
        <ele>471.9</ele>
        <time>2023-05-28T08:16:29Z</time>
      </trkpt>
      <trkpt lat="43.53938" lon="5.55266">
        <ele>471.9</ele>
        <time>2023-05-28T08:16:30Z</time>
      </trkpt>
      <trkpt lat="43.53938" lon="5.55267">
        <ele>471.8</ele>
        <time>2023-05-28T08:16:31Z</time>
      </trkpt>
      <trkpt lat="43.53938" lon="5.55267">
        <ele>471.7</ele>
        <time>2023-05-28T08:16:32Z</time>
      </trkpt>
      <trkpt lat="43.53938" lon="5.55267">
        <ele>471.6</ele>
        <time>2023-05-28T08:16:33Z</time>
      </trkpt>
      <trkpt lat="43.53938" lon="5.55267">
        <ele>471.6</ele>
        <time>2023-05-28T08:16:34Z</time>
      </trkpt>
      <trkpt lat="43.53938" lon="5.55267">
        <ele>471.7</ele>
        <time>2023-05-28T08:16:35Z</time>
      </trkpt>
      <trkpt lat="43.53938" lon="5.55267">
        <ele>471.8</ele>
        <time>2023-05-28T08:16:36Z</time>
      </trkpt>
      <trkpt lat="43.53939" lon="5.55267">
        <ele>471.8</ele>
        <time>2023-05-28T08:16:37Z</time>
      </trkpt>
      <trkpt lat="43.53939" lon="5.55267">
        <ele>471.8</ele>
        <time>2023-05-28T08:16:38Z</time>
      </trkpt>
      <trkpt lat="43.53938" lon="5.55267">
        <ele>471.9</ele>
        <time>2023-05-28T08:16:39Z</time>
      </trkpt>
      <trkpt lat="43.53938" lon="5.55267">
        <ele>471.9</ele>
        <time>2023-05-28T08:16:40Z</time>
      </trkpt>
      <trkpt lat="43.53938" lon="5.55267">
        <ele>471.9</ele>
        <time>2023-05-28T08:16:41Z</time>
      </trkpt>
      <trkpt lat="43.53938" lon="5.55268">
        <ele>471.9</ele>
        <time>2023-05-28T08:16:42Z</time>
      </trkpt>
      <trkpt lat="43.53938" lon="5.55267">
        <ele>472</ele>
        <time>2023-05-28T08:16:43Z</time>
      </trkpt>
      <trkpt lat="43.53939" lon="5.55267">
        <ele>472</ele>
        <time>2023-05-28T08:16:44Z</time>
      </trkpt>
      <trkpt lat="43.53938" lon="5.55267">
        <ele>471.8</ele>
        <time>2023-05-28T08:16:45Z</time>
      </trkpt>
      <trkpt lat="43.53938" lon="5.55266">
        <ele>471.6</ele>
        <time>2023-05-28T08:16:46Z</time>
      </trkpt>
      <trkpt lat="43.53939" lon="5.55266">
        <ele>471.6</ele>
        <time>2023-05-28T08:16:47Z</time>
      </trkpt>
      <trkpt lat="43.53938" lon="5.55266">
        <ele>471.5</ele>
        <time>2023-05-28T08:16:48Z</time>
      </trkpt>
      <trkpt lat="43.53938" lon="5.55266">
        <ele>471.5</ele>
        <time>2023-05-28T08:16:49Z</time>
      </trkpt>
      <trkpt lat="43.53938" lon="5.55266">
        <ele>471.5</ele>
        <time>2023-05-28T08:16:50Z</time>
      </trkpt>
      <trkpt lat="43.53938" lon="5.55266">
        <ele>471.6</ele>
        <time>2023-05-28T08:16:51Z</time>
      </trkpt>
      <trkpt lat="43.53938" lon="5.55266">
        <ele>471.5</ele>
        <time>2023-05-28T08:16:52Z</time>
      </trkpt>
      <trkpt lat="43.53938" lon="5.55266">
        <ele>471.5</ele>
        <time>2023-05-28T08:16:53Z</time>
      </trkpt>
      <trkpt lat="43.53938" lon="5.55266">
        <ele>471.6</ele>
        <time>2023-05-28T08:16:54Z</time>
      </trkpt>
      <trkpt lat="43.53938" lon="5.55266">
        <ele>471.6</ele>
        <time>2023-05-28T08:16:55Z</time>
      </trkpt>
      <trkpt lat="43.53938" lon="5.55266">
        <ele>471.6</ele>
        <time>2023-05-28T08:16:56Z</time>
      </trkpt>
      <trkpt lat="43.53937" lon="5.55266">
        <ele>471.6</ele>
        <time>2023-05-28T08:16:57Z</time>
      </trkpt>
      <trkpt lat="43.53938" lon="5.55266">
        <ele>471.7</ele>
        <time>2023-05-28T08:16:58Z</time>
      </trkpt>
      <trkpt lat="43.53937" lon="5.55265">
        <ele>471.7</ele>
        <time>2023-05-28T08:16:59Z</time>
      </trkpt>
      <trkpt lat="43.53937" lon="5.55265">
        <ele>471.7</ele>
        <time>2023-05-28T08:17:00Z</time>
      </trkpt>
      <trkpt lat="43.53936" lon="5.55265">
        <ele>471.6</ele>
        <time>2023-05-28T08:17:01Z</time>
      </trkpt>
      <trkpt lat="43.53935" lon="5.55265">
        <ele>471.2</ele>
        <time>2023-05-28T08:17:02Z</time>
      </trkpt>
      <trkpt lat="43.53934" lon="5.55265">
        <ele>471.3</ele>
        <time>2023-05-28T08:17:03Z</time>
      </trkpt>
      <trkpt lat="43.53934" lon="5.55266">
        <ele>471.3</ele>
        <time>2023-05-28T08:17:04Z</time>
      </trkpt>
      <trkpt lat="43.53933" lon="5.55267">
        <ele>471.4</ele>
        <time>2023-05-28T08:17:05Z</time>
      </trkpt>
      <trkpt lat="43.53933" lon="5.55267">
        <ele>471.4</ele>
        <time>2023-05-28T08:17:06Z</time>
      </trkpt>
      <trkpt lat="43.53932" lon="5.55268">
        <ele>471.5</ele>
        <time>2023-05-28T08:17:07Z</time>
      </trkpt>
      <trkpt lat="43.53932" lon="5.55268">
        <ele>471.5</ele>
        <time>2023-05-28T08:17:08Z</time>
      </trkpt>
      <trkpt lat="43.53931" lon="5.55269">
        <ele>471.7</ele>
        <time>2023-05-28T08:17:09Z</time>
      </trkpt>
      <trkpt lat="43.53931" lon="5.5527">
        <ele>471.8</ele>
        <time>2023-05-28T08:17:10Z</time>
      </trkpt>
      <trkpt lat="43.53931" lon="5.5527">
        <ele>471.8</ele>
        <time>2023-05-28T08:17:11Z</time>
      </trkpt>
      <trkpt lat="43.5393" lon="5.5527">
        <ele>471.8</ele>
        <time>2023-05-28T08:17:12Z</time>
      </trkpt>
      <trkpt lat="43.5393" lon="5.5527">
        <ele>471.8</ele>
        <time>2023-05-28T08:17:13Z</time>
      </trkpt>
      <trkpt lat="43.5393" lon="5.5527">
        <ele>471.9</ele>
        <time>2023-05-28T08:17:14Z</time>
      </trkpt>
      <trkpt lat="43.5393" lon="5.5527">
        <ele>471.9</ele>
        <time>2023-05-28T08:17:15Z</time>
      </trkpt>
      <trkpt lat="43.5393" lon="5.5527">
        <ele>472</ele>
        <time>2023-05-28T08:17:16Z</time>
      </trkpt>
      <trkpt lat="43.5393" lon="5.5527">
        <ele>472</ele>
        <time>2023-05-28T08:17:17Z</time>
      </trkpt>
      <trkpt lat="43.5393" lon="5.5527">
        <ele>472</ele>
        <time>2023-05-28T08:17:18Z</time>
      </trkpt>
      <trkpt lat="43.5393" lon="5.5527">
        <ele>472</ele>
        <time>2023-05-28T08:17:19Z</time>
      </trkpt>
      <trkpt lat="43.5393" lon="5.55271">
        <ele>472</ele>
        <time>2023-05-28T08:17:20Z</time>
      </trkpt>
      <trkpt lat="43.53929" lon="5.55272">
        <ele>472.1</ele>
        <time>2023-05-28T08:17:21Z</time>
      </trkpt>
      <trkpt lat="43.53929" lon="5.55273">
        <ele>472.1</ele>
        <time>2023-05-28T08:17:22Z</time>
      </trkpt>
      <trkpt lat="43.53929" lon="5.55273">
        <ele>472.3</ele>
        <time>2023-05-28T08:17:23Z</time>
      </trkpt>
      <trkpt lat="43.53929" lon="5.55274">
        <ele>472.4</ele>
        <time>2023-05-28T08:17:24Z</time>
      </trkpt>
      <trkpt lat="43.53928" lon="5.55275">
        <ele>472.5</ele>
        <time>2023-05-28T08:17:25Z</time>
      </trkpt>
      <trkpt lat="43.53927" lon="5.55276">
        <ele>472.6</ele>
        <time>2023-05-28T08:17:26Z</time>
      </trkpt>
      <trkpt lat="43.53927" lon="5.55278">
        <ele>472.8</ele>
        <time>2023-05-28T08:17:27Z</time>
      </trkpt>
      <trkpt lat="43.53927" lon="5.55278">
        <ele>473</ele>
        <time>2023-05-28T08:17:28Z</time>
      </trkpt>
      <trkpt lat="43.53927" lon="5.55279">
        <ele>473.2</ele>
        <time>2023-05-28T08:17:29Z</time>
      </trkpt>
      <trkpt lat="43.53927" lon="5.5528">
        <ele>473.4</ele>
        <time>2023-05-28T08:17:30Z</time>
      </trkpt>
      <trkpt lat="43.53926" lon="5.5528">
        <ele>473.7</ele>
        <time>2023-05-28T08:17:31Z</time>
      </trkpt>
      <trkpt lat="43.53926" lon="5.55281">
        <ele>473.9</ele>
        <time>2023-05-28T08:17:32Z</time>
      </trkpt>
      <trkpt lat="43.53926" lon="5.55281">
        <ele>474.1</ele>
        <time>2023-05-28T08:17:33Z</time>
      </trkpt>
      <trkpt lat="43.53925" lon="5.55281">
        <ele>474.2</ele>
        <time>2023-05-28T08:17:34Z</time>
      </trkpt>
      <trkpt lat="43.53924" lon="5.55281">
        <ele>474.4</ele>
        <time>2023-05-28T08:17:35Z</time>
      </trkpt>
      <trkpt lat="43.53924" lon="5.55281">
        <ele>474.6</ele>
        <time>2023-05-28T08:17:36Z</time>
      </trkpt>
      <trkpt lat="43.53924" lon="5.55282">
        <ele>474.7</ele>
        <time>2023-05-28T08:17:37Z</time>
      </trkpt>
      <trkpt lat="43.53923" lon="5.55282">
        <ele>474.9</ele>
        <time>2023-05-28T08:17:38Z</time>
      </trkpt>
      <trkpt lat="43.53923" lon="5.55282">
        <ele>475</ele>
        <time>2023-05-28T08:17:39Z</time>
      </trkpt>
      <trkpt lat="43.53922" lon="5.55283">
        <ele>475.1</ele>
        <time>2023-05-28T08:17:40Z</time>
      </trkpt>
      <trkpt lat="43.53921" lon="5.55284">
        <ele>475.2</ele>
        <time>2023-05-28T08:17:41Z</time>
      </trkpt>
      <trkpt lat="43.5392" lon="5.55285">
        <ele>475.3</ele>
        <time>2023-05-28T08:17:42Z</time>
      </trkpt>
      <trkpt lat="43.53919" lon="5.55285">
        <ele>475.5</ele>
        <time>2023-05-28T08:17:43Z</time>
      </trkpt>
      <trkpt lat="43.53919" lon="5.55286">
        <ele>475.7</ele>
        <time>2023-05-28T08:17:44Z</time>
      </trkpt>
      <trkpt lat="43.53918" lon="5.55287">
        <ele>475.8</ele>
        <time>2023-05-28T08:17:45Z</time>
      </trkpt>
      <trkpt lat="43.53917" lon="5.55287">
        <ele>475.9</ele>
        <time>2023-05-28T08:17:46Z</time>
      </trkpt>
      <trkpt lat="43.53916" lon="5.55288">
        <ele>475.9</ele>
        <time>2023-05-28T08:17:47Z</time>
      </trkpt>
      <trkpt lat="43.53916" lon="5.55289">
        <ele>476</ele>
        <time>2023-05-28T08:17:48Z</time>
      </trkpt>
      <trkpt lat="43.53916" lon="5.55289">
        <ele>476.1</ele>
        <time>2023-05-28T08:17:49Z</time>
      </trkpt>
      <trkpt lat="43.53916" lon="5.5529">
        <ele>476.1</ele>
        <time>2023-05-28T08:17:50Z</time>
      </trkpt>
      <trkpt lat="43.53916" lon="5.5529">
        <ele>476.3</ele>
        <time>2023-05-28T08:17:51Z</time>
      </trkpt>
      <trkpt lat="43.53916" lon="5.55291">
        <ele>476.5</ele>
        <time>2023-05-28T08:17:52Z</time>
      </trkpt>
      <trkpt lat="43.53916" lon="5.55293">
        <ele>476.6</ele>
        <time>2023-05-28T08:17:53Z</time>
      </trkpt>
      <trkpt lat="43.53916" lon="5.55294">
        <ele>476.8</ele>
        <time>2023-05-28T08:17:54Z</time>
      </trkpt>
      <trkpt lat="43.53915" lon="5.55295">
        <ele>477.1</ele>
        <time>2023-05-28T08:17:55Z</time>
      </trkpt>
      <trkpt lat="43.53915" lon="5.55296">
        <ele>477.2</ele>
        <time>2023-05-28T08:17:56Z</time>
      </trkpt>
      <trkpt lat="43.53915" lon="5.55297">
        <ele>477.4</ele>
        <time>2023-05-28T08:17:57Z</time>
      </trkpt>
      <trkpt lat="43.53915" lon="5.55298">
        <ele>477.5</ele>
        <time>2023-05-28T08:17:58Z</time>
      </trkpt>
      <trkpt lat="43.53915" lon="5.553">
        <ele>477.6</ele>
        <time>2023-05-28T08:17:59Z</time>
      </trkpt>
      <trkpt lat="43.53915" lon="5.55301">
        <ele>477.6</ele>
        <time>2023-05-28T08:18:00Z</time>
      </trkpt>
      <trkpt lat="43.53916" lon="5.55302">
        <ele>477.8</ele>
        <time>2023-05-28T08:18:01Z</time>
      </trkpt>
      <trkpt lat="43.53916" lon="5.55303">
        <ele>477.8</ele>
        <time>2023-05-28T08:18:02Z</time>
      </trkpt>
      <trkpt lat="43.53917" lon="5.55304">
        <ele>478.1</ele>
        <time>2023-05-28T08:18:03Z</time>
      </trkpt>
      <trkpt lat="43.53917" lon="5.55305">
        <ele>478.3</ele>
        <time>2023-05-28T08:18:04Z</time>
      </trkpt>
      <trkpt lat="43.53917" lon="5.55305">
        <ele>478.5</ele>
        <time>2023-05-28T08:18:05Z</time>
      </trkpt>
      <trkpt lat="43.53918" lon="5.55306">
        <ele>478.7</ele>
        <time>2023-05-28T08:18:06Z</time>
      </trkpt>
      <trkpt lat="43.53917" lon="5.55308">
        <ele>478.9</ele>
        <time>2023-05-28T08:18:07Z</time>
      </trkpt>
      <trkpt lat="43.53917" lon="5.55309">
        <ele>479.2</ele>
        <time>2023-05-28T08:18:08Z</time>
      </trkpt>
      <trkpt lat="43.53917" lon="5.5531">
        <ele>479.3</ele>
        <time>2023-05-28T08:18:09Z</time>
      </trkpt>
      <trkpt lat="43.53917" lon="5.55312">
        <ele>479.4</ele>
        <time>2023-05-28T08:18:10Z</time>
      </trkpt>
      <trkpt lat="43.53917" lon="5.55312">
        <ele>479.6</ele>
        <time>2023-05-28T08:18:11Z</time>
      </trkpt>
      <trkpt lat="43.53916" lon="5.55312">
        <ele>479.8</ele>
        <time>2023-05-28T08:18:12Z</time>
      </trkpt>
      <trkpt lat="43.53916" lon="5.55312">
        <ele>479.8</ele>
        <time>2023-05-28T08:18:13Z</time>
      </trkpt>
      <trkpt lat="43.53916" lon="5.55312">
        <ele>479.9</ele>
        <time>2023-05-28T08:18:14Z</time>
      </trkpt>
      <trkpt lat="43.53916" lon="5.55312">
        <ele>479.9</ele>
        <time>2023-05-28T08:18:15Z</time>
      </trkpt>
      <trkpt lat="43.53917" lon="5.55313">
        <ele>480</ele>
        <time>2023-05-28T08:18:16Z</time>
      </trkpt>
      <trkpt lat="43.53916" lon="5.55315">
        <ele>480</ele>
        <time>2023-05-28T08:18:17Z</time>
      </trkpt>
      <trkpt lat="43.53916" lon="5.55316">
        <ele>480.1</ele>
        <time>2023-05-28T08:18:18Z</time>
      </trkpt>
      <trkpt lat="43.53916" lon="5.55316">
        <ele>480.2</ele>
        <time>2023-05-28T08:18:19Z</time>
      </trkpt>
      <trkpt lat="43.53916" lon="5.55317">
        <ele>480.3</ele>
        <time>2023-05-28T08:18:20Z</time>
      </trkpt>
      <trkpt lat="43.53915" lon="5.55317">
        <ele>480.4</ele>
        <time>2023-05-28T08:18:21Z</time>
      </trkpt>
      <trkpt lat="43.53915" lon="5.55318">
        <ele>480.6</ele>
        <time>2023-05-28T08:18:22Z</time>
      </trkpt>
      <trkpt lat="43.53915" lon="5.55319">
        <ele>480.7</ele>
        <time>2023-05-28T08:18:23Z</time>
      </trkpt>
      <trkpt lat="43.53915" lon="5.5532">
        <ele>480.7</ele>
        <time>2023-05-28T08:18:24Z</time>
      </trkpt>
      <trkpt lat="43.53915" lon="5.55322">
        <ele>480.8</ele>
        <time>2023-05-28T08:18:25Z</time>
      </trkpt>
      <trkpt lat="43.53915" lon="5.55323">
        <ele>480.9</ele>
        <time>2023-05-28T08:18:26Z</time>
      </trkpt>
      <trkpt lat="43.53915" lon="5.55323">
        <ele>481</ele>
        <time>2023-05-28T08:18:27Z</time>
      </trkpt>
      <trkpt lat="43.53914" lon="5.55325">
        <ele>481.2</ele>
        <time>2023-05-28T08:18:28Z</time>
      </trkpt>
      <trkpt lat="43.53914" lon="5.55326">
        <ele>481.4</ele>
        <time>2023-05-28T08:18:29Z</time>
      </trkpt>
      <trkpt lat="43.53914" lon="5.55327">
        <ele>481.6</ele>
        <time>2023-05-28T08:18:30Z</time>
      </trkpt>
      <trkpt lat="43.53914" lon="5.55328">
        <ele>481.7</ele>
        <time>2023-05-28T08:18:31Z</time>
      </trkpt>
      <trkpt lat="43.53914" lon="5.55329">
        <ele>481.8</ele>
        <time>2023-05-28T08:18:32Z</time>
      </trkpt>
      <trkpt lat="43.53914" lon="5.55329">
        <ele>481.9</ele>
        <time>2023-05-28T08:18:33Z</time>
      </trkpt>
      <trkpt lat="43.53913" lon="5.55329">
        <ele>482.1</ele>
        <time>2023-05-28T08:18:34Z</time>
      </trkpt>
      <trkpt lat="43.53913" lon="5.55329">
        <ele>482.2</ele>
        <time>2023-05-28T08:18:35Z</time>
      </trkpt>
      <trkpt lat="43.53912" lon="5.5533">
        <ele>482.6</ele>
        <time>2023-05-28T08:18:36Z</time>
      </trkpt>
      <trkpt lat="43.53912" lon="5.55331">
        <ele>482.6</ele>
        <time>2023-05-28T08:18:37Z</time>
      </trkpt>
      <trkpt lat="43.53912" lon="5.55332">
        <ele>482.6</ele>
        <time>2023-05-28T08:18:38Z</time>
      </trkpt>
      <trkpt lat="43.53912" lon="5.55332">
        <ele>482.7</ele>
        <time>2023-05-28T08:18:39Z</time>
      </trkpt>
      <trkpt lat="43.53912" lon="5.55334">
        <ele>482.8</ele>
        <time>2023-05-28T08:18:40Z</time>
      </trkpt>
      <trkpt lat="43.53912" lon="5.55335">
        <ele>482.8</ele>
        <time>2023-05-28T08:18:41Z</time>
      </trkpt>
      <trkpt lat="43.53912" lon="5.55335">
        <ele>482.9</ele>
        <time>2023-05-28T08:18:42Z</time>
      </trkpt>
      <trkpt lat="43.53912" lon="5.55335">
        <ele>483</ele>
        <time>2023-05-28T08:18:43Z</time>
      </trkpt>
      <trkpt lat="43.53912" lon="5.55335">
        <ele>483.2</ele>
        <time>2023-05-28T08:18:44Z</time>
      </trkpt>
      <trkpt lat="43.53912" lon="5.55335">
        <ele>483.3</ele>
        <time>2023-05-28T08:18:45Z</time>
      </trkpt>
      <trkpt lat="43.53911" lon="5.55335">
        <ele>483.5</ele>
        <time>2023-05-28T08:18:46Z</time>
      </trkpt>
      <trkpt lat="43.53911" lon="5.55335">
        <ele>483.6</ele>
        <time>2023-05-28T08:18:47Z</time>
      </trkpt>
      <trkpt lat="43.53911" lon="5.55337">
        <ele>483.9</ele>
        <time>2023-05-28T08:18:48Z</time>
      </trkpt>
      <trkpt lat="43.53911" lon="5.55337">
        <ele>484.2</ele>
        <time>2023-05-28T08:18:49Z</time>
      </trkpt>
      <trkpt lat="43.53911" lon="5.55338">
        <ele>484.4</ele>
        <time>2023-05-28T08:18:50Z</time>
      </trkpt>
      <trkpt lat="43.5391" lon="5.55338">
        <ele>484.6</ele>
        <time>2023-05-28T08:18:51Z</time>
      </trkpt>
      <trkpt lat="43.5391" lon="5.55339">
        <ele>484.7</ele>
        <time>2023-05-28T08:18:52Z</time>
      </trkpt>
      <trkpt lat="43.53909" lon="5.5534">
        <ele>484.9</ele>
        <time>2023-05-28T08:18:53Z</time>
      </trkpt>
      <trkpt lat="43.53909" lon="5.55341">
        <ele>485.1</ele>
        <time>2023-05-28T08:18:54Z</time>
      </trkpt>
      <trkpt lat="43.53909" lon="5.55341">
        <ele>485.3</ele>
        <time>2023-05-28T08:18:55Z</time>
      </trkpt>
      <trkpt lat="43.53908" lon="5.55341">
        <ele>485.5</ele>
        <time>2023-05-28T08:18:56Z</time>
      </trkpt>
      <trkpt lat="43.53907" lon="5.55341">
        <ele>485.6</ele>
        <time>2023-05-28T08:18:57Z</time>
      </trkpt>
      <trkpt lat="43.53906" lon="5.55342">
        <ele>485.7</ele>
        <time>2023-05-28T08:18:58Z</time>
      </trkpt>
      <trkpt lat="43.53906" lon="5.55343">
        <ele>485.8</ele>
        <time>2023-05-28T08:18:59Z</time>
      </trkpt>
      <trkpt lat="43.53905" lon="5.55343">
        <ele>485.8</ele>
        <time>2023-05-28T08:19:00Z</time>
      </trkpt>
      <trkpt lat="43.53905" lon="5.55344">
        <ele>485.8</ele>
        <time>2023-05-28T08:19:01Z</time>
      </trkpt>
      <trkpt lat="43.53905" lon="5.55344">
        <ele>485.8</ele>
        <time>2023-05-28T08:19:02Z</time>
      </trkpt>
      <trkpt lat="43.53905" lon="5.55344">
        <ele>485.8</ele>
        <time>2023-05-28T08:19:03Z</time>
      </trkpt>
      <trkpt lat="43.53904" lon="5.55344">
        <ele>485.8</ele>
        <time>2023-05-28T08:19:04Z</time>
      </trkpt>
      <trkpt lat="43.53903" lon="5.55345">
        <ele>485.7</ele>
        <time>2023-05-28T08:19:05Z</time>
      </trkpt>
      <trkpt lat="43.53902" lon="5.55346">
        <ele>485.6</ele>
        <time>2023-05-28T08:19:06Z</time>
      </trkpt>
      <trkpt lat="43.53902" lon="5.55347">
        <ele>485.6</ele>
        <time>2023-05-28T08:19:07Z</time>
      </trkpt>
      <trkpt lat="43.53902" lon="5.55348">
        <ele>485.7</ele>
        <time>2023-05-28T08:19:08Z</time>
      </trkpt>
      <trkpt lat="43.53901" lon="5.55348">
        <ele>485.7</ele>
        <time>2023-05-28T08:19:09Z</time>
      </trkpt>
      <trkpt lat="43.53901" lon="5.55348">
        <ele>485.8</ele>
        <time>2023-05-28T08:19:10Z</time>
      </trkpt>
      <trkpt lat="43.53901" lon="5.55349">
        <ele>485.8</ele>
        <time>2023-05-28T08:19:11Z</time>
      </trkpt>
      <trkpt lat="43.539" lon="5.5535">
        <ele>485.9</ele>
        <time>2023-05-28T08:19:12Z</time>
      </trkpt>
      <trkpt lat="43.53901" lon="5.55351">
        <ele>486.1</ele>
        <time>2023-05-28T08:19:13Z</time>
      </trkpt>
      <trkpt lat="43.53901" lon="5.55351">
        <ele>486.2</ele>
        <time>2023-05-28T08:19:14Z</time>
      </trkpt>
      <trkpt lat="43.539" lon="5.55352">
        <ele>486.4</ele>
        <time>2023-05-28T08:19:15Z</time>
      </trkpt>
      <trkpt lat="43.539" lon="5.55352">
        <ele>486.5</ele>
        <time>2023-05-28T08:19:16Z</time>
      </trkpt>
      <trkpt lat="43.53899" lon="5.55352">
        <ele>486.6</ele>
        <time>2023-05-28T08:19:17Z</time>
      </trkpt>
      <trkpt lat="43.53899" lon="5.55352">
        <ele>486.7</ele>
        <time>2023-05-28T08:19:18Z</time>
      </trkpt>
      <trkpt lat="43.53899" lon="5.55353">
        <ele>486.8</ele>
        <time>2023-05-28T08:19:19Z</time>
      </trkpt>
      <trkpt lat="43.53898" lon="5.55353">
        <ele>487.1</ele>
        <time>2023-05-28T08:19:20Z</time>
      </trkpt>
      <trkpt lat="43.53897" lon="5.55354">
        <ele>487.2</ele>
        <time>2023-05-28T08:19:21Z</time>
      </trkpt>
      <trkpt lat="43.53897" lon="5.55354">
        <ele>487.3</ele>
        <time>2023-05-28T08:19:22Z</time>
      </trkpt>
      <trkpt lat="43.53896" lon="5.55354">
        <ele>487.5</ele>
        <time>2023-05-28T08:19:23Z</time>
      </trkpt>
      <trkpt lat="43.53895" lon="5.55355">
        <ele>487.6</ele>
        <time>2023-05-28T08:19:24Z</time>
      </trkpt>
      <trkpt lat="43.53895" lon="5.55356">
        <ele>487.8</ele>
        <time>2023-05-28T08:19:25Z</time>
      </trkpt>
      <trkpt lat="43.53895" lon="5.55356">
        <ele>487.8</ele>
        <time>2023-05-28T08:19:26Z</time>
      </trkpt>
      <trkpt lat="43.53895" lon="5.55357">
        <ele>487.9</ele>
        <time>2023-05-28T08:19:27Z</time>
      </trkpt>
      <trkpt lat="43.53894" lon="5.55357">
        <ele>488</ele>
        <time>2023-05-28T08:19:28Z</time>
      </trkpt>
      <trkpt lat="43.53894" lon="5.55357">
        <ele>488</ele>
        <time>2023-05-28T08:19:29Z</time>
      </trkpt>
      <trkpt lat="43.53894" lon="5.55358">
        <ele>488.1</ele>
        <time>2023-05-28T08:19:30Z</time>
      </trkpt>
      <trkpt lat="43.53894" lon="5.55359">
        <ele>488.2</ele>
        <time>2023-05-28T08:19:31Z</time>
      </trkpt>
      <trkpt lat="43.53893" lon="5.55359">
        <ele>488.3</ele>
        <time>2023-05-28T08:19:32Z</time>
      </trkpt>
      <trkpt lat="43.53894" lon="5.55361">
        <ele>488.1</ele>
        <time>2023-05-28T08:19:33Z</time>
      </trkpt>
      <trkpt lat="43.53895" lon="5.55362">
        <ele>488.2</ele>
        <time>2023-05-28T08:19:34Z</time>
      </trkpt>
      <trkpt lat="43.53895" lon="5.55362">
        <ele>488.4</ele>
        <time>2023-05-28T08:19:35Z</time>
      </trkpt>
      <trkpt lat="43.53895" lon="5.55363">
        <ele>488.5</ele>
        <time>2023-05-28T08:19:36Z</time>
      </trkpt>
      <trkpt lat="43.53894" lon="5.55363">
        <ele>488.6</ele>
        <time>2023-05-28T08:19:37Z</time>
      </trkpt>
      <trkpt lat="43.53893" lon="5.55364">
        <ele>488.7</ele>
        <time>2023-05-28T08:19:38Z</time>
      </trkpt>
      <trkpt lat="43.53892" lon="5.55363">
        <ele>488.7</ele>
        <time>2023-05-28T08:19:39Z</time>
      </trkpt>
      <trkpt lat="43.53891" lon="5.55364">
        <ele>488.8</ele>
        <time>2023-05-28T08:19:40Z</time>
      </trkpt>
      <trkpt lat="43.5389" lon="5.55364">
        <ele>488.8</ele>
        <time>2023-05-28T08:19:41Z</time>
      </trkpt>
      <trkpt lat="43.53889" lon="5.55365">
        <ele>488.9</ele>
        <time>2023-05-28T08:19:42Z</time>
      </trkpt>
      <trkpt lat="43.53888" lon="5.55365">
        <ele>488.9</ele>
        <time>2023-05-28T08:19:43Z</time>
      </trkpt>
      <trkpt lat="43.53887" lon="5.55365">
        <ele>488.9</ele>
        <time>2023-05-28T08:19:44Z</time>
      </trkpt>
      <trkpt lat="43.53886" lon="5.55366">
        <ele>489.1</ele>
        <time>2023-05-28T08:19:45Z</time>
      </trkpt>
      <trkpt lat="43.53886" lon="5.55367">
        <ele>489.2</ele>
        <time>2023-05-28T08:19:46Z</time>
      </trkpt>
      <trkpt lat="43.53886" lon="5.55367">
        <ele>489.4</ele>
        <time>2023-05-28T08:19:47Z</time>
      </trkpt>
      <trkpt lat="43.53886" lon="5.55368">
        <ele>489.5</ele>
        <time>2023-05-28T08:19:48Z</time>
      </trkpt>
      <trkpt lat="43.53886" lon="5.55368">
        <ele>489.6</ele>
        <time>2023-05-28T08:19:49Z</time>
      </trkpt>
      <trkpt lat="43.53886" lon="5.5537">
        <ele>489.7</ele>
        <time>2023-05-28T08:19:50Z</time>
      </trkpt>
      <trkpt lat="43.53887" lon="5.5537">
        <ele>489.8</ele>
        <time>2023-05-28T08:19:51Z</time>
      </trkpt>
      <trkpt lat="43.53887" lon="5.5537">
        <ele>489.9</ele>
        <time>2023-05-28T08:19:52Z</time>
      </trkpt>
      <trkpt lat="43.53888" lon="5.55371">
        <ele>490</ele>
        <time>2023-05-28T08:19:53Z</time>
      </trkpt>
      <trkpt lat="43.53887" lon="5.55372">
        <ele>490.1</ele>
        <time>2023-05-28T08:19:54Z</time>
      </trkpt>
      <trkpt lat="43.53887" lon="5.55372">
        <ele>490.2</ele>
        <time>2023-05-28T08:19:55Z</time>
      </trkpt>
      <trkpt lat="43.53887" lon="5.55372">
        <ele>490.4</ele>
        <time>2023-05-28T08:19:56Z</time>
      </trkpt>
      <trkpt lat="43.53886" lon="5.55372">
        <ele>490.4</ele>
        <time>2023-05-28T08:19:57Z</time>
      </trkpt>
      <trkpt lat="43.53886" lon="5.55372">
        <ele>490.6</ele>
        <time>2023-05-28T08:19:58Z</time>
      </trkpt>
      <trkpt lat="43.53886" lon="5.55373">
        <ele>490.8</ele>
        <time>2023-05-28T08:19:59Z</time>
      </trkpt>
      <trkpt lat="43.53885" lon="5.55373">
        <ele>490.9</ele>
        <time>2023-05-28T08:20:00Z</time>
      </trkpt>
      <trkpt lat="43.53884" lon="5.55373">
        <ele>491</ele>
        <time>2023-05-28T08:20:01Z</time>
      </trkpt>
      <trkpt lat="43.53884" lon="5.55373">
        <ele>491.1</ele>
        <time>2023-05-28T08:20:02Z</time>
      </trkpt>
      <trkpt lat="43.53884" lon="5.55373">
        <ele>491.3</ele>
        <time>2023-05-28T08:20:03Z</time>
      </trkpt>
      <trkpt lat="43.53883" lon="5.55373">
        <ele>491.3</ele>
        <time>2023-05-28T08:20:04Z</time>
      </trkpt>
      <trkpt lat="43.53883" lon="5.55373">
        <ele>491.4</ele>
        <time>2023-05-28T08:20:05Z</time>
      </trkpt>
      <trkpt lat="43.53882" lon="5.55373">
        <ele>491.5</ele>
        <time>2023-05-28T08:20:06Z</time>
      </trkpt>
      <trkpt lat="43.53881" lon="5.55374">
        <ele>491.6</ele>
        <time>2023-05-28T08:20:07Z</time>
      </trkpt>
      <trkpt lat="43.53881" lon="5.55375">
        <ele>491.7</ele>
        <time>2023-05-28T08:20:08Z</time>
      </trkpt>
      <trkpt lat="43.53881" lon="5.55375">
        <ele>491.7</ele>
        <time>2023-05-28T08:20:09Z</time>
      </trkpt>
      <trkpt lat="43.5388" lon="5.55376">
        <ele>491.7</ele>
        <time>2023-05-28T08:20:10Z</time>
      </trkpt>
      <trkpt lat="43.5388" lon="5.55376">
        <ele>491.7</ele>
        <time>2023-05-28T08:20:11Z</time>
      </trkpt>
      <trkpt lat="43.53879" lon="5.55377">
        <ele>491.8</ele>
        <time>2023-05-28T08:20:12Z</time>
      </trkpt>
      <trkpt lat="43.53878" lon="5.55377">
        <ele>491.9</ele>
        <time>2023-05-28T08:20:13Z</time>
      </trkpt>
      <trkpt lat="43.53877" lon="5.55377">
        <ele>492</ele>
        <time>2023-05-28T08:20:14Z</time>
      </trkpt>
      <trkpt lat="43.53877" lon="5.55378">
        <ele>492</ele>
        <time>2023-05-28T08:20:15Z</time>
      </trkpt>
      <trkpt lat="43.53876" lon="5.55378">
        <ele>492.1</ele>
        <time>2023-05-28T08:20:16Z</time>
      </trkpt>
      <trkpt lat="43.53875" lon="5.55379">
        <ele>492.2</ele>
        <time>2023-05-28T08:20:17Z</time>
      </trkpt>
      <trkpt lat="43.53874" lon="5.5538">
        <ele>492.3</ele>
        <time>2023-05-28T08:20:18Z</time>
      </trkpt>
      <trkpt lat="43.53875" lon="5.55381">
        <ele>492.4</ele>
        <time>2023-05-28T08:20:19Z</time>
      </trkpt>
      <trkpt lat="43.53875" lon="5.55381">
        <ele>492.4</ele>
        <time>2023-05-28T08:20:20Z</time>
      </trkpt>
      <trkpt lat="43.53874" lon="5.55382">
        <ele>492.6</ele>
        <time>2023-05-28T08:20:21Z</time>
      </trkpt>
      <trkpt lat="43.53874" lon="5.55383">
        <ele>492.7</ele>
        <time>2023-05-28T08:20:22Z</time>
      </trkpt>
      <trkpt lat="43.53874" lon="5.55383">
        <ele>492.8</ele>
        <time>2023-05-28T08:20:23Z</time>
      </trkpt>
      <trkpt lat="43.53874" lon="5.55384">
        <ele>493</ele>
        <time>2023-05-28T08:20:24Z</time>
      </trkpt>
      <trkpt lat="43.53873" lon="5.55385">
        <ele>493.2</ele>
        <time>2023-05-28T08:20:25Z</time>
      </trkpt>
      <trkpt lat="43.53873" lon="5.55386">
        <ele>493.3</ele>
        <time>2023-05-28T08:20:26Z</time>
      </trkpt>
      <trkpt lat="43.53872" lon="5.55386">
        <ele>493.5</ele>
        <time>2023-05-28T08:20:27Z</time>
      </trkpt>
      <trkpt lat="43.53872" lon="5.55387">
        <ele>493.7</ele>
        <time>2023-05-28T08:20:28Z</time>
      </trkpt>
      <trkpt lat="43.53871" lon="5.55387">
        <ele>493.9</ele>
        <time>2023-05-28T08:20:29Z</time>
      </trkpt>
      <trkpt lat="43.53871" lon="5.55388">
        <ele>494</ele>
        <time>2023-05-28T08:20:30Z</time>
      </trkpt>
      <trkpt lat="43.53871" lon="5.55389">
        <ele>494.1</ele>
        <time>2023-05-28T08:20:31Z</time>
      </trkpt>
      <trkpt lat="43.53871" lon="5.5539">
        <ele>494.3</ele>
        <time>2023-05-28T08:20:32Z</time>
      </trkpt>
      <trkpt lat="43.53871" lon="5.5539">
        <ele>494.5</ele>
        <time>2023-05-28T08:20:33Z</time>
      </trkpt>
      <trkpt lat="43.53871" lon="5.5539">
        <ele>494.6</ele>
        <time>2023-05-28T08:20:34Z</time>
      </trkpt>
      <trkpt lat="43.5387" lon="5.5539">
        <ele>494.7</ele>
        <time>2023-05-28T08:20:35Z</time>
      </trkpt>
      <trkpt lat="43.5387" lon="5.55391">
        <ele>494.9</ele>
        <time>2023-05-28T08:20:36Z</time>
      </trkpt>
      <trkpt lat="43.5387" lon="5.55392">
        <ele>495</ele>
        <time>2023-05-28T08:20:37Z</time>
      </trkpt>
      <trkpt lat="43.53869" lon="5.55393">
        <ele>495.2</ele>
        <time>2023-05-28T08:20:38Z</time>
      </trkpt>
      <trkpt lat="43.53869" lon="5.55393">
        <ele>495.4</ele>
        <time>2023-05-28T08:20:39Z</time>
      </trkpt>
      <trkpt lat="43.53869" lon="5.55393">
        <ele>495.5</ele>
        <time>2023-05-28T08:20:40Z</time>
      </trkpt>
      <trkpt lat="43.53869" lon="5.55394">
        <ele>495.7</ele>
        <time>2023-05-28T08:20:41Z</time>
      </trkpt>
      <trkpt lat="43.53868" lon="5.55394">
        <ele>495.8</ele>
        <time>2023-05-28T08:20:42Z</time>
      </trkpt>
      <trkpt lat="43.53868" lon="5.55394">
        <ele>496</ele>
        <time>2023-05-28T08:20:43Z</time>
      </trkpt>
      <trkpt lat="43.53868" lon="5.55395">
        <ele>496.2</ele>
        <time>2023-05-28T08:20:44Z</time>
      </trkpt>
      <trkpt lat="43.53868" lon="5.55395">
        <ele>496.5</ele>
        <time>2023-05-28T08:20:45Z</time>
      </trkpt>
      <trkpt lat="43.53867" lon="5.55396">
        <ele>496.7</ele>
        <time>2023-05-28T08:20:46Z</time>
      </trkpt>
      <trkpt lat="43.53867" lon="5.55396">
        <ele>496.8</ele>
        <time>2023-05-28T08:20:47Z</time>
      </trkpt>
      <trkpt lat="43.53866" lon="5.55398">
        <ele>496.9</ele>
        <time>2023-05-28T08:20:48Z</time>
      </trkpt>
      <trkpt lat="43.53866" lon="5.55399">
        <ele>497.1</ele>
        <time>2023-05-28T08:20:49Z</time>
      </trkpt>
      <trkpt lat="43.53866" lon="5.554">
        <ele>497.2</ele>
        <time>2023-05-28T08:20:50Z</time>
      </trkpt>
      <trkpt lat="43.53866" lon="5.554">
        <ele>497.4</ele>
        <time>2023-05-28T08:20:51Z</time>
      </trkpt>
      <trkpt lat="43.53865" lon="5.55401">
        <ele>497.6</ele>
        <time>2023-05-28T08:20:52Z</time>
      </trkpt>
      <trkpt lat="43.53865" lon="5.55401">
        <ele>497.7</ele>
        <time>2023-05-28T08:20:53Z</time>
      </trkpt>
      <trkpt lat="43.53864" lon="5.55401">
        <ele>497.9</ele>
        <time>2023-05-28T08:20:54Z</time>
      </trkpt>
      <trkpt lat="43.53863" lon="5.55402">
        <ele>498</ele>
        <time>2023-05-28T08:20:55Z</time>
      </trkpt>
      <trkpt lat="43.53862" lon="5.55403">
        <ele>498.1</ele>
        <time>2023-05-28T08:20:56Z</time>
      </trkpt>
      <trkpt lat="43.53862" lon="5.55404">
        <ele>498.3</ele>
        <time>2023-05-28T08:20:57Z</time>
      </trkpt>
      <trkpt lat="43.53861" lon="5.55405">
        <ele>498.4</ele>
        <time>2023-05-28T08:20:58Z</time>
      </trkpt>
      <trkpt lat="43.5386" lon="5.55406">
        <ele>498.5</ele>
        <time>2023-05-28T08:20:59Z</time>
      </trkpt>
      <trkpt lat="43.5386" lon="5.55407">
        <ele>498.6</ele>
        <time>2023-05-28T08:21:00Z</time>
      </trkpt>
      <trkpt lat="43.53859" lon="5.55407">
        <ele>498.8</ele>
        <time>2023-05-28T08:21:01Z</time>
      </trkpt>
      <trkpt lat="43.53859" lon="5.55409">
        <ele>498.9</ele>
        <time>2023-05-28T08:21:02Z</time>
      </trkpt>
      <trkpt lat="43.53859" lon="5.5541">
        <ele>499</ele>
        <time>2023-05-28T08:21:03Z</time>
      </trkpt>
      <trkpt lat="43.53858" lon="5.55411">
        <ele>499.1</ele>
        <time>2023-05-28T08:21:04Z</time>
      </trkpt>
      <trkpt lat="43.53858" lon="5.55411">
        <ele>499.2</ele>
        <time>2023-05-28T08:21:05Z</time>
      </trkpt>
      <trkpt lat="43.53857" lon="5.55412">
        <ele>499.3</ele>
        <time>2023-05-28T08:21:06Z</time>
      </trkpt>
      <trkpt lat="43.53857" lon="5.55413">
        <ele>499.5</ele>
        <time>2023-05-28T08:21:07Z</time>
      </trkpt>
      <trkpt lat="43.53856" lon="5.55414">
        <ele>499.6</ele>
        <time>2023-05-28T08:21:08Z</time>
      </trkpt>
      <trkpt lat="43.53855" lon="5.55415">
        <ele>499.8</ele>
        <time>2023-05-28T08:21:09Z</time>
      </trkpt>
      <trkpt lat="43.53855" lon="5.55415">
        <ele>499.9</ele>
        <time>2023-05-28T08:21:10Z</time>
      </trkpt>
      <trkpt lat="43.53854" lon="5.55416">
        <ele>500.1</ele>
        <time>2023-05-28T08:21:11Z</time>
      </trkpt>
      <trkpt lat="43.53854" lon="5.55417">
        <ele>500.3</ele>
        <time>2023-05-28T08:21:12Z</time>
      </trkpt>
      <trkpt lat="43.53853" lon="5.55418">
        <ele>500.5</ele>
        <time>2023-05-28T08:21:13Z</time>
      </trkpt>
      <trkpt lat="43.53853" lon="5.55419">
        <ele>500.6</ele>
        <time>2023-05-28T08:21:14Z</time>
      </trkpt>
      <trkpt lat="43.53852" lon="5.55419">
        <ele>500.8</ele>
        <time>2023-05-28T08:21:15Z</time>
      </trkpt>
      <trkpt lat="43.53852" lon="5.5542">
        <ele>500.9</ele>
        <time>2023-05-28T08:21:16Z</time>
      </trkpt>
      <trkpt lat="43.53852" lon="5.55421">
        <ele>501</ele>
        <time>2023-05-28T08:21:17Z</time>
      </trkpt>
      <trkpt lat="43.53853" lon="5.55422">
        <ele>501.3</ele>
        <time>2023-05-28T08:21:18Z</time>
      </trkpt>
      <trkpt lat="43.53852" lon="5.55423">
        <ele>501.5</ele>
        <time>2023-05-28T08:21:19Z</time>
      </trkpt>
      <trkpt lat="43.53852" lon="5.55424">
        <ele>501.6</ele>
        <time>2023-05-28T08:21:20Z</time>
      </trkpt>
      <trkpt lat="43.53852" lon="5.55424">
        <ele>501.8</ele>
        <time>2023-05-28T08:21:21Z</time>
      </trkpt>
      <trkpt lat="43.53852" lon="5.55425">
        <ele>501.8</ele>
        <time>2023-05-28T08:21:22Z</time>
      </trkpt>
      <trkpt lat="43.53851" lon="5.55425">
        <ele>502</ele>
        <time>2023-05-28T08:21:23Z</time>
      </trkpt>
      <trkpt lat="43.53851" lon="5.55426">
        <ele>502.2</ele>
        <time>2023-05-28T08:21:24Z</time>
      </trkpt>
      <trkpt lat="43.5385" lon="5.55426">
        <ele>502.4</ele>
        <time>2023-05-28T08:21:25Z</time>
      </trkpt>
      <trkpt lat="43.5385" lon="5.55427">
        <ele>502.6</ele>
        <time>2023-05-28T08:21:26Z</time>
      </trkpt>
      <trkpt lat="43.53849" lon="5.55427">
        <ele>502.8</ele>
        <time>2023-05-28T08:21:27Z</time>
      </trkpt>
      <trkpt lat="43.53849" lon="5.55428">
        <ele>502.9</ele>
        <time>2023-05-28T08:21:28Z</time>
      </trkpt>
      <trkpt lat="43.53849" lon="5.55429">
        <ele>503</ele>
        <time>2023-05-28T08:21:29Z</time>
      </trkpt>
      <trkpt lat="43.53849" lon="5.55429">
        <ele>503.1</ele>
        <time>2023-05-28T08:21:30Z</time>
      </trkpt>
      <trkpt lat="43.53849" lon="5.5543">
        <ele>503.3</ele>
        <time>2023-05-28T08:21:31Z</time>
      </trkpt>
      <trkpt lat="43.53849" lon="5.55431">
        <ele>503.5</ele>
        <time>2023-05-28T08:21:32Z</time>
      </trkpt>
      <trkpt lat="43.53849" lon="5.55432">
        <ele>503.7</ele>
        <time>2023-05-28T08:21:33Z</time>
      </trkpt>
      <trkpt lat="43.53849" lon="5.55433">
        <ele>503.8</ele>
        <time>2023-05-28T08:21:34Z</time>
      </trkpt>
      <trkpt lat="43.53849" lon="5.55433">
        <ele>504</ele>
        <time>2023-05-28T08:21:35Z</time>
      </trkpt>
      <trkpt lat="43.53849" lon="5.55434">
        <ele>504.4</ele>
        <time>2023-05-28T08:21:36Z</time>
      </trkpt>
      <trkpt lat="43.5385" lon="5.55435">
        <ele>504.7</ele>
        <time>2023-05-28T08:21:37Z</time>
      </trkpt>
      <trkpt lat="43.5385" lon="5.55435">
        <ele>505</ele>
        <time>2023-05-28T08:21:38Z</time>
      </trkpt>
      <trkpt lat="43.53851" lon="5.55436">
        <ele>505.2</ele>
        <time>2023-05-28T08:21:39Z</time>
      </trkpt>
      <trkpt lat="43.53851" lon="5.55437">
        <ele>505.4</ele>
        <time>2023-05-28T08:21:40Z</time>
      </trkpt>
      <trkpt lat="43.53852" lon="5.55437">
        <ele>505.5</ele>
        <time>2023-05-28T08:21:41Z</time>
      </trkpt>
      <trkpt lat="43.53852" lon="5.55438">
        <ele>505.6</ele>
        <time>2023-05-28T08:21:42Z</time>
      </trkpt>
      <trkpt lat="43.53852" lon="5.55438">
        <ele>505.7</ele>
        <time>2023-05-28T08:21:43Z</time>
      </trkpt>
      <trkpt lat="43.53852" lon="5.55438">
        <ele>505.8</ele>
        <time>2023-05-28T08:21:44Z</time>
      </trkpt>
      <trkpt lat="43.53851" lon="5.55439">
        <ele>505.9</ele>
        <time>2023-05-28T08:21:45Z</time>
      </trkpt>
      <trkpt lat="43.53851" lon="5.55439">
        <ele>506.1</ele>
        <time>2023-05-28T08:21:46Z</time>
      </trkpt>
      <trkpt lat="43.53851" lon="5.5544">
        <ele>506.3</ele>
        <time>2023-05-28T08:21:47Z</time>
      </trkpt>
      <trkpt lat="43.53851" lon="5.55441">
        <ele>506.4</ele>
        <time>2023-05-28T08:21:48Z</time>
      </trkpt>
      <trkpt lat="43.53851" lon="5.55441">
        <ele>506.5</ele>
        <time>2023-05-28T08:21:49Z</time>
      </trkpt>
      <trkpt lat="43.5385" lon="5.55442">
        <ele>506.7</ele>
        <time>2023-05-28T08:21:50Z</time>
      </trkpt>
      <trkpt lat="43.5385" lon="5.55442">
        <ele>506.9</ele>
        <time>2023-05-28T08:21:51Z</time>
      </trkpt>
      <trkpt lat="43.53849" lon="5.55443">
        <ele>507.3</ele>
        <time>2023-05-28T08:21:52Z</time>
      </trkpt>
      <trkpt lat="43.53849" lon="5.55443">
        <ele>507.6</ele>
        <time>2023-05-28T08:21:53Z</time>
      </trkpt>
      <trkpt lat="43.53849" lon="5.55444">
        <ele>507.9</ele>
        <time>2023-05-28T08:21:54Z</time>
      </trkpt>
      <trkpt lat="43.53848" lon="5.55444">
        <ele>508.1</ele>
        <time>2023-05-28T08:21:55Z</time>
      </trkpt>
      <trkpt lat="43.53848" lon="5.55445">
        <ele>508.3</ele>
        <time>2023-05-28T08:21:56Z</time>
      </trkpt>
      <trkpt lat="43.53847" lon="5.55445">
        <ele>508.4</ele>
        <time>2023-05-28T08:21:57Z</time>
      </trkpt>
      <trkpt lat="43.53846" lon="5.55446">
        <ele>508.6</ele>
        <time>2023-05-28T08:21:58Z</time>
      </trkpt>
      <trkpt lat="43.53847" lon="5.55447">
        <ele>508.8</ele>
        <time>2023-05-28T08:21:59Z</time>
      </trkpt>
      <trkpt lat="43.53847" lon="5.55448">
        <ele>509</ele>
        <time>2023-05-28T08:22:00Z</time>
      </trkpt>
      <trkpt lat="43.53846" lon="5.55448">
        <ele>509.2</ele>
        <time>2023-05-28T08:22:01Z</time>
      </trkpt>
      <trkpt lat="43.53846" lon="5.55449">
        <ele>509.3</ele>
        <time>2023-05-28T08:22:02Z</time>
      </trkpt>
      <trkpt lat="43.53846" lon="5.55449">
        <ele>509.5</ele>
        <time>2023-05-28T08:22:03Z</time>
      </trkpt>
      <trkpt lat="43.53847" lon="5.5545">
        <ele>509.7</ele>
        <time>2023-05-28T08:22:04Z</time>
      </trkpt>
      <trkpt lat="43.53847" lon="5.5545">
        <ele>509.8</ele>
        <time>2023-05-28T08:22:05Z</time>
      </trkpt>
      <trkpt lat="43.53847" lon="5.5545">
        <ele>510</ele>
        <time>2023-05-28T08:22:06Z</time>
      </trkpt>
      <trkpt lat="43.53847" lon="5.55451">
        <ele>510.2</ele>
        <time>2023-05-28T08:22:07Z</time>
      </trkpt>
      <trkpt lat="43.53846" lon="5.55451">
        <ele>510.4</ele>
        <time>2023-05-28T08:22:08Z</time>
      </trkpt>
      <trkpt lat="43.53846" lon="5.55452">
        <ele>510.5</ele>
        <time>2023-05-28T08:22:09Z</time>
      </trkpt>
      <trkpt lat="43.53846" lon="5.55452">
        <ele>510.6</ele>
        <time>2023-05-28T08:22:10Z</time>
      </trkpt>
      <trkpt lat="43.53846" lon="5.55453">
        <ele>510.7</ele>
        <time>2023-05-28T08:22:11Z</time>
      </trkpt>
      <trkpt lat="43.53846" lon="5.55453">
        <ele>510.8</ele>
        <time>2023-05-28T08:22:12Z</time>
      </trkpt>
      <trkpt lat="43.53845" lon="5.55454">
        <ele>511</ele>
        <time>2023-05-28T08:22:13Z</time>
      </trkpt>
      <trkpt lat="43.53845" lon="5.55454">
        <ele>511.1</ele>
        <time>2023-05-28T08:22:14Z</time>
      </trkpt>
      <trkpt lat="43.53844" lon="5.55455">
        <ele>511.3</ele>
        <time>2023-05-28T08:22:15Z</time>
      </trkpt>
      <trkpt lat="43.53844" lon="5.55455">
        <ele>511.5</ele>
        <time>2023-05-28T08:22:16Z</time>
      </trkpt>
      <trkpt lat="43.53843" lon="5.55455">
        <ele>511.7</ele>
        <time>2023-05-28T08:22:17Z</time>
      </trkpt>
      <trkpt lat="43.53842" lon="5.55456">
        <ele>511.9</ele>
        <time>2023-05-28T08:22:18Z</time>
      </trkpt>
      <trkpt lat="43.53842" lon="5.55456">
        <ele>512.1</ele>
        <time>2023-05-28T08:22:19Z</time>
      </trkpt>
      <trkpt lat="43.53842" lon="5.55457">
        <ele>512.3</ele>
        <time>2023-05-28T08:22:20Z</time>
      </trkpt>
      <trkpt lat="43.53841" lon="5.55458">
        <ele>512.5</ele>
        <time>2023-05-28T08:22:21Z</time>
      </trkpt>
      <trkpt lat="43.53841" lon="5.55458">
        <ele>512.7</ele>
        <time>2023-05-28T08:22:22Z</time>
      </trkpt>
      <trkpt lat="43.53841" lon="5.55459">
        <ele>512.8</ele>
        <time>2023-05-28T08:22:23Z</time>
      </trkpt>
      <trkpt lat="43.5384" lon="5.55459">
        <ele>513</ele>
        <time>2023-05-28T08:22:24Z</time>
      </trkpt>
      <trkpt lat="43.5384" lon="5.5546">
        <ele>513.2</ele>
        <time>2023-05-28T08:22:25Z</time>
      </trkpt>
      <trkpt lat="43.53839" lon="5.55461">
        <ele>513.4</ele>
        <time>2023-05-28T08:22:26Z</time>
      </trkpt>
      <trkpt lat="43.53839" lon="5.55461">
        <ele>513.5</ele>
        <time>2023-05-28T08:22:27Z</time>
      </trkpt>
      <trkpt lat="43.53839" lon="5.55463">
        <ele>513.7</ele>
        <time>2023-05-28T08:22:28Z</time>
      </trkpt>
      <trkpt lat="43.53839" lon="5.55464">
        <ele>514</ele>
        <time>2023-05-28T08:22:29Z</time>
      </trkpt>
      <trkpt lat="43.53839" lon="5.55464">
        <ele>514.2</ele>
        <time>2023-05-28T08:22:30Z</time>
      </trkpt>
      <trkpt lat="43.53839" lon="5.55465">
        <ele>514.4</ele>
        <time>2023-05-28T08:22:31Z</time>
      </trkpt>
      <trkpt lat="43.53839" lon="5.55465">
        <ele>514.6</ele>
        <time>2023-05-28T08:22:32Z</time>
      </trkpt>
      <trkpt lat="43.53838" lon="5.55465">
        <ele>514.8</ele>
        <time>2023-05-28T08:22:33Z</time>
      </trkpt>
      <trkpt lat="43.53838" lon="5.55466">
        <ele>515</ele>
        <time>2023-05-28T08:22:34Z</time>
      </trkpt>
      <trkpt lat="43.53838" lon="5.55466">
        <ele>515.2</ele>
        <time>2023-05-28T08:22:35Z</time>
      </trkpt>
      <trkpt lat="43.53839" lon="5.55467">
        <ele>515.4</ele>
        <time>2023-05-28T08:22:36Z</time>
      </trkpt>
      <trkpt lat="43.53839" lon="5.55468">
        <ele>515.6</ele>
        <time>2023-05-28T08:22:37Z</time>
      </trkpt>
      <trkpt lat="43.53838" lon="5.55468">
        <ele>515.8</ele>
        <time>2023-05-28T08:22:38Z</time>
      </trkpt>
      <trkpt lat="43.53838" lon="5.55468">
        <ele>516.1</ele>
        <time>2023-05-28T08:22:39Z</time>
      </trkpt>
      <trkpt lat="43.53838" lon="5.55469">
        <ele>516.2</ele>
        <time>2023-05-28T08:22:40Z</time>
      </trkpt>
      <trkpt lat="43.53838" lon="5.55469">
        <ele>516.3</ele>
        <time>2023-05-28T08:22:41Z</time>
      </trkpt>
      <trkpt lat="43.53838" lon="5.5547">
        <ele>516.5</ele>
        <time>2023-05-28T08:22:42Z</time>
      </trkpt>
      <trkpt lat="43.53838" lon="5.5547">
        <ele>516.8</ele>
        <time>2023-05-28T08:22:43Z</time>
      </trkpt>
      <trkpt lat="43.53838" lon="5.55471">
        <ele>516.9</ele>
        <time>2023-05-28T08:22:44Z</time>
      </trkpt>
      <trkpt lat="43.53838" lon="5.55471">
        <ele>517.1</ele>
        <time>2023-05-28T08:22:45Z</time>
      </trkpt>
      <trkpt lat="43.53838" lon="5.55472">
        <ele>517.3</ele>
        <time>2023-05-28T08:22:46Z</time>
      </trkpt>
      <trkpt lat="43.53837" lon="5.55472">
        <ele>517.5</ele>
        <time>2023-05-28T08:22:47Z</time>
      </trkpt>
      <trkpt lat="43.53837" lon="5.55472">
        <ele>517.6</ele>
        <time>2023-05-28T08:22:48Z</time>
      </trkpt>
      <trkpt lat="43.53837" lon="5.55473">
        <ele>517.8</ele>
        <time>2023-05-28T08:22:49Z</time>
      </trkpt>
      <trkpt lat="43.53837" lon="5.55473">
        <ele>518</ele>
        <time>2023-05-28T08:22:50Z</time>
      </trkpt>
      <trkpt lat="43.53837" lon="5.55474">
        <ele>518.2</ele>
        <time>2023-05-28T08:22:51Z</time>
      </trkpt>
      <trkpt lat="43.53837" lon="5.55474">
        <ele>518.4</ele>
        <time>2023-05-28T08:22:52Z</time>
      </trkpt>
      <trkpt lat="43.53837" lon="5.55475">
        <ele>518.7</ele>
        <time>2023-05-28T08:22:53Z</time>
      </trkpt>
      <trkpt lat="43.53836" lon="5.55476">
        <ele>518.9</ele>
        <time>2023-05-28T08:22:54Z</time>
      </trkpt>
      <trkpt lat="43.53836" lon="5.55476">
        <ele>519.1</ele>
        <time>2023-05-28T08:22:55Z</time>
      </trkpt>
      <trkpt lat="43.53836" lon="5.55477">
        <ele>519.2</ele>
        <time>2023-05-28T08:22:56Z</time>
      </trkpt>
      <trkpt lat="43.53836" lon="5.55478">
        <ele>519.3</ele>
        <time>2023-05-28T08:22:57Z</time>
      </trkpt>
      <trkpt lat="43.53836" lon="5.55479">
        <ele>519.5</ele>
        <time>2023-05-28T08:22:58Z</time>
      </trkpt>
      <trkpt lat="43.53836" lon="5.55479">
        <ele>519.7</ele>
        <time>2023-05-28T08:22:59Z</time>
      </trkpt>
      <trkpt lat="43.53836" lon="5.5548">
        <ele>519.8</ele>
        <time>2023-05-28T08:23:00Z</time>
      </trkpt>
      <trkpt lat="43.53836" lon="5.5548">
        <ele>519.9</ele>
        <time>2023-05-28T08:23:01Z</time>
      </trkpt>
      <trkpt lat="43.53836" lon="5.5548">
        <ele>520</ele>
        <time>2023-05-28T08:23:02Z</time>
      </trkpt>
      <trkpt lat="43.53836" lon="5.55481">
        <ele>520.2</ele>
        <time>2023-05-28T08:23:03Z</time>
      </trkpt>
      <trkpt lat="43.53835" lon="5.55481">
        <ele>520.3</ele>
        <time>2023-05-28T08:23:04Z</time>
      </trkpt>
      <trkpt lat="43.53835" lon="5.55482">
        <ele>520.6</ele>
        <time>2023-05-28T08:23:05Z</time>
      </trkpt>
      <trkpt lat="43.53835" lon="5.55483">
        <ele>520.8</ele>
        <time>2023-05-28T08:23:06Z</time>
      </trkpt>
      <trkpt lat="43.53836" lon="5.55484">
        <ele>521</ele>
        <time>2023-05-28T08:23:07Z</time>
      </trkpt>
      <trkpt lat="43.53836" lon="5.55485">
        <ele>521.2</ele>
        <time>2023-05-28T08:23:08Z</time>
      </trkpt>
      <trkpt lat="43.53837" lon="5.55486">
        <ele>521.5</ele>
        <time>2023-05-28T08:23:09Z</time>
      </trkpt>
      <trkpt lat="43.53837" lon="5.55486">
        <ele>521.7</ele>
        <time>2023-05-28T08:23:10Z</time>
      </trkpt>
      <trkpt lat="43.53837" lon="5.55486">
        <ele>521.9</ele>
        <time>2023-05-28T08:23:11Z</time>
      </trkpt>
      <trkpt lat="43.53837" lon="5.55487">
        <ele>522.1</ele>
        <time>2023-05-28T08:23:12Z</time>
      </trkpt>
      <trkpt lat="43.53837" lon="5.55487">
        <ele>522.3</ele>
        <time>2023-05-28T08:23:13Z</time>
      </trkpt>
      <trkpt lat="43.53837" lon="5.55488">
        <ele>522.5</ele>
        <time>2023-05-28T08:23:14Z</time>
      </trkpt>
      <trkpt lat="43.53837" lon="5.55488">
        <ele>522.8</ele>
        <time>2023-05-28T08:23:15Z</time>
      </trkpt>
      <trkpt lat="43.53837" lon="5.55489">
        <ele>523</ele>
        <time>2023-05-28T08:23:16Z</time>
      </trkpt>
      <trkpt lat="43.53837" lon="5.5549">
        <ele>523.2</ele>
        <time>2023-05-28T08:23:17Z</time>
      </trkpt>
      <trkpt lat="43.53837" lon="5.5549">
        <ele>523.4</ele>
        <time>2023-05-28T08:23:18Z</time>
      </trkpt>
      <trkpt lat="43.53837" lon="5.5549">
        <ele>523.6</ele>
        <time>2023-05-28T08:23:19Z</time>
      </trkpt>
      <trkpt lat="43.53836" lon="5.5549">
        <ele>523.8</ele>
        <time>2023-05-28T08:23:20Z</time>
      </trkpt>
      <trkpt lat="43.53835" lon="5.55491">
        <ele>524</ele>
        <time>2023-05-28T08:23:21Z</time>
      </trkpt>
      <trkpt lat="43.53835" lon="5.55491">
        <ele>524.1</ele>
        <time>2023-05-28T08:23:22Z</time>
      </trkpt>
      <trkpt lat="43.53835" lon="5.55491">
        <ele>524.3</ele>
        <time>2023-05-28T08:23:23Z</time>
      </trkpt>
      <trkpt lat="43.53834" lon="5.55492">
        <ele>524.5</ele>
        <time>2023-05-28T08:23:24Z</time>
      </trkpt>
      <trkpt lat="43.53834" lon="5.55492">
        <ele>524.6</ele>
        <time>2023-05-28T08:23:25Z</time>
      </trkpt>
      <trkpt lat="43.53834" lon="5.55493">
        <ele>524.8</ele>
        <time>2023-05-28T08:23:26Z</time>
      </trkpt>
      <trkpt lat="43.53834" lon="5.55493">
        <ele>525</ele>
        <time>2023-05-28T08:23:27Z</time>
      </trkpt>
      <trkpt lat="43.53833" lon="5.55494">
        <ele>525.1</ele>
        <time>2023-05-28T08:23:28Z</time>
      </trkpt>
      <trkpt lat="43.53833" lon="5.55494">
        <ele>525.3</ele>
        <time>2023-05-28T08:23:29Z</time>
      </trkpt>
      <trkpt lat="43.53833" lon="5.55495">
        <ele>525.5</ele>
        <time>2023-05-28T08:23:30Z</time>
      </trkpt>
      <trkpt lat="43.53833" lon="5.55495">
        <ele>525.6</ele>
        <time>2023-05-28T08:23:31Z</time>
      </trkpt>
      <trkpt lat="43.53833" lon="5.55496">
        <ele>525.7</ele>
        <time>2023-05-28T08:23:32Z</time>
      </trkpt>
      <trkpt lat="43.53833" lon="5.55496">
        <ele>525.8</ele>
        <time>2023-05-28T08:23:33Z</time>
      </trkpt>
      <trkpt lat="43.53832" lon="5.55497">
        <ele>526.1</ele>
        <time>2023-05-28T08:23:34Z</time>
      </trkpt>
      <trkpt lat="43.53832" lon="5.55498">
        <ele>526.3</ele>
        <time>2023-05-28T08:23:35Z</time>
      </trkpt>
      <trkpt lat="43.53832" lon="5.55499">
        <ele>526.4</ele>
        <time>2023-05-28T08:23:36Z</time>
      </trkpt>
      <trkpt lat="43.53832" lon="5.55499">
        <ele>526.6</ele>
        <time>2023-05-28T08:23:37Z</time>
      </trkpt>
      <trkpt lat="43.53832" lon="5.555">
        <ele>526.8</ele>
        <time>2023-05-28T08:23:38Z</time>
      </trkpt>
      <trkpt lat="43.53832" lon="5.55501">
        <ele>527</ele>
        <time>2023-05-28T08:23:39Z</time>
      </trkpt>
      <trkpt lat="43.53832" lon="5.55502">
        <ele>527.2</ele>
        <time>2023-05-28T08:23:40Z</time>
      </trkpt>
      <trkpt lat="43.53833" lon="5.55502">
        <ele>527.4</ele>
        <time>2023-05-28T08:23:41Z</time>
      </trkpt>
      <trkpt lat="43.53834" lon="5.55504">
        <ele>527.5</ele>
        <time>2023-05-28T08:23:42Z</time>
      </trkpt>
      <trkpt lat="43.53834" lon="5.55504">
        <ele>527.7</ele>
        <time>2023-05-28T08:23:43Z</time>
      </trkpt>
      <trkpt lat="43.53834" lon="5.55505">
        <ele>527.9</ele>
        <time>2023-05-28T08:23:44Z</time>
      </trkpt>
      <trkpt lat="43.53834" lon="5.55505">
        <ele>528.1</ele>
        <time>2023-05-28T08:23:45Z</time>
      </trkpt>
      <trkpt lat="43.53835" lon="5.55506">
        <ele>528.4</ele>
        <time>2023-05-28T08:23:46Z</time>
      </trkpt>
      <trkpt lat="43.53835" lon="5.55507">
        <ele>528.6</ele>
        <time>2023-05-28T08:23:47Z</time>
      </trkpt>
      <trkpt lat="43.53835" lon="5.55507">
        <ele>528.7</ele>
        <time>2023-05-28T08:23:48Z</time>
      </trkpt>
      <trkpt lat="43.53835" lon="5.55508">
        <ele>528.9</ele>
        <time>2023-05-28T08:23:49Z</time>
      </trkpt>
      <trkpt lat="43.53835" lon="5.55509">
        <ele>529</ele>
        <time>2023-05-28T08:23:50Z</time>
      </trkpt>
      <trkpt lat="43.53834" lon="5.55509">
        <ele>529.2</ele>
        <time>2023-05-28T08:23:51Z</time>
      </trkpt>
      <trkpt lat="43.53835" lon="5.5551">
        <ele>529.3</ele>
        <time>2023-05-28T08:23:52Z</time>
      </trkpt>
      <trkpt lat="43.53835" lon="5.5551">
        <ele>529.4</ele>
        <time>2023-05-28T08:23:53Z</time>
      </trkpt>
      <trkpt lat="43.53836" lon="5.55511">
        <ele>529.6</ele>
        <time>2023-05-28T08:23:54Z</time>
      </trkpt>
      <trkpt lat="43.53836" lon="5.55511">
        <ele>529.7</ele>
        <time>2023-05-28T08:23:55Z</time>
      </trkpt>
      <trkpt lat="43.53836" lon="5.55511">
        <ele>529.7</ele>
        <time>2023-05-28T08:23:56Z</time>
      </trkpt>
      <trkpt lat="43.53836" lon="5.55511">
        <ele>529.8</ele>
        <time>2023-05-28T08:23:57Z</time>
      </trkpt>
      <trkpt lat="43.53837" lon="5.55511">
        <ele>529.7</ele>
        <time>2023-05-28T08:23:58Z</time>
      </trkpt>
      <trkpt lat="43.53837" lon="5.55511">
        <ele>529.7</ele>
        <time>2023-05-28T08:23:59Z</time>
      </trkpt>
      <trkpt lat="43.53838" lon="5.55511">
        <ele>529.8</ele>
        <time>2023-05-28T08:24:00Z</time>
      </trkpt>
      <trkpt lat="43.53838" lon="5.55511">
        <ele>529.8</ele>
        <time>2023-05-28T08:24:01Z</time>
      </trkpt>
      <trkpt lat="43.53839" lon="5.5551">
        <ele>529.8</ele>
        <time>2023-05-28T08:24:02Z</time>
      </trkpt>
      <trkpt lat="43.53839" lon="5.5551">
        <ele>529.8</ele>
        <time>2023-05-28T08:24:03Z</time>
      </trkpt>
      <trkpt lat="43.5384" lon="5.5551">
        <ele>529.8</ele>
        <time>2023-05-28T08:24:04Z</time>
      </trkpt>
      <trkpt lat="43.5384" lon="5.5551">
        <ele>529.8</ele>
        <time>2023-05-28T08:24:05Z</time>
      </trkpt>
      <trkpt lat="43.5384" lon="5.55511">
        <ele>529.8</ele>
        <time>2023-05-28T08:24:06Z</time>
      </trkpt>
      <trkpt lat="43.53841" lon="5.55511">
        <ele>529.9</ele>
        <time>2023-05-28T08:24:07Z</time>
      </trkpt>
      <trkpt lat="43.53841" lon="5.55512">
        <ele>529.9</ele>
        <time>2023-05-28T08:24:08Z</time>
      </trkpt>
      <trkpt lat="43.53842" lon="5.55513">
        <ele>529.9</ele>
        <time>2023-05-28T08:24:09Z</time>
      </trkpt>
      <trkpt lat="43.53842" lon="5.55514">
        <ele>529.8</ele>
        <time>2023-05-28T08:24:10Z</time>
      </trkpt>
      <trkpt lat="43.53843" lon="5.55515">
        <ele>529.9</ele>
        <time>2023-05-28T08:24:11Z</time>
      </trkpt>
      <trkpt lat="43.53843" lon="5.55515">
        <ele>529.8</ele>
        <time>2023-05-28T08:24:12Z</time>
      </trkpt>
      <trkpt lat="43.53844" lon="5.55516">
        <ele>529.9</ele>
        <time>2023-05-28T08:24:13Z</time>
      </trkpt>
      <trkpt lat="43.53844" lon="5.55516">
        <ele>529.9</ele>
        <time>2023-05-28T08:24:14Z</time>
      </trkpt>
      <trkpt lat="43.53845" lon="5.55517">
        <ele>530</ele>
        <time>2023-05-28T08:24:15Z</time>
      </trkpt>
      <trkpt lat="43.53845" lon="5.55517">
        <ele>530.1</ele>
        <time>2023-05-28T08:24:16Z</time>
      </trkpt>
      <trkpt lat="43.53846" lon="5.55517">
        <ele>530.2</ele>
        <time>2023-05-28T08:24:17Z</time>
      </trkpt>
      <trkpt lat="43.53846" lon="5.55518">
        <ele>530.3</ele>
        <time>2023-05-28T08:24:18Z</time>
      </trkpt>
      <trkpt lat="43.53846" lon="5.55518">
        <ele>530.3</ele>
        <time>2023-05-28T08:24:19Z</time>
      </trkpt>
      <trkpt lat="43.53846" lon="5.55518">
        <ele>530.4</ele>
        <time>2023-05-28T08:24:20Z</time>
      </trkpt>
      <trkpt lat="43.53846" lon="5.55518">
        <ele>530.4</ele>
        <time>2023-05-28T08:24:21Z</time>
      </trkpt>
      <trkpt lat="43.53846" lon="5.55518">
        <ele>530.4</ele>
        <time>2023-05-28T08:24:22Z</time>
      </trkpt>
      <trkpt lat="43.53847" lon="5.55518">
        <ele>530.3</ele>
        <time>2023-05-28T08:24:23Z</time>
      </trkpt>
      <trkpt lat="43.53848" lon="5.55519">
        <ele>530.3</ele>
        <time>2023-05-28T08:24:24Z</time>
      </trkpt>
      <trkpt lat="43.53848" lon="5.55519">
        <ele>530.3</ele>
        <time>2023-05-28T08:24:25Z</time>
      </trkpt>
      <trkpt lat="43.53849" lon="5.55519">
        <ele>530.3</ele>
        <time>2023-05-28T08:24:26Z</time>
      </trkpt>
      <trkpt lat="43.5385" lon="5.55519">
        <ele>530.4</ele>
        <time>2023-05-28T08:24:27Z</time>
      </trkpt>
      <trkpt lat="43.5385" lon="5.5552">
        <ele>530.5</ele>
        <time>2023-05-28T08:24:28Z</time>
      </trkpt>
      <trkpt lat="43.53851" lon="5.5552">
        <ele>530.5</ele>
        <time>2023-05-28T08:24:29Z</time>
      </trkpt>
      <trkpt lat="43.53851" lon="5.5552">
        <ele>530.6</ele>
        <time>2023-05-28T08:24:30Z</time>
      </trkpt>
      <trkpt lat="43.53852" lon="5.5552">
        <ele>530.7</ele>
        <time>2023-05-28T08:24:31Z</time>
      </trkpt>
      <trkpt lat="43.53853" lon="5.5552">
        <ele>530.7</ele>
        <time>2023-05-28T08:24:32Z</time>
      </trkpt>
      <trkpt lat="43.53854" lon="5.5552">
        <ele>530.7</ele>
        <time>2023-05-28T08:24:33Z</time>
      </trkpt>
      <trkpt lat="43.53854" lon="5.5552">
        <ele>530.7</ele>
        <time>2023-05-28T08:24:34Z</time>
      </trkpt>
      <trkpt lat="43.53855" lon="5.5552">
        <ele>530.7</ele>
        <time>2023-05-28T08:24:35Z</time>
      </trkpt>
      <trkpt lat="43.53855" lon="5.5552">
        <ele>530.6</ele>
        <time>2023-05-28T08:24:36Z</time>
      </trkpt>
      <trkpt lat="43.53855" lon="5.5552">
        <ele>530.6</ele>
        <time>2023-05-28T08:24:37Z</time>
      </trkpt>
      <trkpt lat="43.53856" lon="5.55521">
        <ele>530.6</ele>
        <time>2023-05-28T08:24:38Z</time>
      </trkpt>
      <trkpt lat="43.53856" lon="5.55521">
        <ele>530.7</ele>
        <time>2023-05-28T08:24:39Z</time>
      </trkpt>
      <trkpt lat="43.53856" lon="5.55521">
        <ele>530.7</ele>
        <time>2023-05-28T08:24:40Z</time>
      </trkpt>
      <trkpt lat="43.53857" lon="5.55521">
        <ele>530.7</ele>
        <time>2023-05-28T08:24:41Z</time>
      </trkpt>
      <trkpt lat="43.53857" lon="5.55521">
        <ele>530.8</ele>
        <time>2023-05-28T08:24:42Z</time>
      </trkpt>
      <trkpt lat="43.53857" lon="5.5552">
        <ele>530.9</ele>
        <time>2023-05-28T08:24:43Z</time>
      </trkpt>
      <trkpt lat="43.53857" lon="5.5552">
        <ele>530.9</ele>
        <time>2023-05-28T08:24:44Z</time>
      </trkpt>
      <trkpt lat="43.53857" lon="5.5552">
        <ele>530.9</ele>
        <time>2023-05-28T08:24:45Z</time>
      </trkpt>
      <trkpt lat="43.53857" lon="5.5552">
        <ele>531</ele>
        <time>2023-05-28T08:24:46Z</time>
      </trkpt>
      <trkpt lat="43.53857" lon="5.5552">
        <ele>531</ele>
        <time>2023-05-28T08:24:47Z</time>
      </trkpt>
      <trkpt lat="43.53857" lon="5.5552">
        <ele>531</ele>
        <time>2023-05-28T08:24:48Z</time>
      </trkpt>
      <trkpt lat="43.53858" lon="5.55519">
        <ele>531</ele>
        <time>2023-05-28T08:24:49Z</time>
      </trkpt>
      <trkpt lat="43.53858" lon="5.55519">
        <ele>531</ele>
        <time>2023-05-28T08:24:50Z</time>
      </trkpt>
      <trkpt lat="43.53858" lon="5.55519">
        <ele>531</ele>
        <time>2023-05-28T08:24:51Z</time>
      </trkpt>
      <trkpt lat="43.53858" lon="5.55519">
        <ele>531</ele>
        <time>2023-05-28T08:24:52Z</time>
      </trkpt>
      <trkpt lat="43.53858" lon="5.55519">
        <ele>531</ele>
        <time>2023-05-28T08:24:53Z</time>
      </trkpt>
      <trkpt lat="43.53858" lon="5.55519">
        <ele>531.1</ele>
        <time>2023-05-28T08:24:54Z</time>
      </trkpt>
      <trkpt lat="43.53858" lon="5.55519">
        <ele>531.2</ele>
        <time>2023-05-28T08:24:55Z</time>
      </trkpt>
      <trkpt lat="43.53858" lon="5.55519">
        <ele>531.2</ele>
        <time>2023-05-28T08:24:56Z</time>
      </trkpt>
      <trkpt lat="43.53858" lon="5.55519">
        <ele>531.2</ele>
        <time>2023-05-28T08:24:57Z</time>
      </trkpt>
      <trkpt lat="43.53858" lon="5.55519">
        <ele>531.3</ele>
        <time>2023-05-28T08:24:58Z</time>
      </trkpt>
      <trkpt lat="43.53858" lon="5.5552">
        <ele>531.1</ele>
        <time>2023-05-28T08:24:59Z</time>
      </trkpt>
      <trkpt lat="43.53858" lon="5.5552">
        <ele>531.2</ele>
        <time>2023-05-28T08:25:00Z</time>
      </trkpt>
      <trkpt lat="43.53858" lon="5.5552">
        <ele>531.2</ele>
        <time>2023-05-28T08:25:01Z</time>
      </trkpt>
      <trkpt lat="43.53858" lon="5.5552">
        <ele>531.2</ele>
        <time>2023-05-28T08:25:02Z</time>
      </trkpt>
      <trkpt lat="43.53859" lon="5.5552">
        <ele>531.2</ele>
        <time>2023-05-28T08:25:03Z</time>
      </trkpt>
      <trkpt lat="43.53859" lon="5.5552">
        <ele>531.2</ele>
        <time>2023-05-28T08:25:04Z</time>
      </trkpt>
      <trkpt lat="43.53859" lon="5.5552">
        <ele>531.2</ele>
        <time>2023-05-28T08:25:05Z</time>
      </trkpt>
      <trkpt lat="43.53859" lon="5.5552">
        <ele>531.2</ele>
        <time>2023-05-28T08:25:06Z</time>
      </trkpt>
      <trkpt lat="43.53859" lon="5.5552">
        <ele>531.2</ele>
        <time>2023-05-28T08:25:07Z</time>
      </trkpt>
      <trkpt lat="43.53859" lon="5.5552">
        <ele>531.2</ele>
        <time>2023-05-28T08:25:08Z</time>
      </trkpt>
      <trkpt lat="43.53859" lon="5.5552">
        <ele>531.3</ele>
        <time>2023-05-28T08:25:09Z</time>
      </trkpt>
      <trkpt lat="43.53858" lon="5.55521">
        <ele>531.3</ele>
        <time>2023-05-28T08:25:10Z</time>
      </trkpt>
      <trkpt lat="43.53858" lon="5.55522">
        <ele>531.4</ele>
        <time>2023-05-28T08:25:11Z</time>
      </trkpt>
      <trkpt lat="43.53858" lon="5.55522">
        <ele>531.5</ele>
        <time>2023-05-28T08:25:12Z</time>
      </trkpt>
      <trkpt lat="43.53858" lon="5.55523">
        <ele>531.6</ele>
        <time>2023-05-28T08:25:13Z</time>
      </trkpt>
      <trkpt lat="43.53858" lon="5.55524">
        <ele>531.6</ele>
        <time>2023-05-28T08:25:14Z</time>
      </trkpt>
      <trkpt lat="43.53858" lon="5.55525">
        <ele>531.7</ele>
        <time>2023-05-28T08:25:15Z</time>
      </trkpt>
      <trkpt lat="43.53858" lon="5.55526">
        <ele>531.9</ele>
        <time>2023-05-28T08:25:16Z</time>
      </trkpt>
      <trkpt lat="43.53858" lon="5.55526">
        <ele>532</ele>
        <time>2023-05-28T08:25:17Z</time>
      </trkpt>
      <trkpt lat="43.53858" lon="5.55527">
        <ele>532.2</ele>
        <time>2023-05-28T08:25:18Z</time>
      </trkpt>
      <trkpt lat="43.53858" lon="5.55528">
        <ele>532.3</ele>
        <time>2023-05-28T08:25:19Z</time>
      </trkpt>
      <trkpt lat="43.53857" lon="5.5553">
        <ele>532.6</ele>
        <time>2023-05-28T08:25:20Z</time>
      </trkpt>
      <trkpt lat="43.53857" lon="5.5553">
        <ele>532.9</ele>
        <time>2023-05-28T08:25:21Z</time>
      </trkpt>
      <trkpt lat="43.53857" lon="5.55531">
        <ele>533.1</ele>
        <time>2023-05-28T08:25:22Z</time>
      </trkpt>
      <trkpt lat="43.53857" lon="5.55532">
        <ele>533.2</ele>
        <time>2023-05-28T08:25:23Z</time>
      </trkpt>
      <trkpt lat="43.53857" lon="5.55532">
        <ele>533.4</ele>
        <time>2023-05-28T08:25:24Z</time>
      </trkpt>
      <trkpt lat="43.53856" lon="5.55533">
        <ele>533.5</ele>
        <time>2023-05-28T08:25:25Z</time>
      </trkpt>
      <trkpt lat="43.53856" lon="5.55533">
        <ele>533.7</ele>
        <time>2023-05-28T08:25:26Z</time>
      </trkpt>
      <trkpt lat="43.53856" lon="5.55534">
        <ele>533.8</ele>
        <time>2023-05-28T08:25:27Z</time>
      </trkpt>
      <trkpt lat="43.53856" lon="5.55534">
        <ele>534</ele>
        <time>2023-05-28T08:25:28Z</time>
      </trkpt>
      <trkpt lat="43.53855" lon="5.55534">
        <ele>534.2</ele>
        <time>2023-05-28T08:25:29Z</time>
      </trkpt>
      <trkpt lat="43.53854" lon="5.55534">
        <ele>534.3</ele>
        <time>2023-05-28T08:25:30Z</time>
      </trkpt>
      <trkpt lat="43.53853" lon="5.55534">
        <ele>534.6</ele>
        <time>2023-05-28T08:25:31Z</time>
      </trkpt>
      <trkpt lat="43.53852" lon="5.55534">
        <ele>534.8</ele>
        <time>2023-05-28T08:25:32Z</time>
      </trkpt>
      <trkpt lat="43.53852" lon="5.55535">
        <ele>535</ele>
        <time>2023-05-28T08:25:33Z</time>
      </trkpt>
      <trkpt lat="43.53851" lon="5.55535">
        <ele>535.2</ele>
        <time>2023-05-28T08:25:34Z</time>
      </trkpt>
      <trkpt lat="43.53851" lon="5.55535">
        <ele>535.3</ele>
        <time>2023-05-28T08:25:35Z</time>
      </trkpt>
      <trkpt lat="43.5385" lon="5.55536">
        <ele>535.5</ele>
        <time>2023-05-28T08:25:36Z</time>
      </trkpt>
      <trkpt lat="43.5385" lon="5.55536">
        <ele>535.7</ele>
        <time>2023-05-28T08:25:37Z</time>
      </trkpt>
      <trkpt lat="43.5385" lon="5.55537">
        <ele>535.9</ele>
        <time>2023-05-28T08:25:38Z</time>
      </trkpt>
      <trkpt lat="43.53849" lon="5.55538">
        <ele>536.1</ele>
        <time>2023-05-28T08:25:39Z</time>
      </trkpt>
      <trkpt lat="43.53849" lon="5.55539">
        <ele>536.3</ele>
        <time>2023-05-28T08:25:40Z</time>
      </trkpt>
      <trkpt lat="43.53849" lon="5.5554">
        <ele>536.5</ele>
        <time>2023-05-28T08:25:41Z</time>
      </trkpt>
      <trkpt lat="43.53848" lon="5.5554">
        <ele>536.7</ele>
        <time>2023-05-28T08:25:42Z</time>
      </trkpt>
      <trkpt lat="43.53848" lon="5.5554">
        <ele>536.9</ele>
        <time>2023-05-28T08:25:43Z</time>
      </trkpt>
      <trkpt lat="43.53847" lon="5.55541">
        <ele>537</ele>
        <time>2023-05-28T08:25:44Z</time>
      </trkpt>
      <trkpt lat="43.53846" lon="5.55541">
        <ele>537.1</ele>
        <time>2023-05-28T08:25:45Z</time>
      </trkpt>
      <trkpt lat="43.53846" lon="5.55542">
        <ele>537.3</ele>
        <time>2023-05-28T08:25:46Z</time>
      </trkpt>
      <trkpt lat="43.53846" lon="5.55542">
        <ele>537.5</ele>
        <time>2023-05-28T08:25:47Z</time>
      </trkpt>
      <trkpt lat="43.53845" lon="5.55543">
        <ele>537.7</ele>
        <time>2023-05-28T08:25:48Z</time>
      </trkpt>
      <trkpt lat="43.53845" lon="5.55544">
        <ele>538.1</ele>
        <time>2023-05-28T08:25:49Z</time>
      </trkpt>
      <trkpt lat="43.53845" lon="5.55544">
        <ele>538.3</ele>
        <time>2023-05-28T08:25:50Z</time>
      </trkpt>
      <trkpt lat="43.53845" lon="5.55546">
        <ele>538.5</ele>
        <time>2023-05-28T08:25:51Z</time>
      </trkpt>
      <trkpt lat="43.53845" lon="5.55546">
        <ele>538.7</ele>
        <time>2023-05-28T08:25:52Z</time>
      </trkpt>
      <trkpt lat="43.53844" lon="5.55547">
        <ele>538.9</ele>
        <time>2023-05-28T08:25:53Z</time>
      </trkpt>
      <trkpt lat="43.53844" lon="5.55548">
        <ele>539.2</ele>
        <time>2023-05-28T08:25:54Z</time>
      </trkpt>
      <trkpt lat="43.53844" lon="5.55549">
        <ele>539.4</ele>
        <time>2023-05-28T08:25:55Z</time>
      </trkpt>
      <trkpt lat="43.53844" lon="5.5555">
        <ele>539.5</ele>
        <time>2023-05-28T08:25:56Z</time>
      </trkpt>
      <trkpt lat="43.53844" lon="5.55551">
        <ele>539.6</ele>
        <time>2023-05-28T08:25:57Z</time>
      </trkpt>
      <trkpt lat="43.53844" lon="5.55552">
        <ele>539.9</ele>
        <time>2023-05-28T08:25:58Z</time>
      </trkpt>
      <trkpt lat="43.53843" lon="5.55552">
        <ele>540</ele>
        <time>2023-05-28T08:25:59Z</time>
      </trkpt>
      <trkpt lat="43.53843" lon="5.55552">
        <ele>540.1</ele>
        <time>2023-05-28T08:26:00Z</time>
      </trkpt>
      <trkpt lat="43.53842" lon="5.55552">
        <ele>540.3</ele>
        <time>2023-05-28T08:26:01Z</time>
      </trkpt>
      <trkpt lat="43.53842" lon="5.55552">
        <ele>540.4</ele>
        <time>2023-05-28T08:26:02Z</time>
      </trkpt>
      <trkpt lat="43.53842" lon="5.55553">
        <ele>540.6</ele>
        <time>2023-05-28T08:26:03Z</time>
      </trkpt>
      <trkpt lat="43.53842" lon="5.55554">
        <ele>540.8</ele>
        <time>2023-05-28T08:26:04Z</time>
      </trkpt>
      <trkpt lat="43.53842" lon="5.55556">
        <ele>540.9</ele>
        <time>2023-05-28T08:26:05Z</time>
      </trkpt>
      <trkpt lat="43.53842" lon="5.55556">
        <ele>541</ele>
        <time>2023-05-28T08:26:06Z</time>
      </trkpt>
      <trkpt lat="43.53841" lon="5.55557">
        <ele>541.2</ele>
        <time>2023-05-28T08:26:07Z</time>
      </trkpt>
      <trkpt lat="43.53841" lon="5.55558">
        <ele>541.4</ele>
        <time>2023-05-28T08:26:08Z</time>
      </trkpt>
      <trkpt lat="43.53841" lon="5.55559">
        <ele>541.6</ele>
        <time>2023-05-28T08:26:09Z</time>
      </trkpt>
      <trkpt lat="43.5384" lon="5.55559">
        <ele>541.9</ele>
        <time>2023-05-28T08:26:10Z</time>
      </trkpt>
      <trkpt lat="43.5384" lon="5.5556">
        <ele>542.1</ele>
        <time>2023-05-28T08:26:11Z</time>
      </trkpt>
      <trkpt lat="43.5384" lon="5.55561">
        <ele>542.3</ele>
        <time>2023-05-28T08:26:12Z</time>
      </trkpt>
      <trkpt lat="43.5384" lon="5.55562">
        <ele>542.5</ele>
        <time>2023-05-28T08:26:13Z</time>
      </trkpt>
      <trkpt lat="43.53839" lon="5.55563">
        <ele>542.6</ele>
        <time>2023-05-28T08:26:14Z</time>
      </trkpt>
      <trkpt lat="43.53839" lon="5.55565">
        <ele>542.8</ele>
        <time>2023-05-28T08:26:15Z</time>
      </trkpt>
      <trkpt lat="43.53839" lon="5.55566">
        <ele>542.9</ele>
        <time>2023-05-28T08:26:16Z</time>
      </trkpt>
      <trkpt lat="43.53839" lon="5.55567">
        <ele>543.2</ele>
        <time>2023-05-28T08:26:17Z</time>
      </trkpt>
      <trkpt lat="43.53839" lon="5.55568">
        <ele>543.4</ele>
        <time>2023-05-28T08:26:18Z</time>
      </trkpt>
      <trkpt lat="43.53839" lon="5.55569">
        <ele>543.6</ele>
        <time>2023-05-28T08:26:19Z</time>
      </trkpt>
      <trkpt lat="43.53839" lon="5.5557">
        <ele>543.8</ele>
        <time>2023-05-28T08:26:20Z</time>
      </trkpt>
      <trkpt lat="43.53839" lon="5.55571">
        <ele>543.9</ele>
        <time>2023-05-28T08:26:21Z</time>
      </trkpt>
      <trkpt lat="43.5384" lon="5.55572">
        <ele>544</ele>
        <time>2023-05-28T08:26:22Z</time>
      </trkpt>
      <trkpt lat="43.5384" lon="5.55574">
        <ele>544.2</ele>
        <time>2023-05-28T08:26:23Z</time>
      </trkpt>
      <trkpt lat="43.53841" lon="5.55574">
        <ele>544.3</ele>
        <time>2023-05-28T08:26:24Z</time>
      </trkpt>
      <trkpt lat="43.53841" lon="5.55575">
        <ele>544.4</ele>
        <time>2023-05-28T08:26:25Z</time>
      </trkpt>
      <trkpt lat="43.53841" lon="5.55576">
        <ele>544.5</ele>
        <time>2023-05-28T08:26:26Z</time>
      </trkpt>
      <trkpt lat="43.53841" lon="5.55577">
        <ele>544.7</ele>
        <time>2023-05-28T08:26:27Z</time>
      </trkpt>
      <trkpt lat="43.53841" lon="5.55577">
        <ele>544.8</ele>
        <time>2023-05-28T08:26:28Z</time>
      </trkpt>
      <trkpt lat="43.53841" lon="5.55578">
        <ele>545</ele>
        <time>2023-05-28T08:26:29Z</time>
      </trkpt>
      <trkpt lat="43.5384" lon="5.55579">
        <ele>545.2</ele>
        <time>2023-05-28T08:26:30Z</time>
      </trkpt>
      <trkpt lat="43.5384" lon="5.55579">
        <ele>545.5</ele>
        <time>2023-05-28T08:26:31Z</time>
      </trkpt>
      <trkpt lat="43.5384" lon="5.5558">
        <ele>545.6</ele>
        <time>2023-05-28T08:26:32Z</time>
      </trkpt>
      <trkpt lat="43.5384" lon="5.55581">
        <ele>545.8</ele>
        <time>2023-05-28T08:26:33Z</time>
      </trkpt>
      <trkpt lat="43.5384" lon="5.55582">
        <ele>546</ele>
        <time>2023-05-28T08:26:34Z</time>
      </trkpt>
      <trkpt lat="43.5384" lon="5.55583">
        <ele>546.3</ele>
        <time>2023-05-28T08:26:35Z</time>
      </trkpt>
      <trkpt lat="43.5384" lon="5.55584">
        <ele>546.5</ele>
        <time>2023-05-28T08:26:36Z</time>
      </trkpt>
      <trkpt lat="43.5384" lon="5.55585">
        <ele>546.7</ele>
        <time>2023-05-28T08:26:37Z</time>
      </trkpt>
      <trkpt lat="43.5384" lon="5.55585">
        <ele>546.9</ele>
        <time>2023-05-28T08:26:38Z</time>
      </trkpt>
      <trkpt lat="43.5384" lon="5.55587">
        <ele>547.1</ele>
        <time>2023-05-28T08:26:39Z</time>
      </trkpt>
      <trkpt lat="43.5384" lon="5.55588">
        <ele>547.2</ele>
        <time>2023-05-28T08:26:40Z</time>
      </trkpt>
      <trkpt lat="43.5384" lon="5.55589">
        <ele>547.4</ele>
        <time>2023-05-28T08:26:41Z</time>
      </trkpt>
      <trkpt lat="43.53839" lon="5.55589">
        <ele>547.6</ele>
        <time>2023-05-28T08:26:42Z</time>
      </trkpt>
      <trkpt lat="43.53839" lon="5.5559">
        <ele>547.7</ele>
        <time>2023-05-28T08:26:43Z</time>
      </trkpt>
      <trkpt lat="43.53839" lon="5.55591">
        <ele>548</ele>
        <time>2023-05-28T08:26:44Z</time>
      </trkpt>
      <trkpt lat="43.53839" lon="5.55592">
        <ele>548.1</ele>
        <time>2023-05-28T08:26:45Z</time>
      </trkpt>
      <trkpt lat="43.53839" lon="5.55593">
        <ele>548.3</ele>
        <time>2023-05-28T08:26:46Z</time>
      </trkpt>
      <trkpt lat="43.53839" lon="5.55594">
        <ele>548.5</ele>
        <time>2023-05-28T08:26:47Z</time>
      </trkpt>
      <trkpt lat="43.53839" lon="5.55594">
        <ele>548.6</ele>
        <time>2023-05-28T08:26:48Z</time>
      </trkpt>
      <trkpt lat="43.53838" lon="5.55595">
        <ele>548.9</ele>
        <time>2023-05-28T08:26:49Z</time>
      </trkpt>
      <trkpt lat="43.53838" lon="5.55596">
        <ele>549.1</ele>
        <time>2023-05-28T08:26:50Z</time>
      </trkpt>
      <trkpt lat="43.53837" lon="5.55596">
        <ele>549.1</ele>
        <time>2023-05-28T08:26:51Z</time>
      </trkpt>
      <trkpt lat="43.53837" lon="5.55597">
        <ele>549.1</ele>
        <time>2023-05-28T08:26:52Z</time>
      </trkpt>
      <trkpt lat="43.53837" lon="5.55598">
        <ele>549.2</ele>
        <time>2023-05-28T08:26:53Z</time>
      </trkpt>
      <trkpt lat="43.53837" lon="5.55599">
        <ele>549.4</ele>
        <time>2023-05-28T08:26:54Z</time>
      </trkpt>
      <trkpt lat="43.53837" lon="5.556">
        <ele>549.6</ele>
        <time>2023-05-28T08:26:55Z</time>
      </trkpt>
      <trkpt lat="43.53836" lon="5.55601">
        <ele>549.8</ele>
        <time>2023-05-28T08:26:56Z</time>
      </trkpt>
      <trkpt lat="43.53836" lon="5.55602">
        <ele>550</ele>
        <time>2023-05-28T08:26:57Z</time>
      </trkpt>
      <trkpt lat="43.53837" lon="5.55603">
        <ele>550.2</ele>
        <time>2023-05-28T08:26:58Z</time>
      </trkpt>
      <trkpt lat="43.53837" lon="5.55605">
        <ele>550.3</ele>
        <time>2023-05-28T08:26:59Z</time>
      </trkpt>
      <trkpt lat="43.53837" lon="5.55606">
        <ele>550.4</ele>
        <time>2023-05-28T08:27:00Z</time>
      </trkpt>
      <trkpt lat="43.53837" lon="5.55607">
        <ele>550.5</ele>
        <time>2023-05-28T08:27:01Z</time>
      </trkpt>
      <trkpt lat="43.53837" lon="5.55608">
        <ele>550.5</ele>
        <time>2023-05-28T08:27:02Z</time>
      </trkpt>
      <trkpt lat="43.53838" lon="5.55609">
        <ele>550.4</ele>
        <time>2023-05-28T08:27:03Z</time>
      </trkpt>
      <trkpt lat="43.53837" lon="5.5561">
        <ele>550.6</ele>
        <time>2023-05-28T08:27:04Z</time>
      </trkpt>
      <trkpt lat="43.53837" lon="5.55611">
        <ele>550.8</ele>
        <time>2023-05-28T08:27:05Z</time>
      </trkpt>
      <trkpt lat="43.53837" lon="5.55612">
        <ele>550.9</ele>
        <time>2023-05-28T08:27:06Z</time>
      </trkpt>
      <trkpt lat="43.53837" lon="5.55613">
        <ele>551.1</ele>
        <time>2023-05-28T08:27:07Z</time>
      </trkpt>
      <trkpt lat="43.53837" lon="5.55614">
        <ele>551.3</ele>
        <time>2023-05-28T08:27:08Z</time>
      </trkpt>
      <trkpt lat="43.53836" lon="5.55615">
        <ele>551.6</ele>
        <time>2023-05-28T08:27:09Z</time>
      </trkpt>
      <trkpt lat="43.53835" lon="5.55616">
        <ele>551.8</ele>
        <time>2023-05-28T08:27:10Z</time>
      </trkpt>
      <trkpt lat="43.53835" lon="5.55617">
        <ele>552</ele>
        <time>2023-05-28T08:27:11Z</time>
      </trkpt>
      <trkpt lat="43.53835" lon="5.55619">
        <ele>552.3</ele>
        <time>2023-05-28T08:27:12Z</time>
      </trkpt>
      <trkpt lat="43.53834" lon="5.5562">
        <ele>552.7</ele>
        <time>2023-05-28T08:27:13Z</time>
      </trkpt>
      <trkpt lat="43.53834" lon="5.55621">
        <ele>552.9</ele>
        <time>2023-05-28T08:27:14Z</time>
      </trkpt>
      <trkpt lat="43.53835" lon="5.55622">
        <ele>553.1</ele>
        <time>2023-05-28T08:27:15Z</time>
      </trkpt>
      <trkpt lat="43.53835" lon="5.55623">
        <ele>553.3</ele>
        <time>2023-05-28T08:27:16Z</time>
      </trkpt>
      <trkpt lat="43.53835" lon="5.55624">
        <ele>553.4</ele>
        <time>2023-05-28T08:27:17Z</time>
      </trkpt>
      <trkpt lat="43.53835" lon="5.55625">
        <ele>553.6</ele>
        <time>2023-05-28T08:27:18Z</time>
      </trkpt>
      <trkpt lat="43.53835" lon="5.55626">
        <ele>553.7</ele>
        <time>2023-05-28T08:27:19Z</time>
      </trkpt>
      <trkpt lat="43.53835" lon="5.55627">
        <ele>553.9</ele>
        <time>2023-05-28T08:27:20Z</time>
      </trkpt>
      <trkpt lat="43.53835" lon="5.55627">
        <ele>554</ele>
        <time>2023-05-28T08:27:21Z</time>
      </trkpt>
      <trkpt lat="43.53836" lon="5.55628">
        <ele>554.2</ele>
        <time>2023-05-28T08:27:22Z</time>
      </trkpt>
      <trkpt lat="43.53836" lon="5.55629">
        <ele>554.3</ele>
        <time>2023-05-28T08:27:23Z</time>
      </trkpt>
      <trkpt lat="43.53835" lon="5.55629">
        <ele>554.5</ele>
        <time>2023-05-28T08:27:24Z</time>
      </trkpt>
      <trkpt lat="43.53835" lon="5.5563">
        <ele>554.7</ele>
        <time>2023-05-28T08:27:25Z</time>
      </trkpt>
      <trkpt lat="43.53835" lon="5.55631">
        <ele>554.9</ele>
        <time>2023-05-28T08:27:26Z</time>
      </trkpt>
      <trkpt lat="43.53835" lon="5.55632">
        <ele>555.1</ele>
        <time>2023-05-28T08:27:27Z</time>
      </trkpt>
      <trkpt lat="43.53834" lon="5.55633">
        <ele>555.3</ele>
        <time>2023-05-28T08:27:28Z</time>
      </trkpt>
      <trkpt lat="43.53835" lon="5.55634">
        <ele>555.4</ele>
        <time>2023-05-28T08:27:29Z</time>
      </trkpt>
      <trkpt lat="43.53835" lon="5.55634">
        <ele>555.5</ele>
        <time>2023-05-28T08:27:30Z</time>
      </trkpt>
      <trkpt lat="43.53835" lon="5.55636">
        <ele>555.5</ele>
        <time>2023-05-28T08:27:31Z</time>
      </trkpt>
      <trkpt lat="43.53835" lon="5.55637">
        <ele>555.6</ele>
        <time>2023-05-28T08:27:32Z</time>
      </trkpt>
      <trkpt lat="43.53835" lon="5.55639">
        <ele>555.7</ele>
        <time>2023-05-28T08:27:33Z</time>
      </trkpt>
      <trkpt lat="43.53835" lon="5.5564">
        <ele>555.8</ele>
        <time>2023-05-28T08:27:34Z</time>
      </trkpt>
      <trkpt lat="43.53835" lon="5.55641">
        <ele>555.9</ele>
        <time>2023-05-28T08:27:35Z</time>
      </trkpt>
      <trkpt lat="43.53835" lon="5.55641">
        <ele>556.1</ele>
        <time>2023-05-28T08:27:36Z</time>
      </trkpt>
      <trkpt lat="43.53835" lon="5.55642">
        <ele>556.2</ele>
        <time>2023-05-28T08:27:37Z</time>
      </trkpt>
      <trkpt lat="43.53836" lon="5.55643">
        <ele>556.3</ele>
        <time>2023-05-28T08:27:38Z</time>
      </trkpt>
      <trkpt lat="43.53836" lon="5.55644">
        <ele>556.4</ele>
        <time>2023-05-28T08:27:39Z</time>
      </trkpt>
      <trkpt lat="43.53836" lon="5.55645">
        <ele>556.5</ele>
        <time>2023-05-28T08:27:40Z</time>
      </trkpt>
      <trkpt lat="43.53836" lon="5.55646">
        <ele>556.6</ele>
        <time>2023-05-28T08:27:41Z</time>
      </trkpt>
      <trkpt lat="43.53836" lon="5.55647">
        <ele>556.8</ele>
        <time>2023-05-28T08:27:42Z</time>
      </trkpt>
      <trkpt lat="43.53836" lon="5.55648">
        <ele>557</ele>
        <time>2023-05-28T08:27:43Z</time>
      </trkpt>
      <trkpt lat="43.53836" lon="5.55649">
        <ele>557.2</ele>
        <time>2023-05-28T08:27:44Z</time>
      </trkpt>
      <trkpt lat="43.53837" lon="5.5565">
        <ele>557.3</ele>
        <time>2023-05-28T08:27:45Z</time>
      </trkpt>
      <trkpt lat="43.53837" lon="5.55651">
        <ele>557.4</ele>
        <time>2023-05-28T08:27:46Z</time>
      </trkpt>
      <trkpt lat="43.53838" lon="5.55653">
        <ele>557.5</ele>
        <time>2023-05-28T08:27:47Z</time>
      </trkpt>
      <trkpt lat="43.53838" lon="5.55654">
        <ele>557.6</ele>
        <time>2023-05-28T08:27:48Z</time>
      </trkpt>
      <trkpt lat="43.53838" lon="5.55655">
        <ele>557.7</ele>
        <time>2023-05-28T08:27:49Z</time>
      </trkpt>
      <trkpt lat="43.53839" lon="5.55656">
        <ele>557.8</ele>
        <time>2023-05-28T08:27:50Z</time>
      </trkpt>
      <trkpt lat="43.53838" lon="5.55657">
        <ele>557.9</ele>
        <time>2023-05-28T08:27:51Z</time>
      </trkpt>
      <trkpt lat="43.53838" lon="5.55659">
        <ele>558</ele>
        <time>2023-05-28T08:27:52Z</time>
      </trkpt>
      <trkpt lat="43.53838" lon="5.5566">
        <ele>558.1</ele>
        <time>2023-05-28T08:27:53Z</time>
      </trkpt>
      <trkpt lat="43.53838" lon="5.55661">
        <ele>558.2</ele>
        <time>2023-05-28T08:27:54Z</time>
      </trkpt>
      <trkpt lat="43.53838" lon="5.55662">
        <ele>558.3</ele>
        <time>2023-05-28T08:27:55Z</time>
      </trkpt>
      <trkpt lat="43.53838" lon="5.55663">
        <ele>558.5</ele>
        <time>2023-05-28T08:27:56Z</time>
      </trkpt>
      <trkpt lat="43.53838" lon="5.55663">
        <ele>558.6</ele>
        <time>2023-05-28T08:27:57Z</time>
      </trkpt>
      <trkpt lat="43.53838" lon="5.55664">
        <ele>558.8</ele>
        <time>2023-05-28T08:27:58Z</time>
      </trkpt>
      <trkpt lat="43.53838" lon="5.55665">
        <ele>559.2</ele>
        <time>2023-05-28T08:27:59Z</time>
      </trkpt>
      <trkpt lat="43.53838" lon="5.55666">
        <ele>559.4</ele>
        <time>2023-05-28T08:28:00Z</time>
      </trkpt>
      <trkpt lat="43.53838" lon="5.55667">
        <ele>559.6</ele>
        <time>2023-05-28T08:28:01Z</time>
      </trkpt>
      <trkpt lat="43.53838" lon="5.55667">
        <ele>559.9</ele>
        <time>2023-05-28T08:28:02Z</time>
      </trkpt>
      <trkpt lat="43.53838" lon="5.55668">
        <ele>560</ele>
        <time>2023-05-28T08:28:03Z</time>
      </trkpt>
      <trkpt lat="43.53838" lon="5.55669">
        <ele>560.1</ele>
        <time>2023-05-28T08:28:04Z</time>
      </trkpt>
      <trkpt lat="43.53838" lon="5.5567">
        <ele>560.2</ele>
        <time>2023-05-28T08:28:05Z</time>
      </trkpt>
      <trkpt lat="43.53837" lon="5.55671">
        <ele>560.4</ele>
        <time>2023-05-28T08:28:06Z</time>
      </trkpt>
      <trkpt lat="43.53837" lon="5.55671">
        <ele>560.5</ele>
        <time>2023-05-28T08:28:07Z</time>
      </trkpt>
      <trkpt lat="43.53837" lon="5.55672">
        <ele>560.7</ele>
        <time>2023-05-28T08:28:08Z</time>
      </trkpt>
      <trkpt lat="43.53836" lon="5.55672">
        <ele>560.8</ele>
        <time>2023-05-28T08:28:09Z</time>
      </trkpt>
      <trkpt lat="43.53836" lon="5.55673">
        <ele>561</ele>
        <time>2023-05-28T08:28:10Z</time>
      </trkpt>
      <trkpt lat="43.53836" lon="5.55674">
        <ele>561.2</ele>
        <time>2023-05-28T08:28:11Z</time>
      </trkpt>
      <trkpt lat="43.53836" lon="5.55675">
        <ele>561.3</ele>
        <time>2023-05-28T08:28:12Z</time>
      </trkpt>
      <trkpt lat="43.53836" lon="5.55676">
        <ele>561.5</ele>
        <time>2023-05-28T08:28:13Z</time>
      </trkpt>
      <trkpt lat="43.53837" lon="5.55677">
        <ele>561.6</ele>
        <time>2023-05-28T08:28:14Z</time>
      </trkpt>
      <trkpt lat="43.53837" lon="5.55678">
        <ele>561.7</ele>
        <time>2023-05-28T08:28:15Z</time>
      </trkpt>
      <trkpt lat="43.53837" lon="5.55679">
        <ele>561.9</ele>
        <time>2023-05-28T08:28:16Z</time>
      </trkpt>
      <trkpt lat="43.53837" lon="5.55681">
        <ele>562</ele>
        <time>2023-05-28T08:28:17Z</time>
      </trkpt>
      <trkpt lat="43.53838" lon="5.55682">
        <ele>562.1</ele>
        <time>2023-05-28T08:28:18Z</time>
      </trkpt>
      <trkpt lat="43.53839" lon="5.55683">
        <ele>562.1</ele>
        <time>2023-05-28T08:28:19Z</time>
      </trkpt>
      <trkpt lat="43.53839" lon="5.55684">
        <ele>562.2</ele>
        <time>2023-05-28T08:28:20Z</time>
      </trkpt>
      <trkpt lat="43.5384" lon="5.55685">
        <ele>562.3</ele>
        <time>2023-05-28T08:28:21Z</time>
      </trkpt>
      <trkpt lat="43.5384" lon="5.55686">
        <ele>562.4</ele>
        <time>2023-05-28T08:28:22Z</time>
      </trkpt>
      <trkpt lat="43.53841" lon="5.55687">
        <ele>562.5</ele>
        <time>2023-05-28T08:28:23Z</time>
      </trkpt>
      <trkpt lat="43.53841" lon="5.55688">
        <ele>562.5</ele>
        <time>2023-05-28T08:28:24Z</time>
      </trkpt>
      <trkpt lat="43.53841" lon="5.55689">
        <ele>562.6</ele>
        <time>2023-05-28T08:28:25Z</time>
      </trkpt>
      <trkpt lat="43.53841" lon="5.5569">
        <ele>562.6</ele>
        <time>2023-05-28T08:28:26Z</time>
      </trkpt>
      <trkpt lat="43.5384" lon="5.5569">
        <ele>562.8</ele>
        <time>2023-05-28T08:28:27Z</time>
      </trkpt>
      <trkpt lat="43.5384" lon="5.55691">
        <ele>562.9</ele>
        <time>2023-05-28T08:28:28Z</time>
      </trkpt>
      <trkpt lat="43.5384" lon="5.55692">
        <ele>563.1</ele>
        <time>2023-05-28T08:28:29Z</time>
      </trkpt>
      <trkpt lat="43.5384" lon="5.55693">
        <ele>563.2</ele>
        <time>2023-05-28T08:28:30Z</time>
      </trkpt>
      <trkpt lat="43.53841" lon="5.55694">
        <ele>563.4</ele>
        <time>2023-05-28T08:28:31Z</time>
      </trkpt>
      <trkpt lat="43.53841" lon="5.55694">
        <ele>563.6</ele>
        <time>2023-05-28T08:28:32Z</time>
      </trkpt>
      <trkpt lat="43.53842" lon="5.55695">
        <ele>563.6</ele>
        <time>2023-05-28T08:28:33Z</time>
      </trkpt>
      <trkpt lat="43.53842" lon="5.55695">
        <ele>563.6</ele>
        <time>2023-05-28T08:28:34Z</time>
      </trkpt>
      <trkpt lat="43.53843" lon="5.55697">
        <ele>563.5</ele>
        <time>2023-05-28T08:28:35Z</time>
      </trkpt>
      <trkpt lat="43.53843" lon="5.55698">
        <ele>563.5</ele>
        <time>2023-05-28T08:28:36Z</time>
      </trkpt>
      <trkpt lat="43.53844" lon="5.55699">
        <ele>563.5</ele>
        <time>2023-05-28T08:28:37Z</time>
      </trkpt>
      <trkpt lat="43.53844" lon="5.557">
        <ele>563.5</ele>
        <time>2023-05-28T08:28:38Z</time>
      </trkpt>
      <trkpt lat="43.53845" lon="5.55701">
        <ele>563.5</ele>
        <time>2023-05-28T08:28:39Z</time>
      </trkpt>
      <trkpt lat="43.53845" lon="5.55702">
        <ele>563.6</ele>
        <time>2023-05-28T08:28:40Z</time>
      </trkpt>
      <trkpt lat="43.53845" lon="5.55703">
        <ele>563.6</ele>
        <time>2023-05-28T08:28:41Z</time>
      </trkpt>
      <trkpt lat="43.53846" lon="5.55704">
        <ele>563.6</ele>
        <time>2023-05-28T08:28:42Z</time>
      </trkpt>
      <trkpt lat="43.53847" lon="5.55705">
        <ele>563.6</ele>
        <time>2023-05-28T08:28:43Z</time>
      </trkpt>
      <trkpt lat="43.53847" lon="5.55705">
        <ele>563.7</ele>
        <time>2023-05-28T08:28:44Z</time>
      </trkpt>
      <trkpt lat="43.53848" lon="5.55706">
        <ele>563.8</ele>
        <time>2023-05-28T08:28:45Z</time>
      </trkpt>
      <trkpt lat="43.53849" lon="5.55707">
        <ele>563.8</ele>
        <time>2023-05-28T08:28:46Z</time>
      </trkpt>
      <trkpt lat="43.53849" lon="5.55708">
        <ele>563.8</ele>
        <time>2023-05-28T08:28:47Z</time>
      </trkpt>
      <trkpt lat="43.5385" lon="5.55708">
        <ele>563.8</ele>
        <time>2023-05-28T08:28:48Z</time>
      </trkpt>
      <trkpt lat="43.5385" lon="5.55709">
        <ele>563.7</ele>
        <time>2023-05-28T08:28:49Z</time>
      </trkpt>
      <trkpt lat="43.5385" lon="5.5571">
        <ele>563.8</ele>
        <time>2023-05-28T08:28:50Z</time>
      </trkpt>
      <trkpt lat="43.53851" lon="5.55711">
        <ele>563.8</ele>
        <time>2023-05-28T08:28:51Z</time>
      </trkpt>
      <trkpt lat="43.53851" lon="5.55711">
        <ele>563.9</ele>
        <time>2023-05-28T08:28:52Z</time>
      </trkpt>
      <trkpt lat="43.5385" lon="5.55712">
        <ele>564</ele>
        <time>2023-05-28T08:28:53Z</time>
      </trkpt>
      <trkpt lat="43.53851" lon="5.55713">
        <ele>564.1</ele>
        <time>2023-05-28T08:28:54Z</time>
      </trkpt>
      <trkpt lat="43.53851" lon="5.55714">
        <ele>564.2</ele>
        <time>2023-05-28T08:28:55Z</time>
      </trkpt>
      <trkpt lat="43.53852" lon="5.55714">
        <ele>564.2</ele>
        <time>2023-05-28T08:28:56Z</time>
      </trkpt>
      <trkpt lat="43.53853" lon="5.55715">
        <ele>564.3</ele>
        <time>2023-05-28T08:28:57Z</time>
      </trkpt>
      <trkpt lat="43.53854" lon="5.55715">
        <ele>564.3</ele>
        <time>2023-05-28T08:28:58Z</time>
      </trkpt>
      <trkpt lat="43.53854" lon="5.55715">
        <ele>564.2</ele>
        <time>2023-05-28T08:28:59Z</time>
      </trkpt>
      <trkpt lat="43.53855" lon="5.55716">
        <ele>564.2</ele>
        <time>2023-05-28T08:29:00Z</time>
      </trkpt>
      <trkpt lat="43.53856" lon="5.55717">
        <ele>564.2</ele>
        <time>2023-05-28T08:29:01Z</time>
      </trkpt>
      <trkpt lat="43.53856" lon="5.55718">
        <ele>564.2</ele>
        <time>2023-05-28T08:29:02Z</time>
      </trkpt>
      <trkpt lat="43.53857" lon="5.55719">
        <ele>564.2</ele>
        <time>2023-05-28T08:29:03Z</time>
      </trkpt>
      <trkpt lat="43.53858" lon="5.5572">
        <ele>564.2</ele>
        <time>2023-05-28T08:29:04Z</time>
      </trkpt>
      <trkpt lat="43.53859" lon="5.55721">
        <ele>564.2</ele>
        <time>2023-05-28T08:29:05Z</time>
      </trkpt>
      <trkpt lat="43.53859" lon="5.55723">
        <ele>564.2</ele>
        <time>2023-05-28T08:29:06Z</time>
      </trkpt>
      <trkpt lat="43.5386" lon="5.55724">
        <ele>564.2</ele>
        <time>2023-05-28T08:29:07Z</time>
      </trkpt>
      <trkpt lat="43.53861" lon="5.55725">
        <ele>564.3</ele>
        <time>2023-05-28T08:29:08Z</time>
      </trkpt>
      <trkpt lat="43.53862" lon="5.55726">
        <ele>564.3</ele>
        <time>2023-05-28T08:29:09Z</time>
      </trkpt>
      <trkpt lat="43.53863" lon="5.55727">
        <ele>564.2</ele>
        <time>2023-05-28T08:29:10Z</time>
      </trkpt>
      <trkpt lat="43.53864" lon="5.55728">
        <ele>564.2</ele>
        <time>2023-05-28T08:29:11Z</time>
      </trkpt>
      <trkpt lat="43.53864" lon="5.55729">
        <ele>564.3</ele>
        <time>2023-05-28T08:29:12Z</time>
      </trkpt>
      <trkpt lat="43.53865" lon="5.5573">
        <ele>564.4</ele>
        <time>2023-05-28T08:29:13Z</time>
      </trkpt>
      <trkpt lat="43.53865" lon="5.55732">
        <ele>564.5</ele>
        <time>2023-05-28T08:29:14Z</time>
      </trkpt>
      <trkpt lat="43.53865" lon="5.55733">
        <ele>564.5</ele>
        <time>2023-05-28T08:29:15Z</time>
      </trkpt>
      <trkpt lat="43.53865" lon="5.55734">
        <ele>564.7</ele>
        <time>2023-05-28T08:29:16Z</time>
      </trkpt>
      <trkpt lat="43.53865" lon="5.55735">
        <ele>564.8</ele>
        <time>2023-05-28T08:29:17Z</time>
      </trkpt>
      <trkpt lat="43.53865" lon="5.55736">
        <ele>565</ele>
        <time>2023-05-28T08:29:18Z</time>
      </trkpt>
      <trkpt lat="43.53864" lon="5.55737">
        <ele>565.1</ele>
        <time>2023-05-28T08:29:19Z</time>
      </trkpt>
      <trkpt lat="43.53864" lon="5.55739">
        <ele>565.3</ele>
        <time>2023-05-28T08:29:20Z</time>
      </trkpt>
      <trkpt lat="43.53864" lon="5.5574">
        <ele>565.4</ele>
        <time>2023-05-28T08:29:21Z</time>
      </trkpt>
      <trkpt lat="43.53864" lon="5.55741">
        <ele>565.7</ele>
        <time>2023-05-28T08:29:22Z</time>
      </trkpt>
      <trkpt lat="43.53864" lon="5.55742">
        <ele>565.9</ele>
        <time>2023-05-28T08:29:23Z</time>
      </trkpt>
      <trkpt lat="43.53864" lon="5.55743">
        <ele>566</ele>
        <time>2023-05-28T08:29:24Z</time>
      </trkpt>
      <trkpt lat="43.53864" lon="5.55743">
        <ele>566.1</ele>
        <time>2023-05-28T08:29:25Z</time>
      </trkpt>
      <trkpt lat="43.53864" lon="5.55744">
        <ele>566.2</ele>
        <time>2023-05-28T08:29:26Z</time>
      </trkpt>
      <trkpt lat="43.53865" lon="5.55745">
        <ele>566.3</ele>
        <time>2023-05-28T08:29:27Z</time>
      </trkpt>
      <trkpt lat="43.53865" lon="5.55746">
        <ele>566.4</ele>
        <time>2023-05-28T08:29:28Z</time>
      </trkpt>
      <trkpt lat="43.53865" lon="5.55747">
        <ele>566.6</ele>
        <time>2023-05-28T08:29:29Z</time>
      </trkpt>
      <trkpt lat="43.53865" lon="5.55748">
        <ele>566.7</ele>
        <time>2023-05-28T08:29:30Z</time>
      </trkpt>
      <trkpt lat="43.53866" lon="5.5575">
        <ele>566.9</ele>
        <time>2023-05-28T08:29:31Z</time>
      </trkpt>
      <trkpt lat="43.53866" lon="5.55751">
        <ele>566.9</ele>
        <time>2023-05-28T08:29:32Z</time>
      </trkpt>
      <trkpt lat="43.53867" lon="5.55752">
        <ele>567</ele>
        <time>2023-05-28T08:29:33Z</time>
      </trkpt>
      <trkpt lat="43.53867" lon="5.55753">
        <ele>567.1</ele>
        <time>2023-05-28T08:29:34Z</time>
      </trkpt>
      <trkpt lat="43.53868" lon="5.55754">
        <ele>567.1</ele>
        <time>2023-05-28T08:29:35Z</time>
      </trkpt>
      <trkpt lat="43.53868" lon="5.55755">
        <ele>567.3</ele>
        <time>2023-05-28T08:29:36Z</time>
      </trkpt>
      <trkpt lat="43.53867" lon="5.55756">
        <ele>567.4</ele>
        <time>2023-05-28T08:29:37Z</time>
      </trkpt>
      <trkpt lat="43.53867" lon="5.55756">
        <ele>567.5</ele>
        <time>2023-05-28T08:29:38Z</time>
      </trkpt>
      <trkpt lat="43.53867" lon="5.55757">
        <ele>567.6</ele>
        <time>2023-05-28T08:29:39Z</time>
      </trkpt>
      <trkpt lat="43.53867" lon="5.55757">
        <ele>567.7</ele>
        <time>2023-05-28T08:29:40Z</time>
      </trkpt>
      <trkpt lat="43.53867" lon="5.55759">
        <ele>567.8</ele>
        <time>2023-05-28T08:29:41Z</time>
      </trkpt>
      <trkpt lat="43.53868" lon="5.55759">
        <ele>567.9</ele>
        <time>2023-05-28T08:29:42Z</time>
      </trkpt>
      <trkpt lat="43.53868" lon="5.55759">
        <ele>568</ele>
        <time>2023-05-28T08:29:43Z</time>
      </trkpt>
      <trkpt lat="43.53868" lon="5.5576">
        <ele>568</ele>
        <time>2023-05-28T08:29:44Z</time>
      </trkpt>
      <trkpt lat="43.53868" lon="5.5576">
        <ele>568.1</ele>
        <time>2023-05-28T08:29:45Z</time>
      </trkpt>
      <trkpt lat="43.53868" lon="5.55761">
        <ele>568.1</ele>
        <time>2023-05-28T08:29:46Z</time>
      </trkpt>
      <trkpt lat="43.53869" lon="5.55762">
        <ele>568.2</ele>
        <time>2023-05-28T08:29:47Z</time>
      </trkpt>
      <trkpt lat="43.53869" lon="5.55763">
        <ele>568.2</ele>
        <time>2023-05-28T08:29:48Z</time>
      </trkpt>
      <trkpt lat="43.5387" lon="5.55764">
        <ele>568.2</ele>
        <time>2023-05-28T08:29:49Z</time>
      </trkpt>
      <trkpt lat="43.5387" lon="5.55765">
        <ele>568.2</ele>
        <time>2023-05-28T08:29:50Z</time>
      </trkpt>
      <trkpt lat="43.5387" lon="5.55766">
        <ele>568.2</ele>
        <time>2023-05-28T08:29:51Z</time>
      </trkpt>
      <trkpt lat="43.53871" lon="5.55767">
        <ele>568.2</ele>
        <time>2023-05-28T08:29:52Z</time>
      </trkpt>
      <trkpt lat="43.53871" lon="5.55768">
        <ele>568.3</ele>
        <time>2023-05-28T08:29:53Z</time>
      </trkpt>
      <trkpt lat="43.53872" lon="5.55769">
        <ele>568.3</ele>
        <time>2023-05-28T08:29:54Z</time>
      </trkpt>
      <trkpt lat="43.53873" lon="5.5577">
        <ele>568.4</ele>
        <time>2023-05-28T08:29:55Z</time>
      </trkpt>
      <trkpt lat="43.53873" lon="5.55771">
        <ele>568.3</ele>
        <time>2023-05-28T08:29:56Z</time>
      </trkpt>
      <trkpt lat="43.53874" lon="5.55771">
        <ele>568.5</ele>
        <time>2023-05-28T08:29:57Z</time>
      </trkpt>
      <trkpt lat="43.53874" lon="5.55772">
        <ele>568.5</ele>
        <time>2023-05-28T08:29:58Z</time>
      </trkpt>
      <trkpt lat="43.53875" lon="5.55773">
        <ele>568.4</ele>
        <time>2023-05-28T08:29:59Z</time>
      </trkpt>
      <trkpt lat="43.53875" lon="5.55775">
        <ele>568.4</ele>
        <time>2023-05-28T08:30:00Z</time>
      </trkpt>
      <trkpt lat="43.53875" lon="5.55776">
        <ele>568.4</ele>
        <time>2023-05-28T08:30:01Z</time>
      </trkpt>
      <trkpt lat="43.53875" lon="5.55777">
        <ele>568.3</ele>
        <time>2023-05-28T08:30:02Z</time>
      </trkpt>
      <trkpt lat="43.53875" lon="5.55779">
        <ele>568.3</ele>
        <time>2023-05-28T08:30:03Z</time>
      </trkpt>
      <trkpt lat="43.53875" lon="5.55781">
        <ele>568.4</ele>
        <time>2023-05-28T08:30:04Z</time>
      </trkpt>
      <trkpt lat="43.53876" lon="5.55782">
        <ele>568.5</ele>
        <time>2023-05-28T08:30:05Z</time>
      </trkpt>
      <trkpt lat="43.53876" lon="5.55783">
        <ele>568.6</ele>
        <time>2023-05-28T08:30:06Z</time>
      </trkpt>
      <trkpt lat="43.53875" lon="5.55784">
        <ele>568.6</ele>
        <time>2023-05-28T08:30:07Z</time>
      </trkpt>
      <trkpt lat="43.53875" lon="5.55786">
        <ele>568.7</ele>
        <time>2023-05-28T08:30:08Z</time>
      </trkpt>
      <trkpt lat="43.53875" lon="5.55787">
        <ele>568.8</ele>
        <time>2023-05-28T08:30:09Z</time>
      </trkpt>
      <trkpt lat="43.53874" lon="5.55787">
        <ele>569</ele>
        <time>2023-05-28T08:30:10Z</time>
      </trkpt>
      <trkpt lat="43.53874" lon="5.55788">
        <ele>569.2</ele>
        <time>2023-05-28T08:30:11Z</time>
      </trkpt>
      <trkpt lat="43.53874" lon="5.55789">
        <ele>569.4</ele>
        <time>2023-05-28T08:30:12Z</time>
      </trkpt>
      <trkpt lat="43.53874" lon="5.5579">
        <ele>569.5</ele>
        <time>2023-05-28T08:30:13Z</time>
      </trkpt>
      <trkpt lat="43.53874" lon="5.55791">
        <ele>569.7</ele>
        <time>2023-05-28T08:30:14Z</time>
      </trkpt>
      <trkpt lat="43.53874" lon="5.55793">
        <ele>569.9</ele>
        <time>2023-05-28T08:30:15Z</time>
      </trkpt>
      <trkpt lat="43.53874" lon="5.55794">
        <ele>570.1</ele>
        <time>2023-05-28T08:30:16Z</time>
      </trkpt>
      <trkpt lat="43.53873" lon="5.55796">
        <ele>570.3</ele>
        <time>2023-05-28T08:30:17Z</time>
      </trkpt>
      <trkpt lat="43.53873" lon="5.55797">
        <ele>570.4</ele>
        <time>2023-05-28T08:30:18Z</time>
      </trkpt>
      <trkpt lat="43.53873" lon="5.55798">
        <ele>570.6</ele>
        <time>2023-05-28T08:30:19Z</time>
      </trkpt>
      <trkpt lat="43.53872" lon="5.55799">
        <ele>570.8</ele>
        <time>2023-05-28T08:30:20Z</time>
      </trkpt>
      <trkpt lat="43.53872" lon="5.558">
        <ele>571</ele>
        <time>2023-05-28T08:30:21Z</time>
      </trkpt>
      <trkpt lat="43.53872" lon="5.55801">
        <ele>571.2</ele>
        <time>2023-05-28T08:30:22Z</time>
      </trkpt>
      <trkpt lat="43.53872" lon="5.55803">
        <ele>571.4</ele>
        <time>2023-05-28T08:30:23Z</time>
      </trkpt>
      <trkpt lat="43.53872" lon="5.55804">
        <ele>571.6</ele>
        <time>2023-05-28T08:30:24Z</time>
      </trkpt>
      <trkpt lat="43.53872" lon="5.55805">
        <ele>571.7</ele>
        <time>2023-05-28T08:30:25Z</time>
      </trkpt>
      <trkpt lat="43.53872" lon="5.55806">
        <ele>571.9</ele>
        <time>2023-05-28T08:30:26Z</time>
      </trkpt>
      <trkpt lat="43.53872" lon="5.55808">
        <ele>572</ele>
        <time>2023-05-28T08:30:27Z</time>
      </trkpt>
      <trkpt lat="43.53872" lon="5.55809">
        <ele>572.1</ele>
        <time>2023-05-28T08:30:28Z</time>
      </trkpt>
      <trkpt lat="43.53873" lon="5.55809">
        <ele>572.3</ele>
        <time>2023-05-28T08:30:29Z</time>
      </trkpt>
      <trkpt lat="43.53873" lon="5.5581">
        <ele>572.4</ele>
        <time>2023-05-28T08:30:30Z</time>
      </trkpt>
      <trkpt lat="43.53873" lon="5.55812">
        <ele>572.5</ele>
        <time>2023-05-28T08:30:31Z</time>
      </trkpt>
      <trkpt lat="43.53872" lon="5.55812">
        <ele>572.6</ele>
        <time>2023-05-28T08:30:32Z</time>
      </trkpt>
      <trkpt lat="43.53872" lon="5.55813">
        <ele>572.7</ele>
        <time>2023-05-28T08:30:33Z</time>
      </trkpt>
      <trkpt lat="43.53872" lon="5.55815">
        <ele>572.7</ele>
        <time>2023-05-28T08:30:34Z</time>
      </trkpt>
      <trkpt lat="43.53872" lon="5.55816">
        <ele>572.9</ele>
        <time>2023-05-28T08:30:35Z</time>
      </trkpt>
      <trkpt lat="43.53871" lon="5.55817">
        <ele>573</ele>
        <time>2023-05-28T08:30:36Z</time>
      </trkpt>
      <trkpt lat="43.53871" lon="5.55818">
        <ele>573.1</ele>
        <time>2023-05-28T08:30:37Z</time>
      </trkpt>
      <trkpt lat="43.53871" lon="5.55819">
        <ele>573.3</ele>
        <time>2023-05-28T08:30:38Z</time>
      </trkpt>
      <trkpt lat="43.53871" lon="5.5582">
        <ele>573.5</ele>
        <time>2023-05-28T08:30:39Z</time>
      </trkpt>
      <trkpt lat="43.53871" lon="5.55821">
        <ele>573.7</ele>
        <time>2023-05-28T08:30:40Z</time>
      </trkpt>
      <trkpt lat="43.53871" lon="5.55822">
        <ele>573.9</ele>
        <time>2023-05-28T08:30:41Z</time>
      </trkpt>
      <trkpt lat="43.53871" lon="5.55823">
        <ele>574</ele>
        <time>2023-05-28T08:30:42Z</time>
      </trkpt>
      <trkpt lat="43.5387" lon="5.55823">
        <ele>574.1</ele>
        <time>2023-05-28T08:30:43Z</time>
      </trkpt>
      <trkpt lat="43.5387" lon="5.55824">
        <ele>574.3</ele>
        <time>2023-05-28T08:30:44Z</time>
      </trkpt>
      <trkpt lat="43.5387" lon="5.55825">
        <ele>574.4</ele>
        <time>2023-05-28T08:30:45Z</time>
      </trkpt>
      <trkpt lat="43.5387" lon="5.55826">
        <ele>574.6</ele>
        <time>2023-05-28T08:30:46Z</time>
      </trkpt>
      <trkpt lat="43.5387" lon="5.55827">
        <ele>574.7</ele>
        <time>2023-05-28T08:30:47Z</time>
      </trkpt>
      <trkpt lat="43.5387" lon="5.55828">
        <ele>574.9</ele>
        <time>2023-05-28T08:30:48Z</time>
      </trkpt>
      <trkpt lat="43.5387" lon="5.55829">
        <ele>575.1</ele>
        <time>2023-05-28T08:30:49Z</time>
      </trkpt>
      <trkpt lat="43.5387" lon="5.55831">
        <ele>575.2</ele>
        <time>2023-05-28T08:30:50Z</time>
      </trkpt>
      <trkpt lat="43.5387" lon="5.55832">
        <ele>575.3</ele>
        <time>2023-05-28T08:30:51Z</time>
      </trkpt>
      <trkpt lat="43.5387" lon="5.55833">
        <ele>575.3</ele>
        <time>2023-05-28T08:30:52Z</time>
      </trkpt>
      <trkpt lat="43.5387" lon="5.55834">
        <ele>575.5</ele>
        <time>2023-05-28T08:30:53Z</time>
      </trkpt>
      <trkpt lat="43.5387" lon="5.55835">
        <ele>575.7</ele>
        <time>2023-05-28T08:30:54Z</time>
      </trkpt>
      <trkpt lat="43.5387" lon="5.55836">
        <ele>575.9</ele>
        <time>2023-05-28T08:30:55Z</time>
      </trkpt>
      <trkpt lat="43.5387" lon="5.55837">
        <ele>576</ele>
        <time>2023-05-28T08:30:56Z</time>
      </trkpt>
      <trkpt lat="43.53869" lon="5.55838">
        <ele>576.1</ele>
        <time>2023-05-28T08:30:57Z</time>
      </trkpt>
      <trkpt lat="43.53869" lon="5.55839">
        <ele>576.3</ele>
        <time>2023-05-28T08:30:58Z</time>
      </trkpt>
      <trkpt lat="43.53869" lon="5.5584">
        <ele>576.5</ele>
        <time>2023-05-28T08:30:59Z</time>
      </trkpt>
      <trkpt lat="43.53869" lon="5.55841">
        <ele>576.6</ele>
        <time>2023-05-28T08:31:00Z</time>
      </trkpt>
      <trkpt lat="43.53869" lon="5.55841">
        <ele>576.7</ele>
        <time>2023-05-28T08:31:01Z</time>
      </trkpt>
      <trkpt lat="43.53869" lon="5.55842">
        <ele>576.9</ele>
        <time>2023-05-28T08:31:02Z</time>
      </trkpt>
      <trkpt lat="43.53869" lon="5.55842">
        <ele>577.1</ele>
        <time>2023-05-28T08:31:03Z</time>
      </trkpt>
      <trkpt lat="43.53868" lon="5.55842">
        <ele>577.3</ele>
        <time>2023-05-28T08:31:04Z</time>
      </trkpt>
      <trkpt lat="43.53868" lon="5.55844">
        <ele>577.6</ele>
        <time>2023-05-28T08:31:05Z</time>
      </trkpt>
      <trkpt lat="43.53868" lon="5.55845">
        <ele>577.8</ele>
        <time>2023-05-28T08:31:06Z</time>
      </trkpt>
      <trkpt lat="43.53868" lon="5.55846">
        <ele>577.9</ele>
        <time>2023-05-28T08:31:07Z</time>
      </trkpt>
      <trkpt lat="43.53868" lon="5.55847">
        <ele>578</ele>
        <time>2023-05-28T08:31:08Z</time>
      </trkpt>
      <trkpt lat="43.53868" lon="5.55848">
        <ele>578.2</ele>
        <time>2023-05-28T08:31:09Z</time>
      </trkpt>
      <trkpt lat="43.53868" lon="5.55849">
        <ele>578.4</ele>
        <time>2023-05-28T08:31:10Z</time>
      </trkpt>
      <trkpt lat="43.53868" lon="5.55851">
        <ele>578.5</ele>
        <time>2023-05-28T08:31:11Z</time>
      </trkpt>
      <trkpt lat="43.53868" lon="5.55851">
        <ele>578.6</ele>
        <time>2023-05-28T08:31:12Z</time>
      </trkpt>
      <trkpt lat="43.53868" lon="5.55852">
        <ele>578.8</ele>
        <time>2023-05-28T08:31:13Z</time>
      </trkpt>
      <trkpt lat="43.53868" lon="5.55853">
        <ele>578.9</ele>
        <time>2023-05-28T08:31:14Z</time>
      </trkpt>
      <trkpt lat="43.53868" lon="5.55854">
        <ele>579.1</ele>
        <time>2023-05-28T08:31:15Z</time>
      </trkpt>
      <trkpt lat="43.53869" lon="5.55855">
        <ele>579.2</ele>
        <time>2023-05-28T08:31:16Z</time>
      </trkpt>
      <trkpt lat="43.53869" lon="5.55856">
        <ele>579.2</ele>
        <time>2023-05-28T08:31:17Z</time>
      </trkpt>
      <trkpt lat="43.53869" lon="5.55857">
        <ele>579.3</ele>
        <time>2023-05-28T08:31:18Z</time>
      </trkpt>
      <trkpt lat="43.53869" lon="5.55858">
        <ele>579.4</ele>
        <time>2023-05-28T08:31:19Z</time>
      </trkpt>
      <trkpt lat="43.53869" lon="5.55859">
        <ele>579.6</ele>
        <time>2023-05-28T08:31:20Z</time>
      </trkpt>
      <trkpt lat="43.53869" lon="5.5586">
        <ele>579.6</ele>
        <time>2023-05-28T08:31:21Z</time>
      </trkpt>
      <trkpt lat="43.53869" lon="5.55861">
        <ele>579.7</ele>
        <time>2023-05-28T08:31:22Z</time>
      </trkpt>
      <trkpt lat="43.53869" lon="5.55863">
        <ele>579.7</ele>
        <time>2023-05-28T08:31:23Z</time>
      </trkpt>
      <trkpt lat="43.53869" lon="5.55864">
        <ele>579.9</ele>
        <time>2023-05-28T08:31:24Z</time>
      </trkpt>
      <trkpt lat="43.53869" lon="5.55865">
        <ele>579.8</ele>
        <time>2023-05-28T08:31:25Z</time>
      </trkpt>
      <trkpt lat="43.5387" lon="5.55866">
        <ele>579.9</ele>
        <time>2023-05-28T08:31:26Z</time>
      </trkpt>
      <trkpt lat="43.5387" lon="5.55868">
        <ele>580</ele>
        <time>2023-05-28T08:31:27Z</time>
      </trkpt>
      <trkpt lat="43.5387" lon="5.55869">
        <ele>580</ele>
        <time>2023-05-28T08:31:28Z</time>
      </trkpt>
      <trkpt lat="43.5387" lon="5.5587">
        <ele>580.1</ele>
        <time>2023-05-28T08:31:29Z</time>
      </trkpt>
      <trkpt lat="43.5387" lon="5.55871">
        <ele>580.1</ele>
        <time>2023-05-28T08:31:30Z</time>
      </trkpt>
      <trkpt lat="43.53869" lon="5.55872">
        <ele>580.2</ele>
        <time>2023-05-28T08:31:31Z</time>
      </trkpt>
      <trkpt lat="43.53869" lon="5.55872">
        <ele>580.2</ele>
        <time>2023-05-28T08:31:32Z</time>
      </trkpt>
      <trkpt lat="43.53869" lon="5.55873">
        <ele>580.4</ele>
        <time>2023-05-28T08:31:33Z</time>
      </trkpt>
      <trkpt lat="43.53869" lon="5.55873">
        <ele>580.5</ele>
        <time>2023-05-28T08:31:34Z</time>
      </trkpt>
      <trkpt lat="43.53869" lon="5.55873">
        <ele>580.7</ele>
        <time>2023-05-28T08:31:35Z</time>
      </trkpt>
      <trkpt lat="43.53868" lon="5.55873">
        <ele>580.8</ele>
        <time>2023-05-28T08:31:36Z</time>
      </trkpt>
      <trkpt lat="43.53868" lon="5.55873">
        <ele>580.9</ele>
        <time>2023-05-28T08:31:37Z</time>
      </trkpt>
      <trkpt lat="43.53868" lon="5.55874">
        <ele>581</ele>
        <time>2023-05-28T08:31:38Z</time>
      </trkpt>
      <trkpt lat="43.53867" lon="5.55875">
        <ele>581.2</ele>
        <time>2023-05-28T08:31:39Z</time>
      </trkpt>
      <trkpt lat="43.53867" lon="5.55875">
        <ele>581.3</ele>
        <time>2023-05-28T08:31:40Z</time>
      </trkpt>
      <trkpt lat="43.53867" lon="5.55876">
        <ele>581.3</ele>
        <time>2023-05-28T08:31:41Z</time>
      </trkpt>
      <trkpt lat="43.53867" lon="5.55877">
        <ele>581.4</ele>
        <time>2023-05-28T08:31:42Z</time>
      </trkpt>
      <trkpt lat="43.53867" lon="5.55878">
        <ele>581.6</ele>
        <time>2023-05-28T08:31:43Z</time>
      </trkpt>
      <trkpt lat="43.53867" lon="5.5588">
        <ele>581.7</ele>
        <time>2023-05-28T08:31:44Z</time>
      </trkpt>
      <trkpt lat="43.53867" lon="5.55881">
        <ele>581.9</ele>
        <time>2023-05-28T08:31:45Z</time>
      </trkpt>
      <trkpt lat="43.53867" lon="5.55882">
        <ele>582</ele>
        <time>2023-05-28T08:31:46Z</time>
      </trkpt>
      <trkpt lat="43.53868" lon="5.55884">
        <ele>582.1</ele>
        <time>2023-05-28T08:31:47Z</time>
      </trkpt>
      <trkpt lat="43.53868" lon="5.55885">
        <ele>582.1</ele>
        <time>2023-05-28T08:31:48Z</time>
      </trkpt>
      <trkpt lat="43.53868" lon="5.55886">
        <ele>582.2</ele>
        <time>2023-05-28T08:31:49Z</time>
      </trkpt>
      <trkpt lat="43.53868" lon="5.55887">
        <ele>582.2</ele>
        <time>2023-05-28T08:31:50Z</time>
      </trkpt>
      <trkpt lat="43.53868" lon="5.55889">
        <ele>582.4</ele>
        <time>2023-05-28T08:31:51Z</time>
      </trkpt>
      <trkpt lat="43.53868" lon="5.5589">
        <ele>582.5</ele>
        <time>2023-05-28T08:31:52Z</time>
      </trkpt>
      <trkpt lat="43.53868" lon="5.55891">
        <ele>582.6</ele>
        <time>2023-05-28T08:31:53Z</time>
      </trkpt>
      <trkpt lat="43.53868" lon="5.55893">
        <ele>582.7</ele>
        <time>2023-05-28T08:31:54Z</time>
      </trkpt>
      <trkpt lat="43.53868" lon="5.55894">
        <ele>582.7</ele>
        <time>2023-05-28T08:31:55Z</time>
      </trkpt>
      <trkpt lat="43.53868" lon="5.55896">
        <ele>582.8</ele>
        <time>2023-05-28T08:31:56Z</time>
      </trkpt>
      <trkpt lat="43.53869" lon="5.55897">
        <ele>583.1</ele>
        <time>2023-05-28T08:31:57Z</time>
      </trkpt>
      <trkpt lat="43.53869" lon="5.55899">
        <ele>583.2</ele>
        <time>2023-05-28T08:31:58Z</time>
      </trkpt>
      <trkpt lat="43.53869" lon="5.559">
        <ele>583.2</ele>
        <time>2023-05-28T08:31:59Z</time>
      </trkpt>
      <trkpt lat="43.53869" lon="5.55902">
        <ele>583.3</ele>
        <time>2023-05-28T08:32:00Z</time>
      </trkpt>
      <trkpt lat="43.53869" lon="5.55903">
        <ele>583.5</ele>
        <time>2023-05-28T08:32:01Z</time>
      </trkpt>
      <trkpt lat="43.53869" lon="5.55904">
        <ele>583.6</ele>
        <time>2023-05-28T08:32:02Z</time>
      </trkpt>
      <trkpt lat="43.53869" lon="5.55906">
        <ele>583.8</ele>
        <time>2023-05-28T08:32:03Z</time>
      </trkpt>
      <trkpt lat="43.53869" lon="5.55906">
        <ele>583.8</ele>
        <time>2023-05-28T08:32:04Z</time>
      </trkpt>
      <trkpt lat="43.53869" lon="5.55907">
        <ele>583.9</ele>
        <time>2023-05-28T08:32:05Z</time>
      </trkpt>
      <trkpt lat="43.53869" lon="5.55908">
        <ele>584.1</ele>
        <time>2023-05-28T08:32:06Z</time>
      </trkpt>
      <trkpt lat="43.53869" lon="5.55908">
        <ele>584.2</ele>
        <time>2023-05-28T08:32:07Z</time>
      </trkpt>
      <trkpt lat="43.53868" lon="5.55909">
        <ele>584.4</ele>
        <time>2023-05-28T08:32:08Z</time>
      </trkpt>
      <trkpt lat="43.53868" lon="5.55909">
        <ele>584.5</ele>
        <time>2023-05-28T08:32:09Z</time>
      </trkpt>
      <trkpt lat="43.53868" lon="5.5591">
        <ele>584.6</ele>
        <time>2023-05-28T08:32:10Z</time>
      </trkpt>
      <trkpt lat="43.53868" lon="5.55911">
        <ele>584.7</ele>
        <time>2023-05-28T08:32:11Z</time>
      </trkpt>
      <trkpt lat="43.53868" lon="5.55912">
        <ele>584.8</ele>
        <time>2023-05-28T08:32:12Z</time>
      </trkpt>
      <trkpt lat="43.53867" lon="5.55913">
        <ele>585</ele>
        <time>2023-05-28T08:32:13Z</time>
      </trkpt>
      <trkpt lat="43.53867" lon="5.55914">
        <ele>585.2</ele>
        <time>2023-05-28T08:32:14Z</time>
      </trkpt>
      <trkpt lat="43.53868" lon="5.55915">
        <ele>585.5</ele>
        <time>2023-05-28T08:32:15Z</time>
      </trkpt>
      <trkpt lat="43.53868" lon="5.55916">
        <ele>585.7</ele>
        <time>2023-05-28T08:32:16Z</time>
      </trkpt>
      <trkpt lat="43.53868" lon="5.55917">
        <ele>585.8</ele>
        <time>2023-05-28T08:32:17Z</time>
      </trkpt>
      <trkpt lat="43.53868" lon="5.55918">
        <ele>586</ele>
        <time>2023-05-28T08:32:18Z</time>
      </trkpt>
      <trkpt lat="43.53868" lon="5.55919">
        <ele>586.3</ele>
        <time>2023-05-28T08:32:19Z</time>
      </trkpt>
      <trkpt lat="43.53868" lon="5.5592">
        <ele>586.4</ele>
        <time>2023-05-28T08:32:20Z</time>
      </trkpt>
      <trkpt lat="43.53868" lon="5.55921">
        <ele>586.6</ele>
        <time>2023-05-28T08:32:21Z</time>
      </trkpt>
      <trkpt lat="43.53867" lon="5.55922">
        <ele>586.8</ele>
        <time>2023-05-28T08:32:22Z</time>
      </trkpt>
      <trkpt lat="43.53868" lon="5.55923">
        <ele>587</ele>
        <time>2023-05-28T08:32:23Z</time>
      </trkpt>
      <trkpt lat="43.53868" lon="5.55924">
        <ele>587.1</ele>
        <time>2023-05-28T08:32:24Z</time>
      </trkpt>
      <trkpt lat="43.53868" lon="5.55925">
        <ele>587.3</ele>
        <time>2023-05-28T08:32:25Z</time>
      </trkpt>
      <trkpt lat="43.53868" lon="5.55926">
        <ele>587.4</ele>
        <time>2023-05-28T08:32:26Z</time>
      </trkpt>
      <trkpt lat="43.53868" lon="5.55927">
        <ele>587.6</ele>
        <time>2023-05-28T08:32:27Z</time>
      </trkpt>
      <trkpt lat="43.53868" lon="5.55928">
        <ele>587.7</ele>
        <time>2023-05-28T08:32:28Z</time>
      </trkpt>
      <trkpt lat="43.53868" lon="5.55929">
        <ele>587.8</ele>
        <time>2023-05-28T08:32:29Z</time>
      </trkpt>
      <trkpt lat="43.53868" lon="5.5593">
        <ele>587.8</ele>
        <time>2023-05-28T08:32:30Z</time>
      </trkpt>
      <trkpt lat="43.53868" lon="5.55931">
        <ele>588</ele>
        <time>2023-05-28T08:32:31Z</time>
      </trkpt>
      <trkpt lat="43.53868" lon="5.55932">
        <ele>588.1</ele>
        <time>2023-05-28T08:32:32Z</time>
      </trkpt>
      <trkpt lat="43.53868" lon="5.55933">
        <ele>588.3</ele>
        <time>2023-05-28T08:32:33Z</time>
      </trkpt>
      <trkpt lat="43.53868" lon="5.55934">
        <ele>588.4</ele>
        <time>2023-05-28T08:32:34Z</time>
      </trkpt>
      <trkpt lat="43.53868" lon="5.55935">
        <ele>588.5</ele>
        <time>2023-05-28T08:32:35Z</time>
      </trkpt>
      <trkpt lat="43.53868" lon="5.55937">
        <ele>588.7</ele>
        <time>2023-05-28T08:32:36Z</time>
      </trkpt>
      <trkpt lat="43.53868" lon="5.55938">
        <ele>588.9</ele>
        <time>2023-05-28T08:32:37Z</time>
      </trkpt>
      <trkpt lat="43.53869" lon="5.55939">
        <ele>589.1</ele>
        <time>2023-05-28T08:32:38Z</time>
      </trkpt>
      <trkpt lat="43.53869" lon="5.5594">
        <ele>589.3</ele>
        <time>2023-05-28T08:32:39Z</time>
      </trkpt>
      <trkpt lat="43.53869" lon="5.55941">
        <ele>589.5</ele>
        <time>2023-05-28T08:32:40Z</time>
      </trkpt>
      <trkpt lat="43.53869" lon="5.55943">
        <ele>589.7</ele>
        <time>2023-05-28T08:32:41Z</time>
      </trkpt>
      <trkpt lat="43.53869" lon="5.55944">
        <ele>589.8</ele>
        <time>2023-05-28T08:32:42Z</time>
      </trkpt>
      <trkpt lat="43.53869" lon="5.55945">
        <ele>590</ele>
        <time>2023-05-28T08:32:43Z</time>
      </trkpt>
      <trkpt lat="43.5387" lon="5.55947">
        <ele>590.1</ele>
        <time>2023-05-28T08:32:44Z</time>
      </trkpt>
      <trkpt lat="43.5387" lon="5.55948">
        <ele>590.2</ele>
        <time>2023-05-28T08:32:45Z</time>
      </trkpt>
      <trkpt lat="43.5387" lon="5.55949">
        <ele>590.3</ele>
        <time>2023-05-28T08:32:46Z</time>
      </trkpt>
      <trkpt lat="43.5387" lon="5.5595">
        <ele>590.4</ele>
        <time>2023-05-28T08:32:47Z</time>
      </trkpt>
      <trkpt lat="43.5387" lon="5.55951">
        <ele>590.4</ele>
        <time>2023-05-28T08:32:48Z</time>
      </trkpt>
      <trkpt lat="43.5387" lon="5.55952">
        <ele>590.6</ele>
        <time>2023-05-28T08:32:49Z</time>
      </trkpt>
      <trkpt lat="43.5387" lon="5.55953">
        <ele>590.7</ele>
        <time>2023-05-28T08:32:50Z</time>
      </trkpt>
      <trkpt lat="43.53869" lon="5.55954">
        <ele>590.9</ele>
        <time>2023-05-28T08:32:51Z</time>
      </trkpt>
      <trkpt lat="43.53869" lon="5.55955">
        <ele>591</ele>
        <time>2023-05-28T08:32:52Z</time>
      </trkpt>
      <trkpt lat="43.53868" lon="5.55957">
        <ele>591.3</ele>
        <time>2023-05-28T08:32:53Z</time>
      </trkpt>
      <trkpt lat="43.53868" lon="5.55957">
        <ele>591.5</ele>
        <time>2023-05-28T08:32:54Z</time>
      </trkpt>
      <trkpt lat="43.53868" lon="5.55958">
        <ele>591.7</ele>
        <time>2023-05-28T08:32:55Z</time>
      </trkpt>
      <trkpt lat="43.53868" lon="5.55958">
        <ele>591.9</ele>
        <time>2023-05-28T08:32:56Z</time>
      </trkpt>
      <trkpt lat="43.53868" lon="5.5596">
        <ele>592</ele>
        <time>2023-05-28T08:32:57Z</time>
      </trkpt>
      <trkpt lat="43.53868" lon="5.5596">
        <ele>592.2</ele>
        <time>2023-05-28T08:32:58Z</time>
      </trkpt>
      <trkpt lat="43.53868" lon="5.55961">
        <ele>592.4</ele>
        <time>2023-05-28T08:32:59Z</time>
      </trkpt>
      <trkpt lat="43.53868" lon="5.55962">
        <ele>592.5</ele>
        <time>2023-05-28T08:33:00Z</time>
      </trkpt>
      <trkpt lat="43.53868" lon="5.55963">
        <ele>592.6</ele>
        <time>2023-05-28T08:33:01Z</time>
      </trkpt>
      <trkpt lat="43.53868" lon="5.55964">
        <ele>592.7</ele>
        <time>2023-05-28T08:33:02Z</time>
      </trkpt>
      <trkpt lat="43.53868" lon="5.55965">
        <ele>592.7</ele>
        <time>2023-05-28T08:33:03Z</time>
      </trkpt>
      <trkpt lat="43.53868" lon="5.55966">
        <ele>592.9</ele>
        <time>2023-05-28T08:33:04Z</time>
      </trkpt>
      <trkpt lat="43.53868" lon="5.55967">
        <ele>593.1</ele>
        <time>2023-05-28T08:33:05Z</time>
      </trkpt>
      <trkpt lat="43.53868" lon="5.55967">
        <ele>593.2</ele>
        <time>2023-05-28T08:33:06Z</time>
      </trkpt>
      <trkpt lat="43.53868" lon="5.55968">
        <ele>593.4</ele>
        <time>2023-05-28T08:33:07Z</time>
      </trkpt>
      <trkpt lat="43.53868" lon="5.5597">
        <ele>593.6</ele>
        <time>2023-05-28T08:33:08Z</time>
      </trkpt>
      <trkpt lat="43.53867" lon="5.55971">
        <ele>593.7</ele>
        <time>2023-05-28T08:33:09Z</time>
      </trkpt>
      <trkpt lat="43.53867" lon="5.55971">
        <ele>593.8</ele>
        <time>2023-05-28T08:33:10Z</time>
      </trkpt>
      <trkpt lat="43.53867" lon="5.55972">
        <ele>593.9</ele>
        <time>2023-05-28T08:33:11Z</time>
      </trkpt>
      <trkpt lat="43.53867" lon="5.55972">
        <ele>594</ele>
        <time>2023-05-28T08:33:12Z</time>
      </trkpt>
      <trkpt lat="43.53866" lon="5.55973">
        <ele>594.2</ele>
        <time>2023-05-28T08:33:13Z</time>
      </trkpt>
      <trkpt lat="43.53866" lon="5.55974">
        <ele>594.4</ele>
        <time>2023-05-28T08:33:14Z</time>
      </trkpt>
      <trkpt lat="43.53866" lon="5.55975">
        <ele>594.5</ele>
        <time>2023-05-28T08:33:15Z</time>
      </trkpt>
      <trkpt lat="43.53866" lon="5.55977">
        <ele>594.7</ele>
        <time>2023-05-28T08:33:16Z</time>
      </trkpt>
      <trkpt lat="43.53867" lon="5.55978">
        <ele>595</ele>
        <time>2023-05-28T08:33:17Z</time>
      </trkpt>
      <trkpt lat="43.53867" lon="5.55979">
        <ele>595.2</ele>
        <time>2023-05-28T08:33:18Z</time>
      </trkpt>
      <trkpt lat="43.53867" lon="5.5598">
        <ele>595.4</ele>
        <time>2023-05-28T08:33:19Z</time>
      </trkpt>
      <trkpt lat="43.53867" lon="5.55981">
        <ele>595.5</ele>
        <time>2023-05-28T08:33:20Z</time>
      </trkpt>
      <trkpt lat="43.53867" lon="5.55982">
        <ele>595.6</ele>
        <time>2023-05-28T08:33:21Z</time>
      </trkpt>
      <trkpt lat="43.53867" lon="5.55983">
        <ele>595.7</ele>
        <time>2023-05-28T08:33:22Z</time>
      </trkpt>
      <trkpt lat="43.53867" lon="5.55985">
        <ele>595.8</ele>
        <time>2023-05-28T08:33:23Z</time>
      </trkpt>
      <trkpt lat="43.53867" lon="5.55986">
        <ele>595.9</ele>
        <time>2023-05-28T08:33:24Z</time>
      </trkpt>
      <trkpt lat="43.53867" lon="5.55987">
        <ele>596</ele>
        <time>2023-05-28T08:33:25Z</time>
      </trkpt>
      <trkpt lat="43.53867" lon="5.55988">
        <ele>596.1</ele>
        <time>2023-05-28T08:33:26Z</time>
      </trkpt>
      <trkpt lat="43.53867" lon="5.55989">
        <ele>596.2</ele>
        <time>2023-05-28T08:33:27Z</time>
      </trkpt>
      <trkpt lat="43.53867" lon="5.5599">
        <ele>596.3</ele>
        <time>2023-05-28T08:33:28Z</time>
      </trkpt>
      <trkpt lat="43.53867" lon="5.55992">
        <ele>596.5</ele>
        <time>2023-05-28T08:33:29Z</time>
      </trkpt>
      <trkpt lat="43.53867" lon="5.55993">
        <ele>596.6</ele>
        <time>2023-05-28T08:33:30Z</time>
      </trkpt>
      <trkpt lat="43.53867" lon="5.55994">
        <ele>596.7</ele>
        <time>2023-05-28T08:33:31Z</time>
      </trkpt>
      <trkpt lat="43.53867" lon="5.55996">
        <ele>596.7</ele>
        <time>2023-05-28T08:33:32Z</time>
      </trkpt>
      <trkpt lat="43.53867" lon="5.55997">
        <ele>596.8</ele>
        <time>2023-05-28T08:33:33Z</time>
      </trkpt>
      <trkpt lat="43.53867" lon="5.55998">
        <ele>596.9</ele>
        <time>2023-05-28T08:33:34Z</time>
      </trkpt>
      <trkpt lat="43.53867" lon="5.55999">
        <ele>597.1</ele>
        <time>2023-05-28T08:33:35Z</time>
      </trkpt>
      <trkpt lat="43.53868" lon="5.56">
        <ele>597.2</ele>
        <time>2023-05-28T08:33:36Z</time>
      </trkpt>
      <trkpt lat="43.53868" lon="5.56001">
        <ele>597.4</ele>
        <time>2023-05-28T08:33:37Z</time>
      </trkpt>
      <trkpt lat="43.53869" lon="5.56001">
        <ele>597.5</ele>
        <time>2023-05-28T08:33:38Z</time>
      </trkpt>
      <trkpt lat="43.53869" lon="5.56001">
        <ele>597.5</ele>
        <time>2023-05-28T08:33:39Z</time>
      </trkpt>
      <trkpt lat="43.5387" lon="5.56001">
        <ele>597.4</ele>
        <time>2023-05-28T08:33:40Z</time>
      </trkpt>
      <trkpt lat="43.53871" lon="5.56002">
        <ele>597.3</ele>
        <time>2023-05-28T08:33:41Z</time>
      </trkpt>
      <trkpt lat="43.53872" lon="5.56003">
        <ele>597.1</ele>
        <time>2023-05-28T08:33:42Z</time>
      </trkpt>
      <trkpt lat="43.53872" lon="5.56003">
        <ele>597</ele>
        <time>2023-05-28T08:33:43Z</time>
      </trkpt>
      <trkpt lat="43.53874" lon="5.56004">
        <ele>596.9</ele>
        <time>2023-05-28T08:33:44Z</time>
      </trkpt>
      <trkpt lat="43.53875" lon="5.56006">
        <ele>596.8</ele>
        <time>2023-05-28T08:33:45Z</time>
      </trkpt>
      <trkpt lat="43.53875" lon="5.56007">
        <ele>596.6</ele>
        <time>2023-05-28T08:33:46Z</time>
      </trkpt>
      <trkpt lat="43.53876" lon="5.56008">
        <ele>596.5</ele>
        <time>2023-05-28T08:33:47Z</time>
      </trkpt>
      <trkpt lat="43.53877" lon="5.56009">
        <ele>596.2</ele>
        <time>2023-05-28T08:33:48Z</time>
      </trkpt>
      <trkpt lat="43.53878" lon="5.5601">
        <ele>596</ele>
        <time>2023-05-28T08:33:49Z</time>
      </trkpt>
      <trkpt lat="43.53878" lon="5.56011">
        <ele>595.9</ele>
        <time>2023-05-28T08:33:50Z</time>
      </trkpt>
      <trkpt lat="43.53879" lon="5.56012">
        <ele>595.8</ele>
        <time>2023-05-28T08:33:51Z</time>
      </trkpt>
      <trkpt lat="43.5388" lon="5.56013">
        <ele>595.7</ele>
        <time>2023-05-28T08:33:52Z</time>
      </trkpt>
      <trkpt lat="43.5388" lon="5.56014">
        <ele>595.6</ele>
        <time>2023-05-28T08:33:53Z</time>
      </trkpt>
      <trkpt lat="43.5388" lon="5.56016">
        <ele>595.6</ele>
        <time>2023-05-28T08:33:54Z</time>
      </trkpt>
      <trkpt lat="43.5388" lon="5.56017">
        <ele>595.6</ele>
        <time>2023-05-28T08:33:55Z</time>
      </trkpt>
      <trkpt lat="43.5388" lon="5.56018">
        <ele>595.6</ele>
        <time>2023-05-28T08:33:56Z</time>
      </trkpt>
      <trkpt lat="43.5388" lon="5.56018">
        <ele>595.5</ele>
        <time>2023-05-28T08:33:57Z</time>
      </trkpt>
      <trkpt lat="43.5388" lon="5.56018">
        <ele>595.5</ele>
        <time>2023-05-28T08:33:58Z</time>
      </trkpt>
      <trkpt lat="43.5388" lon="5.56018">
        <ele>595.6</ele>
        <time>2023-05-28T08:33:59Z</time>
      </trkpt>
      <trkpt lat="43.5388" lon="5.56018">
        <ele>595.6</ele>
        <time>2023-05-28T08:34:00Z</time>
      </trkpt>
      <trkpt lat="43.5388" lon="5.56018">
        <ele>595.6</ele>
        <time>2023-05-28T08:34:01Z</time>
      </trkpt>
      <trkpt lat="43.5388" lon="5.56018">
        <ele>595.5</ele>
        <time>2023-05-28T08:34:02Z</time>
      </trkpt>
      <trkpt lat="43.5388" lon="5.56018">
        <ele>595.5</ele>
        <time>2023-05-28T08:34:03Z</time>
      </trkpt>
      <trkpt lat="43.53881" lon="5.56019">
        <ele>595.5</ele>
        <time>2023-05-28T08:34:04Z</time>
      </trkpt>
      <trkpt lat="43.53881" lon="5.56019">
        <ele>595.5</ele>
        <time>2023-05-28T08:34:05Z</time>
      </trkpt>
      <trkpt lat="43.5388" lon="5.56019">
        <ele>595.5</ele>
        <time>2023-05-28T08:34:06Z</time>
      </trkpt>
      <trkpt lat="43.5388" lon="5.5602">
        <ele>595.5</ele>
        <time>2023-05-28T08:34:07Z</time>
      </trkpt>
      <trkpt lat="43.5388" lon="5.5602">
        <ele>595.5</ele>
        <time>2023-05-28T08:34:08Z</time>
      </trkpt>
      <trkpt lat="43.5388" lon="5.5602">
        <ele>595.5</ele>
        <time>2023-05-28T08:34:09Z</time>
      </trkpt>
      <trkpt lat="43.53879" lon="5.5602">
        <ele>595.4</ele>
        <time>2023-05-28T08:34:10Z</time>
      </trkpt>
      <trkpt lat="43.5388" lon="5.5602">
        <ele>595.5</ele>
        <time>2023-05-28T08:34:11Z</time>
      </trkpt>
      <trkpt lat="43.5388" lon="5.5602">
        <ele>595.4</ele>
        <time>2023-05-28T08:34:12Z</time>
      </trkpt>
      <trkpt lat="43.5388" lon="5.5602">
        <ele>595.5</ele>
        <time>2023-05-28T08:34:13Z</time>
      </trkpt>
      <trkpt lat="43.5388" lon="5.5602">
        <ele>595.3</ele>
        <time>2023-05-28T08:34:14Z</time>
      </trkpt>
      <trkpt lat="43.5388" lon="5.5602">
        <ele>595.3</ele>
        <time>2023-05-28T08:34:15Z</time>
      </trkpt>
      <trkpt lat="43.5388" lon="5.5602">
        <ele>595.2</ele>
        <time>2023-05-28T08:34:16Z</time>
      </trkpt>
      <trkpt lat="43.5388" lon="5.5602">
        <ele>595.1</ele>
        <time>2023-05-28T08:34:17Z</time>
      </trkpt>
      <trkpt lat="43.5388" lon="5.5602">
        <ele>595.1</ele>
        <time>2023-05-28T08:34:18Z</time>
      </trkpt>
      <trkpt lat="43.5388" lon="5.5602">
        <ele>595.1</ele>
        <time>2023-05-28T08:34:19Z</time>
      </trkpt>
      <trkpt lat="43.53881" lon="5.56021">
        <ele>595.1</ele>
        <time>2023-05-28T08:34:20Z</time>
      </trkpt>
      <trkpt lat="43.53881" lon="5.56022">
        <ele>595.1</ele>
        <time>2023-05-28T08:34:21Z</time>
      </trkpt>
      <trkpt lat="43.53881" lon="5.56023">
        <ele>595.1</ele>
        <time>2023-05-28T08:34:22Z</time>
      </trkpt>
      <trkpt lat="43.53881" lon="5.56024">
        <ele>595.1</ele>
        <time>2023-05-28T08:34:23Z</time>
      </trkpt>
      <trkpt lat="43.53882" lon="5.56025">
        <ele>595.1</ele>
        <time>2023-05-28T08:34:24Z</time>
      </trkpt>
      <trkpt lat="43.53882" lon="5.56026">
        <ele>595.1</ele>
        <time>2023-05-28T08:34:25Z</time>
      </trkpt>
      <trkpt lat="43.53882" lon="5.56027">
        <ele>595.1</ele>
        <time>2023-05-28T08:34:26Z</time>
      </trkpt>
      <trkpt lat="43.53882" lon="5.56028">
        <ele>595.1</ele>
        <time>2023-05-28T08:34:27Z</time>
      </trkpt>
      <trkpt lat="43.53883" lon="5.56029">
        <ele>594.9</ele>
        <time>2023-05-28T08:34:28Z</time>
      </trkpt>
      <trkpt lat="43.53883" lon="5.5603">
        <ele>594.8</ele>
        <time>2023-05-28T08:34:29Z</time>
      </trkpt>
      <trkpt lat="43.53883" lon="5.56032">
        <ele>594.7</ele>
        <time>2023-05-28T08:34:30Z</time>
      </trkpt>
      <trkpt lat="43.53884" lon="5.56033">
        <ele>594.7</ele>
        <time>2023-05-28T08:34:31Z</time>
      </trkpt>
      <trkpt lat="43.53884" lon="5.56034">
        <ele>594.7</ele>
        <time>2023-05-28T08:34:32Z</time>
      </trkpt>
      <trkpt lat="43.53885" lon="5.56035">
        <ele>594.7</ele>
        <time>2023-05-28T08:34:33Z</time>
      </trkpt>
      <trkpt lat="43.53886" lon="5.56036">
        <ele>594.8</ele>
        <time>2023-05-28T08:34:34Z</time>
      </trkpt>
      <trkpt lat="43.53886" lon="5.56038">
        <ele>594.8</ele>
        <time>2023-05-28T08:34:35Z</time>
      </trkpt>
      <trkpt lat="43.53886" lon="5.56039">
        <ele>594.8</ele>
        <time>2023-05-28T08:34:36Z</time>
      </trkpt>
      <trkpt lat="43.53886" lon="5.56041">
        <ele>594.8</ele>
        <time>2023-05-28T08:34:37Z</time>
      </trkpt>
      <trkpt lat="43.53887" lon="5.56042">
        <ele>594.8</ele>
        <time>2023-05-28T08:34:38Z</time>
      </trkpt>
      <trkpt lat="43.53888" lon="5.56043">
        <ele>594.8</ele>
        <time>2023-05-28T08:34:39Z</time>
      </trkpt>
      <trkpt lat="43.53889" lon="5.56044">
        <ele>594.8</ele>
        <time>2023-05-28T08:34:40Z</time>
      </trkpt>
      <trkpt lat="43.5389" lon="5.56046">
        <ele>594.8</ele>
        <time>2023-05-28T08:34:41Z</time>
      </trkpt>
      <trkpt lat="43.5389" lon="5.56047">
        <ele>594.7</ele>
        <time>2023-05-28T08:34:42Z</time>
      </trkpt>
      <trkpt lat="43.53891" lon="5.56049">
        <ele>594.7</ele>
        <time>2023-05-28T08:34:43Z</time>
      </trkpt>
      <trkpt lat="43.53891" lon="5.5605">
        <ele>594.7</ele>
        <time>2023-05-28T08:34:44Z</time>
      </trkpt>
      <trkpt lat="43.53891" lon="5.56052">
        <ele>594.8</ele>
        <time>2023-05-28T08:34:45Z</time>
      </trkpt>
      <trkpt lat="43.53891" lon="5.56053">
        <ele>594.8</ele>
        <time>2023-05-28T08:34:46Z</time>
      </trkpt>
      <trkpt lat="43.53892" lon="5.56055">
        <ele>594.8</ele>
        <time>2023-05-28T08:34:47Z</time>
      </trkpt>
      <trkpt lat="43.53893" lon="5.56056">
        <ele>594.9</ele>
        <time>2023-05-28T08:34:48Z</time>
      </trkpt>
      <trkpt lat="43.53893" lon="5.56057">
        <ele>594.9</ele>
        <time>2023-05-28T08:34:49Z</time>
      </trkpt>
      <trkpt lat="43.53894" lon="5.56059">
        <ele>595</ele>
        <time>2023-05-28T08:34:50Z</time>
      </trkpt>
      <trkpt lat="43.53894" lon="5.5606">
        <ele>595</ele>
        <time>2023-05-28T08:34:51Z</time>
      </trkpt>
      <trkpt lat="43.53895" lon="5.56062">
        <ele>594.9</ele>
        <time>2023-05-28T08:34:52Z</time>
      </trkpt>
      <trkpt lat="43.53895" lon="5.56063">
        <ele>594.9</ele>
        <time>2023-05-28T08:34:53Z</time>
      </trkpt>
      <trkpt lat="43.53895" lon="5.56064">
        <ele>594.8</ele>
        <time>2023-05-28T08:34:54Z</time>
      </trkpt>
      <trkpt lat="43.53895" lon="5.56065">
        <ele>594.8</ele>
        <time>2023-05-28T08:34:55Z</time>
      </trkpt>
      <trkpt lat="43.53895" lon="5.56066">
        <ele>594.7</ele>
        <time>2023-05-28T08:34:56Z</time>
      </trkpt>
      <trkpt lat="43.53895" lon="5.56068">
        <ele>594.7</ele>
        <time>2023-05-28T08:34:57Z</time>
      </trkpt>
      <trkpt lat="43.53896" lon="5.56069">
        <ele>594.7</ele>
        <time>2023-05-28T08:34:58Z</time>
      </trkpt>
      <trkpt lat="43.53896" lon="5.56071">
        <ele>594.7</ele>
        <time>2023-05-28T08:34:59Z</time>
      </trkpt>
      <trkpt lat="43.53896" lon="5.56072">
        <ele>594.8</ele>
        <time>2023-05-28T08:35:00Z</time>
      </trkpt>
      <trkpt lat="43.53896" lon="5.56074">
        <ele>594.8</ele>
        <time>2023-05-28T08:35:01Z</time>
      </trkpt>
      <trkpt lat="43.53896" lon="5.56075">
        <ele>594.8</ele>
        <time>2023-05-28T08:35:02Z</time>
      </trkpt>
      <trkpt lat="43.53896" lon="5.56076">
        <ele>594.8</ele>
        <time>2023-05-28T08:35:03Z</time>
      </trkpt>
      <trkpt lat="43.53896" lon="5.56077">
        <ele>594.9</ele>
        <time>2023-05-28T08:35:04Z</time>
      </trkpt>
      <trkpt lat="43.53896" lon="5.56079">
        <ele>594.9</ele>
        <time>2023-05-28T08:35:05Z</time>
      </trkpt>
      <trkpt lat="43.53896" lon="5.5608">
        <ele>594.8</ele>
        <time>2023-05-28T08:35:06Z</time>
      </trkpt>
      <trkpt lat="43.53897" lon="5.56082">
        <ele>594.7</ele>
        <time>2023-05-28T08:35:07Z</time>
      </trkpt>
      <trkpt lat="43.53896" lon="5.56084">
        <ele>594.7</ele>
        <time>2023-05-28T08:35:08Z</time>
      </trkpt>
      <trkpt lat="43.53896" lon="5.56085">
        <ele>594.7</ele>
        <time>2023-05-28T08:35:09Z</time>
      </trkpt>
      <trkpt lat="43.53896" lon="5.56086">
        <ele>594.7</ele>
        <time>2023-05-28T08:35:10Z</time>
      </trkpt>
      <trkpt lat="43.53896" lon="5.56088">
        <ele>594.6</ele>
        <time>2023-05-28T08:35:11Z</time>
      </trkpt>
      <trkpt lat="43.53896" lon="5.56089">
        <ele>594.6</ele>
        <time>2023-05-28T08:35:12Z</time>
      </trkpt>
      <trkpt lat="43.53895" lon="5.5609">
        <ele>594.6</ele>
        <time>2023-05-28T08:35:13Z</time>
      </trkpt>
      <trkpt lat="43.53895" lon="5.56091">
        <ele>594.7</ele>
        <time>2023-05-28T08:35:14Z</time>
      </trkpt>
      <trkpt lat="43.53894" lon="5.56092">
        <ele>594.7</ele>
        <time>2023-05-28T08:35:15Z</time>
      </trkpt>
      <trkpt lat="43.53894" lon="5.56093">
        <ele>594.8</ele>
        <time>2023-05-28T08:35:16Z</time>
      </trkpt>
      <trkpt lat="43.53893" lon="5.56094">
        <ele>594.9</ele>
        <time>2023-05-28T08:35:17Z</time>
      </trkpt>
      <trkpt lat="43.53893" lon="5.56095">
        <ele>594.8</ele>
        <time>2023-05-28T08:35:18Z</time>
      </trkpt>
      <trkpt lat="43.53892" lon="5.56096">
        <ele>594.9</ele>
        <time>2023-05-28T08:35:19Z</time>
      </trkpt>
      <trkpt lat="43.53891" lon="5.56096">
        <ele>595</ele>
        <time>2023-05-28T08:35:20Z</time>
      </trkpt>
      <trkpt lat="43.53891" lon="5.56096">
        <ele>595.1</ele>
        <time>2023-05-28T08:35:21Z</time>
      </trkpt>
      <trkpt lat="43.5389" lon="5.56097">
        <ele>595.2</ele>
        <time>2023-05-28T08:35:22Z</time>
      </trkpt>
      <trkpt lat="43.5389" lon="5.56097">
        <ele>595.3</ele>
        <time>2023-05-28T08:35:23Z</time>
      </trkpt>
      <trkpt lat="43.53889" lon="5.56098">
        <ele>595.4</ele>
        <time>2023-05-28T08:35:24Z</time>
      </trkpt>
      <trkpt lat="43.53889" lon="5.56098">
        <ele>595.5</ele>
        <time>2023-05-28T08:35:25Z</time>
      </trkpt>
      <trkpt lat="43.53888" lon="5.56099">
        <ele>595.7</ele>
        <time>2023-05-28T08:35:26Z</time>
      </trkpt>
      <trkpt lat="43.53888" lon="5.561">
        <ele>595.8</ele>
        <time>2023-05-28T08:35:27Z</time>
      </trkpt>
      <trkpt lat="43.53888" lon="5.561">
        <ele>595.9</ele>
        <time>2023-05-28T08:35:28Z</time>
      </trkpt>
      <trkpt lat="43.53888" lon="5.561">
        <ele>596.1</ele>
        <time>2023-05-28T08:35:29Z</time>
      </trkpt>
      <trkpt lat="43.53887" lon="5.56101">
        <ele>596.1</ele>
        <time>2023-05-28T08:35:30Z</time>
      </trkpt>
      <trkpt lat="43.53887" lon="5.56102">
        <ele>596.1</ele>
        <time>2023-05-28T08:35:31Z</time>
      </trkpt>
      <trkpt lat="43.53886" lon="5.56103">
        <ele>596.2</ele>
        <time>2023-05-28T08:35:32Z</time>
      </trkpt>
      <trkpt lat="43.53885" lon="5.56103">
        <ele>596.3</ele>
        <time>2023-05-28T08:35:33Z</time>
      </trkpt>
      <trkpt lat="43.53885" lon="5.56104">
        <ele>596.3</ele>
        <time>2023-05-28T08:35:34Z</time>
      </trkpt>
      <trkpt lat="43.53884" lon="5.56106">
        <ele>596.3</ele>
        <time>2023-05-28T08:35:35Z</time>
      </trkpt>
      <trkpt lat="43.53884" lon="5.56107">
        <ele>596.4</ele>
        <time>2023-05-28T08:35:36Z</time>
      </trkpt>
      <trkpt lat="43.53883" lon="5.56107">
        <ele>596.4</ele>
        <time>2023-05-28T08:35:37Z</time>
      </trkpt>
      <trkpt lat="43.53883" lon="5.56108">
        <ele>596.3</ele>
        <time>2023-05-28T08:35:38Z</time>
      </trkpt>
      <trkpt lat="43.53882" lon="5.56109">
        <ele>596.4</ele>
        <time>2023-05-28T08:35:39Z</time>
      </trkpt>
      <trkpt lat="43.53882" lon="5.56109">
        <ele>596.4</ele>
        <time>2023-05-28T08:35:40Z</time>
      </trkpt>
      <trkpt lat="43.53882" lon="5.5611">
        <ele>596.5</ele>
        <time>2023-05-28T08:35:41Z</time>
      </trkpt>
      <trkpt lat="43.53881" lon="5.56111">
        <ele>596.4</ele>
        <time>2023-05-28T08:35:42Z</time>
      </trkpt>
      <trkpt lat="43.5388" lon="5.56111">
        <ele>596.4</ele>
        <time>2023-05-28T08:35:43Z</time>
      </trkpt>
      <trkpt lat="43.53879" lon="5.56112">
        <ele>596.4</ele>
        <time>2023-05-28T08:35:44Z</time>
      </trkpt>
      <trkpt lat="43.53878" lon="5.56112">
        <ele>596.5</ele>
        <time>2023-05-28T08:35:45Z</time>
      </trkpt>
      <trkpt lat="43.53877" lon="5.56113">
        <ele>596.6</ele>
        <time>2023-05-28T08:35:46Z</time>
      </trkpt>
      <trkpt lat="43.53877" lon="5.56114">
        <ele>596.6</ele>
        <time>2023-05-28T08:35:47Z</time>
      </trkpt>
      <trkpt lat="43.53876" lon="5.56115">
        <ele>596.7</ele>
        <time>2023-05-28T08:35:48Z</time>
      </trkpt>
      <trkpt lat="43.53875" lon="5.56116">
        <ele>596.7</ele>
        <time>2023-05-28T08:35:49Z</time>
      </trkpt>
      <trkpt lat="43.53875" lon="5.56117">
        <ele>596.7</ele>
        <time>2023-05-28T08:35:50Z</time>
      </trkpt>
      <trkpt lat="43.53874" lon="5.56118">
        <ele>596.7</ele>
        <time>2023-05-28T08:35:51Z</time>
      </trkpt>
      <trkpt lat="43.53873" lon="5.56119">
        <ele>596.7</ele>
        <time>2023-05-28T08:35:52Z</time>
      </trkpt>
      <trkpt lat="43.53873" lon="5.56119">
        <ele>596.7</ele>
        <time>2023-05-28T08:35:53Z</time>
      </trkpt>
      <trkpt lat="43.53872" lon="5.5612">
        <ele>596.7</ele>
        <time>2023-05-28T08:35:54Z</time>
      </trkpt>
      <trkpt lat="43.53872" lon="5.56121">
        <ele>596.7</ele>
        <time>2023-05-28T08:35:55Z</time>
      </trkpt>
      <trkpt lat="43.53871" lon="5.56122">
        <ele>596.6</ele>
        <time>2023-05-28T08:35:56Z</time>
      </trkpt>
      <trkpt lat="43.53871" lon="5.56123">
        <ele>596.6</ele>
        <time>2023-05-28T08:35:57Z</time>
      </trkpt>
      <trkpt lat="43.5387" lon="5.56124">
        <ele>596.7</ele>
        <time>2023-05-28T08:35:58Z</time>
      </trkpt>
      <trkpt lat="43.53869" lon="5.56125">
        <ele>596.6</ele>
        <time>2023-05-28T08:35:59Z</time>
      </trkpt>
      <trkpt lat="43.53869" lon="5.56125">
        <ele>596.6</ele>
        <time>2023-05-28T08:36:00Z</time>
      </trkpt>
      <trkpt lat="43.53868" lon="5.56126">
        <ele>596.6</ele>
        <time>2023-05-28T08:36:01Z</time>
      </trkpt>
      <trkpt lat="43.53868" lon="5.56127">
        <ele>596.6</ele>
        <time>2023-05-28T08:36:02Z</time>
      </trkpt>
      <trkpt lat="43.53868" lon="5.56127">
        <ele>596.6</ele>
        <time>2023-05-28T08:36:03Z</time>
      </trkpt>
      <trkpt lat="43.53867" lon="5.56127">
        <ele>596.6</ele>
        <time>2023-05-28T08:36:04Z</time>
      </trkpt>
      <trkpt lat="43.53866" lon="5.56126">
        <ele>596.6</ele>
        <time>2023-05-28T08:36:05Z</time>
      </trkpt>
      <trkpt lat="43.53866" lon="5.56125">
        <ele>596.5</ele>
        <time>2023-05-28T08:36:06Z</time>
      </trkpt>
      <trkpt lat="43.53866" lon="5.56125">
        <ele>596.5</ele>
        <time>2023-05-28T08:36:07Z</time>
      </trkpt>
      <trkpt lat="43.53866" lon="5.56125">
        <ele>596.4</ele>
        <time>2023-05-28T08:36:08Z</time>
      </trkpt>
      <trkpt lat="43.53866" lon="5.56125">
        <ele>596.4</ele>
        <time>2023-05-28T08:36:09Z</time>
      </trkpt>
      <trkpt lat="43.53866" lon="5.56126">
        <ele>596.3</ele>
        <time>2023-05-28T08:36:10Z</time>
      </trkpt>
      <trkpt lat="43.53866" lon="5.56126">
        <ele>596.4</ele>
        <time>2023-05-28T08:36:11Z</time>
      </trkpt>
      <trkpt lat="43.53866" lon="5.56126">
        <ele>596.3</ele>
        <time>2023-05-28T08:36:12Z</time>
      </trkpt>
      <trkpt lat="43.53866" lon="5.56126">
        <ele>596.2</ele>
        <time>2023-05-28T08:36:13Z</time>
      </trkpt>
      <trkpt lat="43.53866" lon="5.56126">
        <ele>596.1</ele>
        <time>2023-05-28T08:36:14Z</time>
      </trkpt>
      <trkpt lat="43.53866" lon="5.56126">
        <ele>596</ele>
        <time>2023-05-28T08:36:15Z</time>
      </trkpt>
      <trkpt lat="43.53866" lon="5.56126">
        <ele>596</ele>
        <time>2023-05-28T08:36:16Z</time>
      </trkpt>
      <trkpt lat="43.53866" lon="5.56127">
        <ele>595.9</ele>
        <time>2023-05-28T08:36:17Z</time>
      </trkpt>
      <trkpt lat="43.53867" lon="5.56127">
        <ele>595.9</ele>
        <time>2023-05-28T08:36:18Z</time>
      </trkpt>
      <trkpt lat="43.53867" lon="5.56127">
        <ele>595.9</ele>
        <time>2023-05-28T08:36:19Z</time>
      </trkpt>
      <trkpt lat="43.53867" lon="5.56127">
        <ele>595.9</ele>
        <time>2023-05-28T08:36:20Z</time>
      </trkpt>
      <trkpt lat="43.53867" lon="5.56127">
        <ele>596</ele>
        <time>2023-05-28T08:36:21Z</time>
      </trkpt>
      <trkpt lat="43.53866" lon="5.56127">
        <ele>596</ele>
        <time>2023-05-28T08:36:22Z</time>
      </trkpt>
      <trkpt lat="43.53867" lon="5.56127">
        <ele>596</ele>
        <time>2023-05-28T08:36:23Z</time>
      </trkpt>
      <trkpt lat="43.53867" lon="5.56127">
        <ele>595.9</ele>
        <time>2023-05-28T08:36:24Z</time>
      </trkpt>
      <trkpt lat="43.53867" lon="5.56127">
        <ele>596</ele>
        <time>2023-05-28T08:36:25Z</time>
      </trkpt>
      <trkpt lat="43.53867" lon="5.56127">
        <ele>596</ele>
        <time>2023-05-28T08:36:26Z</time>
      </trkpt>
      <trkpt lat="43.53867" lon="5.56127">
        <ele>596</ele>
        <time>2023-05-28T08:36:27Z</time>
      </trkpt>
      <trkpt lat="43.53867" lon="5.56127">
        <ele>596</ele>
        <time>2023-05-28T08:36:28Z</time>
      </trkpt>
      <trkpt lat="43.53867" lon="5.56127">
        <ele>596</ele>
        <time>2023-05-28T08:36:29Z</time>
      </trkpt>
      <trkpt lat="43.53867" lon="5.56127">
        <ele>596</ele>
        <time>2023-05-28T08:36:30Z</time>
      </trkpt>
      <trkpt lat="43.53867" lon="5.56127">
        <ele>595.9</ele>
        <time>2023-05-28T08:36:31Z</time>
      </trkpt>
      <trkpt lat="43.53867" lon="5.56127">
        <ele>595.9</ele>
        <time>2023-05-28T08:36:32Z</time>
      </trkpt>
      <trkpt lat="43.53867" lon="5.56127">
        <ele>595.9</ele>
        <time>2023-05-28T08:36:33Z</time>
      </trkpt>
      <trkpt lat="43.53867" lon="5.56127">
        <ele>595.8</ele>
        <time>2023-05-28T08:36:34Z</time>
      </trkpt>
      <trkpt lat="43.53867" lon="5.56127">
        <ele>595.8</ele>
        <time>2023-05-28T08:36:35Z</time>
      </trkpt>
      <trkpt lat="43.53867" lon="5.56127">
        <ele>595.7</ele>
        <time>2023-05-28T08:36:36Z</time>
      </trkpt>
      <trkpt lat="43.53867" lon="5.56128">
        <ele>595.7</ele>
        <time>2023-05-28T08:36:37Z</time>
      </trkpt>
      <trkpt lat="43.53868" lon="5.56128">
        <ele>595.8</ele>
        <time>2023-05-28T08:36:38Z</time>
      </trkpt>
      <trkpt lat="43.53868" lon="5.56128">
        <ele>595.8</ele>
        <time>2023-05-28T08:36:39Z</time>
      </trkpt>
      <trkpt lat="43.53868" lon="5.56128">
        <ele>595.8</ele>
        <time>2023-05-28T08:36:40Z</time>
      </trkpt>
      <trkpt lat="43.53868" lon="5.56128">
        <ele>595.9</ele>
        <time>2023-05-28T08:36:41Z</time>
      </trkpt>
      <trkpt lat="43.53868" lon="5.56128">
        <ele>595.9</ele>
        <time>2023-05-28T08:36:42Z</time>
      </trkpt>
      <trkpt lat="43.53868" lon="5.56128">
        <ele>595.9</ele>
        <time>2023-05-28T08:36:43Z</time>
      </trkpt>
      <trkpt lat="43.53868" lon="5.56128">
        <ele>595.9</ele>
        <time>2023-05-28T08:36:44Z</time>
      </trkpt>
      <trkpt lat="43.53868" lon="5.56129">
        <ele>595.9</ele>
        <time>2023-05-28T08:36:45Z</time>
      </trkpt>
      <trkpt lat="43.53868" lon="5.56129">
        <ele>595.8</ele>
        <time>2023-05-28T08:36:46Z</time>
      </trkpt>
      <trkpt lat="43.53868" lon="5.56129">
        <ele>595.8</ele>
        <time>2023-05-28T08:36:47Z</time>
      </trkpt>
      <trkpt lat="43.53868" lon="5.56129">
        <ele>595.8</ele>
        <time>2023-05-28T08:36:48Z</time>
      </trkpt>
      <trkpt lat="43.53868" lon="5.56129">
        <ele>595.8</ele>
        <time>2023-05-28T08:36:49Z</time>
      </trkpt>
      <trkpt lat="43.53868" lon="5.56129">
        <ele>595.8</ele>
        <time>2023-05-28T08:36:50Z</time>
      </trkpt>
      <trkpt lat="43.53868" lon="5.56129">
        <ele>595.7</ele>
        <time>2023-05-28T08:36:51Z</time>
      </trkpt>
      <trkpt lat="43.53868" lon="5.56129">
        <ele>595.7</ele>
        <time>2023-05-28T08:36:52Z</time>
      </trkpt>
      <trkpt lat="43.53868" lon="5.56129">
        <ele>595.7</ele>
        <time>2023-05-28T08:36:53Z</time>
      </trkpt>
      <trkpt lat="43.53868" lon="5.5613">
        <ele>595.6</ele>
        <time>2023-05-28T08:36:54Z</time>
      </trkpt>
      <trkpt lat="43.53867" lon="5.56131">
        <ele>595.6</ele>
        <time>2023-05-28T08:36:55Z</time>
      </trkpt>
      <trkpt lat="43.53867" lon="5.56132">
        <ele>595.6</ele>
        <time>2023-05-28T08:36:56Z</time>
      </trkpt>
      <trkpt lat="43.53866" lon="5.56132">
        <ele>595.5</ele>
        <time>2023-05-28T08:36:57Z</time>
      </trkpt>
      <trkpt lat="43.53866" lon="5.56133">
        <ele>595.4</ele>
        <time>2023-05-28T08:36:58Z</time>
      </trkpt>
      <trkpt lat="43.53865" lon="5.56134">
        <ele>595.3</ele>
        <time>2023-05-28T08:36:59Z</time>
      </trkpt>
      <trkpt lat="43.53865" lon="5.56135">
        <ele>595.1</ele>
        <time>2023-05-28T08:37:00Z</time>
      </trkpt>
      <trkpt lat="43.53864" lon="5.56135">
        <ele>595</ele>
        <time>2023-05-28T08:37:01Z</time>
      </trkpt>
      <trkpt lat="43.53864" lon="5.56135">
        <ele>594.9</ele>
        <time>2023-05-28T08:37:02Z</time>
      </trkpt>
      <trkpt lat="43.53864" lon="5.56136">
        <ele>594.8</ele>
        <time>2023-05-28T08:37:03Z</time>
      </trkpt>
      <trkpt lat="43.53863" lon="5.56138">
        <ele>594.7</ele>
        <time>2023-05-28T08:37:04Z</time>
      </trkpt>
      <trkpt lat="43.53863" lon="5.56139">
        <ele>594.6</ele>
        <time>2023-05-28T08:37:05Z</time>
      </trkpt>
      <trkpt lat="43.53862" lon="5.5614">
        <ele>594.4</ele>
        <time>2023-05-28T08:37:06Z</time>
      </trkpt>
      <trkpt lat="43.53862" lon="5.56141">
        <ele>594.3</ele>
        <time>2023-05-28T08:37:07Z</time>
      </trkpt>
      <trkpt lat="43.53861" lon="5.56142">
        <ele>594.3</ele>
        <time>2023-05-28T08:37:08Z</time>
      </trkpt>
      <trkpt lat="43.5386" lon="5.56143">
        <ele>594.2</ele>
        <time>2023-05-28T08:37:09Z</time>
      </trkpt>
      <trkpt lat="43.53859" lon="5.56144">
        <ele>594.1</ele>
        <time>2023-05-28T08:37:10Z</time>
      </trkpt>
      <trkpt lat="43.53858" lon="5.56145">
        <ele>594.1</ele>
        <time>2023-05-28T08:37:11Z</time>
      </trkpt>
      <trkpt lat="43.53857" lon="5.56146">
        <ele>594</ele>
        <time>2023-05-28T08:37:12Z</time>
      </trkpt>
      <trkpt lat="43.53856" lon="5.56147">
        <ele>593.9</ele>
        <time>2023-05-28T08:37:13Z</time>
      </trkpt>
      <trkpt lat="43.53855" lon="5.56148">
        <ele>593.8</ele>
        <time>2023-05-28T08:37:14Z</time>
      </trkpt>
      <trkpt lat="43.53854" lon="5.56149">
        <ele>593.8</ele>
        <time>2023-05-28T08:37:15Z</time>
      </trkpt>
      <trkpt lat="43.53852" lon="5.5615">
        <ele>593.7</ele>
        <time>2023-05-28T08:37:16Z</time>
      </trkpt>
      <trkpt lat="43.53851" lon="5.56151">
        <ele>593.7</ele>
        <time>2023-05-28T08:37:17Z</time>
      </trkpt>
      <trkpt lat="43.5385" lon="5.56151">
        <ele>593.7</ele>
        <time>2023-05-28T08:37:18Z</time>
      </trkpt>
      <trkpt lat="43.53849" lon="5.56152">
        <ele>593.7</ele>
        <time>2023-05-28T08:37:19Z</time>
      </trkpt>
      <trkpt lat="43.53847" lon="5.56153">
        <ele>593.7</ele>
        <time>2023-05-28T08:37:20Z</time>
      </trkpt>
      <trkpt lat="43.53846" lon="5.56154">
        <ele>593.8</ele>
        <time>2023-05-28T08:37:21Z</time>
      </trkpt>
      <trkpt lat="43.53844" lon="5.56156">
        <ele>593.8</ele>
        <time>2023-05-28T08:37:22Z</time>
      </trkpt>
      <trkpt lat="43.53844" lon="5.56157">
        <ele>593.9</ele>
        <time>2023-05-28T08:37:23Z</time>
      </trkpt>
      <trkpt lat="43.53843" lon="5.56159">
        <ele>594</ele>
        <time>2023-05-28T08:37:24Z</time>
      </trkpt>
      <trkpt lat="43.53843" lon="5.5616">
        <ele>594</ele>
        <time>2023-05-28T08:37:25Z</time>
      </trkpt>
      <trkpt lat="43.53844" lon="5.56162">
        <ele>594</ele>
        <time>2023-05-28T08:37:26Z</time>
      </trkpt>
      <trkpt lat="43.53844" lon="5.56164">
        <ele>594</ele>
        <time>2023-05-28T08:37:27Z</time>
      </trkpt>
      <trkpt lat="43.53845" lon="5.56166">
        <ele>594</ele>
        <time>2023-05-28T08:37:28Z</time>
      </trkpt>
      <trkpt lat="43.53844" lon="5.56167">
        <ele>593.9</ele>
        <time>2023-05-28T08:37:29Z</time>
      </trkpt>
      <trkpt lat="43.53844" lon="5.56167">
        <ele>593.9</ele>
        <time>2023-05-28T08:37:30Z</time>
      </trkpt>
      <trkpt lat="43.53843" lon="5.56168">
        <ele>593.9</ele>
        <time>2023-05-28T08:37:31Z</time>
      </trkpt>
      <trkpt lat="43.53842" lon="5.56169">
        <ele>593.8</ele>
        <time>2023-05-28T08:37:32Z</time>
      </trkpt>
      <trkpt lat="43.53842" lon="5.56171">
        <ele>593.7</ele>
        <time>2023-05-28T08:37:33Z</time>
      </trkpt>
      <trkpt lat="43.53841" lon="5.56172">
        <ele>593.7</ele>
        <time>2023-05-28T08:37:34Z</time>
      </trkpt>
      <trkpt lat="43.5384" lon="5.56174">
        <ele>593.6</ele>
        <time>2023-05-28T08:37:35Z</time>
      </trkpt>
      <trkpt lat="43.53839" lon="5.56175">
        <ele>593.7</ele>
        <time>2023-05-28T08:37:36Z</time>
      </trkpt>
      <trkpt lat="43.53838" lon="5.56177">
        <ele>593.7</ele>
        <time>2023-05-28T08:37:37Z</time>
      </trkpt>
      <trkpt lat="43.53837" lon="5.56178">
        <ele>593.8</ele>
        <time>2023-05-28T08:37:38Z</time>
      </trkpt>
      <trkpt lat="43.53837" lon="5.56179">
        <ele>593.8</ele>
        <time>2023-05-28T08:37:39Z</time>
      </trkpt>
      <trkpt lat="43.53836" lon="5.5618">
        <ele>593.8</ele>
        <time>2023-05-28T08:37:40Z</time>
      </trkpt>
      <trkpt lat="43.53835" lon="5.56181">
        <ele>593.8</ele>
        <time>2023-05-28T08:37:41Z</time>
      </trkpt>
      <trkpt lat="43.53834" lon="5.56182">
        <ele>593.9</ele>
        <time>2023-05-28T08:37:42Z</time>
      </trkpt>
      <trkpt lat="43.53833" lon="5.56183">
        <ele>593.9</ele>
        <time>2023-05-28T08:37:43Z</time>
      </trkpt>
      <trkpt lat="43.53833" lon="5.56184">
        <ele>593.9</ele>
        <time>2023-05-28T08:37:44Z</time>
      </trkpt>
      <trkpt lat="43.53832" lon="5.56186">
        <ele>593.9</ele>
        <time>2023-05-28T08:37:45Z</time>
      </trkpt>
      <trkpt lat="43.53832" lon="5.56187">
        <ele>594</ele>
        <time>2023-05-28T08:37:46Z</time>
      </trkpt>
      <trkpt lat="43.53831" lon="5.56188">
        <ele>594</ele>
        <time>2023-05-28T08:37:47Z</time>
      </trkpt>
      <trkpt lat="43.53832" lon="5.5619">
        <ele>593.9</ele>
        <time>2023-05-28T08:37:48Z</time>
      </trkpt>
      <trkpt lat="43.53832" lon="5.56191">
        <ele>593.9</ele>
        <time>2023-05-28T08:37:49Z</time>
      </trkpt>
      <trkpt lat="43.53832" lon="5.56193">
        <ele>593.8</ele>
        <time>2023-05-28T08:37:50Z</time>
      </trkpt>
      <trkpt lat="43.53832" lon="5.56195">
        <ele>593.7</ele>
        <time>2023-05-28T08:37:51Z</time>
      </trkpt>
      <trkpt lat="43.53832" lon="5.56196">
        <ele>593.7</ele>
        <time>2023-05-28T08:37:52Z</time>
      </trkpt>
      <trkpt lat="43.53832" lon="5.56198">
        <ele>593.7</ele>
        <time>2023-05-28T08:37:53Z</time>
      </trkpt>
      <trkpt lat="43.53832" lon="5.56199">
        <ele>593.7</ele>
        <time>2023-05-28T08:37:54Z</time>
      </trkpt>
      <trkpt lat="43.53831" lon="5.562">
        <ele>593.7</ele>
        <time>2023-05-28T08:37:55Z</time>
      </trkpt>
      <trkpt lat="43.5383" lon="5.56201">
        <ele>593.6</ele>
        <time>2023-05-28T08:37:56Z</time>
      </trkpt>
      <trkpt lat="43.5383" lon="5.56203">
        <ele>593.6</ele>
        <time>2023-05-28T08:37:57Z</time>
      </trkpt>
      <trkpt lat="43.5383" lon="5.56205">
        <ele>593.5</ele>
        <time>2023-05-28T08:37:58Z</time>
      </trkpt>
      <trkpt lat="43.5383" lon="5.56206">
        <ele>593.4</ele>
        <time>2023-05-28T08:37:59Z</time>
      </trkpt>
      <trkpt lat="43.5383" lon="5.56208">
        <ele>593.4</ele>
        <time>2023-05-28T08:38:00Z</time>
      </trkpt>
      <trkpt lat="43.5383" lon="5.56209">
        <ele>593.4</ele>
        <time>2023-05-28T08:38:01Z</time>
      </trkpt>
      <trkpt lat="43.53829" lon="5.56211">
        <ele>593.5</ele>
        <time>2023-05-28T08:38:02Z</time>
      </trkpt>
      <trkpt lat="43.53829" lon="5.56212">
        <ele>593.6</ele>
        <time>2023-05-28T08:38:03Z</time>
      </trkpt>
      <trkpt lat="43.53829" lon="5.56214">
        <ele>593.6</ele>
        <time>2023-05-28T08:38:04Z</time>
      </trkpt>
      <trkpt lat="43.53828" lon="5.56216">
        <ele>593.6</ele>
        <time>2023-05-28T08:38:05Z</time>
      </trkpt>
      <trkpt lat="43.53828" lon="5.56217">
        <ele>593.6</ele>
        <time>2023-05-28T08:38:06Z</time>
      </trkpt>
      <trkpt lat="43.53828" lon="5.56218">
        <ele>593.6</ele>
        <time>2023-05-28T08:38:07Z</time>
      </trkpt>
      <trkpt lat="43.53828" lon="5.56219">
        <ele>593.6</ele>
        <time>2023-05-28T08:38:08Z</time>
      </trkpt>
      <trkpt lat="43.53828" lon="5.5622">
        <ele>593.6</ele>
        <time>2023-05-28T08:38:09Z</time>
      </trkpt>
      <trkpt lat="43.53827" lon="5.56221">
        <ele>593.5</ele>
        <time>2023-05-28T08:38:10Z</time>
      </trkpt>
      <trkpt lat="43.53827" lon="5.56223">
        <ele>593.5</ele>
        <time>2023-05-28T08:38:11Z</time>
      </trkpt>
      <trkpt lat="43.53826" lon="5.56224">
        <ele>593.5</ele>
        <time>2023-05-28T08:38:12Z</time>
      </trkpt>
      <trkpt lat="43.53826" lon="5.56225">
        <ele>593.5</ele>
        <time>2023-05-28T08:38:13Z</time>
      </trkpt>
      <trkpt lat="43.53825" lon="5.56227">
        <ele>593.5</ele>
        <time>2023-05-28T08:38:14Z</time>
      </trkpt>
      <trkpt lat="43.53825" lon="5.56228">
        <ele>593.5</ele>
        <time>2023-05-28T08:38:15Z</time>
      </trkpt>
      <trkpt lat="43.53825" lon="5.5623">
        <ele>593.6</ele>
        <time>2023-05-28T08:38:16Z</time>
      </trkpt>
      <trkpt lat="43.53825" lon="5.56231">
        <ele>593.7</ele>
        <time>2023-05-28T08:38:17Z</time>
      </trkpt>
      <trkpt lat="43.53825" lon="5.56233">
        <ele>593.9</ele>
        <time>2023-05-28T08:38:18Z</time>
      </trkpt>
      <trkpt lat="43.53825" lon="5.56235">
        <ele>594</ele>
        <time>2023-05-28T08:38:19Z</time>
      </trkpt>
      <trkpt lat="43.53825" lon="5.56237">
        <ele>594.1</ele>
        <time>2023-05-28T08:38:20Z</time>
      </trkpt>
      <trkpt lat="43.53825" lon="5.56238">
        <ele>594.1</ele>
        <time>2023-05-28T08:38:21Z</time>
      </trkpt>
      <trkpt lat="43.53824" lon="5.5624">
        <ele>594.1</ele>
        <time>2023-05-28T08:38:22Z</time>
      </trkpt>
      <trkpt lat="43.53824" lon="5.56241">
        <ele>594</ele>
        <time>2023-05-28T08:38:23Z</time>
      </trkpt>
      <trkpt lat="43.53824" lon="5.56242">
        <ele>594</ele>
        <time>2023-05-28T08:38:24Z</time>
      </trkpt>
      <trkpt lat="43.53824" lon="5.56244">
        <ele>593.9</ele>
        <time>2023-05-28T08:38:25Z</time>
      </trkpt>
      <trkpt lat="43.53825" lon="5.56245">
        <ele>593.8</ele>
        <time>2023-05-28T08:38:26Z</time>
      </trkpt>
      <trkpt lat="43.53825" lon="5.56246">
        <ele>593.8</ele>
        <time>2023-05-28T08:38:27Z</time>
      </trkpt>
      <trkpt lat="43.53826" lon="5.56248">
        <ele>593.7</ele>
        <time>2023-05-28T08:38:28Z</time>
      </trkpt>
      <trkpt lat="43.53826" lon="5.56249">
        <ele>593.4</ele>
        <time>2023-05-28T08:38:29Z</time>
      </trkpt>
      <trkpt lat="43.53826" lon="5.56251">
        <ele>593.2</ele>
        <time>2023-05-28T08:38:30Z</time>
      </trkpt>
      <trkpt lat="43.53826" lon="5.56253">
        <ele>593.1</ele>
        <time>2023-05-28T08:38:31Z</time>
      </trkpt>
      <trkpt lat="43.53826" lon="5.56254">
        <ele>593</ele>
        <time>2023-05-28T08:38:32Z</time>
      </trkpt>
      <trkpt lat="43.53826" lon="5.56256">
        <ele>592.9</ele>
        <time>2023-05-28T08:38:33Z</time>
      </trkpt>
      <trkpt lat="43.53826" lon="5.56257">
        <ele>592.8</ele>
        <time>2023-05-28T08:38:34Z</time>
      </trkpt>
      <trkpt lat="43.53826" lon="5.56259">
        <ele>592.7</ele>
        <time>2023-05-28T08:38:35Z</time>
      </trkpt>
      <trkpt lat="43.53826" lon="5.56261">
        <ele>592.7</ele>
        <time>2023-05-28T08:38:36Z</time>
      </trkpt>
      <trkpt lat="43.53826" lon="5.56262">
        <ele>592.7</ele>
        <time>2023-05-28T08:38:37Z</time>
      </trkpt>
      <trkpt lat="43.53825" lon="5.56264">
        <ele>592.8</ele>
        <time>2023-05-28T08:38:38Z</time>
      </trkpt>
      <trkpt lat="43.53825" lon="5.56265">
        <ele>592.8</ele>
        <time>2023-05-28T08:38:39Z</time>
      </trkpt>
      <trkpt lat="43.53825" lon="5.56267">
        <ele>592.7</ele>
        <time>2023-05-28T08:38:40Z</time>
      </trkpt>
      <trkpt lat="43.53825" lon="5.56268">
        <ele>592.6</ele>
        <time>2023-05-28T08:38:41Z</time>
      </trkpt>
      <trkpt lat="43.53826" lon="5.5627">
        <ele>592.6</ele>
        <time>2023-05-28T08:38:42Z</time>
      </trkpt>
      <trkpt lat="43.53826" lon="5.56272">
        <ele>592.6</ele>
        <time>2023-05-28T08:38:43Z</time>
      </trkpt>
      <trkpt lat="43.53826" lon="5.56273">
        <ele>592.5</ele>
        <time>2023-05-28T08:38:44Z</time>
      </trkpt>
      <trkpt lat="43.53827" lon="5.56275">
        <ele>592.5</ele>
        <time>2023-05-28T08:38:45Z</time>
      </trkpt>
      <trkpt lat="43.53827" lon="5.56276">
        <ele>592.4</ele>
        <time>2023-05-28T08:38:46Z</time>
      </trkpt>
      <trkpt lat="43.53827" lon="5.56278">
        <ele>592.4</ele>
        <time>2023-05-28T08:38:47Z</time>
      </trkpt>
      <trkpt lat="43.53828" lon="5.56279">
        <ele>592.3</ele>
        <time>2023-05-28T08:38:48Z</time>
      </trkpt>
      <trkpt lat="43.53828" lon="5.56281">
        <ele>592.3</ele>
        <time>2023-05-28T08:38:49Z</time>
      </trkpt>
      <trkpt lat="43.53828" lon="5.56282">
        <ele>592.2</ele>
        <time>2023-05-28T08:38:50Z</time>
      </trkpt>
      <trkpt lat="43.53828" lon="5.56283">
        <ele>592.1</ele>
        <time>2023-05-28T08:38:51Z</time>
      </trkpt>
      <trkpt lat="43.53828" lon="5.56284">
        <ele>592.1</ele>
        <time>2023-05-28T08:38:52Z</time>
      </trkpt>
      <trkpt lat="43.53828" lon="5.56286">
        <ele>592.1</ele>
        <time>2023-05-28T08:38:53Z</time>
      </trkpt>
      <trkpt lat="43.53829" lon="5.56287">
        <ele>592</ele>
        <time>2023-05-28T08:38:54Z</time>
      </trkpt>
      <trkpt lat="43.53829" lon="5.56288">
        <ele>592</ele>
        <time>2023-05-28T08:38:55Z</time>
      </trkpt>
      <trkpt lat="43.5383" lon="5.56289">
        <ele>591.9</ele>
        <time>2023-05-28T08:38:56Z</time>
      </trkpt>
      <trkpt lat="43.5383" lon="5.56291">
        <ele>591.8</ele>
        <time>2023-05-28T08:38:57Z</time>
      </trkpt>
      <trkpt lat="43.53831" lon="5.56292">
        <ele>591.7</ele>
        <time>2023-05-28T08:38:58Z</time>
      </trkpt>
      <trkpt lat="43.53831" lon="5.56293">
        <ele>591.7</ele>
        <time>2023-05-28T08:38:59Z</time>
      </trkpt>
      <trkpt lat="43.53831" lon="5.56295">
        <ele>591.6</ele>
        <time>2023-05-28T08:39:00Z</time>
      </trkpt>
      <trkpt lat="43.53831" lon="5.56296">
        <ele>591.5</ele>
        <time>2023-05-28T08:39:01Z</time>
      </trkpt>
      <trkpt lat="43.53831" lon="5.56298">
        <ele>591.4</ele>
        <time>2023-05-28T08:39:02Z</time>
      </trkpt>
      <trkpt lat="43.53831" lon="5.56299">
        <ele>591.4</ele>
        <time>2023-05-28T08:39:03Z</time>
      </trkpt>
      <trkpt lat="43.53831" lon="5.56301">
        <ele>591.4</ele>
        <time>2023-05-28T08:39:04Z</time>
      </trkpt>
      <trkpt lat="43.53831" lon="5.56303">
        <ele>591.4</ele>
        <time>2023-05-28T08:39:05Z</time>
      </trkpt>
      <trkpt lat="43.53831" lon="5.56304">
        <ele>591.4</ele>
        <time>2023-05-28T08:39:06Z</time>
      </trkpt>
      <trkpt lat="43.5383" lon="5.56305">
        <ele>591.3</ele>
        <time>2023-05-28T08:39:07Z</time>
      </trkpt>
      <trkpt lat="43.5383" lon="5.56307">
        <ele>591.3</ele>
        <time>2023-05-28T08:39:08Z</time>
      </trkpt>
      <trkpt lat="43.5383" lon="5.56308">
        <ele>591.3</ele>
        <time>2023-05-28T08:39:09Z</time>
      </trkpt>
      <trkpt lat="43.5383" lon="5.5631">
        <ele>591.3</ele>
        <time>2023-05-28T08:39:10Z</time>
      </trkpt>
      <trkpt lat="43.53829" lon="5.56311">
        <ele>591.3</ele>
        <time>2023-05-28T08:39:11Z</time>
      </trkpt>
      <trkpt lat="43.53829" lon="5.56312">
        <ele>591.3</ele>
        <time>2023-05-28T08:39:12Z</time>
      </trkpt>
      <trkpt lat="43.53828" lon="5.56313">
        <ele>591.4</ele>
        <time>2023-05-28T08:39:13Z</time>
      </trkpt>
      <trkpt lat="43.53828" lon="5.56314">
        <ele>591.4</ele>
        <time>2023-05-28T08:39:14Z</time>
      </trkpt>
      <trkpt lat="43.53827" lon="5.56315">
        <ele>591.5</ele>
        <time>2023-05-28T08:39:15Z</time>
      </trkpt>
      <trkpt lat="43.53827" lon="5.56316">
        <ele>591.4</ele>
        <time>2023-05-28T08:39:16Z</time>
      </trkpt>
      <trkpt lat="43.53827" lon="5.56318">
        <ele>591.4</ele>
        <time>2023-05-28T08:39:17Z</time>
      </trkpt>
      <trkpt lat="43.53827" lon="5.56319">
        <ele>591.4</ele>
        <time>2023-05-28T08:39:18Z</time>
      </trkpt>
      <trkpt lat="43.53827" lon="5.5632">
        <ele>591.4</ele>
        <time>2023-05-28T08:39:19Z</time>
      </trkpt>
      <trkpt lat="43.53827" lon="5.56321">
        <ele>591.4</ele>
        <time>2023-05-28T08:39:20Z</time>
      </trkpt>
      <trkpt lat="43.53826" lon="5.56322">
        <ele>591.5</ele>
        <time>2023-05-28T08:39:21Z</time>
      </trkpt>
      <trkpt lat="43.53825" lon="5.56323">
        <ele>591.7</ele>
        <time>2023-05-28T08:39:22Z</time>
      </trkpt>
      <trkpt lat="43.53825" lon="5.56325">
        <ele>591.9</ele>
        <time>2023-05-28T08:39:23Z</time>
      </trkpt>
      <trkpt lat="43.53825" lon="5.56326">
        <ele>592</ele>
        <time>2023-05-28T08:39:24Z</time>
      </trkpt>
      <trkpt lat="43.53826" lon="5.56327">
        <ele>592.1</ele>
        <time>2023-05-28T08:39:25Z</time>
      </trkpt>
      <trkpt lat="43.53826" lon="5.56329">
        <ele>592.2</ele>
        <time>2023-05-28T08:39:26Z</time>
      </trkpt>
      <trkpt lat="43.53827" lon="5.5633">
        <ele>592.2</ele>
        <time>2023-05-28T08:39:27Z</time>
      </trkpt>
      <trkpt lat="43.53827" lon="5.56332">
        <ele>592.3</ele>
        <time>2023-05-28T08:39:28Z</time>
      </trkpt>
      <trkpt lat="43.53827" lon="5.56334">
        <ele>592.4</ele>
        <time>2023-05-28T08:39:29Z</time>
      </trkpt>
      <trkpt lat="43.53827" lon="5.56335">
        <ele>592.4</ele>
        <time>2023-05-28T08:39:30Z</time>
      </trkpt>
      <trkpt lat="43.53827" lon="5.56337">
        <ele>592.6</ele>
        <time>2023-05-28T08:39:31Z</time>
      </trkpt>
      <trkpt lat="43.53827" lon="5.56339">
        <ele>592.6</ele>
        <time>2023-05-28T08:39:32Z</time>
      </trkpt>
      <trkpt lat="43.53827" lon="5.5634">
        <ele>592.7</ele>
        <time>2023-05-28T08:39:33Z</time>
      </trkpt>
      <trkpt lat="43.53827" lon="5.56342">
        <ele>592.8</ele>
        <time>2023-05-28T08:39:34Z</time>
      </trkpt>
      <trkpt lat="43.53827" lon="5.56343">
        <ele>592.9</ele>
        <time>2023-05-28T08:39:35Z</time>
      </trkpt>
      <trkpt lat="43.53828" lon="5.56344">
        <ele>592.9</ele>
        <time>2023-05-28T08:39:36Z</time>
      </trkpt>
      <trkpt lat="43.53828" lon="5.56346">
        <ele>593.1</ele>
        <time>2023-05-28T08:39:37Z</time>
      </trkpt>
      <trkpt lat="43.53828" lon="5.56348">
        <ele>593.2</ele>
        <time>2023-05-28T08:39:38Z</time>
      </trkpt>
      <trkpt lat="43.53828" lon="5.56349">
        <ele>593.2</ele>
        <time>2023-05-28T08:39:39Z</time>
      </trkpt>
      <trkpt lat="43.53828" lon="5.5635">
        <ele>593.1</ele>
        <time>2023-05-28T08:39:40Z</time>
      </trkpt>
      <trkpt lat="43.53828" lon="5.56352">
        <ele>593.1</ele>
        <time>2023-05-28T08:39:41Z</time>
      </trkpt>
      <trkpt lat="43.53827" lon="5.56353">
        <ele>593.1</ele>
        <time>2023-05-28T08:39:42Z</time>
      </trkpt>
      <trkpt lat="43.53827" lon="5.56355">
        <ele>593.1</ele>
        <time>2023-05-28T08:39:43Z</time>
      </trkpt>
      <trkpt lat="43.53827" lon="5.56356">
        <ele>593.2</ele>
        <time>2023-05-28T08:39:44Z</time>
      </trkpt>
      <trkpt lat="43.53828" lon="5.56358">
        <ele>593.3</ele>
        <time>2023-05-28T08:39:45Z</time>
      </trkpt>
      <trkpt lat="43.53828" lon="5.56358">
        <ele>593.3</ele>
        <time>2023-05-28T08:39:46Z</time>
      </trkpt>
      <trkpt lat="43.53828" lon="5.56359">
        <ele>593.4</ele>
        <time>2023-05-28T08:39:47Z</time>
      </trkpt>
      <trkpt lat="43.53828" lon="5.56359">
        <ele>593.5</ele>
        <time>2023-05-28T08:39:48Z</time>
      </trkpt>
      <trkpt lat="43.53828" lon="5.5636">
        <ele>593.5</ele>
        <time>2023-05-28T08:39:49Z</time>
      </trkpt>
      <trkpt lat="43.53828" lon="5.5636">
        <ele>593.6</ele>
        <time>2023-05-28T08:39:50Z</time>
      </trkpt>
      <trkpt lat="43.53828" lon="5.56361">
        <ele>593.6</ele>
        <time>2023-05-28T08:39:51Z</time>
      </trkpt>
      <trkpt lat="43.53828" lon="5.56362">
        <ele>593.6</ele>
        <time>2023-05-28T08:39:52Z</time>
      </trkpt>
      <trkpt lat="43.53828" lon="5.56363">
        <ele>593.7</ele>
        <time>2023-05-28T08:39:53Z</time>
      </trkpt>
      <trkpt lat="43.53829" lon="5.56363">
        <ele>593.8</ele>
        <time>2023-05-28T08:39:54Z</time>
      </trkpt>
      <trkpt lat="43.53828" lon="5.56364">
        <ele>593.9</ele>
        <time>2023-05-28T08:39:55Z</time>
      </trkpt>
      <trkpt lat="43.53829" lon="5.56365">
        <ele>594</ele>
        <time>2023-05-28T08:39:56Z</time>
      </trkpt>
      <trkpt lat="43.53828" lon="5.56366">
        <ele>593.9</ele>
        <time>2023-05-28T08:39:57Z</time>
      </trkpt>
      <trkpt lat="43.53828" lon="5.56367">
        <ele>594</ele>
        <time>2023-05-28T08:39:58Z</time>
      </trkpt>
      <trkpt lat="43.53829" lon="5.56368">
        <ele>594</ele>
        <time>2023-05-28T08:39:59Z</time>
      </trkpt>
      <trkpt lat="43.53829" lon="5.56369">
        <ele>594</ele>
        <time>2023-05-28T08:40:00Z</time>
      </trkpt>
      <trkpt lat="43.53829" lon="5.5637">
        <ele>594</ele>
        <time>2023-05-28T08:40:01Z</time>
      </trkpt>
      <trkpt lat="43.53829" lon="5.56372">
        <ele>593.9</ele>
        <time>2023-05-28T08:40:02Z</time>
      </trkpt>
      <trkpt lat="43.53829" lon="5.56374">
        <ele>593.9</ele>
        <time>2023-05-28T08:40:03Z</time>
      </trkpt>
      <trkpt lat="43.5383" lon="5.56375">
        <ele>594</ele>
        <time>2023-05-28T08:40:04Z</time>
      </trkpt>
      <trkpt lat="43.5383" lon="5.56376">
        <ele>594.1</ele>
        <time>2023-05-28T08:40:05Z</time>
      </trkpt>
      <trkpt lat="43.5383" lon="5.56378">
        <ele>594.2</ele>
        <time>2023-05-28T08:40:06Z</time>
      </trkpt>
      <trkpt lat="43.5383" lon="5.56379">
        <ele>594.4</ele>
        <time>2023-05-28T08:40:07Z</time>
      </trkpt>
      <trkpt lat="43.5383" lon="5.5638">
        <ele>594.6</ele>
        <time>2023-05-28T08:40:08Z</time>
      </trkpt>
      <trkpt lat="43.53831" lon="5.56381">
        <ele>594.7</ele>
        <time>2023-05-28T08:40:09Z</time>
      </trkpt>
      <trkpt lat="43.53831" lon="5.56382">
        <ele>594.7</ele>
        <time>2023-05-28T08:40:10Z</time>
      </trkpt>
      <trkpt lat="43.53831" lon="5.56383">
        <ele>594.8</ele>
        <time>2023-05-28T08:40:11Z</time>
      </trkpt>
      <trkpt lat="43.53831" lon="5.56384">
        <ele>595</ele>
        <time>2023-05-28T08:40:12Z</time>
      </trkpt>
      <trkpt lat="43.53831" lon="5.56385">
        <ele>595</ele>
        <time>2023-05-28T08:40:13Z</time>
      </trkpt>
      <trkpt lat="43.53831" lon="5.56387">
        <ele>595</ele>
        <time>2023-05-28T08:40:14Z</time>
      </trkpt>
      <trkpt lat="43.53831" lon="5.56388">
        <ele>595.1</ele>
        <time>2023-05-28T08:40:15Z</time>
      </trkpt>
      <trkpt lat="43.53832" lon="5.56389">
        <ele>595.1</ele>
        <time>2023-05-28T08:40:16Z</time>
      </trkpt>
      <trkpt lat="43.53833" lon="5.5639">
        <ele>595.1</ele>
        <time>2023-05-28T08:40:17Z</time>
      </trkpt>
      <trkpt lat="43.53833" lon="5.56391">
        <ele>595.3</ele>
        <time>2023-05-28T08:40:18Z</time>
      </trkpt>
      <trkpt lat="43.53834" lon="5.56392">
        <ele>595.4</ele>
        <time>2023-05-28T08:40:19Z</time>
      </trkpt>
      <trkpt lat="43.53835" lon="5.56393">
        <ele>595.5</ele>
        <time>2023-05-28T08:40:20Z</time>
      </trkpt>
      <trkpt lat="43.53835" lon="5.56394">
        <ele>595.7</ele>
        <time>2023-05-28T08:40:21Z</time>
      </trkpt>
      <trkpt lat="43.53836" lon="5.56395">
        <ele>595.8</ele>
        <time>2023-05-28T08:40:22Z</time>
      </trkpt>
      <trkpt lat="43.53836" lon="5.56396">
        <ele>595.9</ele>
        <time>2023-05-28T08:40:23Z</time>
      </trkpt>
      <trkpt lat="43.53836" lon="5.56397">
        <ele>596</ele>
        <time>2023-05-28T08:40:24Z</time>
      </trkpt>
      <trkpt lat="43.53836" lon="5.56399">
        <ele>596.1</ele>
        <time>2023-05-28T08:40:25Z</time>
      </trkpt>
      <trkpt lat="43.53836" lon="5.564">
        <ele>596.2</ele>
        <time>2023-05-28T08:40:26Z</time>
      </trkpt>
      <trkpt lat="43.53836" lon="5.56401">
        <ele>596.3</ele>
        <time>2023-05-28T08:40:27Z</time>
      </trkpt>
      <trkpt lat="43.53837" lon="5.56402">
        <ele>596.4</ele>
        <time>2023-05-28T08:40:28Z</time>
      </trkpt>
      <trkpt lat="43.53837" lon="5.56404">
        <ele>596.4</ele>
        <time>2023-05-28T08:40:29Z</time>
      </trkpt>
      <trkpt lat="43.53837" lon="5.56405">
        <ele>596.6</ele>
        <time>2023-05-28T08:40:30Z</time>
      </trkpt>
      <trkpt lat="43.53837" lon="5.56407">
        <ele>596.7</ele>
        <time>2023-05-28T08:40:31Z</time>
      </trkpt>
      <trkpt lat="43.53837" lon="5.56408">
        <ele>596.8</ele>
        <time>2023-05-28T08:40:32Z</time>
      </trkpt>
      <trkpt lat="43.53837" lon="5.56409">
        <ele>596.9</ele>
        <time>2023-05-28T08:40:33Z</time>
      </trkpt>
      <trkpt lat="43.53837" lon="5.56411">
        <ele>597</ele>
        <time>2023-05-28T08:40:34Z</time>
      </trkpt>
      <trkpt lat="43.53837" lon="5.56412">
        <ele>597.1</ele>
        <time>2023-05-28T08:40:35Z</time>
      </trkpt>
      <trkpt lat="43.53837" lon="5.56414">
        <ele>597.2</ele>
        <time>2023-05-28T08:40:36Z</time>
      </trkpt>
      <trkpt lat="43.53838" lon="5.56415">
        <ele>597.2</ele>
        <time>2023-05-28T08:40:37Z</time>
      </trkpt>
      <trkpt lat="43.53838" lon="5.56416">
        <ele>597.3</ele>
        <time>2023-05-28T08:40:38Z</time>
      </trkpt>
      <trkpt lat="43.53839" lon="5.56418">
        <ele>597.3</ele>
        <time>2023-05-28T08:40:39Z</time>
      </trkpt>
      <trkpt lat="43.53839" lon="5.56419">
        <ele>597.4</ele>
        <time>2023-05-28T08:40:40Z</time>
      </trkpt>
      <trkpt lat="43.5384" lon="5.5642">
        <ele>597.5</ele>
        <time>2023-05-28T08:40:41Z</time>
      </trkpt>
      <trkpt lat="43.5384" lon="5.56422">
        <ele>597.6</ele>
        <time>2023-05-28T08:40:42Z</time>
      </trkpt>
      <trkpt lat="43.53841" lon="5.56423">
        <ele>597.7</ele>
        <time>2023-05-28T08:40:43Z</time>
      </trkpt>
      <trkpt lat="43.53841" lon="5.56424">
        <ele>597.7</ele>
        <time>2023-05-28T08:40:44Z</time>
      </trkpt>
      <trkpt lat="43.53841" lon="5.56425">
        <ele>597.8</ele>
        <time>2023-05-28T08:40:45Z</time>
      </trkpt>
      <trkpt lat="43.53842" lon="5.56426">
        <ele>597.8</ele>
        <time>2023-05-28T08:40:46Z</time>
      </trkpt>
      <trkpt lat="43.53843" lon="5.56427">
        <ele>597.9</ele>
        <time>2023-05-28T08:40:47Z</time>
      </trkpt>
      <trkpt lat="43.53843" lon="5.56429">
        <ele>598</ele>
        <time>2023-05-28T08:40:48Z</time>
      </trkpt>
      <trkpt lat="43.53843" lon="5.5643">
        <ele>598.1</ele>
        <time>2023-05-28T08:40:49Z</time>
      </trkpt>
      <trkpt lat="43.53843" lon="5.5643">
        <ele>598.1</ele>
        <time>2023-05-28T08:40:50Z</time>
      </trkpt>
      <trkpt lat="43.53843" lon="5.56431">
        <ele>598.2</ele>
        <time>2023-05-28T08:40:51Z</time>
      </trkpt>
      <trkpt lat="43.53843" lon="5.56431">
        <ele>598.3</ele>
        <time>2023-05-28T08:40:52Z</time>
      </trkpt>
      <trkpt lat="43.53843" lon="5.56432">
        <ele>598.5</ele>
        <time>2023-05-28T08:40:53Z</time>
      </trkpt>
      <trkpt lat="43.53843" lon="5.56432">
        <ele>598.6</ele>
        <time>2023-05-28T08:40:54Z</time>
      </trkpt>
      <trkpt lat="43.53843" lon="5.56433">
        <ele>598.8</ele>
        <time>2023-05-28T08:40:55Z</time>
      </trkpt>
      <trkpt lat="43.53843" lon="5.56434">
        <ele>598.9</ele>
        <time>2023-05-28T08:40:56Z</time>
      </trkpt>
      <trkpt lat="43.53843" lon="5.56435">
        <ele>598.9</ele>
        <time>2023-05-28T08:40:57Z</time>
      </trkpt>
      <trkpt lat="43.53843" lon="5.56437">
        <ele>599.2</ele>
        <time>2023-05-28T08:40:58Z</time>
      </trkpt>
      <trkpt lat="43.53843" lon="5.56438">
        <ele>599.3</ele>
        <time>2023-05-28T08:40:59Z</time>
      </trkpt>
      <trkpt lat="43.53843" lon="5.56438">
        <ele>599.5</ele>
        <time>2023-05-28T08:41:00Z</time>
      </trkpt>
      <trkpt lat="43.53843" lon="5.56439">
        <ele>599.7</ele>
        <time>2023-05-28T08:41:01Z</time>
      </trkpt>
      <trkpt lat="43.53843" lon="5.5644">
        <ele>599.8</ele>
        <time>2023-05-28T08:41:02Z</time>
      </trkpt>
      <trkpt lat="43.53843" lon="5.56441">
        <ele>600</ele>
        <time>2023-05-28T08:41:03Z</time>
      </trkpt>
      <trkpt lat="43.53843" lon="5.56442">
        <ele>600.1</ele>
        <time>2023-05-28T08:41:04Z</time>
      </trkpt>
      <trkpt lat="43.53843" lon="5.56443">
        <ele>600.2</ele>
        <time>2023-05-28T08:41:05Z</time>
      </trkpt>
      <trkpt lat="43.53843" lon="5.56445">
        <ele>600.4</ele>
        <time>2023-05-28T08:41:06Z</time>
      </trkpt>
      <trkpt lat="43.53844" lon="5.56446">
        <ele>600.6</ele>
        <time>2023-05-28T08:41:07Z</time>
      </trkpt>
      <trkpt lat="43.53844" lon="5.56447">
        <ele>600.7</ele>
        <time>2023-05-28T08:41:08Z</time>
      </trkpt>
      <trkpt lat="43.53843" lon="5.56448">
        <ele>600.8</ele>
        <time>2023-05-28T08:41:09Z</time>
      </trkpt>
      <trkpt lat="43.53844" lon="5.56449">
        <ele>601</ele>
        <time>2023-05-28T08:41:10Z</time>
      </trkpt>
      <trkpt lat="43.53843" lon="5.56449">
        <ele>601.2</ele>
        <time>2023-05-28T08:41:11Z</time>
      </trkpt>
      <trkpt lat="43.53844" lon="5.5645">
        <ele>601.4</ele>
        <time>2023-05-28T08:41:12Z</time>
      </trkpt>
      <trkpt lat="43.53844" lon="5.56451">
        <ele>601.6</ele>
        <time>2023-05-28T08:41:13Z</time>
      </trkpt>
      <trkpt lat="43.53844" lon="5.56452">
        <ele>601.8</ele>
        <time>2023-05-28T08:41:14Z</time>
      </trkpt>
      <trkpt lat="43.53844" lon="5.56453">
        <ele>601.9</ele>
        <time>2023-05-28T08:41:15Z</time>
      </trkpt>
      <trkpt lat="43.53844" lon="5.56454">
        <ele>602.1</ele>
        <time>2023-05-28T08:41:16Z</time>
      </trkpt>
      <trkpt lat="43.53844" lon="5.56455">
        <ele>602.2</ele>
        <time>2023-05-28T08:41:17Z</time>
      </trkpt>
      <trkpt lat="43.53844" lon="5.56456">
        <ele>602.3</ele>
        <time>2023-05-28T08:41:18Z</time>
      </trkpt>
      <trkpt lat="43.53844" lon="5.56458">
        <ele>602.5</ele>
        <time>2023-05-28T08:41:19Z</time>
      </trkpt>
      <trkpt lat="43.53845" lon="5.56459">
        <ele>602.7</ele>
        <time>2023-05-28T08:41:20Z</time>
      </trkpt>
      <trkpt lat="43.53845" lon="5.56461">
        <ele>602.9</ele>
        <time>2023-05-28T08:41:21Z</time>
      </trkpt>
      <trkpt lat="43.53846" lon="5.56462">
        <ele>603.1</ele>
        <time>2023-05-28T08:41:22Z</time>
      </trkpt>
      <trkpt lat="43.53846" lon="5.56463">
        <ele>603.2</ele>
        <time>2023-05-28T08:41:23Z</time>
      </trkpt>
      <trkpt lat="43.53846" lon="5.56463">
        <ele>603.3</ele>
        <time>2023-05-28T08:41:24Z</time>
      </trkpt>
      <trkpt lat="43.53846" lon="5.56464">
        <ele>603.5</ele>
        <time>2023-05-28T08:41:25Z</time>
      </trkpt>
      <trkpt lat="43.53847" lon="5.56465">
        <ele>603.6</ele>
        <time>2023-05-28T08:41:26Z</time>
      </trkpt>
      <trkpt lat="43.53847" lon="5.56466">
        <ele>603.7</ele>
        <time>2023-05-28T08:41:27Z</time>
      </trkpt>
      <trkpt lat="43.53847" lon="5.56467">
        <ele>603.9</ele>
        <time>2023-05-28T08:41:28Z</time>
      </trkpt>
      <trkpt lat="43.53847" lon="5.56468">
        <ele>604</ele>
        <time>2023-05-28T08:41:29Z</time>
      </trkpt>
      <trkpt lat="43.53847" lon="5.56469">
        <ele>604</ele>
        <time>2023-05-28T08:41:30Z</time>
      </trkpt>
      <trkpt lat="43.53848" lon="5.5647">
        <ele>604.1</ele>
        <time>2023-05-28T08:41:31Z</time>
      </trkpt>
      <trkpt lat="43.53848" lon="5.56471">
        <ele>604.2</ele>
        <time>2023-05-28T08:41:32Z</time>
      </trkpt>
      <trkpt lat="43.53848" lon="5.56472">
        <ele>604.2</ele>
        <time>2023-05-28T08:41:33Z</time>
      </trkpt>
      <trkpt lat="43.53849" lon="5.56473">
        <ele>604.2</ele>
        <time>2023-05-28T08:41:34Z</time>
      </trkpt>
      <trkpt lat="43.53849" lon="5.56474">
        <ele>604.3</ele>
        <time>2023-05-28T08:41:35Z</time>
      </trkpt>
      <trkpt lat="43.53849" lon="5.56475">
        <ele>604.4</ele>
        <time>2023-05-28T08:41:36Z</time>
      </trkpt>
      <trkpt lat="43.53849" lon="5.56476">
        <ele>604.6</ele>
        <time>2023-05-28T08:41:37Z</time>
      </trkpt>
      <trkpt lat="43.53849" lon="5.56477">
        <ele>604.7</ele>
        <time>2023-05-28T08:41:38Z</time>
      </trkpt>
      <trkpt lat="43.53849" lon="5.56477">
        <ele>604.8</ele>
        <time>2023-05-28T08:41:39Z</time>
      </trkpt>
      <trkpt lat="43.53849" lon="5.56478">
        <ele>605</ele>
        <time>2023-05-28T08:41:40Z</time>
      </trkpt>
      <trkpt lat="43.5385" lon="5.56479">
        <ele>605.1</ele>
        <time>2023-05-28T08:41:41Z</time>
      </trkpt>
      <trkpt lat="43.5385" lon="5.56479">
        <ele>605.3</ele>
        <time>2023-05-28T08:41:42Z</time>
      </trkpt>
      <trkpt lat="43.5385" lon="5.5648">
        <ele>605.4</ele>
        <time>2023-05-28T08:41:43Z</time>
      </trkpt>
      <trkpt lat="43.5385" lon="5.56481">
        <ele>605.5</ele>
        <time>2023-05-28T08:41:44Z</time>
      </trkpt>
      <trkpt lat="43.5385" lon="5.56482">
        <ele>605.7</ele>
        <time>2023-05-28T08:41:45Z</time>
      </trkpt>
      <trkpt lat="43.5385" lon="5.56483">
        <ele>605.9</ele>
        <time>2023-05-28T08:41:46Z</time>
      </trkpt>
      <trkpt lat="43.53851" lon="5.56484">
        <ele>606.1</ele>
        <time>2023-05-28T08:41:47Z</time>
      </trkpt>
      <trkpt lat="43.5385" lon="5.56485">
        <ele>606.2</ele>
        <time>2023-05-28T08:41:48Z</time>
      </trkpt>
      <trkpt lat="43.5385" lon="5.56486">
        <ele>606.4</ele>
        <time>2023-05-28T08:41:49Z</time>
      </trkpt>
      <trkpt lat="43.5385" lon="5.56487">
        <ele>606.5</ele>
        <time>2023-05-28T08:41:50Z</time>
      </trkpt>
      <trkpt lat="43.5385" lon="5.56488">
        <ele>606.7</ele>
        <time>2023-05-28T08:41:51Z</time>
      </trkpt>
      <trkpt lat="43.53849" lon="5.56489">
        <ele>606.8</ele>
        <time>2023-05-28T08:41:52Z</time>
      </trkpt>
      <trkpt lat="43.53849" lon="5.5649">
        <ele>607</ele>
        <time>2023-05-28T08:41:53Z</time>
      </trkpt>
      <trkpt lat="43.53849" lon="5.56492">
        <ele>607.2</ele>
        <time>2023-05-28T08:41:54Z</time>
      </trkpt>
      <trkpt lat="43.53849" lon="5.56493">
        <ele>607.5</ele>
        <time>2023-05-28T08:41:55Z</time>
      </trkpt>
      <trkpt lat="43.53848" lon="5.56493">
        <ele>607.7</ele>
        <time>2023-05-28T08:41:56Z</time>
      </trkpt>
      <trkpt lat="43.53848" lon="5.56494">
        <ele>607.8</ele>
        <time>2023-05-28T08:41:57Z</time>
      </trkpt>
      <trkpt lat="43.53848" lon="5.56494">
        <ele>608</ele>
        <time>2023-05-28T08:41:58Z</time>
      </trkpt>
      <trkpt lat="43.53848" lon="5.56495">
        <ele>608.3</ele>
        <time>2023-05-28T08:41:59Z</time>
      </trkpt>
      <trkpt lat="43.53848" lon="5.56497">
        <ele>608.6</ele>
        <time>2023-05-28T08:42:00Z</time>
      </trkpt>
      <trkpt lat="43.53848" lon="5.56498">
        <ele>608.7</ele>
        <time>2023-05-28T08:42:01Z</time>
      </trkpt>
      <trkpt lat="43.53848" lon="5.56499">
        <ele>608.9</ele>
        <time>2023-05-28T08:42:02Z</time>
      </trkpt>
      <trkpt lat="43.53848" lon="5.565">
        <ele>609</ele>
        <time>2023-05-28T08:42:03Z</time>
      </trkpt>
      <trkpt lat="43.53848" lon="5.56501">
        <ele>609.1</ele>
        <time>2023-05-28T08:42:04Z</time>
      </trkpt>
      <trkpt lat="43.53848" lon="5.56502">
        <ele>609.3</ele>
        <time>2023-05-28T08:42:05Z</time>
      </trkpt>
      <trkpt lat="43.53848" lon="5.56503">
        <ele>609.4</ele>
        <time>2023-05-28T08:42:06Z</time>
      </trkpt>
      <trkpt lat="43.53848" lon="5.56505">
        <ele>609.5</ele>
        <time>2023-05-28T08:42:07Z</time>
      </trkpt>
      <trkpt lat="43.53848" lon="5.56506">
        <ele>609.6</ele>
        <time>2023-05-28T08:42:08Z</time>
      </trkpt>
      <trkpt lat="43.53848" lon="5.56507">
        <ele>609.8</ele>
        <time>2023-05-28T08:42:09Z</time>
      </trkpt>
      <trkpt lat="43.53849" lon="5.56508">
        <ele>609.9</ele>
        <time>2023-05-28T08:42:10Z</time>
      </trkpt>
      <trkpt lat="43.53849" lon="5.5651">
        <ele>610.1</ele>
        <time>2023-05-28T08:42:11Z</time>
      </trkpt>
      <trkpt lat="43.53849" lon="5.56511">
        <ele>610.2</ele>
        <time>2023-05-28T08:42:12Z</time>
      </trkpt>
      <trkpt lat="43.53849" lon="5.56512">
        <ele>610.3</ele>
        <time>2023-05-28T08:42:13Z</time>
      </trkpt>
      <trkpt lat="43.5385" lon="5.56513">
        <ele>610.4</ele>
        <time>2023-05-28T08:42:14Z</time>
      </trkpt>
      <trkpt lat="43.5385" lon="5.56514">
        <ele>610.5</ele>
        <time>2023-05-28T08:42:15Z</time>
      </trkpt>
      <trkpt lat="43.5385" lon="5.56515">
        <ele>610.6</ele>
        <time>2023-05-28T08:42:16Z</time>
      </trkpt>
      <trkpt lat="43.5385" lon="5.56515">
        <ele>610.7</ele>
        <time>2023-05-28T08:42:17Z</time>
      </trkpt>
      <trkpt lat="43.53851" lon="5.56517">
        <ele>610.8</ele>
        <time>2023-05-28T08:42:18Z</time>
      </trkpt>
      <trkpt lat="43.53851" lon="5.56518">
        <ele>611</ele>
        <time>2023-05-28T08:42:19Z</time>
      </trkpt>
      <trkpt lat="43.53851" lon="5.56519">
        <ele>611.2</ele>
        <time>2023-05-28T08:42:20Z</time>
      </trkpt>
      <trkpt lat="43.53851" lon="5.5652">
        <ele>611.4</ele>
        <time>2023-05-28T08:42:21Z</time>
      </trkpt>
      <trkpt lat="43.53852" lon="5.56521">
        <ele>611.5</ele>
        <time>2023-05-28T08:42:22Z</time>
      </trkpt>
      <trkpt lat="43.53852" lon="5.56522">
        <ele>611.6</ele>
        <time>2023-05-28T08:42:23Z</time>
      </trkpt>
      <trkpt lat="43.53852" lon="5.56523">
        <ele>611.6</ele>
        <time>2023-05-28T08:42:24Z</time>
      </trkpt>
      <trkpt lat="43.53853" lon="5.56524">
        <ele>611.7</ele>
        <time>2023-05-28T08:42:25Z</time>
      </trkpt>
      <trkpt lat="43.53853" lon="5.56525">
        <ele>611.7</ele>
        <time>2023-05-28T08:42:26Z</time>
      </trkpt>
      <trkpt lat="43.53854" lon="5.56526">
        <ele>611.8</ele>
        <time>2023-05-28T08:42:27Z</time>
      </trkpt>
      <trkpt lat="43.53854" lon="5.56528">
        <ele>611.7</ele>
        <time>2023-05-28T08:42:28Z</time>
      </trkpt>
      <trkpt lat="43.53854" lon="5.56529">
        <ele>611.8</ele>
        <time>2023-05-28T08:42:29Z</time>
      </trkpt>
      <trkpt lat="43.53854" lon="5.56529">
        <ele>611.8</ele>
        <time>2023-05-28T08:42:30Z</time>
      </trkpt>
      <trkpt lat="43.53854" lon="5.56531">
        <ele>611.9</ele>
        <time>2023-05-28T08:42:31Z</time>
      </trkpt>
      <trkpt lat="43.53854" lon="5.56532">
        <ele>612</ele>
        <time>2023-05-28T08:42:32Z</time>
      </trkpt>
      <trkpt lat="43.53855" lon="5.56533">
        <ele>612.2</ele>
        <time>2023-05-28T08:42:33Z</time>
      </trkpt>
      <trkpt lat="43.53855" lon="5.56534">
        <ele>612.3</ele>
        <time>2023-05-28T08:42:34Z</time>
      </trkpt>
      <trkpt lat="43.53856" lon="5.56535">
        <ele>612.4</ele>
        <time>2023-05-28T08:42:35Z</time>
      </trkpt>
      <trkpt lat="43.53856" lon="5.56536">
        <ele>612.5</ele>
        <time>2023-05-28T08:42:36Z</time>
      </trkpt>
      <trkpt lat="43.53856" lon="5.56537">
        <ele>612.7</ele>
        <time>2023-05-28T08:42:37Z</time>
      </trkpt>
      <trkpt lat="43.53857" lon="5.56538">
        <ele>612.8</ele>
        <time>2023-05-28T08:42:38Z</time>
      </trkpt>
      <trkpt lat="43.53858" lon="5.56539">
        <ele>612.9</ele>
        <time>2023-05-28T08:42:39Z</time>
      </trkpt>
      <trkpt lat="43.53859" lon="5.5654">
        <ele>613</ele>
        <time>2023-05-28T08:42:40Z</time>
      </trkpt>
      <trkpt lat="43.5386" lon="5.56541">
        <ele>613.1</ele>
        <time>2023-05-28T08:42:41Z</time>
      </trkpt>
      <trkpt lat="43.5386" lon="5.56542">
        <ele>613.2</ele>
        <time>2023-05-28T08:42:42Z</time>
      </trkpt>
      <trkpt lat="43.53861" lon="5.56544">
        <ele>613.3</ele>
        <time>2023-05-28T08:42:43Z</time>
      </trkpt>
      <trkpt lat="43.53862" lon="5.56544">
        <ele>613.4</ele>
        <time>2023-05-28T08:42:44Z</time>
      </trkpt>
      <trkpt lat="43.53862" lon="5.56546">
        <ele>613.5</ele>
        <time>2023-05-28T08:42:45Z</time>
      </trkpt>
      <trkpt lat="43.53863" lon="5.56547">
        <ele>613.6</ele>
        <time>2023-05-28T08:42:46Z</time>
      </trkpt>
      <trkpt lat="43.53863" lon="5.56548">
        <ele>613.7</ele>
        <time>2023-05-28T08:42:47Z</time>
      </trkpt>
      <trkpt lat="43.53863" lon="5.56549">
        <ele>613.8</ele>
        <time>2023-05-28T08:42:48Z</time>
      </trkpt>
      <trkpt lat="43.53863" lon="5.5655">
        <ele>613.9</ele>
        <time>2023-05-28T08:42:49Z</time>
      </trkpt>
      <trkpt lat="43.53863" lon="5.56551">
        <ele>614.1</ele>
        <time>2023-05-28T08:42:50Z</time>
      </trkpt>
      <trkpt lat="43.53863" lon="5.56552">
        <ele>614.3</ele>
        <time>2023-05-28T08:42:51Z</time>
      </trkpt>
      <trkpt lat="43.53862" lon="5.56553">
        <ele>614.5</ele>
        <time>2023-05-28T08:42:52Z</time>
      </trkpt>
      <trkpt lat="43.53862" lon="5.56554">
        <ele>614.8</ele>
        <time>2023-05-28T08:42:53Z</time>
      </trkpt>
      <trkpt lat="43.53862" lon="5.56555">
        <ele>615</ele>
        <time>2023-05-28T08:42:54Z</time>
      </trkpt>
      <trkpt lat="43.53862" lon="5.56556">
        <ele>615.2</ele>
        <time>2023-05-28T08:42:55Z</time>
      </trkpt>
      <trkpt lat="43.53862" lon="5.56556">
        <ele>615.4</ele>
        <time>2023-05-28T08:42:56Z</time>
      </trkpt>
      <trkpt lat="43.53862" lon="5.56557">
        <ele>615.7</ele>
        <time>2023-05-28T08:42:57Z</time>
      </trkpt>
      <trkpt lat="43.53862" lon="5.56559">
        <ele>615.9</ele>
        <time>2023-05-28T08:42:58Z</time>
      </trkpt>
      <trkpt lat="43.53862" lon="5.5656">
        <ele>616.2</ele>
        <time>2023-05-28T08:42:59Z</time>
      </trkpt>
      <trkpt lat="43.53862" lon="5.5656">
        <ele>616.5</ele>
        <time>2023-05-28T08:43:00Z</time>
      </trkpt>
      <trkpt lat="43.53862" lon="5.56561">
        <ele>616.7</ele>
        <time>2023-05-28T08:43:01Z</time>
      </trkpt>
      <trkpt lat="43.53861" lon="5.56562">
        <ele>616.9</ele>
        <time>2023-05-28T08:43:02Z</time>
      </trkpt>
      <trkpt lat="43.53861" lon="5.56562">
        <ele>617.1</ele>
        <time>2023-05-28T08:43:03Z</time>
      </trkpt>
      <trkpt lat="43.53861" lon="5.56563">
        <ele>617.2</ele>
        <time>2023-05-28T08:43:04Z</time>
      </trkpt>
      <trkpt lat="43.53861" lon="5.56564">
        <ele>617.3</ele>
        <time>2023-05-28T08:43:05Z</time>
      </trkpt>
      <trkpt lat="43.53861" lon="5.56564">
        <ele>617.5</ele>
        <time>2023-05-28T08:43:06Z</time>
      </trkpt>
      <trkpt lat="43.53861" lon="5.56565">
        <ele>617.7</ele>
        <time>2023-05-28T08:43:07Z</time>
      </trkpt>
      <trkpt lat="43.53861" lon="5.56566">
        <ele>617.9</ele>
        <time>2023-05-28T08:43:08Z</time>
      </trkpt>
      <trkpt lat="43.5386" lon="5.56567">
        <ele>618.1</ele>
        <time>2023-05-28T08:43:09Z</time>
      </trkpt>
      <trkpt lat="43.5386" lon="5.56567">
        <ele>618.2</ele>
        <time>2023-05-28T08:43:10Z</time>
      </trkpt>
      <trkpt lat="43.5386" lon="5.56568">
        <ele>618.4</ele>
        <time>2023-05-28T08:43:11Z</time>
      </trkpt>
      <trkpt lat="43.5386" lon="5.56569">
        <ele>618.6</ele>
        <time>2023-05-28T08:43:12Z</time>
      </trkpt>
      <trkpt lat="43.53859" lon="5.5657">
        <ele>618.7</ele>
        <time>2023-05-28T08:43:13Z</time>
      </trkpt>
      <trkpt lat="43.53859" lon="5.5657">
        <ele>619</ele>
        <time>2023-05-28T08:43:14Z</time>
      </trkpt>
      <trkpt lat="43.53859" lon="5.56571">
        <ele>619.3</ele>
        <time>2023-05-28T08:43:15Z</time>
      </trkpt>
      <trkpt lat="43.53859" lon="5.56572">
        <ele>619.6</ele>
        <time>2023-05-28T08:43:16Z</time>
      </trkpt>
      <trkpt lat="43.53859" lon="5.56573">
        <ele>619.8</ele>
        <time>2023-05-28T08:43:17Z</time>
      </trkpt>
      <trkpt lat="43.53859" lon="5.56574">
        <ele>620</ele>
        <time>2023-05-28T08:43:18Z</time>
      </trkpt>
      <trkpt lat="43.53859" lon="5.56574">
        <ele>620.1</ele>
        <time>2023-05-28T08:43:19Z</time>
      </trkpt>
      <trkpt lat="43.53859" lon="5.56575">
        <ele>620.3</ele>
        <time>2023-05-28T08:43:20Z</time>
      </trkpt>
      <trkpt lat="43.53859" lon="5.56576">
        <ele>620.5</ele>
        <time>2023-05-28T08:43:21Z</time>
      </trkpt>
      <trkpt lat="43.53859" lon="5.56577">
        <ele>620.7</ele>
        <time>2023-05-28T08:43:22Z</time>
      </trkpt>
      <trkpt lat="43.53858" lon="5.56577">
        <ele>621</ele>
        <time>2023-05-28T08:43:23Z</time>
      </trkpt>
      <trkpt lat="43.53858" lon="5.56578">
        <ele>621.1</ele>
        <time>2023-05-28T08:43:24Z</time>
      </trkpt>
      <trkpt lat="43.53858" lon="5.56579">
        <ele>621.2</ele>
        <time>2023-05-28T08:43:25Z</time>
      </trkpt>
      <trkpt lat="43.53859" lon="5.5658">
        <ele>621.4</ele>
        <time>2023-05-28T08:43:26Z</time>
      </trkpt>
      <trkpt lat="43.53859" lon="5.56581">
        <ele>621.6</ele>
        <time>2023-05-28T08:43:27Z</time>
      </trkpt>
      <trkpt lat="43.53859" lon="5.56581">
        <ele>621.8</ele>
        <time>2023-05-28T08:43:28Z</time>
      </trkpt>
      <trkpt lat="43.53859" lon="5.56582">
        <ele>622</ele>
        <time>2023-05-28T08:43:29Z</time>
      </trkpt>
      <trkpt lat="43.53858" lon="5.56583">
        <ele>622.2</ele>
        <time>2023-05-28T08:43:30Z</time>
      </trkpt>
      <trkpt lat="43.53858" lon="5.56584">
        <ele>622.4</ele>
        <time>2023-05-28T08:43:31Z</time>
      </trkpt>
      <trkpt lat="43.53859" lon="5.56585">
        <ele>622.6</ele>
        <time>2023-05-28T08:43:32Z</time>
      </trkpt>
      <trkpt lat="43.53859" lon="5.56586">
        <ele>622.7</ele>
        <time>2023-05-28T08:43:33Z</time>
      </trkpt>
      <trkpt lat="43.53859" lon="5.56586">
        <ele>622.9</ele>
        <time>2023-05-28T08:43:34Z</time>
      </trkpt>
      <trkpt lat="43.53858" lon="5.56587">
        <ele>623.1</ele>
        <time>2023-05-28T08:43:35Z</time>
      </trkpt>
      <trkpt lat="43.53858" lon="5.56588">
        <ele>623.3</ele>
        <time>2023-05-28T08:43:36Z</time>
      </trkpt>
      <trkpt lat="43.53858" lon="5.56588">
        <ele>623.4</ele>
        <time>2023-05-28T08:43:37Z</time>
      </trkpt>
      <trkpt lat="43.53858" lon="5.56589">
        <ele>623.6</ele>
        <time>2023-05-28T08:43:38Z</time>
      </trkpt>
      <trkpt lat="43.53857" lon="5.5659">
        <ele>623.8</ele>
        <time>2023-05-28T08:43:39Z</time>
      </trkpt>
      <trkpt lat="43.53857" lon="5.56591">
        <ele>623.9</ele>
        <time>2023-05-28T08:43:40Z</time>
      </trkpt>
      <trkpt lat="43.53856" lon="5.56592">
        <ele>624.1</ele>
        <time>2023-05-28T08:43:41Z</time>
      </trkpt>
      <trkpt lat="43.53856" lon="5.56593">
        <ele>624.3</ele>
        <time>2023-05-28T08:43:42Z</time>
      </trkpt>
      <trkpt lat="43.53856" lon="5.56594">
        <ele>624.5</ele>
        <time>2023-05-28T08:43:43Z</time>
      </trkpt>
      <trkpt lat="43.53856" lon="5.56596">
        <ele>624.6</ele>
        <time>2023-05-28T08:43:44Z</time>
      </trkpt>
      <trkpt lat="43.53857" lon="5.56597">
        <ele>624.7</ele>
        <time>2023-05-28T08:43:45Z</time>
      </trkpt>
      <trkpt lat="43.53857" lon="5.56598">
        <ele>624.8</ele>
        <time>2023-05-28T08:43:46Z</time>
      </trkpt>
      <trkpt lat="43.53857" lon="5.56599">
        <ele>624.9</ele>
        <time>2023-05-28T08:43:47Z</time>
      </trkpt>
      <trkpt lat="43.53857" lon="5.566">
        <ele>625.1</ele>
        <time>2023-05-28T08:43:48Z</time>
      </trkpt>
      <trkpt lat="43.53857" lon="5.56601">
        <ele>625.2</ele>
        <time>2023-05-28T08:43:49Z</time>
      </trkpt>
      <trkpt lat="43.53857" lon="5.56602">
        <ele>625.3</ele>
        <time>2023-05-28T08:43:50Z</time>
      </trkpt>
      <trkpt lat="43.53857" lon="5.56603">
        <ele>625.5</ele>
        <time>2023-05-28T08:43:51Z</time>
      </trkpt>
      <trkpt lat="43.53857" lon="5.56604">
        <ele>625.6</ele>
        <time>2023-05-28T08:43:52Z</time>
      </trkpt>
      <trkpt lat="43.53857" lon="5.56606">
        <ele>625.7</ele>
        <time>2023-05-28T08:43:53Z</time>
      </trkpt>
      <trkpt lat="43.53857" lon="5.56607">
        <ele>625.9</ele>
        <time>2023-05-28T08:43:54Z</time>
      </trkpt>
      <trkpt lat="43.53857" lon="5.56609">
        <ele>626</ele>
        <time>2023-05-28T08:43:55Z</time>
      </trkpt>
      <trkpt lat="43.53857" lon="5.5661">
        <ele>626.1</ele>
        <time>2023-05-28T08:43:56Z</time>
      </trkpt>
      <trkpt lat="43.53858" lon="5.56612">
        <ele>626.2</ele>
        <time>2023-05-28T08:43:57Z</time>
      </trkpt>
      <trkpt lat="43.53859" lon="5.56613">
        <ele>626.4</ele>
        <time>2023-05-28T08:43:58Z</time>
      </trkpt>
      <trkpt lat="43.53859" lon="5.56614">
        <ele>626.6</ele>
        <time>2023-05-28T08:43:59Z</time>
      </trkpt>
      <trkpt lat="43.53859" lon="5.56616">
        <ele>626.7</ele>
        <time>2023-05-28T08:44:00Z</time>
      </trkpt>
      <trkpt lat="43.5386" lon="5.56617">
        <ele>626.8</ele>
        <time>2023-05-28T08:44:01Z</time>
      </trkpt>
      <trkpt lat="43.5386" lon="5.56618">
        <ele>626.9</ele>
        <time>2023-05-28T08:44:02Z</time>
      </trkpt>
      <trkpt lat="43.5386" lon="5.56619">
        <ele>627</ele>
        <time>2023-05-28T08:44:03Z</time>
      </trkpt>
      <trkpt lat="43.5386" lon="5.56621">
        <ele>627.1</ele>
        <time>2023-05-28T08:44:04Z</time>
      </trkpt>
      <trkpt lat="43.5386" lon="5.56622">
        <ele>627.2</ele>
        <time>2023-05-28T08:44:05Z</time>
      </trkpt>
      <trkpt lat="43.53859" lon="5.56623">
        <ele>627.3</ele>
        <time>2023-05-28T08:44:06Z</time>
      </trkpt>
      <trkpt lat="43.53859" lon="5.56624">
        <ele>627.5</ele>
        <time>2023-05-28T08:44:07Z</time>
      </trkpt>
      <trkpt lat="43.53859" lon="5.56625">
        <ele>627.7</ele>
        <time>2023-05-28T08:44:08Z</time>
      </trkpt>
      <trkpt lat="43.53858" lon="5.56626">
        <ele>627.8</ele>
        <time>2023-05-28T08:44:09Z</time>
      </trkpt>
      <trkpt lat="43.53858" lon="5.56627">
        <ele>628</ele>
        <time>2023-05-28T08:44:10Z</time>
      </trkpt>
      <trkpt lat="43.53858" lon="5.56628">
        <ele>628.1</ele>
        <time>2023-05-28T08:44:11Z</time>
      </trkpt>
      <trkpt lat="43.53858" lon="5.56629">
        <ele>628.2</ele>
        <time>2023-05-28T08:44:12Z</time>
      </trkpt>
      <trkpt lat="43.53857" lon="5.56631">
        <ele>628.4</ele>
        <time>2023-05-28T08:44:13Z</time>
      </trkpt>
      <trkpt lat="43.53857" lon="5.56632">
        <ele>628.4</ele>
        <time>2023-05-28T08:44:14Z</time>
      </trkpt>
      <trkpt lat="43.53857" lon="5.56633">
        <ele>628.5</ele>
        <time>2023-05-28T08:44:15Z</time>
      </trkpt>
      <trkpt lat="43.53857" lon="5.56634">
        <ele>628.6</ele>
        <time>2023-05-28T08:44:16Z</time>
      </trkpt>
      <trkpt lat="43.53857" lon="5.56635">
        <ele>628.6</ele>
        <time>2023-05-28T08:44:17Z</time>
      </trkpt>
      <trkpt lat="43.53857" lon="5.56636">
        <ele>628.7</ele>
        <time>2023-05-28T08:44:18Z</time>
      </trkpt>
      <trkpt lat="43.53857" lon="5.56636">
        <ele>628.9</ele>
        <time>2023-05-28T08:44:19Z</time>
      </trkpt>
      <trkpt lat="43.53856" lon="5.56638">
        <ele>629</ele>
        <time>2023-05-28T08:44:20Z</time>
      </trkpt>
      <trkpt lat="43.53856" lon="5.56639">
        <ele>629.2</ele>
        <time>2023-05-28T08:44:21Z</time>
      </trkpt>
      <trkpt lat="43.53856" lon="5.5664">
        <ele>629.2</ele>
        <time>2023-05-28T08:44:22Z</time>
      </trkpt>
      <trkpt lat="43.53855" lon="5.56641">
        <ele>629.3</ele>
        <time>2023-05-28T08:44:23Z</time>
      </trkpt>
      <trkpt lat="43.53855" lon="5.56641">
        <ele>629.3</ele>
        <time>2023-05-28T08:44:24Z</time>
      </trkpt>
      <trkpt lat="43.53855" lon="5.56642">
        <ele>629.4</ele>
        <time>2023-05-28T08:44:25Z</time>
      </trkpt>
      <trkpt lat="43.53854" lon="5.56644">
        <ele>629.5</ele>
        <time>2023-05-28T08:44:26Z</time>
      </trkpt>
      <trkpt lat="43.53854" lon="5.56645">
        <ele>629.6</ele>
        <time>2023-05-28T08:44:27Z</time>
      </trkpt>
      <trkpt lat="43.53853" lon="5.56646">
        <ele>629.8</ele>
        <time>2023-05-28T08:44:28Z</time>
      </trkpt>
      <trkpt lat="43.53853" lon="5.56647">
        <ele>629.9</ele>
        <time>2023-05-28T08:44:29Z</time>
      </trkpt>
      <trkpt lat="43.53852" lon="5.56648">
        <ele>630</ele>
        <time>2023-05-28T08:44:30Z</time>
      </trkpt>
      <trkpt lat="43.53852" lon="5.56649">
        <ele>630.1</ele>
        <time>2023-05-28T08:44:31Z</time>
      </trkpt>
      <trkpt lat="43.53851" lon="5.56651">
        <ele>630.3</ele>
        <time>2023-05-28T08:44:32Z</time>
      </trkpt>
      <trkpt lat="43.53851" lon="5.56652">
        <ele>630.4</ele>
        <time>2023-05-28T08:44:33Z</time>
      </trkpt>
      <trkpt lat="43.53851" lon="5.56654">
        <ele>630.5</ele>
        <time>2023-05-28T08:44:34Z</time>
      </trkpt>
      <trkpt lat="43.53851" lon="5.56655">
        <ele>630.6</ele>
        <time>2023-05-28T08:44:35Z</time>
      </trkpt>
      <trkpt lat="43.53852" lon="5.56657">
        <ele>630.6</ele>
        <time>2023-05-28T08:44:36Z</time>
      </trkpt>
      <trkpt lat="43.53851" lon="5.56658">
        <ele>630.6</ele>
        <time>2023-05-28T08:44:37Z</time>
      </trkpt>
      <trkpt lat="43.53851" lon="5.56659">
        <ele>630.6</ele>
        <time>2023-05-28T08:44:38Z</time>
      </trkpt>
      <trkpt lat="43.53851" lon="5.5666">
        <ele>630.6</ele>
        <time>2023-05-28T08:44:39Z</time>
      </trkpt>
      <trkpt lat="43.5385" lon="5.56662">
        <ele>630.6</ele>
        <time>2023-05-28T08:44:40Z</time>
      </trkpt>
      <trkpt lat="43.53851" lon="5.56663">
        <ele>630.6</ele>
        <time>2023-05-28T08:44:41Z</time>
      </trkpt>
      <trkpt lat="43.5385" lon="5.56664">
        <ele>630.7</ele>
        <time>2023-05-28T08:44:42Z</time>
      </trkpt>
      <trkpt lat="43.5385" lon="5.56665">
        <ele>630.6</ele>
        <time>2023-05-28T08:44:43Z</time>
      </trkpt>
      <trkpt lat="43.5385" lon="5.56666">
        <ele>630.6</ele>
        <time>2023-05-28T08:44:44Z</time>
      </trkpt>
      <trkpt lat="43.5385" lon="5.56667">
        <ele>630.5</ele>
        <time>2023-05-28T08:44:45Z</time>
      </trkpt>
      <trkpt lat="43.5385" lon="5.56668">
        <ele>630.6</ele>
        <time>2023-05-28T08:44:46Z</time>
      </trkpt>
      <trkpt lat="43.5385" lon="5.56669">
        <ele>630.6</ele>
        <time>2023-05-28T08:44:47Z</time>
      </trkpt>
      <trkpt lat="43.53849" lon="5.56671">
        <ele>630.6</ele>
        <time>2023-05-28T08:44:48Z</time>
      </trkpt>
      <trkpt lat="43.53849" lon="5.56672">
        <ele>630.6</ele>
        <time>2023-05-28T08:44:49Z</time>
      </trkpt>
      <trkpt lat="43.53849" lon="5.56673">
        <ele>630.6</ele>
        <time>2023-05-28T08:44:50Z</time>
      </trkpt>
      <trkpt lat="43.53849" lon="5.56674">
        <ele>630.6</ele>
        <time>2023-05-28T08:44:51Z</time>
      </trkpt>
      <trkpt lat="43.53849" lon="5.56674">
        <ele>630.5</ele>
        <time>2023-05-28T08:44:52Z</time>
      </trkpt>
      <trkpt lat="43.53849" lon="5.56676">
        <ele>630.5</ele>
        <time>2023-05-28T08:44:53Z</time>
      </trkpt>
      <trkpt lat="43.5385" lon="5.56676">
        <ele>630.4</ele>
        <time>2023-05-28T08:44:54Z</time>
      </trkpt>
      <trkpt lat="43.5385" lon="5.56677">
        <ele>630.4</ele>
        <time>2023-05-28T08:44:55Z</time>
      </trkpt>
      <trkpt lat="43.5385" lon="5.56677">
        <ele>630.2</ele>
        <time>2023-05-28T08:44:56Z</time>
      </trkpt>
      <trkpt lat="43.5385" lon="5.56678">
        <ele>630.1</ele>
        <time>2023-05-28T08:44:57Z</time>
      </trkpt>
      <trkpt lat="43.5385" lon="5.56679">
        <ele>630</ele>
        <time>2023-05-28T08:44:58Z</time>
      </trkpt>
      <trkpt lat="43.5385" lon="5.5668">
        <ele>630.1</ele>
        <time>2023-05-28T08:44:59Z</time>
      </trkpt>
      <trkpt lat="43.5385" lon="5.56681">
        <ele>630.1</ele>
        <time>2023-05-28T08:45:00Z</time>
      </trkpt>
      <trkpt lat="43.5385" lon="5.56682">
        <ele>630</ele>
        <time>2023-05-28T08:45:01Z</time>
      </trkpt>
      <trkpt lat="43.5385" lon="5.56683">
        <ele>629.9</ele>
        <time>2023-05-28T08:45:02Z</time>
      </trkpt>
      <trkpt lat="43.5385" lon="5.56684">
        <ele>629.9</ele>
        <time>2023-05-28T08:45:03Z</time>
      </trkpt>
      <trkpt lat="43.5385" lon="5.56685">
        <ele>630</ele>
        <time>2023-05-28T08:45:04Z</time>
      </trkpt>
      <trkpt lat="43.5385" lon="5.56686">
        <ele>630.1</ele>
        <time>2023-05-28T08:45:05Z</time>
      </trkpt>
      <trkpt lat="43.53851" lon="5.56687">
        <ele>630</ele>
        <time>2023-05-28T08:45:06Z</time>
      </trkpt>
      <trkpt lat="43.53851" lon="5.56688">
        <ele>629.9</ele>
        <time>2023-05-28T08:45:07Z</time>
      </trkpt>
      <trkpt lat="43.53851" lon="5.5669">
        <ele>629.8</ele>
        <time>2023-05-28T08:45:08Z</time>
      </trkpt>
      <trkpt lat="43.5385" lon="5.56691">
        <ele>629.7</ele>
        <time>2023-05-28T08:45:09Z</time>
      </trkpt>
      <trkpt lat="43.5385" lon="5.56692">
        <ele>629.7</ele>
        <time>2023-05-28T08:45:10Z</time>
      </trkpt>
      <trkpt lat="43.5385" lon="5.56693">
        <ele>629.6</ele>
        <time>2023-05-28T08:45:11Z</time>
      </trkpt>
      <trkpt lat="43.5385" lon="5.56695">
        <ele>629.4</ele>
        <time>2023-05-28T08:45:12Z</time>
      </trkpt>
      <trkpt lat="43.53849" lon="5.56697">
        <ele>629.3</ele>
        <time>2023-05-28T08:45:13Z</time>
      </trkpt>
      <trkpt lat="43.53849" lon="5.56698">
        <ele>629.2</ele>
        <time>2023-05-28T08:45:14Z</time>
      </trkpt>
      <trkpt lat="43.5385" lon="5.56699">
        <ele>629.2</ele>
        <time>2023-05-28T08:45:15Z</time>
      </trkpt>
      <trkpt lat="43.53849" lon="5.567">
        <ele>629.2</ele>
        <time>2023-05-28T08:45:16Z</time>
      </trkpt>
      <trkpt lat="43.53849" lon="5.56701">
        <ele>629.1</ele>
        <time>2023-05-28T08:45:17Z</time>
      </trkpt>
      <trkpt lat="43.53849" lon="5.56702">
        <ele>629.1</ele>
        <time>2023-05-28T08:45:18Z</time>
      </trkpt>
      <trkpt lat="43.53849" lon="5.56703">
        <ele>629</ele>
        <time>2023-05-28T08:45:19Z</time>
      </trkpt>
      <trkpt lat="43.53849" lon="5.56705">
        <ele>628.9</ele>
        <time>2023-05-28T08:45:20Z</time>
      </trkpt>
      <trkpt lat="43.53848" lon="5.56706">
        <ele>628.8</ele>
        <time>2023-05-28T08:45:21Z</time>
      </trkpt>
      <trkpt lat="43.53847" lon="5.56707">
        <ele>628.7</ele>
        <time>2023-05-28T08:45:22Z</time>
      </trkpt>
      <trkpt lat="43.53847" lon="5.56707">
        <ele>628.7</ele>
        <time>2023-05-28T08:45:23Z</time>
      </trkpt>
      <trkpt lat="43.53846" lon="5.56708">
        <ele>628.8</ele>
        <time>2023-05-28T08:45:24Z</time>
      </trkpt>
      <trkpt lat="43.53845" lon="5.56709">
        <ele>628.8</ele>
        <time>2023-05-28T08:45:25Z</time>
      </trkpt>
      <trkpt lat="43.53845" lon="5.56711">
        <ele>628.8</ele>
        <time>2023-05-28T08:45:26Z</time>
      </trkpt>
      <trkpt lat="43.53845" lon="5.56712">
        <ele>628.8</ele>
        <time>2023-05-28T08:45:27Z</time>
      </trkpt>
      <trkpt lat="43.53845" lon="5.56713">
        <ele>628.9</ele>
        <time>2023-05-28T08:45:28Z</time>
      </trkpt>
      <trkpt lat="43.53845" lon="5.56713">
        <ele>628.9</ele>
        <time>2023-05-28T08:45:29Z</time>
      </trkpt>
      <trkpt lat="43.53844" lon="5.56714">
        <ele>629</ele>
        <time>2023-05-28T08:45:30Z</time>
      </trkpt>
      <trkpt lat="43.53844" lon="5.56714">
        <ele>629</ele>
        <time>2023-05-28T08:45:31Z</time>
      </trkpt>
      <trkpt lat="43.53843" lon="5.56715">
        <ele>629.1</ele>
        <time>2023-05-28T08:45:32Z</time>
      </trkpt>
      <trkpt lat="43.53843" lon="5.56716">
        <ele>629.2</ele>
        <time>2023-05-28T08:45:33Z</time>
      </trkpt>
      <trkpt lat="43.53842" lon="5.56717">
        <ele>629.3</ele>
        <time>2023-05-28T08:45:34Z</time>
      </trkpt>
      <trkpt lat="43.53842" lon="5.56718">
        <ele>629.4</ele>
        <time>2023-05-28T08:45:35Z</time>
      </trkpt>
      <trkpt lat="43.53842" lon="5.56719">
        <ele>629.4</ele>
        <time>2023-05-28T08:45:36Z</time>
      </trkpt>
      <trkpt lat="43.53841" lon="5.5672">
        <ele>629.6</ele>
        <time>2023-05-28T08:45:37Z</time>
      </trkpt>
      <trkpt lat="43.53841" lon="5.56721">
        <ele>629.8</ele>
        <time>2023-05-28T08:45:38Z</time>
      </trkpt>
      <trkpt lat="43.5384" lon="5.56722">
        <ele>629.9</ele>
        <time>2023-05-28T08:45:39Z</time>
      </trkpt>
      <trkpt lat="43.5384" lon="5.56723">
        <ele>630</ele>
        <time>2023-05-28T08:45:40Z</time>
      </trkpt>
      <trkpt lat="43.5384" lon="5.56724">
        <ele>630.1</ele>
        <time>2023-05-28T08:45:41Z</time>
      </trkpt>
      <trkpt lat="43.53839" lon="5.56725">
        <ele>630.1</ele>
        <time>2023-05-28T08:45:42Z</time>
      </trkpt>
      <trkpt lat="43.53839" lon="5.56726">
        <ele>630.2</ele>
        <time>2023-05-28T08:45:43Z</time>
      </trkpt>
      <trkpt lat="43.53839" lon="5.56728">
        <ele>630.1</ele>
        <time>2023-05-28T08:45:44Z</time>
      </trkpt>
      <trkpt lat="43.53839" lon="5.56728">
        <ele>630.1</ele>
        <time>2023-05-28T08:45:45Z</time>
      </trkpt>
      <trkpt lat="43.53838" lon="5.56729">
        <ele>630.1</ele>
        <time>2023-05-28T08:45:46Z</time>
      </trkpt>
      <trkpt lat="43.53838" lon="5.5673">
        <ele>630.2</ele>
        <time>2023-05-28T08:45:47Z</time>
      </trkpt>
      <trkpt lat="43.53837" lon="5.56731">
        <ele>630.2</ele>
        <time>2023-05-28T08:45:48Z</time>
      </trkpt>
      <trkpt lat="43.53837" lon="5.56731">
        <ele>630.3</ele>
        <time>2023-05-28T08:45:49Z</time>
      </trkpt>
      <trkpt lat="43.53836" lon="5.56732">
        <ele>630.4</ele>
        <time>2023-05-28T08:45:50Z</time>
      </trkpt>
      <trkpt lat="43.53836" lon="5.56733">
        <ele>630.6</ele>
        <time>2023-05-28T08:45:51Z</time>
      </trkpt>
      <trkpt lat="43.53835" lon="5.56734">
        <ele>630.6</ele>
        <time>2023-05-28T08:45:52Z</time>
      </trkpt>
      <trkpt lat="43.53834" lon="5.56735">
        <ele>630.7</ele>
        <time>2023-05-28T08:45:53Z</time>
      </trkpt>
      <trkpt lat="43.53834" lon="5.56735">
        <ele>630.8</ele>
        <time>2023-05-28T08:45:54Z</time>
      </trkpt>
      <trkpt lat="43.53833" lon="5.56736">
        <ele>630.9</ele>
        <time>2023-05-28T08:45:55Z</time>
      </trkpt>
      <trkpt lat="43.53833" lon="5.56737">
        <ele>631</ele>
        <time>2023-05-28T08:45:56Z</time>
      </trkpt>
      <trkpt lat="43.53833" lon="5.56738">
        <ele>631</ele>
        <time>2023-05-28T08:45:57Z</time>
      </trkpt>
      <trkpt lat="43.53832" lon="5.56739">
        <ele>631.1</ele>
        <time>2023-05-28T08:45:58Z</time>
      </trkpt>
      <trkpt lat="43.53832" lon="5.5674">
        <ele>631.1</ele>
        <time>2023-05-28T08:45:59Z</time>
      </trkpt>
      <trkpt lat="43.53832" lon="5.56741">
        <ele>631.1</ele>
        <time>2023-05-28T08:46:00Z</time>
      </trkpt>
      <trkpt lat="43.53832" lon="5.56742">
        <ele>631.2</ele>
        <time>2023-05-28T08:46:01Z</time>
      </trkpt>
      <trkpt lat="43.53832" lon="5.56742">
        <ele>631.2</ele>
        <time>2023-05-28T08:46:02Z</time>
      </trkpt>
      <trkpt lat="43.53832" lon="5.56743">
        <ele>631.3</ele>
        <time>2023-05-28T08:46:03Z</time>
      </trkpt>
      <trkpt lat="43.53832" lon="5.56743">
        <ele>631.3</ele>
        <time>2023-05-28T08:46:04Z</time>
      </trkpt>
      <trkpt lat="43.53832" lon="5.56743">
        <ele>631.3</ele>
        <time>2023-05-28T08:46:05Z</time>
      </trkpt>
      <trkpt lat="43.53832" lon="5.56743">
        <ele>631.2</ele>
        <time>2023-05-28T08:46:06Z</time>
      </trkpt>
      <trkpt lat="43.53832" lon="5.56743">
        <ele>631.3</ele>
        <time>2023-05-28T08:46:07Z</time>
      </trkpt>
      <trkpt lat="43.53831" lon="5.56743">
        <ele>631.3</ele>
        <time>2023-05-28T08:46:08Z</time>
      </trkpt>
      <trkpt lat="43.53831" lon="5.56744">
        <ele>631.3</ele>
        <time>2023-05-28T08:46:09Z</time>
      </trkpt>
      <trkpt lat="43.53831" lon="5.56744">
        <ele>631.3</ele>
        <time>2023-05-28T08:46:10Z</time>
      </trkpt>
      <trkpt lat="43.53831" lon="5.56745">
        <ele>631.4</ele>
        <time>2023-05-28T08:46:11Z</time>
      </trkpt>
      <trkpt lat="43.53831" lon="5.56745">
        <ele>631.5</ele>
        <time>2023-05-28T08:46:12Z</time>
      </trkpt>
      <trkpt lat="43.53831" lon="5.56745">
        <ele>631.5</ele>
        <time>2023-05-28T08:46:13Z</time>
      </trkpt>
      <trkpt lat="43.53831" lon="5.56745">
        <ele>631.5</ele>
        <time>2023-05-28T08:46:14Z</time>
      </trkpt>
      <trkpt lat="43.53831" lon="5.56745">
        <ele>631.6</ele>
        <time>2023-05-28T08:46:15Z</time>
      </trkpt>
      <trkpt lat="43.53831" lon="5.56745">
        <ele>631.6</ele>
        <time>2023-05-28T08:46:16Z</time>
      </trkpt>
      <trkpt lat="43.53831" lon="5.56745">
        <ele>631.6</ele>
        <time>2023-05-28T08:46:17Z</time>
      </trkpt>
      <trkpt lat="43.53831" lon="5.56745">
        <ele>631.6</ele>
        <time>2023-05-28T08:46:18Z</time>
      </trkpt>
      <trkpt lat="43.53831" lon="5.56745">
        <ele>631.6</ele>
        <time>2023-05-28T08:46:19Z</time>
      </trkpt>
      <trkpt lat="43.53831" lon="5.56745">
        <ele>631.6</ele>
        <time>2023-05-28T08:46:20Z</time>
      </trkpt>
      <trkpt lat="43.53831" lon="5.56745">
        <ele>631.6</ele>
        <time>2023-05-28T08:46:21Z</time>
      </trkpt>
      <trkpt lat="43.53831" lon="5.56745">
        <ele>631.6</ele>
        <time>2023-05-28T08:46:22Z</time>
      </trkpt>
      <trkpt lat="43.53831" lon="5.56745">
        <ele>631.6</ele>
        <time>2023-05-28T08:46:23Z</time>
      </trkpt>
      <trkpt lat="43.53831" lon="5.56745">
        <ele>631.5</ele>
        <time>2023-05-28T08:46:24Z</time>
      </trkpt>
      <trkpt lat="43.53831" lon="5.56745">
        <ele>631.6</ele>
        <time>2023-05-28T08:46:25Z</time>
      </trkpt>
      <trkpt lat="43.53831" lon="5.56745">
        <ele>631.5</ele>
        <time>2023-05-28T08:46:26Z</time>
      </trkpt>
      <trkpt lat="43.53832" lon="5.56745">
        <ele>631.5</ele>
        <time>2023-05-28T08:46:27Z</time>
      </trkpt>
      <trkpt lat="43.53832" lon="5.56745">
        <ele>631.6</ele>
        <time>2023-05-28T08:46:28Z</time>
      </trkpt>
      <trkpt lat="43.53832" lon="5.56745">
        <ele>631.6</ele>
        <time>2023-05-28T08:46:29Z</time>
      </trkpt>
      <trkpt lat="43.53832" lon="5.56745">
        <ele>631.6</ele>
        <time>2023-05-28T08:46:30Z</time>
      </trkpt>
      <trkpt lat="43.53832" lon="5.56746">
        <ele>631.6</ele>
        <time>2023-05-28T08:46:31Z</time>
      </trkpt>
      <trkpt lat="43.53832" lon="5.56746">
        <ele>631.6</ele>
        <time>2023-05-28T08:46:32Z</time>
      </trkpt>
      <trkpt lat="43.53832" lon="5.56746">
        <ele>631.7</ele>
        <time>2023-05-28T08:46:33Z</time>
      </trkpt>
      <trkpt lat="43.53832" lon="5.56746">
        <ele>631.7</ele>
        <time>2023-05-28T08:46:34Z</time>
      </trkpt>
      <trkpt lat="43.53832" lon="5.56746">
        <ele>631.6</ele>
        <time>2023-05-28T08:46:35Z</time>
      </trkpt>
      <trkpt lat="43.53832" lon="5.56746">
        <ele>631.5</ele>
        <time>2023-05-28T08:46:36Z</time>
      </trkpt>
      <trkpt lat="43.53832" lon="5.56746">
        <ele>631.4</ele>
        <time>2023-05-28T08:46:37Z</time>
      </trkpt>
      <trkpt lat="43.53832" lon="5.56746">
        <ele>631.4</ele>
        <time>2023-05-28T08:46:38Z</time>
      </trkpt>
      <trkpt lat="43.53832" lon="5.56746">
        <ele>631.4</ele>
        <time>2023-05-28T08:46:39Z</time>
      </trkpt>
      <trkpt lat="43.53832" lon="5.56747">
        <ele>631.4</ele>
        <time>2023-05-28T08:46:40Z</time>
      </trkpt>
      <trkpt lat="43.53832" lon="5.56747">
        <ele>631.4</ele>
        <time>2023-05-28T08:46:41Z</time>
      </trkpt>
      <trkpt lat="43.53832" lon="5.56749">
        <ele>631.5</ele>
        <time>2023-05-28T08:46:42Z</time>
      </trkpt>
      <trkpt lat="43.53832" lon="5.5675">
        <ele>631.5</ele>
        <time>2023-05-28T08:46:43Z</time>
      </trkpt>
      <trkpt lat="43.53832" lon="5.56751">
        <ele>631.5</ele>
        <time>2023-05-28T08:46:44Z</time>
      </trkpt>
      <trkpt lat="43.53832" lon="5.56752">
        <ele>631.5</ele>
        <time>2023-05-28T08:46:45Z</time>
      </trkpt>
      <trkpt lat="43.53832" lon="5.56753">
        <ele>631.6</ele>
        <time>2023-05-28T08:46:46Z</time>
      </trkpt>
      <trkpt lat="43.53832" lon="5.56754">
        <ele>631.6</ele>
        <time>2023-05-28T08:46:47Z</time>
      </trkpt>
      <trkpt lat="43.53832" lon="5.56755">
        <ele>631.6</ele>
        <time>2023-05-28T08:46:48Z</time>
      </trkpt>
      <trkpt lat="43.53832" lon="5.56756">
        <ele>631.6</ele>
        <time>2023-05-28T08:46:49Z</time>
      </trkpt>
      <trkpt lat="43.53832" lon="5.56757">
        <ele>631.7</ele>
        <time>2023-05-28T08:46:50Z</time>
      </trkpt>
      <trkpt lat="43.53832" lon="5.56758">
        <ele>631.6</ele>
        <time>2023-05-28T08:46:51Z</time>
      </trkpt>
      <trkpt lat="43.53831" lon="5.56759">
        <ele>631.6</ele>
        <time>2023-05-28T08:46:52Z</time>
      </trkpt>
      <trkpt lat="43.53831" lon="5.56759">
        <ele>631.7</ele>
        <time>2023-05-28T08:46:53Z</time>
      </trkpt>
      <trkpt lat="43.53831" lon="5.5676">
        <ele>631.9</ele>
        <time>2023-05-28T08:46:54Z</time>
      </trkpt>
      <trkpt lat="43.5383" lon="5.5676">
        <ele>631.9</ele>
        <time>2023-05-28T08:46:55Z</time>
      </trkpt>
      <trkpt lat="43.5383" lon="5.56761">
        <ele>632</ele>
        <time>2023-05-28T08:46:56Z</time>
      </trkpt>
      <trkpt lat="43.5383" lon="5.56761">
        <ele>632.1</ele>
        <time>2023-05-28T08:46:57Z</time>
      </trkpt>
      <trkpt lat="43.53829" lon="5.56761">
        <ele>632.3</ele>
        <time>2023-05-28T08:46:58Z</time>
      </trkpt>
      <trkpt lat="43.53829" lon="5.56762">
        <ele>632.4</ele>
        <time>2023-05-28T08:46:59Z</time>
      </trkpt>
      <trkpt lat="43.53828" lon="5.56762">
        <ele>632.6</ele>
        <time>2023-05-28T08:47:00Z</time>
      </trkpt>
      <trkpt lat="43.53828" lon="5.56763">
        <ele>632.7</ele>
        <time>2023-05-28T08:47:01Z</time>
      </trkpt>
      <trkpt lat="43.53827" lon="5.56764">
        <ele>632.9</ele>
        <time>2023-05-28T08:47:02Z</time>
      </trkpt>
      <trkpt lat="43.53827" lon="5.56764">
        <ele>633</ele>
        <time>2023-05-28T08:47:03Z</time>
      </trkpt>
      <trkpt lat="43.53826" lon="5.56765">
        <ele>633.1</ele>
        <time>2023-05-28T08:47:04Z</time>
      </trkpt>
      <trkpt lat="43.53826" lon="5.56766">
        <ele>633.2</ele>
        <time>2023-05-28T08:47:05Z</time>
      </trkpt>
      <trkpt lat="43.53825" lon="5.56767">
        <ele>633.3</ele>
        <time>2023-05-28T08:47:06Z</time>
      </trkpt>
      <trkpt lat="43.53825" lon="5.56768">
        <ele>633.4</ele>
        <time>2023-05-28T08:47:07Z</time>
      </trkpt>
      <trkpt lat="43.53825" lon="5.56769">
        <ele>633.4</ele>
        <time>2023-05-28T08:47:08Z</time>
      </trkpt>
      <trkpt lat="43.53825" lon="5.56771">
        <ele>633.4</ele>
        <time>2023-05-28T08:47:09Z</time>
      </trkpt>
      <trkpt lat="43.53825" lon="5.56773">
        <ele>633.4</ele>
        <time>2023-05-28T08:47:10Z</time>
      </trkpt>
      <trkpt lat="43.53824" lon="5.56774">
        <ele>633.4</ele>
        <time>2023-05-28T08:47:11Z</time>
      </trkpt>
      <trkpt lat="43.53824" lon="5.56775">
        <ele>633.3</ele>
        <time>2023-05-28T08:47:12Z</time>
      </trkpt>
      <trkpt lat="43.53824" lon="5.56776">
        <ele>633.3</ele>
        <time>2023-05-28T08:47:13Z</time>
      </trkpt>
      <trkpt lat="43.53824" lon="5.56777">
        <ele>633.2</ele>
        <time>2023-05-28T08:47:14Z</time>
      </trkpt>
      <trkpt lat="43.53824" lon="5.56778">
        <ele>633.2</ele>
        <time>2023-05-28T08:47:15Z</time>
      </trkpt>
      <trkpt lat="43.53824" lon="5.5678">
        <ele>633.1</ele>
        <time>2023-05-28T08:47:16Z</time>
      </trkpt>
      <trkpt lat="43.53825" lon="5.56782">
        <ele>633.1</ele>
        <time>2023-05-28T08:47:17Z</time>
      </trkpt>
      <trkpt lat="43.53825" lon="5.56784">
        <ele>633</ele>
        <time>2023-05-28T08:47:18Z</time>
      </trkpt>
      <trkpt lat="43.53825" lon="5.56785">
        <ele>633</ele>
        <time>2023-05-28T08:47:19Z</time>
      </trkpt>
      <trkpt lat="43.53825" lon="5.56786">
        <ele>632.9</ele>
        <time>2023-05-28T08:47:20Z</time>
      </trkpt>
      <trkpt lat="43.53825" lon="5.56788">
        <ele>632.9</ele>
        <time>2023-05-28T08:47:21Z</time>
      </trkpt>
      <trkpt lat="43.53825" lon="5.56789">
        <ele>632.8</ele>
        <time>2023-05-28T08:47:22Z</time>
      </trkpt>
      <trkpt lat="43.53825" lon="5.5679">
        <ele>632.8</ele>
        <time>2023-05-28T08:47:23Z</time>
      </trkpt>
      <trkpt lat="43.53824" lon="5.56792">
        <ele>632.7</ele>
        <time>2023-05-28T08:47:24Z</time>
      </trkpt>
      <trkpt lat="43.53823" lon="5.56793">
        <ele>632.6</ele>
        <time>2023-05-28T08:47:25Z</time>
      </trkpt>
      <trkpt lat="43.53822" lon="5.56794">
        <ele>632.6</ele>
        <time>2023-05-28T08:47:26Z</time>
      </trkpt>
      <trkpt lat="43.53822" lon="5.56795">
        <ele>632.8</ele>
        <time>2023-05-28T08:47:27Z</time>
      </trkpt>
      <trkpt lat="43.53821" lon="5.56795">
        <ele>632.9</ele>
        <time>2023-05-28T08:47:28Z</time>
      </trkpt>
      <trkpt lat="43.5382" lon="5.56796">
        <ele>633</ele>
        <time>2023-05-28T08:47:29Z</time>
      </trkpt>
      <trkpt lat="43.5382" lon="5.56797">
        <ele>633.1</ele>
        <time>2023-05-28T08:47:30Z</time>
      </trkpt>
      <trkpt lat="43.5382" lon="5.56798">
        <ele>633.2</ele>
        <time>2023-05-28T08:47:31Z</time>
      </trkpt>
      <trkpt lat="43.5382" lon="5.568">
        <ele>633.3</ele>
        <time>2023-05-28T08:47:32Z</time>
      </trkpt>
      <trkpt lat="43.5382" lon="5.56801">
        <ele>633.3</ele>
        <time>2023-05-28T08:47:33Z</time>
      </trkpt>
      <trkpt lat="43.53819" lon="5.56801">
        <ele>633.4</ele>
        <time>2023-05-28T08:47:34Z</time>
      </trkpt>
      <trkpt lat="43.53819" lon="5.56801">
        <ele>633.5</ele>
        <time>2023-05-28T08:47:35Z</time>
      </trkpt>
      <trkpt lat="43.53818" lon="5.56801">
        <ele>633.6</ele>
        <time>2023-05-28T08:47:36Z</time>
      </trkpt>
      <trkpt lat="43.53818" lon="5.56802">
        <ele>633.8</ele>
        <time>2023-05-28T08:47:37Z</time>
      </trkpt>
      <trkpt lat="43.53817" lon="5.56802">
        <ele>633.9</ele>
        <time>2023-05-28T08:47:38Z</time>
      </trkpt>
      <trkpt lat="43.53817" lon="5.56802">
        <ele>634</ele>
        <time>2023-05-28T08:47:39Z</time>
      </trkpt>
      <trkpt lat="43.53816" lon="5.56803">
        <ele>634</ele>
        <time>2023-05-28T08:47:40Z</time>
      </trkpt>
      <trkpt lat="43.53816" lon="5.56804">
        <ele>634.1</ele>
        <time>2023-05-28T08:47:41Z</time>
      </trkpt>
      <trkpt lat="43.53816" lon="5.56804">
        <ele>634.2</ele>
        <time>2023-05-28T08:47:42Z</time>
      </trkpt>
      <trkpt lat="43.53816" lon="5.56806">
        <ele>634.3</ele>
        <time>2023-05-28T08:47:43Z</time>
      </trkpt>
      <trkpt lat="43.53815" lon="5.56807">
        <ele>634.3</ele>
        <time>2023-05-28T08:47:44Z</time>
      </trkpt>
      <trkpt lat="43.53815" lon="5.56808">
        <ele>634.3</ele>
        <time>2023-05-28T08:47:45Z</time>
      </trkpt>
      <trkpt lat="43.53815" lon="5.56808">
        <ele>634.3</ele>
        <time>2023-05-28T08:47:46Z</time>
      </trkpt>
      <trkpt lat="43.53815" lon="5.56809">
        <ele>634.3</ele>
        <time>2023-05-28T08:47:47Z</time>
      </trkpt>
      <trkpt lat="43.53815" lon="5.56809">
        <ele>634.3</ele>
        <time>2023-05-28T08:47:48Z</time>
      </trkpt>
      <trkpt lat="43.53814" lon="5.5681">
        <ele>634.3</ele>
        <time>2023-05-28T08:47:49Z</time>
      </trkpt>
      <trkpt lat="43.53813" lon="5.5681">
        <ele>634.3</ele>
        <time>2023-05-28T08:47:50Z</time>
      </trkpt>
      <trkpt lat="43.53813" lon="5.56809">
        <ele>634.3</ele>
        <time>2023-05-28T08:47:51Z</time>
      </trkpt>
      <trkpt lat="43.53813" lon="5.56809">
        <ele>634.3</ele>
        <time>2023-05-28T08:47:52Z</time>
      </trkpt>
      <trkpt lat="43.53812" lon="5.56809">
        <ele>634.4</ele>
        <time>2023-05-28T08:47:53Z</time>
      </trkpt>
      <trkpt lat="43.53811" lon="5.56809">
        <ele>634.5</ele>
        <time>2023-05-28T08:47:54Z</time>
      </trkpt>
      <trkpt lat="43.53811" lon="5.56809">
        <ele>634.5</ele>
        <time>2023-05-28T08:47:55Z</time>
      </trkpt>
      <trkpt lat="43.53811" lon="5.56809">
        <ele>634.7</ele>
        <time>2023-05-28T08:47:56Z</time>
      </trkpt>
      <trkpt lat="43.53811" lon="5.56809">
        <ele>634.8</ele>
        <time>2023-05-28T08:47:57Z</time>
      </trkpt>
      <trkpt lat="43.53811" lon="5.56809">
        <ele>634.9</ele>
        <time>2023-05-28T08:47:58Z</time>
      </trkpt>
      <trkpt lat="43.53811" lon="5.56809">
        <ele>634.9</ele>
        <time>2023-05-28T08:47:59Z</time>
      </trkpt>
      <trkpt lat="43.53811" lon="5.56809">
        <ele>635</ele>
        <time>2023-05-28T08:48:00Z</time>
      </trkpt>
      <trkpt lat="43.53811" lon="5.56809">
        <ele>635</ele>
        <time>2023-05-28T08:48:01Z</time>
      </trkpt>
      <trkpt lat="43.53811" lon="5.56809">
        <ele>635</ele>
        <time>2023-05-28T08:48:02Z</time>
      </trkpt>
      <trkpt lat="43.53811" lon="5.56809">
        <ele>635.1</ele>
        <time>2023-05-28T08:48:03Z</time>
      </trkpt>
      <trkpt lat="43.53811" lon="5.56809">
        <ele>635.2</ele>
        <time>2023-05-28T08:48:04Z</time>
      </trkpt>
      <trkpt lat="43.53811" lon="5.56809">
        <ele>635.2</ele>
        <time>2023-05-28T08:48:05Z</time>
      </trkpt>
      <trkpt lat="43.53811" lon="5.56809">
        <ele>635.3</ele>
        <time>2023-05-28T08:48:06Z</time>
      </trkpt>
      <trkpt lat="43.53811" lon="5.5681">
        <ele>635.4</ele>
        <time>2023-05-28T08:48:07Z</time>
      </trkpt>
      <trkpt lat="43.53811" lon="5.5681">
        <ele>635.4</ele>
        <time>2023-05-28T08:48:08Z</time>
      </trkpt>
      <trkpt lat="43.53811" lon="5.5681">
        <ele>635.4</ele>
        <time>2023-05-28T08:48:09Z</time>
      </trkpt>
      <trkpt lat="43.53811" lon="5.5681">
        <ele>635.3</ele>
        <time>2023-05-28T08:48:10Z</time>
      </trkpt>
      <trkpt lat="43.53811" lon="5.5681">
        <ele>635.3</ele>
        <time>2023-05-28T08:48:11Z</time>
      </trkpt>
      <trkpt lat="43.53812" lon="5.5681">
        <ele>635.4</ele>
        <time>2023-05-28T08:48:12Z</time>
      </trkpt>
      <trkpt lat="43.53812" lon="5.5681">
        <ele>635.4</ele>
        <time>2023-05-28T08:48:13Z</time>
      </trkpt>
      <trkpt lat="43.53812" lon="5.5681">
        <ele>635.5</ele>
        <time>2023-05-28T08:48:14Z</time>
      </trkpt>
      <trkpt lat="43.53812" lon="5.5681">
        <ele>635.5</ele>
        <time>2023-05-28T08:48:15Z</time>
      </trkpt>
      <trkpt lat="43.53812" lon="5.5681">
        <ele>635.5</ele>
        <time>2023-05-28T08:48:16Z</time>
      </trkpt>
      <trkpt lat="43.53812" lon="5.5681">
        <ele>635.5</ele>
        <time>2023-05-28T08:48:17Z</time>
      </trkpt>
      <trkpt lat="43.53812" lon="5.56811">
        <ele>635.5</ele>
        <time>2023-05-28T08:48:18Z</time>
      </trkpt>
      <trkpt lat="43.53812" lon="5.56811">
        <ele>635.5</ele>
        <time>2023-05-28T08:48:19Z</time>
      </trkpt>
      <trkpt lat="43.53812" lon="5.56811">
        <ele>635.5</ele>
        <time>2023-05-28T08:48:20Z</time>
      </trkpt>
      <trkpt lat="43.53812" lon="5.56811">
        <ele>635.5</ele>
        <time>2023-05-28T08:48:21Z</time>
      </trkpt>
      <trkpt lat="43.53812" lon="5.56811">
        <ele>635.5</ele>
        <time>2023-05-28T08:48:22Z</time>
      </trkpt>
      <trkpt lat="43.53812" lon="5.56811">
        <ele>635.4</ele>
        <time>2023-05-28T08:48:23Z</time>
      </trkpt>
      <trkpt lat="43.53811" lon="5.56811">
        <ele>635.5</ele>
        <time>2023-05-28T08:48:24Z</time>
      </trkpt>
      <trkpt lat="43.53811" lon="5.56811">
        <ele>635.6</ele>
        <time>2023-05-28T08:48:25Z</time>
      </trkpt>
      <trkpt lat="43.53811" lon="5.56811">
        <ele>635.5</ele>
        <time>2023-05-28T08:48:26Z</time>
      </trkpt>
      <trkpt lat="43.53811" lon="5.56811">
        <ele>635.5</ele>
        <time>2023-05-28T08:48:27Z</time>
      </trkpt>
      <trkpt lat="43.53811" lon="5.5681">
        <ele>635.6</ele>
        <time>2023-05-28T08:48:28Z</time>
      </trkpt>
      <trkpt lat="43.53811" lon="5.5681">
        <ele>635.7</ele>
        <time>2023-05-28T08:48:29Z</time>
      </trkpt>
      <trkpt lat="43.53811" lon="5.5681">
        <ele>635.7</ele>
        <time>2023-05-28T08:48:30Z</time>
      </trkpt>
      <trkpt lat="43.53811" lon="5.5681">
        <ele>635.7</ele>
        <time>2023-05-28T08:48:31Z</time>
      </trkpt>
      <trkpt lat="43.53811" lon="5.5681">
        <ele>635.8</ele>
        <time>2023-05-28T08:48:32Z</time>
      </trkpt>
      <trkpt lat="43.53811" lon="5.5681">
        <ele>635.8</ele>
        <time>2023-05-28T08:48:33Z</time>
      </trkpt>
      <trkpt lat="43.53811" lon="5.5681">
        <ele>635.8</ele>
        <time>2023-05-28T08:48:34Z</time>
      </trkpt>
      <trkpt lat="43.53811" lon="5.5681">
        <ele>635.8</ele>
        <time>2023-05-28T08:48:35Z</time>
      </trkpt>
      <trkpt lat="43.53811" lon="5.5681">
        <ele>635.9</ele>
        <time>2023-05-28T08:48:36Z</time>
      </trkpt>
      <trkpt lat="43.53811" lon="5.56809">
        <ele>635.9</ele>
        <time>2023-05-28T08:48:37Z</time>
      </trkpt>
      <trkpt lat="43.53812" lon="5.56809">
        <ele>635.9</ele>
        <time>2023-05-28T08:48:38Z</time>
      </trkpt>
      <trkpt lat="43.53812" lon="5.56809">
        <ele>635.9</ele>
        <time>2023-05-28T08:48:39Z</time>
      </trkpt>
      <trkpt lat="43.53812" lon="5.56809">
        <ele>635.9</ele>
        <time>2023-05-28T08:48:40Z</time>
      </trkpt>
      <trkpt lat="43.53812" lon="5.56809">
        <ele>636</ele>
        <time>2023-05-28T08:48:41Z</time>
      </trkpt>
      <trkpt lat="43.53812" lon="5.56809">
        <ele>636</ele>
        <time>2023-05-28T08:48:42Z</time>
      </trkpt>
      <trkpt lat="43.53812" lon="5.56809">
        <ele>636</ele>
        <time>2023-05-28T08:48:43Z</time>
      </trkpt>
      <trkpt lat="43.53812" lon="5.56809">
        <ele>635.9</ele>
        <time>2023-05-28T08:48:44Z</time>
      </trkpt>
      <trkpt lat="43.53812" lon="5.56809">
        <ele>635.9</ele>
        <time>2023-05-28T08:48:45Z</time>
      </trkpt>
      <trkpt lat="43.53812" lon="5.56808">
        <ele>635.9</ele>
        <time>2023-05-28T08:48:46Z</time>
      </trkpt>
      <trkpt lat="43.53812" lon="5.56808">
        <ele>635.8</ele>
        <time>2023-05-28T08:48:47Z</time>
      </trkpt>
      <trkpt lat="43.53812" lon="5.56808">
        <ele>635.8</ele>
        <time>2023-05-28T08:48:48Z</time>
      </trkpt>
      <trkpt lat="43.53812" lon="5.56808">
        <ele>635.8</ele>
        <time>2023-05-28T08:48:49Z</time>
      </trkpt>
      <trkpt lat="43.53812" lon="5.56808">
        <ele>635.8</ele>
        <time>2023-05-28T08:48:50Z</time>
      </trkpt>
      <trkpt lat="43.53812" lon="5.56808">
        <ele>635.8</ele>
        <time>2023-05-28T08:48:51Z</time>
      </trkpt>
      <trkpt lat="43.53812" lon="5.56808">
        <ele>635.8</ele>
        <time>2023-05-28T08:48:52Z</time>
      </trkpt>
      <trkpt lat="43.53812" lon="5.56808">
        <ele>635.7</ele>
        <time>2023-05-28T08:48:53Z</time>
      </trkpt>
      <trkpt lat="43.53811" lon="5.56808">
        <ele>635.8</ele>
        <time>2023-05-28T08:48:54Z</time>
      </trkpt>
      <trkpt lat="43.53811" lon="5.56808">
        <ele>635.8</ele>
        <time>2023-05-28T08:48:55Z</time>
      </trkpt>
      <trkpt lat="43.53811" lon="5.56808">
        <ele>635.8</ele>
        <time>2023-05-28T08:48:56Z</time>
      </trkpt>
      <trkpt lat="43.53811" lon="5.56808">
        <ele>635.8</ele>
        <time>2023-05-28T08:48:57Z</time>
      </trkpt>
      <trkpt lat="43.53811" lon="5.56808">
        <ele>635.8</ele>
        <time>2023-05-28T08:48:58Z</time>
      </trkpt>
      <trkpt lat="43.53811" lon="5.56808">
        <ele>635.8</ele>
        <time>2023-05-28T08:48:59Z</time>
      </trkpt>
      <trkpt lat="43.53811" lon="5.56808">
        <ele>635.8</ele>
        <time>2023-05-28T08:49:00Z</time>
      </trkpt>
      <trkpt lat="43.53811" lon="5.56808">
        <ele>635.8</ele>
        <time>2023-05-28T08:49:01Z</time>
      </trkpt>
      <trkpt lat="43.53811" lon="5.56808">
        <ele>635.8</ele>
        <time>2023-05-28T08:49:02Z</time>
      </trkpt>
      <trkpt lat="43.53811" lon="5.56808">
        <ele>635.8</ele>
        <time>2023-05-28T08:49:03Z</time>
      </trkpt>
      <trkpt lat="43.53811" lon="5.56808">
        <ele>635.8</ele>
        <time>2023-05-28T08:49:04Z</time>
      </trkpt>
      <trkpt lat="43.53811" lon="5.56808">
        <ele>635.8</ele>
        <time>2023-05-28T08:49:05Z</time>
      </trkpt>
      <trkpt lat="43.53811" lon="5.56808">
        <ele>636</ele>
        <time>2023-05-28T08:49:06Z</time>
      </trkpt>
      <trkpt lat="43.5381" lon="5.56808">
        <ele>636</ele>
        <time>2023-05-28T08:49:07Z</time>
      </trkpt>
      <trkpt lat="43.5381" lon="5.56808">
        <ele>636.1</ele>
        <time>2023-05-28T08:49:08Z</time>
      </trkpt>
      <trkpt lat="43.5381" lon="5.56808">
        <ele>636.2</ele>
        <time>2023-05-28T08:49:09Z</time>
      </trkpt>
      <trkpt lat="43.5381" lon="5.56808">
        <ele>636.2</ele>
        <time>2023-05-28T08:49:10Z</time>
      </trkpt>
      <trkpt lat="43.5381" lon="5.56808">
        <ele>636.2</ele>
        <time>2023-05-28T08:49:11Z</time>
      </trkpt>
      <trkpt lat="43.5381" lon="5.56808">
        <ele>636.2</ele>
        <time>2023-05-28T08:49:12Z</time>
      </trkpt>
      <trkpt lat="43.5381" lon="5.56808">
        <ele>636.2</ele>
        <time>2023-05-28T08:49:13Z</time>
      </trkpt>
      <trkpt lat="43.5381" lon="5.56808">
        <ele>636.2</ele>
        <time>2023-05-28T08:49:14Z</time>
      </trkpt>
      <trkpt lat="43.5381" lon="5.56808">
        <ele>636.2</ele>
        <time>2023-05-28T08:49:15Z</time>
      </trkpt>
      <trkpt lat="43.5381" lon="5.56808">
        <ele>636.2</ele>
        <time>2023-05-28T08:49:16Z</time>
      </trkpt>
      <trkpt lat="43.5381" lon="5.56808">
        <ele>636.2</ele>
        <time>2023-05-28T08:49:17Z</time>
      </trkpt>
      <trkpt lat="43.53809" lon="5.56808">
        <ele>636.1</ele>
        <time>2023-05-28T08:49:18Z</time>
      </trkpt>
      <trkpt lat="43.53809" lon="5.56808">
        <ele>636.1</ele>
        <time>2023-05-28T08:49:19Z</time>
      </trkpt>
      <trkpt lat="43.53809" lon="5.56808">
        <ele>636.2</ele>
        <time>2023-05-28T08:49:20Z</time>
      </trkpt>
      <trkpt lat="43.53809" lon="5.56808">
        <ele>636.1</ele>
        <time>2023-05-28T08:49:21Z</time>
      </trkpt>
      <trkpt lat="43.53809" lon="5.56808">
        <ele>636.1</ele>
        <time>2023-05-28T08:49:22Z</time>
      </trkpt>
      <trkpt lat="43.53809" lon="5.56808">
        <ele>636.1</ele>
        <time>2023-05-28T08:49:23Z</time>
      </trkpt>
      <trkpt lat="43.53809" lon="5.56809">
        <ele>636.1</ele>
        <time>2023-05-28T08:49:24Z</time>
      </trkpt>
      <trkpt lat="43.53809" lon="5.56809">
        <ele>636.1</ele>
        <time>2023-05-28T08:49:25Z</time>
      </trkpt>
      <trkpt lat="43.53809" lon="5.56808">
        <ele>636.2</ele>
        <time>2023-05-28T08:49:26Z</time>
      </trkpt>
      <trkpt lat="43.53809" lon="5.56808">
        <ele>636.2</ele>
        <time>2023-05-28T08:49:27Z</time>
      </trkpt>
      <trkpt lat="43.53808" lon="5.56809">
        <ele>636.2</ele>
        <time>2023-05-28T08:49:28Z</time>
      </trkpt>
      <trkpt lat="43.53808" lon="5.56809">
        <ele>636.2</ele>
        <time>2023-05-28T08:49:29Z</time>
      </trkpt>
      <trkpt lat="43.53808" lon="5.5681">
        <ele>636.3</ele>
        <time>2023-05-28T08:49:30Z</time>
      </trkpt>
      <trkpt lat="43.53808" lon="5.56811">
        <ele>636.3</ele>
        <time>2023-05-28T08:49:31Z</time>
      </trkpt>
      <trkpt lat="43.53807" lon="5.56812">
        <ele>636.3</ele>
        <time>2023-05-28T08:49:32Z</time>
      </trkpt>
      <trkpt lat="43.53807" lon="5.56812">
        <ele>636.3</ele>
        <time>2023-05-28T08:49:33Z</time>
      </trkpt>
      <trkpt lat="43.53806" lon="5.56813">
        <ele>636.3</ele>
        <time>2023-05-28T08:49:34Z</time>
      </trkpt>
      <trkpt lat="43.53806" lon="5.56814">
        <ele>636.3</ele>
        <time>2023-05-28T08:49:35Z</time>
      </trkpt>
      <trkpt lat="43.53804" lon="5.56815">
        <ele>636.4</ele>
        <time>2023-05-28T08:49:36Z</time>
      </trkpt>
      <trkpt lat="43.53804" lon="5.56816">
        <ele>636.4</ele>
        <time>2023-05-28T08:49:37Z</time>
      </trkpt>
      <trkpt lat="43.53803" lon="5.56817">
        <ele>636.4</ele>
        <time>2023-05-28T08:49:38Z</time>
      </trkpt>
      <trkpt lat="43.53802" lon="5.56818">
        <ele>636.4</ele>
        <time>2023-05-28T08:49:39Z</time>
      </trkpt>
      <trkpt lat="43.53801" lon="5.56819">
        <ele>636.5</ele>
        <time>2023-05-28T08:49:40Z</time>
      </trkpt>
      <trkpt lat="43.53801" lon="5.5682">
        <ele>636.5</ele>
        <time>2023-05-28T08:49:41Z</time>
      </trkpt>
      <trkpt lat="43.53801" lon="5.56821">
        <ele>636.5</ele>
        <time>2023-05-28T08:49:42Z</time>
      </trkpt>
      <trkpt lat="43.538" lon="5.56822">
        <ele>636.6</ele>
        <time>2023-05-28T08:49:43Z</time>
      </trkpt>
      <trkpt lat="43.538" lon="5.56823">
        <ele>636.6</ele>
        <time>2023-05-28T08:49:44Z</time>
      </trkpt>
      <trkpt lat="43.538" lon="5.56825">
        <ele>636.7</ele>
        <time>2023-05-28T08:49:45Z</time>
      </trkpt>
      <trkpt lat="43.538" lon="5.56827">
        <ele>636.7</ele>
        <time>2023-05-28T08:49:46Z</time>
      </trkpt>
      <trkpt lat="43.538" lon="5.56828">
        <ele>636.8</ele>
        <time>2023-05-28T08:49:47Z</time>
      </trkpt>
      <trkpt lat="43.538" lon="5.5683">
        <ele>636.8</ele>
        <time>2023-05-28T08:49:48Z</time>
      </trkpt>
      <trkpt lat="43.53799" lon="5.56831">
        <ele>636.8</ele>
        <time>2023-05-28T08:49:49Z</time>
      </trkpt>
      <trkpt lat="43.53799" lon="5.56832">
        <ele>636.9</ele>
        <time>2023-05-28T08:49:50Z</time>
      </trkpt>
      <trkpt lat="43.53798" lon="5.56834">
        <ele>636.9</ele>
        <time>2023-05-28T08:49:51Z</time>
      </trkpt>
      <trkpt lat="43.53798" lon="5.56835">
        <ele>636.9</ele>
        <time>2023-05-28T08:49:52Z</time>
      </trkpt>
      <trkpt lat="43.53798" lon="5.56836">
        <ele>636.9</ele>
        <time>2023-05-28T08:49:53Z</time>
      </trkpt>
      <trkpt lat="43.53797" lon="5.56837">
        <ele>636.9</ele>
        <time>2023-05-28T08:49:54Z</time>
      </trkpt>
      <trkpt lat="43.53797" lon="5.56839">
        <ele>636.9</ele>
        <time>2023-05-28T08:49:55Z</time>
      </trkpt>
      <trkpt lat="43.53797" lon="5.5684">
        <ele>637</ele>
        <time>2023-05-28T08:49:56Z</time>
      </trkpt>
      <trkpt lat="43.53797" lon="5.56842">
        <ele>636.9</ele>
        <time>2023-05-28T08:49:57Z</time>
      </trkpt>
      <trkpt lat="43.53797" lon="5.56843">
        <ele>636.8</ele>
        <time>2023-05-28T08:49:58Z</time>
      </trkpt>
      <trkpt lat="43.53797" lon="5.56845">
        <ele>636.7</ele>
        <time>2023-05-28T08:49:59Z</time>
      </trkpt>
      <trkpt lat="43.53796" lon="5.56846">
        <ele>636.6</ele>
        <time>2023-05-28T08:50:00Z</time>
      </trkpt>
      <trkpt lat="43.53795" lon="5.56847">
        <ele>636.5</ele>
        <time>2023-05-28T08:50:01Z</time>
      </trkpt>
      <trkpt lat="43.53795" lon="5.56848">
        <ele>636.5</ele>
        <time>2023-05-28T08:50:02Z</time>
      </trkpt>
      <trkpt lat="43.53794" lon="5.56849">
        <ele>636.5</ele>
        <time>2023-05-28T08:50:03Z</time>
      </trkpt>
      <trkpt lat="43.53793" lon="5.56849">
        <ele>636.5</ele>
        <time>2023-05-28T08:50:04Z</time>
      </trkpt>
      <trkpt lat="43.53793" lon="5.5685">
        <ele>636.4</ele>
        <time>2023-05-28T08:50:05Z</time>
      </trkpt>
      <trkpt lat="43.53792" lon="5.56851">
        <ele>636.4</ele>
        <time>2023-05-28T08:50:06Z</time>
      </trkpt>
      <trkpt lat="43.53791" lon="5.56852">
        <ele>636.5</ele>
        <time>2023-05-28T08:50:07Z</time>
      </trkpt>
      <trkpt lat="43.53791" lon="5.56854">
        <ele>636.6</ele>
        <time>2023-05-28T08:50:08Z</time>
      </trkpt>
      <trkpt lat="43.5379" lon="5.56855">
        <ele>636.7</ele>
        <time>2023-05-28T08:50:09Z</time>
      </trkpt>
      <trkpt lat="43.5379" lon="5.56857">
        <ele>636.8</ele>
        <time>2023-05-28T08:50:10Z</time>
      </trkpt>
      <trkpt lat="43.53789" lon="5.56858">
        <ele>636.7</ele>
        <time>2023-05-28T08:50:11Z</time>
      </trkpt>
      <trkpt lat="43.53789" lon="5.56859">
        <ele>636.7</ele>
        <time>2023-05-28T08:50:12Z</time>
      </trkpt>
      <trkpt lat="43.53788" lon="5.5686">
        <ele>636.8</ele>
        <time>2023-05-28T08:50:13Z</time>
      </trkpt>
      <trkpt lat="43.53787" lon="5.5686">
        <ele>636.8</ele>
        <time>2023-05-28T08:50:14Z</time>
      </trkpt>
      <trkpt lat="43.53786" lon="5.56861">
        <ele>636.9</ele>
        <time>2023-05-28T08:50:15Z</time>
      </trkpt>
      <trkpt lat="43.53786" lon="5.56862">
        <ele>637</ele>
        <time>2023-05-28T08:50:16Z</time>
      </trkpt>
      <trkpt lat="43.53785" lon="5.56863">
        <ele>637</ele>
        <time>2023-05-28T08:50:17Z</time>
      </trkpt>
      <trkpt lat="43.53784" lon="5.56863">
        <ele>637.2</ele>
        <time>2023-05-28T08:50:18Z</time>
      </trkpt>
      <trkpt lat="43.53783" lon="5.56864">
        <ele>637.2</ele>
        <time>2023-05-28T08:50:19Z</time>
      </trkpt>
      <trkpt lat="43.53783" lon="5.56865">
        <ele>637.3</ele>
        <time>2023-05-28T08:50:20Z</time>
      </trkpt>
      <trkpt lat="43.53782" lon="5.56867">
        <ele>637.3</ele>
        <time>2023-05-28T08:50:21Z</time>
      </trkpt>
      <trkpt lat="43.53782" lon="5.56868">
        <ele>637.4</ele>
        <time>2023-05-28T08:50:22Z</time>
      </trkpt>
      <trkpt lat="43.53782" lon="5.56869">
        <ele>637.4</ele>
        <time>2023-05-28T08:50:23Z</time>
      </trkpt>
      <trkpt lat="43.53781" lon="5.5687">
        <ele>637.4</ele>
        <time>2023-05-28T08:50:24Z</time>
      </trkpt>
      <trkpt lat="43.5378" lon="5.5687">
        <ele>637.4</ele>
        <time>2023-05-28T08:50:25Z</time>
      </trkpt>
      <trkpt lat="43.53779" lon="5.56871">
        <ele>637.5</ele>
        <time>2023-05-28T08:50:26Z</time>
      </trkpt>
      <trkpt lat="43.53779" lon="5.56872">
        <ele>637.5</ele>
        <time>2023-05-28T08:50:27Z</time>
      </trkpt>
      <trkpt lat="43.53779" lon="5.56873">
        <ele>637.6</ele>
        <time>2023-05-28T08:50:28Z</time>
      </trkpt>
      <trkpt lat="43.53778" lon="5.56874">
        <ele>637.6</ele>
        <time>2023-05-28T08:50:29Z</time>
      </trkpt>
      <trkpt lat="43.53778" lon="5.56876">
        <ele>637.7</ele>
        <time>2023-05-28T08:50:30Z</time>
      </trkpt>
      <trkpt lat="43.53777" lon="5.56876">
        <ele>637.8</ele>
        <time>2023-05-28T08:50:31Z</time>
      </trkpt>
      <trkpt lat="43.53777" lon="5.56877">
        <ele>637.8</ele>
        <time>2023-05-28T08:50:32Z</time>
      </trkpt>
      <trkpt lat="43.53776" lon="5.56878">
        <ele>637.7</ele>
        <time>2023-05-28T08:50:33Z</time>
      </trkpt>
      <trkpt lat="43.53776" lon="5.56879">
        <ele>637.7</ele>
        <time>2023-05-28T08:50:34Z</time>
      </trkpt>
      <trkpt lat="43.53776" lon="5.5688">
        <ele>637.6</ele>
        <time>2023-05-28T08:50:35Z</time>
      </trkpt>
      <trkpt lat="43.53776" lon="5.56882">
        <ele>637.5</ele>
        <time>2023-05-28T08:50:36Z</time>
      </trkpt>
      <trkpt lat="43.53776" lon="5.56883">
        <ele>637.4</ele>
        <time>2023-05-28T08:50:37Z</time>
      </trkpt>
      <trkpt lat="43.53776" lon="5.56885">
        <ele>637.3</ele>
        <time>2023-05-28T08:50:38Z</time>
      </trkpt>
      <trkpt lat="43.53776" lon="5.56886">
        <ele>637.1</ele>
        <time>2023-05-28T08:50:39Z</time>
      </trkpt>
      <trkpt lat="43.53776" lon="5.56888">
        <ele>636.9</ele>
        <time>2023-05-28T08:50:40Z</time>
      </trkpt>
      <trkpt lat="43.53775" lon="5.56889">
        <ele>636.7</ele>
        <time>2023-05-28T08:50:41Z</time>
      </trkpt>
      <trkpt lat="43.53774" lon="5.5689">
        <ele>636.6</ele>
        <time>2023-05-28T08:50:42Z</time>
      </trkpt>
      <trkpt lat="43.53773" lon="5.56891">
        <ele>636.5</ele>
        <time>2023-05-28T08:50:43Z</time>
      </trkpt>
      <trkpt lat="43.53772" lon="5.56891">
        <ele>636.4</ele>
        <time>2023-05-28T08:50:44Z</time>
      </trkpt>
      <trkpt lat="43.53771" lon="5.56892">
        <ele>636.3</ele>
        <time>2023-05-28T08:50:45Z</time>
      </trkpt>
      <trkpt lat="43.5377" lon="5.56893">
        <ele>636.2</ele>
        <time>2023-05-28T08:50:46Z</time>
      </trkpt>
      <trkpt lat="43.5377" lon="5.56893">
        <ele>636.2</ele>
        <time>2023-05-28T08:50:47Z</time>
      </trkpt>
      <trkpt lat="43.53769" lon="5.56894">
        <ele>636.1</ele>
        <time>2023-05-28T08:50:48Z</time>
      </trkpt>
      <trkpt lat="43.53768" lon="5.56896">
        <ele>636.1</ele>
        <time>2023-05-28T08:50:49Z</time>
      </trkpt>
      <trkpt lat="43.53767" lon="5.56897">
        <ele>636</ele>
        <time>2023-05-28T08:50:50Z</time>
      </trkpt>
      <trkpt lat="43.53766" lon="5.56899">
        <ele>635.9</ele>
        <time>2023-05-28T08:50:51Z</time>
      </trkpt>
      <trkpt lat="43.53765" lon="5.569">
        <ele>635.9</ele>
        <time>2023-05-28T08:50:52Z</time>
      </trkpt>
      <trkpt lat="43.53765" lon="5.56901">
        <ele>636</ele>
        <time>2023-05-28T08:50:53Z</time>
      </trkpt>
      <trkpt lat="43.53764" lon="5.56903">
        <ele>636.1</ele>
        <time>2023-05-28T08:50:54Z</time>
      </trkpt>
      <trkpt lat="43.53763" lon="5.56904">
        <ele>636.1</ele>
        <time>2023-05-28T08:50:55Z</time>
      </trkpt>
      <trkpt lat="43.53763" lon="5.56906">
        <ele>636.2</ele>
        <time>2023-05-28T08:50:56Z</time>
      </trkpt>
      <trkpt lat="43.53762" lon="5.56907">
        <ele>636.4</ele>
        <time>2023-05-28T08:50:57Z</time>
      </trkpt>
      <trkpt lat="43.53761" lon="5.56908">
        <ele>636.5</ele>
        <time>2023-05-28T08:50:58Z</time>
      </trkpt>
      <trkpt lat="43.5376" lon="5.56909">
        <ele>636.6</ele>
        <time>2023-05-28T08:50:59Z</time>
      </trkpt>
      <trkpt lat="43.53759" lon="5.5691">
        <ele>636.7</ele>
        <time>2023-05-28T08:51:00Z</time>
      </trkpt>
      <trkpt lat="43.53759" lon="5.56911">
        <ele>636.8</ele>
        <time>2023-05-28T08:51:01Z</time>
      </trkpt>
      <trkpt lat="43.53757" lon="5.56913">
        <ele>636.9</ele>
        <time>2023-05-28T08:51:02Z</time>
      </trkpt>
      <trkpt lat="43.53757" lon="5.56913">
        <ele>637</ele>
        <time>2023-05-28T08:51:03Z</time>
      </trkpt>
      <trkpt lat="43.53755" lon="5.56914">
        <ele>637.1</ele>
        <time>2023-05-28T08:51:04Z</time>
      </trkpt>
      <trkpt lat="43.53755" lon="5.56916">
        <ele>637</ele>
        <time>2023-05-28T08:51:05Z</time>
      </trkpt>
      <trkpt lat="43.53754" lon="5.56917">
        <ele>637.1</ele>
        <time>2023-05-28T08:51:06Z</time>
      </trkpt>
      <trkpt lat="43.53753" lon="5.56918">
        <ele>637.2</ele>
        <time>2023-05-28T08:51:07Z</time>
      </trkpt>
      <trkpt lat="43.53753" lon="5.5692">
        <ele>637.3</ele>
        <time>2023-05-28T08:51:08Z</time>
      </trkpt>
      <trkpt lat="43.53752" lon="5.56921">
        <ele>637.5</ele>
        <time>2023-05-28T08:51:09Z</time>
      </trkpt>
      <trkpt lat="43.53752" lon="5.56923">
        <ele>637.7</ele>
        <time>2023-05-28T08:51:10Z</time>
      </trkpt>
      <trkpt lat="43.53753" lon="5.56925">
        <ele>638</ele>
        <time>2023-05-28T08:51:11Z</time>
      </trkpt>
      <trkpt lat="43.53754" lon="5.56926">
        <ele>638.2</ele>
        <time>2023-05-28T08:51:12Z</time>
      </trkpt>
      <trkpt lat="43.53755" lon="5.56927">
        <ele>638.4</ele>
        <time>2023-05-28T08:51:13Z</time>
      </trkpt>
      <trkpt lat="43.53756" lon="5.56928">
        <ele>638.5</ele>
        <time>2023-05-28T08:51:14Z</time>
      </trkpt>
      <trkpt lat="43.53756" lon="5.56929">
        <ele>638.6</ele>
        <time>2023-05-28T08:51:15Z</time>
      </trkpt>
      <trkpt lat="43.53755" lon="5.56931">
        <ele>638.7</ele>
        <time>2023-05-28T08:51:16Z</time>
      </trkpt>
      <trkpt lat="43.53755" lon="5.56932">
        <ele>638.7</ele>
        <time>2023-05-28T08:51:17Z</time>
      </trkpt>
      <trkpt lat="43.53754" lon="5.56933">
        <ele>638.8</ele>
        <time>2023-05-28T08:51:18Z</time>
      </trkpt>
      <trkpt lat="43.53754" lon="5.56935">
        <ele>638.9</ele>
        <time>2023-05-28T08:51:19Z</time>
      </trkpt>
      <trkpt lat="43.53753" lon="5.56936">
        <ele>639.1</ele>
        <time>2023-05-28T08:51:20Z</time>
      </trkpt>
      <trkpt lat="43.53753" lon="5.56938">
        <ele>639.2</ele>
        <time>2023-05-28T08:51:21Z</time>
      </trkpt>
      <trkpt lat="43.53752" lon="5.56939">
        <ele>639.2</ele>
        <time>2023-05-28T08:51:22Z</time>
      </trkpt>
      <trkpt lat="43.53752" lon="5.56941">
        <ele>639.5</ele>
        <time>2023-05-28T08:51:23Z</time>
      </trkpt>
      <trkpt lat="43.53752" lon="5.56943">
        <ele>639.7</ele>
        <time>2023-05-28T08:51:24Z</time>
      </trkpt>
      <trkpt lat="43.53752" lon="5.56945">
        <ele>639.8</ele>
        <time>2023-05-28T08:51:25Z</time>
      </trkpt>
      <trkpt lat="43.53752" lon="5.56947">
        <ele>639.9</ele>
        <time>2023-05-28T08:51:26Z</time>
      </trkpt>
      <trkpt lat="43.53752" lon="5.56948">
        <ele>640</ele>
        <time>2023-05-28T08:51:27Z</time>
      </trkpt>
      <trkpt lat="43.53751" lon="5.5695">
        <ele>640</ele>
        <time>2023-05-28T08:51:28Z</time>
      </trkpt>
      <trkpt lat="43.5375" lon="5.56951">
        <ele>640.1</ele>
        <time>2023-05-28T08:51:29Z</time>
      </trkpt>
      <trkpt lat="43.5375" lon="5.56953">
        <ele>640.4</ele>
        <time>2023-05-28T08:51:30Z</time>
      </trkpt>
      <trkpt lat="43.5375" lon="5.56954">
        <ele>640.6</ele>
        <time>2023-05-28T08:51:31Z</time>
      </trkpt>
      <trkpt lat="43.53749" lon="5.56955">
        <ele>640.7</ele>
        <time>2023-05-28T08:51:32Z</time>
      </trkpt>
      <trkpt lat="43.53748" lon="5.56956">
        <ele>640.8</ele>
        <time>2023-05-28T08:51:33Z</time>
      </trkpt>
      <trkpt lat="43.53747" lon="5.56956">
        <ele>641</ele>
        <time>2023-05-28T08:51:34Z</time>
      </trkpt>
      <trkpt lat="43.53747" lon="5.56957">
        <ele>641.1</ele>
        <time>2023-05-28T08:51:35Z</time>
      </trkpt>
      <trkpt lat="43.53746" lon="5.56959">
        <ele>641.4</ele>
        <time>2023-05-28T08:51:36Z</time>
      </trkpt>
      <trkpt lat="43.53746" lon="5.56961">
        <ele>641.6</ele>
        <time>2023-05-28T08:51:37Z</time>
      </trkpt>
      <trkpt lat="43.53746" lon="5.56962">
        <ele>641.7</ele>
        <time>2023-05-28T08:51:38Z</time>
      </trkpt>
      <trkpt lat="43.53745" lon="5.56963">
        <ele>641.8</ele>
        <time>2023-05-28T08:51:39Z</time>
      </trkpt>
      <trkpt lat="43.53745" lon="5.56964">
        <ele>642</ele>
        <time>2023-05-28T08:51:40Z</time>
      </trkpt>
      <trkpt lat="43.53744" lon="5.56965">
        <ele>642.2</ele>
        <time>2023-05-28T08:51:41Z</time>
      </trkpt>
      <trkpt lat="43.53744" lon="5.56966">
        <ele>642.5</ele>
        <time>2023-05-28T08:51:42Z</time>
      </trkpt>
      <trkpt lat="43.53743" lon="5.56967">
        <ele>642.7</ele>
        <time>2023-05-28T08:51:43Z</time>
      </trkpt>
      <trkpt lat="43.53742" lon="5.56968">
        <ele>643</ele>
        <time>2023-05-28T08:51:44Z</time>
      </trkpt>
      <trkpt lat="43.53742" lon="5.56969">
        <ele>643.2</ele>
        <time>2023-05-28T08:51:45Z</time>
      </trkpt>
      <trkpt lat="43.53741" lon="5.5697">
        <ele>643.4</ele>
        <time>2023-05-28T08:51:46Z</time>
      </trkpt>
      <trkpt lat="43.53741" lon="5.56971">
        <ele>643.5</ele>
        <time>2023-05-28T08:51:47Z</time>
      </trkpt>
      <trkpt lat="43.5374" lon="5.56972">
        <ele>643.7</ele>
        <time>2023-05-28T08:51:48Z</time>
      </trkpt>
      <trkpt lat="43.5374" lon="5.56974">
        <ele>643.8</ele>
        <time>2023-05-28T08:51:49Z</time>
      </trkpt>
      <trkpt lat="43.5374" lon="5.56976">
        <ele>643.7</ele>
        <time>2023-05-28T08:51:50Z</time>
      </trkpt>
      <trkpt lat="43.5374" lon="5.56977">
        <ele>643.8</ele>
        <time>2023-05-28T08:51:51Z</time>
      </trkpt>
      <trkpt lat="43.53739" lon="5.56979">
        <ele>643.9</ele>
        <time>2023-05-28T08:51:52Z</time>
      </trkpt>
      <trkpt lat="43.53739" lon="5.56979">
        <ele>644</ele>
        <time>2023-05-28T08:51:53Z</time>
      </trkpt>
      <trkpt lat="43.53738" lon="5.5698">
        <ele>644.1</ele>
        <time>2023-05-28T08:51:54Z</time>
      </trkpt>
      <trkpt lat="43.53738" lon="5.5698">
        <ele>644.1</ele>
        <time>2023-05-28T08:51:55Z</time>
      </trkpt>
      <trkpt lat="43.53737" lon="5.5698">
        <ele>644.1</ele>
        <time>2023-05-28T08:51:56Z</time>
      </trkpt>
      <trkpt lat="43.53736" lon="5.56981">
        <ele>644.2</ele>
        <time>2023-05-28T08:51:57Z</time>
      </trkpt>
      <trkpt lat="43.53735" lon="5.56982">
        <ele>644.3</ele>
        <time>2023-05-28T08:51:58Z</time>
      </trkpt>
      <trkpt lat="43.53735" lon="5.56983">
        <ele>644.4</ele>
        <time>2023-05-28T08:51:59Z</time>
      </trkpt>
      <trkpt lat="43.53734" lon="5.56984">
        <ele>644.6</ele>
        <time>2023-05-28T08:52:00Z</time>
      </trkpt>
      <trkpt lat="43.53734" lon="5.56985">
        <ele>644.7</ele>
        <time>2023-05-28T08:52:01Z</time>
      </trkpt>
      <trkpt lat="43.53734" lon="5.56987">
        <ele>644.9</ele>
        <time>2023-05-28T08:52:02Z</time>
      </trkpt>
      <trkpt lat="43.53733" lon="5.56988">
        <ele>645</ele>
        <time>2023-05-28T08:52:03Z</time>
      </trkpt>
      <trkpt lat="43.53733" lon="5.56989">
        <ele>645.2</ele>
        <time>2023-05-28T08:52:04Z</time>
      </trkpt>
      <trkpt lat="43.53732" lon="5.5699">
        <ele>645.4</ele>
        <time>2023-05-28T08:52:05Z</time>
      </trkpt>
      <trkpt lat="43.53732" lon="5.56991">
        <ele>645.5</ele>
        <time>2023-05-28T08:52:06Z</time>
      </trkpt>
      <trkpt lat="43.53731" lon="5.56992">
        <ele>645.7</ele>
        <time>2023-05-28T08:52:07Z</time>
      </trkpt>
      <trkpt lat="43.5373" lon="5.56992">
        <ele>645.9</ele>
        <time>2023-05-28T08:52:08Z</time>
      </trkpt>
      <trkpt lat="43.5373" lon="5.56993">
        <ele>646.2</ele>
        <time>2023-05-28T08:52:09Z</time>
      </trkpt>
      <trkpt lat="43.53729" lon="5.56993">
        <ele>646.3</ele>
        <time>2023-05-28T08:52:10Z</time>
      </trkpt>
      <trkpt lat="43.53729" lon="5.56994">
        <ele>646.4</ele>
        <time>2023-05-28T08:52:11Z</time>
      </trkpt>
      <trkpt lat="43.53728" lon="5.56995">
        <ele>646.5</ele>
        <time>2023-05-28T08:52:12Z</time>
      </trkpt>
      <trkpt lat="43.53728" lon="5.56995">
        <ele>646.8</ele>
        <time>2023-05-28T08:52:13Z</time>
      </trkpt>
      <trkpt lat="43.53727" lon="5.56996">
        <ele>647</ele>
        <time>2023-05-28T08:52:14Z</time>
      </trkpt>
      <trkpt lat="43.53726" lon="5.56996">
        <ele>647.3</ele>
        <time>2023-05-28T08:52:15Z</time>
      </trkpt>
      <trkpt lat="43.53726" lon="5.56996">
        <ele>647.6</ele>
        <time>2023-05-28T08:52:16Z</time>
      </trkpt>
      <trkpt lat="43.53725" lon="5.56996">
        <ele>647.8</ele>
        <time>2023-05-28T08:52:17Z</time>
      </trkpt>
      <trkpt lat="43.53725" lon="5.56996">
        <ele>648</ele>
        <time>2023-05-28T08:52:18Z</time>
      </trkpt>
      <trkpt lat="43.53724" lon="5.56997">
        <ele>648.1</ele>
        <time>2023-05-28T08:52:19Z</time>
      </trkpt>
      <trkpt lat="43.53723" lon="5.56997">
        <ele>648.2</ele>
        <time>2023-05-28T08:52:20Z</time>
      </trkpt>
      <trkpt lat="43.53723" lon="5.56998">
        <ele>648.4</ele>
        <time>2023-05-28T08:52:21Z</time>
      </trkpt>
      <trkpt lat="43.53722" lon="5.56999">
        <ele>648.6</ele>
        <time>2023-05-28T08:52:22Z</time>
      </trkpt>
      <trkpt lat="43.53722" lon="5.57">
        <ele>648.7</ele>
        <time>2023-05-28T08:52:23Z</time>
      </trkpt>
      <trkpt lat="43.53721" lon="5.57002">
        <ele>648.8</ele>
        <time>2023-05-28T08:52:24Z</time>
      </trkpt>
      <trkpt lat="43.53721" lon="5.57003">
        <ele>649</ele>
        <time>2023-05-28T08:52:25Z</time>
      </trkpt>
      <trkpt lat="43.53721" lon="5.57004">
        <ele>649.1</ele>
        <time>2023-05-28T08:52:26Z</time>
      </trkpt>
      <trkpt lat="43.5372" lon="5.57004">
        <ele>649.2</ele>
        <time>2023-05-28T08:52:27Z</time>
      </trkpt>
      <trkpt lat="43.53719" lon="5.57005">
        <ele>649.4</ele>
        <time>2023-05-28T08:52:28Z</time>
      </trkpt>
      <trkpt lat="43.53719" lon="5.57005">
        <ele>649.5</ele>
        <time>2023-05-28T08:52:29Z</time>
      </trkpt>
      <trkpt lat="43.53718" lon="5.57006">
        <ele>649.7</ele>
        <time>2023-05-28T08:52:30Z</time>
      </trkpt>
      <trkpt lat="43.53718" lon="5.57008">
        <ele>649.8</ele>
        <time>2023-05-28T08:52:31Z</time>
      </trkpt>
      <trkpt lat="43.53717" lon="5.57009">
        <ele>649.9</ele>
        <time>2023-05-28T08:52:32Z</time>
      </trkpt>
      <trkpt lat="43.53717" lon="5.5701">
        <ele>650</ele>
        <time>2023-05-28T08:52:33Z</time>
      </trkpt>
      <trkpt lat="43.53717" lon="5.57011">
        <ele>650.2</ele>
        <time>2023-05-28T08:52:34Z</time>
      </trkpt>
      <trkpt lat="43.53716" lon="5.57012">
        <ele>650.3</ele>
        <time>2023-05-28T08:52:35Z</time>
      </trkpt>
      <trkpt lat="43.53716" lon="5.57013">
        <ele>650.3</ele>
        <time>2023-05-28T08:52:36Z</time>
      </trkpt>
      <trkpt lat="43.53715" lon="5.57013">
        <ele>650.4</ele>
        <time>2023-05-28T08:52:37Z</time>
      </trkpt>
      <trkpt lat="43.53714" lon="5.57013">
        <ele>650.5</ele>
        <time>2023-05-28T08:52:38Z</time>
      </trkpt>
      <trkpt lat="43.53714" lon="5.57013">
        <ele>650.5</ele>
        <time>2023-05-28T08:52:39Z</time>
      </trkpt>
      <trkpt lat="43.53713" lon="5.57012">
        <ele>650.6</ele>
        <time>2023-05-28T08:52:40Z</time>
      </trkpt>
      <trkpt lat="43.53713" lon="5.57012">
        <ele>650.6</ele>
        <time>2023-05-28T08:52:41Z</time>
      </trkpt>
      <trkpt lat="43.53712" lon="5.57012">
        <ele>650.8</ele>
        <time>2023-05-28T08:52:42Z</time>
      </trkpt>
      <trkpt lat="43.53712" lon="5.57012">
        <ele>651</ele>
        <time>2023-05-28T08:52:43Z</time>
      </trkpt>
      <trkpt lat="43.53711" lon="5.57013">
        <ele>651.2</ele>
        <time>2023-05-28T08:52:44Z</time>
      </trkpt>
      <trkpt lat="43.53711" lon="5.57013">
        <ele>651.3</ele>
        <time>2023-05-28T08:52:45Z</time>
      </trkpt>
      <trkpt lat="43.5371" lon="5.57013">
        <ele>651.5</ele>
        <time>2023-05-28T08:52:46Z</time>
      </trkpt>
      <trkpt lat="43.53709" lon="5.57013">
        <ele>651.7</ele>
        <time>2023-05-28T08:52:47Z</time>
      </trkpt>
      <trkpt lat="43.53709" lon="5.57014">
        <ele>651.9</ele>
        <time>2023-05-28T08:52:48Z</time>
      </trkpt>
      <trkpt lat="43.53709" lon="5.57015">
        <ele>652.1</ele>
        <time>2023-05-28T08:52:49Z</time>
      </trkpt>
      <trkpt lat="43.53708" lon="5.57015">
        <ele>652.3</ele>
        <time>2023-05-28T08:52:50Z</time>
      </trkpt>
      <trkpt lat="43.53708" lon="5.57015">
        <ele>652.5</ele>
        <time>2023-05-28T08:52:51Z</time>
      </trkpt>
      <trkpt lat="43.53707" lon="5.57016">
        <ele>652.6</ele>
        <time>2023-05-28T08:52:52Z</time>
      </trkpt>
      <trkpt lat="43.53707" lon="5.57017">
        <ele>652.8</ele>
        <time>2023-05-28T08:52:53Z</time>
      </trkpt>
      <trkpt lat="43.53706" lon="5.57018">
        <ele>652.9</ele>
        <time>2023-05-28T08:52:54Z</time>
      </trkpt>
      <trkpt lat="43.53706" lon="5.57019">
        <ele>653.2</ele>
        <time>2023-05-28T08:52:55Z</time>
      </trkpt>
      <trkpt lat="43.53705" lon="5.5702">
        <ele>653.4</ele>
        <time>2023-05-28T08:52:56Z</time>
      </trkpt>
      <trkpt lat="43.53705" lon="5.5702">
        <ele>653.6</ele>
        <time>2023-05-28T08:52:57Z</time>
      </trkpt>
      <trkpt lat="43.53704" lon="5.5702">
        <ele>653.7</ele>
        <time>2023-05-28T08:52:58Z</time>
      </trkpt>
      <trkpt lat="43.53704" lon="5.5702">
        <ele>654</ele>
        <time>2023-05-28T08:52:59Z</time>
      </trkpt>
      <trkpt lat="43.53703" lon="5.5702">
        <ele>654.3</ele>
        <time>2023-05-28T08:53:00Z</time>
      </trkpt>
      <trkpt lat="43.53703" lon="5.5702">
        <ele>654.5</ele>
        <time>2023-05-28T08:53:01Z</time>
      </trkpt>
      <trkpt lat="43.53702" lon="5.5702">
        <ele>654.7</ele>
        <time>2023-05-28T08:53:02Z</time>
      </trkpt>
      <trkpt lat="43.53701" lon="5.57021">
        <ele>654.8</ele>
        <time>2023-05-28T08:53:03Z</time>
      </trkpt>
      <trkpt lat="43.53701" lon="5.57022">
        <ele>655</ele>
        <time>2023-05-28T08:53:04Z</time>
      </trkpt>
      <trkpt lat="43.53701" lon="5.57022">
        <ele>655.3</ele>
        <time>2023-05-28T08:53:05Z</time>
      </trkpt>
      <trkpt lat="43.537" lon="5.57023">
        <ele>655.5</ele>
        <time>2023-05-28T08:53:06Z</time>
      </trkpt>
      <trkpt lat="43.53699" lon="5.57023">
        <ele>655.6</ele>
        <time>2023-05-28T08:53:07Z</time>
      </trkpt>
      <trkpt lat="43.53699" lon="5.57024">
        <ele>655.9</ele>
        <time>2023-05-28T08:53:08Z</time>
      </trkpt>
      <trkpt lat="43.53699" lon="5.57025">
        <ele>656.1</ele>
        <time>2023-05-28T08:53:09Z</time>
      </trkpt>
      <trkpt lat="43.53698" lon="5.57026">
        <ele>656.2</ele>
        <time>2023-05-28T08:53:10Z</time>
      </trkpt>
      <trkpt lat="43.53698" lon="5.57027">
        <ele>656.4</ele>
        <time>2023-05-28T08:53:11Z</time>
      </trkpt>
      <trkpt lat="43.53697" lon="5.57027">
        <ele>656.7</ele>
        <time>2023-05-28T08:53:12Z</time>
      </trkpt>
      <trkpt lat="43.53697" lon="5.57027">
        <ele>656.8</ele>
        <time>2023-05-28T08:53:13Z</time>
      </trkpt>
      <trkpt lat="43.53696" lon="5.57027">
        <ele>657</ele>
        <time>2023-05-28T08:53:14Z</time>
      </trkpt>
      <trkpt lat="43.53695" lon="5.57026">
        <ele>657.2</ele>
        <time>2023-05-28T08:53:15Z</time>
      </trkpt>
      <trkpt lat="43.53695" lon="5.57026">
        <ele>657.3</ele>
        <time>2023-05-28T08:53:16Z</time>
      </trkpt>
      <trkpt lat="43.53694" lon="5.57026">
        <ele>657.5</ele>
        <time>2023-05-28T08:53:17Z</time>
      </trkpt>
      <trkpt lat="43.53693" lon="5.57026">
        <ele>657.6</ele>
        <time>2023-05-28T08:53:18Z</time>
      </trkpt>
      <trkpt lat="43.53693" lon="5.57027">
        <ele>657.8</ele>
        <time>2023-05-28T08:53:19Z</time>
      </trkpt>
      <trkpt lat="43.53693" lon="5.57029">
        <ele>657.9</ele>
        <time>2023-05-28T08:53:20Z</time>
      </trkpt>
      <trkpt lat="43.53693" lon="5.5703">
        <ele>658</ele>
        <time>2023-05-28T08:53:21Z</time>
      </trkpt>
      <trkpt lat="43.53693" lon="5.5703">
        <ele>658.2</ele>
        <time>2023-05-28T08:53:22Z</time>
      </trkpt>
      <trkpt lat="43.53692" lon="5.57031">
        <ele>658.3</ele>
        <time>2023-05-28T08:53:23Z</time>
      </trkpt>
      <trkpt lat="43.53692" lon="5.57032">
        <ele>658.5</ele>
        <time>2023-05-28T08:53:24Z</time>
      </trkpt>
      <trkpt lat="43.53692" lon="5.57033">
        <ele>658.7</ele>
        <time>2023-05-28T08:53:25Z</time>
      </trkpt>
      <trkpt lat="43.53692" lon="5.57034">
        <ele>658.8</ele>
        <time>2023-05-28T08:53:26Z</time>
      </trkpt>
      <trkpt lat="43.53692" lon="5.57035">
        <ele>659</ele>
        <time>2023-05-28T08:53:27Z</time>
      </trkpt>
      <trkpt lat="43.53691" lon="5.57036">
        <ele>659.4</ele>
        <time>2023-05-28T08:53:28Z</time>
      </trkpt>
      <trkpt lat="43.53691" lon="5.57037">
        <ele>659.6</ele>
        <time>2023-05-28T08:53:29Z</time>
      </trkpt>
      <trkpt lat="43.53691" lon="5.57038">
        <ele>659.8</ele>
        <time>2023-05-28T08:53:30Z</time>
      </trkpt>
      <trkpt lat="43.5369" lon="5.57038">
        <ele>660</ele>
        <time>2023-05-28T08:53:31Z</time>
      </trkpt>
      <trkpt lat="43.5369" lon="5.5704">
        <ele>660.2</ele>
        <time>2023-05-28T08:53:32Z</time>
      </trkpt>
      <trkpt lat="43.5369" lon="5.5704">
        <ele>660.4</ele>
        <time>2023-05-28T08:53:33Z</time>
      </trkpt>
      <trkpt lat="43.53689" lon="5.57041">
        <ele>660.6</ele>
        <time>2023-05-28T08:53:34Z</time>
      </trkpt>
      <trkpt lat="43.53689" lon="5.57042">
        <ele>660.7</ele>
        <time>2023-05-28T08:53:35Z</time>
      </trkpt>
      <trkpt lat="43.53689" lon="5.57044">
        <ele>660.8</ele>
        <time>2023-05-28T08:53:36Z</time>
      </trkpt>
      <trkpt lat="43.53689" lon="5.57044">
        <ele>661</ele>
        <time>2023-05-28T08:53:37Z</time>
      </trkpt>
      <trkpt lat="43.53689" lon="5.57045">
        <ele>661.2</ele>
        <time>2023-05-28T08:53:38Z</time>
      </trkpt>
      <trkpt lat="43.53688" lon="5.57046">
        <ele>661.5</ele>
        <time>2023-05-28T08:53:39Z</time>
      </trkpt>
      <trkpt lat="43.53688" lon="5.57046">
        <ele>661.7</ele>
        <time>2023-05-28T08:53:40Z</time>
      </trkpt>
      <trkpt lat="43.53687" lon="5.57046">
        <ele>661.9</ele>
        <time>2023-05-28T08:53:41Z</time>
      </trkpt>
      <trkpt lat="43.53687" lon="5.57047">
        <ele>662.1</ele>
        <time>2023-05-28T08:53:42Z</time>
      </trkpt>
      <trkpt lat="43.53686" lon="5.57048">
        <ele>662.3</ele>
        <time>2023-05-28T08:53:43Z</time>
      </trkpt>
      <trkpt lat="43.53685" lon="5.57048">
        <ele>662.6</ele>
        <time>2023-05-28T08:53:44Z</time>
      </trkpt>
      <trkpt lat="43.53685" lon="5.5705">
        <ele>662.8</ele>
        <time>2023-05-28T08:53:45Z</time>
      </trkpt>
      <trkpt lat="43.53685" lon="5.57051">
        <ele>663</ele>
        <time>2023-05-28T08:53:46Z</time>
      </trkpt>
      <trkpt lat="43.53685" lon="5.57052">
        <ele>663.2</ele>
        <time>2023-05-28T08:53:47Z</time>
      </trkpt>
      <trkpt lat="43.53685" lon="5.57053">
        <ele>663.3</ele>
        <time>2023-05-28T08:53:48Z</time>
      </trkpt>
      <trkpt lat="43.53685" lon="5.57054">
        <ele>663.4</ele>
        <time>2023-05-28T08:53:49Z</time>
      </trkpt>
      <trkpt lat="43.53684" lon="5.57055">
        <ele>663.6</ele>
        <time>2023-05-28T08:53:50Z</time>
      </trkpt>
      <trkpt lat="43.53684" lon="5.57056">
        <ele>663.8</ele>
        <time>2023-05-28T08:53:51Z</time>
      </trkpt>
      <trkpt lat="43.53684" lon="5.57056">
        <ele>664.1</ele>
        <time>2023-05-28T08:53:52Z</time>
      </trkpt>
      <trkpt lat="43.53684" lon="5.57057">
        <ele>664.2</ele>
        <time>2023-05-28T08:53:53Z</time>
      </trkpt>
      <trkpt lat="43.53683" lon="5.57058">
        <ele>664.4</ele>
        <time>2023-05-28T08:53:54Z</time>
      </trkpt>
      <trkpt lat="43.53683" lon="5.57059">
        <ele>664.5</ele>
        <time>2023-05-28T08:53:55Z</time>
      </trkpt>
      <trkpt lat="43.53683" lon="5.57059">
        <ele>664.7</ele>
        <time>2023-05-28T08:53:56Z</time>
      </trkpt>
      <trkpt lat="43.53682" lon="5.5706">
        <ele>664.8</ele>
        <time>2023-05-28T08:53:57Z</time>
      </trkpt>
      <trkpt lat="43.53682" lon="5.57061">
        <ele>664.9</ele>
        <time>2023-05-28T08:53:58Z</time>
      </trkpt>
      <trkpt lat="43.53681" lon="5.57061">
        <ele>665</ele>
        <time>2023-05-28T08:53:59Z</time>
      </trkpt>
      <trkpt lat="43.53681" lon="5.57061">
        <ele>665.2</ele>
        <time>2023-05-28T08:54:00Z</time>
      </trkpt>
      <trkpt lat="43.5368" lon="5.57062">
        <ele>665.3</ele>
        <time>2023-05-28T08:54:01Z</time>
      </trkpt>
      <trkpt lat="43.5368" lon="5.57063">
        <ele>665.4</ele>
        <time>2023-05-28T08:54:02Z</time>
      </trkpt>
      <trkpt lat="43.53679" lon="5.57063">
        <ele>665.5</ele>
        <time>2023-05-28T08:54:03Z</time>
      </trkpt>
      <trkpt lat="43.53679" lon="5.57064">
        <ele>665.7</ele>
        <time>2023-05-28T08:54:04Z</time>
      </trkpt>
      <trkpt lat="43.53678" lon="5.57064">
        <ele>665.9</ele>
        <time>2023-05-28T08:54:05Z</time>
      </trkpt>
      <trkpt lat="43.53678" lon="5.57064">
        <ele>666.1</ele>
        <time>2023-05-28T08:54:06Z</time>
      </trkpt>
      <trkpt lat="43.53677" lon="5.57065">
        <ele>666.3</ele>
        <time>2023-05-28T08:54:07Z</time>
      </trkpt>
      <trkpt lat="43.53677" lon="5.57065">
        <ele>666.4</ele>
        <time>2023-05-28T08:54:08Z</time>
      </trkpt>
      <trkpt lat="43.53676" lon="5.57065">
        <ele>666.6</ele>
        <time>2023-05-28T08:54:09Z</time>
      </trkpt>
      <trkpt lat="43.53676" lon="5.57066">
        <ele>666.7</ele>
        <time>2023-05-28T08:54:10Z</time>
      </trkpt>
      <trkpt lat="43.53675" lon="5.57066">
        <ele>666.8</ele>
        <time>2023-05-28T08:54:11Z</time>
      </trkpt>
      <trkpt lat="43.53674" lon="5.57067">
        <ele>666.9</ele>
        <time>2023-05-28T08:54:12Z</time>
      </trkpt>
      <trkpt lat="43.53674" lon="5.57068">
        <ele>667</ele>
        <time>2023-05-28T08:54:13Z</time>
      </trkpt>
      <trkpt lat="43.53674" lon="5.57068">
        <ele>667.1</ele>
        <time>2023-05-28T08:54:14Z</time>
      </trkpt>
      <trkpt lat="43.53674" lon="5.57068">
        <ele>667.2</ele>
        <time>2023-05-28T08:54:15Z</time>
      </trkpt>
      <trkpt lat="43.53673" lon="5.57068">
        <ele>667.4</ele>
        <time>2023-05-28T08:54:16Z</time>
      </trkpt>
      <trkpt lat="43.53673" lon="5.57068">
        <ele>667.6</ele>
        <time>2023-05-28T08:54:17Z</time>
      </trkpt>
      <trkpt lat="43.53672" lon="5.57068">
        <ele>668</ele>
        <time>2023-05-28T08:54:18Z</time>
      </trkpt>
      <trkpt lat="43.53671" lon="5.57068">
        <ele>668.2</ele>
        <time>2023-05-28T08:54:19Z</time>
      </trkpt>
      <trkpt lat="43.5367" lon="5.57068">
        <ele>668.4</ele>
        <time>2023-05-28T08:54:20Z</time>
      </trkpt>
      <trkpt lat="43.5367" lon="5.57069">
        <ele>668.6</ele>
        <time>2023-05-28T08:54:21Z</time>
      </trkpt>
      <trkpt lat="43.53669" lon="5.5707">
        <ele>668.7</ele>
        <time>2023-05-28T08:54:22Z</time>
      </trkpt>
      <trkpt lat="43.53669" lon="5.57071">
        <ele>668.8</ele>
        <time>2023-05-28T08:54:23Z</time>
      </trkpt>
      <trkpt lat="43.53669" lon="5.57072">
        <ele>668.9</ele>
        <time>2023-05-28T08:54:24Z</time>
      </trkpt>
      <trkpt lat="43.53668" lon="5.57073">
        <ele>669</ele>
        <time>2023-05-28T08:54:25Z</time>
      </trkpt>
      <trkpt lat="43.53668" lon="5.57074">
        <ele>669.2</ele>
        <time>2023-05-28T08:54:26Z</time>
      </trkpt>
      <trkpt lat="43.53668" lon="5.57075">
        <ele>669.3</ele>
        <time>2023-05-28T08:54:27Z</time>
      </trkpt>
      <trkpt lat="43.53668" lon="5.57076">
        <ele>669.5</ele>
        <time>2023-05-28T08:54:28Z</time>
      </trkpt>
      <trkpt lat="43.53667" lon="5.57076">
        <ele>669.6</ele>
        <time>2023-05-28T08:54:29Z</time>
      </trkpt>
      <trkpt lat="43.53667" lon="5.57076">
        <ele>669.8</ele>
        <time>2023-05-28T08:54:30Z</time>
      </trkpt>
      <trkpt lat="43.53667" lon="5.57077">
        <ele>669.9</ele>
        <time>2023-05-28T08:54:31Z</time>
      </trkpt>
      <trkpt lat="43.53667" lon="5.57078">
        <ele>670</ele>
        <time>2023-05-28T08:54:32Z</time>
      </trkpt>
      <trkpt lat="43.53667" lon="5.57078">
        <ele>670.1</ele>
        <time>2023-05-28T08:54:33Z</time>
      </trkpt>
      <trkpt lat="43.53666" lon="5.57079">
        <ele>670.2</ele>
        <time>2023-05-28T08:54:34Z</time>
      </trkpt>
      <trkpt lat="43.53666" lon="5.57079">
        <ele>670.2</ele>
        <time>2023-05-28T08:54:35Z</time>
      </trkpt>
      <trkpt lat="43.53666" lon="5.5708">
        <ele>670.3</ele>
        <time>2023-05-28T08:54:36Z</time>
      </trkpt>
      <trkpt lat="43.53666" lon="5.5708">
        <ele>670.4</ele>
        <time>2023-05-28T08:54:37Z</time>
      </trkpt>
      <trkpt lat="43.53665" lon="5.57081">
        <ele>670.5</ele>
        <time>2023-05-28T08:54:38Z</time>
      </trkpt>
      <trkpt lat="43.53665" lon="5.57081">
        <ele>670.7</ele>
        <time>2023-05-28T08:54:39Z</time>
      </trkpt>
      <trkpt lat="43.53665" lon="5.57082">
        <ele>670.8</ele>
        <time>2023-05-28T08:54:40Z</time>
      </trkpt>
      <trkpt lat="43.53664" lon="5.57082">
        <ele>670.9</ele>
        <time>2023-05-28T08:54:41Z</time>
      </trkpt>
      <trkpt lat="43.53664" lon="5.57083">
        <ele>670.9</ele>
        <time>2023-05-28T08:54:42Z</time>
      </trkpt>
      <trkpt lat="43.53664" lon="5.57084">
        <ele>671.1</ele>
        <time>2023-05-28T08:54:43Z</time>
      </trkpt>
      <trkpt lat="43.53663" lon="5.57084">
        <ele>671.3</ele>
        <time>2023-05-28T08:54:44Z</time>
      </trkpt>
      <trkpt lat="43.53663" lon="5.57086">
        <ele>671.3</ele>
        <time>2023-05-28T08:54:45Z</time>
      </trkpt>
      <trkpt lat="43.53663" lon="5.57087">
        <ele>671.3</ele>
        <time>2023-05-28T08:54:46Z</time>
      </trkpt>
      <trkpt lat="43.53663" lon="5.57088">
        <ele>671.5</ele>
        <time>2023-05-28T08:54:47Z</time>
      </trkpt>
      <trkpt lat="43.53663" lon="5.57089">
        <ele>671.6</ele>
        <time>2023-05-28T08:54:48Z</time>
      </trkpt>
      <trkpt lat="43.53663" lon="5.5709">
        <ele>671.7</ele>
        <time>2023-05-28T08:54:49Z</time>
      </trkpt>
      <trkpt lat="43.53663" lon="5.57091">
        <ele>671.8</ele>
        <time>2023-05-28T08:54:50Z</time>
      </trkpt>
      <trkpt lat="43.53663" lon="5.57091">
        <ele>671.9</ele>
        <time>2023-05-28T08:54:51Z</time>
      </trkpt>
      <trkpt lat="43.53662" lon="5.57092">
        <ele>672.1</ele>
        <time>2023-05-28T08:54:52Z</time>
      </trkpt>
      <trkpt lat="43.53662" lon="5.57093">
        <ele>672.4</ele>
        <time>2023-05-28T08:54:53Z</time>
      </trkpt>
      <trkpt lat="43.53662" lon="5.57093">
        <ele>672.6</ele>
        <time>2023-05-28T08:54:54Z</time>
      </trkpt>
      <trkpt lat="43.53662" lon="5.57094">
        <ele>672.7</ele>
        <time>2023-05-28T08:54:55Z</time>
      </trkpt>
      <trkpt lat="43.53661" lon="5.57095">
        <ele>672.9</ele>
        <time>2023-05-28T08:54:56Z</time>
      </trkpt>
      <trkpt lat="43.53661" lon="5.57095">
        <ele>673</ele>
        <time>2023-05-28T08:54:57Z</time>
      </trkpt>
      <trkpt lat="43.53661" lon="5.57095">
        <ele>673.1</ele>
        <time>2023-05-28T08:54:58Z</time>
      </trkpt>
      <trkpt lat="43.53661" lon="5.57096">
        <ele>673.3</ele>
        <time>2023-05-28T08:54:59Z</time>
      </trkpt>
      <trkpt lat="43.5366" lon="5.57096">
        <ele>673.5</ele>
        <time>2023-05-28T08:55:00Z</time>
      </trkpt>
      <trkpt lat="43.5366" lon="5.57096">
        <ele>673.7</ele>
        <time>2023-05-28T08:55:01Z</time>
      </trkpt>
      <trkpt lat="43.53659" lon="5.57096">
        <ele>673.9</ele>
        <time>2023-05-28T08:55:02Z</time>
      </trkpt>
      <trkpt lat="43.53659" lon="5.57096">
        <ele>674.1</ele>
        <time>2023-05-28T08:55:03Z</time>
      </trkpt>
      <trkpt lat="43.53658" lon="5.57097">
        <ele>674.3</ele>
        <time>2023-05-28T08:55:04Z</time>
      </trkpt>
      <trkpt lat="43.53658" lon="5.57097">
        <ele>674.5</ele>
        <time>2023-05-28T08:55:05Z</time>
      </trkpt>
      <trkpt lat="43.53658" lon="5.57097">
        <ele>674.7</ele>
        <time>2023-05-28T08:55:06Z</time>
      </trkpt>
      <trkpt lat="43.53658" lon="5.57097">
        <ele>674.9</ele>
        <time>2023-05-28T08:55:07Z</time>
      </trkpt>
      <trkpt lat="43.53658" lon="5.57098">
        <ele>675.1</ele>
        <time>2023-05-28T08:55:08Z</time>
      </trkpt>
      <trkpt lat="43.53658" lon="5.57099">
        <ele>675.2</ele>
        <time>2023-05-28T08:55:09Z</time>
      </trkpt>
      <trkpt lat="43.53657" lon="5.571">
        <ele>675.4</ele>
        <time>2023-05-28T08:55:10Z</time>
      </trkpt>
      <trkpt lat="43.53657" lon="5.57101">
        <ele>675.6</ele>
        <time>2023-05-28T08:55:11Z</time>
      </trkpt>
      <trkpt lat="43.53657" lon="5.57101">
        <ele>675.7</ele>
        <time>2023-05-28T08:55:12Z</time>
      </trkpt>
      <trkpt lat="43.53657" lon="5.57102">
        <ele>675.8</ele>
        <time>2023-05-28T08:55:13Z</time>
      </trkpt>
      <trkpt lat="43.53657" lon="5.57103">
        <ele>675.8</ele>
        <time>2023-05-28T08:55:14Z</time>
      </trkpt>
      <trkpt lat="43.53656" lon="5.57104">
        <ele>676</ele>
        <time>2023-05-28T08:55:15Z</time>
      </trkpt>
      <trkpt lat="43.53656" lon="5.57105">
        <ele>676.1</ele>
        <time>2023-05-28T08:55:16Z</time>
      </trkpt>
      <trkpt lat="43.53656" lon="5.57106">
        <ele>676.2</ele>
        <time>2023-05-28T08:55:17Z</time>
      </trkpt>
      <trkpt lat="43.53655" lon="5.57106">
        <ele>676.3</ele>
        <time>2023-05-28T08:55:18Z</time>
      </trkpt>
      <trkpt lat="43.53655" lon="5.57107">
        <ele>676.4</ele>
        <time>2023-05-28T08:55:19Z</time>
      </trkpt>
      <trkpt lat="43.53655" lon="5.57108">
        <ele>676.5</ele>
        <time>2023-05-28T08:55:20Z</time>
      </trkpt>
      <trkpt lat="43.53655" lon="5.57109">
        <ele>676.5</ele>
        <time>2023-05-28T08:55:21Z</time>
      </trkpt>
      <trkpt lat="43.53654" lon="5.5711">
        <ele>676.6</ele>
        <time>2023-05-28T08:55:22Z</time>
      </trkpt>
      <trkpt lat="43.53654" lon="5.57111">
        <ele>676.7</ele>
        <time>2023-05-28T08:55:23Z</time>
      </trkpt>
      <trkpt lat="43.53654" lon="5.57113">
        <ele>676.8</ele>
        <time>2023-05-28T08:55:24Z</time>
      </trkpt>
      <trkpt lat="43.53654" lon="5.57114">
        <ele>676.9</ele>
        <time>2023-05-28T08:55:25Z</time>
      </trkpt>
      <trkpt lat="43.53654" lon="5.57115">
        <ele>677</ele>
        <time>2023-05-28T08:55:26Z</time>
      </trkpt>
      <trkpt lat="43.53654" lon="5.57116">
        <ele>677.1</ele>
        <time>2023-05-28T08:55:27Z</time>
      </trkpt>
      <trkpt lat="43.53654" lon="5.57117">
        <ele>677.2</ele>
        <time>2023-05-28T08:55:28Z</time>
      </trkpt>
      <trkpt lat="43.53654" lon="5.57118">
        <ele>677.3</ele>
        <time>2023-05-28T08:55:29Z</time>
      </trkpt>
      <trkpt lat="43.53653" lon="5.57119">
        <ele>677.4</ele>
        <time>2023-05-28T08:55:30Z</time>
      </trkpt>
      <trkpt lat="43.53653" lon="5.5712">
        <ele>677.5</ele>
        <time>2023-05-28T08:55:31Z</time>
      </trkpt>
      <trkpt lat="43.53653" lon="5.5712">
        <ele>677.6</ele>
        <time>2023-05-28T08:55:32Z</time>
      </trkpt>
      <trkpt lat="43.53652" lon="5.57121">
        <ele>677.7</ele>
        <time>2023-05-28T08:55:33Z</time>
      </trkpt>
      <trkpt lat="43.53652" lon="5.57122">
        <ele>678</ele>
        <time>2023-05-28T08:55:34Z</time>
      </trkpt>
      <trkpt lat="43.53651" lon="5.57123">
        <ele>678.1</ele>
        <time>2023-05-28T08:55:35Z</time>
      </trkpt>
      <trkpt lat="43.53651" lon="5.57124">
        <ele>678.2</ele>
        <time>2023-05-28T08:55:36Z</time>
      </trkpt>
      <trkpt lat="43.53651" lon="5.57125">
        <ele>678.3</ele>
        <time>2023-05-28T08:55:37Z</time>
      </trkpt>
      <trkpt lat="43.53651" lon="5.57126">
        <ele>678.5</ele>
        <time>2023-05-28T08:55:38Z</time>
      </trkpt>
      <trkpt lat="43.5365" lon="5.57127">
        <ele>678.6</ele>
        <time>2023-05-28T08:55:39Z</time>
      </trkpt>
      <trkpt lat="43.5365" lon="5.57128">
        <ele>678.7</ele>
        <time>2023-05-28T08:55:40Z</time>
      </trkpt>
      <trkpt lat="43.5365" lon="5.57129">
        <ele>678.8</ele>
        <time>2023-05-28T08:55:41Z</time>
      </trkpt>
      <trkpt lat="43.5365" lon="5.5713">
        <ele>679</ele>
        <time>2023-05-28T08:55:42Z</time>
      </trkpt>
      <trkpt lat="43.5365" lon="5.57131">
        <ele>679.1</ele>
        <time>2023-05-28T08:55:43Z</time>
      </trkpt>
      <trkpt lat="43.5365" lon="5.57131">
        <ele>679.3</ele>
        <time>2023-05-28T08:55:44Z</time>
      </trkpt>
      <trkpt lat="43.53649" lon="5.57132">
        <ele>679.5</ele>
        <time>2023-05-28T08:55:45Z</time>
      </trkpt>
      <trkpt lat="43.53649" lon="5.57132">
        <ele>679.6</ele>
        <time>2023-05-28T08:55:46Z</time>
      </trkpt>
      <trkpt lat="43.53648" lon="5.57133">
        <ele>679.8</ele>
        <time>2023-05-28T08:55:47Z</time>
      </trkpt>
      <trkpt lat="43.53648" lon="5.57134">
        <ele>680</ele>
        <time>2023-05-28T08:55:48Z</time>
      </trkpt>
      <trkpt lat="43.53648" lon="5.57134">
        <ele>680.1</ele>
        <time>2023-05-28T08:55:49Z</time>
      </trkpt>
      <trkpt lat="43.53648" lon="5.57135">
        <ele>680.2</ele>
        <time>2023-05-28T08:55:50Z</time>
      </trkpt>
      <trkpt lat="43.53648" lon="5.57137">
        <ele>680.4</ele>
        <time>2023-05-28T08:55:51Z</time>
      </trkpt>
      <trkpt lat="43.53648" lon="5.57138">
        <ele>680.5</ele>
        <time>2023-05-28T08:55:52Z</time>
      </trkpt>
      <trkpt lat="43.53648" lon="5.57139">
        <ele>680.7</ele>
        <time>2023-05-28T08:55:53Z</time>
      </trkpt>
      <trkpt lat="43.53648" lon="5.57139">
        <ele>680.7</ele>
        <time>2023-05-28T08:55:54Z</time>
      </trkpt>
      <trkpt lat="43.53648" lon="5.5714">
        <ele>680.8</ele>
        <time>2023-05-28T08:55:55Z</time>
      </trkpt>
      <trkpt lat="43.53648" lon="5.57141">
        <ele>680.9</ele>
        <time>2023-05-28T08:55:56Z</time>
      </trkpt>
      <trkpt lat="43.53648" lon="5.57142">
        <ele>680.9</ele>
        <time>2023-05-28T08:55:57Z</time>
      </trkpt>
      <trkpt lat="43.53648" lon="5.57143">
        <ele>681.1</ele>
        <time>2023-05-28T08:55:58Z</time>
      </trkpt>
      <trkpt lat="43.53648" lon="5.57144">
        <ele>681.2</ele>
        <time>2023-05-28T08:55:59Z</time>
      </trkpt>
      <trkpt lat="43.53648" lon="5.57145">
        <ele>681.4</ele>
        <time>2023-05-28T08:56:00Z</time>
      </trkpt>
      <trkpt lat="43.53647" lon="5.57146">
        <ele>681.5</ele>
        <time>2023-05-28T08:56:01Z</time>
      </trkpt>
      <trkpt lat="43.53647" lon="5.57147">
        <ele>681.6</ele>
        <time>2023-05-28T08:56:02Z</time>
      </trkpt>
      <trkpt lat="43.53647" lon="5.57147">
        <ele>681.8</ele>
        <time>2023-05-28T08:56:03Z</time>
      </trkpt>
      <trkpt lat="43.53647" lon="5.57148">
        <ele>682</ele>
        <time>2023-05-28T08:56:04Z</time>
      </trkpt>
      <trkpt lat="43.53647" lon="5.57149">
        <ele>682.1</ele>
        <time>2023-05-28T08:56:05Z</time>
      </trkpt>
      <trkpt lat="43.53646" lon="5.57149">
        <ele>682.2</ele>
        <time>2023-05-28T08:56:06Z</time>
      </trkpt>
      <trkpt lat="43.53646" lon="5.5715">
        <ele>682.3</ele>
        <time>2023-05-28T08:56:07Z</time>
      </trkpt>
      <trkpt lat="43.53646" lon="5.5715">
        <ele>682.4</ele>
        <time>2023-05-28T08:56:08Z</time>
      </trkpt>
      <trkpt lat="43.53645" lon="5.57151">
        <ele>682.6</ele>
        <time>2023-05-28T08:56:09Z</time>
      </trkpt>
      <trkpt lat="43.53645" lon="5.57152">
        <ele>682.7</ele>
        <time>2023-05-28T08:56:10Z</time>
      </trkpt>
      <trkpt lat="43.53645" lon="5.57153">
        <ele>682.8</ele>
        <time>2023-05-28T08:56:11Z</time>
      </trkpt>
      <trkpt lat="43.53645" lon="5.57154">
        <ele>683</ele>
        <time>2023-05-28T08:56:12Z</time>
      </trkpt>
      <trkpt lat="43.53645" lon="5.57155">
        <ele>683</ele>
        <time>2023-05-28T08:56:13Z</time>
      </trkpt>
      <trkpt lat="43.53645" lon="5.57155">
        <ele>683.2</ele>
        <time>2023-05-28T08:56:14Z</time>
      </trkpt>
      <trkpt lat="43.53645" lon="5.57155">
        <ele>683.3</ele>
        <time>2023-05-28T08:56:15Z</time>
      </trkpt>
      <trkpt lat="43.53644" lon="5.57155">
        <ele>683.6</ele>
        <time>2023-05-28T08:56:16Z</time>
      </trkpt>
      <trkpt lat="43.53644" lon="5.57156">
        <ele>683.7</ele>
        <time>2023-05-28T08:56:17Z</time>
      </trkpt>
      <trkpt lat="43.53644" lon="5.57156">
        <ele>683.8</ele>
        <time>2023-05-28T08:56:18Z</time>
      </trkpt>
      <trkpt lat="43.53644" lon="5.57156">
        <ele>683.9</ele>
        <time>2023-05-28T08:56:19Z</time>
      </trkpt>
      <trkpt lat="43.53644" lon="5.57157">
        <ele>684.1</ele>
        <time>2023-05-28T08:56:20Z</time>
      </trkpt>
      <trkpt lat="43.53644" lon="5.57158">
        <ele>684.3</ele>
        <time>2023-05-28T08:56:21Z</time>
      </trkpt>
      <trkpt lat="43.53643" lon="5.57158">
        <ele>684.4</ele>
        <time>2023-05-28T08:56:22Z</time>
      </trkpt>
      <trkpt lat="43.53643" lon="5.57159">
        <ele>684.8</ele>
        <time>2023-05-28T08:56:23Z</time>
      </trkpt>
      <trkpt lat="43.53642" lon="5.5716">
        <ele>685</ele>
        <time>2023-05-28T08:56:24Z</time>
      </trkpt>
      <trkpt lat="43.53642" lon="5.5716">
        <ele>685.3</ele>
        <time>2023-05-28T08:56:25Z</time>
      </trkpt>
      <trkpt lat="43.53641" lon="5.5716">
        <ele>685.4</ele>
        <time>2023-05-28T08:56:26Z</time>
      </trkpt>
      <trkpt lat="43.53641" lon="5.5716">
        <ele>685.6</ele>
        <time>2023-05-28T08:56:27Z</time>
      </trkpt>
      <trkpt lat="43.53641" lon="5.5716">
        <ele>685.7</ele>
        <time>2023-05-28T08:56:28Z</time>
      </trkpt>
      <trkpt lat="43.5364" lon="5.57159">
        <ele>685.9</ele>
        <time>2023-05-28T08:56:29Z</time>
      </trkpt>
      <trkpt lat="43.5364" lon="5.57159">
        <ele>686.1</ele>
        <time>2023-05-28T08:56:30Z</time>
      </trkpt>
      <trkpt lat="43.5364" lon="5.57159">
        <ele>686.2</ele>
        <time>2023-05-28T08:56:31Z</time>
      </trkpt>
      <trkpt lat="43.53639" lon="5.57159">
        <ele>686.3</ele>
        <time>2023-05-28T08:56:32Z</time>
      </trkpt>
      <trkpt lat="43.53639" lon="5.57159">
        <ele>686.5</ele>
        <time>2023-05-28T08:56:33Z</time>
      </trkpt>
      <trkpt lat="43.53639" lon="5.57159">
        <ele>686.8</ele>
        <time>2023-05-28T08:56:34Z</time>
      </trkpt>
      <trkpt lat="43.53639" lon="5.57158">
        <ele>687</ele>
        <time>2023-05-28T08:56:35Z</time>
      </trkpt>
      <trkpt lat="43.53639" lon="5.57158">
        <ele>687.2</ele>
        <time>2023-05-28T08:56:36Z</time>
      </trkpt>
      <trkpt lat="43.53638" lon="5.57158">
        <ele>687.4</ele>
        <time>2023-05-28T08:56:37Z</time>
      </trkpt>
      <trkpt lat="43.53638" lon="5.57159">
        <ele>687.6</ele>
        <time>2023-05-28T08:56:38Z</time>
      </trkpt>
      <trkpt lat="43.53638" lon="5.57159">
        <ele>687.7</ele>
        <time>2023-05-28T08:56:39Z</time>
      </trkpt>
      <trkpt lat="43.53637" lon="5.57159">
        <ele>687.8</ele>
        <time>2023-05-28T08:56:40Z</time>
      </trkpt>
      <trkpt lat="43.53637" lon="5.57159">
        <ele>687.9</ele>
        <time>2023-05-28T08:56:41Z</time>
      </trkpt>
      <trkpt lat="43.53637" lon="5.57159">
        <ele>688.1</ele>
        <time>2023-05-28T08:56:42Z</time>
      </trkpt>
      <trkpt lat="43.53636" lon="5.57159">
        <ele>688.2</ele>
        <time>2023-05-28T08:56:43Z</time>
      </trkpt>
      <trkpt lat="43.53636" lon="5.57159">
        <ele>688.3</ele>
        <time>2023-05-28T08:56:44Z</time>
      </trkpt>
      <trkpt lat="43.53636" lon="5.57159">
        <ele>688.4</ele>
        <time>2023-05-28T08:56:45Z</time>
      </trkpt>
      <trkpt lat="43.53635" lon="5.57158">
        <ele>688.7</ele>
        <time>2023-05-28T08:56:46Z</time>
      </trkpt>
      <trkpt lat="43.53635" lon="5.57158">
        <ele>688.9</ele>
        <time>2023-05-28T08:56:47Z</time>
      </trkpt>
      <trkpt lat="43.53635" lon="5.57158">
        <ele>689.1</ele>
        <time>2023-05-28T08:56:48Z</time>
      </trkpt>
      <trkpt lat="43.53634" lon="5.57158">
        <ele>689.2</ele>
        <time>2023-05-28T08:56:49Z</time>
      </trkpt>
      <trkpt lat="43.53634" lon="5.57159">
        <ele>689.3</ele>
        <time>2023-05-28T08:56:50Z</time>
      </trkpt>
      <trkpt lat="43.53633" lon="5.57158">
        <ele>689.4</ele>
        <time>2023-05-28T08:56:51Z</time>
      </trkpt>
      <trkpt lat="43.53633" lon="5.57158">
        <ele>689.7</ele>
        <time>2023-05-28T08:56:52Z</time>
      </trkpt>
      <trkpt lat="43.53633" lon="5.57158">
        <ele>689.8</ele>
        <time>2023-05-28T08:56:53Z</time>
      </trkpt>
      <trkpt lat="43.53633" lon="5.57158">
        <ele>689.9</ele>
        <time>2023-05-28T08:56:54Z</time>
      </trkpt>
      <trkpt lat="43.53633" lon="5.57158">
        <ele>690.1</ele>
        <time>2023-05-28T08:56:55Z</time>
      </trkpt>
      <trkpt lat="43.53633" lon="5.57158">
        <ele>690.3</ele>
        <time>2023-05-28T08:56:56Z</time>
      </trkpt>
      <trkpt lat="43.53632" lon="5.57158">
        <ele>690.4</ele>
        <time>2023-05-28T08:56:57Z</time>
      </trkpt>
      <trkpt lat="43.53632" lon="5.57157">
        <ele>690.6</ele>
        <time>2023-05-28T08:56:58Z</time>
      </trkpt>
      <trkpt lat="43.53632" lon="5.57157">
        <ele>690.7</ele>
        <time>2023-05-28T08:56:59Z</time>
      </trkpt>
      <trkpt lat="43.53631" lon="5.57157">
        <ele>691</ele>
        <time>2023-05-28T08:57:00Z</time>
      </trkpt>
      <trkpt lat="43.5363" lon="5.57158">
        <ele>691.1</ele>
        <time>2023-05-28T08:57:01Z</time>
      </trkpt>
      <trkpt lat="43.5363" lon="5.57158">
        <ele>691.4</ele>
        <time>2023-05-28T08:57:02Z</time>
      </trkpt>
      <trkpt lat="43.5363" lon="5.57158">
        <ele>691.6</ele>
        <time>2023-05-28T08:57:03Z</time>
      </trkpt>
      <trkpt lat="43.5363" lon="5.57159">
        <ele>691.8</ele>
        <time>2023-05-28T08:57:04Z</time>
      </trkpt>
      <trkpt lat="43.53629" lon="5.57159">
        <ele>691.9</ele>
        <time>2023-05-28T08:57:05Z</time>
      </trkpt>
      <trkpt lat="43.53629" lon="5.5716">
        <ele>692</ele>
        <time>2023-05-28T08:57:06Z</time>
      </trkpt>
      <trkpt lat="43.53629" lon="5.5716">
        <ele>692.1</ele>
        <time>2023-05-28T08:57:07Z</time>
      </trkpt>
      <trkpt lat="43.53629" lon="5.57161">
        <ele>692.2</ele>
        <time>2023-05-28T08:57:08Z</time>
      </trkpt>
      <trkpt lat="43.53629" lon="5.57161">
        <ele>692.3</ele>
        <time>2023-05-28T08:57:09Z</time>
      </trkpt>
      <trkpt lat="43.53629" lon="5.57161">
        <ele>692.4</ele>
        <time>2023-05-28T08:57:10Z</time>
      </trkpt>
      <trkpt lat="43.53629" lon="5.57161">
        <ele>692.5</ele>
        <time>2023-05-28T08:57:11Z</time>
      </trkpt>
      <trkpt lat="43.53629" lon="5.57161">
        <ele>692.6</ele>
        <time>2023-05-28T08:57:12Z</time>
      </trkpt>
      <trkpt lat="43.53629" lon="5.57161">
        <ele>692.6</ele>
        <time>2023-05-28T08:57:13Z</time>
      </trkpt>
      <trkpt lat="43.53629" lon="5.57161">
        <ele>692.6</ele>
        <time>2023-05-28T08:57:14Z</time>
      </trkpt>
      <trkpt lat="43.53629" lon="5.57162">
        <ele>692.6</ele>
        <time>2023-05-28T08:57:15Z</time>
      </trkpt>
      <trkpt lat="43.53629" lon="5.57162">
        <ele>692.2</ele>
        <time>2023-05-28T08:57:16Z</time>
      </trkpt>
      <trkpt lat="43.53629" lon="5.57162">
        <ele>692.2</ele>
        <time>2023-05-28T08:57:17Z</time>
      </trkpt>
      <trkpt lat="43.53629" lon="5.57162">
        <ele>692.4</ele>
        <time>2023-05-28T08:57:18Z</time>
      </trkpt>
      <trkpt lat="43.53629" lon="5.57162">
        <ele>692.4</ele>
        <time>2023-05-28T08:57:19Z</time>
      </trkpt>
      <trkpt lat="43.53629" lon="5.57162">
        <ele>692.4</ele>
        <time>2023-05-28T08:57:20Z</time>
      </trkpt>
      <trkpt lat="43.53629" lon="5.57162">
        <ele>692.5</ele>
        <time>2023-05-28T08:57:21Z</time>
      </trkpt>
      <trkpt lat="43.53629" lon="5.57162">
        <ele>692.5</ele>
        <time>2023-05-28T08:57:22Z</time>
      </trkpt>
      <trkpt lat="43.53629" lon="5.57162">
        <ele>692.5</ele>
        <time>2023-05-28T08:57:23Z</time>
      </trkpt>
      <trkpt lat="43.53629" lon="5.57163">
        <ele>692.5</ele>
        <time>2023-05-28T08:57:24Z</time>
      </trkpt>
      <trkpt lat="43.53629" lon="5.57163">
        <ele>692.6</ele>
        <time>2023-05-28T08:57:25Z</time>
      </trkpt>
      <trkpt lat="43.53629" lon="5.57163">
        <ele>692.7</ele>
        <time>2023-05-28T08:57:26Z</time>
      </trkpt>
      <trkpt lat="43.53629" lon="5.57164">
        <ele>692.7</ele>
        <time>2023-05-28T08:57:27Z</time>
      </trkpt>
      <trkpt lat="43.53629" lon="5.57164">
        <ele>692.8</ele>
        <time>2023-05-28T08:57:28Z</time>
      </trkpt>
      <trkpt lat="43.53628" lon="5.57165">
        <ele>692.8</ele>
        <time>2023-05-28T08:57:29Z</time>
      </trkpt>
      <trkpt lat="43.53628" lon="5.57165">
        <ele>692.8</ele>
        <time>2023-05-28T08:57:30Z</time>
      </trkpt>
      <trkpt lat="43.53628" lon="5.57165">
        <ele>692.8</ele>
        <time>2023-05-28T08:57:31Z</time>
      </trkpt>
      <trkpt lat="43.53628" lon="5.57166">
        <ele>692.9</ele>
        <time>2023-05-28T08:57:32Z</time>
      </trkpt>
      <trkpt lat="43.53628" lon="5.57166">
        <ele>692.9</ele>
        <time>2023-05-28T08:57:33Z</time>
      </trkpt>
      <trkpt lat="43.53627" lon="5.57166">
        <ele>693.1</ele>
        <time>2023-05-28T08:57:34Z</time>
      </trkpt>
      <trkpt lat="43.53627" lon="5.57166">
        <ele>693.2</ele>
        <time>2023-05-28T08:57:35Z</time>
      </trkpt>
      <trkpt lat="43.53627" lon="5.57166">
        <ele>693.3</ele>
        <time>2023-05-28T08:57:36Z</time>
      </trkpt>
      <trkpt lat="43.53627" lon="5.57166">
        <ele>693.6</ele>
        <time>2023-05-28T08:57:37Z</time>
      </trkpt>
      <trkpt lat="43.53626" lon="5.57167">
        <ele>693.8</ele>
        <time>2023-05-28T08:57:38Z</time>
      </trkpt>
      <trkpt lat="43.53626" lon="5.57169">
        <ele>693.9</ele>
        <time>2023-05-28T08:57:39Z</time>
      </trkpt>
      <trkpt lat="43.53626" lon="5.5717">
        <ele>694.1</ele>
        <time>2023-05-28T08:57:40Z</time>
      </trkpt>
      <trkpt lat="43.53625" lon="5.57172">
        <ele>694.2</ele>
        <time>2023-05-28T08:57:41Z</time>
      </trkpt>
      <trkpt lat="43.53625" lon="5.57173">
        <ele>694.5</ele>
        <time>2023-05-28T08:57:42Z</time>
      </trkpt>
      <trkpt lat="43.53625" lon="5.57174">
        <ele>694.8</ele>
        <time>2023-05-28T08:57:43Z</time>
      </trkpt>
      <trkpt lat="43.53624" lon="5.57175">
        <ele>694.8</ele>
        <time>2023-05-28T08:57:44Z</time>
      </trkpt>
      <trkpt lat="43.53623" lon="5.57175">
        <ele>695</ele>
        <time>2023-05-28T08:57:45Z</time>
      </trkpt>
      <trkpt lat="43.53623" lon="5.57176">
        <ele>695.2</ele>
        <time>2023-05-28T08:57:46Z</time>
      </trkpt>
      <trkpt lat="43.53622" lon="5.57176">
        <ele>695.5</ele>
        <time>2023-05-28T08:57:47Z</time>
      </trkpt>
      <trkpt lat="43.53622" lon="5.57177">
        <ele>695.6</ele>
        <time>2023-05-28T08:57:48Z</time>
      </trkpt>
      <trkpt lat="43.53622" lon="5.57178">
        <ele>695.8</ele>
        <time>2023-05-28T08:57:49Z</time>
      </trkpt>
      <trkpt lat="43.53621" lon="5.57178">
        <ele>695.9</ele>
        <time>2023-05-28T08:57:50Z</time>
      </trkpt>
      <trkpt lat="43.53621" lon="5.57179">
        <ele>696.1</ele>
        <time>2023-05-28T08:57:51Z</time>
      </trkpt>
      <trkpt lat="43.5362" lon="5.57179">
        <ele>696.4</ele>
        <time>2023-05-28T08:57:52Z</time>
      </trkpt>
      <trkpt lat="43.5362" lon="5.57179">
        <ele>696.5</ele>
        <time>2023-05-28T08:57:53Z</time>
      </trkpt>
      <trkpt lat="43.5362" lon="5.57179">
        <ele>696.8</ele>
        <time>2023-05-28T08:57:54Z</time>
      </trkpt>
      <trkpt lat="43.5362" lon="5.57179">
        <ele>697</ele>
        <time>2023-05-28T08:57:55Z</time>
      </trkpt>
      <trkpt lat="43.53619" lon="5.57179">
        <ele>697.1</ele>
        <time>2023-05-28T08:57:56Z</time>
      </trkpt>
      <trkpt lat="43.53619" lon="5.57179">
        <ele>697.2</ele>
        <time>2023-05-28T08:57:57Z</time>
      </trkpt>
      <trkpt lat="43.53618" lon="5.5718">
        <ele>697.4</ele>
        <time>2023-05-28T08:57:58Z</time>
      </trkpt>
      <trkpt lat="43.53617" lon="5.5718">
        <ele>697.6</ele>
        <time>2023-05-28T08:57:59Z</time>
      </trkpt>
      <trkpt lat="43.53617" lon="5.57181">
        <ele>697.7</ele>
        <time>2023-05-28T08:58:00Z</time>
      </trkpt>
      <trkpt lat="43.53616" lon="5.57181">
        <ele>698</ele>
        <time>2023-05-28T08:58:01Z</time>
      </trkpt>
      <trkpt lat="43.53616" lon="5.5718">
        <ele>698.2</ele>
        <time>2023-05-28T08:58:02Z</time>
      </trkpt>
      <trkpt lat="43.53615" lon="5.57181">
        <ele>698.4</ele>
        <time>2023-05-28T08:58:03Z</time>
      </trkpt>
      <trkpt lat="43.53615" lon="5.57181">
        <ele>698.6</ele>
        <time>2023-05-28T08:58:04Z</time>
      </trkpt>
      <trkpt lat="43.53614" lon="5.57181">
        <ele>698.8</ele>
        <time>2023-05-28T08:58:05Z</time>
      </trkpt>
      <trkpt lat="43.53614" lon="5.57182">
        <ele>699</ele>
        <time>2023-05-28T08:58:06Z</time>
      </trkpt>
      <trkpt lat="43.53614" lon="5.57183">
        <ele>699.2</ele>
        <time>2023-05-28T08:58:07Z</time>
      </trkpt>
      <trkpt lat="43.53613" lon="5.57185">
        <ele>699.5</ele>
        <time>2023-05-28T08:58:08Z</time>
      </trkpt>
      <trkpt lat="43.53613" lon="5.57186">
        <ele>699.6</ele>
        <time>2023-05-28T08:58:09Z</time>
      </trkpt>
      <trkpt lat="43.53613" lon="5.57186">
        <ele>699.7</ele>
        <time>2023-05-28T08:58:10Z</time>
      </trkpt>
      <trkpt lat="43.53612" lon="5.57187">
        <ele>699.8</ele>
        <time>2023-05-28T08:58:11Z</time>
      </trkpt>
      <trkpt lat="43.53612" lon="5.57188">
        <ele>699.9</ele>
        <time>2023-05-28T08:58:12Z</time>
      </trkpt>
      <trkpt lat="43.53612" lon="5.57188">
        <ele>700</ele>
        <time>2023-05-28T08:58:13Z</time>
      </trkpt>
      <trkpt lat="43.53611" lon="5.57188">
        <ele>700.1</ele>
        <time>2023-05-28T08:58:14Z</time>
      </trkpt>
      <trkpt lat="43.53611" lon="5.57189">
        <ele>700.4</ele>
        <time>2023-05-28T08:58:15Z</time>
      </trkpt>
      <trkpt lat="43.5361" lon="5.57189">
        <ele>700.6</ele>
        <time>2023-05-28T08:58:16Z</time>
      </trkpt>
      <trkpt lat="43.5361" lon="5.5719">
        <ele>700.9</ele>
        <time>2023-05-28T08:58:17Z</time>
      </trkpt>
      <trkpt lat="43.5361" lon="5.57191">
        <ele>701</ele>
        <time>2023-05-28T08:58:18Z</time>
      </trkpt>
      <trkpt lat="43.53609" lon="5.57191">
        <ele>701.2</ele>
        <time>2023-05-28T08:58:19Z</time>
      </trkpt>
      <trkpt lat="43.53609" lon="5.57192">
        <ele>701.4</ele>
        <time>2023-05-28T08:58:20Z</time>
      </trkpt>
      <trkpt lat="43.53609" lon="5.57194">
        <ele>701.4</ele>
        <time>2023-05-28T08:58:21Z</time>
      </trkpt>
      <trkpt lat="43.53608" lon="5.57194">
        <ele>701.6</ele>
        <time>2023-05-28T08:58:22Z</time>
      </trkpt>
      <trkpt lat="43.53608" lon="5.57195">
        <ele>701.6</ele>
        <time>2023-05-28T08:58:23Z</time>
      </trkpt>
      <trkpt lat="43.53607" lon="5.57195">
        <ele>701.8</ele>
        <time>2023-05-28T08:58:24Z</time>
      </trkpt>
      <trkpt lat="43.53607" lon="5.57195">
        <ele>701.9</ele>
        <time>2023-05-28T08:58:25Z</time>
      </trkpt>
      <trkpt lat="43.53606" lon="5.57196">
        <ele>702</ele>
        <time>2023-05-28T08:58:26Z</time>
      </trkpt>
      <trkpt lat="43.53606" lon="5.57196">
        <ele>702.2</ele>
        <time>2023-05-28T08:58:27Z</time>
      </trkpt>
      <trkpt lat="43.53606" lon="5.57197">
        <ele>702.4</ele>
        <time>2023-05-28T08:58:28Z</time>
      </trkpt>
      <trkpt lat="43.53605" lon="5.57197">
        <ele>702.6</ele>
        <time>2023-05-28T08:58:29Z</time>
      </trkpt>
      <trkpt lat="43.53605" lon="5.57198">
        <ele>702.7</ele>
        <time>2023-05-28T08:58:30Z</time>
      </trkpt>
      <trkpt lat="43.53604" lon="5.57199">
        <ele>702.8</ele>
        <time>2023-05-28T08:58:31Z</time>
      </trkpt>
      <trkpt lat="43.53604" lon="5.572">
        <ele>703</ele>
        <time>2023-05-28T08:58:32Z</time>
      </trkpt>
      <trkpt lat="43.53603" lon="5.572">
        <ele>703</ele>
        <time>2023-05-28T08:58:33Z</time>
      </trkpt>
      <trkpt lat="43.53603" lon="5.57201">
        <ele>703.3</ele>
        <time>2023-05-28T08:58:34Z</time>
      </trkpt>
      <trkpt lat="43.53603" lon="5.57201">
        <ele>703.5</ele>
        <time>2023-05-28T08:58:35Z</time>
      </trkpt>
      <trkpt lat="43.53602" lon="5.57202">
        <ele>703.7</ele>
        <time>2023-05-28T08:58:36Z</time>
      </trkpt>
      <trkpt lat="43.53602" lon="5.57203">
        <ele>703.8</ele>
        <time>2023-05-28T08:58:37Z</time>
      </trkpt>
      <trkpt lat="43.53601" lon="5.57203">
        <ele>704</ele>
        <time>2023-05-28T08:58:38Z</time>
      </trkpt>
      <trkpt lat="43.53601" lon="5.57204">
        <ele>704.1</ele>
        <time>2023-05-28T08:58:39Z</time>
      </trkpt>
      <trkpt lat="43.536" lon="5.57204">
        <ele>704.1</ele>
        <time>2023-05-28T08:58:40Z</time>
      </trkpt>
      <trkpt lat="43.536" lon="5.57204">
        <ele>704.1</ele>
        <time>2023-05-28T08:58:41Z</time>
      </trkpt>
      <trkpt lat="43.53599" lon="5.57204">
        <ele>704.2</ele>
        <time>2023-05-28T08:58:42Z</time>
      </trkpt>
      <trkpt lat="43.53599" lon="5.57204">
        <ele>704.3</ele>
        <time>2023-05-28T08:58:43Z</time>
      </trkpt>
      <trkpt lat="43.53598" lon="5.57204">
        <ele>704.4</ele>
        <time>2023-05-28T08:58:44Z</time>
      </trkpt>
      <trkpt lat="43.53598" lon="5.57203">
        <ele>704.5</ele>
        <time>2023-05-28T08:58:45Z</time>
      </trkpt>
      <trkpt lat="43.53598" lon="5.57203">
        <ele>704.6</ele>
        <time>2023-05-28T08:58:46Z</time>
      </trkpt>
      <trkpt lat="43.53597" lon="5.57203">
        <ele>704.8</ele>
        <time>2023-05-28T08:58:47Z</time>
      </trkpt>
      <trkpt lat="43.53597" lon="5.57203">
        <ele>704.9</ele>
        <time>2023-05-28T08:58:48Z</time>
      </trkpt>
      <trkpt lat="43.53596" lon="5.57203">
        <ele>705</ele>
        <time>2023-05-28T08:58:49Z</time>
      </trkpt>
      <trkpt lat="43.53596" lon="5.57203">
        <ele>705.1</ele>
        <time>2023-05-28T08:58:50Z</time>
      </trkpt>
      <trkpt lat="43.53595" lon="5.57202">
        <ele>705.2</ele>
        <time>2023-05-28T08:58:51Z</time>
      </trkpt>
      <trkpt lat="43.53595" lon="5.57202">
        <ele>705.3</ele>
        <time>2023-05-28T08:58:52Z</time>
      </trkpt>
      <trkpt lat="43.53595" lon="5.57202">
        <ele>705.6</ele>
        <time>2023-05-28T08:58:53Z</time>
      </trkpt>
      <trkpt lat="43.53594" lon="5.57201">
        <ele>705.8</ele>
        <time>2023-05-28T08:58:54Z</time>
      </trkpt>
      <trkpt lat="43.53594" lon="5.57201">
        <ele>706</ele>
        <time>2023-05-28T08:58:55Z</time>
      </trkpt>
      <trkpt lat="43.53593" lon="5.57201">
        <ele>706.3</ele>
        <time>2023-05-28T08:58:56Z</time>
      </trkpt>
      <trkpt lat="43.53593" lon="5.57201">
        <ele>706.4</ele>
        <time>2023-05-28T08:58:57Z</time>
      </trkpt>
      <trkpt lat="43.53592" lon="5.57201">
        <ele>706.5</ele>
        <time>2023-05-28T08:58:58Z</time>
      </trkpt>
      <trkpt lat="43.53592" lon="5.57201">
        <ele>706.6</ele>
        <time>2023-05-28T08:58:59Z</time>
      </trkpt>
      <trkpt lat="43.53592" lon="5.572">
        <ele>706.7</ele>
        <time>2023-05-28T08:59:00Z</time>
      </trkpt>
      <trkpt lat="43.53591" lon="5.572">
        <ele>706.9</ele>
        <time>2023-05-28T08:59:01Z</time>
      </trkpt>
      <trkpt lat="43.53591" lon="5.572">
        <ele>707</ele>
        <time>2023-05-28T08:59:02Z</time>
      </trkpt>
      <trkpt lat="43.53591" lon="5.572">
        <ele>707.2</ele>
        <time>2023-05-28T08:59:03Z</time>
      </trkpt>
      <trkpt lat="43.5359" lon="5.572">
        <ele>707.4</ele>
        <time>2023-05-28T08:59:04Z</time>
      </trkpt>
      <trkpt lat="43.5359" lon="5.57201">
        <ele>707.6</ele>
        <time>2023-05-28T08:59:05Z</time>
      </trkpt>
      <trkpt lat="43.53589" lon="5.572">
        <ele>707.8</ele>
        <time>2023-05-28T08:59:06Z</time>
      </trkpt>
      <trkpt lat="43.53589" lon="5.572">
        <ele>708</ele>
        <time>2023-05-28T08:59:07Z</time>
      </trkpt>
      <trkpt lat="43.53588" lon="5.572">
        <ele>708.3</ele>
        <time>2023-05-28T08:59:08Z</time>
      </trkpt>
      <trkpt lat="43.53588" lon="5.572">
        <ele>708.5</ele>
        <time>2023-05-28T08:59:09Z</time>
      </trkpt>
      <trkpt lat="43.53587" lon="5.572">
        <ele>708.7</ele>
        <time>2023-05-28T08:59:10Z</time>
      </trkpt>
      <trkpt lat="43.53587" lon="5.572">
        <ele>708.9</ele>
        <time>2023-05-28T08:59:11Z</time>
      </trkpt>
      <trkpt lat="43.53586" lon="5.572">
        <ele>709</ele>
        <time>2023-05-28T08:59:12Z</time>
      </trkpt>
      <trkpt lat="43.53586" lon="5.572">
        <ele>709.2</ele>
        <time>2023-05-28T08:59:13Z</time>
      </trkpt>
      <trkpt lat="43.53586" lon="5.572">
        <ele>709.4</ele>
        <time>2023-05-28T08:59:14Z</time>
      </trkpt>
      <trkpt lat="43.53585" lon="5.57199">
        <ele>709.7</ele>
        <time>2023-05-28T08:59:15Z</time>
      </trkpt>
      <trkpt lat="43.53585" lon="5.57199">
        <ele>709.8</ele>
        <time>2023-05-28T08:59:16Z</time>
      </trkpt>
      <trkpt lat="43.53584" lon="5.57198">
        <ele>710</ele>
        <time>2023-05-28T08:59:17Z</time>
      </trkpt>
      <trkpt lat="43.53583" lon="5.57198">
        <ele>710.1</ele>
        <time>2023-05-28T08:59:18Z</time>
      </trkpt>
      <trkpt lat="43.53582" lon="5.57199">
        <ele>710.2</ele>
        <time>2023-05-28T08:59:19Z</time>
      </trkpt>
      <trkpt lat="43.53582" lon="5.57199">
        <ele>710.4</ele>
        <time>2023-05-28T08:59:20Z</time>
      </trkpt>
      <trkpt lat="43.53581" lon="5.57199">
        <ele>710.5</ele>
        <time>2023-05-28T08:59:21Z</time>
      </trkpt>
      <trkpt lat="43.53581" lon="5.572">
        <ele>710.7</ele>
        <time>2023-05-28T08:59:22Z</time>
      </trkpt>
      <trkpt lat="43.53581" lon="5.572">
        <ele>710.8</ele>
        <time>2023-05-28T08:59:23Z</time>
      </trkpt>
      <trkpt lat="43.5358" lon="5.572">
        <ele>710.9</ele>
        <time>2023-05-28T08:59:24Z</time>
      </trkpt>
      <trkpt lat="43.5358" lon="5.57201">
        <ele>711.1</ele>
        <time>2023-05-28T08:59:25Z</time>
      </trkpt>
      <trkpt lat="43.53579" lon="5.57202">
        <ele>711.1</ele>
        <time>2023-05-28T08:59:26Z</time>
      </trkpt>
      <trkpt lat="43.53579" lon="5.57202">
        <ele>711.3</ele>
        <time>2023-05-28T08:59:27Z</time>
      </trkpt>
      <trkpt lat="43.53578" lon="5.57202">
        <ele>711.4</ele>
        <time>2023-05-28T08:59:28Z</time>
      </trkpt>
      <trkpt lat="43.53577" lon="5.57203">
        <ele>711.5</ele>
        <time>2023-05-28T08:59:29Z</time>
      </trkpt>
      <trkpt lat="43.53577" lon="5.57203">
        <ele>711.7</ele>
        <time>2023-05-28T08:59:30Z</time>
      </trkpt>
      <trkpt lat="43.53576" lon="5.57204">
        <ele>711.8</ele>
        <time>2023-05-28T08:59:31Z</time>
      </trkpt>
      <trkpt lat="43.53575" lon="5.57204">
        <ele>711.9</ele>
        <time>2023-05-28T08:59:32Z</time>
      </trkpt>
      <trkpt lat="43.53575" lon="5.57205">
        <ele>712</ele>
        <time>2023-05-28T08:59:33Z</time>
      </trkpt>
      <trkpt lat="43.53574" lon="5.57206">
        <ele>712.1</ele>
        <time>2023-05-28T08:59:34Z</time>
      </trkpt>
      <trkpt lat="43.53573" lon="5.57206">
        <ele>712.2</ele>
        <time>2023-05-28T08:59:35Z</time>
      </trkpt>
      <trkpt lat="43.53573" lon="5.57207">
        <ele>712.3</ele>
        <time>2023-05-28T08:59:36Z</time>
      </trkpt>
      <trkpt lat="43.53572" lon="5.57207">
        <ele>712.3</ele>
        <time>2023-05-28T08:59:37Z</time>
      </trkpt>
      <trkpt lat="43.53572" lon="5.57207">
        <ele>712.4</ele>
        <time>2023-05-28T08:59:38Z</time>
      </trkpt>
      <trkpt lat="43.53571" lon="5.57208">
        <ele>712.4</ele>
        <time>2023-05-28T08:59:39Z</time>
      </trkpt>
      <trkpt lat="43.5357" lon="5.57208">
        <ele>712.5</ele>
        <time>2023-05-28T08:59:40Z</time>
      </trkpt>
      <trkpt lat="43.53569" lon="5.5721">
        <ele>712.6</ele>
        <time>2023-05-28T08:59:41Z</time>
      </trkpt>
      <trkpt lat="43.53569" lon="5.5721">
        <ele>712.6</ele>
        <time>2023-05-28T08:59:42Z</time>
      </trkpt>
      <trkpt lat="43.53569" lon="5.57211">
        <ele>712.7</ele>
        <time>2023-05-28T08:59:43Z</time>
      </trkpt>
      <trkpt lat="43.53568" lon="5.57212">
        <ele>712.8</ele>
        <time>2023-05-28T08:59:44Z</time>
      </trkpt>
      <trkpt lat="43.53568" lon="5.57212">
        <ele>712.9</ele>
        <time>2023-05-28T08:59:45Z</time>
      </trkpt>
      <trkpt lat="43.53567" lon="5.57213">
        <ele>712.9</ele>
        <time>2023-05-28T08:59:46Z</time>
      </trkpt>
      <trkpt lat="43.53567" lon="5.57214">
        <ele>713</ele>
        <time>2023-05-28T08:59:47Z</time>
      </trkpt>
      <trkpt lat="43.53566" lon="5.57214">
        <ele>713.1</ele>
        <time>2023-05-28T08:59:48Z</time>
      </trkpt>
      <trkpt lat="43.53566" lon="5.57215">
        <ele>713.2</ele>
        <time>2023-05-28T08:59:49Z</time>
      </trkpt>
      <trkpt lat="43.53565" lon="5.57216">
        <ele>713.3</ele>
        <time>2023-05-28T08:59:50Z</time>
      </trkpt>
      <trkpt lat="43.53565" lon="5.57217">
        <ele>713.4</ele>
        <time>2023-05-28T08:59:51Z</time>
      </trkpt>
      <trkpt lat="43.53565" lon="5.57218">
        <ele>713.4</ele>
        <time>2023-05-28T08:59:52Z</time>
      </trkpt>
      <trkpt lat="43.53565" lon="5.57219">
        <ele>713.4</ele>
        <time>2023-05-28T08:59:53Z</time>
      </trkpt>
      <trkpt lat="43.53564" lon="5.5722">
        <ele>713.4</ele>
        <time>2023-05-28T08:59:54Z</time>
      </trkpt>
      <trkpt lat="43.53564" lon="5.57221">
        <ele>713.4</ele>
        <time>2023-05-28T08:59:55Z</time>
      </trkpt>
      <trkpt lat="43.53563" lon="5.57221">
        <ele>713.4</ele>
        <time>2023-05-28T08:59:56Z</time>
      </trkpt>
      <trkpt lat="43.53563" lon="5.57222">
        <ele>713.5</ele>
        <time>2023-05-28T08:59:57Z</time>
      </trkpt>
      <trkpt lat="43.53563" lon="5.57223">
        <ele>713.6</ele>
        <time>2023-05-28T08:59:58Z</time>
      </trkpt>
      <trkpt lat="43.53562" lon="5.57223">
        <ele>713.6</ele>
        <time>2023-05-28T08:59:59Z</time>
      </trkpt>
      <trkpt lat="43.53562" lon="5.57223">
        <ele>713.8</ele>
        <time>2023-05-28T09:00:00Z</time>
      </trkpt>
      <trkpt lat="43.53561" lon="5.57224">
        <ele>713.9</ele>
        <time>2023-05-28T09:00:01Z</time>
      </trkpt>
      <trkpt lat="43.5356" lon="5.57225">
        <ele>714</ele>
        <time>2023-05-28T09:00:02Z</time>
      </trkpt>
      <trkpt lat="43.5356" lon="5.57226">
        <ele>714.1</ele>
        <time>2023-05-28T09:00:03Z</time>
      </trkpt>
      <trkpt lat="43.53559" lon="5.57227">
        <ele>714.1</ele>
        <time>2023-05-28T09:00:04Z</time>
      </trkpt>
      <trkpt lat="43.53559" lon="5.57228">
        <ele>714.2</ele>
        <time>2023-05-28T09:00:05Z</time>
      </trkpt>
      <trkpt lat="43.53559" lon="5.57228">
        <ele>714.3</ele>
        <time>2023-05-28T09:00:06Z</time>
      </trkpt>
      <trkpt lat="43.53558" lon="5.5723">
        <ele>714.4</ele>
        <time>2023-05-28T09:00:07Z</time>
      </trkpt>
      <trkpt lat="43.53558" lon="5.57231">
        <ele>714.4</ele>
        <time>2023-05-28T09:00:08Z</time>
      </trkpt>
      <trkpt lat="43.53557" lon="5.57231">
        <ele>714.5</ele>
        <time>2023-05-28T09:00:09Z</time>
      </trkpt>
      <trkpt lat="43.53557" lon="5.57232">
        <ele>714.5</ele>
        <time>2023-05-28T09:00:10Z</time>
      </trkpt>
      <trkpt lat="43.53556" lon="5.57233">
        <ele>714.6</ele>
        <time>2023-05-28T09:00:11Z</time>
      </trkpt>
      <trkpt lat="43.53556" lon="5.57234">
        <ele>714.7</ele>
        <time>2023-05-28T09:00:12Z</time>
      </trkpt>
      <trkpt lat="43.53555" lon="5.57235">
        <ele>714.7</ele>
        <time>2023-05-28T09:00:13Z</time>
      </trkpt>
      <trkpt lat="43.53554" lon="5.57235">
        <ele>714.8</ele>
        <time>2023-05-28T09:00:14Z</time>
      </trkpt>
      <trkpt lat="43.53553" lon="5.57236">
        <ele>714.9</ele>
        <time>2023-05-28T09:00:15Z</time>
      </trkpt>
      <trkpt lat="43.53552" lon="5.57237">
        <ele>714.9</ele>
        <time>2023-05-28T09:00:16Z</time>
      </trkpt>
      <trkpt lat="43.53552" lon="5.57238">
        <ele>715.1</ele>
        <time>2023-05-28T09:00:17Z</time>
      </trkpt>
      <trkpt lat="43.53551" lon="5.57238">
        <ele>715.2</ele>
        <time>2023-05-28T09:00:18Z</time>
      </trkpt>
      <trkpt lat="43.53551" lon="5.57239">
        <ele>715.3</ele>
        <time>2023-05-28T09:00:19Z</time>
      </trkpt>
      <trkpt lat="43.5355" lon="5.57239">
        <ele>715.4</ele>
        <time>2023-05-28T09:00:20Z</time>
      </trkpt>
      <trkpt lat="43.53549" lon="5.5724">
        <ele>715.5</ele>
        <time>2023-05-28T09:00:21Z</time>
      </trkpt>
      <trkpt lat="43.53549" lon="5.57241">
        <ele>715.6</ele>
        <time>2023-05-28T09:00:22Z</time>
      </trkpt>
      <trkpt lat="43.53548" lon="5.57242">
        <ele>715.7</ele>
        <time>2023-05-28T09:00:23Z</time>
      </trkpt>
      <trkpt lat="43.53548" lon="5.57242">
        <ele>715.8</ele>
        <time>2023-05-28T09:00:24Z</time>
      </trkpt>
      <trkpt lat="43.53547" lon="5.57243">
        <ele>716</ele>
        <time>2023-05-28T09:00:25Z</time>
      </trkpt>
      <trkpt lat="43.53546" lon="5.57244">
        <ele>716.1</ele>
        <time>2023-05-28T09:00:26Z</time>
      </trkpt>
      <trkpt lat="43.53546" lon="5.57245">
        <ele>716.2</ele>
        <time>2023-05-28T09:00:27Z</time>
      </trkpt>
      <trkpt lat="43.53545" lon="5.57245">
        <ele>716.2</ele>
        <time>2023-05-28T09:00:28Z</time>
      </trkpt>
      <trkpt lat="43.53544" lon="5.57247">
        <ele>716.3</ele>
        <time>2023-05-28T09:00:29Z</time>
      </trkpt>
      <trkpt lat="43.53543" lon="5.57247">
        <ele>716.5</ele>
        <time>2023-05-28T09:00:30Z</time>
      </trkpt>
      <trkpt lat="43.53543" lon="5.57248">
        <ele>716.6</ele>
        <time>2023-05-28T09:00:31Z</time>
      </trkpt>
      <trkpt lat="43.53542" lon="5.57248">
        <ele>716.7</ele>
        <time>2023-05-28T09:00:32Z</time>
      </trkpt>
      <trkpt lat="43.53542" lon="5.57249">
        <ele>716.7</ele>
        <time>2023-05-28T09:00:33Z</time>
      </trkpt>
      <trkpt lat="43.53541" lon="5.5725">
        <ele>716.8</ele>
        <time>2023-05-28T09:00:34Z</time>
      </trkpt>
      <trkpt lat="43.53541" lon="5.57251">
        <ele>716.9</ele>
        <time>2023-05-28T09:00:35Z</time>
      </trkpt>
      <trkpt lat="43.5354" lon="5.57252">
        <ele>717</ele>
        <time>2023-05-28T09:00:36Z</time>
      </trkpt>
      <trkpt lat="43.5354" lon="5.57252">
        <ele>717.1</ele>
        <time>2023-05-28T09:00:37Z</time>
      </trkpt>
      <trkpt lat="43.53539" lon="5.57252">
        <ele>717.2</ele>
        <time>2023-05-28T09:00:38Z</time>
      </trkpt>
      <trkpt lat="43.53539" lon="5.57253">
        <ele>717.3</ele>
        <time>2023-05-28T09:00:39Z</time>
      </trkpt>
      <trkpt lat="43.53538" lon="5.57253">
        <ele>717.4</ele>
        <time>2023-05-28T09:00:40Z</time>
      </trkpt>
      <trkpt lat="43.53538" lon="5.57253">
        <ele>717.5</ele>
        <time>2023-05-28T09:00:41Z</time>
      </trkpt>
      <trkpt lat="43.53537" lon="5.57253">
        <ele>717.7</ele>
        <time>2023-05-28T09:00:42Z</time>
      </trkpt>
      <trkpt lat="43.53537" lon="5.57253">
        <ele>717.8</ele>
        <time>2023-05-28T09:00:43Z</time>
      </trkpt>
      <trkpt lat="43.53537" lon="5.57254">
        <ele>717.9</ele>
        <time>2023-05-28T09:00:44Z</time>
      </trkpt>
      <trkpt lat="43.53537" lon="5.57254">
        <ele>718</ele>
        <time>2023-05-28T09:00:45Z</time>
      </trkpt>
      <trkpt lat="43.53537" lon="5.57254">
        <ele>718</ele>
        <time>2023-05-28T09:00:46Z</time>
      </trkpt>
      <trkpt lat="43.53537" lon="5.57254">
        <ele>718.1</ele>
        <time>2023-05-28T09:00:47Z</time>
      </trkpt>
      <trkpt lat="43.53538" lon="5.57255">
        <ele>718.1</ele>
        <time>2023-05-28T09:00:48Z</time>
      </trkpt>
      <trkpt lat="43.53538" lon="5.57255">
        <ele>718.2</ele>
        <time>2023-05-28T09:00:49Z</time>
      </trkpt>
      <trkpt lat="43.53537" lon="5.57255">
        <ele>718.3</ele>
        <time>2023-05-28T09:00:50Z</time>
      </trkpt>
      <trkpt lat="43.53537" lon="5.57255">
        <ele>718.4</ele>
        <time>2023-05-28T09:00:51Z</time>
      </trkpt>
      <trkpt lat="43.53537" lon="5.57254">
        <ele>718.4</ele>
        <time>2023-05-28T09:00:52Z</time>
      </trkpt>
      <trkpt lat="43.53536" lon="5.57254">
        <ele>718.4</ele>
        <time>2023-05-28T09:00:53Z</time>
      </trkpt>
      <trkpt lat="43.53536" lon="5.57255">
        <ele>718.5</ele>
        <time>2023-05-28T09:00:54Z</time>
      </trkpt>
      <trkpt lat="43.53537" lon="5.57255">
        <ele>718.5</ele>
        <time>2023-05-28T09:00:55Z</time>
      </trkpt>
      <trkpt lat="43.53537" lon="5.57256">
        <ele>718.6</ele>
        <time>2023-05-28T09:00:56Z</time>
      </trkpt>
      <trkpt lat="43.53536" lon="5.57255">
        <ele>718.7</ele>
        <time>2023-05-28T09:00:57Z</time>
      </trkpt>
      <trkpt lat="43.53536" lon="5.57256">
        <ele>718.7</ele>
        <time>2023-05-28T09:00:58Z</time>
      </trkpt>
      <trkpt lat="43.53536" lon="5.57256">
        <ele>718.7</ele>
        <time>2023-05-28T09:00:59Z</time>
      </trkpt>
      <trkpt lat="43.53536" lon="5.57256">
        <ele>718.7</ele>
        <time>2023-05-28T09:01:00Z</time>
      </trkpt>
      <trkpt lat="43.53536" lon="5.57256">
        <ele>718.7</ele>
        <time>2023-05-28T09:01:01Z</time>
      </trkpt>
      <trkpt lat="43.53536" lon="5.57256">
        <ele>718.7</ele>
        <time>2023-05-28T09:01:02Z</time>
      </trkpt>
      <trkpt lat="43.53536" lon="5.57256">
        <ele>718.7</ele>
        <time>2023-05-28T09:01:03Z</time>
      </trkpt>
      <trkpt lat="43.53536" lon="5.57256">
        <ele>718.7</ele>
        <time>2023-05-28T09:01:04Z</time>
      </trkpt>
      <trkpt lat="43.53536" lon="5.57256">
        <ele>718.8</ele>
        <time>2023-05-28T09:01:05Z</time>
      </trkpt>
      <trkpt lat="43.53536" lon="5.57256">
        <ele>718.8</ele>
        <time>2023-05-28T09:01:06Z</time>
      </trkpt>
      <trkpt lat="43.53536" lon="5.57257">
        <ele>718.8</ele>
        <time>2023-05-28T09:01:07Z</time>
      </trkpt>
      <trkpt lat="43.53536" lon="5.57257">
        <ele>718.8</ele>
        <time>2023-05-28T09:01:08Z</time>
      </trkpt>
      <trkpt lat="43.53536" lon="5.57257">
        <ele>718.7</ele>
        <time>2023-05-28T09:01:09Z</time>
      </trkpt>
      <trkpt lat="43.53536" lon="5.57257">
        <ele>718.7</ele>
        <time>2023-05-28T09:01:10Z</time>
      </trkpt>
      <trkpt lat="43.53536" lon="5.57257">
        <ele>718.7</ele>
        <time>2023-05-28T09:01:11Z</time>
      </trkpt>
      <trkpt lat="43.53536" lon="5.57257">
        <ele>718.7</ele>
        <time>2023-05-28T09:01:12Z</time>
      </trkpt>
      <trkpt lat="43.53536" lon="5.57257">
        <ele>718.7</ele>
        <time>2023-05-28T09:01:13Z</time>
      </trkpt>
      <trkpt lat="43.53536" lon="5.57257">
        <ele>718.7</ele>
        <time>2023-05-28T09:01:14Z</time>
      </trkpt>
      <trkpt lat="43.53536" lon="5.57257">
        <ele>718.6</ele>
        <time>2023-05-28T09:01:15Z</time>
      </trkpt>
      <trkpt lat="43.53535" lon="5.57258">
        <ele>718.6</ele>
        <time>2023-05-28T09:01:16Z</time>
      </trkpt>
      <trkpt lat="43.53535" lon="5.57258">
        <ele>718.6</ele>
        <time>2023-05-28T09:01:17Z</time>
      </trkpt>
      <trkpt lat="43.53535" lon="5.57258">
        <ele>718.6</ele>
        <time>2023-05-28T09:01:18Z</time>
      </trkpt>
      <trkpt lat="43.53535" lon="5.57258">
        <ele>718.6</ele>
        <time>2023-05-28T09:01:19Z</time>
      </trkpt>
      <trkpt lat="43.53535" lon="5.57259">
        <ele>718.6</ele>
        <time>2023-05-28T09:01:20Z</time>
      </trkpt>
      <trkpt lat="43.53535" lon="5.57259">
        <ele>718.6</ele>
        <time>2023-05-28T09:01:21Z</time>
      </trkpt>
      <trkpt lat="43.53534" lon="5.5726">
        <ele>718.6</ele>
        <time>2023-05-28T09:01:22Z</time>
      </trkpt>
      <trkpt lat="43.53534" lon="5.5726">
        <ele>718.7</ele>
        <time>2023-05-28T09:01:23Z</time>
      </trkpt>
      <trkpt lat="43.53534" lon="5.57261">
        <ele>718.7</ele>
        <time>2023-05-28T09:01:24Z</time>
      </trkpt>
      <trkpt lat="43.53534" lon="5.57261">
        <ele>718.7</ele>
        <time>2023-05-28T09:01:25Z</time>
      </trkpt>
      <trkpt lat="43.53534" lon="5.57261">
        <ele>718.7</ele>
        <time>2023-05-28T09:01:26Z</time>
      </trkpt>
      <trkpt lat="43.53534" lon="5.57261">
        <ele>718.7</ele>
        <time>2023-05-28T09:01:27Z</time>
      </trkpt>
      <trkpt lat="43.53534" lon="5.5726">
        <ele>718.7</ele>
        <time>2023-05-28T09:01:28Z</time>
      </trkpt>
      <trkpt lat="43.53534" lon="5.5726">
        <ele>718.6</ele>
        <time>2023-05-28T09:01:29Z</time>
      </trkpt>
      <trkpt lat="43.53534" lon="5.5726">
        <ele>718.6</ele>
        <time>2023-05-28T09:01:30Z</time>
      </trkpt>
      <trkpt lat="43.53534" lon="5.5726">
        <ele>718.6</ele>
        <time>2023-05-28T09:01:31Z</time>
      </trkpt>
      <trkpt lat="43.53534" lon="5.5726">
        <ele>718.7</ele>
        <time>2023-05-28T09:01:32Z</time>
      </trkpt>
      <trkpt lat="43.53534" lon="5.5726">
        <ele>718.8</ele>
        <time>2023-05-28T09:01:33Z</time>
      </trkpt>
      <trkpt lat="43.53534" lon="5.57261">
        <ele>718.7</ele>
        <time>2023-05-28T09:01:34Z</time>
      </trkpt>
      <trkpt lat="43.53534" lon="5.57261">
        <ele>718.7</ele>
        <time>2023-05-28T09:01:35Z</time>
      </trkpt>
      <trkpt lat="43.53534" lon="5.57261">
        <ele>718.7</ele>
        <time>2023-05-28T09:01:36Z</time>
      </trkpt>
      <trkpt lat="43.53534" lon="5.57261">
        <ele>718.7</ele>
        <time>2023-05-28T09:01:37Z</time>
      </trkpt>
      <trkpt lat="43.53534" lon="5.57261">
        <ele>718.7</ele>
        <time>2023-05-28T09:01:38Z</time>
      </trkpt>
      <trkpt lat="43.53534" lon="5.57261">
        <ele>718.7</ele>
        <time>2023-05-28T09:01:39Z</time>
      </trkpt>
      <trkpt lat="43.53534" lon="5.57261">
        <ele>718.6</ele>
        <time>2023-05-28T09:01:40Z</time>
      </trkpt>
      <trkpt lat="43.53534" lon="5.57261">
        <ele>718.6</ele>
        <time>2023-05-28T09:01:41Z</time>
      </trkpt>
      <trkpt lat="43.53534" lon="5.57261">
        <ele>718.6</ele>
        <time>2023-05-28T09:01:42Z</time>
      </trkpt>
      <trkpt lat="43.53534" lon="5.57261">
        <ele>718.6</ele>
        <time>2023-05-28T09:01:43Z</time>
      </trkpt>
      <trkpt lat="43.53534" lon="5.57261">
        <ele>718.6</ele>
        <time>2023-05-28T09:01:44Z</time>
      </trkpt>
      <trkpt lat="43.53534" lon="5.57261">
        <ele>718.6</ele>
        <time>2023-05-28T09:01:45Z</time>
      </trkpt>
      <trkpt lat="43.53534" lon="5.57261">
        <ele>718.7</ele>
        <time>2023-05-28T09:01:46Z</time>
      </trkpt>
      <trkpt lat="43.53534" lon="5.5726">
        <ele>718.6</ele>
        <time>2023-05-28T09:01:47Z</time>
      </trkpt>
      <trkpt lat="43.53534" lon="5.5726">
        <ele>718.6</ele>
        <time>2023-05-28T09:01:48Z</time>
      </trkpt>
      <trkpt lat="43.53534" lon="5.5726">
        <ele>718.6</ele>
        <time>2023-05-28T09:01:49Z</time>
      </trkpt>
      <trkpt lat="43.53534" lon="5.57261">
        <ele>718.6</ele>
        <time>2023-05-28T09:01:50Z</time>
      </trkpt>
      <trkpt lat="43.53534" lon="5.57261">
        <ele>718.7</ele>
        <time>2023-05-28T09:01:51Z</time>
      </trkpt>
      <trkpt lat="43.53534" lon="5.57261">
        <ele>718.7</ele>
        <time>2023-05-28T09:01:52Z</time>
      </trkpt>
      <trkpt lat="43.53534" lon="5.57261">
        <ele>718.6</ele>
        <time>2023-05-28T09:01:53Z</time>
      </trkpt>
      <trkpt lat="43.53534" lon="5.57261">
        <ele>718.5</ele>
        <time>2023-05-28T09:01:54Z</time>
      </trkpt>
      <trkpt lat="43.53534" lon="5.57261">
        <ele>718.5</ele>
        <time>2023-05-28T09:01:55Z</time>
      </trkpt>
      <trkpt lat="43.53534" lon="5.57261">
        <ele>718.6</ele>
        <time>2023-05-28T09:01:56Z</time>
      </trkpt>
      <trkpt lat="43.53534" lon="5.57261">
        <ele>718.7</ele>
        <time>2023-05-28T09:01:57Z</time>
      </trkpt>
      <trkpt lat="43.53534" lon="5.57261">
        <ele>718.7</ele>
        <time>2023-05-28T09:01:58Z</time>
      </trkpt>
      <trkpt lat="43.53534" lon="5.57261">
        <ele>718.7</ele>
        <time>2023-05-28T09:01:59Z</time>
      </trkpt>
      <trkpt lat="43.53533" lon="5.57261">
        <ele>718.7</ele>
        <time>2023-05-28T09:02:00Z</time>
      </trkpt>
      <trkpt lat="43.53533" lon="5.57262">
        <ele>718.8</ele>
        <time>2023-05-28T09:02:01Z</time>
      </trkpt>
      <trkpt lat="43.53533" lon="5.57262">
        <ele>718.8</ele>
        <time>2023-05-28T09:02:02Z</time>
      </trkpt>
      <trkpt lat="43.53532" lon="5.57262">
        <ele>718.8</ele>
        <time>2023-05-28T09:02:03Z</time>
      </trkpt>
      <trkpt lat="43.53532" lon="5.57262">
        <ele>718.8</ele>
        <time>2023-05-28T09:02:04Z</time>
      </trkpt>
      <trkpt lat="43.53531" lon="5.57262">
        <ele>719</ele>
        <time>2023-05-28T09:02:05Z</time>
      </trkpt>
      <trkpt lat="43.53531" lon="5.57263">
        <ele>719.1</ele>
        <time>2023-05-28T09:02:06Z</time>
      </trkpt>
      <trkpt lat="43.53531" lon="5.57263">
        <ele>719.2</ele>
        <time>2023-05-28T09:02:07Z</time>
      </trkpt>
      <trkpt lat="43.5353" lon="5.57263">
        <ele>719.3</ele>
        <time>2023-05-28T09:02:08Z</time>
      </trkpt>
      <trkpt lat="43.5353" lon="5.57264">
        <ele>719.3</ele>
        <time>2023-05-28T09:02:09Z</time>
      </trkpt>
      <trkpt lat="43.5353" lon="5.57264">
        <ele>719.4</ele>
        <time>2023-05-28T09:02:10Z</time>
      </trkpt>
      <trkpt lat="43.5353" lon="5.57264">
        <ele>719.5</ele>
        <time>2023-05-28T09:02:11Z</time>
      </trkpt>
      <trkpt lat="43.5353" lon="5.57264">
        <ele>719.4</ele>
        <time>2023-05-28T09:02:12Z</time>
      </trkpt>
      <trkpt lat="43.5353" lon="5.57264">
        <ele>719.5</ele>
        <time>2023-05-28T09:02:13Z</time>
      </trkpt>
      <trkpt lat="43.5353" lon="5.57264">
        <ele>719.5</ele>
        <time>2023-05-28T09:02:14Z</time>
      </trkpt>
      <trkpt lat="43.53529" lon="5.57264">
        <ele>719.5</ele>
        <time>2023-05-28T09:02:15Z</time>
      </trkpt>
      <trkpt lat="43.53529" lon="5.57264">
        <ele>719.4</ele>
        <time>2023-05-28T09:02:16Z</time>
      </trkpt>
      <trkpt lat="43.53529" lon="5.57264">
        <ele>719.4</ele>
        <time>2023-05-28T09:02:17Z</time>
      </trkpt>
      <trkpt lat="43.53529" lon="5.57264">
        <ele>719.4</ele>
        <time>2023-05-28T09:02:18Z</time>
      </trkpt>
      <trkpt lat="43.53529" lon="5.57264">
        <ele>719.5</ele>
        <time>2023-05-28T09:02:19Z</time>
      </trkpt>
      <trkpt lat="43.53529" lon="5.57263">
        <ele>719.6</ele>
        <time>2023-05-28T09:02:20Z</time>
      </trkpt>
      <trkpt lat="43.53529" lon="5.57263">
        <ele>719.6</ele>
        <time>2023-05-28T09:02:21Z</time>
      </trkpt>
      <trkpt lat="43.53529" lon="5.57263">
        <ele>719.6</ele>
        <time>2023-05-28T09:02:22Z</time>
      </trkpt>
      <trkpt lat="43.53529" lon="5.57263">
        <ele>719.6</ele>
        <time>2023-05-28T09:02:23Z</time>
      </trkpt>
      <trkpt lat="43.53529" lon="5.57264">
        <ele>719.6</ele>
        <time>2023-05-28T09:02:24Z</time>
      </trkpt>
      <trkpt lat="43.5353" lon="5.57264">
        <ele>719.7</ele>
        <time>2023-05-28T09:02:25Z</time>
      </trkpt>
      <trkpt lat="43.5353" lon="5.57264">
        <ele>719.7</ele>
        <time>2023-05-28T09:02:26Z</time>
      </trkpt>
      <trkpt lat="43.5353" lon="5.57264">
        <ele>719.7</ele>
        <time>2023-05-28T09:02:27Z</time>
      </trkpt>
      <trkpt lat="43.5353" lon="5.57264">
        <ele>719.7</ele>
        <time>2023-05-28T09:02:28Z</time>
      </trkpt>
      <trkpt lat="43.5353" lon="5.57265">
        <ele>719.6</ele>
        <time>2023-05-28T09:02:29Z</time>
      </trkpt>
      <trkpt lat="43.5353" lon="5.57265">
        <ele>719.6</ele>
        <time>2023-05-28T09:02:30Z</time>
      </trkpt>
      <trkpt lat="43.5353" lon="5.57265">
        <ele>719.6</ele>
        <time>2023-05-28T09:02:31Z</time>
      </trkpt>
      <trkpt lat="43.5353" lon="5.57265">
        <ele>719.6</ele>
        <time>2023-05-28T09:02:32Z</time>
      </trkpt>
      <trkpt lat="43.5353" lon="5.57265">
        <ele>719.6</ele>
        <time>2023-05-28T09:02:33Z</time>
      </trkpt>
      <trkpt lat="43.5353" lon="5.57265">
        <ele>719.5</ele>
        <time>2023-05-28T09:02:34Z</time>
      </trkpt>
      <trkpt lat="43.5353" lon="5.57265">
        <ele>719.5</ele>
        <time>2023-05-28T09:02:35Z</time>
      </trkpt>
      <trkpt lat="43.5353" lon="5.57266">
        <ele>719.5</ele>
        <time>2023-05-28T09:02:36Z</time>
      </trkpt>
      <trkpt lat="43.5353" lon="5.57266">
        <ele>719.6</ele>
        <time>2023-05-28T09:02:37Z</time>
      </trkpt>
      <trkpt lat="43.5353" lon="5.57266">
        <ele>719.6</ele>
        <time>2023-05-28T09:02:38Z</time>
      </trkpt>
      <trkpt lat="43.5353" lon="5.57266">
        <ele>719.6</ele>
        <time>2023-05-28T09:02:39Z</time>
      </trkpt>
      <trkpt lat="43.5353" lon="5.57266">
        <ele>719.5</ele>
        <time>2023-05-28T09:02:40Z</time>
      </trkpt>
      <trkpt lat="43.53531" lon="5.57266">
        <ele>719.4</ele>
        <time>2023-05-28T09:02:41Z</time>
      </trkpt>
      <trkpt lat="43.53531" lon="5.57266">
        <ele>719.4</ele>
        <time>2023-05-28T09:02:42Z</time>
      </trkpt>
      <trkpt lat="43.53531" lon="5.57266">
        <ele>719.4</ele>
        <time>2023-05-28T09:02:43Z</time>
      </trkpt>
      <trkpt lat="43.53531" lon="5.57266">
        <ele>719.4</ele>
        <time>2023-05-28T09:02:44Z</time>
      </trkpt>
      <trkpt lat="43.53531" lon="5.57266">
        <ele>719.5</ele>
        <time>2023-05-28T09:02:45Z</time>
      </trkpt>
      <trkpt lat="43.53531" lon="5.57266">
        <ele>719.5</ele>
        <time>2023-05-28T09:02:46Z</time>
      </trkpt>
      <trkpt lat="43.53531" lon="5.57266">
        <ele>719.6</ele>
        <time>2023-05-28T09:02:47Z</time>
      </trkpt>
      <trkpt lat="43.53531" lon="5.57266">
        <ele>719.6</ele>
        <time>2023-05-28T09:02:48Z</time>
      </trkpt>
      <trkpt lat="43.53531" lon="5.57266">
        <ele>719.6</ele>
        <time>2023-05-28T09:02:49Z</time>
      </trkpt>
      <trkpt lat="43.53531" lon="5.57266">
        <ele>719.6</ele>
        <time>2023-05-28T09:02:50Z</time>
      </trkpt>
      <trkpt lat="43.5353" lon="5.57267">
        <ele>719.6</ele>
        <time>2023-05-28T09:02:51Z</time>
      </trkpt>
      <trkpt lat="43.5353" lon="5.57267">
        <ele>719.6</ele>
        <time>2023-05-28T09:02:52Z</time>
      </trkpt>
      <trkpt lat="43.53529" lon="5.57268">
        <ele>719.6</ele>
        <time>2023-05-28T09:02:53Z</time>
      </trkpt>
      <trkpt lat="43.53529" lon="5.57268">
        <ele>719.7</ele>
        <time>2023-05-28T09:02:54Z</time>
      </trkpt>
      <trkpt lat="43.53529" lon="5.57268">
        <ele>719.7</ele>
        <time>2023-05-28T09:02:55Z</time>
      </trkpt>
      <trkpt lat="43.53529" lon="5.57269">
        <ele>719.8</ele>
        <time>2023-05-28T09:02:56Z</time>
      </trkpt>
      <trkpt lat="43.53529" lon="5.5727">
        <ele>719.7</ele>
        <time>2023-05-28T09:02:57Z</time>
      </trkpt>
      <trkpt lat="43.53529" lon="5.5727">
        <ele>719.8</ele>
        <time>2023-05-28T09:02:58Z</time>
      </trkpt>
      <trkpt lat="43.53528" lon="5.5727">
        <ele>719.8</ele>
        <time>2023-05-28T09:02:59Z</time>
      </trkpt>
      <trkpt lat="43.53528" lon="5.57271">
        <ele>719.8</ele>
        <time>2023-05-28T09:03:00Z</time>
      </trkpt>
      <trkpt lat="43.53527" lon="5.57272">
        <ele>719.8</ele>
        <time>2023-05-28T09:03:01Z</time>
      </trkpt>
      <trkpt lat="43.53527" lon="5.57272">
        <ele>719.8</ele>
        <time>2023-05-28T09:03:02Z</time>
      </trkpt>
      <trkpt lat="43.53527" lon="5.57273">
        <ele>719.8</ele>
        <time>2023-05-28T09:03:03Z</time>
      </trkpt>
      <trkpt lat="43.53527" lon="5.57274">
        <ele>719.9</ele>
        <time>2023-05-28T09:03:04Z</time>
      </trkpt>
      <trkpt lat="43.53526" lon="5.57274">
        <ele>720</ele>
        <time>2023-05-28T09:03:05Z</time>
      </trkpt>
      <trkpt lat="43.53526" lon="5.57274">
        <ele>720.1</ele>
        <time>2023-05-28T09:03:06Z</time>
      </trkpt>
      <trkpt lat="43.53525" lon="5.57275">
        <ele>720.3</ele>
        <time>2023-05-28T09:03:07Z</time>
      </trkpt>
      <trkpt lat="43.53525" lon="5.57276">
        <ele>720.3</ele>
        <time>2023-05-28T09:03:08Z</time>
      </trkpt>
      <trkpt lat="43.53525" lon="5.57278">
        <ele>720.4</ele>
        <time>2023-05-28T09:03:09Z</time>
      </trkpt>
      <trkpt lat="43.53525" lon="5.57278">
        <ele>720.6</ele>
        <time>2023-05-28T09:03:10Z</time>
      </trkpt>
      <trkpt lat="43.53525" lon="5.57279">
        <ele>720.7</ele>
        <time>2023-05-28T09:03:11Z</time>
      </trkpt>
      <trkpt lat="43.53525" lon="5.5728">
        <ele>720.8</ele>
        <time>2023-05-28T09:03:12Z</time>
      </trkpt>
      <trkpt lat="43.53524" lon="5.57281">
        <ele>720.9</ele>
        <time>2023-05-28T09:03:13Z</time>
      </trkpt>
      <trkpt lat="43.53524" lon="5.57281">
        <ele>721</ele>
        <time>2023-05-28T09:03:14Z</time>
      </trkpt>
      <trkpt lat="43.53523" lon="5.57281">
        <ele>721</ele>
        <time>2023-05-28T09:03:15Z</time>
      </trkpt>
      <trkpt lat="43.53523" lon="5.57281">
        <ele>721.1</ele>
        <time>2023-05-28T09:03:16Z</time>
      </trkpt>
      <trkpt lat="43.53522" lon="5.57281">
        <ele>721.2</ele>
        <time>2023-05-28T09:03:17Z</time>
      </trkpt>
      <trkpt lat="43.53522" lon="5.57281">
        <ele>721.4</ele>
        <time>2023-05-28T09:03:18Z</time>
      </trkpt>
      <trkpt lat="43.53521" lon="5.57281">
        <ele>721.5</ele>
        <time>2023-05-28T09:03:19Z</time>
      </trkpt>
      <trkpt lat="43.53521" lon="5.57281">
        <ele>721.6</ele>
        <time>2023-05-28T09:03:20Z</time>
      </trkpt>
      <trkpt lat="43.53521" lon="5.5728">
        <ele>721.7</ele>
        <time>2023-05-28T09:03:21Z</time>
      </trkpt>
      <trkpt lat="43.5352" lon="5.5728">
        <ele>721.8</ele>
        <time>2023-05-28T09:03:22Z</time>
      </trkpt>
      <trkpt lat="43.53519" lon="5.57281">
        <ele>721.9</ele>
        <time>2023-05-28T09:03:23Z</time>
      </trkpt>
      <trkpt lat="43.53519" lon="5.57281">
        <ele>722</ele>
        <time>2023-05-28T09:03:24Z</time>
      </trkpt>
      <trkpt lat="43.53518" lon="5.57281">
        <ele>722.1</ele>
        <time>2023-05-28T09:03:25Z</time>
      </trkpt>
      <trkpt lat="43.53518" lon="5.57282">
        <ele>722.2</ele>
        <time>2023-05-28T09:03:26Z</time>
      </trkpt>
      <trkpt lat="43.53518" lon="5.57282">
        <ele>722.3</ele>
        <time>2023-05-28T09:03:27Z</time>
      </trkpt>
      <trkpt lat="43.53517" lon="5.57282">
        <ele>722.4</ele>
        <time>2023-05-28T09:03:28Z</time>
      </trkpt>
      <trkpt lat="43.53517" lon="5.57282">
        <ele>722.5</ele>
        <time>2023-05-28T09:03:29Z</time>
      </trkpt>
      <trkpt lat="43.53517" lon="5.57282">
        <ele>722.6</ele>
        <time>2023-05-28T09:03:30Z</time>
      </trkpt>
      <trkpt lat="43.53516" lon="5.57282">
        <ele>722.9</ele>
        <time>2023-05-28T09:03:31Z</time>
      </trkpt>
      <trkpt lat="43.53516" lon="5.57283">
        <ele>723.1</ele>
        <time>2023-05-28T09:03:32Z</time>
      </trkpt>
      <trkpt lat="43.53516" lon="5.57283">
        <ele>723.2</ele>
        <time>2023-05-28T09:03:33Z</time>
      </trkpt>
      <trkpt lat="43.53515" lon="5.57284">
        <ele>723.3</ele>
        <time>2023-05-28T09:03:34Z</time>
      </trkpt>
      <trkpt lat="43.53515" lon="5.57285">
        <ele>723.4</ele>
        <time>2023-05-28T09:03:35Z</time>
      </trkpt>
      <trkpt lat="43.53515" lon="5.57285">
        <ele>723.5</ele>
        <time>2023-05-28T09:03:36Z</time>
      </trkpt>
      <trkpt lat="43.53515" lon="5.57286">
        <ele>723.5</ele>
        <time>2023-05-28T09:03:37Z</time>
      </trkpt>
      <trkpt lat="43.53515" lon="5.57287">
        <ele>723.6</ele>
        <time>2023-05-28T09:03:38Z</time>
      </trkpt>
      <trkpt lat="43.53514" lon="5.57287">
        <ele>723.6</ele>
        <time>2023-05-28T09:03:39Z</time>
      </trkpt>
      <trkpt lat="43.53514" lon="5.57288">
        <ele>723.7</ele>
        <time>2023-05-28T09:03:40Z</time>
      </trkpt>
      <trkpt lat="43.53514" lon="5.57288">
        <ele>723.8</ele>
        <time>2023-05-28T09:03:41Z</time>
      </trkpt>
      <trkpt lat="43.53513" lon="5.57289">
        <ele>724</ele>
        <time>2023-05-28T09:03:42Z</time>
      </trkpt>
      <trkpt lat="43.53513" lon="5.5729">
        <ele>724.2</ele>
        <time>2023-05-28T09:03:43Z</time>
      </trkpt>
      <trkpt lat="43.53513" lon="5.5729">
        <ele>724.3</ele>
        <time>2023-05-28T09:03:44Z</time>
      </trkpt>
      <trkpt lat="43.53512" lon="5.57291">
        <ele>724.5</ele>
        <time>2023-05-28T09:03:45Z</time>
      </trkpt>
      <trkpt lat="43.53512" lon="5.57292">
        <ele>724.6</ele>
        <time>2023-05-28T09:03:46Z</time>
      </trkpt>
      <trkpt lat="43.53512" lon="5.57292">
        <ele>724.8</ele>
        <time>2023-05-28T09:03:47Z</time>
      </trkpt>
      <trkpt lat="43.53511" lon="5.57293">
        <ele>725</ele>
        <time>2023-05-28T09:03:48Z</time>
      </trkpt>
      <trkpt lat="43.53511" lon="5.57294">
        <ele>725.1</ele>
        <time>2023-05-28T09:03:49Z</time>
      </trkpt>
      <trkpt lat="43.53511" lon="5.57294">
        <ele>725.2</ele>
        <time>2023-05-28T09:03:50Z</time>
      </trkpt>
      <trkpt lat="43.53511" lon="5.57295">
        <ele>725.4</ele>
        <time>2023-05-28T09:03:51Z</time>
      </trkpt>
      <trkpt lat="43.5351" lon="5.57296">
        <ele>725.6</ele>
        <time>2023-05-28T09:03:52Z</time>
      </trkpt>
      <trkpt lat="43.5351" lon="5.57296">
        <ele>725.7</ele>
        <time>2023-05-28T09:03:53Z</time>
      </trkpt>
      <trkpt lat="43.5351" lon="5.57297">
        <ele>725.8</ele>
        <time>2023-05-28T09:03:54Z</time>
      </trkpt>
      <trkpt lat="43.53509" lon="5.57298">
        <ele>725.9</ele>
        <time>2023-05-28T09:03:55Z</time>
      </trkpt>
      <trkpt lat="43.53509" lon="5.57299">
        <ele>726</ele>
        <time>2023-05-28T09:03:56Z</time>
      </trkpt>
      <trkpt lat="43.53509" lon="5.573">
        <ele>726</ele>
        <time>2023-05-28T09:03:57Z</time>
      </trkpt>
      <trkpt lat="43.53508" lon="5.57301">
        <ele>726.2</ele>
        <time>2023-05-28T09:03:58Z</time>
      </trkpt>
      <trkpt lat="43.53508" lon="5.57302">
        <ele>726.3</ele>
        <time>2023-05-28T09:03:59Z</time>
      </trkpt>
      <trkpt lat="43.53507" lon="5.57303">
        <ele>726.4</ele>
        <time>2023-05-28T09:04:00Z</time>
      </trkpt>
      <trkpt lat="43.53507" lon="5.57304">
        <ele>726.5</ele>
        <time>2023-05-28T09:04:01Z</time>
      </trkpt>
      <trkpt lat="43.53507" lon="5.57304">
        <ele>726.7</ele>
        <time>2023-05-28T09:04:02Z</time>
      </trkpt>
      <trkpt lat="43.53506" lon="5.57305">
        <ele>726.8</ele>
        <time>2023-05-28T09:04:03Z</time>
      </trkpt>
      <trkpt lat="43.53506" lon="5.57306">
        <ele>726.9</ele>
        <time>2023-05-28T09:04:04Z</time>
      </trkpt>
      <trkpt lat="43.53505" lon="5.57306">
        <ele>727.1</ele>
        <time>2023-05-28T09:04:05Z</time>
      </trkpt>
      <trkpt lat="43.53505" lon="5.57307">
        <ele>727.3</ele>
        <time>2023-05-28T09:04:06Z</time>
      </trkpt>
      <trkpt lat="43.53504" lon="5.57308">
        <ele>727.4</ele>
        <time>2023-05-28T09:04:07Z</time>
      </trkpt>
      <trkpt lat="43.53504" lon="5.57308">
        <ele>727.6</ele>
        <time>2023-05-28T09:04:08Z</time>
      </trkpt>
      <trkpt lat="43.53503" lon="5.57309">
        <ele>727.8</ele>
        <time>2023-05-28T09:04:09Z</time>
      </trkpt>
      <trkpt lat="43.53503" lon="5.5731">
        <ele>728.1</ele>
        <time>2023-05-28T09:04:10Z</time>
      </trkpt>
      <trkpt lat="43.53503" lon="5.5731">
        <ele>728.3</ele>
        <time>2023-05-28T09:04:11Z</time>
      </trkpt>
      <trkpt lat="43.53502" lon="5.5731">
        <ele>728.5</ele>
        <time>2023-05-28T09:04:12Z</time>
      </trkpt>
      <trkpt lat="43.53502" lon="5.57311">
        <ele>728.7</ele>
        <time>2023-05-28T09:04:13Z</time>
      </trkpt>
      <trkpt lat="43.53502" lon="5.57311">
        <ele>728.8</ele>
        <time>2023-05-28T09:04:14Z</time>
      </trkpt>
      <trkpt lat="43.53501" lon="5.57312">
        <ele>728.9</ele>
        <time>2023-05-28T09:04:15Z</time>
      </trkpt>
      <trkpt lat="43.53501" lon="5.57312">
        <ele>729</ele>
        <time>2023-05-28T09:04:16Z</time>
      </trkpt>
      <trkpt lat="43.535" lon="5.57313">
        <ele>729</ele>
        <time>2023-05-28T09:04:17Z</time>
      </trkpt>
      <trkpt lat="43.53499" lon="5.57314">
        <ele>729.1</ele>
        <time>2023-05-28T09:04:18Z</time>
      </trkpt>
      <trkpt lat="43.53499" lon="5.57315">
        <ele>729.2</ele>
        <time>2023-05-28T09:04:19Z</time>
      </trkpt>
      <trkpt lat="43.53498" lon="5.57315">
        <ele>729.3</ele>
        <time>2023-05-28T09:04:20Z</time>
      </trkpt>
      <trkpt lat="43.53498" lon="5.57315">
        <ele>729.3</ele>
        <time>2023-05-28T09:04:21Z</time>
      </trkpt>
      <trkpt lat="43.53497" lon="5.57315">
        <ele>729.4</ele>
        <time>2023-05-28T09:04:22Z</time>
      </trkpt>
      <trkpt lat="43.53496" lon="5.57316">
        <ele>729.6</ele>
        <time>2023-05-28T09:04:23Z</time>
      </trkpt>
      <trkpt lat="43.53496" lon="5.57316">
        <ele>729.7</ele>
        <time>2023-05-28T09:04:24Z</time>
      </trkpt>
      <trkpt lat="43.53495" lon="5.57316">
        <ele>729.9</ele>
        <time>2023-05-28T09:04:25Z</time>
      </trkpt>
      <trkpt lat="43.53495" lon="5.57315">
        <ele>730</ele>
        <time>2023-05-28T09:04:26Z</time>
      </trkpt>
      <trkpt lat="43.53494" lon="5.57315">
        <ele>730.1</ele>
        <time>2023-05-28T09:04:27Z</time>
      </trkpt>
      <trkpt lat="43.53493" lon="5.57314">
        <ele>730.2</ele>
        <time>2023-05-28T09:04:28Z</time>
      </trkpt>
      <trkpt lat="43.53493" lon="5.57313">
        <ele>730.3</ele>
        <time>2023-05-28T09:04:29Z</time>
      </trkpt>
      <trkpt lat="43.53492" lon="5.57313">
        <ele>730.4</ele>
        <time>2023-05-28T09:04:30Z</time>
      </trkpt>
      <trkpt lat="43.53491" lon="5.57312">
        <ele>730.4</ele>
        <time>2023-05-28T09:04:31Z</time>
      </trkpt>
      <trkpt lat="43.5349" lon="5.57312">
        <ele>730.5</ele>
        <time>2023-05-28T09:04:32Z</time>
      </trkpt>
      <trkpt lat="43.5349" lon="5.57312">
        <ele>730.5</ele>
        <time>2023-05-28T09:04:33Z</time>
      </trkpt>
      <trkpt lat="43.53489" lon="5.57312">
        <ele>730.6</ele>
        <time>2023-05-28T09:04:34Z</time>
      </trkpt>
      <trkpt lat="43.53488" lon="5.57313">
        <ele>730.7</ele>
        <time>2023-05-28T09:04:35Z</time>
      </trkpt>
      <trkpt lat="43.53487" lon="5.57313">
        <ele>730.9</ele>
        <time>2023-05-28T09:04:36Z</time>
      </trkpt>
      <trkpt lat="43.53487" lon="5.57314">
        <ele>731.2</ele>
        <time>2023-05-28T09:04:37Z</time>
      </trkpt>
      <trkpt lat="43.53486" lon="5.57314">
        <ele>731.5</ele>
        <time>2023-05-28T09:04:38Z</time>
      </trkpt>
      <trkpt lat="43.53486" lon="5.57314">
        <ele>731.7</ele>
        <time>2023-05-28T09:04:39Z</time>
      </trkpt>
      <trkpt lat="43.53485" lon="5.57314">
        <ele>731.8</ele>
        <time>2023-05-28T09:04:40Z</time>
      </trkpt>
      <trkpt lat="43.53485" lon="5.57315">
        <ele>732</ele>
        <time>2023-05-28T09:04:41Z</time>
      </trkpt>
      <trkpt lat="43.53484" lon="5.57315">
        <ele>732.3</ele>
        <time>2023-05-28T09:04:42Z</time>
      </trkpt>
      <trkpt lat="43.53483" lon="5.57315">
        <ele>732.5</ele>
        <time>2023-05-28T09:04:43Z</time>
      </trkpt>
      <trkpt lat="43.53482" lon="5.57315">
        <ele>732.7</ele>
        <time>2023-05-28T09:04:44Z</time>
      </trkpt>
      <trkpt lat="43.53482" lon="5.57315">
        <ele>732.8</ele>
        <time>2023-05-28T09:04:45Z</time>
      </trkpt>
      <trkpt lat="43.53481" lon="5.57316">
        <ele>732.9</ele>
        <time>2023-05-28T09:04:46Z</time>
      </trkpt>
      <trkpt lat="43.5348" lon="5.57316">
        <ele>732.9</ele>
        <time>2023-05-28T09:04:47Z</time>
      </trkpt>
      <trkpt lat="43.53479" lon="5.57316">
        <ele>733</ele>
        <time>2023-05-28T09:04:48Z</time>
      </trkpt>
      <trkpt lat="43.53478" lon="5.57316">
        <ele>733</ele>
        <time>2023-05-28T09:04:49Z</time>
      </trkpt>
      <trkpt lat="43.53478" lon="5.57317">
        <ele>733.1</ele>
        <time>2023-05-28T09:04:50Z</time>
      </trkpt>
      <trkpt lat="43.53477" lon="5.57318">
        <ele>733.2</ele>
        <time>2023-05-28T09:04:51Z</time>
      </trkpt>
      <trkpt lat="43.53477" lon="5.57319">
        <ele>733.3</ele>
        <time>2023-05-28T09:04:52Z</time>
      </trkpt>
      <trkpt lat="43.53477" lon="5.5732">
        <ele>733.4</ele>
        <time>2023-05-28T09:04:53Z</time>
      </trkpt>
      <trkpt lat="43.53477" lon="5.5732">
        <ele>733.5</ele>
        <time>2023-05-28T09:04:54Z</time>
      </trkpt>
      <trkpt lat="43.53476" lon="5.57321">
        <ele>733.7</ele>
        <time>2023-05-28T09:04:55Z</time>
      </trkpt>
      <trkpt lat="43.53476" lon="5.57321">
        <ele>733.8</ele>
        <time>2023-05-28T09:04:56Z</time>
      </trkpt>
      <trkpt lat="43.53476" lon="5.57322">
        <ele>733.9</ele>
        <time>2023-05-28T09:04:57Z</time>
      </trkpt>
      <trkpt lat="43.53475" lon="5.57323">
        <ele>734</ele>
        <time>2023-05-28T09:04:58Z</time>
      </trkpt>
      <trkpt lat="43.53475" lon="5.57323">
        <ele>734.2</ele>
        <time>2023-05-28T09:04:59Z</time>
      </trkpt>
      <trkpt lat="43.53474" lon="5.57324">
        <ele>734.3</ele>
        <time>2023-05-28T09:05:00Z</time>
      </trkpt>
      <trkpt lat="43.53473" lon="5.57325">
        <ele>734.5</ele>
        <time>2023-05-28T09:05:01Z</time>
      </trkpt>
      <trkpt lat="43.53473" lon="5.57325">
        <ele>734.7</ele>
        <time>2023-05-28T09:05:02Z</time>
      </trkpt>
      <trkpt lat="43.53472" lon="5.57326">
        <ele>734.8</ele>
        <time>2023-05-28T09:05:03Z</time>
      </trkpt>
      <trkpt lat="43.53472" lon="5.57327">
        <ele>735</ele>
        <time>2023-05-28T09:05:04Z</time>
      </trkpt>
      <trkpt lat="43.53471" lon="5.57327">
        <ele>735.1</ele>
        <time>2023-05-28T09:05:05Z</time>
      </trkpt>
      <trkpt lat="43.53471" lon="5.57328">
        <ele>735.2</ele>
        <time>2023-05-28T09:05:06Z</time>
      </trkpt>
      <trkpt lat="43.5347" lon="5.57328">
        <ele>735.4</ele>
        <time>2023-05-28T09:05:07Z</time>
      </trkpt>
      <trkpt lat="43.53469" lon="5.57329">
        <ele>735.6</ele>
        <time>2023-05-28T09:05:08Z</time>
      </trkpt>
      <trkpt lat="43.53468" lon="5.57329">
        <ele>735.7</ele>
        <time>2023-05-28T09:05:09Z</time>
      </trkpt>
      <trkpt lat="43.53468" lon="5.5733">
        <ele>735.8</ele>
        <time>2023-05-28T09:05:10Z</time>
      </trkpt>
      <trkpt lat="43.53467" lon="5.5733">
        <ele>735.9</ele>
        <time>2023-05-28T09:05:11Z</time>
      </trkpt>
      <trkpt lat="43.53467" lon="5.57331">
        <ele>736.1</ele>
        <time>2023-05-28T09:05:12Z</time>
      </trkpt>
      <trkpt lat="43.53466" lon="5.57331">
        <ele>736.2</ele>
        <time>2023-05-28T09:05:13Z</time>
      </trkpt>
      <trkpt lat="43.53466" lon="5.57332">
        <ele>736.3</ele>
        <time>2023-05-28T09:05:14Z</time>
      </trkpt>
      <trkpt lat="43.53466" lon="5.57333">
        <ele>736.5</ele>
        <time>2023-05-28T09:05:15Z</time>
      </trkpt>
      <trkpt lat="43.53466" lon="5.57334">
        <ele>736.7</ele>
        <time>2023-05-28T09:05:16Z</time>
      </trkpt>
      <trkpt lat="43.53466" lon="5.57335">
        <ele>736.8</ele>
        <time>2023-05-28T09:05:17Z</time>
      </trkpt>
      <trkpt lat="43.53465" lon="5.57335">
        <ele>737</ele>
        <time>2023-05-28T09:05:18Z</time>
      </trkpt>
      <trkpt lat="43.53465" lon="5.57336">
        <ele>737.2</ele>
        <time>2023-05-28T09:05:19Z</time>
      </trkpt>
      <trkpt lat="43.53464" lon="5.57336">
        <ele>737.5</ele>
        <time>2023-05-28T09:05:20Z</time>
      </trkpt>
      <trkpt lat="43.53464" lon="5.57336">
        <ele>737.6</ele>
        <time>2023-05-28T09:05:21Z</time>
      </trkpt>
      <trkpt lat="43.53463" lon="5.57336">
        <ele>737.7</ele>
        <time>2023-05-28T09:05:22Z</time>
      </trkpt>
      <trkpt lat="43.53462" lon="5.57336">
        <ele>737.8</ele>
        <time>2023-05-28T09:05:23Z</time>
      </trkpt>
      <trkpt lat="43.53462" lon="5.57337">
        <ele>738.1</ele>
        <time>2023-05-28T09:05:24Z</time>
      </trkpt>
      <trkpt lat="43.53461" lon="5.57337">
        <ele>738.3</ele>
        <time>2023-05-28T09:05:25Z</time>
      </trkpt>
      <trkpt lat="43.53461" lon="5.57337">
        <ele>738.4</ele>
        <time>2023-05-28T09:05:26Z</time>
      </trkpt>
      <trkpt lat="43.5346" lon="5.57338">
        <ele>738.5</ele>
        <time>2023-05-28T09:05:27Z</time>
      </trkpt>
      <trkpt lat="43.5346" lon="5.57338">
        <ele>738.7</ele>
        <time>2023-05-28T09:05:28Z</time>
      </trkpt>
      <trkpt lat="43.5346" lon="5.57339">
        <ele>738.8</ele>
        <time>2023-05-28T09:05:29Z</time>
      </trkpt>
      <trkpt lat="43.53459" lon="5.57339">
        <ele>738.9</ele>
        <time>2023-05-28T09:05:30Z</time>
      </trkpt>
      <trkpt lat="43.53459" lon="5.5734">
        <ele>739</ele>
        <time>2023-05-28T09:05:31Z</time>
      </trkpt>
      <trkpt lat="43.53458" lon="5.5734">
        <ele>739.2</ele>
        <time>2023-05-28T09:05:32Z</time>
      </trkpt>
      <trkpt lat="43.53458" lon="5.57341">
        <ele>739.4</ele>
        <time>2023-05-28T09:05:33Z</time>
      </trkpt>
      <trkpt lat="43.53458" lon="5.57341">
        <ele>739.6</ele>
        <time>2023-05-28T09:05:34Z</time>
      </trkpt>
      <trkpt lat="43.53457" lon="5.57342">
        <ele>739.7</ele>
        <time>2023-05-28T09:05:35Z</time>
      </trkpt>
      <trkpt lat="43.53457" lon="5.57342">
        <ele>739.9</ele>
        <time>2023-05-28T09:05:36Z</time>
      </trkpt>
      <trkpt lat="43.53457" lon="5.57343">
        <ele>740</ele>
        <time>2023-05-28T09:05:37Z</time>
      </trkpt>
      <trkpt lat="43.53457" lon="5.57344">
        <ele>740</ele>
        <time>2023-05-28T09:05:38Z</time>
      </trkpt>
      <trkpt lat="43.53457" lon="5.57345">
        <ele>740.2</ele>
        <time>2023-05-28T09:05:39Z</time>
      </trkpt>
      <trkpt lat="43.53456" lon="5.57346">
        <ele>740.3</ele>
        <time>2023-05-28T09:05:40Z</time>
      </trkpt>
      <trkpt lat="43.53456" lon="5.57347">
        <ele>740.4</ele>
        <time>2023-05-28T09:05:41Z</time>
      </trkpt>
      <trkpt lat="43.53456" lon="5.57348">
        <ele>740.5</ele>
        <time>2023-05-28T09:05:42Z</time>
      </trkpt>
      <trkpt lat="43.53455" lon="5.57348">
        <ele>740.6</ele>
        <time>2023-05-28T09:05:43Z</time>
      </trkpt>
      <trkpt lat="43.53455" lon="5.57349">
        <ele>740.7</ele>
        <time>2023-05-28T09:05:44Z</time>
      </trkpt>
      <trkpt lat="43.53454" lon="5.57349">
        <ele>740.9</ele>
        <time>2023-05-28T09:05:45Z</time>
      </trkpt>
      <trkpt lat="43.53454" lon="5.57348">
        <ele>741.1</ele>
        <time>2023-05-28T09:05:46Z</time>
      </trkpt>
      <trkpt lat="43.53453" lon="5.57349">
        <ele>741.2</ele>
        <time>2023-05-28T09:05:47Z</time>
      </trkpt>
      <trkpt lat="43.53452" lon="5.57349">
        <ele>741.4</ele>
        <time>2023-05-28T09:05:48Z</time>
      </trkpt>
      <trkpt lat="43.53452" lon="5.57349">
        <ele>741.5</ele>
        <time>2023-05-28T09:05:49Z</time>
      </trkpt>
      <trkpt lat="43.53451" lon="5.57349">
        <ele>741.6</ele>
        <time>2023-05-28T09:05:50Z</time>
      </trkpt>
      <trkpt lat="43.5345" lon="5.57349">
        <ele>741.7</ele>
        <time>2023-05-28T09:05:51Z</time>
      </trkpt>
      <trkpt lat="43.5345" lon="5.57349">
        <ele>741.7</ele>
        <time>2023-05-28T09:05:52Z</time>
      </trkpt>
      <trkpt lat="43.53449" lon="5.5735">
        <ele>741.8</ele>
        <time>2023-05-28T09:05:53Z</time>
      </trkpt>
      <trkpt lat="43.53449" lon="5.5735">
        <ele>741.9</ele>
        <time>2023-05-28T09:05:54Z</time>
      </trkpt>
      <trkpt lat="43.53448" lon="5.57351">
        <ele>742</ele>
        <time>2023-05-28T09:05:55Z</time>
      </trkpt>
      <trkpt lat="43.53447" lon="5.57351">
        <ele>742.2</ele>
        <time>2023-05-28T09:05:56Z</time>
      </trkpt>
      <trkpt lat="43.53447" lon="5.57351">
        <ele>742.3</ele>
        <time>2023-05-28T09:05:57Z</time>
      </trkpt>
      <trkpt lat="43.53446" lon="5.57352">
        <ele>742.4</ele>
        <time>2023-05-28T09:05:58Z</time>
      </trkpt>
      <trkpt lat="43.53445" lon="5.57352">
        <ele>742.5</ele>
        <time>2023-05-28T09:05:59Z</time>
      </trkpt>
      <trkpt lat="43.53445" lon="5.57353">
        <ele>742.7</ele>
        <time>2023-05-28T09:06:00Z</time>
      </trkpt>
      <trkpt lat="43.53445" lon="5.57354">
        <ele>742.9</ele>
        <time>2023-05-28T09:06:01Z</time>
      </trkpt>
      <trkpt lat="43.53444" lon="5.57354">
        <ele>743</ele>
        <time>2023-05-28T09:06:02Z</time>
      </trkpt>
      <trkpt lat="43.53444" lon="5.57354">
        <ele>743.2</ele>
        <time>2023-05-28T09:06:03Z</time>
      </trkpt>
      <trkpt lat="43.53443" lon="5.57355">
        <ele>743.3</ele>
        <time>2023-05-28T09:06:04Z</time>
      </trkpt>
      <trkpt lat="43.53443" lon="5.57354">
        <ele>743.5</ele>
        <time>2023-05-28T09:06:05Z</time>
      </trkpt>
      <trkpt lat="43.53442" lon="5.57355">
        <ele>743.7</ele>
        <time>2023-05-28T09:06:06Z</time>
      </trkpt>
      <trkpt lat="43.53441" lon="5.57355">
        <ele>743.9</ele>
        <time>2023-05-28T09:06:07Z</time>
      </trkpt>
      <trkpt lat="43.53441" lon="5.57356">
        <ele>744</ele>
        <time>2023-05-28T09:06:08Z</time>
      </trkpt>
      <trkpt lat="43.5344" lon="5.57356">
        <ele>744.1</ele>
        <time>2023-05-28T09:06:09Z</time>
      </trkpt>
      <trkpt lat="43.5344" lon="5.57357">
        <ele>744.3</ele>
        <time>2023-05-28T09:06:10Z</time>
      </trkpt>
      <trkpt lat="43.53439" lon="5.57358">
        <ele>744.4</ele>
        <time>2023-05-28T09:06:11Z</time>
      </trkpt>
      <trkpt lat="43.53439" lon="5.57358">
        <ele>744.6</ele>
        <time>2023-05-28T09:06:12Z</time>
      </trkpt>
      <trkpt lat="43.53438" lon="5.57359">
        <ele>744.7</ele>
        <time>2023-05-28T09:06:13Z</time>
      </trkpt>
      <trkpt lat="43.53437" lon="5.57359">
        <ele>744.8</ele>
        <time>2023-05-28T09:06:14Z</time>
      </trkpt>
      <trkpt lat="43.53436" lon="5.5736">
        <ele>744.9</ele>
        <time>2023-05-28T09:06:15Z</time>
      </trkpt>
      <trkpt lat="43.53436" lon="5.5736">
        <ele>745</ele>
        <time>2023-05-28T09:06:16Z</time>
      </trkpt>
      <trkpt lat="43.53435" lon="5.57361">
        <ele>745.1</ele>
        <time>2023-05-28T09:06:17Z</time>
      </trkpt>
      <trkpt lat="43.53434" lon="5.57361">
        <ele>745.3</ele>
        <time>2023-05-28T09:06:18Z</time>
      </trkpt>
      <trkpt lat="43.53434" lon="5.57362">
        <ele>745.4</ele>
        <time>2023-05-28T09:06:19Z</time>
      </trkpt>
      <trkpt lat="43.53433" lon="5.57362">
        <ele>745.6</ele>
        <time>2023-05-28T09:06:20Z</time>
      </trkpt>
      <trkpt lat="43.53433" lon="5.57362">
        <ele>745.7</ele>
        <time>2023-05-28T09:06:21Z</time>
      </trkpt>
      <trkpt lat="43.53432" lon="5.57362">
        <ele>745.9</ele>
        <time>2023-05-28T09:06:22Z</time>
      </trkpt>
      <trkpt lat="43.53432" lon="5.57362">
        <ele>746.1</ele>
        <time>2023-05-28T09:06:23Z</time>
      </trkpt>
      <trkpt lat="43.53431" lon="5.57361">
        <ele>746.2</ele>
        <time>2023-05-28T09:06:24Z</time>
      </trkpt>
      <trkpt lat="43.53431" lon="5.57361">
        <ele>746.3</ele>
        <time>2023-05-28T09:06:25Z</time>
      </trkpt>
      <trkpt lat="43.5343" lon="5.57361">
        <ele>746.4</ele>
        <time>2023-05-28T09:06:26Z</time>
      </trkpt>
      <trkpt lat="43.53429" lon="5.57362">
        <ele>746.5</ele>
        <time>2023-05-28T09:06:27Z</time>
      </trkpt>
      <trkpt lat="43.53428" lon="5.57362">
        <ele>746.7</ele>
        <time>2023-05-28T09:06:28Z</time>
      </trkpt>
      <trkpt lat="43.53428" lon="5.57363">
        <ele>746.9</ele>
        <time>2023-05-28T09:06:29Z</time>
      </trkpt>
      <trkpt lat="43.53427" lon="5.57363">
        <ele>746.9</ele>
        <time>2023-05-28T09:06:30Z</time>
      </trkpt>
      <trkpt lat="43.53426" lon="5.57364">
        <ele>746.9</ele>
        <time>2023-05-28T09:06:31Z</time>
      </trkpt>
      <trkpt lat="43.53426" lon="5.57364">
        <ele>747</ele>
        <time>2023-05-28T09:06:32Z</time>
      </trkpt>
      <trkpt lat="43.53425" lon="5.57365">
        <ele>747.1</ele>
        <time>2023-05-28T09:06:33Z</time>
      </trkpt>
      <trkpt lat="43.53424" lon="5.57365">
        <ele>747.3</ele>
        <time>2023-05-28T09:06:34Z</time>
      </trkpt>
      <trkpt lat="43.53424" lon="5.57365">
        <ele>747.4</ele>
        <time>2023-05-28T09:06:35Z</time>
      </trkpt>
      <trkpt lat="43.53423" lon="5.57366">
        <ele>747.6</ele>
        <time>2023-05-28T09:06:36Z</time>
      </trkpt>
      <trkpt lat="43.53423" lon="5.57366">
        <ele>747.8</ele>
        <time>2023-05-28T09:06:37Z</time>
      </trkpt>
      <trkpt lat="43.53422" lon="5.57367">
        <ele>748.1</ele>
        <time>2023-05-28T09:06:38Z</time>
      </trkpt>
      <trkpt lat="43.53422" lon="5.57367">
        <ele>748.3</ele>
        <time>2023-05-28T09:06:39Z</time>
      </trkpt>
      <trkpt lat="43.53422" lon="5.57368">
        <ele>748.4</ele>
        <time>2023-05-28T09:06:40Z</time>
      </trkpt>
      <trkpt lat="43.53422" lon="5.57368">
        <ele>748.6</ele>
        <time>2023-05-28T09:06:41Z</time>
      </trkpt>
      <trkpt lat="43.53422" lon="5.57368">
        <ele>748.7</ele>
        <time>2023-05-28T09:06:42Z</time>
      </trkpt>
      <trkpt lat="43.53422" lon="5.57368">
        <ele>748.9</ele>
        <time>2023-05-28T09:06:43Z</time>
      </trkpt>
      <trkpt lat="43.53421" lon="5.57368">
        <ele>749</ele>
        <time>2023-05-28T09:06:44Z</time>
      </trkpt>
      <trkpt lat="43.53421" lon="5.57368">
        <ele>749.1</ele>
        <time>2023-05-28T09:06:45Z</time>
      </trkpt>
      <trkpt lat="43.5342" lon="5.57369">
        <ele>749.2</ele>
        <time>2023-05-28T09:06:46Z</time>
      </trkpt>
      <trkpt lat="43.5342" lon="5.57369">
        <ele>749.3</ele>
        <time>2023-05-28T09:06:47Z</time>
      </trkpt>
      <trkpt lat="43.53419" lon="5.57369">
        <ele>749.5</ele>
        <time>2023-05-28T09:06:48Z</time>
      </trkpt>
      <trkpt lat="43.53419" lon="5.57369">
        <ele>749.5</ele>
        <time>2023-05-28T09:06:49Z</time>
      </trkpt>
      <trkpt lat="43.53418" lon="5.57369">
        <ele>749.6</ele>
        <time>2023-05-28T09:06:50Z</time>
      </trkpt>
      <trkpt lat="43.53418" lon="5.5737">
        <ele>749.7</ele>
        <time>2023-05-28T09:06:51Z</time>
      </trkpt>
      <trkpt lat="43.53418" lon="5.5737">
        <ele>750</ele>
        <time>2023-05-28T09:06:52Z</time>
      </trkpt>
      <trkpt lat="43.53417" lon="5.5737">
        <ele>750.2</ele>
        <time>2023-05-28T09:06:53Z</time>
      </trkpt>
      <trkpt lat="43.53417" lon="5.5737">
        <ele>750.5</ele>
        <time>2023-05-28T09:06:54Z</time>
      </trkpt>
      <trkpt lat="43.53416" lon="5.5737">
        <ele>750.8</ele>
        <time>2023-05-28T09:06:55Z</time>
      </trkpt>
      <trkpt lat="43.53416" lon="5.57371">
        <ele>751</ele>
        <time>2023-05-28T09:06:56Z</time>
      </trkpt>
      <trkpt lat="43.53415" lon="5.57372">
        <ele>751.1</ele>
        <time>2023-05-28T09:06:57Z</time>
      </trkpt>
      <trkpt lat="43.53415" lon="5.57372">
        <ele>751.3</ele>
        <time>2023-05-28T09:06:58Z</time>
      </trkpt>
      <trkpt lat="43.53414" lon="5.57373">
        <ele>751.5</ele>
        <time>2023-05-28T09:06:59Z</time>
      </trkpt>
      <trkpt lat="43.53414" lon="5.57373">
        <ele>751.6</ele>
        <time>2023-05-28T09:07:00Z</time>
      </trkpt>
      <trkpt lat="43.53414" lon="5.57374">
        <ele>751.7</ele>
        <time>2023-05-28T09:07:01Z</time>
      </trkpt>
      <trkpt lat="43.53413" lon="5.57374">
        <ele>751.9</ele>
        <time>2023-05-28T09:07:02Z</time>
      </trkpt>
      <trkpt lat="43.53413" lon="5.57374">
        <ele>752.1</ele>
        <time>2023-05-28T09:07:03Z</time>
      </trkpt>
      <trkpt lat="43.53412" lon="5.57375">
        <ele>752.3</ele>
        <time>2023-05-28T09:07:04Z</time>
      </trkpt>
      <trkpt lat="43.53412" lon="5.57375">
        <ele>752.4</ele>
        <time>2023-05-28T09:07:05Z</time>
      </trkpt>
      <trkpt lat="43.53412" lon="5.57376">
        <ele>752.5</ele>
        <time>2023-05-28T09:07:06Z</time>
      </trkpt>
      <trkpt lat="43.53411" lon="5.57377">
        <ele>752.6</ele>
        <time>2023-05-28T09:07:07Z</time>
      </trkpt>
      <trkpt lat="43.5341" lon="5.57377">
        <ele>752.7</ele>
        <time>2023-05-28T09:07:08Z</time>
      </trkpt>
      <trkpt lat="43.5341" lon="5.57378">
        <ele>752.8</ele>
        <time>2023-05-28T09:07:09Z</time>
      </trkpt>
      <trkpt lat="43.53409" lon="5.57378">
        <ele>753</ele>
        <time>2023-05-28T09:07:10Z</time>
      </trkpt>
      <trkpt lat="43.53409" lon="5.57378">
        <ele>753.3</ele>
        <time>2023-05-28T09:07:11Z</time>
      </trkpt>
      <trkpt lat="43.53408" lon="5.57379">
        <ele>753.4</ele>
        <time>2023-05-28T09:07:12Z</time>
      </trkpt>
      <trkpt lat="43.53408" lon="5.57379">
        <ele>753.6</ele>
        <time>2023-05-28T09:07:13Z</time>
      </trkpt>
      <trkpt lat="43.53408" lon="5.5738">
        <ele>753.7</ele>
        <time>2023-05-28T09:07:14Z</time>
      </trkpt>
      <trkpt lat="43.53407" lon="5.5738">
        <ele>753.8</ele>
        <time>2023-05-28T09:07:15Z</time>
      </trkpt>
      <trkpt lat="43.53407" lon="5.57381">
        <ele>753.9</ele>
        <time>2023-05-28T09:07:16Z</time>
      </trkpt>
      <trkpt lat="43.53406" lon="5.57381">
        <ele>754.1</ele>
        <time>2023-05-28T09:07:17Z</time>
      </trkpt>
      <trkpt lat="43.53406" lon="5.57382">
        <ele>754.3</ele>
        <time>2023-05-28T09:07:18Z</time>
      </trkpt>
      <trkpt lat="43.53405" lon="5.57382">
        <ele>754.5</ele>
        <time>2023-05-28T09:07:19Z</time>
      </trkpt>
      <trkpt lat="43.53405" lon="5.57382">
        <ele>754.6</ele>
        <time>2023-05-28T09:07:20Z</time>
      </trkpt>
      <trkpt lat="43.53405" lon="5.57382">
        <ele>754.8</ele>
        <time>2023-05-28T09:07:21Z</time>
      </trkpt>
      <trkpt lat="43.53404" lon="5.57383">
        <ele>754.9</ele>
        <time>2023-05-28T09:07:22Z</time>
      </trkpt>
      <trkpt lat="43.53404" lon="5.57383">
        <ele>755</ele>
        <time>2023-05-28T09:07:23Z</time>
      </trkpt>
      <trkpt lat="43.53404" lon="5.57383">
        <ele>755.3</ele>
        <time>2023-05-28T09:07:24Z</time>
      </trkpt>
      <trkpt lat="43.53403" lon="5.57384">
        <ele>755.5</ele>
        <time>2023-05-28T09:07:25Z</time>
      </trkpt>
      <trkpt lat="43.53403" lon="5.57384">
        <ele>755.7</ele>
        <time>2023-05-28T09:07:26Z</time>
      </trkpt>
      <trkpt lat="43.53403" lon="5.57385">
        <ele>755.8</ele>
        <time>2023-05-28T09:07:27Z</time>
      </trkpt>
      <trkpt lat="43.53402" lon="5.57385">
        <ele>756</ele>
        <time>2023-05-28T09:07:28Z</time>
      </trkpt>
      <trkpt lat="43.53402" lon="5.57385">
        <ele>756.3</ele>
        <time>2023-05-28T09:07:29Z</time>
      </trkpt>
      <trkpt lat="43.53401" lon="5.57385">
        <ele>756.4</ele>
        <time>2023-05-28T09:07:30Z</time>
      </trkpt>
      <trkpt lat="43.53401" lon="5.57386">
        <ele>756.6</ele>
        <time>2023-05-28T09:07:31Z</time>
      </trkpt>
      <trkpt lat="43.534" lon="5.57386">
        <ele>756.8</ele>
        <time>2023-05-28T09:07:32Z</time>
      </trkpt>
      <trkpt lat="43.534" lon="5.57386">
        <ele>757</ele>
        <time>2023-05-28T09:07:33Z</time>
      </trkpt>
      <trkpt lat="43.534" lon="5.57387">
        <ele>757.2</ele>
        <time>2023-05-28T09:07:34Z</time>
      </trkpt>
      <trkpt lat="43.53399" lon="5.57387">
        <ele>757.5</ele>
        <time>2023-05-28T09:07:35Z</time>
      </trkpt>
      <trkpt lat="43.53399" lon="5.57387">
        <ele>757.6</ele>
        <time>2023-05-28T09:07:36Z</time>
      </trkpt>
      <trkpt lat="43.53398" lon="5.57388">
        <ele>757.9</ele>
        <time>2023-05-28T09:07:37Z</time>
      </trkpt>
      <trkpt lat="43.53398" lon="5.57388">
        <ele>758.1</ele>
        <time>2023-05-28T09:07:38Z</time>
      </trkpt>
      <trkpt lat="43.53397" lon="5.57388">
        <ele>758.3</ele>
        <time>2023-05-28T09:07:39Z</time>
      </trkpt>
      <trkpt lat="43.53397" lon="5.57388">
        <ele>758.5</ele>
        <time>2023-05-28T09:07:40Z</time>
      </trkpt>
      <trkpt lat="43.53396" lon="5.57389">
        <ele>758.6</ele>
        <time>2023-05-28T09:07:41Z</time>
      </trkpt>
      <trkpt lat="43.53395" lon="5.57389">
        <ele>758.7</ele>
        <time>2023-05-28T09:07:42Z</time>
      </trkpt>
      <trkpt lat="43.53395" lon="5.57389">
        <ele>758.9</ele>
        <time>2023-05-28T09:07:43Z</time>
      </trkpt>
      <trkpt lat="43.53394" lon="5.57389">
        <ele>759.1</ele>
        <time>2023-05-28T09:07:44Z</time>
      </trkpt>
      <trkpt lat="43.53394" lon="5.5739">
        <ele>759.3</ele>
        <time>2023-05-28T09:07:45Z</time>
      </trkpt>
      <trkpt lat="43.53393" lon="5.5739">
        <ele>759.4</ele>
        <time>2023-05-28T09:07:46Z</time>
      </trkpt>
      <trkpt lat="43.53393" lon="5.57391">
        <ele>759.6</ele>
        <time>2023-05-28T09:07:47Z</time>
      </trkpt>
      <trkpt lat="43.53393" lon="5.57391">
        <ele>759.7</ele>
        <time>2023-05-28T09:07:48Z</time>
      </trkpt>
      <trkpt lat="43.53392" lon="5.57391">
        <ele>759.9</ele>
        <time>2023-05-28T09:07:49Z</time>
      </trkpt>
      <trkpt lat="43.53392" lon="5.57391">
        <ele>760</ele>
        <time>2023-05-28T09:07:50Z</time>
      </trkpt>
      <trkpt lat="43.53391" lon="5.57391">
        <ele>760.2</ele>
        <time>2023-05-28T09:07:51Z</time>
      </trkpt>
      <trkpt lat="43.53391" lon="5.57391">
        <ele>760.4</ele>
        <time>2023-05-28T09:07:52Z</time>
      </trkpt>
      <trkpt lat="43.5339" lon="5.57391">
        <ele>760.7</ele>
        <time>2023-05-28T09:07:53Z</time>
      </trkpt>
      <trkpt lat="43.5339" lon="5.57392">
        <ele>760.9</ele>
        <time>2023-05-28T09:07:54Z</time>
      </trkpt>
      <trkpt lat="43.53389" lon="5.57392">
        <ele>761</ele>
        <time>2023-05-28T09:07:55Z</time>
      </trkpt>
      <trkpt lat="43.53388" lon="5.57393">
        <ele>761.2</ele>
        <time>2023-05-28T09:07:56Z</time>
      </trkpt>
      <trkpt lat="43.53388" lon="5.57393">
        <ele>761.3</ele>
        <time>2023-05-28T09:07:57Z</time>
      </trkpt>
      <trkpt lat="43.53388" lon="5.57393">
        <ele>761.5</ele>
        <time>2023-05-28T09:07:58Z</time>
      </trkpt>
      <trkpt lat="43.53387" lon="5.57394">
        <ele>761.7</ele>
        <time>2023-05-28T09:07:59Z</time>
      </trkpt>
      <trkpt lat="43.53387" lon="5.57394">
        <ele>761.9</ele>
        <time>2023-05-28T09:08:00Z</time>
      </trkpt>
      <trkpt lat="43.53386" lon="5.57394">
        <ele>761.9</ele>
        <time>2023-05-28T09:08:01Z</time>
      </trkpt>
      <trkpt lat="43.53385" lon="5.57394">
        <ele>762.1</ele>
        <time>2023-05-28T09:08:02Z</time>
      </trkpt>
      <trkpt lat="43.53385" lon="5.57394">
        <ele>762.2</ele>
        <time>2023-05-28T09:08:03Z</time>
      </trkpt>
      <trkpt lat="43.53385" lon="5.57394">
        <ele>762.3</ele>
        <time>2023-05-28T09:08:04Z</time>
      </trkpt>
      <trkpt lat="43.53385" lon="5.57395">
        <ele>762.4</ele>
        <time>2023-05-28T09:08:05Z</time>
      </trkpt>
      <trkpt lat="43.53385" lon="5.57394">
        <ele>762.5</ele>
        <time>2023-05-28T09:08:06Z</time>
      </trkpt>
      <trkpt lat="43.53385" lon="5.57395">
        <ele>762.6</ele>
        <time>2023-05-28T09:08:07Z</time>
      </trkpt>
      <trkpt lat="43.53385" lon="5.57395">
        <ele>762.6</ele>
        <time>2023-05-28T09:08:08Z</time>
      </trkpt>
      <trkpt lat="43.53384" lon="5.57396">
        <ele>762.7</ele>
        <time>2023-05-28T09:08:09Z</time>
      </trkpt>
      <trkpt lat="43.53384" lon="5.57396">
        <ele>762.8</ele>
        <time>2023-05-28T09:08:10Z</time>
      </trkpt>
      <trkpt lat="43.53384" lon="5.57397">
        <ele>762.9</ele>
        <time>2023-05-28T09:08:11Z</time>
      </trkpt>
      <trkpt lat="43.53383" lon="5.57397">
        <ele>763</ele>
        <time>2023-05-28T09:08:12Z</time>
      </trkpt>
      <trkpt lat="43.53383" lon="5.57398">
        <ele>763</ele>
        <time>2023-05-28T09:08:13Z</time>
      </trkpt>
      <trkpt lat="43.53383" lon="5.57398">
        <ele>763.1</ele>
        <time>2023-05-28T09:08:14Z</time>
      </trkpt>
      <trkpt lat="43.53382" lon="5.57399">
        <ele>763.2</ele>
        <time>2023-05-28T09:08:15Z</time>
      </trkpt>
      <trkpt lat="43.53382" lon="5.57399">
        <ele>763.4</ele>
        <time>2023-05-28T09:08:16Z</time>
      </trkpt>
      <trkpt lat="43.53382" lon="5.574">
        <ele>763.5</ele>
        <time>2023-05-28T09:08:17Z</time>
      </trkpt>
      <trkpt lat="43.53381" lon="5.574">
        <ele>763.5</ele>
        <time>2023-05-28T09:08:18Z</time>
      </trkpt>
      <trkpt lat="43.53381" lon="5.57401">
        <ele>763.6</ele>
        <time>2023-05-28T09:08:19Z</time>
      </trkpt>
      <trkpt lat="43.53381" lon="5.57401">
        <ele>763.7</ele>
        <time>2023-05-28T09:08:20Z</time>
      </trkpt>
      <trkpt lat="43.53381" lon="5.57401">
        <ele>763.9</ele>
        <time>2023-05-28T09:08:21Z</time>
      </trkpt>
      <trkpt lat="43.53381" lon="5.57402">
        <ele>764</ele>
        <time>2023-05-28T09:08:22Z</time>
      </trkpt>
      <trkpt lat="43.53381" lon="5.57402">
        <ele>764.1</ele>
        <time>2023-05-28T09:08:23Z</time>
      </trkpt>
      <trkpt lat="43.53381" lon="5.57402">
        <ele>764.1</ele>
        <time>2023-05-28T09:08:24Z</time>
      </trkpt>
      <trkpt lat="43.53381" lon="5.57402">
        <ele>764.2</ele>
        <time>2023-05-28T09:08:25Z</time>
      </trkpt>
      <trkpt lat="43.53381" lon="5.57402">
        <ele>764.3</ele>
        <time>2023-05-28T09:08:26Z</time>
      </trkpt>
      <trkpt lat="43.53381" lon="5.57402">
        <ele>764.4</ele>
        <time>2023-05-28T09:08:27Z</time>
      </trkpt>
      <trkpt lat="43.53381" lon="5.57402">
        <ele>764.5</ele>
        <time>2023-05-28T09:08:28Z</time>
      </trkpt>
      <trkpt lat="43.53381" lon="5.57402">
        <ele>764.5</ele>
        <time>2023-05-28T09:08:29Z</time>
      </trkpt>
      <trkpt lat="43.53381" lon="5.57402">
        <ele>764.5</ele>
        <time>2023-05-28T09:08:30Z</time>
      </trkpt>
      <trkpt lat="43.53381" lon="5.57402">
        <ele>764.5</ele>
        <time>2023-05-28T09:08:31Z</time>
      </trkpt>
      <trkpt lat="43.53381" lon="5.57402">
        <ele>764.5</ele>
        <time>2023-05-28T09:08:32Z</time>
      </trkpt>
      <trkpt lat="43.53381" lon="5.57402">
        <ele>764.5</ele>
        <time>2023-05-28T09:08:33Z</time>
      </trkpt>
      <trkpt lat="43.53381" lon="5.57402">
        <ele>764.6</ele>
        <time>2023-05-28T09:08:34Z</time>
      </trkpt>
      <trkpt lat="43.53381" lon="5.57402">
        <ele>764.6</ele>
        <time>2023-05-28T09:08:35Z</time>
      </trkpt>
      <trkpt lat="43.53381" lon="5.57402">
        <ele>764.6</ele>
        <time>2023-05-28T09:08:36Z</time>
      </trkpt>
      <trkpt lat="43.5338" lon="5.57402">
        <ele>764.6</ele>
        <time>2023-05-28T09:08:37Z</time>
      </trkpt>
      <trkpt lat="43.5338" lon="5.57402">
        <ele>764.6</ele>
        <time>2023-05-28T09:08:38Z</time>
      </trkpt>
      <trkpt lat="43.53379" lon="5.57402">
        <ele>764.7</ele>
        <time>2023-05-28T09:08:39Z</time>
      </trkpt>
      <trkpt lat="43.53379" lon="5.57402">
        <ele>764.9</ele>
        <time>2023-05-28T09:08:40Z</time>
      </trkpt>
      <trkpt lat="43.53378" lon="5.57402">
        <ele>765</ele>
        <time>2023-05-28T09:08:41Z</time>
      </trkpt>
      <trkpt lat="43.53378" lon="5.57403">
        <ele>765.1</ele>
        <time>2023-05-28T09:08:42Z</time>
      </trkpt>
      <trkpt lat="43.53377" lon="5.57404">
        <ele>765.2</ele>
        <time>2023-05-28T09:08:43Z</time>
      </trkpt>
      <trkpt lat="43.53377" lon="5.57404">
        <ele>765.3</ele>
        <time>2023-05-28T09:08:44Z</time>
      </trkpt>
      <trkpt lat="43.53377" lon="5.57404">
        <ele>765.5</ele>
        <time>2023-05-28T09:08:45Z</time>
      </trkpt>
      <trkpt lat="43.53376" lon="5.57405">
        <ele>765.6</ele>
        <time>2023-05-28T09:08:46Z</time>
      </trkpt>
      <trkpt lat="43.53376" lon="5.57405">
        <ele>765.7</ele>
        <time>2023-05-28T09:08:47Z</time>
      </trkpt>
      <trkpt lat="43.53375" lon="5.57406">
        <ele>765.8</ele>
        <time>2023-05-28T09:08:48Z</time>
      </trkpt>
      <trkpt lat="43.53375" lon="5.57407">
        <ele>766</ele>
        <time>2023-05-28T09:08:49Z</time>
      </trkpt>
      <trkpt lat="43.53375" lon="5.57407">
        <ele>766.1</ele>
        <time>2023-05-28T09:08:50Z</time>
      </trkpt>
      <trkpt lat="43.53375" lon="5.57408">
        <ele>766.3</ele>
        <time>2023-05-28T09:08:51Z</time>
      </trkpt>
      <trkpt lat="43.53374" lon="5.57408">
        <ele>766.4</ele>
        <time>2023-05-28T09:08:52Z</time>
      </trkpt>
      <trkpt lat="43.53374" lon="5.57408">
        <ele>766.5</ele>
        <time>2023-05-28T09:08:53Z</time>
      </trkpt>
      <trkpt lat="43.53373" lon="5.57409">
        <ele>766.6</ele>
        <time>2023-05-28T09:08:54Z</time>
      </trkpt>
      <trkpt lat="43.53373" lon="5.57409">
        <ele>766.8</ele>
        <time>2023-05-28T09:08:55Z</time>
      </trkpt>
      <trkpt lat="43.53372" lon="5.57409">
        <ele>767.1</ele>
        <time>2023-05-28T09:08:56Z</time>
      </trkpt>
      <trkpt lat="43.53372" lon="5.57409">
        <ele>767.2</ele>
        <time>2023-05-28T09:08:57Z</time>
      </trkpt>
      <trkpt lat="43.53371" lon="5.5741">
        <ele>767.3</ele>
        <time>2023-05-28T09:08:58Z</time>
      </trkpt>
      <trkpt lat="43.53371" lon="5.57411">
        <ele>767.5</ele>
        <time>2023-05-28T09:08:59Z</time>
      </trkpt>
      <trkpt lat="43.53371" lon="5.57411">
        <ele>767.6</ele>
        <time>2023-05-28T09:09:00Z</time>
      </trkpt>
      <trkpt lat="43.53371" lon="5.57411">
        <ele>767.8</ele>
        <time>2023-05-28T09:09:01Z</time>
      </trkpt>
      <trkpt lat="43.5337" lon="5.57411">
        <ele>767.8</ele>
        <time>2023-05-28T09:09:02Z</time>
      </trkpt>
      <trkpt lat="43.5337" lon="5.57411">
        <ele>767.8</ele>
        <time>2023-05-28T09:09:03Z</time>
      </trkpt>
      <trkpt lat="43.5337" lon="5.57411">
        <ele>767.9</ele>
        <time>2023-05-28T09:09:04Z</time>
      </trkpt>
      <trkpt lat="43.5337" lon="5.57411">
        <ele>768</ele>
        <time>2023-05-28T09:09:05Z</time>
      </trkpt>
      <trkpt lat="43.53369" lon="5.57412">
        <ele>768.1</ele>
        <time>2023-05-28T09:09:06Z</time>
      </trkpt>
      <trkpt lat="43.53369" lon="5.57412">
        <ele>768.2</ele>
        <time>2023-05-28T09:09:07Z</time>
      </trkpt>
      <trkpt lat="43.53369" lon="5.57413">
        <ele>768.3</ele>
        <time>2023-05-28T09:09:08Z</time>
      </trkpt>
      <trkpt lat="43.53369" lon="5.57414">
        <ele>768.4</ele>
        <time>2023-05-28T09:09:09Z</time>
      </trkpt>
      <trkpt lat="43.53368" lon="5.57415">
        <ele>768.6</ele>
        <time>2023-05-28T09:09:10Z</time>
      </trkpt>
      <trkpt lat="43.53368" lon="5.57416">
        <ele>768.7</ele>
        <time>2023-05-28T09:09:11Z</time>
      </trkpt>
      <trkpt lat="43.53368" lon="5.57417">
        <ele>768.8</ele>
        <time>2023-05-28T09:09:12Z</time>
      </trkpt>
      <trkpt lat="43.53368" lon="5.57418">
        <ele>768.9</ele>
        <time>2023-05-28T09:09:13Z</time>
      </trkpt>
      <trkpt lat="43.53368" lon="5.5742">
        <ele>769</ele>
        <time>2023-05-28T09:09:14Z</time>
      </trkpt>
      <trkpt lat="43.53368" lon="5.57421">
        <ele>769.3</ele>
        <time>2023-05-28T09:09:15Z</time>
      </trkpt>
      <trkpt lat="43.53368" lon="5.57422">
        <ele>769.5</ele>
        <time>2023-05-28T09:09:16Z</time>
      </trkpt>
      <trkpt lat="43.53368" lon="5.57423">
        <ele>769.7</ele>
        <time>2023-05-28T09:09:17Z</time>
      </trkpt>
      <trkpt lat="43.53368" lon="5.57424">
        <ele>769.8</ele>
        <time>2023-05-28T09:09:18Z</time>
      </trkpt>
      <trkpt lat="43.53367" lon="5.57424">
        <ele>770</ele>
        <time>2023-05-28T09:09:19Z</time>
      </trkpt>
      <trkpt lat="43.53367" lon="5.57425">
        <ele>770.1</ele>
        <time>2023-05-28T09:09:20Z</time>
      </trkpt>
      <trkpt lat="43.53367" lon="5.57426">
        <ele>770.3</ele>
        <time>2023-05-28T09:09:21Z</time>
      </trkpt>
      <trkpt lat="43.53366" lon="5.57426">
        <ele>770.6</ele>
        <time>2023-05-28T09:09:22Z</time>
      </trkpt>
      <trkpt lat="43.53366" lon="5.57427">
        <ele>770.8</ele>
        <time>2023-05-28T09:09:23Z</time>
      </trkpt>
      <trkpt lat="43.53366" lon="5.57427">
        <ele>770.9</ele>
        <time>2023-05-28T09:09:24Z</time>
      </trkpt>
      <trkpt lat="43.53366" lon="5.57428">
        <ele>771.1</ele>
        <time>2023-05-28T09:09:25Z</time>
      </trkpt>
      <trkpt lat="43.53365" lon="5.57428">
        <ele>771.2</ele>
        <time>2023-05-28T09:09:26Z</time>
      </trkpt>
      <trkpt lat="43.53365" lon="5.57429">
        <ele>771.3</ele>
        <time>2023-05-28T09:09:27Z</time>
      </trkpt>
      <trkpt lat="43.53365" lon="5.57429">
        <ele>771.5</ele>
        <time>2023-05-28T09:09:28Z</time>
      </trkpt>
      <trkpt lat="43.53364" lon="5.5743">
        <ele>771.6</ele>
        <time>2023-05-28T09:09:29Z</time>
      </trkpt>
      <trkpt lat="43.53363" lon="5.5743">
        <ele>771.8</ele>
        <time>2023-05-28T09:09:30Z</time>
      </trkpt>
      <trkpt lat="43.53363" lon="5.57431">
        <ele>771.9</ele>
        <time>2023-05-28T09:09:31Z</time>
      </trkpt>
      <trkpt lat="43.53363" lon="5.57431">
        <ele>772</ele>
        <time>2023-05-28T09:09:32Z</time>
      </trkpt>
      <trkpt lat="43.53362" lon="5.57432">
        <ele>772.1</ele>
        <time>2023-05-28T09:09:33Z</time>
      </trkpt>
      <trkpt lat="43.53362" lon="5.57432">
        <ele>772.3</ele>
        <time>2023-05-28T09:09:34Z</time>
      </trkpt>
      <trkpt lat="43.53362" lon="5.57433">
        <ele>772.5</ele>
        <time>2023-05-28T09:09:35Z</time>
      </trkpt>
      <trkpt lat="43.53362" lon="5.57434">
        <ele>772.8</ele>
        <time>2023-05-28T09:09:36Z</time>
      </trkpt>
      <trkpt lat="43.53362" lon="5.57434">
        <ele>772.9</ele>
        <time>2023-05-28T09:09:37Z</time>
      </trkpt>
      <trkpt lat="43.53362" lon="5.57435">
        <ele>773.2</ele>
        <time>2023-05-28T09:09:38Z</time>
      </trkpt>
      <trkpt lat="43.53361" lon="5.57436">
        <ele>773.4</ele>
        <time>2023-05-28T09:09:39Z</time>
      </trkpt>
      <trkpt lat="43.53361" lon="5.57436">
        <ele>773.6</ele>
        <time>2023-05-28T09:09:40Z</time>
      </trkpt>
      <trkpt lat="43.53362" lon="5.57437">
        <ele>773.7</ele>
        <time>2023-05-28T09:09:41Z</time>
      </trkpt>
      <trkpt lat="43.53362" lon="5.57437">
        <ele>773.9</ele>
        <time>2023-05-28T09:09:42Z</time>
      </trkpt>
      <trkpt lat="43.53362" lon="5.57438">
        <ele>774</ele>
        <time>2023-05-28T09:09:43Z</time>
      </trkpt>
      <trkpt lat="43.53362" lon="5.57438">
        <ele>774.1</ele>
        <time>2023-05-28T09:09:44Z</time>
      </trkpt>
      <trkpt lat="43.53362" lon="5.57438">
        <ele>774.2</ele>
        <time>2023-05-28T09:09:45Z</time>
      </trkpt>
      <trkpt lat="43.53362" lon="5.57438">
        <ele>774.3</ele>
        <time>2023-05-28T09:09:46Z</time>
      </trkpt>
      <trkpt lat="43.53362" lon="5.57438">
        <ele>774.3</ele>
        <time>2023-05-28T09:09:47Z</time>
      </trkpt>
      <trkpt lat="43.53362" lon="5.57438">
        <ele>774.4</ele>
        <time>2023-05-28T09:09:48Z</time>
      </trkpt>
      <trkpt lat="43.53362" lon="5.57438">
        <ele>774.4</ele>
        <time>2023-05-28T09:09:49Z</time>
      </trkpt>
      <trkpt lat="43.53362" lon="5.57439">
        <ele>774.4</ele>
        <time>2023-05-28T09:09:50Z</time>
      </trkpt>
      <trkpt lat="43.53362" lon="5.57439">
        <ele>774.5</ele>
        <time>2023-05-28T09:09:51Z</time>
      </trkpt>
      <trkpt lat="43.53362" lon="5.57439">
        <ele>774.6</ele>
        <time>2023-05-28T09:09:52Z</time>
      </trkpt>
      <trkpt lat="43.53362" lon="5.57439">
        <ele>774.6</ele>
        <time>2023-05-28T09:09:53Z</time>
      </trkpt>
      <trkpt lat="43.53362" lon="5.5744">
        <ele>774.8</ele>
        <time>2023-05-28T09:09:54Z</time>
      </trkpt>
      <trkpt lat="43.53362" lon="5.5744">
        <ele>774.9</ele>
        <time>2023-05-28T09:09:55Z</time>
      </trkpt>
      <trkpt lat="43.53362" lon="5.57441">
        <ele>775</ele>
        <time>2023-05-28T09:09:56Z</time>
      </trkpt>
      <trkpt lat="43.53361" lon="5.57441">
        <ele>775.1</ele>
        <time>2023-05-28T09:09:57Z</time>
      </trkpt>
      <trkpt lat="43.53361" lon="5.57441">
        <ele>775.3</ele>
        <time>2023-05-28T09:09:58Z</time>
      </trkpt>
      <trkpt lat="43.53361" lon="5.57442">
        <ele>775.5</ele>
        <time>2023-05-28T09:09:59Z</time>
      </trkpt>
      <trkpt lat="43.53361" lon="5.57442">
        <ele>775.8</ele>
        <time>2023-05-28T09:10:00Z</time>
      </trkpt>
      <trkpt lat="43.5336" lon="5.57442">
        <ele>776</ele>
        <time>2023-05-28T09:10:01Z</time>
      </trkpt>
      <trkpt lat="43.5336" lon="5.57442">
        <ele>776.3</ele>
        <time>2023-05-28T09:10:02Z</time>
      </trkpt>
      <trkpt lat="43.53359" lon="5.57443">
        <ele>776.6</ele>
        <time>2023-05-28T09:10:03Z</time>
      </trkpt>
      <trkpt lat="43.53359" lon="5.57444">
        <ele>776.8</ele>
        <time>2023-05-28T09:10:04Z</time>
      </trkpt>
      <trkpt lat="43.53359" lon="5.57444">
        <ele>776.9</ele>
        <time>2023-05-28T09:10:05Z</time>
      </trkpt>
      <trkpt lat="43.53359" lon="5.57445">
        <ele>777.1</ele>
        <time>2023-05-28T09:10:06Z</time>
      </trkpt>
      <trkpt lat="43.5336" lon="5.57446">
        <ele>777.4</ele>
        <time>2023-05-28T09:10:07Z</time>
      </trkpt>
      <trkpt lat="43.5336" lon="5.57446">
        <ele>777.5</ele>
        <time>2023-05-28T09:10:08Z</time>
      </trkpt>
      <trkpt lat="43.5336" lon="5.57446">
        <ele>777.6</ele>
        <time>2023-05-28T09:10:09Z</time>
      </trkpt>
      <trkpt lat="43.5336" lon="5.57447">
        <ele>777.8</ele>
        <time>2023-05-28T09:10:10Z</time>
      </trkpt>
      <trkpt lat="43.53359" lon="5.57448">
        <ele>778</ele>
        <time>2023-05-28T09:10:11Z</time>
      </trkpt>
      <trkpt lat="43.53359" lon="5.57448">
        <ele>778.2</ele>
        <time>2023-05-28T09:10:12Z</time>
      </trkpt>
      <trkpt lat="43.53359" lon="5.57449">
        <ele>778.5</ele>
        <time>2023-05-28T09:10:13Z</time>
      </trkpt>
      <trkpt lat="43.53359" lon="5.5745">
        <ele>778.7</ele>
        <time>2023-05-28T09:10:14Z</time>
      </trkpt>
      <trkpt lat="43.53359" lon="5.57452">
        <ele>778.8</ele>
        <time>2023-05-28T09:10:15Z</time>
      </trkpt>
      <trkpt lat="43.53359" lon="5.57452">
        <ele>778.9</ele>
        <time>2023-05-28T09:10:16Z</time>
      </trkpt>
      <trkpt lat="43.53359" lon="5.57453">
        <ele>779.1</ele>
        <time>2023-05-28T09:10:17Z</time>
      </trkpt>
      <trkpt lat="43.53359" lon="5.57455">
        <ele>779.3</ele>
        <time>2023-05-28T09:10:18Z</time>
      </trkpt>
      <trkpt lat="43.53359" lon="5.57456">
        <ele>779.5</ele>
        <time>2023-05-28T09:10:19Z</time>
      </trkpt>
      <trkpt lat="43.53359" lon="5.57457">
        <ele>779.6</ele>
        <time>2023-05-28T09:10:20Z</time>
      </trkpt>
      <trkpt lat="43.53359" lon="5.57458">
        <ele>779.8</ele>
        <time>2023-05-28T09:10:21Z</time>
      </trkpt>
      <trkpt lat="43.5336" lon="5.5746">
        <ele>780</ele>
        <time>2023-05-28T09:10:22Z</time>
      </trkpt>
      <trkpt lat="43.5336" lon="5.5746">
        <ele>780.1</ele>
        <time>2023-05-28T09:10:23Z</time>
      </trkpt>
      <trkpt lat="43.5336" lon="5.57461">
        <ele>780.2</ele>
        <time>2023-05-28T09:10:24Z</time>
      </trkpt>
      <trkpt lat="43.5336" lon="5.57462">
        <ele>780.4</ele>
        <time>2023-05-28T09:10:25Z</time>
      </trkpt>
      <trkpt lat="43.53359" lon="5.57463">
        <ele>780.5</ele>
        <time>2023-05-28T09:10:26Z</time>
      </trkpt>
      <trkpt lat="43.53359" lon="5.57464">
        <ele>780.6</ele>
        <time>2023-05-28T09:10:27Z</time>
      </trkpt>
      <trkpt lat="43.53359" lon="5.57464">
        <ele>780.7</ele>
        <time>2023-05-28T09:10:28Z</time>
      </trkpt>
      <trkpt lat="43.53359" lon="5.57465">
        <ele>780.9</ele>
        <time>2023-05-28T09:10:29Z</time>
      </trkpt>
      <trkpt lat="43.53358" lon="5.57466">
        <ele>781.1</ele>
        <time>2023-05-28T09:10:30Z</time>
      </trkpt>
      <trkpt lat="43.53358" lon="5.57467">
        <ele>781.2</ele>
        <time>2023-05-28T09:10:31Z</time>
      </trkpt>
      <trkpt lat="43.53358" lon="5.57468">
        <ele>781.3</ele>
        <time>2023-05-28T09:10:32Z</time>
      </trkpt>
      <trkpt lat="43.53358" lon="5.57468">
        <ele>781.5</ele>
        <time>2023-05-28T09:10:33Z</time>
      </trkpt>
      <trkpt lat="43.53358" lon="5.57468">
        <ele>781.6</ele>
        <time>2023-05-28T09:10:34Z</time>
      </trkpt>
      <trkpt lat="43.53358" lon="5.57468">
        <ele>781.7</ele>
        <time>2023-05-28T09:10:35Z</time>
      </trkpt>
      <trkpt lat="43.53358" lon="5.57467">
        <ele>781.8</ele>
        <time>2023-05-28T09:10:36Z</time>
      </trkpt>
      <trkpt lat="43.53357" lon="5.57467">
        <ele>781.9</ele>
        <time>2023-05-28T09:10:37Z</time>
      </trkpt>
      <trkpt lat="43.53357" lon="5.57466">
        <ele>782</ele>
        <time>2023-05-28T09:10:38Z</time>
      </trkpt>
      <trkpt lat="43.53357" lon="5.57465">
        <ele>782.2</ele>
        <time>2023-05-28T09:10:39Z</time>
      </trkpt>
      <trkpt lat="43.53357" lon="5.57464">
        <ele>782.4</ele>
        <time>2023-05-28T09:10:40Z</time>
      </trkpt>
      <trkpt lat="43.53356" lon="5.57463">
        <ele>782.5</ele>
        <time>2023-05-28T09:10:41Z</time>
      </trkpt>
      <trkpt lat="43.53356" lon="5.57462">
        <ele>782.6</ele>
        <time>2023-05-28T09:10:42Z</time>
      </trkpt>
      <trkpt lat="43.53356" lon="5.57461">
        <ele>782.7</ele>
        <time>2023-05-28T09:10:43Z</time>
      </trkpt>
      <trkpt lat="43.53356" lon="5.5746">
        <ele>782.8</ele>
        <time>2023-05-28T09:10:44Z</time>
      </trkpt>
      <trkpt lat="43.53355" lon="5.57459">
        <ele>782.9</ele>
        <time>2023-05-28T09:10:45Z</time>
      </trkpt>
      <trkpt lat="43.53355" lon="5.57458">
        <ele>783</ele>
        <time>2023-05-28T09:10:46Z</time>
      </trkpt>
      <trkpt lat="43.53355" lon="5.57457">
        <ele>783.1</ele>
        <time>2023-05-28T09:10:47Z</time>
      </trkpt>
      <trkpt lat="43.53355" lon="5.57456">
        <ele>783.1</ele>
        <time>2023-05-28T09:10:48Z</time>
      </trkpt>
      <trkpt lat="43.53354" lon="5.57455">
        <ele>783.1</ele>
        <time>2023-05-28T09:10:49Z</time>
      </trkpt>
      <trkpt lat="43.53353" lon="5.57454">
        <ele>783.3</ele>
        <time>2023-05-28T09:10:50Z</time>
      </trkpt>
      <trkpt lat="43.53353" lon="5.57453">
        <ele>783.4</ele>
        <time>2023-05-28T09:10:51Z</time>
      </trkpt>
      <trkpt lat="43.53352" lon="5.57452">
        <ele>783.5</ele>
        <time>2023-05-28T09:10:52Z</time>
      </trkpt>
      <trkpt lat="43.53352" lon="5.57452">
        <ele>783.6</ele>
        <time>2023-05-28T09:10:53Z</time>
      </trkpt>
      <trkpt lat="43.53352" lon="5.57451">
        <ele>783.6</ele>
        <time>2023-05-28T09:10:54Z</time>
      </trkpt>
      <trkpt lat="43.53351" lon="5.5745">
        <ele>783.7</ele>
        <time>2023-05-28T09:10:55Z</time>
      </trkpt>
      <trkpt lat="43.53351" lon="5.57449">
        <ele>783.7</ele>
        <time>2023-05-28T09:10:56Z</time>
      </trkpt>
      <trkpt lat="43.5335" lon="5.57448">
        <ele>783.8</ele>
        <time>2023-05-28T09:10:57Z</time>
      </trkpt>
      <trkpt lat="43.5335" lon="5.57446">
        <ele>783.8</ele>
        <time>2023-05-28T09:10:58Z</time>
      </trkpt>
      <trkpt lat="43.5335" lon="5.57446">
        <ele>783.8</ele>
        <time>2023-05-28T09:10:59Z</time>
      </trkpt>
      <trkpt lat="43.53349" lon="5.57445">
        <ele>783.8</ele>
        <time>2023-05-28T09:11:00Z</time>
      </trkpt>
      <trkpt lat="43.53349" lon="5.57444">
        <ele>783.8</ele>
        <time>2023-05-28T09:11:01Z</time>
      </trkpt>
      <trkpt lat="43.53349" lon="5.57444">
        <ele>783.9</ele>
        <time>2023-05-28T09:11:02Z</time>
      </trkpt>
      <trkpt lat="43.53348" lon="5.57443">
        <ele>783.9</ele>
        <time>2023-05-28T09:11:03Z</time>
      </trkpt>
      <trkpt lat="43.53348" lon="5.57443">
        <ele>784</ele>
        <time>2023-05-28T09:11:04Z</time>
      </trkpt>
      <trkpt lat="43.53348" lon="5.57442">
        <ele>784</ele>
        <time>2023-05-28T09:11:05Z</time>
      </trkpt>
      <trkpt lat="43.53347" lon="5.57441">
        <ele>784.1</ele>
        <time>2023-05-28T09:11:06Z</time>
      </trkpt>
      <trkpt lat="43.53347" lon="5.57441">
        <ele>784.2</ele>
        <time>2023-05-28T09:11:07Z</time>
      </trkpt>
      <trkpt lat="43.53347" lon="5.57441">
        <ele>784.2</ele>
        <time>2023-05-28T09:11:08Z</time>
      </trkpt>
      <trkpt lat="43.53347" lon="5.57442">
        <ele>784.3</ele>
        <time>2023-05-28T09:11:09Z</time>
      </trkpt>
      <trkpt lat="43.53347" lon="5.57441">
        <ele>784.4</ele>
        <time>2023-05-28T09:11:10Z</time>
      </trkpt>
      <trkpt lat="43.53347" lon="5.57441">
        <ele>784.4</ele>
        <time>2023-05-28T09:11:11Z</time>
      </trkpt>
      <trkpt lat="43.53347" lon="5.57441">
        <ele>784.4</ele>
        <time>2023-05-28T09:11:12Z</time>
      </trkpt>
      <trkpt lat="43.53347" lon="5.57441">
        <ele>784.4</ele>
        <time>2023-05-28T09:11:13Z</time>
      </trkpt>
      <trkpt lat="43.53347" lon="5.57441">
        <ele>784.4</ele>
        <time>2023-05-28T09:11:14Z</time>
      </trkpt>
      <trkpt lat="43.53347" lon="5.57442">
        <ele>784.4</ele>
        <time>2023-05-28T09:11:15Z</time>
      </trkpt>
      <trkpt lat="43.53347" lon="5.57442">
        <ele>784.4</ele>
        <time>2023-05-28T09:11:16Z</time>
      </trkpt>
      <trkpt lat="43.53347" lon="5.57441">
        <ele>784.4</ele>
        <time>2023-05-28T09:11:17Z</time>
      </trkpt>
      <trkpt lat="43.53347" lon="5.57441">
        <ele>784.4</ele>
        <time>2023-05-28T09:11:18Z</time>
      </trkpt>
      <trkpt lat="43.53347" lon="5.5744">
        <ele>784.5</ele>
        <time>2023-05-28T09:11:19Z</time>
      </trkpt>
      <trkpt lat="43.53348" lon="5.5744">
        <ele>784.5</ele>
        <time>2023-05-28T09:11:20Z</time>
      </trkpt>
      <trkpt lat="43.53348" lon="5.5744">
        <ele>784.5</ele>
        <time>2023-05-28T09:11:21Z</time>
      </trkpt>
      <trkpt lat="43.53348" lon="5.5744">
        <ele>784.5</ele>
        <time>2023-05-28T09:11:22Z</time>
      </trkpt>
      <trkpt lat="43.53348" lon="5.5744">
        <ele>784.5</ele>
        <time>2023-05-28T09:11:23Z</time>
      </trkpt>
      <trkpt lat="43.53347" lon="5.5744">
        <ele>784.5</ele>
        <time>2023-05-28T09:11:24Z</time>
      </trkpt>
      <trkpt lat="43.53347" lon="5.5744">
        <ele>784.4</ele>
        <time>2023-05-28T09:11:25Z</time>
      </trkpt>
      <trkpt lat="43.53347" lon="5.5744">
        <ele>784.4</ele>
        <time>2023-05-28T09:11:26Z</time>
      </trkpt>
      <trkpt lat="43.53347" lon="5.5744">
        <ele>784.3</ele>
        <time>2023-05-28T09:11:27Z</time>
      </trkpt>
      <trkpt lat="43.53347" lon="5.5744">
        <ele>784.1</ele>
        <time>2023-05-28T09:11:28Z</time>
      </trkpt>
      <trkpt lat="43.53347" lon="5.5744">
        <ele>784.1</ele>
        <time>2023-05-28T09:11:29Z</time>
      </trkpt>
      <trkpt lat="43.53347" lon="5.57441">
        <ele>784</ele>
        <time>2023-05-28T09:11:30Z</time>
      </trkpt>
      <trkpt lat="43.53346" lon="5.57441">
        <ele>784.2</ele>
        <time>2023-05-28T09:11:31Z</time>
      </trkpt>
      <trkpt lat="43.53346" lon="5.57441">
        <ele>784.3</ele>
        <time>2023-05-28T09:11:32Z</time>
      </trkpt>
      <trkpt lat="43.53346" lon="5.57441">
        <ele>784.4</ele>
        <time>2023-05-28T09:11:33Z</time>
      </trkpt>
      <trkpt lat="43.53346" lon="5.57441">
        <ele>784.4</ele>
        <time>2023-05-28T09:11:34Z</time>
      </trkpt>
      <trkpt lat="43.53346" lon="5.57441">
        <ele>784.4</ele>
        <time>2023-05-28T09:11:35Z</time>
      </trkpt>
      <trkpt lat="43.53346" lon="5.57441">
        <ele>784.5</ele>
        <time>2023-05-28T09:11:36Z</time>
      </trkpt>
      <trkpt lat="43.53345" lon="5.57441">
        <ele>784.4</ele>
        <time>2023-05-28T09:11:37Z</time>
      </trkpt>
      <trkpt lat="43.53345" lon="5.57441">
        <ele>784.4</ele>
        <time>2023-05-28T09:11:38Z</time>
      </trkpt>
      <trkpt lat="43.53345" lon="5.57441">
        <ele>784.5</ele>
        <time>2023-05-28T09:11:39Z</time>
      </trkpt>
      <trkpt lat="43.53345" lon="5.57441">
        <ele>784.5</ele>
        <time>2023-05-28T09:11:40Z</time>
      </trkpt>
      <trkpt lat="43.53345" lon="5.57441">
        <ele>784.5</ele>
        <time>2023-05-28T09:11:41Z</time>
      </trkpt>
      <trkpt lat="43.53345" lon="5.57441">
        <ele>784.5</ele>
        <time>2023-05-28T09:11:42Z</time>
      </trkpt>
      <trkpt lat="43.53345" lon="5.57441">
        <ele>784.4</ele>
        <time>2023-05-28T09:11:43Z</time>
      </trkpt>
      <trkpt lat="43.53345" lon="5.57441">
        <ele>784.3</ele>
        <time>2023-05-28T09:11:44Z</time>
      </trkpt>
      <trkpt lat="43.53344" lon="5.57441">
        <ele>784.4</ele>
        <time>2023-05-28T09:11:45Z</time>
      </trkpt>
      <trkpt lat="43.53344" lon="5.5744">
        <ele>784.4</ele>
        <time>2023-05-28T09:11:46Z</time>
      </trkpt>
      <trkpt lat="43.53343" lon="5.5744">
        <ele>784.5</ele>
        <time>2023-05-28T09:11:47Z</time>
      </trkpt>
      <trkpt lat="43.53342" lon="5.57439">
        <ele>784.5</ele>
        <time>2023-05-28T09:11:48Z</time>
      </trkpt>
      <trkpt lat="43.53342" lon="5.57438">
        <ele>784.5</ele>
        <time>2023-05-28T09:11:49Z</time>
      </trkpt>
      <trkpt lat="43.53341" lon="5.57437">
        <ele>784.5</ele>
        <time>2023-05-28T09:11:50Z</time>
      </trkpt>
      <trkpt lat="43.53341" lon="5.57437">
        <ele>784.6</ele>
        <time>2023-05-28T09:11:51Z</time>
      </trkpt>
      <trkpt lat="43.5334" lon="5.57437">
        <ele>784.6</ele>
        <time>2023-05-28T09:11:52Z</time>
      </trkpt>
      <trkpt lat="43.5334" lon="5.57436">
        <ele>784.7</ele>
        <time>2023-05-28T09:11:53Z</time>
      </trkpt>
      <trkpt lat="43.53339" lon="5.57436">
        <ele>784.8</ele>
        <time>2023-05-28T09:11:54Z</time>
      </trkpt>
      <trkpt lat="43.53339" lon="5.57435">
        <ele>784.8</ele>
        <time>2023-05-28T09:11:55Z</time>
      </trkpt>
      <trkpt lat="43.53339" lon="5.57435">
        <ele>784.9</ele>
        <time>2023-05-28T09:11:56Z</time>
      </trkpt>
      <trkpt lat="43.53339" lon="5.57434">
        <ele>785</ele>
        <time>2023-05-28T09:11:57Z</time>
      </trkpt>
      <trkpt lat="43.53338" lon="5.57434">
        <ele>785.1</ele>
        <time>2023-05-28T09:11:58Z</time>
      </trkpt>
      <trkpt lat="43.53337" lon="5.57433">
        <ele>785.2</ele>
        <time>2023-05-28T09:11:59Z</time>
      </trkpt>
      <trkpt lat="43.53336" lon="5.57433">
        <ele>785.3</ele>
        <time>2023-05-28T09:12:00Z</time>
      </trkpt>
      <trkpt lat="43.53335" lon="5.57433">
        <ele>785.5</ele>
        <time>2023-05-28T09:12:01Z</time>
      </trkpt>
      <trkpt lat="43.53335" lon="5.57434">
        <ele>785.6</ele>
        <time>2023-05-28T09:12:02Z</time>
      </trkpt>
      <trkpt lat="43.53334" lon="5.57434">
        <ele>785.7</ele>
        <time>2023-05-28T09:12:03Z</time>
      </trkpt>
      <trkpt lat="43.53333" lon="5.57434">
        <ele>785.9</ele>
        <time>2023-05-28T09:12:04Z</time>
      </trkpt>
      <trkpt lat="43.53332" lon="5.57434">
        <ele>786.1</ele>
        <time>2023-05-28T09:12:05Z</time>
      </trkpt>
      <trkpt lat="43.53331" lon="5.57434">
        <ele>786.3</ele>
        <time>2023-05-28T09:12:06Z</time>
      </trkpt>
      <trkpt lat="43.53331" lon="5.57434">
        <ele>786.5</ele>
        <time>2023-05-28T09:12:07Z</time>
      </trkpt>
      <trkpt lat="43.5333" lon="5.57434">
        <ele>786.6</ele>
        <time>2023-05-28T09:12:08Z</time>
      </trkpt>
      <trkpt lat="43.53329" lon="5.57434">
        <ele>786.8</ele>
        <time>2023-05-28T09:12:09Z</time>
      </trkpt>
      <trkpt lat="43.53329" lon="5.57433">
        <ele>786.9</ele>
        <time>2023-05-28T09:12:10Z</time>
      </trkpt>
      <trkpt lat="43.53329" lon="5.57433">
        <ele>787.1</ele>
        <time>2023-05-28T09:12:11Z</time>
      </trkpt>
      <trkpt lat="43.53328" lon="5.57433">
        <ele>787.1</ele>
        <time>2023-05-28T09:12:12Z</time>
      </trkpt>
      <trkpt lat="43.53328" lon="5.57433">
        <ele>787.2</ele>
        <time>2023-05-28T09:12:13Z</time>
      </trkpt>
      <trkpt lat="43.53328" lon="5.57433">
        <ele>787.3</ele>
        <time>2023-05-28T09:12:14Z</time>
      </trkpt>
      <trkpt lat="43.53328" lon="5.57432">
        <ele>787.3</ele>
        <time>2023-05-28T09:12:15Z</time>
      </trkpt>
      <trkpt lat="43.53328" lon="5.57432">
        <ele>787.3</ele>
        <time>2023-05-28T09:12:16Z</time>
      </trkpt>
      <trkpt lat="43.53328" lon="5.57431">
        <ele>787.4</ele>
        <time>2023-05-28T09:12:17Z</time>
      </trkpt>
      <trkpt lat="43.53328" lon="5.57431">
        <ele>787.5</ele>
        <time>2023-05-28T09:12:18Z</time>
      </trkpt>
      <trkpt lat="43.53328" lon="5.5743">
        <ele>787.6</ele>
        <time>2023-05-28T09:12:19Z</time>
      </trkpt>
      <trkpt lat="43.53328" lon="5.5743">
        <ele>787.7</ele>
        <time>2023-05-28T09:12:20Z</time>
      </trkpt>
      <trkpt lat="43.53328" lon="5.5743">
        <ele>787.8</ele>
        <time>2023-05-28T09:12:21Z</time>
      </trkpt>
      <trkpt lat="43.53328" lon="5.5743">
        <ele>787.8</ele>
        <time>2023-05-28T09:12:22Z</time>
      </trkpt>
      <trkpt lat="43.53328" lon="5.5743">
        <ele>787.9</ele>
        <time>2023-05-28T09:12:23Z</time>
      </trkpt>
      <trkpt lat="43.53328" lon="5.5743">
        <ele>788</ele>
        <time>2023-05-28T09:12:24Z</time>
      </trkpt>
      <trkpt lat="43.53328" lon="5.5743">
        <ele>788</ele>
        <time>2023-05-28T09:12:25Z</time>
      </trkpt>
      <trkpt lat="43.53328" lon="5.57429">
        <ele>788</ele>
        <time>2023-05-28T09:12:26Z</time>
      </trkpt>
      <trkpt lat="43.53328" lon="5.5743">
        <ele>788</ele>
        <time>2023-05-28T09:12:27Z</time>
      </trkpt>
      <trkpt lat="43.53328" lon="5.57431">
        <ele>788</ele>
        <time>2023-05-28T09:12:28Z</time>
      </trkpt>
      <trkpt lat="43.53328" lon="5.57432">
        <ele>788</ele>
        <time>2023-05-28T09:12:29Z</time>
      </trkpt>
      <trkpt lat="43.53328" lon="5.57433">
        <ele>787.9</ele>
        <time>2023-05-28T09:12:30Z</time>
      </trkpt>
      <trkpt lat="43.53329" lon="5.57434">
        <ele>787.9</ele>
        <time>2023-05-28T09:12:31Z</time>
      </trkpt>
      <trkpt lat="43.53329" lon="5.57435">
        <ele>787.9</ele>
        <time>2023-05-28T09:12:32Z</time>
      </trkpt>
      <trkpt lat="43.53328" lon="5.57436">
        <ele>788</ele>
        <time>2023-05-28T09:12:33Z</time>
      </trkpt>
      <trkpt lat="43.53328" lon="5.57437">
        <ele>788</ele>
        <time>2023-05-28T09:12:34Z</time>
      </trkpt>
      <trkpt lat="43.53327" lon="5.57438">
        <ele>788</ele>
        <time>2023-05-28T09:12:35Z</time>
      </trkpt>
      <trkpt lat="43.53327" lon="5.57439">
        <ele>788</ele>
        <time>2023-05-28T09:12:36Z</time>
      </trkpt>
      <trkpt lat="43.53327" lon="5.5744">
        <ele>788.1</ele>
        <time>2023-05-28T09:12:37Z</time>
      </trkpt>
      <trkpt lat="43.53327" lon="5.57441">
        <ele>788.2</ele>
        <time>2023-05-28T09:12:38Z</time>
      </trkpt>
      <trkpt lat="43.53327" lon="5.57442">
        <ele>788.2</ele>
        <time>2023-05-28T09:12:39Z</time>
      </trkpt>
      <trkpt lat="43.53328" lon="5.57443">
        <ele>788.3</ele>
        <time>2023-05-28T09:12:40Z</time>
      </trkpt>
      <trkpt lat="43.53328" lon="5.57443">
        <ele>788.6</ele>
        <time>2023-05-28T09:12:41Z</time>
      </trkpt>
      <trkpt lat="43.53328" lon="5.57444">
        <ele>788.8</ele>
        <time>2023-05-28T09:12:42Z</time>
      </trkpt>
      <trkpt lat="43.53328" lon="5.57445">
        <ele>789</ele>
        <time>2023-05-28T09:12:43Z</time>
      </trkpt>
      <trkpt lat="43.53327" lon="5.57446">
        <ele>789.2</ele>
        <time>2023-05-28T09:12:44Z</time>
      </trkpt>
      <trkpt lat="43.53327" lon="5.57446">
        <ele>789.3</ele>
        <time>2023-05-28T09:12:45Z</time>
      </trkpt>
      <trkpt lat="43.53327" lon="5.57447">
        <ele>789.5</ele>
        <time>2023-05-28T09:12:46Z</time>
      </trkpt>
      <trkpt lat="43.53328" lon="5.57448">
        <ele>789.8</ele>
        <time>2023-05-28T09:12:47Z</time>
      </trkpt>
      <trkpt lat="43.53329" lon="5.57449">
        <ele>790</ele>
        <time>2023-05-28T09:12:48Z</time>
      </trkpt>
      <trkpt lat="43.53329" lon="5.5745">
        <ele>790.3</ele>
        <time>2023-05-28T09:12:49Z</time>
      </trkpt>
      <trkpt lat="43.5333" lon="5.57451">
        <ele>790.5</ele>
        <time>2023-05-28T09:12:50Z</time>
      </trkpt>
      <trkpt lat="43.5333" lon="5.57452">
        <ele>790.7</ele>
        <time>2023-05-28T09:12:51Z</time>
      </trkpt>
      <trkpt lat="43.5333" lon="5.57454">
        <ele>790.8</ele>
        <time>2023-05-28T09:12:52Z</time>
      </trkpt>
      <trkpt lat="43.53331" lon="5.57455">
        <ele>791</ele>
        <time>2023-05-28T09:12:53Z</time>
      </trkpt>
      <trkpt lat="43.53331" lon="5.57456">
        <ele>791.1</ele>
        <time>2023-05-28T09:12:54Z</time>
      </trkpt>
      <trkpt lat="43.53332" lon="5.57456">
        <ele>791.1</ele>
        <time>2023-05-28T09:12:55Z</time>
      </trkpt>
      <trkpt lat="43.53332" lon="5.57457">
        <ele>791.2</ele>
        <time>2023-05-28T09:12:56Z</time>
      </trkpt>
      <trkpt lat="43.53332" lon="5.57457">
        <ele>791.2</ele>
        <time>2023-05-28T09:12:57Z</time>
      </trkpt>
      <trkpt lat="43.53331" lon="5.57457">
        <ele>791.2</ele>
        <time>2023-05-28T09:12:58Z</time>
      </trkpt>
      <trkpt lat="43.53331" lon="5.57458">
        <ele>791.3</ele>
        <time>2023-05-28T09:12:59Z</time>
      </trkpt>
      <trkpt lat="43.53331" lon="5.57459">
        <ele>791.3</ele>
        <time>2023-05-28T09:13:00Z</time>
      </trkpt>
      <trkpt lat="43.53331" lon="5.57459">
        <ele>791.4</ele>
        <time>2023-05-28T09:13:01Z</time>
      </trkpt>
      <trkpt lat="43.53331" lon="5.5746">
        <ele>791.5</ele>
        <time>2023-05-28T09:13:02Z</time>
      </trkpt>
      <trkpt lat="43.5333" lon="5.5746">
        <ele>791.6</ele>
        <time>2023-05-28T09:13:03Z</time>
      </trkpt>
      <trkpt lat="43.5333" lon="5.5746">
        <ele>791.7</ele>
        <time>2023-05-28T09:13:04Z</time>
      </trkpt>
      <trkpt lat="43.5333" lon="5.5746">
        <ele>791.9</ele>
        <time>2023-05-28T09:13:05Z</time>
      </trkpt>
      <trkpt lat="43.5333" lon="5.5746">
        <ele>792</ele>
        <time>2023-05-28T09:13:06Z</time>
      </trkpt>
      <trkpt lat="43.53329" lon="5.5746">
        <ele>792.1</ele>
        <time>2023-05-28T09:13:07Z</time>
      </trkpt>
      <trkpt lat="43.53329" lon="5.5746">
        <ele>792.3</ele>
        <time>2023-05-28T09:13:08Z</time>
      </trkpt>
      <trkpt lat="43.53329" lon="5.5746">
        <ele>792.5</ele>
        <time>2023-05-28T09:13:09Z</time>
      </trkpt>
      <trkpt lat="43.53328" lon="5.57461">
        <ele>792.6</ele>
        <time>2023-05-28T09:13:10Z</time>
      </trkpt>
      <trkpt lat="43.53328" lon="5.57461">
        <ele>792.8</ele>
        <time>2023-05-28T09:13:11Z</time>
      </trkpt>
      <trkpt lat="43.53327" lon="5.57462">
        <ele>792.9</ele>
        <time>2023-05-28T09:13:12Z</time>
      </trkpt>
      <trkpt lat="43.53327" lon="5.57462">
        <ele>793</ele>
        <time>2023-05-28T09:13:13Z</time>
      </trkpt>
      <trkpt lat="43.53327" lon="5.57462">
        <ele>793.2</ele>
        <time>2023-05-28T09:13:14Z</time>
      </trkpt>
      <trkpt lat="43.53327" lon="5.57463">
        <ele>793.4</ele>
        <time>2023-05-28T09:13:15Z</time>
      </trkpt>
      <trkpt lat="43.53326" lon="5.57462">
        <ele>793.7</ele>
        <time>2023-05-28T09:13:16Z</time>
      </trkpt>
      <trkpt lat="43.53326" lon="5.57462">
        <ele>793.9</ele>
        <time>2023-05-28T09:13:17Z</time>
      </trkpt>
      <trkpt lat="43.53325" lon="5.57462">
        <ele>794.2</ele>
        <time>2023-05-28T09:13:18Z</time>
      </trkpt>
      <trkpt lat="43.53325" lon="5.57462">
        <ele>794.4</ele>
        <time>2023-05-28T09:13:19Z</time>
      </trkpt>
      <trkpt lat="43.53325" lon="5.57462">
        <ele>794.5</ele>
        <time>2023-05-28T09:13:20Z</time>
      </trkpt>
      <trkpt lat="43.53324" lon="5.57462">
        <ele>794.6</ele>
        <time>2023-05-28T09:13:21Z</time>
      </trkpt>
      <trkpt lat="43.53324" lon="5.57462">
        <ele>794.9</ele>
        <time>2023-05-28T09:13:22Z</time>
      </trkpt>
      <trkpt lat="43.53324" lon="5.57462">
        <ele>795.1</ele>
        <time>2023-05-28T09:13:23Z</time>
      </trkpt>
      <trkpt lat="43.53323" lon="5.57463">
        <ele>795.3</ele>
        <time>2023-05-28T09:13:24Z</time>
      </trkpt>
      <trkpt lat="43.53323" lon="5.57463">
        <ele>795.5</ele>
        <time>2023-05-28T09:13:25Z</time>
      </trkpt>
      <trkpt lat="43.53323" lon="5.57463">
        <ele>795.6</ele>
        <time>2023-05-28T09:13:26Z</time>
      </trkpt>
      <trkpt lat="43.53322" lon="5.57464">
        <ele>795.8</ele>
        <time>2023-05-28T09:13:27Z</time>
      </trkpt>
      <trkpt lat="43.53322" lon="5.57464">
        <ele>796</ele>
        <time>2023-05-28T09:13:28Z</time>
      </trkpt>
      <trkpt lat="43.53321" lon="5.57464">
        <ele>796.2</ele>
        <time>2023-05-28T09:13:29Z</time>
      </trkpt>
      <trkpt lat="43.53321" lon="5.57464">
        <ele>796.3</ele>
        <time>2023-05-28T09:13:30Z</time>
      </trkpt>
      <trkpt lat="43.53321" lon="5.57465">
        <ele>796.4</ele>
        <time>2023-05-28T09:13:31Z</time>
      </trkpt>
      <trkpt lat="43.53321" lon="5.57465">
        <ele>796.6</ele>
        <time>2023-05-28T09:13:32Z</time>
      </trkpt>
      <trkpt lat="43.5332" lon="5.57464">
        <ele>796.9</ele>
        <time>2023-05-28T09:13:33Z</time>
      </trkpt>
      <trkpt lat="43.5332" lon="5.57463">
        <ele>797.2</ele>
        <time>2023-05-28T09:13:34Z</time>
      </trkpt>
      <trkpt lat="43.53319" lon="5.57464">
        <ele>797.4</ele>
        <time>2023-05-28T09:13:35Z</time>
      </trkpt>
      <trkpt lat="43.53318" lon="5.57464">
        <ele>797.5</ele>
        <time>2023-05-28T09:13:36Z</time>
      </trkpt>
      <trkpt lat="43.53318" lon="5.57464">
        <ele>797.6</ele>
        <time>2023-05-28T09:13:37Z</time>
      </trkpt>
      <trkpt lat="43.53318" lon="5.57465">
        <ele>797.7</ele>
        <time>2023-05-28T09:13:38Z</time>
      </trkpt>
      <trkpt lat="43.53318" lon="5.57466">
        <ele>797.9</ele>
        <time>2023-05-28T09:13:39Z</time>
      </trkpt>
      <trkpt lat="43.53318" lon="5.57467">
        <ele>798.1</ele>
        <time>2023-05-28T09:13:40Z</time>
      </trkpt>
      <trkpt lat="43.53319" lon="5.57468">
        <ele>798.2</ele>
        <time>2023-05-28T09:13:41Z</time>
      </trkpt>
      <trkpt lat="43.53319" lon="5.57469">
        <ele>798.3</ele>
        <time>2023-05-28T09:13:42Z</time>
      </trkpt>
      <trkpt lat="43.53318" lon="5.57469">
        <ele>798.4</ele>
        <time>2023-05-28T09:13:43Z</time>
      </trkpt>
      <trkpt lat="43.53318" lon="5.5747">
        <ele>798.5</ele>
        <time>2023-05-28T09:13:44Z</time>
      </trkpt>
      <trkpt lat="43.53318" lon="5.5747">
        <ele>798.7</ele>
        <time>2023-05-28T09:13:45Z</time>
      </trkpt>
      <trkpt lat="43.53317" lon="5.5747">
        <ele>798.8</ele>
        <time>2023-05-28T09:13:46Z</time>
      </trkpt>
      <trkpt lat="43.53317" lon="5.57471">
        <ele>798.9</ele>
        <time>2023-05-28T09:13:47Z</time>
      </trkpt>
      <trkpt lat="43.53316" lon="5.57471">
        <ele>799</ele>
        <time>2023-05-28T09:13:48Z</time>
      </trkpt>
      <trkpt lat="43.53316" lon="5.57472">
        <ele>799.2</ele>
        <time>2023-05-28T09:13:49Z</time>
      </trkpt>
      <trkpt lat="43.53316" lon="5.57472">
        <ele>799.4</ele>
        <time>2023-05-28T09:13:50Z</time>
      </trkpt>
      <trkpt lat="43.53316" lon="5.57473">
        <ele>799.5</ele>
        <time>2023-05-28T09:13:51Z</time>
      </trkpt>
      <trkpt lat="43.53315" lon="5.57473">
        <ele>799.7</ele>
        <time>2023-05-28T09:13:52Z</time>
      </trkpt>
      <trkpt lat="43.53315" lon="5.57474">
        <ele>799.9</ele>
        <time>2023-05-28T09:13:53Z</time>
      </trkpt>
      <trkpt lat="43.53315" lon="5.57475">
        <ele>800.1</ele>
        <time>2023-05-28T09:13:54Z</time>
      </trkpt>
      <trkpt lat="43.53314" lon="5.57475">
        <ele>800.2</ele>
        <time>2023-05-28T09:13:55Z</time>
      </trkpt>
      <trkpt lat="43.53314" lon="5.57475">
        <ele>800.4</ele>
        <time>2023-05-28T09:13:56Z</time>
      </trkpt>
      <trkpt lat="43.53314" lon="5.57475">
        <ele>800.6</ele>
        <time>2023-05-28T09:13:57Z</time>
      </trkpt>
      <trkpt lat="43.53314" lon="5.57474">
        <ele>800.8</ele>
        <time>2023-05-28T09:13:58Z</time>
      </trkpt>
      <trkpt lat="43.53313" lon="5.57474">
        <ele>801</ele>
        <time>2023-05-28T09:13:59Z</time>
      </trkpt>
      <trkpt lat="43.53313" lon="5.57473">
        <ele>801.2</ele>
        <time>2023-05-28T09:14:00Z</time>
      </trkpt>
      <trkpt lat="43.53312" lon="5.57473">
        <ele>801.2</ele>
        <time>2023-05-28T09:14:01Z</time>
      </trkpt>
      <trkpt lat="43.53312" lon="5.57473">
        <ele>801.4</ele>
        <time>2023-05-28T09:14:02Z</time>
      </trkpt>
      <trkpt lat="43.53311" lon="5.57472">
        <ele>801.6</ele>
        <time>2023-05-28T09:14:03Z</time>
      </trkpt>
      <trkpt lat="43.53311" lon="5.57472">
        <ele>801.8</ele>
        <time>2023-05-28T09:14:04Z</time>
      </trkpt>
      <trkpt lat="43.5331" lon="5.57472">
        <ele>802</ele>
        <time>2023-05-28T09:14:05Z</time>
      </trkpt>
      <trkpt lat="43.5331" lon="5.57472">
        <ele>802.1</ele>
        <time>2023-05-28T09:14:06Z</time>
      </trkpt>
      <trkpt lat="43.53309" lon="5.57472">
        <ele>802.3</ele>
        <time>2023-05-28T09:14:07Z</time>
      </trkpt>
      <trkpt lat="43.53309" lon="5.57471">
        <ele>802.5</ele>
        <time>2023-05-28T09:14:08Z</time>
      </trkpt>
      <trkpt lat="43.53308" lon="5.57471">
        <ele>802.6</ele>
        <time>2023-05-28T09:14:09Z</time>
      </trkpt>
      <trkpt lat="43.53308" lon="5.5747">
        <ele>802.7</ele>
        <time>2023-05-28T09:14:10Z</time>
      </trkpt>
      <trkpt lat="43.53307" lon="5.5747">
        <ele>802.8</ele>
        <time>2023-05-28T09:14:11Z</time>
      </trkpt>
      <trkpt lat="43.53307" lon="5.5747">
        <ele>802.8</ele>
        <time>2023-05-28T09:14:12Z</time>
      </trkpt>
      <trkpt lat="43.53306" lon="5.57471">
        <ele>802.9</ele>
        <time>2023-05-28T09:14:13Z</time>
      </trkpt>
      <trkpt lat="43.53306" lon="5.57472">
        <ele>803.1</ele>
        <time>2023-05-28T09:14:14Z</time>
      </trkpt>
      <trkpt lat="43.53306" lon="5.57472">
        <ele>803.2</ele>
        <time>2023-05-28T09:14:15Z</time>
      </trkpt>
      <trkpt lat="43.53306" lon="5.57473">
        <ele>803.4</ele>
        <time>2023-05-28T09:14:16Z</time>
      </trkpt>
      <trkpt lat="43.53305" lon="5.57473">
        <ele>803.5</ele>
        <time>2023-05-28T09:14:17Z</time>
      </trkpt>
      <trkpt lat="43.53305" lon="5.57474">
        <ele>803.6</ele>
        <time>2023-05-28T09:14:18Z</time>
      </trkpt>
      <trkpt lat="43.53305" lon="5.57475">
        <ele>803.7</ele>
        <time>2023-05-28T09:14:19Z</time>
      </trkpt>
      <trkpt lat="43.53305" lon="5.57476">
        <ele>803.8</ele>
        <time>2023-05-28T09:14:20Z</time>
      </trkpt>
      <trkpt lat="43.53305" lon="5.57476">
        <ele>803.9</ele>
        <time>2023-05-28T09:14:21Z</time>
      </trkpt>
      <trkpt lat="43.53305" lon="5.57477">
        <ele>804</ele>
        <time>2023-05-28T09:14:22Z</time>
      </trkpt>
      <trkpt lat="43.53305" lon="5.57477">
        <ele>804.1</ele>
        <time>2023-05-28T09:14:23Z</time>
      </trkpt>
      <trkpt lat="43.53304" lon="5.57478">
        <ele>804.2</ele>
        <time>2023-05-28T09:14:24Z</time>
      </trkpt>
      <trkpt lat="43.53304" lon="5.57478">
        <ele>804.3</ele>
        <time>2023-05-28T09:14:25Z</time>
      </trkpt>
      <trkpt lat="43.53304" lon="5.57479">
        <ele>804.5</ele>
        <time>2023-05-28T09:14:26Z</time>
      </trkpt>
      <trkpt lat="43.53304" lon="5.5748">
        <ele>804.6</ele>
        <time>2023-05-28T09:14:27Z</time>
      </trkpt>
      <trkpt lat="43.53303" lon="5.5748">
        <ele>804.6</ele>
        <time>2023-05-28T09:14:28Z</time>
      </trkpt>
      <trkpt lat="43.53303" lon="5.57481">
        <ele>804.7</ele>
        <time>2023-05-28T09:14:29Z</time>
      </trkpt>
      <trkpt lat="43.53303" lon="5.57481">
        <ele>804.8</ele>
        <time>2023-05-28T09:14:30Z</time>
      </trkpt>
      <trkpt lat="43.53302" lon="5.57482">
        <ele>805</ele>
        <time>2023-05-28T09:14:31Z</time>
      </trkpt>
      <trkpt lat="43.53302" lon="5.57483">
        <ele>805.2</ele>
        <time>2023-05-28T09:14:32Z</time>
      </trkpt>
      <trkpt lat="43.53302" lon="5.57484">
        <ele>805.3</ele>
        <time>2023-05-28T09:14:33Z</time>
      </trkpt>
      <trkpt lat="43.53302" lon="5.57485">
        <ele>805.4</ele>
        <time>2023-05-28T09:14:34Z</time>
      </trkpt>
      <trkpt lat="43.53302" lon="5.57486">
        <ele>805.6</ele>
        <time>2023-05-28T09:14:35Z</time>
      </trkpt>
      <trkpt lat="43.53302" lon="5.57486">
        <ele>805.7</ele>
        <time>2023-05-28T09:14:36Z</time>
      </trkpt>
      <trkpt lat="43.53301" lon="5.57486">
        <ele>805.9</ele>
        <time>2023-05-28T09:14:37Z</time>
      </trkpt>
      <trkpt lat="43.53301" lon="5.57487">
        <ele>806.1</ele>
        <time>2023-05-28T09:14:38Z</time>
      </trkpt>
      <trkpt lat="43.53301" lon="5.57487">
        <ele>806.3</ele>
        <time>2023-05-28T09:14:39Z</time>
      </trkpt>
      <trkpt lat="43.53301" lon="5.57487">
        <ele>806.4</ele>
        <time>2023-05-28T09:14:40Z</time>
      </trkpt>
      <trkpt lat="43.533" lon="5.57487">
        <ele>806.5</ele>
        <time>2023-05-28T09:14:41Z</time>
      </trkpt>
      <trkpt lat="43.533" lon="5.57487">
        <ele>806.6</ele>
        <time>2023-05-28T09:14:42Z</time>
      </trkpt>
      <trkpt lat="43.533" lon="5.57488">
        <ele>806.7</ele>
        <time>2023-05-28T09:14:43Z</time>
      </trkpt>
      <trkpt lat="43.533" lon="5.57488">
        <ele>806.9</ele>
        <time>2023-05-28T09:14:44Z</time>
      </trkpt>
      <trkpt lat="43.533" lon="5.57489">
        <ele>807.2</ele>
        <time>2023-05-28T09:14:45Z</time>
      </trkpt>
      <trkpt lat="43.53299" lon="5.57489">
        <ele>807.5</ele>
        <time>2023-05-28T09:14:46Z</time>
      </trkpt>
      <trkpt lat="43.53299" lon="5.57489">
        <ele>807.7</ele>
        <time>2023-05-28T09:14:47Z</time>
      </trkpt>
      <trkpt lat="43.53299" lon="5.5749">
        <ele>807.8</ele>
        <time>2023-05-28T09:14:48Z</time>
      </trkpt>
      <trkpt lat="43.53298" lon="5.5749">
        <ele>808</ele>
        <time>2023-05-28T09:14:49Z</time>
      </trkpt>
      <trkpt lat="43.53298" lon="5.5749">
        <ele>808.2</ele>
        <time>2023-05-28T09:14:50Z</time>
      </trkpt>
      <trkpt lat="43.53298" lon="5.5749">
        <ele>808.4</ele>
        <time>2023-05-28T09:14:51Z</time>
      </trkpt>
      <trkpt lat="43.53297" lon="5.57491">
        <ele>808.5</ele>
        <time>2023-05-28T09:14:52Z</time>
      </trkpt>
      <trkpt lat="43.53297" lon="5.57491">
        <ele>808.6</ele>
        <time>2023-05-28T09:14:53Z</time>
      </trkpt>
      <trkpt lat="43.53296" lon="5.57491">
        <ele>808.7</ele>
        <time>2023-05-28T09:14:54Z</time>
      </trkpt>
      <trkpt lat="43.53296" lon="5.57492">
        <ele>808.8</ele>
        <time>2023-05-28T09:14:55Z</time>
      </trkpt>
      <trkpt lat="43.53296" lon="5.57492">
        <ele>808.9</ele>
        <time>2023-05-28T09:14:56Z</time>
      </trkpt>
      <trkpt lat="43.53296" lon="5.57492">
        <ele>809</ele>
        <time>2023-05-28T09:14:57Z</time>
      </trkpt>
      <trkpt lat="43.53296" lon="5.57492">
        <ele>809.2</ele>
        <time>2023-05-28T09:14:58Z</time>
      </trkpt>
      <trkpt lat="43.53295" lon="5.57492">
        <ele>809.2</ele>
        <time>2023-05-28T09:14:59Z</time>
      </trkpt>
      <trkpt lat="43.53295" lon="5.57492">
        <ele>809.3</ele>
        <time>2023-05-28T09:15:00Z</time>
      </trkpt>
      <trkpt lat="43.53295" lon="5.57493">
        <ele>809.4</ele>
        <time>2023-05-28T09:15:01Z</time>
      </trkpt>
      <trkpt lat="43.53295" lon="5.57493">
        <ele>809.5</ele>
        <time>2023-05-28T09:15:02Z</time>
      </trkpt>
      <trkpt lat="43.53295" lon="5.57494">
        <ele>809.6</ele>
        <time>2023-05-28T09:15:03Z</time>
      </trkpt>
      <trkpt lat="43.53295" lon="5.57494">
        <ele>809.6</ele>
        <time>2023-05-28T09:15:04Z</time>
      </trkpt>
      <trkpt lat="43.53295" lon="5.57494">
        <ele>809.7</ele>
        <time>2023-05-28T09:15:05Z</time>
      </trkpt>
      <trkpt lat="43.53295" lon="5.57495">
        <ele>809.7</ele>
        <time>2023-05-28T09:15:06Z</time>
      </trkpt>
      <trkpt lat="43.53294" lon="5.57496">
        <ele>809.8</ele>
        <time>2023-05-28T09:15:07Z</time>
      </trkpt>
      <trkpt lat="43.53294" lon="5.57496">
        <ele>809.9</ele>
        <time>2023-05-28T09:15:08Z</time>
      </trkpt>
      <trkpt lat="43.53294" lon="5.57496">
        <ele>810</ele>
        <time>2023-05-28T09:15:09Z</time>
      </trkpt>
      <trkpt lat="43.53294" lon="5.57497">
        <ele>810</ele>
        <time>2023-05-28T09:15:10Z</time>
      </trkpt>
      <trkpt lat="43.53294" lon="5.57498">
        <ele>810.1</ele>
        <time>2023-05-28T09:15:11Z</time>
      </trkpt>
      <trkpt lat="43.53294" lon="5.57499">
        <ele>810.3</ele>
        <time>2023-05-28T09:15:12Z</time>
      </trkpt>
      <trkpt lat="43.53295" lon="5.575">
        <ele>810.4</ele>
        <time>2023-05-28T09:15:13Z</time>
      </trkpt>
      <trkpt lat="43.53295" lon="5.575">
        <ele>810.5</ele>
        <time>2023-05-28T09:15:14Z</time>
      </trkpt>
      <trkpt lat="43.53294" lon="5.57501">
        <ele>810.6</ele>
        <time>2023-05-28T09:15:15Z</time>
      </trkpt>
      <trkpt lat="43.53294" lon="5.57501">
        <ele>810.7</ele>
        <time>2023-05-28T09:15:16Z</time>
      </trkpt>
      <trkpt lat="43.53293" lon="5.57502">
        <ele>810.9</ele>
        <time>2023-05-28T09:15:17Z</time>
      </trkpt>
      <trkpt lat="43.53293" lon="5.57503">
        <ele>811</ele>
        <time>2023-05-28T09:15:18Z</time>
      </trkpt>
      <trkpt lat="43.53293" lon="5.57503">
        <ele>811.1</ele>
        <time>2023-05-28T09:15:19Z</time>
      </trkpt>
      <trkpt lat="43.53292" lon="5.57504">
        <ele>811.2</ele>
        <time>2023-05-28T09:15:20Z</time>
      </trkpt>
      <trkpt lat="43.53292" lon="5.57504">
        <ele>811.2</ele>
        <time>2023-05-28T09:15:21Z</time>
      </trkpt>
      <trkpt lat="43.53291" lon="5.57504">
        <ele>811.3</ele>
        <time>2023-05-28T09:15:22Z</time>
      </trkpt>
      <trkpt lat="43.53291" lon="5.57504">
        <ele>811.4</ele>
        <time>2023-05-28T09:15:23Z</time>
      </trkpt>
      <trkpt lat="43.5329" lon="5.57504">
        <ele>811.6</ele>
        <time>2023-05-28T09:15:24Z</time>
      </trkpt>
      <trkpt lat="43.5329" lon="5.57505">
        <ele>811.7</ele>
        <time>2023-05-28T09:15:25Z</time>
      </trkpt>
      <trkpt lat="43.5329" lon="5.57505">
        <ele>811.8</ele>
        <time>2023-05-28T09:15:26Z</time>
      </trkpt>
      <trkpt lat="43.53289" lon="5.57505">
        <ele>812.1</ele>
        <time>2023-05-28T09:15:27Z</time>
      </trkpt>
      <trkpt lat="43.53289" lon="5.57506">
        <ele>812.3</ele>
        <time>2023-05-28T09:15:28Z</time>
      </trkpt>
      <trkpt lat="43.53288" lon="5.57506">
        <ele>812.4</ele>
        <time>2023-05-28T09:15:29Z</time>
      </trkpt>
      <trkpt lat="43.53288" lon="5.57507">
        <ele>812.7</ele>
        <time>2023-05-28T09:15:30Z</time>
      </trkpt>
      <trkpt lat="43.53287" lon="5.57507">
        <ele>812.8</ele>
        <time>2023-05-28T09:15:31Z</time>
      </trkpt>
      <trkpt lat="43.53287" lon="5.57508">
        <ele>813</ele>
        <time>2023-05-28T09:15:32Z</time>
      </trkpt>
      <trkpt lat="43.53287" lon="5.57508">
        <ele>813.1</ele>
        <time>2023-05-28T09:15:33Z</time>
      </trkpt>
      <trkpt lat="43.53286" lon="5.57509">
        <ele>813.3</ele>
        <time>2023-05-28T09:15:34Z</time>
      </trkpt>
      <trkpt lat="43.53286" lon="5.57509">
        <ele>813.4</ele>
        <time>2023-05-28T09:15:35Z</time>
      </trkpt>
      <trkpt lat="43.53286" lon="5.5751">
        <ele>813.5</ele>
        <time>2023-05-28T09:15:36Z</time>
      </trkpt>
      <trkpt lat="43.53285" lon="5.57511">
        <ele>813.6</ele>
        <time>2023-05-28T09:15:37Z</time>
      </trkpt>
      <trkpt lat="43.53285" lon="5.57512">
        <ele>813.8</ele>
        <time>2023-05-28T09:15:38Z</time>
      </trkpt>
      <trkpt lat="43.53285" lon="5.57512">
        <ele>814</ele>
        <time>2023-05-28T09:15:39Z</time>
      </trkpt>
      <trkpt lat="43.53284" lon="5.57512">
        <ele>814.1</ele>
        <time>2023-05-28T09:15:40Z</time>
      </trkpt>
      <trkpt lat="43.53284" lon="5.57513">
        <ele>814.3</ele>
        <time>2023-05-28T09:15:41Z</time>
      </trkpt>
      <trkpt lat="43.53284" lon="5.57513">
        <ele>814.5</ele>
        <time>2023-05-28T09:15:42Z</time>
      </trkpt>
      <trkpt lat="43.53283" lon="5.57514">
        <ele>814.6</ele>
        <time>2023-05-28T09:15:43Z</time>
      </trkpt>
      <trkpt lat="43.53283" lon="5.57514">
        <ele>814.8</ele>
        <time>2023-05-28T09:15:44Z</time>
      </trkpt>
      <trkpt lat="43.53283" lon="5.57514">
        <ele>814.9</ele>
        <time>2023-05-28T09:15:45Z</time>
      </trkpt>
      <trkpt lat="43.53282" lon="5.57514">
        <ele>815.1</ele>
        <time>2023-05-28T09:15:46Z</time>
      </trkpt>
      <trkpt lat="43.53282" lon="5.57515">
        <ele>815.3</ele>
        <time>2023-05-28T09:15:47Z</time>
      </trkpt>
      <trkpt lat="43.53282" lon="5.57515">
        <ele>815.5</ele>
        <time>2023-05-28T09:15:48Z</time>
      </trkpt>
      <trkpt lat="43.53281" lon="5.57516">
        <ele>815.6</ele>
        <time>2023-05-28T09:15:49Z</time>
      </trkpt>
      <trkpt lat="43.53281" lon="5.57516">
        <ele>815.7</ele>
        <time>2023-05-28T09:15:50Z</time>
      </trkpt>
      <trkpt lat="43.53281" lon="5.57516">
        <ele>815.8</ele>
        <time>2023-05-28T09:15:51Z</time>
      </trkpt>
      <trkpt lat="43.5328" lon="5.57517">
        <ele>816</ele>
        <time>2023-05-28T09:15:52Z</time>
      </trkpt>
      <trkpt lat="43.5328" lon="5.57517">
        <ele>816.1</ele>
        <time>2023-05-28T09:15:53Z</time>
      </trkpt>
      <trkpt lat="43.5328" lon="5.57518">
        <ele>816.2</ele>
        <time>2023-05-28T09:15:54Z</time>
      </trkpt>
      <trkpt lat="43.5328" lon="5.57518">
        <ele>816.4</ele>
        <time>2023-05-28T09:15:55Z</time>
      </trkpt>
      <trkpt lat="43.53279" lon="5.57519">
        <ele>816.5</ele>
        <time>2023-05-28T09:15:56Z</time>
      </trkpt>
      <trkpt lat="43.53279" lon="5.57519">
        <ele>816.6</ele>
        <time>2023-05-28T09:15:57Z</time>
      </trkpt>
      <trkpt lat="43.53279" lon="5.5752">
        <ele>816.8</ele>
        <time>2023-05-28T09:15:58Z</time>
      </trkpt>
      <trkpt lat="43.53279" lon="5.5752">
        <ele>816.9</ele>
        <time>2023-05-28T09:15:59Z</time>
      </trkpt>
      <trkpt lat="43.53279" lon="5.5752">
        <ele>817</ele>
        <time>2023-05-28T09:16:00Z</time>
      </trkpt>
      <trkpt lat="43.53279" lon="5.5752">
        <ele>817.1</ele>
        <time>2023-05-28T09:16:01Z</time>
      </trkpt>
      <trkpt lat="43.53279" lon="5.5752">
        <ele>817.2</ele>
        <time>2023-05-28T09:16:02Z</time>
      </trkpt>
      <trkpt lat="43.53279" lon="5.5752">
        <ele>817.3</ele>
        <time>2023-05-28T09:16:03Z</time>
      </trkpt>
      <trkpt lat="43.53279" lon="5.5752">
        <ele>817.3</ele>
        <time>2023-05-28T09:16:04Z</time>
      </trkpt>
      <trkpt lat="43.53278" lon="5.5752">
        <ele>817.4</ele>
        <time>2023-05-28T09:16:05Z</time>
      </trkpt>
      <trkpt lat="43.53278" lon="5.5752">
        <ele>817.4</ele>
        <time>2023-05-28T09:16:06Z</time>
      </trkpt>
      <trkpt lat="43.53278" lon="5.57521">
        <ele>817.6</ele>
        <time>2023-05-28T09:16:07Z</time>
      </trkpt>
      <trkpt lat="43.53277" lon="5.57521">
        <ele>817.7</ele>
        <time>2023-05-28T09:16:08Z</time>
      </trkpt>
      <trkpt lat="43.53277" lon="5.57522">
        <ele>817.8</ele>
        <time>2023-05-28T09:16:09Z</time>
      </trkpt>
      <trkpt lat="43.53276" lon="5.57522">
        <ele>817.9</ele>
        <time>2023-05-28T09:16:10Z</time>
      </trkpt>
      <trkpt lat="43.53276" lon="5.57522">
        <ele>818</ele>
        <time>2023-05-28T09:16:11Z</time>
      </trkpt>
      <trkpt lat="43.53275" lon="5.57522">
        <ele>818.1</ele>
        <time>2023-05-28T09:16:12Z</time>
      </trkpt>
      <trkpt lat="43.53275" lon="5.57523">
        <ele>818.2</ele>
        <time>2023-05-28T09:16:13Z</time>
      </trkpt>
      <trkpt lat="43.53275" lon="5.57523">
        <ele>818.6</ele>
        <time>2023-05-28T09:16:14Z</time>
      </trkpt>
      <trkpt lat="43.53274" lon="5.57523">
        <ele>818.9</ele>
        <time>2023-05-28T09:16:15Z</time>
      </trkpt>
      <trkpt lat="43.53274" lon="5.57523">
        <ele>819.2</ele>
        <time>2023-05-28T09:16:16Z</time>
      </trkpt>
      <trkpt lat="43.53273" lon="5.57522">
        <ele>819.4</ele>
        <time>2023-05-28T09:16:17Z</time>
      </trkpt>
      <trkpt lat="43.53273" lon="5.57522">
        <ele>819.6</ele>
        <time>2023-05-28T09:16:18Z</time>
      </trkpt>
      <trkpt lat="43.53272" lon="5.57521">
        <ele>819.8</ele>
        <time>2023-05-28T09:16:19Z</time>
      </trkpt>
      <trkpt lat="43.53272" lon="5.57521">
        <ele>819.9</ele>
        <time>2023-05-28T09:16:20Z</time>
      </trkpt>
      <trkpt lat="43.53271" lon="5.57521">
        <ele>820</ele>
        <time>2023-05-28T09:16:21Z</time>
      </trkpt>
      <trkpt lat="43.53271" lon="5.57521">
        <ele>820.1</ele>
        <time>2023-05-28T09:16:22Z</time>
      </trkpt>
      <trkpt lat="43.53271" lon="5.5752">
        <ele>820.3</ele>
        <time>2023-05-28T09:16:23Z</time>
      </trkpt>
      <trkpt lat="43.53271" lon="5.5752">
        <ele>820.4</ele>
        <time>2023-05-28T09:16:24Z</time>
      </trkpt>
      <trkpt lat="43.5327" lon="5.57521">
        <ele>820.5</ele>
        <time>2023-05-28T09:16:25Z</time>
      </trkpt>
      <trkpt lat="43.5327" lon="5.57521">
        <ele>820.8</ele>
        <time>2023-05-28T09:16:26Z</time>
      </trkpt>
      <trkpt lat="43.53269" lon="5.57521">
        <ele>820.9</ele>
        <time>2023-05-28T09:16:27Z</time>
      </trkpt>
      <trkpt lat="43.53269" lon="5.57521">
        <ele>821</ele>
        <time>2023-05-28T09:16:28Z</time>
      </trkpt>
      <trkpt lat="43.53268" lon="5.57521">
        <ele>821.2</ele>
        <time>2023-05-28T09:16:29Z</time>
      </trkpt>
      <trkpt lat="43.53268" lon="5.57521">
        <ele>821.3</ele>
        <time>2023-05-28T09:16:30Z</time>
      </trkpt>
      <trkpt lat="43.53267" lon="5.57522">
        <ele>821.4</ele>
        <time>2023-05-28T09:16:31Z</time>
      </trkpt>
      <trkpt lat="43.53267" lon="5.57523">
        <ele>821.5</ele>
        <time>2023-05-28T09:16:32Z</time>
      </trkpt>
      <trkpt lat="43.53267" lon="5.57523">
        <ele>821.6</ele>
        <time>2023-05-28T09:16:33Z</time>
      </trkpt>
      <trkpt lat="43.53267" lon="5.57523">
        <ele>821.7</ele>
        <time>2023-05-28T09:16:34Z</time>
      </trkpt>
      <trkpt lat="43.53267" lon="5.57523">
        <ele>821.8</ele>
        <time>2023-05-28T09:16:35Z</time>
      </trkpt>
      <trkpt lat="43.53266" lon="5.57524">
        <ele>822</ele>
        <time>2023-05-28T09:16:36Z</time>
      </trkpt>
      <trkpt lat="43.53266" lon="5.57525">
        <ele>822.2</ele>
        <time>2023-05-28T09:16:37Z</time>
      </trkpt>
      <trkpt lat="43.53266" lon="5.57525">
        <ele>822.3</ele>
        <time>2023-05-28T09:16:38Z</time>
      </trkpt>
      <trkpt lat="43.53266" lon="5.57525">
        <ele>822.5</ele>
        <time>2023-05-28T09:16:39Z</time>
      </trkpt>
      <trkpt lat="43.53265" lon="5.57525">
        <ele>822.7</ele>
        <time>2023-05-28T09:16:40Z</time>
      </trkpt>
      <trkpt lat="43.53265" lon="5.57526">
        <ele>822.8</ele>
        <time>2023-05-28T09:16:41Z</time>
      </trkpt>
      <trkpt lat="43.53265" lon="5.57526">
        <ele>822.9</ele>
        <time>2023-05-28T09:16:42Z</time>
      </trkpt>
      <trkpt lat="43.53265" lon="5.57527">
        <ele>823.1</ele>
        <time>2023-05-28T09:16:43Z</time>
      </trkpt>
      <trkpt lat="43.53264" lon="5.57527">
        <ele>823.3</ele>
        <time>2023-05-28T09:16:44Z</time>
      </trkpt>
      <trkpt lat="43.53264" lon="5.57527">
        <ele>823.5</ele>
        <time>2023-05-28T09:16:45Z</time>
      </trkpt>
      <trkpt lat="43.53263" lon="5.57528">
        <ele>823.6</ele>
        <time>2023-05-28T09:16:46Z</time>
      </trkpt>
      <trkpt lat="43.53263" lon="5.57529">
        <ele>823.8</ele>
        <time>2023-05-28T09:16:47Z</time>
      </trkpt>
      <trkpt lat="43.53263" lon="5.57529">
        <ele>824</ele>
        <time>2023-05-28T09:16:48Z</time>
      </trkpt>
      <trkpt lat="43.53262" lon="5.5753">
        <ele>824.1</ele>
        <time>2023-05-28T09:16:49Z</time>
      </trkpt>
      <trkpt lat="43.53262" lon="5.5753">
        <ele>824.3</ele>
        <time>2023-05-28T09:16:50Z</time>
      </trkpt>
      <trkpt lat="43.53262" lon="5.5753">
        <ele>824.5</ele>
        <time>2023-05-28T09:16:51Z</time>
      </trkpt>
      <trkpt lat="43.53261" lon="5.57531">
        <ele>824.8</ele>
        <time>2023-05-28T09:16:52Z</time>
      </trkpt>
      <trkpt lat="43.53261" lon="5.57531">
        <ele>825</ele>
        <time>2023-05-28T09:16:53Z</time>
      </trkpt>
      <trkpt lat="43.5326" lon="5.57531">
        <ele>825.2</ele>
        <time>2023-05-28T09:16:54Z</time>
      </trkpt>
      <trkpt lat="43.5326" lon="5.57532">
        <ele>825.4</ele>
        <time>2023-05-28T09:16:55Z</time>
      </trkpt>
      <trkpt lat="43.5326" lon="5.57532">
        <ele>825.6</ele>
        <time>2023-05-28T09:16:56Z</time>
      </trkpt>
      <trkpt lat="43.53259" lon="5.57532">
        <ele>825.7</ele>
        <time>2023-05-28T09:16:57Z</time>
      </trkpt>
      <trkpt lat="43.53259" lon="5.57532">
        <ele>825.8</ele>
        <time>2023-05-28T09:16:58Z</time>
      </trkpt>
      <trkpt lat="43.53259" lon="5.57533">
        <ele>825.9</ele>
        <time>2023-05-28T09:16:59Z</time>
      </trkpt>
      <trkpt lat="43.53259" lon="5.57534">
        <ele>826</ele>
        <time>2023-05-28T09:17:00Z</time>
      </trkpt>
      <trkpt lat="43.53259" lon="5.57534">
        <ele>826.1</ele>
        <time>2023-05-28T09:17:01Z</time>
      </trkpt>
      <trkpt lat="43.53258" lon="5.57534">
        <ele>826.1</ele>
        <time>2023-05-28T09:17:02Z</time>
      </trkpt>
      <trkpt lat="43.53258" lon="5.57534">
        <ele>826.2</ele>
        <time>2023-05-28T09:17:03Z</time>
      </trkpt>
      <trkpt lat="43.53258" lon="5.57535">
        <ele>826.3</ele>
        <time>2023-05-28T09:17:04Z</time>
      </trkpt>
      <trkpt lat="43.53257" lon="5.57535">
        <ele>826.5</ele>
        <time>2023-05-28T09:17:05Z</time>
      </trkpt>
      <trkpt lat="43.53257" lon="5.57536">
        <ele>826.6</ele>
        <time>2023-05-28T09:17:06Z</time>
      </trkpt>
      <trkpt lat="43.53256" lon="5.57536">
        <ele>826.7</ele>
        <time>2023-05-28T09:17:07Z</time>
      </trkpt>
      <trkpt lat="43.53256" lon="5.57537">
        <ele>826.8</ele>
        <time>2023-05-28T09:17:08Z</time>
      </trkpt>
      <trkpt lat="43.53255" lon="5.57537">
        <ele>827</ele>
        <time>2023-05-28T09:17:09Z</time>
      </trkpt>
      <trkpt lat="43.53255" lon="5.57538">
        <ele>827.1</ele>
        <time>2023-05-28T09:17:10Z</time>
      </trkpt>
      <trkpt lat="43.53255" lon="5.57539">
        <ele>827.1</ele>
        <time>2023-05-28T09:17:11Z</time>
      </trkpt>
      <trkpt lat="43.53255" lon="5.57539">
        <ele>827.3</ele>
        <time>2023-05-28T09:17:12Z</time>
      </trkpt>
      <trkpt lat="43.53255" lon="5.5754">
        <ele>827.3</ele>
        <time>2023-05-28T09:17:13Z</time>
      </trkpt>
      <trkpt lat="43.53255" lon="5.5754">
        <ele>827.4</ele>
        <time>2023-05-28T09:17:14Z</time>
      </trkpt>
      <trkpt lat="43.53255" lon="5.5754">
        <ele>827.5</ele>
        <time>2023-05-28T09:17:15Z</time>
      </trkpt>
      <trkpt lat="43.53255" lon="5.57541">
        <ele>827.6</ele>
        <time>2023-05-28T09:17:16Z</time>
      </trkpt>
      <trkpt lat="43.53255" lon="5.57542">
        <ele>827.6</ele>
        <time>2023-05-28T09:17:17Z</time>
      </trkpt>
      <trkpt lat="43.53255" lon="5.57543">
        <ele>827.7</ele>
        <time>2023-05-28T09:17:18Z</time>
      </trkpt>
      <trkpt lat="43.53255" lon="5.57544">
        <ele>827.8</ele>
        <time>2023-05-28T09:17:19Z</time>
      </trkpt>
      <trkpt lat="43.53254" lon="5.57545">
        <ele>827.8</ele>
        <time>2023-05-28T09:17:20Z</time>
      </trkpt>
      <trkpt lat="43.53254" lon="5.57545">
        <ele>827.8</ele>
        <time>2023-05-28T09:17:21Z</time>
      </trkpt>
      <trkpt lat="43.53254" lon="5.57546">
        <ele>827.9</ele>
        <time>2023-05-28T09:17:22Z</time>
      </trkpt>
      <trkpt lat="43.53254" lon="5.57546">
        <ele>828</ele>
        <time>2023-05-28T09:17:23Z</time>
      </trkpt>
      <trkpt lat="43.53253" lon="5.57546">
        <ele>828.1</ele>
        <time>2023-05-28T09:17:24Z</time>
      </trkpt>
      <trkpt lat="43.53253" lon="5.57545">
        <ele>828.3</ele>
        <time>2023-05-28T09:17:25Z</time>
      </trkpt>
      <trkpt lat="43.53253" lon="5.57545">
        <ele>828.4</ele>
        <time>2023-05-28T09:17:26Z</time>
      </trkpt>
      <trkpt lat="43.53253" lon="5.57545">
        <ele>828.6</ele>
        <time>2023-05-28T09:17:27Z</time>
      </trkpt>
      <trkpt lat="43.53252" lon="5.57545">
        <ele>828.6</ele>
        <time>2023-05-28T09:17:28Z</time>
      </trkpt>
      <trkpt lat="43.53252" lon="5.57545">
        <ele>828.8</ele>
        <time>2023-05-28T09:17:29Z</time>
      </trkpt>
      <trkpt lat="43.53252" lon="5.57545">
        <ele>828.9</ele>
        <time>2023-05-28T09:17:30Z</time>
      </trkpt>
      <trkpt lat="43.53251" lon="5.57545">
        <ele>829.2</ele>
        <time>2023-05-28T09:17:31Z</time>
      </trkpt>
      <trkpt lat="43.53251" lon="5.57545">
        <ele>829.3</ele>
        <time>2023-05-28T09:17:32Z</time>
      </trkpt>
      <trkpt lat="43.53251" lon="5.57545">
        <ele>829.4</ele>
        <time>2023-05-28T09:17:33Z</time>
      </trkpt>
      <trkpt lat="43.5325" lon="5.57545">
        <ele>829.5</ele>
        <time>2023-05-28T09:17:34Z</time>
      </trkpt>
      <trkpt lat="43.5325" lon="5.57546">
        <ele>829.8</ele>
        <time>2023-05-28T09:17:35Z</time>
      </trkpt>
      <trkpt lat="43.5325" lon="5.57546">
        <ele>830.1</ele>
        <time>2023-05-28T09:17:36Z</time>
      </trkpt>
      <trkpt lat="43.53249" lon="5.57547">
        <ele>830.2</ele>
        <time>2023-05-28T09:17:37Z</time>
      </trkpt>
      <trkpt lat="43.53249" lon="5.57548">
        <ele>830.3</ele>
        <time>2023-05-28T09:17:38Z</time>
      </trkpt>
      <trkpt lat="43.53249" lon="5.57548">
        <ele>830.3</ele>
        <time>2023-05-28T09:17:39Z</time>
      </trkpt>
      <trkpt lat="43.53249" lon="5.57549">
        <ele>830.4</ele>
        <time>2023-05-28T09:17:40Z</time>
      </trkpt>
      <trkpt lat="43.53249" lon="5.5755">
        <ele>830.5</ele>
        <time>2023-05-28T09:17:41Z</time>
      </trkpt>
      <trkpt lat="43.53248" lon="5.57549">
        <ele>830.5</ele>
        <time>2023-05-28T09:17:42Z</time>
      </trkpt>
      <trkpt lat="43.53248" lon="5.57549">
        <ele>830.6</ele>
        <time>2023-05-28T09:17:43Z</time>
      </trkpt>
      <trkpt lat="43.53248" lon="5.57549">
        <ele>830.7</ele>
        <time>2023-05-28T09:17:44Z</time>
      </trkpt>
      <trkpt lat="43.53248" lon="5.5755">
        <ele>830.8</ele>
        <time>2023-05-28T09:17:45Z</time>
      </trkpt>
      <trkpt lat="43.53247" lon="5.57551">
        <ele>831</ele>
        <time>2023-05-28T09:17:46Z</time>
      </trkpt>
      <trkpt lat="43.53247" lon="5.57551">
        <ele>831.1</ele>
        <time>2023-05-28T09:17:47Z</time>
      </trkpt>
      <trkpt lat="43.53247" lon="5.57552">
        <ele>831.2</ele>
        <time>2023-05-28T09:17:48Z</time>
      </trkpt>
      <trkpt lat="43.53246" lon="5.57552">
        <ele>831.4</ele>
        <time>2023-05-28T09:17:49Z</time>
      </trkpt>
      <trkpt lat="43.53246" lon="5.57552">
        <ele>831.5</ele>
        <time>2023-05-28T09:17:50Z</time>
      </trkpt>
      <trkpt lat="43.53246" lon="5.57553">
        <ele>831.6</ele>
        <time>2023-05-28T09:17:51Z</time>
      </trkpt>
      <trkpt lat="43.53246" lon="5.57554">
        <ele>831.7</ele>
        <time>2023-05-28T09:17:52Z</time>
      </trkpt>
      <trkpt lat="43.53246" lon="5.57554">
        <ele>831.9</ele>
        <time>2023-05-28T09:17:53Z</time>
      </trkpt>
      <trkpt lat="43.53245" lon="5.57555">
        <ele>832</ele>
        <time>2023-05-28T09:17:54Z</time>
      </trkpt>
      <trkpt lat="43.53245" lon="5.57555">
        <ele>832.1</ele>
        <time>2023-05-28T09:17:55Z</time>
      </trkpt>
      <trkpt lat="43.53245" lon="5.57556">
        <ele>832.2</ele>
        <time>2023-05-28T09:17:56Z</time>
      </trkpt>
      <trkpt lat="43.53245" lon="5.57556">
        <ele>832.3</ele>
        <time>2023-05-28T09:17:57Z</time>
      </trkpt>
      <trkpt lat="43.53245" lon="5.57556">
        <ele>832.4</ele>
        <time>2023-05-28T09:17:58Z</time>
      </trkpt>
      <trkpt lat="43.53245" lon="5.57557">
        <ele>832.6</ele>
        <time>2023-05-28T09:17:59Z</time>
      </trkpt>
      <trkpt lat="43.53244" lon="5.57557">
        <ele>832.7</ele>
        <time>2023-05-28T09:18:00Z</time>
      </trkpt>
      <trkpt lat="43.53244" lon="5.57557">
        <ele>832.9</ele>
        <time>2023-05-28T09:18:01Z</time>
      </trkpt>
      <trkpt lat="43.53243" lon="5.57557">
        <ele>833</ele>
        <time>2023-05-28T09:18:02Z</time>
      </trkpt>
      <trkpt lat="43.53243" lon="5.57557">
        <ele>833.2</ele>
        <time>2023-05-28T09:18:03Z</time>
      </trkpt>
      <trkpt lat="43.53243" lon="5.57558">
        <ele>833.3</ele>
        <time>2023-05-28T09:18:04Z</time>
      </trkpt>
      <trkpt lat="43.53243" lon="5.57558">
        <ele>833.3</ele>
        <time>2023-05-28T09:18:05Z</time>
      </trkpt>
      <trkpt lat="43.53243" lon="5.57559">
        <ele>833.5</ele>
        <time>2023-05-28T09:18:06Z</time>
      </trkpt>
      <trkpt lat="43.53242" lon="5.5756">
        <ele>833.6</ele>
        <time>2023-05-28T09:18:07Z</time>
      </trkpt>
      <trkpt lat="43.53242" lon="5.5756">
        <ele>833.8</ele>
        <time>2023-05-28T09:18:08Z</time>
      </trkpt>
      <trkpt lat="43.53242" lon="5.57561">
        <ele>834</ele>
        <time>2023-05-28T09:18:09Z</time>
      </trkpt>
      <trkpt lat="43.53242" lon="5.57562">
        <ele>834.1</ele>
        <time>2023-05-28T09:18:10Z</time>
      </trkpt>
      <trkpt lat="43.53241" lon="5.57562">
        <ele>834.2</ele>
        <time>2023-05-28T09:18:11Z</time>
      </trkpt>
      <trkpt lat="43.53241" lon="5.57562">
        <ele>834.3</ele>
        <time>2023-05-28T09:18:12Z</time>
      </trkpt>
      <trkpt lat="43.53241" lon="5.57563">
        <ele>834.5</ele>
        <time>2023-05-28T09:18:13Z</time>
      </trkpt>
      <trkpt lat="43.53241" lon="5.57563">
        <ele>834.6</ele>
        <time>2023-05-28T09:18:14Z</time>
      </trkpt>
      <trkpt lat="43.53241" lon="5.57564">
        <ele>834.7</ele>
        <time>2023-05-28T09:18:15Z</time>
      </trkpt>
      <trkpt lat="43.53241" lon="5.57565">
        <ele>834.9</ele>
        <time>2023-05-28T09:18:16Z</time>
      </trkpt>
      <trkpt lat="43.53241" lon="5.57566">
        <ele>835</ele>
        <time>2023-05-28T09:18:17Z</time>
      </trkpt>
      <trkpt lat="43.53241" lon="5.57567">
        <ele>835.2</ele>
        <time>2023-05-28T09:18:18Z</time>
      </trkpt>
      <trkpt lat="43.53241" lon="5.57568">
        <ele>835.3</ele>
        <time>2023-05-28T09:18:19Z</time>
      </trkpt>
      <trkpt lat="43.5324" lon="5.57568">
        <ele>835.4</ele>
        <time>2023-05-28T09:18:20Z</time>
      </trkpt>
      <trkpt lat="43.5324" lon="5.57568">
        <ele>835.6</ele>
        <time>2023-05-28T09:18:21Z</time>
      </trkpt>
      <trkpt lat="43.5324" lon="5.57568">
        <ele>835.7</ele>
        <time>2023-05-28T09:18:22Z</time>
      </trkpt>
      <trkpt lat="43.5324" lon="5.57568">
        <ele>835.8</ele>
        <time>2023-05-28T09:18:23Z</time>
      </trkpt>
      <trkpt lat="43.5324" lon="5.57568">
        <ele>835.9</ele>
        <time>2023-05-28T09:18:24Z</time>
      </trkpt>
      <trkpt lat="43.53239" lon="5.57568">
        <ele>835.9</ele>
        <time>2023-05-28T09:18:25Z</time>
      </trkpt>
      <trkpt lat="43.53239" lon="5.57568">
        <ele>836.1</ele>
        <time>2023-05-28T09:18:26Z</time>
      </trkpt>
      <trkpt lat="43.53238" lon="5.57568">
        <ele>836.3</ele>
        <time>2023-05-28T09:18:27Z</time>
      </trkpt>
      <trkpt lat="43.53238" lon="5.57569">
        <ele>836.5</ele>
        <time>2023-05-28T09:18:28Z</time>
      </trkpt>
      <trkpt lat="43.53237" lon="5.57569">
        <ele>836.7</ele>
        <time>2023-05-28T09:18:29Z</time>
      </trkpt>
      <trkpt lat="43.53237" lon="5.5757">
        <ele>836.9</ele>
        <time>2023-05-28T09:18:30Z</time>
      </trkpt>
      <trkpt lat="43.53237" lon="5.5757">
        <ele>837.1</ele>
        <time>2023-05-28T09:18:31Z</time>
      </trkpt>
      <trkpt lat="43.53237" lon="5.57571">
        <ele>837.2</ele>
        <time>2023-05-28T09:18:32Z</time>
      </trkpt>
      <trkpt lat="43.53236" lon="5.57571">
        <ele>837.4</ele>
        <time>2023-05-28T09:18:33Z</time>
      </trkpt>
      <trkpt lat="43.53236" lon="5.57571">
        <ele>837.5</ele>
        <time>2023-05-28T09:18:34Z</time>
      </trkpt>
      <trkpt lat="43.53236" lon="5.57572">
        <ele>837.7</ele>
        <time>2023-05-28T09:18:35Z</time>
      </trkpt>
      <trkpt lat="43.53236" lon="5.57572">
        <ele>837.9</ele>
        <time>2023-05-28T09:18:36Z</time>
      </trkpt>
      <trkpt lat="43.53235" lon="5.57572">
        <ele>838</ele>
        <time>2023-05-28T09:18:37Z</time>
      </trkpt>
      <trkpt lat="43.53235" lon="5.57573">
        <ele>838.2</ele>
        <time>2023-05-28T09:18:38Z</time>
      </trkpt>
      <trkpt lat="43.53235" lon="5.57573">
        <ele>838.4</ele>
        <time>2023-05-28T09:18:39Z</time>
      </trkpt>
      <trkpt lat="43.53235" lon="5.57573">
        <ele>838.5</ele>
        <time>2023-05-28T09:18:40Z</time>
      </trkpt>
      <trkpt lat="43.53234" lon="5.57573">
        <ele>838.7</ele>
        <time>2023-05-28T09:18:41Z</time>
      </trkpt>
      <trkpt lat="43.53234" lon="5.57573">
        <ele>838.8</ele>
        <time>2023-05-28T09:18:42Z</time>
      </trkpt>
      <trkpt lat="43.53233" lon="5.57573">
        <ele>838.9</ele>
        <time>2023-05-28T09:18:43Z</time>
      </trkpt>
      <trkpt lat="43.53233" lon="5.57573">
        <ele>839.1</ele>
        <time>2023-05-28T09:18:44Z</time>
      </trkpt>
      <trkpt lat="43.53233" lon="5.57573">
        <ele>839.3</ele>
        <time>2023-05-28T09:18:45Z</time>
      </trkpt>
      <trkpt lat="43.53232" lon="5.57573">
        <ele>839.5</ele>
        <time>2023-05-28T09:18:46Z</time>
      </trkpt>
      <trkpt lat="43.53232" lon="5.57573">
        <ele>839.6</ele>
        <time>2023-05-28T09:18:47Z</time>
      </trkpt>
      <trkpt lat="43.53232" lon="5.57573">
        <ele>839.8</ele>
        <time>2023-05-28T09:18:48Z</time>
      </trkpt>
      <trkpt lat="43.53231" lon="5.57572">
        <ele>839.9</ele>
        <time>2023-05-28T09:18:49Z</time>
      </trkpt>
      <trkpt lat="43.53231" lon="5.57572">
        <ele>840</ele>
        <time>2023-05-28T09:18:50Z</time>
      </trkpt>
      <trkpt lat="43.53231" lon="5.57572">
        <ele>840.2</ele>
        <time>2023-05-28T09:18:51Z</time>
      </trkpt>
      <trkpt lat="43.53231" lon="5.57572">
        <ele>840.4</ele>
        <time>2023-05-28T09:18:52Z</time>
      </trkpt>
      <trkpt lat="43.5323" lon="5.57572">
        <ele>840.5</ele>
        <time>2023-05-28T09:18:53Z</time>
      </trkpt>
      <trkpt lat="43.5323" lon="5.57572">
        <ele>840.6</ele>
        <time>2023-05-28T09:18:54Z</time>
      </trkpt>
      <trkpt lat="43.5323" lon="5.57572">
        <ele>840.7</ele>
        <time>2023-05-28T09:18:55Z</time>
      </trkpt>
      <trkpt lat="43.5323" lon="5.57572">
        <ele>840.9</ele>
        <time>2023-05-28T09:18:56Z</time>
      </trkpt>
      <trkpt lat="43.5323" lon="5.57573">
        <ele>841</ele>
        <time>2023-05-28T09:18:57Z</time>
      </trkpt>
      <trkpt lat="43.53229" lon="5.57573">
        <ele>841.1</ele>
        <time>2023-05-28T09:18:58Z</time>
      </trkpt>
      <trkpt lat="43.53229" lon="5.57573">
        <ele>841.3</ele>
        <time>2023-05-28T09:18:59Z</time>
      </trkpt>
      <trkpt lat="43.53228" lon="5.57573">
        <ele>841.6</ele>
        <time>2023-05-28T09:19:00Z</time>
      </trkpt>
      <trkpt lat="43.53228" lon="5.57574">
        <ele>841.8</ele>
        <time>2023-05-28T09:19:01Z</time>
      </trkpt>
      <trkpt lat="43.53228" lon="5.57574">
        <ele>842</ele>
        <time>2023-05-28T09:19:02Z</time>
      </trkpt>
      <trkpt lat="43.53227" lon="5.57574">
        <ele>842.2</ele>
        <time>2023-05-28T09:19:03Z</time>
      </trkpt>
      <trkpt lat="43.53227" lon="5.57575">
        <ele>842.4</ele>
        <time>2023-05-28T09:19:04Z</time>
      </trkpt>
      <trkpt lat="43.53227" lon="5.57575">
        <ele>842.6</ele>
        <time>2023-05-28T09:19:05Z</time>
      </trkpt>
      <trkpt lat="43.53226" lon="5.57575">
        <ele>842.8</ele>
        <time>2023-05-28T09:19:06Z</time>
      </trkpt>
      <trkpt lat="43.53226" lon="5.57576">
        <ele>843</ele>
        <time>2023-05-28T09:19:07Z</time>
      </trkpt>
      <trkpt lat="43.53226" lon="5.57576">
        <ele>843.1</ele>
        <time>2023-05-28T09:19:08Z</time>
      </trkpt>
      <trkpt lat="43.53225" lon="5.57577">
        <ele>843.2</ele>
        <time>2023-05-28T09:19:09Z</time>
      </trkpt>
      <trkpt lat="43.53225" lon="5.57577">
        <ele>843.4</ele>
        <time>2023-05-28T09:19:10Z</time>
      </trkpt>
      <trkpt lat="43.53225" lon="5.57577">
        <ele>843.5</ele>
        <time>2023-05-28T09:19:11Z</time>
      </trkpt>
      <trkpt lat="43.53225" lon="5.57578">
        <ele>843.6</ele>
        <time>2023-05-28T09:19:12Z</time>
      </trkpt>
      <trkpt lat="43.53225" lon="5.57578">
        <ele>843.7</ele>
        <time>2023-05-28T09:19:13Z</time>
      </trkpt>
      <trkpt lat="43.53224" lon="5.57579">
        <ele>843.8</ele>
        <time>2023-05-28T09:19:14Z</time>
      </trkpt>
      <trkpt lat="43.53224" lon="5.5758">
        <ele>844</ele>
        <time>2023-05-28T09:19:15Z</time>
      </trkpt>
      <trkpt lat="43.53224" lon="5.57581">
        <ele>844.1</ele>
        <time>2023-05-28T09:19:16Z</time>
      </trkpt>
      <trkpt lat="43.53224" lon="5.57581">
        <ele>844.3</ele>
        <time>2023-05-28T09:19:17Z</time>
      </trkpt>
      <trkpt lat="43.53224" lon="5.57582">
        <ele>844.4</ele>
        <time>2023-05-28T09:19:18Z</time>
      </trkpt>
      <trkpt lat="43.53224" lon="5.57583">
        <ele>844.5</ele>
        <time>2023-05-28T09:19:19Z</time>
      </trkpt>
      <trkpt lat="43.53224" lon="5.57584">
        <ele>844.8</ele>
        <time>2023-05-28T09:19:20Z</time>
      </trkpt>
      <trkpt lat="43.53224" lon="5.57585">
        <ele>844.9</ele>
        <time>2023-05-28T09:19:21Z</time>
      </trkpt>
      <trkpt lat="43.53223" lon="5.57586">
        <ele>845</ele>
        <time>2023-05-28T09:19:22Z</time>
      </trkpt>
      <trkpt lat="43.53223" lon="5.57586">
        <ele>845.1</ele>
        <time>2023-05-28T09:19:23Z</time>
      </trkpt>
      <trkpt lat="43.53223" lon="5.57587">
        <ele>845.2</ele>
        <time>2023-05-28T09:19:24Z</time>
      </trkpt>
      <trkpt lat="43.53223" lon="5.57587">
        <ele>845.4</ele>
        <time>2023-05-28T09:19:25Z</time>
      </trkpt>
      <trkpt lat="43.53223" lon="5.57588">
        <ele>845.6</ele>
        <time>2023-05-28T09:19:26Z</time>
      </trkpt>
      <trkpt lat="43.53223" lon="5.57589">
        <ele>845.6</ele>
        <time>2023-05-28T09:19:27Z</time>
      </trkpt>
      <trkpt lat="43.53223" lon="5.57589">
        <ele>845.7</ele>
        <time>2023-05-28T09:19:28Z</time>
      </trkpt>
      <trkpt lat="43.53223" lon="5.5759">
        <ele>845.8</ele>
        <time>2023-05-28T09:19:29Z</time>
      </trkpt>
      <trkpt lat="43.53223" lon="5.5759">
        <ele>845.9</ele>
        <time>2023-05-28T09:19:30Z</time>
      </trkpt>
      <trkpt lat="43.53223" lon="5.5759">
        <ele>846</ele>
        <time>2023-05-28T09:19:31Z</time>
      </trkpt>
      <trkpt lat="43.53222" lon="5.5759">
        <ele>846.1</ele>
        <time>2023-05-28T09:19:32Z</time>
      </trkpt>
      <trkpt lat="43.53222" lon="5.5759">
        <ele>846.2</ele>
        <time>2023-05-28T09:19:33Z</time>
      </trkpt>
      <trkpt lat="43.53222" lon="5.5759">
        <ele>846.4</ele>
        <time>2023-05-28T09:19:34Z</time>
      </trkpt>
      <trkpt lat="43.53222" lon="5.57591">
        <ele>846.5</ele>
        <time>2023-05-28T09:19:35Z</time>
      </trkpt>
      <trkpt lat="43.53221" lon="5.57591">
        <ele>846.6</ele>
        <time>2023-05-28T09:19:36Z</time>
      </trkpt>
      <trkpt lat="43.53221" lon="5.57591">
        <ele>846.7</ele>
        <time>2023-05-28T09:19:37Z</time>
      </trkpt>
      <trkpt lat="43.53221" lon="5.57591">
        <ele>846.8</ele>
        <time>2023-05-28T09:19:38Z</time>
      </trkpt>
      <trkpt lat="43.53221" lon="5.57591">
        <ele>846.9</ele>
        <time>2023-05-28T09:19:39Z</time>
      </trkpt>
      <trkpt lat="43.5322" lon="5.57591">
        <ele>847</ele>
        <time>2023-05-28T09:19:40Z</time>
      </trkpt>
      <trkpt lat="43.5322" lon="5.57591">
        <ele>847.1</ele>
        <time>2023-05-28T09:19:41Z</time>
      </trkpt>
      <trkpt lat="43.5322" lon="5.57592">
        <ele>847.2</ele>
        <time>2023-05-28T09:19:42Z</time>
      </trkpt>
      <trkpt lat="43.5322" lon="5.57592">
        <ele>847.3</ele>
        <time>2023-05-28T09:19:43Z</time>
      </trkpt>
      <trkpt lat="43.53219" lon="5.57592">
        <ele>847.4</ele>
        <time>2023-05-28T09:19:44Z</time>
      </trkpt>
      <trkpt lat="43.53219" lon="5.57591">
        <ele>847.5</ele>
        <time>2023-05-28T09:19:45Z</time>
      </trkpt>
      <trkpt lat="43.53219" lon="5.57592">
        <ele>847.7</ele>
        <time>2023-05-28T09:19:46Z</time>
      </trkpt>
      <trkpt lat="43.53219" lon="5.57592">
        <ele>847.9</ele>
        <time>2023-05-28T09:19:47Z</time>
      </trkpt>
      <trkpt lat="43.53219" lon="5.57592">
        <ele>848</ele>
        <time>2023-05-28T09:19:48Z</time>
      </trkpt>
      <trkpt lat="43.53219" lon="5.57592">
        <ele>848.1</ele>
        <time>2023-05-28T09:19:49Z</time>
      </trkpt>
      <trkpt lat="43.53218" lon="5.57592">
        <ele>848.2</ele>
        <time>2023-05-28T09:19:50Z</time>
      </trkpt>
      <trkpt lat="43.53218" lon="5.57592">
        <ele>848.4</ele>
        <time>2023-05-28T09:19:51Z</time>
      </trkpt>
      <trkpt lat="43.53218" lon="5.57592">
        <ele>848.5</ele>
        <time>2023-05-28T09:19:52Z</time>
      </trkpt>
      <trkpt lat="43.53218" lon="5.57593">
        <ele>848.6</ele>
        <time>2023-05-28T09:19:53Z</time>
      </trkpt>
      <trkpt lat="43.53217" lon="5.57593">
        <ele>848.7</ele>
        <time>2023-05-28T09:19:54Z</time>
      </trkpt>
      <trkpt lat="43.53217" lon="5.57593">
        <ele>848.7</ele>
        <time>2023-05-28T09:19:55Z</time>
      </trkpt>
      <trkpt lat="43.53217" lon="5.57593">
        <ele>848.8</ele>
        <time>2023-05-28T09:19:56Z</time>
      </trkpt>
      <trkpt lat="43.53216" lon="5.57594">
        <ele>848.9</ele>
        <time>2023-05-28T09:19:57Z</time>
      </trkpt>
      <trkpt lat="43.53216" lon="5.57594">
        <ele>849</ele>
        <time>2023-05-28T09:19:58Z</time>
      </trkpt>
      <trkpt lat="43.53216" lon="5.57594">
        <ele>849.2</ele>
        <time>2023-05-28T09:19:59Z</time>
      </trkpt>
      <trkpt lat="43.53216" lon="5.57594">
        <ele>849.3</ele>
        <time>2023-05-28T09:20:00Z</time>
      </trkpt>
      <trkpt lat="43.53216" lon="5.57595">
        <ele>849.4</ele>
        <time>2023-05-28T09:20:01Z</time>
      </trkpt>
      <trkpt lat="43.53215" lon="5.57595">
        <ele>849.5</ele>
        <time>2023-05-28T09:20:02Z</time>
      </trkpt>
      <trkpt lat="43.53215" lon="5.57595">
        <ele>849.6</ele>
        <time>2023-05-28T09:20:03Z</time>
      </trkpt>
      <trkpt lat="43.53215" lon="5.57596">
        <ele>849.8</ele>
        <time>2023-05-28T09:20:04Z</time>
      </trkpt>
      <trkpt lat="43.53215" lon="5.57597">
        <ele>849.9</ele>
        <time>2023-05-28T09:20:05Z</time>
      </trkpt>
      <trkpt lat="43.53215" lon="5.57599">
        <ele>850</ele>
        <time>2023-05-28T09:20:06Z</time>
      </trkpt>
      <trkpt lat="43.53216" lon="5.576">
        <ele>850</ele>
        <time>2023-05-28T09:20:07Z</time>
      </trkpt>
      <trkpt lat="43.53216" lon="5.57601">
        <ele>850.1</ele>
        <time>2023-05-28T09:20:08Z</time>
      </trkpt>
      <trkpt lat="43.53216" lon="5.57602">
        <ele>850.2</ele>
        <time>2023-05-28T09:20:09Z</time>
      </trkpt>
      <trkpt lat="43.53216" lon="5.57603">
        <ele>850.3</ele>
        <time>2023-05-28T09:20:10Z</time>
      </trkpt>
      <trkpt lat="43.53216" lon="5.57603">
        <ele>850.4</ele>
        <time>2023-05-28T09:20:11Z</time>
      </trkpt>
      <trkpt lat="43.53215" lon="5.57604">
        <ele>850.5</ele>
        <time>2023-05-28T09:20:12Z</time>
      </trkpt>
      <trkpt lat="43.53215" lon="5.57604">
        <ele>850.5</ele>
        <time>2023-05-28T09:20:13Z</time>
      </trkpt>
      <trkpt lat="43.53215" lon="5.57605">
        <ele>850.8</ele>
        <time>2023-05-28T09:20:14Z</time>
      </trkpt>
      <trkpt lat="43.53215" lon="5.57606">
        <ele>851</ele>
        <time>2023-05-28T09:20:15Z</time>
      </trkpt>
      <trkpt lat="43.53215" lon="5.57607">
        <ele>851.2</ele>
        <time>2023-05-28T09:20:16Z</time>
      </trkpt>
      <trkpt lat="43.53215" lon="5.57608">
        <ele>851.3</ele>
        <time>2023-05-28T09:20:17Z</time>
      </trkpt>
      <trkpt lat="43.53215" lon="5.57609">
        <ele>851.5</ele>
        <time>2023-05-28T09:20:18Z</time>
      </trkpt>
      <trkpt lat="43.53215" lon="5.57609">
        <ele>851.6</ele>
        <time>2023-05-28T09:20:19Z</time>
      </trkpt>
      <trkpt lat="43.53214" lon="5.5761">
        <ele>851.7</ele>
        <time>2023-05-28T09:20:20Z</time>
      </trkpt>
      <trkpt lat="43.53214" lon="5.5761">
        <ele>851.8</ele>
        <time>2023-05-28T09:20:21Z</time>
      </trkpt>
      <trkpt lat="43.53214" lon="5.57611">
        <ele>852</ele>
        <time>2023-05-28T09:20:22Z</time>
      </trkpt>
      <trkpt lat="43.53214" lon="5.57612">
        <ele>852.1</ele>
        <time>2023-05-28T09:20:23Z</time>
      </trkpt>
      <trkpt lat="43.53214" lon="5.57612">
        <ele>852.2</ele>
        <time>2023-05-28T09:20:24Z</time>
      </trkpt>
      <trkpt lat="43.53214" lon="5.57613">
        <ele>852.3</ele>
        <time>2023-05-28T09:20:25Z</time>
      </trkpt>
      <trkpt lat="43.53213" lon="5.57614">
        <ele>852.3</ele>
        <time>2023-05-28T09:20:26Z</time>
      </trkpt>
      <trkpt lat="43.53213" lon="5.57614">
        <ele>852.4</ele>
        <time>2023-05-28T09:20:27Z</time>
      </trkpt>
      <trkpt lat="43.53213" lon="5.57616">
        <ele>852.6</ele>
        <time>2023-05-28T09:20:28Z</time>
      </trkpt>
      <trkpt lat="43.53213" lon="5.57617">
        <ele>852.8</ele>
        <time>2023-05-28T09:20:29Z</time>
      </trkpt>
      <trkpt lat="43.53214" lon="5.57618">
        <ele>853</ele>
        <time>2023-05-28T09:20:30Z</time>
      </trkpt>
      <trkpt lat="43.53214" lon="5.57619">
        <ele>853.1</ele>
        <time>2023-05-28T09:20:31Z</time>
      </trkpt>
      <trkpt lat="43.53214" lon="5.57621">
        <ele>853.2</ele>
        <time>2023-05-28T09:20:32Z</time>
      </trkpt>
      <trkpt lat="43.53214" lon="5.57622">
        <ele>853.3</ele>
        <time>2023-05-28T09:20:33Z</time>
      </trkpt>
      <trkpt lat="43.53214" lon="5.57623">
        <ele>853.4</ele>
        <time>2023-05-28T09:20:34Z</time>
      </trkpt>
      <trkpt lat="43.53214" lon="5.57624">
        <ele>853.5</ele>
        <time>2023-05-28T09:20:35Z</time>
      </trkpt>
      <trkpt lat="43.53213" lon="5.57624">
        <ele>853.5</ele>
        <time>2023-05-28T09:20:36Z</time>
      </trkpt>
      <trkpt lat="43.53213" lon="5.57625">
        <ele>853.6</ele>
        <time>2023-05-28T09:20:37Z</time>
      </trkpt>
      <trkpt lat="43.53212" lon="5.57626">
        <ele>853.7</ele>
        <time>2023-05-28T09:20:38Z</time>
      </trkpt>
      <trkpt lat="43.53212" lon="5.57626">
        <ele>853.8</ele>
        <time>2023-05-28T09:20:39Z</time>
      </trkpt>
      <trkpt lat="43.53212" lon="5.57627">
        <ele>853.8</ele>
        <time>2023-05-28T09:20:40Z</time>
      </trkpt>
      <trkpt lat="43.53212" lon="5.57628">
        <ele>854</ele>
        <time>2023-05-28T09:20:41Z</time>
      </trkpt>
      <trkpt lat="43.53211" lon="5.57629">
        <ele>854.1</ele>
        <time>2023-05-28T09:20:42Z</time>
      </trkpt>
      <trkpt lat="43.53211" lon="5.5763">
        <ele>854.2</ele>
        <time>2023-05-28T09:20:43Z</time>
      </trkpt>
      <trkpt lat="43.53211" lon="5.57631">
        <ele>854.4</ele>
        <time>2023-05-28T09:20:44Z</time>
      </trkpt>
      <trkpt lat="43.53211" lon="5.57631">
        <ele>854.5</ele>
        <time>2023-05-28T09:20:45Z</time>
      </trkpt>
      <trkpt lat="43.5321" lon="5.57632">
        <ele>854.6</ele>
        <time>2023-05-28T09:20:46Z</time>
      </trkpt>
      <trkpt lat="43.5321" lon="5.57633">
        <ele>854.7</ele>
        <time>2023-05-28T09:20:47Z</time>
      </trkpt>
      <trkpt lat="43.5321" lon="5.57634">
        <ele>854.7</ele>
        <time>2023-05-28T09:20:48Z</time>
      </trkpt>
      <trkpt lat="43.5321" lon="5.57634">
        <ele>854.8</ele>
        <time>2023-05-28T09:20:49Z</time>
      </trkpt>
      <trkpt lat="43.53209" lon="5.57634">
        <ele>854.8</ele>
        <time>2023-05-28T09:20:50Z</time>
      </trkpt>
      <trkpt lat="43.53209" lon="5.57635">
        <ele>854.9</ele>
        <time>2023-05-28T09:20:51Z</time>
      </trkpt>
      <trkpt lat="43.53208" lon="5.57635">
        <ele>855</ele>
        <time>2023-05-28T09:20:52Z</time>
      </trkpt>
      <trkpt lat="43.53208" lon="5.57636">
        <ele>855.1</ele>
        <time>2023-05-28T09:20:53Z</time>
      </trkpt>
      <trkpt lat="43.53208" lon="5.57637">
        <ele>855.2</ele>
        <time>2023-05-28T09:20:54Z</time>
      </trkpt>
      <trkpt lat="43.53208" lon="5.57638">
        <ele>855.3</ele>
        <time>2023-05-28T09:20:55Z</time>
      </trkpt>
      <trkpt lat="43.53208" lon="5.57639">
        <ele>855.4</ele>
        <time>2023-05-28T09:20:56Z</time>
      </trkpt>
      <trkpt lat="43.53208" lon="5.5764">
        <ele>855.5</ele>
        <time>2023-05-28T09:20:57Z</time>
      </trkpt>
      <trkpt lat="43.53208" lon="5.57641">
        <ele>855.6</ele>
        <time>2023-05-28T09:20:58Z</time>
      </trkpt>
      <trkpt lat="43.53208" lon="5.57643">
        <ele>855.8</ele>
        <time>2023-05-28T09:20:59Z</time>
      </trkpt>
      <trkpt lat="43.53207" lon="5.57643">
        <ele>855.9</ele>
        <time>2023-05-28T09:21:00Z</time>
      </trkpt>
      <trkpt lat="43.53207" lon="5.57644">
        <ele>855.9</ele>
        <time>2023-05-28T09:21:01Z</time>
      </trkpt>
      <trkpt lat="43.53207" lon="5.57644">
        <ele>855.9</ele>
        <time>2023-05-28T09:21:02Z</time>
      </trkpt>
      <trkpt lat="43.53207" lon="5.57644">
        <ele>856</ele>
        <time>2023-05-28T09:21:03Z</time>
      </trkpt>
      <trkpt lat="43.53207" lon="5.57645">
        <ele>856</ele>
        <time>2023-05-28T09:21:04Z</time>
      </trkpt>
      <trkpt lat="43.53206" lon="5.57646">
        <ele>856.2</ele>
        <time>2023-05-28T09:21:05Z</time>
      </trkpt>
      <trkpt lat="43.53206" lon="5.57646">
        <ele>856.3</ele>
        <time>2023-05-28T09:21:06Z</time>
      </trkpt>
      <trkpt lat="43.53206" lon="5.57647">
        <ele>856.4</ele>
        <time>2023-05-28T09:21:07Z</time>
      </trkpt>
      <trkpt lat="43.53206" lon="5.57648">
        <ele>856.5</ele>
        <time>2023-05-28T09:21:08Z</time>
      </trkpt>
      <trkpt lat="43.53206" lon="5.57648">
        <ele>856.6</ele>
        <time>2023-05-28T09:21:09Z</time>
      </trkpt>
      <trkpt lat="43.53206" lon="5.57649">
        <ele>856.7</ele>
        <time>2023-05-28T09:21:10Z</time>
      </trkpt>
      <trkpt lat="43.53206" lon="5.57649">
        <ele>856.8</ele>
        <time>2023-05-28T09:21:11Z</time>
      </trkpt>
      <trkpt lat="43.53205" lon="5.57649">
        <ele>856.9</ele>
        <time>2023-05-28T09:21:12Z</time>
      </trkpt>
      <trkpt lat="43.53205" lon="5.5765">
        <ele>857</ele>
        <time>2023-05-28T09:21:13Z</time>
      </trkpt>
      <trkpt lat="43.53205" lon="5.57651">
        <ele>857.1</ele>
        <time>2023-05-28T09:21:14Z</time>
      </trkpt>
      <trkpt lat="43.53205" lon="5.57651">
        <ele>857.2</ele>
        <time>2023-05-28T09:21:15Z</time>
      </trkpt>
      <trkpt lat="43.53204" lon="5.57652">
        <ele>857.3</ele>
        <time>2023-05-28T09:21:16Z</time>
      </trkpt>
      <trkpt lat="43.53204" lon="5.57652">
        <ele>857.5</ele>
        <time>2023-05-28T09:21:17Z</time>
      </trkpt>
      <trkpt lat="43.53204" lon="5.57653">
        <ele>857.7</ele>
        <time>2023-05-28T09:21:18Z</time>
      </trkpt>
      <trkpt lat="43.53203" lon="5.57653">
        <ele>857.8</ele>
        <time>2023-05-28T09:21:19Z</time>
      </trkpt>
      <trkpt lat="43.53203" lon="5.57655">
        <ele>857.9</ele>
        <time>2023-05-28T09:21:20Z</time>
      </trkpt>
      <trkpt lat="43.53203" lon="5.57655">
        <ele>858</ele>
        <time>2023-05-28T09:21:21Z</time>
      </trkpt>
      <trkpt lat="43.53202" lon="5.57656">
        <ele>858.1</ele>
        <time>2023-05-28T09:21:22Z</time>
      </trkpt>
      <trkpt lat="43.53202" lon="5.57657">
        <ele>858.1</ele>
        <time>2023-05-28T09:21:23Z</time>
      </trkpt>
      <trkpt lat="43.53201" lon="5.57657">
        <ele>858.3</ele>
        <time>2023-05-28T09:21:24Z</time>
      </trkpt>
      <trkpt lat="43.53201" lon="5.57658">
        <ele>858.4</ele>
        <time>2023-05-28T09:21:25Z</time>
      </trkpt>
      <trkpt lat="43.53201" lon="5.57659">
        <ele>858.5</ele>
        <time>2023-05-28T09:21:26Z</time>
      </trkpt>
      <trkpt lat="43.532" lon="5.57659">
        <ele>858.6</ele>
        <time>2023-05-28T09:21:27Z</time>
      </trkpt>
      <trkpt lat="43.532" lon="5.5766">
        <ele>858.7</ele>
        <time>2023-05-28T09:21:28Z</time>
      </trkpt>
      <trkpt lat="43.53199" lon="5.5766">
        <ele>858.8</ele>
        <time>2023-05-28T09:21:29Z</time>
      </trkpt>
      <trkpt lat="43.53199" lon="5.57661">
        <ele>859</ele>
        <time>2023-05-28T09:21:30Z</time>
      </trkpt>
      <trkpt lat="43.53199" lon="5.57662">
        <ele>859.1</ele>
        <time>2023-05-28T09:21:31Z</time>
      </trkpt>
      <trkpt lat="43.53199" lon="5.57663">
        <ele>859.1</ele>
        <time>2023-05-28T09:21:32Z</time>
      </trkpt>
      <trkpt lat="43.53199" lon="5.57665">
        <ele>859.3</ele>
        <time>2023-05-28T09:21:33Z</time>
      </trkpt>
      <trkpt lat="43.53199" lon="5.57666">
        <ele>859.5</ele>
        <time>2023-05-28T09:21:34Z</time>
      </trkpt>
      <trkpt lat="43.53199" lon="5.57668">
        <ele>859.6</ele>
        <time>2023-05-28T09:21:35Z</time>
      </trkpt>
      <trkpt lat="43.53199" lon="5.57669">
        <ele>859.7</ele>
        <time>2023-05-28T09:21:36Z</time>
      </trkpt>
      <trkpt lat="43.53199" lon="5.5767">
        <ele>859.8</ele>
        <time>2023-05-28T09:21:37Z</time>
      </trkpt>
      <trkpt lat="43.53199" lon="5.57671">
        <ele>859.7</ele>
        <time>2023-05-28T09:21:38Z</time>
      </trkpt>
      <trkpt lat="43.53199" lon="5.57671">
        <ele>859.7</ele>
        <time>2023-05-28T09:21:39Z</time>
      </trkpt>
      <trkpt lat="43.53198" lon="5.57672">
        <ele>859.8</ele>
        <time>2023-05-28T09:21:40Z</time>
      </trkpt>
      <trkpt lat="43.53198" lon="5.57673">
        <ele>859.8</ele>
        <time>2023-05-28T09:21:41Z</time>
      </trkpt>
      <trkpt lat="43.53198" lon="5.57675">
        <ele>859.9</ele>
        <time>2023-05-28T09:21:42Z</time>
      </trkpt>
      <trkpt lat="43.53198" lon="5.57676">
        <ele>859.8</ele>
        <time>2023-05-28T09:21:43Z</time>
      </trkpt>
      <trkpt lat="43.53198" lon="5.57678">
        <ele>859.9</ele>
        <time>2023-05-28T09:21:44Z</time>
      </trkpt>
      <trkpt lat="43.53198" lon="5.57679">
        <ele>859.9</ele>
        <time>2023-05-28T09:21:45Z</time>
      </trkpt>
      <trkpt lat="43.53198" lon="5.5768">
        <ele>860</ele>
        <time>2023-05-28T09:21:46Z</time>
      </trkpt>
      <trkpt lat="43.53198" lon="5.57681">
        <ele>860</ele>
        <time>2023-05-28T09:21:47Z</time>
      </trkpt>
      <trkpt lat="43.53198" lon="5.57682">
        <ele>860.1</ele>
        <time>2023-05-28T09:21:48Z</time>
      </trkpt>
      <trkpt lat="43.53197" lon="5.57682">
        <ele>860.2</ele>
        <time>2023-05-28T09:21:49Z</time>
      </trkpt>
      <trkpt lat="43.53197" lon="5.57683">
        <ele>860.3</ele>
        <time>2023-05-28T09:21:50Z</time>
      </trkpt>
      <trkpt lat="43.53196" lon="5.57684">
        <ele>860.4</ele>
        <time>2023-05-28T09:21:51Z</time>
      </trkpt>
      <trkpt lat="43.53196" lon="5.57684">
        <ele>860.5</ele>
        <time>2023-05-28T09:21:52Z</time>
      </trkpt>
      <trkpt lat="43.53196" lon="5.57685">
        <ele>860.7</ele>
        <time>2023-05-28T09:21:53Z</time>
      </trkpt>
      <trkpt lat="43.53195" lon="5.57686">
        <ele>860.8</ele>
        <time>2023-05-28T09:21:54Z</time>
      </trkpt>
      <trkpt lat="43.53195" lon="5.57686">
        <ele>861</ele>
        <time>2023-05-28T09:21:55Z</time>
      </trkpt>
      <trkpt lat="43.53195" lon="5.57687">
        <ele>861.1</ele>
        <time>2023-05-28T09:21:56Z</time>
      </trkpt>
      <trkpt lat="43.53194" lon="5.57688">
        <ele>861.2</ele>
        <time>2023-05-28T09:21:57Z</time>
      </trkpt>
      <trkpt lat="43.53194" lon="5.5769">
        <ele>861.4</ele>
        <time>2023-05-28T09:21:58Z</time>
      </trkpt>
      <trkpt lat="43.53194" lon="5.57691">
        <ele>861.4</ele>
        <time>2023-05-28T09:21:59Z</time>
      </trkpt>
      <trkpt lat="43.53194" lon="5.57692">
        <ele>861.5</ele>
        <time>2023-05-28T09:22:00Z</time>
      </trkpt>
      <trkpt lat="43.53194" lon="5.57693">
        <ele>861.6</ele>
        <time>2023-05-28T09:22:01Z</time>
      </trkpt>
      <trkpt lat="43.53194" lon="5.57693">
        <ele>861.7</ele>
        <time>2023-05-28T09:22:02Z</time>
      </trkpt>
      <trkpt lat="43.53194" lon="5.57694">
        <ele>861.7</ele>
        <time>2023-05-28T09:22:03Z</time>
      </trkpt>
      <trkpt lat="43.53194" lon="5.57695">
        <ele>861.7</ele>
        <time>2023-05-28T09:22:04Z</time>
      </trkpt>
      <trkpt lat="43.53193" lon="5.57696">
        <ele>861.8</ele>
        <time>2023-05-28T09:22:05Z</time>
      </trkpt>
      <trkpt lat="43.53193" lon="5.57697">
        <ele>861.9</ele>
        <time>2023-05-28T09:22:06Z</time>
      </trkpt>
      <trkpt lat="43.53192" lon="5.57697">
        <ele>862</ele>
        <time>2023-05-28T09:22:07Z</time>
      </trkpt>
      <trkpt lat="43.53192" lon="5.57698">
        <ele>862.1</ele>
        <time>2023-05-28T09:22:08Z</time>
      </trkpt>
      <trkpt lat="43.53192" lon="5.57699">
        <ele>862.1</ele>
        <time>2023-05-28T09:22:09Z</time>
      </trkpt>
      <trkpt lat="43.53191" lon="5.57701">
        <ele>862.2</ele>
        <time>2023-05-28T09:22:10Z</time>
      </trkpt>
      <trkpt lat="43.53191" lon="5.57702">
        <ele>862.4</ele>
        <time>2023-05-28T09:22:11Z</time>
      </trkpt>
      <trkpt lat="43.53191" lon="5.57703">
        <ele>862.3</ele>
        <time>2023-05-28T09:22:12Z</time>
      </trkpt>
      <trkpt lat="43.53191" lon="5.57704">
        <ele>862.3</ele>
        <time>2023-05-28T09:22:13Z</time>
      </trkpt>
      <trkpt lat="43.53191" lon="5.57705">
        <ele>862.5</ele>
        <time>2023-05-28T09:22:14Z</time>
      </trkpt>
      <trkpt lat="43.5319" lon="5.57706">
        <ele>862.6</ele>
        <time>2023-05-28T09:22:15Z</time>
      </trkpt>
      <trkpt lat="43.5319" lon="5.57707">
        <ele>862.7</ele>
        <time>2023-05-28T09:22:16Z</time>
      </trkpt>
      <trkpt lat="43.5319" lon="5.57708">
        <ele>862.8</ele>
        <time>2023-05-28T09:22:17Z</time>
      </trkpt>
      <trkpt lat="43.5319" lon="5.57709">
        <ele>862.9</ele>
        <time>2023-05-28T09:22:18Z</time>
      </trkpt>
      <trkpt lat="43.53189" lon="5.5771">
        <ele>863</ele>
        <time>2023-05-28T09:22:19Z</time>
      </trkpt>
      <trkpt lat="43.53189" lon="5.57711">
        <ele>863.1</ele>
        <time>2023-05-28T09:22:20Z</time>
      </trkpt>
      <trkpt lat="43.53189" lon="5.57712">
        <ele>863.2</ele>
        <time>2023-05-28T09:22:21Z</time>
      </trkpt>
      <trkpt lat="43.53188" lon="5.57713">
        <ele>863.2</ele>
        <time>2023-05-28T09:22:22Z</time>
      </trkpt>
      <trkpt lat="43.53188" lon="5.57714">
        <ele>863.3</ele>
        <time>2023-05-28T09:22:23Z</time>
      </trkpt>
      <trkpt lat="43.53188" lon="5.57714">
        <ele>863.4</ele>
        <time>2023-05-28T09:22:24Z</time>
      </trkpt>
      <trkpt lat="43.53187" lon="5.57715">
        <ele>863.6</ele>
        <time>2023-05-28T09:22:25Z</time>
      </trkpt>
      <trkpt lat="43.53187" lon="5.57715">
        <ele>863.7</ele>
        <time>2023-05-28T09:22:26Z</time>
      </trkpt>
      <trkpt lat="43.53187" lon="5.57716">
        <ele>863.9</ele>
        <time>2023-05-28T09:22:27Z</time>
      </trkpt>
      <trkpt lat="43.53186" lon="5.57716">
        <ele>864</ele>
        <time>2023-05-28T09:22:28Z</time>
      </trkpt>
      <trkpt lat="43.53186" lon="5.57717">
        <ele>864.2</ele>
        <time>2023-05-28T09:22:29Z</time>
      </trkpt>
      <trkpt lat="43.53186" lon="5.57717">
        <ele>864.3</ele>
        <time>2023-05-28T09:22:30Z</time>
      </trkpt>
      <trkpt lat="43.53186" lon="5.57718">
        <ele>864.5</ele>
        <time>2023-05-28T09:22:31Z</time>
      </trkpt>
      <trkpt lat="43.53185" lon="5.57718">
        <ele>864.6</ele>
        <time>2023-05-28T09:22:32Z</time>
      </trkpt>
      <trkpt lat="43.53185" lon="5.57719">
        <ele>864.8</ele>
        <time>2023-05-28T09:22:33Z</time>
      </trkpt>
      <trkpt lat="43.53185" lon="5.5772">
        <ele>864.9</ele>
        <time>2023-05-28T09:22:34Z</time>
      </trkpt>
      <trkpt lat="43.53184" lon="5.57721">
        <ele>865</ele>
        <time>2023-05-28T09:22:35Z</time>
      </trkpt>
      <trkpt lat="43.53184" lon="5.57722">
        <ele>865.1</ele>
        <time>2023-05-28T09:22:36Z</time>
      </trkpt>
      <trkpt lat="43.53184" lon="5.57723">
        <ele>865.3</ele>
        <time>2023-05-28T09:22:37Z</time>
      </trkpt>
      <trkpt lat="43.53184" lon="5.57724">
        <ele>865.4</ele>
        <time>2023-05-28T09:22:38Z</time>
      </trkpt>
      <trkpt lat="43.53184" lon="5.57725">
        <ele>865.5</ele>
        <time>2023-05-28T09:22:39Z</time>
      </trkpt>
      <trkpt lat="43.53184" lon="5.57726">
        <ele>865.6</ele>
        <time>2023-05-28T09:22:40Z</time>
      </trkpt>
      <trkpt lat="43.53184" lon="5.57728">
        <ele>865.8</ele>
        <time>2023-05-28T09:22:41Z</time>
      </trkpt>
      <trkpt lat="43.53184" lon="5.57729">
        <ele>866</ele>
        <time>2023-05-28T09:22:42Z</time>
      </trkpt>
      <trkpt lat="43.53184" lon="5.57731">
        <ele>866</ele>
        <time>2023-05-28T09:22:43Z</time>
      </trkpt>
      <trkpt lat="43.53184" lon="5.57732">
        <ele>866.1</ele>
        <time>2023-05-28T09:22:44Z</time>
      </trkpt>
      <trkpt lat="43.53184" lon="5.57734">
        <ele>866.2</ele>
        <time>2023-05-28T09:22:45Z</time>
      </trkpt>
      <trkpt lat="43.53184" lon="5.57735">
        <ele>866.4</ele>
        <time>2023-05-28T09:22:46Z</time>
      </trkpt>
      <trkpt lat="43.53184" lon="5.57736">
        <ele>866.4</ele>
        <time>2023-05-28T09:22:47Z</time>
      </trkpt>
      <trkpt lat="43.53184" lon="5.57738">
        <ele>866.5</ele>
        <time>2023-05-28T09:22:48Z</time>
      </trkpt>
      <trkpt lat="43.53184" lon="5.57739">
        <ele>866.6</ele>
        <time>2023-05-28T09:22:49Z</time>
      </trkpt>
      <trkpt lat="43.53184" lon="5.5774">
        <ele>866.7</ele>
        <time>2023-05-28T09:22:50Z</time>
      </trkpt>
      <trkpt lat="43.53184" lon="5.57741">
        <ele>866.8</ele>
        <time>2023-05-28T09:22:51Z</time>
      </trkpt>
      <trkpt lat="43.53185" lon="5.57742">
        <ele>866.8</ele>
        <time>2023-05-28T09:22:52Z</time>
      </trkpt>
      <trkpt lat="43.53185" lon="5.57744">
        <ele>866.9</ele>
        <time>2023-05-28T09:22:53Z</time>
      </trkpt>
      <trkpt lat="43.53185" lon="5.57744">
        <ele>867</ele>
        <time>2023-05-28T09:22:54Z</time>
      </trkpt>
      <trkpt lat="43.53185" lon="5.57745">
        <ele>867.1</ele>
        <time>2023-05-28T09:22:55Z</time>
      </trkpt>
      <trkpt lat="43.53185" lon="5.57746">
        <ele>867.3</ele>
        <time>2023-05-28T09:22:56Z</time>
      </trkpt>
      <trkpt lat="43.53185" lon="5.57747">
        <ele>867.5</ele>
        <time>2023-05-28T09:22:57Z</time>
      </trkpt>
      <trkpt lat="43.53184" lon="5.57748">
        <ele>867.6</ele>
        <time>2023-05-28T09:22:58Z</time>
      </trkpt>
      <trkpt lat="43.53184" lon="5.57749">
        <ele>867.7</ele>
        <time>2023-05-28T09:22:59Z</time>
      </trkpt>
      <trkpt lat="43.53183" lon="5.57749">
        <ele>867.8</ele>
        <time>2023-05-28T09:23:00Z</time>
      </trkpt>
      <trkpt lat="43.53183" lon="5.5775">
        <ele>867.9</ele>
        <time>2023-05-28T09:23:01Z</time>
      </trkpt>
      <trkpt lat="43.53183" lon="5.5775">
        <ele>867.9</ele>
        <time>2023-05-28T09:23:02Z</time>
      </trkpt>
      <trkpt lat="43.53183" lon="5.57751">
        <ele>868</ele>
        <time>2023-05-28T09:23:03Z</time>
      </trkpt>
      <trkpt lat="43.53183" lon="5.57752">
        <ele>868</ele>
        <time>2023-05-28T09:23:04Z</time>
      </trkpt>
      <trkpt lat="43.53183" lon="5.57752">
        <ele>868.1</ele>
        <time>2023-05-28T09:23:05Z</time>
      </trkpt>
      <trkpt lat="43.53183" lon="5.57753">
        <ele>868.2</ele>
        <time>2023-05-28T09:23:06Z</time>
      </trkpt>
      <trkpt lat="43.53183" lon="5.57753">
        <ele>868.3</ele>
        <time>2023-05-28T09:23:07Z</time>
      </trkpt>
      <trkpt lat="43.53183" lon="5.57754">
        <ele>868.4</ele>
        <time>2023-05-28T09:23:08Z</time>
      </trkpt>
      <trkpt lat="43.53183" lon="5.57754">
        <ele>868.5</ele>
        <time>2023-05-28T09:23:09Z</time>
      </trkpt>
      <trkpt lat="43.53183" lon="5.57755">
        <ele>868.6</ele>
        <time>2023-05-28T09:23:10Z</time>
      </trkpt>
      <trkpt lat="43.53183" lon="5.57756">
        <ele>868.7</ele>
        <time>2023-05-28T09:23:11Z</time>
      </trkpt>
      <trkpt lat="43.53183" lon="5.57757">
        <ele>868.9</ele>
        <time>2023-05-28T09:23:12Z</time>
      </trkpt>
      <trkpt lat="43.53183" lon="5.57758">
        <ele>869.1</ele>
        <time>2023-05-28T09:23:13Z</time>
      </trkpt>
      <trkpt lat="43.53183" lon="5.5776">
        <ele>869.2</ele>
        <time>2023-05-28T09:23:14Z</time>
      </trkpt>
      <trkpt lat="43.53183" lon="5.57761">
        <ele>869.3</ele>
        <time>2023-05-28T09:23:15Z</time>
      </trkpt>
      <trkpt lat="43.53183" lon="5.57762">
        <ele>869.4</ele>
        <time>2023-05-28T09:23:16Z</time>
      </trkpt>
      <trkpt lat="43.53183" lon="5.57764">
        <ele>869.4</ele>
        <time>2023-05-28T09:23:17Z</time>
      </trkpt>
      <trkpt lat="43.53183" lon="5.57765">
        <ele>869.5</ele>
        <time>2023-05-28T09:23:18Z</time>
      </trkpt>
      <trkpt lat="43.53183" lon="5.57767">
        <ele>869.5</ele>
        <time>2023-05-28T09:23:19Z</time>
      </trkpt>
      <trkpt lat="43.53183" lon="5.57768">
        <ele>869.6</ele>
        <time>2023-05-28T09:23:20Z</time>
      </trkpt>
      <trkpt lat="43.53183" lon="5.57769">
        <ele>869.6</ele>
        <time>2023-05-28T09:23:21Z</time>
      </trkpt>
      <trkpt lat="43.53183" lon="5.5777">
        <ele>869.6</ele>
        <time>2023-05-28T09:23:22Z</time>
      </trkpt>
      <trkpt lat="43.53183" lon="5.57771">
        <ele>869.7</ele>
        <time>2023-05-28T09:23:23Z</time>
      </trkpt>
      <trkpt lat="43.53183" lon="5.57773">
        <ele>869.7</ele>
        <time>2023-05-28T09:23:24Z</time>
      </trkpt>
      <trkpt lat="43.53183" lon="5.57774">
        <ele>869.8</ele>
        <time>2023-05-28T09:23:25Z</time>
      </trkpt>
      <trkpt lat="43.53183" lon="5.57775">
        <ele>869.9</ele>
        <time>2023-05-28T09:23:26Z</time>
      </trkpt>
      <trkpt lat="43.53183" lon="5.57776">
        <ele>869.9</ele>
        <time>2023-05-28T09:23:27Z</time>
      </trkpt>
      <trkpt lat="43.53183" lon="5.57778">
        <ele>870</ele>
        <time>2023-05-28T09:23:28Z</time>
      </trkpt>
      <trkpt lat="43.53183" lon="5.57778">
        <ele>870</ele>
        <time>2023-05-28T09:23:29Z</time>
      </trkpt>
      <trkpt lat="43.53183" lon="5.57779">
        <ele>870.2</ele>
        <time>2023-05-28T09:23:30Z</time>
      </trkpt>
      <trkpt lat="43.53183" lon="5.5778">
        <ele>870.3</ele>
        <time>2023-05-28T09:23:31Z</time>
      </trkpt>
      <trkpt lat="43.53183" lon="5.57781">
        <ele>870.4</ele>
        <time>2023-05-28T09:23:32Z</time>
      </trkpt>
      <trkpt lat="43.53182" lon="5.57782">
        <ele>870.5</ele>
        <time>2023-05-28T09:23:33Z</time>
      </trkpt>
      <trkpt lat="43.53182" lon="5.57783">
        <ele>870.7</ele>
        <time>2023-05-28T09:23:34Z</time>
      </trkpt>
      <trkpt lat="43.53182" lon="5.57784">
        <ele>870.8</ele>
        <time>2023-05-28T09:23:35Z</time>
      </trkpt>
      <trkpt lat="43.53181" lon="5.57785">
        <ele>870.8</ele>
        <time>2023-05-28T09:23:36Z</time>
      </trkpt>
      <trkpt lat="43.53181" lon="5.57786">
        <ele>870.9</ele>
        <time>2023-05-28T09:23:37Z</time>
      </trkpt>
      <trkpt lat="43.5318" lon="5.57787">
        <ele>870.9</ele>
        <time>2023-05-28T09:23:38Z</time>
      </trkpt>
      <trkpt lat="43.5318" lon="5.57789">
        <ele>871</ele>
        <time>2023-05-28T09:23:39Z</time>
      </trkpt>
      <trkpt lat="43.53179" lon="5.5779">
        <ele>871.1</ele>
        <time>2023-05-28T09:23:40Z</time>
      </trkpt>
      <trkpt lat="43.53179" lon="5.57791">
        <ele>871.2</ele>
        <time>2023-05-28T09:23:41Z</time>
      </trkpt>
      <trkpt lat="43.53179" lon="5.57792">
        <ele>871.3</ele>
        <time>2023-05-28T09:23:42Z</time>
      </trkpt>
      <trkpt lat="43.53179" lon="5.57793">
        <ele>871.4</ele>
        <time>2023-05-28T09:23:43Z</time>
      </trkpt>
      <trkpt lat="43.53178" lon="5.57794">
        <ele>871.5</ele>
        <time>2023-05-28T09:23:44Z</time>
      </trkpt>
      <trkpt lat="43.53178" lon="5.57794">
        <ele>871.6</ele>
        <time>2023-05-28T09:23:45Z</time>
      </trkpt>
      <trkpt lat="43.53177" lon="5.57796">
        <ele>871.8</ele>
        <time>2023-05-28T09:23:46Z</time>
      </trkpt>
      <trkpt lat="43.53178" lon="5.57797">
        <ele>871.9</ele>
        <time>2023-05-28T09:23:47Z</time>
      </trkpt>
      <trkpt lat="43.53177" lon="5.57798">
        <ele>872.1</ele>
        <time>2023-05-28T09:23:48Z</time>
      </trkpt>
      <trkpt lat="43.53178" lon="5.57799">
        <ele>872.3</ele>
        <time>2023-05-28T09:23:49Z</time>
      </trkpt>
      <trkpt lat="43.53178" lon="5.578">
        <ele>872.2</ele>
        <time>2023-05-28T09:23:50Z</time>
      </trkpt>
      <trkpt lat="43.53178" lon="5.578">
        <ele>872.4</ele>
        <time>2023-05-28T09:23:51Z</time>
      </trkpt>
      <trkpt lat="43.53177" lon="5.57801">
        <ele>872.5</ele>
        <time>2023-05-28T09:23:52Z</time>
      </trkpt>
      <trkpt lat="43.53176" lon="5.57801">
        <ele>872.6</ele>
        <time>2023-05-28T09:23:53Z</time>
      </trkpt>
      <trkpt lat="43.53176" lon="5.57802">
        <ele>872.8</ele>
        <time>2023-05-28T09:23:54Z</time>
      </trkpt>
      <trkpt lat="43.53176" lon="5.57802">
        <ele>872.9</ele>
        <time>2023-05-28T09:23:55Z</time>
      </trkpt>
      <trkpt lat="43.53176" lon="5.57802">
        <ele>873</ele>
        <time>2023-05-28T09:23:56Z</time>
      </trkpt>
      <trkpt lat="43.53176" lon="5.57802">
        <ele>873.3</ele>
        <time>2023-05-28T09:23:57Z</time>
      </trkpt>
      <trkpt lat="43.53176" lon="5.57803">
        <ele>873.5</ele>
        <time>2023-05-28T09:23:58Z</time>
      </trkpt>
      <trkpt lat="43.53175" lon="5.57803">
        <ele>873.7</ele>
        <time>2023-05-28T09:23:59Z</time>
      </trkpt>
      <trkpt lat="43.53175" lon="5.57804">
        <ele>873.9</ele>
        <time>2023-05-28T09:24:00Z</time>
      </trkpt>
      <trkpt lat="43.53175" lon="5.57804">
        <ele>874</ele>
        <time>2023-05-28T09:24:01Z</time>
      </trkpt>
      <trkpt lat="43.53175" lon="5.57804">
        <ele>874.2</ele>
        <time>2023-05-28T09:24:02Z</time>
      </trkpt>
      <trkpt lat="43.53174" lon="5.57804">
        <ele>874.3</ele>
        <time>2023-05-28T09:24:03Z</time>
      </trkpt>
      <trkpt lat="43.53174" lon="5.57805">
        <ele>874.3</ele>
        <time>2023-05-28T09:24:04Z</time>
      </trkpt>
      <trkpt lat="43.53173" lon="5.57805">
        <ele>874.4</ele>
        <time>2023-05-28T09:24:05Z</time>
      </trkpt>
      <trkpt lat="43.53173" lon="5.57806">
        <ele>874.4</ele>
        <time>2023-05-28T09:24:06Z</time>
      </trkpt>
      <trkpt lat="43.53173" lon="5.57807">
        <ele>874.6</ele>
        <time>2023-05-28T09:24:07Z</time>
      </trkpt>
      <trkpt lat="43.53173" lon="5.57806">
        <ele>874.6</ele>
        <time>2023-05-28T09:24:08Z</time>
      </trkpt>
      <trkpt lat="43.53174" lon="5.57806">
        <ele>874.7</ele>
        <time>2023-05-28T09:24:09Z</time>
      </trkpt>
      <trkpt lat="43.53172" lon="5.57807">
        <ele>874.9</ele>
        <time>2023-05-28T09:24:10Z</time>
      </trkpt>
      <trkpt lat="43.53172" lon="5.57807">
        <ele>875</ele>
        <time>2023-05-28T09:24:11Z</time>
      </trkpt>
      <trkpt lat="43.53172" lon="5.57807">
        <ele>875</ele>
        <time>2023-05-28T09:24:12Z</time>
      </trkpt>
      <trkpt lat="43.53172" lon="5.57807">
        <ele>875.1</ele>
        <time>2023-05-28T09:24:13Z</time>
      </trkpt>
      <trkpt lat="43.53172" lon="5.57808">
        <ele>875.1</ele>
        <time>2023-05-28T09:24:14Z</time>
      </trkpt>
      <trkpt lat="43.53172" lon="5.57808">
        <ele>875.1</ele>
        <time>2023-05-28T09:24:15Z</time>
      </trkpt>
      <trkpt lat="43.53172" lon="5.57808">
        <ele>875.1</ele>
        <time>2023-05-28T09:24:16Z</time>
      </trkpt>
      <trkpt lat="43.53171" lon="5.57809">
        <ele>875.2</ele>
        <time>2023-05-28T09:24:17Z</time>
      </trkpt>
      <trkpt lat="43.53171" lon="5.57809">
        <ele>874.4</ele>
        <time>2023-05-28T09:24:18Z</time>
      </trkpt>
      <trkpt lat="43.53171" lon="5.57809">
        <ele>874.7</ele>
        <time>2023-05-28T09:24:19Z</time>
      </trkpt>
      <trkpt lat="43.53171" lon="5.5781">
        <ele>875.5</ele>
        <time>2023-05-28T09:24:20Z</time>
      </trkpt>
      <trkpt lat="43.53171" lon="5.5781">
        <ele>875.6</ele>
        <time>2023-05-28T09:24:21Z</time>
      </trkpt>
      <trkpt lat="43.53172" lon="5.5781">
        <ele>875.7</ele>
        <time>2023-05-28T09:24:22Z</time>
      </trkpt>
      <trkpt lat="43.53172" lon="5.5781">
        <ele>875.8</ele>
        <time>2023-05-28T09:24:23Z</time>
      </trkpt>
      <trkpt lat="43.53171" lon="5.5781">
        <ele>875.7</ele>
        <time>2023-05-28T09:24:24Z</time>
      </trkpt>
      <trkpt lat="43.53171" lon="5.5781">
        <ele>875.7</ele>
        <time>2023-05-28T09:24:25Z</time>
      </trkpt>
      <trkpt lat="43.53171" lon="5.5781">
        <ele>875.8</ele>
        <time>2023-05-28T09:24:26Z</time>
      </trkpt>
      <trkpt lat="43.53171" lon="5.5781">
        <ele>875.8</ele>
        <time>2023-05-28T09:24:27Z</time>
      </trkpt>
      <trkpt lat="43.53171" lon="5.5781">
        <ele>875.8</ele>
        <time>2023-05-28T09:24:28Z</time>
      </trkpt>
      <trkpt lat="43.53171" lon="5.5781">
        <ele>875.8</ele>
        <time>2023-05-28T09:24:29Z</time>
      </trkpt>
      <trkpt lat="43.53171" lon="5.5781">
        <ele>875.8</ele>
        <time>2023-05-28T09:24:30Z</time>
      </trkpt>
      <trkpt lat="43.53171" lon="5.5781">
        <ele>875.8</ele>
        <time>2023-05-28T09:24:31Z</time>
      </trkpt>
      <trkpt lat="43.53171" lon="5.5781">
        <ele>875.8</ele>
        <time>2023-05-28T09:24:32Z</time>
      </trkpt>
      <trkpt lat="43.53171" lon="5.57811">
        <ele>875.8</ele>
        <time>2023-05-28T09:24:33Z</time>
      </trkpt>
      <trkpt lat="43.53171" lon="5.57811">
        <ele>875.9</ele>
        <time>2023-05-28T09:24:34Z</time>
      </trkpt>
      <trkpt lat="43.53171" lon="5.57811">
        <ele>875.9</ele>
        <time>2023-05-28T09:24:35Z</time>
      </trkpt>
      <trkpt lat="43.53171" lon="5.57811">
        <ele>876</ele>
        <time>2023-05-28T09:24:36Z</time>
      </trkpt>
      <trkpt lat="43.53171" lon="5.5781">
        <ele>876</ele>
        <time>2023-05-28T09:24:37Z</time>
      </trkpt>
      <trkpt lat="43.53171" lon="5.57811">
        <ele>876.1</ele>
        <time>2023-05-28T09:24:38Z</time>
      </trkpt>
      <trkpt lat="43.53171" lon="5.57811">
        <ele>876.1</ele>
        <time>2023-05-28T09:24:39Z</time>
      </trkpt>
      <trkpt lat="43.53171" lon="5.57811">
        <ele>876.2</ele>
        <time>2023-05-28T09:24:40Z</time>
      </trkpt>
      <trkpt lat="43.53171" lon="5.57811">
        <ele>876.2</ele>
        <time>2023-05-28T09:24:41Z</time>
      </trkpt>
      <trkpt lat="43.5317" lon="5.57812">
        <ele>876.3</ele>
        <time>2023-05-28T09:24:42Z</time>
      </trkpt>
      <trkpt lat="43.5317" lon="5.57811">
        <ele>876.3</ele>
        <time>2023-05-28T09:24:43Z</time>
      </trkpt>
      <trkpt lat="43.5317" lon="5.57812">
        <ele>876.4</ele>
        <time>2023-05-28T09:24:44Z</time>
      </trkpt>
      <trkpt lat="43.53169" lon="5.57812">
        <ele>876.5</ele>
        <time>2023-05-28T09:24:45Z</time>
      </trkpt>
      <trkpt lat="43.53168" lon="5.57813">
        <ele>876.4</ele>
        <time>2023-05-28T09:24:46Z</time>
      </trkpt>
      <trkpt lat="43.53167" lon="5.57814">
        <ele>876.3</ele>
        <time>2023-05-28T09:24:47Z</time>
      </trkpt>
      <trkpt lat="43.53167" lon="5.57815">
        <ele>876.3</ele>
        <time>2023-05-28T09:24:48Z</time>
      </trkpt>
      <trkpt lat="43.53166" lon="5.57815">
        <ele>876.2</ele>
        <time>2023-05-28T09:24:49Z</time>
      </trkpt>
      <trkpt lat="43.53166" lon="5.57816">
        <ele>876.2</ele>
        <time>2023-05-28T09:24:50Z</time>
      </trkpt>
      <trkpt lat="43.53164" lon="5.57816">
        <ele>876.3</ele>
        <time>2023-05-28T09:24:51Z</time>
      </trkpt>
      <trkpt lat="43.53164" lon="5.57817">
        <ele>876.3</ele>
        <time>2023-05-28T09:24:52Z</time>
      </trkpt>
      <trkpt lat="43.53164" lon="5.57818">
        <ele>876.3</ele>
        <time>2023-05-28T09:24:53Z</time>
      </trkpt>
      <trkpt lat="43.53164" lon="5.57819">
        <ele>876.3</ele>
        <time>2023-05-28T09:24:54Z</time>
      </trkpt>
      <trkpt lat="43.53163" lon="5.57819">
        <ele>876.3</ele>
        <time>2023-05-28T09:24:55Z</time>
      </trkpt>
      <trkpt lat="43.53163" lon="5.5782">
        <ele>876.3</ele>
        <time>2023-05-28T09:24:56Z</time>
      </trkpt>
      <trkpt lat="43.53162" lon="5.57821">
        <ele>876.3</ele>
        <time>2023-05-28T09:24:57Z</time>
      </trkpt>
      <trkpt lat="43.53161" lon="5.57822">
        <ele>876.3</ele>
        <time>2023-05-28T09:24:58Z</time>
      </trkpt>
      <trkpt lat="43.53161" lon="5.57823">
        <ele>876.4</ele>
        <time>2023-05-28T09:24:59Z</time>
      </trkpt>
      <trkpt lat="43.5316" lon="5.57823">
        <ele>876.3</ele>
        <time>2023-05-28T09:25:00Z</time>
      </trkpt>
      <trkpt lat="43.53159" lon="5.57825">
        <ele>876.4</ele>
        <time>2023-05-28T09:25:01Z</time>
      </trkpt>
      <trkpt lat="43.53159" lon="5.57826">
        <ele>876.4</ele>
        <time>2023-05-28T09:25:02Z</time>
      </trkpt>
      <trkpt lat="43.53159" lon="5.57828">
        <ele>876.4</ele>
        <time>2023-05-28T09:25:03Z</time>
      </trkpt>
      <trkpt lat="43.53159" lon="5.57829">
        <ele>876.4</ele>
        <time>2023-05-28T09:25:04Z</time>
      </trkpt>
      <trkpt lat="43.53159" lon="5.57831">
        <ele>876.4</ele>
        <time>2023-05-28T09:25:05Z</time>
      </trkpt>
      <trkpt lat="43.53159" lon="5.57832">
        <ele>876.4</ele>
        <time>2023-05-28T09:25:06Z</time>
      </trkpt>
      <trkpt lat="43.53158" lon="5.57832">
        <ele>876.4</ele>
        <time>2023-05-28T09:25:07Z</time>
      </trkpt>
      <trkpt lat="43.53158" lon="5.57833">
        <ele>876.4</ele>
        <time>2023-05-28T09:25:08Z</time>
      </trkpt>
      <trkpt lat="43.53158" lon="5.57833">
        <ele>876.4</ele>
        <time>2023-05-28T09:25:09Z</time>
      </trkpt>
      <trkpt lat="43.53157" lon="5.57834">
        <ele>876.3</ele>
        <time>2023-05-28T09:25:10Z</time>
      </trkpt>
      <trkpt lat="43.53157" lon="5.57834">
        <ele>876.2</ele>
        <time>2023-05-28T09:25:11Z</time>
      </trkpt>
      <trkpt lat="43.53157" lon="5.57834">
        <ele>876.1</ele>
        <time>2023-05-28T09:25:12Z</time>
      </trkpt>
      <trkpt lat="43.53157" lon="5.57835">
        <ele>876</ele>
        <time>2023-05-28T09:25:13Z</time>
      </trkpt>
      <trkpt lat="43.53157" lon="5.57835">
        <ele>876.1</ele>
        <time>2023-05-28T09:25:14Z</time>
      </trkpt>
      <trkpt lat="43.53157" lon="5.57834">
        <ele>876.2</ele>
        <time>2023-05-28T09:25:15Z</time>
      </trkpt>
      <trkpt lat="43.53157" lon="5.57834">
        <ele>876.2</ele>
        <time>2023-05-28T09:25:16Z</time>
      </trkpt>
      <trkpt lat="43.53157" lon="5.57834">
        <ele>876.2</ele>
        <time>2023-05-28T09:25:17Z</time>
      </trkpt>
      <trkpt lat="43.53157" lon="5.57834">
        <ele>876.2</ele>
        <time>2023-05-28T09:25:18Z</time>
      </trkpt>
      <trkpt lat="43.53157" lon="5.57834">
        <ele>876.3</ele>
        <time>2023-05-28T09:25:19Z</time>
      </trkpt>
      <trkpt lat="43.53157" lon="5.57834">
        <ele>876.3</ele>
        <time>2023-05-28T09:25:20Z</time>
      </trkpt>
      <trkpt lat="43.53157" lon="5.57834">
        <ele>876.3</ele>
        <time>2023-05-28T09:25:21Z</time>
      </trkpt>
      <trkpt lat="43.53157" lon="5.57834">
        <ele>876.3</ele>
        <time>2023-05-28T09:25:22Z</time>
      </trkpt>
      <trkpt lat="43.53157" lon="5.57834">
        <ele>876.4</ele>
        <time>2023-05-28T09:25:23Z</time>
      </trkpt>
      <trkpt lat="43.53157" lon="5.57834">
        <ele>876.5</ele>
        <time>2023-05-28T09:25:24Z</time>
      </trkpt>
      <trkpt lat="43.53157" lon="5.57834">
        <ele>876.5</ele>
        <time>2023-05-28T09:25:25Z</time>
      </trkpt>
      <trkpt lat="43.53157" lon="5.57834">
        <ele>876.5</ele>
        <time>2023-05-28T09:25:26Z</time>
      </trkpt>
      <trkpt lat="43.53157" lon="5.57834">
        <ele>876.4</ele>
        <time>2023-05-28T09:25:27Z</time>
      </trkpt>
      <trkpt lat="43.53157" lon="5.57834">
        <ele>876.5</ele>
        <time>2023-05-28T09:25:28Z</time>
      </trkpt>
      <trkpt lat="43.53157" lon="5.57834">
        <ele>876.5</ele>
        <time>2023-05-28T09:25:29Z</time>
      </trkpt>
      <trkpt lat="43.53157" lon="5.57834">
        <ele>876.6</ele>
        <time>2023-05-28T09:25:30Z</time>
      </trkpt>
      <trkpt lat="43.53158" lon="5.57834">
        <ele>876.7</ele>
        <time>2023-05-28T09:25:31Z</time>
      </trkpt>
      <trkpt lat="43.53158" lon="5.57834">
        <ele>876.8</ele>
        <time>2023-05-28T09:25:32Z</time>
      </trkpt>
      <trkpt lat="43.53158" lon="5.57834">
        <ele>876.8</ele>
        <time>2023-05-28T09:25:33Z</time>
      </trkpt>
      <trkpt lat="43.53158" lon="5.57833">
        <ele>876.9</ele>
        <time>2023-05-28T09:25:34Z</time>
      </trkpt>
      <trkpt lat="43.53158" lon="5.57833">
        <ele>876.9</ele>
        <time>2023-05-28T09:25:35Z</time>
      </trkpt>
      <trkpt lat="43.53158" lon="5.57833">
        <ele>876.9</ele>
        <time>2023-05-28T09:25:36Z</time>
      </trkpt>
      <trkpt lat="43.53158" lon="5.57833">
        <ele>876.9</ele>
        <time>2023-05-28T09:25:37Z</time>
      </trkpt>
      <trkpt lat="43.53158" lon="5.57833">
        <ele>876.9</ele>
        <time>2023-05-28T09:25:38Z</time>
      </trkpt>
      <trkpt lat="43.53157" lon="5.57833">
        <ele>877</ele>
        <time>2023-05-28T09:25:39Z</time>
      </trkpt>
      <trkpt lat="43.53158" lon="5.57833">
        <ele>877.1</ele>
        <time>2023-05-28T09:25:40Z</time>
      </trkpt>
      <trkpt lat="43.53158" lon="5.57832">
        <ele>877.2</ele>
        <time>2023-05-28T09:25:41Z</time>
      </trkpt>
      <trkpt lat="43.53158" lon="5.57832">
        <ele>877.3</ele>
        <time>2023-05-28T09:25:42Z</time>
      </trkpt>
      <trkpt lat="43.53158" lon="5.57832">
        <ele>877.4</ele>
        <time>2023-05-28T09:25:43Z</time>
      </trkpt>
      <trkpt lat="43.53159" lon="5.57832">
        <ele>877.4</ele>
        <time>2023-05-28T09:25:44Z</time>
      </trkpt>
      <trkpt lat="43.53158" lon="5.57832">
        <ele>877.3</ele>
        <time>2023-05-28T09:25:45Z</time>
      </trkpt>
      <trkpt lat="43.53159" lon="5.57831">
        <ele>877.3</ele>
        <time>2023-05-28T09:25:46Z</time>
      </trkpt>
      <trkpt lat="43.5316" lon="5.5783">
        <ele>877.3</ele>
        <time>2023-05-28T09:25:47Z</time>
      </trkpt>
      <trkpt lat="43.5316" lon="5.57831">
        <ele>877.3</ele>
        <time>2023-05-28T09:25:48Z</time>
      </trkpt>
      <trkpt lat="43.53159" lon="5.57831">
        <ele>877.2</ele>
        <time>2023-05-28T09:25:49Z</time>
      </trkpt>
      <trkpt lat="43.53159" lon="5.57831">
        <ele>877.2</ele>
        <time>2023-05-28T09:25:50Z</time>
      </trkpt>
      <trkpt lat="43.53159" lon="5.57833">
        <ele>877.2</ele>
        <time>2023-05-28T09:25:51Z</time>
      </trkpt>
      <trkpt lat="43.53159" lon="5.57834">
        <ele>877.2</ele>
        <time>2023-05-28T09:25:52Z</time>
      </trkpt>
      <trkpt lat="43.53161" lon="5.57835">
        <ele>877.3</ele>
        <time>2023-05-28T09:25:53Z</time>
      </trkpt>
      <trkpt lat="43.53161" lon="5.57835">
        <ele>877.1</ele>
        <time>2023-05-28T09:25:54Z</time>
      </trkpt>
      <trkpt lat="43.53162" lon="5.57834">
        <ele>877.2</ele>
        <time>2023-05-28T09:25:55Z</time>
      </trkpt>
      <trkpt lat="43.53162" lon="5.57833">
        <ele>877.2</ele>
        <time>2023-05-28T09:25:56Z</time>
      </trkpt>
      <trkpt lat="43.53163" lon="5.57832">
        <ele>877.2</ele>
        <time>2023-05-28T09:25:57Z</time>
      </trkpt>
      <trkpt lat="43.53164" lon="5.57832">
        <ele>877.3</ele>
        <time>2023-05-28T09:25:58Z</time>
      </trkpt>
      <trkpt lat="43.53165" lon="5.57831">
        <ele>877.4</ele>
        <time>2023-05-28T09:25:59Z</time>
      </trkpt>
      <trkpt lat="43.53166" lon="5.5783">
        <ele>877.4</ele>
        <time>2023-05-28T09:26:00Z</time>
      </trkpt>
      <trkpt lat="43.53167" lon="5.57829">
        <ele>877.2</ele>
        <time>2023-05-28T09:26:01Z</time>
      </trkpt>
      <trkpt lat="43.53168" lon="5.57829">
        <ele>877.1</ele>
        <time>2023-05-28T09:26:02Z</time>
      </trkpt>
      <trkpt lat="43.53169" lon="5.57828">
        <ele>877</ele>
        <time>2023-05-28T09:26:03Z</time>
      </trkpt>
      <trkpt lat="43.53169" lon="5.57827">
        <ele>877</ele>
        <time>2023-05-28T09:26:04Z</time>
      </trkpt>
      <trkpt lat="43.5317" lon="5.57827">
        <ele>877.1</ele>
        <time>2023-05-28T09:26:05Z</time>
      </trkpt>
      <trkpt lat="43.5317" lon="5.57826">
        <ele>877.2</ele>
        <time>2023-05-28T09:26:06Z</time>
      </trkpt>
      <trkpt lat="43.5317" lon="5.57825">
        <ele>877.3</ele>
        <time>2023-05-28T09:26:07Z</time>
      </trkpt>
      <trkpt lat="43.5317" lon="5.57825">
        <ele>877.3</ele>
        <time>2023-05-28T09:26:08Z</time>
      </trkpt>
      <trkpt lat="43.53171" lon="5.57824">
        <ele>877.4</ele>
        <time>2023-05-28T09:26:09Z</time>
      </trkpt>
      <trkpt lat="43.53171" lon="5.57824">
        <ele>877.4</ele>
        <time>2023-05-28T09:26:10Z</time>
      </trkpt>
      <trkpt lat="43.53171" lon="5.57823">
        <ele>877.6</ele>
        <time>2023-05-28T09:26:11Z</time>
      </trkpt>
      <trkpt lat="43.53171" lon="5.57822">
        <ele>877.6</ele>
        <time>2023-05-28T09:26:12Z</time>
      </trkpt>
      <trkpt lat="43.5317" lon="5.57821">
        <ele>877.7</ele>
        <time>2023-05-28T09:26:13Z</time>
      </trkpt>
      <trkpt lat="43.5317" lon="5.57821">
        <ele>877.8</ele>
        <time>2023-05-28T09:26:14Z</time>
      </trkpt>
      <trkpt lat="43.5317" lon="5.57819">
        <ele>877.7</ele>
        <time>2023-05-28T09:26:15Z</time>
      </trkpt>
      <trkpt lat="43.5317" lon="5.57819">
        <ele>877.7</ele>
        <time>2023-05-28T09:26:16Z</time>
      </trkpt>
      <trkpt lat="43.53171" lon="5.57818">
        <ele>877.7</ele>
        <time>2023-05-28T09:26:17Z</time>
      </trkpt>
      <trkpt lat="43.53172" lon="5.57818">
        <ele>877.7</ele>
        <time>2023-05-28T09:26:18Z</time>
      </trkpt>
      <trkpt lat="43.53174" lon="5.57818">
        <ele>877.6</ele>
        <time>2023-05-28T09:26:19Z</time>
      </trkpt>
      <trkpt lat="43.53174" lon="5.57817">
        <ele>877.6</ele>
        <time>2023-05-28T09:26:20Z</time>
      </trkpt>
      <trkpt lat="43.53174" lon="5.57816">
        <ele>877.7</ele>
        <time>2023-05-28T09:26:21Z</time>
      </trkpt>
      <trkpt lat="43.53174" lon="5.57816">
        <ele>877.7</ele>
        <time>2023-05-28T09:26:22Z</time>
      </trkpt>
      <trkpt lat="43.53175" lon="5.57816">
        <ele>877.7</ele>
        <time>2023-05-28T09:26:23Z</time>
      </trkpt>
      <trkpt lat="43.53174" lon="5.57817">
        <ele>877.6</ele>
        <time>2023-05-28T09:26:24Z</time>
      </trkpt>
      <trkpt lat="43.53174" lon="5.57817">
        <ele>877.6</ele>
        <time>2023-05-28T09:26:25Z</time>
      </trkpt>
      <trkpt lat="43.53174" lon="5.57816">
        <ele>877.6</ele>
        <time>2023-05-28T09:26:26Z</time>
      </trkpt>
      <trkpt lat="43.53174" lon="5.57816">
        <ele>877.6</ele>
        <time>2023-05-28T09:26:27Z</time>
      </trkpt>
      <trkpt lat="43.53174" lon="5.57816">
        <ele>877.6</ele>
        <time>2023-05-28T09:26:28Z</time>
      </trkpt>
      <trkpt lat="43.53174" lon="5.57816">
        <ele>877.6</ele>
        <time>2023-05-28T09:26:29Z</time>
      </trkpt>
      <trkpt lat="43.53174" lon="5.57816">
        <ele>877.5</ele>
        <time>2023-05-28T09:26:30Z</time>
      </trkpt>
      <trkpt lat="43.53174" lon="5.57816">
        <ele>877.5</ele>
        <time>2023-05-28T09:26:31Z</time>
      </trkpt>
      <trkpt lat="43.53174" lon="5.57817">
        <ele>877.4</ele>
        <time>2023-05-28T09:26:32Z</time>
      </trkpt>
      <trkpt lat="43.53175" lon="5.57817">
        <ele>877.5</ele>
        <time>2023-05-28T09:26:33Z</time>
      </trkpt>
      <trkpt lat="43.53175" lon="5.57817">
        <ele>877.5</ele>
        <time>2023-05-28T09:26:34Z</time>
      </trkpt>
      <trkpt lat="43.53175" lon="5.57817">
        <ele>877.5</ele>
        <time>2023-05-28T09:26:35Z</time>
      </trkpt>
      <trkpt lat="43.53172" lon="5.57818">
        <ele>877.6</ele>
        <time>2023-05-28T09:26:36Z</time>
      </trkpt>
      <trkpt lat="43.53172" lon="5.57817">
        <ele>877.6</ele>
        <time>2023-05-28T09:26:37Z</time>
      </trkpt>
      <trkpt lat="43.53171" lon="5.57818">
        <ele>877.6</ele>
        <time>2023-05-28T09:26:38Z</time>
      </trkpt>
      <trkpt lat="43.53171" lon="5.57819">
        <ele>877.7</ele>
        <time>2023-05-28T09:26:39Z</time>
      </trkpt>
      <trkpt lat="43.53172" lon="5.57819">
        <ele>877.7</ele>
        <time>2023-05-28T09:26:40Z</time>
      </trkpt>
      <trkpt lat="43.53172" lon="5.5782">
        <ele>877.6</ele>
        <time>2023-05-28T09:26:41Z</time>
      </trkpt>
      <trkpt lat="43.53173" lon="5.57819">
        <ele>877.6</ele>
        <time>2023-05-28T09:26:42Z</time>
      </trkpt>
      <trkpt lat="43.53177" lon="5.57818">
        <ele>877.6</ele>
        <time>2023-05-28T09:26:43Z</time>
      </trkpt>
      <trkpt lat="43.53177" lon="5.57819">
        <ele>877.6</ele>
        <time>2023-05-28T09:26:44Z</time>
      </trkpt>
      <trkpt lat="43.53178" lon="5.57819">
        <ele>877.6</ele>
        <time>2023-05-28T09:26:45Z</time>
      </trkpt>
      <trkpt lat="43.53174" lon="5.57829">
        <ele>877.6</ele>
        <time>2023-05-28T09:26:50Z</time>
      </trkpt>
      <trkpt lat="43.53176" lon="5.57826">
        <ele>877.6</ele>
        <time>2023-05-28T09:26:51Z</time>
      </trkpt>
      <trkpt lat="43.53181" lon="5.57819">
        <ele>877.9</ele>
        <time>2023-05-28T09:27:56Z</time>
      </trkpt>
      <trkpt lat="43.53179" lon="5.5782">
        <ele>877.9</ele>
        <time>2023-05-28T09:27:57Z</time>
      </trkpt>
      <trkpt lat="43.53176" lon="5.5782">
        <ele>877.9</ele>
        <time>2023-05-28T09:27:58Z</time>
      </trkpt>
      <trkpt lat="43.53176" lon="5.57821">
        <ele>877.9</ele>
        <time>2023-05-28T09:27:59Z</time>
      </trkpt>
      <trkpt lat="43.53176" lon="5.57821">
        <ele>877.9</ele>
        <time>2023-05-28T09:28:00Z</time>
      </trkpt>
      <trkpt lat="43.53174" lon="5.57821">
        <ele>877.9</ele>
        <time>2023-05-28T09:28:01Z</time>
      </trkpt>
      <trkpt lat="43.53174" lon="5.5782">
        <ele>877.9</ele>
        <time>2023-05-28T09:28:02Z</time>
      </trkpt>
      <trkpt lat="43.53174" lon="5.5782">
        <ele>877.9</ele>
        <time>2023-05-28T09:28:03Z</time>
      </trkpt>
      <trkpt lat="43.53174" lon="5.57821">
        <ele>877.9</ele>
        <time>2023-05-28T09:28:04Z</time>
      </trkpt>
      <trkpt lat="43.53174" lon="5.57821">
        <ele>877.9</ele>
        <time>2023-05-28T09:28:05Z</time>
      </trkpt>
      <trkpt lat="43.53174" lon="5.5782">
        <ele>878</ele>
        <time>2023-05-28T09:28:06Z</time>
      </trkpt>
      <trkpt lat="43.53176" lon="5.57819">
        <ele>878</ele>
        <time>2023-05-28T09:28:07Z</time>
      </trkpt>
      <trkpt lat="43.53177" lon="5.57816">
        <ele>878</ele>
        <time>2023-05-28T09:28:08Z</time>
      </trkpt>
      <trkpt lat="43.53178" lon="5.57815">
        <ele>878</ele>
        <time>2023-05-28T09:28:09Z</time>
      </trkpt>
      <trkpt lat="43.53177" lon="5.57816">
        <ele>878</ele>
        <time>2023-05-28T09:28:10Z</time>
      </trkpt>
      <trkpt lat="43.53176" lon="5.57815">
        <ele>878</ele>
        <time>2023-05-28T09:28:11Z</time>
      </trkpt>
      <trkpt lat="43.53176" lon="5.57815">
        <ele>878</ele>
        <time>2023-05-28T09:28:12Z</time>
      </trkpt>
      <trkpt lat="43.53175" lon="5.57814">
        <ele>878</ele>
        <time>2023-05-28T09:28:13Z</time>
      </trkpt>
      <trkpt lat="43.53175" lon="5.57815">
        <ele>878</ele>
        <time>2023-05-28T09:28:14Z</time>
      </trkpt>
      <trkpt lat="43.53175" lon="5.57814">
        <ele>878</ele>
        <time>2023-05-28T09:28:15Z</time>
      </trkpt>
      <trkpt lat="43.53175" lon="5.57814">
        <ele>878.1</ele>
        <time>2023-05-28T09:28:16Z</time>
      </trkpt>
      <trkpt lat="43.53175" lon="5.57814">
        <ele>878.1</ele>
        <time>2023-05-28T09:28:17Z</time>
      </trkpt>
      <trkpt lat="43.53174" lon="5.57814">
        <ele>878.2</ele>
        <time>2023-05-28T09:28:18Z</time>
      </trkpt>
      <trkpt lat="43.53173" lon="5.57814">
        <ele>878.2</ele>
        <time>2023-05-28T09:28:19Z</time>
      </trkpt>
      <trkpt lat="43.53172" lon="5.57813">
        <ele>878.2</ele>
        <time>2023-05-28T09:28:20Z</time>
      </trkpt>
      <trkpt lat="43.53172" lon="5.57813">
        <ele>878.2</ele>
        <time>2023-05-28T09:28:21Z</time>
      </trkpt>
      <trkpt lat="43.53172" lon="5.57812">
        <ele>878.2</ele>
        <time>2023-05-28T09:28:22Z</time>
      </trkpt>
      <trkpt lat="43.53172" lon="5.57812">
        <ele>878.2</ele>
        <time>2023-05-28T09:28:23Z</time>
      </trkpt>
      <trkpt lat="43.53173" lon="5.57812">
        <ele>878.2</ele>
        <time>2023-05-28T09:28:24Z</time>
      </trkpt>
      <trkpt lat="43.53172" lon="5.57811">
        <ele>878</ele>
        <time>2023-05-28T09:28:25Z</time>
      </trkpt>
      <trkpt lat="43.53172" lon="5.5781">
        <ele>877.9</ele>
        <time>2023-05-28T09:28:26Z</time>
      </trkpt>
      <trkpt lat="43.53173" lon="5.5781">
        <ele>877.9</ele>
        <time>2023-05-28T09:28:27Z</time>
      </trkpt>
      <trkpt lat="43.53172" lon="5.57809">
        <ele>877.8</ele>
        <time>2023-05-28T09:28:28Z</time>
      </trkpt>
      <trkpt lat="43.53172" lon="5.5781">
        <ele>877.7</ele>
        <time>2023-05-28T09:28:29Z</time>
      </trkpt>
      <trkpt lat="43.53172" lon="5.5781">
        <ele>877.8</ele>
        <time>2023-05-28T09:28:30Z</time>
      </trkpt>
      <trkpt lat="43.53173" lon="5.5781">
        <ele>877.8</ele>
        <time>2023-05-28T09:28:31Z</time>
      </trkpt>
      <trkpt lat="43.53173" lon="5.5781">
        <ele>877.8</ele>
        <time>2023-05-28T09:28:32Z</time>
      </trkpt>
      <trkpt lat="43.53173" lon="5.5781">
        <ele>877.9</ele>
        <time>2023-05-28T09:28:33Z</time>
      </trkpt>
      <trkpt lat="43.53173" lon="5.5781">
        <ele>877.9</ele>
        <time>2023-05-28T09:28:34Z</time>
      </trkpt>
      <trkpt lat="43.53173" lon="5.5781">
        <ele>877.9</ele>
        <time>2023-05-28T09:28:35Z</time>
      </trkpt>
      <trkpt lat="43.53173" lon="5.5781">
        <ele>878</ele>
        <time>2023-05-28T09:28:36Z</time>
      </trkpt>
      <trkpt lat="43.53173" lon="5.5781">
        <ele>878</ele>
        <time>2023-05-28T09:28:37Z</time>
      </trkpt>
      <trkpt lat="43.53173" lon="5.5781">
        <ele>878.1</ele>
        <time>2023-05-28T09:28:38Z</time>
      </trkpt>
      <trkpt lat="43.53173" lon="5.5781">
        <ele>878.2</ele>
        <time>2023-05-28T09:28:39Z</time>
      </trkpt>
      <trkpt lat="43.53173" lon="5.5781">
        <ele>878.3</ele>
        <time>2023-05-28T09:28:40Z</time>
      </trkpt>
      <trkpt lat="43.53173" lon="5.5781">
        <ele>878.4</ele>
        <time>2023-05-28T09:28:41Z</time>
      </trkpt>
      <trkpt lat="43.53173" lon="5.5781">
        <ele>878.4</ele>
        <time>2023-05-28T09:28:42Z</time>
      </trkpt>
      <trkpt lat="43.53173" lon="5.57811">
        <ele>878.4</ele>
        <time>2023-05-28T09:28:43Z</time>
      </trkpt>
      <trkpt lat="43.53172" lon="5.57811">
        <ele>878.4</ele>
        <time>2023-05-28T09:28:44Z</time>
      </trkpt>
      <trkpt lat="43.53172" lon="5.57812">
        <ele>878.4</ele>
        <time>2023-05-28T09:28:45Z</time>
      </trkpt>
      <trkpt lat="43.53172" lon="5.57811">
        <ele>878.4</ele>
        <time>2023-05-28T09:28:46Z</time>
      </trkpt>
      <trkpt lat="43.53171" lon="5.57811">
        <ele>878.3</ele>
        <time>2023-05-28T09:28:47Z</time>
      </trkpt>
      <trkpt lat="43.53171" lon="5.5781">
        <ele>878.4</ele>
        <time>2023-05-28T09:28:48Z</time>
      </trkpt>
      <trkpt lat="43.53171" lon="5.5781">
        <ele>878.3</ele>
        <time>2023-05-28T09:28:49Z</time>
      </trkpt>
      <trkpt lat="43.5317" lon="5.5781">
        <ele>878.4</ele>
        <time>2023-05-28T09:28:50Z</time>
      </trkpt>
      <trkpt lat="43.5317" lon="5.5781">
        <ele>878.6</ele>
        <time>2023-05-28T09:28:51Z</time>
      </trkpt>
      <trkpt lat="43.5317" lon="5.5781">
        <ele>878.8</ele>
        <time>2023-05-28T09:28:52Z</time>
      </trkpt>
      <trkpt lat="43.53171" lon="5.57811">
        <ele>878.8</ele>
        <time>2023-05-28T09:28:53Z</time>
      </trkpt>
      <trkpt lat="43.53171" lon="5.5781">
        <ele>878.9</ele>
        <time>2023-05-28T09:28:54Z</time>
      </trkpt>
      <trkpt lat="43.53172" lon="5.5781">
        <ele>878.9</ele>
        <time>2023-05-28T09:28:55Z</time>
      </trkpt>
      <trkpt lat="43.53172" lon="5.5781">
        <ele>879.1</ele>
        <time>2023-05-28T09:28:56Z</time>
      </trkpt>
      <trkpt lat="43.53173" lon="5.5781">
        <ele>879.3</ele>
        <time>2023-05-28T09:28:57Z</time>
      </trkpt>
      <trkpt lat="43.53173" lon="5.5781">
        <ele>879.4</ele>
        <time>2023-05-28T09:28:58Z</time>
      </trkpt>
      <trkpt lat="43.53173" lon="5.5781">
        <ele>879.5</ele>
        <time>2023-05-28T09:28:59Z</time>
      </trkpt>
      <trkpt lat="43.53173" lon="5.5781">
        <ele>879.6</ele>
        <time>2023-05-28T09:29:00Z</time>
      </trkpt>
      <trkpt lat="43.53173" lon="5.57809">
        <ele>879.6</ele>
        <time>2023-05-28T09:29:01Z</time>
      </trkpt>
      <trkpt lat="43.53173" lon="5.57809">
        <ele>879.7</ele>
        <time>2023-05-28T09:29:02Z</time>
      </trkpt>
      <trkpt lat="43.53172" lon="5.57808">
        <ele>879.9</ele>
        <time>2023-05-28T09:29:03Z</time>
      </trkpt>
      <trkpt lat="43.53172" lon="5.57808">
        <ele>880</ele>
        <time>2023-05-28T09:29:04Z</time>
      </trkpt>
      <trkpt lat="43.53172" lon="5.57808">
        <ele>880.2</ele>
        <time>2023-05-28T09:29:05Z</time>
      </trkpt>
      <trkpt lat="43.53171" lon="5.57808">
        <ele>880.4</ele>
        <time>2023-05-28T09:29:06Z</time>
      </trkpt>
      <trkpt lat="43.53171" lon="5.57808">
        <ele>880.6</ele>
        <time>2023-05-28T09:29:07Z</time>
      </trkpt>
      <trkpt lat="43.53172" lon="5.57808">
        <ele>880.9</ele>
        <time>2023-05-28T09:29:08Z</time>
      </trkpt>
      <trkpt lat="43.53172" lon="5.57808">
        <ele>881.2</ele>
        <time>2023-05-28T09:29:09Z</time>
      </trkpt>
      <trkpt lat="43.53172" lon="5.57808">
        <ele>881.4</ele>
        <time>2023-05-28T09:29:10Z</time>
      </trkpt>
      <trkpt lat="43.53172" lon="5.57807">
        <ele>881.6</ele>
        <time>2023-05-28T09:29:11Z</time>
      </trkpt>
      <trkpt lat="43.53172" lon="5.57806">
        <ele>881.8</ele>
        <time>2023-05-28T09:29:12Z</time>
      </trkpt>
      <trkpt lat="43.53171" lon="5.57805">
        <ele>882</ele>
        <time>2023-05-28T09:29:13Z</time>
      </trkpt>
      <trkpt lat="43.53171" lon="5.57805">
        <ele>882.1</ele>
        <time>2023-05-28T09:29:14Z</time>
      </trkpt>
      <trkpt lat="43.5317" lon="5.57804">
        <ele>882.4</ele>
        <time>2023-05-28T09:29:15Z</time>
      </trkpt>
      <trkpt lat="43.5317" lon="5.57804">
        <ele>882.6</ele>
        <time>2023-05-28T09:29:16Z</time>
      </trkpt>
      <trkpt lat="43.5317" lon="5.57804">
        <ele>882.8</ele>
        <time>2023-05-28T09:29:17Z</time>
      </trkpt>
      <trkpt lat="43.5317" lon="5.57803">
        <ele>882.9</ele>
        <time>2023-05-28T09:29:18Z</time>
      </trkpt>
      <trkpt lat="43.5317" lon="5.57802">
        <ele>883.1</ele>
        <time>2023-05-28T09:29:19Z</time>
      </trkpt>
      <trkpt lat="43.5317" lon="5.57801">
        <ele>883.3</ele>
        <time>2023-05-28T09:29:20Z</time>
      </trkpt>
      <trkpt lat="43.5317" lon="5.57801">
        <ele>883.6</ele>
        <time>2023-05-28T09:29:21Z</time>
      </trkpt>
      <trkpt lat="43.53169" lon="5.57801">
        <ele>883.8</ele>
        <time>2023-05-28T09:29:22Z</time>
      </trkpt>
      <trkpt lat="43.53169" lon="5.578">
        <ele>883.9</ele>
        <time>2023-05-28T09:29:23Z</time>
      </trkpt>
      <trkpt lat="43.53168" lon="5.578">
        <ele>884</ele>
        <time>2023-05-28T09:29:24Z</time>
      </trkpt>
      <trkpt lat="43.53167" lon="5.57801">
        <ele>884.4</ele>
        <time>2023-05-28T09:29:25Z</time>
      </trkpt>
      <trkpt lat="43.53167" lon="5.578">
        <ele>884.8</ele>
        <time>2023-05-28T09:29:26Z</time>
      </trkpt>
      <trkpt lat="43.53166" lon="5.578">
        <ele>885.2</ele>
        <time>2023-05-28T09:29:27Z</time>
      </trkpt>
      <trkpt lat="43.53165" lon="5.578">
        <ele>885.4</ele>
        <time>2023-05-28T09:29:28Z</time>
      </trkpt>
      <trkpt lat="43.53164" lon="5.578">
        <ele>885.9</ele>
        <time>2023-05-28T09:29:29Z</time>
      </trkpt>
      <trkpt lat="43.53164" lon="5.578">
        <ele>886.2</ele>
        <time>2023-05-28T09:29:30Z</time>
      </trkpt>
      <trkpt lat="43.53163" lon="5.578">
        <ele>886.5</ele>
        <time>2023-05-28T09:29:31Z</time>
      </trkpt>
      <trkpt lat="43.53163" lon="5.578">
        <ele>886.9</ele>
        <time>2023-05-28T09:29:32Z</time>
      </trkpt>
      <trkpt lat="43.53163" lon="5.57799">
        <ele>887.2</ele>
        <time>2023-05-28T09:29:33Z</time>
      </trkpt>
      <trkpt lat="43.53163" lon="5.57798">
        <ele>887.5</ele>
        <time>2023-05-28T09:29:34Z</time>
      </trkpt>
      <trkpt lat="43.53163" lon="5.57798">
        <ele>887.5</ele>
        <time>2023-05-28T09:29:35Z</time>
      </trkpt>
      <trkpt lat="43.53163" lon="5.57797">
        <ele>887.7</ele>
        <time>2023-05-28T09:29:36Z</time>
      </trkpt>
      <trkpt lat="43.53162" lon="5.57797">
        <ele>887.9</ele>
        <time>2023-05-28T09:29:37Z</time>
      </trkpt>
      <trkpt lat="43.53162" lon="5.57796">
        <ele>888</ele>
        <time>2023-05-28T09:29:38Z</time>
      </trkpt>
      <trkpt lat="43.53161" lon="5.57795">
        <ele>888.2</ele>
        <time>2023-05-28T09:29:39Z</time>
      </trkpt>
      <trkpt lat="43.53161" lon="5.57795">
        <ele>888.5</ele>
        <time>2023-05-28T09:29:40Z</time>
      </trkpt>
      <trkpt lat="43.53161" lon="5.57794">
        <ele>888.7</ele>
        <time>2023-05-28T09:29:41Z</time>
      </trkpt>
      <trkpt lat="43.5316" lon="5.57793">
        <ele>888.9</ele>
        <time>2023-05-28T09:29:42Z</time>
      </trkpt>
      <trkpt lat="43.5316" lon="5.57793">
        <ele>889</ele>
        <time>2023-05-28T09:29:43Z</time>
      </trkpt>
      <trkpt lat="43.5316" lon="5.57793">
        <ele>889.3</ele>
        <time>2023-05-28T09:29:44Z</time>
      </trkpt>
      <trkpt lat="43.53159" lon="5.57792">
        <ele>889.5</ele>
        <time>2023-05-28T09:29:45Z</time>
      </trkpt>
      <trkpt lat="43.53159" lon="5.57792">
        <ele>889.6</ele>
        <time>2023-05-28T09:29:46Z</time>
      </trkpt>
      <trkpt lat="43.53159" lon="5.57791">
        <ele>889.7</ele>
        <time>2023-05-28T09:29:47Z</time>
      </trkpt>
      <trkpt lat="43.53159" lon="5.5779">
        <ele>889.9</ele>
        <time>2023-05-28T09:29:48Z</time>
      </trkpt>
      <trkpt lat="43.53159" lon="5.57789">
        <ele>890</ele>
        <time>2023-05-28T09:29:49Z</time>
      </trkpt>
      <trkpt lat="43.53159" lon="5.57787">
        <ele>890</ele>
        <time>2023-05-28T09:29:50Z</time>
      </trkpt>
      <trkpt lat="43.53159" lon="5.57786">
        <ele>890.1</ele>
        <time>2023-05-28T09:29:51Z</time>
      </trkpt>
      <trkpt lat="43.53158" lon="5.57785">
        <ele>890.2</ele>
        <time>2023-05-28T09:29:52Z</time>
      </trkpt>
      <trkpt lat="43.53157" lon="5.57784">
        <ele>890.3</ele>
        <time>2023-05-28T09:29:53Z</time>
      </trkpt>
      <trkpt lat="43.53156" lon="5.57784">
        <ele>890.4</ele>
        <time>2023-05-28T09:29:54Z</time>
      </trkpt>
      <trkpt lat="43.53155" lon="5.57785">
        <ele>890.5</ele>
        <time>2023-05-28T09:29:55Z</time>
      </trkpt>
      <trkpt lat="43.53155" lon="5.57786">
        <ele>890.6</ele>
        <time>2023-05-28T09:29:56Z</time>
      </trkpt>
      <trkpt lat="43.53155" lon="5.57787">
        <ele>890.8</ele>
        <time>2023-05-28T09:29:57Z</time>
      </trkpt>
      <trkpt lat="43.53155" lon="5.57788">
        <ele>891</ele>
        <time>2023-05-28T09:29:58Z</time>
      </trkpt>
      <trkpt lat="43.53155" lon="5.57788">
        <ele>891.3</ele>
        <time>2023-05-28T09:29:59Z</time>
      </trkpt>
      <trkpt lat="43.53154" lon="5.57789">
        <ele>891.5</ele>
        <time>2023-05-28T09:30:00Z</time>
      </trkpt>
      <trkpt lat="43.53153" lon="5.5779">
        <ele>891.8</ele>
        <time>2023-05-28T09:30:01Z</time>
      </trkpt>
      <trkpt lat="43.53153" lon="5.57791">
        <ele>892</ele>
        <time>2023-05-28T09:30:02Z</time>
      </trkpt>
      <trkpt lat="43.53152" lon="5.57791">
        <ele>892.3</ele>
        <time>2023-05-28T09:30:03Z</time>
      </trkpt>
      <trkpt lat="43.53151" lon="5.57791">
        <ele>892.5</ele>
        <time>2023-05-28T09:30:04Z</time>
      </trkpt>
      <trkpt lat="43.53151" lon="5.57791">
        <ele>892.8</ele>
        <time>2023-05-28T09:30:05Z</time>
      </trkpt>
      <trkpt lat="43.5315" lon="5.57792">
        <ele>893.1</ele>
        <time>2023-05-28T09:30:06Z</time>
      </trkpt>
      <trkpt lat="43.5315" lon="5.57792">
        <ele>893.3</ele>
        <time>2023-05-28T09:30:07Z</time>
      </trkpt>
      <trkpt lat="43.53149" lon="5.57793">
        <ele>893.5</ele>
        <time>2023-05-28T09:30:08Z</time>
      </trkpt>
      <trkpt lat="43.53149" lon="5.57793">
        <ele>893.8</ele>
        <time>2023-05-28T09:30:09Z</time>
      </trkpt>
      <trkpt lat="43.53149" lon="5.57793">
        <ele>894</ele>
        <time>2023-05-28T09:30:10Z</time>
      </trkpt>
      <trkpt lat="43.53148" lon="5.57794">
        <ele>894.1</ele>
        <time>2023-05-28T09:30:11Z</time>
      </trkpt>
      <trkpt lat="43.53148" lon="5.57795">
        <ele>894.3</ele>
        <time>2023-05-28T09:30:12Z</time>
      </trkpt>
      <trkpt lat="43.53148" lon="5.57795">
        <ele>894.4</ele>
        <time>2023-05-28T09:30:13Z</time>
      </trkpt>
      <trkpt lat="43.53148" lon="5.57796">
        <ele>894.6</ele>
        <time>2023-05-28T09:30:14Z</time>
      </trkpt>
      <trkpt lat="43.53148" lon="5.57797">
        <ele>894.8</ele>
        <time>2023-05-28T09:30:15Z</time>
      </trkpt>
      <trkpt lat="43.53148" lon="5.57797">
        <ele>895</ele>
        <time>2023-05-28T09:30:16Z</time>
      </trkpt>
      <trkpt lat="43.53148" lon="5.57798">
        <ele>895.2</ele>
        <time>2023-05-28T09:30:17Z</time>
      </trkpt>
      <trkpt lat="43.53147" lon="5.57799">
        <ele>895.4</ele>
        <time>2023-05-28T09:30:18Z</time>
      </trkpt>
      <trkpt lat="43.53147" lon="5.57799">
        <ele>895.6</ele>
        <time>2023-05-28T09:30:19Z</time>
      </trkpt>
      <trkpt lat="43.53147" lon="5.578">
        <ele>895.8</ele>
        <time>2023-05-28T09:30:20Z</time>
      </trkpt>
      <trkpt lat="43.53146" lon="5.578">
        <ele>896</ele>
        <time>2023-05-28T09:30:21Z</time>
      </trkpt>
      <trkpt lat="43.53146" lon="5.57801">
        <ele>896.2</ele>
        <time>2023-05-28T09:30:22Z</time>
      </trkpt>
      <trkpt lat="43.53146" lon="5.57801">
        <ele>896.3</ele>
        <time>2023-05-28T09:30:23Z</time>
      </trkpt>
      <trkpt lat="43.53145" lon="5.57801">
        <ele>896.5</ele>
        <time>2023-05-28T09:30:24Z</time>
      </trkpt>
      <trkpt lat="43.53145" lon="5.57802">
        <ele>896.7</ele>
        <time>2023-05-28T09:30:25Z</time>
      </trkpt>
      <trkpt lat="43.53145" lon="5.57803">
        <ele>897</ele>
        <time>2023-05-28T09:30:26Z</time>
      </trkpt>
      <trkpt lat="43.53145" lon="5.57804">
        <ele>897.2</ele>
        <time>2023-05-28T09:30:27Z</time>
      </trkpt>
      <trkpt lat="43.53145" lon="5.57805">
        <ele>897.4</ele>
        <time>2023-05-28T09:30:28Z</time>
      </trkpt>
      <trkpt lat="43.53145" lon="5.57806">
        <ele>897.5</ele>
        <time>2023-05-28T09:30:29Z</time>
      </trkpt>
      <trkpt lat="43.53145" lon="5.57807">
        <ele>897.8</ele>
        <time>2023-05-28T09:30:30Z</time>
      </trkpt>
      <trkpt lat="43.53145" lon="5.57808">
        <ele>898</ele>
        <time>2023-05-28T09:30:31Z</time>
      </trkpt>
      <trkpt lat="43.53145" lon="5.57809">
        <ele>897.5</ele>
        <time>2023-05-28T09:30:32Z</time>
      </trkpt>
      <trkpt lat="43.53146" lon="5.5781">
        <ele>897.6</ele>
        <time>2023-05-28T09:30:33Z</time>
      </trkpt>
      <trkpt lat="43.53146" lon="5.5781">
        <ele>897.8</ele>
        <time>2023-05-28T09:30:34Z</time>
      </trkpt>
      <trkpt lat="43.53146" lon="5.57811">
        <ele>897.9</ele>
        <time>2023-05-28T09:30:35Z</time>
      </trkpt>
      <trkpt lat="43.53146" lon="5.57812">
        <ele>898</ele>
        <time>2023-05-28T09:30:36Z</time>
      </trkpt>
      <trkpt lat="43.53146" lon="5.57812">
        <ele>898</ele>
        <time>2023-05-28T09:30:37Z</time>
      </trkpt>
      <trkpt lat="43.53146" lon="5.57814">
        <ele>898</ele>
        <time>2023-05-28T09:30:38Z</time>
      </trkpt>
      <trkpt lat="43.53146" lon="5.57814">
        <ele>898</ele>
        <time>2023-05-28T09:30:39Z</time>
      </trkpt>
      <trkpt lat="43.53146" lon="5.57814">
        <ele>898.1</ele>
        <time>2023-05-28T09:30:40Z</time>
      </trkpt>
      <trkpt lat="43.53146" lon="5.57815">
        <ele>898.2</ele>
        <time>2023-05-28T09:30:41Z</time>
      </trkpt>
      <trkpt lat="43.53146" lon="5.57815">
        <ele>898.2</ele>
        <time>2023-05-28T09:30:42Z</time>
      </trkpt>
      <trkpt lat="43.53146" lon="5.57816">
        <ele>898.3</ele>
        <time>2023-05-28T09:30:43Z</time>
      </trkpt>
      <trkpt lat="43.53146" lon="5.57816">
        <ele>898.3</ele>
        <time>2023-05-28T09:30:44Z</time>
      </trkpt>
      <trkpt lat="43.53146" lon="5.57816">
        <ele>898.4</ele>
        <time>2023-05-28T09:30:45Z</time>
      </trkpt>
      <trkpt lat="43.53146" lon="5.57816">
        <ele>898.4</ele>
        <time>2023-05-28T09:30:46Z</time>
      </trkpt>
      <trkpt lat="43.53146" lon="5.57816">
        <ele>898.5</ele>
        <time>2023-05-28T09:30:47Z</time>
      </trkpt>
      <trkpt lat="43.53146" lon="5.57816">
        <ele>898.5</ele>
        <time>2023-05-28T09:30:48Z</time>
      </trkpt>
      <trkpt lat="43.53146" lon="5.57817">
        <ele>898.5</ele>
        <time>2023-05-28T09:30:49Z</time>
      </trkpt>
      <trkpt lat="43.53146" lon="5.57817">
        <ele>898.6</ele>
        <time>2023-05-28T09:30:50Z</time>
      </trkpt>
      <trkpt lat="43.53146" lon="5.57817">
        <ele>898.6</ele>
        <time>2023-05-28T09:30:51Z</time>
      </trkpt>
      <trkpt lat="43.53146" lon="5.57817">
        <ele>898.6</ele>
        <time>2023-05-28T09:30:52Z</time>
      </trkpt>
      <trkpt lat="43.53146" lon="5.57817">
        <ele>898.7</ele>
        <time>2023-05-28T09:30:53Z</time>
      </trkpt>
      <trkpt lat="43.53146" lon="5.57817">
        <ele>898.7</ele>
        <time>2023-05-28T09:30:54Z</time>
      </trkpt>
      <trkpt lat="43.53146" lon="5.57816">
        <ele>898.8</ele>
        <time>2023-05-28T09:30:55Z</time>
      </trkpt>
      <trkpt lat="43.53146" lon="5.57816">
        <ele>898.9</ele>
        <time>2023-05-28T09:30:56Z</time>
      </trkpt>
      <trkpt lat="43.53146" lon="5.57816">
        <ele>898.9</ele>
        <time>2023-05-28T09:30:57Z</time>
      </trkpt>
      <trkpt lat="43.53146" lon="5.57816">
        <ele>898.9</ele>
        <time>2023-05-28T09:30:58Z</time>
      </trkpt>
      <trkpt lat="43.53146" lon="5.57816">
        <ele>898.9</ele>
        <time>2023-05-28T09:30:59Z</time>
      </trkpt>
      <trkpt lat="43.53146" lon="5.57816">
        <ele>898.9</ele>
        <time>2023-05-28T09:31:00Z</time>
      </trkpt>
      <trkpt lat="43.53146" lon="5.57816">
        <ele>898.9</ele>
        <time>2023-05-28T09:31:01Z</time>
      </trkpt>
      <trkpt lat="43.53146" lon="5.57816">
        <ele>898.9</ele>
        <time>2023-05-28T09:31:02Z</time>
      </trkpt>
      <trkpt lat="43.53146" lon="5.57816">
        <ele>898.9</ele>
        <time>2023-05-28T09:31:03Z</time>
      </trkpt>
      <trkpt lat="43.53146" lon="5.57816">
        <ele>898.9</ele>
        <time>2023-05-28T09:31:04Z</time>
      </trkpt>
      <trkpt lat="43.53146" lon="5.57816">
        <ele>898.9</ele>
        <time>2023-05-28T09:31:05Z</time>
      </trkpt>
      <trkpt lat="43.53146" lon="5.57816">
        <ele>898.9</ele>
        <time>2023-05-28T09:31:06Z</time>
      </trkpt>
      <trkpt lat="43.53146" lon="5.57816">
        <ele>898.9</ele>
        <time>2023-05-28T09:31:07Z</time>
      </trkpt>
      <trkpt lat="43.53146" lon="5.57816">
        <ele>898.9</ele>
        <time>2023-05-28T09:31:08Z</time>
      </trkpt>
      <trkpt lat="43.53146" lon="5.57816">
        <ele>898.9</ele>
        <time>2023-05-28T09:31:09Z</time>
      </trkpt>
      <trkpt lat="43.53146" lon="5.57816">
        <ele>898.9</ele>
        <time>2023-05-28T09:31:10Z</time>
      </trkpt>
      <trkpt lat="43.53146" lon="5.57816">
        <ele>898.9</ele>
        <time>2023-05-28T09:31:11Z</time>
      </trkpt>
      <trkpt lat="43.53146" lon="5.57816">
        <ele>899</ele>
        <time>2023-05-28T09:31:12Z</time>
      </trkpt>
      <trkpt lat="43.53146" lon="5.57816">
        <ele>899</ele>
        <time>2023-05-28T09:31:13Z</time>
      </trkpt>
      <trkpt lat="43.53146" lon="5.57816">
        <ele>899.1</ele>
        <time>2023-05-28T09:31:14Z</time>
      </trkpt>
      <trkpt lat="43.53146" lon="5.57816">
        <ele>899.1</ele>
        <time>2023-05-28T09:31:15Z</time>
      </trkpt>
      <trkpt lat="43.53146" lon="5.57816">
        <ele>899.1</ele>
        <time>2023-05-28T09:31:16Z</time>
      </trkpt>
      <trkpt lat="43.53146" lon="5.57816">
        <ele>899.2</ele>
        <time>2023-05-28T09:31:17Z</time>
      </trkpt>
      <trkpt lat="43.53146" lon="5.57816">
        <ele>899.2</ele>
        <time>2023-05-28T09:31:18Z</time>
      </trkpt>
      <trkpt lat="43.53146" lon="5.57816">
        <ele>899.2</ele>
        <time>2023-05-28T09:31:19Z</time>
      </trkpt>
      <trkpt lat="43.53146" lon="5.57816">
        <ele>899.2</ele>
        <time>2023-05-28T09:31:20Z</time>
      </trkpt>
      <trkpt lat="43.53146" lon="5.57816">
        <ele>899.2</ele>
        <time>2023-05-28T09:31:21Z</time>
      </trkpt>
      <trkpt lat="43.53146" lon="5.57816">
        <ele>899.2</ele>
        <time>2023-05-28T09:31:22Z</time>
      </trkpt>
      <trkpt lat="43.53146" lon="5.57816">
        <ele>899.3</ele>
        <time>2023-05-28T09:31:23Z</time>
      </trkpt>
      <trkpt lat="43.53146" lon="5.57816">
        <ele>899.3</ele>
        <time>2023-05-28T09:31:24Z</time>
      </trkpt>
      <trkpt lat="43.53146" lon="5.57816">
        <ele>899.3</ele>
        <time>2023-05-28T09:31:25Z</time>
      </trkpt>
      <trkpt lat="43.53146" lon="5.57815">
        <ele>899.3</ele>
        <time>2023-05-28T09:31:26Z</time>
      </trkpt>
      <trkpt lat="43.53146" lon="5.57815">
        <ele>899.3</ele>
        <time>2023-05-28T09:31:27Z</time>
      </trkpt>
      <trkpt lat="43.53146" lon="5.57814">
        <ele>899.3</ele>
        <time>2023-05-28T09:31:28Z</time>
      </trkpt>
      <trkpt lat="43.53146" lon="5.57814">
        <ele>899.2</ele>
        <time>2023-05-28T09:31:29Z</time>
      </trkpt>
      <trkpt lat="43.53147" lon="5.57813">
        <ele>899.2</ele>
        <time>2023-05-28T09:31:30Z</time>
      </trkpt>
      <trkpt lat="43.53147" lon="5.57813">
        <ele>899.2</ele>
        <time>2023-05-28T09:31:31Z</time>
      </trkpt>
      <trkpt lat="43.53147" lon="5.57812">
        <ele>899.1</ele>
        <time>2023-05-28T09:31:32Z</time>
      </trkpt>
      <trkpt lat="43.53147" lon="5.57812">
        <ele>899.1</ele>
        <time>2023-05-28T09:31:33Z</time>
      </trkpt>
      <trkpt lat="43.53148" lon="5.57811">
        <ele>898.8</ele>
        <time>2023-05-28T09:31:34Z</time>
      </trkpt>
      <trkpt lat="43.53148" lon="5.57811">
        <ele>898.7</ele>
        <time>2023-05-28T09:31:35Z</time>
      </trkpt>
      <trkpt lat="43.53147" lon="5.57811">
        <ele>898.6</ele>
        <time>2023-05-28T09:31:36Z</time>
      </trkpt>
      <trkpt lat="43.53147" lon="5.57811">
        <ele>898.5</ele>
        <time>2023-05-28T09:31:37Z</time>
      </trkpt>
      <trkpt lat="43.53147" lon="5.57811">
        <ele>898.5</ele>
        <time>2023-05-28T09:31:38Z</time>
      </trkpt>
      <trkpt lat="43.53147" lon="5.57811">
        <ele>898.4</ele>
        <time>2023-05-28T09:31:39Z</time>
      </trkpt>
      <trkpt lat="43.53147" lon="5.57811">
        <ele>898.3</ele>
        <time>2023-05-28T09:31:40Z</time>
      </trkpt>
      <trkpt lat="43.53147" lon="5.57811">
        <ele>898.2</ele>
        <time>2023-05-28T09:31:41Z</time>
      </trkpt>
      <trkpt lat="43.53147" lon="5.57811">
        <ele>898.3</ele>
        <time>2023-05-28T09:31:42Z</time>
      </trkpt>
      <trkpt lat="43.53147" lon="5.57811">
        <ele>898.3</ele>
        <time>2023-05-28T09:31:43Z</time>
      </trkpt>
      <trkpt lat="43.53147" lon="5.57811">
        <ele>898.4</ele>
        <time>2023-05-28T09:31:44Z</time>
      </trkpt>
      <trkpt lat="43.53146" lon="5.57811">
        <ele>898.3</ele>
        <time>2023-05-28T09:31:45Z</time>
      </trkpt>
      <trkpt lat="43.53146" lon="5.57811">
        <ele>898.2</ele>
        <time>2023-05-28T09:31:46Z</time>
      </trkpt>
      <trkpt lat="43.53146" lon="5.5781">
        <ele>898.2</ele>
        <time>2023-05-28T09:31:47Z</time>
      </trkpt>
      <trkpt lat="43.53146" lon="5.5781">
        <ele>898.2</ele>
        <time>2023-05-28T09:31:48Z</time>
      </trkpt>
      <trkpt lat="43.53146" lon="5.5781">
        <ele>898.2</ele>
        <time>2023-05-28T09:31:49Z</time>
      </trkpt>
      <trkpt lat="43.53146" lon="5.5781">
        <ele>898.1</ele>
        <time>2023-05-28T09:31:50Z</time>
      </trkpt>
      <trkpt lat="43.53146" lon="5.5781">
        <ele>898.1</ele>
        <time>2023-05-28T09:31:51Z</time>
      </trkpt>
      <trkpt lat="43.53146" lon="5.5781">
        <ele>898.1</ele>
        <time>2023-05-28T09:31:52Z</time>
      </trkpt>
      <trkpt lat="43.53146" lon="5.5781">
        <ele>898.2</ele>
        <time>2023-05-28T09:31:53Z</time>
      </trkpt>
      <trkpt lat="43.53146" lon="5.5781">
        <ele>898.2</ele>
        <time>2023-05-28T09:31:54Z</time>
      </trkpt>
      <trkpt lat="43.53145" lon="5.5781">
        <ele>898.3</ele>
        <time>2023-05-28T09:31:55Z</time>
      </trkpt>
      <trkpt lat="43.53145" lon="5.5781">
        <ele>898.3</ele>
        <time>2023-05-28T09:31:56Z</time>
      </trkpt>
      <trkpt lat="43.53145" lon="5.5781">
        <ele>898.3</ele>
        <time>2023-05-28T09:31:57Z</time>
      </trkpt>
      <trkpt lat="43.53145" lon="5.5781">
        <ele>898.4</ele>
        <time>2023-05-28T09:31:58Z</time>
      </trkpt>
      <trkpt lat="43.53145" lon="5.57809">
        <ele>898.5</ele>
        <time>2023-05-28T09:31:59Z</time>
      </trkpt>
      <trkpt lat="43.53145" lon="5.57809">
        <ele>898.5</ele>
        <time>2023-05-28T09:32:00Z</time>
      </trkpt>
      <trkpt lat="43.53145" lon="5.57809">
        <ele>898.6</ele>
        <time>2023-05-28T09:32:01Z</time>
      </trkpt>
      <trkpt lat="43.53145" lon="5.5781">
        <ele>898.6</ele>
        <time>2023-05-28T09:32:02Z</time>
      </trkpt>
      <trkpt lat="43.53146" lon="5.5781">
        <ele>898.6</ele>
        <time>2023-05-28T09:32:03Z</time>
      </trkpt>
      <trkpt lat="43.53146" lon="5.5781">
        <ele>898.6</ele>
        <time>2023-05-28T09:32:04Z</time>
      </trkpt>
      <trkpt lat="43.53146" lon="5.57809">
        <ele>898.5</ele>
        <time>2023-05-28T09:32:05Z</time>
      </trkpt>
      <trkpt lat="43.53147" lon="5.57808">
        <ele>898.5</ele>
        <time>2023-05-28T09:32:06Z</time>
      </trkpt>
      <trkpt lat="43.53147" lon="5.57807">
        <ele>898.3</ele>
        <time>2023-05-28T09:32:07Z</time>
      </trkpt>
      <trkpt lat="43.53147" lon="5.57806">
        <ele>898.3</ele>
        <time>2023-05-28T09:32:08Z</time>
      </trkpt>
      <trkpt lat="43.53147" lon="5.57806">
        <ele>898.2</ele>
        <time>2023-05-28T09:32:09Z</time>
      </trkpt>
      <trkpt lat="43.53148" lon="5.57805">
        <ele>898</ele>
        <time>2023-05-28T09:32:10Z</time>
      </trkpt>
      <trkpt lat="43.53148" lon="5.57804">
        <ele>897.9</ele>
        <time>2023-05-28T09:32:11Z</time>
      </trkpt>
      <trkpt lat="43.53149" lon="5.57804">
        <ele>897.7</ele>
        <time>2023-05-28T09:32:12Z</time>
      </trkpt>
      <trkpt lat="43.53149" lon="5.57803">
        <ele>897.6</ele>
        <time>2023-05-28T09:32:13Z</time>
      </trkpt>
      <trkpt lat="43.53149" lon="5.57803">
        <ele>897.3</ele>
        <time>2023-05-28T09:32:14Z</time>
      </trkpt>
      <trkpt lat="43.53149" lon="5.57802">
        <ele>897</ele>
        <time>2023-05-28T09:32:15Z</time>
      </trkpt>
      <trkpt lat="43.5315" lon="5.57802">
        <ele>896.8</ele>
        <time>2023-05-28T09:32:16Z</time>
      </trkpt>
      <trkpt lat="43.5315" lon="5.57801">
        <ele>896.6</ele>
        <time>2023-05-28T09:32:17Z</time>
      </trkpt>
      <trkpt lat="43.5315" lon="5.57801">
        <ele>896.3</ele>
        <time>2023-05-28T09:32:18Z</time>
      </trkpt>
      <trkpt lat="43.53151" lon="5.57801">
        <ele>895.9</ele>
        <time>2023-05-28T09:32:19Z</time>
      </trkpt>
      <trkpt lat="43.53151" lon="5.578">
        <ele>895.6</ele>
        <time>2023-05-28T09:32:20Z</time>
      </trkpt>
      <trkpt lat="43.53152" lon="5.57799">
        <ele>895.3</ele>
        <time>2023-05-28T09:32:21Z</time>
      </trkpt>
      <trkpt lat="43.53152" lon="5.57798">
        <ele>895.1</ele>
        <time>2023-05-28T09:32:22Z</time>
      </trkpt>
      <trkpt lat="43.53153" lon="5.57797">
        <ele>894.8</ele>
        <time>2023-05-28T09:32:23Z</time>
      </trkpt>
      <trkpt lat="43.53153" lon="5.57797">
        <ele>894.5</ele>
        <time>2023-05-28T09:32:24Z</time>
      </trkpt>
      <trkpt lat="43.53154" lon="5.57796">
        <ele>894.4</ele>
        <time>2023-05-28T09:32:25Z</time>
      </trkpt>
      <trkpt lat="43.53154" lon="5.57796">
        <ele>894.3</ele>
        <time>2023-05-28T09:32:26Z</time>
      </trkpt>
      <trkpt lat="43.53154" lon="5.57796">
        <ele>894.1</ele>
        <time>2023-05-28T09:32:27Z</time>
      </trkpt>
      <trkpt lat="43.53155" lon="5.57795">
        <ele>893.8</ele>
        <time>2023-05-28T09:32:28Z</time>
      </trkpt>
      <trkpt lat="43.53156" lon="5.57795">
        <ele>893.5</ele>
        <time>2023-05-28T09:32:29Z</time>
      </trkpt>
      <trkpt lat="43.53156" lon="5.57795">
        <ele>893.3</ele>
        <time>2023-05-28T09:32:30Z</time>
      </trkpt>
      <trkpt lat="43.53157" lon="5.57794">
        <ele>893.2</ele>
        <time>2023-05-28T09:32:31Z</time>
      </trkpt>
      <trkpt lat="43.53157" lon="5.57793">
        <ele>893</ele>
        <time>2023-05-28T09:32:32Z</time>
      </trkpt>
      <trkpt lat="43.53157" lon="5.57793">
        <ele>892.9</ele>
        <time>2023-05-28T09:32:33Z</time>
      </trkpt>
      <trkpt lat="43.53157" lon="5.57793">
        <ele>892.7</ele>
        <time>2023-05-28T09:32:34Z</time>
      </trkpt>
      <trkpt lat="43.53157" lon="5.57793">
        <ele>892.5</ele>
        <time>2023-05-28T09:32:35Z</time>
      </trkpt>
      <trkpt lat="43.53158" lon="5.57793">
        <ele>892.2</ele>
        <time>2023-05-28T09:32:36Z</time>
      </trkpt>
      <trkpt lat="43.53159" lon="5.57793">
        <ele>892</ele>
        <time>2023-05-28T09:32:37Z</time>
      </trkpt>
      <trkpt lat="43.5316" lon="5.57792">
        <ele>891.8</ele>
        <time>2023-05-28T09:32:38Z</time>
      </trkpt>
      <trkpt lat="43.5316" lon="5.57792">
        <ele>891.6</ele>
        <time>2023-05-28T09:32:39Z</time>
      </trkpt>
      <trkpt lat="43.5316" lon="5.57793">
        <ele>891.4</ele>
        <time>2023-05-28T09:32:40Z</time>
      </trkpt>
      <trkpt lat="43.5316" lon="5.57794">
        <ele>891.3</ele>
        <time>2023-05-28T09:32:41Z</time>
      </trkpt>
      <trkpt lat="43.53161" lon="5.57794">
        <ele>890.9</ele>
        <time>2023-05-28T09:32:42Z</time>
      </trkpt>
      <trkpt lat="43.53161" lon="5.57795">
        <ele>890.8</ele>
        <time>2023-05-28T09:32:43Z</time>
      </trkpt>
      <trkpt lat="43.53162" lon="5.57795">
        <ele>890.5</ele>
        <time>2023-05-28T09:32:44Z</time>
      </trkpt>
      <trkpt lat="43.53162" lon="5.57795">
        <ele>890.3</ele>
        <time>2023-05-28T09:32:45Z</time>
      </trkpt>
      <trkpt lat="43.53162" lon="5.57796">
        <ele>890.1</ele>
        <time>2023-05-28T09:32:46Z</time>
      </trkpt>
      <trkpt lat="43.53163" lon="5.57797">
        <ele>889.8</ele>
        <time>2023-05-28T09:32:47Z</time>
      </trkpt>
      <trkpt lat="43.53162" lon="5.57798">
        <ele>889.6</ele>
        <time>2023-05-28T09:32:48Z</time>
      </trkpt>
      <trkpt lat="43.53162" lon="5.57798">
        <ele>889.4</ele>
        <time>2023-05-28T09:32:49Z</time>
      </trkpt>
      <trkpt lat="43.53162" lon="5.57799">
        <ele>889.3</ele>
        <time>2023-05-28T09:32:50Z</time>
      </trkpt>
      <trkpt lat="43.53162" lon="5.578">
        <ele>889.2</ele>
        <time>2023-05-28T09:32:51Z</time>
      </trkpt>
      <trkpt lat="43.53162" lon="5.57801">
        <ele>889.2</ele>
        <time>2023-05-28T09:32:52Z</time>
      </trkpt>
      <trkpt lat="43.53162" lon="5.57801">
        <ele>889</ele>
        <time>2023-05-28T09:32:53Z</time>
      </trkpt>
      <trkpt lat="43.53162" lon="5.57802">
        <ele>888.8</ele>
        <time>2023-05-28T09:32:54Z</time>
      </trkpt>
      <trkpt lat="43.53162" lon="5.57802">
        <ele>888.7</ele>
        <time>2023-05-28T09:32:55Z</time>
      </trkpt>
      <trkpt lat="43.53162" lon="5.57802">
        <ele>888.6</ele>
        <time>2023-05-28T09:32:56Z</time>
      </trkpt>
      <trkpt lat="43.53163" lon="5.57802">
        <ele>888.4</ele>
        <time>2023-05-28T09:32:57Z</time>
      </trkpt>
      <trkpt lat="43.53163" lon="5.57801">
        <ele>888.3</ele>
        <time>2023-05-28T09:32:58Z</time>
      </trkpt>
      <trkpt lat="43.53163" lon="5.57801">
        <ele>888.1</ele>
        <time>2023-05-28T09:32:59Z</time>
      </trkpt>
      <trkpt lat="43.53164" lon="5.578">
        <ele>887.9</ele>
        <time>2023-05-28T09:33:00Z</time>
      </trkpt>
      <trkpt lat="43.53164" lon="5.57801">
        <ele>887.6</ele>
        <time>2023-05-28T09:33:01Z</time>
      </trkpt>
      <trkpt lat="43.53164" lon="5.57801">
        <ele>887.5</ele>
        <time>2023-05-28T09:33:02Z</time>
      </trkpt>
      <trkpt lat="43.53164" lon="5.57801">
        <ele>887.2</ele>
        <time>2023-05-28T09:33:03Z</time>
      </trkpt>
      <trkpt lat="43.53165" lon="5.57801">
        <ele>887</ele>
        <time>2023-05-28T09:33:04Z</time>
      </trkpt>
      <trkpt lat="43.53164" lon="5.57802">
        <ele>886.9</ele>
        <time>2023-05-28T09:33:05Z</time>
      </trkpt>
      <trkpt lat="43.53164" lon="5.57803">
        <ele>886.7</ele>
        <time>2023-05-28T09:33:06Z</time>
      </trkpt>
      <trkpt lat="43.53164" lon="5.57803">
        <ele>886.6</ele>
        <time>2023-05-28T09:33:07Z</time>
      </trkpt>
      <trkpt lat="43.53165" lon="5.57804">
        <ele>886.4</ele>
        <time>2023-05-28T09:33:08Z</time>
      </trkpt>
      <trkpt lat="43.53165" lon="5.57804">
        <ele>886.2</ele>
        <time>2023-05-28T09:33:09Z</time>
      </trkpt>
      <trkpt lat="43.53165" lon="5.57805">
        <ele>886.1</ele>
        <time>2023-05-28T09:33:10Z</time>
      </trkpt>
      <trkpt lat="43.53165" lon="5.57805">
        <ele>886</ele>
        <time>2023-05-28T09:33:11Z</time>
      </trkpt>
      <trkpt lat="43.53165" lon="5.57806">
        <ele>885.9</ele>
        <time>2023-05-28T09:33:12Z</time>
      </trkpt>
      <trkpt lat="43.53166" lon="5.57807">
        <ele>885.8</ele>
        <time>2023-05-28T09:33:13Z</time>
      </trkpt>
      <trkpt lat="43.53165" lon="5.57808">
        <ele>885.6</ele>
        <time>2023-05-28T09:33:14Z</time>
      </trkpt>
      <trkpt lat="43.53165" lon="5.57808">
        <ele>885.4</ele>
        <time>2023-05-28T09:33:15Z</time>
      </trkpt>
      <trkpt lat="43.53165" lon="5.57808">
        <ele>885.3</ele>
        <time>2023-05-28T09:33:16Z</time>
      </trkpt>
      <trkpt lat="43.53165" lon="5.57808">
        <ele>885.1</ele>
        <time>2023-05-28T09:33:17Z</time>
      </trkpt>
      <trkpt lat="43.53165" lon="5.57808">
        <ele>885</ele>
        <time>2023-05-28T09:33:18Z</time>
      </trkpt>
      <trkpt lat="43.53165" lon="5.57808">
        <ele>884.8</ele>
        <time>2023-05-28T09:33:19Z</time>
      </trkpt>
      <trkpt lat="43.53164" lon="5.57809">
        <ele>884.6</ele>
        <time>2023-05-28T09:33:20Z</time>
      </trkpt>
      <trkpt lat="43.53164" lon="5.5781">
        <ele>884.3</ele>
        <time>2023-05-28T09:33:21Z</time>
      </trkpt>
      <trkpt lat="43.53165" lon="5.5781">
        <ele>884.2</ele>
        <time>2023-05-28T09:33:22Z</time>
      </trkpt>
      <trkpt lat="43.53166" lon="5.5781">
        <ele>883.9</ele>
        <time>2023-05-28T09:33:23Z</time>
      </trkpt>
      <trkpt lat="43.53166" lon="5.57811">
        <ele>883.7</ele>
        <time>2023-05-28T09:33:24Z</time>
      </trkpt>
      <trkpt lat="43.53166" lon="5.57811">
        <ele>883.5</ele>
        <time>2023-05-28T09:33:25Z</time>
      </trkpt>
      <trkpt lat="43.53166" lon="5.57811">
        <ele>883.3</ele>
        <time>2023-05-28T09:33:26Z</time>
      </trkpt>
      <trkpt lat="43.53165" lon="5.57812">
        <ele>883.3</ele>
        <time>2023-05-28T09:33:27Z</time>
      </trkpt>
      <trkpt lat="43.53165" lon="5.57812">
        <ele>883.3</ele>
        <time>2023-05-28T09:33:28Z</time>
      </trkpt>
      <trkpt lat="43.53164" lon="5.57813">
        <ele>883.1</ele>
        <time>2023-05-28T09:33:29Z</time>
      </trkpt>
      <trkpt lat="43.53164" lon="5.57814">
        <ele>882.9</ele>
        <time>2023-05-28T09:33:30Z</time>
      </trkpt>
      <trkpt lat="43.53164" lon="5.57815">
        <ele>882.7</ele>
        <time>2023-05-28T09:33:31Z</time>
      </trkpt>
      <trkpt lat="43.53164" lon="5.57815">
        <ele>882.6</ele>
        <time>2023-05-28T09:33:32Z</time>
      </trkpt>
      <trkpt lat="43.53164" lon="5.57816">
        <ele>882.5</ele>
        <time>2023-05-28T09:33:33Z</time>
      </trkpt>
      <trkpt lat="43.53164" lon="5.57816">
        <ele>882.3</ele>
        <time>2023-05-28T09:33:34Z</time>
      </trkpt>
      <trkpt lat="43.53164" lon="5.57816">
        <ele>882.2</ele>
        <time>2023-05-28T09:33:35Z</time>
      </trkpt>
      <trkpt lat="43.53164" lon="5.57816">
        <ele>882.1</ele>
        <time>2023-05-28T09:33:36Z</time>
      </trkpt>
      <trkpt lat="43.53163" lon="5.57817">
        <ele>882</ele>
        <time>2023-05-28T09:33:37Z</time>
      </trkpt>
      <trkpt lat="43.53163" lon="5.57817">
        <ele>881.8</ele>
        <time>2023-05-28T09:33:38Z</time>
      </trkpt>
      <trkpt lat="43.53163" lon="5.57818">
        <ele>881.7</ele>
        <time>2023-05-28T09:33:39Z</time>
      </trkpt>
      <trkpt lat="43.53163" lon="5.57819">
        <ele>881.7</ele>
        <time>2023-05-28T09:33:40Z</time>
      </trkpt>
      <trkpt lat="43.53162" lon="5.5782">
        <ele>881.7</ele>
        <time>2023-05-28T09:33:41Z</time>
      </trkpt>
      <trkpt lat="43.53161" lon="5.57821">
        <ele>881.7</ele>
        <time>2023-05-28T09:33:42Z</time>
      </trkpt>
      <trkpt lat="43.5316" lon="5.57822">
        <ele>881.6</ele>
        <time>2023-05-28T09:33:43Z</time>
      </trkpt>
      <trkpt lat="43.5316" lon="5.57823">
        <ele>881.6</ele>
        <time>2023-05-28T09:33:44Z</time>
      </trkpt>
      <trkpt lat="43.5316" lon="5.57824">
        <ele>881.5</ele>
        <time>2023-05-28T09:33:45Z</time>
      </trkpt>
      <trkpt lat="43.53159" lon="5.57824">
        <ele>881.5</ele>
        <time>2023-05-28T09:33:46Z</time>
      </trkpt>
      <trkpt lat="43.53159" lon="5.57824">
        <ele>881.4</ele>
        <time>2023-05-28T09:33:47Z</time>
      </trkpt>
      <trkpt lat="43.53157" lon="5.57825">
        <ele>881.3</ele>
        <time>2023-05-28T09:33:48Z</time>
      </trkpt>
      <trkpt lat="43.53157" lon="5.57827">
        <ele>881.3</ele>
        <time>2023-05-28T09:33:49Z</time>
      </trkpt>
      <trkpt lat="43.53156" lon="5.57828">
        <ele>881.1</ele>
        <time>2023-05-28T09:33:50Z</time>
      </trkpt>
      <trkpt lat="43.53155" lon="5.57829">
        <ele>881.1</ele>
        <time>2023-05-28T09:33:51Z</time>
      </trkpt>
      <trkpt lat="43.53153" lon="5.57829">
        <ele>881</ele>
        <time>2023-05-28T09:33:52Z</time>
      </trkpt>
      <trkpt lat="43.53153" lon="5.5783">
        <ele>881</ele>
        <time>2023-05-28T09:33:53Z</time>
      </trkpt>
      <trkpt lat="43.53152" lon="5.57831">
        <ele>881</ele>
        <time>2023-05-28T09:33:54Z</time>
      </trkpt>
      <trkpt lat="43.53151" lon="5.57832">
        <ele>881</ele>
        <time>2023-05-28T09:33:55Z</time>
      </trkpt>
      <trkpt lat="43.53149" lon="5.57832">
        <ele>881</ele>
        <time>2023-05-28T09:33:56Z</time>
      </trkpt>
      <trkpt lat="43.53148" lon="5.57832">
        <ele>880.9</ele>
        <time>2023-05-28T09:33:57Z</time>
      </trkpt>
      <trkpt lat="43.53148" lon="5.57833">
        <ele>880.9</ele>
        <time>2023-05-28T09:33:58Z</time>
      </trkpt>
      <trkpt lat="43.53147" lon="5.57834">
        <ele>880.9</ele>
        <time>2023-05-28T09:33:59Z</time>
      </trkpt>
      <trkpt lat="43.53145" lon="5.57835">
        <ele>880.9</ele>
        <time>2023-05-28T09:34:00Z</time>
      </trkpt>
      <trkpt lat="43.53144" lon="5.57836">
        <ele>880.9</ele>
        <time>2023-05-28T09:34:01Z</time>
      </trkpt>
      <trkpt lat="43.53143" lon="5.57837">
        <ele>880.9</ele>
        <time>2023-05-28T09:34:02Z</time>
      </trkpt>
      <trkpt lat="43.53141" lon="5.57838">
        <ele>881</ele>
        <time>2023-05-28T09:34:03Z</time>
      </trkpt>
      <trkpt lat="43.5314" lon="5.57838">
        <ele>881</ele>
        <time>2023-05-28T09:34:04Z</time>
      </trkpt>
      <trkpt lat="43.53139" lon="5.57839">
        <ele>881.2</ele>
        <time>2023-05-28T09:34:05Z</time>
      </trkpt>
      <trkpt lat="43.53138" lon="5.57839">
        <ele>881.3</ele>
        <time>2023-05-28T09:34:06Z</time>
      </trkpt>
      <trkpt lat="43.53138" lon="5.5784">
        <ele>881.3</ele>
        <time>2023-05-28T09:34:07Z</time>
      </trkpt>
      <trkpt lat="43.53137" lon="5.5784">
        <ele>881.4</ele>
        <time>2023-05-28T09:34:08Z</time>
      </trkpt>
      <trkpt lat="43.53136" lon="5.57841">
        <ele>881.5</ele>
        <time>2023-05-28T09:34:09Z</time>
      </trkpt>
      <trkpt lat="43.53136" lon="5.57841">
        <ele>881.6</ele>
        <time>2023-05-28T09:34:10Z</time>
      </trkpt>
      <trkpt lat="43.53136" lon="5.57842">
        <ele>881.6</ele>
        <time>2023-05-28T09:34:11Z</time>
      </trkpt>
      <trkpt lat="43.53136" lon="5.57842">
        <ele>881.7</ele>
        <time>2023-05-28T09:34:12Z</time>
      </trkpt>
      <trkpt lat="43.53136" lon="5.57842">
        <ele>881.8</ele>
        <time>2023-05-28T09:34:13Z</time>
      </trkpt>
      <trkpt lat="43.53136" lon="5.57842">
        <ele>881.9</ele>
        <time>2023-05-28T09:34:14Z</time>
      </trkpt>
      <trkpt lat="43.53136" lon="5.57843">
        <ele>881.8</ele>
        <time>2023-05-28T09:34:15Z</time>
      </trkpt>
      <trkpt lat="43.53136" lon="5.57843">
        <ele>881.9</ele>
        <time>2023-05-28T09:34:16Z</time>
      </trkpt>
      <trkpt lat="43.53136" lon="5.57843">
        <ele>881.9</ele>
        <time>2023-05-28T09:34:17Z</time>
      </trkpt>
      <trkpt lat="43.53136" lon="5.57843">
        <ele>881.9</ele>
        <time>2023-05-28T09:34:18Z</time>
      </trkpt>
      <trkpt lat="43.53136" lon="5.57843">
        <ele>882</ele>
        <time>2023-05-28T09:34:19Z</time>
      </trkpt>
      <trkpt lat="43.53136" lon="5.57843">
        <ele>882</ele>
        <time>2023-05-28T09:34:20Z</time>
      </trkpt>
      <trkpt lat="43.53136" lon="5.57843">
        <ele>882</ele>
        <time>2023-05-28T09:34:21Z</time>
      </trkpt>
      <trkpt lat="43.53136" lon="5.57843">
        <ele>882.1</ele>
        <time>2023-05-28T09:34:22Z</time>
      </trkpt>
      <trkpt lat="43.53136" lon="5.57843">
        <ele>882.1</ele>
        <time>2023-05-28T09:34:23Z</time>
      </trkpt>
      <trkpt lat="43.53136" lon="5.57843">
        <ele>882</ele>
        <time>2023-05-28T09:34:24Z</time>
      </trkpt>
      <trkpt lat="43.53136" lon="5.57844">
        <ele>882.1</ele>
        <time>2023-05-28T09:34:25Z</time>
      </trkpt>
      <trkpt lat="43.53136" lon="5.57844">
        <ele>882.2</ele>
        <time>2023-05-28T09:34:26Z</time>
      </trkpt>
      <trkpt lat="43.53136" lon="5.57844">
        <ele>882.2</ele>
        <time>2023-05-28T09:34:27Z</time>
      </trkpt>
      <trkpt lat="43.53136" lon="5.57844">
        <ele>882.3</ele>
        <time>2023-05-28T09:34:28Z</time>
      </trkpt>
      <trkpt lat="43.53136" lon="5.57844">
        <ele>882.3</ele>
        <time>2023-05-28T09:34:29Z</time>
      </trkpt>
      <trkpt lat="43.53136" lon="5.57844">
        <ele>882.3</ele>
        <time>2023-05-28T09:34:30Z</time>
      </trkpt>
      <trkpt lat="43.53136" lon="5.57844">
        <ele>882.3</ele>
        <time>2023-05-28T09:34:31Z</time>
      </trkpt>
      <trkpt lat="43.53136" lon="5.57844">
        <ele>882.3</ele>
        <time>2023-05-28T09:34:32Z</time>
      </trkpt>
      <trkpt lat="43.53136" lon="5.57844">
        <ele>882.2</ele>
        <time>2023-05-28T09:34:33Z</time>
      </trkpt>
      <trkpt lat="43.53136" lon="5.57844">
        <ele>882.2</ele>
        <time>2023-05-28T09:34:34Z</time>
      </trkpt>
      <trkpt lat="43.53136" lon="5.57844">
        <ele>882.2</ele>
        <time>2023-05-28T09:34:35Z</time>
      </trkpt>
      <trkpt lat="43.53136" lon="5.57844">
        <ele>882.3</ele>
        <time>2023-05-28T09:34:36Z</time>
      </trkpt>
      <trkpt lat="43.53136" lon="5.57844">
        <ele>882.2</ele>
        <time>2023-05-28T09:34:37Z</time>
      </trkpt>
      <trkpt lat="43.53136" lon="5.57844">
        <ele>882.3</ele>
        <time>2023-05-28T09:34:38Z</time>
      </trkpt>
      <trkpt lat="43.53137" lon="5.57844">
        <ele>882.3</ele>
        <time>2023-05-28T09:34:39Z</time>
      </trkpt>
      <trkpt lat="43.53137" lon="5.57845">
        <ele>882.4</ele>
        <time>2023-05-28T09:34:40Z</time>
      </trkpt>
      <trkpt lat="43.53137" lon="5.57845">
        <ele>882.4</ele>
        <time>2023-05-28T09:34:41Z</time>
      </trkpt>
      <trkpt lat="43.53137" lon="5.57845">
        <ele>882.5</ele>
        <time>2023-05-28T09:34:42Z</time>
      </trkpt>
      <trkpt lat="43.53137" lon="5.57845">
        <ele>882.5</ele>
        <time>2023-05-28T09:34:43Z</time>
      </trkpt>
      <trkpt lat="43.53137" lon="5.57845">
        <ele>882.5</ele>
        <time>2023-05-28T09:34:44Z</time>
      </trkpt>
      <trkpt lat="43.53137" lon="5.57845">
        <ele>882.6</ele>
        <time>2023-05-28T09:34:45Z</time>
      </trkpt>
      <trkpt lat="43.53137" lon="5.57845">
        <ele>882.5</ele>
        <time>2023-05-28T09:34:46Z</time>
      </trkpt>
      <trkpt lat="43.53137" lon="5.57845">
        <ele>882.5</ele>
        <time>2023-05-28T09:34:47Z</time>
      </trkpt>
      <trkpt lat="43.53137" lon="5.57845">
        <ele>882.5</ele>
        <time>2023-05-28T09:34:48Z</time>
      </trkpt>
      <trkpt lat="43.53138" lon="5.57845">
        <ele>882.5</ele>
        <time>2023-05-28T09:34:49Z</time>
      </trkpt>
      <trkpt lat="43.53139" lon="5.57845">
        <ele>882.5</ele>
        <time>2023-05-28T09:34:50Z</time>
      </trkpt>
      <trkpt lat="43.53139" lon="5.57845">
        <ele>882.4</ele>
        <time>2023-05-28T09:34:51Z</time>
      </trkpt>
      <trkpt lat="43.53139" lon="5.57846">
        <ele>882.3</ele>
        <time>2023-05-28T09:34:52Z</time>
      </trkpt>
      <trkpt lat="43.53139" lon="5.57846">
        <ele>882.3</ele>
        <time>2023-05-28T09:34:53Z</time>
      </trkpt>
      <trkpt lat="43.53139" lon="5.57846">
        <ele>882.3</ele>
        <time>2023-05-28T09:34:54Z</time>
      </trkpt>
      <trkpt lat="43.53139" lon="5.57846">
        <ele>882.2</ele>
        <time>2023-05-28T09:34:55Z</time>
      </trkpt>
      <trkpt lat="43.53138" lon="5.57846">
        <ele>882.3</ele>
        <time>2023-05-28T09:34:56Z</time>
      </trkpt>
      <trkpt lat="43.53138" lon="5.57846">
        <ele>882.3</ele>
        <time>2023-05-28T09:34:57Z</time>
      </trkpt>
      <trkpt lat="43.53139" lon="5.57846">
        <ele>882.3</ele>
        <time>2023-05-28T09:34:58Z</time>
      </trkpt>
      <trkpt lat="43.53139" lon="5.57846">
        <ele>882.3</ele>
        <time>2023-05-28T09:34:59Z</time>
      </trkpt>
      <trkpt lat="43.53139" lon="5.57846">
        <ele>882.2</ele>
        <time>2023-05-28T09:35:00Z</time>
      </trkpt>
      <trkpt lat="43.53139" lon="5.57846">
        <ele>882.2</ele>
        <time>2023-05-28T09:35:01Z</time>
      </trkpt>
      <trkpt lat="43.53139" lon="5.57846">
        <ele>882.2</ele>
        <time>2023-05-28T09:35:02Z</time>
      </trkpt>
      <trkpt lat="43.53139" lon="5.57846">
        <ele>882.3</ele>
        <time>2023-05-28T09:35:03Z</time>
      </trkpt>
      <trkpt lat="43.53139" lon="5.57846">
        <ele>882.2</ele>
        <time>2023-05-28T09:35:04Z</time>
      </trkpt>
      <trkpt lat="43.53139" lon="5.57846">
        <ele>882.2</ele>
        <time>2023-05-28T09:35:05Z</time>
      </trkpt>
      <trkpt lat="43.53139" lon="5.57846">
        <ele>882.3</ele>
        <time>2023-05-28T09:35:06Z</time>
      </trkpt>
      <trkpt lat="43.53138" lon="5.57846">
        <ele>882.3</ele>
        <time>2023-05-28T09:35:07Z</time>
      </trkpt>
      <trkpt lat="43.53138" lon="5.57846">
        <ele>882.3</ele>
        <time>2023-05-28T09:35:08Z</time>
      </trkpt>
      <trkpt lat="43.53138" lon="5.57846">
        <ele>882.3</ele>
        <time>2023-05-28T09:35:09Z</time>
      </trkpt>
      <trkpt lat="43.53138" lon="5.57846">
        <ele>882.2</ele>
        <time>2023-05-28T09:35:10Z</time>
      </trkpt>
      <trkpt lat="43.53138" lon="5.57846">
        <ele>882.2</ele>
        <time>2023-05-28T09:35:11Z</time>
      </trkpt>
      <trkpt lat="43.53138" lon="5.57846">
        <ele>882.2</ele>
        <time>2023-05-28T09:35:12Z</time>
      </trkpt>
      <trkpt lat="43.53137" lon="5.57846">
        <ele>882.2</ele>
        <time>2023-05-28T09:35:13Z</time>
      </trkpt>
      <trkpt lat="43.53137" lon="5.57846">
        <ele>882.2</ele>
        <time>2023-05-28T09:35:14Z</time>
      </trkpt>
      <trkpt lat="43.53137" lon="5.57846">
        <ele>882.2</ele>
        <time>2023-05-28T09:35:15Z</time>
      </trkpt>
      <trkpt lat="43.53137" lon="5.57846">
        <ele>882.2</ele>
        <time>2023-05-28T09:35:16Z</time>
      </trkpt>
      <trkpt lat="43.53137" lon="5.57846">
        <ele>882.3</ele>
        <time>2023-05-28T09:35:17Z</time>
      </trkpt>
      <trkpt lat="43.53137" lon="5.57846">
        <ele>882.3</ele>
        <time>2023-05-28T09:35:18Z</time>
      </trkpt>
      <trkpt lat="43.53137" lon="5.57847">
        <ele>882.3</ele>
        <time>2023-05-28T09:35:19Z</time>
      </trkpt>
      <trkpt lat="43.53137" lon="5.57847">
        <ele>882.3</ele>
        <time>2023-05-28T09:35:20Z</time>
      </trkpt>
      <trkpt lat="43.53137" lon="5.57847">
        <ele>882.3</ele>
        <time>2023-05-28T09:35:21Z</time>
      </trkpt>
      <trkpt lat="43.53137" lon="5.57847">
        <ele>882.3</ele>
        <time>2023-05-28T09:35:22Z</time>
      </trkpt>
      <trkpt lat="43.53137" lon="5.57847">
        <ele>882.3</ele>
        <time>2023-05-28T09:35:23Z</time>
      </trkpt>
      <trkpt lat="43.53137" lon="5.57847">
        <ele>882.4</ele>
        <time>2023-05-28T09:35:24Z</time>
      </trkpt>
      <trkpt lat="43.53136" lon="5.57847">
        <ele>882.3</ele>
        <time>2023-05-28T09:35:25Z</time>
      </trkpt>
      <trkpt lat="43.53136" lon="5.57847">
        <ele>882.3</ele>
        <time>2023-05-28T09:35:26Z</time>
      </trkpt>
      <trkpt lat="43.53136" lon="5.57847">
        <ele>882.4</ele>
        <time>2023-05-28T09:35:27Z</time>
      </trkpt>
      <trkpt lat="43.53136" lon="5.57847">
        <ele>882.4</ele>
        <time>2023-05-28T09:35:28Z</time>
      </trkpt>
      <trkpt lat="43.53136" lon="5.57847">
        <ele>882.4</ele>
        <time>2023-05-28T09:35:29Z</time>
      </trkpt>
      <trkpt lat="43.53136" lon="5.57847">
        <ele>882.4</ele>
        <time>2023-05-28T09:35:30Z</time>
      </trkpt>
      <trkpt lat="43.53136" lon="5.57847">
        <ele>882.3</ele>
        <time>2023-05-28T09:35:31Z</time>
      </trkpt>
      <trkpt lat="43.53137" lon="5.57847">
        <ele>882.2</ele>
        <time>2023-05-28T09:35:32Z</time>
      </trkpt>
      <trkpt lat="43.53137" lon="5.57847">
        <ele>882.2</ele>
        <time>2023-05-28T09:35:33Z</time>
      </trkpt>
      <trkpt lat="43.53137" lon="5.57847">
        <ele>882.3</ele>
        <time>2023-05-28T09:35:34Z</time>
      </trkpt>
      <trkpt lat="43.53137" lon="5.57847">
        <ele>882.3</ele>
        <time>2023-05-28T09:35:35Z</time>
      </trkpt>
      <trkpt lat="43.53137" lon="5.57847">
        <ele>882.3</ele>
        <time>2023-05-28T09:35:36Z</time>
      </trkpt>
      <trkpt lat="43.53138" lon="5.57847">
        <ele>882.3</ele>
        <time>2023-05-28T09:35:37Z</time>
      </trkpt>
      <trkpt lat="43.53138" lon="5.57847">
        <ele>882.2</ele>
        <time>2023-05-28T09:35:38Z</time>
      </trkpt>
      <trkpt lat="43.53139" lon="5.57847">
        <ele>882.1</ele>
        <time>2023-05-28T09:35:39Z</time>
      </trkpt>
      <trkpt lat="43.5314" lon="5.57846">
        <ele>882</ele>
        <time>2023-05-28T09:35:40Z</time>
      </trkpt>
      <trkpt lat="43.5314" lon="5.57846">
        <ele>882.1</ele>
        <time>2023-05-28T09:35:41Z</time>
      </trkpt>
      <trkpt lat="43.5314" lon="5.57846">
        <ele>882</ele>
        <time>2023-05-28T09:35:42Z</time>
      </trkpt>
      <trkpt lat="43.5314" lon="5.57846">
        <ele>881.9</ele>
        <time>2023-05-28T09:35:43Z</time>
      </trkpt>
      <trkpt lat="43.5314" lon="5.57846">
        <ele>881.8</ele>
        <time>2023-05-28T09:35:44Z</time>
      </trkpt>
      <trkpt lat="43.5314" lon="5.57846">
        <ele>881.8</ele>
        <time>2023-05-28T09:35:45Z</time>
      </trkpt>
      <trkpt lat="43.5314" lon="5.57846">
        <ele>881.8</ele>
        <time>2023-05-28T09:35:46Z</time>
      </trkpt>
      <trkpt lat="43.5314" lon="5.57846">
        <ele>881.7</ele>
        <time>2023-05-28T09:35:47Z</time>
      </trkpt>
      <trkpt lat="43.5314" lon="5.57846">
        <ele>881.7</ele>
        <time>2023-05-28T09:35:48Z</time>
      </trkpt>
      <trkpt lat="43.53141" lon="5.57845">
        <ele>881.8</ele>
        <time>2023-05-28T09:35:49Z</time>
      </trkpt>
      <trkpt lat="43.53141" lon="5.57845">
        <ele>881.8</ele>
        <time>2023-05-28T09:35:50Z</time>
      </trkpt>
      <trkpt lat="43.53142" lon="5.57845">
        <ele>881.8</ele>
        <time>2023-05-28T09:35:51Z</time>
      </trkpt>
      <trkpt lat="43.53143" lon="5.57845">
        <ele>881.8</ele>
        <time>2023-05-28T09:35:52Z</time>
      </trkpt>
      <trkpt lat="43.53143" lon="5.57844">
        <ele>881.8</ele>
        <time>2023-05-28T09:35:53Z</time>
      </trkpt>
      <trkpt lat="43.53144" lon="5.57845">
        <ele>881.8</ele>
        <time>2023-05-28T09:35:54Z</time>
      </trkpt>
      <trkpt lat="43.53145" lon="5.57844">
        <ele>881.8</ele>
        <time>2023-05-28T09:35:55Z</time>
      </trkpt>
      <trkpt lat="43.53145" lon="5.57844">
        <ele>881.8</ele>
        <time>2023-05-28T09:35:56Z</time>
      </trkpt>
      <trkpt lat="43.53146" lon="5.57844">
        <ele>881.7</ele>
        <time>2023-05-28T09:35:57Z</time>
      </trkpt>
      <trkpt lat="43.53147" lon="5.57843">
        <ele>881.7</ele>
        <time>2023-05-28T09:35:58Z</time>
      </trkpt>
      <trkpt lat="43.53147" lon="5.57842">
        <ele>881.7</ele>
        <time>2023-05-28T09:35:59Z</time>
      </trkpt>
      <trkpt lat="43.53148" lon="5.57841">
        <ele>881.6</ele>
        <time>2023-05-28T09:36:00Z</time>
      </trkpt>
      <trkpt lat="43.53148" lon="5.57841">
        <ele>881.6</ele>
        <time>2023-05-28T09:36:01Z</time>
      </trkpt>
      <trkpt lat="43.53148" lon="5.57841">
        <ele>881.6</ele>
        <time>2023-05-28T09:36:02Z</time>
      </trkpt>
      <trkpt lat="43.53149" lon="5.57841">
        <ele>881.5</ele>
        <time>2023-05-28T09:36:03Z</time>
      </trkpt>
      <trkpt lat="43.53149" lon="5.57841">
        <ele>881.6</ele>
        <time>2023-05-28T09:36:04Z</time>
      </trkpt>
      <trkpt lat="43.53149" lon="5.57841">
        <ele>881.6</ele>
        <time>2023-05-28T09:36:05Z</time>
      </trkpt>
      <trkpt lat="43.53151" lon="5.57841">
        <ele>881.5</ele>
        <time>2023-05-28T09:36:06Z</time>
      </trkpt>
      <trkpt lat="43.53151" lon="5.57841">
        <ele>881.5</ele>
        <time>2023-05-28T09:36:07Z</time>
      </trkpt>
      <trkpt lat="43.5315" lon="5.57841">
        <ele>881.4</ele>
        <time>2023-05-28T09:36:08Z</time>
      </trkpt>
      <trkpt lat="43.5315" lon="5.57842">
        <ele>881.4</ele>
        <time>2023-05-28T09:36:09Z</time>
      </trkpt>
      <trkpt lat="43.53151" lon="5.57841">
        <ele>881.4</ele>
        <time>2023-05-28T09:36:10Z</time>
      </trkpt>
      <trkpt lat="43.53152" lon="5.57841">
        <ele>881.5</ele>
        <time>2023-05-28T09:36:11Z</time>
      </trkpt>
      <trkpt lat="43.53153" lon="5.57841">
        <ele>881.5</ele>
        <time>2023-05-28T09:36:12Z</time>
      </trkpt>
      <trkpt lat="43.53154" lon="5.57841">
        <ele>881.7</ele>
        <time>2023-05-28T09:36:13Z</time>
      </trkpt>
      <trkpt lat="43.53155" lon="5.57841">
        <ele>881.7</ele>
        <time>2023-05-28T09:36:14Z</time>
      </trkpt>
      <trkpt lat="43.53156" lon="5.57839">
        <ele>881.8</ele>
        <time>2023-05-28T09:36:15Z</time>
      </trkpt>
      <trkpt lat="43.53156" lon="5.57838">
        <ele>881.8</ele>
        <time>2023-05-28T09:36:16Z</time>
      </trkpt>
      <trkpt lat="43.53157" lon="5.57838">
        <ele>881.9</ele>
        <time>2023-05-28T09:36:17Z</time>
      </trkpt>
      <trkpt lat="43.53157" lon="5.57838">
        <ele>881.9</ele>
        <time>2023-05-28T09:36:18Z</time>
      </trkpt>
      <trkpt lat="43.53158" lon="5.57838">
        <ele>882</ele>
        <time>2023-05-28T09:36:19Z</time>
      </trkpt>
      <trkpt lat="43.53158" lon="5.57838">
        <ele>882.1</ele>
        <time>2023-05-28T09:36:20Z</time>
      </trkpt>
      <trkpt lat="43.53159" lon="5.57838">
        <ele>882.2</ele>
        <time>2023-05-28T09:36:21Z</time>
      </trkpt>
      <trkpt lat="43.5316" lon="5.57838">
        <ele>882.3</ele>
        <time>2023-05-28T09:36:22Z</time>
      </trkpt>
      <trkpt lat="43.5316" lon="5.57837">
        <ele>882.4</ele>
        <time>2023-05-28T09:36:23Z</time>
      </trkpt>
      <trkpt lat="43.53162" lon="5.57836">
        <ele>882.5</ele>
        <time>2023-05-28T09:36:24Z</time>
      </trkpt>
      <trkpt lat="43.53162" lon="5.57836">
        <ele>882.4</ele>
        <time>2023-05-28T09:36:25Z</time>
      </trkpt>
      <trkpt lat="43.53163" lon="5.57835">
        <ele>882.4</ele>
        <time>2023-05-28T09:36:26Z</time>
      </trkpt>
      <trkpt lat="43.53163" lon="5.57835">
        <ele>882.4</ele>
        <time>2023-05-28T09:36:27Z</time>
      </trkpt>
      <trkpt lat="43.53163" lon="5.57834">
        <ele>882.5</ele>
        <time>2023-05-28T09:36:28Z</time>
      </trkpt>
      <trkpt lat="43.53165" lon="5.57833">
        <ele>882.5</ele>
        <time>2023-05-28T09:36:29Z</time>
      </trkpt>
      <trkpt lat="43.53165" lon="5.57833">
        <ele>882.5</ele>
        <time>2023-05-28T09:36:30Z</time>
      </trkpt>
      <trkpt lat="43.53166" lon="5.57832">
        <ele>882.5</ele>
        <time>2023-05-28T09:36:31Z</time>
      </trkpt>
      <trkpt lat="43.53166" lon="5.57831">
        <ele>882.6</ele>
        <time>2023-05-28T09:36:32Z</time>
      </trkpt>
      <trkpt lat="43.53167" lon="5.57829">
        <ele>882.6</ele>
        <time>2023-05-28T09:36:33Z</time>
      </trkpt>
      <trkpt lat="43.53168" lon="5.57827">
        <ele>882.6</ele>
        <time>2023-05-28T09:36:34Z</time>
      </trkpt>
      <trkpt lat="43.53168" lon="5.57827">
        <ele>882.6</ele>
        <time>2023-05-28T09:36:35Z</time>
      </trkpt>
      <trkpt lat="43.53168" lon="5.57825">
        <ele>882.6</ele>
        <time>2023-05-28T09:36:36Z</time>
      </trkpt>
      <trkpt lat="43.53168" lon="5.57825">
        <ele>882.7</ele>
        <time>2023-05-28T09:36:37Z</time>
      </trkpt>
      <trkpt lat="43.53169" lon="5.57824">
        <ele>882.6</ele>
        <time>2023-05-28T09:36:38Z</time>
      </trkpt>
      <trkpt lat="43.53169" lon="5.57823">
        <ele>882.6</ele>
        <time>2023-05-28T09:36:39Z</time>
      </trkpt>
      <trkpt lat="43.53169" lon="5.57822">
        <ele>882.6</ele>
        <time>2023-05-28T09:36:40Z</time>
      </trkpt>
      <trkpt lat="43.53169" lon="5.57822">
        <ele>882.6</ele>
        <time>2023-05-28T09:36:41Z</time>
      </trkpt>
      <trkpt lat="43.53169" lon="5.57821">
        <ele>882.6</ele>
        <time>2023-05-28T09:36:42Z</time>
      </trkpt>
      <trkpt lat="43.53169" lon="5.57821">
        <ele>882.7</ele>
        <time>2023-05-28T09:36:43Z</time>
      </trkpt>
      <trkpt lat="43.5317" lon="5.57821">
        <ele>882.8</ele>
        <time>2023-05-28T09:36:44Z</time>
      </trkpt>
      <trkpt lat="43.5317" lon="5.5782">
        <ele>882.8</ele>
        <time>2023-05-28T09:36:45Z</time>
      </trkpt>
      <trkpt lat="43.5317" lon="5.5782">
        <ele>882.8</ele>
        <time>2023-05-28T09:36:46Z</time>
      </trkpt>
      <trkpt lat="43.5317" lon="5.5782">
        <ele>882.8</ele>
        <time>2023-05-28T09:36:47Z</time>
      </trkpt>
      <trkpt lat="43.53171" lon="5.57819">
        <ele>882.8</ele>
        <time>2023-05-28T09:36:48Z</time>
      </trkpt>
      <trkpt lat="43.53171" lon="5.57819">
        <ele>882.8</ele>
        <time>2023-05-28T09:36:49Z</time>
      </trkpt>
      <trkpt lat="43.53171" lon="5.57819">
        <ele>882.8</ele>
        <time>2023-05-28T09:36:50Z</time>
      </trkpt>
      <trkpt lat="43.53171" lon="5.57819">
        <ele>882.8</ele>
        <time>2023-05-28T09:36:51Z</time>
      </trkpt>
      <trkpt lat="43.53171" lon="5.57819">
        <ele>882.8</ele>
        <time>2023-05-28T09:36:52Z</time>
      </trkpt>
      <trkpt lat="43.53171" lon="5.57818">
        <ele>882.8</ele>
        <time>2023-05-28T09:36:53Z</time>
      </trkpt>
      <trkpt lat="43.53171" lon="5.57818">
        <ele>882.8</ele>
        <time>2023-05-28T09:36:54Z</time>
      </trkpt>
      <trkpt lat="43.53172" lon="5.57818">
        <ele>882.8</ele>
        <time>2023-05-28T09:36:55Z</time>
      </trkpt>
      <trkpt lat="43.53172" lon="5.57818">
        <ele>882.8</ele>
        <time>2023-05-28T09:36:56Z</time>
      </trkpt>
      <trkpt lat="43.53172" lon="5.57818">
        <ele>882.8</ele>
        <time>2023-05-28T09:36:57Z</time>
      </trkpt>
      <trkpt lat="43.53172" lon="5.57818">
        <ele>882.8</ele>
        <time>2023-05-28T09:36:58Z</time>
      </trkpt>
      <trkpt lat="43.53172" lon="5.57818">
        <ele>882.8</ele>
        <time>2023-05-28T09:36:59Z</time>
      </trkpt>
      <trkpt lat="43.53172" lon="5.57818">
        <ele>882.8</ele>
        <time>2023-05-28T09:37:00Z</time>
      </trkpt>
      <trkpt lat="43.53172" lon="5.57817">
        <ele>882.8</ele>
        <time>2023-05-28T09:37:01Z</time>
      </trkpt>
      <trkpt lat="43.53171" lon="5.57818">
        <ele>882.7</ele>
        <time>2023-05-28T09:37:02Z</time>
      </trkpt>
      <trkpt lat="43.53171" lon="5.57818">
        <ele>882.8</ele>
        <time>2023-05-28T09:37:03Z</time>
      </trkpt>
      <trkpt lat="43.53171" lon="5.57818">
        <ele>882.8</ele>
        <time>2023-05-28T09:37:04Z</time>
      </trkpt>
      <trkpt lat="43.53171" lon="5.57817">
        <ele>882.8</ele>
        <time>2023-05-28T09:37:05Z</time>
      </trkpt>
      <trkpt lat="43.53171" lon="5.57817">
        <ele>882.7</ele>
        <time>2023-05-28T09:37:06Z</time>
      </trkpt>
      <trkpt lat="43.53171" lon="5.57817">
        <ele>882.7</ele>
        <time>2023-05-28T09:37:07Z</time>
      </trkpt>
      <trkpt lat="43.5317" lon="5.57817">
        <ele>882.8</ele>
        <time>2023-05-28T09:37:08Z</time>
      </trkpt>
      <trkpt lat="43.53171" lon="5.57817">
        <ele>882.8</ele>
        <time>2023-05-28T09:37:09Z</time>
      </trkpt>
      <trkpt lat="43.53171" lon="5.57817">
        <ele>882.9</ele>
        <time>2023-05-28T09:37:10Z</time>
      </trkpt>
      <trkpt lat="43.53172" lon="5.57817">
        <ele>883</ele>
        <time>2023-05-28T09:37:11Z</time>
      </trkpt>
      <trkpt lat="43.53172" lon="5.57817">
        <ele>883</ele>
        <time>2023-05-28T09:37:12Z</time>
      </trkpt>
      <trkpt lat="43.53172" lon="5.57816">
        <ele>883</ele>
        <time>2023-05-28T09:37:13Z</time>
      </trkpt>
      <trkpt lat="43.53172" lon="5.57816">
        <ele>883.1</ele>
        <time>2023-05-28T09:37:14Z</time>
      </trkpt>
      <trkpt lat="43.53173" lon="5.57816">
        <ele>883</ele>
        <time>2023-05-28T09:37:15Z</time>
      </trkpt>
      <trkpt lat="43.53173" lon="5.57816">
        <ele>883</ele>
        <time>2023-05-28T09:37:16Z</time>
      </trkpt>
      <trkpt lat="43.53173" lon="5.57816">
        <ele>883</ele>
        <time>2023-05-28T09:37:17Z</time>
      </trkpt>
      <trkpt lat="43.53173" lon="5.57816">
        <ele>883</ele>
        <time>2023-05-28T09:37:18Z</time>
      </trkpt>
      <trkpt lat="43.53173" lon="5.57815">
        <ele>883</ele>
        <time>2023-05-28T09:37:19Z</time>
      </trkpt>
      <trkpt lat="43.53172" lon="5.57814">
        <ele>883</ele>
        <time>2023-05-28T09:37:20Z</time>
      </trkpt>
      <trkpt lat="43.53172" lon="5.57814">
        <ele>883</ele>
        <time>2023-05-28T09:37:21Z</time>
      </trkpt>
      <trkpt lat="43.53172" lon="5.57814">
        <ele>883</ele>
        <time>2023-05-28T09:37:22Z</time>
      </trkpt>
      <trkpt lat="43.53172" lon="5.57815">
        <ele>883</ele>
        <time>2023-05-28T09:37:23Z</time>
      </trkpt>
      <trkpt lat="43.53172" lon="5.57815">
        <ele>882.9</ele>
        <time>2023-05-28T09:37:24Z</time>
      </trkpt>
      <trkpt lat="43.53173" lon="5.57815">
        <ele>882.9</ele>
        <time>2023-05-28T09:37:25Z</time>
      </trkpt>
      <trkpt lat="43.53173" lon="5.57815">
        <ele>882.8</ele>
        <time>2023-05-28T09:37:26Z</time>
      </trkpt>
      <trkpt lat="43.53173" lon="5.57815">
        <ele>882.9</ele>
        <time>2023-05-28T09:37:27Z</time>
      </trkpt>
      <trkpt lat="43.53174" lon="5.57815">
        <ele>882.8</ele>
        <time>2023-05-28T09:37:28Z</time>
      </trkpt>
      <trkpt lat="43.53174" lon="5.57815">
        <ele>882.8</ele>
        <time>2023-05-28T09:37:29Z</time>
      </trkpt>
      <trkpt lat="43.53175" lon="5.57815">
        <ele>882.8</ele>
        <time>2023-05-28T09:37:30Z</time>
      </trkpt>
      <trkpt lat="43.53175" lon="5.57815">
        <ele>882.8</ele>
        <time>2023-05-28T09:37:31Z</time>
      </trkpt>
      <trkpt lat="43.53175" lon="5.57814">
        <ele>882.8</ele>
        <time>2023-05-28T09:37:32Z</time>
      </trkpt>
      <trkpt lat="43.53175" lon="5.57814">
        <ele>882.8</ele>
        <time>2023-05-28T09:37:33Z</time>
      </trkpt>
      <trkpt lat="43.53176" lon="5.57813">
        <ele>882.8</ele>
        <time>2023-05-28T09:37:34Z</time>
      </trkpt>
      <trkpt lat="43.53176" lon="5.57812">
        <ele>882.8</ele>
        <time>2023-05-28T09:37:35Z</time>
      </trkpt>
      <trkpt lat="43.53176" lon="5.57812">
        <ele>882.9</ele>
        <time>2023-05-28T09:37:36Z</time>
      </trkpt>
      <trkpt lat="43.53177" lon="5.57811">
        <ele>882.9</ele>
        <time>2023-05-28T09:37:37Z</time>
      </trkpt>
      <trkpt lat="43.53177" lon="5.57811">
        <ele>883</ele>
        <time>2023-05-28T09:37:38Z</time>
      </trkpt>
      <trkpt lat="43.53177" lon="5.57811">
        <ele>882.9</ele>
        <time>2023-05-28T09:37:39Z</time>
      </trkpt>
      <trkpt lat="43.53176" lon="5.5781">
        <ele>882.9</ele>
        <time>2023-05-28T09:37:40Z</time>
      </trkpt>
      <trkpt lat="43.53177" lon="5.5781">
        <ele>882.9</ele>
        <time>2023-05-28T09:37:41Z</time>
      </trkpt>
      <trkpt lat="43.53176" lon="5.5781">
        <ele>882.9</ele>
        <time>2023-05-28T09:37:42Z</time>
      </trkpt>
      <trkpt lat="43.53176" lon="5.57809">
        <ele>882.9</ele>
        <time>2023-05-28T09:37:43Z</time>
      </trkpt>
      <trkpt lat="43.53176" lon="5.57809">
        <ele>883</ele>
        <time>2023-05-28T09:37:44Z</time>
      </trkpt>
      <trkpt lat="43.53176" lon="5.57809">
        <ele>883</ele>
        <time>2023-05-28T09:37:45Z</time>
      </trkpt>
      <trkpt lat="43.53176" lon="5.57809">
        <ele>883</ele>
        <time>2023-05-28T09:37:46Z</time>
      </trkpt>
      <trkpt lat="43.53176" lon="5.57809">
        <ele>882.9</ele>
        <time>2023-05-28T09:37:47Z</time>
      </trkpt>
      <trkpt lat="43.53176" lon="5.57808">
        <ele>883</ele>
        <time>2023-05-28T09:37:48Z</time>
      </trkpt>
      <trkpt lat="43.53176" lon="5.57808">
        <ele>883</ele>
        <time>2023-05-28T09:37:49Z</time>
      </trkpt>
      <trkpt lat="43.53176" lon="5.57808">
        <ele>883.1</ele>
        <time>2023-05-28T09:37:50Z</time>
      </trkpt>
      <trkpt lat="43.53176" lon="5.57807">
        <ele>883.1</ele>
        <time>2023-05-28T09:37:51Z</time>
      </trkpt>
      <trkpt lat="43.53176" lon="5.57807">
        <ele>883.1</ele>
        <time>2023-05-28T09:37:52Z</time>
      </trkpt>
      <trkpt lat="43.53176" lon="5.57807">
        <ele>883</ele>
        <time>2023-05-28T09:37:53Z</time>
      </trkpt>
      <trkpt lat="43.53176" lon="5.57807">
        <ele>883.1</ele>
        <time>2023-05-28T09:37:54Z</time>
      </trkpt>
      <trkpt lat="43.53176" lon="5.57807">
        <ele>883.1</ele>
        <time>2023-05-28T09:37:55Z</time>
      </trkpt>
      <trkpt lat="43.53176" lon="5.57807">
        <ele>883.2</ele>
        <time>2023-05-28T09:37:56Z</time>
      </trkpt>
      <trkpt lat="43.53175" lon="5.57807">
        <ele>883.2</ele>
        <time>2023-05-28T09:37:57Z</time>
      </trkpt>
      <trkpt lat="43.53175" lon="5.57806">
        <ele>883.2</ele>
        <time>2023-05-28T09:37:58Z</time>
      </trkpt>
      <trkpt lat="43.53175" lon="5.57807">
        <ele>883.2</ele>
        <time>2023-05-28T09:37:59Z</time>
      </trkpt>
      <trkpt lat="43.53175" lon="5.57807">
        <ele>883.2</ele>
        <time>2023-05-28T09:38:00Z</time>
      </trkpt>
      <trkpt lat="43.53174" lon="5.57807">
        <ele>883.2</ele>
        <time>2023-05-28T09:38:01Z</time>
      </trkpt>
      <trkpt lat="43.53174" lon="5.57807">
        <ele>883.2</ele>
        <time>2023-05-28T09:38:02Z</time>
      </trkpt>
      <trkpt lat="43.53174" lon="5.57807">
        <ele>883.2</ele>
        <time>2023-05-28T09:38:03Z</time>
      </trkpt>
      <trkpt lat="43.53174" lon="5.57808">
        <ele>883.4</ele>
        <time>2023-05-28T09:38:04Z</time>
      </trkpt>
      <trkpt lat="43.53174" lon="5.57808">
        <ele>883.5</ele>
        <time>2023-05-28T09:38:05Z</time>
      </trkpt>
      <trkpt lat="43.53173" lon="5.57808">
        <ele>883.4</ele>
        <time>2023-05-28T09:38:06Z</time>
      </trkpt>
      <trkpt lat="43.53174" lon="5.57808">
        <ele>883.4</ele>
        <time>2023-05-28T09:38:07Z</time>
      </trkpt>
      <trkpt lat="43.53174" lon="5.57808">
        <ele>883.4</ele>
        <time>2023-05-28T09:38:08Z</time>
      </trkpt>
      <trkpt lat="43.53175" lon="5.57808">
        <ele>883.5</ele>
        <time>2023-05-28T09:38:09Z</time>
      </trkpt>
      <trkpt lat="43.53175" lon="5.57808">
        <ele>883.6</ele>
        <time>2023-05-28T09:38:10Z</time>
      </trkpt>
      <trkpt lat="43.53175" lon="5.57808">
        <ele>883.6</ele>
        <time>2023-05-28T09:38:11Z</time>
      </trkpt>
      <trkpt lat="43.53175" lon="5.57807">
        <ele>883.6</ele>
        <time>2023-05-28T09:38:12Z</time>
      </trkpt>
      <trkpt lat="43.53175" lon="5.57807">
        <ele>883.6</ele>
        <time>2023-05-28T09:38:13Z</time>
      </trkpt>
      <trkpt lat="43.53176" lon="5.57808">
        <ele>883.7</ele>
        <time>2023-05-28T09:38:14Z</time>
      </trkpt>
      <trkpt lat="43.53176" lon="5.57808">
        <ele>883.7</ele>
        <time>2023-05-28T09:38:15Z</time>
      </trkpt>
      <trkpt lat="43.53177" lon="5.57808">
        <ele>883.7</ele>
        <time>2023-05-28T09:38:16Z</time>
      </trkpt>
      <trkpt lat="43.53177" lon="5.57809">
        <ele>883.5</ele>
        <time>2023-05-28T09:38:17Z</time>
      </trkpt>
      <trkpt lat="43.53178" lon="5.57809">
        <ele>883.4</ele>
        <time>2023-05-28T09:38:18Z</time>
      </trkpt>
      <trkpt lat="43.53178" lon="5.57809">
        <ele>883.3</ele>
        <time>2023-05-28T09:38:19Z</time>
      </trkpt>
      <trkpt lat="43.53179" lon="5.57809">
        <ele>883.2</ele>
        <time>2023-05-28T09:38:20Z</time>
      </trkpt>
      <trkpt lat="43.53179" lon="5.57809">
        <ele>883.1</ele>
        <time>2023-05-28T09:38:21Z</time>
      </trkpt>
      <trkpt lat="43.53179" lon="5.57809">
        <ele>883.1</ele>
        <time>2023-05-28T09:38:22Z</time>
      </trkpt>
      <trkpt lat="43.5318" lon="5.57809">
        <ele>883</ele>
        <time>2023-05-28T09:38:23Z</time>
      </trkpt>
      <trkpt lat="43.5318" lon="5.5781">
        <ele>883</ele>
        <time>2023-05-28T09:38:24Z</time>
      </trkpt>
      <trkpt lat="43.5318" lon="5.57811">
        <ele>882.9</ele>
        <time>2023-05-28T09:38:25Z</time>
      </trkpt>
      <trkpt lat="43.5318" lon="5.57811">
        <ele>882.8</ele>
        <time>2023-05-28T09:38:26Z</time>
      </trkpt>
      <trkpt lat="43.5318" lon="5.57812">
        <ele>882.7</ele>
        <time>2023-05-28T09:38:27Z</time>
      </trkpt>
      <trkpt lat="43.53181" lon="5.57813">
        <ele>882.7</ele>
        <time>2023-05-28T09:38:28Z</time>
      </trkpt>
      <trkpt lat="43.53182" lon="5.57814">
        <ele>882.7</ele>
        <time>2023-05-28T09:38:29Z</time>
      </trkpt>
      <trkpt lat="43.53181" lon="5.57815">
        <ele>882.6</ele>
        <time>2023-05-28T09:38:30Z</time>
      </trkpt>
      <trkpt lat="43.53181" lon="5.57816">
        <ele>882.6</ele>
        <time>2023-05-28T09:38:31Z</time>
      </trkpt>
      <trkpt lat="43.53181" lon="5.57817">
        <ele>882.6</ele>
        <time>2023-05-28T09:38:32Z</time>
      </trkpt>
      <trkpt lat="43.5318" lon="5.57818">
        <ele>882.6</ele>
        <time>2023-05-28T09:38:33Z</time>
      </trkpt>
      <trkpt lat="43.5318" lon="5.57819">
        <ele>882.6</ele>
        <time>2023-05-28T09:38:34Z</time>
      </trkpt>
      <trkpt lat="43.5318" lon="5.57821">
        <ele>882.7</ele>
        <time>2023-05-28T09:38:35Z</time>
      </trkpt>
      <trkpt lat="43.53179" lon="5.57822">
        <ele>882.7</ele>
        <time>2023-05-28T09:38:36Z</time>
      </trkpt>
      <trkpt lat="43.53179" lon="5.57823">
        <ele>882.7</ele>
        <time>2023-05-28T09:38:37Z</time>
      </trkpt>
      <trkpt lat="43.53179" lon="5.57824">
        <ele>882.7</ele>
        <time>2023-05-28T09:38:38Z</time>
      </trkpt>
      <trkpt lat="43.53178" lon="5.57825">
        <ele>882.6</ele>
        <time>2023-05-28T09:38:39Z</time>
      </trkpt>
      <trkpt lat="43.53177" lon="5.57826">
        <ele>882.6</ele>
        <time>2023-05-28T09:38:40Z</time>
      </trkpt>
      <trkpt lat="43.53177" lon="5.57827">
        <ele>882.5</ele>
        <time>2023-05-28T09:38:41Z</time>
      </trkpt>
      <trkpt lat="43.53176" lon="5.57828">
        <ele>882.5</ele>
        <time>2023-05-28T09:38:42Z</time>
      </trkpt>
      <trkpt lat="43.53176" lon="5.5783">
        <ele>882.5</ele>
        <time>2023-05-28T09:38:43Z</time>
      </trkpt>
      <trkpt lat="43.53176" lon="5.57831">
        <ele>882.5</ele>
        <time>2023-05-28T09:38:44Z</time>
      </trkpt>
      <trkpt lat="43.53174" lon="5.57833">
        <ele>882.6</ele>
        <time>2023-05-28T09:38:45Z</time>
      </trkpt>
      <trkpt lat="43.53175" lon="5.57834">
        <ele>882.7</ele>
        <time>2023-05-28T09:38:46Z</time>
      </trkpt>
      <trkpt lat="43.53175" lon="5.57836">
        <ele>882.8</ele>
        <time>2023-05-28T09:38:47Z</time>
      </trkpt>
      <trkpt lat="43.53174" lon="5.57837">
        <ele>883</ele>
        <time>2023-05-28T09:38:48Z</time>
      </trkpt>
      <trkpt lat="43.53174" lon="5.57838">
        <ele>883.1</ele>
        <time>2023-05-28T09:38:49Z</time>
      </trkpt>
      <trkpt lat="43.53174" lon="5.5784">
        <ele>883.3</ele>
        <time>2023-05-28T09:38:50Z</time>
      </trkpt>
      <trkpt lat="43.53173" lon="5.57841">
        <ele>883.4</ele>
        <time>2023-05-28T09:38:51Z</time>
      </trkpt>
      <trkpt lat="43.53173" lon="5.57843">
        <ele>883.6</ele>
        <time>2023-05-28T09:38:52Z</time>
      </trkpt>
      <trkpt lat="43.53172" lon="5.57845">
        <ele>883.7</ele>
        <time>2023-05-28T09:38:53Z</time>
      </trkpt>
      <trkpt lat="43.53172" lon="5.57845">
        <ele>883.8</ele>
        <time>2023-05-28T09:38:54Z</time>
      </trkpt>
      <trkpt lat="43.53172" lon="5.57846">
        <ele>883.8</ele>
        <time>2023-05-28T09:38:55Z</time>
      </trkpt>
      <trkpt lat="43.53172" lon="5.57846">
        <ele>883.8</ele>
        <time>2023-05-28T09:38:56Z</time>
      </trkpt>
      <trkpt lat="43.53173" lon="5.57846">
        <ele>883.8</ele>
        <time>2023-05-28T09:38:57Z</time>
      </trkpt>
      <trkpt lat="43.53173" lon="5.57846">
        <ele>883.7</ele>
        <time>2023-05-28T09:38:58Z</time>
      </trkpt>
      <trkpt lat="43.53172" lon="5.57847">
        <ele>883.7</ele>
        <time>2023-05-28T09:38:59Z</time>
      </trkpt>
      <trkpt lat="43.53173" lon="5.57847">
        <ele>883.8</ele>
        <time>2023-05-28T09:39:00Z</time>
      </trkpt>
      <trkpt lat="43.53173" lon="5.57847">
        <ele>883.8</ele>
        <time>2023-05-28T09:39:01Z</time>
      </trkpt>
      <trkpt lat="43.53173" lon="5.57848">
        <ele>883.8</ele>
        <time>2023-05-28T09:39:02Z</time>
      </trkpt>
      <trkpt lat="43.53173" lon="5.57848">
        <ele>883.8</ele>
        <time>2023-05-28T09:39:03Z</time>
      </trkpt>
      <trkpt lat="43.53173" lon="5.57848">
        <ele>883.7</ele>
        <time>2023-05-28T09:39:04Z</time>
      </trkpt>
      <trkpt lat="43.53173" lon="5.57848">
        <ele>883.8</ele>
        <time>2023-05-28T09:39:05Z</time>
      </trkpt>
      <trkpt lat="43.53173" lon="5.57848">
        <ele>883.9</ele>
        <time>2023-05-28T09:39:06Z</time>
      </trkpt>
      <trkpt lat="43.53173" lon="5.57848">
        <ele>883.9</ele>
        <time>2023-05-28T09:39:07Z</time>
      </trkpt>
      <trkpt lat="43.53173" lon="5.57848">
        <ele>884</ele>
        <time>2023-05-28T09:39:08Z</time>
      </trkpt>
      <trkpt lat="43.53173" lon="5.57848">
        <ele>884</ele>
        <time>2023-05-28T09:39:09Z</time>
      </trkpt>
      <trkpt lat="43.53172" lon="5.57848">
        <ele>884.1</ele>
        <time>2023-05-28T09:39:10Z</time>
      </trkpt>
      <trkpt lat="43.53173" lon="5.57849">
        <ele>884.2</ele>
        <time>2023-05-28T09:39:11Z</time>
      </trkpt>
      <trkpt lat="43.53173" lon="5.57849">
        <ele>884.3</ele>
        <time>2023-05-28T09:39:12Z</time>
      </trkpt>
      <trkpt lat="43.53172" lon="5.57849">
        <ele>884.3</ele>
        <time>2023-05-28T09:39:13Z</time>
      </trkpt>
      <trkpt lat="43.53172" lon="5.57849">
        <ele>884.3</ele>
        <time>2023-05-28T09:39:14Z</time>
      </trkpt>
      <trkpt lat="43.53173" lon="5.5785">
        <ele>884.3</ele>
        <time>2023-05-28T09:39:15Z</time>
      </trkpt>
      <trkpt lat="43.53173" lon="5.5785">
        <ele>884.3</ele>
        <time>2023-05-28T09:39:16Z</time>
      </trkpt>
      <trkpt lat="43.53172" lon="5.5785">
        <ele>884.4</ele>
        <time>2023-05-28T09:39:17Z</time>
      </trkpt>
      <trkpt lat="43.53172" lon="5.5785">
        <ele>884.4</ele>
        <time>2023-05-28T09:39:18Z</time>
      </trkpt>
      <trkpt lat="43.53172" lon="5.5785">
        <ele>884.5</ele>
        <time>2023-05-28T09:39:19Z</time>
      </trkpt>
      <trkpt lat="43.53172" lon="5.5785">
        <ele>884.5</ele>
        <time>2023-05-28T09:39:20Z</time>
      </trkpt>
      <trkpt lat="43.53172" lon="5.57851">
        <ele>884.5</ele>
        <time>2023-05-28T09:39:21Z</time>
      </trkpt>
      <trkpt lat="43.53172" lon="5.57851">
        <ele>884.6</ele>
        <time>2023-05-28T09:39:22Z</time>
      </trkpt>
      <trkpt lat="43.53172" lon="5.57853">
        <ele>884.6</ele>
        <time>2023-05-28T09:39:23Z</time>
      </trkpt>
      <trkpt lat="43.53172" lon="5.57854">
        <ele>884.6</ele>
        <time>2023-05-28T09:39:24Z</time>
      </trkpt>
      <trkpt lat="43.53172" lon="5.57855">
        <ele>884.6</ele>
        <time>2023-05-28T09:39:25Z</time>
      </trkpt>
      <trkpt lat="43.53171" lon="5.57856">
        <ele>884.7</ele>
        <time>2023-05-28T09:39:26Z</time>
      </trkpt>
      <trkpt lat="43.5317" lon="5.57857">
        <ele>884.7</ele>
        <time>2023-05-28T09:39:27Z</time>
      </trkpt>
      <trkpt lat="43.53171" lon="5.57858">
        <ele>884.7</ele>
        <time>2023-05-28T09:39:28Z</time>
      </trkpt>
      <trkpt lat="43.53171" lon="5.57858">
        <ele>884.8</ele>
        <time>2023-05-28T09:39:29Z</time>
      </trkpt>
      <trkpt lat="43.5317" lon="5.57859">
        <ele>885</ele>
        <time>2023-05-28T09:39:30Z</time>
      </trkpt>
      <trkpt lat="43.53172" lon="5.57859">
        <ele>885.2</ele>
        <time>2023-05-28T09:39:31Z</time>
      </trkpt>
      <trkpt lat="43.53171" lon="5.5786">
        <ele>885.4</ele>
        <time>2023-05-28T09:39:32Z</time>
      </trkpt>
      <trkpt lat="43.5317" lon="5.57861">
        <ele>885.7</ele>
        <time>2023-05-28T09:39:33Z</time>
      </trkpt>
      <trkpt lat="43.53169" lon="5.57862">
        <ele>885.9</ele>
        <time>2023-05-28T09:39:34Z</time>
      </trkpt>
      <trkpt lat="43.53169" lon="5.57863">
        <ele>886.1</ele>
        <time>2023-05-28T09:39:35Z</time>
      </trkpt>
      <trkpt lat="43.53169" lon="5.57863">
        <ele>886.4</ele>
        <time>2023-05-28T09:39:36Z</time>
      </trkpt>
      <trkpt lat="43.53169" lon="5.57864">
        <ele>886.6</ele>
        <time>2023-05-28T09:39:37Z</time>
      </trkpt>
      <trkpt lat="43.53169" lon="5.57865">
        <ele>886.7</ele>
        <time>2023-05-28T09:39:38Z</time>
      </trkpt>
      <trkpt lat="43.53168" lon="5.57865">
        <ele>886.8</ele>
        <time>2023-05-28T09:39:39Z</time>
      </trkpt>
      <trkpt lat="43.53168" lon="5.57866">
        <ele>887</ele>
        <time>2023-05-28T09:39:40Z</time>
      </trkpt>
      <trkpt lat="43.53168" lon="5.57866">
        <ele>887.1</ele>
        <time>2023-05-28T09:39:41Z</time>
      </trkpt>
      <trkpt lat="43.53167" lon="5.57866">
        <ele>887.2</ele>
        <time>2023-05-28T09:39:42Z</time>
      </trkpt>
      <trkpt lat="43.53167" lon="5.57866">
        <ele>887.4</ele>
        <time>2023-05-28T09:39:43Z</time>
      </trkpt>
      <trkpt lat="43.53167" lon="5.57867">
        <ele>887.6</ele>
        <time>2023-05-28T09:39:44Z</time>
      </trkpt>
      <trkpt lat="43.53166" lon="5.57869">
        <ele>887.7</ele>
        <time>2023-05-28T09:39:45Z</time>
      </trkpt>
      <trkpt lat="43.53167" lon="5.5787">
        <ele>887.9</ele>
        <time>2023-05-28T09:39:46Z</time>
      </trkpt>
      <trkpt lat="43.53167" lon="5.57871">
        <ele>888.2</ele>
        <time>2023-05-28T09:39:47Z</time>
      </trkpt>
      <trkpt lat="43.53167" lon="5.57871">
        <ele>888.4</ele>
        <time>2023-05-28T09:39:48Z</time>
      </trkpt>
      <trkpt lat="43.53167" lon="5.57872">
        <ele>888.5</ele>
        <time>2023-05-28T09:39:49Z</time>
      </trkpt>
      <trkpt lat="43.53167" lon="5.57872">
        <ele>888.7</ele>
        <time>2023-05-28T09:39:50Z</time>
      </trkpt>
      <trkpt lat="43.53167" lon="5.57873">
        <ele>888.9</ele>
        <time>2023-05-28T09:39:51Z</time>
      </trkpt>
      <trkpt lat="43.53166" lon="5.57874">
        <ele>889.1</ele>
        <time>2023-05-28T09:39:52Z</time>
      </trkpt>
      <trkpt lat="43.53166" lon="5.57874">
        <ele>889.3</ele>
        <time>2023-05-28T09:39:53Z</time>
      </trkpt>
      <trkpt lat="43.53166" lon="5.57875">
        <ele>889.5</ele>
        <time>2023-05-28T09:39:54Z</time>
      </trkpt>
      <trkpt lat="43.53166" lon="5.57876">
        <ele>889.7</ele>
        <time>2023-05-28T09:39:55Z</time>
      </trkpt>
      <trkpt lat="43.53166" lon="5.57876">
        <ele>890</ele>
        <time>2023-05-28T09:39:56Z</time>
      </trkpt>
      <trkpt lat="43.53165" lon="5.57876">
        <ele>890.1</ele>
        <time>2023-05-28T09:39:57Z</time>
      </trkpt>
      <trkpt lat="43.53165" lon="5.57876">
        <ele>890.3</ele>
        <time>2023-05-28T09:39:58Z</time>
      </trkpt>
      <trkpt lat="43.53164" lon="5.57876">
        <ele>890.5</ele>
        <time>2023-05-28T09:39:59Z</time>
      </trkpt>
      <trkpt lat="43.53164" lon="5.57875">
        <ele>890.7</ele>
        <time>2023-05-28T09:40:00Z</time>
      </trkpt>
      <trkpt lat="43.53164" lon="5.57875">
        <ele>890.9</ele>
        <time>2023-05-28T09:40:01Z</time>
      </trkpt>
      <trkpt lat="43.53163" lon="5.57875">
        <ele>891.2</ele>
        <time>2023-05-28T09:40:02Z</time>
      </trkpt>
      <trkpt lat="43.53163" lon="5.57875">
        <ele>891.4</ele>
        <time>2023-05-28T09:40:03Z</time>
      </trkpt>
      <trkpt lat="43.53162" lon="5.57875">
        <ele>891.6</ele>
        <time>2023-05-28T09:40:04Z</time>
      </trkpt>
      <trkpt lat="43.53162" lon="5.57875">
        <ele>891.7</ele>
        <time>2023-05-28T09:40:05Z</time>
      </trkpt>
      <trkpt lat="43.53162" lon="5.57876">
        <ele>892.1</ele>
        <time>2023-05-28T09:40:06Z</time>
      </trkpt>
      <trkpt lat="43.53161" lon="5.57877">
        <ele>892.3</ele>
        <time>2023-05-28T09:40:07Z</time>
      </trkpt>
      <trkpt lat="43.53161" lon="5.57878">
        <ele>892.5</ele>
        <time>2023-05-28T09:40:08Z</time>
      </trkpt>
      <trkpt lat="43.53161" lon="5.57879">
        <ele>892.6</ele>
        <time>2023-05-28T09:40:09Z</time>
      </trkpt>
      <trkpt lat="43.53161" lon="5.57879">
        <ele>892.7</ele>
        <time>2023-05-28T09:40:10Z</time>
      </trkpt>
      <trkpt lat="43.5316" lon="5.57879">
        <ele>892.9</ele>
        <time>2023-05-28T09:40:11Z</time>
      </trkpt>
      <trkpt lat="43.5316" lon="5.57879">
        <ele>893.1</ele>
        <time>2023-05-28T09:40:12Z</time>
      </trkpt>
      <trkpt lat="43.5316" lon="5.5788">
        <ele>893.4</ele>
        <time>2023-05-28T09:40:13Z</time>
      </trkpt>
      <trkpt lat="43.5316" lon="5.5788">
        <ele>893.7</ele>
        <time>2023-05-28T09:40:14Z</time>
      </trkpt>
      <trkpt lat="43.53159" lon="5.5788">
        <ele>894</ele>
        <time>2023-05-28T09:40:15Z</time>
      </trkpt>
      <trkpt lat="43.53159" lon="5.5788">
        <ele>894.2</ele>
        <time>2023-05-28T09:40:16Z</time>
      </trkpt>
      <trkpt lat="43.53159" lon="5.5788">
        <ele>894.5</ele>
        <time>2023-05-28T09:40:17Z</time>
      </trkpt>
      <trkpt lat="43.53159" lon="5.5788">
        <ele>894.7</ele>
        <time>2023-05-28T09:40:18Z</time>
      </trkpt>
      <trkpt lat="43.53158" lon="5.5788">
        <ele>894.9</ele>
        <time>2023-05-28T09:40:19Z</time>
      </trkpt>
      <trkpt lat="43.53158" lon="5.57881">
        <ele>895</ele>
        <time>2023-05-28T09:40:20Z</time>
      </trkpt>
      <trkpt lat="43.53158" lon="5.57881">
        <ele>895.3</ele>
        <time>2023-05-28T09:40:21Z</time>
      </trkpt>
      <trkpt lat="43.53158" lon="5.57881">
        <ele>895.5</ele>
        <time>2023-05-28T09:40:22Z</time>
      </trkpt>
      <trkpt lat="43.53157" lon="5.57881">
        <ele>895.7</ele>
        <time>2023-05-28T09:40:23Z</time>
      </trkpt>
      <trkpt lat="43.53157" lon="5.57881">
        <ele>895.9</ele>
        <time>2023-05-28T09:40:24Z</time>
      </trkpt>
      <trkpt lat="43.53157" lon="5.57881">
        <ele>896.1</ele>
        <time>2023-05-28T09:40:25Z</time>
      </trkpt>
      <trkpt lat="43.53156" lon="5.57881">
        <ele>896.4</ele>
        <time>2023-05-28T09:40:26Z</time>
      </trkpt>
      <trkpt lat="43.53156" lon="5.57881">
        <ele>896.6</ele>
        <time>2023-05-28T09:40:27Z</time>
      </trkpt>
      <trkpt lat="43.53156" lon="5.5788">
        <ele>896.9</ele>
        <time>2023-05-28T09:40:28Z</time>
      </trkpt>
      <trkpt lat="43.53156" lon="5.57881">
        <ele>897.2</ele>
        <time>2023-05-28T09:40:29Z</time>
      </trkpt>
      <trkpt lat="43.53155" lon="5.57881">
        <ele>897.4</ele>
        <time>2023-05-28T09:40:30Z</time>
      </trkpt>
      <trkpt lat="43.53156" lon="5.57881">
        <ele>897.6</ele>
        <time>2023-05-28T09:40:31Z</time>
      </trkpt>
      <trkpt lat="43.53155" lon="5.57882">
        <ele>897.7</ele>
        <time>2023-05-28T09:40:32Z</time>
      </trkpt>
      <trkpt lat="43.53155" lon="5.57882">
        <ele>897.9</ele>
        <time>2023-05-28T09:40:33Z</time>
      </trkpt>
      <trkpt lat="43.53155" lon="5.57881">
        <ele>898</ele>
        <time>2023-05-28T09:40:34Z</time>
      </trkpt>
      <trkpt lat="43.53154" lon="5.57881">
        <ele>898.1</ele>
        <time>2023-05-28T09:40:35Z</time>
      </trkpt>
      <trkpt lat="43.53154" lon="5.57882">
        <ele>898.2</ele>
        <time>2023-05-28T09:40:36Z</time>
      </trkpt>
      <trkpt lat="43.53154" lon="5.57881">
        <ele>898.3</ele>
        <time>2023-05-28T09:40:37Z</time>
      </trkpt>
      <trkpt lat="43.53154" lon="5.57881">
        <ele>898.4</ele>
        <time>2023-05-28T09:40:38Z</time>
      </trkpt>
      <trkpt lat="43.53154" lon="5.57882">
        <ele>898.7</ele>
        <time>2023-05-28T09:40:39Z</time>
      </trkpt>
      <trkpt lat="43.53154" lon="5.57882">
        <ele>898.9</ele>
        <time>2023-05-28T09:40:40Z</time>
      </trkpt>
      <trkpt lat="43.53154" lon="5.57882">
        <ele>899.1</ele>
        <time>2023-05-28T09:40:41Z</time>
      </trkpt>
      <trkpt lat="43.53153" lon="5.57882">
        <ele>899.3</ele>
        <time>2023-05-28T09:40:42Z</time>
      </trkpt>
      <trkpt lat="43.53153" lon="5.57882">
        <ele>899.5</ele>
        <time>2023-05-28T09:40:43Z</time>
      </trkpt>
      <trkpt lat="43.53153" lon="5.57881">
        <ele>899.7</ele>
        <time>2023-05-28T09:40:44Z</time>
      </trkpt>
      <trkpt lat="43.53153" lon="5.5788">
        <ele>899.9</ele>
        <time>2023-05-28T09:40:45Z</time>
      </trkpt>
      <trkpt lat="43.53153" lon="5.57879">
        <ele>900.1</ele>
        <time>2023-05-28T09:40:46Z</time>
      </trkpt>
      <trkpt lat="43.53153" lon="5.57878">
        <ele>900.2</ele>
        <time>2023-05-28T09:40:47Z</time>
      </trkpt>
      <trkpt lat="43.53152" lon="5.57878">
        <ele>900.4</ele>
        <time>2023-05-28T09:40:48Z</time>
      </trkpt>
      <trkpt lat="43.53152" lon="5.57877">
        <ele>900.5</ele>
        <time>2023-05-28T09:40:49Z</time>
      </trkpt>
      <trkpt lat="43.53152" lon="5.57877">
        <ele>900.6</ele>
        <time>2023-05-28T09:40:50Z</time>
      </trkpt>
      <trkpt lat="43.53152" lon="5.57876">
        <ele>900.7</ele>
        <time>2023-05-28T09:40:51Z</time>
      </trkpt>
      <trkpt lat="43.53152" lon="5.57876">
        <ele>900.8</ele>
        <time>2023-05-28T09:40:52Z</time>
      </trkpt>
      <trkpt lat="43.53151" lon="5.57876">
        <ele>900.8</ele>
        <time>2023-05-28T09:40:53Z</time>
      </trkpt>
      <trkpt lat="43.53151" lon="5.57876">
        <ele>900.8</ele>
        <time>2023-05-28T09:40:54Z</time>
      </trkpt>
      <trkpt lat="43.53151" lon="5.57876">
        <ele>900.8</ele>
        <time>2023-05-28T09:40:55Z</time>
      </trkpt>
      <trkpt lat="43.53151" lon="5.57876">
        <ele>900.7</ele>
        <time>2023-05-28T09:40:56Z</time>
      </trkpt>
      <trkpt lat="43.53151" lon="5.57876">
        <ele>900.7</ele>
        <time>2023-05-28T09:40:57Z</time>
      </trkpt>
      <trkpt lat="43.53151" lon="5.57876">
        <ele>900.7</ele>
        <time>2023-05-28T09:40:58Z</time>
      </trkpt>
      <trkpt lat="43.5315" lon="5.57876">
        <ele>900.8</ele>
        <time>2023-05-28T09:40:59Z</time>
      </trkpt>
      <trkpt lat="43.5315" lon="5.57875">
        <ele>900.9</ele>
        <time>2023-05-28T09:41:00Z</time>
      </trkpt>
      <trkpt lat="43.5315" lon="5.57875">
        <ele>901.1</ele>
        <time>2023-05-28T09:41:01Z</time>
      </trkpt>
      <trkpt lat="43.5315" lon="5.57875">
        <ele>901.4</ele>
        <time>2023-05-28T09:41:02Z</time>
      </trkpt>
      <trkpt lat="43.53149" lon="5.57874">
        <ele>901.6</ele>
        <time>2023-05-28T09:41:03Z</time>
      </trkpt>
      <trkpt lat="43.53149" lon="5.57873">
        <ele>901.7</ele>
        <time>2023-05-28T09:41:04Z</time>
      </trkpt>
      <trkpt lat="43.53149" lon="5.57873">
        <ele>902</ele>
        <time>2023-05-28T09:41:05Z</time>
      </trkpt>
      <trkpt lat="43.53149" lon="5.57872">
        <ele>902.2</ele>
        <time>2023-05-28T09:41:06Z</time>
      </trkpt>
      <trkpt lat="43.53148" lon="5.57872">
        <ele>902.4</ele>
        <time>2023-05-28T09:41:07Z</time>
      </trkpt>
      <trkpt lat="43.53148" lon="5.57871">
        <ele>902.5</ele>
        <time>2023-05-28T09:41:08Z</time>
      </trkpt>
      <trkpt lat="43.53147" lon="5.57872">
        <ele>902.7</ele>
        <time>2023-05-28T09:41:09Z</time>
      </trkpt>
      <trkpt lat="43.53147" lon="5.57872">
        <ele>902.9</ele>
        <time>2023-05-28T09:41:10Z</time>
      </trkpt>
      <trkpt lat="43.53147" lon="5.57873">
        <ele>903.1</ele>
        <time>2023-05-28T09:41:11Z</time>
      </trkpt>
      <trkpt lat="43.53147" lon="5.57873">
        <ele>903.3</ele>
        <time>2023-05-28T09:41:12Z</time>
      </trkpt>
      <trkpt lat="43.53146" lon="5.57874">
        <ele>903.5</ele>
        <time>2023-05-28T09:41:13Z</time>
      </trkpt>
      <trkpt lat="43.53146" lon="5.57874">
        <ele>903.6</ele>
        <time>2023-05-28T09:41:14Z</time>
      </trkpt>
      <trkpt lat="43.53146" lon="5.57875">
        <ele>903.8</ele>
        <time>2023-05-28T09:41:15Z</time>
      </trkpt>
      <trkpt lat="43.53147" lon="5.57876">
        <ele>903.9</ele>
        <time>2023-05-28T09:41:16Z</time>
      </trkpt>
      <trkpt lat="43.53146" lon="5.57876">
        <ele>904.2</ele>
        <time>2023-05-28T09:41:17Z</time>
      </trkpt>
      <trkpt lat="43.53146" lon="5.57876">
        <ele>904.3</ele>
        <time>2023-05-28T09:41:18Z</time>
      </trkpt>
      <trkpt lat="43.53146" lon="5.57876">
        <ele>904.4</ele>
        <time>2023-05-28T09:41:19Z</time>
      </trkpt>
      <trkpt lat="43.53146" lon="5.57876">
        <ele>904.6</ele>
        <time>2023-05-28T09:41:20Z</time>
      </trkpt>
      <trkpt lat="43.53145" lon="5.57877">
        <ele>904.8</ele>
        <time>2023-05-28T09:41:21Z</time>
      </trkpt>
      <trkpt lat="43.53145" lon="5.57877">
        <ele>905</ele>
        <time>2023-05-28T09:41:22Z</time>
      </trkpt>
      <trkpt lat="43.53145" lon="5.57877">
        <ele>905.2</ele>
        <time>2023-05-28T09:41:23Z</time>
      </trkpt>
      <trkpt lat="43.53145" lon="5.57877">
        <ele>905.3</ele>
        <time>2023-05-28T09:41:24Z</time>
      </trkpt>
      <trkpt lat="43.53145" lon="5.57877">
        <ele>905.4</ele>
        <time>2023-05-28T09:41:25Z</time>
      </trkpt>
      <trkpt lat="43.53145" lon="5.57877">
        <ele>905.5</ele>
        <time>2023-05-28T09:41:26Z</time>
      </trkpt>
      <trkpt lat="43.53145" lon="5.57877">
        <ele>905.5</ele>
        <time>2023-05-28T09:41:27Z</time>
      </trkpt>
      <trkpt lat="43.53145" lon="5.57877">
        <ele>905.6</ele>
        <time>2023-05-28T09:41:28Z</time>
      </trkpt>
      <trkpt lat="43.53145" lon="5.57878">
        <ele>905.6</ele>
        <time>2023-05-28T09:41:29Z</time>
      </trkpt>
      <trkpt lat="43.53145" lon="5.57878">
        <ele>905.6</ele>
        <time>2023-05-28T09:41:30Z</time>
      </trkpt>
      <trkpt lat="43.53145" lon="5.57878">
        <ele>905.6</ele>
        <time>2023-05-28T09:41:31Z</time>
      </trkpt>
      <trkpt lat="43.53145" lon="5.57878">
        <ele>905.6</ele>
        <time>2023-05-28T09:41:32Z</time>
      </trkpt>
      <trkpt lat="43.53145" lon="5.57878">
        <ele>905.6</ele>
        <time>2023-05-28T09:41:33Z</time>
      </trkpt>
      <trkpt lat="43.53145" lon="5.57878">
        <ele>905.6</ele>
        <time>2023-05-28T09:41:34Z</time>
      </trkpt>
      <trkpt lat="43.53145" lon="5.57878">
        <ele>905.6</ele>
        <time>2023-05-28T09:41:35Z</time>
      </trkpt>
      <trkpt lat="43.53145" lon="5.57878">
        <ele>905.7</ele>
        <time>2023-05-28T09:41:36Z</time>
      </trkpt>
      <trkpt lat="43.53145" lon="5.57878">
        <ele>905.7</ele>
        <time>2023-05-28T09:41:37Z</time>
      </trkpt>
      <trkpt lat="43.53145" lon="5.57879">
        <ele>905.8</ele>
        <time>2023-05-28T09:41:38Z</time>
      </trkpt>
      <trkpt lat="43.53144" lon="5.5788">
        <ele>905.8</ele>
        <time>2023-05-28T09:41:39Z</time>
      </trkpt>
      <trkpt lat="43.53145" lon="5.5788">
        <ele>905.8</ele>
        <time>2023-05-28T09:41:40Z</time>
      </trkpt>
      <trkpt lat="43.53145" lon="5.57881">
        <ele>906</ele>
        <time>2023-05-28T09:41:41Z</time>
      </trkpt>
      <trkpt lat="43.53145" lon="5.57882">
        <ele>906.1</ele>
        <time>2023-05-28T09:41:42Z</time>
      </trkpt>
      <trkpt lat="43.53144" lon="5.57883">
        <ele>906.4</ele>
        <time>2023-05-28T09:41:43Z</time>
      </trkpt>
      <trkpt lat="43.53144" lon="5.57883">
        <ele>906.5</ele>
        <time>2023-05-28T09:41:44Z</time>
      </trkpt>
      <trkpt lat="43.53144" lon="5.57884">
        <ele>906.6</ele>
        <time>2023-05-28T09:41:45Z</time>
      </trkpt>
      <trkpt lat="43.53144" lon="5.57885">
        <ele>906.7</ele>
        <time>2023-05-28T09:41:46Z</time>
      </trkpt>
      <trkpt lat="43.53144" lon="5.57886">
        <ele>906.8</ele>
        <time>2023-05-28T09:41:47Z</time>
      </trkpt>
      <trkpt lat="43.53144" lon="5.57887">
        <ele>906.9</ele>
        <time>2023-05-28T09:41:48Z</time>
      </trkpt>
      <trkpt lat="43.53144" lon="5.57888">
        <ele>907.1</ele>
        <time>2023-05-28T09:41:49Z</time>
      </trkpt>
      <trkpt lat="43.53144" lon="5.57889">
        <ele>907.3</ele>
        <time>2023-05-28T09:41:50Z</time>
      </trkpt>
      <trkpt lat="43.53145" lon="5.5789">
        <ele>907.5</ele>
        <time>2023-05-28T09:41:51Z</time>
      </trkpt>
      <trkpt lat="43.53145" lon="5.57891">
        <ele>907.6</ele>
        <time>2023-05-28T09:41:52Z</time>
      </trkpt>
      <trkpt lat="43.53145" lon="5.57892">
        <ele>907.8</ele>
        <time>2023-05-28T09:41:53Z</time>
      </trkpt>
      <trkpt lat="43.53145" lon="5.57893">
        <ele>908</ele>
        <time>2023-05-28T09:41:54Z</time>
      </trkpt>
      <trkpt lat="43.53145" lon="5.57894">
        <ele>908.2</ele>
        <time>2023-05-28T09:41:55Z</time>
      </trkpt>
      <trkpt lat="43.53145" lon="5.57895">
        <ele>908.3</ele>
        <time>2023-05-28T09:41:56Z</time>
      </trkpt>
      <trkpt lat="43.53145" lon="5.57896">
        <ele>908.5</ele>
        <time>2023-05-28T09:41:57Z</time>
      </trkpt>
      <trkpt lat="43.53144" lon="5.57897">
        <ele>908.6</ele>
        <time>2023-05-28T09:41:58Z</time>
      </trkpt>
      <trkpt lat="43.53144" lon="5.57898">
        <ele>908.7</ele>
        <time>2023-05-28T09:41:59Z</time>
      </trkpt>
      <trkpt lat="43.53144" lon="5.57899">
        <ele>908.7</ele>
        <time>2023-05-28T09:42:00Z</time>
      </trkpt>
      <trkpt lat="43.53143" lon="5.579">
        <ele>908.8</ele>
        <time>2023-05-28T09:42:01Z</time>
      </trkpt>
      <trkpt lat="43.53143" lon="5.57901">
        <ele>908.9</ele>
        <time>2023-05-28T09:42:02Z</time>
      </trkpt>
      <trkpt lat="43.53143" lon="5.57901">
        <ele>908.9</ele>
        <time>2023-05-28T09:42:03Z</time>
      </trkpt>
      <trkpt lat="43.53142" lon="5.57902">
        <ele>909.1</ele>
        <time>2023-05-28T09:42:04Z</time>
      </trkpt>
      <trkpt lat="43.53142" lon="5.57903">
        <ele>909.2</ele>
        <time>2023-05-28T09:42:05Z</time>
      </trkpt>
      <trkpt lat="43.53142" lon="5.57904">
        <ele>909.4</ele>
        <time>2023-05-28T09:42:06Z</time>
      </trkpt>
      <trkpt lat="43.53142" lon="5.57905">
        <ele>909.5</ele>
        <time>2023-05-28T09:42:07Z</time>
      </trkpt>
      <trkpt lat="43.53141" lon="5.57905">
        <ele>909.6</ele>
        <time>2023-05-28T09:42:08Z</time>
      </trkpt>
      <trkpt lat="43.53141" lon="5.57905">
        <ele>909.7</ele>
        <time>2023-05-28T09:42:09Z</time>
      </trkpt>
      <trkpt lat="43.53141" lon="5.57906">
        <ele>909.9</ele>
        <time>2023-05-28T09:42:10Z</time>
      </trkpt>
      <trkpt lat="43.53141" lon="5.57906">
        <ele>910.1</ele>
        <time>2023-05-28T09:42:11Z</time>
      </trkpt>
      <trkpt lat="43.5314" lon="5.57906">
        <ele>910.3</ele>
        <time>2023-05-28T09:42:12Z</time>
      </trkpt>
      <trkpt lat="43.5314" lon="5.57906">
        <ele>910.6</ele>
        <time>2023-05-28T09:42:13Z</time>
      </trkpt>
      <trkpt lat="43.5314" lon="5.57907">
        <ele>910.9</ele>
        <time>2023-05-28T09:42:14Z</time>
      </trkpt>
      <trkpt lat="43.5314" lon="5.57908">
        <ele>911.1</ele>
        <time>2023-05-28T09:42:15Z</time>
      </trkpt>
      <trkpt lat="43.5314" lon="5.57909">
        <ele>911.3</ele>
        <time>2023-05-28T09:42:16Z</time>
      </trkpt>
      <trkpt lat="43.5314" lon="5.57909">
        <ele>911.5</ele>
        <time>2023-05-28T09:42:17Z</time>
      </trkpt>
      <trkpt lat="43.5314" lon="5.5791">
        <ele>911.6</ele>
        <time>2023-05-28T09:42:18Z</time>
      </trkpt>
      <trkpt lat="43.53139" lon="5.5791">
        <ele>911.8</ele>
        <time>2023-05-28T09:42:19Z</time>
      </trkpt>
      <trkpt lat="43.53139" lon="5.57911">
        <ele>911.9</ele>
        <time>2023-05-28T09:42:20Z</time>
      </trkpt>
      <trkpt lat="43.53139" lon="5.5791">
        <ele>912</ele>
        <time>2023-05-28T09:42:21Z</time>
      </trkpt>
      <trkpt lat="43.53139" lon="5.5791">
        <ele>912.2</ele>
        <time>2023-05-28T09:42:22Z</time>
      </trkpt>
      <trkpt lat="43.53139" lon="5.5791">
        <ele>912.4</ele>
        <time>2023-05-28T09:42:23Z</time>
      </trkpt>
      <trkpt lat="43.53138" lon="5.5791">
        <ele>912.6</ele>
        <time>2023-05-28T09:42:24Z</time>
      </trkpt>
      <trkpt lat="43.53138" lon="5.57911">
        <ele>912.7</ele>
        <time>2023-05-28T09:42:25Z</time>
      </trkpt>
      <trkpt lat="43.53137" lon="5.57911">
        <ele>912.8</ele>
        <time>2023-05-28T09:42:26Z</time>
      </trkpt>
      <trkpt lat="43.53137" lon="5.57912">
        <ele>913</ele>
        <time>2023-05-28T09:42:27Z</time>
      </trkpt>
      <trkpt lat="43.53137" lon="5.57912">
        <ele>913.2</ele>
        <time>2023-05-28T09:42:28Z</time>
      </trkpt>
      <trkpt lat="43.53136" lon="5.57913">
        <ele>913.4</ele>
        <time>2023-05-28T09:42:29Z</time>
      </trkpt>
      <trkpt lat="43.53136" lon="5.57914">
        <ele>913.7</ele>
        <time>2023-05-28T09:42:30Z</time>
      </trkpt>
      <trkpt lat="43.53136" lon="5.57914">
        <ele>913.9</ele>
        <time>2023-05-28T09:42:31Z</time>
      </trkpt>
      <trkpt lat="43.53136" lon="5.57915">
        <ele>914.2</ele>
        <time>2023-05-28T09:42:32Z</time>
      </trkpt>
      <trkpt lat="43.53135" lon="5.57915">
        <ele>914.4</ele>
        <time>2023-05-28T09:42:33Z</time>
      </trkpt>
      <trkpt lat="43.53135" lon="5.57915">
        <ele>914.6</ele>
        <time>2023-05-28T09:42:34Z</time>
      </trkpt>
      <trkpt lat="43.53134" lon="5.57916">
        <ele>914.8</ele>
        <time>2023-05-28T09:42:35Z</time>
      </trkpt>
      <trkpt lat="43.53134" lon="5.57916">
        <ele>915.1</ele>
        <time>2023-05-28T09:42:36Z</time>
      </trkpt>
      <trkpt lat="43.53134" lon="5.57916">
        <ele>915.3</ele>
        <time>2023-05-28T09:42:37Z</time>
      </trkpt>
      <trkpt lat="43.53134" lon="5.57917">
        <ele>915.6</ele>
        <time>2023-05-28T09:42:38Z</time>
      </trkpt>
      <trkpt lat="43.53134" lon="5.57918">
        <ele>915.9</ele>
        <time>2023-05-28T09:42:39Z</time>
      </trkpt>
      <trkpt lat="43.53133" lon="5.57918">
        <ele>916.2</ele>
        <time>2023-05-28T09:42:40Z</time>
      </trkpt>
      <trkpt lat="43.53134" lon="5.57919">
        <ele>916.5</ele>
        <time>2023-05-28T09:42:41Z</time>
      </trkpt>
      <trkpt lat="43.53134" lon="5.57919">
        <ele>916.8</ele>
        <time>2023-05-28T09:42:42Z</time>
      </trkpt>
      <trkpt lat="43.53133" lon="5.5792">
        <ele>917</ele>
        <time>2023-05-28T09:42:43Z</time>
      </trkpt>
      <trkpt lat="43.53134" lon="5.5792">
        <ele>917.2</ele>
        <time>2023-05-28T09:42:44Z</time>
      </trkpt>
      <trkpt lat="43.53133" lon="5.5792">
        <ele>917.5</ele>
        <time>2023-05-28T09:42:45Z</time>
      </trkpt>
      <trkpt lat="43.53133" lon="5.5792">
        <ele>917.7</ele>
        <time>2023-05-28T09:42:46Z</time>
      </trkpt>
      <trkpt lat="43.53133" lon="5.57921">
        <ele>917.8</ele>
        <time>2023-05-28T09:42:47Z</time>
      </trkpt>
      <trkpt lat="43.53133" lon="5.57922">
        <ele>918</ele>
        <time>2023-05-28T09:42:48Z</time>
      </trkpt>
      <trkpt lat="43.53132" lon="5.57923">
        <ele>918.2</ele>
        <time>2023-05-28T09:42:49Z</time>
      </trkpt>
      <trkpt lat="43.53132" lon="5.57923">
        <ele>918.3</ele>
        <time>2023-05-28T09:42:50Z</time>
      </trkpt>
      <trkpt lat="43.53132" lon="5.57924">
        <ele>918.5</ele>
        <time>2023-05-28T09:42:51Z</time>
      </trkpt>
      <trkpt lat="43.53132" lon="5.57924">
        <ele>918.7</ele>
        <time>2023-05-28T09:42:52Z</time>
      </trkpt>
      <trkpt lat="43.53132" lon="5.57924">
        <ele>918.9</ele>
        <time>2023-05-28T09:42:53Z</time>
      </trkpt>
      <trkpt lat="43.53131" lon="5.57924">
        <ele>919.1</ele>
        <time>2023-05-28T09:42:54Z</time>
      </trkpt>
      <trkpt lat="43.53131" lon="5.57925">
        <ele>919.3</ele>
        <time>2023-05-28T09:42:55Z</time>
      </trkpt>
      <trkpt lat="43.53131" lon="5.57926">
        <ele>919.4</ele>
        <time>2023-05-28T09:42:56Z</time>
      </trkpt>
      <trkpt lat="43.5313" lon="5.57927">
        <ele>919.7</ele>
        <time>2023-05-28T09:42:57Z</time>
      </trkpt>
      <trkpt lat="43.53131" lon="5.57927">
        <ele>919.9</ele>
        <time>2023-05-28T09:42:58Z</time>
      </trkpt>
      <trkpt lat="43.5313" lon="5.57928">
        <ele>920.1</ele>
        <time>2023-05-28T09:42:59Z</time>
      </trkpt>
      <trkpt lat="43.5313" lon="5.57928">
        <ele>920.4</ele>
        <time>2023-05-28T09:43:00Z</time>
      </trkpt>
      <trkpt lat="43.5313" lon="5.57929">
        <ele>920.5</ele>
        <time>2023-05-28T09:43:01Z</time>
      </trkpt>
      <trkpt lat="43.5313" lon="5.5793">
        <ele>920.8</ele>
        <time>2023-05-28T09:43:02Z</time>
      </trkpt>
      <trkpt lat="43.53129" lon="5.5793">
        <ele>921</ele>
        <time>2023-05-28T09:43:03Z</time>
      </trkpt>
      <trkpt lat="43.53129" lon="5.5793">
        <ele>921.2</ele>
        <time>2023-05-28T09:43:04Z</time>
      </trkpt>
      <trkpt lat="43.53129" lon="5.57931">
        <ele>921.4</ele>
        <time>2023-05-28T09:43:05Z</time>
      </trkpt>
      <trkpt lat="43.53128" lon="5.57932">
        <ele>921.6</ele>
        <time>2023-05-28T09:43:06Z</time>
      </trkpt>
      <trkpt lat="43.53128" lon="5.57933">
        <ele>921.7</ele>
        <time>2023-05-28T09:43:07Z</time>
      </trkpt>
      <trkpt lat="43.53128" lon="5.57934">
        <ele>922</ele>
        <time>2023-05-28T09:43:08Z</time>
      </trkpt>
      <trkpt lat="43.53128" lon="5.57935">
        <ele>922.1</ele>
        <time>2023-05-28T09:43:09Z</time>
      </trkpt>
      <trkpt lat="43.53128" lon="5.57936">
        <ele>922.2</ele>
        <time>2023-05-28T09:43:10Z</time>
      </trkpt>
      <trkpt lat="43.53128" lon="5.57937">
        <ele>922.3</ele>
        <time>2023-05-28T09:43:11Z</time>
      </trkpt>
      <trkpt lat="43.53128" lon="5.57938">
        <ele>922.5</ele>
        <time>2023-05-28T09:43:12Z</time>
      </trkpt>
      <trkpt lat="43.53127" lon="5.57939">
        <ele>922.6</ele>
        <time>2023-05-28T09:43:13Z</time>
      </trkpt>
      <trkpt lat="43.53127" lon="5.5794">
        <ele>922.7</ele>
        <time>2023-05-28T09:43:14Z</time>
      </trkpt>
      <trkpt lat="43.53126" lon="5.57941">
        <ele>922.8</ele>
        <time>2023-05-28T09:43:15Z</time>
      </trkpt>
      <trkpt lat="43.53126" lon="5.57942">
        <ele>922.9</ele>
        <time>2023-05-28T09:43:16Z</time>
      </trkpt>
      <trkpt lat="43.53126" lon="5.57942">
        <ele>923.1</ele>
        <time>2023-05-28T09:43:17Z</time>
      </trkpt>
      <trkpt lat="43.53126" lon="5.57943">
        <ele>923.2</ele>
        <time>2023-05-28T09:43:18Z</time>
      </trkpt>
      <trkpt lat="43.53126" lon="5.57943">
        <ele>923.3</ele>
        <time>2023-05-28T09:43:19Z</time>
      </trkpt>
      <trkpt lat="43.53125" lon="5.57944">
        <ele>923.3</ele>
        <time>2023-05-28T09:43:20Z</time>
      </trkpt>
      <trkpt lat="43.53125" lon="5.57945">
        <ele>923.4</ele>
        <time>2023-05-28T09:43:21Z</time>
      </trkpt>
      <trkpt lat="43.53124" lon="5.57946">
        <ele>923.4</ele>
        <time>2023-05-28T09:43:22Z</time>
      </trkpt>
      <trkpt lat="43.53125" lon="5.57947">
        <ele>923.5</ele>
        <time>2023-05-28T09:43:23Z</time>
      </trkpt>
      <trkpt lat="43.53124" lon="5.57948">
        <ele>923.6</ele>
        <time>2023-05-28T09:43:24Z</time>
      </trkpt>
      <trkpt lat="43.53124" lon="5.57949">
        <ele>923.6</ele>
        <time>2023-05-28T09:43:25Z</time>
      </trkpt>
      <trkpt lat="43.53123" lon="5.5795">
        <ele>923.7</ele>
        <time>2023-05-28T09:43:26Z</time>
      </trkpt>
      <trkpt lat="43.53123" lon="5.57951">
        <ele>923.7</ele>
        <time>2023-05-28T09:43:27Z</time>
      </trkpt>
      <trkpt lat="43.53123" lon="5.57951">
        <ele>923.7</ele>
        <time>2023-05-28T09:43:28Z</time>
      </trkpt>
      <trkpt lat="43.53123" lon="5.57952">
        <ele>923.8</ele>
        <time>2023-05-28T09:43:29Z</time>
      </trkpt>
      <trkpt lat="43.53122" lon="5.57954">
        <ele>923.8</ele>
        <time>2023-05-28T09:43:30Z</time>
      </trkpt>
      <trkpt lat="43.53122" lon="5.57955">
        <ele>923.8</ele>
        <time>2023-05-28T09:43:31Z</time>
      </trkpt>
      <trkpt lat="43.53121" lon="5.57955">
        <ele>923.8</ele>
        <time>2023-05-28T09:43:32Z</time>
      </trkpt>
      <trkpt lat="43.53121" lon="5.57956">
        <ele>923.7</ele>
        <time>2023-05-28T09:43:33Z</time>
      </trkpt>
      <trkpt lat="43.5312" lon="5.57956">
        <ele>923.6</ele>
        <time>2023-05-28T09:43:34Z</time>
      </trkpt>
      <trkpt lat="43.5312" lon="5.57957">
        <ele>923.6</ele>
        <time>2023-05-28T09:43:35Z</time>
      </trkpt>
      <trkpt lat="43.53119" lon="5.57957">
        <ele>923.6</ele>
        <time>2023-05-28T09:43:36Z</time>
      </trkpt>
      <trkpt lat="43.53119" lon="5.57958">
        <ele>923.5</ele>
        <time>2023-05-28T09:43:37Z</time>
      </trkpt>
      <trkpt lat="43.53118" lon="5.57959">
        <ele>923.5</ele>
        <time>2023-05-28T09:43:38Z</time>
      </trkpt>
      <trkpt lat="43.53118" lon="5.57959">
        <ele>923.5</ele>
        <time>2023-05-28T09:43:39Z</time>
      </trkpt>
      <trkpt lat="43.53118" lon="5.5796">
        <ele>923.5</ele>
        <time>2023-05-28T09:43:40Z</time>
      </trkpt>
      <trkpt lat="43.53118" lon="5.57961">
        <ele>923.6</ele>
        <time>2023-05-28T09:43:41Z</time>
      </trkpt>
      <trkpt lat="43.53118" lon="5.57961">
        <ele>923.7</ele>
        <time>2023-05-28T09:43:42Z</time>
      </trkpt>
      <trkpt lat="43.53117" lon="5.57962">
        <ele>923.7</ele>
        <time>2023-05-28T09:43:43Z</time>
      </trkpt>
      <trkpt lat="43.53117" lon="5.57962">
        <ele>923.8</ele>
        <time>2023-05-28T09:43:44Z</time>
      </trkpt>
      <trkpt lat="43.53116" lon="5.57963">
        <ele>924</ele>
        <time>2023-05-28T09:43:45Z</time>
      </trkpt>
      <trkpt lat="43.53116" lon="5.57963">
        <ele>924.1</ele>
        <time>2023-05-28T09:43:46Z</time>
      </trkpt>
      <trkpt lat="43.53116" lon="5.57963">
        <ele>924.4</ele>
        <time>2023-05-28T09:43:47Z</time>
      </trkpt>
      <trkpt lat="43.53115" lon="5.57964">
        <ele>924.5</ele>
        <time>2023-05-28T09:43:48Z</time>
      </trkpt>
      <trkpt lat="43.53115" lon="5.57964">
        <ele>924.7</ele>
        <time>2023-05-28T09:43:49Z</time>
      </trkpt>
      <trkpt lat="43.53115" lon="5.57965">
        <ele>924.7</ele>
        <time>2023-05-28T09:43:50Z</time>
      </trkpt>
      <trkpt lat="43.53114" lon="5.57965">
        <ele>924.9</ele>
        <time>2023-05-28T09:43:51Z</time>
      </trkpt>
      <trkpt lat="43.53114" lon="5.57965">
        <ele>925.1</ele>
        <time>2023-05-28T09:43:52Z</time>
      </trkpt>
      <trkpt lat="43.53114" lon="5.57966">
        <ele>925.4</ele>
        <time>2023-05-28T09:43:53Z</time>
      </trkpt>
      <trkpt lat="43.53114" lon="5.57967">
        <ele>925.6</ele>
        <time>2023-05-28T09:43:54Z</time>
      </trkpt>
      <trkpt lat="43.53113" lon="5.57967">
        <ele>925.7</ele>
        <time>2023-05-28T09:43:55Z</time>
      </trkpt>
      <trkpt lat="43.53113" lon="5.57968">
        <ele>925.9</ele>
        <time>2023-05-28T09:43:56Z</time>
      </trkpt>
      <trkpt lat="43.53112" lon="5.57969">
        <ele>926</ele>
        <time>2023-05-28T09:43:57Z</time>
      </trkpt>
      <trkpt lat="43.53112" lon="5.5797">
        <ele>926.1</ele>
        <time>2023-05-28T09:43:58Z</time>
      </trkpt>
      <trkpt lat="43.53112" lon="5.5797">
        <ele>926.3</ele>
        <time>2023-05-28T09:43:59Z</time>
      </trkpt>
      <trkpt lat="43.53111" lon="5.57971">
        <ele>926.5</ele>
        <time>2023-05-28T09:44:00Z</time>
      </trkpt>
      <trkpt lat="43.53111" lon="5.57971">
        <ele>926.7</ele>
        <time>2023-05-28T09:44:01Z</time>
      </trkpt>
      <trkpt lat="43.53111" lon="5.57972">
        <ele>926.8</ele>
        <time>2023-05-28T09:44:02Z</time>
      </trkpt>
      <trkpt lat="43.53111" lon="5.57972">
        <ele>927</ele>
        <time>2023-05-28T09:44:03Z</time>
      </trkpt>
      <trkpt lat="43.5311" lon="5.57973">
        <ele>927.2</ele>
        <time>2023-05-28T09:44:04Z</time>
      </trkpt>
      <trkpt lat="43.5311" lon="5.57974">
        <ele>927.3</ele>
        <time>2023-05-28T09:44:05Z</time>
      </trkpt>
      <trkpt lat="43.5311" lon="5.57974">
        <ele>927.5</ele>
        <time>2023-05-28T09:44:06Z</time>
      </trkpt>
      <trkpt lat="43.5311" lon="5.57975">
        <ele>927.6</ele>
        <time>2023-05-28T09:44:07Z</time>
      </trkpt>
      <trkpt lat="43.5311" lon="5.57976">
        <ele>927.7</ele>
        <time>2023-05-28T09:44:08Z</time>
      </trkpt>
      <trkpt lat="43.5311" lon="5.57977">
        <ele>927.8</ele>
        <time>2023-05-28T09:44:09Z</time>
      </trkpt>
      <trkpt lat="43.53109" lon="5.57977">
        <ele>928.1</ele>
        <time>2023-05-28T09:44:10Z</time>
      </trkpt>
      <trkpt lat="43.53109" lon="5.57978">
        <ele>928.3</ele>
        <time>2023-05-28T09:44:11Z</time>
      </trkpt>
      <trkpt lat="43.53109" lon="5.57979">
        <ele>928.5</ele>
        <time>2023-05-28T09:44:12Z</time>
      </trkpt>
      <trkpt lat="43.53109" lon="5.5798">
        <ele>928.6</ele>
        <time>2023-05-28T09:44:13Z</time>
      </trkpt>
      <trkpt lat="43.53108" lon="5.5798">
        <ele>928.8</ele>
        <time>2023-05-28T09:44:14Z</time>
      </trkpt>
      <trkpt lat="43.53108" lon="5.57981">
        <ele>929</ele>
        <time>2023-05-28T09:44:15Z</time>
      </trkpt>
      <trkpt lat="43.53107" lon="5.57982">
        <ele>929.1</ele>
        <time>2023-05-28T09:44:16Z</time>
      </trkpt>
      <trkpt lat="43.53108" lon="5.57982">
        <ele>929.3</ele>
        <time>2023-05-28T09:44:17Z</time>
      </trkpt>
      <trkpt lat="43.53107" lon="5.57983">
        <ele>929.5</ele>
        <time>2023-05-28T09:44:18Z</time>
      </trkpt>
      <trkpt lat="43.53107" lon="5.57983">
        <ele>929.6</ele>
        <time>2023-05-28T09:44:19Z</time>
      </trkpt>
      <trkpt lat="43.53107" lon="5.57984">
        <ele>929.8</ele>
        <time>2023-05-28T09:44:20Z</time>
      </trkpt>
      <trkpt lat="43.53107" lon="5.57985">
        <ele>929.9</ele>
        <time>2023-05-28T09:44:21Z</time>
      </trkpt>
      <trkpt lat="43.53107" lon="5.57986">
        <ele>930.1</ele>
        <time>2023-05-28T09:44:22Z</time>
      </trkpt>
      <trkpt lat="43.53107" lon="5.57987">
        <ele>930.2</ele>
        <time>2023-05-28T09:44:23Z</time>
      </trkpt>
      <trkpt lat="43.53107" lon="5.57989">
        <ele>930.3</ele>
        <time>2023-05-28T09:44:24Z</time>
      </trkpt>
      <trkpt lat="43.53107" lon="5.57989">
        <ele>930.6</ele>
        <time>2023-05-28T09:44:25Z</time>
      </trkpt>
      <trkpt lat="43.53106" lon="5.57991">
        <ele>930.7</ele>
        <time>2023-05-28T09:44:26Z</time>
      </trkpt>
      <trkpt lat="43.53106" lon="5.57992">
        <ele>930.9</ele>
        <time>2023-05-28T09:44:27Z</time>
      </trkpt>
      <trkpt lat="43.53106" lon="5.57993">
        <ele>931.1</ele>
        <time>2023-05-28T09:44:28Z</time>
      </trkpt>
      <trkpt lat="43.53106" lon="5.57994">
        <ele>931.4</ele>
        <time>2023-05-28T09:44:29Z</time>
      </trkpt>
      <trkpt lat="43.53106" lon="5.57994">
        <ele>931.6</ele>
        <time>2023-05-28T09:44:30Z</time>
      </trkpt>
      <trkpt lat="43.53106" lon="5.57995">
        <ele>931.8</ele>
        <time>2023-05-28T09:44:31Z</time>
      </trkpt>
      <trkpt lat="43.53105" lon="5.57995">
        <ele>931.9</ele>
        <time>2023-05-28T09:44:32Z</time>
      </trkpt>
      <trkpt lat="43.53105" lon="5.57996">
        <ele>932.1</ele>
        <time>2023-05-28T09:44:33Z</time>
      </trkpt>
      <trkpt lat="43.53105" lon="5.57996">
        <ele>932.3</ele>
        <time>2023-05-28T09:44:34Z</time>
      </trkpt>
      <trkpt lat="43.53105" lon="5.57997">
        <ele>932.4</ele>
        <time>2023-05-28T09:44:35Z</time>
      </trkpt>
      <trkpt lat="43.53105" lon="5.57998">
        <ele>932.6</ele>
        <time>2023-05-28T09:44:36Z</time>
      </trkpt>
      <trkpt lat="43.53105" lon="5.57999">
        <ele>932.8</ele>
        <time>2023-05-28T09:44:37Z</time>
      </trkpt>
      <trkpt lat="43.53105" lon="5.58">
        <ele>933</ele>
        <time>2023-05-28T09:44:38Z</time>
      </trkpt>
      <trkpt lat="43.53105" lon="5.58001">
        <ele>933.2</ele>
        <time>2023-05-28T09:44:39Z</time>
      </trkpt>
      <trkpt lat="43.53105" lon="5.58002">
        <ele>933.5</ele>
        <time>2023-05-28T09:44:40Z</time>
      </trkpt>
      <trkpt lat="43.53105" lon="5.58002">
        <ele>933.6</ele>
        <time>2023-05-28T09:44:41Z</time>
      </trkpt>
      <trkpt lat="43.53104" lon="5.58003">
        <ele>933.8</ele>
        <time>2023-05-28T09:44:42Z</time>
      </trkpt>
      <trkpt lat="43.53104" lon="5.58004">
        <ele>934</ele>
        <time>2023-05-28T09:44:43Z</time>
      </trkpt>
      <trkpt lat="43.53104" lon="5.58005">
        <ele>934</ele>
        <time>2023-05-28T09:44:44Z</time>
      </trkpt>
      <trkpt lat="43.53104" lon="5.58005">
        <ele>934.1</ele>
        <time>2023-05-28T09:44:45Z</time>
      </trkpt>
      <trkpt lat="43.53103" lon="5.58006">
        <ele>934.2</ele>
        <time>2023-05-28T09:44:46Z</time>
      </trkpt>
      <trkpt lat="43.53103" lon="5.58007">
        <ele>934.3</ele>
        <time>2023-05-28T09:44:47Z</time>
      </trkpt>
      <trkpt lat="43.53102" lon="5.58007">
        <ele>934.4</ele>
        <time>2023-05-28T09:44:48Z</time>
      </trkpt>
      <trkpt lat="43.53102" lon="5.58008">
        <ele>934.4</ele>
        <time>2023-05-28T09:44:49Z</time>
      </trkpt>
      <trkpt lat="43.53101" lon="5.58009">
        <ele>934.6</ele>
        <time>2023-05-28T09:44:50Z</time>
      </trkpt>
      <trkpt lat="43.53101" lon="5.58009">
        <ele>934.7</ele>
        <time>2023-05-28T09:44:51Z</time>
      </trkpt>
      <trkpt lat="43.53101" lon="5.58009">
        <ele>934.9</ele>
        <time>2023-05-28T09:44:52Z</time>
      </trkpt>
      <trkpt lat="43.53101" lon="5.58009">
        <ele>935</ele>
        <time>2023-05-28T09:44:53Z</time>
      </trkpt>
      <trkpt lat="43.531" lon="5.58009">
        <ele>935.1</ele>
        <time>2023-05-28T09:44:54Z</time>
      </trkpt>
      <trkpt lat="43.531" lon="5.58009">
        <ele>935.2</ele>
        <time>2023-05-28T09:44:55Z</time>
      </trkpt>
      <trkpt lat="43.531" lon="5.58008">
        <ele>935.3</ele>
        <time>2023-05-28T09:44:56Z</time>
      </trkpt>
      <trkpt lat="43.531" lon="5.58008">
        <ele>935.5</ele>
        <time>2023-05-28T09:44:57Z</time>
      </trkpt>
      <trkpt lat="43.531" lon="5.58007">
        <ele>935.8</ele>
        <time>2023-05-28T09:44:58Z</time>
      </trkpt>
      <trkpt lat="43.531" lon="5.58007">
        <ele>935.9</ele>
        <time>2023-05-28T09:44:59Z</time>
      </trkpt>
      <trkpt lat="43.531" lon="5.58006">
        <ele>936.1</ele>
        <time>2023-05-28T09:45:00Z</time>
      </trkpt>
      <trkpt lat="43.531" lon="5.58006">
        <ele>936.4</ele>
        <time>2023-05-28T09:45:01Z</time>
      </trkpt>
      <trkpt lat="43.531" lon="5.58005">
        <ele>936.6</ele>
        <time>2023-05-28T09:45:02Z</time>
      </trkpt>
      <trkpt lat="43.531" lon="5.58004">
        <ele>936.8</ele>
        <time>2023-05-28T09:45:03Z</time>
      </trkpt>
      <trkpt lat="43.531" lon="5.58003">
        <ele>936.9</ele>
        <time>2023-05-28T09:45:04Z</time>
      </trkpt>
      <trkpt lat="43.53101" lon="5.58003">
        <ele>937</ele>
        <time>2023-05-28T09:45:05Z</time>
      </trkpt>
      <trkpt lat="43.53101" lon="5.58002">
        <ele>937.2</ele>
        <time>2023-05-28T09:45:06Z</time>
      </trkpt>
      <trkpt lat="43.53101" lon="5.58002">
        <ele>937.4</ele>
        <time>2023-05-28T09:45:07Z</time>
      </trkpt>
      <trkpt lat="43.531" lon="5.58001">
        <ele>937.5</ele>
        <time>2023-05-28T09:45:08Z</time>
      </trkpt>
      <trkpt lat="43.531" lon="5.58">
        <ele>937.7</ele>
        <time>2023-05-28T09:45:09Z</time>
      </trkpt>
      <trkpt lat="43.531" lon="5.58">
        <ele>937.9</ele>
        <time>2023-05-28T09:45:10Z</time>
      </trkpt>
      <trkpt lat="43.531" lon="5.57999">
        <ele>938</ele>
        <time>2023-05-28T09:45:11Z</time>
      </trkpt>
      <trkpt lat="43.531" lon="5.57998">
        <ele>938.2</ele>
        <time>2023-05-28T09:45:12Z</time>
      </trkpt>
      <trkpt lat="43.531" lon="5.57998">
        <ele>938.3</ele>
        <time>2023-05-28T09:45:13Z</time>
      </trkpt>
      <trkpt lat="43.531" lon="5.57998">
        <ele>938.5</ele>
        <time>2023-05-28T09:45:14Z</time>
      </trkpt>
      <trkpt lat="43.531" lon="5.57997">
        <ele>938.6</ele>
        <time>2023-05-28T09:45:15Z</time>
      </trkpt>
      <trkpt lat="43.53099" lon="5.57997">
        <ele>938.7</ele>
        <time>2023-05-28T09:45:16Z</time>
      </trkpt>
      <trkpt lat="43.53099" lon="5.57997">
        <ele>938.8</ele>
        <time>2023-05-28T09:45:17Z</time>
      </trkpt>
      <trkpt lat="43.531" lon="5.57996">
        <ele>939.1</ele>
        <time>2023-05-28T09:45:18Z</time>
      </trkpt>
      <trkpt lat="43.53099" lon="5.57996">
        <ele>939.3</ele>
        <time>2023-05-28T09:45:19Z</time>
      </trkpt>
      <trkpt lat="43.53099" lon="5.57996">
        <ele>939.5</ele>
        <time>2023-05-28T09:45:20Z</time>
      </trkpt>
      <trkpt lat="43.53099" lon="5.57996">
        <ele>939.7</ele>
        <time>2023-05-28T09:45:21Z</time>
      </trkpt>
      <trkpt lat="43.53099" lon="5.57995">
        <ele>939.9</ele>
        <time>2023-05-28T09:45:22Z</time>
      </trkpt>
      <trkpt lat="43.53098" lon="5.57995">
        <ele>940.2</ele>
        <time>2023-05-28T09:45:23Z</time>
      </trkpt>
      <trkpt lat="43.53098" lon="5.57995">
        <ele>940.5</ele>
        <time>2023-05-28T09:45:24Z</time>
      </trkpt>
      <trkpt lat="43.53098" lon="5.57995">
        <ele>940.7</ele>
        <time>2023-05-28T09:45:25Z</time>
      </trkpt>
      <trkpt lat="43.53098" lon="5.57995">
        <ele>940.8</ele>
        <time>2023-05-28T09:45:26Z</time>
      </trkpt>
      <trkpt lat="43.53097" lon="5.57995">
        <ele>940.9</ele>
        <time>2023-05-28T09:45:27Z</time>
      </trkpt>
      <trkpt lat="43.53097" lon="5.57995">
        <ele>941</ele>
        <time>2023-05-28T09:45:28Z</time>
      </trkpt>
      <trkpt lat="43.53097" lon="5.57995">
        <ele>941.1</ele>
        <time>2023-05-28T09:45:29Z</time>
      </trkpt>
      <trkpt lat="43.53097" lon="5.57995">
        <ele>941.2</ele>
        <time>2023-05-28T09:45:30Z</time>
      </trkpt>
      <trkpt lat="43.53096" lon="5.57994">
        <ele>941.3</ele>
        <time>2023-05-28T09:45:31Z</time>
      </trkpt>
      <trkpt lat="43.53096" lon="5.57994">
        <ele>941.5</ele>
        <time>2023-05-28T09:45:32Z</time>
      </trkpt>
      <trkpt lat="43.53096" lon="5.57994">
        <ele>941.6</ele>
        <time>2023-05-28T09:45:33Z</time>
      </trkpt>
      <trkpt lat="43.53096" lon="5.57994">
        <ele>941.8</ele>
        <time>2023-05-28T09:45:34Z</time>
      </trkpt>
      <trkpt lat="43.53096" lon="5.57995">
        <ele>942</ele>
        <time>2023-05-28T09:45:35Z</time>
      </trkpt>
      <trkpt lat="43.53096" lon="5.57995">
        <ele>942</ele>
        <time>2023-05-28T09:45:36Z</time>
      </trkpt>
      <trkpt lat="43.53096" lon="5.57995">
        <ele>942.1</ele>
        <time>2023-05-28T09:45:37Z</time>
      </trkpt>
      <trkpt lat="43.53096" lon="5.57996">
        <ele>942.3</ele>
        <time>2023-05-28T09:45:38Z</time>
      </trkpt>
      <trkpt lat="43.53096" lon="5.57996">
        <ele>942.5</ele>
        <time>2023-05-28T09:45:39Z</time>
      </trkpt>
      <trkpt lat="43.53096" lon="5.57996">
        <ele>942.6</ele>
        <time>2023-05-28T09:45:40Z</time>
      </trkpt>
      <trkpt lat="43.53096" lon="5.57996">
        <ele>942.6</ele>
        <time>2023-05-28T09:45:41Z</time>
      </trkpt>
      <trkpt lat="43.53095" lon="5.57996">
        <ele>942.6</ele>
        <time>2023-05-28T09:45:42Z</time>
      </trkpt>
      <trkpt lat="43.53095" lon="5.57996">
        <ele>942.6</ele>
        <time>2023-05-28T09:45:43Z</time>
      </trkpt>
      <trkpt lat="43.53095" lon="5.57997">
        <ele>942.7</ele>
        <time>2023-05-28T09:45:44Z</time>
      </trkpt>
      <trkpt lat="43.53095" lon="5.57997">
        <ele>942.6</ele>
        <time>2023-05-28T09:45:45Z</time>
      </trkpt>
      <trkpt lat="43.53095" lon="5.57997">
        <ele>942.6</ele>
        <time>2023-05-28T09:45:46Z</time>
      </trkpt>
      <trkpt lat="43.53095" lon="5.57997">
        <ele>942.6</ele>
        <time>2023-05-28T09:45:47Z</time>
      </trkpt>
      <trkpt lat="43.53095" lon="5.57997">
        <ele>942.6</ele>
        <time>2023-05-28T09:45:48Z</time>
      </trkpt>
      <trkpt lat="43.53095" lon="5.57997">
        <ele>942.6</ele>
        <time>2023-05-28T09:45:49Z</time>
      </trkpt>
      <trkpt lat="43.53094" lon="5.57997">
        <ele>942.6</ele>
        <time>2023-05-28T09:45:50Z</time>
      </trkpt>
      <trkpt lat="43.53094" lon="5.57997">
        <ele>942.6</ele>
        <time>2023-05-28T09:45:51Z</time>
      </trkpt>
      <trkpt lat="43.53094" lon="5.57997">
        <ele>942.4</ele>
        <time>2023-05-28T09:45:52Z</time>
      </trkpt>
      <trkpt lat="43.53094" lon="5.57997">
        <ele>942.3</ele>
        <time>2023-05-28T09:45:53Z</time>
      </trkpt>
      <trkpt lat="43.53094" lon="5.57997">
        <ele>942.3</ele>
        <time>2023-05-28T09:45:54Z</time>
      </trkpt>
      <trkpt lat="43.53094" lon="5.57997">
        <ele>942.2</ele>
        <time>2023-05-28T09:45:55Z</time>
      </trkpt>
      <trkpt lat="43.53094" lon="5.57997">
        <ele>942.2</ele>
        <time>2023-05-28T09:45:56Z</time>
      </trkpt>
      <trkpt lat="43.53094" lon="5.57997">
        <ele>942.2</ele>
        <time>2023-05-28T09:45:57Z</time>
      </trkpt>
      <trkpt lat="43.53094" lon="5.57997">
        <ele>942.2</ele>
        <time>2023-05-28T09:45:58Z</time>
      </trkpt>
      <trkpt lat="43.53094" lon="5.57997">
        <ele>942.1</ele>
        <time>2023-05-28T09:45:59Z</time>
      </trkpt>
      <trkpt lat="43.53094" lon="5.57997">
        <ele>942.1</ele>
        <time>2023-05-28T09:46:00Z</time>
      </trkpt>
      <trkpt lat="43.53094" lon="5.57997">
        <ele>942.2</ele>
        <time>2023-05-28T09:46:01Z</time>
      </trkpt>
      <trkpt lat="43.53094" lon="5.57997">
        <ele>942.2</ele>
        <time>2023-05-28T09:46:02Z</time>
      </trkpt>
      <trkpt lat="43.53094" lon="5.57997">
        <ele>942.3</ele>
        <time>2023-05-28T09:46:03Z</time>
      </trkpt>
      <trkpt lat="43.53094" lon="5.57997">
        <ele>942.3</ele>
        <time>2023-05-28T09:46:04Z</time>
      </trkpt>
      <trkpt lat="43.53094" lon="5.57997">
        <ele>942.3</ele>
        <time>2023-05-28T09:46:05Z</time>
      </trkpt>
      <trkpt lat="43.53094" lon="5.57997">
        <ele>942.3</ele>
        <time>2023-05-28T09:46:06Z</time>
      </trkpt>
      <trkpt lat="43.53095" lon="5.57997">
        <ele>942.4</ele>
        <time>2023-05-28T09:46:07Z</time>
      </trkpt>
      <trkpt lat="43.53095" lon="5.57997">
        <ele>942.4</ele>
        <time>2023-05-28T09:46:08Z</time>
      </trkpt>
      <trkpt lat="43.53095" lon="5.57997">
        <ele>942.4</ele>
        <time>2023-05-28T09:46:09Z</time>
      </trkpt>
      <trkpt lat="43.53095" lon="5.57997">
        <ele>942.4</ele>
        <time>2023-05-28T09:46:10Z</time>
      </trkpt>
      <trkpt lat="43.53095" lon="5.57997">
        <ele>942.4</ele>
        <time>2023-05-28T09:46:11Z</time>
      </trkpt>
      <trkpt lat="43.53095" lon="5.57997">
        <ele>942.4</ele>
        <time>2023-05-28T09:46:12Z</time>
      </trkpt>
      <trkpt lat="43.53095" lon="5.57997">
        <ele>942.5</ele>
        <time>2023-05-28T09:46:13Z</time>
      </trkpt>
      <trkpt lat="43.53095" lon="5.57998">
        <ele>942.5</ele>
        <time>2023-05-28T09:46:14Z</time>
      </trkpt>
      <trkpt lat="43.53095" lon="5.57998">
        <ele>942.5</ele>
        <time>2023-05-28T09:46:15Z</time>
      </trkpt>
      <trkpt lat="43.53094" lon="5.57998">
        <ele>942.6</ele>
        <time>2023-05-28T09:46:16Z</time>
      </trkpt>
      <trkpt lat="43.53094" lon="5.57998">
        <ele>942.6</ele>
        <time>2023-05-28T09:46:17Z</time>
      </trkpt>
      <trkpt lat="43.53094" lon="5.57998">
        <ele>942.6</ele>
        <time>2023-05-28T09:46:18Z</time>
      </trkpt>
      <trkpt lat="43.53094" lon="5.57998">
        <ele>942.6</ele>
        <time>2023-05-28T09:46:19Z</time>
      </trkpt>
      <trkpt lat="43.53094" lon="5.57998">
        <ele>942.7</ele>
        <time>2023-05-28T09:46:20Z</time>
      </trkpt>
      <trkpt lat="43.53094" lon="5.57998">
        <ele>942.8</ele>
        <time>2023-05-28T09:46:21Z</time>
      </trkpt>
      <trkpt lat="43.53094" lon="5.57997">
        <ele>942.8</ele>
        <time>2023-05-28T09:46:22Z</time>
      </trkpt>
      <trkpt lat="43.53094" lon="5.57996">
        <ele>942.8</ele>
        <time>2023-05-28T09:46:23Z</time>
      </trkpt>
      <trkpt lat="43.53093" lon="5.57996">
        <ele>942.9</ele>
        <time>2023-05-28T09:46:24Z</time>
      </trkpt>
      <trkpt lat="43.53093" lon="5.57996">
        <ele>942.9</ele>
        <time>2023-05-28T09:46:25Z</time>
      </trkpt>
      <trkpt lat="43.53093" lon="5.57996">
        <ele>943</ele>
        <time>2023-05-28T09:46:26Z</time>
      </trkpt>
      <trkpt lat="43.53093" lon="5.57996">
        <ele>943</ele>
        <time>2023-05-28T09:46:27Z</time>
      </trkpt>
      <trkpt lat="43.53093" lon="5.57997">
        <ele>943</ele>
        <time>2023-05-28T09:46:28Z</time>
      </trkpt>
      <trkpt lat="43.53093" lon="5.57996">
        <ele>943</ele>
        <time>2023-05-28T09:46:29Z</time>
      </trkpt>
      <trkpt lat="43.53093" lon="5.57997">
        <ele>943.1</ele>
        <time>2023-05-28T09:46:30Z</time>
      </trkpt>
      <trkpt lat="43.53093" lon="5.57997">
        <ele>943.2</ele>
        <time>2023-05-28T09:46:31Z</time>
      </trkpt>
      <trkpt lat="43.53093" lon="5.57997">
        <ele>943.2</ele>
        <time>2023-05-28T09:46:32Z</time>
      </trkpt>
      <trkpt lat="43.53093" lon="5.57997">
        <ele>943.3</ele>
        <time>2023-05-28T09:46:33Z</time>
      </trkpt>
      <trkpt lat="43.53093" lon="5.57997">
        <ele>943.2</ele>
        <time>2023-05-28T09:46:34Z</time>
      </trkpt>
      <trkpt lat="43.53093" lon="5.57997">
        <ele>943.1</ele>
        <time>2023-05-28T09:46:35Z</time>
      </trkpt>
      <trkpt lat="43.53093" lon="5.57997">
        <ele>943.1</ele>
        <time>2023-05-28T09:46:36Z</time>
      </trkpt>
      <trkpt lat="43.53094" lon="5.57997">
        <ele>943.2</ele>
        <time>2023-05-28T09:46:37Z</time>
      </trkpt>
      <trkpt lat="43.53094" lon="5.57997">
        <ele>943.2</ele>
        <time>2023-05-28T09:46:38Z</time>
      </trkpt>
      <trkpt lat="43.53094" lon="5.57997">
        <ele>943.2</ele>
        <time>2023-05-28T09:46:39Z</time>
      </trkpt>
      <trkpt lat="43.53094" lon="5.57997">
        <ele>943</ele>
        <time>2023-05-28T09:46:40Z</time>
      </trkpt>
      <trkpt lat="43.53094" lon="5.57997">
        <ele>943</ele>
        <time>2023-05-28T09:46:41Z</time>
      </trkpt>
      <trkpt lat="43.53094" lon="5.57997">
        <ele>943</ele>
        <time>2023-05-28T09:46:42Z</time>
      </trkpt>
      <trkpt lat="43.53094" lon="5.57997">
        <ele>943.1</ele>
        <time>2023-05-28T09:46:43Z</time>
      </trkpt>
      <trkpt lat="43.53094" lon="5.57997">
        <ele>943.1</ele>
        <time>2023-05-28T09:46:44Z</time>
      </trkpt>
      <trkpt lat="43.53094" lon="5.57997">
        <ele>943.1</ele>
        <time>2023-05-28T09:46:45Z</time>
      </trkpt>
      <trkpt lat="43.53094" lon="5.57997">
        <ele>943</ele>
        <time>2023-05-28T09:46:46Z</time>
      </trkpt>
      <trkpt lat="43.53094" lon="5.57997">
        <ele>943</ele>
        <time>2023-05-28T09:46:47Z</time>
      </trkpt>
      <trkpt lat="43.53094" lon="5.57997">
        <ele>943.1</ele>
        <time>2023-05-28T09:46:48Z</time>
      </trkpt>
      <trkpt lat="43.53094" lon="5.57997">
        <ele>943.1</ele>
        <time>2023-05-28T09:46:49Z</time>
      </trkpt>
      <trkpt lat="43.53094" lon="5.57997">
        <ele>943.1</ele>
        <time>2023-05-28T09:46:50Z</time>
      </trkpt>
      <trkpt lat="43.53094" lon="5.57997">
        <ele>943.2</ele>
        <time>2023-05-28T09:46:51Z</time>
      </trkpt>
      <trkpt lat="43.53094" lon="5.57997">
        <ele>943.2</ele>
        <time>2023-05-28T09:46:52Z</time>
      </trkpt>
      <trkpt lat="43.53094" lon="5.57997">
        <ele>943.2</ele>
        <time>2023-05-28T09:46:53Z</time>
      </trkpt>
      <trkpt lat="43.53094" lon="5.57997">
        <ele>943.2</ele>
        <time>2023-05-28T09:46:54Z</time>
      </trkpt>
      <trkpt lat="43.53094" lon="5.57997">
        <ele>943.2</ele>
        <time>2023-05-28T09:46:55Z</time>
      </trkpt>
      <trkpt lat="43.53094" lon="5.57997">
        <ele>943.2</ele>
        <time>2023-05-28T09:46:56Z</time>
      </trkpt>
      <trkpt lat="43.53094" lon="5.57997">
        <ele>943.1</ele>
        <time>2023-05-28T09:46:57Z</time>
      </trkpt>
      <trkpt lat="43.53094" lon="5.57997">
        <ele>943.1</ele>
        <time>2023-05-28T09:46:58Z</time>
      </trkpt>
      <trkpt lat="43.53094" lon="5.57997">
        <ele>943.1</ele>
        <time>2023-05-28T09:46:59Z</time>
      </trkpt>
      <trkpt lat="43.53094" lon="5.57997">
        <ele>943.2</ele>
        <time>2023-05-28T09:47:00Z</time>
      </trkpt>
      <trkpt lat="43.53094" lon="5.57997">
        <ele>943.2</ele>
        <time>2023-05-28T09:47:01Z</time>
      </trkpt>
      <trkpt lat="43.53094" lon="5.57997">
        <ele>943.2</ele>
        <time>2023-05-28T09:47:02Z</time>
      </trkpt>
      <trkpt lat="43.53094" lon="5.57997">
        <ele>943.3</ele>
        <time>2023-05-28T09:47:03Z</time>
      </trkpt>
      <trkpt lat="43.53094" lon="5.57997">
        <ele>943.3</ele>
        <time>2023-05-28T09:47:04Z</time>
      </trkpt>
      <trkpt lat="43.53094" lon="5.57997">
        <ele>943.3</ele>
        <time>2023-05-28T09:47:05Z</time>
      </trkpt>
      <trkpt lat="43.53094" lon="5.57997">
        <ele>943.3</ele>
        <time>2023-05-28T09:47:06Z</time>
      </trkpt>
      <trkpt lat="43.53094" lon="5.57997">
        <ele>943.4</ele>
        <time>2023-05-28T09:47:07Z</time>
      </trkpt>
      <trkpt lat="43.53094" lon="5.57997">
        <ele>943.4</ele>
        <time>2023-05-28T09:47:08Z</time>
      </trkpt>
      <trkpt lat="43.53094" lon="5.57997">
        <ele>943.5</ele>
        <time>2023-05-28T09:47:09Z</time>
      </trkpt>
      <trkpt lat="43.53094" lon="5.57997">
        <ele>943.5</ele>
        <time>2023-05-28T09:47:10Z</time>
      </trkpt>
      <trkpt lat="43.53094" lon="5.57997">
        <ele>943.5</ele>
        <time>2023-05-28T09:47:11Z</time>
      </trkpt>
      <trkpt lat="43.53094" lon="5.57997">
        <ele>943.4</ele>
        <time>2023-05-28T09:47:12Z</time>
      </trkpt>
      <trkpt lat="43.53094" lon="5.57997">
        <ele>943.3</ele>
        <time>2023-05-28T09:47:13Z</time>
      </trkpt>
      <trkpt lat="43.53094" lon="5.57997">
        <ele>943.2</ele>
        <time>2023-05-28T09:47:14Z</time>
      </trkpt>
      <trkpt lat="43.53094" lon="5.57997">
        <ele>943.1</ele>
        <time>2023-05-28T09:47:15Z</time>
      </trkpt>
      <trkpt lat="43.53094" lon="5.57997">
        <ele>943</ele>
        <time>2023-05-28T09:47:16Z</time>
      </trkpt>
      <trkpt lat="43.53094" lon="5.57997">
        <ele>943</ele>
        <time>2023-05-28T09:47:17Z</time>
      </trkpt>
      <trkpt lat="43.53094" lon="5.57997">
        <ele>942.9</ele>
        <time>2023-05-28T09:47:18Z</time>
      </trkpt>
      <trkpt lat="43.53093" lon="5.57997">
        <ele>942.9</ele>
        <time>2023-05-28T09:47:19Z</time>
      </trkpt>
      <trkpt lat="43.53093" lon="5.57996">
        <ele>942.9</ele>
        <time>2023-05-28T09:47:20Z</time>
      </trkpt>
      <trkpt lat="43.53094" lon="5.57996">
        <ele>942.9</ele>
        <time>2023-05-28T09:47:21Z</time>
      </trkpt>
      <trkpt lat="43.53094" lon="5.57996">
        <ele>942.9</ele>
        <time>2023-05-28T09:47:22Z</time>
      </trkpt>
      <trkpt lat="43.53094" lon="5.57996">
        <ele>942.9</ele>
        <time>2023-05-28T09:47:23Z</time>
      </trkpt>
      <trkpt lat="43.53094" lon="5.57996">
        <ele>943</ele>
        <time>2023-05-28T09:47:24Z</time>
      </trkpt>
      <trkpt lat="43.53094" lon="5.57996">
        <ele>943</ele>
        <time>2023-05-28T09:47:25Z</time>
      </trkpt>
      <trkpt lat="43.53094" lon="5.57996">
        <ele>943.1</ele>
        <time>2023-05-28T09:47:26Z</time>
      </trkpt>
      <trkpt lat="43.53094" lon="5.57996">
        <ele>943.2</ele>
        <time>2023-05-28T09:47:27Z</time>
      </trkpt>
      <trkpt lat="43.53094" lon="5.57996">
        <ele>943.1</ele>
        <time>2023-05-28T09:47:28Z</time>
      </trkpt>
      <trkpt lat="43.53094" lon="5.57996">
        <ele>943.1</ele>
        <time>2023-05-28T09:47:29Z</time>
      </trkpt>
      <trkpt lat="43.53094" lon="5.57996">
        <ele>943.1</ele>
        <time>2023-05-28T09:47:30Z</time>
      </trkpt>
      <trkpt lat="43.53094" lon="5.57996">
        <ele>943</ele>
        <time>2023-05-28T09:47:31Z</time>
      </trkpt>
      <trkpt lat="43.53094" lon="5.57996">
        <ele>943</ele>
        <time>2023-05-28T09:47:32Z</time>
      </trkpt>
      <trkpt lat="43.53094" lon="5.57995">
        <ele>943.1</ele>
        <time>2023-05-28T09:47:33Z</time>
      </trkpt>
      <trkpt lat="43.53094" lon="5.57995">
        <ele>943.1</ele>
        <time>2023-05-28T09:47:34Z</time>
      </trkpt>
      <trkpt lat="43.53094" lon="5.57995">
        <ele>943.2</ele>
        <time>2023-05-28T09:47:35Z</time>
      </trkpt>
      <trkpt lat="43.53094" lon="5.57995">
        <ele>943.1</ele>
        <time>2023-05-28T09:47:36Z</time>
      </trkpt>
      <trkpt lat="43.53094" lon="5.57995">
        <ele>943.1</ele>
        <time>2023-05-28T09:47:37Z</time>
      </trkpt>
      <trkpt lat="43.53093" lon="5.57995">
        <ele>943.1</ele>
        <time>2023-05-28T09:47:38Z</time>
      </trkpt>
      <trkpt lat="43.53093" lon="5.57995">
        <ele>943.1</ele>
        <time>2023-05-28T09:47:39Z</time>
      </trkpt>
      <trkpt lat="43.53093" lon="5.57995">
        <ele>943.1</ele>
        <time>2023-05-28T09:47:40Z</time>
      </trkpt>
      <trkpt lat="43.53093" lon="5.57995">
        <ele>943.1</ele>
        <time>2023-05-28T09:47:41Z</time>
      </trkpt>
      <trkpt lat="43.53093" lon="5.57995">
        <ele>943.2</ele>
        <time>2023-05-28T09:47:42Z</time>
      </trkpt>
      <trkpt lat="43.53093" lon="5.57996">
        <ele>943.3</ele>
        <time>2023-05-28T09:47:43Z</time>
      </trkpt>
      <trkpt lat="43.53093" lon="5.57996">
        <ele>943.4</ele>
        <time>2023-05-28T09:47:44Z</time>
      </trkpt>
      <trkpt lat="43.53092" lon="5.57997">
        <ele>943.5</ele>
        <time>2023-05-28T09:47:45Z</time>
      </trkpt>
      <trkpt lat="43.53091" lon="5.57998">
        <ele>943.5</ele>
        <time>2023-05-28T09:47:46Z</time>
      </trkpt>
      <trkpt lat="43.53091" lon="5.57998">
        <ele>943.6</ele>
        <time>2023-05-28T09:47:47Z</time>
      </trkpt>
      <trkpt lat="43.53091" lon="5.57998">
        <ele>943.6</ele>
        <time>2023-05-28T09:47:48Z</time>
      </trkpt>
      <trkpt lat="43.53091" lon="5.57998">
        <ele>943.7</ele>
        <time>2023-05-28T09:47:49Z</time>
      </trkpt>
      <trkpt lat="43.53091" lon="5.57999">
        <ele>943.7</ele>
        <time>2023-05-28T09:47:50Z</time>
      </trkpt>
      <trkpt lat="43.53091" lon="5.57999">
        <ele>943.7</ele>
        <time>2023-05-28T09:47:51Z</time>
      </trkpt>
      <trkpt lat="43.53091" lon="5.57999">
        <ele>943.7</ele>
        <time>2023-05-28T09:47:52Z</time>
      </trkpt>
      <trkpt lat="43.53091" lon="5.57999">
        <ele>943.7</ele>
        <time>2023-05-28T09:47:53Z</time>
      </trkpt>
      <trkpt lat="43.53091" lon="5.57999">
        <ele>943.6</ele>
        <time>2023-05-28T09:47:54Z</time>
      </trkpt>
      <trkpt lat="43.53091" lon="5.57999">
        <ele>943.5</ele>
        <time>2023-05-28T09:47:55Z</time>
      </trkpt>
      <trkpt lat="43.53091" lon="5.57999">
        <ele>943.5</ele>
        <time>2023-05-28T09:47:56Z</time>
      </trkpt>
      <trkpt lat="43.53091" lon="5.57998">
        <ele>943.4</ele>
        <time>2023-05-28T09:47:57Z</time>
      </trkpt>
      <trkpt lat="43.53091" lon="5.57998">
        <ele>943.4</ele>
        <time>2023-05-28T09:47:58Z</time>
      </trkpt>
      <trkpt lat="43.53091" lon="5.57998">
        <ele>943.3</ele>
        <time>2023-05-28T09:47:59Z</time>
      </trkpt>
      <trkpt lat="43.53091" lon="5.57998">
        <ele>943.3</ele>
        <time>2023-05-28T09:48:00Z</time>
      </trkpt>
      <trkpt lat="43.53091" lon="5.57998">
        <ele>943.3</ele>
        <time>2023-05-28T09:48:01Z</time>
      </trkpt>
      <trkpt lat="43.53091" lon="5.57998">
        <ele>943.4</ele>
        <time>2023-05-28T09:48:02Z</time>
      </trkpt>
      <trkpt lat="43.53091" lon="5.57998">
        <ele>943.4</ele>
        <time>2023-05-28T09:48:03Z</time>
      </trkpt>
      <trkpt lat="43.53091" lon="5.57998">
        <ele>943.4</ele>
        <time>2023-05-28T09:48:04Z</time>
      </trkpt>
      <trkpt lat="43.53091" lon="5.57998">
        <ele>943.3</ele>
        <time>2023-05-28T09:48:05Z</time>
      </trkpt>
      <trkpt lat="43.53091" lon="5.57998">
        <ele>943.3</ele>
        <time>2023-05-28T09:48:06Z</time>
      </trkpt>
      <trkpt lat="43.53091" lon="5.57998">
        <ele>943.3</ele>
        <time>2023-05-28T09:48:07Z</time>
      </trkpt>
      <trkpt lat="43.53091" lon="5.57998">
        <ele>943.4</ele>
        <time>2023-05-28T09:48:08Z</time>
      </trkpt>
      <trkpt lat="43.53091" lon="5.57998">
        <ele>943.5</ele>
        <time>2023-05-28T09:48:09Z</time>
      </trkpt>
      <trkpt lat="43.53091" lon="5.57998">
        <ele>943.5</ele>
        <time>2023-05-28T09:48:10Z</time>
      </trkpt>
      <trkpt lat="43.53091" lon="5.57998">
        <ele>943.6</ele>
        <time>2023-05-28T09:48:11Z</time>
      </trkpt>
      <trkpt lat="43.53091" lon="5.57998">
        <ele>943.6</ele>
        <time>2023-05-28T09:48:12Z</time>
      </trkpt>
      <trkpt lat="43.53091" lon="5.57998">
        <ele>943.6</ele>
        <time>2023-05-28T09:48:13Z</time>
      </trkpt>
      <trkpt lat="43.53091" lon="5.57998">
        <ele>943.6</ele>
        <time>2023-05-28T09:48:14Z</time>
      </trkpt>
      <trkpt lat="43.53091" lon="5.57998">
        <ele>943.7</ele>
        <time>2023-05-28T09:48:15Z</time>
      </trkpt>
      <trkpt lat="43.53091" lon="5.57998">
        <ele>943.6</ele>
        <time>2023-05-28T09:48:16Z</time>
      </trkpt>
      <trkpt lat="43.53091" lon="5.57998">
        <ele>943.5</ele>
        <time>2023-05-28T09:48:17Z</time>
      </trkpt>
      <trkpt lat="43.53091" lon="5.57998">
        <ele>943.4</ele>
        <time>2023-05-28T09:48:18Z</time>
      </trkpt>
      <trkpt lat="43.53092" lon="5.57998">
        <ele>943.4</ele>
        <time>2023-05-28T09:48:19Z</time>
      </trkpt>
      <trkpt lat="43.53092" lon="5.57998">
        <ele>943.4</ele>
        <time>2023-05-28T09:48:20Z</time>
      </trkpt>
      <trkpt lat="43.53092" lon="5.57998">
        <ele>943.4</ele>
        <time>2023-05-28T09:48:21Z</time>
      </trkpt>
      <trkpt lat="43.53091" lon="5.57998">
        <ele>943.3</ele>
        <time>2023-05-28T09:48:22Z</time>
      </trkpt>
      <trkpt lat="43.53091" lon="5.57998">
        <ele>943.4</ele>
        <time>2023-05-28T09:48:23Z</time>
      </trkpt>
      <trkpt lat="43.53091" lon="5.57998">
        <ele>943.5</ele>
        <time>2023-05-28T09:48:24Z</time>
      </trkpt>
      <trkpt lat="43.53091" lon="5.57998">
        <ele>943.7</ele>
        <time>2023-05-28T09:48:25Z</time>
      </trkpt>
      <trkpt lat="43.53091" lon="5.57998">
        <ele>943.8</ele>
        <time>2023-05-28T09:48:26Z</time>
      </trkpt>
      <trkpt lat="43.53091" lon="5.57998">
        <ele>943.9</ele>
        <time>2023-05-28T09:48:27Z</time>
      </trkpt>
      <trkpt lat="43.53091" lon="5.57998">
        <ele>943.9</ele>
        <time>2023-05-28T09:48:28Z</time>
      </trkpt>
      <trkpt lat="43.53091" lon="5.57998">
        <ele>944</ele>
        <time>2023-05-28T09:48:29Z</time>
      </trkpt>
      <trkpt lat="43.53091" lon="5.57998">
        <ele>944.1</ele>
        <time>2023-05-28T09:48:30Z</time>
      </trkpt>
      <trkpt lat="43.53091" lon="5.57998">
        <ele>944.1</ele>
        <time>2023-05-28T09:48:31Z</time>
      </trkpt>
      <trkpt lat="43.53091" lon="5.57998">
        <ele>944.2</ele>
        <time>2023-05-28T09:48:32Z</time>
      </trkpt>
      <trkpt lat="43.53091" lon="5.57998">
        <ele>944.2</ele>
        <time>2023-05-28T09:48:33Z</time>
      </trkpt>
      <trkpt lat="43.53091" lon="5.57998">
        <ele>944.2</ele>
        <time>2023-05-28T09:48:34Z</time>
      </trkpt>
      <trkpt lat="43.5309" lon="5.57998">
        <ele>944.2</ele>
        <time>2023-05-28T09:48:35Z</time>
      </trkpt>
      <trkpt lat="43.5309" lon="5.57998">
        <ele>944.2</ele>
        <time>2023-05-28T09:48:36Z</time>
      </trkpt>
      <trkpt lat="43.5309" lon="5.57998">
        <ele>944.2</ele>
        <time>2023-05-28T09:48:37Z</time>
      </trkpt>
      <trkpt lat="43.5309" lon="5.57998">
        <ele>944.1</ele>
        <time>2023-05-28T09:48:38Z</time>
      </trkpt>
      <trkpt lat="43.5309" lon="5.57998">
        <ele>944.1</ele>
        <time>2023-05-28T09:48:39Z</time>
      </trkpt>
      <trkpt lat="43.5309" lon="5.57998">
        <ele>944.1</ele>
        <time>2023-05-28T09:48:40Z</time>
      </trkpt>
      <trkpt lat="43.5309" lon="5.57998">
        <ele>944.1</ele>
        <time>2023-05-28T09:48:41Z</time>
      </trkpt>
      <trkpt lat="43.5309" lon="5.57998">
        <ele>944.2</ele>
        <time>2023-05-28T09:48:42Z</time>
      </trkpt>
      <trkpt lat="43.53089" lon="5.57998">
        <ele>944.2</ele>
        <time>2023-05-28T09:48:43Z</time>
      </trkpt>
      <trkpt lat="43.53089" lon="5.57998">
        <ele>944.2</ele>
        <time>2023-05-28T09:48:44Z</time>
      </trkpt>
      <trkpt lat="43.53089" lon="5.57998">
        <ele>944.2</ele>
        <time>2023-05-28T09:48:45Z</time>
      </trkpt>
      <trkpt lat="43.53089" lon="5.57998">
        <ele>944.1</ele>
        <time>2023-05-28T09:48:46Z</time>
      </trkpt>
      <trkpt lat="43.53089" lon="5.57998">
        <ele>944.1</ele>
        <time>2023-05-28T09:48:47Z</time>
      </trkpt>
      <trkpt lat="43.53089" lon="5.57998">
        <ele>944.1</ele>
        <time>2023-05-28T09:48:48Z</time>
      </trkpt>
      <trkpt lat="43.53089" lon="5.57997">
        <ele>944.1</ele>
        <time>2023-05-28T09:48:49Z</time>
      </trkpt>
      <trkpt lat="43.53089" lon="5.57997">
        <ele>944</ele>
        <time>2023-05-28T09:48:50Z</time>
      </trkpt>
      <trkpt lat="43.53089" lon="5.57997">
        <ele>944</ele>
        <time>2023-05-28T09:48:51Z</time>
      </trkpt>
      <trkpt lat="43.53089" lon="5.57997">
        <ele>944</ele>
        <time>2023-05-28T09:48:52Z</time>
      </trkpt>
      <trkpt lat="43.53089" lon="5.57997">
        <ele>943.9</ele>
        <time>2023-05-28T09:48:53Z</time>
      </trkpt>
      <trkpt lat="43.53088" lon="5.57997">
        <ele>943.9</ele>
        <time>2023-05-28T09:48:54Z</time>
      </trkpt>
      <trkpt lat="43.53088" lon="5.57997">
        <ele>944</ele>
        <time>2023-05-28T09:48:55Z</time>
      </trkpt>
      <trkpt lat="43.53088" lon="5.57997">
        <ele>944</ele>
        <time>2023-05-28T09:48:56Z</time>
      </trkpt>
      <trkpt lat="43.53088" lon="5.57997">
        <ele>943.9</ele>
        <time>2023-05-28T09:48:57Z</time>
      </trkpt>
      <trkpt lat="43.53088" lon="5.57996">
        <ele>943.9</ele>
        <time>2023-05-28T09:48:58Z</time>
      </trkpt>
      <trkpt lat="43.53088" lon="5.57996">
        <ele>943.8</ele>
        <time>2023-05-28T09:48:59Z</time>
      </trkpt>
      <trkpt lat="43.53088" lon="5.57996">
        <ele>943.8</ele>
        <time>2023-05-28T09:49:00Z</time>
      </trkpt>
      <trkpt lat="43.53088" lon="5.57996">
        <ele>943.8</ele>
        <time>2023-05-28T09:49:01Z</time>
      </trkpt>
      <trkpt lat="43.53088" lon="5.57996">
        <ele>943.7</ele>
        <time>2023-05-28T09:49:02Z</time>
      </trkpt>
      <trkpt lat="43.53088" lon="5.57996">
        <ele>943.8</ele>
        <time>2023-05-28T09:49:03Z</time>
      </trkpt>
      <trkpt lat="43.53088" lon="5.57996">
        <ele>943.8</ele>
        <time>2023-05-28T09:49:04Z</time>
      </trkpt>
      <trkpt lat="43.53088" lon="5.57996">
        <ele>943.8</ele>
        <time>2023-05-28T09:49:05Z</time>
      </trkpt>
      <trkpt lat="43.53088" lon="5.57996">
        <ele>943.8</ele>
        <time>2023-05-28T09:49:06Z</time>
      </trkpt>
      <trkpt lat="43.53088" lon="5.57996">
        <ele>943.8</ele>
        <time>2023-05-28T09:49:07Z</time>
      </trkpt>
      <trkpt lat="43.53089" lon="5.57997">
        <ele>943.7</ele>
        <time>2023-05-28T09:49:08Z</time>
      </trkpt>
      <trkpt lat="43.53089" lon="5.57997">
        <ele>943.8</ele>
        <time>2023-05-28T09:49:09Z</time>
      </trkpt>
      <trkpt lat="43.5309" lon="5.57997">
        <ele>943.9</ele>
        <time>2023-05-28T09:49:10Z</time>
      </trkpt>
      <trkpt lat="43.5309" lon="5.57998">
        <ele>943.9</ele>
        <time>2023-05-28T09:49:11Z</time>
      </trkpt>
      <trkpt lat="43.5309" lon="5.57998">
        <ele>944</ele>
        <time>2023-05-28T09:49:12Z</time>
      </trkpt>
      <trkpt lat="43.5309" lon="5.57998">
        <ele>944.1</ele>
        <time>2023-05-28T09:49:13Z</time>
      </trkpt>
      <trkpt lat="43.5309" lon="5.57998">
        <ele>944.1</ele>
        <time>2023-05-28T09:49:14Z</time>
      </trkpt>
      <trkpt lat="43.5309" lon="5.57998">
        <ele>944.1</ele>
        <time>2023-05-28T09:49:15Z</time>
      </trkpt>
      <trkpt lat="43.5309" lon="5.57998">
        <ele>944.1</ele>
        <time>2023-05-28T09:49:16Z</time>
      </trkpt>
      <trkpt lat="43.5309" lon="5.57998">
        <ele>944.2</ele>
        <time>2023-05-28T09:49:17Z</time>
      </trkpt>
      <trkpt lat="43.5309" lon="5.57998">
        <ele>944.3</ele>
        <time>2023-05-28T09:49:18Z</time>
      </trkpt>
      <trkpt lat="43.53089" lon="5.57998">
        <ele>944.3</ele>
        <time>2023-05-28T09:49:19Z</time>
      </trkpt>
      <trkpt lat="43.53089" lon="5.57998">
        <ele>944.3</ele>
        <time>2023-05-28T09:49:20Z</time>
      </trkpt>
      <trkpt lat="43.53089" lon="5.57998">
        <ele>944.3</ele>
        <time>2023-05-28T09:49:21Z</time>
      </trkpt>
      <trkpt lat="43.53089" lon="5.57998">
        <ele>944.4</ele>
        <time>2023-05-28T09:49:22Z</time>
      </trkpt>
      <trkpt lat="43.53089" lon="5.57998">
        <ele>944.4</ele>
        <time>2023-05-28T09:49:23Z</time>
      </trkpt>
      <trkpt lat="43.53089" lon="5.57998">
        <ele>944.4</ele>
        <time>2023-05-28T09:49:24Z</time>
      </trkpt>
      <trkpt lat="43.53089" lon="5.57998">
        <ele>944.5</ele>
        <time>2023-05-28T09:49:25Z</time>
      </trkpt>
      <trkpt lat="43.53089" lon="5.57998">
        <ele>944.5</ele>
        <time>2023-05-28T09:49:26Z</time>
      </trkpt>
      <trkpt lat="43.53089" lon="5.57997">
        <ele>944.5</ele>
        <time>2023-05-28T09:49:27Z</time>
      </trkpt>
      <trkpt lat="43.53089" lon="5.57997">
        <ele>944.5</ele>
        <time>2023-05-28T09:49:28Z</time>
      </trkpt>
      <trkpt lat="43.53089" lon="5.57997">
        <ele>944.5</ele>
        <time>2023-05-28T09:49:29Z</time>
      </trkpt>
      <trkpt lat="43.53089" lon="5.57997">
        <ele>944.4</ele>
        <time>2023-05-28T09:49:30Z</time>
      </trkpt>
      <trkpt lat="43.53089" lon="5.57997">
        <ele>944.3</ele>
        <time>2023-05-28T09:49:31Z</time>
      </trkpt>
      <trkpt lat="43.53089" lon="5.57997">
        <ele>944.3</ele>
        <time>2023-05-28T09:49:32Z</time>
      </trkpt>
      <trkpt lat="43.53089" lon="5.57997">
        <ele>944.5</ele>
        <time>2023-05-28T09:49:33Z</time>
      </trkpt>
      <trkpt lat="43.53089" lon="5.57997">
        <ele>944.5</ele>
        <time>2023-05-28T09:49:34Z</time>
      </trkpt>
      <trkpt lat="43.53089" lon="5.57997">
        <ele>944.6</ele>
        <time>2023-05-28T09:49:35Z</time>
      </trkpt>
      <trkpt lat="43.5309" lon="5.57997">
        <ele>944.6</ele>
        <time>2023-05-28T09:49:36Z</time>
      </trkpt>
      <trkpt lat="43.5309" lon="5.57997">
        <ele>944.7</ele>
        <time>2023-05-28T09:49:37Z</time>
      </trkpt>
      <trkpt lat="43.5309" lon="5.57996">
        <ele>944.8</ele>
        <time>2023-05-28T09:49:38Z</time>
      </trkpt>
      <trkpt lat="43.53091" lon="5.57996">
        <ele>944.8</ele>
        <time>2023-05-28T09:49:39Z</time>
      </trkpt>
      <trkpt lat="43.53091" lon="5.57996">
        <ele>944.9</ele>
        <time>2023-05-28T09:49:40Z</time>
      </trkpt>
      <trkpt lat="43.53091" lon="5.57996">
        <ele>944.9</ele>
        <time>2023-05-28T09:49:41Z</time>
      </trkpt>
      <trkpt lat="43.53091" lon="5.57996">
        <ele>945</ele>
        <time>2023-05-28T09:49:42Z</time>
      </trkpt>
      <trkpt lat="43.53091" lon="5.57996">
        <ele>944.9</ele>
        <time>2023-05-28T09:49:43Z</time>
      </trkpt>
      <trkpt lat="43.53091" lon="5.57996">
        <ele>945</ele>
        <time>2023-05-28T09:49:44Z</time>
      </trkpt>
      <trkpt lat="43.53091" lon="5.57996">
        <ele>945</ele>
        <time>2023-05-28T09:49:45Z</time>
      </trkpt>
      <trkpt lat="43.53091" lon="5.57996">
        <ele>945</ele>
        <time>2023-05-28T09:49:46Z</time>
      </trkpt>
      <trkpt lat="43.53091" lon="5.57996">
        <ele>945</ele>
        <time>2023-05-28T09:49:47Z</time>
      </trkpt>
      <trkpt lat="43.53091" lon="5.57996">
        <ele>945</ele>
        <time>2023-05-28T09:49:48Z</time>
      </trkpt>
      <trkpt lat="43.53091" lon="5.57996">
        <ele>945</ele>
        <time>2023-05-28T09:49:49Z</time>
      </trkpt>
      <trkpt lat="43.53091" lon="5.57996">
        <ele>945</ele>
        <time>2023-05-28T09:49:50Z</time>
      </trkpt>
      <trkpt lat="43.53091" lon="5.57996">
        <ele>944.9</ele>
        <time>2023-05-28T09:49:51Z</time>
      </trkpt>
      <trkpt lat="43.53091" lon="5.57996">
        <ele>945</ele>
        <time>2023-05-28T09:49:52Z</time>
      </trkpt>
      <trkpt lat="43.53091" lon="5.57996">
        <ele>944.9</ele>
        <time>2023-05-28T09:49:53Z</time>
      </trkpt>
      <trkpt lat="43.53091" lon="5.57996">
        <ele>945.1</ele>
        <time>2023-05-28T09:49:54Z</time>
      </trkpt>
      <trkpt lat="43.53091" lon="5.57996">
        <ele>945.1</ele>
        <time>2023-05-28T09:49:55Z</time>
      </trkpt>
      <trkpt lat="43.53091" lon="5.57996">
        <ele>945.1</ele>
        <time>2023-05-28T09:49:56Z</time>
      </trkpt>
      <trkpt lat="43.53091" lon="5.57996">
        <ele>945.1</ele>
        <time>2023-05-28T09:49:57Z</time>
      </trkpt>
      <trkpt lat="43.53091" lon="5.57996">
        <ele>945.2</ele>
        <time>2023-05-28T09:49:58Z</time>
      </trkpt>
      <trkpt lat="43.53091" lon="5.57996">
        <ele>945.1</ele>
        <time>2023-05-28T09:49:59Z</time>
      </trkpt>
      <trkpt lat="43.53091" lon="5.57996">
        <ele>945.1</ele>
        <time>2023-05-28T09:50:00Z</time>
      </trkpt>
      <trkpt lat="43.53091" lon="5.57996">
        <ele>945.1</ele>
        <time>2023-05-28T09:50:01Z</time>
      </trkpt>
      <trkpt lat="43.53091" lon="5.57996">
        <ele>945.1</ele>
        <time>2023-05-28T09:50:02Z</time>
      </trkpt>
      <trkpt lat="43.53092" lon="5.57995">
        <ele>945.1</ele>
        <time>2023-05-28T09:50:03Z</time>
      </trkpt>
      <trkpt lat="43.53092" lon="5.57995">
        <ele>944.9</ele>
        <time>2023-05-28T09:50:04Z</time>
      </trkpt>
      <trkpt lat="43.53092" lon="5.57995">
        <ele>944.9</ele>
        <time>2023-05-28T09:50:05Z</time>
      </trkpt>
      <trkpt lat="43.53093" lon="5.57995">
        <ele>944.8</ele>
        <time>2023-05-28T09:50:06Z</time>
      </trkpt>
      <trkpt lat="43.53093" lon="5.57995">
        <ele>944.7</ele>
        <time>2023-05-28T09:50:07Z</time>
      </trkpt>
      <trkpt lat="43.53093" lon="5.57995">
        <ele>944.5</ele>
        <time>2023-05-28T09:50:08Z</time>
      </trkpt>
      <trkpt lat="43.53093" lon="5.57995">
        <ele>944.5</ele>
        <time>2023-05-28T09:50:09Z</time>
      </trkpt>
      <trkpt lat="43.53093" lon="5.57995">
        <ele>944.4</ele>
        <time>2023-05-28T09:50:10Z</time>
      </trkpt>
      <trkpt lat="43.53093" lon="5.57995">
        <ele>944.3</ele>
        <time>2023-05-28T09:50:11Z</time>
      </trkpt>
      <trkpt lat="43.53093" lon="5.57995">
        <ele>944.2</ele>
        <time>2023-05-28T09:50:12Z</time>
      </trkpt>
      <trkpt lat="43.53093" lon="5.57995">
        <ele>944.2</ele>
        <time>2023-05-28T09:50:13Z</time>
      </trkpt>
      <trkpt lat="43.53093" lon="5.57995">
        <ele>944.2</ele>
        <time>2023-05-28T09:50:14Z</time>
      </trkpt>
      <trkpt lat="43.53093" lon="5.57995">
        <ele>944.2</ele>
        <time>2023-05-28T09:50:15Z</time>
      </trkpt>
      <trkpt lat="43.53093" lon="5.57995">
        <ele>944.2</ele>
        <time>2023-05-28T09:50:16Z</time>
      </trkpt>
      <trkpt lat="43.53093" lon="5.57995">
        <ele>944.2</ele>
        <time>2023-05-28T09:50:17Z</time>
      </trkpt>
      <trkpt lat="43.53093" lon="5.57995">
        <ele>944.2</ele>
        <time>2023-05-28T09:50:18Z</time>
      </trkpt>
      <trkpt lat="43.53093" lon="5.57995">
        <ele>944.2</ele>
        <time>2023-05-28T09:50:19Z</time>
      </trkpt>
      <trkpt lat="43.53093" lon="5.57995">
        <ele>944.1</ele>
        <time>2023-05-28T09:50:20Z</time>
      </trkpt>
      <trkpt lat="43.53093" lon="5.57995">
        <ele>944.1</ele>
        <time>2023-05-28T09:50:21Z</time>
      </trkpt>
      <trkpt lat="43.53093" lon="5.57995">
        <ele>944</ele>
        <time>2023-05-28T09:50:22Z</time>
      </trkpt>
      <trkpt lat="43.53093" lon="5.57995">
        <ele>944</ele>
        <time>2023-05-28T09:50:23Z</time>
      </trkpt>
      <trkpt lat="43.53093" lon="5.57995">
        <ele>943.9</ele>
        <time>2023-05-28T09:50:24Z</time>
      </trkpt>
      <trkpt lat="43.53093" lon="5.57996">
        <ele>943.8</ele>
        <time>2023-05-28T09:50:25Z</time>
      </trkpt>
      <trkpt lat="43.53093" lon="5.57996">
        <ele>943.8</ele>
        <time>2023-05-28T09:50:26Z</time>
      </trkpt>
      <trkpt lat="43.53093" lon="5.57996">
        <ele>943.7</ele>
        <time>2023-05-28T09:50:27Z</time>
      </trkpt>
      <trkpt lat="43.53093" lon="5.57996">
        <ele>943.7</ele>
        <time>2023-05-28T09:50:28Z</time>
      </trkpt>
      <trkpt lat="43.53093" lon="5.57996">
        <ele>943.7</ele>
        <time>2023-05-28T09:50:29Z</time>
      </trkpt>
      <trkpt lat="43.53093" lon="5.57997">
        <ele>943.7</ele>
        <time>2023-05-28T09:50:30Z</time>
      </trkpt>
      <trkpt lat="43.53093" lon="5.57997">
        <ele>943.7</ele>
        <time>2023-05-28T09:50:31Z</time>
      </trkpt>
      <trkpt lat="43.53093" lon="5.57997">
        <ele>943.6</ele>
        <time>2023-05-28T09:50:32Z</time>
      </trkpt>
      <trkpt lat="43.53093" lon="5.57997">
        <ele>943.6</ele>
        <time>2023-05-28T09:50:33Z</time>
      </trkpt>
      <trkpt lat="43.53093" lon="5.57997">
        <ele>943.6</ele>
        <time>2023-05-28T09:50:34Z</time>
      </trkpt>
      <trkpt lat="43.53093" lon="5.57997">
        <ele>943.6</ele>
        <time>2023-05-28T09:50:35Z</time>
      </trkpt>
      <trkpt lat="43.53093" lon="5.57997">
        <ele>943.6</ele>
        <time>2023-05-28T09:50:36Z</time>
      </trkpt>
      <trkpt lat="43.53093" lon="5.57997">
        <ele>943.6</ele>
        <time>2023-05-28T09:50:37Z</time>
      </trkpt>
      <trkpt lat="43.53093" lon="5.57997">
        <ele>943.7</ele>
        <time>2023-05-28T09:50:38Z</time>
      </trkpt>
      <trkpt lat="43.53093" lon="5.57998">
        <ele>943.7</ele>
        <time>2023-05-28T09:50:39Z</time>
      </trkpt>
      <trkpt lat="43.53093" lon="5.57998">
        <ele>943.7</ele>
        <time>2023-05-28T09:50:40Z</time>
      </trkpt>
      <trkpt lat="43.53093" lon="5.57998">
        <ele>943.8</ele>
        <time>2023-05-28T09:50:41Z</time>
      </trkpt>
      <trkpt lat="43.53093" lon="5.57998">
        <ele>943.8</ele>
        <time>2023-05-28T09:50:42Z</time>
      </trkpt>
      <trkpt lat="43.53093" lon="5.57998">
        <ele>943.8</ele>
        <time>2023-05-28T09:50:43Z</time>
      </trkpt>
      <trkpt lat="43.53093" lon="5.57998">
        <ele>943.8</ele>
        <time>2023-05-28T09:50:44Z</time>
      </trkpt>
      <trkpt lat="43.53093" lon="5.57998">
        <ele>943.8</ele>
        <time>2023-05-28T09:50:45Z</time>
      </trkpt>
      <trkpt lat="43.53093" lon="5.57998">
        <ele>943.8</ele>
        <time>2023-05-28T09:50:46Z</time>
      </trkpt>
      <trkpt lat="43.53093" lon="5.57998">
        <ele>943.8</ele>
        <time>2023-05-28T09:50:47Z</time>
      </trkpt>
      <trkpt lat="43.53093" lon="5.57998">
        <ele>943.9</ele>
        <time>2023-05-28T09:50:48Z</time>
      </trkpt>
      <trkpt lat="43.53093" lon="5.57998">
        <ele>943.9</ele>
        <time>2023-05-28T09:50:49Z</time>
      </trkpt>
      <trkpt lat="43.53093" lon="5.57998">
        <ele>943.8</ele>
        <time>2023-05-28T09:50:50Z</time>
      </trkpt>
      <trkpt lat="43.53093" lon="5.57998">
        <ele>943.9</ele>
        <time>2023-05-28T09:50:51Z</time>
      </trkpt>
      <trkpt lat="43.53093" lon="5.57998">
        <ele>943.8</ele>
        <time>2023-05-28T09:50:52Z</time>
      </trkpt>
      <trkpt lat="43.53093" lon="5.57998">
        <ele>943.8</ele>
        <time>2023-05-28T09:50:53Z</time>
      </trkpt>
      <trkpt lat="43.53093" lon="5.57998">
        <ele>943.8</ele>
        <time>2023-05-28T09:50:54Z</time>
      </trkpt>
      <trkpt lat="43.53093" lon="5.57998">
        <ele>943.7</ele>
        <time>2023-05-28T09:50:55Z</time>
      </trkpt>
      <trkpt lat="43.53093" lon="5.57998">
        <ele>943.7</ele>
        <time>2023-05-28T09:50:56Z</time>
      </trkpt>
      <trkpt lat="43.53093" lon="5.57998">
        <ele>943.6</ele>
        <time>2023-05-28T09:50:57Z</time>
      </trkpt>
      <trkpt lat="43.53093" lon="5.57998">
        <ele>943.6</ele>
        <time>2023-05-28T09:50:58Z</time>
      </trkpt>
      <trkpt lat="43.53093" lon="5.57998">
        <ele>943.5</ele>
        <time>2023-05-28T09:50:59Z</time>
      </trkpt>
      <trkpt lat="43.53093" lon="5.57998">
        <ele>943.4</ele>
        <time>2023-05-28T09:51:00Z</time>
      </trkpt>
      <trkpt lat="43.53093" lon="5.57998">
        <ele>943.4</ele>
        <time>2023-05-28T09:51:01Z</time>
      </trkpt>
      <trkpt lat="43.53092" lon="5.57998">
        <ele>943.5</ele>
        <time>2023-05-28T09:51:02Z</time>
      </trkpt>
      <trkpt lat="43.53092" lon="5.57997">
        <ele>943.5</ele>
        <time>2023-05-28T09:51:03Z</time>
      </trkpt>
      <trkpt lat="43.53093" lon="5.57997">
        <ele>943.5</ele>
        <time>2023-05-28T09:51:04Z</time>
      </trkpt>
      <trkpt lat="43.53093" lon="5.57997">
        <ele>943.5</ele>
        <time>2023-05-28T09:51:05Z</time>
      </trkpt>
      <trkpt lat="43.53093" lon="5.57997">
        <ele>943.5</ele>
        <time>2023-05-28T09:51:06Z</time>
      </trkpt>
      <trkpt lat="43.53093" lon="5.57997">
        <ele>943.4</ele>
        <time>2023-05-28T09:51:07Z</time>
      </trkpt>
      <trkpt lat="43.53093" lon="5.57997">
        <ele>943.4</ele>
        <time>2023-05-28T09:51:08Z</time>
      </trkpt>
      <trkpt lat="43.53093" lon="5.57997">
        <ele>943.5</ele>
        <time>2023-05-28T09:51:09Z</time>
      </trkpt>
      <trkpt lat="43.53093" lon="5.57997">
        <ele>943.5</ele>
        <time>2023-05-28T09:51:10Z</time>
      </trkpt>
      <trkpt lat="43.53093" lon="5.57996">
        <ele>943.5</ele>
        <time>2023-05-28T09:51:11Z</time>
      </trkpt>
      <trkpt lat="43.53093" lon="5.57997">
        <ele>943.5</ele>
        <time>2023-05-28T09:51:12Z</time>
      </trkpt>
      <trkpt lat="43.53094" lon="5.57997">
        <ele>943.5</ele>
        <time>2023-05-28T09:51:13Z</time>
      </trkpt>
      <trkpt lat="43.53094" lon="5.57997">
        <ele>943.5</ele>
        <time>2023-05-28T09:51:14Z</time>
      </trkpt>
      <trkpt lat="43.53094" lon="5.57997">
        <ele>943.6</ele>
        <time>2023-05-28T09:51:15Z</time>
      </trkpt>
      <trkpt lat="43.53094" lon="5.57997">
        <ele>943.6</ele>
        <time>2023-05-28T09:51:16Z</time>
      </trkpt>
      <trkpt lat="43.53094" lon="5.57997">
        <ele>943.6</ele>
        <time>2023-05-28T09:51:17Z</time>
      </trkpt>
      <trkpt lat="43.53094" lon="5.57997">
        <ele>943.5</ele>
        <time>2023-05-28T09:51:18Z</time>
      </trkpt>
      <trkpt lat="43.53094" lon="5.57996">
        <ele>943.6</ele>
        <time>2023-05-28T09:51:19Z</time>
      </trkpt>
      <trkpt lat="43.53094" lon="5.57996">
        <ele>943.6</ele>
        <time>2023-05-28T09:51:20Z</time>
      </trkpt>
      <trkpt lat="43.53094" lon="5.57996">
        <ele>943.7</ele>
        <time>2023-05-28T09:51:21Z</time>
      </trkpt>
      <trkpt lat="43.53094" lon="5.57996">
        <ele>943.7</ele>
        <time>2023-05-28T09:51:22Z</time>
      </trkpt>
      <trkpt lat="43.53094" lon="5.57996">
        <ele>943.7</ele>
        <time>2023-05-28T09:51:23Z</time>
      </trkpt>
      <trkpt lat="43.53094" lon="5.57997">
        <ele>943.7</ele>
        <time>2023-05-28T09:51:24Z</time>
      </trkpt>
      <trkpt lat="43.53094" lon="5.57997">
        <ele>943.7</ele>
        <time>2023-05-28T09:51:25Z</time>
      </trkpt>
      <trkpt lat="43.53094" lon="5.57997">
        <ele>943.7</ele>
        <time>2023-05-28T09:51:26Z</time>
      </trkpt>
      <trkpt lat="43.53094" lon="5.57997">
        <ele>943.8</ele>
        <time>2023-05-28T09:51:27Z</time>
      </trkpt>
      <trkpt lat="43.53094" lon="5.57997">
        <ele>943.8</ele>
        <time>2023-05-28T09:51:28Z</time>
      </trkpt>
      <trkpt lat="43.53094" lon="5.57997">
        <ele>943.9</ele>
        <time>2023-05-28T09:51:29Z</time>
      </trkpt>
      <trkpt lat="43.53094" lon="5.57997">
        <ele>943.9</ele>
        <time>2023-05-28T09:51:30Z</time>
      </trkpt>
      <trkpt lat="43.53094" lon="5.57997">
        <ele>943.9</ele>
        <time>2023-05-28T09:51:31Z</time>
      </trkpt>
      <trkpt lat="43.53094" lon="5.57997">
        <ele>943.8</ele>
        <time>2023-05-28T09:51:32Z</time>
      </trkpt>
      <trkpt lat="43.53094" lon="5.57997">
        <ele>943.7</ele>
        <time>2023-05-28T09:51:33Z</time>
      </trkpt>
      <trkpt lat="43.53094" lon="5.57997">
        <ele>943.8</ele>
        <time>2023-05-28T09:51:34Z</time>
      </trkpt>
      <trkpt lat="43.53094" lon="5.57998">
        <ele>943.8</ele>
        <time>2023-05-28T09:51:35Z</time>
      </trkpt>
      <trkpt lat="43.53095" lon="5.57997">
        <ele>943.7</ele>
        <time>2023-05-28T09:51:36Z</time>
      </trkpt>
      <trkpt lat="43.53095" lon="5.57997">
        <ele>943.8</ele>
        <time>2023-05-28T09:51:37Z</time>
      </trkpt>
      <trkpt lat="43.53095" lon="5.57997">
        <ele>943.8</ele>
        <time>2023-05-28T09:51:38Z</time>
      </trkpt>
      <trkpt lat="43.53095" lon="5.57997">
        <ele>943.8</ele>
        <time>2023-05-28T09:51:39Z</time>
      </trkpt>
      <trkpt lat="43.53095" lon="5.57996">
        <ele>943.8</ele>
        <time>2023-05-28T09:51:40Z</time>
      </trkpt>
      <trkpt lat="43.53096" lon="5.57996">
        <ele>943.8</ele>
        <time>2023-05-28T09:51:41Z</time>
      </trkpt>
      <trkpt lat="43.53096" lon="5.57996">
        <ele>943.8</ele>
        <time>2023-05-28T09:51:42Z</time>
      </trkpt>
      <trkpt lat="43.53096" lon="5.57996">
        <ele>943.8</ele>
        <time>2023-05-28T09:51:43Z</time>
      </trkpt>
      <trkpt lat="43.53096" lon="5.57996">
        <ele>943.8</ele>
        <time>2023-05-28T09:51:44Z</time>
      </trkpt>
      <trkpt lat="43.53096" lon="5.57996">
        <ele>943.7</ele>
        <time>2023-05-28T09:51:45Z</time>
      </trkpt>
      <trkpt lat="43.53096" lon="5.57995">
        <ele>943.9</ele>
        <time>2023-05-28T09:51:46Z</time>
      </trkpt>
      <trkpt lat="43.53096" lon="5.57995">
        <ele>943.9</ele>
        <time>2023-05-28T09:51:47Z</time>
      </trkpt>
      <trkpt lat="43.53096" lon="5.57995">
        <ele>943.9</ele>
        <time>2023-05-28T09:51:48Z</time>
      </trkpt>
      <trkpt lat="43.53096" lon="5.57995">
        <ele>944</ele>
        <time>2023-05-28T09:51:49Z</time>
      </trkpt>
      <trkpt lat="43.53096" lon="5.57995">
        <ele>944</ele>
        <time>2023-05-28T09:51:50Z</time>
      </trkpt>
      <trkpt lat="43.53096" lon="5.57995">
        <ele>944</ele>
        <time>2023-05-28T09:51:51Z</time>
      </trkpt>
      <trkpt lat="43.53096" lon="5.57995">
        <ele>944</ele>
        <time>2023-05-28T09:51:52Z</time>
      </trkpt>
      <trkpt lat="43.53096" lon="5.57995">
        <ele>943.9</ele>
        <time>2023-05-28T09:51:53Z</time>
      </trkpt>
      <trkpt lat="43.53096" lon="5.57995">
        <ele>943.9</ele>
        <time>2023-05-28T09:51:54Z</time>
      </trkpt>
      <trkpt lat="43.53096" lon="5.57996">
        <ele>943.9</ele>
        <time>2023-05-28T09:51:55Z</time>
      </trkpt>
      <trkpt lat="43.53096" lon="5.57996">
        <ele>943.8</ele>
        <time>2023-05-28T09:51:56Z</time>
      </trkpt>
      <trkpt lat="43.53096" lon="5.57995">
        <ele>943.8</ele>
        <time>2023-05-28T09:51:57Z</time>
      </trkpt>
      <trkpt lat="43.53096" lon="5.57995">
        <ele>943.8</ele>
        <time>2023-05-28T09:51:58Z</time>
      </trkpt>
      <trkpt lat="43.53096" lon="5.57995">
        <ele>943.9</ele>
        <time>2023-05-28T09:51:59Z</time>
      </trkpt>
      <trkpt lat="43.53096" lon="5.57995">
        <ele>943.9</ele>
        <time>2023-05-28T09:52:00Z</time>
      </trkpt>
      <trkpt lat="43.53096" lon="5.57995">
        <ele>944</ele>
        <time>2023-05-28T09:52:01Z</time>
      </trkpt>
      <trkpt lat="43.53096" lon="5.57995">
        <ele>943.9</ele>
        <time>2023-05-28T09:52:02Z</time>
      </trkpt>
      <trkpt lat="43.53096" lon="5.57996">
        <ele>943.9</ele>
        <time>2023-05-28T09:52:03Z</time>
      </trkpt>
      <trkpt lat="43.53096" lon="5.57996">
        <ele>943.9</ele>
        <time>2023-05-28T09:52:04Z</time>
      </trkpt>
      <trkpt lat="43.53095" lon="5.57996">
        <ele>943.9</ele>
        <time>2023-05-28T09:52:05Z</time>
      </trkpt>
      <trkpt lat="43.53095" lon="5.57996">
        <ele>943.9</ele>
        <time>2023-05-28T09:52:06Z</time>
      </trkpt>
      <trkpt lat="43.53095" lon="5.57996">
        <ele>943.8</ele>
        <time>2023-05-28T09:52:07Z</time>
      </trkpt>
      <trkpt lat="43.53095" lon="5.57996">
        <ele>943.8</ele>
        <time>2023-05-28T09:52:08Z</time>
      </trkpt>
      <trkpt lat="43.53095" lon="5.57996">
        <ele>943.7</ele>
        <time>2023-05-28T09:52:09Z</time>
      </trkpt>
      <trkpt lat="43.53095" lon="5.57996">
        <ele>943.7</ele>
        <time>2023-05-28T09:52:10Z</time>
      </trkpt>
      <trkpt lat="43.53095" lon="5.57996">
        <ele>943.7</ele>
        <time>2023-05-28T09:52:11Z</time>
      </trkpt>
      <trkpt lat="43.53095" lon="5.57996">
        <ele>943.7</ele>
        <time>2023-05-28T09:52:12Z</time>
      </trkpt>
      <trkpt lat="43.53095" lon="5.57996">
        <ele>943.7</ele>
        <time>2023-05-28T09:52:13Z</time>
      </trkpt>
      <trkpt lat="43.53095" lon="5.57996">
        <ele>943.6</ele>
        <time>2023-05-28T09:52:14Z</time>
      </trkpt>
      <trkpt lat="43.53095" lon="5.57996">
        <ele>943.6</ele>
        <time>2023-05-28T09:52:15Z</time>
      </trkpt>
      <trkpt lat="43.53095" lon="5.57996">
        <ele>943.7</ele>
        <time>2023-05-28T09:52:16Z</time>
      </trkpt>
      <trkpt lat="43.53095" lon="5.57996">
        <ele>943.7</ele>
        <time>2023-05-28T09:52:17Z</time>
      </trkpt>
      <trkpt lat="43.53095" lon="5.57996">
        <ele>943.8</ele>
        <time>2023-05-28T09:52:18Z</time>
      </trkpt>
      <trkpt lat="43.53095" lon="5.57996">
        <ele>943.8</ele>
        <time>2023-05-28T09:52:19Z</time>
      </trkpt>
      <trkpt lat="43.53095" lon="5.57996">
        <ele>943.8</ele>
        <time>2023-05-28T09:52:20Z</time>
      </trkpt>
      <trkpt lat="43.53094" lon="5.57996">
        <ele>943.8</ele>
        <time>2023-05-28T09:52:21Z</time>
      </trkpt>
      <trkpt lat="43.53094" lon="5.57995">
        <ele>943.8</ele>
        <time>2023-05-28T09:52:22Z</time>
      </trkpt>
      <trkpt lat="43.53094" lon="5.57995">
        <ele>943.8</ele>
        <time>2023-05-28T09:52:23Z</time>
      </trkpt>
      <trkpt lat="43.53094" lon="5.57995">
        <ele>943.8</ele>
        <time>2023-05-28T09:52:24Z</time>
      </trkpt>
      <trkpt lat="43.53094" lon="5.57995">
        <ele>943.8</ele>
        <time>2023-05-28T09:52:25Z</time>
      </trkpt>
      <trkpt lat="43.53094" lon="5.57995">
        <ele>943.8</ele>
        <time>2023-05-28T09:52:26Z</time>
      </trkpt>
      <trkpt lat="43.53094" lon="5.57995">
        <ele>943.8</ele>
        <time>2023-05-28T09:52:27Z</time>
      </trkpt>
      <trkpt lat="43.53094" lon="5.57995">
        <ele>943.9</ele>
        <time>2023-05-28T09:52:28Z</time>
      </trkpt>
      <trkpt lat="43.53094" lon="5.57995">
        <ele>943.9</ele>
        <time>2023-05-28T09:52:29Z</time>
      </trkpt>
      <trkpt lat="43.53094" lon="5.57995">
        <ele>943.9</ele>
        <time>2023-05-28T09:52:30Z</time>
      </trkpt>
      <trkpt lat="43.53094" lon="5.57995">
        <ele>944</ele>
        <time>2023-05-28T09:52:31Z</time>
      </trkpt>
      <trkpt lat="43.53094" lon="5.57995">
        <ele>944</ele>
        <time>2023-05-28T09:52:32Z</time>
      </trkpt>
      <trkpt lat="43.53094" lon="5.57995">
        <ele>944</ele>
        <time>2023-05-28T09:52:33Z</time>
      </trkpt>
      <trkpt lat="43.53094" lon="5.57995">
        <ele>944</ele>
        <time>2023-05-28T09:52:34Z</time>
      </trkpt>
      <trkpt lat="43.53094" lon="5.57995">
        <ele>943.9</ele>
        <time>2023-05-28T09:52:35Z</time>
      </trkpt>
      <trkpt lat="43.53094" lon="5.57995">
        <ele>943.8</ele>
        <time>2023-05-28T09:52:36Z</time>
      </trkpt>
      <trkpt lat="43.53094" lon="5.57995">
        <ele>943.8</ele>
        <time>2023-05-28T09:52:37Z</time>
      </trkpt>
      <trkpt lat="43.53094" lon="5.57995">
        <ele>943.8</ele>
        <time>2023-05-28T09:52:38Z</time>
      </trkpt>
      <trkpt lat="43.53094" lon="5.57995">
        <ele>943.8</ele>
        <time>2023-05-28T09:52:39Z</time>
      </trkpt>
      <trkpt lat="43.53094" lon="5.57995">
        <ele>943.8</ele>
        <time>2023-05-28T09:52:40Z</time>
      </trkpt>
      <trkpt lat="43.53094" lon="5.57995">
        <ele>943.7</ele>
        <time>2023-05-28T09:52:41Z</time>
      </trkpt>
      <trkpt lat="43.53094" lon="5.57995">
        <ele>943.8</ele>
        <time>2023-05-28T09:52:42Z</time>
      </trkpt>
      <trkpt lat="43.53094" lon="5.57994">
        <ele>943.9</ele>
        <time>2023-05-28T09:52:43Z</time>
      </trkpt>
      <trkpt lat="43.53094" lon="5.57994">
        <ele>944</ele>
        <time>2023-05-28T09:52:44Z</time>
      </trkpt>
      <trkpt lat="43.53094" lon="5.57994">
        <ele>944</ele>
        <time>2023-05-28T09:52:45Z</time>
      </trkpt>
      <trkpt lat="43.53094" lon="5.57994">
        <ele>944</ele>
        <time>2023-05-28T09:52:46Z</time>
      </trkpt>
      <trkpt lat="43.53094" lon="5.57994">
        <ele>944</ele>
        <time>2023-05-28T09:52:47Z</time>
      </trkpt>
      <trkpt lat="43.53094" lon="5.57994">
        <ele>944</ele>
        <time>2023-05-28T09:52:48Z</time>
      </trkpt>
      <trkpt lat="43.53094" lon="5.57995">
        <ele>943.9</ele>
        <time>2023-05-28T09:52:49Z</time>
      </trkpt>
      <trkpt lat="43.53094" lon="5.57995">
        <ele>943.9</ele>
        <time>2023-05-28T09:52:50Z</time>
      </trkpt>
      <trkpt lat="43.53094" lon="5.57995">
        <ele>943.9</ele>
        <time>2023-05-28T09:52:51Z</time>
      </trkpt>
      <trkpt lat="43.53094" lon="5.57995">
        <ele>943.9</ele>
        <time>2023-05-28T09:52:52Z</time>
      </trkpt>
      <trkpt lat="43.53094" lon="5.57995">
        <ele>943.9</ele>
        <time>2023-05-28T09:52:53Z</time>
      </trkpt>
      <trkpt lat="43.53094" lon="5.57995">
        <ele>943.9</ele>
        <time>2023-05-28T09:52:54Z</time>
      </trkpt>
      <trkpt lat="43.53095" lon="5.57994">
        <ele>943.9</ele>
        <time>2023-05-28T09:52:55Z</time>
      </trkpt>
      <trkpt lat="43.53095" lon="5.57994">
        <ele>943.9</ele>
        <time>2023-05-28T09:52:56Z</time>
      </trkpt>
      <trkpt lat="43.53095" lon="5.57994">
        <ele>943.9</ele>
        <time>2023-05-28T09:52:57Z</time>
      </trkpt>
      <trkpt lat="43.53095" lon="5.57994">
        <ele>944</ele>
        <time>2023-05-28T09:52:58Z</time>
      </trkpt>
      <trkpt lat="43.53095" lon="5.57994">
        <ele>944</ele>
        <time>2023-05-28T09:52:59Z</time>
      </trkpt>
      <trkpt lat="43.53095" lon="5.57994">
        <ele>944</ele>
        <time>2023-05-28T09:53:00Z</time>
      </trkpt>
      <trkpt lat="43.53095" lon="5.57994">
        <ele>944</ele>
        <time>2023-05-28T09:53:01Z</time>
      </trkpt>
      <trkpt lat="43.53095" lon="5.57994">
        <ele>944</ele>
        <time>2023-05-28T09:53:02Z</time>
      </trkpt>
      <trkpt lat="43.53095" lon="5.57994">
        <ele>943.9</ele>
        <time>2023-05-28T09:53:03Z</time>
      </trkpt>
      <trkpt lat="43.53095" lon="5.57994">
        <ele>944</ele>
        <time>2023-05-28T09:53:04Z</time>
      </trkpt>
      <trkpt lat="43.53095" lon="5.57994">
        <ele>944</ele>
        <time>2023-05-28T09:53:05Z</time>
      </trkpt>
      <trkpt lat="43.53095" lon="5.57994">
        <ele>944</ele>
        <time>2023-05-28T09:53:06Z</time>
      </trkpt>
      <trkpt lat="43.53095" lon="5.57994">
        <ele>943.9</ele>
        <time>2023-05-28T09:53:07Z</time>
      </trkpt>
      <trkpt lat="43.53095" lon="5.57994">
        <ele>943.9</ele>
        <time>2023-05-28T09:53:08Z</time>
      </trkpt>
      <trkpt lat="43.53095" lon="5.57994">
        <ele>944</ele>
        <time>2023-05-28T09:53:09Z</time>
      </trkpt>
      <trkpt lat="43.53095" lon="5.57993">
        <ele>944.1</ele>
        <time>2023-05-28T09:53:10Z</time>
      </trkpt>
      <trkpt lat="43.53095" lon="5.57993">
        <ele>944.1</ele>
        <time>2023-05-28T09:53:11Z</time>
      </trkpt>
      <trkpt lat="43.53095" lon="5.57993">
        <ele>944.1</ele>
        <time>2023-05-28T09:53:12Z</time>
      </trkpt>
      <trkpt lat="43.53095" lon="5.57993">
        <ele>944</ele>
        <time>2023-05-28T09:53:13Z</time>
      </trkpt>
      <trkpt lat="43.53095" lon="5.57993">
        <ele>944</ele>
        <time>2023-05-28T09:53:14Z</time>
      </trkpt>
      <trkpt lat="43.53095" lon="5.57993">
        <ele>944</ele>
        <time>2023-05-28T09:53:15Z</time>
      </trkpt>
      <trkpt lat="43.53095" lon="5.57993">
        <ele>944</ele>
        <time>2023-05-28T09:53:16Z</time>
      </trkpt>
      <trkpt lat="43.53095" lon="5.57993">
        <ele>944.1</ele>
        <time>2023-05-28T09:53:17Z</time>
      </trkpt>
      <trkpt lat="43.53095" lon="5.57993">
        <ele>944.1</ele>
        <time>2023-05-28T09:53:18Z</time>
      </trkpt>
      <trkpt lat="43.53095" lon="5.57993">
        <ele>944.1</ele>
        <time>2023-05-28T09:53:19Z</time>
      </trkpt>
      <trkpt lat="43.53095" lon="5.57993">
        <ele>944.2</ele>
        <time>2023-05-28T09:53:20Z</time>
      </trkpt>
      <trkpt lat="43.53095" lon="5.57993">
        <ele>944.2</ele>
        <time>2023-05-28T09:53:21Z</time>
      </trkpt>
      <trkpt lat="43.53095" lon="5.57993">
        <ele>944.3</ele>
        <time>2023-05-28T09:53:22Z</time>
      </trkpt>
      <trkpt lat="43.53095" lon="5.57993">
        <ele>944.3</ele>
        <time>2023-05-28T09:53:23Z</time>
      </trkpt>
      <trkpt lat="43.53095" lon="5.57993">
        <ele>944.3</ele>
        <time>2023-05-28T09:53:24Z</time>
      </trkpt>
      <trkpt lat="43.53095" lon="5.57993">
        <ele>944.3</ele>
        <time>2023-05-28T09:53:25Z</time>
      </trkpt>
      <trkpt lat="43.53095" lon="5.57993">
        <ele>944.3</ele>
        <time>2023-05-28T09:53:26Z</time>
      </trkpt>
      <trkpt lat="43.53095" lon="5.57993">
        <ele>944.3</ele>
        <time>2023-05-28T09:53:27Z</time>
      </trkpt>
      <trkpt lat="43.53095" lon="5.57993">
        <ele>944.2</ele>
        <time>2023-05-28T09:53:28Z</time>
      </trkpt>
      <trkpt lat="43.53095" lon="5.57993">
        <ele>944.2</ele>
        <time>2023-05-28T09:53:29Z</time>
      </trkpt>
      <trkpt lat="43.53095" lon="5.57993">
        <ele>944.2</ele>
        <time>2023-05-28T09:53:30Z</time>
      </trkpt>
      <trkpt lat="43.53095" lon="5.57993">
        <ele>944.1</ele>
        <time>2023-05-28T09:53:31Z</time>
      </trkpt>
      <trkpt lat="43.53095" lon="5.57993">
        <ele>944.1</ele>
        <time>2023-05-28T09:53:32Z</time>
      </trkpt>
      <trkpt lat="43.53095" lon="5.57993">
        <ele>944.1</ele>
        <time>2023-05-28T09:53:33Z</time>
      </trkpt>
      <trkpt lat="43.53095" lon="5.57993">
        <ele>944.1</ele>
        <time>2023-05-28T09:53:34Z</time>
      </trkpt>
      <trkpt lat="43.53095" lon="5.57993">
        <ele>944.1</ele>
        <time>2023-05-28T09:53:35Z</time>
      </trkpt>
      <trkpt lat="43.53095" lon="5.57993">
        <ele>944.2</ele>
        <time>2023-05-28T09:53:36Z</time>
      </trkpt>
      <trkpt lat="43.53095" lon="5.57993">
        <ele>944.2</ele>
        <time>2023-05-28T09:53:37Z</time>
      </trkpt>
      <trkpt lat="43.53095" lon="5.57993">
        <ele>944.3</ele>
        <time>2023-05-28T09:53:38Z</time>
      </trkpt>
      <trkpt lat="43.53095" lon="5.57993">
        <ele>944.3</ele>
        <time>2023-05-28T09:53:39Z</time>
      </trkpt>
      <trkpt lat="43.53095" lon="5.57993">
        <ele>944.4</ele>
        <time>2023-05-28T09:53:40Z</time>
      </trkpt>
      <trkpt lat="43.53095" lon="5.57993">
        <ele>944.3</ele>
        <time>2023-05-28T09:53:41Z</time>
      </trkpt>
      <trkpt lat="43.53095" lon="5.57993">
        <ele>944.2</ele>
        <time>2023-05-28T09:53:42Z</time>
      </trkpt>
      <trkpt lat="43.53095" lon="5.57993">
        <ele>944.2</ele>
        <time>2023-05-28T09:53:43Z</time>
      </trkpt>
      <trkpt lat="43.53095" lon="5.57993">
        <ele>944.1</ele>
        <time>2023-05-28T09:53:44Z</time>
      </trkpt>
      <trkpt lat="43.53095" lon="5.57993">
        <ele>944.2</ele>
        <time>2023-05-28T09:53:45Z</time>
      </trkpt>
      <trkpt lat="43.53095" lon="5.57993">
        <ele>944.3</ele>
        <time>2023-05-28T09:53:46Z</time>
      </trkpt>
      <trkpt lat="43.53095" lon="5.57993">
        <ele>944.4</ele>
        <time>2023-05-28T09:53:47Z</time>
      </trkpt>
      <trkpt lat="43.53095" lon="5.57993">
        <ele>944.3</ele>
        <time>2023-05-28T09:53:48Z</time>
      </trkpt>
      <trkpt lat="43.53095" lon="5.57993">
        <ele>944.2</ele>
        <time>2023-05-28T09:53:49Z</time>
      </trkpt>
      <trkpt lat="43.53095" lon="5.57993">
        <ele>944.3</ele>
        <time>2023-05-28T09:53:50Z</time>
      </trkpt>
      <trkpt lat="43.53095" lon="5.57993">
        <ele>944.3</ele>
        <time>2023-05-28T09:53:51Z</time>
      </trkpt>
      <trkpt lat="43.53095" lon="5.57993">
        <ele>944.3</ele>
        <time>2023-05-28T09:53:52Z</time>
      </trkpt>
      <trkpt lat="43.53095" lon="5.57993">
        <ele>944.3</ele>
        <time>2023-05-28T09:53:53Z</time>
      </trkpt>
      <trkpt lat="43.53095" lon="5.57993">
        <ele>944.3</ele>
        <time>2023-05-28T09:53:54Z</time>
      </trkpt>
      <trkpt lat="43.53095" lon="5.57993">
        <ele>944.3</ele>
        <time>2023-05-28T09:53:55Z</time>
      </trkpt>
      <trkpt lat="43.53095" lon="5.57993">
        <ele>944.2</ele>
        <time>2023-05-28T09:53:56Z</time>
      </trkpt>
      <trkpt lat="43.53095" lon="5.57993">
        <ele>944.2</ele>
        <time>2023-05-28T09:53:57Z</time>
      </trkpt>
      <trkpt lat="43.53095" lon="5.57993">
        <ele>944.2</ele>
        <time>2023-05-28T09:53:58Z</time>
      </trkpt>
      <trkpt lat="43.53095" lon="5.57993">
        <ele>944.3</ele>
        <time>2023-05-28T09:53:59Z</time>
      </trkpt>
      <trkpt lat="43.53095" lon="5.57994">
        <ele>944.3</ele>
        <time>2023-05-28T09:54:00Z</time>
      </trkpt>
      <trkpt lat="43.53095" lon="5.57994">
        <ele>944.3</ele>
        <time>2023-05-28T09:54:01Z</time>
      </trkpt>
      <trkpt lat="43.53095" lon="5.57994">
        <ele>944.3</ele>
        <time>2023-05-28T09:54:02Z</time>
      </trkpt>
      <trkpt lat="43.53095" lon="5.57994">
        <ele>944.4</ele>
        <time>2023-05-28T09:54:03Z</time>
      </trkpt>
      <trkpt lat="43.53095" lon="5.57994">
        <ele>944.3</ele>
        <time>2023-05-28T09:54:04Z</time>
      </trkpt>
      <trkpt lat="43.53095" lon="5.57994">
        <ele>944.2</ele>
        <time>2023-05-28T09:54:05Z</time>
      </trkpt>
      <trkpt lat="43.53095" lon="5.57994">
        <ele>944.2</ele>
        <time>2023-05-28T09:54:06Z</time>
      </trkpt>
      <trkpt lat="43.53095" lon="5.57994">
        <ele>944.2</ele>
        <time>2023-05-28T09:54:07Z</time>
      </trkpt>
      <trkpt lat="43.53095" lon="5.57994">
        <ele>944.2</ele>
        <time>2023-05-28T09:54:08Z</time>
      </trkpt>
      <trkpt lat="43.53095" lon="5.57994">
        <ele>944.2</ele>
        <time>2023-05-28T09:54:09Z</time>
      </trkpt>
      <trkpt lat="43.53095" lon="5.57994">
        <ele>944.2</ele>
        <time>2023-05-28T09:54:10Z</time>
      </trkpt>
      <trkpt lat="43.53095" lon="5.57994">
        <ele>944.2</ele>
        <time>2023-05-28T09:54:11Z</time>
      </trkpt>
      <trkpt lat="43.53095" lon="5.57994">
        <ele>944.2</ele>
        <time>2023-05-28T09:54:12Z</time>
      </trkpt>
      <trkpt lat="43.53095" lon="5.57994">
        <ele>944.3</ele>
        <time>2023-05-28T09:54:13Z</time>
      </trkpt>
      <trkpt lat="43.53095" lon="5.57994">
        <ele>944.2</ele>
        <time>2023-05-28T09:54:14Z</time>
      </trkpt>
      <trkpt lat="43.53095" lon="5.57994">
        <ele>944.1</ele>
        <time>2023-05-28T09:54:15Z</time>
      </trkpt>
      <trkpt lat="43.53095" lon="5.57995">
        <ele>944.1</ele>
        <time>2023-05-28T09:54:16Z</time>
      </trkpt>
      <trkpt lat="43.53095" lon="5.57995">
        <ele>944</ele>
        <time>2023-05-28T09:54:17Z</time>
      </trkpt>
      <trkpt lat="43.53095" lon="5.57995">
        <ele>944.1</ele>
        <time>2023-05-28T09:54:18Z</time>
      </trkpt>
      <trkpt lat="43.53095" lon="5.57995">
        <ele>944.1</ele>
        <time>2023-05-28T09:54:19Z</time>
      </trkpt>
      <trkpt lat="43.53095" lon="5.57995">
        <ele>944</ele>
        <time>2023-05-28T09:54:20Z</time>
      </trkpt>
      <trkpt lat="43.53095" lon="5.57995">
        <ele>944</ele>
        <time>2023-05-28T09:54:21Z</time>
      </trkpt>
      <trkpt lat="43.53095" lon="5.57995">
        <ele>943.9</ele>
        <time>2023-05-28T09:54:22Z</time>
      </trkpt>
      <trkpt lat="43.53095" lon="5.57995">
        <ele>943.9</ele>
        <time>2023-05-28T09:54:23Z</time>
      </trkpt>
      <trkpt lat="43.53095" lon="5.57995">
        <ele>944</ele>
        <time>2023-05-28T09:54:24Z</time>
      </trkpt>
      <trkpt lat="43.53095" lon="5.57995">
        <ele>944</ele>
        <time>2023-05-28T09:54:25Z</time>
      </trkpt>
      <trkpt lat="43.53095" lon="5.57995">
        <ele>944.1</ele>
        <time>2023-05-28T09:54:26Z</time>
      </trkpt>
      <trkpt lat="43.53095" lon="5.57995">
        <ele>944.1</ele>
        <time>2023-05-28T09:54:27Z</time>
      </trkpt>
      <trkpt lat="43.53095" lon="5.57995">
        <ele>944.1</ele>
        <time>2023-05-28T09:54:28Z</time>
      </trkpt>
      <trkpt lat="43.53095" lon="5.57995">
        <ele>944.2</ele>
        <time>2023-05-28T09:54:29Z</time>
      </trkpt>
      <trkpt lat="43.53095" lon="5.57995">
        <ele>944.2</ele>
        <time>2023-05-28T09:54:30Z</time>
      </trkpt>
      <trkpt lat="43.53095" lon="5.57995">
        <ele>944.2</ele>
        <time>2023-05-28T09:54:31Z</time>
      </trkpt>
      <trkpt lat="43.53095" lon="5.57995">
        <ele>944.2</ele>
        <time>2023-05-28T09:54:32Z</time>
      </trkpt>
      <trkpt lat="43.53095" lon="5.57995">
        <ele>944.2</ele>
        <time>2023-05-28T09:54:33Z</time>
      </trkpt>
      <trkpt lat="43.53095" lon="5.57995">
        <ele>944.2</ele>
        <time>2023-05-28T09:54:34Z</time>
      </trkpt>
      <trkpt lat="43.53095" lon="5.57995">
        <ele>944.2</ele>
        <time>2023-05-28T09:54:35Z</time>
      </trkpt>
      <trkpt lat="43.53095" lon="5.57995">
        <ele>944.2</ele>
        <time>2023-05-28T09:54:36Z</time>
      </trkpt>
      <trkpt lat="43.53095" lon="5.57995">
        <ele>944.1</ele>
        <time>2023-05-28T09:54:37Z</time>
      </trkpt>
      <trkpt lat="43.53095" lon="5.57995">
        <ele>944.1</ele>
        <time>2023-05-28T09:54:38Z</time>
      </trkpt>
      <trkpt lat="43.53095" lon="5.57995">
        <ele>944.1</ele>
        <time>2023-05-28T09:54:39Z</time>
      </trkpt>
      <trkpt lat="43.53095" lon="5.57995">
        <ele>944.1</ele>
        <time>2023-05-28T09:54:40Z</time>
      </trkpt>
      <trkpt lat="43.53095" lon="5.57995">
        <ele>944.1</ele>
        <time>2023-05-28T09:54:41Z</time>
      </trkpt>
      <trkpt lat="43.53096" lon="5.57995">
        <ele>944.1</ele>
        <time>2023-05-28T09:54:42Z</time>
      </trkpt>
      <trkpt lat="43.53096" lon="5.57995">
        <ele>944.2</ele>
        <time>2023-05-28T09:54:43Z</time>
      </trkpt>
      <trkpt lat="43.53096" lon="5.57995">
        <ele>944.2</ele>
        <time>2023-05-28T09:54:44Z</time>
      </trkpt>
      <trkpt lat="43.53095" lon="5.57995">
        <ele>944.2</ele>
        <time>2023-05-28T09:54:45Z</time>
      </trkpt>
      <trkpt lat="43.53095" lon="5.57995">
        <ele>944.3</ele>
        <time>2023-05-28T09:54:46Z</time>
      </trkpt>
      <trkpt lat="43.53095" lon="5.57995">
        <ele>944.2</ele>
        <time>2023-05-28T09:54:47Z</time>
      </trkpt>
      <trkpt lat="43.53095" lon="5.57995">
        <ele>944.2</ele>
        <time>2023-05-28T09:54:48Z</time>
      </trkpt>
      <trkpt lat="43.53095" lon="5.57995">
        <ele>944.1</ele>
        <time>2023-05-28T09:54:49Z</time>
      </trkpt>
      <trkpt lat="43.53095" lon="5.57995">
        <ele>944.1</ele>
        <time>2023-05-28T09:54:50Z</time>
      </trkpt>
      <trkpt lat="43.53095" lon="5.57994">
        <ele>944.1</ele>
        <time>2023-05-28T09:54:51Z</time>
      </trkpt>
      <trkpt lat="43.53095" lon="5.57995">
        <ele>944.1</ele>
        <time>2023-05-28T09:54:52Z</time>
      </trkpt>
      <trkpt lat="43.53095" lon="5.57995">
        <ele>944.2</ele>
        <time>2023-05-28T09:54:53Z</time>
      </trkpt>
      <trkpt lat="43.53095" lon="5.57995">
        <ele>944.1</ele>
        <time>2023-05-28T09:54:54Z</time>
      </trkpt>
      <trkpt lat="43.53095" lon="5.57995">
        <ele>944.2</ele>
        <time>2023-05-28T09:54:55Z</time>
      </trkpt>
      <trkpt lat="43.53095" lon="5.57995">
        <ele>944.1</ele>
        <time>2023-05-28T09:54:56Z</time>
      </trkpt>
      <trkpt lat="43.53095" lon="5.57994">
        <ele>944</ele>
        <time>2023-05-28T09:54:57Z</time>
      </trkpt>
      <trkpt lat="43.53095" lon="5.57994">
        <ele>944</ele>
        <time>2023-05-28T09:54:58Z</time>
      </trkpt>
      <trkpt lat="43.53095" lon="5.57994">
        <ele>944</ele>
        <time>2023-05-28T09:54:59Z</time>
      </trkpt>
      <trkpt lat="43.53095" lon="5.57994">
        <ele>944</ele>
        <time>2023-05-28T09:55:00Z</time>
      </trkpt>
      <trkpt lat="43.53095" lon="5.57994">
        <ele>944</ele>
        <time>2023-05-28T09:55:01Z</time>
      </trkpt>
      <trkpt lat="43.53095" lon="5.57994">
        <ele>944</ele>
        <time>2023-05-28T09:55:02Z</time>
      </trkpt>
      <trkpt lat="43.53095" lon="5.57995">
        <ele>944.1</ele>
        <time>2023-05-28T09:55:03Z</time>
      </trkpt>
      <trkpt lat="43.53095" lon="5.57995">
        <ele>944.1</ele>
        <time>2023-05-28T09:55:04Z</time>
      </trkpt>
      <trkpt lat="43.53095" lon="5.57995">
        <ele>944.1</ele>
        <time>2023-05-28T09:55:05Z</time>
      </trkpt>
      <trkpt lat="43.53095" lon="5.57995">
        <ele>944.2</ele>
        <time>2023-05-28T09:55:06Z</time>
      </trkpt>
      <trkpt lat="43.53095" lon="5.57995">
        <ele>944.2</ele>
        <time>2023-05-28T09:55:07Z</time>
      </trkpt>
      <trkpt lat="43.53095" lon="5.57995">
        <ele>944.2</ele>
        <time>2023-05-28T09:55:08Z</time>
      </trkpt>
      <trkpt lat="43.53095" lon="5.57995">
        <ele>944.2</ele>
        <time>2023-05-28T09:55:09Z</time>
      </trkpt>
      <trkpt lat="43.53095" lon="5.57995">
        <ele>944.3</ele>
        <time>2023-05-28T09:55:10Z</time>
      </trkpt>
      <trkpt lat="43.53095" lon="5.57995">
        <ele>944.3</ele>
        <time>2023-05-28T09:55:11Z</time>
      </trkpt>
      <trkpt lat="43.53095" lon="5.57995">
        <ele>944.2</ele>
        <time>2023-05-28T09:55:12Z</time>
      </trkpt>
      <trkpt lat="43.53095" lon="5.57995">
        <ele>944.2</ele>
        <time>2023-05-28T09:55:13Z</time>
      </trkpt>
      <trkpt lat="43.53095" lon="5.57995">
        <ele>944.2</ele>
        <time>2023-05-28T09:55:14Z</time>
      </trkpt>
      <trkpt lat="43.53095" lon="5.57995">
        <ele>944.1</ele>
        <time>2023-05-28T09:55:15Z</time>
      </trkpt>
      <trkpt lat="43.53095" lon="5.57995">
        <ele>944.1</ele>
        <time>2023-05-28T09:55:16Z</time>
      </trkpt>
      <trkpt lat="43.53095" lon="5.57995">
        <ele>944.1</ele>
        <time>2023-05-28T09:55:17Z</time>
      </trkpt>
      <trkpt lat="43.53095" lon="5.57995">
        <ele>944.1</ele>
        <time>2023-05-28T09:55:18Z</time>
      </trkpt>
      <trkpt lat="43.53095" lon="5.57995">
        <ele>944.1</ele>
        <time>2023-05-28T09:55:19Z</time>
      </trkpt>
      <trkpt lat="43.53095" lon="5.57995">
        <ele>944.1</ele>
        <time>2023-05-28T09:55:20Z</time>
      </trkpt>
      <trkpt lat="43.53095" lon="5.57995">
        <ele>944.1</ele>
        <time>2023-05-28T09:55:21Z</time>
      </trkpt>
      <trkpt lat="43.53095" lon="5.57995">
        <ele>944.1</ele>
        <time>2023-05-28T09:55:22Z</time>
      </trkpt>
      <trkpt lat="43.53095" lon="5.57995">
        <ele>944</ele>
        <time>2023-05-28T09:55:23Z</time>
      </trkpt>
      <trkpt lat="43.53095" lon="5.57995">
        <ele>944.1</ele>
        <time>2023-05-28T09:55:24Z</time>
      </trkpt>
      <trkpt lat="43.53095" lon="5.57995">
        <ele>944.2</ele>
        <time>2023-05-28T09:55:25Z</time>
      </trkpt>
      <trkpt lat="43.53095" lon="5.57995">
        <ele>944.2</ele>
        <time>2023-05-28T09:55:26Z</time>
      </trkpt>
      <trkpt lat="43.53095" lon="5.57995">
        <ele>944.3</ele>
        <time>2023-05-28T09:55:27Z</time>
      </trkpt>
      <trkpt lat="43.53095" lon="5.57995">
        <ele>944.3</ele>
        <time>2023-05-28T09:55:28Z</time>
      </trkpt>
      <trkpt lat="43.53095" lon="5.57995">
        <ele>944.4</ele>
        <time>2023-05-28T09:55:29Z</time>
      </trkpt>
      <trkpt lat="43.53095" lon="5.57995">
        <ele>944.4</ele>
        <time>2023-05-28T09:55:30Z</time>
      </trkpt>
      <trkpt lat="43.53095" lon="5.57994">
        <ele>944.4</ele>
        <time>2023-05-28T09:55:31Z</time>
      </trkpt>
      <trkpt lat="43.53095" lon="5.57994">
        <ele>944.4</ele>
        <time>2023-05-28T09:55:32Z</time>
      </trkpt>
      <trkpt lat="43.53095" lon="5.57994">
        <ele>944.5</ele>
        <time>2023-05-28T09:55:33Z</time>
      </trkpt>
      <trkpt lat="43.53095" lon="5.57994">
        <ele>944.5</ele>
        <time>2023-05-28T09:55:34Z</time>
      </trkpt>
      <trkpt lat="43.53095" lon="5.57994">
        <ele>944.4</ele>
        <time>2023-05-28T09:55:35Z</time>
      </trkpt>
      <trkpt lat="43.53095" lon="5.57994">
        <ele>944.4</ele>
        <time>2023-05-28T09:55:36Z</time>
      </trkpt>
      <trkpt lat="43.53095" lon="5.57994">
        <ele>944.3</ele>
        <time>2023-05-28T09:55:37Z</time>
      </trkpt>
      <trkpt lat="43.53095" lon="5.57994">
        <ele>944.3</ele>
        <time>2023-05-28T09:55:38Z</time>
      </trkpt>
      <trkpt lat="43.53095" lon="5.57994">
        <ele>944.2</ele>
        <time>2023-05-28T09:55:39Z</time>
      </trkpt>
      <trkpt lat="43.53095" lon="5.57994">
        <ele>944.1</ele>
        <time>2023-05-28T09:55:40Z</time>
      </trkpt>
      <trkpt lat="43.53096" lon="5.57995">
        <ele>944.1</ele>
        <time>2023-05-28T09:55:41Z</time>
      </trkpt>
      <trkpt lat="43.53096" lon="5.57995">
        <ele>944</ele>
        <time>2023-05-28T09:55:42Z</time>
      </trkpt>
      <trkpt lat="43.53095" lon="5.57995">
        <ele>944</ele>
        <time>2023-05-28T09:55:43Z</time>
      </trkpt>
      <trkpt lat="43.53095" lon="5.57995">
        <ele>944</ele>
        <time>2023-05-28T09:55:44Z</time>
      </trkpt>
      <trkpt lat="43.53095" lon="5.57995">
        <ele>944</ele>
        <time>2023-05-28T09:55:45Z</time>
      </trkpt>
      <trkpt lat="43.53095" lon="5.57995">
        <ele>944</ele>
        <time>2023-05-28T09:55:46Z</time>
      </trkpt>
      <trkpt lat="43.53095" lon="5.57995">
        <ele>943.9</ele>
        <time>2023-05-28T09:55:47Z</time>
      </trkpt>
      <trkpt lat="43.53095" lon="5.57995">
        <ele>943.9</ele>
        <time>2023-05-28T09:55:48Z</time>
      </trkpt>
      <trkpt lat="43.53095" lon="5.57995">
        <ele>943.8</ele>
        <time>2023-05-28T09:55:49Z</time>
      </trkpt>
      <trkpt lat="43.53095" lon="5.57995">
        <ele>943.9</ele>
        <time>2023-05-28T09:55:50Z</time>
      </trkpt>
      <trkpt lat="43.53095" lon="5.57994">
        <ele>943.9</ele>
        <time>2023-05-28T09:55:51Z</time>
      </trkpt>
      <trkpt lat="43.53095" lon="5.57994">
        <ele>944</ele>
        <time>2023-05-28T09:55:52Z</time>
      </trkpt>
      <trkpt lat="43.53095" lon="5.57994">
        <ele>944</ele>
        <time>2023-05-28T09:55:53Z</time>
      </trkpt>
      <trkpt lat="43.53095" lon="5.57994">
        <ele>944</ele>
        <time>2023-05-28T09:55:54Z</time>
      </trkpt>
      <trkpt lat="43.53095" lon="5.57994">
        <ele>944.1</ele>
        <time>2023-05-28T09:55:55Z</time>
      </trkpt>
      <trkpt lat="43.53095" lon="5.57994">
        <ele>944.2</ele>
        <time>2023-05-28T09:55:56Z</time>
      </trkpt>
      <trkpt lat="43.53095" lon="5.57994">
        <ele>944.2</ele>
        <time>2023-05-28T09:55:57Z</time>
      </trkpt>
      <trkpt lat="43.53095" lon="5.57994">
        <ele>944.3</ele>
        <time>2023-05-28T09:55:58Z</time>
      </trkpt>
      <trkpt lat="43.53095" lon="5.57994">
        <ele>944.3</ele>
        <time>2023-05-28T09:55:59Z</time>
      </trkpt>
      <trkpt lat="43.53095" lon="5.57994">
        <ele>944.3</ele>
        <time>2023-05-28T09:56:00Z</time>
      </trkpt>
      <trkpt lat="43.53095" lon="5.57994">
        <ele>944.3</ele>
        <time>2023-05-28T09:56:01Z</time>
      </trkpt>
      <trkpt lat="43.53095" lon="5.57994">
        <ele>944.3</ele>
        <time>2023-05-28T09:56:02Z</time>
      </trkpt>
      <trkpt lat="43.53095" lon="5.57994">
        <ele>944.3</ele>
        <time>2023-05-28T09:56:03Z</time>
      </trkpt>
      <trkpt lat="43.53095" lon="5.57994">
        <ele>944.3</ele>
        <time>2023-05-28T09:56:04Z</time>
      </trkpt>
      <trkpt lat="43.53095" lon="5.57994">
        <ele>944.1</ele>
        <time>2023-05-28T09:56:05Z</time>
      </trkpt>
      <trkpt lat="43.53095" lon="5.57994">
        <ele>944</ele>
        <time>2023-05-28T09:56:06Z</time>
      </trkpt>
      <trkpt lat="43.53095" lon="5.57994">
        <ele>944</ele>
        <time>2023-05-28T09:56:07Z</time>
      </trkpt>
      <trkpt lat="43.53095" lon="5.57994">
        <ele>944</ele>
        <time>2023-05-28T09:56:08Z</time>
      </trkpt>
      <trkpt lat="43.53095" lon="5.57994">
        <ele>944</ele>
        <time>2023-05-28T09:56:09Z</time>
      </trkpt>
      <trkpt lat="43.53095" lon="5.57995">
        <ele>944.1</ele>
        <time>2023-05-28T09:56:10Z</time>
      </trkpt>
      <trkpt lat="43.53095" lon="5.57995">
        <ele>944.2</ele>
        <time>2023-05-28T09:56:11Z</time>
      </trkpt>
      <trkpt lat="43.53095" lon="5.57995">
        <ele>944.2</ele>
        <time>2023-05-28T09:56:12Z</time>
      </trkpt>
      <trkpt lat="43.53095" lon="5.57995">
        <ele>944.3</ele>
        <time>2023-05-28T09:56:13Z</time>
      </trkpt>
      <trkpt lat="43.53095" lon="5.57995">
        <ele>944.3</ele>
        <time>2023-05-28T09:56:14Z</time>
      </trkpt>
      <trkpt lat="43.53095" lon="5.57995">
        <ele>944.3</ele>
        <time>2023-05-28T09:56:15Z</time>
      </trkpt>
      <trkpt lat="43.53095" lon="5.57995">
        <ele>944.2</ele>
        <time>2023-05-28T09:56:16Z</time>
      </trkpt>
      <trkpt lat="43.53095" lon="5.57995">
        <ele>944.1</ele>
        <time>2023-05-28T09:56:17Z</time>
      </trkpt>
      <trkpt lat="43.53095" lon="5.57995">
        <ele>944.2</ele>
        <time>2023-05-28T09:56:18Z</time>
      </trkpt>
      <trkpt lat="43.53095" lon="5.57995">
        <ele>944.2</ele>
        <time>2023-05-28T09:56:19Z</time>
      </trkpt>
      <trkpt lat="43.53095" lon="5.57995">
        <ele>944.1</ele>
        <time>2023-05-28T09:56:20Z</time>
      </trkpt>
      <trkpt lat="43.53095" lon="5.57995">
        <ele>944</ele>
        <time>2023-05-28T09:56:21Z</time>
      </trkpt>
      <trkpt lat="43.53095" lon="5.57995">
        <ele>944</ele>
        <time>2023-05-28T09:56:22Z</time>
      </trkpt>
      <trkpt lat="43.53095" lon="5.57995">
        <ele>944</ele>
        <time>2023-05-28T09:56:23Z</time>
      </trkpt>
      <trkpt lat="43.53095" lon="5.57995">
        <ele>943.9</ele>
        <time>2023-05-28T09:56:24Z</time>
      </trkpt>
      <trkpt lat="43.53095" lon="5.57995">
        <ele>944</ele>
        <time>2023-05-28T09:56:25Z</time>
      </trkpt>
      <trkpt lat="43.53095" lon="5.57995">
        <ele>944</ele>
        <time>2023-05-28T09:56:26Z</time>
      </trkpt>
      <trkpt lat="43.53095" lon="5.57995">
        <ele>944.1</ele>
        <time>2023-05-28T09:56:27Z</time>
      </trkpt>
      <trkpt lat="43.53095" lon="5.57995">
        <ele>944.2</ele>
        <time>2023-05-28T09:56:28Z</time>
      </trkpt>
      <trkpt lat="43.53095" lon="5.57995">
        <ele>944.2</ele>
        <time>2023-05-28T09:56:29Z</time>
      </trkpt>
      <trkpt lat="43.53095" lon="5.57995">
        <ele>944.3</ele>
        <time>2023-05-28T09:56:30Z</time>
      </trkpt>
      <trkpt lat="43.53095" lon="5.57995">
        <ele>944.3</ele>
        <time>2023-05-28T09:56:31Z</time>
      </trkpt>
      <trkpt lat="43.53095" lon="5.57995">
        <ele>944.3</ele>
        <time>2023-05-28T09:56:32Z</time>
      </trkpt>
      <trkpt lat="43.53095" lon="5.57995">
        <ele>944.3</ele>
        <time>2023-05-28T09:56:33Z</time>
      </trkpt>
      <trkpt lat="43.53096" lon="5.57995">
        <ele>944.3</ele>
        <time>2023-05-28T09:56:34Z</time>
      </trkpt>
      <trkpt lat="43.53096" lon="5.57995">
        <ele>944.3</ele>
        <time>2023-05-28T09:56:35Z</time>
      </trkpt>
      <trkpt lat="43.53096" lon="5.57995">
        <ele>944.3</ele>
        <time>2023-05-28T09:56:36Z</time>
      </trkpt>
      <trkpt lat="43.53096" lon="5.57995">
        <ele>944.3</ele>
        <time>2023-05-28T09:56:37Z</time>
      </trkpt>
      <trkpt lat="43.53096" lon="5.57995">
        <ele>944.4</ele>
        <time>2023-05-28T09:56:38Z</time>
      </trkpt>
      <trkpt lat="43.53095" lon="5.57995">
        <ele>944.4</ele>
        <time>2023-05-28T09:56:39Z</time>
      </trkpt>
      <trkpt lat="43.53095" lon="5.57995">
        <ele>944.3</ele>
        <time>2023-05-28T09:56:40Z</time>
      </trkpt>
      <trkpt lat="43.53095" lon="5.57995">
        <ele>944.3</ele>
        <time>2023-05-28T09:56:41Z</time>
      </trkpt>
      <trkpt lat="43.53095" lon="5.57995">
        <ele>944.3</ele>
        <time>2023-05-28T09:56:42Z</time>
      </trkpt>
      <trkpt lat="43.53095" lon="5.57995">
        <ele>944.3</ele>
        <time>2023-05-28T09:56:43Z</time>
      </trkpt>
      <trkpt lat="43.53095" lon="5.57995">
        <ele>944.3</ele>
        <time>2023-05-28T09:56:44Z</time>
      </trkpt>
      <trkpt lat="43.53095" lon="5.57995">
        <ele>944.3</ele>
        <time>2023-05-28T09:56:45Z</time>
      </trkpt>
      <trkpt lat="43.53095" lon="5.57995">
        <ele>944.2</ele>
        <time>2023-05-28T09:56:46Z</time>
      </trkpt>
      <trkpt lat="43.53095" lon="5.57995">
        <ele>944.2</ele>
        <time>2023-05-28T09:56:47Z</time>
      </trkpt>
      <trkpt lat="43.53095" lon="5.57995">
        <ele>944.2</ele>
        <time>2023-05-28T09:56:48Z</time>
      </trkpt>
      <trkpt lat="43.53095" lon="5.57995">
        <ele>944.2</ele>
        <time>2023-05-28T09:56:49Z</time>
      </trkpt>
      <trkpt lat="43.53095" lon="5.57995">
        <ele>944.3</ele>
        <time>2023-05-28T09:56:50Z</time>
      </trkpt>
      <trkpt lat="43.53095" lon="5.57995">
        <ele>944.3</ele>
        <time>2023-05-28T09:56:51Z</time>
      </trkpt>
      <trkpt lat="43.53095" lon="5.57995">
        <ele>944.3</ele>
        <time>2023-05-28T09:56:52Z</time>
      </trkpt>
      <trkpt lat="43.53095" lon="5.57995">
        <ele>944.4</ele>
        <time>2023-05-28T09:56:53Z</time>
      </trkpt>
      <trkpt lat="43.53095" lon="5.57994">
        <ele>944.4</ele>
        <time>2023-05-28T09:56:54Z</time>
      </trkpt>
      <trkpt lat="43.53095" lon="5.57994">
        <ele>944.3</ele>
        <time>2023-05-28T09:56:55Z</time>
      </trkpt>
      <trkpt lat="43.53095" lon="5.57994">
        <ele>944.3</ele>
        <time>2023-05-28T09:56:56Z</time>
      </trkpt>
      <trkpt lat="43.53096" lon="5.57994">
        <ele>944.3</ele>
        <time>2023-05-28T09:56:57Z</time>
      </trkpt>
      <trkpt lat="43.53096" lon="5.57994">
        <ele>944.2</ele>
        <time>2023-05-28T09:56:58Z</time>
      </trkpt>
      <trkpt lat="43.53096" lon="5.57994">
        <ele>944.2</ele>
        <time>2023-05-28T09:56:59Z</time>
      </trkpt>
      <trkpt lat="43.53096" lon="5.57994">
        <ele>944.3</ele>
        <time>2023-05-28T09:57:00Z</time>
      </trkpt>
      <trkpt lat="43.53096" lon="5.57994">
        <ele>944.3</ele>
        <time>2023-05-28T09:57:01Z</time>
      </trkpt>
      <trkpt lat="43.53096" lon="5.57994">
        <ele>944.3</ele>
        <time>2023-05-28T09:57:02Z</time>
      </trkpt>
      <trkpt lat="43.53096" lon="5.57994">
        <ele>944.3</ele>
        <time>2023-05-28T09:57:03Z</time>
      </trkpt>
      <trkpt lat="43.53096" lon="5.57994">
        <ele>944.2</ele>
        <time>2023-05-28T09:57:04Z</time>
      </trkpt>
      <trkpt lat="43.53096" lon="5.57994">
        <ele>944.2</ele>
        <time>2023-05-28T09:57:05Z</time>
      </trkpt>
      <trkpt lat="43.53096" lon="5.57994">
        <ele>944.2</ele>
        <time>2023-05-28T09:57:06Z</time>
      </trkpt>
      <trkpt lat="43.53096" lon="5.57994">
        <ele>944.2</ele>
        <time>2023-05-28T09:57:07Z</time>
      </trkpt>
      <trkpt lat="43.53096" lon="5.57994">
        <ele>944.2</ele>
        <time>2023-05-28T09:57:08Z</time>
      </trkpt>
      <trkpt lat="43.53096" lon="5.57994">
        <ele>944.3</ele>
        <time>2023-05-28T09:57:09Z</time>
      </trkpt>
      <trkpt lat="43.53096" lon="5.57994">
        <ele>944.4</ele>
        <time>2023-05-28T09:57:10Z</time>
      </trkpt>
      <trkpt lat="43.53096" lon="5.57994">
        <ele>944.4</ele>
        <time>2023-05-28T09:57:11Z</time>
      </trkpt>
      <trkpt lat="43.53096" lon="5.57994">
        <ele>944.5</ele>
        <time>2023-05-28T09:57:12Z</time>
      </trkpt>
      <trkpt lat="43.53096" lon="5.57994">
        <ele>944.6</ele>
        <time>2023-05-28T09:57:13Z</time>
      </trkpt>
      <trkpt lat="43.53096" lon="5.57994">
        <ele>944.6</ele>
        <time>2023-05-28T09:57:14Z</time>
      </trkpt>
      <trkpt lat="43.53096" lon="5.57994">
        <ele>944.5</ele>
        <time>2023-05-28T09:57:15Z</time>
      </trkpt>
      <trkpt lat="43.53096" lon="5.57994">
        <ele>944.5</ele>
        <time>2023-05-28T09:57:16Z</time>
      </trkpt>
      <trkpt lat="43.53096" lon="5.57994">
        <ele>944.5</ele>
        <time>2023-05-28T09:57:17Z</time>
      </trkpt>
      <trkpt lat="43.53096" lon="5.57995">
        <ele>944.4</ele>
        <time>2023-05-28T09:57:18Z</time>
      </trkpt>
      <trkpt lat="43.53096" lon="5.57995">
        <ele>944.4</ele>
        <time>2023-05-28T09:57:19Z</time>
      </trkpt>
      <trkpt lat="43.53096" lon="5.57995">
        <ele>944.3</ele>
        <time>2023-05-28T09:57:20Z</time>
      </trkpt>
      <trkpt lat="43.53096" lon="5.57995">
        <ele>944.3</ele>
        <time>2023-05-28T09:57:21Z</time>
      </trkpt>
      <trkpt lat="43.53096" lon="5.57995">
        <ele>944.3</ele>
        <time>2023-05-28T09:57:22Z</time>
      </trkpt>
      <trkpt lat="43.53096" lon="5.57995">
        <ele>944.2</ele>
        <time>2023-05-28T09:57:23Z</time>
      </trkpt>
      <trkpt lat="43.53096" lon="5.57995">
        <ele>944.2</ele>
        <time>2023-05-28T09:57:24Z</time>
      </trkpt>
      <trkpt lat="43.53095" lon="5.57995">
        <ele>944.3</ele>
        <time>2023-05-28T09:57:25Z</time>
      </trkpt>
      <trkpt lat="43.53095" lon="5.57996">
        <ele>944.4</ele>
        <time>2023-05-28T09:57:26Z</time>
      </trkpt>
      <trkpt lat="43.53095" lon="5.57996">
        <ele>944.4</ele>
        <time>2023-05-28T09:57:27Z</time>
      </trkpt>
      <trkpt lat="43.53095" lon="5.57995">
        <ele>944.2</ele>
        <time>2023-05-28T09:57:28Z</time>
      </trkpt>
      <trkpt lat="43.53095" lon="5.57995">
        <ele>944.2</ele>
        <time>2023-05-28T09:57:29Z</time>
      </trkpt>
      <trkpt lat="43.53095" lon="5.57995">
        <ele>944.2</ele>
        <time>2023-05-28T09:57:30Z</time>
      </trkpt>
      <trkpt lat="43.53095" lon="5.57995">
        <ele>944.3</ele>
        <time>2023-05-28T09:57:31Z</time>
      </trkpt>
      <trkpt lat="43.53095" lon="5.57996">
        <ele>944.3</ele>
        <time>2023-05-28T09:57:32Z</time>
      </trkpt>
      <trkpt lat="43.53095" lon="5.57996">
        <ele>944.2</ele>
        <time>2023-05-28T09:57:33Z</time>
      </trkpt>
      <trkpt lat="43.53095" lon="5.57996">
        <ele>944.3</ele>
        <time>2023-05-28T09:57:34Z</time>
      </trkpt>
      <trkpt lat="43.53096" lon="5.57996">
        <ele>944.3</ele>
        <time>2023-05-28T09:57:35Z</time>
      </trkpt>
      <trkpt lat="43.53095" lon="5.57996">
        <ele>944.3</ele>
        <time>2023-05-28T09:57:36Z</time>
      </trkpt>
      <trkpt lat="43.53095" lon="5.57996">
        <ele>944.4</ele>
        <time>2023-05-28T09:57:37Z</time>
      </trkpt>
      <trkpt lat="43.53095" lon="5.57997">
        <ele>944.4</ele>
        <time>2023-05-28T09:57:38Z</time>
      </trkpt>
      <trkpt lat="43.53095" lon="5.57997">
        <ele>944.4</ele>
        <time>2023-05-28T09:57:39Z</time>
      </trkpt>
      <trkpt lat="43.53095" lon="5.57997">
        <ele>944.3</ele>
        <time>2023-05-28T09:57:40Z</time>
      </trkpt>
      <trkpt lat="43.53095" lon="5.57998">
        <ele>944.2</ele>
        <time>2023-05-28T09:57:41Z</time>
      </trkpt>
      <trkpt lat="43.53095" lon="5.57998">
        <ele>944</ele>
        <time>2023-05-28T09:57:42Z</time>
      </trkpt>
      <trkpt lat="43.53095" lon="5.57998">
        <ele>943.9</ele>
        <time>2023-05-28T09:57:43Z</time>
      </trkpt>
      <trkpt lat="43.53096" lon="5.57998">
        <ele>943.8</ele>
        <time>2023-05-28T09:57:44Z</time>
      </trkpt>
      <trkpt lat="43.53096" lon="5.57998">
        <ele>943.7</ele>
        <time>2023-05-28T09:57:45Z</time>
      </trkpt>
      <trkpt lat="43.53096" lon="5.57999">
        <ele>943.6</ele>
        <time>2023-05-28T09:57:46Z</time>
      </trkpt>
      <trkpt lat="43.53096" lon="5.57999">
        <ele>943.5</ele>
        <time>2023-05-28T09:57:47Z</time>
      </trkpt>
      <trkpt lat="43.53096" lon="5.58">
        <ele>943.3</ele>
        <time>2023-05-28T09:57:48Z</time>
      </trkpt>
      <trkpt lat="43.53097" lon="5.58">
        <ele>943.1</ele>
        <time>2023-05-28T09:57:49Z</time>
      </trkpt>
      <trkpt lat="43.53097" lon="5.58">
        <ele>943</ele>
        <time>2023-05-28T09:57:50Z</time>
      </trkpt>
      <trkpt lat="43.53098" lon="5.58">
        <ele>942.8</ele>
        <time>2023-05-28T09:57:51Z</time>
      </trkpt>
      <trkpt lat="43.53098" lon="5.58">
        <ele>942.7</ele>
        <time>2023-05-28T09:57:52Z</time>
      </trkpt>
      <trkpt lat="43.53099" lon="5.58">
        <ele>942.4</ele>
        <time>2023-05-28T09:57:53Z</time>
      </trkpt>
      <trkpt lat="43.53099" lon="5.58001">
        <ele>942.2</ele>
        <time>2023-05-28T09:57:54Z</time>
      </trkpt>
      <trkpt lat="43.531" lon="5.58002">
        <ele>942</ele>
        <time>2023-05-28T09:57:55Z</time>
      </trkpt>
      <trkpt lat="43.531" lon="5.58003">
        <ele>941.9</ele>
        <time>2023-05-28T09:57:56Z</time>
      </trkpt>
      <trkpt lat="43.531" lon="5.58003">
        <ele>941.7</ele>
        <time>2023-05-28T09:57:57Z</time>
      </trkpt>
      <trkpt lat="43.531" lon="5.58004">
        <ele>941.5</ele>
        <time>2023-05-28T09:57:58Z</time>
      </trkpt>
      <trkpt lat="43.531" lon="5.58004">
        <ele>941.4</ele>
        <time>2023-05-28T09:57:59Z</time>
      </trkpt>
      <trkpt lat="43.53101" lon="5.58004">
        <ele>941.3</ele>
        <time>2023-05-28T09:58:00Z</time>
      </trkpt>
      <trkpt lat="43.531" lon="5.58004">
        <ele>941.1</ele>
        <time>2023-05-28T09:58:01Z</time>
      </trkpt>
      <trkpt lat="43.531" lon="5.58005">
        <ele>941</ele>
        <time>2023-05-28T09:58:02Z</time>
      </trkpt>
      <trkpt lat="43.531" lon="5.58006">
        <ele>940.9</ele>
        <time>2023-05-28T09:58:03Z</time>
      </trkpt>
      <trkpt lat="43.531" lon="5.58006">
        <ele>940.7</ele>
        <time>2023-05-28T09:58:04Z</time>
      </trkpt>
      <trkpt lat="43.531" lon="5.58007">
        <ele>940.6</ele>
        <time>2023-05-28T09:58:05Z</time>
      </trkpt>
      <trkpt lat="43.531" lon="5.58008">
        <ele>940.4</ele>
        <time>2023-05-28T09:58:06Z</time>
      </trkpt>
      <trkpt lat="43.531" lon="5.58008">
        <ele>940.3</ele>
        <time>2023-05-28T09:58:07Z</time>
      </trkpt>
      <trkpt lat="43.531" lon="5.58009">
        <ele>940.2</ele>
        <time>2023-05-28T09:58:08Z</time>
      </trkpt>
      <trkpt lat="43.531" lon="5.5801">
        <ele>940.1</ele>
        <time>2023-05-28T09:58:09Z</time>
      </trkpt>
      <trkpt lat="43.531" lon="5.58011">
        <ele>939.9</ele>
        <time>2023-05-28T09:58:10Z</time>
      </trkpt>
      <trkpt lat="43.531" lon="5.58011">
        <ele>939.7</ele>
        <time>2023-05-28T09:58:11Z</time>
      </trkpt>
      <trkpt lat="43.53101" lon="5.58012">
        <ele>939.5</ele>
        <time>2023-05-28T09:58:12Z</time>
      </trkpt>
      <trkpt lat="43.53101" lon="5.58013">
        <ele>939.4</ele>
        <time>2023-05-28T09:58:13Z</time>
      </trkpt>
      <trkpt lat="43.53101" lon="5.58014">
        <ele>939.3</ele>
        <time>2023-05-28T09:58:14Z</time>
      </trkpt>
      <trkpt lat="43.53101" lon="5.58015">
        <ele>939.2</ele>
        <time>2023-05-28T09:58:15Z</time>
      </trkpt>
      <trkpt lat="43.53101" lon="5.58015">
        <ele>939</ele>
        <time>2023-05-28T09:58:16Z</time>
      </trkpt>
      <trkpt lat="43.53102" lon="5.58014">
        <ele>938.9</ele>
        <time>2023-05-28T09:58:17Z</time>
      </trkpt>
      <trkpt lat="43.53102" lon="5.58015">
        <ele>938.8</ele>
        <time>2023-05-28T09:58:18Z</time>
      </trkpt>
      <trkpt lat="43.53102" lon="5.58015">
        <ele>938.7</ele>
        <time>2023-05-28T09:58:19Z</time>
      </trkpt>
      <trkpt lat="43.53102" lon="5.58015">
        <ele>938.6</ele>
        <time>2023-05-28T09:58:20Z</time>
      </trkpt>
      <trkpt lat="43.53102" lon="5.58015">
        <ele>938.5</ele>
        <time>2023-05-28T09:58:21Z</time>
      </trkpt>
      <trkpt lat="43.53102" lon="5.58015">
        <ele>938.4</ele>
        <time>2023-05-28T09:58:22Z</time>
      </trkpt>
      <trkpt lat="43.53102" lon="5.58015">
        <ele>938.4</ele>
        <time>2023-05-28T09:58:23Z</time>
      </trkpt>
      <trkpt lat="43.53103" lon="5.58015">
        <ele>938.3</ele>
        <time>2023-05-28T09:58:24Z</time>
      </trkpt>
      <trkpt lat="43.53103" lon="5.58015">
        <ele>938.3</ele>
        <time>2023-05-28T09:58:25Z</time>
      </trkpt>
      <trkpt lat="43.53103" lon="5.58014">
        <ele>938.2</ele>
        <time>2023-05-28T09:58:26Z</time>
      </trkpt>
      <trkpt lat="43.53103" lon="5.58014">
        <ele>938.2</ele>
        <time>2023-05-28T09:58:27Z</time>
      </trkpt>
      <trkpt lat="43.53103" lon="5.58013">
        <ele>938.3</ele>
        <time>2023-05-28T09:58:28Z</time>
      </trkpt>
      <trkpt lat="43.53104" lon="5.58013">
        <ele>938.3</ele>
        <time>2023-05-28T09:58:29Z</time>
      </trkpt>
      <trkpt lat="43.53104" lon="5.58012">
        <ele>938.3</ele>
        <time>2023-05-28T09:58:30Z</time>
      </trkpt>
      <trkpt lat="43.53104" lon="5.58011">
        <ele>938.3</ele>
        <time>2023-05-28T09:58:31Z</time>
      </trkpt>
      <trkpt lat="43.53104" lon="5.58011">
        <ele>938.2</ele>
        <time>2023-05-28T09:58:32Z</time>
      </trkpt>
      <trkpt lat="43.53104" lon="5.5801">
        <ele>938.1</ele>
        <time>2023-05-28T09:58:33Z</time>
      </trkpt>
      <trkpt lat="43.53104" lon="5.58009">
        <ele>938.1</ele>
        <time>2023-05-28T09:58:34Z</time>
      </trkpt>
      <trkpt lat="43.53105" lon="5.58008">
        <ele>938</ele>
        <time>2023-05-28T09:58:35Z</time>
      </trkpt>
      <trkpt lat="43.53105" lon="5.58007">
        <ele>937.9</ele>
        <time>2023-05-28T09:58:36Z</time>
      </trkpt>
      <trkpt lat="43.53105" lon="5.58007">
        <ele>937.8</ele>
        <time>2023-05-28T09:58:37Z</time>
      </trkpt>
      <trkpt lat="43.53105" lon="5.58006">
        <ele>937.7</ele>
        <time>2023-05-28T09:58:38Z</time>
      </trkpt>
      <trkpt lat="43.53105" lon="5.58005">
        <ele>937.7</ele>
        <time>2023-05-28T09:58:39Z</time>
      </trkpt>
      <trkpt lat="43.53105" lon="5.58005">
        <ele>937.6</ele>
        <time>2023-05-28T09:58:40Z</time>
      </trkpt>
      <trkpt lat="43.53105" lon="5.58004">
        <ele>937.6</ele>
        <time>2023-05-28T09:58:41Z</time>
      </trkpt>
      <trkpt lat="43.53105" lon="5.58004">
        <ele>937.6</ele>
        <time>2023-05-28T09:58:42Z</time>
      </trkpt>
      <trkpt lat="43.53105" lon="5.58003">
        <ele>937.5</ele>
        <time>2023-05-28T09:58:43Z</time>
      </trkpt>
      <trkpt lat="43.53105" lon="5.58003">
        <ele>937.4</ele>
        <time>2023-05-28T09:58:44Z</time>
      </trkpt>
      <trkpt lat="43.53105" lon="5.58002">
        <ele>937.4</ele>
        <time>2023-05-28T09:58:45Z</time>
      </trkpt>
      <trkpt lat="43.53105" lon="5.58002">
        <ele>937.3</ele>
        <time>2023-05-28T09:58:46Z</time>
      </trkpt>
      <trkpt lat="43.53105" lon="5.58002">
        <ele>937.2</ele>
        <time>2023-05-28T09:58:47Z</time>
      </trkpt>
      <trkpt lat="43.53106" lon="5.58002">
        <ele>937.1</ele>
        <time>2023-05-28T09:58:48Z</time>
      </trkpt>
      <trkpt lat="43.53106" lon="5.58001">
        <ele>937</ele>
        <time>2023-05-28T09:58:49Z</time>
      </trkpt>
      <trkpt lat="43.53106" lon="5.58">
        <ele>936.9</ele>
        <time>2023-05-28T09:58:50Z</time>
      </trkpt>
      <trkpt lat="43.53107" lon="5.58">
        <ele>936.8</ele>
        <time>2023-05-28T09:58:51Z</time>
      </trkpt>
      <trkpt lat="43.53107" lon="5.57999">
        <ele>936.6</ele>
        <time>2023-05-28T09:58:52Z</time>
      </trkpt>
      <trkpt lat="43.53107" lon="5.57998">
        <ele>936.5</ele>
        <time>2023-05-28T09:58:53Z</time>
      </trkpt>
      <trkpt lat="43.53107" lon="5.57998">
        <ele>936.3</ele>
        <time>2023-05-28T09:58:54Z</time>
      </trkpt>
      <trkpt lat="43.53107" lon="5.57996">
        <ele>936.1</ele>
        <time>2023-05-28T09:58:55Z</time>
      </trkpt>
      <trkpt lat="43.53107" lon="5.57995">
        <ele>935.9</ele>
        <time>2023-05-28T09:58:56Z</time>
      </trkpt>
      <trkpt lat="43.53107" lon="5.57994">
        <ele>935.8</ele>
        <time>2023-05-28T09:58:57Z</time>
      </trkpt>
      <trkpt lat="43.53108" lon="5.57994">
        <ele>935.7</ele>
        <time>2023-05-28T09:58:58Z</time>
      </trkpt>
      <trkpt lat="43.53108" lon="5.57993">
        <ele>935.5</ele>
        <time>2023-05-28T09:58:59Z</time>
      </trkpt>
      <trkpt lat="43.53108" lon="5.57992">
        <ele>935.4</ele>
        <time>2023-05-28T09:59:00Z</time>
      </trkpt>
      <trkpt lat="43.53108" lon="5.57991">
        <ele>935.3</ele>
        <time>2023-05-28T09:59:01Z</time>
      </trkpt>
      <trkpt lat="43.53108" lon="5.57991">
        <ele>935.2</ele>
        <time>2023-05-28T09:59:02Z</time>
      </trkpt>
      <trkpt lat="43.53108" lon="5.5799">
        <ele>935.1</ele>
        <time>2023-05-28T09:59:03Z</time>
      </trkpt>
      <trkpt lat="43.53108" lon="5.57989">
        <ele>935</ele>
        <time>2023-05-28T09:59:04Z</time>
      </trkpt>
      <trkpt lat="43.53108" lon="5.57989">
        <ele>934.9</ele>
        <time>2023-05-28T09:59:05Z</time>
      </trkpt>
      <trkpt lat="43.53108" lon="5.57989">
        <ele>934.8</ele>
        <time>2023-05-28T09:59:06Z</time>
      </trkpt>
      <trkpt lat="43.53109" lon="5.57989">
        <ele>934.7</ele>
        <time>2023-05-28T09:59:07Z</time>
      </trkpt>
      <trkpt lat="43.53109" lon="5.57988">
        <ele>934.5</ele>
        <time>2023-05-28T09:59:08Z</time>
      </trkpt>
      <trkpt lat="43.53109" lon="5.57987">
        <ele>934.2</ele>
        <time>2023-05-28T09:59:09Z</time>
      </trkpt>
      <trkpt lat="43.53109" lon="5.57987">
        <ele>934</ele>
        <time>2023-05-28T09:59:10Z</time>
      </trkpt>
      <trkpt lat="43.5311" lon="5.57986">
        <ele>933.8</ele>
        <time>2023-05-28T09:59:11Z</time>
      </trkpt>
      <trkpt lat="43.5311" lon="5.57986">
        <ele>933.6</ele>
        <time>2023-05-28T09:59:12Z</time>
      </trkpt>
      <trkpt lat="43.5311" lon="5.57986">
        <ele>933.4</ele>
        <time>2023-05-28T09:59:13Z</time>
      </trkpt>
      <trkpt lat="43.5311" lon="5.57986">
        <ele>933.3</ele>
        <time>2023-05-28T09:59:14Z</time>
      </trkpt>
      <trkpt lat="43.5311" lon="5.57985">
        <ele>933.2</ele>
        <time>2023-05-28T09:59:15Z</time>
      </trkpt>
      <trkpt lat="43.5311" lon="5.57985">
        <ele>933</ele>
        <time>2023-05-28T09:59:16Z</time>
      </trkpt>
      <trkpt lat="43.5311" lon="5.57985">
        <ele>932.8</ele>
        <time>2023-05-28T09:59:17Z</time>
      </trkpt>
      <trkpt lat="43.5311" lon="5.57984">
        <ele>932.6</ele>
        <time>2023-05-28T09:59:18Z</time>
      </trkpt>
      <trkpt lat="43.53111" lon="5.57984">
        <ele>932.5</ele>
        <time>2023-05-28T09:59:19Z</time>
      </trkpt>
      <trkpt lat="43.53111" lon="5.57984">
        <ele>932.1</ele>
        <time>2023-05-28T09:59:20Z</time>
      </trkpt>
      <trkpt lat="43.53112" lon="5.57984">
        <ele>931.9</ele>
        <time>2023-05-28T09:59:21Z</time>
      </trkpt>
      <trkpt lat="43.53112" lon="5.57983">
        <ele>931.6</ele>
        <time>2023-05-28T09:59:22Z</time>
      </trkpt>
      <trkpt lat="43.53112" lon="5.57983">
        <ele>931.3</ele>
        <time>2023-05-28T09:59:23Z</time>
      </trkpt>
      <trkpt lat="43.53113" lon="5.57982">
        <ele>931</ele>
        <time>2023-05-28T09:59:24Z</time>
      </trkpt>
      <trkpt lat="43.53113" lon="5.57981">
        <ele>930.8</ele>
        <time>2023-05-28T09:59:25Z</time>
      </trkpt>
      <trkpt lat="43.53114" lon="5.5798">
        <ele>930.6</ele>
        <time>2023-05-28T09:59:26Z</time>
      </trkpt>
      <trkpt lat="43.53113" lon="5.57979">
        <ele>930.4</ele>
        <time>2023-05-28T09:59:27Z</time>
      </trkpt>
      <trkpt lat="43.53114" lon="5.57979">
        <ele>930.3</ele>
        <time>2023-05-28T09:59:28Z</time>
      </trkpt>
      <trkpt lat="43.53114" lon="5.57979">
        <ele>930.1</ele>
        <time>2023-05-28T09:59:29Z</time>
      </trkpt>
      <trkpt lat="43.53114" lon="5.57978">
        <ele>930</ele>
        <time>2023-05-28T09:59:30Z</time>
      </trkpt>
      <trkpt lat="43.53115" lon="5.57977">
        <ele>929.9</ele>
        <time>2023-05-28T09:59:31Z</time>
      </trkpt>
      <trkpt lat="43.53115" lon="5.57977">
        <ele>929.7</ele>
        <time>2023-05-28T09:59:32Z</time>
      </trkpt>
      <trkpt lat="43.53115" lon="5.57977">
        <ele>929.5</ele>
        <time>2023-05-28T09:59:33Z</time>
      </trkpt>
      <trkpt lat="43.53115" lon="5.57976">
        <ele>929.3</ele>
        <time>2023-05-28T09:59:34Z</time>
      </trkpt>
      <trkpt lat="43.53115" lon="5.57975">
        <ele>929.1</ele>
        <time>2023-05-28T09:59:35Z</time>
      </trkpt>
      <trkpt lat="43.53115" lon="5.57975">
        <ele>928.9</ele>
        <time>2023-05-28T09:59:36Z</time>
      </trkpt>
      <trkpt lat="43.53115" lon="5.57975">
        <ele>928.7</ele>
        <time>2023-05-28T09:59:37Z</time>
      </trkpt>
      <trkpt lat="43.53115" lon="5.57974">
        <ele>928.5</ele>
        <time>2023-05-28T09:59:38Z</time>
      </trkpt>
      <trkpt lat="43.53115" lon="5.57974">
        <ele>928.4</ele>
        <time>2023-05-28T09:59:39Z</time>
      </trkpt>
      <trkpt lat="43.53116" lon="5.57973">
        <ele>928.2</ele>
        <time>2023-05-28T09:59:40Z</time>
      </trkpt>
      <trkpt lat="43.53116" lon="5.57972">
        <ele>928</ele>
        <time>2023-05-28T09:59:41Z</time>
      </trkpt>
      <trkpt lat="43.53117" lon="5.57971">
        <ele>927.9</ele>
        <time>2023-05-28T09:59:42Z</time>
      </trkpt>
      <trkpt lat="43.53118" lon="5.5797">
        <ele>927.8</ele>
        <time>2023-05-28T09:59:43Z</time>
      </trkpt>
      <trkpt lat="43.53118" lon="5.5797">
        <ele>927.6</ele>
        <time>2023-05-28T09:59:44Z</time>
      </trkpt>
      <trkpt lat="43.53119" lon="5.57969">
        <ele>927.5</ele>
        <time>2023-05-28T09:59:45Z</time>
      </trkpt>
      <trkpt lat="43.5312" lon="5.57968">
        <ele>927.4</ele>
        <time>2023-05-28T09:59:46Z</time>
      </trkpt>
      <trkpt lat="43.5312" lon="5.57967">
        <ele>927.3</ele>
        <time>2023-05-28T09:59:47Z</time>
      </trkpt>
      <trkpt lat="43.53121" lon="5.57966">
        <ele>927.2</ele>
        <time>2023-05-28T09:59:48Z</time>
      </trkpt>
      <trkpt lat="43.53121" lon="5.57966">
        <ele>927.2</ele>
        <time>2023-05-28T09:59:49Z</time>
      </trkpt>
      <trkpt lat="43.53121" lon="5.57965">
        <ele>927.3</ele>
        <time>2023-05-28T09:59:50Z</time>
      </trkpt>
      <trkpt lat="43.53121" lon="5.57964">
        <ele>927.3</ele>
        <time>2023-05-28T09:59:51Z</time>
      </trkpt>
      <trkpt lat="43.53122" lon="5.57963">
        <ele>927.3</ele>
        <time>2023-05-28T09:59:52Z</time>
      </trkpt>
      <trkpt lat="43.53122" lon="5.57962">
        <ele>927.3</ele>
        <time>2023-05-28T09:59:53Z</time>
      </trkpt>
      <trkpt lat="43.53122" lon="5.57961">
        <ele>927.3</ele>
        <time>2023-05-28T09:59:54Z</time>
      </trkpt>
      <trkpt lat="43.53122" lon="5.5796">
        <ele>927.3</ele>
        <time>2023-05-28T09:59:55Z</time>
      </trkpt>
      <trkpt lat="43.53122" lon="5.57959">
        <ele>927.4</ele>
        <time>2023-05-28T09:59:56Z</time>
      </trkpt>
      <trkpt lat="43.53123" lon="5.57957">
        <ele>927.4</ele>
        <time>2023-05-28T09:59:57Z</time>
      </trkpt>
      <trkpt lat="43.53123" lon="5.57956">
        <ele>927.3</ele>
        <time>2023-05-28T09:59:58Z</time>
      </trkpt>
      <trkpt lat="43.53123" lon="5.57956">
        <ele>927.3</ele>
        <time>2023-05-28T09:59:59Z</time>
      </trkpt>
      <trkpt lat="43.53123" lon="5.57955">
        <ele>927.3</ele>
        <time>2023-05-28T10:00:00Z</time>
      </trkpt>
      <trkpt lat="43.53124" lon="5.57953">
        <ele>927.4</ele>
        <time>2023-05-28T10:00:01Z</time>
      </trkpt>
      <trkpt lat="43.53124" lon="5.57952">
        <ele>927.5</ele>
        <time>2023-05-28T10:00:02Z</time>
      </trkpt>
      <trkpt lat="43.53124" lon="5.57951">
        <ele>927.5</ele>
        <time>2023-05-28T10:00:03Z</time>
      </trkpt>
      <trkpt lat="43.53125" lon="5.57949">
        <ele>927.5</ele>
        <time>2023-05-28T10:00:04Z</time>
      </trkpt>
      <trkpt lat="43.53125" lon="5.57949">
        <ele>927.5</ele>
        <time>2023-05-28T10:00:05Z</time>
      </trkpt>
      <trkpt lat="43.53125" lon="5.57948">
        <ele>927.5</ele>
        <time>2023-05-28T10:00:06Z</time>
      </trkpt>
      <trkpt lat="43.53125" lon="5.57947">
        <ele>927.6</ele>
        <time>2023-05-28T10:00:07Z</time>
      </trkpt>
      <trkpt lat="43.53125" lon="5.57946">
        <ele>927.6</ele>
        <time>2023-05-28T10:00:08Z</time>
      </trkpt>
      <trkpt lat="43.53125" lon="5.57946">
        <ele>927.6</ele>
        <time>2023-05-28T10:00:09Z</time>
      </trkpt>
      <trkpt lat="43.53125" lon="5.57945">
        <ele>927.5</ele>
        <time>2023-05-28T10:00:10Z</time>
      </trkpt>
      <trkpt lat="43.53125" lon="5.57945">
        <ele>927.5</ele>
        <time>2023-05-28T10:00:11Z</time>
      </trkpt>
      <trkpt lat="43.53125" lon="5.57945">
        <ele>927.4</ele>
        <time>2023-05-28T10:00:12Z</time>
      </trkpt>
      <trkpt lat="43.53125" lon="5.57944">
        <ele>927.2</ele>
        <time>2023-05-28T10:00:13Z</time>
      </trkpt>
      <trkpt lat="43.53125" lon="5.57942">
        <ele>927.1</ele>
        <time>2023-05-28T10:00:14Z</time>
      </trkpt>
      <trkpt lat="43.53126" lon="5.57942">
        <ele>926.9</ele>
        <time>2023-05-28T10:00:15Z</time>
      </trkpt>
      <trkpt lat="43.53126" lon="5.57941">
        <ele>926.8</ele>
        <time>2023-05-28T10:00:16Z</time>
      </trkpt>
      <trkpt lat="43.53127" lon="5.57941">
        <ele>926.7</ele>
        <time>2023-05-28T10:00:17Z</time>
      </trkpt>
      <trkpt lat="43.53127" lon="5.57941">
        <ele>926.6</ele>
        <time>2023-05-28T10:00:18Z</time>
      </trkpt>
      <trkpt lat="43.53127" lon="5.5794">
        <ele>926.5</ele>
        <time>2023-05-28T10:00:19Z</time>
      </trkpt>
      <trkpt lat="43.53128" lon="5.5794">
        <ele>926.3</ele>
        <time>2023-05-28T10:00:20Z</time>
      </trkpt>
      <trkpt lat="43.53128" lon="5.57939">
        <ele>926.2</ele>
        <time>2023-05-28T10:00:21Z</time>
      </trkpt>
      <trkpt lat="43.53128" lon="5.57938">
        <ele>926.1</ele>
        <time>2023-05-28T10:00:22Z</time>
      </trkpt>
      <trkpt lat="43.53127" lon="5.57937">
        <ele>925.9</ele>
        <time>2023-05-28T10:00:23Z</time>
      </trkpt>
      <trkpt lat="43.53128" lon="5.57937">
        <ele>925.8</ele>
        <time>2023-05-28T10:00:24Z</time>
      </trkpt>
      <trkpt lat="43.53128" lon="5.57937">
        <ele>925.6</ele>
        <time>2023-05-28T10:00:25Z</time>
      </trkpt>
      <trkpt lat="43.53128" lon="5.57936">
        <ele>925.5</ele>
        <time>2023-05-28T10:00:26Z</time>
      </trkpt>
      <trkpt lat="43.53129" lon="5.57936">
        <ele>925.4</ele>
        <time>2023-05-28T10:00:27Z</time>
      </trkpt>
      <trkpt lat="43.53129" lon="5.57936">
        <ele>925.2</ele>
        <time>2023-05-28T10:00:28Z</time>
      </trkpt>
      <trkpt lat="43.53129" lon="5.57936">
        <ele>925.1</ele>
        <time>2023-05-28T10:00:29Z</time>
      </trkpt>
      <trkpt lat="43.53129" lon="5.57936">
        <ele>925</ele>
        <time>2023-05-28T10:00:30Z</time>
      </trkpt>
      <trkpt lat="43.5313" lon="5.57936">
        <ele>924.8</ele>
        <time>2023-05-28T10:00:31Z</time>
      </trkpt>
      <trkpt lat="43.53131" lon="5.57936">
        <ele>924.7</ele>
        <time>2023-05-28T10:00:32Z</time>
      </trkpt>
      <trkpt lat="43.53131" lon="5.57936">
        <ele>924.5</ele>
        <time>2023-05-28T10:00:33Z</time>
      </trkpt>
      <trkpt lat="43.53131" lon="5.57935">
        <ele>924.4</ele>
        <time>2023-05-28T10:00:34Z</time>
      </trkpt>
      <trkpt lat="43.53131" lon="5.57935">
        <ele>924.3</ele>
        <time>2023-05-28T10:00:35Z</time>
      </trkpt>
      <trkpt lat="43.53132" lon="5.57934">
        <ele>924.1</ele>
        <time>2023-05-28T10:00:36Z</time>
      </trkpt>
      <trkpt lat="43.53132" lon="5.57934">
        <ele>923.9</ele>
        <time>2023-05-28T10:00:37Z</time>
      </trkpt>
      <trkpt lat="43.53132" lon="5.57933">
        <ele>923.5</ele>
        <time>2023-05-28T10:00:38Z</time>
      </trkpt>
      <trkpt lat="43.53133" lon="5.57932">
        <ele>923.4</ele>
        <time>2023-05-28T10:00:39Z</time>
      </trkpt>
      <trkpt lat="43.53133" lon="5.57932">
        <ele>924.2</ele>
        <time>2023-05-28T10:00:40Z</time>
      </trkpt>
      <trkpt lat="43.53133" lon="5.57931">
        <ele>924.1</ele>
        <time>2023-05-28T10:00:41Z</time>
      </trkpt>
      <trkpt lat="43.53133" lon="5.57931">
        <ele>923.9</ele>
        <time>2023-05-28T10:00:42Z</time>
      </trkpt>
      <trkpt lat="43.53134" lon="5.57931">
        <ele>923.8</ele>
        <time>2023-05-28T10:00:43Z</time>
      </trkpt>
      <trkpt lat="43.53133" lon="5.5793">
        <ele>923.6</ele>
        <time>2023-05-28T10:00:44Z</time>
      </trkpt>
      <trkpt lat="43.53133" lon="5.5793">
        <ele>923.4</ele>
        <time>2023-05-28T10:00:45Z</time>
      </trkpt>
      <trkpt lat="43.53133" lon="5.5793">
        <ele>923.3</ele>
        <time>2023-05-28T10:00:46Z</time>
      </trkpt>
      <trkpt lat="43.53133" lon="5.57929">
        <ele>923.1</ele>
        <time>2023-05-28T10:00:47Z</time>
      </trkpt>
      <trkpt lat="43.53133" lon="5.57929">
        <ele>922.9</ele>
        <time>2023-05-28T10:00:48Z</time>
      </trkpt>
      <trkpt lat="43.53133" lon="5.57928">
        <ele>922.6</ele>
        <time>2023-05-28T10:00:49Z</time>
      </trkpt>
      <trkpt lat="43.53133" lon="5.57928">
        <ele>922.5</ele>
        <time>2023-05-28T10:00:50Z</time>
      </trkpt>
      <trkpt lat="43.53133" lon="5.57927">
        <ele>922.3</ele>
        <time>2023-05-28T10:00:51Z</time>
      </trkpt>
      <trkpt lat="43.53133" lon="5.57926">
        <ele>922.1</ele>
        <time>2023-05-28T10:00:52Z</time>
      </trkpt>
      <trkpt lat="43.53133" lon="5.57926">
        <ele>921.9</ele>
        <time>2023-05-28T10:00:53Z</time>
      </trkpt>
      <trkpt lat="43.53133" lon="5.57925">
        <ele>921.6</ele>
        <time>2023-05-28T10:00:54Z</time>
      </trkpt>
      <trkpt lat="43.53133" lon="5.57925">
        <ele>921.4</ele>
        <time>2023-05-28T10:00:55Z</time>
      </trkpt>
      <trkpt lat="43.53133" lon="5.57924">
        <ele>921.2</ele>
        <time>2023-05-28T10:00:56Z</time>
      </trkpt>
      <trkpt lat="43.53133" lon="5.57924">
        <ele>921.1</ele>
        <time>2023-05-28T10:00:57Z</time>
      </trkpt>
      <trkpt lat="43.53133" lon="5.57923">
        <ele>920.9</ele>
        <time>2023-05-28T10:00:58Z</time>
      </trkpt>
      <trkpt lat="43.53134" lon="5.57923">
        <ele>920.7</ele>
        <time>2023-05-28T10:00:59Z</time>
      </trkpt>
      <trkpt lat="43.53134" lon="5.57922">
        <ele>920.6</ele>
        <time>2023-05-28T10:01:00Z</time>
      </trkpt>
      <trkpt lat="43.53134" lon="5.57922">
        <ele>920.4</ele>
        <time>2023-05-28T10:01:01Z</time>
      </trkpt>
      <trkpt lat="43.53135" lon="5.57922">
        <ele>920.3</ele>
        <time>2023-05-28T10:01:02Z</time>
      </trkpt>
      <trkpt lat="43.53135" lon="5.57922">
        <ele>920.1</ele>
        <time>2023-05-28T10:01:03Z</time>
      </trkpt>
      <trkpt lat="43.53135" lon="5.57922">
        <ele>919.9</ele>
        <time>2023-05-28T10:01:04Z</time>
      </trkpt>
      <trkpt lat="43.53135" lon="5.57922">
        <ele>919.9</ele>
        <time>2023-05-28T10:01:05Z</time>
      </trkpt>
      <trkpt lat="43.53135" lon="5.57921">
        <ele>919.8</ele>
        <time>2023-05-28T10:01:06Z</time>
      </trkpt>
      <trkpt lat="43.53135" lon="5.57921">
        <ele>919.8</ele>
        <time>2023-05-28T10:01:07Z</time>
      </trkpt>
      <trkpt lat="43.53135" lon="5.57921">
        <ele>919.7</ele>
        <time>2023-05-28T10:01:08Z</time>
      </trkpt>
      <trkpt lat="43.53136" lon="5.5792">
        <ele>919.6</ele>
        <time>2023-05-28T10:01:09Z</time>
      </trkpt>
      <trkpt lat="43.53136" lon="5.5792">
        <ele>919.4</ele>
        <time>2023-05-28T10:01:10Z</time>
      </trkpt>
      <trkpt lat="43.53136" lon="5.57919">
        <ele>919.3</ele>
        <time>2023-05-28T10:01:11Z</time>
      </trkpt>
      <trkpt lat="43.53136" lon="5.5792">
        <ele>919.1</ele>
        <time>2023-05-28T10:01:12Z</time>
      </trkpt>
      <trkpt lat="43.53136" lon="5.5792">
        <ele>919</ele>
        <time>2023-05-28T10:01:13Z</time>
      </trkpt>
      <trkpt lat="43.53136" lon="5.5792">
        <ele>918.9</ele>
        <time>2023-05-28T10:01:14Z</time>
      </trkpt>
      <trkpt lat="43.53137" lon="5.57919">
        <ele>918.7</ele>
        <time>2023-05-28T10:01:15Z</time>
      </trkpt>
      <trkpt lat="43.53137" lon="5.5792">
        <ele>918.6</ele>
        <time>2023-05-28T10:01:16Z</time>
      </trkpt>
      <trkpt lat="43.53137" lon="5.5792">
        <ele>918.5</ele>
        <time>2023-05-28T10:01:17Z</time>
      </trkpt>
      <trkpt lat="43.53138" lon="5.5792">
        <ele>918.2</ele>
        <time>2023-05-28T10:01:18Z</time>
      </trkpt>
      <trkpt lat="43.53138" lon="5.5792">
        <ele>918.1</ele>
        <time>2023-05-28T10:01:19Z</time>
      </trkpt>
      <trkpt lat="43.53138" lon="5.57919">
        <ele>917.9</ele>
        <time>2023-05-28T10:01:20Z</time>
      </trkpt>
      <trkpt lat="43.53138" lon="5.57918">
        <ele>917.7</ele>
        <time>2023-05-28T10:01:21Z</time>
      </trkpt>
      <trkpt lat="43.53138" lon="5.57917">
        <ele>917.5</ele>
        <time>2023-05-28T10:01:22Z</time>
      </trkpt>
      <trkpt lat="43.53138" lon="5.57917">
        <ele>917.4</ele>
        <time>2023-05-28T10:01:23Z</time>
      </trkpt>
      <trkpt lat="43.53138" lon="5.57916">
        <ele>917.2</ele>
        <time>2023-05-28T10:01:24Z</time>
      </trkpt>
      <trkpt lat="43.53139" lon="5.57916">
        <ele>917</ele>
        <time>2023-05-28T10:01:25Z</time>
      </trkpt>
      <trkpt lat="43.53139" lon="5.57915">
        <ele>916.9</ele>
        <time>2023-05-28T10:01:26Z</time>
      </trkpt>
      <trkpt lat="43.53139" lon="5.57915">
        <ele>916.6</ele>
        <time>2023-05-28T10:01:27Z</time>
      </trkpt>
      <trkpt lat="43.53139" lon="5.57914">
        <ele>916.4</ele>
        <time>2023-05-28T10:01:28Z</time>
      </trkpt>
      <trkpt lat="43.53139" lon="5.57914">
        <ele>916.3</ele>
        <time>2023-05-28T10:01:29Z</time>
      </trkpt>
      <trkpt lat="43.5314" lon="5.57913">
        <ele>916.2</ele>
        <time>2023-05-28T10:01:30Z</time>
      </trkpt>
      <trkpt lat="43.5314" lon="5.57913">
        <ele>916.1</ele>
        <time>2023-05-28T10:01:31Z</time>
      </trkpt>
      <trkpt lat="43.53141" lon="5.57913">
        <ele>915.9</ele>
        <time>2023-05-28T10:01:32Z</time>
      </trkpt>
      <trkpt lat="43.53141" lon="5.57912">
        <ele>915.8</ele>
        <time>2023-05-28T10:01:33Z</time>
      </trkpt>
      <trkpt lat="43.53141" lon="5.57911">
        <ele>915.7</ele>
        <time>2023-05-28T10:01:34Z</time>
      </trkpt>
      <trkpt lat="43.53142" lon="5.5791">
        <ele>915.5</ele>
        <time>2023-05-28T10:01:35Z</time>
      </trkpt>
      <trkpt lat="43.53142" lon="5.5791">
        <ele>915.3</ele>
        <time>2023-05-28T10:01:36Z</time>
      </trkpt>
      <trkpt lat="43.53142" lon="5.5791">
        <ele>915.2</ele>
        <time>2023-05-28T10:01:37Z</time>
      </trkpt>
      <trkpt lat="43.53142" lon="5.57909">
        <ele>915</ele>
        <time>2023-05-28T10:01:38Z</time>
      </trkpt>
      <trkpt lat="43.53142" lon="5.5791">
        <ele>914.9</ele>
        <time>2023-05-28T10:01:39Z</time>
      </trkpt>
      <trkpt lat="43.53142" lon="5.57909">
        <ele>914.9</ele>
        <time>2023-05-28T10:01:40Z</time>
      </trkpt>
      <trkpt lat="43.53142" lon="5.57909">
        <ele>914.8</ele>
        <time>2023-05-28T10:01:41Z</time>
      </trkpt>
      <trkpt lat="43.53142" lon="5.57908">
        <ele>914.8</ele>
        <time>2023-05-28T10:01:42Z</time>
      </trkpt>
      <trkpt lat="43.53142" lon="5.57907">
        <ele>914.8</ele>
        <time>2023-05-28T10:01:43Z</time>
      </trkpt>
      <trkpt lat="43.53142" lon="5.57907">
        <ele>914.8</ele>
        <time>2023-05-28T10:01:44Z</time>
      </trkpt>
      <trkpt lat="43.53143" lon="5.57906">
        <ele>914.7</ele>
        <time>2023-05-28T10:01:45Z</time>
      </trkpt>
      <trkpt lat="43.53143" lon="5.57905">
        <ele>914.6</ele>
        <time>2023-05-28T10:01:46Z</time>
      </trkpt>
      <trkpt lat="43.53144" lon="5.57904">
        <ele>914.6</ele>
        <time>2023-05-28T10:01:47Z</time>
      </trkpt>
      <trkpt lat="43.53144" lon="5.57903">
        <ele>914.5</ele>
        <time>2023-05-28T10:01:48Z</time>
      </trkpt>
      <trkpt lat="43.53145" lon="5.57902">
        <ele>914.4</ele>
        <time>2023-05-28T10:01:49Z</time>
      </trkpt>
      <trkpt lat="43.53145" lon="5.57901">
        <ele>914.3</ele>
        <time>2023-05-28T10:01:50Z</time>
      </trkpt>
      <trkpt lat="43.53145" lon="5.57901">
        <ele>914.2</ele>
        <time>2023-05-28T10:01:51Z</time>
      </trkpt>
      <trkpt lat="43.53145" lon="5.57901">
        <ele>914.2</ele>
        <time>2023-05-28T10:01:52Z</time>
      </trkpt>
      <trkpt lat="43.53146" lon="5.579">
        <ele>914.1</ele>
        <time>2023-05-28T10:01:53Z</time>
      </trkpt>
      <trkpt lat="43.53146" lon="5.579">
        <ele>914</ele>
        <time>2023-05-28T10:01:54Z</time>
      </trkpt>
      <trkpt lat="43.53146" lon="5.579">
        <ele>913.9</ele>
        <time>2023-05-28T10:01:55Z</time>
      </trkpt>
      <trkpt lat="43.53145" lon="5.57899">
        <ele>913.9</ele>
        <time>2023-05-28T10:01:56Z</time>
      </trkpt>
      <trkpt lat="43.53145" lon="5.57899">
        <ele>913.8</ele>
        <time>2023-05-28T10:01:57Z</time>
      </trkpt>
      <trkpt lat="43.53145" lon="5.57899">
        <ele>913.8</ele>
        <time>2023-05-28T10:01:58Z</time>
      </trkpt>
      <trkpt lat="43.53145" lon="5.57898">
        <ele>913.8</ele>
        <time>2023-05-28T10:01:59Z</time>
      </trkpt>
      <trkpt lat="43.53144" lon="5.57897">
        <ele>913.7</ele>
        <time>2023-05-28T10:02:00Z</time>
      </trkpt>
      <trkpt lat="43.53144" lon="5.57897">
        <ele>913.7</ele>
        <time>2023-05-28T10:02:01Z</time>
      </trkpt>
      <trkpt lat="43.53144" lon="5.57896">
        <ele>913.6</ele>
        <time>2023-05-28T10:02:02Z</time>
      </trkpt>
      <trkpt lat="43.53144" lon="5.57895">
        <ele>913.4</ele>
        <time>2023-05-28T10:02:03Z</time>
      </trkpt>
      <trkpt lat="43.53144" lon="5.57895">
        <ele>913.3</ele>
        <time>2023-05-28T10:02:04Z</time>
      </trkpt>
      <trkpt lat="43.53144" lon="5.57894">
        <ele>913.1</ele>
        <time>2023-05-28T10:02:05Z</time>
      </trkpt>
      <trkpt lat="43.53144" lon="5.57893">
        <ele>913</ele>
        <time>2023-05-28T10:02:06Z</time>
      </trkpt>
      <trkpt lat="43.53144" lon="5.57891">
        <ele>912.8</ele>
        <time>2023-05-28T10:02:07Z</time>
      </trkpt>
      <trkpt lat="43.53143" lon="5.57891">
        <ele>912.7</ele>
        <time>2023-05-28T10:02:08Z</time>
      </trkpt>
      <trkpt lat="43.53143" lon="5.5789">
        <ele>912.6</ele>
        <time>2023-05-28T10:02:09Z</time>
      </trkpt>
      <trkpt lat="43.53143" lon="5.57889">
        <ele>912.4</ele>
        <time>2023-05-28T10:02:10Z</time>
      </trkpt>
      <trkpt lat="43.53143" lon="5.57888">
        <ele>912.4</ele>
        <time>2023-05-28T10:02:11Z</time>
      </trkpt>
      <trkpt lat="43.53143" lon="5.57888">
        <ele>912.3</ele>
        <time>2023-05-28T10:02:12Z</time>
      </trkpt>
      <trkpt lat="43.53143" lon="5.57888">
        <ele>912.2</ele>
        <time>2023-05-28T10:02:13Z</time>
      </trkpt>
      <trkpt lat="43.53143" lon="5.57887">
        <ele>912</ele>
        <time>2023-05-28T10:02:14Z</time>
      </trkpt>
      <trkpt lat="43.53143" lon="5.57887">
        <ele>911.9</ele>
        <time>2023-05-28T10:02:15Z</time>
      </trkpt>
      <trkpt lat="43.53143" lon="5.57886">
        <ele>911.6</ele>
        <time>2023-05-28T10:02:16Z</time>
      </trkpt>
      <trkpt lat="43.53143" lon="5.57885">
        <ele>911.3</ele>
        <time>2023-05-28T10:02:17Z</time>
      </trkpt>
      <trkpt lat="43.53143" lon="5.57885">
        <ele>911.1</ele>
        <time>2023-05-28T10:02:18Z</time>
      </trkpt>
      <trkpt lat="43.53143" lon="5.57884">
        <ele>911.1</ele>
        <time>2023-05-28T10:02:19Z</time>
      </trkpt>
      <trkpt lat="43.53143" lon="5.57884">
        <ele>910.9</ele>
        <time>2023-05-28T10:02:20Z</time>
      </trkpt>
      <trkpt lat="43.53143" lon="5.57884">
        <ele>910.8</ele>
        <time>2023-05-28T10:02:21Z</time>
      </trkpt>
      <trkpt lat="43.53144" lon="5.57883">
        <ele>910.6</ele>
        <time>2023-05-28T10:02:22Z</time>
      </trkpt>
      <trkpt lat="43.53144" lon="5.57882">
        <ele>910</ele>
        <time>2023-05-28T10:02:23Z</time>
      </trkpt>
      <trkpt lat="43.53144" lon="5.57881">
        <ele>909.7</ele>
        <time>2023-05-28T10:02:24Z</time>
      </trkpt>
      <trkpt lat="43.53144" lon="5.5788">
        <ele>909.6</ele>
        <time>2023-05-28T10:02:25Z</time>
      </trkpt>
      <trkpt lat="43.53144" lon="5.57879">
        <ele>909.5</ele>
        <time>2023-05-28T10:02:26Z</time>
      </trkpt>
      <trkpt lat="43.53144" lon="5.57879">
        <ele>909.4</ele>
        <time>2023-05-28T10:02:27Z</time>
      </trkpt>
      <trkpt lat="43.53144" lon="5.57878">
        <ele>909.3</ele>
        <time>2023-05-28T10:02:28Z</time>
      </trkpt>
      <trkpt lat="43.53144" lon="5.57878">
        <ele>909.2</ele>
        <time>2023-05-28T10:02:29Z</time>
      </trkpt>
      <trkpt lat="43.53145" lon="5.57877">
        <ele>909.1</ele>
        <time>2023-05-28T10:02:30Z</time>
      </trkpt>
      <trkpt lat="43.53146" lon="5.57877">
        <ele>909</ele>
        <time>2023-05-28T10:02:31Z</time>
      </trkpt>
      <trkpt lat="43.53146" lon="5.57877">
        <ele>908.9</ele>
        <time>2023-05-28T10:02:32Z</time>
      </trkpt>
      <trkpt lat="43.53146" lon="5.57877">
        <ele>908.8</ele>
        <time>2023-05-28T10:02:33Z</time>
      </trkpt>
      <trkpt lat="43.53146" lon="5.57877">
        <ele>908.7</ele>
        <time>2023-05-28T10:02:34Z</time>
      </trkpt>
      <trkpt lat="43.53146" lon="5.57876">
        <ele>908.6</ele>
        <time>2023-05-28T10:02:35Z</time>
      </trkpt>
      <trkpt lat="43.53146" lon="5.57876">
        <ele>908.6</ele>
        <time>2023-05-28T10:02:36Z</time>
      </trkpt>
      <trkpt lat="43.53145" lon="5.57876">
        <ele>908.6</ele>
        <time>2023-05-28T10:02:37Z</time>
      </trkpt>
      <trkpt lat="43.53145" lon="5.57876">
        <ele>908.5</ele>
        <time>2023-05-28T10:02:38Z</time>
      </trkpt>
      <trkpt lat="43.53145" lon="5.57876">
        <ele>908.5</ele>
        <time>2023-05-28T10:02:39Z</time>
      </trkpt>
      <trkpt lat="43.53145" lon="5.57876">
        <ele>908.5</ele>
        <time>2023-05-28T10:02:40Z</time>
      </trkpt>
      <trkpt lat="43.53145" lon="5.57875">
        <ele>908.5</ele>
        <time>2023-05-28T10:02:41Z</time>
      </trkpt>
      <trkpt lat="43.53145" lon="5.57875">
        <ele>908.5</ele>
        <time>2023-05-28T10:02:42Z</time>
      </trkpt>
      <trkpt lat="43.53145" lon="5.57875">
        <ele>908.4</ele>
        <time>2023-05-28T10:02:43Z</time>
      </trkpt>
      <trkpt lat="43.53145" lon="5.57875">
        <ele>908.4</ele>
        <time>2023-05-28T10:02:44Z</time>
      </trkpt>
      <trkpt lat="43.53145" lon="5.57876">
        <ele>908.3</ele>
        <time>2023-05-28T10:02:45Z</time>
      </trkpt>
      <trkpt lat="43.53145" lon="5.57876">
        <ele>908.3</ele>
        <time>2023-05-28T10:02:46Z</time>
      </trkpt>
      <trkpt lat="43.53146" lon="5.57876">
        <ele>908.3</ele>
        <time>2023-05-28T10:02:47Z</time>
      </trkpt>
      <trkpt lat="43.53146" lon="5.57877">
        <ele>908.2</ele>
        <time>2023-05-28T10:02:48Z</time>
      </trkpt>
      <trkpt lat="43.53146" lon="5.57877">
        <ele>908.1</ele>
        <time>2023-05-28T10:02:49Z</time>
      </trkpt>
      <trkpt lat="43.53146" lon="5.57878">
        <ele>908.1</ele>
        <time>2023-05-28T10:02:50Z</time>
      </trkpt>
      <trkpt lat="43.53146" lon="5.57879">
        <ele>908</ele>
        <time>2023-05-28T10:02:51Z</time>
      </trkpt>
      <trkpt lat="43.53146" lon="5.5788">
        <ele>908</ele>
        <time>2023-05-28T10:02:52Z</time>
      </trkpt>
      <trkpt lat="43.53147" lon="5.57881">
        <ele>907.8</ele>
        <time>2023-05-28T10:02:53Z</time>
      </trkpt>
      <trkpt lat="43.53147" lon="5.57881">
        <ele>907.6</ele>
        <time>2023-05-28T10:02:54Z</time>
      </trkpt>
      <trkpt lat="43.53148" lon="5.57881">
        <ele>907.5</ele>
        <time>2023-05-28T10:02:55Z</time>
      </trkpt>
      <trkpt lat="43.53148" lon="5.57882">
        <ele>907.4</ele>
        <time>2023-05-28T10:02:56Z</time>
      </trkpt>
      <trkpt lat="43.53149" lon="5.57882">
        <ele>907.2</ele>
        <time>2023-05-28T10:02:57Z</time>
      </trkpt>
      <trkpt lat="43.53149" lon="5.57882">
        <ele>907.1</ele>
        <time>2023-05-28T10:02:58Z</time>
      </trkpt>
      <trkpt lat="43.53149" lon="5.57882">
        <ele>907</ele>
        <time>2023-05-28T10:02:59Z</time>
      </trkpt>
      <trkpt lat="43.53149" lon="5.57882">
        <ele>906.8</ele>
        <time>2023-05-28T10:03:00Z</time>
      </trkpt>
      <trkpt lat="43.53149" lon="5.57882">
        <ele>906.7</ele>
        <time>2023-05-28T10:03:01Z</time>
      </trkpt>
      <trkpt lat="43.53149" lon="5.57882">
        <ele>906.7</ele>
        <time>2023-05-28T10:03:02Z</time>
      </trkpt>
      <trkpt lat="43.53149" lon="5.57882">
        <ele>906.5</ele>
        <time>2023-05-28T10:03:03Z</time>
      </trkpt>
      <trkpt lat="43.5315" lon="5.57883">
        <ele>906.4</ele>
        <time>2023-05-28T10:03:04Z</time>
      </trkpt>
      <trkpt lat="43.5315" lon="5.57883">
        <ele>906.4</ele>
        <time>2023-05-28T10:03:05Z</time>
      </trkpt>
      <trkpt lat="43.5315" lon="5.57884">
        <ele>906.2</ele>
        <time>2023-05-28T10:03:06Z</time>
      </trkpt>
      <trkpt lat="43.5315" lon="5.57884">
        <ele>906.1</ele>
        <time>2023-05-28T10:03:07Z</time>
      </trkpt>
      <trkpt lat="43.5315" lon="5.57884">
        <ele>906</ele>
        <time>2023-05-28T10:03:08Z</time>
      </trkpt>
      <trkpt lat="43.5315" lon="5.57883">
        <ele>905.8</ele>
        <time>2023-05-28T10:03:09Z</time>
      </trkpt>
      <trkpt lat="43.5315" lon="5.57884">
        <ele>905.7</ele>
        <time>2023-05-28T10:03:10Z</time>
      </trkpt>
      <trkpt lat="43.53151" lon="5.57884">
        <ele>905.5</ele>
        <time>2023-05-28T10:03:11Z</time>
      </trkpt>
      <trkpt lat="43.53151" lon="5.57885">
        <ele>905.3</ele>
        <time>2023-05-28T10:03:12Z</time>
      </trkpt>
      <trkpt lat="43.53151" lon="5.57886">
        <ele>905</ele>
        <time>2023-05-28T10:03:13Z</time>
      </trkpt>
      <trkpt lat="43.53151" lon="5.57886">
        <ele>904.8</ele>
        <time>2023-05-28T10:03:14Z</time>
      </trkpt>
      <trkpt lat="43.53151" lon="5.57887">
        <ele>904.6</ele>
        <time>2023-05-28T10:03:15Z</time>
      </trkpt>
      <trkpt lat="43.53152" lon="5.57887">
        <ele>904.4</ele>
        <time>2023-05-28T10:03:16Z</time>
      </trkpt>
      <trkpt lat="43.53152" lon="5.57887">
        <ele>904.1</ele>
        <time>2023-05-28T10:03:17Z</time>
      </trkpt>
      <trkpt lat="43.53152" lon="5.57887">
        <ele>903.9</ele>
        <time>2023-05-28T10:03:18Z</time>
      </trkpt>
      <trkpt lat="43.53153" lon="5.57887">
        <ele>903.8</ele>
        <time>2023-05-28T10:03:19Z</time>
      </trkpt>
      <trkpt lat="43.53153" lon="5.57887">
        <ele>903.6</ele>
        <time>2023-05-28T10:03:20Z</time>
      </trkpt>
      <trkpt lat="43.53154" lon="5.57887">
        <ele>903.4</ele>
        <time>2023-05-28T10:03:21Z</time>
      </trkpt>
      <trkpt lat="43.53154" lon="5.57886">
        <ele>903.2</ele>
        <time>2023-05-28T10:03:22Z</time>
      </trkpt>
      <trkpt lat="43.53155" lon="5.57887">
        <ele>903.1</ele>
        <time>2023-05-28T10:03:23Z</time>
      </trkpt>
      <trkpt lat="43.53155" lon="5.57887">
        <ele>902.9</ele>
        <time>2023-05-28T10:03:24Z</time>
      </trkpt>
      <trkpt lat="43.53155" lon="5.57887">
        <ele>902.6</ele>
        <time>2023-05-28T10:03:25Z</time>
      </trkpt>
      <trkpt lat="43.53156" lon="5.57886">
        <ele>902.4</ele>
        <time>2023-05-28T10:03:26Z</time>
      </trkpt>
      <trkpt lat="43.53156" lon="5.57887">
        <ele>902.2</ele>
        <time>2023-05-28T10:03:27Z</time>
      </trkpt>
      <trkpt lat="43.53156" lon="5.57886">
        <ele>902.1</ele>
        <time>2023-05-28T10:03:28Z</time>
      </trkpt>
      <trkpt lat="43.53156" lon="5.57886">
        <ele>901.9</ele>
        <time>2023-05-28T10:03:29Z</time>
      </trkpt>
      <trkpt lat="43.53156" lon="5.57886">
        <ele>901.8</ele>
        <time>2023-05-28T10:03:30Z</time>
      </trkpt>
      <trkpt lat="43.53156" lon="5.57886">
        <ele>901.7</ele>
        <time>2023-05-28T10:03:31Z</time>
      </trkpt>
      <trkpt lat="43.53156" lon="5.57887">
        <ele>901.6</ele>
        <time>2023-05-28T10:03:32Z</time>
      </trkpt>
      <trkpt lat="43.53157" lon="5.57886">
        <ele>901.5</ele>
        <time>2023-05-28T10:03:33Z</time>
      </trkpt>
      <trkpt lat="43.53157" lon="5.57886">
        <ele>901.4</ele>
        <time>2023-05-28T10:03:34Z</time>
      </trkpt>
      <trkpt lat="43.53158" lon="5.57886">
        <ele>901.3</ele>
        <time>2023-05-28T10:03:35Z</time>
      </trkpt>
      <trkpt lat="43.53158" lon="5.57886">
        <ele>901</ele>
        <time>2023-05-28T10:03:36Z</time>
      </trkpt>
      <trkpt lat="43.53158" lon="5.57886">
        <ele>900.8</ele>
        <time>2023-05-28T10:03:37Z</time>
      </trkpt>
      <trkpt lat="43.53159" lon="5.57886">
        <ele>900.6</ele>
        <time>2023-05-28T10:03:38Z</time>
      </trkpt>
      <trkpt lat="43.5316" lon="5.57885">
        <ele>900.5</ele>
        <time>2023-05-28T10:03:39Z</time>
      </trkpt>
      <trkpt lat="43.5316" lon="5.57885">
        <ele>900.3</ele>
        <time>2023-05-28T10:03:40Z</time>
      </trkpt>
      <trkpt lat="43.5316" lon="5.57884">
        <ele>900.2</ele>
        <time>2023-05-28T10:03:41Z</time>
      </trkpt>
      <trkpt lat="43.53161" lon="5.57883">
        <ele>900</ele>
        <time>2023-05-28T10:03:42Z</time>
      </trkpt>
      <trkpt lat="43.53161" lon="5.57883">
        <ele>899.8</ele>
        <time>2023-05-28T10:03:43Z</time>
      </trkpt>
      <trkpt lat="43.53161" lon="5.57883">
        <ele>899.7</ele>
        <time>2023-05-28T10:03:44Z</time>
      </trkpt>
      <trkpt lat="43.53161" lon="5.57882">
        <ele>899.7</ele>
        <time>2023-05-28T10:03:45Z</time>
      </trkpt>
      <trkpt lat="43.53161" lon="5.57881">
        <ele>899.6</ele>
        <time>2023-05-28T10:03:46Z</time>
      </trkpt>
      <trkpt lat="43.53162" lon="5.57881">
        <ele>899.3</ele>
        <time>2023-05-28T10:03:47Z</time>
      </trkpt>
      <trkpt lat="43.53162" lon="5.57881">
        <ele>899</ele>
        <time>2023-05-28T10:03:48Z</time>
      </trkpt>
      <trkpt lat="43.53162" lon="5.57882">
        <ele>898.8</ele>
        <time>2023-05-28T10:03:49Z</time>
      </trkpt>
      <trkpt lat="43.53163" lon="5.57882">
        <ele>898.6</ele>
        <time>2023-05-28T10:03:50Z</time>
      </trkpt>
      <trkpt lat="43.53163" lon="5.57882">
        <ele>898.5</ele>
        <time>2023-05-28T10:03:51Z</time>
      </trkpt>
      <trkpt lat="43.53164" lon="5.57883">
        <ele>898.3</ele>
        <time>2023-05-28T10:03:52Z</time>
      </trkpt>
      <trkpt lat="43.53164" lon="5.57883">
        <ele>898</ele>
        <time>2023-05-28T10:03:53Z</time>
      </trkpt>
      <trkpt lat="43.53165" lon="5.57883">
        <ele>897.7</ele>
        <time>2023-05-28T10:03:54Z</time>
      </trkpt>
      <trkpt lat="43.53165" lon="5.57883">
        <ele>897.5</ele>
        <time>2023-05-28T10:03:55Z</time>
      </trkpt>
      <trkpt lat="43.53166" lon="5.57883">
        <ele>897.3</ele>
        <time>2023-05-28T10:03:56Z</time>
      </trkpt>
      <trkpt lat="43.53167" lon="5.57882">
        <ele>897</ele>
        <time>2023-05-28T10:03:57Z</time>
      </trkpt>
      <trkpt lat="43.53167" lon="5.57881">
        <ele>896.8</ele>
        <time>2023-05-28T10:03:58Z</time>
      </trkpt>
      <trkpt lat="43.53167" lon="5.57881">
        <ele>896.7</ele>
        <time>2023-05-28T10:03:59Z</time>
      </trkpt>
      <trkpt lat="43.53167" lon="5.57881">
        <ele>896.4</ele>
        <time>2023-05-28T10:04:00Z</time>
      </trkpt>
      <trkpt lat="43.53168" lon="5.5788">
        <ele>896.2</ele>
        <time>2023-05-28T10:04:01Z</time>
      </trkpt>
      <trkpt lat="43.53168" lon="5.57878">
        <ele>896.1</ele>
        <time>2023-05-28T10:04:02Z</time>
      </trkpt>
      <trkpt lat="43.53168" lon="5.57876">
        <ele>896</ele>
        <time>2023-05-28T10:04:03Z</time>
      </trkpt>
      <trkpt lat="43.53168" lon="5.57876">
        <ele>895.8</ele>
        <time>2023-05-28T10:04:04Z</time>
      </trkpt>
      <trkpt lat="43.53168" lon="5.57876">
        <ele>895.6</ele>
        <time>2023-05-28T10:04:05Z</time>
      </trkpt>
      <trkpt lat="43.53168" lon="5.57875">
        <ele>895.5</ele>
        <time>2023-05-28T10:04:06Z</time>
      </trkpt>
      <trkpt lat="43.53168" lon="5.57875">
        <ele>895.3</ele>
        <time>2023-05-28T10:04:07Z</time>
      </trkpt>
      <trkpt lat="43.53168" lon="5.57874">
        <ele>895.1</ele>
        <time>2023-05-28T10:04:08Z</time>
      </trkpt>
      <trkpt lat="43.53168" lon="5.57874">
        <ele>895</ele>
        <time>2023-05-28T10:04:09Z</time>
      </trkpt>
      <trkpt lat="43.53168" lon="5.57873">
        <ele>894.8</ele>
        <time>2023-05-28T10:04:10Z</time>
      </trkpt>
      <trkpt lat="43.53169" lon="5.57874">
        <ele>894.6</ele>
        <time>2023-05-28T10:04:11Z</time>
      </trkpt>
      <trkpt lat="43.53169" lon="5.57874">
        <ele>894.4</ele>
        <time>2023-05-28T10:04:12Z</time>
      </trkpt>
      <trkpt lat="43.5317" lon="5.57873">
        <ele>894.3</ele>
        <time>2023-05-28T10:04:13Z</time>
      </trkpt>
      <trkpt lat="43.5317" lon="5.57873">
        <ele>894</ele>
        <time>2023-05-28T10:04:14Z</time>
      </trkpt>
      <trkpt lat="43.5317" lon="5.57872">
        <ele>893.8</ele>
        <time>2023-05-28T10:04:15Z</time>
      </trkpt>
      <trkpt lat="43.5317" lon="5.57871">
        <ele>893.6</ele>
        <time>2023-05-28T10:04:16Z</time>
      </trkpt>
      <trkpt lat="43.5317" lon="5.5787">
        <ele>893.5</ele>
        <time>2023-05-28T10:04:17Z</time>
      </trkpt>
      <trkpt lat="43.5317" lon="5.57869">
        <ele>893.5</ele>
        <time>2023-05-28T10:04:18Z</time>
      </trkpt>
      <trkpt lat="43.5317" lon="5.57868">
        <ele>893.4</ele>
        <time>2023-05-28T10:04:19Z</time>
      </trkpt>
      <trkpt lat="43.5317" lon="5.57867">
        <ele>893.4</ele>
        <time>2023-05-28T10:04:20Z</time>
      </trkpt>
      <trkpt lat="43.5317" lon="5.57866">
        <ele>893.4</ele>
        <time>2023-05-28T10:04:21Z</time>
      </trkpt>
      <trkpt lat="43.5317" lon="5.57865">
        <ele>893.4</ele>
        <time>2023-05-28T10:04:22Z</time>
      </trkpt>
      <trkpt lat="43.5317" lon="5.57864">
        <ele>893.3</ele>
        <time>2023-05-28T10:04:23Z</time>
      </trkpt>
      <trkpt lat="43.53169" lon="5.57862">
        <ele>893.3</ele>
        <time>2023-05-28T10:04:24Z</time>
      </trkpt>
      <trkpt lat="43.53169" lon="5.57861">
        <ele>893.2</ele>
        <time>2023-05-28T10:04:25Z</time>
      </trkpt>
      <trkpt lat="43.5317" lon="5.5786">
        <ele>893.2</ele>
        <time>2023-05-28T10:04:26Z</time>
      </trkpt>
      <trkpt lat="43.5317" lon="5.57859">
        <ele>893.2</ele>
        <time>2023-05-28T10:04:27Z</time>
      </trkpt>
      <trkpt lat="43.5317" lon="5.57858">
        <ele>893.2</ele>
        <time>2023-05-28T10:04:28Z</time>
      </trkpt>
      <trkpt lat="43.53171" lon="5.57857">
        <ele>893.2</ele>
        <time>2023-05-28T10:04:29Z</time>
      </trkpt>
      <trkpt lat="43.53171" lon="5.57856">
        <ele>893.2</ele>
        <time>2023-05-28T10:04:30Z</time>
      </trkpt>
      <trkpt lat="43.53171" lon="5.57855">
        <ele>893.3</ele>
        <time>2023-05-28T10:04:31Z</time>
      </trkpt>
      <trkpt lat="43.53171" lon="5.57854">
        <ele>893.3</ele>
        <time>2023-05-28T10:04:32Z</time>
      </trkpt>
      <trkpt lat="43.53171" lon="5.57854">
        <ele>893.1</ele>
        <time>2023-05-28T10:04:33Z</time>
      </trkpt>
      <trkpt lat="43.53169" lon="5.57854">
        <ele>893.1</ele>
        <time>2023-05-28T10:04:34Z</time>
      </trkpt>
      <trkpt lat="43.53168" lon="5.57854">
        <ele>892.9</ele>
        <time>2023-05-28T10:04:35Z</time>
      </trkpt>
      <trkpt lat="43.53168" lon="5.57853">
        <ele>892.8</ele>
        <time>2023-05-28T10:04:36Z</time>
      </trkpt>
      <trkpt lat="43.53167" lon="5.57853">
        <ele>892.7</ele>
        <time>2023-05-28T10:04:37Z</time>
      </trkpt>
      <trkpt lat="43.53166" lon="5.57852">
        <ele>892.6</ele>
        <time>2023-05-28T10:04:38Z</time>
      </trkpt>
      <trkpt lat="43.53166" lon="5.57852">
        <ele>892.6</ele>
        <time>2023-05-28T10:04:39Z</time>
      </trkpt>
      <trkpt lat="43.53166" lon="5.57852">
        <ele>892.5</ele>
        <time>2023-05-28T10:04:40Z</time>
      </trkpt>
      <trkpt lat="43.53166" lon="5.57852">
        <ele>892.4</ele>
        <time>2023-05-28T10:04:41Z</time>
      </trkpt>
      <trkpt lat="43.53166" lon="5.57851">
        <ele>892.3</ele>
        <time>2023-05-28T10:04:42Z</time>
      </trkpt>
      <trkpt lat="43.53166" lon="5.5785">
        <ele>892</ele>
        <time>2023-05-28T10:04:43Z</time>
      </trkpt>
      <trkpt lat="43.53166" lon="5.57849">
        <ele>891.9</ele>
        <time>2023-05-28T10:04:44Z</time>
      </trkpt>
      <trkpt lat="43.53166" lon="5.57848">
        <ele>891.8</ele>
        <time>2023-05-28T10:04:45Z</time>
      </trkpt>
      <trkpt lat="43.53165" lon="5.57848">
        <ele>891.7</ele>
        <time>2023-05-28T10:04:46Z</time>
      </trkpt>
      <trkpt lat="43.53165" lon="5.57847">
        <ele>891.6</ele>
        <time>2023-05-28T10:04:47Z</time>
      </trkpt>
      <trkpt lat="43.53164" lon="5.57846">
        <ele>891.5</ele>
        <time>2023-05-28T10:04:48Z</time>
      </trkpt>
      <trkpt lat="43.53164" lon="5.57845">
        <ele>891.3</ele>
        <time>2023-05-28T10:04:49Z</time>
      </trkpt>
      <trkpt lat="43.53164" lon="5.57843">
        <ele>891.2</ele>
        <time>2023-05-28T10:04:50Z</time>
      </trkpt>
      <trkpt lat="43.53164" lon="5.57842">
        <ele>891.1</ele>
        <time>2023-05-28T10:04:51Z</time>
      </trkpt>
      <trkpt lat="43.53164" lon="5.57841">
        <ele>891</ele>
        <time>2023-05-28T10:04:52Z</time>
      </trkpt>
      <trkpt lat="43.53164" lon="5.5784">
        <ele>891</ele>
        <time>2023-05-28T10:04:53Z</time>
      </trkpt>
      <trkpt lat="43.53165" lon="5.57839">
        <ele>891</ele>
        <time>2023-05-28T10:04:54Z</time>
      </trkpt>
      <trkpt lat="43.53165" lon="5.57839">
        <ele>890.9</ele>
        <time>2023-05-28T10:04:55Z</time>
      </trkpt>
      <trkpt lat="43.53165" lon="5.57838">
        <ele>891</ele>
        <time>2023-05-28T10:04:56Z</time>
      </trkpt>
      <trkpt lat="43.53165" lon="5.57838">
        <ele>891</ele>
        <time>2023-05-28T10:04:57Z</time>
      </trkpt>
      <trkpt lat="43.53166" lon="5.57838">
        <ele>891.1</ele>
        <time>2023-05-28T10:04:58Z</time>
      </trkpt>
      <trkpt lat="43.53166" lon="5.57837">
        <ele>891.2</ele>
        <time>2023-05-28T10:04:59Z</time>
      </trkpt>
      <trkpt lat="43.53166" lon="5.57836">
        <ele>891.2</ele>
        <time>2023-05-28T10:05:00Z</time>
      </trkpt>
      <trkpt lat="43.53167" lon="5.57834">
        <ele>891.3</ele>
        <time>2023-05-28T10:05:01Z</time>
      </trkpt>
      <trkpt lat="43.53168" lon="5.57833">
        <ele>891.3</ele>
        <time>2023-05-28T10:05:02Z</time>
      </trkpt>
      <trkpt lat="43.53169" lon="5.57831">
        <ele>891.4</ele>
        <time>2023-05-28T10:05:03Z</time>
      </trkpt>
      <trkpt lat="43.53169" lon="5.57831">
        <ele>891.4</ele>
        <time>2023-05-28T10:05:04Z</time>
      </trkpt>
      <trkpt lat="43.5317" lon="5.5783">
        <ele>891.4</ele>
        <time>2023-05-28T10:05:05Z</time>
      </trkpt>
      <trkpt lat="43.5317" lon="5.57829">
        <ele>891.5</ele>
        <time>2023-05-28T10:05:06Z</time>
      </trkpt>
      <trkpt lat="43.53171" lon="5.57829">
        <ele>891.6</ele>
        <time>2023-05-28T10:05:07Z</time>
      </trkpt>
      <trkpt lat="43.53171" lon="5.57829">
        <ele>891.7</ele>
        <time>2023-05-28T10:05:08Z</time>
      </trkpt>
      <trkpt lat="43.53171" lon="5.57828">
        <ele>891.8</ele>
        <time>2023-05-28T10:05:09Z</time>
      </trkpt>
      <trkpt lat="43.53171" lon="5.57828">
        <ele>891.8</ele>
        <time>2023-05-28T10:05:10Z</time>
      </trkpt>
      <trkpt lat="43.53172" lon="5.57826">
        <ele>891.8</ele>
        <time>2023-05-28T10:05:11Z</time>
      </trkpt>
      <trkpt lat="43.53172" lon="5.57825">
        <ele>891.8</ele>
        <time>2023-05-28T10:05:12Z</time>
      </trkpt>
      <trkpt lat="43.53173" lon="5.57823">
        <ele>891.7</ele>
        <time>2023-05-28T10:05:13Z</time>
      </trkpt>
      <trkpt lat="43.53173" lon="5.57822">
        <ele>891.7</ele>
        <time>2023-05-28T10:05:14Z</time>
      </trkpt>
      <trkpt lat="43.53173" lon="5.57821">
        <ele>891.6</ele>
        <time>2023-05-28T10:05:15Z</time>
      </trkpt>
      <trkpt lat="43.53173" lon="5.5782">
        <ele>891.6</ele>
        <time>2023-05-28T10:05:16Z</time>
      </trkpt>
      <trkpt lat="43.53173" lon="5.5782">
        <ele>891.5</ele>
        <time>2023-05-28T10:05:17Z</time>
      </trkpt>
      <trkpt lat="43.53172" lon="5.5782">
        <ele>891.4</ele>
        <time>2023-05-28T10:05:18Z</time>
      </trkpt>
      <trkpt lat="43.53172" lon="5.5782">
        <ele>891.4</ele>
        <time>2023-05-28T10:05:19Z</time>
      </trkpt>
      <trkpt lat="43.53172" lon="5.57819">
        <ele>891.4</ele>
        <time>2023-05-28T10:05:20Z</time>
      </trkpt>
      <trkpt lat="43.53172" lon="5.57819">
        <ele>891.4</ele>
        <time>2023-05-28T10:05:21Z</time>
      </trkpt>
      <trkpt lat="43.53172" lon="5.57819">
        <ele>891.4</ele>
        <time>2023-05-28T10:05:22Z</time>
      </trkpt>
      <trkpt lat="43.53172" lon="5.57819">
        <ele>891.4</ele>
        <time>2023-05-28T10:05:23Z</time>
      </trkpt>
      <trkpt lat="43.53172" lon="5.57818">
        <ele>891.4</ele>
        <time>2023-05-28T10:05:24Z</time>
      </trkpt>
      <trkpt lat="43.53172" lon="5.57818">
        <ele>891.4</ele>
        <time>2023-05-28T10:05:25Z</time>
      </trkpt>
      <trkpt lat="43.53172" lon="5.57818">
        <ele>891.4</ele>
        <time>2023-05-28T10:05:26Z</time>
      </trkpt>
      <trkpt lat="43.53172" lon="5.57817">
        <ele>891.5</ele>
        <time>2023-05-28T10:05:27Z</time>
      </trkpt>
      <trkpt lat="43.53172" lon="5.57817">
        <ele>891.5</ele>
        <time>2023-05-28T10:05:28Z</time>
      </trkpt>
      <trkpt lat="43.53173" lon="5.57817">
        <ele>891.6</ele>
        <time>2023-05-28T10:05:29Z</time>
      </trkpt>
      <trkpt lat="43.53173" lon="5.57817">
        <ele>891.5</ele>
        <time>2023-05-28T10:05:30Z</time>
      </trkpt>
      <trkpt lat="43.53173" lon="5.57817">
        <ele>891.4</ele>
        <time>2023-05-28T10:05:31Z</time>
      </trkpt>
      <trkpt lat="43.53174" lon="5.57818">
        <ele>891.4</ele>
        <time>2023-05-28T10:05:32Z</time>
      </trkpt>
      <trkpt lat="43.53173" lon="5.57818">
        <ele>891.3</ele>
        <time>2023-05-28T10:05:33Z</time>
      </trkpt>
      <trkpt lat="43.53173" lon="5.57818">
        <ele>891.3</ele>
        <time>2023-05-28T10:05:34Z</time>
      </trkpt>
      <trkpt lat="43.53173" lon="5.57817">
        <ele>891.3</ele>
        <time>2023-05-28T10:05:35Z</time>
      </trkpt>
      <trkpt lat="43.53172" lon="5.57817">
        <ele>891.4</ele>
        <time>2023-05-28T10:05:36Z</time>
      </trkpt>
      <trkpt lat="43.53171" lon="5.57817">
        <ele>891.4</ele>
        <time>2023-05-28T10:05:37Z</time>
      </trkpt>
      <trkpt lat="43.53171" lon="5.57816">
        <ele>891.4</ele>
        <time>2023-05-28T10:05:38Z</time>
      </trkpt>
      <trkpt lat="43.5317" lon="5.57816">
        <ele>891.4</ele>
        <time>2023-05-28T10:05:39Z</time>
      </trkpt>
      <trkpt lat="43.5317" lon="5.57815">
        <ele>891.4</ele>
        <time>2023-05-28T10:05:40Z</time>
      </trkpt>
      <trkpt lat="43.53169" lon="5.57815">
        <ele>891.4</ele>
        <time>2023-05-28T10:05:41Z</time>
      </trkpt>
      <trkpt lat="43.5317" lon="5.57815">
        <ele>891.4</ele>
        <time>2023-05-28T10:05:42Z</time>
      </trkpt>
      <trkpt lat="43.53169" lon="5.57815">
        <ele>891.4</ele>
        <time>2023-05-28T10:05:43Z</time>
      </trkpt>
      <trkpt lat="43.5317" lon="5.57815">
        <ele>891.5</ele>
        <time>2023-05-28T10:05:44Z</time>
      </trkpt>
      <trkpt lat="43.53169" lon="5.57815">
        <ele>891.5</ele>
        <time>2023-05-28T10:05:45Z</time>
      </trkpt>
      <trkpt lat="43.53168" lon="5.57815">
        <ele>891.5</ele>
        <time>2023-05-28T10:05:46Z</time>
      </trkpt>
      <trkpt lat="43.53168" lon="5.57815">
        <ele>891.5</ele>
        <time>2023-05-28T10:05:47Z</time>
      </trkpt>
      <trkpt lat="43.53167" lon="5.57815">
        <ele>891.5</ele>
        <time>2023-05-28T10:05:48Z</time>
      </trkpt>
      <trkpt lat="43.53167" lon="5.57816">
        <ele>891.4</ele>
        <time>2023-05-28T10:05:49Z</time>
      </trkpt>
      <trkpt lat="43.53167" lon="5.57817">
        <ele>891.4</ele>
        <time>2023-05-28T10:05:50Z</time>
      </trkpt>
      <trkpt lat="43.53167" lon="5.57818">
        <ele>891.3</ele>
        <time>2023-05-28T10:05:51Z</time>
      </trkpt>
      <trkpt lat="43.53167" lon="5.57819">
        <ele>891.3</ele>
        <time>2023-05-28T10:05:52Z</time>
      </trkpt>
      <trkpt lat="43.53166" lon="5.57819">
        <ele>891.2</ele>
        <time>2023-05-28T10:05:53Z</time>
      </trkpt>
      <trkpt lat="43.53166" lon="5.5782">
        <ele>891.2</ele>
        <time>2023-05-28T10:05:54Z</time>
      </trkpt>
      <trkpt lat="43.53166" lon="5.57821">
        <ele>891.2</ele>
        <time>2023-05-28T10:05:55Z</time>
      </trkpt>
      <trkpt lat="43.53165" lon="5.57821">
        <ele>891.2</ele>
        <time>2023-05-28T10:05:56Z</time>
      </trkpt>
      <trkpt lat="43.53165" lon="5.57822">
        <ele>891.2</ele>
        <time>2023-05-28T10:05:57Z</time>
      </trkpt>
      <trkpt lat="43.53165" lon="5.57822">
        <ele>891.3</ele>
        <time>2023-05-28T10:05:58Z</time>
      </trkpt>
      <trkpt lat="43.53165" lon="5.57823">
        <ele>891.3</ele>
        <time>2023-05-28T10:05:59Z</time>
      </trkpt>
      <trkpt lat="43.53165" lon="5.57823">
        <ele>891.3</ele>
        <time>2023-05-28T10:06:00Z</time>
      </trkpt>
      <trkpt lat="43.53164" lon="5.57824">
        <ele>891.3</ele>
        <time>2023-05-28T10:06:01Z</time>
      </trkpt>
      <trkpt lat="43.53164" lon="5.57825">
        <ele>891.4</ele>
        <time>2023-05-28T10:06:02Z</time>
      </trkpt>
      <trkpt lat="43.53164" lon="5.57825">
        <ele>891.4</ele>
        <time>2023-05-28T10:06:03Z</time>
      </trkpt>
      <trkpt lat="43.53164" lon="5.57827">
        <ele>891.4</ele>
        <time>2023-05-28T10:06:04Z</time>
      </trkpt>
      <trkpt lat="43.53164" lon="5.57827">
        <ele>891.3</ele>
        <time>2023-05-28T10:06:05Z</time>
      </trkpt>
      <trkpt lat="43.53164" lon="5.57828">
        <ele>891.2</ele>
        <time>2023-05-28T10:06:06Z</time>
      </trkpt>
      <trkpt lat="43.53164" lon="5.57828">
        <ele>891.1</ele>
        <time>2023-05-28T10:06:07Z</time>
      </trkpt>
      <trkpt lat="43.53163" lon="5.57828">
        <ele>891.1</ele>
        <time>2023-05-28T10:06:08Z</time>
      </trkpt>
      <trkpt lat="43.53163" lon="5.57828">
        <ele>891</ele>
        <time>2023-05-28T10:06:09Z</time>
      </trkpt>
      <trkpt lat="43.53163" lon="5.57829">
        <ele>891</ele>
        <time>2023-05-28T10:06:10Z</time>
      </trkpt>
      <trkpt lat="43.53163" lon="5.57829">
        <ele>891</ele>
        <time>2023-05-28T10:06:11Z</time>
      </trkpt>
      <trkpt lat="43.53162" lon="5.57829">
        <ele>891</ele>
        <time>2023-05-28T10:06:12Z</time>
      </trkpt>
      <trkpt lat="43.53162" lon="5.57829">
        <ele>890.9</ele>
        <time>2023-05-28T10:06:13Z</time>
      </trkpt>
      <trkpt lat="43.53162" lon="5.5783">
        <ele>890.9</ele>
        <time>2023-05-28T10:06:14Z</time>
      </trkpt>
      <trkpt lat="43.53161" lon="5.5783">
        <ele>890.8</ele>
        <time>2023-05-28T10:06:15Z</time>
      </trkpt>
      <trkpt lat="43.53161" lon="5.5783">
        <ele>890.9</ele>
        <time>2023-05-28T10:06:16Z</time>
      </trkpt>
      <trkpt lat="43.5316" lon="5.5783">
        <ele>890.8</ele>
        <time>2023-05-28T10:06:17Z</time>
      </trkpt>
      <trkpt lat="43.5316" lon="5.5783">
        <ele>890.8</ele>
        <time>2023-05-28T10:06:18Z</time>
      </trkpt>
      <trkpt lat="43.5316" lon="5.57831">
        <ele>890.8</ele>
        <time>2023-05-28T10:06:19Z</time>
      </trkpt>
      <trkpt lat="43.53159" lon="5.57831">
        <ele>890.8</ele>
        <time>2023-05-28T10:06:20Z</time>
      </trkpt>
      <trkpt lat="43.53159" lon="5.57831">
        <ele>890.8</ele>
        <time>2023-05-28T10:06:21Z</time>
      </trkpt>
      <trkpt lat="43.53159" lon="5.57831">
        <ele>890.8</ele>
        <time>2023-05-28T10:06:22Z</time>
      </trkpt>
      <trkpt lat="43.53159" lon="5.57831">
        <ele>890.8</ele>
        <time>2023-05-28T10:06:23Z</time>
      </trkpt>
      <trkpt lat="43.53159" lon="5.57831">
        <ele>890.8</ele>
        <time>2023-05-28T10:06:24Z</time>
      </trkpt>
      <trkpt lat="43.53159" lon="5.57831">
        <ele>890.8</ele>
        <time>2023-05-28T10:06:25Z</time>
      </trkpt>
      <trkpt lat="43.53159" lon="5.57831">
        <ele>890.8</ele>
        <time>2023-05-28T10:06:26Z</time>
      </trkpt>
      <trkpt lat="43.53158" lon="5.57831">
        <ele>890.8</ele>
        <time>2023-05-28T10:06:27Z</time>
      </trkpt>
      <trkpt lat="43.53158" lon="5.57831">
        <ele>890.8</ele>
        <time>2023-05-28T10:06:28Z</time>
      </trkpt>
      <trkpt lat="43.53157" lon="5.57832">
        <ele>890.7</ele>
        <time>2023-05-28T10:06:29Z</time>
      </trkpt>
      <trkpt lat="43.53156" lon="5.57832">
        <ele>890.7</ele>
        <time>2023-05-28T10:06:30Z</time>
      </trkpt>
      <trkpt lat="43.53156" lon="5.57833">
        <ele>890.7</ele>
        <time>2023-05-28T10:06:31Z</time>
      </trkpt>
      <trkpt lat="43.53156" lon="5.57833">
        <ele>890.7</ele>
        <time>2023-05-28T10:06:32Z</time>
      </trkpt>
      <trkpt lat="43.53156" lon="5.57833">
        <ele>890.7</ele>
        <time>2023-05-28T10:06:33Z</time>
      </trkpt>
      <trkpt lat="43.53156" lon="5.57833">
        <ele>890.7</ele>
        <time>2023-05-28T10:06:34Z</time>
      </trkpt>
      <trkpt lat="43.53156" lon="5.57834">
        <ele>890.8</ele>
        <time>2023-05-28T10:06:35Z</time>
      </trkpt>
      <trkpt lat="43.53156" lon="5.57834">
        <ele>890.7</ele>
        <time>2023-05-28T10:06:36Z</time>
      </trkpt>
      <trkpt lat="43.53156" lon="5.57834">
        <ele>890.7</ele>
        <time>2023-05-28T10:06:37Z</time>
      </trkpt>
      <trkpt lat="43.53156" lon="5.57834">
        <ele>890.6</ele>
        <time>2023-05-28T10:06:38Z</time>
      </trkpt>
      <trkpt lat="43.53156" lon="5.57835">
        <ele>890.8</ele>
        <time>2023-05-28T10:06:39Z</time>
      </trkpt>
      <trkpt lat="43.53156" lon="5.57835">
        <ele>890.8</ele>
        <time>2023-05-28T10:06:40Z</time>
      </trkpt>
      <trkpt lat="43.53157" lon="5.57835">
        <ele>890.8</ele>
        <time>2023-05-28T10:06:41Z</time>
      </trkpt>
      <trkpt lat="43.53157" lon="5.57835">
        <ele>890.8</ele>
        <time>2023-05-28T10:06:42Z</time>
      </trkpt>
      <trkpt lat="43.53157" lon="5.57835">
        <ele>890.8</ele>
        <time>2023-05-28T10:06:43Z</time>
      </trkpt>
      <trkpt lat="43.53157" lon="5.57835">
        <ele>890.8</ele>
        <time>2023-05-28T10:06:44Z</time>
      </trkpt>
      <trkpt lat="43.53157" lon="5.57835">
        <ele>890.8</ele>
        <time>2023-05-28T10:06:45Z</time>
      </trkpt>
      <trkpt lat="43.53157" lon="5.57835">
        <ele>890.8</ele>
        <time>2023-05-28T10:06:46Z</time>
      </trkpt>
      <trkpt lat="43.53157" lon="5.57835">
        <ele>890.9</ele>
        <time>2023-05-28T10:06:47Z</time>
      </trkpt>
      <trkpt lat="43.53157" lon="5.57835">
        <ele>890.9</ele>
        <time>2023-05-28T10:06:48Z</time>
      </trkpt>
      <trkpt lat="43.53157" lon="5.57836">
        <ele>890.9</ele>
        <time>2023-05-28T10:06:49Z</time>
      </trkpt>
      <trkpt lat="43.53157" lon="5.57836">
        <ele>890.9</ele>
        <time>2023-05-28T10:06:50Z</time>
      </trkpt>
      <trkpt lat="43.53157" lon="5.57836">
        <ele>890.9</ele>
        <time>2023-05-28T10:06:51Z</time>
      </trkpt>
      <trkpt lat="43.53157" lon="5.57836">
        <ele>891</ele>
        <time>2023-05-28T10:06:52Z</time>
      </trkpt>
      <trkpt lat="43.53157" lon="5.57836">
        <ele>891</ele>
        <time>2023-05-28T10:06:53Z</time>
      </trkpt>
      <trkpt lat="43.53157" lon="5.57837">
        <ele>890.9</ele>
        <time>2023-05-28T10:06:54Z</time>
      </trkpt>
      <trkpt lat="43.53157" lon="5.57837">
        <ele>890.9</ele>
        <time>2023-05-28T10:06:55Z</time>
      </trkpt>
      <trkpt lat="43.53157" lon="5.57837">
        <ele>890.9</ele>
        <time>2023-05-28T10:06:56Z</time>
      </trkpt>
      <trkpt lat="43.53157" lon="5.57837">
        <ele>890.9</ele>
        <time>2023-05-28T10:06:57Z</time>
      </trkpt>
      <trkpt lat="43.53157" lon="5.57838">
        <ele>890.9</ele>
        <time>2023-05-28T10:06:58Z</time>
      </trkpt>
      <trkpt lat="43.53157" lon="5.57838">
        <ele>890.8</ele>
        <time>2023-05-28T10:06:59Z</time>
      </trkpt>
      <trkpt lat="43.53157" lon="5.57838">
        <ele>890.9</ele>
        <time>2023-05-28T10:07:00Z</time>
      </trkpt>
      <trkpt lat="43.53157" lon="5.57838">
        <ele>890.8</ele>
        <time>2023-05-28T10:07:01Z</time>
      </trkpt>
      <trkpt lat="43.53157" lon="5.57839">
        <ele>890.8</ele>
        <time>2023-05-28T10:07:02Z</time>
      </trkpt>
      <trkpt lat="43.53157" lon="5.57839">
        <ele>890.8</ele>
        <time>2023-05-28T10:07:03Z</time>
      </trkpt>
      <trkpt lat="43.53157" lon="5.57839">
        <ele>890.8</ele>
        <time>2023-05-28T10:07:04Z</time>
      </trkpt>
      <trkpt lat="43.53157" lon="5.57839">
        <ele>890.7</ele>
        <time>2023-05-28T10:07:05Z</time>
      </trkpt>
      <trkpt lat="43.53157" lon="5.57839">
        <ele>890.6</ele>
        <time>2023-05-28T10:07:06Z</time>
      </trkpt>
      <trkpt lat="43.53157" lon="5.57839">
        <ele>890.5</ele>
        <time>2023-05-28T10:07:07Z</time>
      </trkpt>
      <trkpt lat="43.53157" lon="5.5784">
        <ele>890.5</ele>
        <time>2023-05-28T10:07:08Z</time>
      </trkpt>
      <trkpt lat="43.53157" lon="5.5784">
        <ele>890.5</ele>
        <time>2023-05-28T10:07:09Z</time>
      </trkpt>
      <trkpt lat="43.53157" lon="5.5784">
        <ele>890.5</ele>
        <time>2023-05-28T10:07:10Z</time>
      </trkpt>
      <trkpt lat="43.53157" lon="5.5784">
        <ele>890.7</ele>
        <time>2023-05-28T10:07:11Z</time>
      </trkpt>
      <trkpt lat="43.53157" lon="5.57841">
        <ele>890.8</ele>
        <time>2023-05-28T10:07:12Z</time>
      </trkpt>
      <trkpt lat="43.53157" lon="5.57841">
        <ele>890.9</ele>
        <time>2023-05-28T10:07:13Z</time>
      </trkpt>
      <trkpt lat="43.53157" lon="5.57841">
        <ele>890.9</ele>
        <time>2023-05-28T10:07:14Z</time>
      </trkpt>
      <trkpt lat="43.53157" lon="5.57841">
        <ele>891</ele>
        <time>2023-05-28T10:07:15Z</time>
      </trkpt>
      <trkpt lat="43.53157" lon="5.57841">
        <ele>891.1</ele>
        <time>2023-05-28T10:07:16Z</time>
      </trkpt>
      <trkpt lat="43.53157" lon="5.57841">
        <ele>891.1</ele>
        <time>2023-05-28T10:07:17Z</time>
      </trkpt>
      <trkpt lat="43.53157" lon="5.57841">
        <ele>891.1</ele>
        <time>2023-05-28T10:07:18Z</time>
      </trkpt>
      <trkpt lat="43.53157" lon="5.57841">
        <ele>891.2</ele>
        <time>2023-05-28T10:07:19Z</time>
      </trkpt>
      <trkpt lat="43.53157" lon="5.57841">
        <ele>891.2</ele>
        <time>2023-05-28T10:07:20Z</time>
      </trkpt>
      <trkpt lat="43.53157" lon="5.57841">
        <ele>891.2</ele>
        <time>2023-05-28T10:07:21Z</time>
      </trkpt>
      <trkpt lat="43.53157" lon="5.57842">
        <ele>891.2</ele>
        <time>2023-05-28T10:07:22Z</time>
      </trkpt>
      <trkpt lat="43.53157" lon="5.57842">
        <ele>891.1</ele>
        <time>2023-05-28T10:07:23Z</time>
      </trkpt>
      <trkpt lat="43.53157" lon="5.57842">
        <ele>891.1</ele>
        <time>2023-05-28T10:07:24Z</time>
      </trkpt>
      <trkpt lat="43.53157" lon="5.57842">
        <ele>891.1</ele>
        <time>2023-05-28T10:07:25Z</time>
      </trkpt>
      <trkpt lat="43.53157" lon="5.57842">
        <ele>891</ele>
        <time>2023-05-28T10:07:26Z</time>
      </trkpt>
      <trkpt lat="43.53157" lon="5.57842">
        <ele>891</ele>
        <time>2023-05-28T10:07:27Z</time>
      </trkpt>
      <trkpt lat="43.53157" lon="5.57842">
        <ele>891.1</ele>
        <time>2023-05-28T10:07:28Z</time>
      </trkpt>
      <trkpt lat="43.53157" lon="5.57842">
        <ele>891.1</ele>
        <time>2023-05-28T10:07:29Z</time>
      </trkpt>
      <trkpt lat="43.53157" lon="5.57842">
        <ele>891.2</ele>
        <time>2023-05-28T10:07:30Z</time>
      </trkpt>
      <trkpt lat="43.53157" lon="5.57842">
        <ele>891.2</ele>
        <time>2023-05-28T10:07:31Z</time>
      </trkpt>
      <trkpt lat="43.53157" lon="5.57842">
        <ele>891.2</ele>
        <time>2023-05-28T10:07:32Z</time>
      </trkpt>
      <trkpt lat="43.53157" lon="5.57842">
        <ele>891.2</ele>
        <time>2023-05-28T10:07:33Z</time>
      </trkpt>
      <trkpt lat="43.53157" lon="5.57842">
        <ele>891.2</ele>
        <time>2023-05-28T10:07:34Z</time>
      </trkpt>
      <trkpt lat="43.53157" lon="5.57842">
        <ele>891.2</ele>
        <time>2023-05-28T10:07:35Z</time>
      </trkpt>
      <trkpt lat="43.53157" lon="5.57842">
        <ele>891.1</ele>
        <time>2023-05-28T10:07:36Z</time>
      </trkpt>
      <trkpt lat="43.53157" lon="5.57842">
        <ele>891</ele>
        <time>2023-05-28T10:07:37Z</time>
      </trkpt>
      <trkpt lat="43.53157" lon="5.57842">
        <ele>891</ele>
        <time>2023-05-28T10:07:38Z</time>
      </trkpt>
      <trkpt lat="43.53157" lon="5.57842">
        <ele>891</ele>
        <time>2023-05-28T10:07:39Z</time>
      </trkpt>
      <trkpt lat="43.53157" lon="5.57842">
        <ele>890.9</ele>
        <time>2023-05-28T10:07:40Z</time>
      </trkpt>
      <trkpt lat="43.53157" lon="5.57842">
        <ele>890.9</ele>
        <time>2023-05-28T10:07:41Z</time>
      </trkpt>
      <trkpt lat="43.53157" lon="5.57842">
        <ele>891</ele>
        <time>2023-05-28T10:07:42Z</time>
      </trkpt>
      <trkpt lat="43.53157" lon="5.57842">
        <ele>891</ele>
        <time>2023-05-28T10:07:43Z</time>
      </trkpt>
      <trkpt lat="43.53157" lon="5.57843">
        <ele>891</ele>
        <time>2023-05-28T10:07:44Z</time>
      </trkpt>
      <trkpt lat="43.53157" lon="5.57843">
        <ele>890.9</ele>
        <time>2023-05-28T10:07:45Z</time>
      </trkpt>
      <trkpt lat="43.53157" lon="5.57843">
        <ele>890.9</ele>
        <time>2023-05-28T10:07:46Z</time>
      </trkpt>
      <trkpt lat="43.53157" lon="5.57843">
        <ele>890.9</ele>
        <time>2023-05-28T10:07:47Z</time>
      </trkpt>
      <trkpt lat="43.53157" lon="5.57843">
        <ele>890.9</ele>
        <time>2023-05-28T10:07:48Z</time>
      </trkpt>
      <trkpt lat="43.53157" lon="5.57843">
        <ele>890.8</ele>
        <time>2023-05-28T10:07:49Z</time>
      </trkpt>
      <trkpt lat="43.53157" lon="5.57843">
        <ele>890.8</ele>
        <time>2023-05-28T10:07:50Z</time>
      </trkpt>
      <trkpt lat="43.53157" lon="5.57843">
        <ele>890.8</ele>
        <time>2023-05-28T10:07:51Z</time>
      </trkpt>
      <trkpt lat="43.53157" lon="5.57843">
        <ele>890.8</ele>
        <time>2023-05-28T10:07:52Z</time>
      </trkpt>
      <trkpt lat="43.53157" lon="5.57843">
        <ele>890.8</ele>
        <time>2023-05-28T10:07:53Z</time>
      </trkpt>
      <trkpt lat="43.53157" lon="5.57843">
        <ele>890.8</ele>
        <time>2023-05-28T10:07:54Z</time>
      </trkpt>
      <trkpt lat="43.53157" lon="5.57843">
        <ele>890.8</ele>
        <time>2023-05-28T10:07:55Z</time>
      </trkpt>
      <trkpt lat="43.53156" lon="5.57842">
        <ele>890.9</ele>
        <time>2023-05-28T10:07:56Z</time>
      </trkpt>
      <trkpt lat="43.53156" lon="5.57842">
        <ele>890.9</ele>
        <time>2023-05-28T10:07:57Z</time>
      </trkpt>
      <trkpt lat="43.53156" lon="5.57841">
        <ele>890.9</ele>
        <time>2023-05-28T10:07:58Z</time>
      </trkpt>
      <trkpt lat="43.53156" lon="5.57841">
        <ele>890.9</ele>
        <time>2023-05-28T10:07:59Z</time>
      </trkpt>
      <trkpt lat="43.53156" lon="5.57841">
        <ele>890.8</ele>
        <time>2023-05-28T10:08:00Z</time>
      </trkpt>
      <trkpt lat="43.53156" lon="5.5784">
        <ele>890.9</ele>
        <time>2023-05-28T10:08:01Z</time>
      </trkpt>
      <trkpt lat="43.53156" lon="5.5784">
        <ele>890.9</ele>
        <time>2023-05-28T10:08:02Z</time>
      </trkpt>
      <trkpt lat="43.53156" lon="5.5784">
        <ele>890.9</ele>
        <time>2023-05-28T10:08:03Z</time>
      </trkpt>
      <trkpt lat="43.53155" lon="5.5784">
        <ele>890.9</ele>
        <time>2023-05-28T10:08:04Z</time>
      </trkpt>
      <trkpt lat="43.53155" lon="5.5784">
        <ele>890.9</ele>
        <time>2023-05-28T10:08:05Z</time>
      </trkpt>
      <trkpt lat="43.53155" lon="5.57839">
        <ele>890.9</ele>
        <time>2023-05-28T10:08:06Z</time>
      </trkpt>
      <trkpt lat="43.53155" lon="5.57839">
        <ele>890.9</ele>
        <time>2023-05-28T10:08:07Z</time>
      </trkpt>
      <trkpt lat="43.53155" lon="5.57839">
        <ele>890.9</ele>
        <time>2023-05-28T10:08:08Z</time>
      </trkpt>
      <trkpt lat="43.53155" lon="5.57838">
        <ele>890.9</ele>
        <time>2023-05-28T10:08:09Z</time>
      </trkpt>
      <trkpt lat="43.53155" lon="5.57838">
        <ele>890.9</ele>
        <time>2023-05-28T10:08:10Z</time>
      </trkpt>
      <trkpt lat="43.53155" lon="5.57838">
        <ele>890.9</ele>
        <time>2023-05-28T10:08:11Z</time>
      </trkpt>
      <trkpt lat="43.53155" lon="5.57838">
        <ele>890.8</ele>
        <time>2023-05-28T10:08:12Z</time>
      </trkpt>
      <trkpt lat="43.53155" lon="5.57837">
        <ele>890.8</ele>
        <time>2023-05-28T10:08:13Z</time>
      </trkpt>
      <trkpt lat="43.53154" lon="5.57837">
        <ele>890.8</ele>
        <time>2023-05-28T10:08:14Z</time>
      </trkpt>
      <trkpt lat="43.53154" lon="5.57837">
        <ele>890.8</ele>
        <time>2023-05-28T10:08:15Z</time>
      </trkpt>
      <trkpt lat="43.53154" lon="5.57837">
        <ele>890.8</ele>
        <time>2023-05-28T10:08:16Z</time>
      </trkpt>
      <trkpt lat="43.53154" lon="5.57837">
        <ele>890.8</ele>
        <time>2023-05-28T10:08:17Z</time>
      </trkpt>
      <trkpt lat="43.53154" lon="5.57837">
        <ele>890.8</ele>
        <time>2023-05-28T10:08:18Z</time>
      </trkpt>
      <trkpt lat="43.53154" lon="5.57837">
        <ele>890.9</ele>
        <time>2023-05-28T10:08:19Z</time>
      </trkpt>
      <trkpt lat="43.53154" lon="5.57836">
        <ele>890.9</ele>
        <time>2023-05-28T10:08:20Z</time>
      </trkpt>
      <trkpt lat="43.53154" lon="5.57836">
        <ele>890.9</ele>
        <time>2023-05-28T10:08:21Z</time>
      </trkpt>
      <trkpt lat="43.53154" lon="5.57837">
        <ele>890.9</ele>
        <time>2023-05-28T10:08:22Z</time>
      </trkpt>
      <trkpt lat="43.53154" lon="5.57837">
        <ele>890.9</ele>
        <time>2023-05-28T10:08:23Z</time>
      </trkpt>
      <trkpt lat="43.53154" lon="5.57837">
        <ele>890.8</ele>
        <time>2023-05-28T10:08:24Z</time>
      </trkpt>
      <trkpt lat="43.53154" lon="5.57837">
        <ele>890.8</ele>
        <time>2023-05-28T10:08:25Z</time>
      </trkpt>
      <trkpt lat="43.53154" lon="5.57837">
        <ele>890.9</ele>
        <time>2023-05-28T10:08:26Z</time>
      </trkpt>
      <trkpt lat="43.53154" lon="5.57836">
        <ele>890.9</ele>
        <time>2023-05-28T10:08:27Z</time>
      </trkpt>
      <trkpt lat="43.53155" lon="5.57836">
        <ele>890.9</ele>
        <time>2023-05-28T10:08:28Z</time>
      </trkpt>
      <trkpt lat="43.53155" lon="5.57836">
        <ele>891</ele>
        <time>2023-05-28T10:08:29Z</time>
      </trkpt>
      <trkpt lat="43.53156" lon="5.57836">
        <ele>890.9</ele>
        <time>2023-05-28T10:08:30Z</time>
      </trkpt>
      <trkpt lat="43.53157" lon="5.57836">
        <ele>890.8</ele>
        <time>2023-05-28T10:08:31Z</time>
      </trkpt>
      <trkpt lat="43.53157" lon="5.57835">
        <ele>890.7</ele>
        <time>2023-05-28T10:08:32Z</time>
      </trkpt>
      <trkpt lat="43.53158" lon="5.57835">
        <ele>890.6</ele>
        <time>2023-05-28T10:08:33Z</time>
      </trkpt>
      <trkpt lat="43.53158" lon="5.57834">
        <ele>890.6</ele>
        <time>2023-05-28T10:08:34Z</time>
      </trkpt>
      <trkpt lat="43.53159" lon="5.57834">
        <ele>890.6</ele>
        <time>2023-05-28T10:08:35Z</time>
      </trkpt>
      <trkpt lat="43.53159" lon="5.57834">
        <ele>890.7</ele>
        <time>2023-05-28T10:08:36Z</time>
      </trkpt>
      <trkpt lat="43.5316" lon="5.57834">
        <ele>890.7</ele>
        <time>2023-05-28T10:08:37Z</time>
      </trkpt>
      <trkpt lat="43.5316" lon="5.57835">
        <ele>890.7</ele>
        <time>2023-05-28T10:08:38Z</time>
      </trkpt>
      <trkpt lat="43.5316" lon="5.57835">
        <ele>890.7</ele>
        <time>2023-05-28T10:08:39Z</time>
      </trkpt>
      <trkpt lat="43.53161" lon="5.57835">
        <ele>890.8</ele>
        <time>2023-05-28T10:08:40Z</time>
      </trkpt>
      <trkpt lat="43.53161" lon="5.57834">
        <ele>890.9</ele>
        <time>2023-05-28T10:08:41Z</time>
      </trkpt>
      <trkpt lat="43.53162" lon="5.57833">
        <ele>890.9</ele>
        <time>2023-05-28T10:08:42Z</time>
      </trkpt>
      <trkpt lat="43.53163" lon="5.57831">
        <ele>890.9</ele>
        <time>2023-05-28T10:08:43Z</time>
      </trkpt>
      <trkpt lat="43.53164" lon="5.5783">
        <ele>891</ele>
        <time>2023-05-28T10:08:44Z</time>
      </trkpt>
      <trkpt lat="43.53164" lon="5.57829">
        <ele>891</ele>
        <time>2023-05-28T10:08:45Z</time>
      </trkpt>
      <trkpt lat="43.53164" lon="5.57828">
        <ele>891</ele>
        <time>2023-05-28T10:08:46Z</time>
      </trkpt>
      <trkpt lat="43.53165" lon="5.57827">
        <ele>891.1</ele>
        <time>2023-05-28T10:08:47Z</time>
      </trkpt>
      <trkpt lat="43.53166" lon="5.57827">
        <ele>891.1</ele>
        <time>2023-05-28T10:08:48Z</time>
      </trkpt>
      <trkpt lat="43.53167" lon="5.57826">
        <ele>891.2</ele>
        <time>2023-05-28T10:08:49Z</time>
      </trkpt>
      <trkpt lat="43.53167" lon="5.57826">
        <ele>891.2</ele>
        <time>2023-05-28T10:08:50Z</time>
      </trkpt>
      <trkpt lat="43.53167" lon="5.57825">
        <ele>891.2</ele>
        <time>2023-05-28T10:08:51Z</time>
      </trkpt>
      <trkpt lat="43.53168" lon="5.57825">
        <ele>891.3</ele>
        <time>2023-05-28T10:08:52Z</time>
      </trkpt>
      <trkpt lat="43.53168" lon="5.57824">
        <ele>891.3</ele>
        <time>2023-05-28T10:08:53Z</time>
      </trkpt>
      <trkpt lat="43.53169" lon="5.57823">
        <ele>891.3</ele>
        <time>2023-05-28T10:08:54Z</time>
      </trkpt>
      <trkpt lat="43.5317" lon="5.57823">
        <ele>891.3</ele>
        <time>2023-05-28T10:08:55Z</time>
      </trkpt>
      <trkpt lat="43.5317" lon="5.57822">
        <ele>891.3</ele>
        <time>2023-05-28T10:08:56Z</time>
      </trkpt>
      <trkpt lat="43.5317" lon="5.57821">
        <ele>891.2</ele>
        <time>2023-05-28T10:08:57Z</time>
      </trkpt>
      <trkpt lat="43.53171" lon="5.5782">
        <ele>891.2</ele>
        <time>2023-05-28T10:08:58Z</time>
      </trkpt>
      <trkpt lat="43.53172" lon="5.57818">
        <ele>891.2</ele>
        <time>2023-05-28T10:08:59Z</time>
      </trkpt>
      <trkpt lat="43.53172" lon="5.57817">
        <ele>891.2</ele>
        <time>2023-05-28T10:09:00Z</time>
      </trkpt>
      <trkpt lat="43.53172" lon="5.57817">
        <ele>891.1</ele>
        <time>2023-05-28T10:09:01Z</time>
      </trkpt>
      <trkpt lat="43.53171" lon="5.57817">
        <ele>891.1</ele>
        <time>2023-05-28T10:09:02Z</time>
      </trkpt>
      <trkpt lat="43.53171" lon="5.57817">
        <ele>891.1</ele>
        <time>2023-05-28T10:09:03Z</time>
      </trkpt>
      <trkpt lat="43.53172" lon="5.57817">
        <ele>891</ele>
        <time>2023-05-28T10:09:04Z</time>
      </trkpt>
      <trkpt lat="43.53172" lon="5.57817">
        <ele>891</ele>
        <time>2023-05-28T10:09:05Z</time>
      </trkpt>
      <trkpt lat="43.53172" lon="5.57817">
        <ele>891</ele>
        <time>2023-05-28T10:09:06Z</time>
      </trkpt>
      <trkpt lat="43.53172" lon="5.57817">
        <ele>891</ele>
        <time>2023-05-28T10:09:07Z</time>
      </trkpt>
      <trkpt lat="43.53172" lon="5.57817">
        <ele>891</ele>
        <time>2023-05-28T10:09:08Z</time>
      </trkpt>
      <trkpt lat="43.53172" lon="5.57817">
        <ele>891</ele>
        <time>2023-05-28T10:09:09Z</time>
      </trkpt>
      <trkpt lat="43.53172" lon="5.57817">
        <ele>891</ele>
        <time>2023-05-28T10:09:10Z</time>
      </trkpt>
      <trkpt lat="43.53172" lon="5.57816">
        <ele>891.1</ele>
        <time>2023-05-28T10:09:11Z</time>
      </trkpt>
      <trkpt lat="43.53172" lon="5.57816">
        <ele>891.1</ele>
        <time>2023-05-28T10:09:12Z</time>
      </trkpt>
      <trkpt lat="43.53172" lon="5.57816">
        <ele>891</ele>
        <time>2023-05-28T10:09:13Z</time>
      </trkpt>
      <trkpt lat="43.53173" lon="5.57816">
        <ele>891</ele>
        <time>2023-05-28T10:09:14Z</time>
      </trkpt>
      <trkpt lat="43.53173" lon="5.57816">
        <ele>891</ele>
        <time>2023-05-28T10:09:15Z</time>
      </trkpt>
      <trkpt lat="43.53172" lon="5.57815">
        <ele>891</ele>
        <time>2023-05-28T10:09:16Z</time>
      </trkpt>
      <trkpt lat="43.53172" lon="5.57815">
        <ele>891</ele>
        <time>2023-05-28T10:09:17Z</time>
      </trkpt>
      <trkpt lat="43.53172" lon="5.57815">
        <ele>891</ele>
        <time>2023-05-28T10:09:18Z</time>
      </trkpt>
      <trkpt lat="43.53172" lon="5.57815">
        <ele>891</ele>
        <time>2023-05-28T10:09:19Z</time>
      </trkpt>
      <trkpt lat="43.53171" lon="5.57816">
        <ele>891</ele>
        <time>2023-05-28T10:09:20Z</time>
      </trkpt>
      <trkpt lat="43.53171" lon="5.57815">
        <ele>891.1</ele>
        <time>2023-05-28T10:09:21Z</time>
      </trkpt>
      <trkpt lat="43.53171" lon="5.57815">
        <ele>891.1</ele>
        <time>2023-05-28T10:09:22Z</time>
      </trkpt>
      <trkpt lat="43.53171" lon="5.57815">
        <ele>891.1</ele>
        <time>2023-05-28T10:09:23Z</time>
      </trkpt>
      <trkpt lat="43.53171" lon="5.57815">
        <ele>891.2</ele>
        <time>2023-05-28T10:09:24Z</time>
      </trkpt>
      <trkpt lat="43.53171" lon="5.57815">
        <ele>891.1</ele>
        <time>2023-05-28T10:09:25Z</time>
      </trkpt>
      <trkpt lat="43.53172" lon="5.57815">
        <ele>891.1</ele>
        <time>2023-05-28T10:09:26Z</time>
      </trkpt>
      <trkpt lat="43.53172" lon="5.57816">
        <ele>891.1</ele>
        <time>2023-05-28T10:09:27Z</time>
      </trkpt>
      <trkpt lat="43.53172" lon="5.57816">
        <ele>891.2</ele>
        <time>2023-05-28T10:09:28Z</time>
      </trkpt>
      <trkpt lat="43.53172" lon="5.57816">
        <ele>891.2</ele>
        <time>2023-05-28T10:09:29Z</time>
      </trkpt>
      <trkpt lat="43.53172" lon="5.57815">
        <ele>891.3</ele>
        <time>2023-05-28T10:09:30Z</time>
      </trkpt>
      <trkpt lat="43.53172" lon="5.57815">
        <ele>891.3</ele>
        <time>2023-05-28T10:09:31Z</time>
      </trkpt>
      <trkpt lat="43.53172" lon="5.57816">
        <ele>891.2</ele>
        <time>2023-05-28T10:09:32Z</time>
      </trkpt>
      <trkpt lat="43.53172" lon="5.57815">
        <ele>891.1</ele>
        <time>2023-05-28T10:09:33Z</time>
      </trkpt>
      <trkpt lat="43.53172" lon="5.57815">
        <ele>891</ele>
        <time>2023-05-28T10:09:34Z</time>
      </trkpt>
      <trkpt lat="43.53172" lon="5.57815">
        <ele>891</ele>
        <time>2023-05-28T10:09:35Z</time>
      </trkpt>
      <trkpt lat="43.53172" lon="5.57815">
        <ele>891</ele>
        <time>2023-05-28T10:09:36Z</time>
      </trkpt>
      <trkpt lat="43.53172" lon="5.57815">
        <ele>891</ele>
        <time>2023-05-28T10:09:37Z</time>
      </trkpt>
      <trkpt lat="43.53172" lon="5.57815">
        <ele>891</ele>
        <time>2023-05-28T10:09:38Z</time>
      </trkpt>
      <trkpt lat="43.53172" lon="5.57816">
        <ele>891</ele>
        <time>2023-05-28T10:09:39Z</time>
      </trkpt>
      <trkpt lat="43.53173" lon="5.57816">
        <ele>891</ele>
        <time>2023-05-28T10:09:40Z</time>
      </trkpt>
      <trkpt lat="43.53173" lon="5.57816">
        <ele>891</ele>
        <time>2023-05-28T10:09:41Z</time>
      </trkpt>
      <trkpt lat="43.53173" lon="5.57816">
        <ele>891.1</ele>
        <time>2023-05-28T10:09:42Z</time>
      </trkpt>
      <trkpt lat="43.53174" lon="5.57816">
        <ele>891</ele>
        <time>2023-05-28T10:09:43Z</time>
      </trkpt>
      <trkpt lat="43.53174" lon="5.57816">
        <ele>891</ele>
        <time>2023-05-28T10:09:44Z</time>
      </trkpt>
      <trkpt lat="43.53175" lon="5.57816">
        <ele>891</ele>
        <time>2023-05-28T10:09:45Z</time>
      </trkpt>
      <trkpt lat="43.53174" lon="5.57816">
        <ele>891</ele>
        <time>2023-05-28T10:09:46Z</time>
      </trkpt>
      <trkpt lat="43.53173" lon="5.57816">
        <ele>891</ele>
        <time>2023-05-28T10:09:47Z</time>
      </trkpt>
      <trkpt lat="43.53172" lon="5.57815">
        <ele>891</ele>
        <time>2023-05-28T10:09:48Z</time>
      </trkpt>
      <trkpt lat="43.53172" lon="5.57815">
        <ele>891</ele>
        <time>2023-05-28T10:09:49Z</time>
      </trkpt>
      <trkpt lat="43.53172" lon="5.57815">
        <ele>891.1</ele>
        <time>2023-05-28T10:09:50Z</time>
      </trkpt>
      <trkpt lat="43.53171" lon="5.57815">
        <ele>891.2</ele>
        <time>2023-05-28T10:09:51Z</time>
      </trkpt>
      <trkpt lat="43.53171" lon="5.57815">
        <ele>891.2</ele>
        <time>2023-05-28T10:09:52Z</time>
      </trkpt>
      <trkpt lat="43.53171" lon="5.57815">
        <ele>891.3</ele>
        <time>2023-05-28T10:09:53Z</time>
      </trkpt>
      <trkpt lat="43.53171" lon="5.57815">
        <ele>891.2</ele>
        <time>2023-05-28T10:09:54Z</time>
      </trkpt>
      <trkpt lat="43.5317" lon="5.57815">
        <ele>891.3</ele>
        <time>2023-05-28T10:09:55Z</time>
      </trkpt>
      <trkpt lat="43.5317" lon="5.57815">
        <ele>891.3</ele>
        <time>2023-05-28T10:09:56Z</time>
      </trkpt>
      <trkpt lat="43.53171" lon="5.57815">
        <ele>891.3</ele>
        <time>2023-05-28T10:09:57Z</time>
      </trkpt>
      <trkpt lat="43.53171" lon="5.57815">
        <ele>891.2</ele>
        <time>2023-05-28T10:09:58Z</time>
      </trkpt>
      <trkpt lat="43.53171" lon="5.57815">
        <ele>891.1</ele>
        <time>2023-05-28T10:09:59Z</time>
      </trkpt>
      <trkpt lat="43.53171" lon="5.57815">
        <ele>891.2</ele>
        <time>2023-05-28T10:10:00Z</time>
      </trkpt>
      <trkpt lat="43.5317" lon="5.57815">
        <ele>891.2</ele>
        <time>2023-05-28T10:10:01Z</time>
      </trkpt>
      <trkpt lat="43.5317" lon="5.57815">
        <ele>891.2</ele>
        <time>2023-05-28T10:10:02Z</time>
      </trkpt>
      <trkpt lat="43.5317" lon="5.57816">
        <ele>891.1</ele>
        <time>2023-05-28T10:10:03Z</time>
      </trkpt>
      <trkpt lat="43.5317" lon="5.57816">
        <ele>891.1</ele>
        <time>2023-05-28T10:10:04Z</time>
      </trkpt>
      <trkpt lat="43.5317" lon="5.57816">
        <ele>891.1</ele>
        <time>2023-05-28T10:10:05Z</time>
      </trkpt>
      <trkpt lat="43.5317" lon="5.57816">
        <ele>891</ele>
        <time>2023-05-28T10:10:06Z</time>
      </trkpt>
      <trkpt lat="43.5317" lon="5.57816">
        <ele>891</ele>
        <time>2023-05-28T10:10:07Z</time>
      </trkpt>
      <trkpt lat="43.5317" lon="5.57816">
        <ele>891</ele>
        <time>2023-05-28T10:10:08Z</time>
      </trkpt>
      <trkpt lat="43.5317" lon="5.57816">
        <ele>890.9</ele>
        <time>2023-05-28T10:10:09Z</time>
      </trkpt>
      <trkpt lat="43.5317" lon="5.57816">
        <ele>890.9</ele>
        <time>2023-05-28T10:10:10Z</time>
      </trkpt>
      <trkpt lat="43.5317" lon="5.57816">
        <ele>890.9</ele>
        <time>2023-05-28T10:10:11Z</time>
      </trkpt>
      <trkpt lat="43.5317" lon="5.57816">
        <ele>890.9</ele>
        <time>2023-05-28T10:10:12Z</time>
      </trkpt>
      <trkpt lat="43.53171" lon="5.57816">
        <ele>891.1</ele>
        <time>2023-05-28T10:10:13Z</time>
      </trkpt>
      <trkpt lat="43.53171" lon="5.57816">
        <ele>891.2</ele>
        <time>2023-05-28T10:10:14Z</time>
      </trkpt>
      <trkpt lat="43.53171" lon="5.57817">
        <ele>891.2</ele>
        <time>2023-05-28T10:10:15Z</time>
      </trkpt>
      <trkpt lat="43.53172" lon="5.57817">
        <ele>891.2</ele>
        <time>2023-05-28T10:10:16Z</time>
      </trkpt>
      <trkpt lat="43.53172" lon="5.57817">
        <ele>891.1</ele>
        <time>2023-05-28T10:10:17Z</time>
      </trkpt>
      <trkpt lat="43.53172" lon="5.57817">
        <ele>891.2</ele>
        <time>2023-05-28T10:10:18Z</time>
      </trkpt>
      <trkpt lat="43.53172" lon="5.57817">
        <ele>891.2</ele>
        <time>2023-05-28T10:10:19Z</time>
      </trkpt>
      <trkpt lat="43.53172" lon="5.57817">
        <ele>891.2</ele>
        <time>2023-05-28T10:10:20Z</time>
      </trkpt>
      <trkpt lat="43.53171" lon="5.57817">
        <ele>891.3</ele>
        <time>2023-05-28T10:10:21Z</time>
      </trkpt>
      <trkpt lat="43.53171" lon="5.57817">
        <ele>891.3</ele>
        <time>2023-05-28T10:10:22Z</time>
      </trkpt>
      <trkpt lat="43.53171" lon="5.57817">
        <ele>891.3</ele>
        <time>2023-05-28T10:10:23Z</time>
      </trkpt>
      <trkpt lat="43.53172" lon="5.57817">
        <ele>891.3</ele>
        <time>2023-05-28T10:10:24Z</time>
      </trkpt>
      <trkpt lat="43.53172" lon="5.57817">
        <ele>891.3</ele>
        <time>2023-05-28T10:10:25Z</time>
      </trkpt>
      <trkpt lat="43.53172" lon="5.57817">
        <ele>891.2</ele>
        <time>2023-05-28T10:10:26Z</time>
      </trkpt>
      <trkpt lat="43.53172" lon="5.57817">
        <ele>891.2</ele>
        <time>2023-05-28T10:10:27Z</time>
      </trkpt>
      <trkpt lat="43.53172" lon="5.57817">
        <ele>891.2</ele>
        <time>2023-05-28T10:10:28Z</time>
      </trkpt>
      <trkpt lat="43.53172" lon="5.57817">
        <ele>891.2</ele>
        <time>2023-05-28T10:10:29Z</time>
      </trkpt>
      <trkpt lat="43.53172" lon="5.57817">
        <ele>891.2</ele>
        <time>2023-05-28T10:10:30Z</time>
      </trkpt>
      <trkpt lat="43.53172" lon="5.57817">
        <ele>891.2</ele>
        <time>2023-05-28T10:10:31Z</time>
      </trkpt>
      <trkpt lat="43.53172" lon="5.57817">
        <ele>891.2</ele>
        <time>2023-05-28T10:10:32Z</time>
      </trkpt>
      <trkpt lat="43.53172" lon="5.57817">
        <ele>891.2</ele>
        <time>2023-05-28T10:10:33Z</time>
      </trkpt>
      <trkpt lat="43.53173" lon="5.57817">
        <ele>891.2</ele>
        <time>2023-05-28T10:10:34Z</time>
      </trkpt>
      <trkpt lat="43.53173" lon="5.57817">
        <ele>891.2</ele>
        <time>2023-05-28T10:10:35Z</time>
      </trkpt>
      <trkpt lat="43.53173" lon="5.57817">
        <ele>891.2</ele>
        <time>2023-05-28T10:10:36Z</time>
      </trkpt>
      <trkpt lat="43.53173" lon="5.57817">
        <ele>891.2</ele>
        <time>2023-05-28T10:10:37Z</time>
      </trkpt>
      <trkpt lat="43.53173" lon="5.57817">
        <ele>891.3</ele>
        <time>2023-05-28T10:10:38Z</time>
      </trkpt>
      <trkpt lat="43.53174" lon="5.57817">
        <ele>891.3</ele>
        <time>2023-05-28T10:10:39Z</time>
      </trkpt>
      <trkpt lat="43.53174" lon="5.57818">
        <ele>891.3</ele>
        <time>2023-05-28T10:10:40Z</time>
      </trkpt>
      <trkpt lat="43.53174" lon="5.57818">
        <ele>891.3</ele>
        <time>2023-05-28T10:10:41Z</time>
      </trkpt>
      <trkpt lat="43.53174" lon="5.57818">
        <ele>891.2</ele>
        <time>2023-05-28T10:10:42Z</time>
      </trkpt>
      <trkpt lat="43.53174" lon="5.57818">
        <ele>891.2</ele>
        <time>2023-05-28T10:10:43Z</time>
      </trkpt>
      <trkpt lat="43.53174" lon="5.57818">
        <ele>891.1</ele>
        <time>2023-05-28T10:10:44Z</time>
      </trkpt>
      <trkpt lat="43.53175" lon="5.57818">
        <ele>891.1</ele>
        <time>2023-05-28T10:10:45Z</time>
      </trkpt>
      <trkpt lat="43.53175" lon="5.57818">
        <ele>891.1</ele>
        <time>2023-05-28T10:10:46Z</time>
      </trkpt>
      <trkpt lat="43.53175" lon="5.57818">
        <ele>891.1</ele>
        <time>2023-05-28T10:10:47Z</time>
      </trkpt>
      <trkpt lat="43.53174" lon="5.57818">
        <ele>891.2</ele>
        <time>2023-05-28T10:10:48Z</time>
      </trkpt>
      <trkpt lat="43.53174" lon="5.57818">
        <ele>891.2</ele>
        <time>2023-05-28T10:10:49Z</time>
      </trkpt>
      <trkpt lat="43.53174" lon="5.57818">
        <ele>891.2</ele>
        <time>2023-05-28T10:10:50Z</time>
      </trkpt>
      <trkpt lat="43.53174" lon="5.57818">
        <ele>891.2</ele>
        <time>2023-05-28T10:10:51Z</time>
      </trkpt>
      <trkpt lat="43.53173" lon="5.57818">
        <ele>891.1</ele>
        <time>2023-05-28T10:10:52Z</time>
      </trkpt>
      <trkpt lat="43.53174" lon="5.57818">
        <ele>891.2</ele>
        <time>2023-05-28T10:10:53Z</time>
      </trkpt>
      <trkpt lat="43.53174" lon="5.57818">
        <ele>891.3</ele>
        <time>2023-05-28T10:10:54Z</time>
      </trkpt>
      <trkpt lat="43.53174" lon="5.57818">
        <ele>891.3</ele>
        <time>2023-05-28T10:10:55Z</time>
      </trkpt>
      <trkpt lat="43.53174" lon="5.57818">
        <ele>891.3</ele>
        <time>2023-05-28T10:10:56Z</time>
      </trkpt>
      <trkpt lat="43.53174" lon="5.57818">
        <ele>891.2</ele>
        <time>2023-05-28T10:10:57Z</time>
      </trkpt>
      <trkpt lat="43.53174" lon="5.57818">
        <ele>891.2</ele>
        <time>2023-05-28T10:10:58Z</time>
      </trkpt>
      <trkpt lat="43.53174" lon="5.57818">
        <ele>891.2</ele>
        <time>2023-05-28T10:10:59Z</time>
      </trkpt>
      <trkpt lat="43.53174" lon="5.57818">
        <ele>891.2</ele>
        <time>2023-05-28T10:11:00Z</time>
      </trkpt>
      <trkpt lat="43.53174" lon="5.57818">
        <ele>891.2</ele>
        <time>2023-05-28T10:11:01Z</time>
      </trkpt>
      <trkpt lat="43.53174" lon="5.57818">
        <ele>891.2</ele>
        <time>2023-05-28T10:11:02Z</time>
      </trkpt>
      <trkpt lat="43.53174" lon="5.57818">
        <ele>891.2</ele>
        <time>2023-05-28T10:11:03Z</time>
      </trkpt>
      <trkpt lat="43.53174" lon="5.57818">
        <ele>891.2</ele>
        <time>2023-05-28T10:11:04Z</time>
      </trkpt>
      <trkpt lat="43.53175" lon="5.57818">
        <ele>891.2</ele>
        <time>2023-05-28T10:11:05Z</time>
      </trkpt>
      <trkpt lat="43.53175" lon="5.57818">
        <ele>891.1</ele>
        <time>2023-05-28T10:11:06Z</time>
      </trkpt>
      <trkpt lat="43.53176" lon="5.57818">
        <ele>891.1</ele>
        <time>2023-05-28T10:11:07Z</time>
      </trkpt>
      <trkpt lat="43.53176" lon="5.57819">
        <ele>891</ele>
        <time>2023-05-28T10:11:08Z</time>
      </trkpt>
      <trkpt lat="43.53176" lon="5.57819">
        <ele>890.9</ele>
        <time>2023-05-28T10:11:09Z</time>
      </trkpt>
      <trkpt lat="43.53176" lon="5.57819">
        <ele>890.9</ele>
        <time>2023-05-28T10:11:10Z</time>
      </trkpt>
      <trkpt lat="43.53176" lon="5.57819">
        <ele>890.9</ele>
        <time>2023-05-28T10:11:11Z</time>
      </trkpt>
      <trkpt lat="43.53177" lon="5.57819">
        <ele>890.9</ele>
        <time>2023-05-28T10:11:12Z</time>
      </trkpt>
      <trkpt lat="43.53177" lon="5.57819">
        <ele>891</ele>
        <time>2023-05-28T10:11:13Z</time>
      </trkpt>
      <trkpt lat="43.53178" lon="5.57819">
        <ele>891</ele>
        <time>2023-05-28T10:11:14Z</time>
      </trkpt>
      <trkpt lat="43.53179" lon="5.5782">
        <ele>891.1</ele>
        <time>2023-05-28T10:11:15Z</time>
      </trkpt>
      <trkpt lat="43.53179" lon="5.5782">
        <ele>891.1</ele>
        <time>2023-05-28T10:11:16Z</time>
      </trkpt>
      <trkpt lat="43.5318" lon="5.57821">
        <ele>891.2</ele>
        <time>2023-05-28T10:11:17Z</time>
      </trkpt>
      <trkpt lat="43.5318" lon="5.57821">
        <ele>891.2</ele>
        <time>2023-05-28T10:11:18Z</time>
      </trkpt>
      <trkpt lat="43.5318" lon="5.57821">
        <ele>891.2</ele>
        <time>2023-05-28T10:11:19Z</time>
      </trkpt>
      <trkpt lat="43.53181" lon="5.57821">
        <ele>891.3</ele>
        <time>2023-05-28T10:11:20Z</time>
      </trkpt>
      <trkpt lat="43.53181" lon="5.57821">
        <ele>891.3</ele>
        <time>2023-05-28T10:11:21Z</time>
      </trkpt>
      <trkpt lat="43.53181" lon="5.57821">
        <ele>891.3</ele>
        <time>2023-05-28T10:11:22Z</time>
      </trkpt>
      <trkpt lat="43.53181" lon="5.57822">
        <ele>891.3</ele>
        <time>2023-05-28T10:11:23Z</time>
      </trkpt>
      <trkpt lat="43.53181" lon="5.57822">
        <ele>891.2</ele>
        <time>2023-05-28T10:11:24Z</time>
      </trkpt>
      <trkpt lat="43.53181" lon="5.57821">
        <ele>891.2</ele>
        <time>2023-05-28T10:11:25Z</time>
      </trkpt>
      <trkpt lat="43.53181" lon="5.57822">
        <ele>891.2</ele>
        <time>2023-05-28T10:11:26Z</time>
      </trkpt>
      <trkpt lat="43.53181" lon="5.57822">
        <ele>891.3</ele>
        <time>2023-05-28T10:11:27Z</time>
      </trkpt>
      <trkpt lat="43.53181" lon="5.57822">
        <ele>891.3</ele>
        <time>2023-05-28T10:11:28Z</time>
      </trkpt>
      <trkpt lat="43.5318" lon="5.57821">
        <ele>891.3</ele>
        <time>2023-05-28T10:11:29Z</time>
      </trkpt>
      <trkpt lat="43.5318" lon="5.57821">
        <ele>891.3</ele>
        <time>2023-05-28T10:11:30Z</time>
      </trkpt>
      <trkpt lat="43.5318" lon="5.57821">
        <ele>891.3</ele>
        <time>2023-05-28T10:11:31Z</time>
      </trkpt>
      <trkpt lat="43.5318" lon="5.57821">
        <ele>891.4</ele>
        <time>2023-05-28T10:11:32Z</time>
      </trkpt>
      <trkpt lat="43.5318" lon="5.57821">
        <ele>891.4</ele>
        <time>2023-05-28T10:11:33Z</time>
      </trkpt>
      <trkpt lat="43.5318" lon="5.57821">
        <ele>891.4</ele>
        <time>2023-05-28T10:11:34Z</time>
      </trkpt>
      <trkpt lat="43.5318" lon="5.57821">
        <ele>891.4</ele>
        <time>2023-05-28T10:11:35Z</time>
      </trkpt>
      <trkpt lat="43.53179" lon="5.57821">
        <ele>891.3</ele>
        <time>2023-05-28T10:11:36Z</time>
      </trkpt>
      <trkpt lat="43.5318" lon="5.57821">
        <ele>891.3</ele>
        <time>2023-05-28T10:11:37Z</time>
      </trkpt>
      <trkpt lat="43.53179" lon="5.5782">
        <ele>891.3</ele>
        <time>2023-05-28T10:11:38Z</time>
      </trkpt>
      <trkpt lat="43.53178" lon="5.5782">
        <ele>891.3</ele>
        <time>2023-05-28T10:11:39Z</time>
      </trkpt>
      <trkpt lat="43.53178" lon="5.5782">
        <ele>891.2</ele>
        <time>2023-05-28T10:11:40Z</time>
      </trkpt>
      <trkpt lat="43.53178" lon="5.5782">
        <ele>891.2</ele>
        <time>2023-05-28T10:11:41Z</time>
      </trkpt>
      <trkpt lat="43.53178" lon="5.57819">
        <ele>891.2</ele>
        <time>2023-05-28T10:11:42Z</time>
      </trkpt>
      <trkpt lat="43.53177" lon="5.57819">
        <ele>891.2</ele>
        <time>2023-05-28T10:11:43Z</time>
      </trkpt>
      <trkpt lat="43.53177" lon="5.57819">
        <ele>891.2</ele>
        <time>2023-05-28T10:11:44Z</time>
      </trkpt>
      <trkpt lat="43.53177" lon="5.57819">
        <ele>891.1</ele>
        <time>2023-05-28T10:11:45Z</time>
      </trkpt>
      <trkpt lat="43.53176" lon="5.57818">
        <ele>891.1</ele>
        <time>2023-05-28T10:11:46Z</time>
      </trkpt>
      <trkpt lat="43.53175" lon="5.57817">
        <ele>891</ele>
        <time>2023-05-28T10:11:47Z</time>
      </trkpt>
      <trkpt lat="43.53174" lon="5.57817">
        <ele>891</ele>
        <time>2023-05-28T10:11:48Z</time>
      </trkpt>
      <trkpt lat="43.53173" lon="5.57816">
        <ele>891</ele>
        <time>2023-05-28T10:11:49Z</time>
      </trkpt>
      <trkpt lat="43.53172" lon="5.57816">
        <ele>891</ele>
        <time>2023-05-28T10:11:50Z</time>
      </trkpt>
      <trkpt lat="43.53172" lon="5.57816">
        <ele>891.1</ele>
        <time>2023-05-28T10:11:51Z</time>
      </trkpt>
      <trkpt lat="43.53172" lon="5.57816">
        <ele>891.3</ele>
        <time>2023-05-28T10:11:52Z</time>
      </trkpt>
      <trkpt lat="43.53171" lon="5.57815">
        <ele>891.3</ele>
        <time>2023-05-28T10:11:53Z</time>
      </trkpt>
      <trkpt lat="43.5317" lon="5.57815">
        <ele>891.4</ele>
        <time>2023-05-28T10:11:54Z</time>
      </trkpt>
      <trkpt lat="43.5317" lon="5.57814">
        <ele>891.4</ele>
        <time>2023-05-28T10:11:55Z</time>
      </trkpt>
      <trkpt lat="43.53169" lon="5.57814">
        <ele>891.4</ele>
        <time>2023-05-28T10:11:56Z</time>
      </trkpt>
      <trkpt lat="43.53169" lon="5.57814">
        <ele>891.5</ele>
        <time>2023-05-28T10:11:57Z</time>
      </trkpt>
      <trkpt lat="43.53169" lon="5.57814">
        <ele>891.5</ele>
        <time>2023-05-28T10:11:58Z</time>
      </trkpt>
      <trkpt lat="43.53168" lon="5.57814">
        <ele>891.5</ele>
        <time>2023-05-28T10:11:59Z</time>
      </trkpt>
      <trkpt lat="43.53168" lon="5.57814">
        <ele>891.5</ele>
        <time>2023-05-28T10:12:00Z</time>
      </trkpt>
      <trkpt lat="43.53167" lon="5.57814">
        <ele>891.4</ele>
        <time>2023-05-28T10:12:01Z</time>
      </trkpt>
      <trkpt lat="43.53168" lon="5.57814">
        <ele>891.4</ele>
        <time>2023-05-28T10:12:02Z</time>
      </trkpt>
      <trkpt lat="43.53168" lon="5.57814">
        <ele>891.4</ele>
        <time>2023-05-28T10:12:03Z</time>
      </trkpt>
      <trkpt lat="43.53168" lon="5.57814">
        <ele>891.3</ele>
        <time>2023-05-28T10:12:04Z</time>
      </trkpt>
      <trkpt lat="43.53168" lon="5.57814">
        <ele>891.3</ele>
        <time>2023-05-28T10:12:05Z</time>
      </trkpt>
      <trkpt lat="43.53168" lon="5.57814">
        <ele>891.2</ele>
        <time>2023-05-28T10:12:06Z</time>
      </trkpt>
      <trkpt lat="43.53168" lon="5.57815">
        <ele>891.2</ele>
        <time>2023-05-28T10:12:07Z</time>
      </trkpt>
      <trkpt lat="43.53168" lon="5.57815">
        <ele>891.1</ele>
        <time>2023-05-28T10:12:08Z</time>
      </trkpt>
      <trkpt lat="43.53168" lon="5.57814">
        <ele>891</ele>
        <time>2023-05-28T10:12:09Z</time>
      </trkpt>
      <trkpt lat="43.53167" lon="5.57814">
        <ele>891</ele>
        <time>2023-05-28T10:12:10Z</time>
      </trkpt>
      <trkpt lat="43.53167" lon="5.57814">
        <ele>891</ele>
        <time>2023-05-28T10:12:11Z</time>
      </trkpt>
      <trkpt lat="43.53167" lon="5.57813">
        <ele>891</ele>
        <time>2023-05-28T10:12:12Z</time>
      </trkpt>
      <trkpt lat="43.53166" lon="5.57813">
        <ele>891.1</ele>
        <time>2023-05-28T10:12:13Z</time>
      </trkpt>
      <trkpt lat="43.53165" lon="5.57812">
        <ele>891</ele>
        <time>2023-05-28T10:12:14Z</time>
      </trkpt>
      <trkpt lat="43.53165" lon="5.57812">
        <ele>891</ele>
        <time>2023-05-28T10:12:15Z</time>
      </trkpt>
      <trkpt lat="43.53165" lon="5.57812">
        <ele>891</ele>
        <time>2023-05-28T10:12:16Z</time>
      </trkpt>
      <trkpt lat="43.53165" lon="5.57812">
        <ele>891</ele>
        <time>2023-05-28T10:12:17Z</time>
      </trkpt>
      <trkpt lat="43.53165" lon="5.57812">
        <ele>891</ele>
        <time>2023-05-28T10:12:18Z</time>
      </trkpt>
      <trkpt lat="43.53164" lon="5.57812">
        <ele>891</ele>
        <time>2023-05-28T10:12:19Z</time>
      </trkpt>
      <trkpt lat="43.53164" lon="5.57812">
        <ele>891</ele>
        <time>2023-05-28T10:12:20Z</time>
      </trkpt>
      <trkpt lat="43.53164" lon="5.57812">
        <ele>891</ele>
        <time>2023-05-28T10:12:21Z</time>
      </trkpt>
      <trkpt lat="43.53163" lon="5.57812">
        <ele>891</ele>
        <time>2023-05-28T10:12:22Z</time>
      </trkpt>
      <trkpt lat="43.53163" lon="5.57812">
        <ele>890.9</ele>
        <time>2023-05-28T10:12:23Z</time>
      </trkpt>
      <trkpt lat="43.53162" lon="5.57812">
        <ele>891</ele>
        <time>2023-05-28T10:12:24Z</time>
      </trkpt>
      <trkpt lat="43.53161" lon="5.57812">
        <ele>891</ele>
        <time>2023-05-28T10:12:25Z</time>
      </trkpt>
      <trkpt lat="43.5316" lon="5.57812">
        <ele>891</ele>
        <time>2023-05-28T10:12:26Z</time>
      </trkpt>
      <trkpt lat="43.5316" lon="5.57812">
        <ele>891</ele>
        <time>2023-05-28T10:12:27Z</time>
      </trkpt>
      <trkpt lat="43.53159" lon="5.57811">
        <ele>891</ele>
        <time>2023-05-28T10:12:28Z</time>
      </trkpt>
      <trkpt lat="43.53159" lon="5.57811">
        <ele>891</ele>
        <time>2023-05-28T10:12:29Z</time>
      </trkpt>
      <trkpt lat="43.53159" lon="5.57811">
        <ele>891</ele>
        <time>2023-05-28T10:12:30Z</time>
      </trkpt>
      <trkpt lat="43.53158" lon="5.57811">
        <ele>890.9</ele>
        <time>2023-05-28T10:12:31Z</time>
      </trkpt>
      <trkpt lat="43.53158" lon="5.57811">
        <ele>890.8</ele>
        <time>2023-05-28T10:12:32Z</time>
      </trkpt>
      <trkpt lat="43.53158" lon="5.57811">
        <ele>890.9</ele>
        <time>2023-05-28T10:12:33Z</time>
      </trkpt>
      <trkpt lat="43.53158" lon="5.57811">
        <ele>890.9</ele>
        <time>2023-05-28T10:12:34Z</time>
      </trkpt>
      <trkpt lat="43.53158" lon="5.57811">
        <ele>890.8</ele>
        <time>2023-05-28T10:12:35Z</time>
      </trkpt>
      <trkpt lat="43.53158" lon="5.57811">
        <ele>890.9</ele>
        <time>2023-05-28T10:12:36Z</time>
      </trkpt>
      <trkpt lat="43.53158" lon="5.57811">
        <ele>890.8</ele>
        <time>2023-05-28T10:12:37Z</time>
      </trkpt>
      <trkpt lat="43.53158" lon="5.5781">
        <ele>891</ele>
        <time>2023-05-28T10:12:38Z</time>
      </trkpt>
      <trkpt lat="43.53158" lon="5.5781">
        <ele>891.2</ele>
        <time>2023-05-28T10:12:39Z</time>
      </trkpt>
      <trkpt lat="43.53158" lon="5.5781">
        <ele>891.2</ele>
        <time>2023-05-28T10:12:40Z</time>
      </trkpt>
      <trkpt lat="43.53158" lon="5.5781">
        <ele>891.2</ele>
        <time>2023-05-28T10:12:41Z</time>
      </trkpt>
      <trkpt lat="43.53158" lon="5.57811">
        <ele>891.1</ele>
        <time>2023-05-28T10:12:42Z</time>
      </trkpt>
      <trkpt lat="43.53158" lon="5.57811">
        <ele>891.1</ele>
        <time>2023-05-28T10:12:43Z</time>
      </trkpt>
      <trkpt lat="43.53159" lon="5.5781">
        <ele>891.1</ele>
        <time>2023-05-28T10:12:44Z</time>
      </trkpt>
      <trkpt lat="43.53159" lon="5.5781">
        <ele>891</ele>
        <time>2023-05-28T10:12:45Z</time>
      </trkpt>
      <trkpt lat="43.53159" lon="5.57811">
        <ele>891</ele>
        <time>2023-05-28T10:12:46Z</time>
      </trkpt>
      <trkpt lat="43.53161" lon="5.57812">
        <ele>891</ele>
        <time>2023-05-28T10:12:47Z</time>
      </trkpt>
      <trkpt lat="43.53163" lon="5.57813">
        <ele>891</ele>
        <time>2023-05-28T10:12:48Z</time>
      </trkpt>
      <trkpt lat="43.53164" lon="5.57813">
        <ele>891</ele>
        <time>2023-05-28T10:12:49Z</time>
      </trkpt>
      <trkpt lat="43.53163" lon="5.57813">
        <ele>890.9</ele>
        <time>2023-05-28T10:12:50Z</time>
      </trkpt>
      <trkpt lat="43.53162" lon="5.57812">
        <ele>890.9</ele>
        <time>2023-05-28T10:12:51Z</time>
      </trkpt>
      <trkpt lat="43.53162" lon="5.57812">
        <ele>890.9</ele>
        <time>2023-05-28T10:12:52Z</time>
      </trkpt>
      <trkpt lat="43.53162" lon="5.57811">
        <ele>891</ele>
        <time>2023-05-28T10:12:53Z</time>
      </trkpt>
      <trkpt lat="43.53162" lon="5.5781">
        <ele>891</ele>
        <time>2023-05-28T10:12:54Z</time>
      </trkpt>
      <trkpt lat="43.53161" lon="5.5781">
        <ele>891.2</ele>
        <time>2023-05-28T10:12:55Z</time>
      </trkpt>
      <trkpt lat="43.53161" lon="5.5781">
        <ele>891.3</ele>
        <time>2023-05-28T10:12:56Z</time>
      </trkpt>
      <trkpt lat="43.53161" lon="5.5781">
        <ele>891.3</ele>
        <time>2023-05-28T10:12:57Z</time>
      </trkpt>
      <trkpt lat="43.53162" lon="5.5781">
        <ele>891.2</ele>
        <time>2023-05-28T10:12:58Z</time>
      </trkpt>
      <trkpt lat="43.53162" lon="5.57811">
        <ele>891.2</ele>
        <time>2023-05-28T10:12:59Z</time>
      </trkpt>
      <trkpt lat="43.53162" lon="5.57811">
        <ele>891.2</ele>
        <time>2023-05-28T10:13:00Z</time>
      </trkpt>
      <trkpt lat="43.53163" lon="5.57811">
        <ele>891.1</ele>
        <time>2023-05-28T10:13:01Z</time>
      </trkpt>
      <trkpt lat="43.53163" lon="5.57811">
        <ele>891.1</ele>
        <time>2023-05-28T10:13:02Z</time>
      </trkpt>
      <trkpt lat="43.53163" lon="5.57811">
        <ele>891.1</ele>
        <time>2023-05-28T10:13:03Z</time>
      </trkpt>
      <trkpt lat="43.53163" lon="5.57811">
        <ele>891</ele>
        <time>2023-05-28T10:13:04Z</time>
      </trkpt>
      <trkpt lat="43.53164" lon="5.57812">
        <ele>891</ele>
        <time>2023-05-28T10:13:05Z</time>
      </trkpt>
      <trkpt lat="43.53164" lon="5.57812">
        <ele>891</ele>
        <time>2023-05-28T10:13:06Z</time>
      </trkpt>
      <trkpt lat="43.53165" lon="5.57813">
        <ele>891</ele>
        <time>2023-05-28T10:13:07Z</time>
      </trkpt>
      <trkpt lat="43.53165" lon="5.57813">
        <ele>891</ele>
        <time>2023-05-28T10:13:08Z</time>
      </trkpt>
      <trkpt lat="43.53166" lon="5.57813">
        <ele>891</ele>
        <time>2023-05-28T10:13:09Z</time>
      </trkpt>
      <trkpt lat="43.53167" lon="5.57814">
        <ele>891</ele>
        <time>2023-05-28T10:13:10Z</time>
      </trkpt>
      <trkpt lat="43.53167" lon="5.57814">
        <ele>891.1</ele>
        <time>2023-05-28T10:13:11Z</time>
      </trkpt>
      <trkpt lat="43.53167" lon="5.57814">
        <ele>891.1</ele>
        <time>2023-05-28T10:13:12Z</time>
      </trkpt>
      <trkpt lat="43.53168" lon="5.57814">
        <ele>891.1</ele>
        <time>2023-05-28T10:13:13Z</time>
      </trkpt>
      <trkpt lat="43.53168" lon="5.57814">
        <ele>891.1</ele>
        <time>2023-05-28T10:13:14Z</time>
      </trkpt>
      <trkpt lat="43.53168" lon="5.57814">
        <ele>891.1</ele>
        <time>2023-05-28T10:13:15Z</time>
      </trkpt>
      <trkpt lat="43.53168" lon="5.57814">
        <ele>891.1</ele>
        <time>2023-05-28T10:13:16Z</time>
      </trkpt>
      <trkpt lat="43.53168" lon="5.57814">
        <ele>891</ele>
        <time>2023-05-28T10:13:17Z</time>
      </trkpt>
      <trkpt lat="43.53168" lon="5.57814">
        <ele>890.9</ele>
        <time>2023-05-28T10:13:18Z</time>
      </trkpt>
      <trkpt lat="43.53168" lon="5.57815">
        <ele>890.9</ele>
        <time>2023-05-28T10:13:19Z</time>
      </trkpt>
      <trkpt lat="43.53168" lon="5.57815">
        <ele>890.9</ele>
        <time>2023-05-28T10:13:20Z</time>
      </trkpt>
      <trkpt lat="43.53168" lon="5.57815">
        <ele>891</ele>
        <time>2023-05-28T10:13:21Z</time>
      </trkpt>
      <trkpt lat="43.53169" lon="5.57815">
        <ele>891</ele>
        <time>2023-05-28T10:13:22Z</time>
      </trkpt>
      <trkpt lat="43.53169" lon="5.57815">
        <ele>891</ele>
        <time>2023-05-28T10:13:23Z</time>
      </trkpt>
      <trkpt lat="43.53168" lon="5.57815">
        <ele>890.9</ele>
        <time>2023-05-28T10:13:24Z</time>
      </trkpt>
      <trkpt lat="43.53168" lon="5.57815">
        <ele>890.9</ele>
        <time>2023-05-28T10:13:25Z</time>
      </trkpt>
      <trkpt lat="43.53169" lon="5.57815">
        <ele>890.9</ele>
        <time>2023-05-28T10:13:26Z</time>
      </trkpt>
      <trkpt lat="43.53169" lon="5.57815">
        <ele>890.8</ele>
        <time>2023-05-28T10:13:27Z</time>
      </trkpt>
      <trkpt lat="43.53169" lon="5.57815">
        <ele>890.8</ele>
        <time>2023-05-28T10:13:28Z</time>
      </trkpt>
      <trkpt lat="43.53168" lon="5.57815">
        <ele>890.9</ele>
        <time>2023-05-28T10:13:29Z</time>
      </trkpt>
      <trkpt lat="43.53168" lon="5.57815">
        <ele>890.9</ele>
        <time>2023-05-28T10:13:30Z</time>
      </trkpt>
      <trkpt lat="43.53168" lon="5.57815">
        <ele>890.9</ele>
        <time>2023-05-28T10:13:31Z</time>
      </trkpt>
      <trkpt lat="43.53168" lon="5.57816">
        <ele>890.9</ele>
        <time>2023-05-28T10:13:32Z</time>
      </trkpt>
      <trkpt lat="43.53168" lon="5.57816">
        <ele>890.8</ele>
        <time>2023-05-28T10:13:33Z</time>
      </trkpt>
      <trkpt lat="43.53168" lon="5.57816">
        <ele>890.8</ele>
        <time>2023-05-28T10:13:34Z</time>
      </trkpt>
      <trkpt lat="43.53168" lon="5.57816">
        <ele>890.8</ele>
        <time>2023-05-28T10:13:35Z</time>
      </trkpt>
      <trkpt lat="43.53168" lon="5.57814">
        <ele>890.9</ele>
        <time>2023-05-28T10:13:36Z</time>
      </trkpt>
      <trkpt lat="43.53168" lon="5.57813">
        <ele>890.9</ele>
        <time>2023-05-28T10:13:37Z</time>
      </trkpt>
      <trkpt lat="43.53168" lon="5.57813">
        <ele>890.9</ele>
        <time>2023-05-28T10:13:38Z</time>
      </trkpt>
      <trkpt lat="43.53169" lon="5.57813">
        <ele>890.9</ele>
        <time>2023-05-28T10:13:39Z</time>
      </trkpt>
      <trkpt lat="43.53169" lon="5.57813">
        <ele>890.9</ele>
        <time>2023-05-28T10:13:40Z</time>
      </trkpt>
      <trkpt lat="43.53169" lon="5.57813">
        <ele>890.8</ele>
        <time>2023-05-28T10:13:41Z</time>
      </trkpt>
      <trkpt lat="43.5317" lon="5.57813">
        <ele>890.8</ele>
        <time>2023-05-28T10:13:42Z</time>
      </trkpt>
      <trkpt lat="43.5317" lon="5.57813">
        <ele>890.8</ele>
        <time>2023-05-28T10:13:43Z</time>
      </trkpt>
      <trkpt lat="43.5317" lon="5.57812">
        <ele>890.8</ele>
        <time>2023-05-28T10:13:44Z</time>
      </trkpt>
      <trkpt lat="43.5317" lon="5.57812">
        <ele>890.7</ele>
        <time>2023-05-28T10:13:45Z</time>
      </trkpt>
      <trkpt lat="43.5317" lon="5.57813">
        <ele>890.7</ele>
        <time>2023-05-28T10:13:46Z</time>
      </trkpt>
      <trkpt lat="43.53171" lon="5.57813">
        <ele>890.7</ele>
        <time>2023-05-28T10:13:47Z</time>
      </trkpt>
      <trkpt lat="43.53172" lon="5.57813">
        <ele>890.7</ele>
        <time>2023-05-28T10:13:48Z</time>
      </trkpt>
      <trkpt lat="43.53171" lon="5.57813">
        <ele>890.7</ele>
        <time>2023-05-28T10:13:49Z</time>
      </trkpt>
      <trkpt lat="43.53172" lon="5.57814">
        <ele>890.7</ele>
        <time>2023-05-28T10:13:50Z</time>
      </trkpt>
      <trkpt lat="43.53173" lon="5.57814">
        <ele>890.7</ele>
        <time>2023-05-28T10:13:51Z</time>
      </trkpt>
      <trkpt lat="43.53173" lon="5.57813">
        <ele>890.8</ele>
        <time>2023-05-28T10:13:52Z</time>
      </trkpt>
      <trkpt lat="43.53173" lon="5.57813">
        <ele>890.8</ele>
        <time>2023-05-28T10:13:53Z</time>
      </trkpt>
      <trkpt lat="43.53174" lon="5.57813">
        <ele>890.9</ele>
        <time>2023-05-28T10:13:54Z</time>
      </trkpt>
      <trkpt lat="43.53175" lon="5.57813">
        <ele>890.9</ele>
        <time>2023-05-28T10:13:55Z</time>
      </trkpt>
      <trkpt lat="43.53175" lon="5.57813">
        <ele>890.9</ele>
        <time>2023-05-28T10:13:56Z</time>
      </trkpt>
      <trkpt lat="43.53175" lon="5.57812">
        <ele>890.9</ele>
        <time>2023-05-28T10:13:57Z</time>
      </trkpt>
      <trkpt lat="43.53175" lon="5.57812">
        <ele>890.9</ele>
        <time>2023-05-28T10:13:58Z</time>
      </trkpt>
      <trkpt lat="43.53175" lon="5.57812">
        <ele>891</ele>
        <time>2023-05-28T10:13:59Z</time>
      </trkpt>
      <trkpt lat="43.53175" lon="5.57812">
        <ele>891</ele>
        <time>2023-05-28T10:14:00Z</time>
      </trkpt>
      <trkpt lat="43.53175" lon="5.57811">
        <ele>891</ele>
        <time>2023-05-28T10:14:01Z</time>
      </trkpt>
      <trkpt lat="43.53176" lon="5.57812">
        <ele>891</ele>
        <time>2023-05-28T10:14:02Z</time>
      </trkpt>
      <trkpt lat="43.53176" lon="5.57811">
        <ele>891</ele>
        <time>2023-05-28T10:14:03Z</time>
      </trkpt>
      <trkpt lat="43.53176" lon="5.57811">
        <ele>891</ele>
        <time>2023-05-28T10:14:04Z</time>
      </trkpt>
      <trkpt lat="43.53176" lon="5.57811">
        <ele>891</ele>
        <time>2023-05-28T10:14:05Z</time>
      </trkpt>
      <trkpt lat="43.53176" lon="5.57811">
        <ele>891</ele>
        <time>2023-05-28T10:14:06Z</time>
      </trkpt>
      <trkpt lat="43.53176" lon="5.57811">
        <ele>890.9</ele>
        <time>2023-05-28T10:14:07Z</time>
      </trkpt>
      <trkpt lat="43.53176" lon="5.57811">
        <ele>891</ele>
        <time>2023-05-28T10:14:08Z</time>
      </trkpt>
      <trkpt lat="43.53176" lon="5.57811">
        <ele>891</ele>
        <time>2023-05-28T10:14:09Z</time>
      </trkpt>
      <trkpt lat="43.53176" lon="5.57811">
        <ele>891.1</ele>
        <time>2023-05-28T10:14:10Z</time>
      </trkpt>
      <trkpt lat="43.53176" lon="5.5781">
        <ele>891.1</ele>
        <time>2023-05-28T10:14:11Z</time>
      </trkpt>
      <trkpt lat="43.53176" lon="5.5781">
        <ele>891.2</ele>
        <time>2023-05-28T10:14:12Z</time>
      </trkpt>
      <trkpt lat="43.53176" lon="5.5781">
        <ele>891.2</ele>
        <time>2023-05-28T10:14:13Z</time>
      </trkpt>
      <trkpt lat="43.53176" lon="5.5781">
        <ele>891.2</ele>
        <time>2023-05-28T10:14:14Z</time>
      </trkpt>
      <trkpt lat="43.53176" lon="5.5781">
        <ele>891.3</ele>
        <time>2023-05-28T10:14:15Z</time>
      </trkpt>
      <trkpt lat="43.53176" lon="5.5781">
        <ele>891.3</ele>
        <time>2023-05-28T10:14:16Z</time>
      </trkpt>
      <trkpt lat="43.53176" lon="5.5781">
        <ele>891.2</ele>
        <time>2023-05-28T10:14:17Z</time>
      </trkpt>
      <trkpt lat="43.53176" lon="5.5781">
        <ele>891.2</ele>
        <time>2023-05-28T10:14:18Z</time>
      </trkpt>
      <trkpt lat="43.53176" lon="5.5781">
        <ele>891.2</ele>
        <time>2023-05-28T10:14:19Z</time>
      </trkpt>
      <trkpt lat="43.53176" lon="5.5781">
        <ele>891.1</ele>
        <time>2023-05-28T10:14:20Z</time>
      </trkpt>
      <trkpt lat="43.53176" lon="5.5781">
        <ele>891.1</ele>
        <time>2023-05-28T10:14:21Z</time>
      </trkpt>
      <trkpt lat="43.53176" lon="5.5781">
        <ele>891.1</ele>
        <time>2023-05-28T10:14:22Z</time>
      </trkpt>
      <trkpt lat="43.53176" lon="5.5781">
        <ele>891.1</ele>
        <time>2023-05-28T10:14:23Z</time>
      </trkpt>
      <trkpt lat="43.53176" lon="5.5781">
        <ele>891.1</ele>
        <time>2023-05-28T10:14:24Z</time>
      </trkpt>
      <trkpt lat="43.53177" lon="5.5781">
        <ele>891</ele>
        <time>2023-05-28T10:14:25Z</time>
      </trkpt>
      <trkpt lat="43.53177" lon="5.5781">
        <ele>890.9</ele>
        <time>2023-05-28T10:14:26Z</time>
      </trkpt>
      <trkpt lat="43.53177" lon="5.57809">
        <ele>890.9</ele>
        <time>2023-05-28T10:14:27Z</time>
      </trkpt>
      <trkpt lat="43.53177" lon="5.57809">
        <ele>890.9</ele>
        <time>2023-05-28T10:14:28Z</time>
      </trkpt>
      <trkpt lat="43.53177" lon="5.57809">
        <ele>890.9</ele>
        <time>2023-05-28T10:14:29Z</time>
      </trkpt>
      <trkpt lat="43.53177" lon="5.57809">
        <ele>890.9</ele>
        <time>2023-05-28T10:14:30Z</time>
      </trkpt>
      <trkpt lat="43.53177" lon="5.57809">
        <ele>890.9</ele>
        <time>2023-05-28T10:14:31Z</time>
      </trkpt>
      <trkpt lat="43.53177" lon="5.57809">
        <ele>890.8</ele>
        <time>2023-05-28T10:14:32Z</time>
      </trkpt>
      <trkpt lat="43.53177" lon="5.57809">
        <ele>890.8</ele>
        <time>2023-05-28T10:14:33Z</time>
      </trkpt>
      <trkpt lat="43.53177" lon="5.57808">
        <ele>890.8</ele>
        <time>2023-05-28T10:14:34Z</time>
      </trkpt>
      <trkpt lat="43.53177" lon="5.57808">
        <ele>890.8</ele>
        <time>2023-05-28T10:14:35Z</time>
      </trkpt>
      <trkpt lat="43.53177" lon="5.57808">
        <ele>890.8</ele>
        <time>2023-05-28T10:14:36Z</time>
      </trkpt>
      <trkpt lat="43.53177" lon="5.57808">
        <ele>890.8</ele>
        <time>2023-05-28T10:14:37Z</time>
      </trkpt>
      <trkpt lat="43.53177" lon="5.57808">
        <ele>890.8</ele>
        <time>2023-05-28T10:14:38Z</time>
      </trkpt>
      <trkpt lat="43.53177" lon="5.57808">
        <ele>890.9</ele>
        <time>2023-05-28T10:14:39Z</time>
      </trkpt>
      <trkpt lat="43.53177" lon="5.57808">
        <ele>890.9</ele>
        <time>2023-05-28T10:14:40Z</time>
      </trkpt>
      <trkpt lat="43.53177" lon="5.57808">
        <ele>890.9</ele>
        <time>2023-05-28T10:14:41Z</time>
      </trkpt>
      <trkpt lat="43.53177" lon="5.57808">
        <ele>890.9</ele>
        <time>2023-05-28T10:14:42Z</time>
      </trkpt>
      <trkpt lat="43.53177" lon="5.57807">
        <ele>890.9</ele>
        <time>2023-05-28T10:14:43Z</time>
      </trkpt>
      <trkpt lat="43.53177" lon="5.57807">
        <ele>890.9</ele>
        <time>2023-05-28T10:14:44Z</time>
      </trkpt>
      <trkpt lat="43.53177" lon="5.57807">
        <ele>890.9</ele>
        <time>2023-05-28T10:14:45Z</time>
      </trkpt>
      <trkpt lat="43.53177" lon="5.57807">
        <ele>890.9</ele>
        <time>2023-05-28T10:14:46Z</time>
      </trkpt>
      <trkpt lat="43.53177" lon="5.57807">
        <ele>890.9</ele>
        <time>2023-05-28T10:14:47Z</time>
      </trkpt>
      <trkpt lat="43.53177" lon="5.57807">
        <ele>890.8</ele>
        <time>2023-05-28T10:14:48Z</time>
      </trkpt>
      <trkpt lat="43.53177" lon="5.57807">
        <ele>890.8</ele>
        <time>2023-05-28T10:14:49Z</time>
      </trkpt>
      <trkpt lat="43.53177" lon="5.57807">
        <ele>890.8</ele>
        <time>2023-05-28T10:14:50Z</time>
      </trkpt>
      <trkpt lat="43.53176" lon="5.57807">
        <ele>890.7</ele>
        <time>2023-05-28T10:14:51Z</time>
      </trkpt>
      <trkpt lat="43.53176" lon="5.57807">
        <ele>890.8</ele>
        <time>2023-05-28T10:14:52Z</time>
      </trkpt>
      <trkpt lat="43.53177" lon="5.57807">
        <ele>890.8</ele>
        <time>2023-05-28T10:14:53Z</time>
      </trkpt>
      <trkpt lat="43.53176" lon="5.57807">
        <ele>890.9</ele>
        <time>2023-05-28T10:14:54Z</time>
      </trkpt>
      <trkpt lat="43.53176" lon="5.57807">
        <ele>890.9</ele>
        <time>2023-05-28T10:14:55Z</time>
      </trkpt>
      <trkpt lat="43.53177" lon="5.57807">
        <ele>891</ele>
        <time>2023-05-28T10:14:56Z</time>
      </trkpt>
      <trkpt lat="43.53177" lon="5.57807">
        <ele>891</ele>
        <time>2023-05-28T10:14:57Z</time>
      </trkpt>
      <trkpt lat="43.53176" lon="5.57807">
        <ele>891</ele>
        <time>2023-05-28T10:14:58Z</time>
      </trkpt>
      <trkpt lat="43.53176" lon="5.57807">
        <ele>891</ele>
        <time>2023-05-28T10:14:59Z</time>
      </trkpt>
      <trkpt lat="43.53176" lon="5.57807">
        <ele>891.1</ele>
        <time>2023-05-28T10:15:00Z</time>
      </trkpt>
      <trkpt lat="43.53176" lon="5.57807">
        <ele>891.1</ele>
        <time>2023-05-28T10:15:01Z</time>
      </trkpt>
      <trkpt lat="43.53176" lon="5.57807">
        <ele>891.1</ele>
        <time>2023-05-28T10:15:02Z</time>
      </trkpt>
      <trkpt lat="43.53175" lon="5.57807">
        <ele>891.2</ele>
        <time>2023-05-28T10:15:03Z</time>
      </trkpt>
      <trkpt lat="43.53176" lon="5.57807">
        <ele>891.2</ele>
        <time>2023-05-28T10:15:04Z</time>
      </trkpt>
      <trkpt lat="43.53176" lon="5.57808">
        <ele>891.2</ele>
        <time>2023-05-28T10:15:05Z</time>
      </trkpt>
      <trkpt lat="43.53176" lon="5.57808">
        <ele>891.3</ele>
        <time>2023-05-28T10:15:06Z</time>
      </trkpt>
      <trkpt lat="43.53176" lon="5.57808">
        <ele>891.4</ele>
        <time>2023-05-28T10:15:07Z</time>
      </trkpt>
      <trkpt lat="43.53176" lon="5.57808">
        <ele>891.4</ele>
        <time>2023-05-28T10:15:08Z</time>
      </trkpt>
      <trkpt lat="43.53176" lon="5.57808">
        <ele>891.4</ele>
        <time>2023-05-28T10:15:09Z</time>
      </trkpt>
      <trkpt lat="43.53176" lon="5.57808">
        <ele>891.4</ele>
        <time>2023-05-28T10:15:10Z</time>
      </trkpt>
      <trkpt lat="43.53175" lon="5.57808">
        <ele>891.4</ele>
        <time>2023-05-28T10:15:11Z</time>
      </trkpt>
      <trkpt lat="43.53175" lon="5.57808">
        <ele>891.3</ele>
        <time>2023-05-28T10:15:12Z</time>
      </trkpt>
      <trkpt lat="43.53175" lon="5.57808">
        <ele>891.3</ele>
        <time>2023-05-28T10:15:13Z</time>
      </trkpt>
      <trkpt lat="43.53175" lon="5.57808">
        <ele>891.3</ele>
        <time>2023-05-28T10:15:14Z</time>
      </trkpt>
      <trkpt lat="43.53175" lon="5.57808">
        <ele>891.3</ele>
        <time>2023-05-28T10:15:15Z</time>
      </trkpt>
      <trkpt lat="43.53175" lon="5.57808">
        <ele>891.3</ele>
        <time>2023-05-28T10:15:16Z</time>
      </trkpt>
      <trkpt lat="43.53175" lon="5.57808">
        <ele>891.2</ele>
        <time>2023-05-28T10:15:17Z</time>
      </trkpt>
      <trkpt lat="43.53175" lon="5.57808">
        <ele>891.2</ele>
        <time>2023-05-28T10:15:18Z</time>
      </trkpt>
      <trkpt lat="43.53174" lon="5.57808">
        <ele>891.1</ele>
        <time>2023-05-28T10:15:19Z</time>
      </trkpt>
      <trkpt lat="43.53174" lon="5.57808">
        <ele>891.1</ele>
        <time>2023-05-28T10:15:20Z</time>
      </trkpt>
      <trkpt lat="43.53174" lon="5.57809">
        <ele>891.2</ele>
        <time>2023-05-28T10:15:21Z</time>
      </trkpt>
      <trkpt lat="43.53174" lon="5.57809">
        <ele>891.2</ele>
        <time>2023-05-28T10:15:22Z</time>
      </trkpt>
      <trkpt lat="43.53174" lon="5.57809">
        <ele>891.2</ele>
        <time>2023-05-28T10:15:23Z</time>
      </trkpt>
      <trkpt lat="43.53174" lon="5.57809">
        <ele>891.3</ele>
        <time>2023-05-28T10:15:24Z</time>
      </trkpt>
      <trkpt lat="43.53174" lon="5.5781">
        <ele>891.3</ele>
        <time>2023-05-28T10:15:25Z</time>
      </trkpt>
      <trkpt lat="43.53174" lon="5.5781">
        <ele>891.3</ele>
        <time>2023-05-28T10:15:26Z</time>
      </trkpt>
      <trkpt lat="43.53174" lon="5.5781">
        <ele>891.3</ele>
        <time>2023-05-28T10:15:27Z</time>
      </trkpt>
      <trkpt lat="43.53174" lon="5.5781">
        <ele>891.3</ele>
        <time>2023-05-28T10:15:28Z</time>
      </trkpt>
      <trkpt lat="43.53174" lon="5.5781">
        <ele>891.3</ele>
        <time>2023-05-28T10:15:29Z</time>
      </trkpt>
      <trkpt lat="43.53174" lon="5.5781">
        <ele>891.3</ele>
        <time>2023-05-28T10:15:30Z</time>
      </trkpt>
      <trkpt lat="43.53174" lon="5.5781">
        <ele>891.3</ele>
        <time>2023-05-28T10:15:31Z</time>
      </trkpt>
      <trkpt lat="43.53174" lon="5.5781">
        <ele>891.3</ele>
        <time>2023-05-28T10:15:32Z</time>
      </trkpt>
      <trkpt lat="43.53174" lon="5.5781">
        <ele>891.4</ele>
        <time>2023-05-28T10:15:33Z</time>
      </trkpt>
      <trkpt lat="43.53174" lon="5.5781">
        <ele>891.4</ele>
        <time>2023-05-28T10:15:34Z</time>
      </trkpt>
      <trkpt lat="43.53174" lon="5.57811">
        <ele>891.5</ele>
        <time>2023-05-28T10:15:35Z</time>
      </trkpt>
      <trkpt lat="43.53174" lon="5.57811">
        <ele>891.5</ele>
        <time>2023-05-28T10:15:36Z</time>
      </trkpt>
      <trkpt lat="43.53174" lon="5.57811">
        <ele>891.6</ele>
        <time>2023-05-28T10:15:37Z</time>
      </trkpt>
      <trkpt lat="43.53174" lon="5.57811">
        <ele>891.6</ele>
        <time>2023-05-28T10:15:38Z</time>
      </trkpt>
      <trkpt lat="43.53174" lon="5.57811">
        <ele>891.6</ele>
        <time>2023-05-28T10:15:39Z</time>
      </trkpt>
      <trkpt lat="43.53173" lon="5.57811">
        <ele>891.5</ele>
        <time>2023-05-28T10:15:40Z</time>
      </trkpt>
      <trkpt lat="43.53173" lon="5.57811">
        <ele>891.4</ele>
        <time>2023-05-28T10:15:41Z</time>
      </trkpt>
      <trkpt lat="43.53173" lon="5.57811">
        <ele>891.3</ele>
        <time>2023-05-28T10:15:42Z</time>
      </trkpt>
      <trkpt lat="43.53173" lon="5.57811">
        <ele>891.2</ele>
        <time>2023-05-28T10:15:43Z</time>
      </trkpt>
      <trkpt lat="43.53173" lon="5.57811">
        <ele>891.2</ele>
        <time>2023-05-28T10:15:44Z</time>
      </trkpt>
      <trkpt lat="43.53173" lon="5.57811">
        <ele>891.3</ele>
        <time>2023-05-28T10:15:45Z</time>
      </trkpt>
      <trkpt lat="43.53172" lon="5.57811">
        <ele>891.3</ele>
        <time>2023-05-28T10:15:46Z</time>
      </trkpt>
      <trkpt lat="43.53172" lon="5.57811">
        <ele>891.3</ele>
        <time>2023-05-28T10:15:47Z</time>
      </trkpt>
      <trkpt lat="43.53172" lon="5.57812">
        <ele>891.4</ele>
        <time>2023-05-28T10:15:48Z</time>
      </trkpt>
      <trkpt lat="43.53173" lon="5.57812">
        <ele>891.4</ele>
        <time>2023-05-28T10:15:49Z</time>
      </trkpt>
      <trkpt lat="43.53172" lon="5.57812">
        <ele>891.4</ele>
        <time>2023-05-28T10:15:50Z</time>
      </trkpt>
      <trkpt lat="43.53172" lon="5.57812">
        <ele>891.4</ele>
        <time>2023-05-28T10:15:51Z</time>
      </trkpt>
      <trkpt lat="43.53172" lon="5.57813">
        <ele>891.4</ele>
        <time>2023-05-28T10:15:52Z</time>
      </trkpt>
      <trkpt lat="43.53173" lon="5.57813">
        <ele>891.4</ele>
        <time>2023-05-28T10:15:53Z</time>
      </trkpt>
      <trkpt lat="43.53173" lon="5.57814">
        <ele>891.4</ele>
        <time>2023-05-28T10:15:54Z</time>
      </trkpt>
      <trkpt lat="43.53173" lon="5.57814">
        <ele>891.4</ele>
        <time>2023-05-28T10:15:55Z</time>
      </trkpt>
      <trkpt lat="43.53173" lon="5.57814">
        <ele>891.4</ele>
        <time>2023-05-28T10:15:56Z</time>
      </trkpt>
      <trkpt lat="43.53174" lon="5.57814">
        <ele>891.4</ele>
        <time>2023-05-28T10:15:57Z</time>
      </trkpt>
      <trkpt lat="43.53174" lon="5.57813">
        <ele>891.4</ele>
        <time>2023-05-28T10:15:58Z</time>
      </trkpt>
      <trkpt lat="43.53174" lon="5.57814">
        <ele>891.4</ele>
        <time>2023-05-28T10:15:59Z</time>
      </trkpt>
      <trkpt lat="43.53174" lon="5.57814">
        <ele>891.4</ele>
        <time>2023-05-28T10:16:00Z</time>
      </trkpt>
      <trkpt lat="43.53174" lon="5.57814">
        <ele>891.4</ele>
        <time>2023-05-28T10:16:01Z</time>
      </trkpt>
      <trkpt lat="43.53174" lon="5.57814">
        <ele>891.4</ele>
        <time>2023-05-28T10:16:02Z</time>
      </trkpt>
      <trkpt lat="43.53175" lon="5.57815">
        <ele>891.4</ele>
        <time>2023-05-28T10:16:03Z</time>
      </trkpt>
      <trkpt lat="43.53175" lon="5.57815">
        <ele>891.5</ele>
        <time>2023-05-28T10:16:04Z</time>
      </trkpt>
      <trkpt lat="43.53175" lon="5.57816">
        <ele>891.5</ele>
        <time>2023-05-28T10:16:05Z</time>
      </trkpt>
      <trkpt lat="43.53175" lon="5.57816">
        <ele>891.5</ele>
        <time>2023-05-28T10:16:06Z</time>
      </trkpt>
      <trkpt lat="43.53176" lon="5.57816">
        <ele>891.5</ele>
        <time>2023-05-28T10:16:07Z</time>
      </trkpt>
      <trkpt lat="43.53175" lon="5.57816">
        <ele>891.4</ele>
        <time>2023-05-28T10:16:08Z</time>
      </trkpt>
      <trkpt lat="43.53175" lon="5.57815">
        <ele>891.4</ele>
        <time>2023-05-28T10:16:09Z</time>
      </trkpt>
      <trkpt lat="43.53176" lon="5.57815">
        <ele>891.4</ele>
        <time>2023-05-28T10:16:10Z</time>
      </trkpt>
      <trkpt lat="43.53175" lon="5.57815">
        <ele>891.3</ele>
        <time>2023-05-28T10:16:11Z</time>
      </trkpt>
      <trkpt lat="43.53175" lon="5.57815">
        <ele>891.2</ele>
        <time>2023-05-28T10:16:12Z</time>
      </trkpt>
      <trkpt lat="43.53176" lon="5.57815">
        <ele>891.2</ele>
        <time>2023-05-28T10:16:13Z</time>
      </trkpt>
      <trkpt lat="43.53176" lon="5.57815">
        <ele>891.3</ele>
        <time>2023-05-28T10:16:14Z</time>
      </trkpt>
      <trkpt lat="43.53176" lon="5.57815">
        <ele>891.3</ele>
        <time>2023-05-28T10:16:15Z</time>
      </trkpt>
      <trkpt lat="43.53176" lon="5.57815">
        <ele>891.3</ele>
        <time>2023-05-28T10:16:16Z</time>
      </trkpt>
      <trkpt lat="43.53176" lon="5.57815">
        <ele>891.2</ele>
        <time>2023-05-28T10:16:17Z</time>
      </trkpt>
      <trkpt lat="43.53176" lon="5.57815">
        <ele>891.1</ele>
        <time>2023-05-28T10:16:18Z</time>
      </trkpt>
      <trkpt lat="43.53176" lon="5.57815">
        <ele>891.1</ele>
        <time>2023-05-28T10:16:19Z</time>
      </trkpt>
      <trkpt lat="43.53176" lon="5.57815">
        <ele>891</ele>
        <time>2023-05-28T10:16:20Z</time>
      </trkpt>
      <trkpt lat="43.53177" lon="5.57814">
        <ele>891</ele>
        <time>2023-05-28T10:16:21Z</time>
      </trkpt>
      <trkpt lat="43.53177" lon="5.57814">
        <ele>891</ele>
        <time>2023-05-28T10:16:22Z</time>
      </trkpt>
      <trkpt lat="43.53176" lon="5.57814">
        <ele>890.9</ele>
        <time>2023-05-28T10:16:23Z</time>
      </trkpt>
      <trkpt lat="43.53177" lon="5.57814">
        <ele>890.9</ele>
        <time>2023-05-28T10:16:24Z</time>
      </trkpt>
      <trkpt lat="43.53177" lon="5.57814">
        <ele>890.9</ele>
        <time>2023-05-28T10:16:25Z</time>
      </trkpt>
      <trkpt lat="43.53178" lon="5.57813">
        <ele>890.9</ele>
        <time>2023-05-28T10:16:26Z</time>
      </trkpt>
      <trkpt lat="43.53179" lon="5.57813">
        <ele>890.9</ele>
        <time>2023-05-28T10:16:27Z</time>
      </trkpt>
      <trkpt lat="43.53179" lon="5.57813">
        <ele>890.9</ele>
        <time>2023-05-28T10:16:28Z</time>
      </trkpt>
      <trkpt lat="43.5318" lon="5.57813">
        <ele>890.9</ele>
        <time>2023-05-28T10:16:29Z</time>
      </trkpt>
      <trkpt lat="43.5318" lon="5.57812">
        <ele>890.9</ele>
        <time>2023-05-28T10:16:30Z</time>
      </trkpt>
      <trkpt lat="43.5318" lon="5.57812">
        <ele>890.8</ele>
        <time>2023-05-28T10:16:31Z</time>
      </trkpt>
      <trkpt lat="43.5318" lon="5.57811">
        <ele>890.7</ele>
        <time>2023-05-28T10:16:32Z</time>
      </trkpt>
      <trkpt lat="43.5318" lon="5.5781">
        <ele>890.7</ele>
        <time>2023-05-28T10:16:33Z</time>
      </trkpt>
      <trkpt lat="43.5318" lon="5.5781">
        <ele>890.6</ele>
        <time>2023-05-28T10:16:34Z</time>
      </trkpt>
      <trkpt lat="43.53181" lon="5.5781">
        <ele>890.5</ele>
        <time>2023-05-28T10:16:35Z</time>
      </trkpt>
      <trkpt lat="43.53182" lon="5.5781">
        <ele>890.4</ele>
        <time>2023-05-28T10:16:36Z</time>
      </trkpt>
      <trkpt lat="43.53182" lon="5.57809">
        <ele>890.4</ele>
        <time>2023-05-28T10:16:37Z</time>
      </trkpt>
      <trkpt lat="43.53182" lon="5.57809">
        <ele>890.4</ele>
        <time>2023-05-28T10:16:38Z</time>
      </trkpt>
      <trkpt lat="43.53182" lon="5.57808">
        <ele>890.4</ele>
        <time>2023-05-28T10:16:39Z</time>
      </trkpt>
      <trkpt lat="43.53182" lon="5.57808">
        <ele>890.3</ele>
        <time>2023-05-28T10:16:40Z</time>
      </trkpt>
      <trkpt lat="43.53182" lon="5.57807">
        <ele>890.1</ele>
        <time>2023-05-28T10:16:41Z</time>
      </trkpt>
      <trkpt lat="43.53183" lon="5.57807">
        <ele>890</ele>
        <time>2023-05-28T10:16:42Z</time>
      </trkpt>
      <trkpt lat="43.53183" lon="5.57806">
        <ele>889.8</ele>
        <time>2023-05-28T10:16:43Z</time>
      </trkpt>
      <trkpt lat="43.53183" lon="5.57805">
        <ele>889.7</ele>
        <time>2023-05-28T10:16:44Z</time>
      </trkpt>
      <trkpt lat="43.53184" lon="5.57805">
        <ele>889.7</ele>
        <time>2023-05-28T10:16:45Z</time>
      </trkpt>
      <trkpt lat="43.53184" lon="5.57804">
        <ele>889.6</ele>
        <time>2023-05-28T10:16:46Z</time>
      </trkpt>
      <trkpt lat="43.53184" lon="5.57804">
        <ele>889.5</ele>
        <time>2023-05-28T10:16:47Z</time>
      </trkpt>
      <trkpt lat="43.53184" lon="5.57803">
        <ele>889.4</ele>
        <time>2023-05-28T10:16:48Z</time>
      </trkpt>
      <trkpt lat="43.53185" lon="5.57803">
        <ele>889.3</ele>
        <time>2023-05-28T10:16:49Z</time>
      </trkpt>
      <trkpt lat="43.53186" lon="5.57802">
        <ele>889.2</ele>
        <time>2023-05-28T10:16:50Z</time>
      </trkpt>
      <trkpt lat="43.53186" lon="5.57801">
        <ele>889.1</ele>
        <time>2023-05-28T10:16:51Z</time>
      </trkpt>
      <trkpt lat="43.53186" lon="5.578">
        <ele>889</ele>
        <time>2023-05-28T10:16:52Z</time>
      </trkpt>
      <trkpt lat="43.53187" lon="5.578">
        <ele>889</ele>
        <time>2023-05-28T10:16:53Z</time>
      </trkpt>
      <trkpt lat="43.53188" lon="5.57799">
        <ele>888.9</ele>
        <time>2023-05-28T10:16:54Z</time>
      </trkpt>
      <trkpt lat="43.53188" lon="5.57799">
        <ele>888.8</ele>
        <time>2023-05-28T10:16:55Z</time>
      </trkpt>
      <trkpt lat="43.53188" lon="5.57797">
        <ele>888.8</ele>
        <time>2023-05-28T10:16:56Z</time>
      </trkpt>
      <trkpt lat="43.53188" lon="5.57797">
        <ele>888.6</ele>
        <time>2023-05-28T10:16:57Z</time>
      </trkpt>
      <trkpt lat="43.53188" lon="5.57796">
        <ele>888.6</ele>
        <time>2023-05-28T10:16:58Z</time>
      </trkpt>
      <trkpt lat="43.53189" lon="5.57795">
        <ele>888.5</ele>
        <time>2023-05-28T10:16:59Z</time>
      </trkpt>
      <trkpt lat="43.53189" lon="5.57794">
        <ele>888.5</ele>
        <time>2023-05-28T10:17:00Z</time>
      </trkpt>
      <trkpt lat="43.53188" lon="5.57793">
        <ele>888.5</ele>
        <time>2023-05-28T10:17:01Z</time>
      </trkpt>
      <trkpt lat="43.53188" lon="5.57791">
        <ele>888.4</ele>
        <time>2023-05-28T10:17:02Z</time>
      </trkpt>
      <trkpt lat="43.53188" lon="5.5779">
        <ele>888.4</ele>
        <time>2023-05-28T10:17:03Z</time>
      </trkpt>
      <trkpt lat="43.53188" lon="5.57789">
        <ele>888.2</ele>
        <time>2023-05-28T10:17:04Z</time>
      </trkpt>
      <trkpt lat="43.53189" lon="5.57788">
        <ele>888.1</ele>
        <time>2023-05-28T10:17:05Z</time>
      </trkpt>
      <trkpt lat="43.53189" lon="5.57787">
        <ele>888.1</ele>
        <time>2023-05-28T10:17:06Z</time>
      </trkpt>
      <trkpt lat="43.53189" lon="5.57786">
        <ele>888.1</ele>
        <time>2023-05-28T10:17:07Z</time>
      </trkpt>
      <trkpt lat="43.53189" lon="5.57785">
        <ele>887.8</ele>
        <time>2023-05-28T10:17:08Z</time>
      </trkpt>
      <trkpt lat="43.5319" lon="5.57784">
        <ele>887.6</ele>
        <time>2023-05-28T10:17:09Z</time>
      </trkpt>
      <trkpt lat="43.5319" lon="5.57783">
        <ele>887.4</ele>
        <time>2023-05-28T10:17:10Z</time>
      </trkpt>
      <trkpt lat="43.5319" lon="5.57782">
        <ele>887.3</ele>
        <time>2023-05-28T10:17:11Z</time>
      </trkpt>
      <trkpt lat="43.5319" lon="5.57781">
        <ele>887.2</ele>
        <time>2023-05-28T10:17:12Z</time>
      </trkpt>
      <trkpt lat="43.53189" lon="5.5778">
        <ele>887.1</ele>
        <time>2023-05-28T10:17:13Z</time>
      </trkpt>
      <trkpt lat="43.5319" lon="5.57778">
        <ele>887.1</ele>
        <time>2023-05-28T10:17:14Z</time>
      </trkpt>
      <trkpt lat="43.5319" lon="5.57777">
        <ele>887.1</ele>
        <time>2023-05-28T10:17:15Z</time>
      </trkpt>
      <trkpt lat="43.5319" lon="5.57776">
        <ele>887.2</ele>
        <time>2023-05-28T10:17:16Z</time>
      </trkpt>
      <trkpt lat="43.53189" lon="5.57774">
        <ele>887.2</ele>
        <time>2023-05-28T10:17:17Z</time>
      </trkpt>
      <trkpt lat="43.53189" lon="5.57773">
        <ele>887.2</ele>
        <time>2023-05-28T10:17:18Z</time>
      </trkpt>
      <trkpt lat="43.53189" lon="5.57771">
        <ele>887.1</ele>
        <time>2023-05-28T10:17:19Z</time>
      </trkpt>
      <trkpt lat="43.53188" lon="5.5777">
        <ele>887</ele>
        <time>2023-05-28T10:17:20Z</time>
      </trkpt>
      <trkpt lat="43.53188" lon="5.57769">
        <ele>886.9</ele>
        <time>2023-05-28T10:17:21Z</time>
      </trkpt>
      <trkpt lat="43.53188" lon="5.57768">
        <ele>886.7</ele>
        <time>2023-05-28T10:17:22Z</time>
      </trkpt>
      <trkpt lat="43.53188" lon="5.57767">
        <ele>886.6</ele>
        <time>2023-05-28T10:17:23Z</time>
      </trkpt>
      <trkpt lat="43.53188" lon="5.57766">
        <ele>886.6</ele>
        <time>2023-05-28T10:17:24Z</time>
      </trkpt>
      <trkpt lat="43.53188" lon="5.57766">
        <ele>886.6</ele>
        <time>2023-05-28T10:17:25Z</time>
      </trkpt>
      <trkpt lat="43.53188" lon="5.57765">
        <ele>886.6</ele>
        <time>2023-05-28T10:17:26Z</time>
      </trkpt>
      <trkpt lat="43.53188" lon="5.57764">
        <ele>886.5</ele>
        <time>2023-05-28T10:17:27Z</time>
      </trkpt>
      <trkpt lat="43.53187" lon="5.57763">
        <ele>886.4</ele>
        <time>2023-05-28T10:17:28Z</time>
      </trkpt>
      <trkpt lat="43.53187" lon="5.57762">
        <ele>886.3</ele>
        <time>2023-05-28T10:17:29Z</time>
      </trkpt>
      <trkpt lat="43.53187" lon="5.57761">
        <ele>886.2</ele>
        <time>2023-05-28T10:17:30Z</time>
      </trkpt>
      <trkpt lat="43.53187" lon="5.5776">
        <ele>886.1</ele>
        <time>2023-05-28T10:17:31Z</time>
      </trkpt>
      <trkpt lat="43.53187" lon="5.57759">
        <ele>886</ele>
        <time>2023-05-28T10:17:32Z</time>
      </trkpt>
      <trkpt lat="43.53186" lon="5.57758">
        <ele>885.9</ele>
        <time>2023-05-28T10:17:33Z</time>
      </trkpt>
      <trkpt lat="43.53186" lon="5.57756">
        <ele>885.8</ele>
        <time>2023-05-28T10:17:34Z</time>
      </trkpt>
      <trkpt lat="43.53186" lon="5.57755">
        <ele>885.7</ele>
        <time>2023-05-28T10:17:35Z</time>
      </trkpt>
      <trkpt lat="43.53187" lon="5.57754">
        <ele>885.6</ele>
        <time>2023-05-28T10:17:36Z</time>
      </trkpt>
      <trkpt lat="43.53187" lon="5.57753">
        <ele>885.5</ele>
        <time>2023-05-28T10:17:37Z</time>
      </trkpt>
      <trkpt lat="43.53187" lon="5.57752">
        <ele>885.4</ele>
        <time>2023-05-28T10:17:38Z</time>
      </trkpt>
      <trkpt lat="43.53187" lon="5.57751">
        <ele>885.4</ele>
        <time>2023-05-28T10:17:39Z</time>
      </trkpt>
      <trkpt lat="43.53187" lon="5.57751">
        <ele>885.2</ele>
        <time>2023-05-28T10:17:40Z</time>
      </trkpt>
      <trkpt lat="43.53186" lon="5.57749">
        <ele>885.1</ele>
        <time>2023-05-28T10:17:41Z</time>
      </trkpt>
      <trkpt lat="43.53186" lon="5.57748">
        <ele>885</ele>
        <time>2023-05-28T10:17:42Z</time>
      </trkpt>
      <trkpt lat="43.53186" lon="5.57747">
        <ele>885</ele>
        <time>2023-05-28T10:17:43Z</time>
      </trkpt>
      <trkpt lat="43.53186" lon="5.57746">
        <ele>884.9</ele>
        <time>2023-05-28T10:17:44Z</time>
      </trkpt>
      <trkpt lat="43.53187" lon="5.57745">
        <ele>884.9</ele>
        <time>2023-05-28T10:17:45Z</time>
      </trkpt>
      <trkpt lat="43.53186" lon="5.57744">
        <ele>884.7</ele>
        <time>2023-05-28T10:17:46Z</time>
      </trkpt>
      <trkpt lat="43.53187" lon="5.57742">
        <ele>884.6</ele>
        <time>2023-05-28T10:17:47Z</time>
      </trkpt>
      <trkpt lat="43.53187" lon="5.57741">
        <ele>884.5</ele>
        <time>2023-05-28T10:17:48Z</time>
      </trkpt>
      <trkpt lat="43.53187" lon="5.57739">
        <ele>884.5</ele>
        <time>2023-05-28T10:17:49Z</time>
      </trkpt>
      <trkpt lat="43.53187" lon="5.57738">
        <ele>884.4</ele>
        <time>2023-05-28T10:17:50Z</time>
      </trkpt>
      <trkpt lat="43.53187" lon="5.57737">
        <ele>884.3</ele>
        <time>2023-05-28T10:17:51Z</time>
      </trkpt>
      <trkpt lat="43.53187" lon="5.57736">
        <ele>884.1</ele>
        <time>2023-05-28T10:17:52Z</time>
      </trkpt>
      <trkpt lat="43.53187" lon="5.57735">
        <ele>884</ele>
        <time>2023-05-28T10:17:53Z</time>
      </trkpt>
      <trkpt lat="43.53187" lon="5.57734">
        <ele>884</ele>
        <time>2023-05-28T10:17:54Z</time>
      </trkpt>
      <trkpt lat="43.53187" lon="5.57733">
        <ele>883.9</ele>
        <time>2023-05-28T10:17:55Z</time>
      </trkpt>
      <trkpt lat="43.53187" lon="5.57732">
        <ele>883.8</ele>
        <time>2023-05-28T10:17:56Z</time>
      </trkpt>
      <trkpt lat="43.53187" lon="5.57731">
        <ele>883.7</ele>
        <time>2023-05-28T10:17:57Z</time>
      </trkpt>
      <trkpt lat="43.53188" lon="5.5773">
        <ele>883.6</ele>
        <time>2023-05-28T10:17:58Z</time>
      </trkpt>
      <trkpt lat="43.53188" lon="5.5773">
        <ele>883.4</ele>
        <time>2023-05-28T10:17:59Z</time>
      </trkpt>
      <trkpt lat="43.53188" lon="5.57729">
        <ele>883.3</ele>
        <time>2023-05-28T10:18:00Z</time>
      </trkpt>
      <trkpt lat="43.53188" lon="5.57729">
        <ele>883.1</ele>
        <time>2023-05-28T10:18:01Z</time>
      </trkpt>
      <trkpt lat="43.53188" lon="5.57728">
        <ele>883</ele>
        <time>2023-05-28T10:18:02Z</time>
      </trkpt>
      <trkpt lat="43.53188" lon="5.57728">
        <ele>882.9</ele>
        <time>2023-05-28T10:18:03Z</time>
      </trkpt>
      <trkpt lat="43.53189" lon="5.57727">
        <ele>882.8</ele>
        <time>2023-05-28T10:18:04Z</time>
      </trkpt>
      <trkpt lat="43.53189" lon="5.57726">
        <ele>882.7</ele>
        <time>2023-05-28T10:18:05Z</time>
      </trkpt>
      <trkpt lat="43.53189" lon="5.57726">
        <ele>882.6</ele>
        <time>2023-05-28T10:18:06Z</time>
      </trkpt>
      <trkpt lat="43.53189" lon="5.57725">
        <ele>882.5</ele>
        <time>2023-05-28T10:18:07Z</time>
      </trkpt>
      <trkpt lat="43.5319" lon="5.57724">
        <ele>882.4</ele>
        <time>2023-05-28T10:18:08Z</time>
      </trkpt>
      <trkpt lat="43.5319" lon="5.57723">
        <ele>882.4</ele>
        <time>2023-05-28T10:18:09Z</time>
      </trkpt>
      <trkpt lat="43.53191" lon="5.57723">
        <ele>882.3</ele>
        <time>2023-05-28T10:18:10Z</time>
      </trkpt>
      <trkpt lat="43.53191" lon="5.57722">
        <ele>882.2</ele>
        <time>2023-05-28T10:18:11Z</time>
      </trkpt>
      <trkpt lat="43.53191" lon="5.5772">
        <ele>882.1</ele>
        <time>2023-05-28T10:18:12Z</time>
      </trkpt>
      <trkpt lat="43.53191" lon="5.5772">
        <ele>882</ele>
        <time>2023-05-28T10:18:13Z</time>
      </trkpt>
      <trkpt lat="43.53191" lon="5.5772">
        <ele>881.9</ele>
        <time>2023-05-28T10:18:14Z</time>
      </trkpt>
      <trkpt lat="43.53191" lon="5.57719">
        <ele>881.8</ele>
        <time>2023-05-28T10:18:15Z</time>
      </trkpt>
      <trkpt lat="43.53192" lon="5.57719">
        <ele>881.7</ele>
        <time>2023-05-28T10:18:16Z</time>
      </trkpt>
      <trkpt lat="43.53192" lon="5.57719">
        <ele>881.6</ele>
        <time>2023-05-28T10:18:17Z</time>
      </trkpt>
      <trkpt lat="43.53192" lon="5.57718">
        <ele>881.5</ele>
        <time>2023-05-28T10:18:18Z</time>
      </trkpt>
      <trkpt lat="43.53192" lon="5.57717">
        <ele>881.5</ele>
        <time>2023-05-28T10:18:19Z</time>
      </trkpt>
      <trkpt lat="43.53192" lon="5.57716">
        <ele>881.4</ele>
        <time>2023-05-28T10:18:20Z</time>
      </trkpt>
      <trkpt lat="43.53193" lon="5.57715">
        <ele>881.2</ele>
        <time>2023-05-28T10:18:21Z</time>
      </trkpt>
      <trkpt lat="43.53193" lon="5.57714">
        <ele>881</ele>
        <time>2023-05-28T10:18:22Z</time>
      </trkpt>
      <trkpt lat="43.53194" lon="5.57713">
        <ele>880.8</ele>
        <time>2023-05-28T10:18:23Z</time>
      </trkpt>
      <trkpt lat="43.53195" lon="5.57711">
        <ele>880.7</ele>
        <time>2023-05-28T10:18:24Z</time>
      </trkpt>
      <trkpt lat="43.53195" lon="5.5771">
        <ele>880.5</ele>
        <time>2023-05-28T10:18:25Z</time>
      </trkpt>
      <trkpt lat="43.53196" lon="5.57709">
        <ele>880.3</ele>
        <time>2023-05-28T10:18:26Z</time>
      </trkpt>
      <trkpt lat="43.53196" lon="5.57707">
        <ele>880</ele>
        <time>2023-05-28T10:18:27Z</time>
      </trkpt>
      <trkpt lat="43.53197" lon="5.57706">
        <ele>879.7</ele>
        <time>2023-05-28T10:18:28Z</time>
      </trkpt>
      <trkpt lat="43.53196" lon="5.57706">
        <ele>879.6</ele>
        <time>2023-05-28T10:18:29Z</time>
      </trkpt>
      <trkpt lat="43.53196" lon="5.57706">
        <ele>879.5</ele>
        <time>2023-05-28T10:18:30Z</time>
      </trkpt>
      <trkpt lat="43.53196" lon="5.57706">
        <ele>879.5</ele>
        <time>2023-05-28T10:18:31Z</time>
      </trkpt>
      <trkpt lat="43.53196" lon="5.57705">
        <ele>879.6</ele>
        <time>2023-05-28T10:18:32Z</time>
      </trkpt>
      <trkpt lat="43.53196" lon="5.57705">
        <ele>879.5</ele>
        <time>2023-05-28T10:18:33Z</time>
      </trkpt>
      <trkpt lat="43.53196" lon="5.57703">
        <ele>879.5</ele>
        <time>2023-05-28T10:18:34Z</time>
      </trkpt>
      <trkpt lat="43.53197" lon="5.57701">
        <ele>879.3</ele>
        <time>2023-05-28T10:18:35Z</time>
      </trkpt>
      <trkpt lat="43.53197" lon="5.577">
        <ele>879.2</ele>
        <time>2023-05-28T10:18:36Z</time>
      </trkpt>
      <trkpt lat="43.53197" lon="5.57699">
        <ele>879.1</ele>
        <time>2023-05-28T10:18:37Z</time>
      </trkpt>
      <trkpt lat="43.53198" lon="5.57698">
        <ele>879</ele>
        <time>2023-05-28T10:18:38Z</time>
      </trkpt>
      <trkpt lat="43.53198" lon="5.57697">
        <ele>878.9</ele>
        <time>2023-05-28T10:18:39Z</time>
      </trkpt>
      <trkpt lat="43.53198" lon="5.57696">
        <ele>878.9</ele>
        <time>2023-05-28T10:18:40Z</time>
      </trkpt>
      <trkpt lat="43.53198" lon="5.57695">
        <ele>878.8</ele>
        <time>2023-05-28T10:18:41Z</time>
      </trkpt>
      <trkpt lat="43.53199" lon="5.57694">
        <ele>878.7</ele>
        <time>2023-05-28T10:18:42Z</time>
      </trkpt>
      <trkpt lat="43.53199" lon="5.57693">
        <ele>878.6</ele>
        <time>2023-05-28T10:18:43Z</time>
      </trkpt>
      <trkpt lat="43.53199" lon="5.57692">
        <ele>878.4</ele>
        <time>2023-05-28T10:18:44Z</time>
      </trkpt>
      <trkpt lat="43.532" lon="5.57691">
        <ele>878.2</ele>
        <time>2023-05-28T10:18:45Z</time>
      </trkpt>
      <trkpt lat="43.532" lon="5.5769">
        <ele>878</ele>
        <time>2023-05-28T10:18:46Z</time>
      </trkpt>
      <trkpt lat="43.532" lon="5.57688">
        <ele>877.9</ele>
        <time>2023-05-28T10:18:47Z</time>
      </trkpt>
      <trkpt lat="43.532" lon="5.57687">
        <ele>877.8</ele>
        <time>2023-05-28T10:18:48Z</time>
      </trkpt>
      <trkpt lat="43.532" lon="5.57686">
        <ele>877.7</ele>
        <time>2023-05-28T10:18:49Z</time>
      </trkpt>
      <trkpt lat="43.532" lon="5.57685">
        <ele>877.7</ele>
        <time>2023-05-28T10:18:50Z</time>
      </trkpt>
      <trkpt lat="43.532" lon="5.57684">
        <ele>877.6</ele>
        <time>2023-05-28T10:18:51Z</time>
      </trkpt>
      <trkpt lat="43.532" lon="5.57683">
        <ele>877.5</ele>
        <time>2023-05-28T10:18:52Z</time>
      </trkpt>
      <trkpt lat="43.53201" lon="5.57682">
        <ele>877.4</ele>
        <time>2023-05-28T10:18:53Z</time>
      </trkpt>
      <trkpt lat="43.53201" lon="5.57681">
        <ele>877.3</ele>
        <time>2023-05-28T10:18:54Z</time>
      </trkpt>
      <trkpt lat="43.53201" lon="5.57679">
        <ele>877.2</ele>
        <time>2023-05-28T10:18:55Z</time>
      </trkpt>
      <trkpt lat="43.53202" lon="5.57678">
        <ele>877.1</ele>
        <time>2023-05-28T10:18:56Z</time>
      </trkpt>
      <trkpt lat="43.53202" lon="5.57677">
        <ele>877</ele>
        <time>2023-05-28T10:18:57Z</time>
      </trkpt>
      <trkpt lat="43.53202" lon="5.57676">
        <ele>877</ele>
        <time>2023-05-28T10:18:58Z</time>
      </trkpt>
      <trkpt lat="43.53202" lon="5.57675">
        <ele>876.9</ele>
        <time>2023-05-28T10:18:59Z</time>
      </trkpt>
      <trkpt lat="43.53202" lon="5.57674">
        <ele>876.8</ele>
        <time>2023-05-28T10:19:00Z</time>
      </trkpt>
      <trkpt lat="43.53203" lon="5.57673">
        <ele>876.7</ele>
        <time>2023-05-28T10:19:01Z</time>
      </trkpt>
      <trkpt lat="43.53203" lon="5.57673">
        <ele>876.6</ele>
        <time>2023-05-28T10:19:02Z</time>
      </trkpt>
      <trkpt lat="43.53203" lon="5.57672">
        <ele>876.6</ele>
        <time>2023-05-28T10:19:03Z</time>
      </trkpt>
      <trkpt lat="43.53203" lon="5.57672">
        <ele>876.5</ele>
        <time>2023-05-28T10:19:04Z</time>
      </trkpt>
      <trkpt lat="43.53203" lon="5.57671">
        <ele>876.5</ele>
        <time>2023-05-28T10:19:05Z</time>
      </trkpt>
      <trkpt lat="43.53203" lon="5.5767">
        <ele>876.4</ele>
        <time>2023-05-28T10:19:06Z</time>
      </trkpt>
      <trkpt lat="43.53203" lon="5.57669">
        <ele>876.3</ele>
        <time>2023-05-28T10:19:07Z</time>
      </trkpt>
      <trkpt lat="43.53204" lon="5.57669">
        <ele>876.3</ele>
        <time>2023-05-28T10:19:08Z</time>
      </trkpt>
      <trkpt lat="43.53205" lon="5.57668">
        <ele>876.1</ele>
        <time>2023-05-28T10:19:09Z</time>
      </trkpt>
      <trkpt lat="43.53205" lon="5.57667">
        <ele>876.1</ele>
        <time>2023-05-28T10:19:10Z</time>
      </trkpt>
      <trkpt lat="43.53205" lon="5.57666">
        <ele>876</ele>
        <time>2023-05-28T10:19:11Z</time>
      </trkpt>
      <trkpt lat="43.53205" lon="5.57665">
        <ele>876</ele>
        <time>2023-05-28T10:19:12Z</time>
      </trkpt>
      <trkpt lat="43.53206" lon="5.57664">
        <ele>875.9</ele>
        <time>2023-05-28T10:19:13Z</time>
      </trkpt>
      <trkpt lat="43.53206" lon="5.57664">
        <ele>875.8</ele>
        <time>2023-05-28T10:19:14Z</time>
      </trkpt>
      <trkpt lat="43.53206" lon="5.57664">
        <ele>875.7</ele>
        <time>2023-05-28T10:19:15Z</time>
      </trkpt>
      <trkpt lat="43.53206" lon="5.57663">
        <ele>875.6</ele>
        <time>2023-05-28T10:19:16Z</time>
      </trkpt>
      <trkpt lat="43.53206" lon="5.57663">
        <ele>875.5</ele>
        <time>2023-05-28T10:19:17Z</time>
      </trkpt>
      <trkpt lat="43.53205" lon="5.57663">
        <ele>875.4</ele>
        <time>2023-05-28T10:19:18Z</time>
      </trkpt>
      <trkpt lat="43.53205" lon="5.57663">
        <ele>875.4</ele>
        <time>2023-05-28T10:19:19Z</time>
      </trkpt>
      <trkpt lat="43.53206" lon="5.57663">
        <ele>875.4</ele>
        <time>2023-05-28T10:19:20Z</time>
      </trkpt>
      <trkpt lat="43.53206" lon="5.57662">
        <ele>875.3</ele>
        <time>2023-05-28T10:19:21Z</time>
      </trkpt>
      <trkpt lat="43.53207" lon="5.5766">
        <ele>875.3</ele>
        <time>2023-05-28T10:19:22Z</time>
      </trkpt>
      <trkpt lat="43.53207" lon="5.57659">
        <ele>875.3</ele>
        <time>2023-05-28T10:19:23Z</time>
      </trkpt>
      <trkpt lat="43.53208" lon="5.57659">
        <ele>875.3</ele>
        <time>2023-05-28T10:19:24Z</time>
      </trkpt>
      <trkpt lat="43.53208" lon="5.57658">
        <ele>875.3</ele>
        <time>2023-05-28T10:19:25Z</time>
      </trkpt>
      <trkpt lat="43.53208" lon="5.57657">
        <ele>875.3</ele>
        <time>2023-05-28T10:19:26Z</time>
      </trkpt>
      <trkpt lat="43.53208" lon="5.57656">
        <ele>875.3</ele>
        <time>2023-05-28T10:19:27Z</time>
      </trkpt>
      <trkpt lat="43.53208" lon="5.57656">
        <ele>875.3</ele>
        <time>2023-05-28T10:19:28Z</time>
      </trkpt>
      <trkpt lat="43.53208" lon="5.57655">
        <ele>875.3</ele>
        <time>2023-05-28T10:19:29Z</time>
      </trkpt>
      <trkpt lat="43.53208" lon="5.57654">
        <ele>875.3</ele>
        <time>2023-05-28T10:19:30Z</time>
      </trkpt>
      <trkpt lat="43.53208" lon="5.57653">
        <ele>875.3</ele>
        <time>2023-05-28T10:19:31Z</time>
      </trkpt>
      <trkpt lat="43.53208" lon="5.57652">
        <ele>875.3</ele>
        <time>2023-05-28T10:19:32Z</time>
      </trkpt>
      <trkpt lat="43.53208" lon="5.57651">
        <ele>875.2</ele>
        <time>2023-05-28T10:19:33Z</time>
      </trkpt>
      <trkpt lat="43.53209" lon="5.5765">
        <ele>875.1</ele>
        <time>2023-05-28T10:19:34Z</time>
      </trkpt>
      <trkpt lat="43.53209" lon="5.57648">
        <ele>875</ele>
        <time>2023-05-28T10:19:35Z</time>
      </trkpt>
      <trkpt lat="43.5321" lon="5.57647">
        <ele>874.9</ele>
        <time>2023-05-28T10:19:36Z</time>
      </trkpt>
      <trkpt lat="43.5321" lon="5.57647">
        <ele>874.8</ele>
        <time>2023-05-28T10:19:37Z</time>
      </trkpt>
      <trkpt lat="43.5321" lon="5.57647">
        <ele>874.6</ele>
        <time>2023-05-28T10:19:38Z</time>
      </trkpt>
      <trkpt lat="43.5321" lon="5.57647">
        <ele>874.4</ele>
        <time>2023-05-28T10:19:39Z</time>
      </trkpt>
      <trkpt lat="43.5321" lon="5.57646">
        <ele>874.4</ele>
        <time>2023-05-28T10:19:40Z</time>
      </trkpt>
      <trkpt lat="43.5321" lon="5.57645">
        <ele>874.3</ele>
        <time>2023-05-28T10:19:41Z</time>
      </trkpt>
      <trkpt lat="43.53209" lon="5.57644">
        <ele>874.2</ele>
        <time>2023-05-28T10:19:42Z</time>
      </trkpt>
      <trkpt lat="43.53209" lon="5.57642">
        <ele>874.1</ele>
        <time>2023-05-28T10:19:43Z</time>
      </trkpt>
      <trkpt lat="43.5321" lon="5.57641">
        <ele>874</ele>
        <time>2023-05-28T10:19:44Z</time>
      </trkpt>
      <trkpt lat="43.5321" lon="5.57639">
        <ele>874</ele>
        <time>2023-05-28T10:19:45Z</time>
      </trkpt>
      <trkpt lat="43.5321" lon="5.57638">
        <ele>874</ele>
        <time>2023-05-28T10:19:46Z</time>
      </trkpt>
      <trkpt lat="43.5321" lon="5.57637">
        <ele>873.9</ele>
        <time>2023-05-28T10:19:47Z</time>
      </trkpt>
      <trkpt lat="43.5321" lon="5.57636">
        <ele>873.9</ele>
        <time>2023-05-28T10:19:48Z</time>
      </trkpt>
      <trkpt lat="43.53211" lon="5.57636">
        <ele>874</ele>
        <time>2023-05-28T10:19:49Z</time>
      </trkpt>
      <trkpt lat="43.53211" lon="5.57635">
        <ele>873.9</ele>
        <time>2023-05-28T10:19:50Z</time>
      </trkpt>
      <trkpt lat="43.53212" lon="5.57636">
        <ele>873.9</ele>
        <time>2023-05-28T10:19:51Z</time>
      </trkpt>
      <trkpt lat="43.53212" lon="5.57635">
        <ele>873.8</ele>
        <time>2023-05-28T10:19:52Z</time>
      </trkpt>
      <trkpt lat="43.53213" lon="5.57635">
        <ele>873.7</ele>
        <time>2023-05-28T10:19:53Z</time>
      </trkpt>
      <trkpt lat="43.53213" lon="5.57634">
        <ele>873.4</ele>
        <time>2023-05-28T10:19:54Z</time>
      </trkpt>
      <trkpt lat="43.53213" lon="5.57633">
        <ele>873.2</ele>
        <time>2023-05-28T10:19:55Z</time>
      </trkpt>
      <trkpt lat="43.53214" lon="5.57632">
        <ele>873</ele>
        <time>2023-05-28T10:19:56Z</time>
      </trkpt>
      <trkpt lat="43.53214" lon="5.57631">
        <ele>872.8</ele>
        <time>2023-05-28T10:19:57Z</time>
      </trkpt>
      <trkpt lat="43.53214" lon="5.57631">
        <ele>872.7</ele>
        <time>2023-05-28T10:19:58Z</time>
      </trkpt>
      <trkpt lat="43.53215" lon="5.5763">
        <ele>872.5</ele>
        <time>2023-05-28T10:19:59Z</time>
      </trkpt>
      <trkpt lat="43.53215" lon="5.57629">
        <ele>872.3</ele>
        <time>2023-05-28T10:20:00Z</time>
      </trkpt>
      <trkpt lat="43.53216" lon="5.57627">
        <ele>872.2</ele>
        <time>2023-05-28T10:20:01Z</time>
      </trkpt>
      <trkpt lat="43.53216" lon="5.57626">
        <ele>872.1</ele>
        <time>2023-05-28T10:20:02Z</time>
      </trkpt>
      <trkpt lat="43.53216" lon="5.57625">
        <ele>872</ele>
        <time>2023-05-28T10:20:03Z</time>
      </trkpt>
      <trkpt lat="43.53216" lon="5.57624">
        <ele>871.9</ele>
        <time>2023-05-28T10:20:04Z</time>
      </trkpt>
      <trkpt lat="43.53216" lon="5.57623">
        <ele>871.9</ele>
        <time>2023-05-28T10:20:05Z</time>
      </trkpt>
      <trkpt lat="43.53216" lon="5.57622">
        <ele>871.8</ele>
        <time>2023-05-28T10:20:06Z</time>
      </trkpt>
      <trkpt lat="43.53216" lon="5.57622">
        <ele>871.8</ele>
        <time>2023-05-28T10:20:07Z</time>
      </trkpt>
      <trkpt lat="43.53216" lon="5.57621">
        <ele>871.8</ele>
        <time>2023-05-28T10:20:08Z</time>
      </trkpt>
      <trkpt lat="43.53216" lon="5.57621">
        <ele>871.7</ele>
        <time>2023-05-28T10:20:09Z</time>
      </trkpt>
      <trkpt lat="43.53216" lon="5.5762">
        <ele>871.7</ele>
        <time>2023-05-28T10:20:10Z</time>
      </trkpt>
      <trkpt lat="43.53216" lon="5.57619">
        <ele>871.5</ele>
        <time>2023-05-28T10:20:11Z</time>
      </trkpt>
      <trkpt lat="43.53217" lon="5.57618">
        <ele>871.4</ele>
        <time>2023-05-28T10:20:12Z</time>
      </trkpt>
      <trkpt lat="43.53217" lon="5.57618">
        <ele>871.2</ele>
        <time>2023-05-28T10:20:13Z</time>
      </trkpt>
      <trkpt lat="43.53217" lon="5.57618">
        <ele>871.1</ele>
        <time>2023-05-28T10:20:14Z</time>
      </trkpt>
      <trkpt lat="43.53217" lon="5.57618">
        <ele>871</ele>
        <time>2023-05-28T10:20:15Z</time>
      </trkpt>
      <trkpt lat="43.53217" lon="5.57617">
        <ele>870.9</ele>
        <time>2023-05-28T10:20:16Z</time>
      </trkpt>
      <trkpt lat="43.53217" lon="5.57617">
        <ele>870.8</ele>
        <time>2023-05-28T10:20:17Z</time>
      </trkpt>
      <trkpt lat="43.53217" lon="5.57616">
        <ele>870.6</ele>
        <time>2023-05-28T10:20:18Z</time>
      </trkpt>
      <trkpt lat="43.53218" lon="5.57615">
        <ele>870.5</ele>
        <time>2023-05-28T10:20:19Z</time>
      </trkpt>
      <trkpt lat="43.53218" lon="5.57614">
        <ele>870.4</ele>
        <time>2023-05-28T10:20:20Z</time>
      </trkpt>
      <trkpt lat="43.53218" lon="5.57614">
        <ele>870.4</ele>
        <time>2023-05-28T10:20:21Z</time>
      </trkpt>
      <trkpt lat="43.53218" lon="5.57613">
        <ele>870.3</ele>
        <time>2023-05-28T10:20:22Z</time>
      </trkpt>
      <trkpt lat="43.53218" lon="5.57612">
        <ele>870.2</ele>
        <time>2023-05-28T10:20:23Z</time>
      </trkpt>
      <trkpt lat="43.53217" lon="5.57611">
        <ele>870</ele>
        <time>2023-05-28T10:20:24Z</time>
      </trkpt>
      <trkpt lat="43.53218" lon="5.57611">
        <ele>869.9</ele>
        <time>2023-05-28T10:20:25Z</time>
      </trkpt>
      <trkpt lat="43.53218" lon="5.5761">
        <ele>869.8</ele>
        <time>2023-05-28T10:20:26Z</time>
      </trkpt>
      <trkpt lat="43.53218" lon="5.5761">
        <ele>869.6</ele>
        <time>2023-05-28T10:20:27Z</time>
      </trkpt>
      <trkpt lat="43.53219" lon="5.57609">
        <ele>869.5</ele>
        <time>2023-05-28T10:20:28Z</time>
      </trkpt>
      <trkpt lat="43.53219" lon="5.57608">
        <ele>869.3</ele>
        <time>2023-05-28T10:20:29Z</time>
      </trkpt>
      <trkpt lat="43.53219" lon="5.57607">
        <ele>869.2</ele>
        <time>2023-05-28T10:20:30Z</time>
      </trkpt>
      <trkpt lat="43.53218" lon="5.57606">
        <ele>869</ele>
        <time>2023-05-28T10:20:31Z</time>
      </trkpt>
      <trkpt lat="43.53218" lon="5.57605">
        <ele>868.9</ele>
        <time>2023-05-28T10:20:32Z</time>
      </trkpt>
      <trkpt lat="43.53218" lon="5.57604">
        <ele>868.9</ele>
        <time>2023-05-28T10:20:33Z</time>
      </trkpt>
      <trkpt lat="43.53218" lon="5.57603">
        <ele>868.8</ele>
        <time>2023-05-28T10:20:34Z</time>
      </trkpt>
      <trkpt lat="43.53218" lon="5.57602">
        <ele>868.8</ele>
        <time>2023-05-28T10:20:35Z</time>
      </trkpt>
      <trkpt lat="43.53218" lon="5.57601">
        <ele>868.8</ele>
        <time>2023-05-28T10:20:36Z</time>
      </trkpt>
      <trkpt lat="43.53218" lon="5.57601">
        <ele>868.7</ele>
        <time>2023-05-28T10:20:37Z</time>
      </trkpt>
      <trkpt lat="43.53218" lon="5.576">
        <ele>868.7</ele>
        <time>2023-05-28T10:20:38Z</time>
      </trkpt>
      <trkpt lat="43.53218" lon="5.57599">
        <ele>868.7</ele>
        <time>2023-05-28T10:20:39Z</time>
      </trkpt>
      <trkpt lat="43.53219" lon="5.57598">
        <ele>868.7</ele>
        <time>2023-05-28T10:20:40Z</time>
      </trkpt>
      <trkpt lat="43.53219" lon="5.57598">
        <ele>868.7</ele>
        <time>2023-05-28T10:20:41Z</time>
      </trkpt>
      <trkpt lat="43.53219" lon="5.57598">
        <ele>868.6</ele>
        <time>2023-05-28T10:20:42Z</time>
      </trkpt>
      <trkpt lat="43.53219" lon="5.57598">
        <ele>868.5</ele>
        <time>2023-05-28T10:20:43Z</time>
      </trkpt>
      <trkpt lat="43.5322" lon="5.57598">
        <ele>868.5</ele>
        <time>2023-05-28T10:20:44Z</time>
      </trkpt>
      <trkpt lat="43.5322" lon="5.57598">
        <ele>868.5</ele>
        <time>2023-05-28T10:20:45Z</time>
      </trkpt>
      <trkpt lat="43.5322" lon="5.57598">
        <ele>868.4</ele>
        <time>2023-05-28T10:20:46Z</time>
      </trkpt>
      <trkpt lat="43.5322" lon="5.57598">
        <ele>868.3</ele>
        <time>2023-05-28T10:20:47Z</time>
      </trkpt>
      <trkpt lat="43.5322" lon="5.57598">
        <ele>868.3</ele>
        <time>2023-05-28T10:20:48Z</time>
      </trkpt>
      <trkpt lat="43.5322" lon="5.57598">
        <ele>868.3</ele>
        <time>2023-05-28T10:20:49Z</time>
      </trkpt>
      <trkpt lat="43.53221" lon="5.57598">
        <ele>868.2</ele>
        <time>2023-05-28T10:20:50Z</time>
      </trkpt>
      <trkpt lat="43.53221" lon="5.57598">
        <ele>868.1</ele>
        <time>2023-05-28T10:20:51Z</time>
      </trkpt>
      <trkpt lat="43.53221" lon="5.57597">
        <ele>867.9</ele>
        <time>2023-05-28T10:20:52Z</time>
      </trkpt>
      <trkpt lat="43.53221" lon="5.57596">
        <ele>867.8</ele>
        <time>2023-05-28T10:20:53Z</time>
      </trkpt>
      <trkpt lat="43.53221" lon="5.57596">
        <ele>867.7</ele>
        <time>2023-05-28T10:20:54Z</time>
      </trkpt>
      <trkpt lat="43.53221" lon="5.57596">
        <ele>867.5</ele>
        <time>2023-05-28T10:20:55Z</time>
      </trkpt>
      <trkpt lat="43.53221" lon="5.57596">
        <ele>867.4</ele>
        <time>2023-05-28T10:20:56Z</time>
      </trkpt>
      <trkpt lat="43.53221" lon="5.57596">
        <ele>867.3</ele>
        <time>2023-05-28T10:20:57Z</time>
      </trkpt>
      <trkpt lat="43.53221" lon="5.57596">
        <ele>867.2</ele>
        <time>2023-05-28T10:20:58Z</time>
      </trkpt>
      <trkpt lat="43.53221" lon="5.57596">
        <ele>867.1</ele>
        <time>2023-05-28T10:20:59Z</time>
      </trkpt>
      <trkpt lat="43.53221" lon="5.57596">
        <ele>867</ele>
        <time>2023-05-28T10:21:00Z</time>
      </trkpt>
      <trkpt lat="43.53221" lon="5.57597">
        <ele>867</ele>
        <time>2023-05-28T10:21:01Z</time>
      </trkpt>
      <trkpt lat="43.5322" lon="5.57599">
        <ele>866.9</ele>
        <time>2023-05-28T10:21:02Z</time>
      </trkpt>
      <trkpt lat="43.53221" lon="5.57599">
        <ele>866.8</ele>
        <time>2023-05-28T10:21:03Z</time>
      </trkpt>
      <trkpt lat="43.53221" lon="5.57599">
        <ele>866.6</ele>
        <time>2023-05-28T10:21:04Z</time>
      </trkpt>
      <trkpt lat="43.53221" lon="5.57599">
        <ele>866.6</ele>
        <time>2023-05-28T10:21:05Z</time>
      </trkpt>
      <trkpt lat="43.53222" lon="5.57598">
        <ele>866.4</ele>
        <time>2023-05-28T10:21:06Z</time>
      </trkpt>
      <trkpt lat="43.53222" lon="5.57598">
        <ele>866.3</ele>
        <time>2023-05-28T10:21:07Z</time>
      </trkpt>
      <trkpt lat="43.53222" lon="5.57598">
        <ele>866</ele>
        <time>2023-05-28T10:21:08Z</time>
      </trkpt>
      <trkpt lat="43.53222" lon="5.57597">
        <ele>865.9</ele>
        <time>2023-05-28T10:21:09Z</time>
      </trkpt>
      <trkpt lat="43.53222" lon="5.57596">
        <ele>865.7</ele>
        <time>2023-05-28T10:21:10Z</time>
      </trkpt>
      <trkpt lat="43.53223" lon="5.57595">
        <ele>865.5</ele>
        <time>2023-05-28T10:21:11Z</time>
      </trkpt>
      <trkpt lat="43.53223" lon="5.57595">
        <ele>865.3</ele>
        <time>2023-05-28T10:21:12Z</time>
      </trkpt>
      <trkpt lat="43.53222" lon="5.57593">
        <ele>865.2</ele>
        <time>2023-05-28T10:21:13Z</time>
      </trkpt>
      <trkpt lat="43.53223" lon="5.57592">
        <ele>865</ele>
        <time>2023-05-28T10:21:14Z</time>
      </trkpt>
      <trkpt lat="43.53223" lon="5.57591">
        <ele>864.9</ele>
        <time>2023-05-28T10:21:15Z</time>
      </trkpt>
      <trkpt lat="43.53223" lon="5.5759">
        <ele>864.7</ele>
        <time>2023-05-28T10:21:16Z</time>
      </trkpt>
      <trkpt lat="43.53223" lon="5.57589">
        <ele>864.6</ele>
        <time>2023-05-28T10:21:17Z</time>
      </trkpt>
      <trkpt lat="43.53223" lon="5.57588">
        <ele>864.4</ele>
        <time>2023-05-28T10:21:18Z</time>
      </trkpt>
      <trkpt lat="43.53224" lon="5.57587">
        <ele>864.2</ele>
        <time>2023-05-28T10:21:19Z</time>
      </trkpt>
      <trkpt lat="43.53224" lon="5.57587">
        <ele>864.1</ele>
        <time>2023-05-28T10:21:20Z</time>
      </trkpt>
      <trkpt lat="43.53224" lon="5.57586">
        <ele>863.9</ele>
        <time>2023-05-28T10:21:21Z</time>
      </trkpt>
      <trkpt lat="43.53224" lon="5.57585">
        <ele>863.8</ele>
        <time>2023-05-28T10:21:22Z</time>
      </trkpt>
      <trkpt lat="43.53224" lon="5.57585">
        <ele>863.7</ele>
        <time>2023-05-28T10:21:23Z</time>
      </trkpt>
      <trkpt lat="43.53225" lon="5.57584">
        <ele>863.5</ele>
        <time>2023-05-28T10:21:24Z</time>
      </trkpt>
      <trkpt lat="43.53226" lon="5.57584">
        <ele>863.3</ele>
        <time>2023-05-28T10:21:25Z</time>
      </trkpt>
      <trkpt lat="43.53226" lon="5.57583">
        <ele>863.1</ele>
        <time>2023-05-28T10:21:26Z</time>
      </trkpt>
      <trkpt lat="43.53226" lon="5.57583">
        <ele>863</ele>
        <time>2023-05-28T10:21:27Z</time>
      </trkpt>
      <trkpt lat="43.53227" lon="5.57582">
        <ele>862.9</ele>
        <time>2023-05-28T10:21:28Z</time>
      </trkpt>
      <trkpt lat="43.53227" lon="5.57582">
        <ele>862.8</ele>
        <time>2023-05-28T10:21:29Z</time>
      </trkpt>
      <trkpt lat="43.53227" lon="5.57581">
        <ele>862.7</ele>
        <time>2023-05-28T10:21:30Z</time>
      </trkpt>
      <trkpt lat="43.53227" lon="5.57581">
        <ele>862.6</ele>
        <time>2023-05-28T10:21:31Z</time>
      </trkpt>
      <trkpt lat="43.53228" lon="5.5758">
        <ele>862.5</ele>
        <time>2023-05-28T10:21:32Z</time>
      </trkpt>
      <trkpt lat="43.53228" lon="5.5758">
        <ele>862.4</ele>
        <time>2023-05-28T10:21:33Z</time>
      </trkpt>
      <trkpt lat="43.53228" lon="5.5758">
        <ele>862.3</ele>
        <time>2023-05-28T10:21:34Z</time>
      </trkpt>
      <trkpt lat="43.53228" lon="5.57579">
        <ele>862.2</ele>
        <time>2023-05-28T10:21:35Z</time>
      </trkpt>
      <trkpt lat="43.53229" lon="5.57579">
        <ele>862.2</ele>
        <time>2023-05-28T10:21:36Z</time>
      </trkpt>
      <trkpt lat="43.53229" lon="5.57579">
        <ele>862.1</ele>
        <time>2023-05-28T10:21:37Z</time>
      </trkpt>
      <trkpt lat="43.53229" lon="5.57579">
        <ele>861.9</ele>
        <time>2023-05-28T10:21:38Z</time>
      </trkpt>
      <trkpt lat="43.5323" lon="5.57579">
        <ele>861.8</ele>
        <time>2023-05-28T10:21:39Z</time>
      </trkpt>
      <trkpt lat="43.5323" lon="5.57578">
        <ele>861.7</ele>
        <time>2023-05-28T10:21:40Z</time>
      </trkpt>
      <trkpt lat="43.53231" lon="5.57578">
        <ele>861.5</ele>
        <time>2023-05-28T10:21:41Z</time>
      </trkpt>
      <trkpt lat="43.53231" lon="5.57578">
        <ele>861.3</ele>
        <time>2023-05-28T10:21:42Z</time>
      </trkpt>
      <trkpt lat="43.53231" lon="5.57578">
        <ele>861.1</ele>
        <time>2023-05-28T10:21:43Z</time>
      </trkpt>
      <trkpt lat="43.53232" lon="5.57579">
        <ele>861</ele>
        <time>2023-05-28T10:21:44Z</time>
      </trkpt>
      <trkpt lat="43.53232" lon="5.57579">
        <ele>860.9</ele>
        <time>2023-05-28T10:21:45Z</time>
      </trkpt>
      <trkpt lat="43.53232" lon="5.57579">
        <ele>860.7</ele>
        <time>2023-05-28T10:21:46Z</time>
      </trkpt>
      <trkpt lat="43.53233" lon="5.57579">
        <ele>860.4</ele>
        <time>2023-05-28T10:21:47Z</time>
      </trkpt>
      <trkpt lat="43.53233" lon="5.57578">
        <ele>860.2</ele>
        <time>2023-05-28T10:21:48Z</time>
      </trkpt>
      <trkpt lat="43.53233" lon="5.57578">
        <ele>860.1</ele>
        <time>2023-05-28T10:21:49Z</time>
      </trkpt>
      <trkpt lat="43.53234" lon="5.57578">
        <ele>859.9</ele>
        <time>2023-05-28T10:21:50Z</time>
      </trkpt>
      <trkpt lat="43.53234" lon="5.57578">
        <ele>859.7</ele>
        <time>2023-05-28T10:21:51Z</time>
      </trkpt>
      <trkpt lat="43.53234" lon="5.57578">
        <ele>859.5</ele>
        <time>2023-05-28T10:21:52Z</time>
      </trkpt>
      <trkpt lat="43.53234" lon="5.57577">
        <ele>859.4</ele>
        <time>2023-05-28T10:21:53Z</time>
      </trkpt>
      <trkpt lat="43.53235" lon="5.57577">
        <ele>859.3</ele>
        <time>2023-05-28T10:21:54Z</time>
      </trkpt>
      <trkpt lat="43.53235" lon="5.57578">
        <ele>859.2</ele>
        <time>2023-05-28T10:21:55Z</time>
      </trkpt>
      <trkpt lat="43.53236" lon="5.57578">
        <ele>859.1</ele>
        <time>2023-05-28T10:21:56Z</time>
      </trkpt>
      <trkpt lat="43.53236" lon="5.57578">
        <ele>859</ele>
        <time>2023-05-28T10:21:57Z</time>
      </trkpt>
      <trkpt lat="43.53236" lon="5.57578">
        <ele>858.8</ele>
        <time>2023-05-28T10:21:58Z</time>
      </trkpt>
      <trkpt lat="43.53237" lon="5.57578">
        <ele>858.6</ele>
        <time>2023-05-28T10:21:59Z</time>
      </trkpt>
      <trkpt lat="43.53236" lon="5.57577">
        <ele>858.4</ele>
        <time>2023-05-28T10:22:00Z</time>
      </trkpt>
      <trkpt lat="43.53236" lon="5.57576">
        <ele>858.3</ele>
        <time>2023-05-28T10:22:01Z</time>
      </trkpt>
      <trkpt lat="43.53236" lon="5.57576">
        <ele>858.2</ele>
        <time>2023-05-28T10:22:02Z</time>
      </trkpt>
      <trkpt lat="43.53236" lon="5.57575">
        <ele>858.1</ele>
        <time>2023-05-28T10:22:03Z</time>
      </trkpt>
      <trkpt lat="43.53236" lon="5.57574">
        <ele>858.1</ele>
        <time>2023-05-28T10:22:04Z</time>
      </trkpt>
      <trkpt lat="43.53237" lon="5.57574">
        <ele>858</ele>
        <time>2023-05-28T10:22:05Z</time>
      </trkpt>
      <trkpt lat="43.53237" lon="5.57574">
        <ele>857.9</ele>
        <time>2023-05-28T10:22:06Z</time>
      </trkpt>
      <trkpt lat="43.53237" lon="5.57574">
        <ele>857.8</ele>
        <time>2023-05-28T10:22:07Z</time>
      </trkpt>
      <trkpt lat="43.53237" lon="5.57574">
        <ele>857.6</ele>
        <time>2023-05-28T10:22:08Z</time>
      </trkpt>
      <trkpt lat="43.53238" lon="5.57574">
        <ele>857.5</ele>
        <time>2023-05-28T10:22:09Z</time>
      </trkpt>
      <trkpt lat="43.53238" lon="5.57574">
        <ele>857.4</ele>
        <time>2023-05-28T10:22:10Z</time>
      </trkpt>
      <trkpt lat="43.53238" lon="5.57574">
        <ele>857.2</ele>
        <time>2023-05-28T10:22:11Z</time>
      </trkpt>
      <trkpt lat="43.53239" lon="5.57574">
        <ele>857.1</ele>
        <time>2023-05-28T10:22:12Z</time>
      </trkpt>
      <trkpt lat="43.53239" lon="5.57574">
        <ele>857</ele>
        <time>2023-05-28T10:22:13Z</time>
      </trkpt>
      <trkpt lat="43.5324" lon="5.57574">
        <ele>856.9</ele>
        <time>2023-05-28T10:22:14Z</time>
      </trkpt>
      <trkpt lat="43.5324" lon="5.57573">
        <ele>856.7</ele>
        <time>2023-05-28T10:22:15Z</time>
      </trkpt>
      <trkpt lat="43.53241" lon="5.57572">
        <ele>856.6</ele>
        <time>2023-05-28T10:22:16Z</time>
      </trkpt>
      <trkpt lat="43.53241" lon="5.57571">
        <ele>856.5</ele>
        <time>2023-05-28T10:22:17Z</time>
      </trkpt>
      <trkpt lat="43.53241" lon="5.5757">
        <ele>856.3</ele>
        <time>2023-05-28T10:22:18Z</time>
      </trkpt>
      <trkpt lat="43.53241" lon="5.5757">
        <ele>856.1</ele>
        <time>2023-05-28T10:22:19Z</time>
      </trkpt>
      <trkpt lat="43.53241" lon="5.5757">
        <ele>856</ele>
        <time>2023-05-28T10:22:20Z</time>
      </trkpt>
      <trkpt lat="43.53241" lon="5.57569">
        <ele>855.8</ele>
        <time>2023-05-28T10:22:21Z</time>
      </trkpt>
      <trkpt lat="43.53241" lon="5.57569">
        <ele>855.6</ele>
        <time>2023-05-28T10:22:22Z</time>
      </trkpt>
      <trkpt lat="43.53241" lon="5.57568">
        <ele>855.4</ele>
        <time>2023-05-28T10:22:23Z</time>
      </trkpt>
      <trkpt lat="43.53241" lon="5.57568">
        <ele>855.3</ele>
        <time>2023-05-28T10:22:24Z</time>
      </trkpt>
      <trkpt lat="43.53242" lon="5.57567">
        <ele>855.2</ele>
        <time>2023-05-28T10:22:25Z</time>
      </trkpt>
      <trkpt lat="43.53242" lon="5.57566">
        <ele>855.1</ele>
        <time>2023-05-28T10:22:26Z</time>
      </trkpt>
      <trkpt lat="43.53242" lon="5.57566">
        <ele>855</ele>
        <time>2023-05-28T10:22:27Z</time>
      </trkpt>
      <trkpt lat="43.53242" lon="5.57566">
        <ele>854.9</ele>
        <time>2023-05-28T10:22:28Z</time>
      </trkpt>
      <trkpt lat="43.53242" lon="5.57566">
        <ele>854.9</ele>
        <time>2023-05-28T10:22:29Z</time>
      </trkpt>
      <trkpt lat="43.53242" lon="5.57565">
        <ele>854.8</ele>
        <time>2023-05-28T10:22:30Z</time>
      </trkpt>
      <trkpt lat="43.53243" lon="5.57565">
        <ele>854.8</ele>
        <time>2023-05-28T10:22:31Z</time>
      </trkpt>
      <trkpt lat="43.53242" lon="5.57564">
        <ele>854.8</ele>
        <time>2023-05-28T10:22:32Z</time>
      </trkpt>
      <trkpt lat="43.53243" lon="5.57564">
        <ele>854.7</ele>
        <time>2023-05-28T10:22:33Z</time>
      </trkpt>
      <trkpt lat="43.53243" lon="5.57564">
        <ele>854.6</ele>
        <time>2023-05-28T10:22:34Z</time>
      </trkpt>
      <trkpt lat="43.53243" lon="5.57564">
        <ele>854.5</ele>
        <time>2023-05-28T10:22:35Z</time>
      </trkpt>
      <trkpt lat="43.53242" lon="5.57563">
        <ele>854.4</ele>
        <time>2023-05-28T10:22:36Z</time>
      </trkpt>
      <trkpt lat="43.53243" lon="5.57563">
        <ele>854.4</ele>
        <time>2023-05-28T10:22:37Z</time>
      </trkpt>
      <trkpt lat="43.53243" lon="5.57563">
        <ele>854.2</ele>
        <time>2023-05-28T10:22:38Z</time>
      </trkpt>
      <trkpt lat="43.53243" lon="5.57562">
        <ele>854.1</ele>
        <time>2023-05-28T10:22:39Z</time>
      </trkpt>
      <trkpt lat="43.53244" lon="5.57561">
        <ele>854</ele>
        <time>2023-05-28T10:22:40Z</time>
      </trkpt>
      <trkpt lat="43.53244" lon="5.57561">
        <ele>853.8</ele>
        <time>2023-05-28T10:22:41Z</time>
      </trkpt>
      <trkpt lat="43.53245" lon="5.57561">
        <ele>853.7</ele>
        <time>2023-05-28T10:22:42Z</time>
      </trkpt>
      <trkpt lat="43.53245" lon="5.5756">
        <ele>853.6</ele>
        <time>2023-05-28T10:22:43Z</time>
      </trkpt>
      <trkpt lat="43.53246" lon="5.5756">
        <ele>853.5</ele>
        <time>2023-05-28T10:22:44Z</time>
      </trkpt>
      <trkpt lat="43.53246" lon="5.57559">
        <ele>853.3</ele>
        <time>2023-05-28T10:22:45Z</time>
      </trkpt>
      <trkpt lat="43.53247" lon="5.57559">
        <ele>853.2</ele>
        <time>2023-05-28T10:22:46Z</time>
      </trkpt>
      <trkpt lat="43.53248" lon="5.57559">
        <ele>853</ele>
        <time>2023-05-28T10:22:47Z</time>
      </trkpt>
      <trkpt lat="43.53248" lon="5.57558">
        <ele>852.9</ele>
        <time>2023-05-28T10:22:48Z</time>
      </trkpt>
      <trkpt lat="43.53248" lon="5.57557">
        <ele>852.8</ele>
        <time>2023-05-28T10:22:49Z</time>
      </trkpt>
      <trkpt lat="43.53249" lon="5.57557">
        <ele>852.7</ele>
        <time>2023-05-28T10:22:50Z</time>
      </trkpt>
      <trkpt lat="43.53249" lon="5.57556">
        <ele>852.5</ele>
        <time>2023-05-28T10:22:51Z</time>
      </trkpt>
      <trkpt lat="43.53249" lon="5.57556">
        <ele>852.4</ele>
        <time>2023-05-28T10:22:52Z</time>
      </trkpt>
      <trkpt lat="43.53249" lon="5.57555">
        <ele>852.2</ele>
        <time>2023-05-28T10:22:53Z</time>
      </trkpt>
      <trkpt lat="43.5325" lon="5.57554">
        <ele>852</ele>
        <time>2023-05-28T10:22:54Z</time>
      </trkpt>
      <trkpt lat="43.5325" lon="5.57554">
        <ele>851.9</ele>
        <time>2023-05-28T10:22:55Z</time>
      </trkpt>
      <trkpt lat="43.5325" lon="5.57554">
        <ele>851.8</ele>
        <time>2023-05-28T10:22:56Z</time>
      </trkpt>
      <trkpt lat="43.5325" lon="5.57554">
        <ele>851.6</ele>
        <time>2023-05-28T10:22:57Z</time>
      </trkpt>
      <trkpt lat="43.53251" lon="5.57553">
        <ele>851.4</ele>
        <time>2023-05-28T10:22:58Z</time>
      </trkpt>
      <trkpt lat="43.53251" lon="5.57553">
        <ele>851.3</ele>
        <time>2023-05-28T10:22:59Z</time>
      </trkpt>
      <trkpt lat="43.53251" lon="5.57553">
        <ele>851.2</ele>
        <time>2023-05-28T10:23:00Z</time>
      </trkpt>
      <trkpt lat="43.53251" lon="5.57553">
        <ele>851.1</ele>
        <time>2023-05-28T10:23:01Z</time>
      </trkpt>
      <trkpt lat="43.53251" lon="5.57553">
        <ele>850.9</ele>
        <time>2023-05-28T10:23:02Z</time>
      </trkpt>
      <trkpt lat="43.53251" lon="5.57553">
        <ele>850.7</ele>
        <time>2023-05-28T10:23:03Z</time>
      </trkpt>
      <trkpt lat="43.53251" lon="5.57553">
        <ele>850.6</ele>
        <time>2023-05-28T10:23:04Z</time>
      </trkpt>
      <trkpt lat="43.53252" lon="5.57553">
        <ele>850.6</ele>
        <time>2023-05-28T10:23:05Z</time>
      </trkpt>
      <trkpt lat="43.53252" lon="5.57554">
        <ele>850.5</ele>
        <time>2023-05-28T10:23:06Z</time>
      </trkpt>
      <trkpt lat="43.53253" lon="5.57554">
        <ele>850.5</ele>
        <time>2023-05-28T10:23:07Z</time>
      </trkpt>
      <trkpt lat="43.53254" lon="5.57554">
        <ele>850.4</ele>
        <time>2023-05-28T10:23:08Z</time>
      </trkpt>
      <trkpt lat="43.53254" lon="5.57554">
        <ele>850.3</ele>
        <time>2023-05-28T10:23:09Z</time>
      </trkpt>
      <trkpt lat="43.53254" lon="5.57553">
        <ele>850.1</ele>
        <time>2023-05-28T10:23:10Z</time>
      </trkpt>
      <trkpt lat="43.53255" lon="5.57552">
        <ele>850</ele>
        <time>2023-05-28T10:23:11Z</time>
      </trkpt>
      <trkpt lat="43.53255" lon="5.57552">
        <ele>849.8</ele>
        <time>2023-05-28T10:23:12Z</time>
      </trkpt>
      <trkpt lat="43.53255" lon="5.57551">
        <ele>849.6</ele>
        <time>2023-05-28T10:23:13Z</time>
      </trkpt>
      <trkpt lat="43.53255" lon="5.57551">
        <ele>849.4</ele>
        <time>2023-05-28T10:23:14Z</time>
      </trkpt>
      <trkpt lat="43.53256" lon="5.57551">
        <ele>849.2</ele>
        <time>2023-05-28T10:23:15Z</time>
      </trkpt>
      <trkpt lat="43.53256" lon="5.5755">
        <ele>849</ele>
        <time>2023-05-28T10:23:16Z</time>
      </trkpt>
      <trkpt lat="43.53256" lon="5.57549">
        <ele>848.9</ele>
        <time>2023-05-28T10:23:17Z</time>
      </trkpt>
      <trkpt lat="43.53256" lon="5.57549">
        <ele>848.7</ele>
        <time>2023-05-28T10:23:18Z</time>
      </trkpt>
      <trkpt lat="43.53257" lon="5.57548">
        <ele>848.6</ele>
        <time>2023-05-28T10:23:19Z</time>
      </trkpt>
      <trkpt lat="43.53256" lon="5.57548">
        <ele>848.5</ele>
        <time>2023-05-28T10:23:20Z</time>
      </trkpt>
      <trkpt lat="43.53256" lon="5.57547">
        <ele>848.5</ele>
        <time>2023-05-28T10:23:21Z</time>
      </trkpt>
      <trkpt lat="43.53257" lon="5.57547">
        <ele>848.5</ele>
        <time>2023-05-28T10:23:22Z</time>
      </trkpt>
      <trkpt lat="43.53257" lon="5.57547">
        <ele>848.5</ele>
        <time>2023-05-28T10:23:23Z</time>
      </trkpt>
      <trkpt lat="43.53257" lon="5.57546">
        <ele>848.5</ele>
        <time>2023-05-28T10:23:24Z</time>
      </trkpt>
      <trkpt lat="43.53257" lon="5.57546">
        <ele>848.4</ele>
        <time>2023-05-28T10:23:25Z</time>
      </trkpt>
      <trkpt lat="43.53257" lon="5.57545">
        <ele>848.3</ele>
        <time>2023-05-28T10:23:26Z</time>
      </trkpt>
      <trkpt lat="43.53257" lon="5.57545">
        <ele>848.3</ele>
        <time>2023-05-28T10:23:27Z</time>
      </trkpt>
      <trkpt lat="43.53257" lon="5.57545">
        <ele>848.2</ele>
        <time>2023-05-28T10:23:28Z</time>
      </trkpt>
      <trkpt lat="43.53258" lon="5.57545">
        <ele>848.2</ele>
        <time>2023-05-28T10:23:29Z</time>
      </trkpt>
      <trkpt lat="43.53258" lon="5.57545">
        <ele>848.1</ele>
        <time>2023-05-28T10:23:30Z</time>
      </trkpt>
      <trkpt lat="43.53259" lon="5.57545">
        <ele>848.1</ele>
        <time>2023-05-28T10:23:31Z</time>
      </trkpt>
      <trkpt lat="43.53259" lon="5.57544">
        <ele>848.1</ele>
        <time>2023-05-28T10:23:32Z</time>
      </trkpt>
      <trkpt lat="43.53259" lon="5.57544">
        <ele>848.1</ele>
        <time>2023-05-28T10:23:33Z</time>
      </trkpt>
      <trkpt lat="43.53259" lon="5.57543">
        <ele>848</ele>
        <time>2023-05-28T10:23:34Z</time>
      </trkpt>
      <trkpt lat="43.5326" lon="5.57543">
        <ele>847.9</ele>
        <time>2023-05-28T10:23:35Z</time>
      </trkpt>
      <trkpt lat="43.5326" lon="5.57543">
        <ele>847.8</ele>
        <time>2023-05-28T10:23:36Z</time>
      </trkpt>
      <trkpt lat="43.5326" lon="5.57543">
        <ele>847.7</ele>
        <time>2023-05-28T10:23:37Z</time>
      </trkpt>
      <trkpt lat="43.53261" lon="5.57542">
        <ele>847.5</ele>
        <time>2023-05-28T10:23:38Z</time>
      </trkpt>
      <trkpt lat="43.53261" lon="5.57541">
        <ele>847.4</ele>
        <time>2023-05-28T10:23:39Z</time>
      </trkpt>
      <trkpt lat="43.53262" lon="5.5754">
        <ele>847.3</ele>
        <time>2023-05-28T10:23:40Z</time>
      </trkpt>
      <trkpt lat="43.53262" lon="5.5754">
        <ele>847.3</ele>
        <time>2023-05-28T10:23:41Z</time>
      </trkpt>
      <trkpt lat="43.53262" lon="5.5754">
        <ele>847.2</ele>
        <time>2023-05-28T10:23:42Z</time>
      </trkpt>
      <trkpt lat="43.53262" lon="5.57539">
        <ele>847.1</ele>
        <time>2023-05-28T10:23:43Z</time>
      </trkpt>
      <trkpt lat="43.53263" lon="5.57539">
        <ele>847</ele>
        <time>2023-05-28T10:23:44Z</time>
      </trkpt>
      <trkpt lat="43.53263" lon="5.57538">
        <ele>846.9</ele>
        <time>2023-05-28T10:23:45Z</time>
      </trkpt>
      <trkpt lat="43.53264" lon="5.57538">
        <ele>846.8</ele>
        <time>2023-05-28T10:23:46Z</time>
      </trkpt>
      <trkpt lat="43.53264" lon="5.57537">
        <ele>846.6</ele>
        <time>2023-05-28T10:23:47Z</time>
      </trkpt>
      <trkpt lat="43.53264" lon="5.57537">
        <ele>846.5</ele>
        <time>2023-05-28T10:23:48Z</time>
      </trkpt>
      <trkpt lat="43.53264" lon="5.57537">
        <ele>846.3</ele>
        <time>2023-05-28T10:23:49Z</time>
      </trkpt>
      <trkpt lat="43.53264" lon="5.57536">
        <ele>846.2</ele>
        <time>2023-05-28T10:23:50Z</time>
      </trkpt>
      <trkpt lat="43.53265" lon="5.57537">
        <ele>846.1</ele>
        <time>2023-05-28T10:23:51Z</time>
      </trkpt>
      <trkpt lat="43.53265" lon="5.57537">
        <ele>846</ele>
        <time>2023-05-28T10:23:52Z</time>
      </trkpt>
      <trkpt lat="43.53266" lon="5.57537">
        <ele>845.9</ele>
        <time>2023-05-28T10:23:53Z</time>
      </trkpt>
      <trkpt lat="43.53266" lon="5.57537">
        <ele>845.8</ele>
        <time>2023-05-28T10:23:54Z</time>
      </trkpt>
      <trkpt lat="43.53266" lon="5.57536">
        <ele>845.7</ele>
        <time>2023-05-28T10:23:55Z</time>
      </trkpt>
      <trkpt lat="43.53267" lon="5.57535">
        <ele>845.6</ele>
        <time>2023-05-28T10:23:56Z</time>
      </trkpt>
      <trkpt lat="43.53267" lon="5.57535">
        <ele>845.6</ele>
        <time>2023-05-28T10:23:57Z</time>
      </trkpt>
      <trkpt lat="43.53267" lon="5.57535">
        <ele>845.5</ele>
        <time>2023-05-28T10:23:58Z</time>
      </trkpt>
      <trkpt lat="43.53267" lon="5.57536">
        <ele>845.5</ele>
        <time>2023-05-28T10:23:59Z</time>
      </trkpt>
      <trkpt lat="43.53267" lon="5.57536">
        <ele>845.5</ele>
        <time>2023-05-28T10:24:00Z</time>
      </trkpt>
      <trkpt lat="43.53267" lon="5.57536">
        <ele>845.5</ele>
        <time>2023-05-28T10:24:01Z</time>
      </trkpt>
      <trkpt lat="43.53266" lon="5.57536">
        <ele>845.5</ele>
        <time>2023-05-28T10:24:02Z</time>
      </trkpt>
      <trkpt lat="43.53267" lon="5.57536">
        <ele>845.3</ele>
        <time>2023-05-28T10:24:03Z</time>
      </trkpt>
      <trkpt lat="43.53267" lon="5.57536">
        <ele>845.2</ele>
        <time>2023-05-28T10:24:04Z</time>
      </trkpt>
      <trkpt lat="43.53267" lon="5.57535">
        <ele>845.2</ele>
        <time>2023-05-28T10:24:05Z</time>
      </trkpt>
      <trkpt lat="43.53267" lon="5.57535">
        <ele>845.1</ele>
        <time>2023-05-28T10:24:06Z</time>
      </trkpt>
      <trkpt lat="43.53268" lon="5.57534">
        <ele>844.9</ele>
        <time>2023-05-28T10:24:07Z</time>
      </trkpt>
      <trkpt lat="43.53268" lon="5.57533">
        <ele>844.7</ele>
        <time>2023-05-28T10:24:08Z</time>
      </trkpt>
      <trkpt lat="43.53268" lon="5.57532">
        <ele>844.6</ele>
        <time>2023-05-28T10:24:09Z</time>
      </trkpt>
      <trkpt lat="43.53267" lon="5.57531">
        <ele>844.4</ele>
        <time>2023-05-28T10:24:10Z</time>
      </trkpt>
      <trkpt lat="43.53268" lon="5.57531">
        <ele>844.2</ele>
        <time>2023-05-28T10:24:11Z</time>
      </trkpt>
      <trkpt lat="43.53268" lon="5.5753">
        <ele>844.1</ele>
        <time>2023-05-28T10:24:12Z</time>
      </trkpt>
      <trkpt lat="43.53269" lon="5.5753">
        <ele>843.8</ele>
        <time>2023-05-28T10:24:13Z</time>
      </trkpt>
      <trkpt lat="43.53269" lon="5.57529">
        <ele>843.6</ele>
        <time>2023-05-28T10:24:14Z</time>
      </trkpt>
      <trkpt lat="43.5327" lon="5.57529">
        <ele>843.4</ele>
        <time>2023-05-28T10:24:15Z</time>
      </trkpt>
      <trkpt lat="43.5327" lon="5.57529">
        <ele>843.3</ele>
        <time>2023-05-28T10:24:16Z</time>
      </trkpt>
      <trkpt lat="43.53271" lon="5.57528">
        <ele>843.2</ele>
        <time>2023-05-28T10:24:17Z</time>
      </trkpt>
      <trkpt lat="43.53272" lon="5.57527">
        <ele>843.1</ele>
        <time>2023-05-28T10:24:18Z</time>
      </trkpt>
      <trkpt lat="43.53272" lon="5.57526">
        <ele>842.9</ele>
        <time>2023-05-28T10:24:19Z</time>
      </trkpt>
      <trkpt lat="43.53272" lon="5.57526">
        <ele>842.8</ele>
        <time>2023-05-28T10:24:20Z</time>
      </trkpt>
      <trkpt lat="43.53272" lon="5.57525">
        <ele>842.6</ele>
        <time>2023-05-28T10:24:21Z</time>
      </trkpt>
      <trkpt lat="43.53272" lon="5.57525">
        <ele>842.4</ele>
        <time>2023-05-28T10:24:22Z</time>
      </trkpt>
      <trkpt lat="43.53272" lon="5.57525">
        <ele>842.2</ele>
        <time>2023-05-28T10:24:23Z</time>
      </trkpt>
      <trkpt lat="43.53272" lon="5.57526">
        <ele>842</ele>
        <time>2023-05-28T10:24:24Z</time>
      </trkpt>
      <trkpt lat="43.53272" lon="5.57526">
        <ele>841.9</ele>
        <time>2023-05-28T10:24:25Z</time>
      </trkpt>
      <trkpt lat="43.53272" lon="5.57527">
        <ele>841.7</ele>
        <time>2023-05-28T10:24:26Z</time>
      </trkpt>
      <trkpt lat="43.53273" lon="5.57526">
        <ele>841.6</ele>
        <time>2023-05-28T10:24:27Z</time>
      </trkpt>
      <trkpt lat="43.53272" lon="5.57526">
        <ele>841.4</ele>
        <time>2023-05-28T10:24:28Z</time>
      </trkpt>
      <trkpt lat="43.53273" lon="5.57526">
        <ele>841.3</ele>
        <time>2023-05-28T10:24:29Z</time>
      </trkpt>
      <trkpt lat="43.53273" lon="5.57526">
        <ele>841</ele>
        <time>2023-05-28T10:24:30Z</time>
      </trkpt>
      <trkpt lat="43.53273" lon="5.57525">
        <ele>840.9</ele>
        <time>2023-05-28T10:24:31Z</time>
      </trkpt>
      <trkpt lat="43.53274" lon="5.57525">
        <ele>840.7</ele>
        <time>2023-05-28T10:24:32Z</time>
      </trkpt>
      <trkpt lat="43.53274" lon="5.57525">
        <ele>840.4</ele>
        <time>2023-05-28T10:24:33Z</time>
      </trkpt>
      <trkpt lat="43.53275" lon="5.57525">
        <ele>840.2</ele>
        <time>2023-05-28T10:24:34Z</time>
      </trkpt>
      <trkpt lat="43.53275" lon="5.57525">
        <ele>840.1</ele>
        <time>2023-05-28T10:24:35Z</time>
      </trkpt>
      <trkpt lat="43.53276" lon="5.57525">
        <ele>839.9</ele>
        <time>2023-05-28T10:24:36Z</time>
      </trkpt>
      <trkpt lat="43.53277" lon="5.57524">
        <ele>839.8</ele>
        <time>2023-05-28T10:24:37Z</time>
      </trkpt>
      <trkpt lat="43.53278" lon="5.57524">
        <ele>839.8</ele>
        <time>2023-05-28T10:24:38Z</time>
      </trkpt>
      <trkpt lat="43.53278" lon="5.57523">
        <ele>839.6</ele>
        <time>2023-05-28T10:24:39Z</time>
      </trkpt>
      <trkpt lat="43.53279" lon="5.57522">
        <ele>839.5</ele>
        <time>2023-05-28T10:24:40Z</time>
      </trkpt>
      <trkpt lat="43.53279" lon="5.57522">
        <ele>839.3</ele>
        <time>2023-05-28T10:24:41Z</time>
      </trkpt>
      <trkpt lat="43.53279" lon="5.57522">
        <ele>839.2</ele>
        <time>2023-05-28T10:24:42Z</time>
      </trkpt>
      <trkpt lat="43.53279" lon="5.57522">
        <ele>838.9</ele>
        <time>2023-05-28T10:24:43Z</time>
      </trkpt>
      <trkpt lat="43.5328" lon="5.57523">
        <ele>838.8</ele>
        <time>2023-05-28T10:24:44Z</time>
      </trkpt>
      <trkpt lat="43.5328" lon="5.57523">
        <ele>838.6</ele>
        <time>2023-05-28T10:24:45Z</time>
      </trkpt>
      <trkpt lat="43.53281" lon="5.57523">
        <ele>838.5</ele>
        <time>2023-05-28T10:24:46Z</time>
      </trkpt>
      <trkpt lat="43.53282" lon="5.57523">
        <ele>838.4</ele>
        <time>2023-05-28T10:24:47Z</time>
      </trkpt>
      <trkpt lat="43.53282" lon="5.57522">
        <ele>838.3</ele>
        <time>2023-05-28T10:24:48Z</time>
      </trkpt>
      <trkpt lat="43.53283" lon="5.57522">
        <ele>838</ele>
        <time>2023-05-28T10:24:49Z</time>
      </trkpt>
      <trkpt lat="43.53283" lon="5.57522">
        <ele>837.8</ele>
        <time>2023-05-28T10:24:50Z</time>
      </trkpt>
      <trkpt lat="43.53284" lon="5.57522">
        <ele>837.6</ele>
        <time>2023-05-28T10:24:51Z</time>
      </trkpt>
      <trkpt lat="43.53284" lon="5.57522">
        <ele>837.5</ele>
        <time>2023-05-28T10:24:52Z</time>
      </trkpt>
      <trkpt lat="43.53284" lon="5.57522">
        <ele>837.4</ele>
        <time>2023-05-28T10:24:53Z</time>
      </trkpt>
      <trkpt lat="43.53285" lon="5.57522">
        <ele>837.4</ele>
        <time>2023-05-28T10:24:54Z</time>
      </trkpt>
      <trkpt lat="43.53285" lon="5.57522">
        <ele>837.2</ele>
        <time>2023-05-28T10:24:55Z</time>
      </trkpt>
      <trkpt lat="43.53286" lon="5.57521">
        <ele>837</ele>
        <time>2023-05-28T10:24:56Z</time>
      </trkpt>
      <trkpt lat="43.53286" lon="5.57521">
        <ele>836.8</ele>
        <time>2023-05-28T10:24:57Z</time>
      </trkpt>
      <trkpt lat="43.53287" lon="5.57521">
        <ele>836.7</ele>
        <time>2023-05-28T10:24:58Z</time>
      </trkpt>
      <trkpt lat="43.53287" lon="5.5752">
        <ele>836.6</ele>
        <time>2023-05-28T10:24:59Z</time>
      </trkpt>
      <trkpt lat="43.53287" lon="5.57519">
        <ele>836.5</ele>
        <time>2023-05-28T10:25:00Z</time>
      </trkpt>
      <trkpt lat="43.53287" lon="5.57519">
        <ele>836.3</ele>
        <time>2023-05-28T10:25:01Z</time>
      </trkpt>
      <trkpt lat="43.53287" lon="5.57518">
        <ele>836.1</ele>
        <time>2023-05-28T10:25:02Z</time>
      </trkpt>
      <trkpt lat="43.53287" lon="5.57518">
        <ele>836</ele>
        <time>2023-05-28T10:25:03Z</time>
      </trkpt>
      <trkpt lat="43.53288" lon="5.57517">
        <ele>835.9</ele>
        <time>2023-05-28T10:25:04Z</time>
      </trkpt>
      <trkpt lat="43.53288" lon="5.57517">
        <ele>835.8</ele>
        <time>2023-05-28T10:25:05Z</time>
      </trkpt>
      <trkpt lat="43.53288" lon="5.57516">
        <ele>835.7</ele>
        <time>2023-05-28T10:25:06Z</time>
      </trkpt>
      <trkpt lat="43.53288" lon="5.57516">
        <ele>835.6</ele>
        <time>2023-05-28T10:25:07Z</time>
      </trkpt>
      <trkpt lat="43.53288" lon="5.57515">
        <ele>835.5</ele>
        <time>2023-05-28T10:25:08Z</time>
      </trkpt>
      <trkpt lat="43.53289" lon="5.57515">
        <ele>835.4</ele>
        <time>2023-05-28T10:25:09Z</time>
      </trkpt>
      <trkpt lat="43.5329" lon="5.57515">
        <ele>835.3</ele>
        <time>2023-05-28T10:25:10Z</time>
      </trkpt>
      <trkpt lat="43.5329" lon="5.57515">
        <ele>835.2</ele>
        <time>2023-05-28T10:25:11Z</time>
      </trkpt>
      <trkpt lat="43.53291" lon="5.57514">
        <ele>835.1</ele>
        <time>2023-05-28T10:25:12Z</time>
      </trkpt>
      <trkpt lat="43.53291" lon="5.57514">
        <ele>834.9</ele>
        <time>2023-05-28T10:25:13Z</time>
      </trkpt>
      <trkpt lat="43.53291" lon="5.57513">
        <ele>834.8</ele>
        <time>2023-05-28T10:25:14Z</time>
      </trkpt>
      <trkpt lat="43.53291" lon="5.57513">
        <ele>834.7</ele>
        <time>2023-05-28T10:25:15Z</time>
      </trkpt>
      <trkpt lat="43.53292" lon="5.57513">
        <ele>834.7</ele>
        <time>2023-05-28T10:25:16Z</time>
      </trkpt>
      <trkpt lat="43.53292" lon="5.57513">
        <ele>834.5</ele>
        <time>2023-05-28T10:25:17Z</time>
      </trkpt>
      <trkpt lat="43.53292" lon="5.57512">
        <ele>834.3</ele>
        <time>2023-05-28T10:25:18Z</time>
      </trkpt>
      <trkpt lat="43.53292" lon="5.57512">
        <ele>834.1</ele>
        <time>2023-05-28T10:25:19Z</time>
      </trkpt>
      <trkpt lat="43.53293" lon="5.57512">
        <ele>834</ele>
        <time>2023-05-28T10:25:20Z</time>
      </trkpt>
      <trkpt lat="43.53293" lon="5.57511">
        <ele>833.8</ele>
        <time>2023-05-28T10:25:21Z</time>
      </trkpt>
      <trkpt lat="43.53294" lon="5.57511">
        <ele>833.6</ele>
        <time>2023-05-28T10:25:22Z</time>
      </trkpt>
      <trkpt lat="43.53294" lon="5.5751">
        <ele>833.4</ele>
        <time>2023-05-28T10:25:23Z</time>
      </trkpt>
      <trkpt lat="43.53295" lon="5.57509">
        <ele>833.3</ele>
        <time>2023-05-28T10:25:24Z</time>
      </trkpt>
      <trkpt lat="43.53295" lon="5.57508">
        <ele>833.2</ele>
        <time>2023-05-28T10:25:25Z</time>
      </trkpt>
      <trkpt lat="43.53295" lon="5.57508">
        <ele>832.9</ele>
        <time>2023-05-28T10:25:26Z</time>
      </trkpt>
      <trkpt lat="43.53296" lon="5.57506">
        <ele>832.8</ele>
        <time>2023-05-28T10:25:27Z</time>
      </trkpt>
      <trkpt lat="43.53296" lon="5.57506">
        <ele>832.7</ele>
        <time>2023-05-28T10:25:28Z</time>
      </trkpt>
      <trkpt lat="43.53295" lon="5.57506">
        <ele>832.6</ele>
        <time>2023-05-28T10:25:29Z</time>
      </trkpt>
      <trkpt lat="43.53295" lon="5.57505">
        <ele>832.4</ele>
        <time>2023-05-28T10:25:30Z</time>
      </trkpt>
      <trkpt lat="43.53295" lon="5.57504">
        <ele>832.3</ele>
        <time>2023-05-28T10:25:31Z</time>
      </trkpt>
      <trkpt lat="43.53295" lon="5.57504">
        <ele>832.2</ele>
        <time>2023-05-28T10:25:32Z</time>
      </trkpt>
      <trkpt lat="43.53296" lon="5.57504">
        <ele>832.1</ele>
        <time>2023-05-28T10:25:33Z</time>
      </trkpt>
      <trkpt lat="43.53296" lon="5.57503">
        <ele>832</ele>
        <time>2023-05-28T10:25:34Z</time>
      </trkpt>
      <trkpt lat="43.53296" lon="5.57503">
        <ele>831.9</ele>
        <time>2023-05-28T10:25:35Z</time>
      </trkpt>
      <trkpt lat="43.53296" lon="5.57503">
        <ele>831.7</ele>
        <time>2023-05-28T10:25:36Z</time>
      </trkpt>
      <trkpt lat="43.53296" lon="5.57502">
        <ele>831.6</ele>
        <time>2023-05-28T10:25:37Z</time>
      </trkpt>
      <trkpt lat="43.53296" lon="5.57502">
        <ele>831.5</ele>
        <time>2023-05-28T10:25:38Z</time>
      </trkpt>
      <trkpt lat="43.53297" lon="5.57501">
        <ele>831.3</ele>
        <time>2023-05-28T10:25:39Z</time>
      </trkpt>
      <trkpt lat="43.53297" lon="5.57499">
        <ele>831.2</ele>
        <time>2023-05-28T10:25:40Z</time>
      </trkpt>
      <trkpt lat="43.53297" lon="5.57498">
        <ele>831</ele>
        <time>2023-05-28T10:25:41Z</time>
      </trkpt>
      <trkpt lat="43.53297" lon="5.57498">
        <ele>830.7</ele>
        <time>2023-05-28T10:25:42Z</time>
      </trkpt>
      <trkpt lat="43.53298" lon="5.57497">
        <ele>830.6</ele>
        <time>2023-05-28T10:25:43Z</time>
      </trkpt>
      <trkpt lat="43.53298" lon="5.57496">
        <ele>830.5</ele>
        <time>2023-05-28T10:25:44Z</time>
      </trkpt>
      <trkpt lat="43.53298" lon="5.57495">
        <ele>830.4</ele>
        <time>2023-05-28T10:25:45Z</time>
      </trkpt>
      <trkpt lat="43.53298" lon="5.57494">
        <ele>830.3</ele>
        <time>2023-05-28T10:25:46Z</time>
      </trkpt>
      <trkpt lat="43.53299" lon="5.57494">
        <ele>830.1</ele>
        <time>2023-05-28T10:25:47Z</time>
      </trkpt>
      <trkpt lat="43.53299" lon="5.57494">
        <ele>830</ele>
        <time>2023-05-28T10:25:48Z</time>
      </trkpt>
      <trkpt lat="43.53299" lon="5.57494">
        <ele>829.8</ele>
        <time>2023-05-28T10:25:49Z</time>
      </trkpt>
      <trkpt lat="43.533" lon="5.57493">
        <ele>829.4</ele>
        <time>2023-05-28T10:25:50Z</time>
      </trkpt>
      <trkpt lat="43.53301" lon="5.57493">
        <ele>829.2</ele>
        <time>2023-05-28T10:25:51Z</time>
      </trkpt>
      <trkpt lat="43.533" lon="5.57492">
        <ele>829</ele>
        <time>2023-05-28T10:25:52Z</time>
      </trkpt>
      <trkpt lat="43.53301" lon="5.57492">
        <ele>828.9</ele>
        <time>2023-05-28T10:25:53Z</time>
      </trkpt>
      <trkpt lat="43.53302" lon="5.57492">
        <ele>828.7</ele>
        <time>2023-05-28T10:25:54Z</time>
      </trkpt>
      <trkpt lat="43.53302" lon="5.57491">
        <ele>828.5</ele>
        <time>2023-05-28T10:25:55Z</time>
      </trkpt>
      <trkpt lat="43.53303" lon="5.57491">
        <ele>828.2</ele>
        <time>2023-05-28T10:25:56Z</time>
      </trkpt>
      <trkpt lat="43.53303" lon="5.57491">
        <ele>828</ele>
        <time>2023-05-28T10:25:57Z</time>
      </trkpt>
      <trkpt lat="43.53303" lon="5.57491">
        <ele>827.8</ele>
        <time>2023-05-28T10:25:58Z</time>
      </trkpt>
      <trkpt lat="43.53304" lon="5.57491">
        <ele>827.6</ele>
        <time>2023-05-28T10:25:59Z</time>
      </trkpt>
      <trkpt lat="43.53305" lon="5.5749">
        <ele>827.4</ele>
        <time>2023-05-28T10:26:00Z</time>
      </trkpt>
      <trkpt lat="43.53306" lon="5.5749">
        <ele>827.2</ele>
        <time>2023-05-28T10:26:01Z</time>
      </trkpt>
      <trkpt lat="43.53306" lon="5.57489">
        <ele>827</ele>
        <time>2023-05-28T10:26:02Z</time>
      </trkpt>
      <trkpt lat="43.53306" lon="5.57488">
        <ele>826.8</ele>
        <time>2023-05-28T10:26:03Z</time>
      </trkpt>
      <trkpt lat="43.53307" lon="5.57487">
        <ele>826.6</ele>
        <time>2023-05-28T10:26:04Z</time>
      </trkpt>
      <trkpt lat="43.53306" lon="5.57487">
        <ele>826.5</ele>
        <time>2023-05-28T10:26:05Z</time>
      </trkpt>
      <trkpt lat="43.53306" lon="5.57486">
        <ele>826.3</ele>
        <time>2023-05-28T10:26:06Z</time>
      </trkpt>
      <trkpt lat="43.53307" lon="5.57486">
        <ele>826.2</ele>
        <time>2023-05-28T10:26:07Z</time>
      </trkpt>
      <trkpt lat="43.53307" lon="5.57486">
        <ele>826</ele>
        <time>2023-05-28T10:26:08Z</time>
      </trkpt>
      <trkpt lat="43.53307" lon="5.57485">
        <ele>825.8</ele>
        <time>2023-05-28T10:26:09Z</time>
      </trkpt>
      <trkpt lat="43.53307" lon="5.57485">
        <ele>825.6</ele>
        <time>2023-05-28T10:26:10Z</time>
      </trkpt>
      <trkpt lat="43.53307" lon="5.57485">
        <ele>825.5</ele>
        <time>2023-05-28T10:26:11Z</time>
      </trkpt>
      <trkpt lat="43.53307" lon="5.57485">
        <ele>825.4</ele>
        <time>2023-05-28T10:26:12Z</time>
      </trkpt>
      <trkpt lat="43.53307" lon="5.57485">
        <ele>825.4</ele>
        <time>2023-05-28T10:26:13Z</time>
      </trkpt>
      <trkpt lat="43.53307" lon="5.57485">
        <ele>825.4</ele>
        <time>2023-05-28T10:26:14Z</time>
      </trkpt>
      <trkpt lat="43.53307" lon="5.57485">
        <ele>825.3</ele>
        <time>2023-05-28T10:26:15Z</time>
      </trkpt>
      <trkpt lat="43.53307" lon="5.57485">
        <ele>825.3</ele>
        <time>2023-05-28T10:26:16Z</time>
      </trkpt>
      <trkpt lat="43.53307" lon="5.57485">
        <ele>825.2</ele>
        <time>2023-05-28T10:26:17Z</time>
      </trkpt>
      <trkpt lat="43.53307" lon="5.57484">
        <ele>825.2</ele>
        <time>2023-05-28T10:26:18Z</time>
      </trkpt>
      <trkpt lat="43.53307" lon="5.57484">
        <ele>825.1</ele>
        <time>2023-05-28T10:26:19Z</time>
      </trkpt>
      <trkpt lat="43.53307" lon="5.57484">
        <ele>825</ele>
        <time>2023-05-28T10:26:20Z</time>
      </trkpt>
      <trkpt lat="43.53307" lon="5.57483">
        <ele>825</ele>
        <time>2023-05-28T10:26:21Z</time>
      </trkpt>
      <trkpt lat="43.53308" lon="5.57483">
        <ele>824.9</ele>
        <time>2023-05-28T10:26:22Z</time>
      </trkpt>
      <trkpt lat="43.53308" lon="5.57483">
        <ele>824.9</ele>
        <time>2023-05-28T10:26:23Z</time>
      </trkpt>
      <trkpt lat="43.53308" lon="5.57483">
        <ele>824.8</ele>
        <time>2023-05-28T10:26:24Z</time>
      </trkpt>
      <trkpt lat="43.53308" lon="5.57483">
        <ele>824.8</ele>
        <time>2023-05-28T10:26:25Z</time>
      </trkpt>
      <trkpt lat="43.53308" lon="5.57483">
        <ele>824.7</ele>
        <time>2023-05-28T10:26:26Z</time>
      </trkpt>
      <trkpt lat="43.53308" lon="5.57482">
        <ele>824.6</ele>
        <time>2023-05-28T10:26:27Z</time>
      </trkpt>
      <trkpt lat="43.53308" lon="5.57483">
        <ele>824.5</ele>
        <time>2023-05-28T10:26:28Z</time>
      </trkpt>
      <trkpt lat="43.53309" lon="5.57482">
        <ele>824.3</ele>
        <time>2023-05-28T10:26:29Z</time>
      </trkpt>
      <trkpt lat="43.53309" lon="5.57482">
        <ele>824.2</ele>
        <time>2023-05-28T10:26:30Z</time>
      </trkpt>
      <trkpt lat="43.5331" lon="5.57481">
        <ele>824.1</ele>
        <time>2023-05-28T10:26:31Z</time>
      </trkpt>
      <trkpt lat="43.53311" lon="5.57481">
        <ele>824</ele>
        <time>2023-05-28T10:26:32Z</time>
      </trkpt>
      <trkpt lat="43.53312" lon="5.5748">
        <ele>823.8</ele>
        <time>2023-05-28T10:26:33Z</time>
      </trkpt>
      <trkpt lat="43.53312" lon="5.5748">
        <ele>823.8</ele>
        <time>2023-05-28T10:26:34Z</time>
      </trkpt>
      <trkpt lat="43.53312" lon="5.5748">
        <ele>823.7</ele>
        <time>2023-05-28T10:26:35Z</time>
      </trkpt>
      <trkpt lat="43.53313" lon="5.5748">
        <ele>823.6</ele>
        <time>2023-05-28T10:26:36Z</time>
      </trkpt>
      <trkpt lat="43.53313" lon="5.5748">
        <ele>823.5</ele>
        <time>2023-05-28T10:26:37Z</time>
      </trkpt>
      <trkpt lat="43.53313" lon="5.57481">
        <ele>823.5</ele>
        <time>2023-05-28T10:26:38Z</time>
      </trkpt>
      <trkpt lat="43.53314" lon="5.57481">
        <ele>823.3</ele>
        <time>2023-05-28T10:26:39Z</time>
      </trkpt>
      <trkpt lat="43.53314" lon="5.57481">
        <ele>823.3</ele>
        <time>2023-05-28T10:26:40Z</time>
      </trkpt>
      <trkpt lat="43.53315" lon="5.57482">
        <ele>823.2</ele>
        <time>2023-05-28T10:26:41Z</time>
      </trkpt>
      <trkpt lat="43.53315" lon="5.57482">
        <ele>822.9</ele>
        <time>2023-05-28T10:26:42Z</time>
      </trkpt>
      <trkpt lat="43.53316" lon="5.57483">
        <ele>822.9</ele>
        <time>2023-05-28T10:26:43Z</time>
      </trkpt>
      <trkpt lat="43.53316" lon="5.57483">
        <ele>822.8</ele>
        <time>2023-05-28T10:26:44Z</time>
      </trkpt>
      <trkpt lat="43.53316" lon="5.57483">
        <ele>822.7</ele>
        <time>2023-05-28T10:26:45Z</time>
      </trkpt>
      <trkpt lat="43.53316" lon="5.57483">
        <ele>822.6</ele>
        <time>2023-05-28T10:26:46Z</time>
      </trkpt>
      <trkpt lat="43.53317" lon="5.57482">
        <ele>822.5</ele>
        <time>2023-05-28T10:26:47Z</time>
      </trkpt>
      <trkpt lat="43.53317" lon="5.57482">
        <ele>822.3</ele>
        <time>2023-05-28T10:26:48Z</time>
      </trkpt>
      <trkpt lat="43.53317" lon="5.57482">
        <ele>822.1</ele>
        <time>2023-05-28T10:26:49Z</time>
      </trkpt>
      <trkpt lat="43.53318" lon="5.57481">
        <ele>822</ele>
        <time>2023-05-28T10:26:50Z</time>
      </trkpt>
      <trkpt lat="43.53317" lon="5.57481">
        <ele>821.8</ele>
        <time>2023-05-28T10:26:51Z</time>
      </trkpt>
      <trkpt lat="43.53318" lon="5.5748">
        <ele>821.5</ele>
        <time>2023-05-28T10:26:52Z</time>
      </trkpt>
      <trkpt lat="43.53317" lon="5.57479">
        <ele>821.3</ele>
        <time>2023-05-28T10:26:53Z</time>
      </trkpt>
      <trkpt lat="43.53317" lon="5.57479">
        <ele>821.2</ele>
        <time>2023-05-28T10:26:54Z</time>
      </trkpt>
      <trkpt lat="43.53317" lon="5.57478">
        <ele>821</ele>
        <time>2023-05-28T10:26:55Z</time>
      </trkpt>
      <trkpt lat="43.53317" lon="5.57478">
        <ele>820.9</ele>
        <time>2023-05-28T10:26:56Z</time>
      </trkpt>
      <trkpt lat="43.53317" lon="5.57478">
        <ele>820.8</ele>
        <time>2023-05-28T10:26:57Z</time>
      </trkpt>
      <trkpt lat="43.53318" lon="5.57478">
        <ele>820.6</ele>
        <time>2023-05-28T10:26:58Z</time>
      </trkpt>
      <trkpt lat="43.53318" lon="5.57478">
        <ele>820.5</ele>
        <time>2023-05-28T10:26:59Z</time>
      </trkpt>
      <trkpt lat="43.53319" lon="5.57478">
        <ele>820.4</ele>
        <time>2023-05-28T10:27:00Z</time>
      </trkpt>
      <trkpt lat="43.53319" lon="5.57478">
        <ele>820.3</ele>
        <time>2023-05-28T10:27:01Z</time>
      </trkpt>
      <trkpt lat="43.53319" lon="5.57478">
        <ele>820.1</ele>
        <time>2023-05-28T10:27:02Z</time>
      </trkpt>
      <trkpt lat="43.53319" lon="5.57478">
        <ele>820</ele>
        <time>2023-05-28T10:27:03Z</time>
      </trkpt>
      <trkpt lat="43.5332" lon="5.57477">
        <ele>819.9</ele>
        <time>2023-05-28T10:27:04Z</time>
      </trkpt>
      <trkpt lat="43.5332" lon="5.57477">
        <ele>819.8</ele>
        <time>2023-05-28T10:27:05Z</time>
      </trkpt>
      <trkpt lat="43.5332" lon="5.57476">
        <ele>819.7</ele>
        <time>2023-05-28T10:27:06Z</time>
      </trkpt>
      <trkpt lat="43.53321" lon="5.57475">
        <ele>819.6</ele>
        <time>2023-05-28T10:27:07Z</time>
      </trkpt>
      <trkpt lat="43.53321" lon="5.57474">
        <ele>819.5</ele>
        <time>2023-05-28T10:27:08Z</time>
      </trkpt>
      <trkpt lat="43.53321" lon="5.57474">
        <ele>819.5</ele>
        <time>2023-05-28T10:27:09Z</time>
      </trkpt>
      <trkpt lat="43.53321" lon="5.57474">
        <ele>819.4</ele>
        <time>2023-05-28T10:27:10Z</time>
      </trkpt>
      <trkpt lat="43.53321" lon="5.57473">
        <ele>819.3</ele>
        <time>2023-05-28T10:27:11Z</time>
      </trkpt>
      <trkpt lat="43.53322" lon="5.57473">
        <ele>819.3</ele>
        <time>2023-05-28T10:27:12Z</time>
      </trkpt>
      <trkpt lat="43.53321" lon="5.57473">
        <ele>819.4</ele>
        <time>2023-05-28T10:27:13Z</time>
      </trkpt>
      <trkpt lat="43.53321" lon="5.57472">
        <ele>819.4</ele>
        <time>2023-05-28T10:27:14Z</time>
      </trkpt>
      <trkpt lat="43.53321" lon="5.57472">
        <ele>819.3</ele>
        <time>2023-05-28T10:27:15Z</time>
      </trkpt>
      <trkpt lat="43.53321" lon="5.57472">
        <ele>819.3</ele>
        <time>2023-05-28T10:27:16Z</time>
      </trkpt>
      <trkpt lat="43.53321" lon="5.57472">
        <ele>819.1</ele>
        <time>2023-05-28T10:27:17Z</time>
      </trkpt>
      <trkpt lat="43.53321" lon="5.57472">
        <ele>819.1</ele>
        <time>2023-05-28T10:27:18Z</time>
      </trkpt>
      <trkpt lat="43.53321" lon="5.57472">
        <ele>819</ele>
        <time>2023-05-28T10:27:19Z</time>
      </trkpt>
      <trkpt lat="43.53321" lon="5.57472">
        <ele>819</ele>
        <time>2023-05-28T10:27:20Z</time>
      </trkpt>
      <trkpt lat="43.53322" lon="5.57472">
        <ele>819</ele>
        <time>2023-05-28T10:27:21Z</time>
      </trkpt>
      <trkpt lat="43.53322" lon="5.57472">
        <ele>818.8</ele>
        <time>2023-05-28T10:27:22Z</time>
      </trkpt>
      <trkpt lat="43.53322" lon="5.57471">
        <ele>818.6</ele>
        <time>2023-05-28T10:27:23Z</time>
      </trkpt>
      <trkpt lat="43.53322" lon="5.57471">
        <ele>818.5</ele>
        <time>2023-05-28T10:27:24Z</time>
      </trkpt>
      <trkpt lat="43.53322" lon="5.5747">
        <ele>818.3</ele>
        <time>2023-05-28T10:27:25Z</time>
      </trkpt>
      <trkpt lat="43.53322" lon="5.5747">
        <ele>818.2</ele>
        <time>2023-05-28T10:27:26Z</time>
      </trkpt>
      <trkpt lat="43.53323" lon="5.5747">
        <ele>818.1</ele>
        <time>2023-05-28T10:27:27Z</time>
      </trkpt>
      <trkpt lat="43.53323" lon="5.5747">
        <ele>817.9</ele>
        <time>2023-05-28T10:27:28Z</time>
      </trkpt>
      <trkpt lat="43.53323" lon="5.5747">
        <ele>817.7</ele>
        <time>2023-05-28T10:27:29Z</time>
      </trkpt>
      <trkpt lat="43.53323" lon="5.57471">
        <ele>817.5</ele>
        <time>2023-05-28T10:27:30Z</time>
      </trkpt>
      <trkpt lat="43.53324" lon="5.57471">
        <ele>817.4</ele>
        <time>2023-05-28T10:27:31Z</time>
      </trkpt>
      <trkpt lat="43.53324" lon="5.5747">
        <ele>817.2</ele>
        <time>2023-05-28T10:27:32Z</time>
      </trkpt>
      <trkpt lat="43.53325" lon="5.5747">
        <ele>817</ele>
        <time>2023-05-28T10:27:33Z</time>
      </trkpt>
      <trkpt lat="43.53325" lon="5.5747">
        <ele>816.9</ele>
        <time>2023-05-28T10:27:34Z</time>
      </trkpt>
      <trkpt lat="43.53326" lon="5.5747">
        <ele>816.6</ele>
        <time>2023-05-28T10:27:35Z</time>
      </trkpt>
      <trkpt lat="43.53326" lon="5.5747">
        <ele>816.4</ele>
        <time>2023-05-28T10:27:36Z</time>
      </trkpt>
      <trkpt lat="43.53326" lon="5.57469">
        <ele>816.2</ele>
        <time>2023-05-28T10:27:37Z</time>
      </trkpt>
      <trkpt lat="43.53326" lon="5.57469">
        <ele>816.1</ele>
        <time>2023-05-28T10:27:38Z</time>
      </trkpt>
      <trkpt lat="43.53326" lon="5.57468">
        <ele>815.9</ele>
        <time>2023-05-28T10:27:39Z</time>
      </trkpt>
      <trkpt lat="43.53327" lon="5.57468">
        <ele>815.7</ele>
        <time>2023-05-28T10:27:40Z</time>
      </trkpt>
      <trkpt lat="43.53327" lon="5.57467">
        <ele>815.6</ele>
        <time>2023-05-28T10:27:41Z</time>
      </trkpt>
      <trkpt lat="43.53328" lon="5.57467">
        <ele>815.5</ele>
        <time>2023-05-28T10:27:42Z</time>
      </trkpt>
      <trkpt lat="43.53328" lon="5.57467">
        <ele>815.4</ele>
        <time>2023-05-28T10:27:43Z</time>
      </trkpt>
      <trkpt lat="43.53328" lon="5.57467">
        <ele>815.3</ele>
        <time>2023-05-28T10:27:44Z</time>
      </trkpt>
      <trkpt lat="43.53329" lon="5.57466">
        <ele>815.1</ele>
        <time>2023-05-28T10:27:45Z</time>
      </trkpt>
      <trkpt lat="43.53329" lon="5.57465">
        <ele>815</ele>
        <time>2023-05-28T10:27:46Z</time>
      </trkpt>
      <trkpt lat="43.5333" lon="5.57464">
        <ele>814.9</ele>
        <time>2023-05-28T10:27:47Z</time>
      </trkpt>
      <trkpt lat="43.5333" lon="5.57463">
        <ele>814.7</ele>
        <time>2023-05-28T10:27:48Z</time>
      </trkpt>
      <trkpt lat="43.53331" lon="5.57463">
        <ele>814.6</ele>
        <time>2023-05-28T10:27:49Z</time>
      </trkpt>
      <trkpt lat="43.53331" lon="5.57462">
        <ele>814.2</ele>
        <time>2023-05-28T10:27:50Z</time>
      </trkpt>
      <trkpt lat="43.53332" lon="5.57462">
        <ele>814</ele>
        <time>2023-05-28T10:27:51Z</time>
      </trkpt>
      <trkpt lat="43.53332" lon="5.57461">
        <ele>813.9</ele>
        <time>2023-05-28T10:27:52Z</time>
      </trkpt>
      <trkpt lat="43.53332" lon="5.5746">
        <ele>813.6</ele>
        <time>2023-05-28T10:27:53Z</time>
      </trkpt>
      <trkpt lat="43.53332" lon="5.57459">
        <ele>813.5</ele>
        <time>2023-05-28T10:27:54Z</time>
      </trkpt>
      <trkpt lat="43.53332" lon="5.57458">
        <ele>813.3</ele>
        <time>2023-05-28T10:27:55Z</time>
      </trkpt>
      <trkpt lat="43.53331" lon="5.57457">
        <ele>813.2</ele>
        <time>2023-05-28T10:27:56Z</time>
      </trkpt>
      <trkpt lat="43.53331" lon="5.57456">
        <ele>813.1</ele>
        <time>2023-05-28T10:27:57Z</time>
      </trkpt>
      <trkpt lat="43.53331" lon="5.57455">
        <ele>813</ele>
        <time>2023-05-28T10:27:58Z</time>
      </trkpt>
      <trkpt lat="43.5333" lon="5.57455">
        <ele>812.9</ele>
        <time>2023-05-28T10:27:59Z</time>
      </trkpt>
      <trkpt lat="43.5333" lon="5.57454">
        <ele>812.7</ele>
        <time>2023-05-28T10:28:00Z</time>
      </trkpt>
      <trkpt lat="43.53329" lon="5.57453">
        <ele>812.6</ele>
        <time>2023-05-28T10:28:01Z</time>
      </trkpt>
      <trkpt lat="43.53329" lon="5.57453">
        <ele>812.4</ele>
        <time>2023-05-28T10:28:02Z</time>
      </trkpt>
      <trkpt lat="43.53329" lon="5.57452">
        <ele>812.3</ele>
        <time>2023-05-28T10:28:03Z</time>
      </trkpt>
      <trkpt lat="43.53328" lon="5.57452">
        <ele>812.1</ele>
        <time>2023-05-28T10:28:04Z</time>
      </trkpt>
      <trkpt lat="43.53329" lon="5.57452">
        <ele>812</ele>
        <time>2023-05-28T10:28:05Z</time>
      </trkpt>
      <trkpt lat="43.53329" lon="5.57451">
        <ele>811.9</ele>
        <time>2023-05-28T10:28:06Z</time>
      </trkpt>
      <trkpt lat="43.53328" lon="5.5745">
        <ele>811.8</ele>
        <time>2023-05-28T10:28:07Z</time>
      </trkpt>
      <trkpt lat="43.53328" lon="5.5745">
        <ele>811.6</ele>
        <time>2023-05-28T10:28:08Z</time>
      </trkpt>
      <trkpt lat="43.53328" lon="5.5745">
        <ele>811.5</ele>
        <time>2023-05-28T10:28:09Z</time>
      </trkpt>
      <trkpt lat="43.53329" lon="5.57449">
        <ele>811.3</ele>
        <time>2023-05-28T10:28:10Z</time>
      </trkpt>
      <trkpt lat="43.53329" lon="5.57447">
        <ele>811.1</ele>
        <time>2023-05-28T10:28:11Z</time>
      </trkpt>
      <trkpt lat="43.53329" lon="5.57446">
        <ele>810.8</ele>
        <time>2023-05-28T10:28:12Z</time>
      </trkpt>
      <trkpt lat="43.53329" lon="5.57445">
        <ele>810.6</ele>
        <time>2023-05-28T10:28:13Z</time>
      </trkpt>
      <trkpt lat="43.5333" lon="5.57444">
        <ele>810.4</ele>
        <time>2023-05-28T10:28:14Z</time>
      </trkpt>
      <trkpt lat="43.53329" lon="5.57442">
        <ele>810.2</ele>
        <time>2023-05-28T10:28:15Z</time>
      </trkpt>
      <trkpt lat="43.53329" lon="5.57442">
        <ele>810.1</ele>
        <time>2023-05-28T10:28:16Z</time>
      </trkpt>
      <trkpt lat="43.53328" lon="5.57441">
        <ele>810</ele>
        <time>2023-05-28T10:28:17Z</time>
      </trkpt>
      <trkpt lat="43.53328" lon="5.57441">
        <ele>809.8</ele>
        <time>2023-05-28T10:28:18Z</time>
      </trkpt>
      <trkpt lat="43.53327" lon="5.5744">
        <ele>809.8</ele>
        <time>2023-05-28T10:28:19Z</time>
      </trkpt>
      <trkpt lat="43.53327" lon="5.57439">
        <ele>809.7</ele>
        <time>2023-05-28T10:28:20Z</time>
      </trkpt>
      <trkpt lat="43.53327" lon="5.57438">
        <ele>809.7</ele>
        <time>2023-05-28T10:28:21Z</time>
      </trkpt>
      <trkpt lat="43.53326" lon="5.57437">
        <ele>809.7</ele>
        <time>2023-05-28T10:28:22Z</time>
      </trkpt>
      <trkpt lat="43.53326" lon="5.57436">
        <ele>809.7</ele>
        <time>2023-05-28T10:28:23Z</time>
      </trkpt>
      <trkpt lat="43.53326" lon="5.57435">
        <ele>809.6</ele>
        <time>2023-05-28T10:28:24Z</time>
      </trkpt>
      <trkpt lat="43.53326" lon="5.57435">
        <ele>809.5</ele>
        <time>2023-05-28T10:28:25Z</time>
      </trkpt>
      <trkpt lat="43.53326" lon="5.57435">
        <ele>809.5</ele>
        <time>2023-05-28T10:28:26Z</time>
      </trkpt>
      <trkpt lat="43.53326" lon="5.57435">
        <ele>809.4</ele>
        <time>2023-05-28T10:28:27Z</time>
      </trkpt>
      <trkpt lat="43.53326" lon="5.57435">
        <ele>809.2</ele>
        <time>2023-05-28T10:28:28Z</time>
      </trkpt>
      <trkpt lat="43.53326" lon="5.57435">
        <ele>809.1</ele>
        <time>2023-05-28T10:28:29Z</time>
      </trkpt>
      <trkpt lat="43.53326" lon="5.57435">
        <ele>809</ele>
        <time>2023-05-28T10:28:30Z</time>
      </trkpt>
      <trkpt lat="43.53326" lon="5.57436">
        <ele>808.8</ele>
        <time>2023-05-28T10:28:31Z</time>
      </trkpt>
      <trkpt lat="43.53327" lon="5.57436">
        <ele>808.7</ele>
        <time>2023-05-28T10:28:32Z</time>
      </trkpt>
      <trkpt lat="43.53327" lon="5.57437">
        <ele>808.7</ele>
        <time>2023-05-28T10:28:33Z</time>
      </trkpt>
      <trkpt lat="43.53328" lon="5.57437">
        <ele>808.5</ele>
        <time>2023-05-28T10:28:34Z</time>
      </trkpt>
      <trkpt lat="43.53329" lon="5.57437">
        <ele>808.6</ele>
        <time>2023-05-28T10:28:35Z</time>
      </trkpt>
      <trkpt lat="43.53329" lon="5.57437">
        <ele>808.6</ele>
        <time>2023-05-28T10:28:36Z</time>
      </trkpt>
      <trkpt lat="43.5333" lon="5.57437">
        <ele>808.5</ele>
        <time>2023-05-28T10:28:37Z</time>
      </trkpt>
      <trkpt lat="43.5333" lon="5.57438">
        <ele>808.5</ele>
        <time>2023-05-28T10:28:38Z</time>
      </trkpt>
      <trkpt lat="43.53331" lon="5.57438">
        <ele>808.4</ele>
        <time>2023-05-28T10:28:39Z</time>
      </trkpt>
      <trkpt lat="43.53332" lon="5.57439">
        <ele>808.3</ele>
        <time>2023-05-28T10:28:40Z</time>
      </trkpt>
      <trkpt lat="43.53333" lon="5.57438">
        <ele>808.2</ele>
        <time>2023-05-28T10:28:41Z</time>
      </trkpt>
      <trkpt lat="43.53333" lon="5.57438">
        <ele>808.1</ele>
        <time>2023-05-28T10:28:42Z</time>
      </trkpt>
      <trkpt lat="43.53334" lon="5.57438">
        <ele>807.9</ele>
        <time>2023-05-28T10:28:43Z</time>
      </trkpt>
      <trkpt lat="43.53335" lon="5.57438">
        <ele>807.8</ele>
        <time>2023-05-28T10:28:44Z</time>
      </trkpt>
      <trkpt lat="43.53336" lon="5.57437">
        <ele>807.7</ele>
        <time>2023-05-28T10:28:45Z</time>
      </trkpt>
      <trkpt lat="43.53337" lon="5.57437">
        <ele>807.5</ele>
        <time>2023-05-28T10:28:46Z</time>
      </trkpt>
      <trkpt lat="43.53337" lon="5.57437">
        <ele>807.3</ele>
        <time>2023-05-28T10:28:47Z</time>
      </trkpt>
      <trkpt lat="43.53338" lon="5.57438">
        <ele>807.2</ele>
        <time>2023-05-28T10:28:48Z</time>
      </trkpt>
      <trkpt lat="43.53339" lon="5.57438">
        <ele>807.1</ele>
        <time>2023-05-28T10:28:49Z</time>
      </trkpt>
      <trkpt lat="43.53339" lon="5.57438">
        <ele>806.9</ele>
        <time>2023-05-28T10:28:50Z</time>
      </trkpt>
      <trkpt lat="43.53339" lon="5.57439">
        <ele>806.8</ele>
        <time>2023-05-28T10:28:51Z</time>
      </trkpt>
      <trkpt lat="43.53339" lon="5.57439">
        <ele>806.7</ele>
        <time>2023-05-28T10:28:52Z</time>
      </trkpt>
      <trkpt lat="43.5334" lon="5.57439">
        <ele>806.7</ele>
        <time>2023-05-28T10:28:53Z</time>
      </trkpt>
      <trkpt lat="43.5334" lon="5.57439">
        <ele>806.6</ele>
        <time>2023-05-28T10:28:54Z</time>
      </trkpt>
      <trkpt lat="43.5334" lon="5.5744">
        <ele>806.5</ele>
        <time>2023-05-28T10:28:55Z</time>
      </trkpt>
      <trkpt lat="43.53341" lon="5.57441">
        <ele>806.3</ele>
        <time>2023-05-28T10:28:56Z</time>
      </trkpt>
      <trkpt lat="43.53342" lon="5.57441">
        <ele>806.2</ele>
        <time>2023-05-28T10:28:57Z</time>
      </trkpt>
      <trkpt lat="43.53342" lon="5.5744">
        <ele>806</ele>
        <time>2023-05-28T10:28:58Z</time>
      </trkpt>
      <trkpt lat="43.53342" lon="5.5744">
        <ele>805.9</ele>
        <time>2023-05-28T10:28:59Z</time>
      </trkpt>
      <trkpt lat="43.53342" lon="5.57441">
        <ele>805.7</ele>
        <time>2023-05-28T10:29:00Z</time>
      </trkpt>
      <trkpt lat="43.53343" lon="5.57442">
        <ele>805.6</ele>
        <time>2023-05-28T10:29:01Z</time>
      </trkpt>
      <trkpt lat="43.53343" lon="5.57442">
        <ele>805.6</ele>
        <time>2023-05-28T10:29:02Z</time>
      </trkpt>
      <trkpt lat="43.53344" lon="5.57443">
        <ele>805.5</ele>
        <time>2023-05-28T10:29:03Z</time>
      </trkpt>
      <trkpt lat="43.53344" lon="5.57444">
        <ele>805.5</ele>
        <time>2023-05-28T10:29:04Z</time>
      </trkpt>
      <trkpt lat="43.53345" lon="5.57444">
        <ele>805.5</ele>
        <time>2023-05-28T10:29:05Z</time>
      </trkpt>
      <trkpt lat="43.53346" lon="5.57445">
        <ele>805.5</ele>
        <time>2023-05-28T10:29:06Z</time>
      </trkpt>
      <trkpt lat="43.53346" lon="5.57447">
        <ele>805.5</ele>
        <time>2023-05-28T10:29:07Z</time>
      </trkpt>
      <trkpt lat="43.53347" lon="5.57448">
        <ele>805.5</ele>
        <time>2023-05-28T10:29:08Z</time>
      </trkpt>
      <trkpt lat="43.53347" lon="5.57448">
        <ele>805.5</ele>
        <time>2023-05-28T10:29:09Z</time>
      </trkpt>
      <trkpt lat="43.53348" lon="5.5745">
        <ele>805.5</ele>
        <time>2023-05-28T10:29:10Z</time>
      </trkpt>
      <trkpt lat="43.53348" lon="5.57451">
        <ele>805.4</ele>
        <time>2023-05-28T10:29:11Z</time>
      </trkpt>
      <trkpt lat="43.53348" lon="5.57452">
        <ele>805.3</ele>
        <time>2023-05-28T10:29:12Z</time>
      </trkpt>
      <trkpt lat="43.53349" lon="5.57453">
        <ele>805.2</ele>
        <time>2023-05-28T10:29:13Z</time>
      </trkpt>
      <trkpt lat="43.53349" lon="5.57454">
        <ele>805.2</ele>
        <time>2023-05-28T10:29:14Z</time>
      </trkpt>
      <trkpt lat="43.5335" lon="5.57455">
        <ele>805.1</ele>
        <time>2023-05-28T10:29:15Z</time>
      </trkpt>
      <trkpt lat="43.5335" lon="5.57456">
        <ele>805</ele>
        <time>2023-05-28T10:29:16Z</time>
      </trkpt>
      <trkpt lat="43.5335" lon="5.57457">
        <ele>804.9</ele>
        <time>2023-05-28T10:29:17Z</time>
      </trkpt>
      <trkpt lat="43.53351" lon="5.57458">
        <ele>804.9</ele>
        <time>2023-05-28T10:29:18Z</time>
      </trkpt>
      <trkpt lat="43.53352" lon="5.57458">
        <ele>804.8</ele>
        <time>2023-05-28T10:29:19Z</time>
      </trkpt>
      <trkpt lat="43.53352" lon="5.57459">
        <ele>804.7</ele>
        <time>2023-05-28T10:29:20Z</time>
      </trkpt>
      <trkpt lat="43.53353" lon="5.5746">
        <ele>804.7</ele>
        <time>2023-05-28T10:29:21Z</time>
      </trkpt>
      <trkpt lat="43.53353" lon="5.57461">
        <ele>804.6</ele>
        <time>2023-05-28T10:29:22Z</time>
      </trkpt>
      <trkpt lat="43.53353" lon="5.57462">
        <ele>804.5</ele>
        <time>2023-05-28T10:29:23Z</time>
      </trkpt>
      <trkpt lat="43.53353" lon="5.57463">
        <ele>804.5</ele>
        <time>2023-05-28T10:29:24Z</time>
      </trkpt>
      <trkpt lat="43.53353" lon="5.57464">
        <ele>804.4</ele>
        <time>2023-05-28T10:29:25Z</time>
      </trkpt>
      <trkpt lat="43.53354" lon="5.57466">
        <ele>804.3</ele>
        <time>2023-05-28T10:29:26Z</time>
      </trkpt>
      <trkpt lat="43.53354" lon="5.57467">
        <ele>804.2</ele>
        <time>2023-05-28T10:29:27Z</time>
      </trkpt>
      <trkpt lat="43.53355" lon="5.57468">
        <ele>804.2</ele>
        <time>2023-05-28T10:29:28Z</time>
      </trkpt>
      <trkpt lat="43.53355" lon="5.57469">
        <ele>804.2</ele>
        <time>2023-05-28T10:29:29Z</time>
      </trkpt>
      <trkpt lat="43.53356" lon="5.5747">
        <ele>804.1</ele>
        <time>2023-05-28T10:29:30Z</time>
      </trkpt>
      <trkpt lat="43.53356" lon="5.57471">
        <ele>804.1</ele>
        <time>2023-05-28T10:29:31Z</time>
      </trkpt>
      <trkpt lat="43.53356" lon="5.57472">
        <ele>804.1</ele>
        <time>2023-05-28T10:29:32Z</time>
      </trkpt>
      <trkpt lat="43.53357" lon="5.57472">
        <ele>804.1</ele>
        <time>2023-05-28T10:29:33Z</time>
      </trkpt>
      <trkpt lat="43.53358" lon="5.57472">
        <ele>804.1</ele>
        <time>2023-05-28T10:29:34Z</time>
      </trkpt>
      <trkpt lat="43.53358" lon="5.57472">
        <ele>804.1</ele>
        <time>2023-05-28T10:29:35Z</time>
      </trkpt>
      <trkpt lat="43.53359" lon="5.57472">
        <ele>804</ele>
        <time>2023-05-28T10:29:36Z</time>
      </trkpt>
      <trkpt lat="43.53359" lon="5.57472">
        <ele>803.9</ele>
        <time>2023-05-28T10:29:37Z</time>
      </trkpt>
      <trkpt lat="43.5336" lon="5.57472">
        <ele>803.8</ele>
        <time>2023-05-28T10:29:38Z</time>
      </trkpt>
      <trkpt lat="43.5336" lon="5.57471">
        <ele>803.7</ele>
        <time>2023-05-28T10:29:39Z</time>
      </trkpt>
      <trkpt lat="43.5336" lon="5.57471">
        <ele>803.7</ele>
        <time>2023-05-28T10:29:40Z</time>
      </trkpt>
      <trkpt lat="43.5336" lon="5.5747">
        <ele>803.6</ele>
        <time>2023-05-28T10:29:41Z</time>
      </trkpt>
      <trkpt lat="43.5336" lon="5.57469">
        <ele>803.5</ele>
        <time>2023-05-28T10:29:42Z</time>
      </trkpt>
      <trkpt lat="43.53361" lon="5.57469">
        <ele>803.4</ele>
        <time>2023-05-28T10:29:43Z</time>
      </trkpt>
      <trkpt lat="43.53361" lon="5.57469">
        <ele>803.3</ele>
        <time>2023-05-28T10:29:44Z</time>
      </trkpt>
      <trkpt lat="43.53362" lon="5.57468">
        <ele>803.2</ele>
        <time>2023-05-28T10:29:45Z</time>
      </trkpt>
      <trkpt lat="43.53363" lon="5.57467">
        <ele>803.1</ele>
        <time>2023-05-28T10:29:46Z</time>
      </trkpt>
      <trkpt lat="43.53363" lon="5.57467">
        <ele>803</ele>
        <time>2023-05-28T10:29:47Z</time>
      </trkpt>
      <trkpt lat="43.53363" lon="5.57466">
        <ele>802.9</ele>
        <time>2023-05-28T10:29:48Z</time>
      </trkpt>
      <trkpt lat="43.53364" lon="5.57465">
        <ele>802.7</ele>
        <time>2023-05-28T10:29:49Z</time>
      </trkpt>
      <trkpt lat="43.53364" lon="5.57463">
        <ele>802.5</ele>
        <time>2023-05-28T10:29:50Z</time>
      </trkpt>
      <trkpt lat="43.53363" lon="5.57462">
        <ele>802.3</ele>
        <time>2023-05-28T10:29:51Z</time>
      </trkpt>
      <trkpt lat="43.53363" lon="5.57462">
        <ele>802.3</ele>
        <time>2023-05-28T10:29:52Z</time>
      </trkpt>
      <trkpt lat="43.53363" lon="5.57461">
        <ele>802.2</ele>
        <time>2023-05-28T10:29:53Z</time>
      </trkpt>
      <trkpt lat="43.53363" lon="5.57461">
        <ele>802.1</ele>
        <time>2023-05-28T10:29:54Z</time>
      </trkpt>
      <trkpt lat="43.53363" lon="5.5746">
        <ele>802</ele>
        <time>2023-05-28T10:29:55Z</time>
      </trkpt>
      <trkpt lat="43.53363" lon="5.57459">
        <ele>801.8</ele>
        <time>2023-05-28T10:29:56Z</time>
      </trkpt>
      <trkpt lat="43.53363" lon="5.57459">
        <ele>801.6</ele>
        <time>2023-05-28T10:29:57Z</time>
      </trkpt>
      <trkpt lat="43.53362" lon="5.57458">
        <ele>801.5</ele>
        <time>2023-05-28T10:29:58Z</time>
      </trkpt>
      <trkpt lat="43.53362" lon="5.57457">
        <ele>801.5</ele>
        <time>2023-05-28T10:29:59Z</time>
      </trkpt>
      <trkpt lat="43.53361" lon="5.57456">
        <ele>801.4</ele>
        <time>2023-05-28T10:30:00Z</time>
      </trkpt>
      <trkpt lat="43.53361" lon="5.57455">
        <ele>801.3</ele>
        <time>2023-05-28T10:30:01Z</time>
      </trkpt>
      <trkpt lat="43.53361" lon="5.57454">
        <ele>801.2</ele>
        <time>2023-05-28T10:30:02Z</time>
      </trkpt>
      <trkpt lat="43.5336" lon="5.57453">
        <ele>801.1</ele>
        <time>2023-05-28T10:30:03Z</time>
      </trkpt>
      <trkpt lat="43.5336" lon="5.57452">
        <ele>801</ele>
        <time>2023-05-28T10:30:04Z</time>
      </trkpt>
      <trkpt lat="43.5336" lon="5.57451">
        <ele>800.9</ele>
        <time>2023-05-28T10:30:05Z</time>
      </trkpt>
      <trkpt lat="43.5336" lon="5.5745">
        <ele>800.8</ele>
        <time>2023-05-28T10:30:06Z</time>
      </trkpt>
      <trkpt lat="43.5336" lon="5.5745">
        <ele>800.7</ele>
        <time>2023-05-28T10:30:07Z</time>
      </trkpt>
      <trkpt lat="43.5336" lon="5.57449">
        <ele>800.6</ele>
        <time>2023-05-28T10:30:08Z</time>
      </trkpt>
      <trkpt lat="43.5336" lon="5.57449">
        <ele>800.4</ele>
        <time>2023-05-28T10:30:09Z</time>
      </trkpt>
      <trkpt lat="43.5336" lon="5.57449">
        <ele>800.3</ele>
        <time>2023-05-28T10:30:10Z</time>
      </trkpt>
      <trkpt lat="43.5336" lon="5.57448">
        <ele>800.1</ele>
        <time>2023-05-28T10:30:11Z</time>
      </trkpt>
      <trkpt lat="43.5336" lon="5.57448">
        <ele>800</ele>
        <time>2023-05-28T10:30:12Z</time>
      </trkpt>
      <trkpt lat="43.53361" lon="5.57448">
        <ele>799.8</ele>
        <time>2023-05-28T10:30:13Z</time>
      </trkpt>
      <trkpt lat="43.53361" lon="5.57448">
        <ele>799.7</ele>
        <time>2023-05-28T10:30:14Z</time>
      </trkpt>
      <trkpt lat="43.53362" lon="5.57447">
        <ele>799.5</ele>
        <time>2023-05-28T10:30:15Z</time>
      </trkpt>
      <trkpt lat="43.53362" lon="5.57448">
        <ele>799.4</ele>
        <time>2023-05-28T10:30:16Z</time>
      </trkpt>
      <trkpt lat="43.53363" lon="5.57447">
        <ele>799.3</ele>
        <time>2023-05-28T10:30:17Z</time>
      </trkpt>
      <trkpt lat="43.53363" lon="5.57447">
        <ele>799.3</ele>
        <time>2023-05-28T10:30:18Z</time>
      </trkpt>
      <trkpt lat="43.53363" lon="5.57447">
        <ele>799.2</ele>
        <time>2023-05-28T10:30:19Z</time>
      </trkpt>
      <trkpt lat="43.53363" lon="5.57446">
        <ele>799.1</ele>
        <time>2023-05-28T10:30:20Z</time>
      </trkpt>
      <trkpt lat="43.53363" lon="5.57446">
        <ele>799</ele>
        <time>2023-05-28T10:30:21Z</time>
      </trkpt>
      <trkpt lat="43.53363" lon="5.57446">
        <ele>798.9</ele>
        <time>2023-05-28T10:30:22Z</time>
      </trkpt>
      <trkpt lat="43.53363" lon="5.57446">
        <ele>798.6</ele>
        <time>2023-05-28T10:30:23Z</time>
      </trkpt>
      <trkpt lat="43.53363" lon="5.57446">
        <ele>798.5</ele>
        <time>2023-05-28T10:30:24Z</time>
      </trkpt>
      <trkpt lat="43.53363" lon="5.57446">
        <ele>798.4</ele>
        <time>2023-05-28T10:30:25Z</time>
      </trkpt>
      <trkpt lat="43.53363" lon="5.57445">
        <ele>798.3</ele>
        <time>2023-05-28T10:30:26Z</time>
      </trkpt>
      <trkpt lat="43.53363" lon="5.57445">
        <ele>798.1</ele>
        <time>2023-05-28T10:30:27Z</time>
      </trkpt>
      <trkpt lat="43.53363" lon="5.57445">
        <ele>798</ele>
        <time>2023-05-28T10:30:28Z</time>
      </trkpt>
      <trkpt lat="43.53363" lon="5.57445">
        <ele>797.9</ele>
        <time>2023-05-28T10:30:29Z</time>
      </trkpt>
      <trkpt lat="43.53364" lon="5.57445">
        <ele>797.8</ele>
        <time>2023-05-28T10:30:30Z</time>
      </trkpt>
      <trkpt lat="43.53364" lon="5.57444">
        <ele>797.6</ele>
        <time>2023-05-28T10:30:31Z</time>
      </trkpt>
      <trkpt lat="43.53363" lon="5.57444">
        <ele>797.6</ele>
        <time>2023-05-28T10:30:32Z</time>
      </trkpt>
      <trkpt lat="43.53363" lon="5.57443">
        <ele>797.6</ele>
        <time>2023-05-28T10:30:33Z</time>
      </trkpt>
      <trkpt lat="43.53363" lon="5.57443">
        <ele>797.4</ele>
        <time>2023-05-28T10:30:34Z</time>
      </trkpt>
      <trkpt lat="43.53363" lon="5.57443">
        <ele>797.3</ele>
        <time>2023-05-28T10:30:35Z</time>
      </trkpt>
      <trkpt lat="43.53363" lon="5.57443">
        <ele>797.2</ele>
        <time>2023-05-28T10:30:36Z</time>
      </trkpt>
      <trkpt lat="43.53363" lon="5.57443">
        <ele>797.1</ele>
        <time>2023-05-28T10:30:37Z</time>
      </trkpt>
      <trkpt lat="43.53364" lon="5.57442">
        <ele>797</ele>
        <time>2023-05-28T10:30:38Z</time>
      </trkpt>
      <trkpt lat="43.53364" lon="5.57442">
        <ele>796.9</ele>
        <time>2023-05-28T10:30:39Z</time>
      </trkpt>
      <trkpt lat="43.53364" lon="5.57441">
        <ele>796.8</ele>
        <time>2023-05-28T10:30:40Z</time>
      </trkpt>
      <trkpt lat="43.53365" lon="5.57441">
        <ele>796.7</ele>
        <time>2023-05-28T10:30:41Z</time>
      </trkpt>
      <trkpt lat="43.53365" lon="5.5744">
        <ele>796.6</ele>
        <time>2023-05-28T10:30:42Z</time>
      </trkpt>
      <trkpt lat="43.53366" lon="5.5744">
        <ele>796.5</ele>
        <time>2023-05-28T10:30:43Z</time>
      </trkpt>
      <trkpt lat="43.53366" lon="5.57439">
        <ele>796.4</ele>
        <time>2023-05-28T10:30:44Z</time>
      </trkpt>
      <trkpt lat="43.53366" lon="5.57439">
        <ele>796.3</ele>
        <time>2023-05-28T10:30:45Z</time>
      </trkpt>
      <trkpt lat="43.53367" lon="5.57439">
        <ele>796.2</ele>
        <time>2023-05-28T10:30:46Z</time>
      </trkpt>
      <trkpt lat="43.53367" lon="5.57438">
        <ele>796.1</ele>
        <time>2023-05-28T10:30:47Z</time>
      </trkpt>
      <trkpt lat="43.53367" lon="5.57437">
        <ele>795.8</ele>
        <time>2023-05-28T10:30:48Z</time>
      </trkpt>
      <trkpt lat="43.53368" lon="5.57437">
        <ele>795.6</ele>
        <time>2023-05-28T10:30:49Z</time>
      </trkpt>
      <trkpt lat="43.53368" lon="5.57436">
        <ele>795.4</ele>
        <time>2023-05-28T10:30:50Z</time>
      </trkpt>
      <trkpt lat="43.53368" lon="5.57436">
        <ele>795.2</ele>
        <time>2023-05-28T10:30:51Z</time>
      </trkpt>
      <trkpt lat="43.53368" lon="5.57435">
        <ele>795</ele>
        <time>2023-05-28T10:30:52Z</time>
      </trkpt>
      <trkpt lat="43.53368" lon="5.57434">
        <ele>794.9</ele>
        <time>2023-05-28T10:30:53Z</time>
      </trkpt>
      <trkpt lat="43.53368" lon="5.57434">
        <ele>794.6</ele>
        <time>2023-05-28T10:30:54Z</time>
      </trkpt>
      <trkpt lat="43.53369" lon="5.57433">
        <ele>794.5</ele>
        <time>2023-05-28T10:30:55Z</time>
      </trkpt>
      <trkpt lat="43.53369" lon="5.57433">
        <ele>794.3</ele>
        <time>2023-05-28T10:30:56Z</time>
      </trkpt>
      <trkpt lat="43.5337" lon="5.57432">
        <ele>794.1</ele>
        <time>2023-05-28T10:30:57Z</time>
      </trkpt>
      <trkpt lat="43.5337" lon="5.57432">
        <ele>793.9</ele>
        <time>2023-05-28T10:30:58Z</time>
      </trkpt>
      <trkpt lat="43.5337" lon="5.57431">
        <ele>793.8</ele>
        <time>2023-05-28T10:30:59Z</time>
      </trkpt>
      <trkpt lat="43.53371" lon="5.57431">
        <ele>793.7</ele>
        <time>2023-05-28T10:31:00Z</time>
      </trkpt>
      <trkpt lat="43.53371" lon="5.5743">
        <ele>793.5</ele>
        <time>2023-05-28T10:31:01Z</time>
      </trkpt>
      <trkpt lat="43.53372" lon="5.5743">
        <ele>793.4</ele>
        <time>2023-05-28T10:31:02Z</time>
      </trkpt>
      <trkpt lat="43.53372" lon="5.57429">
        <ele>793.2</ele>
        <time>2023-05-28T10:31:03Z</time>
      </trkpt>
      <trkpt lat="43.53372" lon="5.57429">
        <ele>793</ele>
        <time>2023-05-28T10:31:04Z</time>
      </trkpt>
      <trkpt lat="43.53373" lon="5.57428">
        <ele>793</ele>
        <time>2023-05-28T10:31:05Z</time>
      </trkpt>
      <trkpt lat="43.53373" lon="5.57428">
        <ele>792.9</ele>
        <time>2023-05-28T10:31:06Z</time>
      </trkpt>
      <trkpt lat="43.53373" lon="5.57427">
        <ele>792.7</ele>
        <time>2023-05-28T10:31:07Z</time>
      </trkpt>
      <trkpt lat="43.53374" lon="5.57426">
        <ele>792.5</ele>
        <time>2023-05-28T10:31:08Z</time>
      </trkpt>
      <trkpt lat="43.53374" lon="5.57425">
        <ele>792.4</ele>
        <time>2023-05-28T10:31:09Z</time>
      </trkpt>
      <trkpt lat="43.53374" lon="5.57425">
        <ele>792.1</ele>
        <time>2023-05-28T10:31:10Z</time>
      </trkpt>
      <trkpt lat="43.53375" lon="5.57425">
        <ele>792</ele>
        <time>2023-05-28T10:31:11Z</time>
      </trkpt>
      <trkpt lat="43.53375" lon="5.57424">
        <ele>791.9</ele>
        <time>2023-05-28T10:31:12Z</time>
      </trkpt>
      <trkpt lat="43.53375" lon="5.57424">
        <ele>791.7</ele>
        <time>2023-05-28T10:31:13Z</time>
      </trkpt>
      <trkpt lat="43.53376" lon="5.57424">
        <ele>791.6</ele>
        <time>2023-05-28T10:31:14Z</time>
      </trkpt>
      <trkpt lat="43.53376" lon="5.57424">
        <ele>791.4</ele>
        <time>2023-05-28T10:31:15Z</time>
      </trkpt>
      <trkpt lat="43.53376" lon="5.57423">
        <ele>791.2</ele>
        <time>2023-05-28T10:31:16Z</time>
      </trkpt>
      <trkpt lat="43.53377" lon="5.57422">
        <ele>791.1</ele>
        <time>2023-05-28T10:31:17Z</time>
      </trkpt>
      <trkpt lat="43.53377" lon="5.57421">
        <ele>791</ele>
        <time>2023-05-28T10:31:18Z</time>
      </trkpt>
      <trkpt lat="43.53377" lon="5.5742">
        <ele>790.9</ele>
        <time>2023-05-28T10:31:19Z</time>
      </trkpt>
      <trkpt lat="43.53377" lon="5.5742">
        <ele>790.8</ele>
        <time>2023-05-28T10:31:20Z</time>
      </trkpt>
      <trkpt lat="43.53378" lon="5.57419">
        <ele>790.7</ele>
        <time>2023-05-28T10:31:21Z</time>
      </trkpt>
      <trkpt lat="43.53378" lon="5.57419">
        <ele>790.5</ele>
        <time>2023-05-28T10:31:22Z</time>
      </trkpt>
      <trkpt lat="43.53378" lon="5.57418">
        <ele>790.4</ele>
        <time>2023-05-28T10:31:23Z</time>
      </trkpt>
      <trkpt lat="43.53378" lon="5.57418">
        <ele>790.3</ele>
        <time>2023-05-28T10:31:24Z</time>
      </trkpt>
      <trkpt lat="43.53378" lon="5.57417">
        <ele>790.2</ele>
        <time>2023-05-28T10:31:25Z</time>
      </trkpt>
      <trkpt lat="43.53378" lon="5.57416">
        <ele>790.1</ele>
        <time>2023-05-28T10:31:26Z</time>
      </trkpt>
      <trkpt lat="43.53379" lon="5.57415">
        <ele>790</ele>
        <time>2023-05-28T10:31:27Z</time>
      </trkpt>
      <trkpt lat="43.5338" lon="5.57415">
        <ele>789.9</ele>
        <time>2023-05-28T10:31:28Z</time>
      </trkpt>
      <trkpt lat="43.5338" lon="5.57414">
        <ele>789.8</ele>
        <time>2023-05-28T10:31:29Z</time>
      </trkpt>
      <trkpt lat="43.5338" lon="5.57414">
        <ele>789.7</ele>
        <time>2023-05-28T10:31:30Z</time>
      </trkpt>
      <trkpt lat="43.53381" lon="5.57413">
        <ele>789.7</ele>
        <time>2023-05-28T10:31:31Z</time>
      </trkpt>
      <trkpt lat="43.53381" lon="5.57412">
        <ele>789.5</ele>
        <time>2023-05-28T10:31:32Z</time>
      </trkpt>
      <trkpt lat="43.53382" lon="5.57412">
        <ele>789.4</ele>
        <time>2023-05-28T10:31:33Z</time>
      </trkpt>
      <trkpt lat="43.53382" lon="5.57411">
        <ele>789.3</ele>
        <time>2023-05-28T10:31:34Z</time>
      </trkpt>
      <trkpt lat="43.53383" lon="5.57411">
        <ele>789.2</ele>
        <time>2023-05-28T10:31:35Z</time>
      </trkpt>
      <trkpt lat="43.53383" lon="5.57411">
        <ele>789.1</ele>
        <time>2023-05-28T10:31:36Z</time>
      </trkpt>
      <trkpt lat="43.53383" lon="5.57411">
        <ele>789</ele>
        <time>2023-05-28T10:31:37Z</time>
      </trkpt>
      <trkpt lat="43.53384" lon="5.57411">
        <ele>789</ele>
        <time>2023-05-28T10:31:38Z</time>
      </trkpt>
      <trkpt lat="43.53384" lon="5.5741">
        <ele>788.9</ele>
        <time>2023-05-28T10:31:39Z</time>
      </trkpt>
      <trkpt lat="43.53384" lon="5.5741">
        <ele>788.8</ele>
        <time>2023-05-28T10:31:40Z</time>
      </trkpt>
      <trkpt lat="43.53384" lon="5.57409">
        <ele>788.6</ele>
        <time>2023-05-28T10:31:41Z</time>
      </trkpt>
      <trkpt lat="43.53384" lon="5.57409">
        <ele>788.4</ele>
        <time>2023-05-28T10:31:42Z</time>
      </trkpt>
      <trkpt lat="43.53385" lon="5.57408">
        <ele>788.2</ele>
        <time>2023-05-28T10:31:43Z</time>
      </trkpt>
      <trkpt lat="43.53385" lon="5.57408">
        <ele>788.1</ele>
        <time>2023-05-28T10:31:44Z</time>
      </trkpt>
      <trkpt lat="43.53384" lon="5.57407">
        <ele>788</ele>
        <time>2023-05-28T10:31:45Z</time>
      </trkpt>
      <trkpt lat="43.53384" lon="5.57406">
        <ele>787.8</ele>
        <time>2023-05-28T10:31:46Z</time>
      </trkpt>
      <trkpt lat="43.53384" lon="5.57406">
        <ele>787.7</ele>
        <time>2023-05-28T10:31:47Z</time>
      </trkpt>
      <trkpt lat="43.53384" lon="5.57405">
        <ele>787.7</ele>
        <time>2023-05-28T10:31:48Z</time>
      </trkpt>
      <trkpt lat="43.53384" lon="5.57405">
        <ele>787.5</ele>
        <time>2023-05-28T10:31:49Z</time>
      </trkpt>
      <trkpt lat="43.53384" lon="5.57404">
        <ele>787.3</ele>
        <time>2023-05-28T10:31:50Z</time>
      </trkpt>
      <trkpt lat="43.53384" lon="5.57403">
        <ele>787.1</ele>
        <time>2023-05-28T10:31:51Z</time>
      </trkpt>
      <trkpt lat="43.53384" lon="5.57402">
        <ele>786.9</ele>
        <time>2023-05-28T10:31:52Z</time>
      </trkpt>
      <trkpt lat="43.53384" lon="5.57401">
        <ele>786.9</ele>
        <time>2023-05-28T10:31:53Z</time>
      </trkpt>
      <trkpt lat="43.53385" lon="5.57401">
        <ele>786.8</ele>
        <time>2023-05-28T10:31:54Z</time>
      </trkpt>
      <trkpt lat="43.53385" lon="5.574">
        <ele>786.8</ele>
        <time>2023-05-28T10:31:55Z</time>
      </trkpt>
      <trkpt lat="43.53385" lon="5.57399">
        <ele>786.8</ele>
        <time>2023-05-28T10:31:56Z</time>
      </trkpt>
      <trkpt lat="43.53384" lon="5.57399">
        <ele>786.7</ele>
        <time>2023-05-28T10:31:57Z</time>
      </trkpt>
      <trkpt lat="43.53385" lon="5.57398">
        <ele>786.5</ele>
        <time>2023-05-28T10:31:58Z</time>
      </trkpt>
      <trkpt lat="43.53385" lon="5.57397">
        <ele>786.4</ele>
        <time>2023-05-28T10:31:59Z</time>
      </trkpt>
      <trkpt lat="43.53385" lon="5.57397">
        <ele>786.2</ele>
        <time>2023-05-28T10:32:00Z</time>
      </trkpt>
      <trkpt lat="43.53385" lon="5.57396">
        <ele>786</ele>
        <time>2023-05-28T10:32:01Z</time>
      </trkpt>
      <trkpt lat="43.53386" lon="5.57396">
        <ele>785.8</ele>
        <time>2023-05-28T10:32:02Z</time>
      </trkpt>
      <trkpt lat="43.53386" lon="5.57396">
        <ele>785.6</ele>
        <time>2023-05-28T10:32:03Z</time>
      </trkpt>
      <trkpt lat="43.53387" lon="5.57396">
        <ele>785.4</ele>
        <time>2023-05-28T10:32:04Z</time>
      </trkpt>
      <trkpt lat="43.53387" lon="5.57395">
        <ele>785.2</ele>
        <time>2023-05-28T10:32:05Z</time>
      </trkpt>
      <trkpt lat="43.53388" lon="5.57395">
        <ele>785</ele>
        <time>2023-05-28T10:32:06Z</time>
      </trkpt>
      <trkpt lat="43.53388" lon="5.57394">
        <ele>784.8</ele>
        <time>2023-05-28T10:32:07Z</time>
      </trkpt>
      <trkpt lat="43.53388" lon="5.57394">
        <ele>784.7</ele>
        <time>2023-05-28T10:32:08Z</time>
      </trkpt>
      <trkpt lat="43.53389" lon="5.57393">
        <ele>784.7</ele>
        <time>2023-05-28T10:32:09Z</time>
      </trkpt>
      <trkpt lat="43.5339" lon="5.57393">
        <ele>784.5</ele>
        <time>2023-05-28T10:32:10Z</time>
      </trkpt>
      <trkpt lat="43.53391" lon="5.57393">
        <ele>784.4</ele>
        <time>2023-05-28T10:32:11Z</time>
      </trkpt>
      <trkpt lat="43.53391" lon="5.57392">
        <ele>784.2</ele>
        <time>2023-05-28T10:32:12Z</time>
      </trkpt>
      <trkpt lat="43.53391" lon="5.57391">
        <ele>784.2</ele>
        <time>2023-05-28T10:32:13Z</time>
      </trkpt>
      <trkpt lat="43.53392" lon="5.57391">
        <ele>784.1</ele>
        <time>2023-05-28T10:32:14Z</time>
      </trkpt>
      <trkpt lat="43.53392" lon="5.5739">
        <ele>784.1</ele>
        <time>2023-05-28T10:32:15Z</time>
      </trkpt>
      <trkpt lat="43.53393" lon="5.5739">
        <ele>783.9</ele>
        <time>2023-05-28T10:32:16Z</time>
      </trkpt>
      <trkpt lat="43.53393" lon="5.57389">
        <ele>783.9</ele>
        <time>2023-05-28T10:32:17Z</time>
      </trkpt>
      <trkpt lat="43.53393" lon="5.57388">
        <ele>783.7</ele>
        <time>2023-05-28T10:32:18Z</time>
      </trkpt>
      <trkpt lat="43.53394" lon="5.57387">
        <ele>783.6</ele>
        <time>2023-05-28T10:32:19Z</time>
      </trkpt>
      <trkpt lat="43.53394" lon="5.57387">
        <ele>783.3</ele>
        <time>2023-05-28T10:32:20Z</time>
      </trkpt>
      <trkpt lat="43.53394" lon="5.57386">
        <ele>783</ele>
        <time>2023-05-28T10:32:21Z</time>
      </trkpt>
      <trkpt lat="43.53394" lon="5.57385">
        <ele>782.8</ele>
        <time>2023-05-28T10:32:22Z</time>
      </trkpt>
      <trkpt lat="43.53395" lon="5.57384">
        <ele>782.5</ele>
        <time>2023-05-28T10:32:23Z</time>
      </trkpt>
      <trkpt lat="43.53395" lon="5.57383">
        <ele>782.2</ele>
        <time>2023-05-28T10:32:24Z</time>
      </trkpt>
      <trkpt lat="43.53395" lon="5.57382">
        <ele>781.9</ele>
        <time>2023-05-28T10:32:25Z</time>
      </trkpt>
      <trkpt lat="43.53395" lon="5.57381">
        <ele>781.6</ele>
        <time>2023-05-28T10:32:26Z</time>
      </trkpt>
      <trkpt lat="43.53395" lon="5.57381">
        <ele>781.3</ele>
        <time>2023-05-28T10:32:27Z</time>
      </trkpt>
      <trkpt lat="43.53395" lon="5.5738">
        <ele>781</ele>
        <time>2023-05-28T10:32:28Z</time>
      </trkpt>
      <trkpt lat="43.53395" lon="5.57379">
        <ele>780.9</ele>
        <time>2023-05-28T10:32:29Z</time>
      </trkpt>
      <trkpt lat="43.53395" lon="5.57378">
        <ele>780.7</ele>
        <time>2023-05-28T10:32:30Z</time>
      </trkpt>
      <trkpt lat="43.53395" lon="5.57377">
        <ele>780.4</ele>
        <time>2023-05-28T10:32:31Z</time>
      </trkpt>
      <trkpt lat="43.53395" lon="5.57377">
        <ele>780.1</ele>
        <time>2023-05-28T10:32:32Z</time>
      </trkpt>
      <trkpt lat="43.53394" lon="5.57376">
        <ele>779.9</ele>
        <time>2023-05-28T10:32:33Z</time>
      </trkpt>
      <trkpt lat="43.53394" lon="5.57376">
        <ele>779.8</ele>
        <time>2023-05-28T10:32:34Z</time>
      </trkpt>
      <trkpt lat="43.53394" lon="5.57375">
        <ele>779.6</ele>
        <time>2023-05-28T10:32:35Z</time>
      </trkpt>
      <trkpt lat="43.53395" lon="5.57375">
        <ele>779.5</ele>
        <time>2023-05-28T10:32:36Z</time>
      </trkpt>
      <trkpt lat="43.53396" lon="5.57374">
        <ele>779.4</ele>
        <time>2023-05-28T10:32:37Z</time>
      </trkpt>
      <trkpt lat="43.53396" lon="5.57373">
        <ele>779.3</ele>
        <time>2023-05-28T10:32:38Z</time>
      </trkpt>
      <trkpt lat="43.53396" lon="5.57372">
        <ele>778.9</ele>
        <time>2023-05-28T10:32:39Z</time>
      </trkpt>
      <trkpt lat="43.53396" lon="5.57371">
        <ele>778.8</ele>
        <time>2023-05-28T10:32:40Z</time>
      </trkpt>
      <trkpt lat="43.53396" lon="5.57371">
        <ele>778.6</ele>
        <time>2023-05-28T10:32:41Z</time>
      </trkpt>
      <trkpt lat="43.53397" lon="5.57371">
        <ele>778.4</ele>
        <time>2023-05-28T10:32:42Z</time>
      </trkpt>
      <trkpt lat="43.53397" lon="5.5737">
        <ele>778.1</ele>
        <time>2023-05-28T10:32:43Z</time>
      </trkpt>
      <trkpt lat="43.53398" lon="5.5737">
        <ele>777.8</ele>
        <time>2023-05-28T10:32:44Z</time>
      </trkpt>
      <trkpt lat="43.53397" lon="5.5737">
        <ele>777.6</ele>
        <time>2023-05-28T10:32:45Z</time>
      </trkpt>
      <trkpt lat="43.53397" lon="5.5737">
        <ele>777.4</ele>
        <time>2023-05-28T10:32:46Z</time>
      </trkpt>
      <trkpt lat="43.53398" lon="5.5737">
        <ele>777.3</ele>
        <time>2023-05-28T10:32:47Z</time>
      </trkpt>
      <trkpt lat="43.53398" lon="5.5737">
        <ele>777.2</ele>
        <time>2023-05-28T10:32:48Z</time>
      </trkpt>
      <trkpt lat="43.53398" lon="5.57369">
        <ele>777.2</ele>
        <time>2023-05-28T10:32:49Z</time>
      </trkpt>
      <trkpt lat="43.53398" lon="5.57368">
        <ele>777.1</ele>
        <time>2023-05-28T10:32:50Z</time>
      </trkpt>
      <trkpt lat="43.53398" lon="5.57368">
        <ele>776.9</ele>
        <time>2023-05-28T10:32:51Z</time>
      </trkpt>
      <trkpt lat="43.53398" lon="5.57368">
        <ele>776.8</ele>
        <time>2023-05-28T10:32:52Z</time>
      </trkpt>
      <trkpt lat="43.53398" lon="5.57368">
        <ele>776.8</ele>
        <time>2023-05-28T10:32:53Z</time>
      </trkpt>
      <trkpt lat="43.53398" lon="5.57368">
        <ele>776.7</ele>
        <time>2023-05-28T10:32:54Z</time>
      </trkpt>
      <trkpt lat="43.53398" lon="5.57367">
        <ele>776.6</ele>
        <time>2023-05-28T10:32:55Z</time>
      </trkpt>
      <trkpt lat="43.53399" lon="5.57367">
        <ele>776.4</ele>
        <time>2023-05-28T10:32:56Z</time>
      </trkpt>
      <trkpt lat="43.53399" lon="5.57366">
        <ele>776.3</ele>
        <time>2023-05-28T10:32:57Z</time>
      </trkpt>
      <trkpt lat="43.53399" lon="5.57366">
        <ele>776.2</ele>
        <time>2023-05-28T10:32:58Z</time>
      </trkpt>
      <trkpt lat="43.53399" lon="5.57365">
        <ele>776</ele>
        <time>2023-05-28T10:32:59Z</time>
      </trkpt>
      <trkpt lat="43.53399" lon="5.57365">
        <ele>775.9</ele>
        <time>2023-05-28T10:33:00Z</time>
      </trkpt>
      <trkpt lat="43.53399" lon="5.57364">
        <ele>775.8</ele>
        <time>2023-05-28T10:33:01Z</time>
      </trkpt>
      <trkpt lat="43.534" lon="5.57364">
        <ele>775.6</ele>
        <time>2023-05-28T10:33:02Z</time>
      </trkpt>
      <trkpt lat="43.534" lon="5.57363">
        <ele>775.5</ele>
        <time>2023-05-28T10:33:03Z</time>
      </trkpt>
      <trkpt lat="43.53401" lon="5.57363">
        <ele>775.4</ele>
        <time>2023-05-28T10:33:04Z</time>
      </trkpt>
      <trkpt lat="43.53401" lon="5.57363">
        <ele>775.3</ele>
        <time>2023-05-28T10:33:05Z</time>
      </trkpt>
      <trkpt lat="43.53401" lon="5.57363">
        <ele>775.1</ele>
        <time>2023-05-28T10:33:06Z</time>
      </trkpt>
      <trkpt lat="43.53401" lon="5.57363">
        <ele>775</ele>
        <time>2023-05-28T10:33:07Z</time>
      </trkpt>
      <trkpt lat="43.53401" lon="5.57362">
        <ele>774.9</ele>
        <time>2023-05-28T10:33:08Z</time>
      </trkpt>
      <trkpt lat="43.53401" lon="5.57363">
        <ele>774.8</ele>
        <time>2023-05-28T10:33:09Z</time>
      </trkpt>
      <trkpt lat="43.53401" lon="5.57363">
        <ele>774.7</ele>
        <time>2023-05-28T10:33:10Z</time>
      </trkpt>
      <trkpt lat="43.53401" lon="5.57363">
        <ele>774.6</ele>
        <time>2023-05-28T10:33:11Z</time>
      </trkpt>
      <trkpt lat="43.53401" lon="5.57362">
        <ele>774.6</ele>
        <time>2023-05-28T10:33:12Z</time>
      </trkpt>
      <trkpt lat="43.53401" lon="5.57362">
        <ele>774.5</ele>
        <time>2023-05-28T10:33:13Z</time>
      </trkpt>
      <trkpt lat="43.53401" lon="5.57363">
        <ele>774.5</ele>
        <time>2023-05-28T10:33:14Z</time>
      </trkpt>
      <trkpt lat="43.53401" lon="5.57363">
        <ele>774.5</ele>
        <time>2023-05-28T10:33:15Z</time>
      </trkpt>
      <trkpt lat="43.53401" lon="5.57363">
        <ele>774.5</ele>
        <time>2023-05-28T10:33:16Z</time>
      </trkpt>
      <trkpt lat="43.53401" lon="5.57363">
        <ele>774.5</ele>
        <time>2023-05-28T10:33:17Z</time>
      </trkpt>
      <trkpt lat="43.53401" lon="5.57363">
        <ele>774.5</ele>
        <time>2023-05-28T10:33:18Z</time>
      </trkpt>
      <trkpt lat="43.53401" lon="5.57363">
        <ele>774.5</ele>
        <time>2023-05-28T10:33:19Z</time>
      </trkpt>
      <trkpt lat="43.53401" lon="5.57363">
        <ele>774.6</ele>
        <time>2023-05-28T10:33:20Z</time>
      </trkpt>
      <trkpt lat="43.53401" lon="5.57363">
        <ele>774.6</ele>
        <time>2023-05-28T10:33:21Z</time>
      </trkpt>
      <trkpt lat="43.53401" lon="5.57363">
        <ele>774.6</ele>
        <time>2023-05-28T10:33:22Z</time>
      </trkpt>
      <trkpt lat="43.53401" lon="5.57363">
        <ele>774.5</ele>
        <time>2023-05-28T10:33:23Z</time>
      </trkpt>
      <trkpt lat="43.53401" lon="5.57363">
        <ele>774.4</ele>
        <time>2023-05-28T10:33:24Z</time>
      </trkpt>
      <trkpt lat="43.53401" lon="5.57363">
        <ele>774.4</ele>
        <time>2023-05-28T10:33:25Z</time>
      </trkpt>
      <trkpt lat="43.53401" lon="5.57363">
        <ele>774.3</ele>
        <time>2023-05-28T10:33:26Z</time>
      </trkpt>
      <trkpt lat="43.53402" lon="5.57363">
        <ele>774.4</ele>
        <time>2023-05-28T10:33:27Z</time>
      </trkpt>
      <trkpt lat="43.53402" lon="5.57363">
        <ele>774.4</ele>
        <time>2023-05-28T10:33:28Z</time>
      </trkpt>
      <trkpt lat="43.53402" lon="5.57363">
        <ele>774.5</ele>
        <time>2023-05-28T10:33:29Z</time>
      </trkpt>
      <trkpt lat="43.53402" lon="5.57363">
        <ele>774.5</ele>
        <time>2023-05-28T10:33:30Z</time>
      </trkpt>
      <trkpt lat="43.53402" lon="5.57363">
        <ele>774.5</ele>
        <time>2023-05-28T10:33:31Z</time>
      </trkpt>
      <trkpt lat="43.53402" lon="5.57363">
        <ele>774.6</ele>
        <time>2023-05-28T10:33:32Z</time>
      </trkpt>
      <trkpt lat="43.53402" lon="5.57363">
        <ele>774.7</ele>
        <time>2023-05-28T10:33:33Z</time>
      </trkpt>
      <trkpt lat="43.53403" lon="5.57362">
        <ele>774.5</ele>
        <time>2023-05-28T10:33:34Z</time>
      </trkpt>
      <trkpt lat="43.53403" lon="5.57361">
        <ele>774.4</ele>
        <time>2023-05-28T10:33:35Z</time>
      </trkpt>
      <trkpt lat="43.53403" lon="5.5736">
        <ele>774.3</ele>
        <time>2023-05-28T10:33:36Z</time>
      </trkpt>
      <trkpt lat="43.53404" lon="5.57359">
        <ele>774.2</ele>
        <time>2023-05-28T10:33:37Z</time>
      </trkpt>
      <trkpt lat="43.53404" lon="5.57359">
        <ele>774.2</ele>
        <time>2023-05-28T10:33:38Z</time>
      </trkpt>
      <trkpt lat="43.53404" lon="5.57358">
        <ele>774</ele>
        <time>2023-05-28T10:33:39Z</time>
      </trkpt>
      <trkpt lat="43.53405" lon="5.57358">
        <ele>773.9</ele>
        <time>2023-05-28T10:33:40Z</time>
      </trkpt>
      <trkpt lat="43.53405" lon="5.57357">
        <ele>773.8</ele>
        <time>2023-05-28T10:33:41Z</time>
      </trkpt>
      <trkpt lat="43.53406" lon="5.57357">
        <ele>773.5</ele>
        <time>2023-05-28T10:33:42Z</time>
      </trkpt>
      <trkpt lat="43.53406" lon="5.57357">
        <ele>773.4</ele>
        <time>2023-05-28T10:33:43Z</time>
      </trkpt>
      <trkpt lat="43.53407" lon="5.57357">
        <ele>773.2</ele>
        <time>2023-05-28T10:33:44Z</time>
      </trkpt>
      <trkpt lat="43.53408" lon="5.57357">
        <ele>773.1</ele>
        <time>2023-05-28T10:33:45Z</time>
      </trkpt>
      <trkpt lat="43.53408" lon="5.57356">
        <ele>772.8</ele>
        <time>2023-05-28T10:33:46Z</time>
      </trkpt>
      <trkpt lat="43.53408" lon="5.57356">
        <ele>772.6</ele>
        <time>2023-05-28T10:33:47Z</time>
      </trkpt>
      <trkpt lat="43.53409" lon="5.57355">
        <ele>772.4</ele>
        <time>2023-05-28T10:33:48Z</time>
      </trkpt>
      <trkpt lat="43.53409" lon="5.57354">
        <ele>772.2</ele>
        <time>2023-05-28T10:33:49Z</time>
      </trkpt>
      <trkpt lat="43.5341" lon="5.57353">
        <ele>771.9</ele>
        <time>2023-05-28T10:33:50Z</time>
      </trkpt>
      <trkpt lat="43.5341" lon="5.57353">
        <ele>771.7</ele>
        <time>2023-05-28T10:33:51Z</time>
      </trkpt>
      <trkpt lat="43.53411" lon="5.57353">
        <ele>771.5</ele>
        <time>2023-05-28T10:33:52Z</time>
      </trkpt>
      <trkpt lat="43.53411" lon="5.57352">
        <ele>771.3</ele>
        <time>2023-05-28T10:33:53Z</time>
      </trkpt>
      <trkpt lat="43.53412" lon="5.57352">
        <ele>771</ele>
        <time>2023-05-28T10:33:54Z</time>
      </trkpt>
      <trkpt lat="43.53412" lon="5.57352">
        <ele>770.8</ele>
        <time>2023-05-28T10:33:55Z</time>
      </trkpt>
      <trkpt lat="43.53413" lon="5.57352">
        <ele>770.6</ele>
        <time>2023-05-28T10:33:56Z</time>
      </trkpt>
      <trkpt lat="43.53414" lon="5.57352">
        <ele>770.5</ele>
        <time>2023-05-28T10:33:57Z</time>
      </trkpt>
      <trkpt lat="43.53414" lon="5.57353">
        <ele>770.4</ele>
        <time>2023-05-28T10:33:58Z</time>
      </trkpt>
      <trkpt lat="43.53415" lon="5.57352">
        <ele>770.3</ele>
        <time>2023-05-28T10:33:59Z</time>
      </trkpt>
      <trkpt lat="43.53416" lon="5.57352">
        <ele>770.1</ele>
        <time>2023-05-28T10:34:00Z</time>
      </trkpt>
      <trkpt lat="43.53416" lon="5.57352">
        <ele>770</ele>
        <time>2023-05-28T10:34:01Z</time>
      </trkpt>
      <trkpt lat="43.53417" lon="5.57351">
        <ele>769.9</ele>
        <time>2023-05-28T10:34:02Z</time>
      </trkpt>
      <trkpt lat="43.53417" lon="5.5735">
        <ele>769.7</ele>
        <time>2023-05-28T10:34:03Z</time>
      </trkpt>
      <trkpt lat="43.53418" lon="5.5735">
        <ele>769.6</ele>
        <time>2023-05-28T10:34:04Z</time>
      </trkpt>
      <trkpt lat="43.53418" lon="5.5735">
        <ele>769.4</ele>
        <time>2023-05-28T10:34:05Z</time>
      </trkpt>
      <trkpt lat="43.53419" lon="5.5735">
        <ele>769.2</ele>
        <time>2023-05-28T10:34:06Z</time>
      </trkpt>
      <trkpt lat="43.5342" lon="5.5735">
        <ele>769.1</ele>
        <time>2023-05-28T10:34:07Z</time>
      </trkpt>
      <trkpt lat="43.5342" lon="5.5735">
        <ele>768.9</ele>
        <time>2023-05-28T10:34:08Z</time>
      </trkpt>
      <trkpt lat="43.5342" lon="5.5735">
        <ele>768.7</ele>
        <time>2023-05-28T10:34:09Z</time>
      </trkpt>
      <trkpt lat="43.53421" lon="5.5735">
        <ele>768.4</ele>
        <time>2023-05-28T10:34:10Z</time>
      </trkpt>
      <trkpt lat="43.53422" lon="5.5735">
        <ele>768.2</ele>
        <time>2023-05-28T10:34:11Z</time>
      </trkpt>
      <trkpt lat="43.53423" lon="5.57351">
        <ele>767.9</ele>
        <time>2023-05-28T10:34:12Z</time>
      </trkpt>
      <trkpt lat="43.53424" lon="5.57352">
        <ele>767.7</ele>
        <time>2023-05-28T10:34:13Z</time>
      </trkpt>
      <trkpt lat="43.53425" lon="5.57352">
        <ele>767.5</ele>
        <time>2023-05-28T10:34:14Z</time>
      </trkpt>
      <trkpt lat="43.53425" lon="5.57352">
        <ele>767.2</ele>
        <time>2023-05-28T10:34:15Z</time>
      </trkpt>
      <trkpt lat="43.53426" lon="5.57352">
        <ele>767.1</ele>
        <time>2023-05-28T10:34:16Z</time>
      </trkpt>
      <trkpt lat="43.53426" lon="5.57352">
        <ele>767</ele>
        <time>2023-05-28T10:34:17Z</time>
      </trkpt>
      <trkpt lat="43.53427" lon="5.57352">
        <ele>766.9</ele>
        <time>2023-05-28T10:34:18Z</time>
      </trkpt>
      <trkpt lat="43.53428" lon="5.57353">
        <ele>766.8</ele>
        <time>2023-05-28T10:34:19Z</time>
      </trkpt>
      <trkpt lat="43.53429" lon="5.57353">
        <ele>766.6</ele>
        <time>2023-05-28T10:34:20Z</time>
      </trkpt>
      <trkpt lat="43.5343" lon="5.57353">
        <ele>766.5</ele>
        <time>2023-05-28T10:34:21Z</time>
      </trkpt>
      <trkpt lat="43.53431" lon="5.57353">
        <ele>766.4</ele>
        <time>2023-05-28T10:34:22Z</time>
      </trkpt>
      <trkpt lat="43.53432" lon="5.57353">
        <ele>766.3</ele>
        <time>2023-05-28T10:34:23Z</time>
      </trkpt>
      <trkpt lat="43.53432" lon="5.57353">
        <ele>766.2</ele>
        <time>2023-05-28T10:34:24Z</time>
      </trkpt>
      <trkpt lat="43.53433" lon="5.57354">
        <ele>766.2</ele>
        <time>2023-05-28T10:34:25Z</time>
      </trkpt>
      <trkpt lat="43.53434" lon="5.57354">
        <ele>766.2</ele>
        <time>2023-05-28T10:34:26Z</time>
      </trkpt>
      <trkpt lat="43.53435" lon="5.57355">
        <ele>766.1</ele>
        <time>2023-05-28T10:34:27Z</time>
      </trkpt>
      <trkpt lat="43.53436" lon="5.57356">
        <ele>766.1</ele>
        <time>2023-05-28T10:34:28Z</time>
      </trkpt>
      <trkpt lat="43.53437" lon="5.57357">
        <ele>766.1</ele>
        <time>2023-05-28T10:34:29Z</time>
      </trkpt>
      <trkpt lat="43.53438" lon="5.57357">
        <ele>766</ele>
        <time>2023-05-28T10:34:30Z</time>
      </trkpt>
      <trkpt lat="43.53439" lon="5.57357">
        <ele>766.1</ele>
        <time>2023-05-28T10:34:31Z</time>
      </trkpt>
      <trkpt lat="43.5344" lon="5.57357">
        <ele>766.1</ele>
        <time>2023-05-28T10:34:32Z</time>
      </trkpt>
      <trkpt lat="43.5344" lon="5.57357">
        <ele>766</ele>
        <time>2023-05-28T10:34:33Z</time>
      </trkpt>
      <trkpt lat="43.53441" lon="5.57357">
        <ele>766</ele>
        <time>2023-05-28T10:34:34Z</time>
      </trkpt>
      <trkpt lat="43.53441" lon="5.57357">
        <ele>766</ele>
        <time>2023-05-28T10:34:35Z</time>
      </trkpt>
      <trkpt lat="43.53442" lon="5.57357">
        <ele>765.9</ele>
        <time>2023-05-28T10:34:36Z</time>
      </trkpt>
      <trkpt lat="43.53443" lon="5.57356">
        <ele>765.8</ele>
        <time>2023-05-28T10:34:37Z</time>
      </trkpt>
      <trkpt lat="43.53444" lon="5.57356">
        <ele>765.7</ele>
        <time>2023-05-28T10:34:38Z</time>
      </trkpt>
      <trkpt lat="43.53444" lon="5.57356">
        <ele>765.6</ele>
        <time>2023-05-28T10:34:39Z</time>
      </trkpt>
      <trkpt lat="43.53445" lon="5.57356">
        <ele>765.5</ele>
        <time>2023-05-28T10:34:40Z</time>
      </trkpt>
      <trkpt lat="43.53446" lon="5.57356">
        <ele>765.3</ele>
        <time>2023-05-28T10:34:41Z</time>
      </trkpt>
      <trkpt lat="43.53447" lon="5.57356">
        <ele>765.2</ele>
        <time>2023-05-28T10:34:42Z</time>
      </trkpt>
      <trkpt lat="43.53448" lon="5.57355">
        <ele>765</ele>
        <time>2023-05-28T10:34:43Z</time>
      </trkpt>
      <trkpt lat="43.53448" lon="5.57354">
        <ele>764.9</ele>
        <time>2023-05-28T10:34:44Z</time>
      </trkpt>
      <trkpt lat="43.53448" lon="5.57353">
        <ele>764.8</ele>
        <time>2023-05-28T10:34:45Z</time>
      </trkpt>
      <trkpt lat="43.53449" lon="5.57352">
        <ele>764.7</ele>
        <time>2023-05-28T10:34:46Z</time>
      </trkpt>
      <trkpt lat="43.5345" lon="5.57352">
        <ele>764.7</ele>
        <time>2023-05-28T10:34:47Z</time>
      </trkpt>
      <trkpt lat="43.5345" lon="5.57351">
        <ele>764.6</ele>
        <time>2023-05-28T10:34:48Z</time>
      </trkpt>
      <trkpt lat="43.53451" lon="5.57351">
        <ele>764.5</ele>
        <time>2023-05-28T10:34:49Z</time>
      </trkpt>
      <trkpt lat="43.53452" lon="5.57351">
        <ele>764.3</ele>
        <time>2023-05-28T10:34:50Z</time>
      </trkpt>
      <trkpt lat="43.53452" lon="5.57351">
        <ele>764.2</ele>
        <time>2023-05-28T10:34:51Z</time>
      </trkpt>
      <trkpt lat="43.53454" lon="5.57353">
        <ele>763.9</ele>
        <time>2023-05-28T10:34:52Z</time>
      </trkpt>
      <trkpt lat="43.53455" lon="5.57353">
        <ele>763.7</ele>
        <time>2023-05-28T10:34:53Z</time>
      </trkpt>
      <trkpt lat="43.53456" lon="5.57352">
        <ele>763.6</ele>
        <time>2023-05-28T10:34:54Z</time>
      </trkpt>
      <trkpt lat="43.53456" lon="5.5735">
        <ele>763.4</ele>
        <time>2023-05-28T10:34:55Z</time>
      </trkpt>
      <trkpt lat="43.53457" lon="5.57349">
        <ele>763.3</ele>
        <time>2023-05-28T10:34:56Z</time>
      </trkpt>
      <trkpt lat="43.53457" lon="5.57348">
        <ele>763</ele>
        <time>2023-05-28T10:34:57Z</time>
      </trkpt>
      <trkpt lat="43.53458" lon="5.57347">
        <ele>762.9</ele>
        <time>2023-05-28T10:34:58Z</time>
      </trkpt>
      <trkpt lat="43.53457" lon="5.57346">
        <ele>762.8</ele>
        <time>2023-05-28T10:34:59Z</time>
      </trkpt>
      <trkpt lat="43.53458" lon="5.57346">
        <ele>762.5</ele>
        <time>2023-05-28T10:35:00Z</time>
      </trkpt>
      <trkpt lat="43.53458" lon="5.57345">
        <ele>762.3</ele>
        <time>2023-05-28T10:35:01Z</time>
      </trkpt>
      <trkpt lat="43.53458" lon="5.57345">
        <ele>762.1</ele>
        <time>2023-05-28T10:35:02Z</time>
      </trkpt>
      <trkpt lat="43.53459" lon="5.57345">
        <ele>761.9</ele>
        <time>2023-05-28T10:35:03Z</time>
      </trkpt>
      <trkpt lat="43.53459" lon="5.57344">
        <ele>761.7</ele>
        <time>2023-05-28T10:35:04Z</time>
      </trkpt>
      <trkpt lat="43.53459" lon="5.57343">
        <ele>761.5</ele>
        <time>2023-05-28T10:35:05Z</time>
      </trkpt>
      <trkpt lat="43.5346" lon="5.57342">
        <ele>761.4</ele>
        <time>2023-05-28T10:35:06Z</time>
      </trkpt>
      <trkpt lat="43.5346" lon="5.57342">
        <ele>761.3</ele>
        <time>2023-05-28T10:35:07Z</time>
      </trkpt>
      <trkpt lat="43.53461" lon="5.57342">
        <ele>761.3</ele>
        <time>2023-05-28T10:35:08Z</time>
      </trkpt>
      <trkpt lat="43.53462" lon="5.57341">
        <ele>761.1</ele>
        <time>2023-05-28T10:35:09Z</time>
      </trkpt>
      <trkpt lat="43.53463" lon="5.57341">
        <ele>760.9</ele>
        <time>2023-05-28T10:35:10Z</time>
      </trkpt>
      <trkpt lat="43.53463" lon="5.57341">
        <ele>760.8</ele>
        <time>2023-05-28T10:35:11Z</time>
      </trkpt>
      <trkpt lat="43.53464" lon="5.57341">
        <ele>760.7</ele>
        <time>2023-05-28T10:35:12Z</time>
      </trkpt>
      <trkpt lat="43.53464" lon="5.5734">
        <ele>760.6</ele>
        <time>2023-05-28T10:35:13Z</time>
      </trkpt>
      <trkpt lat="43.53464" lon="5.57339">
        <ele>760.4</ele>
        <time>2023-05-28T10:35:14Z</time>
      </trkpt>
      <trkpt lat="43.53464" lon="5.57339">
        <ele>760.2</ele>
        <time>2023-05-28T10:35:15Z</time>
      </trkpt>
      <trkpt lat="43.53465" lon="5.57338">
        <ele>760</ele>
        <time>2023-05-28T10:35:16Z</time>
      </trkpt>
      <trkpt lat="43.53465" lon="5.57337">
        <ele>759.9</ele>
        <time>2023-05-28T10:35:17Z</time>
      </trkpt>
      <trkpt lat="43.53466" lon="5.57337">
        <ele>759.7</ele>
        <time>2023-05-28T10:35:18Z</time>
      </trkpt>
      <trkpt lat="43.53467" lon="5.57336">
        <ele>759.6</ele>
        <time>2023-05-28T10:35:19Z</time>
      </trkpt>
      <trkpt lat="43.53468" lon="5.57335">
        <ele>759.5</ele>
        <time>2023-05-28T10:35:20Z</time>
      </trkpt>
      <trkpt lat="43.53468" lon="5.57335">
        <ele>759.3</ele>
        <time>2023-05-28T10:35:21Z</time>
      </trkpt>
      <trkpt lat="43.53469" lon="5.57334">
        <ele>759.1</ele>
        <time>2023-05-28T10:35:22Z</time>
      </trkpt>
      <trkpt lat="43.53469" lon="5.57333">
        <ele>758.9</ele>
        <time>2023-05-28T10:35:23Z</time>
      </trkpt>
      <trkpt lat="43.5347" lon="5.57332">
        <ele>758.7</ele>
        <time>2023-05-28T10:35:24Z</time>
      </trkpt>
      <trkpt lat="43.5347" lon="5.57331">
        <ele>758.6</ele>
        <time>2023-05-28T10:35:25Z</time>
      </trkpt>
      <trkpt lat="43.5347" lon="5.5733">
        <ele>758.4</ele>
        <time>2023-05-28T10:35:26Z</time>
      </trkpt>
      <trkpt lat="43.53471" lon="5.57329">
        <ele>758.3</ele>
        <time>2023-05-28T10:35:27Z</time>
      </trkpt>
      <trkpt lat="43.53472" lon="5.57328">
        <ele>758.1</ele>
        <time>2023-05-28T10:35:28Z</time>
      </trkpt>
      <trkpt lat="43.53473" lon="5.57327">
        <ele>758</ele>
        <time>2023-05-28T10:35:29Z</time>
      </trkpt>
      <trkpt lat="43.53473" lon="5.57327">
        <ele>757.8</ele>
        <time>2023-05-28T10:35:30Z</time>
      </trkpt>
      <trkpt lat="43.53473" lon="5.57326">
        <ele>757.7</ele>
        <time>2023-05-28T10:35:31Z</time>
      </trkpt>
      <trkpt lat="43.53474" lon="5.57326">
        <ele>757.5</ele>
        <time>2023-05-28T10:35:32Z</time>
      </trkpt>
      <trkpt lat="43.53475" lon="5.57325">
        <ele>757.3</ele>
        <time>2023-05-28T10:35:33Z</time>
      </trkpt>
      <trkpt lat="43.53475" lon="5.57325">
        <ele>757.2</ele>
        <time>2023-05-28T10:35:34Z</time>
      </trkpt>
      <trkpt lat="43.53476" lon="5.57325">
        <ele>757</ele>
        <time>2023-05-28T10:35:35Z</time>
      </trkpt>
      <trkpt lat="43.53476" lon="5.57324">
        <ele>756.7</ele>
        <time>2023-05-28T10:35:36Z</time>
      </trkpt>
      <trkpt lat="43.53477" lon="5.57323">
        <ele>756.4</ele>
        <time>2023-05-28T10:35:37Z</time>
      </trkpt>
      <trkpt lat="43.53478" lon="5.57323">
        <ele>756.2</ele>
        <time>2023-05-28T10:35:38Z</time>
      </trkpt>
      <trkpt lat="43.53478" lon="5.57322">
        <ele>756</ele>
        <time>2023-05-28T10:35:39Z</time>
      </trkpt>
      <trkpt lat="43.53479" lon="5.57322">
        <ele>755.8</ele>
        <time>2023-05-28T10:35:40Z</time>
      </trkpt>
      <trkpt lat="43.5348" lon="5.57322">
        <ele>755.7</ele>
        <time>2023-05-28T10:35:41Z</time>
      </trkpt>
      <trkpt lat="43.53481" lon="5.57322">
        <ele>755.5</ele>
        <time>2023-05-28T10:35:42Z</time>
      </trkpt>
      <trkpt lat="43.53482" lon="5.57321">
        <ele>755.2</ele>
        <time>2023-05-28T10:35:43Z</time>
      </trkpt>
      <trkpt lat="43.53483" lon="5.57321">
        <ele>754.9</ele>
        <time>2023-05-28T10:35:44Z</time>
      </trkpt>
      <trkpt lat="43.53483" lon="5.57321">
        <ele>754.7</ele>
        <time>2023-05-28T10:35:45Z</time>
      </trkpt>
      <trkpt lat="43.53484" lon="5.5732">
        <ele>754.5</ele>
        <time>2023-05-28T10:35:46Z</time>
      </trkpt>
      <trkpt lat="43.53485" lon="5.57321">
        <ele>754.4</ele>
        <time>2023-05-28T10:35:47Z</time>
      </trkpt>
      <trkpt lat="43.53486" lon="5.57321">
        <ele>754.2</ele>
        <time>2023-05-28T10:35:48Z</time>
      </trkpt>
      <trkpt lat="43.53487" lon="5.5732">
        <ele>754.1</ele>
        <time>2023-05-28T10:35:49Z</time>
      </trkpt>
      <trkpt lat="43.53488" lon="5.5732">
        <ele>754</ele>
        <time>2023-05-28T10:35:50Z</time>
      </trkpt>
      <trkpt lat="43.53489" lon="5.57319">
        <ele>753.8</ele>
        <time>2023-05-28T10:35:51Z</time>
      </trkpt>
      <trkpt lat="43.5349" lon="5.57319">
        <ele>753.5</ele>
        <time>2023-05-28T10:35:52Z</time>
      </trkpt>
      <trkpt lat="43.5349" lon="5.57318">
        <ele>753.4</ele>
        <time>2023-05-28T10:35:53Z</time>
      </trkpt>
      <trkpt lat="43.53491" lon="5.57318">
        <ele>753.2</ele>
        <time>2023-05-28T10:35:54Z</time>
      </trkpt>
      <trkpt lat="43.53492" lon="5.57318">
        <ele>753.1</ele>
        <time>2023-05-28T10:35:55Z</time>
      </trkpt>
      <trkpt lat="43.53493" lon="5.57318">
        <ele>753</ele>
        <time>2023-05-28T10:35:56Z</time>
      </trkpt>
      <trkpt lat="43.53494" lon="5.57317">
        <ele>752.8</ele>
        <time>2023-05-28T10:35:57Z</time>
      </trkpt>
      <trkpt lat="43.53495" lon="5.57317">
        <ele>752.7</ele>
        <time>2023-05-28T10:35:58Z</time>
      </trkpt>
      <trkpt lat="43.53496" lon="5.57317">
        <ele>752.5</ele>
        <time>2023-05-28T10:35:59Z</time>
      </trkpt>
      <trkpt lat="43.53496" lon="5.57317">
        <ele>752.2</ele>
        <time>2023-05-28T10:36:00Z</time>
      </trkpt>
      <trkpt lat="43.53497" lon="5.57317">
        <ele>752</ele>
        <time>2023-05-28T10:36:01Z</time>
      </trkpt>
      <trkpt lat="43.53498" lon="5.57317">
        <ele>751.9</ele>
        <time>2023-05-28T10:36:02Z</time>
      </trkpt>
      <trkpt lat="43.53499" lon="5.57316">
        <ele>751.8</ele>
        <time>2023-05-28T10:36:03Z</time>
      </trkpt>
      <trkpt lat="43.53499" lon="5.57315">
        <ele>751.7</ele>
        <time>2023-05-28T10:36:04Z</time>
      </trkpt>
      <trkpt lat="43.535" lon="5.57314">
        <ele>751.6</ele>
        <time>2023-05-28T10:36:05Z</time>
      </trkpt>
      <trkpt lat="43.535" lon="5.57313">
        <ele>751.5</ele>
        <time>2023-05-28T10:36:06Z</time>
      </trkpt>
      <trkpt lat="43.53501" lon="5.57311">
        <ele>751.5</ele>
        <time>2023-05-28T10:36:07Z</time>
      </trkpt>
      <trkpt lat="43.53501" lon="5.57311">
        <ele>751.2</ele>
        <time>2023-05-28T10:36:08Z</time>
      </trkpt>
      <trkpt lat="43.53502" lon="5.5731">
        <ele>751.1</ele>
        <time>2023-05-28T10:36:09Z</time>
      </trkpt>
      <trkpt lat="43.53503" lon="5.57309">
        <ele>750.8</ele>
        <time>2023-05-28T10:36:10Z</time>
      </trkpt>
      <trkpt lat="43.53503" lon="5.57308">
        <ele>750.6</ele>
        <time>2023-05-28T10:36:11Z</time>
      </trkpt>
      <trkpt lat="43.53504" lon="5.57306">
        <ele>750.4</ele>
        <time>2023-05-28T10:36:12Z</time>
      </trkpt>
      <trkpt lat="43.53504" lon="5.57305">
        <ele>750.2</ele>
        <time>2023-05-28T10:36:13Z</time>
      </trkpt>
      <trkpt lat="43.53504" lon="5.57304">
        <ele>750.1</ele>
        <time>2023-05-28T10:36:14Z</time>
      </trkpt>
      <trkpt lat="43.53505" lon="5.57304">
        <ele>750</ele>
        <time>2023-05-28T10:36:15Z</time>
      </trkpt>
      <trkpt lat="43.53505" lon="5.57302">
        <ele>749.7</ele>
        <time>2023-05-28T10:36:16Z</time>
      </trkpt>
      <trkpt lat="43.53506" lon="5.57302">
        <ele>749.6</ele>
        <time>2023-05-28T10:36:17Z</time>
      </trkpt>
      <trkpt lat="43.53506" lon="5.57301">
        <ele>749.5</ele>
        <time>2023-05-28T10:36:18Z</time>
      </trkpt>
      <trkpt lat="43.53506" lon="5.573">
        <ele>749.4</ele>
        <time>2023-05-28T10:36:19Z</time>
      </trkpt>
      <trkpt lat="43.53506" lon="5.57299">
        <ele>749.1</ele>
        <time>2023-05-28T10:36:20Z</time>
      </trkpt>
      <trkpt lat="43.53507" lon="5.57298">
        <ele>748.9</ele>
        <time>2023-05-28T10:36:21Z</time>
      </trkpt>
      <trkpt lat="43.53507" lon="5.57297">
        <ele>748.8</ele>
        <time>2023-05-28T10:36:22Z</time>
      </trkpt>
      <trkpt lat="43.53508" lon="5.57296">
        <ele>748.6</ele>
        <time>2023-05-28T10:36:23Z</time>
      </trkpt>
      <trkpt lat="43.53508" lon="5.57295">
        <ele>748.4</ele>
        <time>2023-05-28T10:36:24Z</time>
      </trkpt>
      <trkpt lat="43.53509" lon="5.57295">
        <ele>748.2</ele>
        <time>2023-05-28T10:36:25Z</time>
      </trkpt>
      <trkpt lat="43.53509" lon="5.57294">
        <ele>748</ele>
        <time>2023-05-28T10:36:26Z</time>
      </trkpt>
      <trkpt lat="43.5351" lon="5.57293">
        <ele>747.9</ele>
        <time>2023-05-28T10:36:27Z</time>
      </trkpt>
      <trkpt lat="43.5351" lon="5.57292">
        <ele>747.7</ele>
        <time>2023-05-28T10:36:28Z</time>
      </trkpt>
      <trkpt lat="43.5351" lon="5.57291">
        <ele>747.5</ele>
        <time>2023-05-28T10:36:29Z</time>
      </trkpt>
      <trkpt lat="43.53511" lon="5.5729">
        <ele>747.4</ele>
        <time>2023-05-28T10:36:30Z</time>
      </trkpt>
      <trkpt lat="43.53511" lon="5.5729">
        <ele>747.3</ele>
        <time>2023-05-28T10:36:31Z</time>
      </trkpt>
      <trkpt lat="43.53512" lon="5.57289">
        <ele>747.2</ele>
        <time>2023-05-28T10:36:32Z</time>
      </trkpt>
      <trkpt lat="43.53512" lon="5.57289">
        <ele>747</ele>
        <time>2023-05-28T10:36:33Z</time>
      </trkpt>
      <trkpt lat="43.53513" lon="5.57289">
        <ele>746.9</ele>
        <time>2023-05-28T10:36:34Z</time>
      </trkpt>
      <trkpt lat="43.53514" lon="5.57289">
        <ele>746.7</ele>
        <time>2023-05-28T10:36:35Z</time>
      </trkpt>
      <trkpt lat="43.53515" lon="5.57289">
        <ele>746.5</ele>
        <time>2023-05-28T10:36:36Z</time>
      </trkpt>
      <trkpt lat="43.53515" lon="5.57289">
        <ele>746.4</ele>
        <time>2023-05-28T10:36:37Z</time>
      </trkpt>
      <trkpt lat="43.53516" lon="5.57288">
        <ele>746.3</ele>
        <time>2023-05-28T10:36:38Z</time>
      </trkpt>
      <trkpt lat="43.53516" lon="5.57288">
        <ele>746.2</ele>
        <time>2023-05-28T10:36:39Z</time>
      </trkpt>
      <trkpt lat="43.53517" lon="5.57287">
        <ele>746.1</ele>
        <time>2023-05-28T10:36:40Z</time>
      </trkpt>
      <trkpt lat="43.53518" lon="5.57287">
        <ele>746</ele>
        <time>2023-05-28T10:36:41Z</time>
      </trkpt>
      <trkpt lat="43.53518" lon="5.57286">
        <ele>745.8</ele>
        <time>2023-05-28T10:36:42Z</time>
      </trkpt>
      <trkpt lat="43.53519" lon="5.57286">
        <ele>745.6</ele>
        <time>2023-05-28T10:36:43Z</time>
      </trkpt>
      <trkpt lat="43.53519" lon="5.57284">
        <ele>745.5</ele>
        <time>2023-05-28T10:36:44Z</time>
      </trkpt>
      <trkpt lat="43.5352" lon="5.57284">
        <ele>745.3</ele>
        <time>2023-05-28T10:36:45Z</time>
      </trkpt>
      <trkpt lat="43.5352" lon="5.57283">
        <ele>745.1</ele>
        <time>2023-05-28T10:36:46Z</time>
      </trkpt>
      <trkpt lat="43.5352" lon="5.57281">
        <ele>744.9</ele>
        <time>2023-05-28T10:36:47Z</time>
      </trkpt>
      <trkpt lat="43.53521" lon="5.5728">
        <ele>744.8</ele>
        <time>2023-05-28T10:36:48Z</time>
      </trkpt>
      <trkpt lat="43.53521" lon="5.57279">
        <ele>744.5</ele>
        <time>2023-05-28T10:36:49Z</time>
      </trkpt>
      <trkpt lat="43.53521" lon="5.57279">
        <ele>744.5</ele>
        <time>2023-05-28T10:36:50Z</time>
      </trkpt>
      <trkpt lat="43.53521" lon="5.57278">
        <ele>744.4</ele>
        <time>2023-05-28T10:36:51Z</time>
      </trkpt>
      <trkpt lat="43.53522" lon="5.57278">
        <ele>744.3</ele>
        <time>2023-05-28T10:36:52Z</time>
      </trkpt>
      <trkpt lat="43.53523" lon="5.57277">
        <ele>744.3</ele>
        <time>2023-05-28T10:36:53Z</time>
      </trkpt>
      <trkpt lat="43.53523" lon="5.57277">
        <ele>744.2</ele>
        <time>2023-05-28T10:36:54Z</time>
      </trkpt>
      <trkpt lat="43.53524" lon="5.57276">
        <ele>744.1</ele>
        <time>2023-05-28T10:36:55Z</time>
      </trkpt>
      <trkpt lat="43.53525" lon="5.57275">
        <ele>743.9</ele>
        <time>2023-05-28T10:36:56Z</time>
      </trkpt>
      <trkpt lat="43.53525" lon="5.57274">
        <ele>743.7</ele>
        <time>2023-05-28T10:36:57Z</time>
      </trkpt>
      <trkpt lat="43.53526" lon="5.57273">
        <ele>743.4</ele>
        <time>2023-05-28T10:36:58Z</time>
      </trkpt>
      <trkpt lat="43.53526" lon="5.57272">
        <ele>743.2</ele>
        <time>2023-05-28T10:36:59Z</time>
      </trkpt>
      <trkpt lat="43.53526" lon="5.57271">
        <ele>743.1</ele>
        <time>2023-05-28T10:37:00Z</time>
      </trkpt>
      <trkpt lat="43.53526" lon="5.5727">
        <ele>743</ele>
        <time>2023-05-28T10:37:01Z</time>
      </trkpt>
      <trkpt lat="43.53526" lon="5.57269">
        <ele>742.9</ele>
        <time>2023-05-28T10:37:02Z</time>
      </trkpt>
      <trkpt lat="43.53527" lon="5.57268">
        <ele>742.7</ele>
        <time>2023-05-28T10:37:03Z</time>
      </trkpt>
      <trkpt lat="43.53527" lon="5.57267">
        <ele>742.5</ele>
        <time>2023-05-28T10:37:04Z</time>
      </trkpt>
      <trkpt lat="43.53528" lon="5.57266">
        <ele>742.5</ele>
        <time>2023-05-28T10:37:05Z</time>
      </trkpt>
      <trkpt lat="43.53528" lon="5.57265">
        <ele>742.4</ele>
        <time>2023-05-28T10:37:06Z</time>
      </trkpt>
      <trkpt lat="43.53528" lon="5.57264">
        <ele>742.2</ele>
        <time>2023-05-28T10:37:07Z</time>
      </trkpt>
      <trkpt lat="43.53529" lon="5.57263">
        <ele>742.1</ele>
        <time>2023-05-28T10:37:08Z</time>
      </trkpt>
      <trkpt lat="43.5353" lon="5.57262">
        <ele>742</ele>
        <time>2023-05-28T10:37:09Z</time>
      </trkpt>
      <trkpt lat="43.53531" lon="5.57262">
        <ele>741.7</ele>
        <time>2023-05-28T10:37:10Z</time>
      </trkpt>
      <trkpt lat="43.53531" lon="5.57261">
        <ele>741.5</ele>
        <time>2023-05-28T10:37:11Z</time>
      </trkpt>
      <trkpt lat="43.53532" lon="5.5726">
        <ele>741.3</ele>
        <time>2023-05-28T10:37:12Z</time>
      </trkpt>
      <trkpt lat="43.53532" lon="5.5726">
        <ele>741.2</ele>
        <time>2023-05-28T10:37:13Z</time>
      </trkpt>
      <trkpt lat="43.53533" lon="5.57259">
        <ele>741</ele>
        <time>2023-05-28T10:37:14Z</time>
      </trkpt>
      <trkpt lat="43.53533" lon="5.57259">
        <ele>740.9</ele>
        <time>2023-05-28T10:37:15Z</time>
      </trkpt>
      <trkpt lat="43.53534" lon="5.57258">
        <ele>740.8</ele>
        <time>2023-05-28T10:37:16Z</time>
      </trkpt>
      <trkpt lat="43.53534" lon="5.57258">
        <ele>740.5</ele>
        <time>2023-05-28T10:37:17Z</time>
      </trkpt>
      <trkpt lat="43.53535" lon="5.57257">
        <ele>740.4</ele>
        <time>2023-05-28T10:37:18Z</time>
      </trkpt>
      <trkpt lat="43.53536" lon="5.57257">
        <ele>740.3</ele>
        <time>2023-05-28T10:37:19Z</time>
      </trkpt>
      <trkpt lat="43.53537" lon="5.57256">
        <ele>740.2</ele>
        <time>2023-05-28T10:37:20Z</time>
      </trkpt>
      <trkpt lat="43.53537" lon="5.57256">
        <ele>740</ele>
        <time>2023-05-28T10:37:21Z</time>
      </trkpt>
      <trkpt lat="43.53538" lon="5.57255">
        <ele>739.9</ele>
        <time>2023-05-28T10:37:22Z</time>
      </trkpt>
      <trkpt lat="43.53538" lon="5.57254">
        <ele>739.8</ele>
        <time>2023-05-28T10:37:23Z</time>
      </trkpt>
      <trkpt lat="43.53539" lon="5.57253">
        <ele>739.7</ele>
        <time>2023-05-28T10:37:24Z</time>
      </trkpt>
      <trkpt lat="43.53539" lon="5.57252">
        <ele>739.7</ele>
        <time>2023-05-28T10:37:25Z</time>
      </trkpt>
      <trkpt lat="43.5354" lon="5.57251">
        <ele>739.6</ele>
        <time>2023-05-28T10:37:26Z</time>
      </trkpt>
      <trkpt lat="43.5354" lon="5.5725">
        <ele>739.5</ele>
        <time>2023-05-28T10:37:27Z</time>
      </trkpt>
      <trkpt lat="43.5354" lon="5.57248">
        <ele>739.4</ele>
        <time>2023-05-28T10:37:28Z</time>
      </trkpt>
      <trkpt lat="43.5354" lon="5.57247">
        <ele>739.4</ele>
        <time>2023-05-28T10:37:29Z</time>
      </trkpt>
      <trkpt lat="43.53541" lon="5.57246">
        <ele>739.4</ele>
        <time>2023-05-28T10:37:30Z</time>
      </trkpt>
      <trkpt lat="43.53541" lon="5.57246">
        <ele>739.4</ele>
        <time>2023-05-28T10:37:31Z</time>
      </trkpt>
      <trkpt lat="43.53542" lon="5.57245">
        <ele>739.3</ele>
        <time>2023-05-28T10:37:32Z</time>
      </trkpt>
      <trkpt lat="43.53542" lon="5.57245">
        <ele>739.3</ele>
        <time>2023-05-28T10:37:33Z</time>
      </trkpt>
      <trkpt lat="43.53543" lon="5.57245">
        <ele>739.2</ele>
        <time>2023-05-28T10:37:34Z</time>
      </trkpt>
      <trkpt lat="43.53543" lon="5.57244">
        <ele>739.2</ele>
        <time>2023-05-28T10:37:35Z</time>
      </trkpt>
      <trkpt lat="43.53544" lon="5.57243">
        <ele>739.2</ele>
        <time>2023-05-28T10:37:36Z</time>
      </trkpt>
      <trkpt lat="43.53544" lon="5.57243">
        <ele>739.2</ele>
        <time>2023-05-28T10:37:37Z</time>
      </trkpt>
      <trkpt lat="43.53544" lon="5.57242">
        <ele>739.2</ele>
        <time>2023-05-28T10:37:38Z</time>
      </trkpt>
      <trkpt lat="43.53544" lon="5.57242">
        <ele>739.2</ele>
        <time>2023-05-28T10:37:39Z</time>
      </trkpt>
      <trkpt lat="43.53544" lon="5.57242">
        <ele>739.2</ele>
        <time>2023-05-28T10:37:40Z</time>
      </trkpt>
      <trkpt lat="43.53544" lon="5.57243">
        <ele>739.1</ele>
        <time>2023-05-28T10:37:41Z</time>
      </trkpt>
      <trkpt lat="43.53544" lon="5.57242">
        <ele>739</ele>
        <time>2023-05-28T10:37:42Z</time>
      </trkpt>
      <trkpt lat="43.53545" lon="5.57241">
        <ele>738.9</ele>
        <time>2023-05-28T10:37:43Z</time>
      </trkpt>
      <trkpt lat="43.53545" lon="5.57241">
        <ele>738.8</ele>
        <time>2023-05-28T10:37:44Z</time>
      </trkpt>
      <trkpt lat="43.53546" lon="5.57241">
        <ele>738.7</ele>
        <time>2023-05-28T10:37:45Z</time>
      </trkpt>
      <trkpt lat="43.53546" lon="5.5724">
        <ele>738.7</ele>
        <time>2023-05-28T10:37:46Z</time>
      </trkpt>
      <trkpt lat="43.53546" lon="5.5724">
        <ele>738.7</ele>
        <time>2023-05-28T10:37:47Z</time>
      </trkpt>
      <trkpt lat="43.53546" lon="5.5724">
        <ele>738.6</ele>
        <time>2023-05-28T10:37:48Z</time>
      </trkpt>
      <trkpt lat="43.53546" lon="5.5724">
        <ele>738.6</ele>
        <time>2023-05-28T10:37:49Z</time>
      </trkpt>
      <trkpt lat="43.53546" lon="5.5724">
        <ele>738.4</ele>
        <time>2023-05-28T10:37:50Z</time>
      </trkpt>
      <trkpt lat="43.53546" lon="5.5724">
        <ele>738.3</ele>
        <time>2023-05-28T10:37:51Z</time>
      </trkpt>
      <trkpt lat="43.53546" lon="5.5724">
        <ele>738.4</ele>
        <time>2023-05-28T10:37:52Z</time>
      </trkpt>
      <trkpt lat="43.53547" lon="5.5724">
        <ele>738.4</ele>
        <time>2023-05-28T10:37:53Z</time>
      </trkpt>
      <trkpt lat="43.53547" lon="5.5724">
        <ele>738.4</ele>
        <time>2023-05-28T10:37:54Z</time>
      </trkpt>
      <trkpt lat="43.53548" lon="5.5724">
        <ele>738.4</ele>
        <time>2023-05-28T10:37:55Z</time>
      </trkpt>
      <trkpt lat="43.53548" lon="5.57239">
        <ele>738.3</ele>
        <time>2023-05-28T10:37:56Z</time>
      </trkpt>
      <trkpt lat="43.53549" lon="5.57239">
        <ele>738.2</ele>
        <time>2023-05-28T10:37:57Z</time>
      </trkpt>
      <trkpt lat="43.53549" lon="5.5724">
        <ele>738.2</ele>
        <time>2023-05-28T10:37:58Z</time>
      </trkpt>
      <trkpt lat="43.5355" lon="5.5724">
        <ele>738.1</ele>
        <time>2023-05-28T10:37:59Z</time>
      </trkpt>
      <trkpt lat="43.53551" lon="5.5724">
        <ele>738</ele>
        <time>2023-05-28T10:38:00Z</time>
      </trkpt>
      <trkpt lat="43.53552" lon="5.5724">
        <ele>737.9</ele>
        <time>2023-05-28T10:38:01Z</time>
      </trkpt>
      <trkpt lat="43.53553" lon="5.5724">
        <ele>737.8</ele>
        <time>2023-05-28T10:38:02Z</time>
      </trkpt>
      <trkpt lat="43.53554" lon="5.57239">
        <ele>737.7</ele>
        <time>2023-05-28T10:38:03Z</time>
      </trkpt>
      <trkpt lat="43.53554" lon="5.57238">
        <ele>737.6</ele>
        <time>2023-05-28T10:38:04Z</time>
      </trkpt>
      <trkpt lat="43.53555" lon="5.57238">
        <ele>737.6</ele>
        <time>2023-05-28T10:38:05Z</time>
      </trkpt>
      <trkpt lat="43.53556" lon="5.57238">
        <ele>737.5</ele>
        <time>2023-05-28T10:38:06Z</time>
      </trkpt>
      <trkpt lat="43.53556" lon="5.57237">
        <ele>737.5</ele>
        <time>2023-05-28T10:38:07Z</time>
      </trkpt>
      <trkpt lat="43.53557" lon="5.57237">
        <ele>737.4</ele>
        <time>2023-05-28T10:38:08Z</time>
      </trkpt>
      <trkpt lat="43.53557" lon="5.57237">
        <ele>737.4</ele>
        <time>2023-05-28T10:38:09Z</time>
      </trkpt>
      <trkpt lat="43.53558" lon="5.57237">
        <ele>737.3</ele>
        <time>2023-05-28T10:38:10Z</time>
      </trkpt>
      <trkpt lat="43.53558" lon="5.57236">
        <ele>737.2</ele>
        <time>2023-05-28T10:38:11Z</time>
      </trkpt>
      <trkpt lat="43.53559" lon="5.57235">
        <ele>737.2</ele>
        <time>2023-05-28T10:38:12Z</time>
      </trkpt>
      <trkpt lat="43.53559" lon="5.57234">
        <ele>737</ele>
        <time>2023-05-28T10:38:13Z</time>
      </trkpt>
      <trkpt lat="43.53559" lon="5.57233">
        <ele>736.9</ele>
        <time>2023-05-28T10:38:14Z</time>
      </trkpt>
      <trkpt lat="43.5356" lon="5.57233">
        <ele>736.8</ele>
        <time>2023-05-28T10:38:15Z</time>
      </trkpt>
      <trkpt lat="43.5356" lon="5.57232">
        <ele>736.6</ele>
        <time>2023-05-28T10:38:16Z</time>
      </trkpt>
      <trkpt lat="43.53561" lon="5.57232">
        <ele>736.5</ele>
        <time>2023-05-28T10:38:17Z</time>
      </trkpt>
      <trkpt lat="43.53561" lon="5.57232">
        <ele>736.4</ele>
        <time>2023-05-28T10:38:18Z</time>
      </trkpt>
      <trkpt lat="43.53561" lon="5.57231">
        <ele>736.3</ele>
        <time>2023-05-28T10:38:19Z</time>
      </trkpt>
      <trkpt lat="43.53562" lon="5.57231">
        <ele>736.2</ele>
        <time>2023-05-28T10:38:20Z</time>
      </trkpt>
      <trkpt lat="43.53562" lon="5.57231">
        <ele>736.1</ele>
        <time>2023-05-28T10:38:21Z</time>
      </trkpt>
      <trkpt lat="43.53562" lon="5.57231">
        <ele>736.1</ele>
        <time>2023-05-28T10:38:22Z</time>
      </trkpt>
      <trkpt lat="43.53563" lon="5.5723">
        <ele>735.9</ele>
        <time>2023-05-28T10:38:23Z</time>
      </trkpt>
      <trkpt lat="43.53564" lon="5.57229">
        <ele>735.8</ele>
        <time>2023-05-28T10:38:24Z</time>
      </trkpt>
      <trkpt lat="43.53564" lon="5.57228">
        <ele>735.6</ele>
        <time>2023-05-28T10:38:25Z</time>
      </trkpt>
      <trkpt lat="43.53565" lon="5.57227">
        <ele>735.5</ele>
        <time>2023-05-28T10:38:26Z</time>
      </trkpt>
      <trkpt lat="43.53565" lon="5.57225">
        <ele>735.5</ele>
        <time>2023-05-28T10:38:27Z</time>
      </trkpt>
      <trkpt lat="43.53566" lon="5.57224">
        <ele>735.4</ele>
        <time>2023-05-28T10:38:28Z</time>
      </trkpt>
      <trkpt lat="43.53566" lon="5.57224">
        <ele>735.3</ele>
        <time>2023-05-28T10:38:29Z</time>
      </trkpt>
      <trkpt lat="43.53567" lon="5.57223">
        <ele>735.2</ele>
        <time>2023-05-28T10:38:30Z</time>
      </trkpt>
      <trkpt lat="43.53568" lon="5.57222">
        <ele>735.1</ele>
        <time>2023-05-28T10:38:31Z</time>
      </trkpt>
      <trkpt lat="43.53568" lon="5.57222">
        <ele>735</ele>
        <time>2023-05-28T10:38:32Z</time>
      </trkpt>
      <trkpt lat="43.53569" lon="5.57221">
        <ele>734.8</ele>
        <time>2023-05-28T10:38:33Z</time>
      </trkpt>
      <trkpt lat="43.5357" lon="5.5722">
        <ele>734.8</ele>
        <time>2023-05-28T10:38:34Z</time>
      </trkpt>
      <trkpt lat="43.5357" lon="5.57219">
        <ele>734.8</ele>
        <time>2023-05-28T10:38:35Z</time>
      </trkpt>
      <trkpt lat="43.53571" lon="5.57219">
        <ele>734.8</ele>
        <time>2023-05-28T10:38:36Z</time>
      </trkpt>
      <trkpt lat="43.53571" lon="5.57218">
        <ele>734.7</ele>
        <time>2023-05-28T10:38:37Z</time>
      </trkpt>
      <trkpt lat="43.53572" lon="5.57218">
        <ele>734.7</ele>
        <time>2023-05-28T10:38:38Z</time>
      </trkpt>
      <trkpt lat="43.53572" lon="5.57217">
        <ele>734.5</ele>
        <time>2023-05-28T10:38:39Z</time>
      </trkpt>
      <trkpt lat="43.53572" lon="5.57216">
        <ele>734.3</ele>
        <time>2023-05-28T10:38:40Z</time>
      </trkpt>
      <trkpt lat="43.53573" lon="5.57216">
        <ele>734.2</ele>
        <time>2023-05-28T10:38:41Z</time>
      </trkpt>
      <trkpt lat="43.53573" lon="5.57215">
        <ele>734.2</ele>
        <time>2023-05-28T10:38:42Z</time>
      </trkpt>
      <trkpt lat="43.53574" lon="5.57215">
        <ele>734.1</ele>
        <time>2023-05-28T10:38:43Z</time>
      </trkpt>
      <trkpt lat="43.53575" lon="5.57214">
        <ele>734</ele>
        <time>2023-05-28T10:38:44Z</time>
      </trkpt>
      <trkpt lat="43.53575" lon="5.57214">
        <ele>733.9</ele>
        <time>2023-05-28T10:38:45Z</time>
      </trkpt>
      <trkpt lat="43.53576" lon="5.57213">
        <ele>733.9</ele>
        <time>2023-05-28T10:38:46Z</time>
      </trkpt>
      <trkpt lat="43.53576" lon="5.57213">
        <ele>733.8</ele>
        <time>2023-05-28T10:38:47Z</time>
      </trkpt>
      <trkpt lat="43.53576" lon="5.57212">
        <ele>733.8</ele>
        <time>2023-05-28T10:38:48Z</time>
      </trkpt>
      <trkpt lat="43.53577" lon="5.57212">
        <ele>733.7</ele>
        <time>2023-05-28T10:38:49Z</time>
      </trkpt>
      <trkpt lat="43.53577" lon="5.57211">
        <ele>733.7</ele>
        <time>2023-05-28T10:38:50Z</time>
      </trkpt>
      <trkpt lat="43.53577" lon="5.57211">
        <ele>733.6</ele>
        <time>2023-05-28T10:38:51Z</time>
      </trkpt>
      <trkpt lat="43.53578" lon="5.57211">
        <ele>733.5</ele>
        <time>2023-05-28T10:38:52Z</time>
      </trkpt>
      <trkpt lat="43.53578" lon="5.5721">
        <ele>733.4</ele>
        <time>2023-05-28T10:38:53Z</time>
      </trkpt>
      <trkpt lat="43.53579" lon="5.5721">
        <ele>733.4</ele>
        <time>2023-05-28T10:38:54Z</time>
      </trkpt>
      <trkpt lat="43.53579" lon="5.57209">
        <ele>733.4</ele>
        <time>2023-05-28T10:38:55Z</time>
      </trkpt>
      <trkpt lat="43.53579" lon="5.57209">
        <ele>733.3</ele>
        <time>2023-05-28T10:38:56Z</time>
      </trkpt>
      <trkpt lat="43.53579" lon="5.57209">
        <ele>733.1</ele>
        <time>2023-05-28T10:38:57Z</time>
      </trkpt>
      <trkpt lat="43.5358" lon="5.57209">
        <ele>733</ele>
        <time>2023-05-28T10:38:58Z</time>
      </trkpt>
      <trkpt lat="43.5358" lon="5.57208">
        <ele>732.9</ele>
        <time>2023-05-28T10:38:59Z</time>
      </trkpt>
      <trkpt lat="43.53581" lon="5.57208">
        <ele>732.9</ele>
        <time>2023-05-28T10:39:00Z</time>
      </trkpt>
      <trkpt lat="43.53581" lon="5.57207">
        <ele>732.7</ele>
        <time>2023-05-28T10:39:01Z</time>
      </trkpt>
      <trkpt lat="43.53581" lon="5.57207">
        <ele>732.7</ele>
        <time>2023-05-28T10:39:02Z</time>
      </trkpt>
      <trkpt lat="43.53582" lon="5.57206">
        <ele>732.7</ele>
        <time>2023-05-28T10:39:03Z</time>
      </trkpt>
      <trkpt lat="43.53583" lon="5.57206">
        <ele>732.6</ele>
        <time>2023-05-28T10:39:04Z</time>
      </trkpt>
      <trkpt lat="43.53583" lon="5.57205">
        <ele>732.5</ele>
        <time>2023-05-28T10:39:05Z</time>
      </trkpt>
      <trkpt lat="43.53584" lon="5.57205">
        <ele>732.2</ele>
        <time>2023-05-28T10:39:06Z</time>
      </trkpt>
      <trkpt lat="43.53584" lon="5.57206">
        <ele>732</ele>
        <time>2023-05-28T10:39:07Z</time>
      </trkpt>
      <trkpt lat="43.53584" lon="5.57207">
        <ele>731.9</ele>
        <time>2023-05-28T10:39:08Z</time>
      </trkpt>
      <trkpt lat="43.53585" lon="5.57207">
        <ele>731.7</ele>
        <time>2023-05-28T10:39:09Z</time>
      </trkpt>
      <trkpt lat="43.53586" lon="5.57207">
        <ele>731.6</ele>
        <time>2023-05-28T10:39:10Z</time>
      </trkpt>
      <trkpt lat="43.53587" lon="5.57207">
        <ele>731.5</ele>
        <time>2023-05-28T10:39:11Z</time>
      </trkpt>
      <trkpt lat="43.53587" lon="5.57207">
        <ele>731.3</ele>
        <time>2023-05-28T10:39:12Z</time>
      </trkpt>
      <trkpt lat="43.53588" lon="5.57207">
        <ele>731.2</ele>
        <time>2023-05-28T10:39:13Z</time>
      </trkpt>
      <trkpt lat="43.53588" lon="5.57207">
        <ele>730.9</ele>
        <time>2023-05-28T10:39:14Z</time>
      </trkpt>
      <trkpt lat="43.53589" lon="5.57206">
        <ele>730.8</ele>
        <time>2023-05-28T10:39:15Z</time>
      </trkpt>
      <trkpt lat="43.5359" lon="5.57206">
        <ele>730.6</ele>
        <time>2023-05-28T10:39:16Z</time>
      </trkpt>
      <trkpt lat="43.5359" lon="5.57205">
        <ele>730.5</ele>
        <time>2023-05-28T10:39:17Z</time>
      </trkpt>
      <trkpt lat="43.53591" lon="5.57205">
        <ele>730.4</ele>
        <time>2023-05-28T10:39:18Z</time>
      </trkpt>
      <trkpt lat="43.53591" lon="5.57204">
        <ele>730.3</ele>
        <time>2023-05-28T10:39:19Z</time>
      </trkpt>
      <trkpt lat="43.53591" lon="5.57204">
        <ele>730.3</ele>
        <time>2023-05-28T10:39:20Z</time>
      </trkpt>
      <trkpt lat="43.53592" lon="5.57203">
        <ele>730.1</ele>
        <time>2023-05-28T10:39:21Z</time>
      </trkpt>
      <trkpt lat="43.53593" lon="5.57203">
        <ele>730.1</ele>
        <time>2023-05-28T10:39:22Z</time>
      </trkpt>
      <trkpt lat="43.53593" lon="5.57202">
        <ele>730</ele>
        <time>2023-05-28T10:39:23Z</time>
      </trkpt>
      <trkpt lat="43.53593" lon="5.57201">
        <ele>730</ele>
        <time>2023-05-28T10:39:24Z</time>
      </trkpt>
      <trkpt lat="43.53594" lon="5.572">
        <ele>729.9</ele>
        <time>2023-05-28T10:39:25Z</time>
      </trkpt>
      <trkpt lat="43.53594" lon="5.572">
        <ele>729.8</ele>
        <time>2023-05-28T10:39:26Z</time>
      </trkpt>
      <trkpt lat="43.53594" lon="5.57199">
        <ele>729.8</ele>
        <time>2023-05-28T10:39:27Z</time>
      </trkpt>
      <trkpt lat="43.53594" lon="5.57199">
        <ele>729.7</ele>
        <time>2023-05-28T10:39:28Z</time>
      </trkpt>
      <trkpt lat="43.53595" lon="5.57198">
        <ele>729.6</ele>
        <time>2023-05-28T10:39:29Z</time>
      </trkpt>
      <trkpt lat="43.53595" lon="5.57198">
        <ele>729.5</ele>
        <time>2023-05-28T10:39:30Z</time>
      </trkpt>
      <trkpt lat="43.53595" lon="5.57197">
        <ele>729.4</ele>
        <time>2023-05-28T10:39:31Z</time>
      </trkpt>
      <trkpt lat="43.53596" lon="5.57196">
        <ele>729.3</ele>
        <time>2023-05-28T10:39:32Z</time>
      </trkpt>
      <trkpt lat="43.53596" lon="5.57195">
        <ele>729.3</ele>
        <time>2023-05-28T10:39:33Z</time>
      </trkpt>
      <trkpt lat="43.53597" lon="5.57194">
        <ele>729.2</ele>
        <time>2023-05-28T10:39:34Z</time>
      </trkpt>
      <trkpt lat="43.53597" lon="5.57194">
        <ele>729.2</ele>
        <time>2023-05-28T10:39:35Z</time>
      </trkpt>
      <trkpt lat="43.53597" lon="5.57193">
        <ele>729.2</ele>
        <time>2023-05-28T10:39:36Z</time>
      </trkpt>
      <trkpt lat="43.53598" lon="5.57193">
        <ele>729.2</ele>
        <time>2023-05-28T10:39:37Z</time>
      </trkpt>
      <trkpt lat="43.53598" lon="5.57192">
        <ele>729.2</ele>
        <time>2023-05-28T10:39:38Z</time>
      </trkpt>
      <trkpt lat="43.53599" lon="5.57192">
        <ele>729.1</ele>
        <time>2023-05-28T10:39:39Z</time>
      </trkpt>
      <trkpt lat="43.53599" lon="5.57191">
        <ele>729</ele>
        <time>2023-05-28T10:39:40Z</time>
      </trkpt>
      <trkpt lat="43.536" lon="5.57191">
        <ele>729</ele>
        <time>2023-05-28T10:39:41Z</time>
      </trkpt>
      <trkpt lat="43.536" lon="5.5719">
        <ele>728.8</ele>
        <time>2023-05-28T10:39:42Z</time>
      </trkpt>
      <trkpt lat="43.536" lon="5.5719">
        <ele>728.6</ele>
        <time>2023-05-28T10:39:43Z</time>
      </trkpt>
      <trkpt lat="43.53601" lon="5.5719">
        <ele>728.3</ele>
        <time>2023-05-28T10:39:44Z</time>
      </trkpt>
      <trkpt lat="43.53601" lon="5.5719">
        <ele>728.1</ele>
        <time>2023-05-28T10:39:45Z</time>
      </trkpt>
      <trkpt lat="43.53602" lon="5.5719">
        <ele>727.9</ele>
        <time>2023-05-28T10:39:46Z</time>
      </trkpt>
      <trkpt lat="43.53602" lon="5.57189">
        <ele>727.8</ele>
        <time>2023-05-28T10:39:47Z</time>
      </trkpt>
      <trkpt lat="43.53602" lon="5.57189">
        <ele>727.6</ele>
        <time>2023-05-28T10:39:48Z</time>
      </trkpt>
      <trkpt lat="43.53603" lon="5.57189">
        <ele>727.4</ele>
        <time>2023-05-28T10:39:49Z</time>
      </trkpt>
      <trkpt lat="43.53603" lon="5.5719">
        <ele>727.3</ele>
        <time>2023-05-28T10:39:50Z</time>
      </trkpt>
      <trkpt lat="43.53604" lon="5.5719">
        <ele>727.2</ele>
        <time>2023-05-28T10:39:51Z</time>
      </trkpt>
      <trkpt lat="43.53604" lon="5.5719">
        <ele>727.1</ele>
        <time>2023-05-28T10:39:52Z</time>
      </trkpt>
      <trkpt lat="43.53605" lon="5.5719">
        <ele>726.9</ele>
        <time>2023-05-28T10:39:53Z</time>
      </trkpt>
      <trkpt lat="43.53605" lon="5.5719">
        <ele>726.8</ele>
        <time>2023-05-28T10:39:54Z</time>
      </trkpt>
      <trkpt lat="43.53605" lon="5.57189">
        <ele>726.6</ele>
        <time>2023-05-28T10:39:55Z</time>
      </trkpt>
      <trkpt lat="43.53605" lon="5.57189">
        <ele>726.6</ele>
        <time>2023-05-28T10:39:56Z</time>
      </trkpt>
      <trkpt lat="43.53605" lon="5.5719">
        <ele>726.4</ele>
        <time>2023-05-28T10:39:57Z</time>
      </trkpt>
      <trkpt lat="43.53606" lon="5.5719">
        <ele>726.3</ele>
        <time>2023-05-28T10:39:58Z</time>
      </trkpt>
      <trkpt lat="43.53606" lon="5.5719">
        <ele>726.2</ele>
        <time>2023-05-28T10:39:59Z</time>
      </trkpt>
      <trkpt lat="43.53607" lon="5.57191">
        <ele>726.1</ele>
        <time>2023-05-28T10:40:00Z</time>
      </trkpt>
      <trkpt lat="43.53607" lon="5.57191">
        <ele>726</ele>
        <time>2023-05-28T10:40:01Z</time>
      </trkpt>
      <trkpt lat="43.53607" lon="5.57191">
        <ele>725.9</ele>
        <time>2023-05-28T10:40:02Z</time>
      </trkpt>
      <trkpt lat="43.53607" lon="5.57191">
        <ele>725.8</ele>
        <time>2023-05-28T10:40:03Z</time>
      </trkpt>
      <trkpt lat="43.53608" lon="5.57191">
        <ele>725.8</ele>
        <time>2023-05-28T10:40:04Z</time>
      </trkpt>
      <trkpt lat="43.53608" lon="5.57191">
        <ele>725.6</ele>
        <time>2023-05-28T10:40:05Z</time>
      </trkpt>
      <trkpt lat="43.53608" lon="5.57192">
        <ele>725.3</ele>
        <time>2023-05-28T10:40:06Z</time>
      </trkpt>
      <trkpt lat="43.53609" lon="5.57192">
        <ele>725.1</ele>
        <time>2023-05-28T10:40:07Z</time>
      </trkpt>
      <trkpt lat="43.5361" lon="5.57192">
        <ele>724.9</ele>
        <time>2023-05-28T10:40:08Z</time>
      </trkpt>
      <trkpt lat="43.5361" lon="5.57192">
        <ele>724.8</ele>
        <time>2023-05-28T10:40:09Z</time>
      </trkpt>
      <trkpt lat="43.53611" lon="5.57192">
        <ele>724.6</ele>
        <time>2023-05-28T10:40:10Z</time>
      </trkpt>
      <trkpt lat="43.53611" lon="5.57192">
        <ele>724.4</ele>
        <time>2023-05-28T10:40:11Z</time>
      </trkpt>
      <trkpt lat="43.53612" lon="5.57193">
        <ele>724.2</ele>
        <time>2023-05-28T10:40:12Z</time>
      </trkpt>
      <trkpt lat="43.53613" lon="5.57192">
        <ele>724</ele>
        <time>2023-05-28T10:40:13Z</time>
      </trkpt>
      <trkpt lat="43.53613" lon="5.57191">
        <ele>723.8</ele>
        <time>2023-05-28T10:40:14Z</time>
      </trkpt>
      <trkpt lat="43.53614" lon="5.5719">
        <ele>723.7</ele>
        <time>2023-05-28T10:40:15Z</time>
      </trkpt>
      <trkpt lat="43.53614" lon="5.57189">
        <ele>723.6</ele>
        <time>2023-05-28T10:40:16Z</time>
      </trkpt>
      <trkpt lat="43.53614" lon="5.57189">
        <ele>723.5</ele>
        <time>2023-05-28T10:40:17Z</time>
      </trkpt>
      <trkpt lat="43.53614" lon="5.57189">
        <ele>723.4</ele>
        <time>2023-05-28T10:40:18Z</time>
      </trkpt>
      <trkpt lat="43.53614" lon="5.57188">
        <ele>723.3</ele>
        <time>2023-05-28T10:40:19Z</time>
      </trkpt>
      <trkpt lat="43.53614" lon="5.57188">
        <ele>723.3</ele>
        <time>2023-05-28T10:40:20Z</time>
      </trkpt>
      <trkpt lat="43.53614" lon="5.57188">
        <ele>723.2</ele>
        <time>2023-05-28T10:40:21Z</time>
      </trkpt>
      <trkpt lat="43.53614" lon="5.57188">
        <ele>723.2</ele>
        <time>2023-05-28T10:40:22Z</time>
      </trkpt>
      <trkpt lat="43.53615" lon="5.57188">
        <ele>723.1</ele>
        <time>2023-05-28T10:40:23Z</time>
      </trkpt>
      <trkpt lat="43.53615" lon="5.57188">
        <ele>723.1</ele>
        <time>2023-05-28T10:40:24Z</time>
      </trkpt>
      <trkpt lat="43.53615" lon="5.57187">
        <ele>723</ele>
        <time>2023-05-28T10:40:25Z</time>
      </trkpt>
      <trkpt lat="43.53616" lon="5.57187">
        <ele>722.9</ele>
        <time>2023-05-28T10:40:26Z</time>
      </trkpt>
      <trkpt lat="43.53616" lon="5.57186">
        <ele>722.9</ele>
        <time>2023-05-28T10:40:27Z</time>
      </trkpt>
      <trkpt lat="43.53616" lon="5.57186">
        <ele>722.8</ele>
        <time>2023-05-28T10:40:28Z</time>
      </trkpt>
      <trkpt lat="43.53617" lon="5.57186">
        <ele>722.7</ele>
        <time>2023-05-28T10:40:29Z</time>
      </trkpt>
      <trkpt lat="43.53617" lon="5.57186">
        <ele>722.6</ele>
        <time>2023-05-28T10:40:30Z</time>
      </trkpt>
      <trkpt lat="43.53617" lon="5.57185">
        <ele>722.5</ele>
        <time>2023-05-28T10:40:31Z</time>
      </trkpt>
      <trkpt lat="43.53617" lon="5.57185">
        <ele>722.3</ele>
        <time>2023-05-28T10:40:32Z</time>
      </trkpt>
      <trkpt lat="43.53617" lon="5.57185">
        <ele>722.2</ele>
        <time>2023-05-28T10:40:33Z</time>
      </trkpt>
      <trkpt lat="43.53618" lon="5.57185">
        <ele>722.2</ele>
        <time>2023-05-28T10:40:34Z</time>
      </trkpt>
      <trkpt lat="43.53618" lon="5.57185">
        <ele>722.2</ele>
        <time>2023-05-28T10:40:35Z</time>
      </trkpt>
      <trkpt lat="43.53618" lon="5.57185">
        <ele>722.1</ele>
        <time>2023-05-28T10:40:36Z</time>
      </trkpt>
      <trkpt lat="43.53619" lon="5.57185">
        <ele>722.1</ele>
        <time>2023-05-28T10:40:37Z</time>
      </trkpt>
      <trkpt lat="43.53619" lon="5.57185">
        <ele>722.1</ele>
        <time>2023-05-28T10:40:38Z</time>
      </trkpt>
      <trkpt lat="43.53619" lon="5.57185">
        <ele>722.1</ele>
        <time>2023-05-28T10:40:39Z</time>
      </trkpt>
      <trkpt lat="43.53619" lon="5.57185">
        <ele>722</ele>
        <time>2023-05-28T10:40:40Z</time>
      </trkpt>
      <trkpt lat="43.53619" lon="5.57185">
        <ele>722</ele>
        <time>2023-05-28T10:40:41Z</time>
      </trkpt>
      <trkpt lat="43.53619" lon="5.57185">
        <ele>721.8</ele>
        <time>2023-05-28T10:40:42Z</time>
      </trkpt>
      <trkpt lat="43.5362" lon="5.57184">
        <ele>721.8</ele>
        <time>2023-05-28T10:40:43Z</time>
      </trkpt>
      <trkpt lat="43.5362" lon="5.57184">
        <ele>721.7</ele>
        <time>2023-05-28T10:40:44Z</time>
      </trkpt>
      <trkpt lat="43.53621" lon="5.57185">
        <ele>721.5</ele>
        <time>2023-05-28T10:40:45Z</time>
      </trkpt>
      <trkpt lat="43.53621" lon="5.57185">
        <ele>721.4</ele>
        <time>2023-05-28T10:40:46Z</time>
      </trkpt>
      <trkpt lat="43.53621" lon="5.57185">
        <ele>721.3</ele>
        <time>2023-05-28T10:40:47Z</time>
      </trkpt>
      <trkpt lat="43.53621" lon="5.57185">
        <ele>721.2</ele>
        <time>2023-05-28T10:40:48Z</time>
      </trkpt>
      <trkpt lat="43.53621" lon="5.57184">
        <ele>721.1</ele>
        <time>2023-05-28T10:40:49Z</time>
      </trkpt>
      <trkpt lat="43.53621" lon="5.57185">
        <ele>721</ele>
        <time>2023-05-28T10:40:50Z</time>
      </trkpt>
      <trkpt lat="43.53622" lon="5.57184">
        <ele>720.8</ele>
        <time>2023-05-28T10:40:51Z</time>
      </trkpt>
      <trkpt lat="43.53622" lon="5.57184">
        <ele>720.6</ele>
        <time>2023-05-28T10:40:52Z</time>
      </trkpt>
      <trkpt lat="43.53623" lon="5.57184">
        <ele>720.5</ele>
        <time>2023-05-28T10:40:53Z</time>
      </trkpt>
      <trkpt lat="43.53623" lon="5.57184">
        <ele>720.4</ele>
        <time>2023-05-28T10:40:54Z</time>
      </trkpt>
      <trkpt lat="43.53623" lon="5.57183">
        <ele>720.2</ele>
        <time>2023-05-28T10:40:55Z</time>
      </trkpt>
      <trkpt lat="43.53623" lon="5.57183">
        <ele>720.1</ele>
        <time>2023-05-28T10:40:56Z</time>
      </trkpt>
      <trkpt lat="43.53624" lon="5.57183">
        <ele>719.9</ele>
        <time>2023-05-28T10:40:57Z</time>
      </trkpt>
      <trkpt lat="43.53625" lon="5.57183">
        <ele>719.8</ele>
        <time>2023-05-28T10:40:58Z</time>
      </trkpt>
      <trkpt lat="43.53625" lon="5.57183">
        <ele>719.7</ele>
        <time>2023-05-28T10:40:59Z</time>
      </trkpt>
      <trkpt lat="43.53626" lon="5.57182">
        <ele>719.7</ele>
        <time>2023-05-28T10:41:00Z</time>
      </trkpt>
      <trkpt lat="43.53627" lon="5.57181">
        <ele>719.4</ele>
        <time>2023-05-28T10:41:01Z</time>
      </trkpt>
      <trkpt lat="43.53627" lon="5.57179">
        <ele>719.2</ele>
        <time>2023-05-28T10:41:02Z</time>
      </trkpt>
      <trkpt lat="43.53627" lon="5.57179">
        <ele>719.2</ele>
        <time>2023-05-28T10:41:03Z</time>
      </trkpt>
      <trkpt lat="43.53627" lon="5.57178">
        <ele>719</ele>
        <time>2023-05-28T10:41:04Z</time>
      </trkpt>
      <trkpt lat="43.53627" lon="5.57177">
        <ele>718.9</ele>
        <time>2023-05-28T10:41:05Z</time>
      </trkpt>
      <trkpt lat="43.53628" lon="5.57177">
        <ele>718.9</ele>
        <time>2023-05-28T10:41:06Z</time>
      </trkpt>
      <trkpt lat="43.53628" lon="5.57176">
        <ele>718.8</ele>
        <time>2023-05-28T10:41:07Z</time>
      </trkpt>
      <trkpt lat="43.53628" lon="5.57176">
        <ele>718.8</ele>
        <time>2023-05-28T10:41:08Z</time>
      </trkpt>
      <trkpt lat="43.53628" lon="5.57176">
        <ele>718.8</ele>
        <time>2023-05-28T10:41:09Z</time>
      </trkpt>
      <trkpt lat="43.53628" lon="5.57176">
        <ele>718.6</ele>
        <time>2023-05-28T10:41:10Z</time>
      </trkpt>
      <trkpt lat="43.53628" lon="5.57176">
        <ele>718.6</ele>
        <time>2023-05-28T10:41:11Z</time>
      </trkpt>
      <trkpt lat="43.53628" lon="5.57176">
        <ele>718.6</ele>
        <time>2023-05-28T10:41:12Z</time>
      </trkpt>
      <trkpt lat="43.53628" lon="5.57175">
        <ele>718.6</ele>
        <time>2023-05-28T10:41:13Z</time>
      </trkpt>
      <trkpt lat="43.53628" lon="5.57175">
        <ele>718.5</ele>
        <time>2023-05-28T10:41:14Z</time>
      </trkpt>
      <trkpt lat="43.53628" lon="5.57175">
        <ele>718.5</ele>
        <time>2023-05-28T10:41:15Z</time>
      </trkpt>
      <trkpt lat="43.53628" lon="5.57175">
        <ele>718.5</ele>
        <time>2023-05-28T10:41:16Z</time>
      </trkpt>
      <trkpt lat="43.53628" lon="5.57175">
        <ele>718.4</ele>
        <time>2023-05-28T10:41:17Z</time>
      </trkpt>
      <trkpt lat="43.53628" lon="5.57174">
        <ele>718.3</ele>
        <time>2023-05-28T10:41:18Z</time>
      </trkpt>
      <trkpt lat="43.53629" lon="5.57174">
        <ele>718.3</ele>
        <time>2023-05-28T10:41:19Z</time>
      </trkpt>
      <trkpt lat="43.53629" lon="5.57174">
        <ele>718.2</ele>
        <time>2023-05-28T10:41:20Z</time>
      </trkpt>
      <trkpt lat="43.53629" lon="5.57174">
        <ele>718.2</ele>
        <time>2023-05-28T10:41:21Z</time>
      </trkpt>
      <trkpt lat="43.53629" lon="5.57174">
        <ele>718.2</ele>
        <time>2023-05-28T10:41:22Z</time>
      </trkpt>
      <trkpt lat="43.53629" lon="5.57173">
        <ele>718.2</ele>
        <time>2023-05-28T10:41:23Z</time>
      </trkpt>
      <trkpt lat="43.53629" lon="5.57173">
        <ele>718.1</ele>
        <time>2023-05-28T10:41:24Z</time>
      </trkpt>
      <trkpt lat="43.53629" lon="5.57173">
        <ele>718</ele>
        <time>2023-05-28T10:41:25Z</time>
      </trkpt>
      <trkpt lat="43.5363" lon="5.57173">
        <ele>717.8</ele>
        <time>2023-05-28T10:41:26Z</time>
      </trkpt>
      <trkpt lat="43.53629" lon="5.57172">
        <ele>717.6</ele>
        <time>2023-05-28T10:41:27Z</time>
      </trkpt>
      <trkpt lat="43.53629" lon="5.57171">
        <ele>717.4</ele>
        <time>2023-05-28T10:41:28Z</time>
      </trkpt>
      <trkpt lat="43.53629" lon="5.57171">
        <ele>717.2</ele>
        <time>2023-05-28T10:41:29Z</time>
      </trkpt>
      <trkpt lat="43.53629" lon="5.5717">
        <ele>717</ele>
        <time>2023-05-28T10:41:30Z</time>
      </trkpt>
      <trkpt lat="43.53629" lon="5.57169">
        <ele>716.9</ele>
        <time>2023-05-28T10:41:31Z</time>
      </trkpt>
      <trkpt lat="43.5363" lon="5.57168">
        <ele>716.7</ele>
        <time>2023-05-28T10:41:32Z</time>
      </trkpt>
      <trkpt lat="43.5363" lon="5.57168">
        <ele>716.6</ele>
        <time>2023-05-28T10:41:33Z</time>
      </trkpt>
      <trkpt lat="43.5363" lon="5.57167">
        <ele>716.4</ele>
        <time>2023-05-28T10:41:34Z</time>
      </trkpt>
      <trkpt lat="43.5363" lon="5.57167">
        <ele>716.2</ele>
        <time>2023-05-28T10:41:35Z</time>
      </trkpt>
      <trkpt lat="43.53631" lon="5.57167">
        <ele>715.9</ele>
        <time>2023-05-28T10:41:36Z</time>
      </trkpt>
      <trkpt lat="43.53631" lon="5.57167">
        <ele>715.8</ele>
        <time>2023-05-28T10:41:37Z</time>
      </trkpt>
      <trkpt lat="43.53631" lon="5.57167">
        <ele>715.7</ele>
        <time>2023-05-28T10:41:38Z</time>
      </trkpt>
      <trkpt lat="43.53631" lon="5.57167">
        <ele>715.6</ele>
        <time>2023-05-28T10:41:39Z</time>
      </trkpt>
      <trkpt lat="43.53631" lon="5.57167">
        <ele>715.5</ele>
        <time>2023-05-28T10:41:40Z</time>
      </trkpt>
      <trkpt lat="43.53632" lon="5.57167">
        <ele>715.4</ele>
        <time>2023-05-28T10:41:41Z</time>
      </trkpt>
      <trkpt lat="43.53632" lon="5.57167">
        <ele>715.2</ele>
        <time>2023-05-28T10:41:42Z</time>
      </trkpt>
      <trkpt lat="43.53632" lon="5.57167">
        <ele>715</ele>
        <time>2023-05-28T10:41:43Z</time>
      </trkpt>
      <trkpt lat="43.53633" lon="5.57166">
        <ele>714.9</ele>
        <time>2023-05-28T10:41:44Z</time>
      </trkpt>
      <trkpt lat="43.53633" lon="5.57166">
        <ele>714.8</ele>
        <time>2023-05-28T10:41:45Z</time>
      </trkpt>
      <trkpt lat="43.53633" lon="5.57166">
        <ele>714.7</ele>
        <time>2023-05-28T10:41:46Z</time>
      </trkpt>
      <trkpt lat="43.53633" lon="5.57166">
        <ele>714.6</ele>
        <time>2023-05-28T10:41:47Z</time>
      </trkpt>
      <trkpt lat="43.53634" lon="5.57166">
        <ele>714.5</ele>
        <time>2023-05-28T10:41:48Z</time>
      </trkpt>
      <trkpt lat="43.53635" lon="5.57167">
        <ele>714.3</ele>
        <time>2023-05-28T10:41:49Z</time>
      </trkpt>
      <trkpt lat="43.53636" lon="5.57167">
        <ele>714.2</ele>
        <time>2023-05-28T10:41:50Z</time>
      </trkpt>
      <trkpt lat="43.53636" lon="5.57167">
        <ele>714.1</ele>
        <time>2023-05-28T10:41:51Z</time>
      </trkpt>
      <trkpt lat="43.53637" lon="5.57167">
        <ele>714</ele>
        <time>2023-05-28T10:41:52Z</time>
      </trkpt>
      <trkpt lat="43.53637" lon="5.57167">
        <ele>713.9</ele>
        <time>2023-05-28T10:41:53Z</time>
      </trkpt>
      <trkpt lat="43.53637" lon="5.57167">
        <ele>713.8</ele>
        <time>2023-05-28T10:41:54Z</time>
      </trkpt>
      <trkpt lat="43.53637" lon="5.57166">
        <ele>713.6</ele>
        <time>2023-05-28T10:41:55Z</time>
      </trkpt>
      <trkpt lat="43.53638" lon="5.57166">
        <ele>713.3</ele>
        <time>2023-05-28T10:41:56Z</time>
      </trkpt>
      <trkpt lat="43.53638" lon="5.57166">
        <ele>713</ele>
        <time>2023-05-28T10:41:57Z</time>
      </trkpt>
      <trkpt lat="43.53638" lon="5.57166">
        <ele>712.9</ele>
        <time>2023-05-28T10:41:58Z</time>
      </trkpt>
      <trkpt lat="43.53638" lon="5.57166">
        <ele>712.8</ele>
        <time>2023-05-28T10:41:59Z</time>
      </trkpt>
      <trkpt lat="43.53639" lon="5.57166">
        <ele>712.7</ele>
        <time>2023-05-28T10:42:00Z</time>
      </trkpt>
      <trkpt lat="43.5364" lon="5.57166">
        <ele>712.5</ele>
        <time>2023-05-28T10:42:01Z</time>
      </trkpt>
      <trkpt lat="43.53641" lon="5.57166">
        <ele>712.3</ele>
        <time>2023-05-28T10:42:02Z</time>
      </trkpt>
      <trkpt lat="43.53641" lon="5.57165">
        <ele>712.1</ele>
        <time>2023-05-28T10:42:03Z</time>
      </trkpt>
      <trkpt lat="43.53642" lon="5.57165">
        <ele>711.8</ele>
        <time>2023-05-28T10:42:04Z</time>
      </trkpt>
      <trkpt lat="43.53642" lon="5.57165">
        <ele>711.7</ele>
        <time>2023-05-28T10:42:05Z</time>
      </trkpt>
      <trkpt lat="43.53643" lon="5.57166">
        <ele>711.5</ele>
        <time>2023-05-28T10:42:06Z</time>
      </trkpt>
      <trkpt lat="43.53643" lon="5.57166">
        <ele>711.6</ele>
        <time>2023-05-28T10:42:07Z</time>
      </trkpt>
      <trkpt lat="43.53644" lon="5.57167">
        <ele>711.6</ele>
        <time>2023-05-28T10:42:08Z</time>
      </trkpt>
      <trkpt lat="43.53645" lon="5.57167">
        <ele>711.5</ele>
        <time>2023-05-28T10:42:09Z</time>
      </trkpt>
      <trkpt lat="43.53645" lon="5.57168">
        <ele>711.5</ele>
        <time>2023-05-28T10:42:10Z</time>
      </trkpt>
      <trkpt lat="43.53646" lon="5.57167">
        <ele>711.3</ele>
        <time>2023-05-28T10:42:11Z</time>
      </trkpt>
      <trkpt lat="43.53646" lon="5.57167">
        <ele>711.2</ele>
        <time>2023-05-28T10:42:12Z</time>
      </trkpt>
      <trkpt lat="43.53647" lon="5.57166">
        <ele>711</ele>
        <time>2023-05-28T10:42:13Z</time>
      </trkpt>
      <trkpt lat="43.53648" lon="5.57165">
        <ele>710.6</ele>
        <time>2023-05-28T10:42:14Z</time>
      </trkpt>
      <trkpt lat="43.53648" lon="5.57164">
        <ele>710.3</ele>
        <time>2023-05-28T10:42:15Z</time>
      </trkpt>
      <trkpt lat="43.53649" lon="5.57164">
        <ele>709.9</ele>
        <time>2023-05-28T10:42:16Z</time>
      </trkpt>
      <trkpt lat="43.5365" lon="5.57164">
        <ele>709.5</ele>
        <time>2023-05-28T10:42:17Z</time>
      </trkpt>
      <trkpt lat="43.53651" lon="5.57163">
        <ele>709</ele>
        <time>2023-05-28T10:42:18Z</time>
      </trkpt>
      <trkpt lat="43.53652" lon="5.57163">
        <ele>708.6</ele>
        <time>2023-05-28T10:42:19Z</time>
      </trkpt>
      <trkpt lat="43.53652" lon="5.57163">
        <ele>708.2</ele>
        <time>2023-05-28T10:42:20Z</time>
      </trkpt>
      <trkpt lat="43.53653" lon="5.57163">
        <ele>707.7</ele>
        <time>2023-05-28T10:42:21Z</time>
      </trkpt>
      <trkpt lat="43.53654" lon="5.57162">
        <ele>707.1</ele>
        <time>2023-05-28T10:42:22Z</time>
      </trkpt>
      <trkpt lat="43.53654" lon="5.57162">
        <ele>706.6</ele>
        <time>2023-05-28T10:42:23Z</time>
      </trkpt>
      <trkpt lat="43.53655" lon="5.57161">
        <ele>706.2</ele>
        <time>2023-05-28T10:42:24Z</time>
      </trkpt>
      <trkpt lat="43.53655" lon="5.5716">
        <ele>705.8</ele>
        <time>2023-05-28T10:42:25Z</time>
      </trkpt>
      <trkpt lat="43.53656" lon="5.57159">
        <ele>705.4</ele>
        <time>2023-05-28T10:42:26Z</time>
      </trkpt>
      <trkpt lat="43.53656" lon="5.57158">
        <ele>705.1</ele>
        <time>2023-05-28T10:42:27Z</time>
      </trkpt>
      <trkpt lat="43.53656" lon="5.57157">
        <ele>704.9</ele>
        <time>2023-05-28T10:42:28Z</time>
      </trkpt>
      <trkpt lat="43.53656" lon="5.57156">
        <ele>704.5</ele>
        <time>2023-05-28T10:42:29Z</time>
      </trkpt>
      <trkpt lat="43.53656" lon="5.57155">
        <ele>704.3</ele>
        <time>2023-05-28T10:42:30Z</time>
      </trkpt>
      <trkpt lat="43.53656" lon="5.57154">
        <ele>704</ele>
        <time>2023-05-28T10:42:31Z</time>
      </trkpt>
      <trkpt lat="43.53656" lon="5.57153">
        <ele>703.8</ele>
        <time>2023-05-28T10:42:32Z</time>
      </trkpt>
      <trkpt lat="43.53656" lon="5.57152">
        <ele>703.7</ele>
        <time>2023-05-28T10:42:33Z</time>
      </trkpt>
      <trkpt lat="43.53656" lon="5.5715">
        <ele>703.5</ele>
        <time>2023-05-28T10:42:34Z</time>
      </trkpt>
      <trkpt lat="43.53656" lon="5.57149">
        <ele>703.4</ele>
        <time>2023-05-28T10:42:35Z</time>
      </trkpt>
      <trkpt lat="43.53656" lon="5.57149">
        <ele>703.3</ele>
        <time>2023-05-28T10:42:36Z</time>
      </trkpt>
      <trkpt lat="43.53656" lon="5.57148">
        <ele>703.2</ele>
        <time>2023-05-28T10:42:37Z</time>
      </trkpt>
      <trkpt lat="43.53656" lon="5.57147">
        <ele>703.1</ele>
        <time>2023-05-28T10:42:38Z</time>
      </trkpt>
      <trkpt lat="43.53656" lon="5.57145">
        <ele>703</ele>
        <time>2023-05-28T10:42:39Z</time>
      </trkpt>
      <trkpt lat="43.53656" lon="5.57144">
        <ele>703</ele>
        <time>2023-05-28T10:42:40Z</time>
      </trkpt>
      <trkpt lat="43.53657" lon="5.57143">
        <ele>702.9</ele>
        <time>2023-05-28T10:42:41Z</time>
      </trkpt>
      <trkpt lat="43.53657" lon="5.57141">
        <ele>702.9</ele>
        <time>2023-05-28T10:42:42Z</time>
      </trkpt>
      <trkpt lat="43.53658" lon="5.5714">
        <ele>702.8</ele>
        <time>2023-05-28T10:42:43Z</time>
      </trkpt>
      <trkpt lat="43.53659" lon="5.57139">
        <ele>702.8</ele>
        <time>2023-05-28T10:42:44Z</time>
      </trkpt>
      <trkpt lat="43.5366" lon="5.57138">
        <ele>702.6</ele>
        <time>2023-05-28T10:42:45Z</time>
      </trkpt>
      <trkpt lat="43.5366" lon="5.57136">
        <ele>702.4</ele>
        <time>2023-05-28T10:42:46Z</time>
      </trkpt>
      <trkpt lat="43.5366" lon="5.57135">
        <ele>702.4</ele>
        <time>2023-05-28T10:42:47Z</time>
      </trkpt>
      <trkpt lat="43.5366" lon="5.57134">
        <ele>702.1</ele>
        <time>2023-05-28T10:42:48Z</time>
      </trkpt>
      <trkpt lat="43.5366" lon="5.57133">
        <ele>701.9</ele>
        <time>2023-05-28T10:42:49Z</time>
      </trkpt>
      <trkpt lat="43.5366" lon="5.57132">
        <ele>701.7</ele>
        <time>2023-05-28T10:42:50Z</time>
      </trkpt>
      <trkpt lat="43.5366" lon="5.57131">
        <ele>701.6</ele>
        <time>2023-05-28T10:42:51Z</time>
      </trkpt>
      <trkpt lat="43.53661" lon="5.57129">
        <ele>701.4</ele>
        <time>2023-05-28T10:42:52Z</time>
      </trkpt>
      <trkpt lat="43.53661" lon="5.57127">
        <ele>701.2</ele>
        <time>2023-05-28T10:42:53Z</time>
      </trkpt>
      <trkpt lat="43.53661" lon="5.57126">
        <ele>701</ele>
        <time>2023-05-28T10:42:54Z</time>
      </trkpt>
      <trkpt lat="43.53661" lon="5.57125">
        <ele>701</ele>
        <time>2023-05-28T10:42:55Z</time>
      </trkpt>
      <trkpt lat="43.5366" lon="5.57125">
        <ele>701</ele>
        <time>2023-05-28T10:42:56Z</time>
      </trkpt>
      <trkpt lat="43.5366" lon="5.57124">
        <ele>701.2</ele>
        <time>2023-05-28T10:42:57Z</time>
      </trkpt>
      <trkpt lat="43.5366" lon="5.57123">
        <ele>701.2</ele>
        <time>2023-05-28T10:42:58Z</time>
      </trkpt>
      <trkpt lat="43.5366" lon="5.57121">
        <ele>701.3</ele>
        <time>2023-05-28T10:42:59Z</time>
      </trkpt>
      <trkpt lat="43.5366" lon="5.5712">
        <ele>701.3</ele>
        <time>2023-05-28T10:43:00Z</time>
      </trkpt>
      <trkpt lat="43.53659" lon="5.57119">
        <ele>701.3</ele>
        <time>2023-05-28T10:43:01Z</time>
      </trkpt>
      <trkpt lat="43.53659" lon="5.57118">
        <ele>701.3</ele>
        <time>2023-05-28T10:43:02Z</time>
      </trkpt>
      <trkpt lat="43.53659" lon="5.57117">
        <ele>701.3</ele>
        <time>2023-05-28T10:43:03Z</time>
      </trkpt>
      <trkpt lat="43.53659" lon="5.57116">
        <ele>701.3</ele>
        <time>2023-05-28T10:43:04Z</time>
      </trkpt>
      <trkpt lat="43.53659" lon="5.57116">
        <ele>701.3</ele>
        <time>2023-05-28T10:43:05Z</time>
      </trkpt>
      <trkpt lat="43.53658" lon="5.57115">
        <ele>701.4</ele>
        <time>2023-05-28T10:43:06Z</time>
      </trkpt>
      <trkpt lat="43.53658" lon="5.57114">
        <ele>701.3</ele>
        <time>2023-05-28T10:43:07Z</time>
      </trkpt>
      <trkpt lat="43.53659" lon="5.57114">
        <ele>701.2</ele>
        <time>2023-05-28T10:43:08Z</time>
      </trkpt>
      <trkpt lat="43.53659" lon="5.57113">
        <ele>701.2</ele>
        <time>2023-05-28T10:43:09Z</time>
      </trkpt>
      <trkpt lat="43.53659" lon="5.57112">
        <ele>701.2</ele>
        <time>2023-05-28T10:43:10Z</time>
      </trkpt>
      <trkpt lat="43.5366" lon="5.57111">
        <ele>701</ele>
        <time>2023-05-28T10:43:11Z</time>
      </trkpt>
      <trkpt lat="43.5366" lon="5.5711">
        <ele>700.9</ele>
        <time>2023-05-28T10:43:12Z</time>
      </trkpt>
      <trkpt lat="43.5366" lon="5.57109">
        <ele>700.6</ele>
        <time>2023-05-28T10:43:13Z</time>
      </trkpt>
      <trkpt lat="43.5366" lon="5.57108">
        <ele>700.4</ele>
        <time>2023-05-28T10:43:14Z</time>
      </trkpt>
      <trkpt lat="43.5366" lon="5.57107">
        <ele>700.4</ele>
        <time>2023-05-28T10:43:15Z</time>
      </trkpt>
      <trkpt lat="43.53659" lon="5.57107">
        <ele>700.2</ele>
        <time>2023-05-28T10:43:16Z</time>
      </trkpt>
      <trkpt lat="43.53659" lon="5.57106">
        <ele>700.1</ele>
        <time>2023-05-28T10:43:17Z</time>
      </trkpt>
      <trkpt lat="43.53659" lon="5.57105">
        <ele>700.1</ele>
        <time>2023-05-28T10:43:18Z</time>
      </trkpt>
      <trkpt lat="43.53659" lon="5.57105">
        <ele>700</ele>
        <time>2023-05-28T10:43:19Z</time>
      </trkpt>
      <trkpt lat="43.53659" lon="5.57104">
        <ele>699.8</ele>
        <time>2023-05-28T10:43:20Z</time>
      </trkpt>
      <trkpt lat="43.53659" lon="5.57104">
        <ele>699.8</ele>
        <time>2023-05-28T10:43:21Z</time>
      </trkpt>
      <trkpt lat="43.5366" lon="5.57103">
        <ele>699.7</ele>
        <time>2023-05-28T10:43:22Z</time>
      </trkpt>
      <trkpt lat="43.5366" lon="5.57102">
        <ele>699.7</ele>
        <time>2023-05-28T10:43:23Z</time>
      </trkpt>
      <trkpt lat="43.5366" lon="5.57102">
        <ele>699.5</ele>
        <time>2023-05-28T10:43:24Z</time>
      </trkpt>
      <trkpt lat="43.5366" lon="5.57101">
        <ele>699.4</ele>
        <time>2023-05-28T10:43:25Z</time>
      </trkpt>
      <trkpt lat="43.5366" lon="5.57101">
        <ele>699.2</ele>
        <time>2023-05-28T10:43:26Z</time>
      </trkpt>
      <trkpt lat="43.5366" lon="5.571">
        <ele>699</ele>
        <time>2023-05-28T10:43:27Z</time>
      </trkpt>
      <trkpt lat="43.5366" lon="5.571">
        <ele>698.9</ele>
        <time>2023-05-28T10:43:28Z</time>
      </trkpt>
      <trkpt lat="43.5366" lon="5.57099">
        <ele>698.7</ele>
        <time>2023-05-28T10:43:29Z</time>
      </trkpt>
      <trkpt lat="43.5366" lon="5.57099">
        <ele>698.5</ele>
        <time>2023-05-28T10:43:30Z</time>
      </trkpt>
      <trkpt lat="43.5366" lon="5.57098">
        <ele>698.4</ele>
        <time>2023-05-28T10:43:31Z</time>
      </trkpt>
      <trkpt lat="43.5366" lon="5.57097">
        <ele>698.2</ele>
        <time>2023-05-28T10:43:32Z</time>
      </trkpt>
      <trkpt lat="43.5366" lon="5.57096">
        <ele>698.1</ele>
        <time>2023-05-28T10:43:33Z</time>
      </trkpt>
      <trkpt lat="43.5366" lon="5.57095">
        <ele>697.9</ele>
        <time>2023-05-28T10:43:34Z</time>
      </trkpt>
      <trkpt lat="43.53661" lon="5.57094">
        <ele>697.7</ele>
        <time>2023-05-28T10:43:35Z</time>
      </trkpt>
      <trkpt lat="43.53661" lon="5.57093">
        <ele>697.5</ele>
        <time>2023-05-28T10:43:36Z</time>
      </trkpt>
      <trkpt lat="43.53661" lon="5.57092">
        <ele>697.4</ele>
        <time>2023-05-28T10:43:37Z</time>
      </trkpt>
      <trkpt lat="43.53661" lon="5.57091">
        <ele>697.3</ele>
        <time>2023-05-28T10:43:38Z</time>
      </trkpt>
      <trkpt lat="43.53662" lon="5.5709">
        <ele>697.2</ele>
        <time>2023-05-28T10:43:39Z</time>
      </trkpt>
      <trkpt lat="43.53662" lon="5.57089">
        <ele>697</ele>
        <time>2023-05-28T10:43:40Z</time>
      </trkpt>
      <trkpt lat="43.53662" lon="5.57088">
        <ele>696.7</ele>
        <time>2023-05-28T10:43:41Z</time>
      </trkpt>
      <trkpt lat="43.53662" lon="5.57087">
        <ele>696.4</ele>
        <time>2023-05-28T10:43:42Z</time>
      </trkpt>
      <trkpt lat="43.53662" lon="5.57086">
        <ele>696.3</ele>
        <time>2023-05-28T10:43:43Z</time>
      </trkpt>
      <trkpt lat="43.53662" lon="5.57086">
        <ele>696</ele>
        <time>2023-05-28T10:43:44Z</time>
      </trkpt>
      <trkpt lat="43.53662" lon="5.57084">
        <ele>695.7</ele>
        <time>2023-05-28T10:43:45Z</time>
      </trkpt>
      <trkpt lat="43.53663" lon="5.57083">
        <ele>695.5</ele>
        <time>2023-05-28T10:43:46Z</time>
      </trkpt>
      <trkpt lat="43.53663" lon="5.57083">
        <ele>695.3</ele>
        <time>2023-05-28T10:43:47Z</time>
      </trkpt>
      <trkpt lat="43.53663" lon="5.57082">
        <ele>695.4</ele>
        <time>2023-05-28T10:43:48Z</time>
      </trkpt>
      <trkpt lat="43.53663" lon="5.57082">
        <ele>695.3</ele>
        <time>2023-05-28T10:43:49Z</time>
      </trkpt>
      <trkpt lat="43.53662" lon="5.57081">
        <ele>695.2</ele>
        <time>2023-05-28T10:43:50Z</time>
      </trkpt>
      <trkpt lat="43.53662" lon="5.57081">
        <ele>695.1</ele>
        <time>2023-05-28T10:43:51Z</time>
      </trkpt>
      <trkpt lat="43.53662" lon="5.5708">
        <ele>694.9</ele>
        <time>2023-05-28T10:43:52Z</time>
      </trkpt>
      <trkpt lat="43.53662" lon="5.5708">
        <ele>694.7</ele>
        <time>2023-05-28T10:43:53Z</time>
      </trkpt>
      <trkpt lat="43.53662" lon="5.57081">
        <ele>694.5</ele>
        <time>2023-05-28T10:43:54Z</time>
      </trkpt>
      <trkpt lat="43.53662" lon="5.57081">
        <ele>694.4</ele>
        <time>2023-05-28T10:43:55Z</time>
      </trkpt>
      <trkpt lat="43.53662" lon="5.5708">
        <ele>694.4</ele>
        <time>2023-05-28T10:43:56Z</time>
      </trkpt>
      <trkpt lat="43.53661" lon="5.5708">
        <ele>694.2</ele>
        <time>2023-05-28T10:43:57Z</time>
      </trkpt>
      <trkpt lat="43.53661" lon="5.5708">
        <ele>694.1</ele>
        <time>2023-05-28T10:43:58Z</time>
      </trkpt>
      <trkpt lat="43.53661" lon="5.5708">
        <ele>694.1</ele>
        <time>2023-05-28T10:43:59Z</time>
      </trkpt>
      <trkpt lat="43.53661" lon="5.5708">
        <ele>694.1</ele>
        <time>2023-05-28T10:44:00Z</time>
      </trkpt>
      <trkpt lat="43.53662" lon="5.5708">
        <ele>694</ele>
        <time>2023-05-28T10:44:01Z</time>
      </trkpt>
      <trkpt lat="43.53662" lon="5.57079">
        <ele>694</ele>
        <time>2023-05-28T10:44:02Z</time>
      </trkpt>
      <trkpt lat="43.53662" lon="5.57079">
        <ele>693.9</ele>
        <time>2023-05-28T10:44:03Z</time>
      </trkpt>
      <trkpt lat="43.53661" lon="5.57079">
        <ele>694</ele>
        <time>2023-05-28T10:44:04Z</time>
      </trkpt>
      <trkpt lat="43.53661" lon="5.57079">
        <ele>694</ele>
        <time>2023-05-28T10:44:05Z</time>
      </trkpt>
      <trkpt lat="43.53661" lon="5.57079">
        <ele>694.1</ele>
        <time>2023-05-28T10:44:06Z</time>
      </trkpt>
      <trkpt lat="43.53661" lon="5.57079">
        <ele>694</ele>
        <time>2023-05-28T10:44:07Z</time>
      </trkpt>
      <trkpt lat="43.53661" lon="5.57079">
        <ele>693.9</ele>
        <time>2023-05-28T10:44:08Z</time>
      </trkpt>
      <trkpt lat="43.53661" lon="5.57079">
        <ele>693.8</ele>
        <time>2023-05-28T10:44:09Z</time>
      </trkpt>
      <trkpt lat="43.53661" lon="5.57079">
        <ele>693.8</ele>
        <time>2023-05-28T10:44:10Z</time>
      </trkpt>
      <trkpt lat="43.53661" lon="5.57079">
        <ele>693.7</ele>
        <time>2023-05-28T10:44:11Z</time>
      </trkpt>
      <trkpt lat="43.53661" lon="5.57079">
        <ele>693.8</ele>
        <time>2023-05-28T10:44:12Z</time>
      </trkpt>
      <trkpt lat="43.53661" lon="5.57079">
        <ele>693.8</ele>
        <time>2023-05-28T10:44:13Z</time>
      </trkpt>
      <trkpt lat="43.5366" lon="5.57079">
        <ele>693.9</ele>
        <time>2023-05-28T10:44:14Z</time>
      </trkpt>
      <trkpt lat="43.5366" lon="5.57079">
        <ele>693.9</ele>
        <time>2023-05-28T10:44:15Z</time>
      </trkpt>
      <trkpt lat="43.5366" lon="5.57078">
        <ele>693.9</ele>
        <time>2023-05-28T10:44:16Z</time>
      </trkpt>
      <trkpt lat="43.5366" lon="5.57078">
        <ele>693.9</ele>
        <time>2023-05-28T10:44:17Z</time>
      </trkpt>
      <trkpt lat="43.5366" lon="5.57078">
        <ele>693.8</ele>
        <time>2023-05-28T10:44:18Z</time>
      </trkpt>
      <trkpt lat="43.5366" lon="5.57078">
        <ele>693.8</ele>
        <time>2023-05-28T10:44:19Z</time>
      </trkpt>
      <trkpt lat="43.5366" lon="5.57078">
        <ele>693.9</ele>
        <time>2023-05-28T10:44:20Z</time>
      </trkpt>
      <trkpt lat="43.5366" lon="5.57078">
        <ele>693.9</ele>
        <time>2023-05-28T10:44:21Z</time>
      </trkpt>
      <trkpt lat="43.5366" lon="5.57078">
        <ele>693.9</ele>
        <time>2023-05-28T10:44:22Z</time>
      </trkpt>
      <trkpt lat="43.5366" lon="5.57078">
        <ele>693.9</ele>
        <time>2023-05-28T10:44:23Z</time>
      </trkpt>
      <trkpt lat="43.5366" lon="5.57078">
        <ele>694</ele>
        <time>2023-05-28T10:44:24Z</time>
      </trkpt>
      <trkpt lat="43.5366" lon="5.57079">
        <ele>694</ele>
        <time>2023-05-28T10:44:25Z</time>
      </trkpt>
      <trkpt lat="43.5366" lon="5.57079">
        <ele>694.1</ele>
        <time>2023-05-28T10:44:26Z</time>
      </trkpt>
      <trkpt lat="43.5366" lon="5.57079">
        <ele>694</ele>
        <time>2023-05-28T10:44:27Z</time>
      </trkpt>
      <trkpt lat="43.5366" lon="5.57079">
        <ele>693.9</ele>
        <time>2023-05-28T10:44:28Z</time>
      </trkpt>
      <trkpt lat="43.5366" lon="5.57079">
        <ele>693.9</ele>
        <time>2023-05-28T10:44:29Z</time>
      </trkpt>
      <trkpt lat="43.5366" lon="5.57079">
        <ele>693.7</ele>
        <time>2023-05-28T10:44:30Z</time>
      </trkpt>
      <trkpt lat="43.5366" lon="5.57079">
        <ele>693.5</ele>
        <time>2023-05-28T10:44:31Z</time>
      </trkpt>
      <trkpt lat="43.5366" lon="5.57078">
        <ele>693.3</ele>
        <time>2023-05-28T10:44:32Z</time>
      </trkpt>
      <trkpt lat="43.5366" lon="5.57078">
        <ele>693.2</ele>
        <time>2023-05-28T10:44:33Z</time>
      </trkpt>
      <trkpt lat="43.5366" lon="5.57078">
        <ele>693.1</ele>
        <time>2023-05-28T10:44:34Z</time>
      </trkpt>
      <trkpt lat="43.5366" lon="5.57077">
        <ele>693.1</ele>
        <time>2023-05-28T10:44:35Z</time>
      </trkpt>
      <trkpt lat="43.5366" lon="5.57077">
        <ele>692.9</ele>
        <time>2023-05-28T10:44:36Z</time>
      </trkpt>
      <trkpt lat="43.5366" lon="5.57077">
        <ele>692.8</ele>
        <time>2023-05-28T10:44:37Z</time>
      </trkpt>
      <trkpt lat="43.5366" lon="5.57077">
        <ele>692.7</ele>
        <time>2023-05-28T10:44:38Z</time>
      </trkpt>
      <trkpt lat="43.5366" lon="5.57077">
        <ele>692.6</ele>
        <time>2023-05-28T10:44:39Z</time>
      </trkpt>
      <trkpt lat="43.5366" lon="5.57077">
        <ele>692.6</ele>
        <time>2023-05-28T10:44:40Z</time>
      </trkpt>
      <trkpt lat="43.5366" lon="5.57077">
        <ele>692.7</ele>
        <time>2023-05-28T10:44:41Z</time>
      </trkpt>
      <trkpt lat="43.5366" lon="5.57077">
        <ele>692.7</ele>
        <time>2023-05-28T10:44:42Z</time>
      </trkpt>
      <trkpt lat="43.5366" lon="5.57077">
        <ele>692.7</ele>
        <time>2023-05-28T10:44:43Z</time>
      </trkpt>
      <trkpt lat="43.5366" lon="5.57077">
        <ele>692.7</ele>
        <time>2023-05-28T10:44:44Z</time>
      </trkpt>
      <trkpt lat="43.5366" lon="5.57077">
        <ele>692.7</ele>
        <time>2023-05-28T10:44:45Z</time>
      </trkpt>
      <trkpt lat="43.5366" lon="5.57077">
        <ele>692.7</ele>
        <time>2023-05-28T10:44:46Z</time>
      </trkpt>
      <trkpt lat="43.5366" lon="5.57077">
        <ele>692.6</ele>
        <time>2023-05-28T10:44:47Z</time>
      </trkpt>
      <trkpt lat="43.5366" lon="5.57077">
        <ele>692.6</ele>
        <time>2023-05-28T10:44:48Z</time>
      </trkpt>
      <trkpt lat="43.5366" lon="5.57077">
        <ele>692.7</ele>
        <time>2023-05-28T10:44:49Z</time>
      </trkpt>
      <trkpt lat="43.5366" lon="5.57077">
        <ele>692.7</ele>
        <time>2023-05-28T10:44:50Z</time>
      </trkpt>
      <trkpt lat="43.5366" lon="5.57077">
        <ele>692.8</ele>
        <time>2023-05-28T10:44:51Z</time>
      </trkpt>
      <trkpt lat="43.5366" lon="5.57077">
        <ele>692.8</ele>
        <time>2023-05-28T10:44:52Z</time>
      </trkpt>
      <trkpt lat="43.5366" lon="5.57077">
        <ele>692.9</ele>
        <time>2023-05-28T10:44:53Z</time>
      </trkpt>
      <trkpt lat="43.5366" lon="5.57077">
        <ele>692.9</ele>
        <time>2023-05-28T10:44:54Z</time>
      </trkpt>
      <trkpt lat="43.5366" lon="5.57077">
        <ele>692.9</ele>
        <time>2023-05-28T10:44:55Z</time>
      </trkpt>
      <trkpt lat="43.5366" lon="5.57077">
        <ele>692.9</ele>
        <time>2023-05-28T10:44:56Z</time>
      </trkpt>
      <trkpt lat="43.5366" lon="5.57077">
        <ele>692.9</ele>
        <time>2023-05-28T10:44:57Z</time>
      </trkpt>
      <trkpt lat="43.5366" lon="5.57077">
        <ele>692.9</ele>
        <time>2023-05-28T10:44:58Z</time>
      </trkpt>
      <trkpt lat="43.5366" lon="5.57077">
        <ele>692.9</ele>
        <time>2023-05-28T10:44:59Z</time>
      </trkpt>
      <trkpt lat="43.5366" lon="5.57077">
        <ele>693</ele>
        <time>2023-05-28T10:45:00Z</time>
      </trkpt>
      <trkpt lat="43.5366" lon="5.57077">
        <ele>692.9</ele>
        <time>2023-05-28T10:45:01Z</time>
      </trkpt>
      <trkpt lat="43.5366" lon="5.57077">
        <ele>692.9</ele>
        <time>2023-05-28T10:45:02Z</time>
      </trkpt>
      <trkpt lat="43.5366" lon="5.57077">
        <ele>692.8</ele>
        <time>2023-05-28T10:45:03Z</time>
      </trkpt>
      <trkpt lat="43.5366" lon="5.57077">
        <ele>692.9</ele>
        <time>2023-05-28T10:45:04Z</time>
      </trkpt>
      <trkpt lat="43.5366" lon="5.57078">
        <ele>692.9</ele>
        <time>2023-05-28T10:45:05Z</time>
      </trkpt>
      <trkpt lat="43.5366" lon="5.57077">
        <ele>692.9</ele>
        <time>2023-05-28T10:45:06Z</time>
      </trkpt>
      <trkpt lat="43.5366" lon="5.57077">
        <ele>693</ele>
        <time>2023-05-28T10:45:07Z</time>
      </trkpt>
      <trkpt lat="43.5366" lon="5.57077">
        <ele>693</ele>
        <time>2023-05-28T10:45:08Z</time>
      </trkpt>
      <trkpt lat="43.5366" lon="5.57078">
        <ele>693</ele>
        <time>2023-05-28T10:45:09Z</time>
      </trkpt>
      <trkpt lat="43.5366" lon="5.57077">
        <ele>693.1</ele>
        <time>2023-05-28T10:45:10Z</time>
      </trkpt>
      <trkpt lat="43.5366" lon="5.57077">
        <ele>693.1</ele>
        <time>2023-05-28T10:45:11Z</time>
      </trkpt>
      <trkpt lat="43.5366" lon="5.57078">
        <ele>693.1</ele>
        <time>2023-05-28T10:45:12Z</time>
      </trkpt>
      <trkpt lat="43.5366" lon="5.57078">
        <ele>693.1</ele>
        <time>2023-05-28T10:45:13Z</time>
      </trkpt>
      <trkpt lat="43.5366" lon="5.57077">
        <ele>693.2</ele>
        <time>2023-05-28T10:45:14Z</time>
      </trkpt>
      <trkpt lat="43.5366" lon="5.57078">
        <ele>693.2</ele>
        <time>2023-05-28T10:45:15Z</time>
      </trkpt>
      <trkpt lat="43.5366" lon="5.57078">
        <ele>693.1</ele>
        <time>2023-05-28T10:45:16Z</time>
      </trkpt>
      <trkpt lat="43.5366" lon="5.57078">
        <ele>693.1</ele>
        <time>2023-05-28T10:45:17Z</time>
      </trkpt>
      <trkpt lat="43.5366" lon="5.57078">
        <ele>693.2</ele>
        <time>2023-05-28T10:45:18Z</time>
      </trkpt>
      <trkpt lat="43.5366" lon="5.57078">
        <ele>693.3</ele>
        <time>2023-05-28T10:45:19Z</time>
      </trkpt>
      <trkpt lat="43.5366" lon="5.57078">
        <ele>693.4</ele>
        <time>2023-05-28T10:45:20Z</time>
      </trkpt>
      <trkpt lat="43.5366" lon="5.57078">
        <ele>693.5</ele>
        <time>2023-05-28T10:45:21Z</time>
      </trkpt>
      <trkpt lat="43.5366" lon="5.57078">
        <ele>693.4</ele>
        <time>2023-05-28T10:45:22Z</time>
      </trkpt>
      <trkpt lat="43.5366" lon="5.57078">
        <ele>693.3</ele>
        <time>2023-05-28T10:45:23Z</time>
      </trkpt>
      <trkpt lat="43.5366" lon="5.57078">
        <ele>693.3</ele>
        <time>2023-05-28T10:45:24Z</time>
      </trkpt>
      <trkpt lat="43.5366" lon="5.57078">
        <ele>693.2</ele>
        <time>2023-05-28T10:45:25Z</time>
      </trkpt>
      <trkpt lat="43.5366" lon="5.57078">
        <ele>693.2</ele>
        <time>2023-05-28T10:45:26Z</time>
      </trkpt>
      <trkpt lat="43.5366" lon="5.57078">
        <ele>693.2</ele>
        <time>2023-05-28T10:45:27Z</time>
      </trkpt>
      <trkpt lat="43.5366" lon="5.57078">
        <ele>693.3</ele>
        <time>2023-05-28T10:45:28Z</time>
      </trkpt>
      <trkpt lat="43.5366" lon="5.57078">
        <ele>693.3</ele>
        <time>2023-05-28T10:45:29Z</time>
      </trkpt>
      <trkpt lat="43.5366" lon="5.57078">
        <ele>693.4</ele>
        <time>2023-05-28T10:45:30Z</time>
      </trkpt>
      <trkpt lat="43.5366" lon="5.57077">
        <ele>693.4</ele>
        <time>2023-05-28T10:45:31Z</time>
      </trkpt>
      <trkpt lat="43.5366" lon="5.57077">
        <ele>693.4</ele>
        <time>2023-05-28T10:45:32Z</time>
      </trkpt>
      <trkpt lat="43.5366" lon="5.57077">
        <ele>693.4</ele>
        <time>2023-05-28T10:45:33Z</time>
      </trkpt>
      <trkpt lat="43.5366" lon="5.57077">
        <ele>693.5</ele>
        <time>2023-05-28T10:45:34Z</time>
      </trkpt>
      <trkpt lat="43.5366" lon="5.57077">
        <ele>693.5</ele>
        <time>2023-05-28T10:45:35Z</time>
      </trkpt>
      <trkpt lat="43.5366" lon="5.57077">
        <ele>693.5</ele>
        <time>2023-05-28T10:45:36Z</time>
      </trkpt>
      <trkpt lat="43.5366" lon="5.57077">
        <ele>693.5</ele>
        <time>2023-05-28T10:45:37Z</time>
      </trkpt>
      <trkpt lat="43.5366" lon="5.57077">
        <ele>693.5</ele>
        <time>2023-05-28T10:45:38Z</time>
      </trkpt>
      <trkpt lat="43.5366" lon="5.57077">
        <ele>693.5</ele>
        <time>2023-05-28T10:45:39Z</time>
      </trkpt>
      <trkpt lat="43.5366" lon="5.57077">
        <ele>693.5</ele>
        <time>2023-05-28T10:45:40Z</time>
      </trkpt>
      <trkpt lat="43.5366" lon="5.57077">
        <ele>693.6</ele>
        <time>2023-05-28T10:45:41Z</time>
      </trkpt>
      <trkpt lat="43.5366" lon="5.57077">
        <ele>693.5</ele>
        <time>2023-05-28T10:45:42Z</time>
      </trkpt>
      <trkpt lat="43.5366" lon="5.57077">
        <ele>693.5</ele>
        <time>2023-05-28T10:45:43Z</time>
      </trkpt>
      <trkpt lat="43.5366" lon="5.57077">
        <ele>693.6</ele>
        <time>2023-05-28T10:45:44Z</time>
      </trkpt>
      <trkpt lat="43.5366" lon="5.57077">
        <ele>693.5</ele>
        <time>2023-05-28T10:45:45Z</time>
      </trkpt>
      <trkpt lat="43.5366" lon="5.57077">
        <ele>693.4</ele>
        <time>2023-05-28T10:45:46Z</time>
      </trkpt>
      <trkpt lat="43.5366" lon="5.57077">
        <ele>693.4</ele>
        <time>2023-05-28T10:45:47Z</time>
      </trkpt>
      <trkpt lat="43.5366" lon="5.57077">
        <ele>693.4</ele>
        <time>2023-05-28T10:45:48Z</time>
      </trkpt>
      <trkpt lat="43.5366" lon="5.57077">
        <ele>693.5</ele>
        <time>2023-05-28T10:45:49Z</time>
      </trkpt>
      <trkpt lat="43.5366" lon="5.57078">
        <ele>693.5</ele>
        <time>2023-05-28T10:45:50Z</time>
      </trkpt>
      <trkpt lat="43.53661" lon="5.57078">
        <ele>693.5</ele>
        <time>2023-05-28T10:45:51Z</time>
      </trkpt>
      <trkpt lat="43.53662" lon="5.57077">
        <ele>693.4</ele>
        <time>2023-05-28T10:45:52Z</time>
      </trkpt>
      <trkpt lat="43.53662" lon="5.57076">
        <ele>693.3</ele>
        <time>2023-05-28T10:45:53Z</time>
      </trkpt>
      <trkpt lat="43.53662" lon="5.57076">
        <ele>693.3</ele>
        <time>2023-05-28T10:45:54Z</time>
      </trkpt>
      <trkpt lat="43.53662" lon="5.57075">
        <ele>693.2</ele>
        <time>2023-05-28T10:45:55Z</time>
      </trkpt>
      <trkpt lat="43.53662" lon="5.57075">
        <ele>693.1</ele>
        <time>2023-05-28T10:45:56Z</time>
      </trkpt>
      <trkpt lat="43.53661" lon="5.57074">
        <ele>693.1</ele>
        <time>2023-05-28T10:45:57Z</time>
      </trkpt>
      <trkpt lat="43.53661" lon="5.57074">
        <ele>693</ele>
        <time>2023-05-28T10:45:58Z</time>
      </trkpt>
      <trkpt lat="43.53661" lon="5.57074">
        <ele>693</ele>
        <time>2023-05-28T10:45:59Z</time>
      </trkpt>
      <trkpt lat="43.53661" lon="5.57074">
        <ele>692.9</ele>
        <time>2023-05-28T10:46:00Z</time>
      </trkpt>
      <trkpt lat="43.53661" lon="5.57074">
        <ele>692.9</ele>
        <time>2023-05-28T10:46:01Z</time>
      </trkpt>
      <trkpt lat="43.53661" lon="5.57074">
        <ele>692.9</ele>
        <time>2023-05-28T10:46:02Z</time>
      </trkpt>
      <trkpt lat="43.53661" lon="5.57074">
        <ele>692.8</ele>
        <time>2023-05-28T10:46:03Z</time>
      </trkpt>
      <trkpt lat="43.53661" lon="5.57074">
        <ele>692.7</ele>
        <time>2023-05-28T10:46:04Z</time>
      </trkpt>
      <trkpt lat="43.53661" lon="5.57073">
        <ele>692.7</ele>
        <time>2023-05-28T10:46:05Z</time>
      </trkpt>
      <trkpt lat="43.53661" lon="5.57073">
        <ele>692.7</ele>
        <time>2023-05-28T10:46:06Z</time>
      </trkpt>
      <trkpt lat="43.5366" lon="5.57073">
        <ele>692.7</ele>
        <time>2023-05-28T10:46:07Z</time>
      </trkpt>
      <trkpt lat="43.5366" lon="5.57073">
        <ele>692.6</ele>
        <time>2023-05-28T10:46:08Z</time>
      </trkpt>
      <trkpt lat="43.5366" lon="5.57073">
        <ele>692.5</ele>
        <time>2023-05-28T10:46:09Z</time>
      </trkpt>
      <trkpt lat="43.5366" lon="5.57073">
        <ele>692.4</ele>
        <time>2023-05-28T10:46:10Z</time>
      </trkpt>
      <trkpt lat="43.5366" lon="5.57072">
        <ele>692.3</ele>
        <time>2023-05-28T10:46:11Z</time>
      </trkpt>
      <trkpt lat="43.5366" lon="5.57072">
        <ele>692.1</ele>
        <time>2023-05-28T10:46:12Z</time>
      </trkpt>
      <trkpt lat="43.5366" lon="5.57072">
        <ele>692</ele>
        <time>2023-05-28T10:46:13Z</time>
      </trkpt>
      <trkpt lat="43.5366" lon="5.57073">
        <ele>691.9</ele>
        <time>2023-05-28T10:46:14Z</time>
      </trkpt>
      <trkpt lat="43.53659" lon="5.57073">
        <ele>691.8</ele>
        <time>2023-05-28T10:46:15Z</time>
      </trkpt>
      <trkpt lat="43.53659" lon="5.57072">
        <ele>691.8</ele>
        <time>2023-05-28T10:46:16Z</time>
      </trkpt>
      <trkpt lat="43.53658" lon="5.57072">
        <ele>691.7</ele>
        <time>2023-05-28T10:46:17Z</time>
      </trkpt>
      <trkpt lat="43.53658" lon="5.57072">
        <ele>691.6</ele>
        <time>2023-05-28T10:46:18Z</time>
      </trkpt>
      <trkpt lat="43.53657" lon="5.57072">
        <ele>691.6</ele>
        <time>2023-05-28T10:46:19Z</time>
      </trkpt>
      <trkpt lat="43.53657" lon="5.57072">
        <ele>691.5</ele>
        <time>2023-05-28T10:46:20Z</time>
      </trkpt>
      <trkpt lat="43.53657" lon="5.57072">
        <ele>691.4</ele>
        <time>2023-05-28T10:46:21Z</time>
      </trkpt>
      <trkpt lat="43.53657" lon="5.57072">
        <ele>691.3</ele>
        <time>2023-05-28T10:46:22Z</time>
      </trkpt>
      <trkpt lat="43.53656" lon="5.57071">
        <ele>691.1</ele>
        <time>2023-05-28T10:46:23Z</time>
      </trkpt>
      <trkpt lat="43.53655" lon="5.57071">
        <ele>690.8</ele>
        <time>2023-05-28T10:46:24Z</time>
      </trkpt>
      <trkpt lat="43.53654" lon="5.57071">
        <ele>690.6</ele>
        <time>2023-05-28T10:46:25Z</time>
      </trkpt>
      <trkpt lat="43.53654" lon="5.57072">
        <ele>690.4</ele>
        <time>2023-05-28T10:46:26Z</time>
      </trkpt>
      <trkpt lat="43.53653" lon="5.57072">
        <ele>690.1</ele>
        <time>2023-05-28T10:46:27Z</time>
      </trkpt>
      <trkpt lat="43.53653" lon="5.57073">
        <ele>689.9</ele>
        <time>2023-05-28T10:46:28Z</time>
      </trkpt>
      <trkpt lat="43.53652" lon="5.57074">
        <ele>689.7</ele>
        <time>2023-05-28T10:46:29Z</time>
      </trkpt>
      <trkpt lat="43.53652" lon="5.57075">
        <ele>689.5</ele>
        <time>2023-05-28T10:46:30Z</time>
      </trkpt>
      <trkpt lat="43.53651" lon="5.57076">
        <ele>689.4</ele>
        <time>2023-05-28T10:46:31Z</time>
      </trkpt>
      <trkpt lat="43.53651" lon="5.57076">
        <ele>689.2</ele>
        <time>2023-05-28T10:46:32Z</time>
      </trkpt>
      <trkpt lat="43.53651" lon="5.57076">
        <ele>689.1</ele>
        <time>2023-05-28T10:46:33Z</time>
      </trkpt>
      <trkpt lat="43.53651" lon="5.57076">
        <ele>689</ele>
        <time>2023-05-28T10:46:34Z</time>
      </trkpt>
      <trkpt lat="43.53651" lon="5.57076">
        <ele>688.9</ele>
        <time>2023-05-28T10:46:35Z</time>
      </trkpt>
      <trkpt lat="43.53651" lon="5.57076">
        <ele>688.8</ele>
        <time>2023-05-28T10:46:36Z</time>
      </trkpt>
      <trkpt lat="43.5365" lon="5.57076">
        <ele>688.8</ele>
        <time>2023-05-28T10:46:37Z</time>
      </trkpt>
      <trkpt lat="43.5365" lon="5.57077">
        <ele>688.8</ele>
        <time>2023-05-28T10:46:38Z</time>
      </trkpt>
      <trkpt lat="43.5365" lon="5.57077">
        <ele>688.7</ele>
        <time>2023-05-28T10:46:39Z</time>
      </trkpt>
      <trkpt lat="43.53649" lon="5.57078">
        <ele>688.7</ele>
        <time>2023-05-28T10:46:40Z</time>
      </trkpt>
      <trkpt lat="43.53648" lon="5.57079">
        <ele>688.7</ele>
        <time>2023-05-28T10:46:41Z</time>
      </trkpt>
      <trkpt lat="43.53648" lon="5.5708">
        <ele>688.7</ele>
        <time>2023-05-28T10:46:42Z</time>
      </trkpt>
      <trkpt lat="43.53647" lon="5.57081">
        <ele>688.7</ele>
        <time>2023-05-28T10:46:43Z</time>
      </trkpt>
      <trkpt lat="43.53646" lon="5.57081">
        <ele>688.7</ele>
        <time>2023-05-28T10:46:44Z</time>
      </trkpt>
      <trkpt lat="43.53646" lon="5.57082">
        <ele>688.7</ele>
        <time>2023-05-28T10:46:45Z</time>
      </trkpt>
      <trkpt lat="43.53645" lon="5.57082">
        <ele>688.7</ele>
        <time>2023-05-28T10:46:46Z</time>
      </trkpt>
      <trkpt lat="43.53644" lon="5.57082">
        <ele>688.6</ele>
        <time>2023-05-28T10:46:47Z</time>
      </trkpt>
      <trkpt lat="43.53644" lon="5.57083">
        <ele>688.5</ele>
        <time>2023-05-28T10:46:48Z</time>
      </trkpt>
      <trkpt lat="43.53643" lon="5.57083">
        <ele>688.5</ele>
        <time>2023-05-28T10:46:49Z</time>
      </trkpt>
      <trkpt lat="43.53642" lon="5.57084">
        <ele>688.5</ele>
        <time>2023-05-28T10:46:50Z</time>
      </trkpt>
      <trkpt lat="43.53642" lon="5.57085">
        <ele>688.4</ele>
        <time>2023-05-28T10:46:51Z</time>
      </trkpt>
      <trkpt lat="43.53641" lon="5.57086">
        <ele>688.4</ele>
        <time>2023-05-28T10:46:52Z</time>
      </trkpt>
      <trkpt lat="43.53641" lon="5.57086">
        <ele>688.4</ele>
        <time>2023-05-28T10:46:53Z</time>
      </trkpt>
      <trkpt lat="43.53641" lon="5.57087">
        <ele>688.4</ele>
        <time>2023-05-28T10:46:54Z</time>
      </trkpt>
      <trkpt lat="43.53641" lon="5.57087">
        <ele>688.4</ele>
        <time>2023-05-28T10:46:55Z</time>
      </trkpt>
      <trkpt lat="43.53641" lon="5.57087">
        <ele>688.3</ele>
        <time>2023-05-28T10:46:56Z</time>
      </trkpt>
      <trkpt lat="43.53641" lon="5.57087">
        <ele>688.3</ele>
        <time>2023-05-28T10:46:57Z</time>
      </trkpt>
      <trkpt lat="43.53641" lon="5.57086">
        <ele>688.2</ele>
        <time>2023-05-28T10:46:58Z</time>
      </trkpt>
      <trkpt lat="43.53641" lon="5.57086">
        <ele>688.2</ele>
        <time>2023-05-28T10:46:59Z</time>
      </trkpt>
      <trkpt lat="43.5364" lon="5.57086">
        <ele>688.3</ele>
        <time>2023-05-28T10:47:00Z</time>
      </trkpt>
      <trkpt lat="43.5364" lon="5.57086">
        <ele>688.3</ele>
        <time>2023-05-28T10:47:01Z</time>
      </trkpt>
      <trkpt lat="43.5364" lon="5.57086">
        <ele>688.3</ele>
        <time>2023-05-28T10:47:02Z</time>
      </trkpt>
      <trkpt lat="43.5364" lon="5.57086">
        <ele>688.2</ele>
        <time>2023-05-28T10:47:03Z</time>
      </trkpt>
      <trkpt lat="43.53639" lon="5.57087">
        <ele>688.2</ele>
        <time>2023-05-28T10:47:04Z</time>
      </trkpt>
      <trkpt lat="43.53639" lon="5.57087">
        <ele>688.2</ele>
        <time>2023-05-28T10:47:05Z</time>
      </trkpt>
      <trkpt lat="43.53639" lon="5.57087">
        <ele>688.2</ele>
        <time>2023-05-28T10:47:06Z</time>
      </trkpt>
      <trkpt lat="43.53639" lon="5.57087">
        <ele>688.2</ele>
        <time>2023-05-28T10:47:07Z</time>
      </trkpt>
      <trkpt lat="43.53638" lon="5.57087">
        <ele>688.1</ele>
        <time>2023-05-28T10:47:08Z</time>
      </trkpt>
      <trkpt lat="43.53638" lon="5.57087">
        <ele>688.1</ele>
        <time>2023-05-28T10:47:09Z</time>
      </trkpt>
      <trkpt lat="43.53638" lon="5.57087">
        <ele>688.1</ele>
        <time>2023-05-28T10:47:10Z</time>
      </trkpt>
      <trkpt lat="43.53638" lon="5.57087">
        <ele>688.1</ele>
        <time>2023-05-28T10:47:11Z</time>
      </trkpt>
      <trkpt lat="43.53638" lon="5.57087">
        <ele>688</ele>
        <time>2023-05-28T10:47:12Z</time>
      </trkpt>
      <trkpt lat="43.53638" lon="5.57087">
        <ele>687.9</ele>
        <time>2023-05-28T10:47:13Z</time>
      </trkpt>
      <trkpt lat="43.53639" lon="5.57086">
        <ele>687.8</ele>
        <time>2023-05-28T10:47:14Z</time>
      </trkpt>
      <trkpt lat="43.53639" lon="5.57086">
        <ele>687.8</ele>
        <time>2023-05-28T10:47:15Z</time>
      </trkpt>
      <trkpt lat="43.53639" lon="5.57086">
        <ele>687.7</ele>
        <time>2023-05-28T10:47:16Z</time>
      </trkpt>
      <trkpt lat="43.53639" lon="5.57085">
        <ele>687.5</ele>
        <time>2023-05-28T10:47:17Z</time>
      </trkpt>
      <trkpt lat="43.5364" lon="5.57084">
        <ele>687.3</ele>
        <time>2023-05-28T10:47:18Z</time>
      </trkpt>
      <trkpt lat="43.5364" lon="5.57083">
        <ele>687.1</ele>
        <time>2023-05-28T10:47:19Z</time>
      </trkpt>
      <trkpt lat="43.5364" lon="5.57083">
        <ele>687</ele>
        <time>2023-05-28T10:47:20Z</time>
      </trkpt>
      <trkpt lat="43.53639" lon="5.57083">
        <ele>686.7</ele>
        <time>2023-05-28T10:47:21Z</time>
      </trkpt>
      <trkpt lat="43.53639" lon="5.57083">
        <ele>686.4</ele>
        <time>2023-05-28T10:47:22Z</time>
      </trkpt>
      <trkpt lat="43.53638" lon="5.57083">
        <ele>686.2</ele>
        <time>2023-05-28T10:47:23Z</time>
      </trkpt>
      <trkpt lat="43.53638" lon="5.57083">
        <ele>686</ele>
        <time>2023-05-28T10:47:24Z</time>
      </trkpt>
      <trkpt lat="43.53637" lon="5.57083">
        <ele>685.8</ele>
        <time>2023-05-28T10:47:25Z</time>
      </trkpt>
      <trkpt lat="43.53637" lon="5.57083">
        <ele>685.6</ele>
        <time>2023-05-28T10:47:26Z</time>
      </trkpt>
      <trkpt lat="43.53637" lon="5.57083">
        <ele>685.4</ele>
        <time>2023-05-28T10:47:27Z</time>
      </trkpt>
      <trkpt lat="43.53636" lon="5.57082">
        <ele>685.1</ele>
        <time>2023-05-28T10:47:28Z</time>
      </trkpt>
      <trkpt lat="43.53635" lon="5.57082">
        <ele>684.9</ele>
        <time>2023-05-28T10:47:29Z</time>
      </trkpt>
      <trkpt lat="43.53635" lon="5.57082">
        <ele>684.7</ele>
        <time>2023-05-28T10:47:30Z</time>
      </trkpt>
      <trkpt lat="43.53635" lon="5.57082">
        <ele>684.3</ele>
        <time>2023-05-28T10:47:31Z</time>
      </trkpt>
      <trkpt lat="43.53634" lon="5.57082">
        <ele>684.1</ele>
        <time>2023-05-28T10:47:32Z</time>
      </trkpt>
      <trkpt lat="43.53634" lon="5.57081">
        <ele>683.9</ele>
        <time>2023-05-28T10:47:33Z</time>
      </trkpt>
      <trkpt lat="43.53634" lon="5.5708">
        <ele>683.6</ele>
        <time>2023-05-28T10:47:34Z</time>
      </trkpt>
      <trkpt lat="43.53634" lon="5.5708">
        <ele>683.4</ele>
        <time>2023-05-28T10:47:35Z</time>
      </trkpt>
      <trkpt lat="43.53634" lon="5.5708">
        <ele>683</ele>
        <time>2023-05-28T10:47:36Z</time>
      </trkpt>
      <trkpt lat="43.53633" lon="5.5708">
        <ele>682.8</ele>
        <time>2023-05-28T10:47:37Z</time>
      </trkpt>
      <trkpt lat="43.53634" lon="5.5708">
        <ele>682.5</ele>
        <time>2023-05-28T10:47:38Z</time>
      </trkpt>
      <trkpt lat="43.53633" lon="5.57079">
        <ele>682.3</ele>
        <time>2023-05-28T10:47:39Z</time>
      </trkpt>
      <trkpt lat="43.53633" lon="5.57079">
        <ele>682.1</ele>
        <time>2023-05-28T10:47:40Z</time>
      </trkpt>
      <trkpt lat="43.53632" lon="5.57078">
        <ele>681.8</ele>
        <time>2023-05-28T10:47:41Z</time>
      </trkpt>
      <trkpt lat="43.53631" lon="5.57077">
        <ele>681.6</ele>
        <time>2023-05-28T10:47:42Z</time>
      </trkpt>
      <trkpt lat="43.5363" lon="5.57077">
        <ele>681.5</ele>
        <time>2023-05-28T10:47:43Z</time>
      </trkpt>
      <trkpt lat="43.53629" lon="5.57077">
        <ele>681.4</ele>
        <time>2023-05-28T10:47:44Z</time>
      </trkpt>
      <trkpt lat="43.53628" lon="5.57077">
        <ele>681.2</ele>
        <time>2023-05-28T10:47:45Z</time>
      </trkpt>
      <trkpt lat="43.53627" lon="5.57078">
        <ele>681</ele>
        <time>2023-05-28T10:47:46Z</time>
      </trkpt>
      <trkpt lat="43.53626" lon="5.57078">
        <ele>680.8</ele>
        <time>2023-05-28T10:47:47Z</time>
      </trkpt>
      <trkpt lat="43.53625" lon="5.57078">
        <ele>680.7</ele>
        <time>2023-05-28T10:47:48Z</time>
      </trkpt>
      <trkpt lat="43.53625" lon="5.57079">
        <ele>680.6</ele>
        <time>2023-05-28T10:47:49Z</time>
      </trkpt>
      <trkpt lat="43.53624" lon="5.57079">
        <ele>680.5</ele>
        <time>2023-05-28T10:47:50Z</time>
      </trkpt>
      <trkpt lat="43.53623" lon="5.57079">
        <ele>680.3</ele>
        <time>2023-05-28T10:47:51Z</time>
      </trkpt>
      <trkpt lat="43.53622" lon="5.57079">
        <ele>680.2</ele>
        <time>2023-05-28T10:47:52Z</time>
      </trkpt>
      <trkpt lat="43.53622" lon="5.5708">
        <ele>679.9</ele>
        <time>2023-05-28T10:47:53Z</time>
      </trkpt>
      <trkpt lat="43.53621" lon="5.5708">
        <ele>679.8</ele>
        <time>2023-05-28T10:47:54Z</time>
      </trkpt>
      <trkpt lat="43.53621" lon="5.57081">
        <ele>679.6</ele>
        <time>2023-05-28T10:47:55Z</time>
      </trkpt>
      <trkpt lat="43.53621" lon="5.57081">
        <ele>679.5</ele>
        <time>2023-05-28T10:47:56Z</time>
      </trkpt>
      <trkpt lat="43.53621" lon="5.5708">
        <ele>679.3</ele>
        <time>2023-05-28T10:47:57Z</time>
      </trkpt>
      <trkpt lat="43.53621" lon="5.5708">
        <ele>679.2</ele>
        <time>2023-05-28T10:47:58Z</time>
      </trkpt>
      <trkpt lat="43.53621" lon="5.57081">
        <ele>679.2</ele>
        <time>2023-05-28T10:47:59Z</time>
      </trkpt>
      <trkpt lat="43.53621" lon="5.57081">
        <ele>679.1</ele>
        <time>2023-05-28T10:48:00Z</time>
      </trkpt>
      <trkpt lat="43.53621" lon="5.57081">
        <ele>679.1</ele>
        <time>2023-05-28T10:48:01Z</time>
      </trkpt>
      <trkpt lat="43.53621" lon="5.57081">
        <ele>679.1</ele>
        <time>2023-05-28T10:48:02Z</time>
      </trkpt>
      <trkpt lat="43.53621" lon="5.57081">
        <ele>679.1</ele>
        <time>2023-05-28T10:48:03Z</time>
      </trkpt>
      <trkpt lat="43.53621" lon="5.57081">
        <ele>679.1</ele>
        <time>2023-05-28T10:48:04Z</time>
      </trkpt>
      <trkpt lat="43.53621" lon="5.57081">
        <ele>679.1</ele>
        <time>2023-05-28T10:48:05Z</time>
      </trkpt>
      <trkpt lat="43.53621" lon="5.57081">
        <ele>679.1</ele>
        <time>2023-05-28T10:48:06Z</time>
      </trkpt>
      <trkpt lat="43.5362" lon="5.57081">
        <ele>679.1</ele>
        <time>2023-05-28T10:48:07Z</time>
      </trkpt>
      <trkpt lat="43.5362" lon="5.57082">
        <ele>679.1</ele>
        <time>2023-05-28T10:48:08Z</time>
      </trkpt>
      <trkpt lat="43.5362" lon="5.57081">
        <ele>679</ele>
        <time>2023-05-28T10:48:09Z</time>
      </trkpt>
      <trkpt lat="43.53621" lon="5.57081">
        <ele>678.9</ele>
        <time>2023-05-28T10:48:10Z</time>
      </trkpt>
      <trkpt lat="43.53621" lon="5.5708">
        <ele>678.9</ele>
        <time>2023-05-28T10:48:11Z</time>
      </trkpt>
      <trkpt lat="43.53621" lon="5.5708">
        <ele>678.7</ele>
        <time>2023-05-28T10:48:12Z</time>
      </trkpt>
      <trkpt lat="43.5362" lon="5.5708">
        <ele>678.5</ele>
        <time>2023-05-28T10:48:13Z</time>
      </trkpt>
      <trkpt lat="43.5362" lon="5.57079">
        <ele>678.3</ele>
        <time>2023-05-28T10:48:14Z</time>
      </trkpt>
      <trkpt lat="43.53619" lon="5.57079">
        <ele>678.1</ele>
        <time>2023-05-28T10:48:15Z</time>
      </trkpt>
      <trkpt lat="43.53619" lon="5.57079">
        <ele>677.9</ele>
        <time>2023-05-28T10:48:16Z</time>
      </trkpt>
      <trkpt lat="43.53619" lon="5.57078">
        <ele>677.8</ele>
        <time>2023-05-28T10:48:17Z</time>
      </trkpt>
      <trkpt lat="43.53618" lon="5.57078">
        <ele>677.5</ele>
        <time>2023-05-28T10:48:18Z</time>
      </trkpt>
      <trkpt lat="43.53617" lon="5.57077">
        <ele>677.3</ele>
        <time>2023-05-28T10:48:19Z</time>
      </trkpt>
      <trkpt lat="43.53617" lon="5.57077">
        <ele>677</ele>
        <time>2023-05-28T10:48:20Z</time>
      </trkpt>
      <trkpt lat="43.53616" lon="5.57076">
        <ele>676.7</ele>
        <time>2023-05-28T10:48:21Z</time>
      </trkpt>
      <trkpt lat="43.53615" lon="5.57076">
        <ele>676.5</ele>
        <time>2023-05-28T10:48:22Z</time>
      </trkpt>
      <trkpt lat="43.53614" lon="5.57076">
        <ele>676.3</ele>
        <time>2023-05-28T10:48:23Z</time>
      </trkpt>
      <trkpt lat="43.53613" lon="5.57077">
        <ele>676.2</ele>
        <time>2023-05-28T10:48:24Z</time>
      </trkpt>
      <trkpt lat="43.53613" lon="5.57077">
        <ele>676</ele>
        <time>2023-05-28T10:48:25Z</time>
      </trkpt>
      <trkpt lat="43.53612" lon="5.57077">
        <ele>675.9</ele>
        <time>2023-05-28T10:48:26Z</time>
      </trkpt>
      <trkpt lat="43.53612" lon="5.57077">
        <ele>675.8</ele>
        <time>2023-05-28T10:48:27Z</time>
      </trkpt>
      <trkpt lat="43.53611" lon="5.57077">
        <ele>675.6</ele>
        <time>2023-05-28T10:48:28Z</time>
      </trkpt>
      <trkpt lat="43.53611" lon="5.57077">
        <ele>675.5</ele>
        <time>2023-05-28T10:48:29Z</time>
      </trkpt>
      <trkpt lat="43.5361" lon="5.57077">
        <ele>675.3</ele>
        <time>2023-05-28T10:48:30Z</time>
      </trkpt>
      <trkpt lat="43.53609" lon="5.57078">
        <ele>675.2</ele>
        <time>2023-05-28T10:48:31Z</time>
      </trkpt>
      <trkpt lat="43.53609" lon="5.57078">
        <ele>675.1</ele>
        <time>2023-05-28T10:48:32Z</time>
      </trkpt>
      <trkpt lat="43.53609" lon="5.57078">
        <ele>675</ele>
        <time>2023-05-28T10:48:33Z</time>
      </trkpt>
      <trkpt lat="43.53608" lon="5.57078">
        <ele>674.8</ele>
        <time>2023-05-28T10:48:34Z</time>
      </trkpt>
      <trkpt lat="43.53607" lon="5.57078">
        <ele>674.6</ele>
        <time>2023-05-28T10:48:35Z</time>
      </trkpt>
      <trkpt lat="43.53607" lon="5.57078">
        <ele>674.4</ele>
        <time>2023-05-28T10:48:36Z</time>
      </trkpt>
      <trkpt lat="43.53607" lon="5.57079">
        <ele>674.3</ele>
        <time>2023-05-28T10:48:37Z</time>
      </trkpt>
      <trkpt lat="43.53607" lon="5.57079">
        <ele>674.2</ele>
        <time>2023-05-28T10:48:38Z</time>
      </trkpt>
      <trkpt lat="43.53606" lon="5.57078">
        <ele>673.9</ele>
        <time>2023-05-28T10:48:39Z</time>
      </trkpt>
      <trkpt lat="43.53606" lon="5.57077">
        <ele>673.7</ele>
        <time>2023-05-28T10:48:40Z</time>
      </trkpt>
      <trkpt lat="43.53606" lon="5.57076">
        <ele>673.4</ele>
        <time>2023-05-28T10:48:41Z</time>
      </trkpt>
      <trkpt lat="43.53606" lon="5.57076">
        <ele>673.3</ele>
        <time>2023-05-28T10:48:42Z</time>
      </trkpt>
      <trkpt lat="43.53605" lon="5.57076">
        <ele>673.2</ele>
        <time>2023-05-28T10:48:43Z</time>
      </trkpt>
      <trkpt lat="43.53604" lon="5.57077">
        <ele>673.2</ele>
        <time>2023-05-28T10:48:44Z</time>
      </trkpt>
      <trkpt lat="43.53604" lon="5.57076">
        <ele>673.1</ele>
        <time>2023-05-28T10:48:45Z</time>
      </trkpt>
      <trkpt lat="43.53603" lon="5.57076">
        <ele>672.9</ele>
        <time>2023-05-28T10:48:46Z</time>
      </trkpt>
      <trkpt lat="43.53603" lon="5.57076">
        <ele>672.8</ele>
        <time>2023-05-28T10:48:47Z</time>
      </trkpt>
      <trkpt lat="43.53603" lon="5.57075">
        <ele>672.7</ele>
        <time>2023-05-28T10:48:48Z</time>
      </trkpt>
      <trkpt lat="43.53602" lon="5.57075">
        <ele>672.5</ele>
        <time>2023-05-28T10:48:49Z</time>
      </trkpt>
      <trkpt lat="43.53601" lon="5.57075">
        <ele>672.3</ele>
        <time>2023-05-28T10:48:50Z</time>
      </trkpt>
      <trkpt lat="43.53601" lon="5.57076">
        <ele>672.1</ele>
        <time>2023-05-28T10:48:51Z</time>
      </trkpt>
      <trkpt lat="43.536" lon="5.57076">
        <ele>672</ele>
        <time>2023-05-28T10:48:52Z</time>
      </trkpt>
      <trkpt lat="43.536" lon="5.57076">
        <ele>671.8</ele>
        <time>2023-05-28T10:48:53Z</time>
      </trkpt>
      <trkpt lat="43.53599" lon="5.57076">
        <ele>671.6</ele>
        <time>2023-05-28T10:48:54Z</time>
      </trkpt>
      <trkpt lat="43.53599" lon="5.57076">
        <ele>671.3</ele>
        <time>2023-05-28T10:48:55Z</time>
      </trkpt>
      <trkpt lat="43.53598" lon="5.57076">
        <ele>671.1</ele>
        <time>2023-05-28T10:48:56Z</time>
      </trkpt>
      <trkpt lat="43.53598" lon="5.57076">
        <ele>670.9</ele>
        <time>2023-05-28T10:48:57Z</time>
      </trkpt>
      <trkpt lat="43.53598" lon="5.57076">
        <ele>670.6</ele>
        <time>2023-05-28T10:48:58Z</time>
      </trkpt>
      <trkpt lat="43.53598" lon="5.57076">
        <ele>670.4</ele>
        <time>2023-05-28T10:48:59Z</time>
      </trkpt>
      <trkpt lat="43.53597" lon="5.57076">
        <ele>670.2</ele>
        <time>2023-05-28T10:49:00Z</time>
      </trkpt>
      <trkpt lat="43.53596" lon="5.57076">
        <ele>670</ele>
        <time>2023-05-28T10:49:01Z</time>
      </trkpt>
      <trkpt lat="43.53596" lon="5.57077">
        <ele>669.9</ele>
        <time>2023-05-28T10:49:02Z</time>
      </trkpt>
      <trkpt lat="43.53596" lon="5.57077">
        <ele>669.7</ele>
        <time>2023-05-28T10:49:03Z</time>
      </trkpt>
      <trkpt lat="43.53595" lon="5.57078">
        <ele>669.6</ele>
        <time>2023-05-28T10:49:04Z</time>
      </trkpt>
      <trkpt lat="43.53595" lon="5.57077">
        <ele>669.5</ele>
        <time>2023-05-28T10:49:05Z</time>
      </trkpt>
      <trkpt lat="43.53594" lon="5.57077">
        <ele>669.4</ele>
        <time>2023-05-28T10:49:06Z</time>
      </trkpt>
      <trkpt lat="43.53594" lon="5.57077">
        <ele>669.2</ele>
        <time>2023-05-28T10:49:07Z</time>
      </trkpt>
      <trkpt lat="43.53593" lon="5.57077">
        <ele>669</ele>
        <time>2023-05-28T10:49:08Z</time>
      </trkpt>
      <trkpt lat="43.53592" lon="5.57077">
        <ele>668.8</ele>
        <time>2023-05-28T10:49:09Z</time>
      </trkpt>
      <trkpt lat="43.53592" lon="5.57077">
        <ele>668.5</ele>
        <time>2023-05-28T10:49:10Z</time>
      </trkpt>
      <trkpt lat="43.53591" lon="5.57077">
        <ele>668.3</ele>
        <time>2023-05-28T10:49:11Z</time>
      </trkpt>
      <trkpt lat="43.53591" lon="5.57076">
        <ele>668.2</ele>
        <time>2023-05-28T10:49:12Z</time>
      </trkpt>
      <trkpt lat="43.53591" lon="5.57077">
        <ele>668</ele>
        <time>2023-05-28T10:49:13Z</time>
      </trkpt>
      <trkpt lat="43.5359" lon="5.57076">
        <ele>667.8</ele>
        <time>2023-05-28T10:49:14Z</time>
      </trkpt>
      <trkpt lat="43.5359" lon="5.57076">
        <ele>667.6</ele>
        <time>2023-05-28T10:49:15Z</time>
      </trkpt>
      <trkpt lat="43.53589" lon="5.57076">
        <ele>667.4</ele>
        <time>2023-05-28T10:49:16Z</time>
      </trkpt>
      <trkpt lat="43.53589" lon="5.57076">
        <ele>667.1</ele>
        <time>2023-05-28T10:49:17Z</time>
      </trkpt>
      <trkpt lat="43.53588" lon="5.57076">
        <ele>666.9</ele>
        <time>2023-05-28T10:49:18Z</time>
      </trkpt>
      <trkpt lat="43.53588" lon="5.57076">
        <ele>666.7</ele>
        <time>2023-05-28T10:49:19Z</time>
      </trkpt>
      <trkpt lat="43.53587" lon="5.57076">
        <ele>666.4</ele>
        <time>2023-05-28T10:49:20Z</time>
      </trkpt>
      <trkpt lat="43.53587" lon="5.57076">
        <ele>666.1</ele>
        <time>2023-05-28T10:49:21Z</time>
      </trkpt>
      <trkpt lat="43.53586" lon="5.57075">
        <ele>665.9</ele>
        <time>2023-05-28T10:49:22Z</time>
      </trkpt>
      <trkpt lat="43.53586" lon="5.57076">
        <ele>665.6</ele>
        <time>2023-05-28T10:49:23Z</time>
      </trkpt>
      <trkpt lat="43.53585" lon="5.57076">
        <ele>665.4</ele>
        <time>2023-05-28T10:49:24Z</time>
      </trkpt>
      <trkpt lat="43.53585" lon="5.57075">
        <ele>665.2</ele>
        <time>2023-05-28T10:49:25Z</time>
      </trkpt>
      <trkpt lat="43.53585" lon="5.57075">
        <ele>665</ele>
        <time>2023-05-28T10:49:26Z</time>
      </trkpt>
      <trkpt lat="43.53585" lon="5.57075">
        <ele>664.8</ele>
        <time>2023-05-28T10:49:27Z</time>
      </trkpt>
      <trkpt lat="43.53584" lon="5.57075">
        <ele>664.6</ele>
        <time>2023-05-28T10:49:28Z</time>
      </trkpt>
      <trkpt lat="43.53584" lon="5.57074">
        <ele>664.5</ele>
        <time>2023-05-28T10:49:29Z</time>
      </trkpt>
      <trkpt lat="43.53583" lon="5.57074">
        <ele>664.4</ele>
        <time>2023-05-28T10:49:30Z</time>
      </trkpt>
      <trkpt lat="43.53583" lon="5.57075">
        <ele>664.2</ele>
        <time>2023-05-28T10:49:31Z</time>
      </trkpt>
      <trkpt lat="43.53582" lon="5.57075">
        <ele>664</ele>
        <time>2023-05-28T10:49:32Z</time>
      </trkpt>
      <trkpt lat="43.53582" lon="5.57075">
        <ele>663.8</ele>
        <time>2023-05-28T10:49:33Z</time>
      </trkpt>
      <trkpt lat="43.53582" lon="5.57074">
        <ele>663.6</ele>
        <time>2023-05-28T10:49:34Z</time>
      </trkpt>
      <trkpt lat="43.53581" lon="5.57074">
        <ele>663.5</ele>
        <time>2023-05-28T10:49:35Z</time>
      </trkpt>
      <trkpt lat="43.53581" lon="5.57074">
        <ele>663.4</ele>
        <time>2023-05-28T10:49:36Z</time>
      </trkpt>
      <trkpt lat="43.53581" lon="5.57074">
        <ele>663.3</ele>
        <time>2023-05-28T10:49:37Z</time>
      </trkpt>
      <trkpt lat="43.53581" lon="5.57074">
        <ele>663.2</ele>
        <time>2023-05-28T10:49:38Z</time>
      </trkpt>
      <trkpt lat="43.5358" lon="5.57074">
        <ele>663.1</ele>
        <time>2023-05-28T10:49:39Z</time>
      </trkpt>
      <trkpt lat="43.5358" lon="5.57074">
        <ele>663</ele>
        <time>2023-05-28T10:49:40Z</time>
      </trkpt>
      <trkpt lat="43.5358" lon="5.57073">
        <ele>663</ele>
        <time>2023-05-28T10:49:41Z</time>
      </trkpt>
      <trkpt lat="43.5358" lon="5.57073">
        <ele>662.8</ele>
        <time>2023-05-28T10:49:42Z</time>
      </trkpt>
      <trkpt lat="43.5358" lon="5.57072">
        <ele>662.6</ele>
        <time>2023-05-28T10:49:43Z</time>
      </trkpt>
      <trkpt lat="43.5358" lon="5.57071">
        <ele>662.4</ele>
        <time>2023-05-28T10:49:44Z</time>
      </trkpt>
      <trkpt lat="43.53579" lon="5.57071">
        <ele>662.3</ele>
        <time>2023-05-28T10:49:45Z</time>
      </trkpt>
      <trkpt lat="43.53579" lon="5.57071">
        <ele>662.2</ele>
        <time>2023-05-28T10:49:46Z</time>
      </trkpt>
      <trkpt lat="43.53579" lon="5.57071">
        <ele>661.9</ele>
        <time>2023-05-28T10:49:47Z</time>
      </trkpt>
      <trkpt lat="43.53578" lon="5.57071">
        <ele>661.8</ele>
        <time>2023-05-28T10:49:48Z</time>
      </trkpt>
      <trkpt lat="43.53577" lon="5.57071">
        <ele>661.6</ele>
        <time>2023-05-28T10:49:49Z</time>
      </trkpt>
      <trkpt lat="43.53577" lon="5.57071">
        <ele>661.5</ele>
        <time>2023-05-28T10:49:50Z</time>
      </trkpt>
      <trkpt lat="43.53576" lon="5.5707">
        <ele>661.2</ele>
        <time>2023-05-28T10:49:51Z</time>
      </trkpt>
      <trkpt lat="43.53575" lon="5.5707">
        <ele>660.9</ele>
        <time>2023-05-28T10:49:52Z</time>
      </trkpt>
      <trkpt lat="43.53574" lon="5.5707">
        <ele>660.7</ele>
        <time>2023-05-28T10:49:53Z</time>
      </trkpt>
      <trkpt lat="43.53573" lon="5.5707">
        <ele>660.3</ele>
        <time>2023-05-28T10:49:54Z</time>
      </trkpt>
      <trkpt lat="43.53573" lon="5.57069">
        <ele>660.1</ele>
        <time>2023-05-28T10:49:55Z</time>
      </trkpt>
      <trkpt lat="43.53572" lon="5.57069">
        <ele>659.8</ele>
        <time>2023-05-28T10:49:56Z</time>
      </trkpt>
      <trkpt lat="43.53571" lon="5.57069">
        <ele>659.7</ele>
        <time>2023-05-28T10:49:57Z</time>
      </trkpt>
      <trkpt lat="43.53571" lon="5.57069">
        <ele>659.5</ele>
        <time>2023-05-28T10:49:58Z</time>
      </trkpt>
      <trkpt lat="43.5357" lon="5.57069">
        <ele>659.5</ele>
        <time>2023-05-28T10:49:59Z</time>
      </trkpt>
      <trkpt lat="43.5357" lon="5.57069">
        <ele>659.3</ele>
        <time>2023-05-28T10:50:00Z</time>
      </trkpt>
      <trkpt lat="43.53569" lon="5.57069">
        <ele>659.2</ele>
        <time>2023-05-28T10:50:01Z</time>
      </trkpt>
      <trkpt lat="43.53569" lon="5.57069">
        <ele>659.1</ele>
        <time>2023-05-28T10:50:02Z</time>
      </trkpt>
      <trkpt lat="43.53569" lon="5.5707">
        <ele>659</ele>
        <time>2023-05-28T10:50:03Z</time>
      </trkpt>
      <trkpt lat="43.53568" lon="5.5707">
        <ele>658.8</ele>
        <time>2023-05-28T10:50:04Z</time>
      </trkpt>
      <trkpt lat="43.53568" lon="5.5707">
        <ele>658.7</ele>
        <time>2023-05-28T10:50:05Z</time>
      </trkpt>
      <trkpt lat="43.53568" lon="5.5707">
        <ele>658.6</ele>
        <time>2023-05-28T10:50:06Z</time>
      </trkpt>
      <trkpt lat="43.53568" lon="5.57071">
        <ele>658.5</ele>
        <time>2023-05-28T10:50:07Z</time>
      </trkpt>
      <trkpt lat="43.53568" lon="5.57071">
        <ele>658.4</ele>
        <time>2023-05-28T10:50:08Z</time>
      </trkpt>
      <trkpt lat="43.53568" lon="5.57071">
        <ele>658.3</ele>
        <time>2023-05-28T10:50:09Z</time>
      </trkpt>
      <trkpt lat="43.53568" lon="5.57071">
        <ele>658.3</ele>
        <time>2023-05-28T10:50:10Z</time>
      </trkpt>
      <trkpt lat="43.53568" lon="5.57072">
        <ele>658.5</ele>
        <time>2023-05-28T10:50:11Z</time>
      </trkpt>
      <trkpt lat="43.53568" lon="5.57072">
        <ele>658.5</ele>
        <time>2023-05-28T10:50:12Z</time>
      </trkpt>
      <trkpt lat="43.53568" lon="5.57072">
        <ele>658.5</ele>
        <time>2023-05-28T10:50:13Z</time>
      </trkpt>
      <trkpt lat="43.53568" lon="5.57072">
        <ele>658.5</ele>
        <time>2023-05-28T10:50:14Z</time>
      </trkpt>
      <trkpt lat="43.53568" lon="5.57072">
        <ele>658.4</ele>
        <time>2023-05-28T10:50:15Z</time>
      </trkpt>
      <trkpt lat="43.53568" lon="5.57072">
        <ele>658.4</ele>
        <time>2023-05-28T10:50:16Z</time>
      </trkpt>
      <trkpt lat="43.53568" lon="5.57072">
        <ele>658.4</ele>
        <time>2023-05-28T10:50:17Z</time>
      </trkpt>
      <trkpt lat="43.53568" lon="5.57073">
        <ele>658.3</ele>
        <time>2023-05-28T10:50:18Z</time>
      </trkpt>
      <trkpt lat="43.53568" lon="5.57073">
        <ele>658.2</ele>
        <time>2023-05-28T10:50:19Z</time>
      </trkpt>
      <trkpt lat="43.53568" lon="5.57073">
        <ele>658.1</ele>
        <time>2023-05-28T10:50:20Z</time>
      </trkpt>
      <trkpt lat="43.53568" lon="5.57073">
        <ele>658.1</ele>
        <time>2023-05-28T10:50:21Z</time>
      </trkpt>
      <trkpt lat="43.53568" lon="5.57073">
        <ele>658</ele>
        <time>2023-05-28T10:50:22Z</time>
      </trkpt>
      <trkpt lat="43.53568" lon="5.57073">
        <ele>658</ele>
        <time>2023-05-28T10:50:23Z</time>
      </trkpt>
      <trkpt lat="43.53568" lon="5.57073">
        <ele>658</ele>
        <time>2023-05-28T10:50:24Z</time>
      </trkpt>
      <trkpt lat="43.53568" lon="5.57074">
        <ele>658.1</ele>
        <time>2023-05-28T10:50:25Z</time>
      </trkpt>
      <trkpt lat="43.53568" lon="5.57074">
        <ele>658.1</ele>
        <time>2023-05-28T10:50:26Z</time>
      </trkpt>
      <trkpt lat="43.53568" lon="5.57074">
        <ele>658</ele>
        <time>2023-05-28T10:50:27Z</time>
      </trkpt>
      <trkpt lat="43.53568" lon="5.57074">
        <ele>657.9</ele>
        <time>2023-05-28T10:50:28Z</time>
      </trkpt>
      <trkpt lat="43.53568" lon="5.57074">
        <ele>657.9</ele>
        <time>2023-05-28T10:50:29Z</time>
      </trkpt>
      <trkpt lat="43.53568" lon="5.57074">
        <ele>657.8</ele>
        <time>2023-05-28T10:50:30Z</time>
      </trkpt>
      <trkpt lat="43.53568" lon="5.57074">
        <ele>657.8</ele>
        <time>2023-05-28T10:50:31Z</time>
      </trkpt>
      <trkpt lat="43.53568" lon="5.57074">
        <ele>657.9</ele>
        <time>2023-05-28T10:50:32Z</time>
      </trkpt>
      <trkpt lat="43.53568" lon="5.57074">
        <ele>657.9</ele>
        <time>2023-05-28T10:50:33Z</time>
      </trkpt>
      <trkpt lat="43.53568" lon="5.57074">
        <ele>657.9</ele>
        <time>2023-05-28T10:50:34Z</time>
      </trkpt>
      <trkpt lat="43.53568" lon="5.57074">
        <ele>657.9</ele>
        <time>2023-05-28T10:50:35Z</time>
      </trkpt>
      <trkpt lat="43.53568" lon="5.57073">
        <ele>657.8</ele>
        <time>2023-05-28T10:50:36Z</time>
      </trkpt>
      <trkpt lat="43.53567" lon="5.57073">
        <ele>657.7</ele>
        <time>2023-05-28T10:50:37Z</time>
      </trkpt>
      <trkpt lat="43.53567" lon="5.57073">
        <ele>657.6</ele>
        <time>2023-05-28T10:50:38Z</time>
      </trkpt>
      <trkpt lat="43.53566" lon="5.57073">
        <ele>657.4</ele>
        <time>2023-05-28T10:50:39Z</time>
      </trkpt>
      <trkpt lat="43.53565" lon="5.57073">
        <ele>657.2</ele>
        <time>2023-05-28T10:50:40Z</time>
      </trkpt>
      <trkpt lat="43.53564" lon="5.57073">
        <ele>657</ele>
        <time>2023-05-28T10:50:41Z</time>
      </trkpt>
      <trkpt lat="43.53564" lon="5.57073">
        <ele>656.9</ele>
        <time>2023-05-28T10:50:42Z</time>
      </trkpt>
      <trkpt lat="43.53564" lon="5.57073">
        <ele>656.8</ele>
        <time>2023-05-28T10:50:43Z</time>
      </trkpt>
      <trkpt lat="43.53564" lon="5.57073">
        <ele>656.7</ele>
        <time>2023-05-28T10:50:44Z</time>
      </trkpt>
      <trkpt lat="43.53564" lon="5.57073">
        <ele>656.7</ele>
        <time>2023-05-28T10:50:45Z</time>
      </trkpt>
      <trkpt lat="43.53564" lon="5.57073">
        <ele>656.6</ele>
        <time>2023-05-28T10:50:46Z</time>
      </trkpt>
      <trkpt lat="43.53563" lon="5.57073">
        <ele>656.5</ele>
        <time>2023-05-28T10:50:47Z</time>
      </trkpt>
      <trkpt lat="43.53562" lon="5.57072">
        <ele>656.4</ele>
        <time>2023-05-28T10:50:48Z</time>
      </trkpt>
      <trkpt lat="43.53562" lon="5.57072">
        <ele>656.2</ele>
        <time>2023-05-28T10:50:49Z</time>
      </trkpt>
      <trkpt lat="43.53561" lon="5.57072">
        <ele>656</ele>
        <time>2023-05-28T10:50:50Z</time>
      </trkpt>
      <trkpt lat="43.5356" lon="5.57072">
        <ele>655.8</ele>
        <time>2023-05-28T10:50:51Z</time>
      </trkpt>
      <trkpt lat="43.53559" lon="5.57072">
        <ele>655.7</ele>
        <time>2023-05-28T10:50:52Z</time>
      </trkpt>
      <trkpt lat="43.53559" lon="5.57072">
        <ele>655.6</ele>
        <time>2023-05-28T10:50:53Z</time>
      </trkpt>
      <trkpt lat="43.53558" lon="5.57072">
        <ele>655.5</ele>
        <time>2023-05-28T10:50:54Z</time>
      </trkpt>
      <trkpt lat="43.53558" lon="5.57072">
        <ele>655.2</ele>
        <time>2023-05-28T10:50:55Z</time>
      </trkpt>
      <trkpt lat="43.53557" lon="5.57072">
        <ele>655</ele>
        <time>2023-05-28T10:50:56Z</time>
      </trkpt>
      <trkpt lat="43.53557" lon="5.57072">
        <ele>654.9</ele>
        <time>2023-05-28T10:50:57Z</time>
      </trkpt>
      <trkpt lat="43.53556" lon="5.57072">
        <ele>654.7</ele>
        <time>2023-05-28T10:50:58Z</time>
      </trkpt>
      <trkpt lat="43.53556" lon="5.57072">
        <ele>654.6</ele>
        <time>2023-05-28T10:50:59Z</time>
      </trkpt>
      <trkpt lat="43.53555" lon="5.57072">
        <ele>654.4</ele>
        <time>2023-05-28T10:51:00Z</time>
      </trkpt>
      <trkpt lat="43.53555" lon="5.57072">
        <ele>654.2</ele>
        <time>2023-05-28T10:51:01Z</time>
      </trkpt>
      <trkpt lat="43.53554" lon="5.57072">
        <ele>654</ele>
        <time>2023-05-28T10:51:02Z</time>
      </trkpt>
      <trkpt lat="43.53553" lon="5.57072">
        <ele>653.8</ele>
        <time>2023-05-28T10:51:03Z</time>
      </trkpt>
      <trkpt lat="43.53553" lon="5.57072">
        <ele>653.7</ele>
        <time>2023-05-28T10:51:04Z</time>
      </trkpt>
      <trkpt lat="43.53552" lon="5.57073">
        <ele>653.5</ele>
        <time>2023-05-28T10:51:05Z</time>
      </trkpt>
      <trkpt lat="43.53552" lon="5.57073">
        <ele>653.3</ele>
        <time>2023-05-28T10:51:06Z</time>
      </trkpt>
      <trkpt lat="43.53552" lon="5.57073">
        <ele>653.2</ele>
        <time>2023-05-28T10:51:07Z</time>
      </trkpt>
      <trkpt lat="43.53552" lon="5.57072">
        <ele>653.1</ele>
        <time>2023-05-28T10:51:08Z</time>
      </trkpt>
      <trkpt lat="43.53552" lon="5.57072">
        <ele>652.9</ele>
        <time>2023-05-28T10:51:09Z</time>
      </trkpt>
      <trkpt lat="43.53551" lon="5.57072">
        <ele>652.8</ele>
        <time>2023-05-28T10:51:10Z</time>
      </trkpt>
      <trkpt lat="43.53551" lon="5.57072">
        <ele>652.6</ele>
        <time>2023-05-28T10:51:11Z</time>
      </trkpt>
      <trkpt lat="43.53551" lon="5.57072">
        <ele>652.5</ele>
        <time>2023-05-28T10:51:12Z</time>
      </trkpt>
      <trkpt lat="43.53551" lon="5.57072">
        <ele>652.4</ele>
        <time>2023-05-28T10:51:13Z</time>
      </trkpt>
      <trkpt lat="43.53551" lon="5.57072">
        <ele>652.3</ele>
        <time>2023-05-28T10:51:14Z</time>
      </trkpt>
      <trkpt lat="43.5355" lon="5.57072">
        <ele>652.1</ele>
        <time>2023-05-28T10:51:15Z</time>
      </trkpt>
      <trkpt lat="43.5355" lon="5.57072">
        <ele>652</ele>
        <time>2023-05-28T10:51:16Z</time>
      </trkpt>
      <trkpt lat="43.5355" lon="5.57071">
        <ele>651.9</ele>
        <time>2023-05-28T10:51:17Z</time>
      </trkpt>
      <trkpt lat="43.5355" lon="5.5707">
        <ele>651.8</ele>
        <time>2023-05-28T10:51:18Z</time>
      </trkpt>
      <trkpt lat="43.5355" lon="5.5707">
        <ele>651.7</ele>
        <time>2023-05-28T10:51:19Z</time>
      </trkpt>
      <trkpt lat="43.5355" lon="5.5707">
        <ele>651.5</ele>
        <time>2023-05-28T10:51:20Z</time>
      </trkpt>
      <trkpt lat="43.5355" lon="5.57069">
        <ele>651.3</ele>
        <time>2023-05-28T10:51:21Z</time>
      </trkpt>
      <trkpt lat="43.53549" lon="5.5707">
        <ele>651.1</ele>
        <time>2023-05-28T10:51:22Z</time>
      </trkpt>
      <trkpt lat="43.53549" lon="5.5707">
        <ele>650.8</ele>
        <time>2023-05-28T10:51:23Z</time>
      </trkpt>
      <trkpt lat="43.53548" lon="5.5707">
        <ele>650.8</ele>
        <time>2023-05-28T10:51:24Z</time>
      </trkpt>
      <trkpt lat="43.53548" lon="5.5707">
        <ele>650.7</ele>
        <time>2023-05-28T10:51:25Z</time>
      </trkpt>
      <trkpt lat="43.53547" lon="5.5707">
        <ele>650.5</ele>
        <time>2023-05-28T10:51:26Z</time>
      </trkpt>
      <trkpt lat="43.53547" lon="5.5707">
        <ele>650.4</ele>
        <time>2023-05-28T10:51:27Z</time>
      </trkpt>
      <trkpt lat="43.53547" lon="5.5707">
        <ele>650.3</ele>
        <time>2023-05-28T10:51:28Z</time>
      </trkpt>
      <trkpt lat="43.53546" lon="5.5707">
        <ele>650.1</ele>
        <time>2023-05-28T10:51:29Z</time>
      </trkpt>
      <trkpt lat="43.53546" lon="5.5707">
        <ele>649.9</ele>
        <time>2023-05-28T10:51:30Z</time>
      </trkpt>
      <trkpt lat="43.53545" lon="5.5707">
        <ele>649.7</ele>
        <time>2023-05-28T10:51:31Z</time>
      </trkpt>
      <trkpt lat="43.53545" lon="5.5707">
        <ele>649.6</ele>
        <time>2023-05-28T10:51:32Z</time>
      </trkpt>
      <trkpt lat="43.53545" lon="5.5707">
        <ele>649.4</ele>
        <time>2023-05-28T10:51:33Z</time>
      </trkpt>
      <trkpt lat="43.53545" lon="5.5707">
        <ele>649.4</ele>
        <time>2023-05-28T10:51:34Z</time>
      </trkpt>
      <trkpt lat="43.53544" lon="5.5707">
        <ele>649.3</ele>
        <time>2023-05-28T10:51:35Z</time>
      </trkpt>
      <trkpt lat="43.53544" lon="5.5707">
        <ele>649.2</ele>
        <time>2023-05-28T10:51:36Z</time>
      </trkpt>
      <trkpt lat="43.53543" lon="5.5707">
        <ele>649.1</ele>
        <time>2023-05-28T10:51:37Z</time>
      </trkpt>
      <trkpt lat="43.53543" lon="5.5707">
        <ele>648.9</ele>
        <time>2023-05-28T10:51:38Z</time>
      </trkpt>
      <trkpt lat="43.53543" lon="5.5707">
        <ele>648.8</ele>
        <time>2023-05-28T10:51:39Z</time>
      </trkpt>
      <trkpt lat="43.53543" lon="5.5707">
        <ele>648.7</ele>
        <time>2023-05-28T10:51:40Z</time>
      </trkpt>
      <trkpt lat="43.53543" lon="5.5707">
        <ele>648.6</ele>
        <time>2023-05-28T10:51:41Z</time>
      </trkpt>
      <trkpt lat="43.53543" lon="5.5707">
        <ele>648.4</ele>
        <time>2023-05-28T10:51:42Z</time>
      </trkpt>
      <trkpt lat="43.53543" lon="5.57069">
        <ele>648.2</ele>
        <time>2023-05-28T10:51:43Z</time>
      </trkpt>
      <trkpt lat="43.53543" lon="5.57069">
        <ele>648.1</ele>
        <time>2023-05-28T10:51:44Z</time>
      </trkpt>
      <trkpt lat="43.53543" lon="5.57068">
        <ele>647.9</ele>
        <time>2023-05-28T10:51:45Z</time>
      </trkpt>
      <trkpt lat="43.53543" lon="5.57068">
        <ele>647.7</ele>
        <time>2023-05-28T10:51:46Z</time>
      </trkpt>
      <trkpt lat="43.53542" lon="5.57067">
        <ele>647.5</ele>
        <time>2023-05-28T10:51:47Z</time>
      </trkpt>
      <trkpt lat="43.53542" lon="5.57067">
        <ele>647.3</ele>
        <time>2023-05-28T10:51:48Z</time>
      </trkpt>
      <trkpt lat="43.53543" lon="5.57066">
        <ele>647.1</ele>
        <time>2023-05-28T10:51:49Z</time>
      </trkpt>
      <trkpt lat="43.53543" lon="5.57066">
        <ele>647</ele>
        <time>2023-05-28T10:51:50Z</time>
      </trkpt>
      <trkpt lat="43.53543" lon="5.57066">
        <ele>646.8</ele>
        <time>2023-05-28T10:51:51Z</time>
      </trkpt>
      <trkpt lat="43.53543" lon="5.57065">
        <ele>646.7</ele>
        <time>2023-05-28T10:51:52Z</time>
      </trkpt>
      <trkpt lat="43.53543" lon="5.57065">
        <ele>646.5</ele>
        <time>2023-05-28T10:51:53Z</time>
      </trkpt>
      <trkpt lat="43.53543" lon="5.57064">
        <ele>646.4</ele>
        <time>2023-05-28T10:51:54Z</time>
      </trkpt>
      <trkpt lat="43.53543" lon="5.57064">
        <ele>646.3</ele>
        <time>2023-05-28T10:51:55Z</time>
      </trkpt>
      <trkpt lat="43.53543" lon="5.57063">
        <ele>646.2</ele>
        <time>2023-05-28T10:51:56Z</time>
      </trkpt>
      <trkpt lat="43.53543" lon="5.57063">
        <ele>646.1</ele>
        <time>2023-05-28T10:51:57Z</time>
      </trkpt>
      <trkpt lat="43.53543" lon="5.57063">
        <ele>646</ele>
        <time>2023-05-28T10:51:58Z</time>
      </trkpt>
      <trkpt lat="43.53543" lon="5.57062">
        <ele>645.9</ele>
        <time>2023-05-28T10:51:59Z</time>
      </trkpt>
      <trkpt lat="43.53543" lon="5.57061">
        <ele>645.7</ele>
        <time>2023-05-28T10:52:00Z</time>
      </trkpt>
      <trkpt lat="43.53543" lon="5.57061">
        <ele>645.5</ele>
        <time>2023-05-28T10:52:01Z</time>
      </trkpt>
      <trkpt lat="43.53542" lon="5.5706">
        <ele>645.3</ele>
        <time>2023-05-28T10:52:02Z</time>
      </trkpt>
      <trkpt lat="43.53542" lon="5.5706">
        <ele>645.1</ele>
        <time>2023-05-28T10:52:03Z</time>
      </trkpt>
      <trkpt lat="43.53542" lon="5.57059">
        <ele>644.9</ele>
        <time>2023-05-28T10:52:04Z</time>
      </trkpt>
      <trkpt lat="43.53542" lon="5.57059">
        <ele>644.6</ele>
        <time>2023-05-28T10:52:05Z</time>
      </trkpt>
      <trkpt lat="43.53541" lon="5.57058">
        <ele>644.4</ele>
        <time>2023-05-28T10:52:06Z</time>
      </trkpt>
      <trkpt lat="43.53541" lon="5.57058">
        <ele>644.1</ele>
        <time>2023-05-28T10:52:07Z</time>
      </trkpt>
      <trkpt lat="43.5354" lon="5.57058">
        <ele>643.9</ele>
        <time>2023-05-28T10:52:08Z</time>
      </trkpt>
      <trkpt lat="43.5354" lon="5.57057">
        <ele>643.6</ele>
        <time>2023-05-28T10:52:09Z</time>
      </trkpt>
      <trkpt lat="43.53539" lon="5.57057">
        <ele>643.3</ele>
        <time>2023-05-28T10:52:10Z</time>
      </trkpt>
      <trkpt lat="43.53539" lon="5.57056">
        <ele>642.9</ele>
        <time>2023-05-28T10:52:11Z</time>
      </trkpt>
      <trkpt lat="43.53538" lon="5.57055">
        <ele>642.5</ele>
        <time>2023-05-28T10:52:12Z</time>
      </trkpt>
      <trkpt lat="43.53537" lon="5.57054">
        <ele>642.2</ele>
        <time>2023-05-28T10:52:13Z</time>
      </trkpt>
      <trkpt lat="43.53536" lon="5.57055">
        <ele>641.8</ele>
        <time>2023-05-28T10:52:14Z</time>
      </trkpt>
      <trkpt lat="43.53535" lon="5.57055">
        <ele>641.5</ele>
        <time>2023-05-28T10:52:15Z</time>
      </trkpt>
      <trkpt lat="43.53534" lon="5.57056">
        <ele>641.1</ele>
        <time>2023-05-28T10:52:16Z</time>
      </trkpt>
      <trkpt lat="43.53533" lon="5.57056">
        <ele>640.8</ele>
        <time>2023-05-28T10:52:17Z</time>
      </trkpt>
      <trkpt lat="43.53532" lon="5.57057">
        <ele>640.4</ele>
        <time>2023-05-28T10:52:18Z</time>
      </trkpt>
      <trkpt lat="43.53531" lon="5.57058">
        <ele>640</ele>
        <time>2023-05-28T10:52:19Z</time>
      </trkpt>
      <trkpt lat="43.5353" lon="5.57058">
        <ele>639.8</ele>
        <time>2023-05-28T10:52:20Z</time>
      </trkpt>
      <trkpt lat="43.53529" lon="5.57058">
        <ele>639.4</ele>
        <time>2023-05-28T10:52:21Z</time>
      </trkpt>
      <trkpt lat="43.53528" lon="5.57058">
        <ele>639.2</ele>
        <time>2023-05-28T10:52:22Z</time>
      </trkpt>
      <trkpt lat="43.53527" lon="5.57058">
        <ele>639</ele>
        <time>2023-05-28T10:52:23Z</time>
      </trkpt>
      <trkpt lat="43.53527" lon="5.57058">
        <ele>638.7</ele>
        <time>2023-05-28T10:52:24Z</time>
      </trkpt>
      <trkpt lat="43.53527" lon="5.57057">
        <ele>638.5</ele>
        <time>2023-05-28T10:52:25Z</time>
      </trkpt>
      <trkpt lat="43.53526" lon="5.57056">
        <ele>638.2</ele>
        <time>2023-05-28T10:52:26Z</time>
      </trkpt>
      <trkpt lat="43.53526" lon="5.57055">
        <ele>638</ele>
        <time>2023-05-28T10:52:27Z</time>
      </trkpt>
      <trkpt lat="43.53525" lon="5.57055">
        <ele>637.7</ele>
        <time>2023-05-28T10:52:28Z</time>
      </trkpt>
      <trkpt lat="43.53524" lon="5.57055">
        <ele>637.3</ele>
        <time>2023-05-28T10:52:29Z</time>
      </trkpt>
      <trkpt lat="43.53523" lon="5.57056">
        <ele>637</ele>
        <time>2023-05-28T10:52:30Z</time>
      </trkpt>
      <trkpt lat="43.53523" lon="5.57056">
        <ele>636.7</ele>
        <time>2023-05-28T10:52:31Z</time>
      </trkpt>
      <trkpt lat="43.53522" lon="5.57056">
        <ele>636.4</ele>
        <time>2023-05-28T10:52:32Z</time>
      </trkpt>
      <trkpt lat="43.53521" lon="5.57056">
        <ele>636.1</ele>
        <time>2023-05-28T10:52:33Z</time>
      </trkpt>
      <trkpt lat="43.5352" lon="5.57056">
        <ele>635.8</ele>
        <time>2023-05-28T10:52:34Z</time>
      </trkpt>
      <trkpt lat="43.53519" lon="5.57056">
        <ele>635.5</ele>
        <time>2023-05-28T10:52:35Z</time>
      </trkpt>
      <trkpt lat="43.53519" lon="5.57056">
        <ele>635.2</ele>
        <time>2023-05-28T10:52:36Z</time>
      </trkpt>
      <trkpt lat="43.53519" lon="5.57056">
        <ele>634.9</ele>
        <time>2023-05-28T10:52:37Z</time>
      </trkpt>
      <trkpt lat="43.53518" lon="5.57056">
        <ele>634.6</ele>
        <time>2023-05-28T10:52:38Z</time>
      </trkpt>
      <trkpt lat="43.53518" lon="5.57055">
        <ele>634.3</ele>
        <time>2023-05-28T10:52:39Z</time>
      </trkpt>
      <trkpt lat="43.53517" lon="5.57055">
        <ele>634.1</ele>
        <time>2023-05-28T10:52:40Z</time>
      </trkpt>
      <trkpt lat="43.53517" lon="5.57055">
        <ele>633.8</ele>
        <time>2023-05-28T10:52:41Z</time>
      </trkpt>
      <trkpt lat="43.53517" lon="5.57054">
        <ele>633.6</ele>
        <time>2023-05-28T10:52:42Z</time>
      </trkpt>
      <trkpt lat="43.53516" lon="5.57053">
        <ele>633.3</ele>
        <time>2023-05-28T10:52:43Z</time>
      </trkpt>
      <trkpt lat="43.53516" lon="5.57053">
        <ele>633</ele>
        <time>2023-05-28T10:52:44Z</time>
      </trkpt>
      <trkpt lat="43.53515" lon="5.57053">
        <ele>632.7</ele>
        <time>2023-05-28T10:52:45Z</time>
      </trkpt>
      <trkpt lat="43.53515" lon="5.57054">
        <ele>632.5</ele>
        <time>2023-05-28T10:52:46Z</time>
      </trkpt>
      <trkpt lat="43.53514" lon="5.57054">
        <ele>632.1</ele>
        <time>2023-05-28T10:52:47Z</time>
      </trkpt>
      <trkpt lat="43.53514" lon="5.57055">
        <ele>631.8</ele>
        <time>2023-05-28T10:52:48Z</time>
      </trkpt>
      <trkpt lat="43.53513" lon="5.57055">
        <ele>631.6</ele>
        <time>2023-05-28T10:52:49Z</time>
      </trkpt>
      <trkpt lat="43.53512" lon="5.57055">
        <ele>631.2</ele>
        <time>2023-05-28T10:52:50Z</time>
      </trkpt>
      <trkpt lat="43.53512" lon="5.57056">
        <ele>631</ele>
        <time>2023-05-28T10:52:51Z</time>
      </trkpt>
      <trkpt lat="43.53511" lon="5.57057">
        <ele>630.9</ele>
        <time>2023-05-28T10:52:52Z</time>
      </trkpt>
      <trkpt lat="43.53511" lon="5.57057">
        <ele>630.6</ele>
        <time>2023-05-28T10:52:53Z</time>
      </trkpt>
      <trkpt lat="43.5351" lon="5.57057">
        <ele>630.3</ele>
        <time>2023-05-28T10:52:54Z</time>
      </trkpt>
      <trkpt lat="43.5351" lon="5.57058">
        <ele>630.1</ele>
        <time>2023-05-28T10:52:55Z</time>
      </trkpt>
      <trkpt lat="43.53509" lon="5.57057">
        <ele>629.9</ele>
        <time>2023-05-28T10:52:56Z</time>
      </trkpt>
      <trkpt lat="43.53509" lon="5.57057">
        <ele>629.8</ele>
        <time>2023-05-28T10:52:57Z</time>
      </trkpt>
      <trkpt lat="43.53509" lon="5.57057">
        <ele>629.6</ele>
        <time>2023-05-28T10:52:58Z</time>
      </trkpt>
      <trkpt lat="43.53509" lon="5.57057">
        <ele>629.4</ele>
        <time>2023-05-28T10:52:59Z</time>
      </trkpt>
      <trkpt lat="43.53508" lon="5.57057">
        <ele>629.3</ele>
        <time>2023-05-28T10:53:00Z</time>
      </trkpt>
      <trkpt lat="43.53507" lon="5.57057">
        <ele>629</ele>
        <time>2023-05-28T10:53:01Z</time>
      </trkpt>
      <trkpt lat="43.53507" lon="5.57057">
        <ele>628.8</ele>
        <time>2023-05-28T10:53:02Z</time>
      </trkpt>
      <trkpt lat="43.53506" lon="5.57057">
        <ele>628.7</ele>
        <time>2023-05-28T10:53:03Z</time>
      </trkpt>
      <trkpt lat="43.53506" lon="5.57057">
        <ele>628.6</ele>
        <time>2023-05-28T10:53:04Z</time>
      </trkpt>
      <trkpt lat="43.53505" lon="5.57057">
        <ele>628.5</ele>
        <time>2023-05-28T10:53:05Z</time>
      </trkpt>
      <trkpt lat="43.53505" lon="5.57057">
        <ele>628.3</ele>
        <time>2023-05-28T10:53:06Z</time>
      </trkpt>
      <trkpt lat="43.53504" lon="5.57057">
        <ele>628</ele>
        <time>2023-05-28T10:53:07Z</time>
      </trkpt>
      <trkpt lat="43.53504" lon="5.57057">
        <ele>627.7</ele>
        <time>2023-05-28T10:53:08Z</time>
      </trkpt>
      <trkpt lat="43.53503" lon="5.57057">
        <ele>627.5</ele>
        <time>2023-05-28T10:53:09Z</time>
      </trkpt>
      <trkpt lat="43.53503" lon="5.57057">
        <ele>627.2</ele>
        <time>2023-05-28T10:53:10Z</time>
      </trkpt>
      <trkpt lat="43.53502" lon="5.57057">
        <ele>627</ele>
        <time>2023-05-28T10:53:11Z</time>
      </trkpt>
      <trkpt lat="43.53502" lon="5.57057">
        <ele>626.8</ele>
        <time>2023-05-28T10:53:12Z</time>
      </trkpt>
      <trkpt lat="43.53501" lon="5.57057">
        <ele>626.6</ele>
        <time>2023-05-28T10:53:13Z</time>
      </trkpt>
      <trkpt lat="43.535" lon="5.57057">
        <ele>626.3</ele>
        <time>2023-05-28T10:53:14Z</time>
      </trkpt>
      <trkpt lat="43.535" lon="5.57056">
        <ele>626.1</ele>
        <time>2023-05-28T10:53:15Z</time>
      </trkpt>
      <trkpt lat="43.53499" lon="5.57056">
        <ele>625.8</ele>
        <time>2023-05-28T10:53:16Z</time>
      </trkpt>
      <trkpt lat="43.53498" lon="5.57056">
        <ele>625.5</ele>
        <time>2023-05-28T10:53:17Z</time>
      </trkpt>
      <trkpt lat="43.53498" lon="5.57057">
        <ele>625.2</ele>
        <time>2023-05-28T10:53:18Z</time>
      </trkpt>
      <trkpt lat="43.53497" lon="5.57057">
        <ele>625</ele>
        <time>2023-05-28T10:53:19Z</time>
      </trkpt>
      <trkpt lat="43.53497" lon="5.57057">
        <ele>624.7</ele>
        <time>2023-05-28T10:53:20Z</time>
      </trkpt>
      <trkpt lat="43.53497" lon="5.57057">
        <ele>624.4</ele>
        <time>2023-05-28T10:53:21Z</time>
      </trkpt>
      <trkpt lat="43.53497" lon="5.57056">
        <ele>624.2</ele>
        <time>2023-05-28T10:53:22Z</time>
      </trkpt>
      <trkpt lat="43.53497" lon="5.57057">
        <ele>624.1</ele>
        <time>2023-05-28T10:53:23Z</time>
      </trkpt>
      <trkpt lat="43.53497" lon="5.57057">
        <ele>624</ele>
        <time>2023-05-28T10:53:24Z</time>
      </trkpt>
      <trkpt lat="43.53497" lon="5.57057">
        <ele>623.9</ele>
        <time>2023-05-28T10:53:25Z</time>
      </trkpt>
      <trkpt lat="43.53497" lon="5.57057">
        <ele>623.9</ele>
        <time>2023-05-28T10:53:26Z</time>
      </trkpt>
      <trkpt lat="43.53497" lon="5.57057">
        <ele>623.8</ele>
        <time>2023-05-28T10:53:27Z</time>
      </trkpt>
      <trkpt lat="43.53497" lon="5.57057">
        <ele>623.8</ele>
        <time>2023-05-28T10:53:28Z</time>
      </trkpt>
      <trkpt lat="43.53496" lon="5.57057">
        <ele>623.7</ele>
        <time>2023-05-28T10:53:29Z</time>
      </trkpt>
      <trkpt lat="43.53496" lon="5.57057">
        <ele>623.7</ele>
        <time>2023-05-28T10:53:30Z</time>
      </trkpt>
      <trkpt lat="43.53496" lon="5.57057">
        <ele>623.7</ele>
        <time>2023-05-28T10:53:31Z</time>
      </trkpt>
      <trkpt lat="43.53496" lon="5.57057">
        <ele>623.7</ele>
        <time>2023-05-28T10:53:32Z</time>
      </trkpt>
      <trkpt lat="43.53496" lon="5.57057">
        <ele>623.7</ele>
        <time>2023-05-28T10:53:33Z</time>
      </trkpt>
      <trkpt lat="43.53496" lon="5.57057">
        <ele>623.7</ele>
        <time>2023-05-28T10:53:34Z</time>
      </trkpt>
      <trkpt lat="43.53496" lon="5.57057">
        <ele>623.7</ele>
        <time>2023-05-28T10:53:35Z</time>
      </trkpt>
      <trkpt lat="43.53496" lon="5.57057">
        <ele>623.7</ele>
        <time>2023-05-28T10:53:36Z</time>
      </trkpt>
      <trkpt lat="43.53496" lon="5.57056">
        <ele>623.6</ele>
        <time>2023-05-28T10:53:37Z</time>
      </trkpt>
      <trkpt lat="43.53496" lon="5.57055">
        <ele>623.5</ele>
        <time>2023-05-28T10:53:38Z</time>
      </trkpt>
      <trkpt lat="43.53497" lon="5.57055">
        <ele>623.5</ele>
        <time>2023-05-28T10:53:39Z</time>
      </trkpt>
      <trkpt lat="43.53497" lon="5.57054">
        <ele>623.4</ele>
        <time>2023-05-28T10:53:40Z</time>
      </trkpt>
      <trkpt lat="43.53497" lon="5.57053">
        <ele>623.3</ele>
        <time>2023-05-28T10:53:41Z</time>
      </trkpt>
      <trkpt lat="43.53496" lon="5.57052">
        <ele>623.2</ele>
        <time>2023-05-28T10:53:42Z</time>
      </trkpt>
      <trkpt lat="43.53495" lon="5.57052">
        <ele>622.9</ele>
        <time>2023-05-28T10:53:43Z</time>
      </trkpt>
      <trkpt lat="43.53495" lon="5.57051">
        <ele>622.7</ele>
        <time>2023-05-28T10:53:44Z</time>
      </trkpt>
      <trkpt lat="43.53494" lon="5.57051">
        <ele>622.5</ele>
        <time>2023-05-28T10:53:45Z</time>
      </trkpt>
      <trkpt lat="43.53493" lon="5.57051">
        <ele>622.3</ele>
        <time>2023-05-28T10:53:46Z</time>
      </trkpt>
      <trkpt lat="43.53493" lon="5.57051">
        <ele>622.1</ele>
        <time>2023-05-28T10:53:47Z</time>
      </trkpt>
      <trkpt lat="43.53493" lon="5.57051">
        <ele>622</ele>
        <time>2023-05-28T10:53:48Z</time>
      </trkpt>
      <trkpt lat="43.53492" lon="5.5705">
        <ele>621.8</ele>
        <time>2023-05-28T10:53:49Z</time>
      </trkpt>
      <trkpt lat="43.53493" lon="5.5705">
        <ele>621.6</ele>
        <time>2023-05-28T10:53:50Z</time>
      </trkpt>
      <trkpt lat="43.53493" lon="5.57049">
        <ele>621.4</ele>
        <time>2023-05-28T10:53:51Z</time>
      </trkpt>
      <trkpt lat="43.53493" lon="5.57049">
        <ele>621.3</ele>
        <time>2023-05-28T10:53:52Z</time>
      </trkpt>
      <trkpt lat="43.53494" lon="5.57048">
        <ele>621.1</ele>
        <time>2023-05-28T10:53:53Z</time>
      </trkpt>
      <trkpt lat="43.53494" lon="5.57048">
        <ele>620.9</ele>
        <time>2023-05-28T10:53:54Z</time>
      </trkpt>
      <trkpt lat="43.53494" lon="5.57047">
        <ele>620.7</ele>
        <time>2023-05-28T10:53:55Z</time>
      </trkpt>
      <trkpt lat="43.53494" lon="5.57046">
        <ele>620.5</ele>
        <time>2023-05-28T10:53:56Z</time>
      </trkpt>
      <trkpt lat="43.53494" lon="5.57045">
        <ele>620.3</ele>
        <time>2023-05-28T10:53:57Z</time>
      </trkpt>
      <trkpt lat="43.53494" lon="5.57045">
        <ele>620.2</ele>
        <time>2023-05-28T10:53:58Z</time>
      </trkpt>
      <trkpt lat="43.53494" lon="5.57044">
        <ele>620</ele>
        <time>2023-05-28T10:53:59Z</time>
      </trkpt>
      <trkpt lat="43.53494" lon="5.57044">
        <ele>620</ele>
        <time>2023-05-28T10:54:00Z</time>
      </trkpt>
      <trkpt lat="43.53494" lon="5.57044">
        <ele>619.9</ele>
        <time>2023-05-28T10:54:01Z</time>
      </trkpt>
      <trkpt lat="43.53494" lon="5.57044">
        <ele>619.8</ele>
        <time>2023-05-28T10:54:02Z</time>
      </trkpt>
      <trkpt lat="43.53494" lon="5.57044">
        <ele>619.8</ele>
        <time>2023-05-28T10:54:03Z</time>
      </trkpt>
      <trkpt lat="43.53494" lon="5.57044">
        <ele>619.7</ele>
        <time>2023-05-28T10:54:04Z</time>
      </trkpt>
      <trkpt lat="43.53494" lon="5.57044">
        <ele>619.7</ele>
        <time>2023-05-28T10:54:05Z</time>
      </trkpt>
      <trkpt lat="43.53494" lon="5.57044">
        <ele>619.7</ele>
        <time>2023-05-28T10:54:06Z</time>
      </trkpt>
      <trkpt lat="43.53493" lon="5.57043">
        <ele>619.6</ele>
        <time>2023-05-28T10:54:07Z</time>
      </trkpt>
      <trkpt lat="43.53492" lon="5.57043">
        <ele>619.5</ele>
        <time>2023-05-28T10:54:08Z</time>
      </trkpt>
      <trkpt lat="43.53492" lon="5.57043">
        <ele>619.5</ele>
        <time>2023-05-28T10:54:09Z</time>
      </trkpt>
      <trkpt lat="43.53491" lon="5.57043">
        <ele>619.4</ele>
        <time>2023-05-28T10:54:10Z</time>
      </trkpt>
      <trkpt lat="43.53491" lon="5.57043">
        <ele>619.4</ele>
        <time>2023-05-28T10:54:11Z</time>
      </trkpt>
      <trkpt lat="43.5349" lon="5.57043">
        <ele>619.3</ele>
        <time>2023-05-28T10:54:12Z</time>
      </trkpt>
      <trkpt lat="43.53489" lon="5.57043">
        <ele>619.2</ele>
        <time>2023-05-28T10:54:13Z</time>
      </trkpt>
      <trkpt lat="43.53488" lon="5.57043">
        <ele>619</ele>
        <time>2023-05-28T10:54:14Z</time>
      </trkpt>
      <trkpt lat="43.53487" lon="5.57043">
        <ele>618.9</ele>
        <time>2023-05-28T10:54:15Z</time>
      </trkpt>
      <trkpt lat="43.53486" lon="5.57044">
        <ele>618.7</ele>
        <time>2023-05-28T10:54:16Z</time>
      </trkpt>
      <trkpt lat="43.53486" lon="5.57045">
        <ele>618.7</ele>
        <time>2023-05-28T10:54:17Z</time>
      </trkpt>
      <trkpt lat="43.53485" lon="5.57046">
        <ele>618.6</ele>
        <time>2023-05-28T10:54:18Z</time>
      </trkpt>
      <trkpt lat="43.53485" lon="5.57047">
        <ele>618.5</ele>
        <time>2023-05-28T10:54:19Z</time>
      </trkpt>
      <trkpt lat="43.53484" lon="5.57048">
        <ele>618.4</ele>
        <time>2023-05-28T10:54:20Z</time>
      </trkpt>
      <trkpt lat="43.53483" lon="5.57049">
        <ele>618.3</ele>
        <time>2023-05-28T10:54:21Z</time>
      </trkpt>
      <trkpt lat="43.53482" lon="5.57049">
        <ele>618.2</ele>
        <time>2023-05-28T10:54:22Z</time>
      </trkpt>
      <trkpt lat="43.53482" lon="5.57049">
        <ele>618.1</ele>
        <time>2023-05-28T10:54:23Z</time>
      </trkpt>
      <trkpt lat="43.53481" lon="5.57049">
        <ele>618</ele>
        <time>2023-05-28T10:54:24Z</time>
      </trkpt>
      <trkpt lat="43.5348" lon="5.57049">
        <ele>617.9</ele>
        <time>2023-05-28T10:54:25Z</time>
      </trkpt>
      <trkpt lat="43.5348" lon="5.5705">
        <ele>617.7</ele>
        <time>2023-05-28T10:54:26Z</time>
      </trkpt>
      <trkpt lat="43.53479" lon="5.5705">
        <ele>617.5</ele>
        <time>2023-05-28T10:54:27Z</time>
      </trkpt>
      <trkpt lat="43.53478" lon="5.5705">
        <ele>617.3</ele>
        <time>2023-05-28T10:54:28Z</time>
      </trkpt>
      <trkpt lat="43.53478" lon="5.5705">
        <ele>617.1</ele>
        <time>2023-05-28T10:54:29Z</time>
      </trkpt>
      <trkpt lat="43.53477" lon="5.5705">
        <ele>617</ele>
        <time>2023-05-28T10:54:30Z</time>
      </trkpt>
      <trkpt lat="43.53477" lon="5.5705">
        <ele>616.9</ele>
        <time>2023-05-28T10:54:31Z</time>
      </trkpt>
      <trkpt lat="43.53475" lon="5.5705">
        <ele>616.8</ele>
        <time>2023-05-28T10:54:32Z</time>
      </trkpt>
      <trkpt lat="43.53475" lon="5.5705">
        <ele>616.6</ele>
        <time>2023-05-28T10:54:33Z</time>
      </trkpt>
      <trkpt lat="43.53474" lon="5.5705">
        <ele>616.5</ele>
        <time>2023-05-28T10:54:34Z</time>
      </trkpt>
      <trkpt lat="43.53473" lon="5.5705">
        <ele>616.4</ele>
        <time>2023-05-28T10:54:35Z</time>
      </trkpt>
      <trkpt lat="43.53473" lon="5.5705">
        <ele>616.1</ele>
        <time>2023-05-28T10:54:36Z</time>
      </trkpt>
      <trkpt lat="43.53472" lon="5.57049">
        <ele>615.9</ele>
        <time>2023-05-28T10:54:37Z</time>
      </trkpt>
      <trkpt lat="43.53472" lon="5.57049">
        <ele>615.7</ele>
        <time>2023-05-28T10:54:38Z</time>
      </trkpt>
      <trkpt lat="43.53471" lon="5.57049">
        <ele>615.6</ele>
        <time>2023-05-28T10:54:39Z</time>
      </trkpt>
      <trkpt lat="43.5347" lon="5.57048">
        <ele>615.4</ele>
        <time>2023-05-28T10:54:40Z</time>
      </trkpt>
      <trkpt lat="43.53469" lon="5.57048">
        <ele>615.3</ele>
        <time>2023-05-28T10:54:41Z</time>
      </trkpt>
      <trkpt lat="43.53469" lon="5.57048">
        <ele>615.1</ele>
        <time>2023-05-28T10:54:42Z</time>
      </trkpt>
      <trkpt lat="43.53468" lon="5.57047">
        <ele>615</ele>
        <time>2023-05-28T10:54:43Z</time>
      </trkpt>
      <trkpt lat="43.53467" lon="5.57048">
        <ele>614.7</ele>
        <time>2023-05-28T10:54:44Z</time>
      </trkpt>
      <trkpt lat="43.53467" lon="5.57048">
        <ele>614.6</ele>
        <time>2023-05-28T10:54:45Z</time>
      </trkpt>
      <trkpt lat="43.53467" lon="5.57048">
        <ele>614.4</ele>
        <time>2023-05-28T10:54:46Z</time>
      </trkpt>
      <trkpt lat="43.53467" lon="5.57048">
        <ele>614.2</ele>
        <time>2023-05-28T10:54:47Z</time>
      </trkpt>
      <trkpt lat="43.53466" lon="5.57048">
        <ele>614.2</ele>
        <time>2023-05-28T10:54:48Z</time>
      </trkpt>
      <trkpt lat="43.53466" lon="5.57048">
        <ele>614.1</ele>
        <time>2023-05-28T10:54:49Z</time>
      </trkpt>
      <trkpt lat="43.53466" lon="5.57048">
        <ele>614</ele>
        <time>2023-05-28T10:54:50Z</time>
      </trkpt>
      <trkpt lat="43.53465" lon="5.57048">
        <ele>613.9</ele>
        <time>2023-05-28T10:54:51Z</time>
      </trkpt>
      <trkpt lat="43.53465" lon="5.57048">
        <ele>613.8</ele>
        <time>2023-05-28T10:54:52Z</time>
      </trkpt>
      <trkpt lat="43.53464" lon="5.57048">
        <ele>613.7</ele>
        <time>2023-05-28T10:54:53Z</time>
      </trkpt>
      <trkpt lat="43.53463" lon="5.57048">
        <ele>613.5</ele>
        <time>2023-05-28T10:54:54Z</time>
      </trkpt>
      <trkpt lat="43.53463" lon="5.57048">
        <ele>613.4</ele>
        <time>2023-05-28T10:54:55Z</time>
      </trkpt>
      <trkpt lat="43.53462" lon="5.57047">
        <ele>613.2</ele>
        <time>2023-05-28T10:54:56Z</time>
      </trkpt>
      <trkpt lat="43.53462" lon="5.57047">
        <ele>613</ele>
        <time>2023-05-28T10:54:57Z</time>
      </trkpt>
      <trkpt lat="43.53462" lon="5.57046">
        <ele>612.8</ele>
        <time>2023-05-28T10:54:58Z</time>
      </trkpt>
      <trkpt lat="43.53461" lon="5.57046">
        <ele>612.6</ele>
        <time>2023-05-28T10:54:59Z</time>
      </trkpt>
      <trkpt lat="43.53461" lon="5.57045">
        <ele>612.5</ele>
        <time>2023-05-28T10:55:00Z</time>
      </trkpt>
      <trkpt lat="43.53461" lon="5.57045">
        <ele>612.3</ele>
        <time>2023-05-28T10:55:01Z</time>
      </trkpt>
      <trkpt lat="43.5346" lon="5.57044">
        <ele>612.1</ele>
        <time>2023-05-28T10:55:02Z</time>
      </trkpt>
      <trkpt lat="43.53459" lon="5.57044">
        <ele>611.9</ele>
        <time>2023-05-28T10:55:03Z</time>
      </trkpt>
      <trkpt lat="43.53459" lon="5.57045">
        <ele>611.8</ele>
        <time>2023-05-28T10:55:04Z</time>
      </trkpt>
      <trkpt lat="43.53459" lon="5.57045">
        <ele>611.7</ele>
        <time>2023-05-28T10:55:05Z</time>
      </trkpt>
      <trkpt lat="43.53458" lon="5.57045">
        <ele>611.6</ele>
        <time>2023-05-28T10:55:06Z</time>
      </trkpt>
      <trkpt lat="43.53458" lon="5.57045">
        <ele>611.4</ele>
        <time>2023-05-28T10:55:07Z</time>
      </trkpt>
      <trkpt lat="43.53457" lon="5.57045">
        <ele>611.2</ele>
        <time>2023-05-28T10:55:08Z</time>
      </trkpt>
      <trkpt lat="43.53457" lon="5.57045">
        <ele>611</ele>
        <time>2023-05-28T10:55:09Z</time>
      </trkpt>
      <trkpt lat="43.53456" lon="5.57044">
        <ele>610.9</ele>
        <time>2023-05-28T10:55:10Z</time>
      </trkpt>
      <trkpt lat="43.53456" lon="5.57044">
        <ele>610.7</ele>
        <time>2023-05-28T10:55:11Z</time>
      </trkpt>
      <trkpt lat="43.53455" lon="5.57044">
        <ele>610.5</ele>
        <time>2023-05-28T10:55:12Z</time>
      </trkpt>
      <trkpt lat="43.53454" lon="5.57043">
        <ele>610.3</ele>
        <time>2023-05-28T10:55:13Z</time>
      </trkpt>
      <trkpt lat="43.53454" lon="5.57044">
        <ele>610.2</ele>
        <time>2023-05-28T10:55:14Z</time>
      </trkpt>
      <trkpt lat="43.53453" lon="5.57043">
        <ele>610</ele>
        <time>2023-05-28T10:55:15Z</time>
      </trkpt>
      <trkpt lat="43.53452" lon="5.57043">
        <ele>610</ele>
        <time>2023-05-28T10:55:16Z</time>
      </trkpt>
      <trkpt lat="43.53451" lon="5.57042">
        <ele>609.7</ele>
        <time>2023-05-28T10:55:17Z</time>
      </trkpt>
      <trkpt lat="43.53451" lon="5.57042">
        <ele>609.5</ele>
        <time>2023-05-28T10:55:18Z</time>
      </trkpt>
      <trkpt lat="43.5345" lon="5.57042">
        <ele>609.3</ele>
        <time>2023-05-28T10:55:19Z</time>
      </trkpt>
      <trkpt lat="43.53449" lon="5.57042">
        <ele>609.1</ele>
        <time>2023-05-28T10:55:20Z</time>
      </trkpt>
      <trkpt lat="43.53448" lon="5.57042">
        <ele>608.8</ele>
        <time>2023-05-28T10:55:21Z</time>
      </trkpt>
      <trkpt lat="43.53447" lon="5.57041">
        <ele>608.6</ele>
        <time>2023-05-28T10:55:22Z</time>
      </trkpt>
      <trkpt lat="43.53447" lon="5.5704">
        <ele>608.4</ele>
        <time>2023-05-28T10:55:23Z</time>
      </trkpt>
      <trkpt lat="43.53446" lon="5.5704">
        <ele>608.2</ele>
        <time>2023-05-28T10:55:24Z</time>
      </trkpt>
      <trkpt lat="43.53446" lon="5.57039">
        <ele>608</ele>
        <time>2023-05-28T10:55:25Z</time>
      </trkpt>
      <trkpt lat="43.53445" lon="5.57038">
        <ele>607.8</ele>
        <time>2023-05-28T10:55:26Z</time>
      </trkpt>
      <trkpt lat="43.53444" lon="5.57038">
        <ele>607.7</ele>
        <time>2023-05-28T10:55:27Z</time>
      </trkpt>
      <trkpt lat="43.53443" lon="5.57037">
        <ele>607.6</ele>
        <time>2023-05-28T10:55:28Z</time>
      </trkpt>
      <trkpt lat="43.53443" lon="5.57037">
        <ele>607.4</ele>
        <time>2023-05-28T10:55:29Z</time>
      </trkpt>
      <trkpt lat="43.53442" lon="5.57037">
        <ele>607.3</ele>
        <time>2023-05-28T10:55:30Z</time>
      </trkpt>
      <trkpt lat="43.53441" lon="5.57037">
        <ele>607.2</ele>
        <time>2023-05-28T10:55:31Z</time>
      </trkpt>
      <trkpt lat="43.5344" lon="5.57037">
        <ele>607.2</ele>
        <time>2023-05-28T10:55:32Z</time>
      </trkpt>
      <trkpt lat="43.5344" lon="5.57038">
        <ele>607.1</ele>
        <time>2023-05-28T10:55:33Z</time>
      </trkpt>
      <trkpt lat="43.53439" lon="5.57038">
        <ele>607</ele>
        <time>2023-05-28T10:55:34Z</time>
      </trkpt>
      <trkpt lat="43.53438" lon="5.57037">
        <ele>606.9</ele>
        <time>2023-05-28T10:55:35Z</time>
      </trkpt>
      <trkpt lat="43.53438" lon="5.57037">
        <ele>606.8</ele>
        <time>2023-05-28T10:55:36Z</time>
      </trkpt>
      <trkpt lat="43.53437" lon="5.57037">
        <ele>606.8</ele>
        <time>2023-05-28T10:55:37Z</time>
      </trkpt>
      <trkpt lat="43.53436" lon="5.57037">
        <ele>606.7</ele>
        <time>2023-05-28T10:55:38Z</time>
      </trkpt>
      <trkpt lat="43.53436" lon="5.57037">
        <ele>606.6</ele>
        <time>2023-05-28T10:55:39Z</time>
      </trkpt>
      <trkpt lat="43.53435" lon="5.57037">
        <ele>606.4</ele>
        <time>2023-05-28T10:55:40Z</time>
      </trkpt>
      <trkpt lat="43.53435" lon="5.57037">
        <ele>606.2</ele>
        <time>2023-05-28T10:55:41Z</time>
      </trkpt>
      <trkpt lat="43.53434" lon="5.57037">
        <ele>606.1</ele>
        <time>2023-05-28T10:55:42Z</time>
      </trkpt>
      <trkpt lat="43.53434" lon="5.57036">
        <ele>606</ele>
        <time>2023-05-28T10:55:43Z</time>
      </trkpt>
      <trkpt lat="43.53434" lon="5.57036">
        <ele>605.9</ele>
        <time>2023-05-28T10:55:44Z</time>
      </trkpt>
      <trkpt lat="43.53434" lon="5.57035">
        <ele>605.7</ele>
        <time>2023-05-28T10:55:45Z</time>
      </trkpt>
      <trkpt lat="43.53433" lon="5.57035">
        <ele>605.6</ele>
        <time>2023-05-28T10:55:46Z</time>
      </trkpt>
      <trkpt lat="43.53433" lon="5.57035">
        <ele>605.4</ele>
        <time>2023-05-28T10:55:47Z</time>
      </trkpt>
      <trkpt lat="43.53432" lon="5.57034">
        <ele>605.2</ele>
        <time>2023-05-28T10:55:48Z</time>
      </trkpt>
      <trkpt lat="43.53432" lon="5.57033">
        <ele>605</ele>
        <time>2023-05-28T10:55:49Z</time>
      </trkpt>
      <trkpt lat="43.53432" lon="5.57033">
        <ele>604.8</ele>
        <time>2023-05-28T10:55:50Z</time>
      </trkpt>
      <trkpt lat="43.53432" lon="5.57033">
        <ele>604.6</ele>
        <time>2023-05-28T10:55:51Z</time>
      </trkpt>
      <trkpt lat="43.53432" lon="5.57033">
        <ele>604.4</ele>
        <time>2023-05-28T10:55:52Z</time>
      </trkpt>
      <trkpt lat="43.53432" lon="5.57033">
        <ele>604.3</ele>
        <time>2023-05-28T10:55:53Z</time>
      </trkpt>
      <trkpt lat="43.53432" lon="5.57032">
        <ele>604.2</ele>
        <time>2023-05-28T10:55:54Z</time>
      </trkpt>
      <trkpt lat="43.53431" lon="5.57032">
        <ele>604.1</ele>
        <time>2023-05-28T10:55:55Z</time>
      </trkpt>
      <trkpt lat="43.53431" lon="5.57032">
        <ele>604</ele>
        <time>2023-05-28T10:55:56Z</time>
      </trkpt>
      <trkpt lat="43.53431" lon="5.57032">
        <ele>604</ele>
        <time>2023-05-28T10:55:57Z</time>
      </trkpt>
      <trkpt lat="43.53431" lon="5.57033">
        <ele>603.9</ele>
        <time>2023-05-28T10:55:58Z</time>
      </trkpt>
      <trkpt lat="43.53431" lon="5.57033">
        <ele>603.8</ele>
        <time>2023-05-28T10:55:59Z</time>
      </trkpt>
      <trkpt lat="43.53431" lon="5.57033">
        <ele>603.7</ele>
        <time>2023-05-28T10:56:00Z</time>
      </trkpt>
      <trkpt lat="43.53431" lon="5.57033">
        <ele>603.7</ele>
        <time>2023-05-28T10:56:01Z</time>
      </trkpt>
      <trkpt lat="43.53431" lon="5.57033">
        <ele>603.7</ele>
        <time>2023-05-28T10:56:02Z</time>
      </trkpt>
      <trkpt lat="43.53431" lon="5.57033">
        <ele>603.8</ele>
        <time>2023-05-28T10:56:03Z</time>
      </trkpt>
      <trkpt lat="43.53431" lon="5.57033">
        <ele>603.8</ele>
        <time>2023-05-28T10:56:04Z</time>
      </trkpt>
      <trkpt lat="43.53431" lon="5.57033">
        <ele>603.9</ele>
        <time>2023-05-28T10:56:05Z</time>
      </trkpt>
      <trkpt lat="43.53431" lon="5.57033">
        <ele>603.9</ele>
        <time>2023-05-28T10:56:06Z</time>
      </trkpt>
      <trkpt lat="43.53431" lon="5.57033">
        <ele>603.9</ele>
        <time>2023-05-28T10:56:07Z</time>
      </trkpt>
      <trkpt lat="43.53431" lon="5.57033">
        <ele>603.9</ele>
        <time>2023-05-28T10:56:08Z</time>
      </trkpt>
      <trkpt lat="43.53431" lon="5.57033">
        <ele>603.8</ele>
        <time>2023-05-28T10:56:09Z</time>
      </trkpt>
      <trkpt lat="43.53431" lon="5.57033">
        <ele>603.8</ele>
        <time>2023-05-28T10:56:10Z</time>
      </trkpt>
      <trkpt lat="43.53431" lon="5.57033">
        <ele>603.8</ele>
        <time>2023-05-28T10:56:11Z</time>
      </trkpt>
      <trkpt lat="43.53431" lon="5.57033">
        <ele>603.8</ele>
        <time>2023-05-28T10:56:12Z</time>
      </trkpt>
      <trkpt lat="43.53431" lon="5.57033">
        <ele>603.9</ele>
        <time>2023-05-28T10:56:13Z</time>
      </trkpt>
      <trkpt lat="43.53431" lon="5.57033">
        <ele>603.8</ele>
        <time>2023-05-28T10:56:14Z</time>
      </trkpt>
      <trkpt lat="43.53431" lon="5.57033">
        <ele>603.8</ele>
        <time>2023-05-28T10:56:15Z</time>
      </trkpt>
      <trkpt lat="43.53431" lon="5.57033">
        <ele>603.7</ele>
        <time>2023-05-28T10:56:16Z</time>
      </trkpt>
      <trkpt lat="43.53431" lon="5.57033">
        <ele>603.7</ele>
        <time>2023-05-28T10:56:17Z</time>
      </trkpt>
      <trkpt lat="43.53431" lon="5.57033">
        <ele>603.7</ele>
        <time>2023-05-28T10:56:18Z</time>
      </trkpt>
      <trkpt lat="43.53431" lon="5.57033">
        <ele>603.7</ele>
        <time>2023-05-28T10:56:19Z</time>
      </trkpt>
      <trkpt lat="43.5343" lon="5.57033">
        <ele>603.9</ele>
        <time>2023-05-28T10:56:20Z</time>
      </trkpt>
      <trkpt lat="43.5343" lon="5.57033">
        <ele>603.9</ele>
        <time>2023-05-28T10:56:21Z</time>
      </trkpt>
      <trkpt lat="43.5343" lon="5.57034">
        <ele>603.9</ele>
        <time>2023-05-28T10:56:22Z</time>
      </trkpt>
      <trkpt lat="43.5343" lon="5.57034">
        <ele>604</ele>
        <time>2023-05-28T10:56:23Z</time>
      </trkpt>
      <trkpt lat="43.5343" lon="5.57034">
        <ele>603.9</ele>
        <time>2023-05-28T10:56:24Z</time>
      </trkpt>
      <trkpt lat="43.5343" lon="5.57033">
        <ele>603.9</ele>
        <time>2023-05-28T10:56:25Z</time>
      </trkpt>
      <trkpt lat="43.5343" lon="5.57033">
        <ele>603.8</ele>
        <time>2023-05-28T10:56:26Z</time>
      </trkpt>
      <trkpt lat="43.5343" lon="5.57033">
        <ele>603.8</ele>
        <time>2023-05-28T10:56:27Z</time>
      </trkpt>
      <trkpt lat="43.5343" lon="5.57033">
        <ele>603.8</ele>
        <time>2023-05-28T10:56:28Z</time>
      </trkpt>
      <trkpt lat="43.5343" lon="5.57033">
        <ele>603.8</ele>
        <time>2023-05-28T10:56:29Z</time>
      </trkpt>
      <trkpt lat="43.5343" lon="5.57034">
        <ele>603.9</ele>
        <time>2023-05-28T10:56:30Z</time>
      </trkpt>
      <trkpt lat="43.5343" lon="5.57033">
        <ele>603.9</ele>
        <time>2023-05-28T10:56:31Z</time>
      </trkpt>
      <trkpt lat="43.5343" lon="5.57034">
        <ele>603.9</ele>
        <time>2023-05-28T10:56:32Z</time>
      </trkpt>
      <trkpt lat="43.5343" lon="5.57034">
        <ele>604</ele>
        <time>2023-05-28T10:56:33Z</time>
      </trkpt>
      <trkpt lat="43.5343" lon="5.57033">
        <ele>603.9</ele>
        <time>2023-05-28T10:56:34Z</time>
      </trkpt>
      <trkpt lat="43.5343" lon="5.57033">
        <ele>603.8</ele>
        <time>2023-05-28T10:56:35Z</time>
      </trkpt>
      <trkpt lat="43.5343" lon="5.57032">
        <ele>603.7</ele>
        <time>2023-05-28T10:56:36Z</time>
      </trkpt>
      <trkpt lat="43.53429" lon="5.57031">
        <ele>603.5</ele>
        <time>2023-05-28T10:56:37Z</time>
      </trkpt>
      <trkpt lat="43.53429" lon="5.5703">
        <ele>603.4</ele>
        <time>2023-05-28T10:56:38Z</time>
      </trkpt>
      <trkpt lat="43.53428" lon="5.57029">
        <ele>603.2</ele>
        <time>2023-05-28T10:56:39Z</time>
      </trkpt>
      <trkpt lat="43.53428" lon="5.57028">
        <ele>602.9</ele>
        <time>2023-05-28T10:56:40Z</time>
      </trkpt>
      <trkpt lat="43.53427" lon="5.57027">
        <ele>602.7</ele>
        <time>2023-05-28T10:56:41Z</time>
      </trkpt>
      <trkpt lat="43.53427" lon="5.57027">
        <ele>602.6</ele>
        <time>2023-05-28T10:56:42Z</time>
      </trkpt>
      <trkpt lat="43.53426" lon="5.57027">
        <ele>602.5</ele>
        <time>2023-05-28T10:56:43Z</time>
      </trkpt>
      <trkpt lat="43.53426" lon="5.57026">
        <ele>602.4</ele>
        <time>2023-05-28T10:56:44Z</time>
      </trkpt>
      <trkpt lat="43.53425" lon="5.57026">
        <ele>602.3</ele>
        <time>2023-05-28T10:56:45Z</time>
      </trkpt>
      <trkpt lat="43.53424" lon="5.57026">
        <ele>602.2</ele>
        <time>2023-05-28T10:56:46Z</time>
      </trkpt>
      <trkpt lat="43.53423" lon="5.57026">
        <ele>602.1</ele>
        <time>2023-05-28T10:56:47Z</time>
      </trkpt>
      <trkpt lat="43.53422" lon="5.57027">
        <ele>602</ele>
        <time>2023-05-28T10:56:48Z</time>
      </trkpt>
      <trkpt lat="43.53422" lon="5.57027">
        <ele>601.8</ele>
        <time>2023-05-28T10:56:49Z</time>
      </trkpt>
      <trkpt lat="43.53421" lon="5.57026">
        <ele>601.7</ele>
        <time>2023-05-28T10:56:50Z</time>
      </trkpt>
      <trkpt lat="43.53421" lon="5.57026">
        <ele>601.5</ele>
        <time>2023-05-28T10:56:51Z</time>
      </trkpt>
      <trkpt lat="43.5342" lon="5.57025">
        <ele>601.3</ele>
        <time>2023-05-28T10:56:52Z</time>
      </trkpt>
      <trkpt lat="43.5342" lon="5.57024">
        <ele>601.2</ele>
        <time>2023-05-28T10:56:53Z</time>
      </trkpt>
      <trkpt lat="43.5342" lon="5.57023">
        <ele>601</ele>
        <time>2023-05-28T10:56:54Z</time>
      </trkpt>
      <trkpt lat="43.53419" lon="5.57023">
        <ele>600.8</ele>
        <time>2023-05-28T10:56:55Z</time>
      </trkpt>
      <trkpt lat="43.53418" lon="5.57022">
        <ele>600.6</ele>
        <time>2023-05-28T10:56:56Z</time>
      </trkpt>
      <trkpt lat="43.53418" lon="5.57021">
        <ele>600.4</ele>
        <time>2023-05-28T10:56:57Z</time>
      </trkpt>
      <trkpt lat="43.53417" lon="5.57021">
        <ele>600.3</ele>
        <time>2023-05-28T10:56:58Z</time>
      </trkpt>
      <trkpt lat="43.53416" lon="5.5702">
        <ele>600.1</ele>
        <time>2023-05-28T10:56:59Z</time>
      </trkpt>
      <trkpt lat="43.53414" lon="5.5702">
        <ele>599.9</ele>
        <time>2023-05-28T10:57:00Z</time>
      </trkpt>
      <trkpt lat="43.53413" lon="5.5702">
        <ele>599.7</ele>
        <time>2023-05-28T10:57:01Z</time>
      </trkpt>
      <trkpt lat="43.53412" lon="5.5702">
        <ele>599.5</ele>
        <time>2023-05-28T10:57:02Z</time>
      </trkpt>
      <trkpt lat="43.53411" lon="5.5702">
        <ele>599.4</ele>
        <time>2023-05-28T10:57:03Z</time>
      </trkpt>
      <trkpt lat="43.5341" lon="5.57021">
        <ele>599.2</ele>
        <time>2023-05-28T10:57:04Z</time>
      </trkpt>
      <trkpt lat="43.5341" lon="5.57021">
        <ele>599</ele>
        <time>2023-05-28T10:57:05Z</time>
      </trkpt>
      <trkpt lat="43.53409" lon="5.57021">
        <ele>598.8</ele>
        <time>2023-05-28T10:57:06Z</time>
      </trkpt>
      <trkpt lat="43.53409" lon="5.57021">
        <ele>598.5</ele>
        <time>2023-05-28T10:57:07Z</time>
      </trkpt>
      <trkpt lat="43.53408" lon="5.5702">
        <ele>598.3</ele>
        <time>2023-05-28T10:57:08Z</time>
      </trkpt>
      <trkpt lat="43.53407" lon="5.5702">
        <ele>598.1</ele>
        <time>2023-05-28T10:57:09Z</time>
      </trkpt>
      <trkpt lat="43.53407" lon="5.57019">
        <ele>597.9</ele>
        <time>2023-05-28T10:57:10Z</time>
      </trkpt>
      <trkpt lat="43.53407" lon="5.57019">
        <ele>597.7</ele>
        <time>2023-05-28T10:57:11Z</time>
      </trkpt>
      <trkpt lat="43.53406" lon="5.57018">
        <ele>597.4</ele>
        <time>2023-05-28T10:57:12Z</time>
      </trkpt>
      <trkpt lat="43.53406" lon="5.57017">
        <ele>597.2</ele>
        <time>2023-05-28T10:57:13Z</time>
      </trkpt>
      <trkpt lat="43.53406" lon="5.57017">
        <ele>597</ele>
        <time>2023-05-28T10:57:14Z</time>
      </trkpt>
      <trkpt lat="43.53406" lon="5.57017">
        <ele>596.8</ele>
        <time>2023-05-28T10:57:15Z</time>
      </trkpt>
      <trkpt lat="43.53406" lon="5.57017">
        <ele>596.6</ele>
        <time>2023-05-28T10:57:16Z</time>
      </trkpt>
      <trkpt lat="43.53406" lon="5.57018">
        <ele>596.5</ele>
        <time>2023-05-28T10:57:17Z</time>
      </trkpt>
      <trkpt lat="43.53405" lon="5.57018">
        <ele>596.4</ele>
        <time>2023-05-28T10:57:18Z</time>
      </trkpt>
      <trkpt lat="43.53404" lon="5.57018">
        <ele>596.2</ele>
        <time>2023-05-28T10:57:19Z</time>
      </trkpt>
      <trkpt lat="43.53403" lon="5.57017">
        <ele>596</ele>
        <time>2023-05-28T10:57:20Z</time>
      </trkpt>
      <trkpt lat="43.53402" lon="5.57018">
        <ele>595.8</ele>
        <time>2023-05-28T10:57:21Z</time>
      </trkpt>
      <trkpt lat="43.53402" lon="5.57018">
        <ele>595.5</ele>
        <time>2023-05-28T10:57:22Z</time>
      </trkpt>
      <trkpt lat="43.53401" lon="5.57018">
        <ele>595.3</ele>
        <time>2023-05-28T10:57:23Z</time>
      </trkpt>
      <trkpt lat="43.534" lon="5.57018">
        <ele>595.1</ele>
        <time>2023-05-28T10:57:24Z</time>
      </trkpt>
      <trkpt lat="43.53399" lon="5.57018">
        <ele>594.9</ele>
        <time>2023-05-28T10:57:25Z</time>
      </trkpt>
      <trkpt lat="43.53399" lon="5.57018">
        <ele>594.8</ele>
        <time>2023-05-28T10:57:26Z</time>
      </trkpt>
      <trkpt lat="43.53398" lon="5.57018">
        <ele>594.6</ele>
        <time>2023-05-28T10:57:27Z</time>
      </trkpt>
      <trkpt lat="43.53398" lon="5.57019">
        <ele>594.4</ele>
        <time>2023-05-28T10:57:28Z</time>
      </trkpt>
      <trkpt lat="43.53398" lon="5.57019">
        <ele>594.2</ele>
        <time>2023-05-28T10:57:29Z</time>
      </trkpt>
      <trkpt lat="43.53398" lon="5.57019">
        <ele>594</ele>
        <time>2023-05-28T10:57:30Z</time>
      </trkpt>
      <trkpt lat="43.53398" lon="5.57019">
        <ele>593.8</ele>
        <time>2023-05-28T10:57:31Z</time>
      </trkpt>
      <trkpt lat="43.53398" lon="5.57019">
        <ele>593.7</ele>
        <time>2023-05-28T10:57:32Z</time>
      </trkpt>
      <trkpt lat="43.53398" lon="5.5702">
        <ele>593.7</ele>
        <time>2023-05-28T10:57:33Z</time>
      </trkpt>
      <trkpt lat="43.53398" lon="5.5702">
        <ele>593.6</ele>
        <time>2023-05-28T10:57:34Z</time>
      </trkpt>
      <trkpt lat="43.53398" lon="5.5702">
        <ele>593.5</ele>
        <time>2023-05-28T10:57:35Z</time>
      </trkpt>
      <trkpt lat="43.53398" lon="5.5702">
        <ele>593.5</ele>
        <time>2023-05-28T10:57:36Z</time>
      </trkpt>
      <trkpt lat="43.53398" lon="5.5702">
        <ele>593.5</ele>
        <time>2023-05-28T10:57:37Z</time>
      </trkpt>
      <trkpt lat="43.53398" lon="5.5702">
        <ele>593.4</ele>
        <time>2023-05-28T10:57:38Z</time>
      </trkpt>
      <trkpt lat="43.53398" lon="5.5702">
        <ele>593.4</ele>
        <time>2023-05-28T10:57:39Z</time>
      </trkpt>
      <trkpt lat="43.53398" lon="5.5702">
        <ele>593.4</ele>
        <time>2023-05-28T10:57:40Z</time>
      </trkpt>
      <trkpt lat="43.53398" lon="5.5702">
        <ele>593.4</ele>
        <time>2023-05-28T10:57:41Z</time>
      </trkpt>
      <trkpt lat="43.53399" lon="5.5702">
        <ele>593.3</ele>
        <time>2023-05-28T10:57:42Z</time>
      </trkpt>
      <trkpt lat="43.53399" lon="5.57019">
        <ele>593.4</ele>
        <time>2023-05-28T10:57:43Z</time>
      </trkpt>
      <trkpt lat="43.53398" lon="5.5702">
        <ele>593.4</ele>
        <time>2023-05-28T10:57:44Z</time>
      </trkpt>
      <trkpt lat="43.53397" lon="5.57019">
        <ele>593.4</ele>
        <time>2023-05-28T10:57:45Z</time>
      </trkpt>
      <trkpt lat="43.53395" lon="5.57019">
        <ele>593.2</ele>
        <time>2023-05-28T10:57:46Z</time>
      </trkpt>
      <trkpt lat="43.53394" lon="5.5702">
        <ele>593.1</ele>
        <time>2023-05-28T10:57:47Z</time>
      </trkpt>
      <trkpt lat="43.53393" lon="5.57021">
        <ele>592.9</ele>
        <time>2023-05-28T10:57:48Z</time>
      </trkpt>
      <trkpt lat="43.53392" lon="5.57021">
        <ele>592.6</ele>
        <time>2023-05-28T10:57:49Z</time>
      </trkpt>
      <trkpt lat="43.53391" lon="5.57021">
        <ele>592.4</ele>
        <time>2023-05-28T10:57:50Z</time>
      </trkpt>
      <trkpt lat="43.5339" lon="5.57021">
        <ele>592.1</ele>
        <time>2023-05-28T10:57:51Z</time>
      </trkpt>
      <trkpt lat="43.53389" lon="5.57021">
        <ele>591.8</ele>
        <time>2023-05-28T10:57:52Z</time>
      </trkpt>
      <trkpt lat="43.53389" lon="5.57021">
        <ele>591.5</ele>
        <time>2023-05-28T10:57:53Z</time>
      </trkpt>
      <trkpt lat="43.53387" lon="5.57021">
        <ele>591.2</ele>
        <time>2023-05-28T10:57:54Z</time>
      </trkpt>
      <trkpt lat="43.53386" lon="5.57021">
        <ele>590.8</ele>
        <time>2023-05-28T10:57:55Z</time>
      </trkpt>
      <trkpt lat="43.53386" lon="5.57021">
        <ele>590.5</ele>
        <time>2023-05-28T10:57:56Z</time>
      </trkpt>
      <trkpt lat="43.53385" lon="5.57021">
        <ele>590.3</ele>
        <time>2023-05-28T10:57:57Z</time>
      </trkpt>
      <trkpt lat="43.53384" lon="5.5702">
        <ele>590</ele>
        <time>2023-05-28T10:57:58Z</time>
      </trkpt>
      <trkpt lat="43.53383" lon="5.5702">
        <ele>589.7</ele>
        <time>2023-05-28T10:57:59Z</time>
      </trkpt>
      <trkpt lat="43.53382" lon="5.5702">
        <ele>589.6</ele>
        <time>2023-05-28T10:58:00Z</time>
      </trkpt>
      <trkpt lat="43.53381" lon="5.5702">
        <ele>589.4</ele>
        <time>2023-05-28T10:58:01Z</time>
      </trkpt>
      <trkpt lat="43.53381" lon="5.5702">
        <ele>589.3</ele>
        <time>2023-05-28T10:58:02Z</time>
      </trkpt>
      <trkpt lat="43.5338" lon="5.57019">
        <ele>589.1</ele>
        <time>2023-05-28T10:58:03Z</time>
      </trkpt>
      <trkpt lat="43.53379" lon="5.57018">
        <ele>589</ele>
        <time>2023-05-28T10:58:04Z</time>
      </trkpt>
      <trkpt lat="43.53378" lon="5.57017">
        <ele>588.9</ele>
        <time>2023-05-28T10:58:05Z</time>
      </trkpt>
      <trkpt lat="43.53377" lon="5.57017">
        <ele>588.8</ele>
        <time>2023-05-28T10:58:06Z</time>
      </trkpt>
      <trkpt lat="43.53376" lon="5.57017">
        <ele>588.7</ele>
        <time>2023-05-28T10:58:07Z</time>
      </trkpt>
      <trkpt lat="43.53375" lon="5.57017">
        <ele>588.6</ele>
        <time>2023-05-28T10:58:08Z</time>
      </trkpt>
      <trkpt lat="43.53374" lon="5.57018">
        <ele>588.4</ele>
        <time>2023-05-28T10:58:09Z</time>
      </trkpt>
      <trkpt lat="43.53373" lon="5.57018">
        <ele>588.3</ele>
        <time>2023-05-28T10:58:10Z</time>
      </trkpt>
      <trkpt lat="43.53372" lon="5.57018">
        <ele>588.3</ele>
        <time>2023-05-28T10:58:11Z</time>
      </trkpt>
      <trkpt lat="43.53371" lon="5.57018">
        <ele>588.1</ele>
        <time>2023-05-28T10:58:12Z</time>
      </trkpt>
      <trkpt lat="43.5337" lon="5.57017">
        <ele>588</ele>
        <time>2023-05-28T10:58:13Z</time>
      </trkpt>
      <trkpt lat="43.53369" lon="5.57017">
        <ele>588</ele>
        <time>2023-05-28T10:58:14Z</time>
      </trkpt>
      <trkpt lat="43.53368" lon="5.57016">
        <ele>587.9</ele>
        <time>2023-05-28T10:58:15Z</time>
      </trkpt>
      <trkpt lat="43.53367" lon="5.57015">
        <ele>587.9</ele>
        <time>2023-05-28T10:58:16Z</time>
      </trkpt>
      <trkpt lat="43.53366" lon="5.57014">
        <ele>587.9</ele>
        <time>2023-05-28T10:58:17Z</time>
      </trkpt>
      <trkpt lat="43.53366" lon="5.57013">
        <ele>587.8</ele>
        <time>2023-05-28T10:58:18Z</time>
      </trkpt>
      <trkpt lat="43.53365" lon="5.57011">
        <ele>587.7</ele>
        <time>2023-05-28T10:58:19Z</time>
      </trkpt>
      <trkpt lat="43.53365" lon="5.5701">
        <ele>587.6</ele>
        <time>2023-05-28T10:58:20Z</time>
      </trkpt>
      <trkpt lat="43.53364" lon="5.57009">
        <ele>587.6</ele>
        <time>2023-05-28T10:58:21Z</time>
      </trkpt>
      <trkpt lat="43.53364" lon="5.57008">
        <ele>587.5</ele>
        <time>2023-05-28T10:58:22Z</time>
      </trkpt>
      <trkpt lat="43.53363" lon="5.57006">
        <ele>587.5</ele>
        <time>2023-05-28T10:58:23Z</time>
      </trkpt>
      <trkpt lat="43.53363" lon="5.57005">
        <ele>587.4</ele>
        <time>2023-05-28T10:58:24Z</time>
      </trkpt>
      <trkpt lat="43.53362" lon="5.57004">
        <ele>587.4</ele>
        <time>2023-05-28T10:58:25Z</time>
      </trkpt>
      <trkpt lat="43.53362" lon="5.57002">
        <ele>587.3</ele>
        <time>2023-05-28T10:58:26Z</time>
      </trkpt>
      <trkpt lat="43.53361" lon="5.57001">
        <ele>587.2</ele>
        <time>2023-05-28T10:58:27Z</time>
      </trkpt>
      <trkpt lat="43.5336" lon="5.56999">
        <ele>587.2</ele>
        <time>2023-05-28T10:58:28Z</time>
      </trkpt>
      <trkpt lat="43.53359" lon="5.56997">
        <ele>587.1</ele>
        <time>2023-05-28T10:58:29Z</time>
      </trkpt>
      <trkpt lat="43.53359" lon="5.56996">
        <ele>587.1</ele>
        <time>2023-05-28T10:58:30Z</time>
      </trkpt>
      <trkpt lat="43.53358" lon="5.56995">
        <ele>587</ele>
        <time>2023-05-28T10:58:31Z</time>
      </trkpt>
      <trkpt lat="43.53358" lon="5.56994">
        <ele>586.9</ele>
        <time>2023-05-28T10:58:32Z</time>
      </trkpt>
      <trkpt lat="43.53356" lon="5.56993">
        <ele>586.8</ele>
        <time>2023-05-28T10:58:33Z</time>
      </trkpt>
      <trkpt lat="43.53355" lon="5.56992">
        <ele>586.7</ele>
        <time>2023-05-28T10:58:34Z</time>
      </trkpt>
      <trkpt lat="43.53354" lon="5.56992">
        <ele>586.4</ele>
        <time>2023-05-28T10:58:35Z</time>
      </trkpt>
      <trkpt lat="43.53352" lon="5.56993">
        <ele>586.2</ele>
        <time>2023-05-28T10:58:36Z</time>
      </trkpt>
      <trkpt lat="43.53351" lon="5.56994">
        <ele>586.1</ele>
        <time>2023-05-28T10:58:37Z</time>
      </trkpt>
      <trkpt lat="43.5335" lon="5.56994">
        <ele>585.9</ele>
        <time>2023-05-28T10:58:38Z</time>
      </trkpt>
      <trkpt lat="43.53349" lon="5.56995">
        <ele>585.8</ele>
        <time>2023-05-28T10:58:39Z</time>
      </trkpt>
      <trkpt lat="43.53348" lon="5.56994">
        <ele>585.7</ele>
        <time>2023-05-28T10:58:40Z</time>
      </trkpt>
      <trkpt lat="43.53347" lon="5.56994">
        <ele>585.6</ele>
        <time>2023-05-28T10:58:41Z</time>
      </trkpt>
      <trkpt lat="43.53346" lon="5.56994">
        <ele>585.4</ele>
        <time>2023-05-28T10:58:42Z</time>
      </trkpt>
      <trkpt lat="43.53345" lon="5.56994">
        <ele>585.3</ele>
        <time>2023-05-28T10:58:43Z</time>
      </trkpt>
      <trkpt lat="43.53345" lon="5.56994">
        <ele>585.1</ele>
        <time>2023-05-28T10:58:44Z</time>
      </trkpt>
      <trkpt lat="43.53344" lon="5.56993">
        <ele>585</ele>
        <time>2023-05-28T10:58:45Z</time>
      </trkpt>
      <trkpt lat="43.53344" lon="5.56993">
        <ele>584.9</ele>
        <time>2023-05-28T10:58:46Z</time>
      </trkpt>
      <trkpt lat="43.53344" lon="5.56993">
        <ele>584.8</ele>
        <time>2023-05-28T10:58:47Z</time>
      </trkpt>
      <trkpt lat="43.53344" lon="5.56993">
        <ele>584.7</ele>
        <time>2023-05-28T10:58:48Z</time>
      </trkpt>
      <trkpt lat="43.53344" lon="5.56993">
        <ele>584.7</ele>
        <time>2023-05-28T10:58:49Z</time>
      </trkpt>
      <trkpt lat="43.53344" lon="5.56993">
        <ele>584.7</ele>
        <time>2023-05-28T10:58:50Z</time>
      </trkpt>
      <trkpt lat="43.53344" lon="5.56993">
        <ele>584.6</ele>
        <time>2023-05-28T10:58:51Z</time>
      </trkpt>
      <trkpt lat="43.53344" lon="5.56993">
        <ele>584.5</ele>
        <time>2023-05-28T10:58:52Z</time>
      </trkpt>
      <trkpt lat="43.53344" lon="5.56993">
        <ele>584.5</ele>
        <time>2023-05-28T10:58:53Z</time>
      </trkpt>
      <trkpt lat="43.53344" lon="5.56993">
        <ele>584.4</ele>
        <time>2023-05-28T10:58:54Z</time>
      </trkpt>
      <trkpt lat="43.53344" lon="5.56993">
        <ele>584.4</ele>
        <time>2023-05-28T10:58:55Z</time>
      </trkpt>
      <trkpt lat="43.53344" lon="5.56993">
        <ele>584.4</ele>
        <time>2023-05-28T10:58:56Z</time>
      </trkpt>
      <trkpt lat="43.53344" lon="5.56993">
        <ele>584.3</ele>
        <time>2023-05-28T10:58:57Z</time>
      </trkpt>
      <trkpt lat="43.53344" lon="5.56993">
        <ele>584.3</ele>
        <time>2023-05-28T10:58:58Z</time>
      </trkpt>
      <trkpt lat="43.53344" lon="5.56992">
        <ele>584.2</ele>
        <time>2023-05-28T10:58:59Z</time>
      </trkpt>
      <trkpt lat="43.53344" lon="5.56992">
        <ele>584.2</ele>
        <time>2023-05-28T10:59:00Z</time>
      </trkpt>
      <trkpt lat="43.53343" lon="5.56992">
        <ele>584.1</ele>
        <time>2023-05-28T10:59:01Z</time>
      </trkpt>
      <trkpt lat="43.53342" lon="5.56992">
        <ele>584</ele>
        <time>2023-05-28T10:59:02Z</time>
      </trkpt>
      <trkpt lat="43.53341" lon="5.56991">
        <ele>583.9</ele>
        <time>2023-05-28T10:59:03Z</time>
      </trkpt>
      <trkpt lat="43.5334" lon="5.56991">
        <ele>583.9</ele>
        <time>2023-05-28T10:59:04Z</time>
      </trkpt>
      <trkpt lat="43.53339" lon="5.56991">
        <ele>583.8</ele>
        <time>2023-05-28T10:59:05Z</time>
      </trkpt>
      <trkpt lat="43.53338" lon="5.56991">
        <ele>583.8</ele>
        <time>2023-05-28T10:59:06Z</time>
      </trkpt>
      <trkpt lat="43.53337" lon="5.5699">
        <ele>583.7</ele>
        <time>2023-05-28T10:59:07Z</time>
      </trkpt>
      <trkpt lat="43.53336" lon="5.5699">
        <ele>583.7</ele>
        <time>2023-05-28T10:59:08Z</time>
      </trkpt>
      <trkpt lat="43.53336" lon="5.56989">
        <ele>583.5</ele>
        <time>2023-05-28T10:59:09Z</time>
      </trkpt>
      <trkpt lat="43.53335" lon="5.56988">
        <ele>583.4</ele>
        <time>2023-05-28T10:59:10Z</time>
      </trkpt>
      <trkpt lat="43.53334" lon="5.56988">
        <ele>583.4</ele>
        <time>2023-05-28T10:59:11Z</time>
      </trkpt>
      <trkpt lat="43.53333" lon="5.56987">
        <ele>583.3</ele>
        <time>2023-05-28T10:59:12Z</time>
      </trkpt>
      <trkpt lat="43.53332" lon="5.56986">
        <ele>583.2</ele>
        <time>2023-05-28T10:59:13Z</time>
      </trkpt>
      <trkpt lat="43.53331" lon="5.56985">
        <ele>583.1</ele>
        <time>2023-05-28T10:59:14Z</time>
      </trkpt>
      <trkpt lat="43.5333" lon="5.56984">
        <ele>583</ele>
        <time>2023-05-28T10:59:15Z</time>
      </trkpt>
      <trkpt lat="43.5333" lon="5.56983">
        <ele>582.9</ele>
        <time>2023-05-28T10:59:16Z</time>
      </trkpt>
      <trkpt lat="43.53329" lon="5.56982">
        <ele>582.8</ele>
        <time>2023-05-28T10:59:17Z</time>
      </trkpt>
      <trkpt lat="43.53328" lon="5.56981">
        <ele>582.8</ele>
        <time>2023-05-28T10:59:18Z</time>
      </trkpt>
      <trkpt lat="43.53328" lon="5.56979">
        <ele>582.8</ele>
        <time>2023-05-28T10:59:19Z</time>
      </trkpt>
      <trkpt lat="43.53327" lon="5.56978">
        <ele>582.8</ele>
        <time>2023-05-28T10:59:20Z</time>
      </trkpt>
      <trkpt lat="43.53327" lon="5.56977">
        <ele>582.7</ele>
        <time>2023-05-28T10:59:21Z</time>
      </trkpt>
      <trkpt lat="43.53326" lon="5.56976">
        <ele>582.7</ele>
        <time>2023-05-28T10:59:22Z</time>
      </trkpt>
      <trkpt lat="43.53326" lon="5.56974">
        <ele>582.6</ele>
        <time>2023-05-28T10:59:23Z</time>
      </trkpt>
      <trkpt lat="43.53326" lon="5.56973">
        <ele>582.6</ele>
        <time>2023-05-28T10:59:24Z</time>
      </trkpt>
      <trkpt lat="43.53325" lon="5.56972">
        <ele>582.6</ele>
        <time>2023-05-28T10:59:25Z</time>
      </trkpt>
      <trkpt lat="43.53325" lon="5.56971">
        <ele>582.5</ele>
        <time>2023-05-28T10:59:26Z</time>
      </trkpt>
      <trkpt lat="43.53324" lon="5.56969">
        <ele>582.4</ele>
        <time>2023-05-28T10:59:27Z</time>
      </trkpt>
      <trkpt lat="43.53323" lon="5.56968">
        <ele>582.4</ele>
        <time>2023-05-28T10:59:28Z</time>
      </trkpt>
      <trkpt lat="43.53322" lon="5.56967">
        <ele>582.3</ele>
        <time>2023-05-28T10:59:29Z</time>
      </trkpt>
      <trkpt lat="43.53321" lon="5.56966">
        <ele>582.2</ele>
        <time>2023-05-28T10:59:30Z</time>
      </trkpt>
      <trkpt lat="43.5332" lon="5.56966">
        <ele>582.1</ele>
        <time>2023-05-28T10:59:31Z</time>
      </trkpt>
      <trkpt lat="43.5332" lon="5.56965">
        <ele>582</ele>
        <time>2023-05-28T10:59:32Z</time>
      </trkpt>
      <trkpt lat="43.53319" lon="5.56965">
        <ele>581.9</ele>
        <time>2023-05-28T10:59:33Z</time>
      </trkpt>
      <trkpt lat="43.53318" lon="5.56964">
        <ele>581.9</ele>
        <time>2023-05-28T10:59:34Z</time>
      </trkpt>
      <trkpt lat="43.53318" lon="5.56965">
        <ele>581.8</ele>
        <time>2023-05-28T10:59:35Z</time>
      </trkpt>
      <trkpt lat="43.53317" lon="5.56965">
        <ele>581.7</ele>
        <time>2023-05-28T10:59:36Z</time>
      </trkpt>
      <trkpt lat="43.53317" lon="5.56965">
        <ele>581.6</ele>
        <time>2023-05-28T10:59:37Z</time>
      </trkpt>
      <trkpt lat="43.53317" lon="5.56965">
        <ele>581.4</ele>
        <time>2023-05-28T10:59:38Z</time>
      </trkpt>
      <trkpt lat="43.53317" lon="5.56965">
        <ele>581.3</ele>
        <time>2023-05-28T10:59:39Z</time>
      </trkpt>
      <trkpt lat="43.53317" lon="5.56965">
        <ele>581.2</ele>
        <time>2023-05-28T10:59:40Z</time>
      </trkpt>
      <trkpt lat="43.53317" lon="5.56965">
        <ele>581.2</ele>
        <time>2023-05-28T10:59:41Z</time>
      </trkpt>
      <trkpt lat="43.53317" lon="5.56965">
        <ele>581.1</ele>
        <time>2023-05-28T10:59:42Z</time>
      </trkpt>
      <trkpt lat="43.53317" lon="5.56965">
        <ele>581.1</ele>
        <time>2023-05-28T10:59:43Z</time>
      </trkpt>
      <trkpt lat="43.53317" lon="5.56965">
        <ele>581</ele>
        <time>2023-05-28T10:59:44Z</time>
      </trkpt>
      <trkpt lat="43.53317" lon="5.56965">
        <ele>580.9</ele>
        <time>2023-05-28T10:59:45Z</time>
      </trkpt>
      <trkpt lat="43.53317" lon="5.56965">
        <ele>580.9</ele>
        <time>2023-05-28T10:59:46Z</time>
      </trkpt>
      <trkpt lat="43.53317" lon="5.56965">
        <ele>580.9</ele>
        <time>2023-05-28T10:59:47Z</time>
      </trkpt>
      <trkpt lat="43.53317" lon="5.56965">
        <ele>580.9</ele>
        <time>2023-05-28T10:59:48Z</time>
      </trkpt>
      <trkpt lat="43.53317" lon="5.56966">
        <ele>580.8</ele>
        <time>2023-05-28T10:59:49Z</time>
      </trkpt>
      <trkpt lat="43.53316" lon="5.56966">
        <ele>580.8</ele>
        <time>2023-05-28T10:59:50Z</time>
      </trkpt>
      <trkpt lat="43.53316" lon="5.56966">
        <ele>580.7</ele>
        <time>2023-05-28T10:59:51Z</time>
      </trkpt>
      <trkpt lat="43.53316" lon="5.56967">
        <ele>580.5</ele>
        <time>2023-05-28T10:59:52Z</time>
      </trkpt>
      <trkpt lat="43.53315" lon="5.56967">
        <ele>580.6</ele>
        <time>2023-05-28T10:59:53Z</time>
      </trkpt>
      <trkpt lat="43.53315" lon="5.56967">
        <ele>580.5</ele>
        <time>2023-05-28T10:59:54Z</time>
      </trkpt>
      <trkpt lat="43.53315" lon="5.56967">
        <ele>580.4</ele>
        <time>2023-05-28T10:59:55Z</time>
      </trkpt>
      <trkpt lat="43.53314" lon="5.56967">
        <ele>580.4</ele>
        <time>2023-05-28T10:59:56Z</time>
      </trkpt>
      <trkpt lat="43.53313" lon="5.56968">
        <ele>580.3</ele>
        <time>2023-05-28T10:59:57Z</time>
      </trkpt>
      <trkpt lat="43.53312" lon="5.56968">
        <ele>580.3</ele>
        <time>2023-05-28T10:59:58Z</time>
      </trkpt>
      <trkpt lat="43.53311" lon="5.56967">
        <ele>580.2</ele>
        <time>2023-05-28T10:59:59Z</time>
      </trkpt>
      <trkpt lat="43.53311" lon="5.56967">
        <ele>580.1</ele>
        <time>2023-05-28T11:00:00Z</time>
      </trkpt>
      <trkpt lat="43.5331" lon="5.56967">
        <ele>580</ele>
        <time>2023-05-28T11:00:01Z</time>
      </trkpt>
      <trkpt lat="43.53309" lon="5.56967">
        <ele>579.8</ele>
        <time>2023-05-28T11:00:02Z</time>
      </trkpt>
      <trkpt lat="43.53309" lon="5.56966">
        <ele>579.7</ele>
        <time>2023-05-28T11:00:03Z</time>
      </trkpt>
      <trkpt lat="43.53309" lon="5.56965">
        <ele>579.6</ele>
        <time>2023-05-28T11:00:04Z</time>
      </trkpt>
      <trkpt lat="43.53308" lon="5.56963">
        <ele>579.4</ele>
        <time>2023-05-28T11:00:05Z</time>
      </trkpt>
      <trkpt lat="43.53308" lon="5.56962">
        <ele>579.1</ele>
        <time>2023-05-28T11:00:06Z</time>
      </trkpt>
      <trkpt lat="43.53307" lon="5.56961">
        <ele>578.9</ele>
        <time>2023-05-28T11:00:07Z</time>
      </trkpt>
      <trkpt lat="43.53306" lon="5.56961">
        <ele>578.8</ele>
        <time>2023-05-28T11:00:08Z</time>
      </trkpt>
      <trkpt lat="43.53305" lon="5.5696">
        <ele>578.7</ele>
        <time>2023-05-28T11:00:09Z</time>
      </trkpt>
      <trkpt lat="43.53305" lon="5.5696">
        <ele>578.6</ele>
        <time>2023-05-28T11:00:10Z</time>
      </trkpt>
      <trkpt lat="43.53304" lon="5.56959">
        <ele>578.5</ele>
        <time>2023-05-28T11:00:11Z</time>
      </trkpt>
      <trkpt lat="43.53304" lon="5.56958">
        <ele>578.4</ele>
        <time>2023-05-28T11:00:12Z</time>
      </trkpt>
      <trkpt lat="43.53303" lon="5.56958">
        <ele>578.2</ele>
        <time>2023-05-28T11:00:13Z</time>
      </trkpt>
      <trkpt lat="43.53303" lon="5.56957">
        <ele>578.2</ele>
        <time>2023-05-28T11:00:14Z</time>
      </trkpt>
      <trkpt lat="43.53302" lon="5.56957">
        <ele>578.1</ele>
        <time>2023-05-28T11:00:15Z</time>
      </trkpt>
      <trkpt lat="43.53301" lon="5.56956">
        <ele>578</ele>
        <time>2023-05-28T11:00:16Z</time>
      </trkpt>
      <trkpt lat="43.533" lon="5.56956">
        <ele>577.9</ele>
        <time>2023-05-28T11:00:17Z</time>
      </trkpt>
      <trkpt lat="43.533" lon="5.56956">
        <ele>577.7</ele>
        <time>2023-05-28T11:00:18Z</time>
      </trkpt>
      <trkpt lat="43.53299" lon="5.56956">
        <ele>577.6</ele>
        <time>2023-05-28T11:00:19Z</time>
      </trkpt>
      <trkpt lat="43.53299" lon="5.56956">
        <ele>577.4</ele>
        <time>2023-05-28T11:00:20Z</time>
      </trkpt>
      <trkpt lat="43.53298" lon="5.56955">
        <ele>577.3</ele>
        <time>2023-05-28T11:00:21Z</time>
      </trkpt>
      <trkpt lat="43.53298" lon="5.56955">
        <ele>577.1</ele>
        <time>2023-05-28T11:00:22Z</time>
      </trkpt>
      <trkpt lat="43.53298" lon="5.56955">
        <ele>577</ele>
        <time>2023-05-28T11:00:23Z</time>
      </trkpt>
      <trkpt lat="43.53297" lon="5.56954">
        <ele>576.7</ele>
        <time>2023-05-28T11:00:24Z</time>
      </trkpt>
      <trkpt lat="43.53296" lon="5.56954">
        <ele>576.5</ele>
        <time>2023-05-28T11:00:25Z</time>
      </trkpt>
      <trkpt lat="43.53296" lon="5.56953">
        <ele>576.3</ele>
        <time>2023-05-28T11:00:26Z</time>
      </trkpt>
      <trkpt lat="43.53295" lon="5.56952">
        <ele>576.1</ele>
        <time>2023-05-28T11:00:27Z</time>
      </trkpt>
      <trkpt lat="43.53294" lon="5.5695">
        <ele>575.8</ele>
        <time>2023-05-28T11:00:28Z</time>
      </trkpt>
      <trkpt lat="43.53293" lon="5.5695">
        <ele>575.5</ele>
        <time>2023-05-28T11:00:29Z</time>
      </trkpt>
      <trkpt lat="43.53293" lon="5.56949">
        <ele>575.2</ele>
        <time>2023-05-28T11:00:30Z</time>
      </trkpt>
      <trkpt lat="43.53292" lon="5.56949">
        <ele>574.9</ele>
        <time>2023-05-28T11:00:31Z</time>
      </trkpt>
      <trkpt lat="43.53291" lon="5.56948">
        <ele>574.7</ele>
        <time>2023-05-28T11:00:32Z</time>
      </trkpt>
      <trkpt lat="43.5329" lon="5.56947">
        <ele>574.4</ele>
        <time>2023-05-28T11:00:33Z</time>
      </trkpt>
      <trkpt lat="43.53289" lon="5.56946">
        <ele>574.2</ele>
        <time>2023-05-28T11:00:34Z</time>
      </trkpt>
      <trkpt lat="43.53288" lon="5.56945">
        <ele>574</ele>
        <time>2023-05-28T11:00:35Z</time>
      </trkpt>
      <trkpt lat="43.53288" lon="5.56944">
        <ele>573.8</ele>
        <time>2023-05-28T11:00:36Z</time>
      </trkpt>
      <trkpt lat="43.53288" lon="5.56944">
        <ele>573.6</ele>
        <time>2023-05-28T11:00:37Z</time>
      </trkpt>
      <trkpt lat="43.53288" lon="5.56944">
        <ele>573.4</ele>
        <time>2023-05-28T11:00:38Z</time>
      </trkpt>
      <trkpt lat="43.53288" lon="5.56944">
        <ele>573.2</ele>
        <time>2023-05-28T11:00:39Z</time>
      </trkpt>
      <trkpt lat="43.53288" lon="5.56944">
        <ele>573.1</ele>
        <time>2023-05-28T11:00:40Z</time>
      </trkpt>
      <trkpt lat="43.53288" lon="5.56944">
        <ele>573</ele>
        <time>2023-05-28T11:00:41Z</time>
      </trkpt>
      <trkpt lat="43.53288" lon="5.56944">
        <ele>572.9</ele>
        <time>2023-05-28T11:00:42Z</time>
      </trkpt>
      <trkpt lat="43.53287" lon="5.56944">
        <ele>573</ele>
        <time>2023-05-28T11:00:43Z</time>
      </trkpt>
      <trkpt lat="43.53287" lon="5.56944">
        <ele>572.9</ele>
        <time>2023-05-28T11:00:44Z</time>
      </trkpt>
      <trkpt lat="43.53286" lon="5.56944">
        <ele>572.8</ele>
        <time>2023-05-28T11:00:45Z</time>
      </trkpt>
      <trkpt lat="43.53285" lon="5.56944">
        <ele>572.6</ele>
        <time>2023-05-28T11:00:46Z</time>
      </trkpt>
      <trkpt lat="43.53284" lon="5.56944">
        <ele>572.4</ele>
        <time>2023-05-28T11:00:47Z</time>
      </trkpt>
      <trkpt lat="43.53283" lon="5.56943">
        <ele>572.2</ele>
        <time>2023-05-28T11:00:48Z</time>
      </trkpt>
      <trkpt lat="43.53282" lon="5.56943">
        <ele>572</ele>
        <time>2023-05-28T11:00:49Z</time>
      </trkpt>
      <trkpt lat="43.5328" lon="5.56943">
        <ele>571.8</ele>
        <time>2023-05-28T11:00:50Z</time>
      </trkpt>
      <trkpt lat="43.53279" lon="5.56943">
        <ele>571.7</ele>
        <time>2023-05-28T11:00:51Z</time>
      </trkpt>
      <trkpt lat="43.53278" lon="5.56943">
        <ele>571.5</ele>
        <time>2023-05-28T11:00:52Z</time>
      </trkpt>
      <trkpt lat="43.53278" lon="5.56942">
        <ele>571.2</ele>
        <time>2023-05-28T11:00:53Z</time>
      </trkpt>
      <trkpt lat="43.53277" lon="5.56941">
        <ele>571</ele>
        <time>2023-05-28T11:00:54Z</time>
      </trkpt>
      <trkpt lat="43.53277" lon="5.5694">
        <ele>570.9</ele>
        <time>2023-05-28T11:00:55Z</time>
      </trkpt>
      <trkpt lat="43.53276" lon="5.5694">
        <ele>570.6</ele>
        <time>2023-05-28T11:00:56Z</time>
      </trkpt>
      <trkpt lat="43.53276" lon="5.5694">
        <ele>570.4</ele>
        <time>2023-05-28T11:00:57Z</time>
      </trkpt>
      <trkpt lat="43.53275" lon="5.56939">
        <ele>570.1</ele>
        <time>2023-05-28T11:00:58Z</time>
      </trkpt>
      <trkpt lat="43.53274" lon="5.56939">
        <ele>569.9</ele>
        <time>2023-05-28T11:00:59Z</time>
      </trkpt>
      <trkpt lat="43.53273" lon="5.56938">
        <ele>569.7</ele>
        <time>2023-05-28T11:01:00Z</time>
      </trkpt>
      <trkpt lat="43.53272" lon="5.56938">
        <ele>569.4</ele>
        <time>2023-05-28T11:01:01Z</time>
      </trkpt>
      <trkpt lat="43.53272" lon="5.56937">
        <ele>569.2</ele>
        <time>2023-05-28T11:01:02Z</time>
      </trkpt>
      <trkpt lat="43.53271" lon="5.56936">
        <ele>569</ele>
        <time>2023-05-28T11:01:03Z</time>
      </trkpt>
      <trkpt lat="43.5327" lon="5.56935">
        <ele>568.8</ele>
        <time>2023-05-28T11:01:04Z</time>
      </trkpt>
      <trkpt lat="43.53269" lon="5.56934">
        <ele>568.5</ele>
        <time>2023-05-28T11:01:05Z</time>
      </trkpt>
      <trkpt lat="43.53268" lon="5.56932">
        <ele>568.3</ele>
        <time>2023-05-28T11:01:06Z</time>
      </trkpt>
      <trkpt lat="43.53268" lon="5.56931">
        <ele>568.1</ele>
        <time>2023-05-28T11:01:07Z</time>
      </trkpt>
      <trkpt lat="43.53267" lon="5.5693">
        <ele>568</ele>
        <time>2023-05-28T11:01:08Z</time>
      </trkpt>
      <trkpt lat="43.53267" lon="5.56929">
        <ele>567.8</ele>
        <time>2023-05-28T11:01:09Z</time>
      </trkpt>
      <trkpt lat="43.53266" lon="5.56929">
        <ele>567.7</ele>
        <time>2023-05-28T11:01:10Z</time>
      </trkpt>
      <trkpt lat="43.53265" lon="5.56928">
        <ele>567.6</ele>
        <time>2023-05-28T11:01:11Z</time>
      </trkpt>
      <trkpt lat="43.53264" lon="5.56927">
        <ele>567.5</ele>
        <time>2023-05-28T11:01:12Z</time>
      </trkpt>
      <trkpt lat="43.53263" lon="5.56927">
        <ele>567.5</ele>
        <time>2023-05-28T11:01:13Z</time>
      </trkpt>
      <trkpt lat="43.53263" lon="5.56926">
        <ele>567.3</ele>
        <time>2023-05-28T11:01:14Z</time>
      </trkpt>
      <trkpt lat="43.53262" lon="5.56926">
        <ele>567.2</ele>
        <time>2023-05-28T11:01:15Z</time>
      </trkpt>
      <trkpt lat="43.53262" lon="5.56926">
        <ele>567</ele>
        <time>2023-05-28T11:01:16Z</time>
      </trkpt>
      <trkpt lat="43.53262" lon="5.56926">
        <ele>567</ele>
        <time>2023-05-28T11:01:17Z</time>
      </trkpt>
      <trkpt lat="43.53261" lon="5.56926">
        <ele>566.9</ele>
        <time>2023-05-28T11:01:18Z</time>
      </trkpt>
      <trkpt lat="43.53261" lon="5.56926">
        <ele>566.9</ele>
        <time>2023-05-28T11:01:19Z</time>
      </trkpt>
      <trkpt lat="43.53261" lon="5.56926">
        <ele>566.8</ele>
        <time>2023-05-28T11:01:20Z</time>
      </trkpt>
      <trkpt lat="43.53261" lon="5.56925">
        <ele>566.8</ele>
        <time>2023-05-28T11:01:21Z</time>
      </trkpt>
      <trkpt lat="43.53261" lon="5.56924">
        <ele>566.7</ele>
        <time>2023-05-28T11:01:22Z</time>
      </trkpt>
      <trkpt lat="43.5326" lon="5.56923">
        <ele>566.7</ele>
        <time>2023-05-28T11:01:23Z</time>
      </trkpt>
      <trkpt lat="43.5326" lon="5.56922">
        <ele>566.7</ele>
        <time>2023-05-28T11:01:24Z</time>
      </trkpt>
      <trkpt lat="43.53259" lon="5.56921">
        <ele>566.7</ele>
        <time>2023-05-28T11:01:25Z</time>
      </trkpt>
      <trkpt lat="43.53259" lon="5.56921">
        <ele>566.7</ele>
        <time>2023-05-28T11:01:26Z</time>
      </trkpt>
      <trkpt lat="43.53259" lon="5.56921">
        <ele>566.6</ele>
        <time>2023-05-28T11:01:27Z</time>
      </trkpt>
      <trkpt lat="43.53259" lon="5.56921">
        <ele>566.6</ele>
        <time>2023-05-28T11:01:28Z</time>
      </trkpt>
      <trkpt lat="43.53259" lon="5.56921">
        <ele>566.5</ele>
        <time>2023-05-28T11:01:29Z</time>
      </trkpt>
      <trkpt lat="43.53259" lon="5.56922">
        <ele>566.4</ele>
        <time>2023-05-28T11:01:30Z</time>
      </trkpt>
      <trkpt lat="43.53259" lon="5.56922">
        <ele>566.4</ele>
        <time>2023-05-28T11:01:31Z</time>
      </trkpt>
      <trkpt lat="43.53259" lon="5.56922">
        <ele>566.4</ele>
        <time>2023-05-28T11:01:32Z</time>
      </trkpt>
      <trkpt lat="43.53258" lon="5.56921">
        <ele>566.4</ele>
        <time>2023-05-28T11:01:33Z</time>
      </trkpt>
      <trkpt lat="43.53258" lon="5.5692">
        <ele>566.4</ele>
        <time>2023-05-28T11:01:34Z</time>
      </trkpt>
      <trkpt lat="43.53257" lon="5.56919">
        <ele>566.4</ele>
        <time>2023-05-28T11:01:35Z</time>
      </trkpt>
      <trkpt lat="43.53257" lon="5.56918">
        <ele>566.4</ele>
        <time>2023-05-28T11:01:36Z</time>
      </trkpt>
      <trkpt lat="43.53256" lon="5.56917">
        <ele>566.4</ele>
        <time>2023-05-28T11:01:37Z</time>
      </trkpt>
      <trkpt lat="43.53256" lon="5.56916">
        <ele>566.3</ele>
        <time>2023-05-28T11:01:38Z</time>
      </trkpt>
      <trkpt lat="43.53255" lon="5.56915">
        <ele>566.2</ele>
        <time>2023-05-28T11:01:39Z</time>
      </trkpt>
      <trkpt lat="43.53255" lon="5.56914">
        <ele>566.2</ele>
        <time>2023-05-28T11:01:40Z</time>
      </trkpt>
      <trkpt lat="43.53254" lon="5.56913">
        <ele>566.2</ele>
        <time>2023-05-28T11:01:41Z</time>
      </trkpt>
      <trkpt lat="43.53253" lon="5.56913">
        <ele>566.2</ele>
        <time>2023-05-28T11:01:42Z</time>
      </trkpt>
      <trkpt lat="43.53252" lon="5.56912">
        <ele>566.2</ele>
        <time>2023-05-28T11:01:43Z</time>
      </trkpt>
      <trkpt lat="43.53252" lon="5.56911">
        <ele>566.2</ele>
        <time>2023-05-28T11:01:44Z</time>
      </trkpt>
      <trkpt lat="43.53251" lon="5.5691">
        <ele>566.3</ele>
        <time>2023-05-28T11:01:45Z</time>
      </trkpt>
      <trkpt lat="43.53251" lon="5.56909">
        <ele>566.2</ele>
        <time>2023-05-28T11:01:46Z</time>
      </trkpt>
      <trkpt lat="43.5325" lon="5.56908">
        <ele>566.2</ele>
        <time>2023-05-28T11:01:47Z</time>
      </trkpt>
      <trkpt lat="43.5325" lon="5.56907">
        <ele>566.1</ele>
        <time>2023-05-28T11:01:48Z</time>
      </trkpt>
      <trkpt lat="43.5325" lon="5.56906">
        <ele>566.1</ele>
        <time>2023-05-28T11:01:49Z</time>
      </trkpt>
      <trkpt lat="43.53249" lon="5.56904">
        <ele>566.1</ele>
        <time>2023-05-28T11:01:50Z</time>
      </trkpt>
      <trkpt lat="43.53249" lon="5.56903">
        <ele>566</ele>
        <time>2023-05-28T11:01:51Z</time>
      </trkpt>
      <trkpt lat="43.53248" lon="5.56902">
        <ele>565.9</ele>
        <time>2023-05-28T11:01:52Z</time>
      </trkpt>
      <trkpt lat="43.53248" lon="5.56901">
        <ele>565.8</ele>
        <time>2023-05-28T11:01:53Z</time>
      </trkpt>
      <trkpt lat="43.53247" lon="5.56899">
        <ele>565.8</ele>
        <time>2023-05-28T11:01:54Z</time>
      </trkpt>
      <trkpt lat="43.53247" lon="5.56898">
        <ele>565.8</ele>
        <time>2023-05-28T11:01:55Z</time>
      </trkpt>
      <trkpt lat="43.53246" lon="5.56897">
        <ele>565.7</ele>
        <time>2023-05-28T11:01:56Z</time>
      </trkpt>
      <trkpt lat="43.53246" lon="5.56895">
        <ele>565.6</ele>
        <time>2023-05-28T11:01:57Z</time>
      </trkpt>
      <trkpt lat="43.53245" lon="5.56894">
        <ele>565.5</ele>
        <time>2023-05-28T11:01:58Z</time>
      </trkpt>
      <trkpt lat="43.53244" lon="5.56893">
        <ele>565.4</ele>
        <time>2023-05-28T11:01:59Z</time>
      </trkpt>
      <trkpt lat="43.53244" lon="5.56892">
        <ele>565.4</ele>
        <time>2023-05-28T11:02:00Z</time>
      </trkpt>
      <trkpt lat="43.53244" lon="5.5689">
        <ele>565.3</ele>
        <time>2023-05-28T11:02:01Z</time>
      </trkpt>
      <trkpt lat="43.53244" lon="5.56889">
        <ele>565.3</ele>
        <time>2023-05-28T11:02:02Z</time>
      </trkpt>
      <trkpt lat="43.53244" lon="5.56887">
        <ele>565.2</ele>
        <time>2023-05-28T11:02:03Z</time>
      </trkpt>
      <trkpt lat="43.53243" lon="5.56886">
        <ele>565.1</ele>
        <time>2023-05-28T11:02:04Z</time>
      </trkpt>
      <trkpt lat="43.53242" lon="5.56884">
        <ele>565</ele>
        <time>2023-05-28T11:02:05Z</time>
      </trkpt>
      <trkpt lat="43.53241" lon="5.56884">
        <ele>565</ele>
        <time>2023-05-28T11:02:06Z</time>
      </trkpt>
      <trkpt lat="43.53241" lon="5.56882">
        <ele>564.9</ele>
        <time>2023-05-28T11:02:07Z</time>
      </trkpt>
      <trkpt lat="43.5324" lon="5.56881">
        <ele>564.9</ele>
        <time>2023-05-28T11:02:08Z</time>
      </trkpt>
      <trkpt lat="43.5324" lon="5.5688">
        <ele>565</ele>
        <time>2023-05-28T11:02:09Z</time>
      </trkpt>
      <trkpt lat="43.53239" lon="5.56879">
        <ele>565</ele>
        <time>2023-05-28T11:02:10Z</time>
      </trkpt>
      <trkpt lat="43.53238" lon="5.5688">
        <ele>565.1</ele>
        <time>2023-05-28T11:02:11Z</time>
      </trkpt>
      <trkpt lat="43.53238" lon="5.5688">
        <ele>565.1</ele>
        <time>2023-05-28T11:02:12Z</time>
      </trkpt>
      <trkpt lat="43.53237" lon="5.56879">
        <ele>565.2</ele>
        <time>2023-05-28T11:02:13Z</time>
      </trkpt>
      <trkpt lat="43.53237" lon="5.56879">
        <ele>565.2</ele>
        <time>2023-05-28T11:02:14Z</time>
      </trkpt>
      <trkpt lat="43.53236" lon="5.56878">
        <ele>565.2</ele>
        <time>2023-05-28T11:02:15Z</time>
      </trkpt>
      <trkpt lat="43.53235" lon="5.56878">
        <ele>565.2</ele>
        <time>2023-05-28T11:02:16Z</time>
      </trkpt>
      <trkpt lat="43.53235" lon="5.56877">
        <ele>565.2</ele>
        <time>2023-05-28T11:02:17Z</time>
      </trkpt>
      <trkpt lat="43.53234" lon="5.56876">
        <ele>565.2</ele>
        <time>2023-05-28T11:02:18Z</time>
      </trkpt>
      <trkpt lat="43.53233" lon="5.56874">
        <ele>565.2</ele>
        <time>2023-05-28T11:02:19Z</time>
      </trkpt>
      <trkpt lat="43.53232" lon="5.56874">
        <ele>565.2</ele>
        <time>2023-05-28T11:02:20Z</time>
      </trkpt>
      <trkpt lat="43.53231" lon="5.56873">
        <ele>565.2</ele>
        <time>2023-05-28T11:02:21Z</time>
      </trkpt>
      <trkpt lat="43.53231" lon="5.56873">
        <ele>565.1</ele>
        <time>2023-05-28T11:02:22Z</time>
      </trkpt>
      <trkpt lat="43.53231" lon="5.56873">
        <ele>565.1</ele>
        <time>2023-05-28T11:02:23Z</time>
      </trkpt>
      <trkpt lat="43.53231" lon="5.56873">
        <ele>565.1</ele>
        <time>2023-05-28T11:02:24Z</time>
      </trkpt>
      <trkpt lat="43.5323" lon="5.56872">
        <ele>565.2</ele>
        <time>2023-05-28T11:02:25Z</time>
      </trkpt>
      <trkpt lat="43.5323" lon="5.56872">
        <ele>565.1</ele>
        <time>2023-05-28T11:02:26Z</time>
      </trkpt>
      <trkpt lat="43.53229" lon="5.56871">
        <ele>565.1</ele>
        <time>2023-05-28T11:02:27Z</time>
      </trkpt>
      <trkpt lat="43.53228" lon="5.5687">
        <ele>564.9</ele>
        <time>2023-05-28T11:02:28Z</time>
      </trkpt>
      <trkpt lat="43.53227" lon="5.5687">
        <ele>564.9</ele>
        <time>2023-05-28T11:02:29Z</time>
      </trkpt>
      <trkpt lat="43.53226" lon="5.5687">
        <ele>564.8</ele>
        <time>2023-05-28T11:02:30Z</time>
      </trkpt>
      <trkpt lat="43.53226" lon="5.5687">
        <ele>564.8</ele>
        <time>2023-05-28T11:02:31Z</time>
      </trkpt>
      <trkpt lat="43.53226" lon="5.5687">
        <ele>564.8</ele>
        <time>2023-05-28T11:02:32Z</time>
      </trkpt>
      <trkpt lat="43.53226" lon="5.5687">
        <ele>564.8</ele>
        <time>2023-05-28T11:02:33Z</time>
      </trkpt>
      <trkpt lat="43.53226" lon="5.5687">
        <ele>564.8</ele>
        <time>2023-05-28T11:02:34Z</time>
      </trkpt>
      <trkpt lat="43.53225" lon="5.5687">
        <ele>564.8</ele>
        <time>2023-05-28T11:02:35Z</time>
      </trkpt>
      <trkpt lat="43.53225" lon="5.5687">
        <ele>564.8</ele>
        <time>2023-05-28T11:02:36Z</time>
      </trkpt>
      <trkpt lat="43.53225" lon="5.5687">
        <ele>564.9</ele>
        <time>2023-05-28T11:02:37Z</time>
      </trkpt>
      <trkpt lat="43.53225" lon="5.5687">
        <ele>564.9</ele>
        <time>2023-05-28T11:02:38Z</time>
      </trkpt>
      <trkpt lat="43.53225" lon="5.5687">
        <ele>564.9</ele>
        <time>2023-05-28T11:02:39Z</time>
      </trkpt>
      <trkpt lat="43.53225" lon="5.5687">
        <ele>565</ele>
        <time>2023-05-28T11:02:40Z</time>
      </trkpt>
      <trkpt lat="43.53225" lon="5.5687">
        <ele>565</ele>
        <time>2023-05-28T11:02:41Z</time>
      </trkpt>
      <trkpt lat="43.53225" lon="5.5687">
        <ele>565</ele>
        <time>2023-05-28T11:02:42Z</time>
      </trkpt>
      <trkpt lat="43.53225" lon="5.5687">
        <ele>564.9</ele>
        <time>2023-05-28T11:02:43Z</time>
      </trkpt>
      <trkpt lat="43.53225" lon="5.5687">
        <ele>564.9</ele>
        <time>2023-05-28T11:02:44Z</time>
      </trkpt>
      <trkpt lat="43.53225" lon="5.5687">
        <ele>564.9</ele>
        <time>2023-05-28T11:02:45Z</time>
      </trkpt>
      <trkpt lat="43.53225" lon="5.5687">
        <ele>564.9</ele>
        <time>2023-05-28T11:02:46Z</time>
      </trkpt>
      <trkpt lat="43.53225" lon="5.5687">
        <ele>564.8</ele>
        <time>2023-05-28T11:02:47Z</time>
      </trkpt>
      <trkpt lat="43.53225" lon="5.5687">
        <ele>564.8</ele>
        <time>2023-05-28T11:02:48Z</time>
      </trkpt>
      <trkpt lat="43.53225" lon="5.5687">
        <ele>564.8</ele>
        <time>2023-05-28T11:02:49Z</time>
      </trkpt>
      <trkpt lat="43.53225" lon="5.5687">
        <ele>564.8</ele>
        <time>2023-05-28T11:02:50Z</time>
      </trkpt>
      <trkpt lat="43.53224" lon="5.56869">
        <ele>564.7</ele>
        <time>2023-05-28T11:02:51Z</time>
      </trkpt>
      <trkpt lat="43.53224" lon="5.56869">
        <ele>564.7</ele>
        <time>2023-05-28T11:02:52Z</time>
      </trkpt>
      <trkpt lat="43.53224" lon="5.56869">
        <ele>564.7</ele>
        <time>2023-05-28T11:02:53Z</time>
      </trkpt>
      <trkpt lat="43.53224" lon="5.56869">
        <ele>564.8</ele>
        <time>2023-05-28T11:02:54Z</time>
      </trkpt>
      <trkpt lat="43.53224" lon="5.56869">
        <ele>564.8</ele>
        <time>2023-05-28T11:02:55Z</time>
      </trkpt>
      <trkpt lat="43.53224" lon="5.56869">
        <ele>564.9</ele>
        <time>2023-05-28T11:02:56Z</time>
      </trkpt>
      <trkpt lat="43.53224" lon="5.56869">
        <ele>564.9</ele>
        <time>2023-05-28T11:02:57Z</time>
      </trkpt>
      <trkpt lat="43.53224" lon="5.56869">
        <ele>565</ele>
        <time>2023-05-28T11:02:58Z</time>
      </trkpt>
      <trkpt lat="43.53224" lon="5.56869">
        <ele>565</ele>
        <time>2023-05-28T11:02:59Z</time>
      </trkpt>
      <trkpt lat="43.53224" lon="5.56869">
        <ele>565</ele>
        <time>2023-05-28T11:03:00Z</time>
      </trkpt>
      <trkpt lat="43.53224" lon="5.56869">
        <ele>565</ele>
        <time>2023-05-28T11:03:01Z</time>
      </trkpt>
      <trkpt lat="43.53224" lon="5.56869">
        <ele>564.9</ele>
        <time>2023-05-28T11:03:02Z</time>
      </trkpt>
      <trkpt lat="43.53224" lon="5.56869">
        <ele>564.9</ele>
        <time>2023-05-28T11:03:03Z</time>
      </trkpt>
      <trkpt lat="43.53224" lon="5.56869">
        <ele>565</ele>
        <time>2023-05-28T11:03:04Z</time>
      </trkpt>
      <trkpt lat="43.53224" lon="5.56869">
        <ele>565.1</ele>
        <time>2023-05-28T11:03:05Z</time>
      </trkpt>
      <trkpt lat="43.53224" lon="5.56869">
        <ele>565.1</ele>
        <time>2023-05-28T11:03:06Z</time>
      </trkpt>
      <trkpt lat="43.53224" lon="5.56869">
        <ele>565.2</ele>
        <time>2023-05-28T11:03:07Z</time>
      </trkpt>
      <trkpt lat="43.53224" lon="5.56869">
        <ele>565.2</ele>
        <time>2023-05-28T11:03:08Z</time>
      </trkpt>
      <trkpt lat="43.53224" lon="5.56869">
        <ele>565.2</ele>
        <time>2023-05-28T11:03:09Z</time>
      </trkpt>
      <trkpt lat="43.53224" lon="5.56869">
        <ele>565.1</ele>
        <time>2023-05-28T11:03:10Z</time>
      </trkpt>
      <trkpt lat="43.53224" lon="5.56869">
        <ele>565.1</ele>
        <time>2023-05-28T11:03:11Z</time>
      </trkpt>
      <trkpt lat="43.53224" lon="5.56869">
        <ele>565.1</ele>
        <time>2023-05-28T11:03:12Z</time>
      </trkpt>
      <trkpt lat="43.53224" lon="5.56869">
        <ele>565.2</ele>
        <time>2023-05-28T11:03:13Z</time>
      </trkpt>
      <trkpt lat="43.53224" lon="5.56869">
        <ele>565.3</ele>
        <time>2023-05-28T11:03:14Z</time>
      </trkpt>
      <trkpt lat="43.53224" lon="5.56868">
        <ele>565.3</ele>
        <time>2023-05-28T11:03:15Z</time>
      </trkpt>
      <trkpt lat="43.53225" lon="5.56868">
        <ele>565.3</ele>
        <time>2023-05-28T11:03:16Z</time>
      </trkpt>
      <trkpt lat="43.53225" lon="5.56868">
        <ele>565.3</ele>
        <time>2023-05-28T11:03:17Z</time>
      </trkpt>
      <trkpt lat="43.53225" lon="5.56868">
        <ele>565.3</ele>
        <time>2023-05-28T11:03:18Z</time>
      </trkpt>
      <trkpt lat="43.53225" lon="5.56868">
        <ele>565.3</ele>
        <time>2023-05-28T11:03:19Z</time>
      </trkpt>
      <trkpt lat="43.53225" lon="5.56868">
        <ele>565.3</ele>
        <time>2023-05-28T11:03:20Z</time>
      </trkpt>
      <trkpt lat="43.53225" lon="5.56867">
        <ele>565.3</ele>
        <time>2023-05-28T11:03:21Z</time>
      </trkpt>
      <trkpt lat="43.53224" lon="5.56866">
        <ele>565.3</ele>
        <time>2023-05-28T11:03:22Z</time>
      </trkpt>
      <trkpt lat="43.53224" lon="5.56866">
        <ele>565.2</ele>
        <time>2023-05-28T11:03:23Z</time>
      </trkpt>
      <trkpt lat="43.53224" lon="5.56866">
        <ele>565.1</ele>
        <time>2023-05-28T11:03:24Z</time>
      </trkpt>
      <trkpt lat="43.53224" lon="5.56865">
        <ele>565.1</ele>
        <time>2023-05-28T11:03:25Z</time>
      </trkpt>
      <trkpt lat="43.53224" lon="5.56864">
        <ele>565.1</ele>
        <time>2023-05-28T11:03:26Z</time>
      </trkpt>
      <trkpt lat="43.53224" lon="5.56864">
        <ele>565</ele>
        <time>2023-05-28T11:03:27Z</time>
      </trkpt>
      <trkpt lat="43.53224" lon="5.56863">
        <ele>565</ele>
        <time>2023-05-28T11:03:28Z</time>
      </trkpt>
      <trkpt lat="43.53224" lon="5.56863">
        <ele>564.9</ele>
        <time>2023-05-28T11:03:29Z</time>
      </trkpt>
      <trkpt lat="43.53223" lon="5.56862">
        <ele>564.8</ele>
        <time>2023-05-28T11:03:30Z</time>
      </trkpt>
      <trkpt lat="43.53223" lon="5.56861">
        <ele>564.7</ele>
        <time>2023-05-28T11:03:31Z</time>
      </trkpt>
      <trkpt lat="43.53223" lon="5.56861">
        <ele>564.7</ele>
        <time>2023-05-28T11:03:32Z</time>
      </trkpt>
      <trkpt lat="43.53224" lon="5.5686">
        <ele>564.6</ele>
        <time>2023-05-28T11:03:33Z</time>
      </trkpt>
      <trkpt lat="43.53224" lon="5.56858">
        <ele>564.6</ele>
        <time>2023-05-28T11:03:34Z</time>
      </trkpt>
      <trkpt lat="43.53223" lon="5.56858">
        <ele>564.5</ele>
        <time>2023-05-28T11:03:35Z</time>
      </trkpt>
      <trkpt lat="43.53224" lon="5.56857">
        <ele>564.4</ele>
        <time>2023-05-28T11:03:36Z</time>
      </trkpt>
      <trkpt lat="43.53223" lon="5.56855">
        <ele>564.3</ele>
        <time>2023-05-28T11:03:37Z</time>
      </trkpt>
      <trkpt lat="43.53223" lon="5.56855">
        <ele>564.1</ele>
        <time>2023-05-28T11:03:38Z</time>
      </trkpt>
      <trkpt lat="43.53223" lon="5.56855">
        <ele>564</ele>
        <time>2023-05-28T11:03:39Z</time>
      </trkpt>
      <trkpt lat="43.53223" lon="5.56854">
        <ele>564</ele>
        <time>2023-05-28T11:03:40Z</time>
      </trkpt>
      <trkpt lat="43.53222" lon="5.56853">
        <ele>563.8</ele>
        <time>2023-05-28T11:03:41Z</time>
      </trkpt>
      <trkpt lat="43.53221" lon="5.56852">
        <ele>563.6</ele>
        <time>2023-05-28T11:03:42Z</time>
      </trkpt>
      <trkpt lat="43.53221" lon="5.56852">
        <ele>563.5</ele>
        <time>2023-05-28T11:03:43Z</time>
      </trkpt>
      <trkpt lat="43.5322" lon="5.56851">
        <ele>563.5</ele>
        <time>2023-05-28T11:03:44Z</time>
      </trkpt>
      <trkpt lat="43.5322" lon="5.5685">
        <ele>563.4</ele>
        <time>2023-05-28T11:03:45Z</time>
      </trkpt>
      <trkpt lat="43.53219" lon="5.56849">
        <ele>563.3</ele>
        <time>2023-05-28T11:03:46Z</time>
      </trkpt>
      <trkpt lat="43.53219" lon="5.56848">
        <ele>563.2</ele>
        <time>2023-05-28T11:03:47Z</time>
      </trkpt>
      <trkpt lat="43.53219" lon="5.56847">
        <ele>563</ele>
        <time>2023-05-28T11:03:48Z</time>
      </trkpt>
      <trkpt lat="43.53218" lon="5.56846">
        <ele>562.9</ele>
        <time>2023-05-28T11:03:49Z</time>
      </trkpt>
      <trkpt lat="43.53218" lon="5.56845">
        <ele>562.8</ele>
        <time>2023-05-28T11:03:50Z</time>
      </trkpt>
      <trkpt lat="43.53218" lon="5.56844">
        <ele>562.7</ele>
        <time>2023-05-28T11:03:51Z</time>
      </trkpt>
      <trkpt lat="43.53217" lon="5.56843">
        <ele>562.5</ele>
        <time>2023-05-28T11:03:52Z</time>
      </trkpt>
      <trkpt lat="43.53217" lon="5.56841">
        <ele>562.4</ele>
        <time>2023-05-28T11:03:53Z</time>
      </trkpt>
      <trkpt lat="43.53217" lon="5.5684">
        <ele>562.3</ele>
        <time>2023-05-28T11:03:54Z</time>
      </trkpt>
      <trkpt lat="43.53218" lon="5.56839">
        <ele>562.2</ele>
        <time>2023-05-28T11:03:55Z</time>
      </trkpt>
      <trkpt lat="43.53218" lon="5.56838">
        <ele>562</ele>
        <time>2023-05-28T11:03:56Z</time>
      </trkpt>
      <trkpt lat="43.53218" lon="5.56836">
        <ele>561.9</ele>
        <time>2023-05-28T11:03:57Z</time>
      </trkpt>
      <trkpt lat="43.53218" lon="5.56835">
        <ele>561.7</ele>
        <time>2023-05-28T11:03:58Z</time>
      </trkpt>
      <trkpt lat="43.53218" lon="5.56834">
        <ele>561.6</ele>
        <time>2023-05-28T11:03:59Z</time>
      </trkpt>
      <trkpt lat="43.53217" lon="5.56832">
        <ele>561.4</ele>
        <time>2023-05-28T11:04:00Z</time>
      </trkpt>
      <trkpt lat="43.53216" lon="5.56831">
        <ele>561.3</ele>
        <time>2023-05-28T11:04:01Z</time>
      </trkpt>
      <trkpt lat="43.53215" lon="5.5683">
        <ele>561.1</ele>
        <time>2023-05-28T11:04:02Z</time>
      </trkpt>
      <trkpt lat="43.53215" lon="5.5683">
        <ele>561</ele>
        <time>2023-05-28T11:04:03Z</time>
      </trkpt>
      <trkpt lat="43.53214" lon="5.56828">
        <ele>561</ele>
        <time>2023-05-28T11:04:04Z</time>
      </trkpt>
      <trkpt lat="43.53213" lon="5.56827">
        <ele>560.8</ele>
        <time>2023-05-28T11:04:05Z</time>
      </trkpt>
      <trkpt lat="43.53212" lon="5.56826">
        <ele>560.7</ele>
        <time>2023-05-28T11:04:06Z</time>
      </trkpt>
      <trkpt lat="43.53212" lon="5.56825">
        <ele>560.5</ele>
        <time>2023-05-28T11:04:07Z</time>
      </trkpt>
      <trkpt lat="43.53212" lon="5.56825">
        <ele>560.4</ele>
        <time>2023-05-28T11:04:08Z</time>
      </trkpt>
      <trkpt lat="43.53212" lon="5.56824">
        <ele>560.3</ele>
        <time>2023-05-28T11:04:09Z</time>
      </trkpt>
      <trkpt lat="43.53211" lon="5.56823">
        <ele>560.2</ele>
        <time>2023-05-28T11:04:10Z</time>
      </trkpt>
      <trkpt lat="43.53211" lon="5.56822">
        <ele>560</ele>
        <time>2023-05-28T11:04:11Z</time>
      </trkpt>
      <trkpt lat="43.5321" lon="5.56822">
        <ele>559.9</ele>
        <time>2023-05-28T11:04:12Z</time>
      </trkpt>
      <trkpt lat="43.5321" lon="5.56821">
        <ele>559.8</ele>
        <time>2023-05-28T11:04:13Z</time>
      </trkpt>
      <trkpt lat="43.5321" lon="5.56821">
        <ele>559.6</ele>
        <time>2023-05-28T11:04:14Z</time>
      </trkpt>
      <trkpt lat="43.5321" lon="5.56821">
        <ele>559.5</ele>
        <time>2023-05-28T11:04:15Z</time>
      </trkpt>
      <trkpt lat="43.5321" lon="5.5682">
        <ele>559.4</ele>
        <time>2023-05-28T11:04:16Z</time>
      </trkpt>
      <trkpt lat="43.5321" lon="5.56819">
        <ele>559.4</ele>
        <time>2023-05-28T11:04:17Z</time>
      </trkpt>
      <trkpt lat="43.5321" lon="5.56818">
        <ele>559.3</ele>
        <time>2023-05-28T11:04:18Z</time>
      </trkpt>
      <trkpt lat="43.5321" lon="5.56817">
        <ele>559.2</ele>
        <time>2023-05-28T11:04:19Z</time>
      </trkpt>
      <trkpt lat="43.53209" lon="5.56816">
        <ele>559.1</ele>
        <time>2023-05-28T11:04:20Z</time>
      </trkpt>
      <trkpt lat="43.53209" lon="5.56815">
        <ele>559</ele>
        <time>2023-05-28T11:04:21Z</time>
      </trkpt>
      <trkpt lat="43.53209" lon="5.56814">
        <ele>559</ele>
        <time>2023-05-28T11:04:22Z</time>
      </trkpt>
      <trkpt lat="43.53208" lon="5.56813">
        <ele>558.9</ele>
        <time>2023-05-28T11:04:23Z</time>
      </trkpt>
      <trkpt lat="43.53208" lon="5.56813">
        <ele>558.8</ele>
        <time>2023-05-28T11:04:24Z</time>
      </trkpt>
      <trkpt lat="43.53208" lon="5.56811">
        <ele>558.7</ele>
        <time>2023-05-28T11:04:25Z</time>
      </trkpt>
      <trkpt lat="43.53208" lon="5.5681">
        <ele>558.6</ele>
        <time>2023-05-28T11:04:26Z</time>
      </trkpt>
      <trkpt lat="43.53207" lon="5.56808">
        <ele>558.5</ele>
        <time>2023-05-28T11:04:27Z</time>
      </trkpt>
      <trkpt lat="43.53207" lon="5.56808">
        <ele>558.4</ele>
        <time>2023-05-28T11:04:28Z</time>
      </trkpt>
      <trkpt lat="43.53206" lon="5.56807">
        <ele>558.3</ele>
        <time>2023-05-28T11:04:29Z</time>
      </trkpt>
      <trkpt lat="43.53205" lon="5.56807">
        <ele>558.1</ele>
        <time>2023-05-28T11:04:30Z</time>
      </trkpt>
      <trkpt lat="43.53205" lon="5.56807">
        <ele>557.9</ele>
        <time>2023-05-28T11:04:31Z</time>
      </trkpt>
      <trkpt lat="43.53204" lon="5.56807">
        <ele>557.8</ele>
        <time>2023-05-28T11:04:32Z</time>
      </trkpt>
      <trkpt lat="43.53203" lon="5.56806">
        <ele>557.6</ele>
        <time>2023-05-28T11:04:33Z</time>
      </trkpt>
      <trkpt lat="43.53202" lon="5.56806">
        <ele>557.5</ele>
        <time>2023-05-28T11:04:34Z</time>
      </trkpt>
      <trkpt lat="43.53202" lon="5.56805">
        <ele>557.4</ele>
        <time>2023-05-28T11:04:35Z</time>
      </trkpt>
      <trkpt lat="43.53202" lon="5.56804">
        <ele>557.2</ele>
        <time>2023-05-28T11:04:36Z</time>
      </trkpt>
      <trkpt lat="43.53201" lon="5.56803">
        <ele>556.9</ele>
        <time>2023-05-28T11:04:37Z</time>
      </trkpt>
      <trkpt lat="43.53201" lon="5.56802">
        <ele>556.8</ele>
        <time>2023-05-28T11:04:38Z</time>
      </trkpt>
      <trkpt lat="43.53201" lon="5.56801">
        <ele>556.7</ele>
        <time>2023-05-28T11:04:39Z</time>
      </trkpt>
      <trkpt lat="43.532" lon="5.568">
        <ele>556.6</ele>
        <time>2023-05-28T11:04:40Z</time>
      </trkpt>
      <trkpt lat="43.532" lon="5.56799">
        <ele>556.5</ele>
        <time>2023-05-28T11:04:41Z</time>
      </trkpt>
      <trkpt lat="43.532" lon="5.56799">
        <ele>556.3</ele>
        <time>2023-05-28T11:04:42Z</time>
      </trkpt>
      <trkpt lat="43.53199" lon="5.56799">
        <ele>556.1</ele>
        <time>2023-05-28T11:04:43Z</time>
      </trkpt>
      <trkpt lat="43.53199" lon="5.56798">
        <ele>556</ele>
        <time>2023-05-28T11:04:44Z</time>
      </trkpt>
      <trkpt lat="43.53199" lon="5.56797">
        <ele>555.9</ele>
        <time>2023-05-28T11:04:45Z</time>
      </trkpt>
      <trkpt lat="43.53198" lon="5.56796">
        <ele>555.8</ele>
        <time>2023-05-28T11:04:46Z</time>
      </trkpt>
      <trkpt lat="43.53198" lon="5.56795">
        <ele>555.8</ele>
        <time>2023-05-28T11:04:47Z</time>
      </trkpt>
      <trkpt lat="43.53197" lon="5.56794">
        <ele>555.8</ele>
        <time>2023-05-28T11:04:48Z</time>
      </trkpt>
      <trkpt lat="43.53197" lon="5.56794">
        <ele>555.7</ele>
        <time>2023-05-28T11:04:49Z</time>
      </trkpt>
      <trkpt lat="43.53196" lon="5.56793">
        <ele>555.6</ele>
        <time>2023-05-28T11:04:50Z</time>
      </trkpt>
      <trkpt lat="43.53195" lon="5.56791">
        <ele>555.4</ele>
        <time>2023-05-28T11:04:51Z</time>
      </trkpt>
      <trkpt lat="43.53195" lon="5.56791">
        <ele>555.4</ele>
        <time>2023-05-28T11:04:52Z</time>
      </trkpt>
      <trkpt lat="43.53194" lon="5.5679">
        <ele>555.3</ele>
        <time>2023-05-28T11:04:53Z</time>
      </trkpt>
      <trkpt lat="43.53194" lon="5.56789">
        <ele>555.2</ele>
        <time>2023-05-28T11:04:54Z</time>
      </trkpt>
      <trkpt lat="43.53193" lon="5.56788">
        <ele>555.1</ele>
        <time>2023-05-28T11:04:55Z</time>
      </trkpt>
      <trkpt lat="43.53193" lon="5.56788">
        <ele>555</ele>
        <time>2023-05-28T11:04:56Z</time>
      </trkpt>
      <trkpt lat="43.53193" lon="5.56789">
        <ele>554.8</ele>
        <time>2023-05-28T11:04:57Z</time>
      </trkpt>
      <trkpt lat="43.53193" lon="5.56789">
        <ele>554.7</ele>
        <time>2023-05-28T11:04:58Z</time>
      </trkpt>
      <trkpt lat="43.53193" lon="5.56789">
        <ele>554.6</ele>
        <time>2023-05-28T11:04:59Z</time>
      </trkpt>
      <trkpt lat="43.53193" lon="5.56789">
        <ele>554.5</ele>
        <time>2023-05-28T11:05:00Z</time>
      </trkpt>
      <trkpt lat="43.53193" lon="5.56789">
        <ele>554.5</ele>
        <time>2023-05-28T11:05:01Z</time>
      </trkpt>
      <trkpt lat="43.53193" lon="5.56789">
        <ele>554.5</ele>
        <time>2023-05-28T11:05:02Z</time>
      </trkpt>
      <trkpt lat="43.53193" lon="5.5679">
        <ele>554.4</ele>
        <time>2023-05-28T11:05:03Z</time>
      </trkpt>
      <trkpt lat="43.53193" lon="5.5679">
        <ele>554.4</ele>
        <time>2023-05-28T11:05:04Z</time>
      </trkpt>
      <trkpt lat="43.53193" lon="5.5679">
        <ele>554.3</ele>
        <time>2023-05-28T11:05:05Z</time>
      </trkpt>
      <trkpt lat="43.53193" lon="5.5679">
        <ele>554.3</ele>
        <time>2023-05-28T11:05:06Z</time>
      </trkpt>
      <trkpt lat="43.53193" lon="5.56789">
        <ele>554.3</ele>
        <time>2023-05-28T11:05:07Z</time>
      </trkpt>
      <trkpt lat="43.53192" lon="5.56789">
        <ele>554.3</ele>
        <time>2023-05-28T11:05:08Z</time>
      </trkpt>
      <trkpt lat="43.53192" lon="5.56789">
        <ele>554.3</ele>
        <time>2023-05-28T11:05:09Z</time>
      </trkpt>
      <trkpt lat="43.53192" lon="5.56787">
        <ele>554.2</ele>
        <time>2023-05-28T11:05:10Z</time>
      </trkpt>
      <trkpt lat="43.53191" lon="5.56786">
        <ele>554.2</ele>
        <time>2023-05-28T11:05:11Z</time>
      </trkpt>
      <trkpt lat="43.5319" lon="5.56786">
        <ele>554.1</ele>
        <time>2023-05-28T11:05:12Z</time>
      </trkpt>
      <trkpt lat="43.5319" lon="5.56786">
        <ele>554.1</ele>
        <time>2023-05-28T11:05:13Z</time>
      </trkpt>
      <trkpt lat="43.53189" lon="5.56786">
        <ele>554.1</ele>
        <time>2023-05-28T11:05:14Z</time>
      </trkpt>
      <trkpt lat="43.53188" lon="5.56786">
        <ele>554.1</ele>
        <time>2023-05-28T11:05:15Z</time>
      </trkpt>
      <trkpt lat="43.53188" lon="5.56786">
        <ele>554</ele>
        <time>2023-05-28T11:05:16Z</time>
      </trkpt>
      <trkpt lat="43.53188" lon="5.56786">
        <ele>554</ele>
        <time>2023-05-28T11:05:17Z</time>
      </trkpt>
      <trkpt lat="43.53188" lon="5.56786">
        <ele>554</ele>
        <time>2023-05-28T11:05:18Z</time>
      </trkpt>
      <trkpt lat="43.53187" lon="5.56786">
        <ele>553.9</ele>
        <time>2023-05-28T11:05:19Z</time>
      </trkpt>
      <trkpt lat="43.53186" lon="5.56786">
        <ele>553.8</ele>
        <time>2023-05-28T11:05:20Z</time>
      </trkpt>
      <trkpt lat="43.53186" lon="5.56786">
        <ele>553.7</ele>
        <time>2023-05-28T11:05:21Z</time>
      </trkpt>
      <trkpt lat="43.53185" lon="5.56787">
        <ele>553.5</ele>
        <time>2023-05-28T11:05:22Z</time>
      </trkpt>
      <trkpt lat="43.53184" lon="5.56787">
        <ele>553.4</ele>
        <time>2023-05-28T11:05:23Z</time>
      </trkpt>
      <trkpt lat="43.53183" lon="5.56787">
        <ele>553.3</ele>
        <time>2023-05-28T11:05:24Z</time>
      </trkpt>
      <trkpt lat="43.53182" lon="5.56787">
        <ele>553.2</ele>
        <time>2023-05-28T11:05:25Z</time>
      </trkpt>
      <trkpt lat="43.53182" lon="5.56786">
        <ele>553.2</ele>
        <time>2023-05-28T11:05:26Z</time>
      </trkpt>
      <trkpt lat="43.53181" lon="5.56786">
        <ele>553.1</ele>
        <time>2023-05-28T11:05:27Z</time>
      </trkpt>
      <trkpt lat="43.5318" lon="5.56786">
        <ele>552.9</ele>
        <time>2023-05-28T11:05:28Z</time>
      </trkpt>
      <trkpt lat="43.53179" lon="5.56785">
        <ele>552.7</ele>
        <time>2023-05-28T11:05:29Z</time>
      </trkpt>
      <trkpt lat="43.53179" lon="5.56784">
        <ele>552.5</ele>
        <time>2023-05-28T11:05:30Z</time>
      </trkpt>
      <trkpt lat="43.53178" lon="5.56784">
        <ele>552.4</ele>
        <time>2023-05-28T11:05:31Z</time>
      </trkpt>
      <trkpt lat="43.53177" lon="5.56783">
        <ele>552.3</ele>
        <time>2023-05-28T11:05:32Z</time>
      </trkpt>
      <trkpt lat="43.53176" lon="5.56782">
        <ele>552.1</ele>
        <time>2023-05-28T11:05:33Z</time>
      </trkpt>
      <trkpt lat="43.53175" lon="5.56782">
        <ele>551.9</ele>
        <time>2023-05-28T11:05:34Z</time>
      </trkpt>
      <trkpt lat="43.53175" lon="5.56781">
        <ele>551.8</ele>
        <time>2023-05-28T11:05:35Z</time>
      </trkpt>
      <trkpt lat="43.53175" lon="5.5678">
        <ele>551.7</ele>
        <time>2023-05-28T11:05:36Z</time>
      </trkpt>
      <trkpt lat="43.53174" lon="5.5678">
        <ele>551.5</ele>
        <time>2023-05-28T11:05:37Z</time>
      </trkpt>
      <trkpt lat="43.53173" lon="5.5678">
        <ele>551.4</ele>
        <time>2023-05-28T11:05:38Z</time>
      </trkpt>
      <trkpt lat="43.53172" lon="5.5678">
        <ele>551.2</ele>
        <time>2023-05-28T11:05:39Z</time>
      </trkpt>
      <trkpt lat="43.53171" lon="5.5678">
        <ele>551</ele>
        <time>2023-05-28T11:05:40Z</time>
      </trkpt>
      <trkpt lat="43.53171" lon="5.5678">
        <ele>550.8</ele>
        <time>2023-05-28T11:05:41Z</time>
      </trkpt>
      <trkpt lat="43.5317" lon="5.5678">
        <ele>550.6</ele>
        <time>2023-05-28T11:05:42Z</time>
      </trkpt>
      <trkpt lat="43.53169" lon="5.56779">
        <ele>550.4</ele>
        <time>2023-05-28T11:05:43Z</time>
      </trkpt>
      <trkpt lat="43.53169" lon="5.56779">
        <ele>550.3</ele>
        <time>2023-05-28T11:05:44Z</time>
      </trkpt>
      <trkpt lat="43.53168" lon="5.56778">
        <ele>550.1</ele>
        <time>2023-05-28T11:05:45Z</time>
      </trkpt>
      <trkpt lat="43.53167" lon="5.56778">
        <ele>550</ele>
        <time>2023-05-28T11:05:46Z</time>
      </trkpt>
      <trkpt lat="43.53166" lon="5.56777">
        <ele>549.8</ele>
        <time>2023-05-28T11:05:47Z</time>
      </trkpt>
      <trkpt lat="43.53165" lon="5.56777">
        <ele>549.5</ele>
        <time>2023-05-28T11:05:48Z</time>
      </trkpt>
      <trkpt lat="43.53165" lon="5.56777">
        <ele>549.4</ele>
        <time>2023-05-28T11:05:49Z</time>
      </trkpt>
      <trkpt lat="43.53164" lon="5.56777">
        <ele>549.2</ele>
        <time>2023-05-28T11:05:50Z</time>
      </trkpt>
      <trkpt lat="43.53164" lon="5.56777">
        <ele>549</ele>
        <time>2023-05-28T11:05:51Z</time>
      </trkpt>
      <trkpt lat="43.53164" lon="5.56777">
        <ele>548.9</ele>
        <time>2023-05-28T11:05:52Z</time>
      </trkpt>
      <trkpt lat="43.53163" lon="5.56777">
        <ele>548.8</ele>
        <time>2023-05-28T11:05:53Z</time>
      </trkpt>
      <trkpt lat="43.53163" lon="5.56776">
        <ele>548.6</ele>
        <time>2023-05-28T11:05:54Z</time>
      </trkpt>
      <trkpt lat="43.53162" lon="5.56775">
        <ele>548.5</ele>
        <time>2023-05-28T11:05:55Z</time>
      </trkpt>
      <trkpt lat="43.53162" lon="5.56774">
        <ele>548.3</ele>
        <time>2023-05-28T11:05:56Z</time>
      </trkpt>
      <trkpt lat="43.53162" lon="5.56774">
        <ele>548.2</ele>
        <time>2023-05-28T11:05:57Z</time>
      </trkpt>
      <trkpt lat="43.53161" lon="5.56773">
        <ele>548</ele>
        <time>2023-05-28T11:05:58Z</time>
      </trkpt>
      <trkpt lat="43.53161" lon="5.56771">
        <ele>547.9</ele>
        <time>2023-05-28T11:05:59Z</time>
      </trkpt>
      <trkpt lat="43.53161" lon="5.5677">
        <ele>547.7</ele>
        <time>2023-05-28T11:06:00Z</time>
      </trkpt>
      <trkpt lat="43.5316" lon="5.5677">
        <ele>547.6</ele>
        <time>2023-05-28T11:06:01Z</time>
      </trkpt>
      <trkpt lat="43.5316" lon="5.56769">
        <ele>547.4</ele>
        <time>2023-05-28T11:06:02Z</time>
      </trkpt>
      <trkpt lat="43.53159" lon="5.56768">
        <ele>547.3</ele>
        <time>2023-05-28T11:06:03Z</time>
      </trkpt>
      <trkpt lat="43.53159" lon="5.56768">
        <ele>547.1</ele>
        <time>2023-05-28T11:06:04Z</time>
      </trkpt>
      <trkpt lat="43.53158" lon="5.56767">
        <ele>546.9</ele>
        <time>2023-05-28T11:06:05Z</time>
      </trkpt>
      <trkpt lat="43.53158" lon="5.56767">
        <ele>546.9</ele>
        <time>2023-05-28T11:06:06Z</time>
      </trkpt>
      <trkpt lat="43.53158" lon="5.56766">
        <ele>546.7</ele>
        <time>2023-05-28T11:06:07Z</time>
      </trkpt>
      <trkpt lat="43.53157" lon="5.56766">
        <ele>546.5</ele>
        <time>2023-05-28T11:06:08Z</time>
      </trkpt>
      <trkpt lat="43.53157" lon="5.56765">
        <ele>546.4</ele>
        <time>2023-05-28T11:06:09Z</time>
      </trkpt>
      <trkpt lat="43.53157" lon="5.56765">
        <ele>546.3</ele>
        <time>2023-05-28T11:06:10Z</time>
      </trkpt>
      <trkpt lat="43.53157" lon="5.56764">
        <ele>546.2</ele>
        <time>2023-05-28T11:06:11Z</time>
      </trkpt>
      <trkpt lat="43.53158" lon="5.56764">
        <ele>546</ele>
        <time>2023-05-28T11:06:12Z</time>
      </trkpt>
      <trkpt lat="43.53158" lon="5.56763">
        <ele>545.8</ele>
        <time>2023-05-28T11:06:13Z</time>
      </trkpt>
      <trkpt lat="43.53157" lon="5.56762">
        <ele>545.7</ele>
        <time>2023-05-28T11:06:14Z</time>
      </trkpt>
      <trkpt lat="43.53157" lon="5.56762">
        <ele>545.6</ele>
        <time>2023-05-28T11:06:15Z</time>
      </trkpt>
      <trkpt lat="43.53156" lon="5.56762">
        <ele>545.4</ele>
        <time>2023-05-28T11:06:16Z</time>
      </trkpt>
      <trkpt lat="43.53155" lon="5.56763">
        <ele>545.2</ele>
        <time>2023-05-28T11:06:17Z</time>
      </trkpt>
      <trkpt lat="43.53154" lon="5.56763">
        <ele>545.1</ele>
        <time>2023-05-28T11:06:18Z</time>
      </trkpt>
      <trkpt lat="43.53154" lon="5.56763">
        <ele>544.9</ele>
        <time>2023-05-28T11:06:19Z</time>
      </trkpt>
      <trkpt lat="43.53154" lon="5.56763">
        <ele>544.9</ele>
        <time>2023-05-28T11:06:20Z</time>
      </trkpt>
      <trkpt lat="43.53154" lon="5.56762">
        <ele>544.9</ele>
        <time>2023-05-28T11:06:21Z</time>
      </trkpt>
      <trkpt lat="43.53153" lon="5.56761">
        <ele>544.8</ele>
        <time>2023-05-28T11:06:22Z</time>
      </trkpt>
      <trkpt lat="43.53153" lon="5.5676">
        <ele>544.8</ele>
        <time>2023-05-28T11:06:23Z</time>
      </trkpt>
      <trkpt lat="43.53153" lon="5.56759">
        <ele>544.7</ele>
        <time>2023-05-28T11:06:24Z</time>
      </trkpt>
      <trkpt lat="43.53153" lon="5.56757">
        <ele>544.4</ele>
        <time>2023-05-28T11:06:25Z</time>
      </trkpt>
      <trkpt lat="43.53153" lon="5.56756">
        <ele>544.3</ele>
        <time>2023-05-28T11:06:26Z</time>
      </trkpt>
      <trkpt lat="43.53152" lon="5.56755">
        <ele>544.1</ele>
        <time>2023-05-28T11:06:27Z</time>
      </trkpt>
      <trkpt lat="43.53152" lon="5.56754">
        <ele>543.9</ele>
        <time>2023-05-28T11:06:28Z</time>
      </trkpt>
      <trkpt lat="43.53152" lon="5.56752">
        <ele>543.9</ele>
        <time>2023-05-28T11:06:29Z</time>
      </trkpt>
      <trkpt lat="43.53152" lon="5.56751">
        <ele>543.7</ele>
        <time>2023-05-28T11:06:30Z</time>
      </trkpt>
      <trkpt lat="43.53152" lon="5.5675">
        <ele>543.5</ele>
        <time>2023-05-28T11:06:31Z</time>
      </trkpt>
      <trkpt lat="43.53152" lon="5.56748">
        <ele>543.3</ele>
        <time>2023-05-28T11:06:32Z</time>
      </trkpt>
      <trkpt lat="43.53152" lon="5.56747">
        <ele>543.1</ele>
        <time>2023-05-28T11:06:33Z</time>
      </trkpt>
      <trkpt lat="43.53152" lon="5.56746">
        <ele>542.9</ele>
        <time>2023-05-28T11:06:34Z</time>
      </trkpt>
      <trkpt lat="43.53152" lon="5.56744">
        <ele>542.8</ele>
        <time>2023-05-28T11:06:35Z</time>
      </trkpt>
      <trkpt lat="43.53152" lon="5.56743">
        <ele>542.5</ele>
        <time>2023-05-28T11:06:36Z</time>
      </trkpt>
      <trkpt lat="43.53152" lon="5.56742">
        <ele>542.4</ele>
        <time>2023-05-28T11:06:37Z</time>
      </trkpt>
      <trkpt lat="43.53152" lon="5.56742">
        <ele>542.2</ele>
        <time>2023-05-28T11:06:38Z</time>
      </trkpt>
      <trkpt lat="43.53152" lon="5.56741">
        <ele>542.1</ele>
        <time>2023-05-28T11:06:39Z</time>
      </trkpt>
      <trkpt lat="43.53153" lon="5.5674">
        <ele>541.9</ele>
        <time>2023-05-28T11:06:40Z</time>
      </trkpt>
      <trkpt lat="43.53153" lon="5.56739">
        <ele>541.7</ele>
        <time>2023-05-28T11:06:41Z</time>
      </trkpt>
      <trkpt lat="43.53153" lon="5.56739">
        <ele>541.5</ele>
        <time>2023-05-28T11:06:42Z</time>
      </trkpt>
      <trkpt lat="43.53152" lon="5.56738">
        <ele>541.3</ele>
        <time>2023-05-28T11:06:43Z</time>
      </trkpt>
      <trkpt lat="43.53152" lon="5.56738">
        <ele>541.2</ele>
        <time>2023-05-28T11:06:44Z</time>
      </trkpt>
      <trkpt lat="43.53152" lon="5.56738">
        <ele>541.2</ele>
        <time>2023-05-28T11:06:45Z</time>
      </trkpt>
      <trkpt lat="43.53151" lon="5.56738">
        <ele>541.1</ele>
        <time>2023-05-28T11:06:46Z</time>
      </trkpt>
      <trkpt lat="43.53151" lon="5.56738">
        <ele>540.9</ele>
        <time>2023-05-28T11:06:47Z</time>
      </trkpt>
      <trkpt lat="43.53151" lon="5.56737">
        <ele>540.8</ele>
        <time>2023-05-28T11:06:48Z</time>
      </trkpt>
      <trkpt lat="43.53151" lon="5.56737">
        <ele>540.7</ele>
        <time>2023-05-28T11:06:49Z</time>
      </trkpt>
      <trkpt lat="43.53151" lon="5.56736">
        <ele>540.7</ele>
        <time>2023-05-28T11:06:50Z</time>
      </trkpt>
      <trkpt lat="43.53151" lon="5.56736">
        <ele>540.5</ele>
        <time>2023-05-28T11:06:51Z</time>
      </trkpt>
      <trkpt lat="43.5315" lon="5.56735">
        <ele>540.3</ele>
        <time>2023-05-28T11:06:52Z</time>
      </trkpt>
      <trkpt lat="43.5315" lon="5.56735">
        <ele>540</ele>
        <time>2023-05-28T11:06:53Z</time>
      </trkpt>
      <trkpt lat="43.5315" lon="5.56734">
        <ele>539.8</ele>
        <time>2023-05-28T11:06:54Z</time>
      </trkpt>
      <trkpt lat="43.5315" lon="5.56733">
        <ele>539.6</ele>
        <time>2023-05-28T11:06:55Z</time>
      </trkpt>
      <trkpt lat="43.5315" lon="5.56733">
        <ele>539.4</ele>
        <time>2023-05-28T11:06:56Z</time>
      </trkpt>
      <trkpt lat="43.53151" lon="5.56733">
        <ele>539.3</ele>
        <time>2023-05-28T11:06:57Z</time>
      </trkpt>
      <trkpt lat="43.5315" lon="5.56732">
        <ele>539.2</ele>
        <time>2023-05-28T11:06:58Z</time>
      </trkpt>
      <trkpt lat="43.53151" lon="5.56732">
        <ele>539.1</ele>
        <time>2023-05-28T11:06:59Z</time>
      </trkpt>
      <trkpt lat="43.5315" lon="5.56731">
        <ele>539</ele>
        <time>2023-05-28T11:07:00Z</time>
      </trkpt>
      <trkpt lat="43.5315" lon="5.5673">
        <ele>538.7</ele>
        <time>2023-05-28T11:07:01Z</time>
      </trkpt>
      <trkpt lat="43.53151" lon="5.56728">
        <ele>538.7</ele>
        <time>2023-05-28T11:07:02Z</time>
      </trkpt>
      <trkpt lat="43.53151" lon="5.56728">
        <ele>538.5</ele>
        <time>2023-05-28T11:07:03Z</time>
      </trkpt>
      <trkpt lat="43.53151" lon="5.56728">
        <ele>538.4</ele>
        <time>2023-05-28T11:07:04Z</time>
      </trkpt>
      <trkpt lat="43.53151" lon="5.56727">
        <ele>538.3</ele>
        <time>2023-05-28T11:07:05Z</time>
      </trkpt>
      <trkpt lat="43.53151" lon="5.56726">
        <ele>538.1</ele>
        <time>2023-05-28T11:07:06Z</time>
      </trkpt>
      <trkpt lat="43.53152" lon="5.56725">
        <ele>537.9</ele>
        <time>2023-05-28T11:07:07Z</time>
      </trkpt>
      <trkpt lat="43.53152" lon="5.56724">
        <ele>537.7</ele>
        <time>2023-05-28T11:07:08Z</time>
      </trkpt>
      <trkpt lat="43.53152" lon="5.56722">
        <ele>537.3</ele>
        <time>2023-05-28T11:07:09Z</time>
      </trkpt>
      <trkpt lat="43.53152" lon="5.56721">
        <ele>536.9</ele>
        <time>2023-05-28T11:07:10Z</time>
      </trkpt>
      <trkpt lat="43.53152" lon="5.5672">
        <ele>536.7</ele>
        <time>2023-05-28T11:07:11Z</time>
      </trkpt>
      <trkpt lat="43.53151" lon="5.56719">
        <ele>536.5</ele>
        <time>2023-05-28T11:07:12Z</time>
      </trkpt>
      <trkpt lat="43.5315" lon="5.56717">
        <ele>536.2</ele>
        <time>2023-05-28T11:07:13Z</time>
      </trkpt>
      <trkpt lat="43.5315" lon="5.56717">
        <ele>536</ele>
        <time>2023-05-28T11:07:14Z</time>
      </trkpt>
      <trkpt lat="43.53151" lon="5.56715">
        <ele>535.8</ele>
        <time>2023-05-28T11:07:15Z</time>
      </trkpt>
      <trkpt lat="43.53151" lon="5.56714">
        <ele>535.6</ele>
        <time>2023-05-28T11:07:16Z</time>
      </trkpt>
      <trkpt lat="43.53151" lon="5.56712">
        <ele>535.4</ele>
        <time>2023-05-28T11:07:17Z</time>
      </trkpt>
      <trkpt lat="43.5315" lon="5.56712">
        <ele>535.2</ele>
        <time>2023-05-28T11:07:18Z</time>
      </trkpt>
      <trkpt lat="43.53149" lon="5.56712">
        <ele>535</ele>
        <time>2023-05-28T11:07:19Z</time>
      </trkpt>
      <trkpt lat="43.53149" lon="5.56711">
        <ele>534.9</ele>
        <time>2023-05-28T11:07:20Z</time>
      </trkpt>
      <trkpt lat="43.53148" lon="5.5671">
        <ele>534.7</ele>
        <time>2023-05-28T11:07:21Z</time>
      </trkpt>
      <trkpt lat="43.53147" lon="5.56709">
        <ele>534.6</ele>
        <time>2023-05-28T11:07:22Z</time>
      </trkpt>
      <trkpt lat="43.53146" lon="5.56708">
        <ele>534.5</ele>
        <time>2023-05-28T11:07:23Z</time>
      </trkpt>
      <trkpt lat="43.53146" lon="5.56708">
        <ele>534.4</ele>
        <time>2023-05-28T11:07:24Z</time>
      </trkpt>
      <trkpt lat="43.53145" lon="5.56708">
        <ele>534.3</ele>
        <time>2023-05-28T11:07:25Z</time>
      </trkpt>
      <trkpt lat="43.53144" lon="5.56708">
        <ele>534.2</ele>
        <time>2023-05-28T11:07:26Z</time>
      </trkpt>
      <trkpt lat="43.53144" lon="5.56708">
        <ele>534.1</ele>
        <time>2023-05-28T11:07:27Z</time>
      </trkpt>
      <trkpt lat="43.53144" lon="5.56709">
        <ele>534</ele>
        <time>2023-05-28T11:07:28Z</time>
      </trkpt>
      <trkpt lat="43.53143" lon="5.56709">
        <ele>534</ele>
        <time>2023-05-28T11:07:29Z</time>
      </trkpt>
      <trkpt lat="43.53143" lon="5.56708">
        <ele>533.9</ele>
        <time>2023-05-28T11:07:30Z</time>
      </trkpt>
      <trkpt lat="43.53143" lon="5.56708">
        <ele>533.9</ele>
        <time>2023-05-28T11:07:31Z</time>
      </trkpt>
      <trkpt lat="43.53143" lon="5.56708">
        <ele>533.9</ele>
        <time>2023-05-28T11:07:32Z</time>
      </trkpt>
      <trkpt lat="43.53143" lon="5.56709">
        <ele>533.9</ele>
        <time>2023-05-28T11:07:33Z</time>
      </trkpt>
      <trkpt lat="43.53142" lon="5.56709">
        <ele>533.8</ele>
        <time>2023-05-28T11:07:34Z</time>
      </trkpt>
      <trkpt lat="43.53141" lon="5.56709">
        <ele>533.8</ele>
        <time>2023-05-28T11:07:35Z</time>
      </trkpt>
      <trkpt lat="43.53141" lon="5.56708">
        <ele>533.7</ele>
        <time>2023-05-28T11:07:36Z</time>
      </trkpt>
      <trkpt lat="43.5314" lon="5.56708">
        <ele>533.6</ele>
        <time>2023-05-28T11:07:37Z</time>
      </trkpt>
      <trkpt lat="43.5314" lon="5.56707">
        <ele>533.6</ele>
        <time>2023-05-28T11:07:38Z</time>
      </trkpt>
      <trkpt lat="43.5314" lon="5.56706">
        <ele>533.5</ele>
        <time>2023-05-28T11:07:39Z</time>
      </trkpt>
      <trkpt lat="43.5314" lon="5.56705">
        <ele>533.4</ele>
        <time>2023-05-28T11:07:40Z</time>
      </trkpt>
      <trkpt lat="43.5314" lon="5.56705">
        <ele>533.3</ele>
        <time>2023-05-28T11:07:41Z</time>
      </trkpt>
      <trkpt lat="43.5314" lon="5.56705">
        <ele>533.2</ele>
        <time>2023-05-28T11:07:42Z</time>
      </trkpt>
      <trkpt lat="43.5314" lon="5.56705">
        <ele>533.1</ele>
        <time>2023-05-28T11:07:43Z</time>
      </trkpt>
      <trkpt lat="43.53139" lon="5.56705">
        <ele>533.1</ele>
        <time>2023-05-28T11:07:44Z</time>
      </trkpt>
      <trkpt lat="43.53139" lon="5.56705">
        <ele>533.1</ele>
        <time>2023-05-28T11:07:45Z</time>
      </trkpt>
      <trkpt lat="43.53139" lon="5.56706">
        <ele>533</ele>
        <time>2023-05-28T11:07:46Z</time>
      </trkpt>
      <trkpt lat="43.53139" lon="5.56707">
        <ele>533</ele>
        <time>2023-05-28T11:07:47Z</time>
      </trkpt>
      <trkpt lat="43.53139" lon="5.56708">
        <ele>533</ele>
        <time>2023-05-28T11:07:48Z</time>
      </trkpt>
      <trkpt lat="43.53139" lon="5.56709">
        <ele>533</ele>
        <time>2023-05-28T11:07:49Z</time>
      </trkpt>
      <trkpt lat="43.53139" lon="5.56709">
        <ele>532.9</ele>
        <time>2023-05-28T11:07:50Z</time>
      </trkpt>
      <trkpt lat="43.53139" lon="5.5671">
        <ele>532.9</ele>
        <time>2023-05-28T11:07:51Z</time>
      </trkpt>
      <trkpt lat="43.53139" lon="5.5671">
        <ele>532.8</ele>
        <time>2023-05-28T11:07:52Z</time>
      </trkpt>
      <trkpt lat="43.53138" lon="5.56711">
        <ele>532.8</ele>
        <time>2023-05-28T11:07:53Z</time>
      </trkpt>
      <trkpt lat="43.53138" lon="5.56711">
        <ele>532.7</ele>
        <time>2023-05-28T11:07:54Z</time>
      </trkpt>
      <trkpt lat="43.53138" lon="5.56712">
        <ele>532.6</ele>
        <time>2023-05-28T11:07:55Z</time>
      </trkpt>
      <trkpt lat="43.53137" lon="5.56713">
        <ele>532.5</ele>
        <time>2023-05-28T11:07:56Z</time>
      </trkpt>
      <trkpt lat="43.53137" lon="5.56714">
        <ele>532.3</ele>
        <time>2023-05-28T11:07:57Z</time>
      </trkpt>
      <trkpt lat="43.53136" lon="5.56714">
        <ele>532.1</ele>
        <time>2023-05-28T11:07:58Z</time>
      </trkpt>
      <trkpt lat="43.53135" lon="5.56715">
        <ele>532.1</ele>
        <time>2023-05-28T11:07:59Z</time>
      </trkpt>
      <trkpt lat="43.53134" lon="5.56716">
        <ele>532</ele>
        <time>2023-05-28T11:08:00Z</time>
      </trkpt>
      <trkpt lat="43.53134" lon="5.56717">
        <ele>531.9</ele>
        <time>2023-05-28T11:08:01Z</time>
      </trkpt>
      <trkpt lat="43.53134" lon="5.56718">
        <ele>531.8</ele>
        <time>2023-05-28T11:08:02Z</time>
      </trkpt>
      <trkpt lat="43.53134" lon="5.56719">
        <ele>531.7</ele>
        <time>2023-05-28T11:08:03Z</time>
      </trkpt>
      <trkpt lat="43.53133" lon="5.56719">
        <ele>531.6</ele>
        <time>2023-05-28T11:08:04Z</time>
      </trkpt>
      <trkpt lat="43.53133" lon="5.5672">
        <ele>531.5</ele>
        <time>2023-05-28T11:08:05Z</time>
      </trkpt>
      <trkpt lat="43.53133" lon="5.56721">
        <ele>531.5</ele>
        <time>2023-05-28T11:08:06Z</time>
      </trkpt>
      <trkpt lat="43.53133" lon="5.56721">
        <ele>531.2</ele>
        <time>2023-05-28T11:08:07Z</time>
      </trkpt>
      <trkpt lat="43.53133" lon="5.56722">
        <ele>531</ele>
        <time>2023-05-28T11:08:08Z</time>
      </trkpt>
      <trkpt lat="43.53133" lon="5.56722">
        <ele>530.8</ele>
        <time>2023-05-28T11:08:09Z</time>
      </trkpt>
      <trkpt lat="43.53132" lon="5.56722">
        <ele>530.7</ele>
        <time>2023-05-28T11:08:10Z</time>
      </trkpt>
      <trkpt lat="43.53132" lon="5.56722">
        <ele>530.5</ele>
        <time>2023-05-28T11:08:11Z</time>
      </trkpt>
      <trkpt lat="43.53131" lon="5.56722">
        <ele>530.4</ele>
        <time>2023-05-28T11:08:12Z</time>
      </trkpt>
      <trkpt lat="43.53131" lon="5.56722">
        <ele>530.2</ele>
        <time>2023-05-28T11:08:13Z</time>
      </trkpt>
      <trkpt lat="43.53131" lon="5.56722">
        <ele>530</ele>
        <time>2023-05-28T11:08:14Z</time>
      </trkpt>
      <trkpt lat="43.53131" lon="5.56722">
        <ele>530</ele>
        <time>2023-05-28T11:08:15Z</time>
      </trkpt>
      <trkpt lat="43.5313" lon="5.56722">
        <ele>529.9</ele>
        <time>2023-05-28T11:08:16Z</time>
      </trkpt>
      <trkpt lat="43.5313" lon="5.56723">
        <ele>529.7</ele>
        <time>2023-05-28T11:08:17Z</time>
      </trkpt>
      <trkpt lat="43.53129" lon="5.56723">
        <ele>529.6</ele>
        <time>2023-05-28T11:08:18Z</time>
      </trkpt>
      <trkpt lat="43.53129" lon="5.56723">
        <ele>529.4</ele>
        <time>2023-05-28T11:08:19Z</time>
      </trkpt>
      <trkpt lat="43.53128" lon="5.56723">
        <ele>529.3</ele>
        <time>2023-05-28T11:08:20Z</time>
      </trkpt>
      <trkpt lat="43.53127" lon="5.56722">
        <ele>529.2</ele>
        <time>2023-05-28T11:08:21Z</time>
      </trkpt>
      <trkpt lat="43.53126" lon="5.56722">
        <ele>529</ele>
        <time>2023-05-28T11:08:22Z</time>
      </trkpt>
      <trkpt lat="43.53126" lon="5.56721">
        <ele>528.8</ele>
        <time>2023-05-28T11:08:23Z</time>
      </trkpt>
      <trkpt lat="43.53125" lon="5.5672">
        <ele>528.6</ele>
        <time>2023-05-28T11:08:24Z</time>
      </trkpt>
      <trkpt lat="43.53125" lon="5.56719">
        <ele>528.3</ele>
        <time>2023-05-28T11:08:25Z</time>
      </trkpt>
      <trkpt lat="43.53124" lon="5.56718">
        <ele>528.1</ele>
        <time>2023-05-28T11:08:26Z</time>
      </trkpt>
      <trkpt lat="43.53123" lon="5.56717">
        <ele>527.9</ele>
        <time>2023-05-28T11:08:27Z</time>
      </trkpt>
      <trkpt lat="43.53123" lon="5.56717">
        <ele>527.6</ele>
        <time>2023-05-28T11:08:28Z</time>
      </trkpt>
      <trkpt lat="43.53123" lon="5.56716">
        <ele>527.4</ele>
        <time>2023-05-28T11:08:29Z</time>
      </trkpt>
      <trkpt lat="43.53123" lon="5.56715">
        <ele>527.3</ele>
        <time>2023-05-28T11:08:30Z</time>
      </trkpt>
      <trkpt lat="43.53123" lon="5.56714">
        <ele>527.1</ele>
        <time>2023-05-28T11:08:31Z</time>
      </trkpt>
      <trkpt lat="43.53123" lon="5.56714">
        <ele>527</ele>
        <time>2023-05-28T11:08:32Z</time>
      </trkpt>
      <trkpt lat="43.53123" lon="5.56713">
        <ele>526.9</ele>
        <time>2023-05-28T11:08:33Z</time>
      </trkpt>
      <trkpt lat="43.53123" lon="5.56712">
        <ele>526.8</ele>
        <time>2023-05-28T11:08:34Z</time>
      </trkpt>
      <trkpt lat="43.53123" lon="5.56711">
        <ele>526.7</ele>
        <time>2023-05-28T11:08:35Z</time>
      </trkpt>
      <trkpt lat="43.53123" lon="5.5671">
        <ele>526.5</ele>
        <time>2023-05-28T11:08:36Z</time>
      </trkpt>
      <trkpt lat="43.53123" lon="5.56709">
        <ele>526.4</ele>
        <time>2023-05-28T11:08:37Z</time>
      </trkpt>
      <trkpt lat="43.53123" lon="5.56708">
        <ele>526.3</ele>
        <time>2023-05-28T11:08:38Z</time>
      </trkpt>
      <trkpt lat="43.53122" lon="5.56707">
        <ele>526.2</ele>
        <time>2023-05-28T11:08:39Z</time>
      </trkpt>
      <trkpt lat="43.53122" lon="5.56706">
        <ele>526.1</ele>
        <time>2023-05-28T11:08:40Z</time>
      </trkpt>
      <trkpt lat="43.53122" lon="5.56705">
        <ele>525.8</ele>
        <time>2023-05-28T11:08:41Z</time>
      </trkpt>
      <trkpt lat="43.53121" lon="5.56704">
        <ele>525.5</ele>
        <time>2023-05-28T11:08:42Z</time>
      </trkpt>
      <trkpt lat="43.53121" lon="5.56703">
        <ele>525.2</ele>
        <time>2023-05-28T11:08:43Z</time>
      </trkpt>
      <trkpt lat="43.5312" lon="5.56703">
        <ele>525</ele>
        <time>2023-05-28T11:08:44Z</time>
      </trkpt>
      <trkpt lat="43.53119" lon="5.56702">
        <ele>524.8</ele>
        <time>2023-05-28T11:08:45Z</time>
      </trkpt>
      <trkpt lat="43.53119" lon="5.56702">
        <ele>524.6</ele>
        <time>2023-05-28T11:08:46Z</time>
      </trkpt>
      <trkpt lat="43.53119" lon="5.56701">
        <ele>524.4</ele>
        <time>2023-05-28T11:08:47Z</time>
      </trkpt>
      <trkpt lat="43.53119" lon="5.56702">
        <ele>524.2</ele>
        <time>2023-05-28T11:08:48Z</time>
      </trkpt>
      <trkpt lat="43.53118" lon="5.56702">
        <ele>524</ele>
        <time>2023-05-28T11:08:49Z</time>
      </trkpt>
      <trkpt lat="43.53117" lon="5.56702">
        <ele>523.7</ele>
        <time>2023-05-28T11:08:50Z</time>
      </trkpt>
      <trkpt lat="43.53117" lon="5.56702">
        <ele>523.5</ele>
        <time>2023-05-28T11:08:51Z</time>
      </trkpt>
      <trkpt lat="43.53116" lon="5.56701">
        <ele>523.3</ele>
        <time>2023-05-28T11:08:52Z</time>
      </trkpt>
      <trkpt lat="43.53115" lon="5.56701">
        <ele>523.1</ele>
        <time>2023-05-28T11:08:53Z</time>
      </trkpt>
      <trkpt lat="43.53115" lon="5.56701">
        <ele>522.9</ele>
        <time>2023-05-28T11:08:54Z</time>
      </trkpt>
      <trkpt lat="43.53114" lon="5.567">
        <ele>522.8</ele>
        <time>2023-05-28T11:08:55Z</time>
      </trkpt>
      <trkpt lat="43.53114" lon="5.56699">
        <ele>522.7</ele>
        <time>2023-05-28T11:08:56Z</time>
      </trkpt>
      <trkpt lat="43.53114" lon="5.56698">
        <ele>522.6</ele>
        <time>2023-05-28T11:08:57Z</time>
      </trkpt>
      <trkpt lat="43.53114" lon="5.56698">
        <ele>522.4</ele>
        <time>2023-05-28T11:08:58Z</time>
      </trkpt>
      <trkpt lat="43.53114" lon="5.56697">
        <ele>522.3</ele>
        <time>2023-05-28T11:08:59Z</time>
      </trkpt>
      <trkpt lat="43.53113" lon="5.56696">
        <ele>522.2</ele>
        <time>2023-05-28T11:09:00Z</time>
      </trkpt>
      <trkpt lat="43.53112" lon="5.56695">
        <ele>522.2</ele>
        <time>2023-05-28T11:09:01Z</time>
      </trkpt>
      <trkpt lat="43.53112" lon="5.56695">
        <ele>522.1</ele>
        <time>2023-05-28T11:09:02Z</time>
      </trkpt>
      <trkpt lat="43.53111" lon="5.56696">
        <ele>522</ele>
        <time>2023-05-28T11:09:03Z</time>
      </trkpt>
      <trkpt lat="43.53111" lon="5.56696">
        <ele>521.9</ele>
        <time>2023-05-28T11:09:04Z</time>
      </trkpt>
      <trkpt lat="43.5311" lon="5.56697">
        <ele>521.7</ele>
        <time>2023-05-28T11:09:05Z</time>
      </trkpt>
      <trkpt lat="43.53109" lon="5.56697">
        <ele>521.6</ele>
        <time>2023-05-28T11:09:06Z</time>
      </trkpt>
      <trkpt lat="43.53109" lon="5.56696">
        <ele>521.5</ele>
        <time>2023-05-28T11:09:07Z</time>
      </trkpt>
      <trkpt lat="43.53108" lon="5.56696">
        <ele>521.5</ele>
        <time>2023-05-28T11:09:08Z</time>
      </trkpt>
      <trkpt lat="43.53107" lon="5.56695">
        <ele>521.4</ele>
        <time>2023-05-28T11:09:09Z</time>
      </trkpt>
      <trkpt lat="43.53106" lon="5.56695">
        <ele>521.2</ele>
        <time>2023-05-28T11:09:10Z</time>
      </trkpt>
      <trkpt lat="43.53106" lon="5.56695">
        <ele>521</ele>
        <time>2023-05-28T11:09:11Z</time>
      </trkpt>
      <trkpt lat="43.53105" lon="5.56694">
        <ele>520.9</ele>
        <time>2023-05-28T11:09:12Z</time>
      </trkpt>
      <trkpt lat="43.53105" lon="5.56694">
        <ele>520.8</ele>
        <time>2023-05-28T11:09:13Z</time>
      </trkpt>
      <trkpt lat="43.53105" lon="5.56694">
        <ele>520.7</ele>
        <time>2023-05-28T11:09:14Z</time>
      </trkpt>
      <trkpt lat="43.53105" lon="5.56694">
        <ele>520.7</ele>
        <time>2023-05-28T11:09:15Z</time>
      </trkpt>
      <trkpt lat="43.53105" lon="5.56694">
        <ele>520.5</ele>
        <time>2023-05-28T11:09:16Z</time>
      </trkpt>
      <trkpt lat="43.53105" lon="5.56694">
        <ele>520.4</ele>
        <time>2023-05-28T11:09:17Z</time>
      </trkpt>
      <trkpt lat="43.53105" lon="5.56694">
        <ele>520.2</ele>
        <time>2023-05-28T11:09:18Z</time>
      </trkpt>
      <trkpt lat="43.53105" lon="5.56695">
        <ele>520.1</ele>
        <time>2023-05-28T11:09:19Z</time>
      </trkpt>
      <trkpt lat="43.53105" lon="5.56695">
        <ele>519.9</ele>
        <time>2023-05-28T11:09:20Z</time>
      </trkpt>
      <trkpt lat="43.53105" lon="5.56695">
        <ele>519.9</ele>
        <time>2023-05-28T11:09:21Z</time>
      </trkpt>
      <trkpt lat="43.53104" lon="5.56695">
        <ele>519.8</ele>
        <time>2023-05-28T11:09:22Z</time>
      </trkpt>
      <trkpt lat="43.53104" lon="5.56696">
        <ele>519.6</ele>
        <time>2023-05-28T11:09:23Z</time>
      </trkpt>
      <trkpt lat="43.53104" lon="5.56697">
        <ele>519.4</ele>
        <time>2023-05-28T11:09:24Z</time>
      </trkpt>
      <trkpt lat="43.53103" lon="5.56697">
        <ele>519.3</ele>
        <time>2023-05-28T11:09:25Z</time>
      </trkpt>
      <trkpt lat="43.53102" lon="5.56697">
        <ele>519.1</ele>
        <time>2023-05-28T11:09:26Z</time>
      </trkpt>
      <trkpt lat="43.53101" lon="5.56696">
        <ele>518.9</ele>
        <time>2023-05-28T11:09:27Z</time>
      </trkpt>
      <trkpt lat="43.531" lon="5.56696">
        <ele>518.6</ele>
        <time>2023-05-28T11:09:28Z</time>
      </trkpt>
      <trkpt lat="43.53099" lon="5.56695">
        <ele>518.4</ele>
        <time>2023-05-28T11:09:29Z</time>
      </trkpt>
      <trkpt lat="43.53098" lon="5.56694">
        <ele>518.2</ele>
        <time>2023-05-28T11:09:30Z</time>
      </trkpt>
      <trkpt lat="43.53097" lon="5.56694">
        <ele>518.1</ele>
        <time>2023-05-28T11:09:31Z</time>
      </trkpt>
      <trkpt lat="43.53096" lon="5.56694">
        <ele>517.9</ele>
        <time>2023-05-28T11:09:32Z</time>
      </trkpt>
      <trkpt lat="43.53095" lon="5.56693">
        <ele>517.7</ele>
        <time>2023-05-28T11:09:33Z</time>
      </trkpt>
      <trkpt lat="43.53094" lon="5.56693">
        <ele>517.4</ele>
        <time>2023-05-28T11:09:34Z</time>
      </trkpt>
      <trkpt lat="43.53093" lon="5.56693">
        <ele>517.2</ele>
        <time>2023-05-28T11:09:35Z</time>
      </trkpt>
      <trkpt lat="43.53092" lon="5.56693">
        <ele>517.1</ele>
        <time>2023-05-28T11:09:36Z</time>
      </trkpt>
      <trkpt lat="43.53091" lon="5.56693">
        <ele>516.8</ele>
        <time>2023-05-28T11:09:37Z</time>
      </trkpt>
      <trkpt lat="43.5309" lon="5.56692">
        <ele>516.7</ele>
        <time>2023-05-28T11:09:38Z</time>
      </trkpt>
      <trkpt lat="43.5309" lon="5.56692">
        <ele>516.5</ele>
        <time>2023-05-28T11:09:39Z</time>
      </trkpt>
      <trkpt lat="43.5309" lon="5.56691">
        <ele>516.3</ele>
        <time>2023-05-28T11:09:40Z</time>
      </trkpt>
      <trkpt lat="43.5309" lon="5.5669">
        <ele>516</ele>
        <time>2023-05-28T11:09:41Z</time>
      </trkpt>
      <trkpt lat="43.53089" lon="5.5669">
        <ele>515.9</ele>
        <time>2023-05-28T11:09:42Z</time>
      </trkpt>
      <trkpt lat="43.53088" lon="5.5669">
        <ele>515.7</ele>
        <time>2023-05-28T11:09:43Z</time>
      </trkpt>
      <trkpt lat="43.53087" lon="5.56689">
        <ele>515.5</ele>
        <time>2023-05-28T11:09:44Z</time>
      </trkpt>
      <trkpt lat="43.53086" lon="5.56689">
        <ele>515.3</ele>
        <time>2023-05-28T11:09:45Z</time>
      </trkpt>
      <trkpt lat="43.53085" lon="5.56689">
        <ele>515.2</ele>
        <time>2023-05-28T11:09:46Z</time>
      </trkpt>
      <trkpt lat="43.53084" lon="5.56689">
        <ele>515</ele>
        <time>2023-05-28T11:09:47Z</time>
      </trkpt>
      <trkpt lat="43.53083" lon="5.56689">
        <ele>514.9</ele>
        <time>2023-05-28T11:09:48Z</time>
      </trkpt>
      <trkpt lat="43.53082" lon="5.56689">
        <ele>514.8</ele>
        <time>2023-05-28T11:09:49Z</time>
      </trkpt>
      <trkpt lat="43.53081" lon="5.56689">
        <ele>514.6</ele>
        <time>2023-05-28T11:09:50Z</time>
      </trkpt>
      <trkpt lat="43.53081" lon="5.56689">
        <ele>514.4</ele>
        <time>2023-05-28T11:09:51Z</time>
      </trkpt>
      <trkpt lat="43.53079" lon="5.56689">
        <ele>514.2</ele>
        <time>2023-05-28T11:09:52Z</time>
      </trkpt>
      <trkpt lat="43.53078" lon="5.56689">
        <ele>514</ele>
        <time>2023-05-28T11:09:53Z</time>
      </trkpt>
      <trkpt lat="43.53077" lon="5.56689">
        <ele>513.9</ele>
        <time>2023-05-28T11:09:54Z</time>
      </trkpt>
      <trkpt lat="43.53076" lon="5.5669">
        <ele>513.8</ele>
        <time>2023-05-28T11:09:55Z</time>
      </trkpt>
      <trkpt lat="43.53075" lon="5.5669">
        <ele>513.7</ele>
        <time>2023-05-28T11:09:56Z</time>
      </trkpt>
      <trkpt lat="43.53074" lon="5.56691">
        <ele>513.6</ele>
        <time>2023-05-28T11:09:57Z</time>
      </trkpt>
      <trkpt lat="43.53074" lon="5.56691">
        <ele>513.5</ele>
        <time>2023-05-28T11:09:58Z</time>
      </trkpt>
      <trkpt lat="43.53074" lon="5.56692">
        <ele>513.4</ele>
        <time>2023-05-28T11:09:59Z</time>
      </trkpt>
      <trkpt lat="43.53073" lon="5.56693">
        <ele>513.3</ele>
        <time>2023-05-28T11:10:00Z</time>
      </trkpt>
      <trkpt lat="43.53073" lon="5.56695">
        <ele>513.1</ele>
        <time>2023-05-28T11:10:01Z</time>
      </trkpt>
      <trkpt lat="43.53073" lon="5.56697">
        <ele>512.9</ele>
        <time>2023-05-28T11:10:02Z</time>
      </trkpt>
      <trkpt lat="43.53073" lon="5.56698">
        <ele>512.7</ele>
        <time>2023-05-28T11:10:03Z</time>
      </trkpt>
      <trkpt lat="43.53073" lon="5.567">
        <ele>512.5</ele>
        <time>2023-05-28T11:10:04Z</time>
      </trkpt>
      <trkpt lat="43.53074" lon="5.56702">
        <ele>512.3</ele>
        <time>2023-05-28T11:10:05Z</time>
      </trkpt>
      <trkpt lat="43.53074" lon="5.56704">
        <ele>512.2</ele>
        <time>2023-05-28T11:10:06Z</time>
      </trkpt>
      <trkpt lat="43.53074" lon="5.56706">
        <ele>512</ele>
        <time>2023-05-28T11:10:07Z</time>
      </trkpt>
      <trkpt lat="43.53074" lon="5.56707">
        <ele>511.9</ele>
        <time>2023-05-28T11:10:08Z</time>
      </trkpt>
      <trkpt lat="43.53074" lon="5.56709">
        <ele>511.7</ele>
        <time>2023-05-28T11:10:09Z</time>
      </trkpt>
      <trkpt lat="43.53073" lon="5.5671">
        <ele>511.5</ele>
        <time>2023-05-28T11:10:10Z</time>
      </trkpt>
      <trkpt lat="43.53073" lon="5.56712">
        <ele>511.4</ele>
        <time>2023-05-28T11:10:11Z</time>
      </trkpt>
      <trkpt lat="43.53073" lon="5.56713">
        <ele>511.2</ele>
        <time>2023-05-28T11:10:12Z</time>
      </trkpt>
      <trkpt lat="43.53073" lon="5.56713">
        <ele>511</ele>
        <time>2023-05-28T11:10:13Z</time>
      </trkpt>
      <trkpt lat="43.53072" lon="5.56714">
        <ele>510.8</ele>
        <time>2023-05-28T11:10:14Z</time>
      </trkpt>
      <trkpt lat="43.53071" lon="5.56715">
        <ele>510.6</ele>
        <time>2023-05-28T11:10:15Z</time>
      </trkpt>
      <trkpt lat="43.5307" lon="5.56715">
        <ele>510.2</ele>
        <time>2023-05-28T11:10:16Z</time>
      </trkpt>
      <trkpt lat="43.5307" lon="5.56715">
        <ele>510</ele>
        <time>2023-05-28T11:10:17Z</time>
      </trkpt>
      <trkpt lat="43.53069" lon="5.56715">
        <ele>509.7</ele>
        <time>2023-05-28T11:10:18Z</time>
      </trkpt>
      <trkpt lat="43.53068" lon="5.56715">
        <ele>509.5</ele>
        <time>2023-05-28T11:10:19Z</time>
      </trkpt>
      <trkpt lat="43.53067" lon="5.56715">
        <ele>509.3</ele>
        <time>2023-05-28T11:10:20Z</time>
      </trkpt>
      <trkpt lat="43.53066" lon="5.56715">
        <ele>509.1</ele>
        <time>2023-05-28T11:10:21Z</time>
      </trkpt>
      <trkpt lat="43.53066" lon="5.56715">
        <ele>508.9</ele>
        <time>2023-05-28T11:10:22Z</time>
      </trkpt>
      <trkpt lat="43.53064" lon="5.56715">
        <ele>508.7</ele>
        <time>2023-05-28T11:10:23Z</time>
      </trkpt>
      <trkpt lat="43.53063" lon="5.56715">
        <ele>508.6</ele>
        <time>2023-05-28T11:10:24Z</time>
      </trkpt>
      <trkpt lat="43.53063" lon="5.56716">
        <ele>508.6</ele>
        <time>2023-05-28T11:10:25Z</time>
      </trkpt>
      <trkpt lat="43.53063" lon="5.56716">
        <ele>508.5</ele>
        <time>2023-05-28T11:10:26Z</time>
      </trkpt>
      <trkpt lat="43.53062" lon="5.56716">
        <ele>508.5</ele>
        <time>2023-05-28T11:10:27Z</time>
      </trkpt>
      <trkpt lat="43.53062" lon="5.56716">
        <ele>508.4</ele>
        <time>2023-05-28T11:10:28Z</time>
      </trkpt>
      <trkpt lat="43.53061" lon="5.56717">
        <ele>508.3</ele>
        <time>2023-05-28T11:10:29Z</time>
      </trkpt>
      <trkpt lat="43.5306" lon="5.56718">
        <ele>508.2</ele>
        <time>2023-05-28T11:10:30Z</time>
      </trkpt>
      <trkpt lat="43.5306" lon="5.56719">
        <ele>508.1</ele>
        <time>2023-05-28T11:10:31Z</time>
      </trkpt>
      <trkpt lat="43.53059" lon="5.56719">
        <ele>507.9</ele>
        <time>2023-05-28T11:10:32Z</time>
      </trkpt>
      <trkpt lat="43.53058" lon="5.5672">
        <ele>507.7</ele>
        <time>2023-05-28T11:10:33Z</time>
      </trkpt>
      <trkpt lat="43.53057" lon="5.56721">
        <ele>507.7</ele>
        <time>2023-05-28T11:10:34Z</time>
      </trkpt>
      <trkpt lat="43.53056" lon="5.56722">
        <ele>507.6</ele>
        <time>2023-05-28T11:10:35Z</time>
      </trkpt>
      <trkpt lat="43.53055" lon="5.56722">
        <ele>507.5</ele>
        <time>2023-05-28T11:10:36Z</time>
      </trkpt>
      <trkpt lat="43.53054" lon="5.56723">
        <ele>507.4</ele>
        <time>2023-05-28T11:10:37Z</time>
      </trkpt>
      <trkpt lat="43.53053" lon="5.56723">
        <ele>507.3</ele>
        <time>2023-05-28T11:10:38Z</time>
      </trkpt>
      <trkpt lat="43.53051" lon="5.56724">
        <ele>507.2</ele>
        <time>2023-05-28T11:10:39Z</time>
      </trkpt>
      <trkpt lat="43.5305" lon="5.56725">
        <ele>507</ele>
        <time>2023-05-28T11:10:40Z</time>
      </trkpt>
      <trkpt lat="43.5305" lon="5.56726">
        <ele>506.9</ele>
        <time>2023-05-28T11:10:41Z</time>
      </trkpt>
      <trkpt lat="43.53049" lon="5.56728">
        <ele>506.7</ele>
        <time>2023-05-28T11:10:42Z</time>
      </trkpt>
      <trkpt lat="43.53048" lon="5.56729">
        <ele>506.5</ele>
        <time>2023-05-28T11:10:43Z</time>
      </trkpt>
      <trkpt lat="43.53048" lon="5.56731">
        <ele>506.4</ele>
        <time>2023-05-28T11:10:44Z</time>
      </trkpt>
      <trkpt lat="43.53047" lon="5.56732">
        <ele>506.3</ele>
        <time>2023-05-28T11:10:45Z</time>
      </trkpt>
      <trkpt lat="43.53047" lon="5.56733">
        <ele>506.1</ele>
        <time>2023-05-28T11:10:46Z</time>
      </trkpt>
      <trkpt lat="43.53045" lon="5.56733">
        <ele>506</ele>
        <time>2023-05-28T11:10:47Z</time>
      </trkpt>
      <trkpt lat="43.53045" lon="5.56735">
        <ele>505.9</ele>
        <time>2023-05-28T11:10:48Z</time>
      </trkpt>
      <trkpt lat="43.53044" lon="5.56736">
        <ele>505.7</ele>
        <time>2023-05-28T11:10:49Z</time>
      </trkpt>
      <trkpt lat="43.53044" lon="5.56737">
        <ele>505.6</ele>
        <time>2023-05-28T11:10:50Z</time>
      </trkpt>
      <trkpt lat="43.53044" lon="5.56738">
        <ele>505.4</ele>
        <time>2023-05-28T11:10:51Z</time>
      </trkpt>
      <trkpt lat="43.53044" lon="5.56739">
        <ele>505.2</ele>
        <time>2023-05-28T11:10:52Z</time>
      </trkpt>
      <trkpt lat="43.53043" lon="5.5674">
        <ele>505</ele>
        <time>2023-05-28T11:10:53Z</time>
      </trkpt>
      <trkpt lat="43.53043" lon="5.56741">
        <ele>504.8</ele>
        <time>2023-05-28T11:10:54Z</time>
      </trkpt>
      <trkpt lat="43.53044" lon="5.56741">
        <ele>504.7</ele>
        <time>2023-05-28T11:10:55Z</time>
      </trkpt>
      <trkpt lat="43.53043" lon="5.56742">
        <ele>504.5</ele>
        <time>2023-05-28T11:10:56Z</time>
      </trkpt>
      <trkpt lat="43.53043" lon="5.56743">
        <ele>504.2</ele>
        <time>2023-05-28T11:10:57Z</time>
      </trkpt>
      <trkpt lat="43.53042" lon="5.56744">
        <ele>504</ele>
        <time>2023-05-28T11:10:58Z</time>
      </trkpt>
      <trkpt lat="43.53042" lon="5.56746">
        <ele>503.8</ele>
        <time>2023-05-28T11:10:59Z</time>
      </trkpt>
      <trkpt lat="43.53042" lon="5.56747">
        <ele>503.7</ele>
        <time>2023-05-28T11:11:00Z</time>
      </trkpt>
      <trkpt lat="43.53042" lon="5.56748">
        <ele>503.6</ele>
        <time>2023-05-28T11:11:01Z</time>
      </trkpt>
      <trkpt lat="43.53042" lon="5.56749">
        <ele>503.4</ele>
        <time>2023-05-28T11:11:02Z</time>
      </trkpt>
      <trkpt lat="43.53042" lon="5.56751">
        <ele>503.2</ele>
        <time>2023-05-28T11:11:03Z</time>
      </trkpt>
      <trkpt lat="43.53043" lon="5.56752">
        <ele>503</ele>
        <time>2023-05-28T11:11:04Z</time>
      </trkpt>
      <trkpt lat="43.53043" lon="5.56753">
        <ele>502.8</ele>
        <time>2023-05-28T11:11:05Z</time>
      </trkpt>
      <trkpt lat="43.53043" lon="5.56754">
        <ele>502.6</ele>
        <time>2023-05-28T11:11:06Z</time>
      </trkpt>
      <trkpt lat="43.53044" lon="5.56755">
        <ele>502.4</ele>
        <time>2023-05-28T11:11:07Z</time>
      </trkpt>
      <trkpt lat="43.53044" lon="5.56756">
        <ele>502.2</ele>
        <time>2023-05-28T11:11:08Z</time>
      </trkpt>
      <trkpt lat="43.53045" lon="5.56758">
        <ele>502.2</ele>
        <time>2023-05-28T11:11:09Z</time>
      </trkpt>
      <trkpt lat="43.53046" lon="5.56759">
        <ele>502</ele>
        <time>2023-05-28T11:11:10Z</time>
      </trkpt>
      <trkpt lat="43.53046" lon="5.5676">
        <ele>502</ele>
        <time>2023-05-28T11:11:11Z</time>
      </trkpt>
      <trkpt lat="43.53046" lon="5.56761">
        <ele>501.8</ele>
        <time>2023-05-28T11:11:12Z</time>
      </trkpt>
      <trkpt lat="43.53047" lon="5.56762">
        <ele>501.6</ele>
        <time>2023-05-28T11:11:13Z</time>
      </trkpt>
      <trkpt lat="43.53047" lon="5.56763">
        <ele>501.4</ele>
        <time>2023-05-28T11:11:14Z</time>
      </trkpt>
      <trkpt lat="43.53047" lon="5.56764">
        <ele>501.3</ele>
        <time>2023-05-28T11:11:15Z</time>
      </trkpt>
      <trkpt lat="43.53047" lon="5.56765">
        <ele>501.2</ele>
        <time>2023-05-28T11:11:16Z</time>
      </trkpt>
      <trkpt lat="43.53047" lon="5.56766">
        <ele>501.1</ele>
        <time>2023-05-28T11:11:17Z</time>
      </trkpt>
      <trkpt lat="43.53047" lon="5.56768">
        <ele>501</ele>
        <time>2023-05-28T11:11:18Z</time>
      </trkpt>
      <trkpt lat="43.53048" lon="5.56769">
        <ele>500.8</ele>
        <time>2023-05-28T11:11:19Z</time>
      </trkpt>
      <trkpt lat="43.53048" lon="5.5677">
        <ele>500.6</ele>
        <time>2023-05-28T11:11:20Z</time>
      </trkpt>
      <trkpt lat="43.53049" lon="5.56771">
        <ele>500.4</ele>
        <time>2023-05-28T11:11:21Z</time>
      </trkpt>
      <trkpt lat="43.5305" lon="5.56773">
        <ele>500.2</ele>
        <time>2023-05-28T11:11:22Z</time>
      </trkpt>
      <trkpt lat="43.53051" lon="5.56773">
        <ele>500.1</ele>
        <time>2023-05-28T11:11:23Z</time>
      </trkpt>
      <trkpt lat="43.53052" lon="5.56773">
        <ele>500</ele>
        <time>2023-05-28T11:11:24Z</time>
      </trkpt>
      <trkpt lat="43.53053" lon="5.56773">
        <ele>499.8</ele>
        <time>2023-05-28T11:11:25Z</time>
      </trkpt>
      <trkpt lat="43.53053" lon="5.56773">
        <ele>499.6</ele>
        <time>2023-05-28T11:11:26Z</time>
      </trkpt>
      <trkpt lat="43.53054" lon="5.56774">
        <ele>499.5</ele>
        <time>2023-05-28T11:11:27Z</time>
      </trkpt>
      <trkpt lat="43.53054" lon="5.56775">
        <ele>499.3</ele>
        <time>2023-05-28T11:11:28Z</time>
      </trkpt>
      <trkpt lat="43.53055" lon="5.56776">
        <ele>499.1</ele>
        <time>2023-05-28T11:11:29Z</time>
      </trkpt>
      <trkpt lat="43.53054" lon="5.56777">
        <ele>498.9</ele>
        <time>2023-05-28T11:11:30Z</time>
      </trkpt>
      <trkpt lat="43.53054" lon="5.56778">
        <ele>498.6</ele>
        <time>2023-05-28T11:11:31Z</time>
      </trkpt>
      <trkpt lat="43.53054" lon="5.56778">
        <ele>498.4</ele>
        <time>2023-05-28T11:11:32Z</time>
      </trkpt>
      <trkpt lat="43.53054" lon="5.56779">
        <ele>498.2</ele>
        <time>2023-05-28T11:11:33Z</time>
      </trkpt>
      <trkpt lat="43.53054" lon="5.56779">
        <ele>497.9</ele>
        <time>2023-05-28T11:11:34Z</time>
      </trkpt>
      <trkpt lat="43.53054" lon="5.56781">
        <ele>497.8</ele>
        <time>2023-05-28T11:11:35Z</time>
      </trkpt>
      <trkpt lat="43.53055" lon="5.56782">
        <ele>497.5</ele>
        <time>2023-05-28T11:11:36Z</time>
      </trkpt>
      <trkpt lat="43.53056" lon="5.56783">
        <ele>497.5</ele>
        <time>2023-05-28T11:11:37Z</time>
      </trkpt>
      <trkpt lat="43.53057" lon="5.56784">
        <ele>497.3</ele>
        <time>2023-05-28T11:11:38Z</time>
      </trkpt>
      <trkpt lat="43.53058" lon="5.56784">
        <ele>497.1</ele>
        <time>2023-05-28T11:11:39Z</time>
      </trkpt>
      <trkpt lat="43.53058" lon="5.56785">
        <ele>497</ele>
        <time>2023-05-28T11:11:40Z</time>
      </trkpt>
      <trkpt lat="43.53059" lon="5.56786">
        <ele>496.9</ele>
        <time>2023-05-28T11:11:41Z</time>
      </trkpt>
      <trkpt lat="43.53059" lon="5.56787">
        <ele>496.8</ele>
        <time>2023-05-28T11:11:42Z</time>
      </trkpt>
      <trkpt lat="43.53059" lon="5.56789">
        <ele>496.6</ele>
        <time>2023-05-28T11:11:43Z</time>
      </trkpt>
      <trkpt lat="43.5306" lon="5.56789">
        <ele>496.4</ele>
        <time>2023-05-28T11:11:44Z</time>
      </trkpt>
      <trkpt lat="43.5306" lon="5.5679">
        <ele>496.2</ele>
        <time>2023-05-28T11:11:45Z</time>
      </trkpt>
      <trkpt lat="43.5306" lon="5.5679">
        <ele>496.1</ele>
        <time>2023-05-28T11:11:46Z</time>
      </trkpt>
      <trkpt lat="43.53059" lon="5.56791">
        <ele>495.9</ele>
        <time>2023-05-28T11:11:47Z</time>
      </trkpt>
      <trkpt lat="43.53058" lon="5.56791">
        <ele>495.8</ele>
        <time>2023-05-28T11:11:48Z</time>
      </trkpt>
      <trkpt lat="43.53058" lon="5.56791">
        <ele>495.7</ele>
        <time>2023-05-28T11:11:49Z</time>
      </trkpt>
      <trkpt lat="43.53058" lon="5.56791">
        <ele>495.5</ele>
        <time>2023-05-28T11:11:50Z</time>
      </trkpt>
      <trkpt lat="43.53057" lon="5.56791">
        <ele>495.4</ele>
        <time>2023-05-28T11:11:51Z</time>
      </trkpt>
      <trkpt lat="43.53057" lon="5.56792">
        <ele>495.2</ele>
        <time>2023-05-28T11:11:52Z</time>
      </trkpt>
      <trkpt lat="43.53057" lon="5.56793">
        <ele>495</ele>
        <time>2023-05-28T11:11:53Z</time>
      </trkpt>
      <trkpt lat="43.53057" lon="5.56794">
        <ele>494.8</ele>
        <time>2023-05-28T11:11:54Z</time>
      </trkpt>
      <trkpt lat="43.53056" lon="5.56795">
        <ele>494.7</ele>
        <time>2023-05-28T11:11:55Z</time>
      </trkpt>
      <trkpt lat="43.53056" lon="5.56796">
        <ele>494.5</ele>
        <time>2023-05-28T11:11:56Z</time>
      </trkpt>
      <trkpt lat="43.53056" lon="5.56797">
        <ele>494.2</ele>
        <time>2023-05-28T11:11:57Z</time>
      </trkpt>
      <trkpt lat="43.53056" lon="5.56798">
        <ele>494</ele>
        <time>2023-05-28T11:11:58Z</time>
      </trkpt>
      <trkpt lat="43.53056" lon="5.56798">
        <ele>493.8</ele>
        <time>2023-05-28T11:11:59Z</time>
      </trkpt>
      <trkpt lat="43.53055" lon="5.56798">
        <ele>493.5</ele>
        <time>2023-05-28T11:12:00Z</time>
      </trkpt>
      <trkpt lat="43.53054" lon="5.56798">
        <ele>493.3</ele>
        <time>2023-05-28T11:12:01Z</time>
      </trkpt>
      <trkpt lat="43.53054" lon="5.56799">
        <ele>493.1</ele>
        <time>2023-05-28T11:12:02Z</time>
      </trkpt>
      <trkpt lat="43.53053" lon="5.56799">
        <ele>492.9</ele>
        <time>2023-05-28T11:12:03Z</time>
      </trkpt>
      <trkpt lat="43.53052" lon="5.56799">
        <ele>492.8</ele>
        <time>2023-05-28T11:12:04Z</time>
      </trkpt>
      <trkpt lat="43.53051" lon="5.568">
        <ele>492.6</ele>
        <time>2023-05-28T11:12:05Z</time>
      </trkpt>
      <trkpt lat="43.53051" lon="5.568">
        <ele>492.4</ele>
        <time>2023-05-28T11:12:06Z</time>
      </trkpt>
      <trkpt lat="43.5305" lon="5.568">
        <ele>492.2</ele>
        <time>2023-05-28T11:12:07Z</time>
      </trkpt>
      <trkpt lat="43.53049" lon="5.568">
        <ele>492</ele>
        <time>2023-05-28T11:12:08Z</time>
      </trkpt>
      <trkpt lat="43.53049" lon="5.568">
        <ele>491.8</ele>
        <time>2023-05-28T11:12:09Z</time>
      </trkpt>
      <trkpt lat="43.53048" lon="5.568">
        <ele>491.6</ele>
        <time>2023-05-28T11:12:10Z</time>
      </trkpt>
      <trkpt lat="43.53047" lon="5.56799">
        <ele>491.5</ele>
        <time>2023-05-28T11:12:11Z</time>
      </trkpt>
      <trkpt lat="43.53046" lon="5.56799">
        <ele>491.3</ele>
        <time>2023-05-28T11:12:12Z</time>
      </trkpt>
      <trkpt lat="43.53046" lon="5.568">
        <ele>491.1</ele>
        <time>2023-05-28T11:12:13Z</time>
      </trkpt>
      <trkpt lat="43.53045" lon="5.568">
        <ele>490.9</ele>
        <time>2023-05-28T11:12:14Z</time>
      </trkpt>
      <trkpt lat="43.53044" lon="5.56801">
        <ele>490.8</ele>
        <time>2023-05-28T11:12:15Z</time>
      </trkpt>
      <trkpt lat="43.53044" lon="5.56801">
        <ele>490.6</ele>
        <time>2023-05-28T11:12:16Z</time>
      </trkpt>
      <trkpt lat="43.53043" lon="5.56801">
        <ele>490.4</ele>
        <time>2023-05-28T11:12:17Z</time>
      </trkpt>
      <trkpt lat="43.53042" lon="5.56801">
        <ele>490.2</ele>
        <time>2023-05-28T11:12:18Z</time>
      </trkpt>
      <trkpt lat="43.53041" lon="5.56801">
        <ele>490.1</ele>
        <time>2023-05-28T11:12:19Z</time>
      </trkpt>
      <trkpt lat="43.5304" lon="5.56802">
        <ele>490</ele>
        <time>2023-05-28T11:12:20Z</time>
      </trkpt>
      <trkpt lat="43.5304" lon="5.56803">
        <ele>489.8</ele>
        <time>2023-05-28T11:12:21Z</time>
      </trkpt>
      <trkpt lat="43.5304" lon="5.56804">
        <ele>489.7</ele>
        <time>2023-05-28T11:12:22Z</time>
      </trkpt>
      <trkpt lat="43.5304" lon="5.56804">
        <ele>489.6</ele>
        <time>2023-05-28T11:12:23Z</time>
      </trkpt>
      <trkpt lat="43.5304" lon="5.56805">
        <ele>489.4</ele>
        <time>2023-05-28T11:12:24Z</time>
      </trkpt>
      <trkpt lat="43.53041" lon="5.56805">
        <ele>489.2</ele>
        <time>2023-05-28T11:12:25Z</time>
      </trkpt>
      <trkpt lat="43.53041" lon="5.56805">
        <ele>489.1</ele>
        <time>2023-05-28T11:12:26Z</time>
      </trkpt>
      <trkpt lat="43.53041" lon="5.56805">
        <ele>488.9</ele>
        <time>2023-05-28T11:12:27Z</time>
      </trkpt>
      <trkpt lat="43.53042" lon="5.56805">
        <ele>488.8</ele>
        <time>2023-05-28T11:12:28Z</time>
      </trkpt>
      <trkpt lat="43.53042" lon="5.56806">
        <ele>488.6</ele>
        <time>2023-05-28T11:12:29Z</time>
      </trkpt>
      <trkpt lat="43.53042" lon="5.56806">
        <ele>488.5</ele>
        <time>2023-05-28T11:12:30Z</time>
      </trkpt>
      <trkpt lat="43.53042" lon="5.56806">
        <ele>488.4</ele>
        <time>2023-05-28T11:12:31Z</time>
      </trkpt>
      <trkpt lat="43.53042" lon="5.56807">
        <ele>488.3</ele>
        <time>2023-05-28T11:12:32Z</time>
      </trkpt>
      <trkpt lat="43.53042" lon="5.56807">
        <ele>488.2</ele>
        <time>2023-05-28T11:12:33Z</time>
      </trkpt>
      <trkpt lat="43.53042" lon="5.56807">
        <ele>488.2</ele>
        <time>2023-05-28T11:12:34Z</time>
      </trkpt>
      <trkpt lat="43.53041" lon="5.56807">
        <ele>488.2</ele>
        <time>2023-05-28T11:12:35Z</time>
      </trkpt>
      <trkpt lat="43.53041" lon="5.56808">
        <ele>488.2</ele>
        <time>2023-05-28T11:12:36Z</time>
      </trkpt>
      <trkpt lat="43.53041" lon="5.56809">
        <ele>488</ele>
        <time>2023-05-28T11:12:37Z</time>
      </trkpt>
      <trkpt lat="43.53041" lon="5.56811">
        <ele>487.9</ele>
        <time>2023-05-28T11:12:38Z</time>
      </trkpt>
      <trkpt lat="43.5304" lon="5.56812">
        <ele>487.9</ele>
        <time>2023-05-28T11:12:39Z</time>
      </trkpt>
      <trkpt lat="43.5304" lon="5.56814">
        <ele>487.7</ele>
        <time>2023-05-28T11:12:40Z</time>
      </trkpt>
      <trkpt lat="43.5304" lon="5.56815">
        <ele>487.6</ele>
        <time>2023-05-28T11:12:41Z</time>
      </trkpt>
      <trkpt lat="43.53039" lon="5.56816">
        <ele>487.4</ele>
        <time>2023-05-28T11:12:42Z</time>
      </trkpt>
      <trkpt lat="43.53038" lon="5.56817">
        <ele>487.3</ele>
        <time>2023-05-28T11:12:43Z</time>
      </trkpt>
      <trkpt lat="43.53038" lon="5.56819">
        <ele>487.2</ele>
        <time>2023-05-28T11:12:44Z</time>
      </trkpt>
      <trkpt lat="43.53037" lon="5.5682">
        <ele>487</ele>
        <time>2023-05-28T11:12:45Z</time>
      </trkpt>
      <trkpt lat="43.53037" lon="5.56821">
        <ele>486.8</ele>
        <time>2023-05-28T11:12:46Z</time>
      </trkpt>
      <trkpt lat="43.53037" lon="5.56822">
        <ele>486.6</ele>
        <time>2023-05-28T11:12:47Z</time>
      </trkpt>
      <trkpt lat="43.53036" lon="5.56823">
        <ele>486.4</ele>
        <time>2023-05-28T11:12:48Z</time>
      </trkpt>
      <trkpt lat="43.53036" lon="5.56824">
        <ele>486.3</ele>
        <time>2023-05-28T11:12:49Z</time>
      </trkpt>
      <trkpt lat="43.53035" lon="5.56826">
        <ele>486.1</ele>
        <time>2023-05-28T11:12:50Z</time>
      </trkpt>
      <trkpt lat="43.53035" lon="5.56827">
        <ele>486</ele>
        <time>2023-05-28T11:12:51Z</time>
      </trkpt>
      <trkpt lat="43.53034" lon="5.56827">
        <ele>486</ele>
        <time>2023-05-28T11:12:52Z</time>
      </trkpt>
      <trkpt lat="43.53035" lon="5.56829">
        <ele>485.8</ele>
        <time>2023-05-28T11:12:53Z</time>
      </trkpt>
      <trkpt lat="43.53035" lon="5.56829">
        <ele>485.7</ele>
        <time>2023-05-28T11:12:54Z</time>
      </trkpt>
      <trkpt lat="43.53035" lon="5.56829">
        <ele>485.6</ele>
        <time>2023-05-28T11:12:55Z</time>
      </trkpt>
      <trkpt lat="43.53035" lon="5.5683">
        <ele>485.5</ele>
        <time>2023-05-28T11:12:56Z</time>
      </trkpt>
      <trkpt lat="43.53035" lon="5.5683">
        <ele>485.3</ele>
        <time>2023-05-28T11:12:57Z</time>
      </trkpt>
      <trkpt lat="43.53035" lon="5.5683">
        <ele>485.3</ele>
        <time>2023-05-28T11:12:58Z</time>
      </trkpt>
      <trkpt lat="43.53035" lon="5.5683">
        <ele>485.1</ele>
        <time>2023-05-28T11:12:59Z</time>
      </trkpt>
      <trkpt lat="43.53034" lon="5.56831">
        <ele>485</ele>
        <time>2023-05-28T11:13:00Z</time>
      </trkpt>
      <trkpt lat="43.53034" lon="5.56831">
        <ele>484.9</ele>
        <time>2023-05-28T11:13:01Z</time>
      </trkpt>
      <trkpt lat="43.53032" lon="5.56833">
        <ele>484.8</ele>
        <time>2023-05-28T11:13:02Z</time>
      </trkpt>
      <trkpt lat="43.53032" lon="5.56835">
        <ele>484.6</ele>
        <time>2023-05-28T11:13:03Z</time>
      </trkpt>
      <trkpt lat="43.53031" lon="5.56836">
        <ele>484.5</ele>
        <time>2023-05-28T11:13:04Z</time>
      </trkpt>
      <trkpt lat="43.5303" lon="5.56838">
        <ele>484.4</ele>
        <time>2023-05-28T11:13:05Z</time>
      </trkpt>
      <trkpt lat="43.53029" lon="5.56839">
        <ele>484.4</ele>
        <time>2023-05-28T11:13:06Z</time>
      </trkpt>
      <trkpt lat="43.53029" lon="5.5684">
        <ele>484.2</ele>
        <time>2023-05-28T11:13:07Z</time>
      </trkpt>
      <trkpt lat="43.53028" lon="5.56841">
        <ele>484.1</ele>
        <time>2023-05-28T11:13:08Z</time>
      </trkpt>
      <trkpt lat="43.53028" lon="5.56843">
        <ele>484</ele>
        <time>2023-05-28T11:13:09Z</time>
      </trkpt>
      <trkpt lat="43.53027" lon="5.56844">
        <ele>483.8</ele>
        <time>2023-05-28T11:13:10Z</time>
      </trkpt>
      <trkpt lat="43.53027" lon="5.56845">
        <ele>483.6</ele>
        <time>2023-05-28T11:13:11Z</time>
      </trkpt>
      <trkpt lat="43.53026" lon="5.56846">
        <ele>483.6</ele>
        <time>2023-05-28T11:13:12Z</time>
      </trkpt>
      <trkpt lat="43.53026" lon="5.56848">
        <ele>483.5</ele>
        <time>2023-05-28T11:13:13Z</time>
      </trkpt>
      <trkpt lat="43.53026" lon="5.5685">
        <ele>483.4</ele>
        <time>2023-05-28T11:13:14Z</time>
      </trkpt>
      <trkpt lat="43.53025" lon="5.56852">
        <ele>483.3</ele>
        <time>2023-05-28T11:13:15Z</time>
      </trkpt>
      <trkpt lat="43.53024" lon="5.56852">
        <ele>483.3</ele>
        <time>2023-05-28T11:13:16Z</time>
      </trkpt>
      <trkpt lat="43.53024" lon="5.56854">
        <ele>483.1</ele>
        <time>2023-05-28T11:13:17Z</time>
      </trkpt>
      <trkpt lat="43.53023" lon="5.56855">
        <ele>483</ele>
        <time>2023-05-28T11:13:18Z</time>
      </trkpt>
      <trkpt lat="43.53023" lon="5.56856">
        <ele>482.9</ele>
        <time>2023-05-28T11:13:19Z</time>
      </trkpt>
      <trkpt lat="43.53022" lon="5.56857">
        <ele>482.8</ele>
        <time>2023-05-28T11:13:20Z</time>
      </trkpt>
      <trkpt lat="43.53022" lon="5.56858">
        <ele>482.7</ele>
        <time>2023-05-28T11:13:21Z</time>
      </trkpt>
      <trkpt lat="43.53021" lon="5.56858">
        <ele>482.5</ele>
        <time>2023-05-28T11:13:22Z</time>
      </trkpt>
      <trkpt lat="43.53021" lon="5.56859">
        <ele>482.4</ele>
        <time>2023-05-28T11:13:23Z</time>
      </trkpt>
      <trkpt lat="43.5302" lon="5.56859">
        <ele>482.3</ele>
        <time>2023-05-28T11:13:24Z</time>
      </trkpt>
      <trkpt lat="43.53019" lon="5.56859">
        <ele>482.1</ele>
        <time>2023-05-28T11:13:25Z</time>
      </trkpt>
      <trkpt lat="43.53018" lon="5.56859">
        <ele>482</ele>
        <time>2023-05-28T11:13:26Z</time>
      </trkpt>
      <trkpt lat="43.53017" lon="5.56859">
        <ele>481.8</ele>
        <time>2023-05-28T11:13:27Z</time>
      </trkpt>
      <trkpt lat="43.53016" lon="5.5686">
        <ele>481.7</ele>
        <time>2023-05-28T11:13:28Z</time>
      </trkpt>
      <trkpt lat="43.53015" lon="5.5686">
        <ele>481.5</ele>
        <time>2023-05-28T11:13:29Z</time>
      </trkpt>
      <trkpt lat="43.53014" lon="5.5686">
        <ele>481.2</ele>
        <time>2023-05-28T11:13:30Z</time>
      </trkpt>
      <trkpt lat="43.53013" lon="5.56861">
        <ele>481</ele>
        <time>2023-05-28T11:13:31Z</time>
      </trkpt>
      <trkpt lat="43.53012" lon="5.56862">
        <ele>480.7</ele>
        <time>2023-05-28T11:13:32Z</time>
      </trkpt>
      <trkpt lat="43.53012" lon="5.56863">
        <ele>480.3</ele>
        <time>2023-05-28T11:13:33Z</time>
      </trkpt>
      <trkpt lat="43.53011" lon="5.56864">
        <ele>480</ele>
        <time>2023-05-28T11:13:34Z</time>
      </trkpt>
      <trkpt lat="43.5301" lon="5.56865">
        <ele>479.8</ele>
        <time>2023-05-28T11:13:35Z</time>
      </trkpt>
      <trkpt lat="43.53009" lon="5.56865">
        <ele>479.5</ele>
        <time>2023-05-28T11:13:36Z</time>
      </trkpt>
      <trkpt lat="43.53008" lon="5.56865">
        <ele>479.2</ele>
        <time>2023-05-28T11:13:37Z</time>
      </trkpt>
      <trkpt lat="43.53007" lon="5.56865">
        <ele>479</ele>
        <time>2023-05-28T11:13:38Z</time>
      </trkpt>
      <trkpt lat="43.53006" lon="5.56866">
        <ele>478.8</ele>
        <time>2023-05-28T11:13:39Z</time>
      </trkpt>
      <trkpt lat="43.53005" lon="5.56866">
        <ele>478.5</ele>
        <time>2023-05-28T11:13:40Z</time>
      </trkpt>
      <trkpt lat="43.53004" lon="5.56866">
        <ele>478.2</ele>
        <time>2023-05-28T11:13:41Z</time>
      </trkpt>
      <trkpt lat="43.53003" lon="5.56867">
        <ele>478</ele>
        <time>2023-05-28T11:13:42Z</time>
      </trkpt>
      <trkpt lat="43.53003" lon="5.56868">
        <ele>477.7</ele>
        <time>2023-05-28T11:13:43Z</time>
      </trkpt>
      <trkpt lat="43.53001" lon="5.56869">
        <ele>477.5</ele>
        <time>2023-05-28T11:13:44Z</time>
      </trkpt>
      <trkpt lat="43.53" lon="5.5687">
        <ele>477.2</ele>
        <time>2023-05-28T11:13:45Z</time>
      </trkpt>
      <trkpt lat="43.53" lon="5.56871">
        <ele>476.9</ele>
        <time>2023-05-28T11:13:46Z</time>
      </trkpt>
      <trkpt lat="43.52999" lon="5.56871">
        <ele>476.7</ele>
        <time>2023-05-28T11:13:47Z</time>
      </trkpt>
      <trkpt lat="43.52999" lon="5.56872">
        <ele>476.5</ele>
        <time>2023-05-28T11:13:48Z</time>
      </trkpt>
      <trkpt lat="43.52998" lon="5.56872">
        <ele>476.4</ele>
        <time>2023-05-28T11:13:49Z</time>
      </trkpt>
      <trkpt lat="43.52997" lon="5.56872">
        <ele>476.3</ele>
        <time>2023-05-28T11:13:50Z</time>
      </trkpt>
      <trkpt lat="43.52996" lon="5.56872">
        <ele>476.1</ele>
        <time>2023-05-28T11:13:51Z</time>
      </trkpt>
      <trkpt lat="43.52995" lon="5.56872">
        <ele>475.8</ele>
        <time>2023-05-28T11:13:52Z</time>
      </trkpt>
      <trkpt lat="43.52994" lon="5.56873">
        <ele>475.5</ele>
        <time>2023-05-28T11:13:53Z</time>
      </trkpt>
      <trkpt lat="43.52993" lon="5.56873">
        <ele>475.2</ele>
        <time>2023-05-28T11:13:54Z</time>
      </trkpt>
      <trkpt lat="43.52992" lon="5.56874">
        <ele>475</ele>
        <time>2023-05-28T11:13:55Z</time>
      </trkpt>
      <trkpt lat="43.52991" lon="5.56874">
        <ele>474.8</ele>
        <time>2023-05-28T11:13:56Z</time>
      </trkpt>
      <trkpt lat="43.52991" lon="5.56876">
        <ele>474.6</ele>
        <time>2023-05-28T11:13:57Z</time>
      </trkpt>
      <trkpt lat="43.52991" lon="5.56876">
        <ele>474.5</ele>
        <time>2023-05-28T11:13:58Z</time>
      </trkpt>
      <trkpt lat="43.5299" lon="5.56877">
        <ele>474.4</ele>
        <time>2023-05-28T11:13:59Z</time>
      </trkpt>
      <trkpt lat="43.52989" lon="5.56879">
        <ele>474.3</ele>
        <time>2023-05-28T11:14:00Z</time>
      </trkpt>
      <trkpt lat="43.52989" lon="5.5688">
        <ele>474.1</ele>
        <time>2023-05-28T11:14:01Z</time>
      </trkpt>
      <trkpt lat="43.52988" lon="5.56881">
        <ele>474</ele>
        <time>2023-05-28T11:14:02Z</time>
      </trkpt>
      <trkpt lat="43.52988" lon="5.56882">
        <ele>473.8</ele>
        <time>2023-05-28T11:14:03Z</time>
      </trkpt>
      <trkpt lat="43.52987" lon="5.56883">
        <ele>473.6</ele>
        <time>2023-05-28T11:14:04Z</time>
      </trkpt>
      <trkpt lat="43.52987" lon="5.56883">
        <ele>473.4</ele>
        <time>2023-05-28T11:14:05Z</time>
      </trkpt>
      <trkpt lat="43.52987" lon="5.56883">
        <ele>473.3</ele>
        <time>2023-05-28T11:14:06Z</time>
      </trkpt>
      <trkpt lat="43.52986" lon="5.56883">
        <ele>473.2</ele>
        <time>2023-05-28T11:14:07Z</time>
      </trkpt>
      <trkpt lat="43.52986" lon="5.56883">
        <ele>473</ele>
        <time>2023-05-28T11:14:08Z</time>
      </trkpt>
      <trkpt lat="43.52985" lon="5.56883">
        <ele>472.9</ele>
        <time>2023-05-28T11:14:09Z</time>
      </trkpt>
      <trkpt lat="43.52986" lon="5.56883">
        <ele>472.8</ele>
        <time>2023-05-28T11:14:10Z</time>
      </trkpt>
      <trkpt lat="43.52986" lon="5.56883">
        <ele>472.8</ele>
        <time>2023-05-28T11:14:11Z</time>
      </trkpt>
      <trkpt lat="43.52986" lon="5.56884">
        <ele>472.7</ele>
        <time>2023-05-28T11:14:12Z</time>
      </trkpt>
      <trkpt lat="43.52986" lon="5.56884">
        <ele>472.7</ele>
        <time>2023-05-28T11:14:13Z</time>
      </trkpt>
      <trkpt lat="43.52986" lon="5.56884">
        <ele>472.7</ele>
        <time>2023-05-28T11:14:14Z</time>
      </trkpt>
      <trkpt lat="43.52986" lon="5.56884">
        <ele>472.6</ele>
        <time>2023-05-28T11:14:15Z</time>
      </trkpt>
      <trkpt lat="43.52986" lon="5.56884">
        <ele>472.6</ele>
        <time>2023-05-28T11:14:16Z</time>
      </trkpt>
      <trkpt lat="43.52986" lon="5.56884">
        <ele>472.5</ele>
        <time>2023-05-28T11:14:17Z</time>
      </trkpt>
      <trkpt lat="43.52986" lon="5.56885">
        <ele>472.5</ele>
        <time>2023-05-28T11:14:18Z</time>
      </trkpt>
      <trkpt lat="43.52986" lon="5.56885">
        <ele>472.4</ele>
        <time>2023-05-28T11:14:19Z</time>
      </trkpt>
      <trkpt lat="43.52986" lon="5.56885">
        <ele>472.4</ele>
        <time>2023-05-28T11:14:20Z</time>
      </trkpt>
      <trkpt lat="43.52985" lon="5.56886">
        <ele>472.3</ele>
        <time>2023-05-28T11:14:21Z</time>
      </trkpt>
      <trkpt lat="43.52984" lon="5.56886">
        <ele>472.3</ele>
        <time>2023-05-28T11:14:22Z</time>
      </trkpt>
      <trkpt lat="43.52984" lon="5.56887">
        <ele>472.3</ele>
        <time>2023-05-28T11:14:23Z</time>
      </trkpt>
      <trkpt lat="43.52983" lon="5.56888">
        <ele>472.2</ele>
        <time>2023-05-28T11:14:24Z</time>
      </trkpt>
      <trkpt lat="43.52982" lon="5.56889">
        <ele>472</ele>
        <time>2023-05-28T11:14:25Z</time>
      </trkpt>
      <trkpt lat="43.52982" lon="5.5689">
        <ele>471.9</ele>
        <time>2023-05-28T11:14:26Z</time>
      </trkpt>
      <trkpt lat="43.52981" lon="5.56891">
        <ele>471.9</ele>
        <time>2023-05-28T11:14:27Z</time>
      </trkpt>
      <trkpt lat="43.5298" lon="5.56892">
        <ele>471.8</ele>
        <time>2023-05-28T11:14:28Z</time>
      </trkpt>
      <trkpt lat="43.52979" lon="5.56893">
        <ele>471.8</ele>
        <time>2023-05-28T11:14:29Z</time>
      </trkpt>
      <trkpt lat="43.52979" lon="5.56895">
        <ele>471.8</ele>
        <time>2023-05-28T11:14:30Z</time>
      </trkpt>
      <trkpt lat="43.52979" lon="5.56896">
        <ele>471.8</ele>
        <time>2023-05-28T11:14:31Z</time>
      </trkpt>
      <trkpt lat="43.52978" lon="5.56897">
        <ele>471.7</ele>
        <time>2023-05-28T11:14:32Z</time>
      </trkpt>
      <trkpt lat="43.52977" lon="5.56898">
        <ele>471.6</ele>
        <time>2023-05-28T11:14:33Z</time>
      </trkpt>
      <trkpt lat="43.52977" lon="5.569">
        <ele>471.6</ele>
        <time>2023-05-28T11:14:34Z</time>
      </trkpt>
      <trkpt lat="43.52977" lon="5.56902">
        <ele>471.6</ele>
        <time>2023-05-28T11:14:35Z</time>
      </trkpt>
      <trkpt lat="43.52976" lon="5.56903">
        <ele>471.6</ele>
        <time>2023-05-28T11:14:36Z</time>
      </trkpt>
      <trkpt lat="43.52976" lon="5.56904">
        <ele>471.5</ele>
        <time>2023-05-28T11:14:37Z</time>
      </trkpt>
      <trkpt lat="43.52977" lon="5.56906">
        <ele>471.5</ele>
        <time>2023-05-28T11:14:38Z</time>
      </trkpt>
      <trkpt lat="43.52977" lon="5.56907">
        <ele>471.5</ele>
        <time>2023-05-28T11:14:39Z</time>
      </trkpt>
      <trkpt lat="43.52977" lon="5.56908">
        <ele>471.5</ele>
        <time>2023-05-28T11:14:40Z</time>
      </trkpt>
      <trkpt lat="43.52976" lon="5.56909">
        <ele>471.4</ele>
        <time>2023-05-28T11:14:41Z</time>
      </trkpt>
      <trkpt lat="43.52975" lon="5.5691">
        <ele>471.4</ele>
        <time>2023-05-28T11:14:42Z</time>
      </trkpt>
      <trkpt lat="43.52975" lon="5.56911">
        <ele>471.4</ele>
        <time>2023-05-28T11:14:43Z</time>
      </trkpt>
      <trkpt lat="43.52974" lon="5.56912">
        <ele>471.4</ele>
        <time>2023-05-28T11:14:44Z</time>
      </trkpt>
      <trkpt lat="43.52973" lon="5.56913">
        <ele>471.4</ele>
        <time>2023-05-28T11:14:45Z</time>
      </trkpt>
      <trkpt lat="43.52973" lon="5.56914">
        <ele>471.3</ele>
        <time>2023-05-28T11:14:46Z</time>
      </trkpt>
      <trkpt lat="43.52972" lon="5.56915">
        <ele>471.2</ele>
        <time>2023-05-28T11:14:47Z</time>
      </trkpt>
      <trkpt lat="43.52971" lon="5.56916">
        <ele>471.2</ele>
        <time>2023-05-28T11:14:48Z</time>
      </trkpt>
      <trkpt lat="43.52971" lon="5.56917">
        <ele>471.2</ele>
        <time>2023-05-28T11:14:49Z</time>
      </trkpt>
      <trkpt lat="43.52971" lon="5.56917">
        <ele>471.2</ele>
        <time>2023-05-28T11:14:50Z</time>
      </trkpt>
      <trkpt lat="43.52971" lon="5.56918">
        <ele>471.1</ele>
        <time>2023-05-28T11:14:51Z</time>
      </trkpt>
      <trkpt lat="43.52971" lon="5.56918">
        <ele>471.1</ele>
        <time>2023-05-28T11:14:52Z</time>
      </trkpt>
      <trkpt lat="43.52971" lon="5.56918">
        <ele>471.1</ele>
        <time>2023-05-28T11:14:53Z</time>
      </trkpt>
      <trkpt lat="43.52971" lon="5.56919">
        <ele>471</ele>
        <time>2023-05-28T11:14:54Z</time>
      </trkpt>
      <trkpt lat="43.5297" lon="5.56919">
        <ele>471.1</ele>
        <time>2023-05-28T11:14:55Z</time>
      </trkpt>
      <trkpt lat="43.5297" lon="5.5692">
        <ele>471.1</ele>
        <time>2023-05-28T11:14:56Z</time>
      </trkpt>
      <trkpt lat="43.52969" lon="5.5692">
        <ele>471.1</ele>
        <time>2023-05-28T11:14:57Z</time>
      </trkpt>
      <trkpt lat="43.52969" lon="5.5692">
        <ele>470.9</ele>
        <time>2023-05-28T11:14:58Z</time>
      </trkpt>
      <trkpt lat="43.52968" lon="5.56921">
        <ele>470.8</ele>
        <time>2023-05-28T11:14:59Z</time>
      </trkpt>
      <trkpt lat="43.52967" lon="5.56921">
        <ele>470.7</ele>
        <time>2023-05-28T11:15:00Z</time>
      </trkpt>
      <trkpt lat="43.52967" lon="5.56921">
        <ele>470.6</ele>
        <time>2023-05-28T11:15:01Z</time>
      </trkpt>
      <trkpt lat="43.52966" lon="5.56922">
        <ele>470.4</ele>
        <time>2023-05-28T11:15:02Z</time>
      </trkpt>
      <trkpt lat="43.52965" lon="5.56923">
        <ele>470.4</ele>
        <time>2023-05-28T11:15:03Z</time>
      </trkpt>
      <trkpt lat="43.52964" lon="5.56925">
        <ele>470.3</ele>
        <time>2023-05-28T11:15:04Z</time>
      </trkpt>
      <trkpt lat="43.52963" lon="5.56926">
        <ele>470.3</ele>
        <time>2023-05-28T11:15:05Z</time>
      </trkpt>
      <trkpt lat="43.52963" lon="5.56927">
        <ele>470.3</ele>
        <time>2023-05-28T11:15:06Z</time>
      </trkpt>
      <trkpt lat="43.52962" lon="5.56927">
        <ele>470.3</ele>
        <time>2023-05-28T11:15:07Z</time>
      </trkpt>
      <trkpt lat="43.52961" lon="5.56928">
        <ele>470.2</ele>
        <time>2023-05-28T11:15:08Z</time>
      </trkpt>
      <trkpt lat="43.5296" lon="5.56928">
        <ele>470.1</ele>
        <time>2023-05-28T11:15:09Z</time>
      </trkpt>
      <trkpt lat="43.52959" lon="5.56929">
        <ele>470.1</ele>
        <time>2023-05-28T11:15:10Z</time>
      </trkpt>
      <trkpt lat="43.52958" lon="5.56929">
        <ele>470.1</ele>
        <time>2023-05-28T11:15:11Z</time>
      </trkpt>
      <trkpt lat="43.52957" lon="5.56931">
        <ele>470.1</ele>
        <time>2023-05-28T11:15:12Z</time>
      </trkpt>
      <trkpt lat="43.52956" lon="5.56931">
        <ele>470</ele>
        <time>2023-05-28T11:15:13Z</time>
      </trkpt>
      <trkpt lat="43.52955" lon="5.56932">
        <ele>469.9</ele>
        <time>2023-05-28T11:15:14Z</time>
      </trkpt>
      <trkpt lat="43.52954" lon="5.56933">
        <ele>469.8</ele>
        <time>2023-05-28T11:15:15Z</time>
      </trkpt>
      <trkpt lat="43.52953" lon="5.56933">
        <ele>469.8</ele>
        <time>2023-05-28T11:15:16Z</time>
      </trkpt>
      <trkpt lat="43.52952" lon="5.56934">
        <ele>469.7</ele>
        <time>2023-05-28T11:15:17Z</time>
      </trkpt>
      <trkpt lat="43.52951" lon="5.56935">
        <ele>469.7</ele>
        <time>2023-05-28T11:15:18Z</time>
      </trkpt>
      <trkpt lat="43.5295" lon="5.56936">
        <ele>469.6</ele>
        <time>2023-05-28T11:15:19Z</time>
      </trkpt>
      <trkpt lat="43.5295" lon="5.56937">
        <ele>469.5</ele>
        <time>2023-05-28T11:15:20Z</time>
      </trkpt>
      <trkpt lat="43.52949" lon="5.56937">
        <ele>469.4</ele>
        <time>2023-05-28T11:15:21Z</time>
      </trkpt>
      <trkpt lat="43.52948" lon="5.56938">
        <ele>469.3</ele>
        <time>2023-05-28T11:15:22Z</time>
      </trkpt>
      <trkpt lat="43.52947" lon="5.56939">
        <ele>469.2</ele>
        <time>2023-05-28T11:15:23Z</time>
      </trkpt>
      <trkpt lat="43.52946" lon="5.5694">
        <ele>469.1</ele>
        <time>2023-05-28T11:15:24Z</time>
      </trkpt>
      <trkpt lat="43.52945" lon="5.56941">
        <ele>469</ele>
        <time>2023-05-28T11:15:25Z</time>
      </trkpt>
      <trkpt lat="43.52945" lon="5.56942">
        <ele>469</ele>
        <time>2023-05-28T11:15:26Z</time>
      </trkpt>
      <trkpt lat="43.52944" lon="5.56942">
        <ele>468.9</ele>
        <time>2023-05-28T11:15:27Z</time>
      </trkpt>
      <trkpt lat="43.52942" lon="5.56943">
        <ele>468.8</ele>
        <time>2023-05-28T11:15:28Z</time>
      </trkpt>
      <trkpt lat="43.52941" lon="5.56943">
        <ele>468.7</ele>
        <time>2023-05-28T11:15:29Z</time>
      </trkpt>
      <trkpt lat="43.5294" lon="5.56944">
        <ele>468.5</ele>
        <time>2023-05-28T11:15:30Z</time>
      </trkpt>
      <trkpt lat="43.52939" lon="5.56944">
        <ele>468.4</ele>
        <time>2023-05-28T11:15:31Z</time>
      </trkpt>
      <trkpt lat="43.52938" lon="5.56944">
        <ele>468.2</ele>
        <time>2023-05-28T11:15:32Z</time>
      </trkpt>
      <trkpt lat="43.52937" lon="5.56944">
        <ele>468.1</ele>
        <time>2023-05-28T11:15:33Z</time>
      </trkpt>
      <trkpt lat="43.52935" lon="5.56944">
        <ele>468.1</ele>
        <time>2023-05-28T11:15:34Z</time>
      </trkpt>
      <trkpt lat="43.52934" lon="5.56945">
        <ele>468</ele>
        <time>2023-05-28T11:15:35Z</time>
      </trkpt>
      <trkpt lat="43.52933" lon="5.56945">
        <ele>468</ele>
        <time>2023-05-28T11:15:36Z</time>
      </trkpt>
      <trkpt lat="43.52932" lon="5.56946">
        <ele>467.9</ele>
        <time>2023-05-28T11:15:37Z</time>
      </trkpt>
      <trkpt lat="43.52931" lon="5.56947">
        <ele>467.8</ele>
        <time>2023-05-28T11:15:38Z</time>
      </trkpt>
      <trkpt lat="43.5293" lon="5.56948">
        <ele>467.7</ele>
        <time>2023-05-28T11:15:39Z</time>
      </trkpt>
      <trkpt lat="43.52929" lon="5.56948">
        <ele>467.7</ele>
        <time>2023-05-28T11:15:40Z</time>
      </trkpt>
      <trkpt lat="43.52928" lon="5.56948">
        <ele>467.6</ele>
        <time>2023-05-28T11:15:41Z</time>
      </trkpt>
      <trkpt lat="43.52927" lon="5.56949">
        <ele>467.5</ele>
        <time>2023-05-28T11:15:42Z</time>
      </trkpt>
      <trkpt lat="43.52926" lon="5.5695">
        <ele>467.5</ele>
        <time>2023-05-28T11:15:43Z</time>
      </trkpt>
      <trkpt lat="43.52925" lon="5.56951">
        <ele>467.4</ele>
        <time>2023-05-28T11:15:44Z</time>
      </trkpt>
      <trkpt lat="43.52925" lon="5.56952">
        <ele>467.4</ele>
        <time>2023-05-28T11:15:45Z</time>
      </trkpt>
      <trkpt lat="43.52924" lon="5.56953">
        <ele>467.4</ele>
        <time>2023-05-28T11:15:46Z</time>
      </trkpt>
      <trkpt lat="43.52923" lon="5.56953">
        <ele>467.5</ele>
        <time>2023-05-28T11:15:47Z</time>
      </trkpt>
      <trkpt lat="43.52922" lon="5.56954">
        <ele>467.7</ele>
        <time>2023-05-28T11:15:48Z</time>
      </trkpt>
      <trkpt lat="43.52921" lon="5.56954">
        <ele>467.8</ele>
        <time>2023-05-28T11:15:49Z</time>
      </trkpt>
      <trkpt lat="43.52919" lon="5.56955">
        <ele>467.9</ele>
        <time>2023-05-28T11:15:50Z</time>
      </trkpt>
      <trkpt lat="43.52918" lon="5.56955">
        <ele>468</ele>
        <time>2023-05-28T11:15:51Z</time>
      </trkpt>
      <trkpt lat="43.52917" lon="5.56955">
        <ele>468</ele>
        <time>2023-05-28T11:15:52Z</time>
      </trkpt>
      <trkpt lat="43.52916" lon="5.56956">
        <ele>468</ele>
        <time>2023-05-28T11:15:53Z</time>
      </trkpt>
      <trkpt lat="43.52916" lon="5.56956">
        <ele>468.1</ele>
        <time>2023-05-28T11:15:54Z</time>
      </trkpt>
      <trkpt lat="43.52915" lon="5.56956">
        <ele>468.1</ele>
        <time>2023-05-28T11:15:55Z</time>
      </trkpt>
      <trkpt lat="43.52914" lon="5.56956">
        <ele>468.1</ele>
        <time>2023-05-28T11:15:56Z</time>
      </trkpt>
      <trkpt lat="43.52914" lon="5.56956">
        <ele>468.1</ele>
        <time>2023-05-28T11:15:57Z</time>
      </trkpt>
      <trkpt lat="43.52913" lon="5.56956">
        <ele>468.2</ele>
        <time>2023-05-28T11:15:58Z</time>
      </trkpt>
      <trkpt lat="43.52912" lon="5.56954">
        <ele>468.3</ele>
        <time>2023-05-28T11:15:59Z</time>
      </trkpt>
      <trkpt lat="43.52912" lon="5.56954">
        <ele>468.3</ele>
        <time>2023-05-28T11:16:00Z</time>
      </trkpt>
      <trkpt lat="43.52911" lon="5.56953">
        <ele>468.2</ele>
        <time>2023-05-28T11:16:01Z</time>
      </trkpt>
      <trkpt lat="43.52911" lon="5.56953">
        <ele>468.3</ele>
        <time>2023-05-28T11:16:02Z</time>
      </trkpt>
      <trkpt lat="43.5291" lon="5.56953">
        <ele>468.2</ele>
        <time>2023-05-28T11:16:03Z</time>
      </trkpt>
      <trkpt lat="43.5291" lon="5.56953">
        <ele>468.1</ele>
        <time>2023-05-28T11:16:04Z</time>
      </trkpt>
      <trkpt lat="43.5291" lon="5.56953">
        <ele>468</ele>
        <time>2023-05-28T11:16:05Z</time>
      </trkpt>
      <trkpt lat="43.5291" lon="5.56954">
        <ele>468</ele>
        <time>2023-05-28T11:16:06Z</time>
      </trkpt>
      <trkpt lat="43.5291" lon="5.56954">
        <ele>468.1</ele>
        <time>2023-05-28T11:16:07Z</time>
      </trkpt>
      <trkpt lat="43.5291" lon="5.56954">
        <ele>468.2</ele>
        <time>2023-05-28T11:16:08Z</time>
      </trkpt>
      <trkpt lat="43.5291" lon="5.56954">
        <ele>468.2</ele>
        <time>2023-05-28T11:16:09Z</time>
      </trkpt>
      <trkpt lat="43.5291" lon="5.56953">
        <ele>468.1</ele>
        <time>2023-05-28T11:16:10Z</time>
      </trkpt>
      <trkpt lat="43.52909" lon="5.56954">
        <ele>468</ele>
        <time>2023-05-28T11:16:11Z</time>
      </trkpt>
      <trkpt lat="43.5291" lon="5.56954">
        <ele>467.9</ele>
        <time>2023-05-28T11:16:12Z</time>
      </trkpt>
      <trkpt lat="43.52909" lon="5.56953">
        <ele>467.8</ele>
        <time>2023-05-28T11:16:13Z</time>
      </trkpt>
      <trkpt lat="43.52909" lon="5.56952">
        <ele>467.6</ele>
        <time>2023-05-28T11:16:14Z</time>
      </trkpt>
      <trkpt lat="43.52909" lon="5.5695">
        <ele>467.5</ele>
        <time>2023-05-28T11:16:15Z</time>
      </trkpt>
      <trkpt lat="43.52908" lon="5.5695">
        <ele>467.3</ele>
        <time>2023-05-28T11:16:16Z</time>
      </trkpt>
      <trkpt lat="43.52907" lon="5.56949">
        <ele>467.1</ele>
        <time>2023-05-28T11:16:17Z</time>
      </trkpt>
      <trkpt lat="43.52906" lon="5.56949">
        <ele>466.9</ele>
        <time>2023-05-28T11:16:18Z</time>
      </trkpt>
      <trkpt lat="43.52905" lon="5.56948">
        <ele>466.9</ele>
        <time>2023-05-28T11:16:19Z</time>
      </trkpt>
      <trkpt lat="43.52904" lon="5.56948">
        <ele>466.7</ele>
        <time>2023-05-28T11:16:20Z</time>
      </trkpt>
      <trkpt lat="43.52904" lon="5.56948">
        <ele>466.6</ele>
        <time>2023-05-28T11:16:21Z</time>
      </trkpt>
      <trkpt lat="43.52904" lon="5.56948">
        <ele>466.6</ele>
        <time>2023-05-28T11:16:22Z</time>
      </trkpt>
      <trkpt lat="43.52903" lon="5.56947">
        <ele>466.6</ele>
        <time>2023-05-28T11:16:23Z</time>
      </trkpt>
      <trkpt lat="43.52903" lon="5.56946">
        <ele>466.5</ele>
        <time>2023-05-28T11:16:24Z</time>
      </trkpt>
      <trkpt lat="43.52902" lon="5.56945">
        <ele>466.4</ele>
        <time>2023-05-28T11:16:25Z</time>
      </trkpt>
      <trkpt lat="43.52901" lon="5.56944">
        <ele>466.3</ele>
        <time>2023-05-28T11:16:26Z</time>
      </trkpt>
      <trkpt lat="43.52901" lon="5.56944">
        <ele>466.2</ele>
        <time>2023-05-28T11:16:27Z</time>
      </trkpt>
      <trkpt lat="43.529" lon="5.56943">
        <ele>466.1</ele>
        <time>2023-05-28T11:16:28Z</time>
      </trkpt>
      <trkpt lat="43.52899" lon="5.56942">
        <ele>466.1</ele>
        <time>2023-05-28T11:16:29Z</time>
      </trkpt>
      <trkpt lat="43.52899" lon="5.56942">
        <ele>466</ele>
        <time>2023-05-28T11:16:30Z</time>
      </trkpt>
      <trkpt lat="43.52898" lon="5.56941">
        <ele>466</ele>
        <time>2023-05-28T11:16:31Z</time>
      </trkpt>
      <trkpt lat="43.52898" lon="5.5694">
        <ele>466</ele>
        <time>2023-05-28T11:16:32Z</time>
      </trkpt>
      <trkpt lat="43.52897" lon="5.56939">
        <ele>466</ele>
        <time>2023-05-28T11:16:33Z</time>
      </trkpt>
      <trkpt lat="43.52896" lon="5.56939">
        <ele>466</ele>
        <time>2023-05-28T11:16:34Z</time>
      </trkpt>
      <trkpt lat="43.52895" lon="5.56939">
        <ele>466</ele>
        <time>2023-05-28T11:16:35Z</time>
      </trkpt>
      <trkpt lat="43.52895" lon="5.56938">
        <ele>465.9</ele>
        <time>2023-05-28T11:16:36Z</time>
      </trkpt>
      <trkpt lat="43.52895" lon="5.56938">
        <ele>465.9</ele>
        <time>2023-05-28T11:16:37Z</time>
      </trkpt>
      <trkpt lat="43.52894" lon="5.56938">
        <ele>465.8</ele>
        <time>2023-05-28T11:16:38Z</time>
      </trkpt>
      <trkpt lat="43.52893" lon="5.56938">
        <ele>465.7</ele>
        <time>2023-05-28T11:16:39Z</time>
      </trkpt>
      <trkpt lat="43.52893" lon="5.56938">
        <ele>465.7</ele>
        <time>2023-05-28T11:16:40Z</time>
      </trkpt>
      <trkpt lat="43.52893" lon="5.56938">
        <ele>465.7</ele>
        <time>2023-05-28T11:16:41Z</time>
      </trkpt>
      <trkpt lat="43.52893" lon="5.56938">
        <ele>465.6</ele>
        <time>2023-05-28T11:16:42Z</time>
      </trkpt>
      <trkpt lat="43.52893" lon="5.56937">
        <ele>465.7</ele>
        <time>2023-05-28T11:16:43Z</time>
      </trkpt>
      <trkpt lat="43.52893" lon="5.56937">
        <ele>465.7</ele>
        <time>2023-05-28T11:16:44Z</time>
      </trkpt>
      <trkpt lat="43.52893" lon="5.56937">
        <ele>465.7</ele>
        <time>2023-05-28T11:16:45Z</time>
      </trkpt>
      <trkpt lat="43.52892" lon="5.56938">
        <ele>465.7</ele>
        <time>2023-05-28T11:16:46Z</time>
      </trkpt>
      <trkpt lat="43.52892" lon="5.56938">
        <ele>465.8</ele>
        <time>2023-05-28T11:16:47Z</time>
      </trkpt>
      <trkpt lat="43.52892" lon="5.56937">
        <ele>465.9</ele>
        <time>2023-05-28T11:16:48Z</time>
      </trkpt>
      <trkpt lat="43.52892" lon="5.56937">
        <ele>465.9</ele>
        <time>2023-05-28T11:16:49Z</time>
      </trkpt>
      <trkpt lat="43.52892" lon="5.56937">
        <ele>465.9</ele>
        <time>2023-05-28T11:16:50Z</time>
      </trkpt>
      <trkpt lat="43.52892" lon="5.56937">
        <ele>465.9</ele>
        <time>2023-05-28T11:16:51Z</time>
      </trkpt>
      <trkpt lat="43.52891" lon="5.56937">
        <ele>466</ele>
        <time>2023-05-28T11:16:52Z</time>
      </trkpt>
      <trkpt lat="43.52891" lon="5.56937">
        <ele>466</ele>
        <time>2023-05-28T11:16:53Z</time>
      </trkpt>
      <trkpt lat="43.52891" lon="5.56937">
        <ele>465.9</ele>
        <time>2023-05-28T11:16:54Z</time>
      </trkpt>
      <trkpt lat="43.52891" lon="5.56937">
        <ele>465.8</ele>
        <time>2023-05-28T11:16:55Z</time>
      </trkpt>
      <trkpt lat="43.52891" lon="5.56937">
        <ele>465.8</ele>
        <time>2023-05-28T11:16:56Z</time>
      </trkpt>
      <trkpt lat="43.52891" lon="5.56937">
        <ele>465.7</ele>
        <time>2023-05-28T11:16:57Z</time>
      </trkpt>
      <trkpt lat="43.52891" lon="5.56937">
        <ele>465.7</ele>
        <time>2023-05-28T11:16:58Z</time>
      </trkpt>
      <trkpt lat="43.5289" lon="5.56937">
        <ele>465.7</ele>
        <time>2023-05-28T11:16:59Z</time>
      </trkpt>
      <trkpt lat="43.5289" lon="5.56937">
        <ele>465.8</ele>
        <time>2023-05-28T11:17:00Z</time>
      </trkpt>
      <trkpt lat="43.5289" lon="5.56937">
        <ele>465.6</ele>
        <time>2023-05-28T11:17:01Z</time>
      </trkpt>
      <trkpt lat="43.5289" lon="5.56937">
        <ele>465.5</ele>
        <time>2023-05-28T11:17:02Z</time>
      </trkpt>
      <trkpt lat="43.5289" lon="5.56937">
        <ele>465.5</ele>
        <time>2023-05-28T11:17:03Z</time>
      </trkpt>
      <trkpt lat="43.5289" lon="5.56936">
        <ele>465.5</ele>
        <time>2023-05-28T11:17:04Z</time>
      </trkpt>
      <trkpt lat="43.5289" lon="5.56936">
        <ele>465.5</ele>
        <time>2023-05-28T11:17:05Z</time>
      </trkpt>
      <trkpt lat="43.5289" lon="5.56936">
        <ele>465.5</ele>
        <time>2023-05-28T11:17:06Z</time>
      </trkpt>
      <trkpt lat="43.5289" lon="5.56937">
        <ele>465.5</ele>
        <time>2023-05-28T11:17:07Z</time>
      </trkpt>
      <trkpt lat="43.5289" lon="5.56937">
        <ele>465.5</ele>
        <time>2023-05-28T11:17:08Z</time>
      </trkpt>
      <trkpt lat="43.5289" lon="5.56937">
        <ele>465.5</ele>
        <time>2023-05-28T11:17:09Z</time>
      </trkpt>
      <trkpt lat="43.52889" lon="5.56937">
        <ele>465.4</ele>
        <time>2023-05-28T11:17:10Z</time>
      </trkpt>
      <trkpt lat="43.52889" lon="5.56937">
        <ele>465.4</ele>
        <time>2023-05-28T11:17:11Z</time>
      </trkpt>
      <trkpt lat="43.52889" lon="5.56937">
        <ele>465.4</ele>
        <time>2023-05-28T11:17:12Z</time>
      </trkpt>
      <trkpt lat="43.52889" lon="5.56937">
        <ele>465.4</ele>
        <time>2023-05-28T11:17:13Z</time>
      </trkpt>
      <trkpt lat="43.52889" lon="5.56937">
        <ele>465.4</ele>
        <time>2023-05-28T11:17:14Z</time>
      </trkpt>
      <trkpt lat="43.52889" lon="5.56937">
        <ele>465.4</ele>
        <time>2023-05-28T11:17:15Z</time>
      </trkpt>
      <trkpt lat="43.52889" lon="5.56937">
        <ele>465.4</ele>
        <time>2023-05-28T11:17:16Z</time>
      </trkpt>
      <trkpt lat="43.52889" lon="5.56937">
        <ele>465.3</ele>
        <time>2023-05-28T11:17:17Z</time>
      </trkpt>
      <trkpt lat="43.52889" lon="5.56937">
        <ele>465.3</ele>
        <time>2023-05-28T11:17:18Z</time>
      </trkpt>
      <trkpt lat="43.52889" lon="5.56937">
        <ele>465.3</ele>
        <time>2023-05-28T11:17:19Z</time>
      </trkpt>
      <trkpt lat="43.52889" lon="5.56937">
        <ele>465.3</ele>
        <time>2023-05-28T11:17:20Z</time>
      </trkpt>
      <trkpt lat="43.52889" lon="5.56937">
        <ele>465.3</ele>
        <time>2023-05-28T11:17:21Z</time>
      </trkpt>
      <trkpt lat="43.52889" lon="5.56937">
        <ele>465.3</ele>
        <time>2023-05-28T11:17:22Z</time>
      </trkpt>
      <trkpt lat="43.52888" lon="5.56937">
        <ele>465.3</ele>
        <time>2023-05-28T11:17:23Z</time>
      </trkpt>
      <trkpt lat="43.52888" lon="5.56937">
        <ele>465.3</ele>
        <time>2023-05-28T11:17:24Z</time>
      </trkpt>
      <trkpt lat="43.52888" lon="5.56937">
        <ele>465.3</ele>
        <time>2023-05-28T11:17:25Z</time>
      </trkpt>
      <trkpt lat="43.52888" lon="5.56937">
        <ele>465.3</ele>
        <time>2023-05-28T11:17:26Z</time>
      </trkpt>
      <trkpt lat="43.52888" lon="5.56937">
        <ele>465.3</ele>
        <time>2023-05-28T11:17:27Z</time>
      </trkpt>
      <trkpt lat="43.52888" lon="5.56937">
        <ele>465.3</ele>
        <time>2023-05-28T11:17:28Z</time>
      </trkpt>
      <trkpt lat="43.52888" lon="5.56937">
        <ele>465.3</ele>
        <time>2023-05-28T11:17:29Z</time>
      </trkpt>
      <trkpt lat="43.52888" lon="5.56937">
        <ele>465.3</ele>
        <time>2023-05-28T11:17:30Z</time>
      </trkpt>
      <trkpt lat="43.52888" lon="5.56937">
        <ele>465.3</ele>
        <time>2023-05-28T11:17:31Z</time>
      </trkpt>
      <trkpt lat="43.52888" lon="5.56937">
        <ele>465.2</ele>
        <time>2023-05-28T11:17:32Z</time>
      </trkpt>
      <trkpt lat="43.52888" lon="5.56937">
        <ele>465.1</ele>
        <time>2023-05-28T11:17:33Z</time>
      </trkpt>
      <trkpt lat="43.52888" lon="5.56937">
        <ele>465</ele>
        <time>2023-05-28T11:17:34Z</time>
      </trkpt>
      <trkpt lat="43.52888" lon="5.56937">
        <ele>465</ele>
        <time>2023-05-28T11:17:35Z</time>
      </trkpt>
      <trkpt lat="43.52888" lon="5.56937">
        <ele>465</ele>
        <time>2023-05-28T11:17:36Z</time>
      </trkpt>
      <trkpt lat="43.52887" lon="5.56937">
        <ele>465.1</ele>
        <time>2023-05-28T11:17:37Z</time>
      </trkpt>
      <trkpt lat="43.52887" lon="5.56937">
        <ele>465.2</ele>
        <time>2023-05-28T11:17:38Z</time>
      </trkpt>
      <trkpt lat="43.52887" lon="5.56937">
        <ele>465.2</ele>
        <time>2023-05-28T11:17:39Z</time>
      </trkpt>
      <trkpt lat="43.52887" lon="5.56937">
        <ele>465.3</ele>
        <time>2023-05-28T11:17:40Z</time>
      </trkpt>
      <trkpt lat="43.52887" lon="5.56937">
        <ele>465.3</ele>
        <time>2023-05-28T11:17:41Z</time>
      </trkpt>
      <trkpt lat="43.52887" lon="5.56937">
        <ele>465.2</ele>
        <time>2023-05-28T11:17:42Z</time>
      </trkpt>
      <trkpt lat="43.52888" lon="5.56937">
        <ele>465.2</ele>
        <time>2023-05-28T11:17:43Z</time>
      </trkpt>
      <trkpt lat="43.52888" lon="5.56937">
        <ele>465.2</ele>
        <time>2023-05-28T11:17:44Z</time>
      </trkpt>
      <trkpt lat="43.52888" lon="5.56937">
        <ele>465.2</ele>
        <time>2023-05-28T11:17:45Z</time>
      </trkpt>
      <trkpt lat="43.52888" lon="5.56937">
        <ele>465.2</ele>
        <time>2023-05-28T11:17:46Z</time>
      </trkpt>
      <trkpt lat="43.52888" lon="5.56937">
        <ele>465.2</ele>
        <time>2023-05-28T11:17:47Z</time>
      </trkpt>
      <trkpt lat="43.52888" lon="5.56938">
        <ele>465.1</ele>
        <time>2023-05-28T11:17:48Z</time>
      </trkpt>
      <trkpt lat="43.52888" lon="5.56938">
        <ele>465.1</ele>
        <time>2023-05-28T11:17:49Z</time>
      </trkpt>
      <trkpt lat="43.52888" lon="5.56938">
        <ele>465.1</ele>
        <time>2023-05-28T11:17:50Z</time>
      </trkpt>
      <trkpt lat="43.52888" lon="5.56938">
        <ele>465.2</ele>
        <time>2023-05-28T11:17:51Z</time>
      </trkpt>
      <trkpt lat="43.52888" lon="5.56938">
        <ele>465.3</ele>
        <time>2023-05-28T11:17:52Z</time>
      </trkpt>
      <trkpt lat="43.52888" lon="5.56938">
        <ele>465.3</ele>
        <time>2023-05-28T11:17:53Z</time>
      </trkpt>
      <trkpt lat="43.52888" lon="5.56938">
        <ele>465.3</ele>
        <time>2023-05-28T11:17:54Z</time>
      </trkpt>
      <trkpt lat="43.52888" lon="5.56938">
        <ele>465.3</ele>
        <time>2023-05-28T11:17:55Z</time>
      </trkpt>
      <trkpt lat="43.52888" lon="5.56938">
        <ele>465.3</ele>
        <time>2023-05-28T11:17:56Z</time>
      </trkpt>
      <trkpt lat="43.52888" lon="5.56938">
        <ele>465.2</ele>
        <time>2023-05-28T11:17:57Z</time>
      </trkpt>
      <trkpt lat="43.52888" lon="5.56938">
        <ele>465.2</ele>
        <time>2023-05-28T11:17:58Z</time>
      </trkpt>
      <trkpt lat="43.52888" lon="5.56938">
        <ele>465.2</ele>
        <time>2023-05-28T11:17:59Z</time>
      </trkpt>
      <trkpt lat="43.52888" lon="5.56938">
        <ele>465.2</ele>
        <time>2023-05-28T11:18:00Z</time>
      </trkpt>
      <trkpt lat="43.52888" lon="5.56939">
        <ele>465.2</ele>
        <time>2023-05-28T11:18:01Z</time>
      </trkpt>
      <trkpt lat="43.52888" lon="5.56938">
        <ele>465.3</ele>
        <time>2023-05-28T11:18:02Z</time>
      </trkpt>
      <trkpt lat="43.52888" lon="5.56939">
        <ele>465.3</ele>
        <time>2023-05-28T11:18:03Z</time>
      </trkpt>
      <trkpt lat="43.52888" lon="5.56939">
        <ele>465.4</ele>
        <time>2023-05-28T11:18:04Z</time>
      </trkpt>
      <trkpt lat="43.52888" lon="5.56938">
        <ele>465.4</ele>
        <time>2023-05-28T11:18:05Z</time>
      </trkpt>
      <trkpt lat="43.52888" lon="5.56938">
        <ele>465.4</ele>
        <time>2023-05-28T11:18:06Z</time>
      </trkpt>
      <trkpt lat="43.52888" lon="5.56938">
        <ele>465.5</ele>
        <time>2023-05-28T11:18:07Z</time>
      </trkpt>
      <trkpt lat="43.52888" lon="5.56938">
        <ele>465.5</ele>
        <time>2023-05-28T11:18:08Z</time>
      </trkpt>
      <trkpt lat="43.52888" lon="5.56938">
        <ele>465.7</ele>
        <time>2023-05-28T11:18:09Z</time>
      </trkpt>
      <trkpt lat="43.52888" lon="5.56938">
        <ele>465.6</ele>
        <time>2023-05-28T11:18:10Z</time>
      </trkpt>
      <trkpt lat="43.52888" lon="5.56939">
        <ele>465.6</ele>
        <time>2023-05-28T11:18:11Z</time>
      </trkpt>
      <trkpt lat="43.52888" lon="5.56938">
        <ele>465.6</ele>
        <time>2023-05-28T11:18:12Z</time>
      </trkpt>
      <trkpt lat="43.52888" lon="5.56938">
        <ele>465.6</ele>
        <time>2023-05-28T11:18:13Z</time>
      </trkpt>
      <trkpt lat="43.52888" lon="5.56938">
        <ele>465.5</ele>
        <time>2023-05-28T11:18:14Z</time>
      </trkpt>
      <trkpt lat="43.52888" lon="5.56938">
        <ele>465.5</ele>
        <time>2023-05-28T11:18:15Z</time>
      </trkpt>
      <trkpt lat="43.52888" lon="5.56938">
        <ele>465.5</ele>
        <time>2023-05-28T11:18:16Z</time>
      </trkpt>
      <trkpt lat="43.52888" lon="5.56938">
        <ele>465.6</ele>
        <time>2023-05-28T11:18:17Z</time>
      </trkpt>
      <trkpt lat="43.52888" lon="5.56938">
        <ele>465.6</ele>
        <time>2023-05-28T11:18:18Z</time>
      </trkpt>
      <trkpt lat="43.52888" lon="5.56938">
        <ele>465.7</ele>
        <time>2023-05-28T11:18:19Z</time>
      </trkpt>
      <trkpt lat="43.52888" lon="5.56938">
        <ele>465.8</ele>
        <time>2023-05-28T11:18:20Z</time>
      </trkpt>
      <trkpt lat="43.52888" lon="5.56938">
        <ele>465.8</ele>
        <time>2023-05-28T11:18:21Z</time>
      </trkpt>
      <trkpt lat="43.52888" lon="5.56938">
        <ele>465.7</ele>
        <time>2023-05-28T11:18:22Z</time>
      </trkpt>
      <trkpt lat="43.52888" lon="5.56938">
        <ele>465.8</ele>
        <time>2023-05-28T11:18:23Z</time>
      </trkpt>
      <trkpt lat="43.52888" lon="5.56938">
        <ele>465.8</ele>
        <time>2023-05-28T11:18:24Z</time>
      </trkpt>
      <trkpt lat="43.52888" lon="5.56938">
        <ele>465.7</ele>
        <time>2023-05-28T11:18:25Z</time>
      </trkpt>
      <trkpt lat="43.52888" lon="5.56938">
        <ele>465.7</ele>
        <time>2023-05-28T11:18:26Z</time>
      </trkpt>
      <trkpt lat="43.52888" lon="5.56938">
        <ele>465.6</ele>
        <time>2023-05-28T11:18:27Z</time>
      </trkpt>
      <trkpt lat="43.52888" lon="5.56938">
        <ele>465.6</ele>
        <time>2023-05-28T11:18:28Z</time>
      </trkpt>
      <trkpt lat="43.52888" lon="5.56938">
        <ele>465.5</ele>
        <time>2023-05-28T11:18:29Z</time>
      </trkpt>
      <trkpt lat="43.52888" lon="5.56938">
        <ele>465.6</ele>
        <time>2023-05-28T11:18:30Z</time>
      </trkpt>
      <trkpt lat="43.52888" lon="5.56938">
        <ele>465.6</ele>
        <time>2023-05-28T11:18:31Z</time>
      </trkpt>
      <trkpt lat="43.52888" lon="5.56939">
        <ele>465.6</ele>
        <time>2023-05-28T11:18:32Z</time>
      </trkpt>
      <trkpt lat="43.52888" lon="5.56939">
        <ele>465.6</ele>
        <time>2023-05-28T11:18:33Z</time>
      </trkpt>
      <trkpt lat="43.52889" lon="5.56939">
        <ele>465.6</ele>
        <time>2023-05-28T11:18:34Z</time>
      </trkpt>
      <trkpt lat="43.52889" lon="5.56939">
        <ele>465.6</ele>
        <time>2023-05-28T11:18:35Z</time>
      </trkpt>
      <trkpt lat="43.52889" lon="5.56939">
        <ele>465.5</ele>
        <time>2023-05-28T11:18:36Z</time>
      </trkpt>
      <trkpt lat="43.52889" lon="5.56939">
        <ele>465.5</ele>
        <time>2023-05-28T11:18:37Z</time>
      </trkpt>
      <trkpt lat="43.52889" lon="5.56939">
        <ele>465.5</ele>
        <time>2023-05-28T11:18:38Z</time>
      </trkpt>
      <trkpt lat="43.52889" lon="5.56939">
        <ele>465.5</ele>
        <time>2023-05-28T11:18:39Z</time>
      </trkpt>
      <trkpt lat="43.52889" lon="5.56939">
        <ele>465.5</ele>
        <time>2023-05-28T11:18:40Z</time>
      </trkpt>
      <trkpt lat="43.52889" lon="5.56939">
        <ele>465.4</ele>
        <time>2023-05-28T11:18:41Z</time>
      </trkpt>
      <trkpt lat="43.52889" lon="5.56939">
        <ele>465.4</ele>
        <time>2023-05-28T11:18:42Z</time>
      </trkpt>
      <trkpt lat="43.52889" lon="5.56939">
        <ele>465.4</ele>
        <time>2023-05-28T11:18:43Z</time>
      </trkpt>
      <trkpt lat="43.52889" lon="5.5694">
        <ele>465.4</ele>
        <time>2023-05-28T11:18:44Z</time>
      </trkpt>
      <trkpt lat="43.52889" lon="5.5694">
        <ele>465.4</ele>
        <time>2023-05-28T11:18:45Z</time>
      </trkpt>
      <trkpt lat="43.52889" lon="5.56939">
        <ele>465.4</ele>
        <time>2023-05-28T11:18:46Z</time>
      </trkpt>
      <trkpt lat="43.52889" lon="5.56939">
        <ele>465.3</ele>
        <time>2023-05-28T11:18:47Z</time>
      </trkpt>
      <trkpt lat="43.52889" lon="5.56939">
        <ele>465.3</ele>
        <time>2023-05-28T11:18:48Z</time>
      </trkpt>
      <trkpt lat="43.52889" lon="5.56939">
        <ele>465.3</ele>
        <time>2023-05-28T11:18:49Z</time>
      </trkpt>
      <trkpt lat="43.52889" lon="5.56939">
        <ele>465.2</ele>
        <time>2023-05-28T11:18:50Z</time>
      </trkpt>
      <trkpt lat="43.52889" lon="5.5694">
        <ele>465.2</ele>
        <time>2023-05-28T11:18:51Z</time>
      </trkpt>
      <trkpt lat="43.52889" lon="5.5694">
        <ele>465.2</ele>
        <time>2023-05-28T11:18:52Z</time>
      </trkpt>
      <trkpt lat="43.52889" lon="5.5694">
        <ele>465.3</ele>
        <time>2023-05-28T11:18:53Z</time>
      </trkpt>
      <trkpt lat="43.52889" lon="5.5694">
        <ele>465.3</ele>
        <time>2023-05-28T11:18:54Z</time>
      </trkpt>
      <trkpt lat="43.52889" lon="5.5694">
        <ele>465.3</ele>
        <time>2023-05-28T11:18:55Z</time>
      </trkpt>
      <trkpt lat="43.52889" lon="5.5694">
        <ele>465.3</ele>
        <time>2023-05-28T11:18:56Z</time>
      </trkpt>
      <trkpt lat="43.52889" lon="5.5694">
        <ele>465.3</ele>
        <time>2023-05-28T11:18:57Z</time>
      </trkpt>
      <trkpt lat="43.52889" lon="5.5694">
        <ele>465.3</ele>
        <time>2023-05-28T11:18:58Z</time>
      </trkpt>
      <trkpt lat="43.52889" lon="5.5694">
        <ele>465.3</ele>
        <time>2023-05-28T11:18:59Z</time>
      </trkpt>
      <trkpt lat="43.52889" lon="5.56941">
        <ele>465.4</ele>
        <time>2023-05-28T11:19:00Z</time>
      </trkpt>
      <trkpt lat="43.52889" lon="5.56941">
        <ele>465.3</ele>
        <time>2023-05-28T11:19:01Z</time>
      </trkpt>
      <trkpt lat="43.52889" lon="5.56941">
        <ele>465.3</ele>
        <time>2023-05-28T11:19:02Z</time>
      </trkpt>
      <trkpt lat="43.52889" lon="5.56941">
        <ele>465.4</ele>
        <time>2023-05-28T11:19:03Z</time>
      </trkpt>
      <trkpt lat="43.52889" lon="5.56941">
        <ele>465.4</ele>
        <time>2023-05-28T11:19:04Z</time>
      </trkpt>
      <trkpt lat="43.5289" lon="5.56941">
        <ele>465.3</ele>
        <time>2023-05-28T11:19:05Z</time>
      </trkpt>
      <trkpt lat="43.5289" lon="5.56941">
        <ele>465.3</ele>
        <time>2023-05-28T11:19:06Z</time>
      </trkpt>
      <trkpt lat="43.5289" lon="5.56941">
        <ele>465.3</ele>
        <time>2023-05-28T11:19:07Z</time>
      </trkpt>
      <trkpt lat="43.5289" lon="5.56941">
        <ele>464.8</ele>
        <time>2023-05-28T11:19:08Z</time>
      </trkpt>
      <trkpt lat="43.5289" lon="5.5694">
        <ele>464.9</ele>
        <time>2023-05-28T11:19:09Z</time>
      </trkpt>
      <trkpt lat="43.5289" lon="5.5694">
        <ele>464.9</ele>
        <time>2023-05-28T11:19:10Z</time>
      </trkpt>
      <trkpt lat="43.5289" lon="5.56939">
        <ele>465</ele>
        <time>2023-05-28T11:19:11Z</time>
      </trkpt>
      <trkpt lat="43.5289" lon="5.56939">
        <ele>465</ele>
        <time>2023-05-28T11:19:12Z</time>
      </trkpt>
      <trkpt lat="43.5289" lon="5.56939">
        <ele>465</ele>
        <time>2023-05-28T11:19:13Z</time>
      </trkpt>
      <trkpt lat="43.5289" lon="5.56939">
        <ele>465</ele>
        <time>2023-05-28T11:19:14Z</time>
      </trkpt>
      <trkpt lat="43.5289" lon="5.56939">
        <ele>465</ele>
        <time>2023-05-28T11:19:15Z</time>
      </trkpt>
      <trkpt lat="43.5289" lon="5.56939">
        <ele>464.9</ele>
        <time>2023-05-28T11:19:16Z</time>
      </trkpt>
      <trkpt lat="43.5289" lon="5.56939">
        <ele>464.9</ele>
        <time>2023-05-28T11:19:17Z</time>
      </trkpt>
      <trkpt lat="43.5289" lon="5.56939">
        <ele>464.9</ele>
        <time>2023-05-28T11:19:18Z</time>
      </trkpt>
      <trkpt lat="43.5289" lon="5.56938">
        <ele>464.9</ele>
        <time>2023-05-28T11:19:19Z</time>
      </trkpt>
      <trkpt lat="43.5289" lon="5.56938">
        <ele>464.9</ele>
        <time>2023-05-28T11:19:20Z</time>
      </trkpt>
      <trkpt lat="43.5289" lon="5.56938">
        <ele>464.9</ele>
        <time>2023-05-28T11:19:21Z</time>
      </trkpt>
      <trkpt lat="43.5289" lon="5.56938">
        <ele>464.9</ele>
        <time>2023-05-28T11:19:22Z</time>
      </trkpt>
      <trkpt lat="43.5289" lon="5.56938">
        <ele>464.9</ele>
        <time>2023-05-28T11:19:23Z</time>
      </trkpt>
      <trkpt lat="43.5289" lon="5.56938">
        <ele>464.9</ele>
        <time>2023-05-28T11:19:24Z</time>
      </trkpt>
      <trkpt lat="43.5289" lon="5.56938">
        <ele>465</ele>
        <time>2023-05-28T11:19:25Z</time>
      </trkpt>
      <trkpt lat="43.5289" lon="5.56938">
        <ele>465</ele>
        <time>2023-05-28T11:19:26Z</time>
      </trkpt>
      <trkpt lat="43.52889" lon="5.56938">
        <ele>465</ele>
        <time>2023-05-28T11:19:27Z</time>
      </trkpt>
      <trkpt lat="43.52889" lon="5.56938">
        <ele>465.1</ele>
        <time>2023-05-28T11:19:28Z</time>
      </trkpt>
      <trkpt lat="43.52889" lon="5.56938">
        <ele>465.1</ele>
        <time>2023-05-28T11:19:29Z</time>
      </trkpt>
      <trkpt lat="43.52889" lon="5.56938">
        <ele>465.1</ele>
        <time>2023-05-28T11:19:30Z</time>
      </trkpt>
      <trkpt lat="43.52889" lon="5.56938">
        <ele>465.1</ele>
        <time>2023-05-28T11:19:31Z</time>
      </trkpt>
      <trkpt lat="43.52889" lon="5.56938">
        <ele>465</ele>
        <time>2023-05-28T11:19:32Z</time>
      </trkpt>
      <trkpt lat="43.52889" lon="5.56938">
        <ele>464.9</ele>
        <time>2023-05-28T11:19:33Z</time>
      </trkpt>
      <trkpt lat="43.52889" lon="5.56938">
        <ele>464.9</ele>
        <time>2023-05-28T11:19:34Z</time>
      </trkpt>
      <trkpt lat="43.52888" lon="5.56938">
        <ele>464.9</ele>
        <time>2023-05-28T11:19:35Z</time>
      </trkpt>
      <trkpt lat="43.52888" lon="5.56938">
        <ele>464.9</ele>
        <time>2023-05-28T11:19:36Z</time>
      </trkpt>
      <trkpt lat="43.52888" lon="5.56938">
        <ele>464.9</ele>
        <time>2023-05-28T11:19:37Z</time>
      </trkpt>
      <trkpt lat="43.52888" lon="5.56938">
        <ele>464.9</ele>
        <time>2023-05-28T11:19:38Z</time>
      </trkpt>
      <trkpt lat="43.52888" lon="5.56937">
        <ele>464.9</ele>
        <time>2023-05-28T11:19:39Z</time>
      </trkpt>
      <trkpt lat="43.52888" lon="5.56937">
        <ele>465</ele>
        <time>2023-05-28T11:19:40Z</time>
      </trkpt>
      <trkpt lat="43.52888" lon="5.56937">
        <ele>465</ele>
        <time>2023-05-28T11:19:41Z</time>
      </trkpt>
      <trkpt lat="43.52888" lon="5.56937">
        <ele>465</ele>
        <time>2023-05-28T11:19:42Z</time>
      </trkpt>
      <trkpt lat="43.52888" lon="5.56937">
        <ele>465</ele>
        <time>2023-05-28T11:19:43Z</time>
      </trkpt>
      <trkpt lat="43.52888" lon="5.56937">
        <ele>465</ele>
        <time>2023-05-28T11:19:44Z</time>
      </trkpt>
      <trkpt lat="43.52888" lon="5.56937">
        <ele>465</ele>
        <time>2023-05-28T11:19:45Z</time>
      </trkpt>
      <trkpt lat="43.52888" lon="5.56937">
        <ele>464.9</ele>
        <time>2023-05-28T11:19:46Z</time>
      </trkpt>
      <trkpt lat="43.52888" lon="5.56937">
        <ele>464.9</ele>
        <time>2023-05-28T11:19:47Z</time>
      </trkpt>
      <trkpt lat="43.52888" lon="5.56937">
        <ele>464.9</ele>
        <time>2023-05-28T11:19:48Z</time>
      </trkpt>
      <trkpt lat="43.52888" lon="5.56937">
        <ele>464.8</ele>
        <time>2023-05-28T11:19:49Z</time>
      </trkpt>
      <trkpt lat="43.52888" lon="5.56937">
        <ele>464.8</ele>
        <time>2023-05-28T11:19:50Z</time>
      </trkpt>
      <trkpt lat="43.52888" lon="5.56937">
        <ele>464.8</ele>
        <time>2023-05-28T11:19:51Z</time>
      </trkpt>
      <trkpt lat="43.52888" lon="5.56937">
        <ele>464.8</ele>
        <time>2023-05-28T11:19:52Z</time>
      </trkpt>
      <trkpt lat="43.52889" lon="5.56937">
        <ele>464.8</ele>
        <time>2023-05-28T11:19:53Z</time>
      </trkpt>
      <trkpt lat="43.52889" lon="5.56937">
        <ele>464.8</ele>
        <time>2023-05-28T11:19:54Z</time>
      </trkpt>
      <trkpt lat="43.52889" lon="5.56937">
        <ele>464.8</ele>
        <time>2023-05-28T11:19:55Z</time>
      </trkpt>
      <trkpt lat="43.52889" lon="5.56937">
        <ele>464.7</ele>
        <time>2023-05-28T11:19:56Z</time>
      </trkpt>
      <trkpt lat="43.52889" lon="5.56937">
        <ele>464.7</ele>
        <time>2023-05-28T11:19:57Z</time>
      </trkpt>
      <trkpt lat="43.52889" lon="5.56937">
        <ele>464.7</ele>
        <time>2023-05-28T11:19:58Z</time>
      </trkpt>
      <trkpt lat="43.52889" lon="5.56937">
        <ele>464.7</ele>
        <time>2023-05-28T11:19:59Z</time>
      </trkpt>
      <trkpt lat="43.5289" lon="5.56937">
        <ele>464.7</ele>
        <time>2023-05-28T11:20:00Z</time>
      </trkpt>
      <trkpt lat="43.5289" lon="5.56937">
        <ele>464.8</ele>
        <time>2023-05-28T11:20:01Z</time>
      </trkpt>
      <trkpt lat="43.5289" lon="5.56937">
        <ele>464.7</ele>
        <time>2023-05-28T11:20:02Z</time>
      </trkpt>
      <trkpt lat="43.52891" lon="5.56937">
        <ele>464.7</ele>
        <time>2023-05-28T11:20:03Z</time>
      </trkpt>
      <trkpt lat="43.52891" lon="5.56937">
        <ele>464.7</ele>
        <time>2023-05-28T11:20:04Z</time>
      </trkpt>
      <trkpt lat="43.52891" lon="5.56937">
        <ele>464.7</ele>
        <time>2023-05-28T11:20:05Z</time>
      </trkpt>
      <trkpt lat="43.52891" lon="5.56937">
        <ele>464.7</ele>
        <time>2023-05-28T11:20:06Z</time>
      </trkpt>
      <trkpt lat="43.52892" lon="5.56937">
        <ele>464.7</ele>
        <time>2023-05-28T11:20:07Z</time>
      </trkpt>
      <trkpt lat="43.52892" lon="5.56937">
        <ele>464.7</ele>
        <time>2023-05-28T11:20:08Z</time>
      </trkpt>
      <trkpt lat="43.52892" lon="5.56937">
        <ele>464.7</ele>
        <time>2023-05-28T11:20:09Z</time>
      </trkpt>
      <trkpt lat="43.52892" lon="5.56937">
        <ele>464.7</ele>
        <time>2023-05-28T11:20:10Z</time>
      </trkpt>
      <trkpt lat="43.52892" lon="5.56937">
        <ele>464.8</ele>
        <time>2023-05-28T11:20:11Z</time>
      </trkpt>
      <trkpt lat="43.52892" lon="5.56937">
        <ele>464.8</ele>
        <time>2023-05-28T11:20:12Z</time>
      </trkpt>
      <trkpt lat="43.52893" lon="5.56937">
        <ele>464.8</ele>
        <time>2023-05-28T11:20:13Z</time>
      </trkpt>
      <trkpt lat="43.52893" lon="5.56937">
        <ele>464.9</ele>
        <time>2023-05-28T11:20:14Z</time>
      </trkpt>
      <trkpt lat="43.52893" lon="5.56937">
        <ele>464.9</ele>
        <time>2023-05-28T11:20:15Z</time>
      </trkpt>
      <trkpt lat="43.52893" lon="5.56937">
        <ele>464.9</ele>
        <time>2023-05-28T11:20:16Z</time>
      </trkpt>
      <trkpt lat="43.52893" lon="5.56937">
        <ele>465</ele>
        <time>2023-05-28T11:20:17Z</time>
      </trkpt>
      <trkpt lat="43.52893" lon="5.56937">
        <ele>465</ele>
        <time>2023-05-28T11:20:18Z</time>
      </trkpt>
      <trkpt lat="43.52893" lon="5.56937">
        <ele>465</ele>
        <time>2023-05-28T11:20:19Z</time>
      </trkpt>
      <trkpt lat="43.52893" lon="5.56937">
        <ele>465</ele>
        <time>2023-05-28T11:20:20Z</time>
      </trkpt>
      <trkpt lat="43.52893" lon="5.56937">
        <ele>465</ele>
        <time>2023-05-28T11:20:21Z</time>
      </trkpt>
      <trkpt lat="43.52893" lon="5.56937">
        <ele>465</ele>
        <time>2023-05-28T11:20:22Z</time>
      </trkpt>
      <trkpt lat="43.52893" lon="5.56937">
        <ele>464.9</ele>
        <time>2023-05-28T11:20:23Z</time>
      </trkpt>
      <trkpt lat="43.52893" lon="5.56937">
        <ele>464.8</ele>
        <time>2023-05-28T11:20:24Z</time>
      </trkpt>
      <trkpt lat="43.52894" lon="5.56937">
        <ele>464.7</ele>
        <time>2023-05-28T11:20:25Z</time>
      </trkpt>
      <trkpt lat="43.52894" lon="5.56937">
        <ele>464.6</ele>
        <time>2023-05-28T11:20:26Z</time>
      </trkpt>
      <trkpt lat="43.52894" lon="5.56937">
        <ele>464.5</ele>
        <time>2023-05-28T11:20:27Z</time>
      </trkpt>
      <trkpt lat="43.52894" lon="5.56937">
        <ele>464.5</ele>
        <time>2023-05-28T11:20:28Z</time>
      </trkpt>
      <trkpt lat="43.52894" lon="5.56937">
        <ele>464.5</ele>
        <time>2023-05-28T11:20:29Z</time>
      </trkpt>
      <trkpt lat="43.52894" lon="5.56937">
        <ele>464.5</ele>
        <time>2023-05-28T11:20:30Z</time>
      </trkpt>
      <trkpt lat="43.52894" lon="5.56937">
        <ele>464.5</ele>
        <time>2023-05-28T11:20:31Z</time>
      </trkpt>
      <trkpt lat="43.52894" lon="5.56937">
        <ele>464.5</ele>
        <time>2023-05-28T11:20:32Z</time>
      </trkpt>
      <trkpt lat="43.52894" lon="5.56937">
        <ele>464.5</ele>
        <time>2023-05-28T11:20:33Z</time>
      </trkpt>
      <trkpt lat="43.52894" lon="5.56937">
        <ele>464.5</ele>
        <time>2023-05-28T11:20:34Z</time>
      </trkpt>
      <trkpt lat="43.52894" lon="5.56937">
        <ele>464.6</ele>
        <time>2023-05-28T11:20:35Z</time>
      </trkpt>
      <trkpt lat="43.52893" lon="5.56937">
        <ele>464.6</ele>
        <time>2023-05-28T11:20:36Z</time>
      </trkpt>
      <trkpt lat="43.52893" lon="5.56937">
        <ele>464.6</ele>
        <time>2023-05-28T11:20:37Z</time>
      </trkpt>
      <trkpt lat="43.52893" lon="5.56937">
        <ele>464.6</ele>
        <time>2023-05-28T11:20:38Z</time>
      </trkpt>
      <trkpt lat="43.52893" lon="5.56936">
        <ele>464.7</ele>
        <time>2023-05-28T11:20:39Z</time>
      </trkpt>
      <trkpt lat="43.52893" lon="5.56936">
        <ele>464.6</ele>
        <time>2023-05-28T11:20:40Z</time>
      </trkpt>
      <trkpt lat="43.52892" lon="5.56936">
        <ele>464.6</ele>
        <time>2023-05-28T11:20:41Z</time>
      </trkpt>
      <trkpt lat="43.52892" lon="5.56936">
        <ele>464.6</ele>
        <time>2023-05-28T11:20:42Z</time>
      </trkpt>
      <trkpt lat="43.52892" lon="5.56936">
        <ele>464.6</ele>
        <time>2023-05-28T11:20:43Z</time>
      </trkpt>
      <trkpt lat="43.52892" lon="5.56936">
        <ele>464.6</ele>
        <time>2023-05-28T11:20:44Z</time>
      </trkpt>
      <trkpt lat="43.52892" lon="5.56936">
        <ele>464.6</ele>
        <time>2023-05-28T11:20:45Z</time>
      </trkpt>
      <trkpt lat="43.52892" lon="5.56936">
        <ele>464.7</ele>
        <time>2023-05-28T11:20:46Z</time>
      </trkpt>
      <trkpt lat="43.52892" lon="5.56936">
        <ele>464.7</ele>
        <time>2023-05-28T11:20:47Z</time>
      </trkpt>
      <trkpt lat="43.52892" lon="5.56936">
        <ele>464.7</ele>
        <time>2023-05-28T11:20:48Z</time>
      </trkpt>
      <trkpt lat="43.52892" lon="5.56936">
        <ele>464.7</ele>
        <time>2023-05-28T11:20:49Z</time>
      </trkpt>
      <trkpt lat="43.52892" lon="5.56936">
        <ele>464.8</ele>
        <time>2023-05-28T11:20:50Z</time>
      </trkpt>
      <trkpt lat="43.52892" lon="5.56936">
        <ele>464.8</ele>
        <time>2023-05-28T11:20:51Z</time>
      </trkpt>
      <trkpt lat="43.52892" lon="5.56936">
        <ele>464.8</ele>
        <time>2023-05-28T11:20:52Z</time>
      </trkpt>
      <trkpt lat="43.52891" lon="5.56936">
        <ele>464.8</ele>
        <time>2023-05-28T11:20:53Z</time>
      </trkpt>
      <trkpt lat="43.52891" lon="5.56936">
        <ele>464.8</ele>
        <time>2023-05-28T11:20:54Z</time>
      </trkpt>
      <trkpt lat="43.52891" lon="5.56936">
        <ele>464.8</ele>
        <time>2023-05-28T11:20:55Z</time>
      </trkpt>
      <trkpt lat="43.52891" lon="5.56936">
        <ele>464.8</ele>
        <time>2023-05-28T11:20:56Z</time>
      </trkpt>
      <trkpt lat="43.52891" lon="5.56936">
        <ele>464.7</ele>
        <time>2023-05-28T11:20:57Z</time>
      </trkpt>
      <trkpt lat="43.52891" lon="5.56936">
        <ele>464.7</ele>
        <time>2023-05-28T11:20:58Z</time>
      </trkpt>
      <trkpt lat="43.52891" lon="5.56936">
        <ele>464.7</ele>
        <time>2023-05-28T11:20:59Z</time>
      </trkpt>
      <trkpt lat="43.52891" lon="5.56936">
        <ele>464.7</ele>
        <time>2023-05-28T11:21:00Z</time>
      </trkpt>
      <trkpt lat="43.52891" lon="5.56936">
        <ele>464.8</ele>
        <time>2023-05-28T11:21:01Z</time>
      </trkpt>
      <trkpt lat="43.52891" lon="5.56936">
        <ele>464.8</ele>
        <time>2023-05-28T11:21:02Z</time>
      </trkpt>
      <trkpt lat="43.52891" lon="5.56936">
        <ele>464.8</ele>
        <time>2023-05-28T11:21:03Z</time>
      </trkpt>
      <trkpt lat="43.52891" lon="5.56936">
        <ele>464.9</ele>
        <time>2023-05-28T11:21:04Z</time>
      </trkpt>
      <trkpt lat="43.52891" lon="5.56936">
        <ele>464.9</ele>
        <time>2023-05-28T11:21:05Z</time>
      </trkpt>
      <trkpt lat="43.52891" lon="5.56936">
        <ele>464.9</ele>
        <time>2023-05-28T11:21:06Z</time>
      </trkpt>
      <trkpt lat="43.52891" lon="5.56936">
        <ele>464.9</ele>
        <time>2023-05-28T11:21:07Z</time>
      </trkpt>
      <trkpt lat="43.52891" lon="5.56936">
        <ele>464.8</ele>
        <time>2023-05-28T11:21:08Z</time>
      </trkpt>
      <trkpt lat="43.52891" lon="5.56936">
        <ele>464.8</ele>
        <time>2023-05-28T11:21:09Z</time>
      </trkpt>
      <trkpt lat="43.52891" lon="5.56936">
        <ele>464.8</ele>
        <time>2023-05-28T11:21:10Z</time>
      </trkpt>
      <trkpt lat="43.52891" lon="5.56936">
        <ele>464.8</ele>
        <time>2023-05-28T11:21:11Z</time>
      </trkpt>
      <trkpt lat="43.52891" lon="5.56936">
        <ele>464.8</ele>
        <time>2023-05-28T11:21:12Z</time>
      </trkpt>
      <trkpt lat="43.5289" lon="5.56935">
        <ele>464.8</ele>
        <time>2023-05-28T11:21:13Z</time>
      </trkpt>
      <trkpt lat="43.5289" lon="5.56935">
        <ele>464.8</ele>
        <time>2023-05-28T11:21:14Z</time>
      </trkpt>
      <trkpt lat="43.5289" lon="5.56935">
        <ele>464.7</ele>
        <time>2023-05-28T11:21:15Z</time>
      </trkpt>
      <trkpt lat="43.5289" lon="5.56935">
        <ele>464.7</ele>
        <time>2023-05-28T11:21:16Z</time>
      </trkpt>
      <trkpt lat="43.5289" lon="5.56935">
        <ele>464.7</ele>
        <time>2023-05-28T11:21:17Z</time>
      </trkpt>
      <trkpt lat="43.5289" lon="5.56935">
        <ele>464.7</ele>
        <time>2023-05-28T11:21:18Z</time>
      </trkpt>
      <trkpt lat="43.5289" lon="5.56935">
        <ele>464.8</ele>
        <time>2023-05-28T11:21:19Z</time>
      </trkpt>
      <trkpt lat="43.5289" lon="5.56935">
        <ele>464.8</ele>
        <time>2023-05-28T11:21:20Z</time>
      </trkpt>
      <trkpt lat="43.5289" lon="5.56935">
        <ele>464.8</ele>
        <time>2023-05-28T11:21:21Z</time>
      </trkpt>
      <trkpt lat="43.5289" lon="5.56935">
        <ele>464.8</ele>
        <time>2023-05-28T11:21:22Z</time>
      </trkpt>
      <trkpt lat="43.5289" lon="5.56935">
        <ele>464.8</ele>
        <time>2023-05-28T11:21:23Z</time>
      </trkpt>
      <trkpt lat="43.5289" lon="5.56935">
        <ele>464.9</ele>
        <time>2023-05-28T11:21:24Z</time>
      </trkpt>
      <trkpt lat="43.5289" lon="5.56935">
        <ele>464.8</ele>
        <time>2023-05-28T11:21:25Z</time>
      </trkpt>
      <trkpt lat="43.5289" lon="5.56935">
        <ele>464.8</ele>
        <time>2023-05-28T11:21:26Z</time>
      </trkpt>
      <trkpt lat="43.5289" lon="5.56935">
        <ele>464.8</ele>
        <time>2023-05-28T11:21:27Z</time>
      </trkpt>
      <trkpt lat="43.5289" lon="5.56936">
        <ele>464.8</ele>
        <time>2023-05-28T11:21:28Z</time>
      </trkpt>
      <trkpt lat="43.5289" lon="5.56936">
        <ele>464.8</ele>
        <time>2023-05-28T11:21:29Z</time>
      </trkpt>
      <trkpt lat="43.5289" lon="5.56936">
        <ele>464.8</ele>
        <time>2023-05-28T11:21:30Z</time>
      </trkpt>
      <trkpt lat="43.5289" lon="5.56936">
        <ele>464.8</ele>
        <time>2023-05-28T11:21:31Z</time>
      </trkpt>
      <trkpt lat="43.5289" lon="5.56936">
        <ele>464.8</ele>
        <time>2023-05-28T11:21:32Z</time>
      </trkpt>
      <trkpt lat="43.5289" lon="5.56936">
        <ele>464.8</ele>
        <time>2023-05-28T11:21:33Z</time>
      </trkpt>
      <trkpt lat="43.52889" lon="5.56936">
        <ele>464.8</ele>
        <time>2023-05-28T11:21:34Z</time>
      </trkpt>
      <trkpt lat="43.52889" lon="5.56936">
        <ele>464.8</ele>
        <time>2023-05-28T11:21:35Z</time>
      </trkpt>
      <trkpt lat="43.52889" lon="5.56936">
        <ele>464.8</ele>
        <time>2023-05-28T11:21:36Z</time>
      </trkpt>
      <trkpt lat="43.52889" lon="5.56935">
        <ele>464.8</ele>
        <time>2023-05-28T11:21:37Z</time>
      </trkpt>
      <trkpt lat="43.52889" lon="5.56935">
        <ele>464.8</ele>
        <time>2023-05-28T11:21:38Z</time>
      </trkpt>
      <trkpt lat="43.52889" lon="5.56935">
        <ele>464.8</ele>
        <time>2023-05-28T11:21:39Z</time>
      </trkpt>
      <trkpt lat="43.52889" lon="5.56935">
        <ele>464.8</ele>
        <time>2023-05-28T11:21:40Z</time>
      </trkpt>
      <trkpt lat="43.52889" lon="5.56935">
        <ele>464.8</ele>
        <time>2023-05-28T11:21:41Z</time>
      </trkpt>
      <trkpt lat="43.52889" lon="5.56935">
        <ele>464.8</ele>
        <time>2023-05-28T11:21:42Z</time>
      </trkpt>
      <trkpt lat="43.52889" lon="5.56936">
        <ele>464.8</ele>
        <time>2023-05-28T11:21:43Z</time>
      </trkpt>
      <trkpt lat="43.52889" lon="5.56936">
        <ele>464.8</ele>
        <time>2023-05-28T11:21:44Z</time>
      </trkpt>
      <trkpt lat="43.52889" lon="5.56936">
        <ele>464.9</ele>
        <time>2023-05-28T11:21:45Z</time>
      </trkpt>
      <trkpt lat="43.52889" lon="5.56935">
        <ele>464.9</ele>
        <time>2023-05-28T11:21:46Z</time>
      </trkpt>
      <trkpt lat="43.52889" lon="5.56935">
        <ele>464.9</ele>
        <time>2023-05-28T11:21:47Z</time>
      </trkpt>
      <trkpt lat="43.52889" lon="5.56935">
        <ele>464.9</ele>
        <time>2023-05-28T11:21:48Z</time>
      </trkpt>
      <trkpt lat="43.52889" lon="5.56935">
        <ele>464.9</ele>
        <time>2023-05-28T11:21:49Z</time>
      </trkpt>
      <trkpt lat="43.52889" lon="5.56935">
        <ele>464.9</ele>
        <time>2023-05-28T11:21:50Z</time>
      </trkpt>
      <trkpt lat="43.52889" lon="5.56935">
        <ele>464.9</ele>
        <time>2023-05-28T11:21:51Z</time>
      </trkpt>
      <trkpt lat="43.52889" lon="5.56935">
        <ele>464.9</ele>
        <time>2023-05-28T11:21:52Z</time>
      </trkpt>
      <trkpt lat="43.52889" lon="5.56935">
        <ele>465</ele>
        <time>2023-05-28T11:21:53Z</time>
      </trkpt>
      <trkpt lat="43.52889" lon="5.56935">
        <ele>465</ele>
        <time>2023-05-28T11:21:54Z</time>
      </trkpt>
      <trkpt lat="43.52889" lon="5.56935">
        <ele>465</ele>
        <time>2023-05-28T11:21:55Z</time>
      </trkpt>
      <trkpt lat="43.52889" lon="5.56935">
        <ele>465</ele>
        <time>2023-05-28T11:21:56Z</time>
      </trkpt>
      <trkpt lat="43.52889" lon="5.56935">
        <ele>465.1</ele>
        <time>2023-05-28T11:21:57Z</time>
      </trkpt>
      <trkpt lat="43.52889" lon="5.56935">
        <ele>465.1</ele>
        <time>2023-05-28T11:21:58Z</time>
      </trkpt>
      <trkpt lat="43.52889" lon="5.56935">
        <ele>465.1</ele>
        <time>2023-05-28T11:21:59Z</time>
      </trkpt>
      <trkpt lat="43.52889" lon="5.56935">
        <ele>465.2</ele>
        <time>2023-05-28T11:22:00Z</time>
      </trkpt>
      <trkpt lat="43.52889" lon="5.56935">
        <ele>465.3</ele>
        <time>2023-05-28T11:22:01Z</time>
      </trkpt>
      <trkpt lat="43.5289" lon="5.56935">
        <ele>465.3</ele>
        <time>2023-05-28T11:22:02Z</time>
      </trkpt>
      <trkpt lat="43.5289" lon="5.56935">
        <ele>465.3</ele>
        <time>2023-05-28T11:22:03Z</time>
      </trkpt>
      <trkpt lat="43.5289" lon="5.56936">
        <ele>465.3</ele>
        <time>2023-05-28T11:22:04Z</time>
      </trkpt>
      <trkpt lat="43.5289" lon="5.56936">
        <ele>465.3</ele>
        <time>2023-05-28T11:22:05Z</time>
      </trkpt>
      <trkpt lat="43.5289" lon="5.56936">
        <ele>465.3</ele>
        <time>2023-05-28T11:22:06Z</time>
      </trkpt>
      <trkpt lat="43.5289" lon="5.56936">
        <ele>465.3</ele>
        <time>2023-05-28T11:22:07Z</time>
      </trkpt>
      <trkpt lat="43.5289" lon="5.56936">
        <ele>465.4</ele>
        <time>2023-05-28T11:22:08Z</time>
      </trkpt>
      <trkpt lat="43.5289" lon="5.56936">
        <ele>465.3</ele>
        <time>2023-05-28T11:22:09Z</time>
      </trkpt>
      <trkpt lat="43.5289" lon="5.56936">
        <ele>465.3</ele>
        <time>2023-05-28T11:22:10Z</time>
      </trkpt>
      <trkpt lat="43.5289" lon="5.56936">
        <ele>465.2</ele>
        <time>2023-05-28T11:22:11Z</time>
      </trkpt>
      <trkpt lat="43.5289" lon="5.56936">
        <ele>465.2</ele>
        <time>2023-05-28T11:22:12Z</time>
      </trkpt>
      <trkpt lat="43.5289" lon="5.56936">
        <ele>465.2</ele>
        <time>2023-05-28T11:22:13Z</time>
      </trkpt>
      <trkpt lat="43.5289" lon="5.56937">
        <ele>465.2</ele>
        <time>2023-05-28T11:22:14Z</time>
      </trkpt>
      <trkpt lat="43.5289" lon="5.56937">
        <ele>465.2</ele>
        <time>2023-05-28T11:22:15Z</time>
      </trkpt>
      <trkpt lat="43.5289" lon="5.56937">
        <ele>465.2</ele>
        <time>2023-05-28T11:22:16Z</time>
      </trkpt>
      <trkpt lat="43.5289" lon="5.56937">
        <ele>465.1</ele>
        <time>2023-05-28T11:22:17Z</time>
      </trkpt>
      <trkpt lat="43.5289" lon="5.56937">
        <ele>465.1</ele>
        <time>2023-05-28T11:22:18Z</time>
      </trkpt>
      <trkpt lat="43.5289" lon="5.56937">
        <ele>465.1</ele>
        <time>2023-05-28T11:22:19Z</time>
      </trkpt>
      <trkpt lat="43.5289" lon="5.56937">
        <ele>465.1</ele>
        <time>2023-05-28T11:22:20Z</time>
      </trkpt>
      <trkpt lat="43.5289" lon="5.56937">
        <ele>465.1</ele>
        <time>2023-05-28T11:22:21Z</time>
      </trkpt>
      <trkpt lat="43.5289" lon="5.56937">
        <ele>465.1</ele>
        <time>2023-05-28T11:22:22Z</time>
      </trkpt>
      <trkpt lat="43.5289" lon="5.56937">
        <ele>465.1</ele>
        <time>2023-05-28T11:22:23Z</time>
      </trkpt>
      <trkpt lat="43.52891" lon="5.56937">
        <ele>465.1</ele>
        <time>2023-05-28T11:22:24Z</time>
      </trkpt>
      <trkpt lat="43.52891" lon="5.56938">
        <ele>465.1</ele>
        <time>2023-05-28T11:22:25Z</time>
      </trkpt>
      <trkpt lat="43.52891" lon="5.56938">
        <ele>465.1</ele>
        <time>2023-05-28T11:22:26Z</time>
      </trkpt>
      <trkpt lat="43.52891" lon="5.56938">
        <ele>465.2</ele>
        <time>2023-05-28T11:22:27Z</time>
      </trkpt>
      <trkpt lat="43.52891" lon="5.56938">
        <ele>465.1</ele>
        <time>2023-05-28T11:22:28Z</time>
      </trkpt>
      <trkpt lat="43.52891" lon="5.56938">
        <ele>465.2</ele>
        <time>2023-05-28T11:22:29Z</time>
      </trkpt>
      <trkpt lat="43.52891" lon="5.56938">
        <ele>465.2</ele>
        <time>2023-05-28T11:22:30Z</time>
      </trkpt>
      <trkpt lat="43.52891" lon="5.56938">
        <ele>465.2</ele>
        <time>2023-05-28T11:22:31Z</time>
      </trkpt>
      <trkpt lat="43.52891" lon="5.56938">
        <ele>465.2</ele>
        <time>2023-05-28T11:22:32Z</time>
      </trkpt>
      <trkpt lat="43.52892" lon="5.56938">
        <ele>465.2</ele>
        <time>2023-05-28T11:22:33Z</time>
      </trkpt>
      <trkpt lat="43.52892" lon="5.56939">
        <ele>465.2</ele>
        <time>2023-05-28T11:22:34Z</time>
      </trkpt>
      <trkpt lat="43.52892" lon="5.56939">
        <ele>465.2</ele>
        <time>2023-05-28T11:22:35Z</time>
      </trkpt>
      <trkpt lat="43.52892" lon="5.56939">
        <ele>465.2</ele>
        <time>2023-05-28T11:22:36Z</time>
      </trkpt>
      <trkpt lat="43.52892" lon="5.56939">
        <ele>465.2</ele>
        <time>2023-05-28T11:22:37Z</time>
      </trkpt>
      <trkpt lat="43.52892" lon="5.56939">
        <ele>465.2</ele>
        <time>2023-05-28T11:22:38Z</time>
      </trkpt>
      <trkpt lat="43.52892" lon="5.56939">
        <ele>465.2</ele>
        <time>2023-05-28T11:22:39Z</time>
      </trkpt>
      <trkpt lat="43.52892" lon="5.56939">
        <ele>465.2</ele>
        <time>2023-05-28T11:22:40Z</time>
      </trkpt>
      <trkpt lat="43.52892" lon="5.56939">
        <ele>465.2</ele>
        <time>2023-05-28T11:22:41Z</time>
      </trkpt>
      <trkpt lat="43.52892" lon="5.56939">
        <ele>465.2</ele>
        <time>2023-05-28T11:22:42Z</time>
      </trkpt>
      <trkpt lat="43.52892" lon="5.56939">
        <ele>465.2</ele>
        <time>2023-05-28T11:22:43Z</time>
      </trkpt>
      <trkpt lat="43.52892" lon="5.56939">
        <ele>465.2</ele>
        <time>2023-05-28T11:22:44Z</time>
      </trkpt>
      <trkpt lat="43.52892" lon="5.5694">
        <ele>465.2</ele>
        <time>2023-05-28T11:22:45Z</time>
      </trkpt>
      <trkpt lat="43.52892" lon="5.5694">
        <ele>465.2</ele>
        <time>2023-05-28T11:22:46Z</time>
      </trkpt>
      <trkpt lat="43.52892" lon="5.5694">
        <ele>465.1</ele>
        <time>2023-05-28T11:22:47Z</time>
      </trkpt>
      <trkpt lat="43.52892" lon="5.5694">
        <ele>465.1</ele>
        <time>2023-05-28T11:22:48Z</time>
      </trkpt>
      <trkpt lat="43.52892" lon="5.56939">
        <ele>465.1</ele>
        <time>2023-05-28T11:22:49Z</time>
      </trkpt>
      <trkpt lat="43.52892" lon="5.56939">
        <ele>465</ele>
        <time>2023-05-28T11:22:50Z</time>
      </trkpt>
      <trkpt lat="43.52892" lon="5.56939">
        <ele>465.1</ele>
        <time>2023-05-28T11:22:51Z</time>
      </trkpt>
      <trkpt lat="43.52892" lon="5.56939">
        <ele>465.1</ele>
        <time>2023-05-28T11:22:52Z</time>
      </trkpt>
      <trkpt lat="43.52892" lon="5.56939">
        <ele>465.1</ele>
        <time>2023-05-28T11:22:53Z</time>
      </trkpt>
      <trkpt lat="43.52892" lon="5.56939">
        <ele>465.1</ele>
        <time>2023-05-28T11:22:54Z</time>
      </trkpt>
      <trkpt lat="43.52892" lon="5.56939">
        <ele>465</ele>
        <time>2023-05-28T11:22:55Z</time>
      </trkpt>
      <trkpt lat="43.52892" lon="5.56938">
        <ele>465</ele>
        <time>2023-05-28T11:22:56Z</time>
      </trkpt>
      <trkpt lat="43.52892" lon="5.56939">
        <ele>465</ele>
        <time>2023-05-28T11:22:57Z</time>
      </trkpt>
      <trkpt lat="43.52892" lon="5.56938">
        <ele>465.1</ele>
        <time>2023-05-28T11:22:58Z</time>
      </trkpt>
      <trkpt lat="43.52891" lon="5.56939">
        <ele>465.1</ele>
        <time>2023-05-28T11:22:59Z</time>
      </trkpt>
      <trkpt lat="43.52891" lon="5.56938">
        <ele>465.1</ele>
        <time>2023-05-28T11:23:00Z</time>
      </trkpt>
      <trkpt lat="43.52891" lon="5.56938">
        <ele>465.1</ele>
        <time>2023-05-28T11:23:01Z</time>
      </trkpt>
      <trkpt lat="43.52892" lon="5.56938">
        <ele>465.1</ele>
        <time>2023-05-28T11:23:02Z</time>
      </trkpt>
      <trkpt lat="43.52892" lon="5.56938">
        <ele>465.1</ele>
        <time>2023-05-28T11:23:03Z</time>
      </trkpt>
      <trkpt lat="43.52892" lon="5.56938">
        <ele>465.1</ele>
        <time>2023-05-28T11:23:04Z</time>
      </trkpt>
      <trkpt lat="43.52892" lon="5.56938">
        <ele>465.1</ele>
        <time>2023-05-28T11:23:05Z</time>
      </trkpt>
      <trkpt lat="43.52892" lon="5.56938">
        <ele>465.1</ele>
        <time>2023-05-28T11:23:06Z</time>
      </trkpt>
      <trkpt lat="43.52892" lon="5.56938">
        <ele>465</ele>
        <time>2023-05-28T11:23:07Z</time>
      </trkpt>
      <trkpt lat="43.52892" lon="5.56938">
        <ele>465</ele>
        <time>2023-05-28T11:23:08Z</time>
      </trkpt>
      <trkpt lat="43.52892" lon="5.56938">
        <ele>465</ele>
        <time>2023-05-28T11:23:09Z</time>
      </trkpt>
      <trkpt lat="43.52892" lon="5.56938">
        <ele>465.1</ele>
        <time>2023-05-28T11:23:10Z</time>
      </trkpt>
      <trkpt lat="43.52892" lon="5.56938">
        <ele>465</ele>
        <time>2023-05-28T11:23:11Z</time>
      </trkpt>
      <trkpt lat="43.52892" lon="5.56937">
        <ele>465.1</ele>
        <time>2023-05-28T11:23:12Z</time>
      </trkpt>
      <trkpt lat="43.52892" lon="5.56938">
        <ele>465.1</ele>
        <time>2023-05-28T11:23:13Z</time>
      </trkpt>
      <trkpt lat="43.52892" lon="5.56937">
        <ele>465.1</ele>
        <time>2023-05-28T11:23:14Z</time>
      </trkpt>
      <trkpt lat="43.52892" lon="5.56937">
        <ele>465.1</ele>
        <time>2023-05-28T11:23:15Z</time>
      </trkpt>
      <trkpt lat="43.52892" lon="5.56937">
        <ele>465.1</ele>
        <time>2023-05-28T11:23:16Z</time>
      </trkpt>
      <trkpt lat="43.52892" lon="5.56937">
        <ele>465.1</ele>
        <time>2023-05-28T11:23:17Z</time>
      </trkpt>
      <trkpt lat="43.52892" lon="5.56937">
        <ele>465.1</ele>
        <time>2023-05-28T11:23:18Z</time>
      </trkpt>
      <trkpt lat="43.52892" lon="5.56937">
        <ele>465.1</ele>
        <time>2023-05-28T11:23:19Z</time>
      </trkpt>
      <trkpt lat="43.52892" lon="5.56937">
        <ele>465.2</ele>
        <time>2023-05-28T11:23:20Z</time>
      </trkpt>
      <trkpt lat="43.52892" lon="5.56937">
        <ele>465.2</ele>
        <time>2023-05-28T11:23:21Z</time>
      </trkpt>
      <trkpt lat="43.52892" lon="5.56937">
        <ele>465.1</ele>
        <time>2023-05-28T11:23:22Z</time>
      </trkpt>
      <trkpt lat="43.52892" lon="5.56938">
        <ele>465.1</ele>
        <time>2023-05-28T11:23:23Z</time>
      </trkpt>
      <trkpt lat="43.52892" lon="5.56937">
        <ele>465</ele>
        <time>2023-05-28T11:23:24Z</time>
      </trkpt>
      <trkpt lat="43.52892" lon="5.56938">
        <ele>465</ele>
        <time>2023-05-28T11:23:25Z</time>
      </trkpt>
      <trkpt lat="43.52892" lon="5.56938">
        <ele>465</ele>
        <time>2023-05-28T11:23:26Z</time>
      </trkpt>
      <trkpt lat="43.52892" lon="5.56938">
        <ele>465</ele>
        <time>2023-05-28T11:23:27Z</time>
      </trkpt>
      <trkpt lat="43.52891" lon="5.56938">
        <ele>464.9</ele>
        <time>2023-05-28T11:23:28Z</time>
      </trkpt>
      <trkpt lat="43.52891" lon="5.56938">
        <ele>464.9</ele>
        <time>2023-05-28T11:23:29Z</time>
      </trkpt>
      <trkpt lat="43.52891" lon="5.56938">
        <ele>464.9</ele>
        <time>2023-05-28T11:23:30Z</time>
      </trkpt>
      <trkpt lat="43.52891" lon="5.56938">
        <ele>464.9</ele>
        <time>2023-05-28T11:23:31Z</time>
      </trkpt>
      <trkpt lat="43.52891" lon="5.56939">
        <ele>464.9</ele>
        <time>2023-05-28T11:23:32Z</time>
      </trkpt>
      <trkpt lat="43.52891" lon="5.56939">
        <ele>464.9</ele>
        <time>2023-05-28T11:23:33Z</time>
      </trkpt>
      <trkpt lat="43.52891" lon="5.56939">
        <ele>464.9</ele>
        <time>2023-05-28T11:23:34Z</time>
      </trkpt>
      <trkpt lat="43.52891" lon="5.56938">
        <ele>464.9</ele>
        <time>2023-05-28T11:23:35Z</time>
      </trkpt>
      <trkpt lat="43.52891" lon="5.56938">
        <ele>464.8</ele>
        <time>2023-05-28T11:23:36Z</time>
      </trkpt>
      <trkpt lat="43.52891" lon="5.56938">
        <ele>464.9</ele>
        <time>2023-05-28T11:23:37Z</time>
      </trkpt>
      <trkpt lat="43.52891" lon="5.56938">
        <ele>464.9</ele>
        <time>2023-05-28T11:23:38Z</time>
      </trkpt>
      <trkpt lat="43.5289" lon="5.56938">
        <ele>465</ele>
        <time>2023-05-28T11:23:39Z</time>
      </trkpt>
      <trkpt lat="43.5289" lon="5.56938">
        <ele>465</ele>
        <time>2023-05-28T11:23:40Z</time>
      </trkpt>
      <trkpt lat="43.5289" lon="5.56938">
        <ele>465</ele>
        <time>2023-05-28T11:23:41Z</time>
      </trkpt>
      <trkpt lat="43.5289" lon="5.56938">
        <ele>465</ele>
        <time>2023-05-28T11:23:42Z</time>
      </trkpt>
      <trkpt lat="43.5289" lon="5.56938">
        <ele>465</ele>
        <time>2023-05-28T11:23:43Z</time>
      </trkpt>
      <trkpt lat="43.5289" lon="5.56938">
        <ele>465</ele>
        <time>2023-05-28T11:23:44Z</time>
      </trkpt>
      <trkpt lat="43.5289" lon="5.56938">
        <ele>465</ele>
        <time>2023-05-28T11:23:45Z</time>
      </trkpt>
      <trkpt lat="43.5289" lon="5.56938">
        <ele>465</ele>
        <time>2023-05-28T11:23:46Z</time>
      </trkpt>
      <trkpt lat="43.5289" lon="5.56938">
        <ele>465</ele>
        <time>2023-05-28T11:23:47Z</time>
      </trkpt>
      <trkpt lat="43.5289" lon="5.56938">
        <ele>465.1</ele>
        <time>2023-05-28T11:23:48Z</time>
      </trkpt>
      <trkpt lat="43.5289" lon="5.56939">
        <ele>465</ele>
        <time>2023-05-28T11:23:49Z</time>
      </trkpt>
      <trkpt lat="43.5289" lon="5.56939">
        <ele>465</ele>
        <time>2023-05-28T11:23:50Z</time>
      </trkpt>
      <trkpt lat="43.5289" lon="5.56939">
        <ele>465</ele>
        <time>2023-05-28T11:23:51Z</time>
      </trkpt>
      <trkpt lat="43.5289" lon="5.56939">
        <ele>465</ele>
        <time>2023-05-28T11:23:52Z</time>
      </trkpt>
      <trkpt lat="43.5289" lon="5.56939">
        <ele>465</ele>
        <time>2023-05-28T11:23:53Z</time>
      </trkpt>
      <trkpt lat="43.5289" lon="5.56939">
        <ele>465</ele>
        <time>2023-05-28T11:23:54Z</time>
      </trkpt>
      <trkpt lat="43.5289" lon="5.56939">
        <ele>464.9</ele>
        <time>2023-05-28T11:23:55Z</time>
      </trkpt>
      <trkpt lat="43.5289" lon="5.56939">
        <ele>464.9</ele>
        <time>2023-05-28T11:23:56Z</time>
      </trkpt>
      <trkpt lat="43.5289" lon="5.56939">
        <ele>464.9</ele>
        <time>2023-05-28T11:23:57Z</time>
      </trkpt>
      <trkpt lat="43.5289" lon="5.56939">
        <ele>465</ele>
        <time>2023-05-28T11:23:58Z</time>
      </trkpt>
      <trkpt lat="43.5289" lon="5.56939">
        <ele>465.1</ele>
        <time>2023-05-28T11:23:59Z</time>
      </trkpt>
      <trkpt lat="43.52889" lon="5.56939">
        <ele>465.1</ele>
        <time>2023-05-28T11:24:00Z</time>
      </trkpt>
      <trkpt lat="43.52889" lon="5.56939">
        <ele>465.1</ele>
        <time>2023-05-28T11:24:01Z</time>
      </trkpt>
      <trkpt lat="43.52889" lon="5.56938">
        <ele>465.1</ele>
        <time>2023-05-28T11:24:02Z</time>
      </trkpt>
      <trkpt lat="43.52889" lon="5.56938">
        <ele>465.1</ele>
        <time>2023-05-28T11:24:03Z</time>
      </trkpt>
      <trkpt lat="43.52889" lon="5.56938">
        <ele>465.1</ele>
        <time>2023-05-28T11:24:04Z</time>
      </trkpt>
      <trkpt lat="43.52889" lon="5.56938">
        <ele>465.1</ele>
        <time>2023-05-28T11:24:05Z</time>
      </trkpt>
      <trkpt lat="43.52889" lon="5.56938">
        <ele>465.1</ele>
        <time>2023-05-28T11:24:06Z</time>
      </trkpt>
      <trkpt lat="43.52889" lon="5.56938">
        <ele>465.1</ele>
        <time>2023-05-28T11:24:07Z</time>
      </trkpt>
      <trkpt lat="43.52889" lon="5.56938">
        <ele>465.1</ele>
        <time>2023-05-28T11:24:08Z</time>
      </trkpt>
      <trkpt lat="43.52889" lon="5.56938">
        <ele>465.1</ele>
        <time>2023-05-28T11:24:09Z</time>
      </trkpt>
      <trkpt lat="43.52889" lon="5.56938">
        <ele>465.1</ele>
        <time>2023-05-28T11:24:10Z</time>
      </trkpt>
      <trkpt lat="43.52889" lon="5.56938">
        <ele>465.1</ele>
        <time>2023-05-28T11:24:11Z</time>
      </trkpt>
      <trkpt lat="43.52889" lon="5.56938">
        <ele>465.1</ele>
        <time>2023-05-28T11:24:12Z</time>
      </trkpt>
      <trkpt lat="43.52889" lon="5.56939">
        <ele>465.1</ele>
        <time>2023-05-28T11:24:13Z</time>
      </trkpt>
      <trkpt lat="43.52889" lon="5.56939">
        <ele>465.2</ele>
        <time>2023-05-28T11:24:14Z</time>
      </trkpt>
      <trkpt lat="43.52889" lon="5.56939">
        <ele>465.2</ele>
        <time>2023-05-28T11:24:15Z</time>
      </trkpt>
      <trkpt lat="43.52889" lon="5.56938">
        <ele>465.2</ele>
        <time>2023-05-28T11:24:16Z</time>
      </trkpt>
      <trkpt lat="43.52889" lon="5.56938">
        <ele>465.2</ele>
        <time>2023-05-28T11:24:17Z</time>
      </trkpt>
      <trkpt lat="43.52889" lon="5.56938">
        <ele>465.2</ele>
        <time>2023-05-28T11:24:18Z</time>
      </trkpt>
      <trkpt lat="43.52889" lon="5.56938">
        <ele>465.2</ele>
        <time>2023-05-28T11:24:19Z</time>
      </trkpt>
      <trkpt lat="43.52889" lon="5.56938">
        <ele>465.2</ele>
        <time>2023-05-28T11:24:20Z</time>
      </trkpt>
      <trkpt lat="43.52889" lon="5.56938">
        <ele>465.2</ele>
        <time>2023-05-28T11:24:21Z</time>
      </trkpt>
      <trkpt lat="43.52889" lon="5.56938">
        <ele>465.2</ele>
        <time>2023-05-28T11:24:22Z</time>
      </trkpt>
      <trkpt lat="43.52889" lon="5.56938">
        <ele>465.2</ele>
        <time>2023-05-28T11:24:23Z</time>
      </trkpt>
      <trkpt lat="43.52889" lon="5.56937">
        <ele>465.2</ele>
        <time>2023-05-28T11:24:24Z</time>
      </trkpt>
      <trkpt lat="43.52889" lon="5.56937">
        <ele>465.2</ele>
        <time>2023-05-28T11:24:25Z</time>
      </trkpt>
      <trkpt lat="43.52889" lon="5.56937">
        <ele>465.1</ele>
        <time>2023-05-28T11:24:26Z</time>
      </trkpt>
      <trkpt lat="43.52889" lon="5.56937">
        <ele>465.1</ele>
        <time>2023-05-28T11:24:27Z</time>
      </trkpt>
      <trkpt lat="43.52889" lon="5.56937">
        <ele>465.1</ele>
        <time>2023-05-28T11:24:28Z</time>
      </trkpt>
      <trkpt lat="43.52889" lon="5.56937">
        <ele>465</ele>
        <time>2023-05-28T11:24:29Z</time>
      </trkpt>
      <trkpt lat="43.5289" lon="5.56937">
        <ele>465</ele>
        <time>2023-05-28T11:24:30Z</time>
      </trkpt>
      <trkpt lat="43.5289" lon="5.56937">
        <ele>465</ele>
        <time>2023-05-28T11:24:31Z</time>
      </trkpt>
      <trkpt lat="43.5289" lon="5.56937">
        <ele>464.9</ele>
        <time>2023-05-28T11:24:32Z</time>
      </trkpt>
      <trkpt lat="43.5289" lon="5.56937">
        <ele>464.9</ele>
        <time>2023-05-28T11:24:33Z</time>
      </trkpt>
      <trkpt lat="43.5289" lon="5.56937">
        <ele>464.9</ele>
        <time>2023-05-28T11:24:34Z</time>
      </trkpt>
      <trkpt lat="43.52889" lon="5.56937">
        <ele>464.9</ele>
        <time>2023-05-28T11:24:35Z</time>
      </trkpt>
      <trkpt lat="43.52889" lon="5.56937">
        <ele>464.9</ele>
        <time>2023-05-28T11:24:36Z</time>
      </trkpt>
      <trkpt lat="43.52889" lon="5.56937">
        <ele>465</ele>
        <time>2023-05-28T11:24:37Z</time>
      </trkpt>
      <trkpt lat="43.52889" lon="5.56938">
        <ele>464.9</ele>
        <time>2023-05-28T11:24:38Z</time>
      </trkpt>
      <trkpt lat="43.52889" lon="5.56938">
        <ele>465</ele>
        <time>2023-05-28T11:24:39Z</time>
      </trkpt>
      <trkpt lat="43.52889" lon="5.56938">
        <ele>465</ele>
        <time>2023-05-28T11:24:40Z</time>
      </trkpt>
      <trkpt lat="43.52889" lon="5.56938">
        <ele>465</ele>
        <time>2023-05-28T11:24:41Z</time>
      </trkpt>
      <trkpt lat="43.52889" lon="5.56938">
        <ele>465.1</ele>
        <time>2023-05-28T11:24:42Z</time>
      </trkpt>
      <trkpt lat="43.52889" lon="5.56938">
        <ele>465.1</ele>
        <time>2023-05-28T11:24:43Z</time>
      </trkpt>
      <trkpt lat="43.5289" lon="5.56938">
        <ele>465.1</ele>
        <time>2023-05-28T11:24:44Z</time>
      </trkpt>
      <trkpt lat="43.5289" lon="5.56938">
        <ele>465.1</ele>
        <time>2023-05-28T11:24:45Z</time>
      </trkpt>
      <trkpt lat="43.5289" lon="5.56939">
        <ele>465.1</ele>
        <time>2023-05-28T11:24:46Z</time>
      </trkpt>
      <trkpt lat="43.5289" lon="5.56939">
        <ele>465.1</ele>
        <time>2023-05-28T11:24:47Z</time>
      </trkpt>
      <trkpt lat="43.5289" lon="5.56939">
        <ele>465.1</ele>
        <time>2023-05-28T11:24:48Z</time>
      </trkpt>
      <trkpt lat="43.5289" lon="5.56939">
        <ele>465.1</ele>
        <time>2023-05-28T11:24:49Z</time>
      </trkpt>
      <trkpt lat="43.5289" lon="5.56939">
        <ele>465</ele>
        <time>2023-05-28T11:24:50Z</time>
      </trkpt>
      <trkpt lat="43.5289" lon="5.56939">
        <ele>465</ele>
        <time>2023-05-28T11:24:51Z</time>
      </trkpt>
      <trkpt lat="43.5289" lon="5.5694">
        <ele>464.9</ele>
        <time>2023-05-28T11:24:52Z</time>
      </trkpt>
      <trkpt lat="43.5289" lon="5.5694">
        <ele>464.9</ele>
        <time>2023-05-28T11:24:53Z</time>
      </trkpt>
      <trkpt lat="43.5289" lon="5.5694">
        <ele>464.9</ele>
        <time>2023-05-28T11:24:54Z</time>
      </trkpt>
      <trkpt lat="43.52891" lon="5.5694">
        <ele>464.9</ele>
        <time>2023-05-28T11:24:55Z</time>
      </trkpt>
      <trkpt lat="43.52891" lon="5.56941">
        <ele>464.8</ele>
        <time>2023-05-28T11:24:56Z</time>
      </trkpt>
      <trkpt lat="43.52891" lon="5.56941">
        <ele>464.8</ele>
        <time>2023-05-28T11:24:57Z</time>
      </trkpt>
      <trkpt lat="43.52891" lon="5.56941">
        <ele>464.8</ele>
        <time>2023-05-28T11:24:58Z</time>
      </trkpt>
      <trkpt lat="43.52891" lon="5.56941">
        <ele>464.8</ele>
        <time>2023-05-28T11:24:59Z</time>
      </trkpt>
      <trkpt lat="43.52891" lon="5.56941">
        <ele>464.8</ele>
        <time>2023-05-28T11:25:00Z</time>
      </trkpt>
      <trkpt lat="43.52891" lon="5.56942">
        <ele>464.8</ele>
        <time>2023-05-28T11:25:01Z</time>
      </trkpt>
      <trkpt lat="43.52891" lon="5.56942">
        <ele>464.9</ele>
        <time>2023-05-28T11:25:02Z</time>
      </trkpt>
      <trkpt lat="43.52891" lon="5.56942">
        <ele>464.8</ele>
        <time>2023-05-28T11:25:03Z</time>
      </trkpt>
      <trkpt lat="43.52891" lon="5.56942">
        <ele>464.8</ele>
        <time>2023-05-28T11:25:04Z</time>
      </trkpt>
      <trkpt lat="43.52891" lon="5.56942">
        <ele>464.7</ele>
        <time>2023-05-28T11:25:05Z</time>
      </trkpt>
      <trkpt lat="43.52891" lon="5.56942">
        <ele>464.8</ele>
        <time>2023-05-28T11:25:06Z</time>
      </trkpt>
      <trkpt lat="43.52891" lon="5.56942">
        <ele>464.8</ele>
        <time>2023-05-28T11:25:07Z</time>
      </trkpt>
      <trkpt lat="43.52892" lon="5.56943">
        <ele>464.8</ele>
        <time>2023-05-28T11:25:08Z</time>
      </trkpt>
      <trkpt lat="43.52892" lon="5.56943">
        <ele>464.8</ele>
        <time>2023-05-28T11:25:09Z</time>
      </trkpt>
      <trkpt lat="43.52892" lon="5.56943">
        <ele>464.9</ele>
        <time>2023-05-28T11:25:10Z</time>
      </trkpt>
      <trkpt lat="43.52892" lon="5.56943">
        <ele>464.9</ele>
        <time>2023-05-28T11:25:11Z</time>
      </trkpt>
      <trkpt lat="43.52892" lon="5.56943">
        <ele>464.9</ele>
        <time>2023-05-28T11:25:12Z</time>
      </trkpt>
      <trkpt lat="43.52892" lon="5.56943">
        <ele>465</ele>
        <time>2023-05-28T11:25:13Z</time>
      </trkpt>
      <trkpt lat="43.52892" lon="5.56943">
        <ele>465</ele>
        <time>2023-05-28T11:25:14Z</time>
      </trkpt>
      <trkpt lat="43.52892" lon="5.56943">
        <ele>465.1</ele>
        <time>2023-05-28T11:25:15Z</time>
      </trkpt>
      <trkpt lat="43.52892" lon="5.56943">
        <ele>465.1</ele>
        <time>2023-05-28T11:25:16Z</time>
      </trkpt>
      <trkpt lat="43.52892" lon="5.56943">
        <ele>465.1</ele>
        <time>2023-05-28T11:25:17Z</time>
      </trkpt>
      <trkpt lat="43.52892" lon="5.56943">
        <ele>465.2</ele>
        <time>2023-05-28T11:25:18Z</time>
      </trkpt>
      <trkpt lat="43.52892" lon="5.56943">
        <ele>465.2</ele>
        <time>2023-05-28T11:25:19Z</time>
      </trkpt>
      <trkpt lat="43.52892" lon="5.56943">
        <ele>465.1</ele>
        <time>2023-05-28T11:25:20Z</time>
      </trkpt>
      <trkpt lat="43.52892" lon="5.56943">
        <ele>465.1</ele>
        <time>2023-05-28T11:25:21Z</time>
      </trkpt>
      <trkpt lat="43.52892" lon="5.56943">
        <ele>465</ele>
        <time>2023-05-28T11:25:22Z</time>
      </trkpt>
      <trkpt lat="43.52892" lon="5.56943">
        <ele>465.1</ele>
        <time>2023-05-28T11:25:23Z</time>
      </trkpt>
      <trkpt lat="43.52892" lon="5.56943">
        <ele>465.1</ele>
        <time>2023-05-28T11:25:24Z</time>
      </trkpt>
      <trkpt lat="43.52892" lon="5.56943">
        <ele>465.1</ele>
        <time>2023-05-28T11:25:25Z</time>
      </trkpt>
      <trkpt lat="43.52892" lon="5.56943">
        <ele>465.2</ele>
        <time>2023-05-28T11:25:26Z</time>
      </trkpt>
      <trkpt lat="43.52892" lon="5.56943">
        <ele>465.1</ele>
        <time>2023-05-28T11:25:27Z</time>
      </trkpt>
      <trkpt lat="43.52892" lon="5.56943">
        <ele>465.1</ele>
        <time>2023-05-28T11:25:28Z</time>
      </trkpt>
      <trkpt lat="43.52892" lon="5.56943">
        <ele>465.1</ele>
        <time>2023-05-28T11:25:29Z</time>
      </trkpt>
      <trkpt lat="43.52892" lon="5.56943">
        <ele>465</ele>
        <time>2023-05-28T11:25:30Z</time>
      </trkpt>
      <trkpt lat="43.52892" lon="5.56943">
        <ele>465</ele>
        <time>2023-05-28T11:25:31Z</time>
      </trkpt>
      <trkpt lat="43.52892" lon="5.56943">
        <ele>465</ele>
        <time>2023-05-28T11:25:32Z</time>
      </trkpt>
      <trkpt lat="43.52892" lon="5.56943">
        <ele>465</ele>
        <time>2023-05-28T11:25:33Z</time>
      </trkpt>
      <trkpt lat="43.52892" lon="5.56943">
        <ele>465</ele>
        <time>2023-05-28T11:25:34Z</time>
      </trkpt>
      <trkpt lat="43.52892" lon="5.56943">
        <ele>465.1</ele>
        <time>2023-05-28T11:25:35Z</time>
      </trkpt>
      <trkpt lat="43.52892" lon="5.56943">
        <ele>465</ele>
        <time>2023-05-28T11:25:36Z</time>
      </trkpt>
      <trkpt lat="43.52892" lon="5.56943">
        <ele>465</ele>
        <time>2023-05-28T11:25:37Z</time>
      </trkpt>
      <trkpt lat="43.52893" lon="5.56943">
        <ele>465</ele>
        <time>2023-05-28T11:25:38Z</time>
      </trkpt>
      <trkpt lat="43.52893" lon="5.56943">
        <ele>465</ele>
        <time>2023-05-28T11:25:39Z</time>
      </trkpt>
      <trkpt lat="43.52893" lon="5.56943">
        <ele>465</ele>
        <time>2023-05-28T11:25:40Z</time>
      </trkpt>
      <trkpt lat="43.52893" lon="5.56943">
        <ele>464.9</ele>
        <time>2023-05-28T11:25:41Z</time>
      </trkpt>
      <trkpt lat="43.52893" lon="5.56943">
        <ele>464.9</ele>
        <time>2023-05-28T11:25:42Z</time>
      </trkpt>
      <trkpt lat="43.52893" lon="5.56943">
        <ele>464.9</ele>
        <time>2023-05-28T11:25:43Z</time>
      </trkpt>
      <trkpt lat="43.52893" lon="5.56943">
        <ele>464.9</ele>
        <time>2023-05-28T11:25:44Z</time>
      </trkpt>
      <trkpt lat="43.52893" lon="5.56943">
        <ele>464.8</ele>
        <time>2023-05-28T11:25:45Z</time>
      </trkpt>
      <trkpt lat="43.52893" lon="5.56943">
        <ele>464.8</ele>
        <time>2023-05-28T11:25:46Z</time>
      </trkpt>
      <trkpt lat="43.52893" lon="5.56943">
        <ele>464.8</ele>
        <time>2023-05-28T11:25:47Z</time>
      </trkpt>
      <trkpt lat="43.52893" lon="5.56942">
        <ele>464.8</ele>
        <time>2023-05-28T11:25:48Z</time>
      </trkpt>
      <trkpt lat="43.52893" lon="5.56942">
        <ele>464.8</ele>
        <time>2023-05-28T11:25:49Z</time>
      </trkpt>
      <trkpt lat="43.52893" lon="5.56942">
        <ele>464.9</ele>
        <time>2023-05-28T11:25:50Z</time>
      </trkpt>
      <trkpt lat="43.52893" lon="5.56942">
        <ele>464.9</ele>
        <time>2023-05-28T11:25:51Z</time>
      </trkpt>
      <trkpt lat="43.52893" lon="5.56942">
        <ele>465</ele>
        <time>2023-05-28T11:25:52Z</time>
      </trkpt>
      <trkpt lat="43.52893" lon="5.56942">
        <ele>465</ele>
        <time>2023-05-28T11:25:53Z</time>
      </trkpt>
      <trkpt lat="43.52892" lon="5.56942">
        <ele>465.1</ele>
        <time>2023-05-28T11:25:54Z</time>
      </trkpt>
      <trkpt lat="43.52892" lon="5.56942">
        <ele>465.1</ele>
        <time>2023-05-28T11:25:55Z</time>
      </trkpt>
      <trkpt lat="43.52892" lon="5.56942">
        <ele>465.1</ele>
        <time>2023-05-28T11:25:56Z</time>
      </trkpt>
      <trkpt lat="43.52892" lon="5.56942">
        <ele>465.1</ele>
        <time>2023-05-28T11:25:57Z</time>
      </trkpt>
      <trkpt lat="43.52892" lon="5.56942">
        <ele>465.1</ele>
        <time>2023-05-28T11:25:58Z</time>
      </trkpt>
      <trkpt lat="43.52892" lon="5.56942">
        <ele>465.1</ele>
        <time>2023-05-28T11:25:59Z</time>
      </trkpt>
      <trkpt lat="43.52892" lon="5.56942">
        <ele>465</ele>
        <time>2023-05-28T11:26:00Z</time>
      </trkpt>
      <trkpt lat="43.52892" lon="5.56941">
        <ele>465</ele>
        <time>2023-05-28T11:26:01Z</time>
      </trkpt>
      <trkpt lat="43.52892" lon="5.56941">
        <ele>465</ele>
        <time>2023-05-28T11:26:02Z</time>
      </trkpt>
      <trkpt lat="43.52892" lon="5.56941">
        <ele>465</ele>
        <time>2023-05-28T11:26:03Z</time>
      </trkpt>
      <trkpt lat="43.52892" lon="5.56941">
        <ele>465</ele>
        <time>2023-05-28T11:26:04Z</time>
      </trkpt>
      <trkpt lat="43.52892" lon="5.56941">
        <ele>465</ele>
        <time>2023-05-28T11:26:05Z</time>
      </trkpt>
      <trkpt lat="43.52892" lon="5.56941">
        <ele>465.1</ele>
        <time>2023-05-28T11:26:06Z</time>
      </trkpt>
      <trkpt lat="43.52892" lon="5.56941">
        <ele>465</ele>
        <time>2023-05-28T11:26:07Z</time>
      </trkpt>
      <trkpt lat="43.52892" lon="5.56941">
        <ele>465</ele>
        <time>2023-05-28T11:26:08Z</time>
      </trkpt>
      <trkpt lat="43.52892" lon="5.56941">
        <ele>464.9</ele>
        <time>2023-05-28T11:26:09Z</time>
      </trkpt>
      <trkpt lat="43.52892" lon="5.56941">
        <ele>464.9</ele>
        <time>2023-05-28T11:26:10Z</time>
      </trkpt>
      <trkpt lat="43.52892" lon="5.56941">
        <ele>464.9</ele>
        <time>2023-05-28T11:26:11Z</time>
      </trkpt>
      <trkpt lat="43.52891" lon="5.56941">
        <ele>464.9</ele>
        <time>2023-05-28T11:26:12Z</time>
      </trkpt>
      <trkpt lat="43.52891" lon="5.5694">
        <ele>465</ele>
        <time>2023-05-28T11:26:13Z</time>
      </trkpt>
      <trkpt lat="43.52891" lon="5.5694">
        <ele>464.9</ele>
        <time>2023-05-28T11:26:14Z</time>
      </trkpt>
      <trkpt lat="43.52891" lon="5.5694">
        <ele>464.9</ele>
        <time>2023-05-28T11:26:15Z</time>
      </trkpt>
      <trkpt lat="43.52891" lon="5.5694">
        <ele>464.9</ele>
        <time>2023-05-28T11:26:16Z</time>
      </trkpt>
      <trkpt lat="43.52891" lon="5.5694">
        <ele>464.9</ele>
        <time>2023-05-28T11:26:17Z</time>
      </trkpt>
      <trkpt lat="43.52891" lon="5.5694">
        <ele>465</ele>
        <time>2023-05-28T11:26:18Z</time>
      </trkpt>
      <trkpt lat="43.52891" lon="5.5694">
        <ele>465</ele>
        <time>2023-05-28T11:26:19Z</time>
      </trkpt>
      <trkpt lat="43.52891" lon="5.5694">
        <ele>465.1</ele>
        <time>2023-05-28T11:26:20Z</time>
      </trkpt>
      <trkpt lat="43.52891" lon="5.5694">
        <ele>465.1</ele>
        <time>2023-05-28T11:26:21Z</time>
      </trkpt>
      <trkpt lat="43.52891" lon="5.5694">
        <ele>465.1</ele>
        <time>2023-05-28T11:26:22Z</time>
      </trkpt>
      <trkpt lat="43.52891" lon="5.5694">
        <ele>465.1</ele>
        <time>2023-05-28T11:26:23Z</time>
      </trkpt>
      <trkpt lat="43.52891" lon="5.5694">
        <ele>465.1</ele>
        <time>2023-05-28T11:26:24Z</time>
      </trkpt>
      <trkpt lat="43.52891" lon="5.5694">
        <ele>465.1</ele>
        <time>2023-05-28T11:26:25Z</time>
      </trkpt>
      <trkpt lat="43.52891" lon="5.56941">
        <ele>465.1</ele>
        <time>2023-05-28T11:26:26Z</time>
      </trkpt>
      <trkpt lat="43.52891" lon="5.56941">
        <ele>465.1</ele>
        <time>2023-05-28T11:26:27Z</time>
      </trkpt>
      <trkpt lat="43.52891" lon="5.56941">
        <ele>465</ele>
        <time>2023-05-28T11:26:28Z</time>
      </trkpt>
      <trkpt lat="43.52891" lon="5.56941">
        <ele>465</ele>
        <time>2023-05-28T11:26:29Z</time>
      </trkpt>
      <trkpt lat="43.52891" lon="5.56941">
        <ele>464.9</ele>
        <time>2023-05-28T11:26:30Z</time>
      </trkpt>
      <trkpt lat="43.52891" lon="5.5694">
        <ele>464.9</ele>
        <time>2023-05-28T11:26:31Z</time>
      </trkpt>
      <trkpt lat="43.52891" lon="5.5694">
        <ele>464.9</ele>
        <time>2023-05-28T11:26:32Z</time>
      </trkpt>
      <trkpt lat="43.52891" lon="5.56941">
        <ele>464.9</ele>
        <time>2023-05-28T11:26:33Z</time>
      </trkpt>
      <trkpt lat="43.52891" lon="5.56941">
        <ele>464.9</ele>
        <time>2023-05-28T11:26:34Z</time>
      </trkpt>
      <trkpt lat="43.52891" lon="5.56941">
        <ele>464.9</ele>
        <time>2023-05-28T11:26:35Z</time>
      </trkpt>
      <trkpt lat="43.52891" lon="5.56941">
        <ele>464.8</ele>
        <time>2023-05-28T11:26:36Z</time>
      </trkpt>
      <trkpt lat="43.52891" lon="5.56941">
        <ele>464.8</ele>
        <time>2023-05-28T11:26:37Z</time>
      </trkpt>
      <trkpt lat="43.52891" lon="5.56941">
        <ele>464.8</ele>
        <time>2023-05-28T11:26:38Z</time>
      </trkpt>
      <trkpt lat="43.52891" lon="5.56941">
        <ele>464.8</ele>
        <time>2023-05-28T11:26:39Z</time>
      </trkpt>
      <trkpt lat="43.52891" lon="5.56941">
        <ele>464.8</ele>
        <time>2023-05-28T11:26:40Z</time>
      </trkpt>
      <trkpt lat="43.52891" lon="5.56941">
        <ele>464.7</ele>
        <time>2023-05-28T11:26:41Z</time>
      </trkpt>
      <trkpt lat="43.52891" lon="5.56941">
        <ele>464.7</ele>
        <time>2023-05-28T11:26:42Z</time>
      </trkpt>
      <trkpt lat="43.52891" lon="5.56941">
        <ele>464.7</ele>
        <time>2023-05-28T11:26:43Z</time>
      </trkpt>
      <trkpt lat="43.52891" lon="5.56941">
        <ele>464.7</ele>
        <time>2023-05-28T11:26:44Z</time>
      </trkpt>
      <trkpt lat="43.52891" lon="5.56941">
        <ele>464.7</ele>
        <time>2023-05-28T11:26:45Z</time>
      </trkpt>
      <trkpt lat="43.52891" lon="5.56941">
        <ele>464.7</ele>
        <time>2023-05-28T11:26:46Z</time>
      </trkpt>
      <trkpt lat="43.5289" lon="5.56941">
        <ele>464.7</ele>
        <time>2023-05-28T11:26:47Z</time>
      </trkpt>
      <trkpt lat="43.5289" lon="5.56941">
        <ele>464.8</ele>
        <time>2023-05-28T11:26:48Z</time>
      </trkpt>
      <trkpt lat="43.5289" lon="5.56942">
        <ele>464.8</ele>
        <time>2023-05-28T11:26:49Z</time>
      </trkpt>
      <trkpt lat="43.5289" lon="5.56942">
        <ele>464.8</ele>
        <time>2023-05-28T11:26:50Z</time>
      </trkpt>
      <trkpt lat="43.52891" lon="5.56942">
        <ele>464.8</ele>
        <time>2023-05-28T11:26:51Z</time>
      </trkpt>
      <trkpt lat="43.52891" lon="5.56942">
        <ele>464.8</ele>
        <time>2023-05-28T11:26:52Z</time>
      </trkpt>
      <trkpt lat="43.52891" lon="5.56942">
        <ele>464.8</ele>
        <time>2023-05-28T11:26:53Z</time>
      </trkpt>
      <trkpt lat="43.52891" lon="5.56943">
        <ele>464.8</ele>
        <time>2023-05-28T11:26:54Z</time>
      </trkpt>
      <trkpt lat="43.52891" lon="5.56943">
        <ele>464.8</ele>
        <time>2023-05-28T11:26:55Z</time>
      </trkpt>
      <trkpt lat="43.52891" lon="5.56943">
        <ele>464.8</ele>
        <time>2023-05-28T11:26:56Z</time>
      </trkpt>
      <trkpt lat="43.52891" lon="5.56943">
        <ele>464.9</ele>
        <time>2023-05-28T11:26:57Z</time>
      </trkpt>
      <trkpt lat="43.52891" lon="5.56943">
        <ele>464.8</ele>
        <time>2023-05-28T11:26:58Z</time>
      </trkpt>
      <trkpt lat="43.52891" lon="5.56943">
        <ele>464.8</ele>
        <time>2023-05-28T11:26:59Z</time>
      </trkpt>
      <trkpt lat="43.52891" lon="5.56943">
        <ele>464.7</ele>
        <time>2023-05-28T11:27:00Z</time>
      </trkpt>
      <trkpt lat="43.52891" lon="5.56943">
        <ele>464.8</ele>
        <time>2023-05-28T11:27:01Z</time>
      </trkpt>
      <trkpt lat="43.52891" lon="5.56943">
        <ele>464.8</ele>
        <time>2023-05-28T11:27:02Z</time>
      </trkpt>
      <trkpt lat="43.52891" lon="5.56943">
        <ele>464.8</ele>
        <time>2023-05-28T11:27:03Z</time>
      </trkpt>
      <trkpt lat="43.52891" lon="5.56943">
        <ele>464.7</ele>
        <time>2023-05-28T11:27:04Z</time>
      </trkpt>
      <trkpt lat="43.52891" lon="5.56943">
        <ele>464.8</ele>
        <time>2023-05-28T11:27:05Z</time>
      </trkpt>
      <trkpt lat="43.52891" lon="5.56943">
        <ele>464.8</ele>
        <time>2023-05-28T11:27:06Z</time>
      </trkpt>
      <trkpt lat="43.52891" lon="5.56943">
        <ele>464.8</ele>
        <time>2023-05-28T11:27:07Z</time>
      </trkpt>
      <trkpt lat="43.52891" lon="5.56943">
        <ele>464.9</ele>
        <time>2023-05-28T11:27:08Z</time>
      </trkpt>
      <trkpt lat="43.52891" lon="5.56943">
        <ele>464.9</ele>
        <time>2023-05-28T11:27:09Z</time>
      </trkpt>
      <trkpt lat="43.52891" lon="5.56943">
        <ele>465</ele>
        <time>2023-05-28T11:27:10Z</time>
      </trkpt>
      <trkpt lat="43.52891" lon="5.56943">
        <ele>465</ele>
        <time>2023-05-28T11:27:11Z</time>
      </trkpt>
      <trkpt lat="43.52891" lon="5.56943">
        <ele>465.1</ele>
        <time>2023-05-28T11:27:12Z</time>
      </trkpt>
      <trkpt lat="43.5289" lon="5.56943">
        <ele>465.1</ele>
        <time>2023-05-28T11:27:13Z</time>
      </trkpt>
      <trkpt lat="43.5289" lon="5.56943">
        <ele>465.1</ele>
        <time>2023-05-28T11:27:14Z</time>
      </trkpt>
      <trkpt lat="43.5289" lon="5.56943">
        <ele>465.2</ele>
        <time>2023-05-28T11:27:15Z</time>
      </trkpt>
      <trkpt lat="43.5289" lon="5.56943">
        <ele>465.1</ele>
        <time>2023-05-28T11:27:16Z</time>
      </trkpt>
      <trkpt lat="43.5289" lon="5.56943">
        <ele>465</ele>
        <time>2023-05-28T11:27:17Z</time>
      </trkpt>
      <trkpt lat="43.5289" lon="5.56943">
        <ele>465</ele>
        <time>2023-05-28T11:27:18Z</time>
      </trkpt>
      <trkpt lat="43.5289" lon="5.56943">
        <ele>464.9</ele>
        <time>2023-05-28T11:27:19Z</time>
      </trkpt>
      <trkpt lat="43.5289" lon="5.56943">
        <ele>464.9</ele>
        <time>2023-05-28T11:27:20Z</time>
      </trkpt>
      <trkpt lat="43.5289" lon="5.56942">
        <ele>464.9</ele>
        <time>2023-05-28T11:27:21Z</time>
      </trkpt>
      <trkpt lat="43.5289" lon="5.56942">
        <ele>465</ele>
        <time>2023-05-28T11:27:22Z</time>
      </trkpt>
      <trkpt lat="43.5289" lon="5.56942">
        <ele>465</ele>
        <time>2023-05-28T11:27:23Z</time>
      </trkpt>
      <trkpt lat="43.5289" lon="5.56942">
        <ele>465</ele>
        <time>2023-05-28T11:27:24Z</time>
      </trkpt>
      <trkpt lat="43.5289" lon="5.56942">
        <ele>465</ele>
        <time>2023-05-28T11:27:25Z</time>
      </trkpt>
      <trkpt lat="43.5289" lon="5.56942">
        <ele>465</ele>
        <time>2023-05-28T11:27:26Z</time>
      </trkpt>
      <trkpt lat="43.5289" lon="5.56942">
        <ele>465</ele>
        <time>2023-05-28T11:27:27Z</time>
      </trkpt>
      <trkpt lat="43.5289" lon="5.56942">
        <ele>465</ele>
        <time>2023-05-28T11:27:28Z</time>
      </trkpt>
      <trkpt lat="43.5289" lon="5.56942">
        <ele>464.9</ele>
        <time>2023-05-28T11:27:29Z</time>
      </trkpt>
      <trkpt lat="43.5289" lon="5.56941">
        <ele>464.9</ele>
        <time>2023-05-28T11:27:30Z</time>
      </trkpt>
      <trkpt lat="43.5289" lon="5.56941">
        <ele>464.9</ele>
        <time>2023-05-28T11:27:31Z</time>
      </trkpt>
      <trkpt lat="43.5289" lon="5.56941">
        <ele>464.9</ele>
        <time>2023-05-28T11:27:32Z</time>
      </trkpt>
      <trkpt lat="43.5289" lon="5.56941">
        <ele>464.9</ele>
        <time>2023-05-28T11:27:33Z</time>
      </trkpt>
      <trkpt lat="43.5289" lon="5.56941">
        <ele>465.1</ele>
        <time>2023-05-28T11:27:34Z</time>
      </trkpt>
      <trkpt lat="43.5289" lon="5.56941">
        <ele>465.1</ele>
        <time>2023-05-28T11:27:35Z</time>
      </trkpt>
      <trkpt lat="43.5289" lon="5.5694">
        <ele>465</ele>
        <time>2023-05-28T11:27:36Z</time>
      </trkpt>
      <trkpt lat="43.5289" lon="5.5694">
        <ele>465</ele>
        <time>2023-05-28T11:27:37Z</time>
      </trkpt>
      <trkpt lat="43.5289" lon="5.5694">
        <ele>465</ele>
        <time>2023-05-28T11:27:38Z</time>
      </trkpt>
      <trkpt lat="43.5289" lon="5.5694">
        <ele>465</ele>
        <time>2023-05-28T11:27:39Z</time>
      </trkpt>
      <trkpt lat="43.5289" lon="5.5694">
        <ele>465.1</ele>
        <time>2023-05-28T11:27:40Z</time>
      </trkpt>
      <trkpt lat="43.5289" lon="5.5694">
        <ele>465</ele>
        <time>2023-05-28T11:27:41Z</time>
      </trkpt>
      <trkpt lat="43.5289" lon="5.5694">
        <ele>464.9</ele>
        <time>2023-05-28T11:27:42Z</time>
      </trkpt>
      <trkpt lat="43.5289" lon="5.5694">
        <ele>464.9</ele>
        <time>2023-05-28T11:27:43Z</time>
      </trkpt>
      <trkpt lat="43.5289" lon="5.56939">
        <ele>464.9</ele>
        <time>2023-05-28T11:27:44Z</time>
      </trkpt>
      <trkpt lat="43.5289" lon="5.56939">
        <ele>464.9</ele>
        <time>2023-05-28T11:27:45Z</time>
      </trkpt>
      <trkpt lat="43.5289" lon="5.56939">
        <ele>464.9</ele>
        <time>2023-05-28T11:27:46Z</time>
      </trkpt>
      <trkpt lat="43.5289" lon="5.56939">
        <ele>464.9</ele>
        <time>2023-05-28T11:27:47Z</time>
      </trkpt>
      <trkpt lat="43.5289" lon="5.56939">
        <ele>464.9</ele>
        <time>2023-05-28T11:27:48Z</time>
      </trkpt>
      <trkpt lat="43.5289" lon="5.56938">
        <ele>464.9</ele>
        <time>2023-05-28T11:27:49Z</time>
      </trkpt>
      <trkpt lat="43.5289" lon="5.56938">
        <ele>464.9</ele>
        <time>2023-05-28T11:27:50Z</time>
      </trkpt>
      <trkpt lat="43.5289" lon="5.56938">
        <ele>465</ele>
        <time>2023-05-28T11:27:51Z</time>
      </trkpt>
      <trkpt lat="43.5289" lon="5.56938">
        <ele>465</ele>
        <time>2023-05-28T11:27:52Z</time>
      </trkpt>
      <trkpt lat="43.5289" lon="5.56938">
        <ele>465</ele>
        <time>2023-05-28T11:27:53Z</time>
      </trkpt>
      <trkpt lat="43.5289" lon="5.56938">
        <ele>465</ele>
        <time>2023-05-28T11:27:54Z</time>
      </trkpt>
      <trkpt lat="43.5289" lon="5.56938">
        <ele>465</ele>
        <time>2023-05-28T11:27:55Z</time>
      </trkpt>
      <trkpt lat="43.5289" lon="5.56938">
        <ele>464.9</ele>
        <time>2023-05-28T11:27:56Z</time>
      </trkpt>
      <trkpt lat="43.5289" lon="5.56938">
        <ele>464.9</ele>
        <time>2023-05-28T11:27:57Z</time>
      </trkpt>
      <trkpt lat="43.5289" lon="5.56938">
        <ele>464.8</ele>
        <time>2023-05-28T11:27:58Z</time>
      </trkpt>
      <trkpt lat="43.5289" lon="5.56938">
        <ele>464.8</ele>
        <time>2023-05-28T11:27:59Z</time>
      </trkpt>
      <trkpt lat="43.5289" lon="5.56938">
        <ele>464.8</ele>
        <time>2023-05-28T11:28:00Z</time>
      </trkpt>
      <trkpt lat="43.52891" lon="5.56938">
        <ele>464.9</ele>
        <time>2023-05-28T11:28:01Z</time>
      </trkpt>
      <trkpt lat="43.52891" lon="5.56938">
        <ele>465</ele>
        <time>2023-05-28T11:28:02Z</time>
      </trkpt>
      <trkpt lat="43.52891" lon="5.56938">
        <ele>465</ele>
        <time>2023-05-28T11:28:03Z</time>
      </trkpt>
      <trkpt lat="43.52891" lon="5.56938">
        <ele>464.9</ele>
        <time>2023-05-28T11:28:04Z</time>
      </trkpt>
      <trkpt lat="43.52891" lon="5.56938">
        <ele>465</ele>
        <time>2023-05-28T11:28:05Z</time>
      </trkpt>
      <trkpt lat="43.52891" lon="5.56938">
        <ele>465.1</ele>
        <time>2023-05-28T11:28:06Z</time>
      </trkpt>
      <trkpt lat="43.52892" lon="5.56938">
        <ele>465</ele>
        <time>2023-05-28T11:28:07Z</time>
      </trkpt>
      <trkpt lat="43.52892" lon="5.56938">
        <ele>465</ele>
        <time>2023-05-28T11:28:08Z</time>
      </trkpt>
      <trkpt lat="43.52892" lon="5.56938">
        <ele>464.9</ele>
        <time>2023-05-28T11:28:09Z</time>
      </trkpt>
      <trkpt lat="43.52892" lon="5.56938">
        <ele>464.9</ele>
        <time>2023-05-28T11:28:10Z</time>
      </trkpt>
      <trkpt lat="43.52892" lon="5.56938">
        <ele>464.9</ele>
        <time>2023-05-28T11:28:11Z</time>
      </trkpt>
      <trkpt lat="43.52892" lon="5.56938">
        <ele>464.9</ele>
        <time>2023-05-28T11:28:12Z</time>
      </trkpt>
      <trkpt lat="43.52892" lon="5.56938">
        <ele>464.8</ele>
        <time>2023-05-28T11:28:13Z</time>
      </trkpt>
      <trkpt lat="43.52893" lon="5.56938">
        <ele>464.8</ele>
        <time>2023-05-28T11:28:14Z</time>
      </trkpt>
      <trkpt lat="43.52893" lon="5.56938">
        <ele>464.8</ele>
        <time>2023-05-28T11:28:15Z</time>
      </trkpt>
      <trkpt lat="43.52893" lon="5.56938">
        <ele>464.9</ele>
        <time>2023-05-28T11:28:16Z</time>
      </trkpt>
      <trkpt lat="43.52893" lon="5.56938">
        <ele>464.9</ele>
        <time>2023-05-28T11:28:17Z</time>
      </trkpt>
      <trkpt lat="43.52893" lon="5.56938">
        <ele>464.9</ele>
        <time>2023-05-28T11:28:18Z</time>
      </trkpt>
      <trkpt lat="43.52893" lon="5.56938">
        <ele>465</ele>
        <time>2023-05-28T11:28:19Z</time>
      </trkpt>
      <trkpt lat="43.52893" lon="5.56938">
        <ele>465</ele>
        <time>2023-05-28T11:28:20Z</time>
      </trkpt>
      <trkpt lat="43.52894" lon="5.56938">
        <ele>465</ele>
        <time>2023-05-28T11:28:21Z</time>
      </trkpt>
      <trkpt lat="43.52894" lon="5.56938">
        <ele>465</ele>
        <time>2023-05-28T11:28:22Z</time>
      </trkpt>
      <trkpt lat="43.52894" lon="5.56938">
        <ele>465</ele>
        <time>2023-05-28T11:28:23Z</time>
      </trkpt>
      <trkpt lat="43.52894" lon="5.56938">
        <ele>465</ele>
        <time>2023-05-28T11:28:24Z</time>
      </trkpt>
      <trkpt lat="43.52894" lon="5.56938">
        <ele>465.1</ele>
        <time>2023-05-28T11:28:25Z</time>
      </trkpt>
      <trkpt lat="43.52894" lon="5.56938">
        <ele>465.1</ele>
        <time>2023-05-28T11:28:26Z</time>
      </trkpt>
      <trkpt lat="43.52894" lon="5.56938">
        <ele>465.1</ele>
        <time>2023-05-28T11:28:27Z</time>
      </trkpt>
      <trkpt lat="43.52894" lon="5.56938">
        <ele>465.1</ele>
        <time>2023-05-28T11:28:28Z</time>
      </trkpt>
      <trkpt lat="43.52894" lon="5.56938">
        <ele>465.1</ele>
        <time>2023-05-28T11:28:29Z</time>
      </trkpt>
      <trkpt lat="43.52894" lon="5.56938">
        <ele>465.1</ele>
        <time>2023-05-28T11:28:30Z</time>
      </trkpt>
      <trkpt lat="43.52894" lon="5.56938">
        <ele>465.1</ele>
        <time>2023-05-28T11:28:31Z</time>
      </trkpt>
      <trkpt lat="43.52894" lon="5.56938">
        <ele>465</ele>
        <time>2023-05-28T11:28:32Z</time>
      </trkpt>
      <trkpt lat="43.52894" lon="5.56939">
        <ele>465</ele>
        <time>2023-05-28T11:28:33Z</time>
      </trkpt>
      <trkpt lat="43.52894" lon="5.56939">
        <ele>465</ele>
        <time>2023-05-28T11:28:34Z</time>
      </trkpt>
      <trkpt lat="43.52894" lon="5.56938">
        <ele>465</ele>
        <time>2023-05-28T11:28:35Z</time>
      </trkpt>
      <trkpt lat="43.52894" lon="5.56939">
        <ele>465</ele>
        <time>2023-05-28T11:28:36Z</time>
      </trkpt>
      <trkpt lat="43.52894" lon="5.56939">
        <ele>464.9</ele>
        <time>2023-05-28T11:28:37Z</time>
      </trkpt>
      <trkpt lat="43.52893" lon="5.56939">
        <ele>465</ele>
        <time>2023-05-28T11:28:38Z</time>
      </trkpt>
      <trkpt lat="43.52893" lon="5.56939">
        <ele>465</ele>
        <time>2023-05-28T11:28:39Z</time>
      </trkpt>
      <trkpt lat="43.52893" lon="5.56939">
        <ele>465</ele>
        <time>2023-05-28T11:28:40Z</time>
      </trkpt>
      <trkpt lat="43.52893" lon="5.56939">
        <ele>465</ele>
        <time>2023-05-28T11:28:41Z</time>
      </trkpt>
      <trkpt lat="43.52893" lon="5.56939">
        <ele>465</ele>
        <time>2023-05-28T11:28:42Z</time>
      </trkpt>
      <trkpt lat="43.52893" lon="5.56939">
        <ele>465</ele>
        <time>2023-05-28T11:28:43Z</time>
      </trkpt>
      <trkpt lat="43.52892" lon="5.56939">
        <ele>465.1</ele>
        <time>2023-05-28T11:28:44Z</time>
      </trkpt>
      <trkpt lat="43.52892" lon="5.56939">
        <ele>465.1</ele>
        <time>2023-05-28T11:28:45Z</time>
      </trkpt>
      <trkpt lat="43.52892" lon="5.56939">
        <ele>465.1</ele>
        <time>2023-05-28T11:28:46Z</time>
      </trkpt>
      <trkpt lat="43.52892" lon="5.56939">
        <ele>465.2</ele>
        <time>2023-05-28T11:28:47Z</time>
      </trkpt>
      <trkpt lat="43.52892" lon="5.56939">
        <ele>465.2</ele>
        <time>2023-05-28T11:28:48Z</time>
      </trkpt>
      <trkpt lat="43.52892" lon="5.56939">
        <ele>465.2</ele>
        <time>2023-05-28T11:28:49Z</time>
      </trkpt>
      <trkpt lat="43.52892" lon="5.56939">
        <ele>465.2</ele>
        <time>2023-05-28T11:28:50Z</time>
      </trkpt>
      <trkpt lat="43.52892" lon="5.56939">
        <ele>465.2</ele>
        <time>2023-05-28T11:28:51Z</time>
      </trkpt>
      <trkpt lat="43.52892" lon="5.56939">
        <ele>465.2</ele>
        <time>2023-05-28T11:28:52Z</time>
      </trkpt>
      <trkpt lat="43.52892" lon="5.56939">
        <ele>465.2</ele>
        <time>2023-05-28T11:28:53Z</time>
      </trkpt>
      <trkpt lat="43.52891" lon="5.56939">
        <ele>465.2</ele>
        <time>2023-05-28T11:28:54Z</time>
      </trkpt>
      <trkpt lat="43.52891" lon="5.56939">
        <ele>465.1</ele>
        <time>2023-05-28T11:28:55Z</time>
      </trkpt>
      <trkpt lat="43.52891" lon="5.56939">
        <ele>465.1</ele>
        <time>2023-05-28T11:28:56Z</time>
      </trkpt>
      <trkpt lat="43.52891" lon="5.56939">
        <ele>465</ele>
        <time>2023-05-28T11:28:57Z</time>
      </trkpt>
      <trkpt lat="43.52891" lon="5.56939">
        <ele>465</ele>
        <time>2023-05-28T11:28:58Z</time>
      </trkpt>
      <trkpt lat="43.52891" lon="5.56938">
        <ele>465.1</ele>
        <time>2023-05-28T11:28:59Z</time>
      </trkpt>
      <trkpt lat="43.52891" lon="5.56938">
        <ele>465.1</ele>
        <time>2023-05-28T11:29:00Z</time>
      </trkpt>
      <trkpt lat="43.52891" lon="5.56938">
        <ele>465.1</ele>
        <time>2023-05-28T11:29:01Z</time>
      </trkpt>
      <trkpt lat="43.52891" lon="5.56938">
        <ele>465.1</ele>
        <time>2023-05-28T11:29:02Z</time>
      </trkpt>
      <trkpt lat="43.52891" lon="5.56938">
        <ele>465.1</ele>
        <time>2023-05-28T11:29:03Z</time>
      </trkpt>
      <trkpt lat="43.52891" lon="5.56938">
        <ele>465.1</ele>
        <time>2023-05-28T11:29:04Z</time>
      </trkpt>
      <trkpt lat="43.52891" lon="5.56938">
        <ele>465.1</ele>
        <time>2023-05-28T11:29:05Z</time>
      </trkpt>
      <trkpt lat="43.52891" lon="5.56938">
        <ele>465.1</ele>
        <time>2023-05-28T11:29:06Z</time>
      </trkpt>
      <trkpt lat="43.52891" lon="5.56938">
        <ele>465.1</ele>
        <time>2023-05-28T11:29:07Z</time>
      </trkpt>
      <trkpt lat="43.52891" lon="5.56938">
        <ele>465.2</ele>
        <time>2023-05-28T11:29:08Z</time>
      </trkpt>
      <trkpt lat="43.52891" lon="5.56937">
        <ele>465.2</ele>
        <time>2023-05-28T11:29:09Z</time>
      </trkpt>
      <trkpt lat="43.52891" lon="5.56937">
        <ele>465.2</ele>
        <time>2023-05-28T11:29:10Z</time>
      </trkpt>
      <trkpt lat="43.52891" lon="5.56937">
        <ele>465.1</ele>
        <time>2023-05-28T11:29:11Z</time>
      </trkpt>
      <trkpt lat="43.52891" lon="5.56937">
        <ele>465.1</ele>
        <time>2023-05-28T11:29:12Z</time>
      </trkpt>
      <trkpt lat="43.52891" lon="5.56937">
        <ele>465</ele>
        <time>2023-05-28T11:29:13Z</time>
      </trkpt>
      <trkpt lat="43.52891" lon="5.56937">
        <ele>465</ele>
        <time>2023-05-28T11:29:14Z</time>
      </trkpt>
      <trkpt lat="43.52891" lon="5.56937">
        <ele>465</ele>
        <time>2023-05-28T11:29:15Z</time>
      </trkpt>
      <trkpt lat="43.52891" lon="5.56937">
        <ele>465</ele>
        <time>2023-05-28T11:29:16Z</time>
      </trkpt>
      <trkpt lat="43.5289" lon="5.56937">
        <ele>465</ele>
        <time>2023-05-28T11:29:17Z</time>
      </trkpt>
      <trkpt lat="43.5289" lon="5.56937">
        <ele>465</ele>
        <time>2023-05-28T11:29:18Z</time>
      </trkpt>
      <trkpt lat="43.5289" lon="5.56936">
        <ele>465</ele>
        <time>2023-05-28T11:29:19Z</time>
      </trkpt>
      <trkpt lat="43.5289" lon="5.56936">
        <ele>465</ele>
        <time>2023-05-28T11:29:20Z</time>
      </trkpt>
      <trkpt lat="43.5289" lon="5.56936">
        <ele>465</ele>
        <time>2023-05-28T11:29:21Z</time>
      </trkpt>
      <trkpt lat="43.5289" lon="5.56936">
        <ele>465</ele>
        <time>2023-05-28T11:29:22Z</time>
      </trkpt>
      <trkpt lat="43.5289" lon="5.56936">
        <ele>465</ele>
        <time>2023-05-28T11:29:23Z</time>
      </trkpt>
      <trkpt lat="43.5289" lon="5.56936">
        <ele>465.1</ele>
        <time>2023-05-28T11:29:24Z</time>
      </trkpt>
      <trkpt lat="43.5289" lon="5.56936">
        <ele>465.1</ele>
        <time>2023-05-28T11:29:25Z</time>
      </trkpt>
      <trkpt lat="43.5289" lon="5.56936">
        <ele>465.1</ele>
        <time>2023-05-28T11:29:26Z</time>
      </trkpt>
      <trkpt lat="43.5289" lon="5.56936">
        <ele>465.1</ele>
        <time>2023-05-28T11:29:27Z</time>
      </trkpt>
      <trkpt lat="43.5289" lon="5.56936">
        <ele>465.1</ele>
        <time>2023-05-28T11:29:28Z</time>
      </trkpt>
      <trkpt lat="43.5289" lon="5.56936">
        <ele>465.1</ele>
        <time>2023-05-28T11:29:29Z</time>
      </trkpt>
      <trkpt lat="43.5289" lon="5.56936">
        <ele>465.1</ele>
        <time>2023-05-28T11:29:30Z</time>
      </trkpt>
      <trkpt lat="43.5289" lon="5.56936">
        <ele>465.1</ele>
        <time>2023-05-28T11:29:31Z</time>
      </trkpt>
      <trkpt lat="43.52889" lon="5.56936">
        <ele>465.1</ele>
        <time>2023-05-28T11:29:32Z</time>
      </trkpt>
      <trkpt lat="43.52889" lon="5.56936">
        <ele>465.1</ele>
        <time>2023-05-28T11:29:33Z</time>
      </trkpt>
      <trkpt lat="43.5289" lon="5.56936">
        <ele>465.1</ele>
        <time>2023-05-28T11:29:34Z</time>
      </trkpt>
      <trkpt lat="43.5289" lon="5.56936">
        <ele>465.1</ele>
        <time>2023-05-28T11:29:35Z</time>
      </trkpt>
      <trkpt lat="43.5289" lon="5.56935">
        <ele>465.1</ele>
        <time>2023-05-28T11:29:36Z</time>
      </trkpt>
      <trkpt lat="43.5289" lon="5.56935">
        <ele>465.1</ele>
        <time>2023-05-28T11:29:37Z</time>
      </trkpt>
      <trkpt lat="43.5289" lon="5.56935">
        <ele>465</ele>
        <time>2023-05-28T11:29:38Z</time>
      </trkpt>
      <trkpt lat="43.5289" lon="5.56935">
        <ele>465</ele>
        <time>2023-05-28T11:29:39Z</time>
      </trkpt>
      <trkpt lat="43.5289" lon="5.56935">
        <ele>465</ele>
        <time>2023-05-28T11:29:40Z</time>
      </trkpt>
      <trkpt lat="43.5289" lon="5.56935">
        <ele>465</ele>
        <time>2023-05-28T11:29:41Z</time>
      </trkpt>
      <trkpt lat="43.5289" lon="5.56935">
        <ele>465</ele>
        <time>2023-05-28T11:29:42Z</time>
      </trkpt>
      <trkpt lat="43.5289" lon="5.56935">
        <ele>464.9</ele>
        <time>2023-05-28T11:29:43Z</time>
      </trkpt>
      <trkpt lat="43.5289" lon="5.56935">
        <ele>464.9</ele>
        <time>2023-05-28T11:29:44Z</time>
      </trkpt>
      <trkpt lat="43.52889" lon="5.56935">
        <ele>464.9</ele>
        <time>2023-05-28T11:29:45Z</time>
      </trkpt>
      <trkpt lat="43.52889" lon="5.56935">
        <ele>464.9</ele>
        <time>2023-05-28T11:29:46Z</time>
      </trkpt>
      <trkpt lat="43.5289" lon="5.56935">
        <ele>464.9</ele>
        <time>2023-05-28T11:29:47Z</time>
      </trkpt>
      <trkpt lat="43.5289" lon="5.56935">
        <ele>465</ele>
        <time>2023-05-28T11:29:48Z</time>
      </trkpt>
      <trkpt lat="43.5289" lon="5.56935">
        <ele>465</ele>
        <time>2023-05-28T11:29:49Z</time>
      </trkpt>
      <trkpt lat="43.5289" lon="5.56935">
        <ele>465.1</ele>
        <time>2023-05-28T11:29:50Z</time>
      </trkpt>
      <trkpt lat="43.5289" lon="5.56935">
        <ele>465</ele>
        <time>2023-05-28T11:29:51Z</time>
      </trkpt>
      <trkpt lat="43.5289" lon="5.56935">
        <ele>465</ele>
        <time>2023-05-28T11:29:52Z</time>
      </trkpt>
      <trkpt lat="43.5289" lon="5.56935">
        <ele>465.1</ele>
        <time>2023-05-28T11:29:53Z</time>
      </trkpt>
      <trkpt lat="43.5289" lon="5.56935">
        <ele>465.1</ele>
        <time>2023-05-28T11:29:54Z</time>
      </trkpt>
      <trkpt lat="43.5289" lon="5.56935">
        <ele>465.1</ele>
        <time>2023-05-28T11:29:55Z</time>
      </trkpt>
      <trkpt lat="43.5289" lon="5.56935">
        <ele>465.1</ele>
        <time>2023-05-28T11:29:56Z</time>
      </trkpt>
      <trkpt lat="43.5289" lon="5.56935">
        <ele>465.2</ele>
        <time>2023-05-28T11:29:57Z</time>
      </trkpt>
      <trkpt lat="43.5289" lon="5.56935">
        <ele>465.2</ele>
        <time>2023-05-28T11:29:58Z</time>
      </trkpt>
      <trkpt lat="43.5289" lon="5.56935">
        <ele>465.3</ele>
        <time>2023-05-28T11:29:59Z</time>
      </trkpt>
      <trkpt lat="43.5289" lon="5.56935">
        <ele>465.3</ele>
        <time>2023-05-28T11:30:00Z</time>
      </trkpt>
      <trkpt lat="43.52891" lon="5.56935">
        <ele>465.3</ele>
        <time>2023-05-28T11:30:01Z</time>
      </trkpt>
      <trkpt lat="43.52891" lon="5.56935">
        <ele>465.3</ele>
        <time>2023-05-28T11:30:02Z</time>
      </trkpt>
      <trkpt lat="43.52891" lon="5.56935">
        <ele>465.3</ele>
        <time>2023-05-28T11:30:03Z</time>
      </trkpt>
      <trkpt lat="43.52891" lon="5.56935">
        <ele>465.3</ele>
        <time>2023-05-28T11:30:04Z</time>
      </trkpt>
      <trkpt lat="43.52891" lon="5.56935">
        <ele>465.2</ele>
        <time>2023-05-28T11:30:05Z</time>
      </trkpt>
      <trkpt lat="43.52891" lon="5.56935">
        <ele>465.1</ele>
        <time>2023-05-28T11:30:06Z</time>
      </trkpt>
      <trkpt lat="43.52892" lon="5.56935">
        <ele>465.1</ele>
        <time>2023-05-28T11:30:07Z</time>
      </trkpt>
      <trkpt lat="43.52891" lon="5.56935">
        <ele>465</ele>
        <time>2023-05-28T11:30:08Z</time>
      </trkpt>
      <trkpt lat="43.52891" lon="5.56935">
        <ele>465</ele>
        <time>2023-05-28T11:30:09Z</time>
      </trkpt>
      <trkpt lat="43.52891" lon="5.56935">
        <ele>465</ele>
        <time>2023-05-28T11:30:10Z</time>
      </trkpt>
      <trkpt lat="43.52891" lon="5.56934">
        <ele>465</ele>
        <time>2023-05-28T11:30:11Z</time>
      </trkpt>
      <trkpt lat="43.52892" lon="5.56934">
        <ele>465</ele>
        <time>2023-05-28T11:30:12Z</time>
      </trkpt>
      <trkpt lat="43.52891" lon="5.56934">
        <ele>465</ele>
        <time>2023-05-28T11:30:13Z</time>
      </trkpt>
      <trkpt lat="43.52891" lon="5.56934">
        <ele>465</ele>
        <time>2023-05-28T11:30:14Z</time>
      </trkpt>
      <trkpt lat="43.52891" lon="5.56934">
        <ele>465.1</ele>
        <time>2023-05-28T11:30:15Z</time>
      </trkpt>
      <trkpt lat="43.52891" lon="5.56934">
        <ele>465</ele>
        <time>2023-05-28T11:30:16Z</time>
      </trkpt>
      <trkpt lat="43.52892" lon="5.56934">
        <ele>465.1</ele>
        <time>2023-05-28T11:30:17Z</time>
      </trkpt>
      <trkpt lat="43.52892" lon="5.56934">
        <ele>465.1</ele>
        <time>2023-05-28T11:30:18Z</time>
      </trkpt>
      <trkpt lat="43.52892" lon="5.56934">
        <ele>465.1</ele>
        <time>2023-05-28T11:30:19Z</time>
      </trkpt>
      <trkpt lat="43.52892" lon="5.56934">
        <ele>465.1</ele>
        <time>2023-05-28T11:30:20Z</time>
      </trkpt>
      <trkpt lat="43.52892" lon="5.56934">
        <ele>465.2</ele>
        <time>2023-05-28T11:30:21Z</time>
      </trkpt>
      <trkpt lat="43.52892" lon="5.56935">
        <ele>465.2</ele>
        <time>2023-05-28T11:30:22Z</time>
      </trkpt>
      <trkpt lat="43.52892" lon="5.56935">
        <ele>465.2</ele>
        <time>2023-05-28T11:30:23Z</time>
      </trkpt>
      <trkpt lat="43.52892" lon="5.56935">
        <ele>465.2</ele>
        <time>2023-05-28T11:30:24Z</time>
      </trkpt>
      <trkpt lat="43.52892" lon="5.56935">
        <ele>465.2</ele>
        <time>2023-05-28T11:30:25Z</time>
      </trkpt>
      <trkpt lat="43.52892" lon="5.56935">
        <ele>465.2</ele>
        <time>2023-05-28T11:30:26Z</time>
      </trkpt>
      <trkpt lat="43.52892" lon="5.56935">
        <ele>465.2</ele>
        <time>2023-05-28T11:30:27Z</time>
      </trkpt>
      <trkpt lat="43.52892" lon="5.56934">
        <ele>465.2</ele>
        <time>2023-05-28T11:30:28Z</time>
      </trkpt>
      <trkpt lat="43.52892" lon="5.56934">
        <ele>465.2</ele>
        <time>2023-05-28T11:30:29Z</time>
      </trkpt>
      <trkpt lat="43.52892" lon="5.56934">
        <ele>465.2</ele>
        <time>2023-05-28T11:30:30Z</time>
      </trkpt>
      <trkpt lat="43.52892" lon="5.56934">
        <ele>465.2</ele>
        <time>2023-05-28T11:30:31Z</time>
      </trkpt>
      <trkpt lat="43.52892" lon="5.56934">
        <ele>465.2</ele>
        <time>2023-05-28T11:30:32Z</time>
      </trkpt>
      <trkpt lat="43.52892" lon="5.56934">
        <ele>465.1</ele>
        <time>2023-05-28T11:30:33Z</time>
      </trkpt>
      <trkpt lat="43.52892" lon="5.56934">
        <ele>465.1</ele>
        <time>2023-05-28T11:30:34Z</time>
      </trkpt>
      <trkpt lat="43.52892" lon="5.56934">
        <ele>465.1</ele>
        <time>2023-05-28T11:30:35Z</time>
      </trkpt>
      <trkpt lat="43.52892" lon="5.56934">
        <ele>465.1</ele>
        <time>2023-05-28T11:30:36Z</time>
      </trkpt>
      <trkpt lat="43.52892" lon="5.56934">
        <ele>465.1</ele>
        <time>2023-05-28T11:30:37Z</time>
      </trkpt>
      <trkpt lat="43.52892" lon="5.56934">
        <ele>465.1</ele>
        <time>2023-05-28T11:30:38Z</time>
      </trkpt>
      <trkpt lat="43.52892" lon="5.56934">
        <ele>465.1</ele>
        <time>2023-05-28T11:30:39Z</time>
      </trkpt>
      <trkpt lat="43.52892" lon="5.56934">
        <ele>465.1</ele>
        <time>2023-05-28T11:30:40Z</time>
      </trkpt>
      <trkpt lat="43.52892" lon="5.56934">
        <ele>465.1</ele>
        <time>2023-05-28T11:30:41Z</time>
      </trkpt>
      <trkpt lat="43.52892" lon="5.56934">
        <ele>465.1</ele>
        <time>2023-05-28T11:30:42Z</time>
      </trkpt>
      <trkpt lat="43.52891" lon="5.56934">
        <ele>465.1</ele>
        <time>2023-05-28T11:30:43Z</time>
      </trkpt>
      <trkpt lat="43.52891" lon="5.56934">
        <ele>465</ele>
        <time>2023-05-28T11:30:44Z</time>
      </trkpt>
      <trkpt lat="43.52891" lon="5.56934">
        <ele>465</ele>
        <time>2023-05-28T11:30:45Z</time>
      </trkpt>
      <trkpt lat="43.52891" lon="5.56934">
        <ele>465</ele>
        <time>2023-05-28T11:30:46Z</time>
      </trkpt>
      <trkpt lat="43.52891" lon="5.56934">
        <ele>465</ele>
        <time>2023-05-28T11:30:47Z</time>
      </trkpt>
      <trkpt lat="43.52891" lon="5.56934">
        <ele>464.9</ele>
        <time>2023-05-28T11:30:48Z</time>
      </trkpt>
      <trkpt lat="43.52891" lon="5.56934">
        <ele>464.9</ele>
        <time>2023-05-28T11:30:49Z</time>
      </trkpt>
      <trkpt lat="43.52891" lon="5.56934">
        <ele>464.9</ele>
        <time>2023-05-28T11:30:50Z</time>
      </trkpt>
      <trkpt lat="43.52891" lon="5.56934">
        <ele>464.8</ele>
        <time>2023-05-28T11:30:51Z</time>
      </trkpt>
      <trkpt lat="43.52891" lon="5.56934">
        <ele>464.8</ele>
        <time>2023-05-28T11:30:52Z</time>
      </trkpt>
      <trkpt lat="43.52891" lon="5.56934">
        <ele>464.8</ele>
        <time>2023-05-28T11:30:53Z</time>
      </trkpt>
      <trkpt lat="43.52891" lon="5.56935">
        <ele>464.8</ele>
        <time>2023-05-28T11:30:54Z</time>
      </trkpt>
      <trkpt lat="43.52891" lon="5.56935">
        <ele>464.8</ele>
        <time>2023-05-28T11:30:55Z</time>
      </trkpt>
      <trkpt lat="43.52891" lon="5.56935">
        <ele>464.8</ele>
        <time>2023-05-28T11:30:56Z</time>
      </trkpt>
      <trkpt lat="43.52891" lon="5.56935">
        <ele>464.9</ele>
        <time>2023-05-28T11:30:57Z</time>
      </trkpt>
      <trkpt lat="43.52891" lon="5.56935">
        <ele>464.9</ele>
        <time>2023-05-28T11:30:58Z</time>
      </trkpt>
      <trkpt lat="43.52891" lon="5.56935">
        <ele>464.9</ele>
        <time>2023-05-28T11:30:59Z</time>
      </trkpt>
      <trkpt lat="43.52891" lon="5.56935">
        <ele>464.9</ele>
        <time>2023-05-28T11:31:00Z</time>
      </trkpt>
      <trkpt lat="43.52891" lon="5.56935">
        <ele>464.9</ele>
        <time>2023-05-28T11:31:01Z</time>
      </trkpt>
      <trkpt lat="43.52891" lon="5.56935">
        <ele>464.8</ele>
        <time>2023-05-28T11:31:02Z</time>
      </trkpt>
      <trkpt lat="43.52891" lon="5.56935">
        <ele>464.8</ele>
        <time>2023-05-28T11:31:03Z</time>
      </trkpt>
      <trkpt lat="43.52891" lon="5.56936">
        <ele>464.8</ele>
        <time>2023-05-28T11:31:04Z</time>
      </trkpt>
      <trkpt lat="43.52891" lon="5.56936">
        <ele>464.8</ele>
        <time>2023-05-28T11:31:05Z</time>
      </trkpt>
      <trkpt lat="43.52891" lon="5.56936">
        <ele>464.8</ele>
        <time>2023-05-28T11:31:06Z</time>
      </trkpt>
      <trkpt lat="43.52891" lon="5.56936">
        <ele>464.9</ele>
        <time>2023-05-28T11:31:07Z</time>
      </trkpt>
      <trkpt lat="43.52891" lon="5.56937">
        <ele>464.9</ele>
        <time>2023-05-28T11:31:08Z</time>
      </trkpt>
      <trkpt lat="43.52891" lon="5.56937">
        <ele>464.9</ele>
        <time>2023-05-28T11:31:09Z</time>
      </trkpt>
      <trkpt lat="43.52891" lon="5.56937">
        <ele>464.9</ele>
        <time>2023-05-28T11:31:10Z</time>
      </trkpt>
      <trkpt lat="43.52891" lon="5.56937">
        <ele>464.9</ele>
        <time>2023-05-28T11:31:11Z</time>
      </trkpt>
      <trkpt lat="43.52891" lon="5.56937">
        <ele>464.9</ele>
        <time>2023-05-28T11:31:12Z</time>
      </trkpt>
      <trkpt lat="43.52891" lon="5.56937">
        <ele>464.8</ele>
        <time>2023-05-28T11:31:13Z</time>
      </trkpt>
      <trkpt lat="43.52891" lon="5.56937">
        <ele>464.8</ele>
        <time>2023-05-28T11:31:14Z</time>
      </trkpt>
      <trkpt lat="43.52891" lon="5.56937">
        <ele>464.8</ele>
        <time>2023-05-28T11:31:15Z</time>
      </trkpt>
      <trkpt lat="43.52891" lon="5.56937">
        <ele>464.8</ele>
        <time>2023-05-28T11:31:16Z</time>
      </trkpt>
      <trkpt lat="43.52891" lon="5.56937">
        <ele>464.6</ele>
        <time>2023-05-28T11:31:17Z</time>
      </trkpt>
      <trkpt lat="43.52891" lon="5.56937">
        <ele>464.7</ele>
        <time>2023-05-28T11:31:18Z</time>
      </trkpt>
      <trkpt lat="43.52891" lon="5.56937">
        <ele>464.8</ele>
        <time>2023-05-28T11:31:19Z</time>
      </trkpt>
      <trkpt lat="43.52891" lon="5.56937">
        <ele>464.9</ele>
        <time>2023-05-28T11:31:20Z</time>
      </trkpt>
      <trkpt lat="43.52891" lon="5.56937">
        <ele>464.9</ele>
        <time>2023-05-28T11:31:21Z</time>
      </trkpt>
      <trkpt lat="43.52891" lon="5.56937">
        <ele>464.9</ele>
        <time>2023-05-28T11:31:22Z</time>
      </trkpt>
      <trkpt lat="43.52891" lon="5.56937">
        <ele>465</ele>
        <time>2023-05-28T11:31:23Z</time>
      </trkpt>
      <trkpt lat="43.52891" lon="5.56937">
        <ele>465</ele>
        <time>2023-05-28T11:31:24Z</time>
      </trkpt>
      <trkpt lat="43.52891" lon="5.56937">
        <ele>465</ele>
        <time>2023-05-28T11:31:25Z</time>
      </trkpt>
      <trkpt lat="43.52891" lon="5.56936">
        <ele>464.9</ele>
        <time>2023-05-28T11:31:26Z</time>
      </trkpt>
      <trkpt lat="43.5289" lon="5.56936">
        <ele>464.8</ele>
        <time>2023-05-28T11:31:27Z</time>
      </trkpt>
      <trkpt lat="43.5289" lon="5.56936">
        <ele>464.8</ele>
        <time>2023-05-28T11:31:28Z</time>
      </trkpt>
      <trkpt lat="43.5289" lon="5.56937">
        <ele>464.8</ele>
        <time>2023-05-28T11:31:29Z</time>
      </trkpt>
      <trkpt lat="43.5289" lon="5.56937">
        <ele>464.8</ele>
        <time>2023-05-28T11:31:30Z</time>
      </trkpt>
      <trkpt lat="43.5289" lon="5.56937">
        <ele>464.8</ele>
        <time>2023-05-28T11:31:31Z</time>
      </trkpt>
      <trkpt lat="43.5289" lon="5.56937">
        <ele>464.8</ele>
        <time>2023-05-28T11:31:32Z</time>
      </trkpt>
      <trkpt lat="43.5289" lon="5.56937">
        <ele>464.8</ele>
        <time>2023-05-28T11:31:33Z</time>
      </trkpt>
      <trkpt lat="43.5289" lon="5.56936">
        <ele>464.9</ele>
        <time>2023-05-28T11:31:34Z</time>
      </trkpt>
      <trkpt lat="43.5289" lon="5.56936">
        <ele>464.9</ele>
        <time>2023-05-28T11:31:35Z</time>
      </trkpt>
      <trkpt lat="43.5289" lon="5.56936">
        <ele>464.8</ele>
        <time>2023-05-28T11:31:36Z</time>
      </trkpt>
      <trkpt lat="43.5289" lon="5.56936">
        <ele>464.8</ele>
        <time>2023-05-28T11:31:37Z</time>
      </trkpt>
      <trkpt lat="43.5289" lon="5.56936">
        <ele>464.8</ele>
        <time>2023-05-28T11:31:38Z</time>
      </trkpt>
      <trkpt lat="43.5289" lon="5.56936">
        <ele>464.8</ele>
        <time>2023-05-28T11:31:39Z</time>
      </trkpt>
      <trkpt lat="43.5289" lon="5.56936">
        <ele>464.7</ele>
        <time>2023-05-28T11:31:40Z</time>
      </trkpt>
      <trkpt lat="43.5289" lon="5.56936">
        <ele>464.7</ele>
        <time>2023-05-28T11:31:41Z</time>
      </trkpt>
      <trkpt lat="43.5289" lon="5.56936">
        <ele>464.8</ele>
        <time>2023-05-28T11:31:42Z</time>
      </trkpt>
      <trkpt lat="43.5289" lon="5.56936">
        <ele>464.7</ele>
        <time>2023-05-28T11:31:43Z</time>
      </trkpt>
      <trkpt lat="43.5289" lon="5.56936">
        <ele>464.7</ele>
        <time>2023-05-28T11:31:44Z</time>
      </trkpt>
      <trkpt lat="43.5289" lon="5.56936">
        <ele>464.7</ele>
        <time>2023-05-28T11:31:45Z</time>
      </trkpt>
      <trkpt lat="43.5289" lon="5.56936">
        <ele>464.6</ele>
        <time>2023-05-28T11:31:46Z</time>
      </trkpt>
      <trkpt lat="43.5289" lon="5.56936">
        <ele>464.6</ele>
        <time>2023-05-28T11:31:47Z</time>
      </trkpt>
      <trkpt lat="43.5289" lon="5.56936">
        <ele>464.6</ele>
        <time>2023-05-28T11:31:48Z</time>
      </trkpt>
      <trkpt lat="43.5289" lon="5.56936">
        <ele>464.6</ele>
        <time>2023-05-28T11:31:49Z</time>
      </trkpt>
      <trkpt lat="43.52891" lon="5.56936">
        <ele>464.6</ele>
        <time>2023-05-28T11:31:50Z</time>
      </trkpt>
      <trkpt lat="43.5289" lon="5.56936">
        <ele>464.6</ele>
        <time>2023-05-28T11:31:51Z</time>
      </trkpt>
      <trkpt lat="43.5289" lon="5.56936">
        <ele>464.6</ele>
        <time>2023-05-28T11:31:52Z</time>
      </trkpt>
      <trkpt lat="43.5289" lon="5.56936">
        <ele>464.6</ele>
        <time>2023-05-28T11:31:53Z</time>
      </trkpt>
      <trkpt lat="43.5289" lon="5.56936">
        <ele>464.6</ele>
        <time>2023-05-28T11:31:54Z</time>
      </trkpt>
      <trkpt lat="43.52891" lon="5.56937">
        <ele>464.6</ele>
        <time>2023-05-28T11:31:55Z</time>
      </trkpt>
      <trkpt lat="43.52891" lon="5.56937">
        <ele>464.6</ele>
        <time>2023-05-28T11:31:56Z</time>
      </trkpt>
      <trkpt lat="43.52891" lon="5.56937">
        <ele>464.7</ele>
        <time>2023-05-28T11:31:57Z</time>
      </trkpt>
      <trkpt lat="43.52891" lon="5.56937">
        <ele>464.7</ele>
        <time>2023-05-28T11:31:58Z</time>
      </trkpt>
      <trkpt lat="43.52891" lon="5.56937">
        <ele>464.6</ele>
        <time>2023-05-28T11:31:59Z</time>
      </trkpt>
      <trkpt lat="43.52891" lon="5.56937">
        <ele>464.6</ele>
        <time>2023-05-28T11:32:00Z</time>
      </trkpt>
      <trkpt lat="43.52891" lon="5.56938">
        <ele>464.6</ele>
        <time>2023-05-28T11:32:01Z</time>
      </trkpt>
      <trkpt lat="43.52891" lon="5.56938">
        <ele>464.6</ele>
        <time>2023-05-28T11:32:02Z</time>
      </trkpt>
      <trkpt lat="43.52891" lon="5.56938">
        <ele>464.6</ele>
        <time>2023-05-28T11:32:03Z</time>
      </trkpt>
      <trkpt lat="43.52891" lon="5.56938">
        <ele>464.7</ele>
        <time>2023-05-28T11:32:04Z</time>
      </trkpt>
      <trkpt lat="43.52891" lon="5.56938">
        <ele>464.7</ele>
        <time>2023-05-28T11:32:05Z</time>
      </trkpt>
      <trkpt lat="43.52891" lon="5.56938">
        <ele>464.7</ele>
        <time>2023-05-28T11:32:06Z</time>
      </trkpt>
      <trkpt lat="43.52891" lon="5.56938">
        <ele>464.8</ele>
        <time>2023-05-28T11:32:07Z</time>
      </trkpt>
      <trkpt lat="43.52891" lon="5.56938">
        <ele>464.8</ele>
        <time>2023-05-28T11:32:08Z</time>
      </trkpt>
      <trkpt lat="43.52891" lon="5.56938">
        <ele>464.7</ele>
        <time>2023-05-28T11:32:09Z</time>
      </trkpt>
      <trkpt lat="43.52891" lon="5.56938">
        <ele>464.7</ele>
        <time>2023-05-28T11:32:10Z</time>
      </trkpt>
      <trkpt lat="43.52891" lon="5.56938">
        <ele>464.8</ele>
        <time>2023-05-28T11:32:11Z</time>
      </trkpt>
      <trkpt lat="43.52891" lon="5.56938">
        <ele>464.8</ele>
        <time>2023-05-28T11:32:12Z</time>
      </trkpt>
      <trkpt lat="43.52891" lon="5.56938">
        <ele>465</ele>
        <time>2023-05-28T11:32:13Z</time>
      </trkpt>
      <trkpt lat="43.52891" lon="5.56938">
        <ele>465</ele>
        <time>2023-05-28T11:32:14Z</time>
      </trkpt>
      <trkpt lat="43.52891" lon="5.56938">
        <ele>465</ele>
        <time>2023-05-28T11:32:15Z</time>
      </trkpt>
      <trkpt lat="43.52891" lon="5.56938">
        <ele>465.1</ele>
        <time>2023-05-28T11:32:16Z</time>
      </trkpt>
      <trkpt lat="43.52891" lon="5.56938">
        <ele>465.1</ele>
        <time>2023-05-28T11:32:17Z</time>
      </trkpt>
      <trkpt lat="43.52891" lon="5.56938">
        <ele>465.1</ele>
        <time>2023-05-28T11:32:18Z</time>
      </trkpt>
      <trkpt lat="43.52891" lon="5.56938">
        <ele>465.1</ele>
        <time>2023-05-28T11:32:19Z</time>
      </trkpt>
      <trkpt lat="43.52891" lon="5.56938">
        <ele>465.1</ele>
        <time>2023-05-28T11:32:20Z</time>
      </trkpt>
      <trkpt lat="43.52891" lon="5.56938">
        <ele>465.1</ele>
        <time>2023-05-28T11:32:21Z</time>
      </trkpt>
      <trkpt lat="43.52891" lon="5.56938">
        <ele>465.1</ele>
        <time>2023-05-28T11:32:22Z</time>
      </trkpt>
      <trkpt lat="43.52891" lon="5.56938">
        <ele>465.1</ele>
        <time>2023-05-28T11:32:23Z</time>
      </trkpt>
      <trkpt lat="43.52891" lon="5.56938">
        <ele>465.1</ele>
        <time>2023-05-28T11:32:24Z</time>
      </trkpt>
      <trkpt lat="43.52891" lon="5.56938">
        <ele>465.1</ele>
        <time>2023-05-28T11:32:25Z</time>
      </trkpt>
      <trkpt lat="43.5289" lon="5.56938">
        <ele>465.1</ele>
        <time>2023-05-28T11:32:26Z</time>
      </trkpt>
      <trkpt lat="43.52891" lon="5.56938">
        <ele>465.1</ele>
        <time>2023-05-28T11:32:27Z</time>
      </trkpt>
      <trkpt lat="43.5289" lon="5.56938">
        <ele>465.1</ele>
        <time>2023-05-28T11:32:28Z</time>
      </trkpt>
      <trkpt lat="43.5289" lon="5.56937">
        <ele>465</ele>
        <time>2023-05-28T11:32:29Z</time>
      </trkpt>
      <trkpt lat="43.5289" lon="5.56937">
        <ele>465</ele>
        <time>2023-05-28T11:32:30Z</time>
      </trkpt>
      <trkpt lat="43.5289" lon="5.56937">
        <ele>465</ele>
        <time>2023-05-28T11:32:31Z</time>
      </trkpt>
      <trkpt lat="43.5289" lon="5.56937">
        <ele>465.1</ele>
        <time>2023-05-28T11:32:32Z</time>
      </trkpt>
      <trkpt lat="43.5289" lon="5.56937">
        <ele>465.1</ele>
        <time>2023-05-28T11:32:33Z</time>
      </trkpt>
      <trkpt lat="43.5289" lon="5.56937">
        <ele>465.2</ele>
        <time>2023-05-28T11:32:34Z</time>
      </trkpt>
      <trkpt lat="43.5289" lon="5.56937">
        <ele>465.2</ele>
        <time>2023-05-28T11:32:35Z</time>
      </trkpt>
      <trkpt lat="43.5289" lon="5.56936">
        <ele>465.2</ele>
        <time>2023-05-28T11:32:36Z</time>
      </trkpt>
      <trkpt lat="43.5289" lon="5.56936">
        <ele>465.2</ele>
        <time>2023-05-28T11:32:37Z</time>
      </trkpt>
      <trkpt lat="43.5289" lon="5.56936">
        <ele>465.1</ele>
        <time>2023-05-28T11:32:38Z</time>
      </trkpt>
      <trkpt lat="43.5289" lon="5.56936">
        <ele>465.1</ele>
        <time>2023-05-28T11:32:39Z</time>
      </trkpt>
      <trkpt lat="43.5289" lon="5.56936">
        <ele>465.1</ele>
        <time>2023-05-28T11:32:40Z</time>
      </trkpt>
      <trkpt lat="43.5289" lon="5.56936">
        <ele>465.1</ele>
        <time>2023-05-28T11:32:41Z</time>
      </trkpt>
      <trkpt lat="43.52889" lon="5.56935">
        <ele>465.2</ele>
        <time>2023-05-28T11:32:42Z</time>
      </trkpt>
      <trkpt lat="43.52889" lon="5.56935">
        <ele>465.3</ele>
        <time>2023-05-28T11:32:43Z</time>
      </trkpt>
      <trkpt lat="43.52889" lon="5.56935">
        <ele>465.3</ele>
        <time>2023-05-28T11:32:44Z</time>
      </trkpt>
      <trkpt lat="43.52889" lon="5.56935">
        <ele>465.3</ele>
        <time>2023-05-28T11:32:45Z</time>
      </trkpt>
      <trkpt lat="43.52889" lon="5.56935">
        <ele>465.3</ele>
        <time>2023-05-28T11:32:46Z</time>
      </trkpt>
      <trkpt lat="43.52889" lon="5.56935">
        <ele>465.2</ele>
        <time>2023-05-28T11:32:47Z</time>
      </trkpt>
      <trkpt lat="43.52889" lon="5.56935">
        <ele>465.2</ele>
        <time>2023-05-28T11:32:48Z</time>
      </trkpt>
      <trkpt lat="43.52889" lon="5.56935">
        <ele>465.2</ele>
        <time>2023-05-28T11:32:49Z</time>
      </trkpt>
      <trkpt lat="43.52889" lon="5.56935">
        <ele>465.2</ele>
        <time>2023-05-28T11:32:50Z</time>
      </trkpt>
      <trkpt lat="43.52889" lon="5.56935">
        <ele>465.2</ele>
        <time>2023-05-28T11:32:51Z</time>
      </trkpt>
      <trkpt lat="43.52889" lon="5.56935">
        <ele>465.2</ele>
        <time>2023-05-28T11:32:52Z</time>
      </trkpt>
      <trkpt lat="43.52889" lon="5.56935">
        <ele>465.2</ele>
        <time>2023-05-28T11:32:53Z</time>
      </trkpt>
      <trkpt lat="43.52889" lon="5.56935">
        <ele>465.2</ele>
        <time>2023-05-28T11:32:54Z</time>
      </trkpt>
      <trkpt lat="43.5289" lon="5.56935">
        <ele>465.2</ele>
        <time>2023-05-28T11:32:55Z</time>
      </trkpt>
      <trkpt lat="43.5289" lon="5.56935">
        <ele>465.2</ele>
        <time>2023-05-28T11:32:56Z</time>
      </trkpt>
      <trkpt lat="43.5289" lon="5.56935">
        <ele>465.2</ele>
        <time>2023-05-28T11:32:57Z</time>
      </trkpt>
      <trkpt lat="43.5289" lon="5.56935">
        <ele>465.1</ele>
        <time>2023-05-28T11:32:58Z</time>
      </trkpt>
      <trkpt lat="43.5289" lon="5.56935">
        <ele>465.1</ele>
        <time>2023-05-28T11:32:59Z</time>
      </trkpt>
      <trkpt lat="43.5289" lon="5.56935">
        <ele>465.1</ele>
        <time>2023-05-28T11:33:00Z</time>
      </trkpt>
      <trkpt lat="43.5289" lon="5.56935">
        <ele>465</ele>
        <time>2023-05-28T11:33:01Z</time>
      </trkpt>
      <trkpt lat="43.5289" lon="5.56935">
        <ele>464.9</ele>
        <time>2023-05-28T11:33:02Z</time>
      </trkpt>
      <trkpt lat="43.5289" lon="5.56935">
        <ele>464.9</ele>
        <time>2023-05-28T11:33:03Z</time>
      </trkpt>
      <trkpt lat="43.5289" lon="5.56936">
        <ele>464.9</ele>
        <time>2023-05-28T11:33:04Z</time>
      </trkpt>
      <trkpt lat="43.5289" lon="5.56936">
        <ele>464.9</ele>
        <time>2023-05-28T11:33:05Z</time>
      </trkpt>
      <trkpt lat="43.5289" lon="5.56936">
        <ele>465</ele>
        <time>2023-05-28T11:33:06Z</time>
      </trkpt>
      <trkpt lat="43.5289" lon="5.56936">
        <ele>464.9</ele>
        <time>2023-05-28T11:33:07Z</time>
      </trkpt>
      <trkpt lat="43.5289" lon="5.56936">
        <ele>464.9</ele>
        <time>2023-05-28T11:33:08Z</time>
      </trkpt>
      <trkpt lat="43.5289" lon="5.56936">
        <ele>464.9</ele>
        <time>2023-05-28T11:33:09Z</time>
      </trkpt>
      <trkpt lat="43.5289" lon="5.56936">
        <ele>464.9</ele>
        <time>2023-05-28T11:33:10Z</time>
      </trkpt>
      <trkpt lat="43.5289" lon="5.56936">
        <ele>464.9</ele>
        <time>2023-05-28T11:33:11Z</time>
      </trkpt>
      <trkpt lat="43.5289" lon="5.56936">
        <ele>464.9</ele>
        <time>2023-05-28T11:33:12Z</time>
      </trkpt>
      <trkpt lat="43.5289" lon="5.56936">
        <ele>464.9</ele>
        <time>2023-05-28T11:33:13Z</time>
      </trkpt>
      <trkpt lat="43.5289" lon="5.56935">
        <ele>464.8</ele>
        <time>2023-05-28T11:33:14Z</time>
      </trkpt>
      <trkpt lat="43.5289" lon="5.56935">
        <ele>464.8</ele>
        <time>2023-05-28T11:33:15Z</time>
      </trkpt>
      <trkpt lat="43.5289" lon="5.56935">
        <ele>464.8</ele>
        <time>2023-05-28T11:33:16Z</time>
      </trkpt>
      <trkpt lat="43.5289" lon="5.56936">
        <ele>464.8</ele>
        <time>2023-05-28T11:33:17Z</time>
      </trkpt>
      <trkpt lat="43.5289" lon="5.56936">
        <ele>464.8</ele>
        <time>2023-05-28T11:33:18Z</time>
      </trkpt>
      <trkpt lat="43.5289" lon="5.56936">
        <ele>464.8</ele>
        <time>2023-05-28T11:33:19Z</time>
      </trkpt>
      <trkpt lat="43.5289" lon="5.56936">
        <ele>464.8</ele>
        <time>2023-05-28T11:33:20Z</time>
      </trkpt>
      <trkpt lat="43.52891" lon="5.56936">
        <ele>464.8</ele>
        <time>2023-05-28T11:33:21Z</time>
      </trkpt>
      <trkpt lat="43.52891" lon="5.56936">
        <ele>464.8</ele>
        <time>2023-05-28T11:33:22Z</time>
      </trkpt>
      <trkpt lat="43.52891" lon="5.56937">
        <ele>464.8</ele>
        <time>2023-05-28T11:33:23Z</time>
      </trkpt>
      <trkpt lat="43.52891" lon="5.56937">
        <ele>464.9</ele>
        <time>2023-05-28T11:33:24Z</time>
      </trkpt>
      <trkpt lat="43.52891" lon="5.56937">
        <ele>464.9</ele>
        <time>2023-05-28T11:33:25Z</time>
      </trkpt>
      <trkpt lat="43.52891" lon="5.56937">
        <ele>465</ele>
        <time>2023-05-28T11:33:26Z</time>
      </trkpt>
      <trkpt lat="43.52892" lon="5.56938">
        <ele>465</ele>
        <time>2023-05-28T11:33:27Z</time>
      </trkpt>
      <trkpt lat="43.52892" lon="5.56938">
        <ele>464.9</ele>
        <time>2023-05-28T11:33:28Z</time>
      </trkpt>
      <trkpt lat="43.52892" lon="5.56938">
        <ele>464.8</ele>
        <time>2023-05-28T11:33:29Z</time>
      </trkpt>
      <trkpt lat="43.52892" lon="5.56939">
        <ele>464.9</ele>
        <time>2023-05-28T11:33:30Z</time>
      </trkpt>
      <trkpt lat="43.52893" lon="5.56939">
        <ele>464.9</ele>
        <time>2023-05-28T11:33:31Z</time>
      </trkpt>
      <trkpt lat="43.52893" lon="5.56939">
        <ele>465</ele>
        <time>2023-05-28T11:33:32Z</time>
      </trkpt>
      <trkpt lat="43.52893" lon="5.5694">
        <ele>465</ele>
        <time>2023-05-28T11:33:33Z</time>
      </trkpt>
      <trkpt lat="43.52893" lon="5.5694">
        <ele>465.1</ele>
        <time>2023-05-28T11:33:34Z</time>
      </trkpt>
      <trkpt lat="43.52893" lon="5.5694">
        <ele>465.1</ele>
        <time>2023-05-28T11:33:35Z</time>
      </trkpt>
      <trkpt lat="43.52894" lon="5.56941">
        <ele>465.1</ele>
        <time>2023-05-28T11:33:36Z</time>
      </trkpt>
      <trkpt lat="43.52894" lon="5.56941">
        <ele>465.1</ele>
        <time>2023-05-28T11:33:37Z</time>
      </trkpt>
      <trkpt lat="43.52894" lon="5.56942">
        <ele>465.1</ele>
        <time>2023-05-28T11:33:38Z</time>
      </trkpt>
      <trkpt lat="43.52894" lon="5.56942">
        <ele>465.1</ele>
        <time>2023-05-28T11:33:39Z</time>
      </trkpt>
      <trkpt lat="43.52894" lon="5.56942">
        <ele>465.2</ele>
        <time>2023-05-28T11:33:40Z</time>
      </trkpt>
      <trkpt lat="43.52895" lon="5.56943">
        <ele>465.2</ele>
        <time>2023-05-28T11:33:41Z</time>
      </trkpt>
      <trkpt lat="43.52895" lon="5.56943">
        <ele>465.3</ele>
        <time>2023-05-28T11:33:42Z</time>
      </trkpt>
      <trkpt lat="43.52895" lon="5.56943">
        <ele>465.3</ele>
        <time>2023-05-28T11:33:43Z</time>
      </trkpt>
      <trkpt lat="43.52895" lon="5.56943">
        <ele>465.4</ele>
        <time>2023-05-28T11:33:44Z</time>
      </trkpt>
      <trkpt lat="43.52895" lon="5.56943">
        <ele>465.3</ele>
        <time>2023-05-28T11:33:45Z</time>
      </trkpt>
      <trkpt lat="43.52895" lon="5.56943">
        <ele>465.3</ele>
        <time>2023-05-28T11:33:46Z</time>
      </trkpt>
      <trkpt lat="43.52894" lon="5.56943">
        <ele>465.3</ele>
        <time>2023-05-28T11:33:47Z</time>
      </trkpt>
      <trkpt lat="43.52894" lon="5.56943">
        <ele>465.4</ele>
        <time>2023-05-28T11:33:48Z</time>
      </trkpt>
      <trkpt lat="43.52894" lon="5.56943">
        <ele>465.4</ele>
        <time>2023-05-28T11:33:49Z</time>
      </trkpt>
      <trkpt lat="43.52894" lon="5.56943">
        <ele>465.4</ele>
        <time>2023-05-28T11:33:50Z</time>
      </trkpt>
      <trkpt lat="43.52894" lon="5.56943">
        <ele>465.4</ele>
        <time>2023-05-28T11:33:51Z</time>
      </trkpt>
      <trkpt lat="43.52894" lon="5.56943">
        <ele>465.4</ele>
        <time>2023-05-28T11:33:52Z</time>
      </trkpt>
      <trkpt lat="43.52894" lon="5.56943">
        <ele>465.4</ele>
        <time>2023-05-28T11:33:53Z</time>
      </trkpt>
      <trkpt lat="43.52894" lon="5.56943">
        <ele>465.4</ele>
        <time>2023-05-28T11:33:54Z</time>
      </trkpt>
      <trkpt lat="43.52894" lon="5.56942">
        <ele>465.3</ele>
        <time>2023-05-28T11:33:55Z</time>
      </trkpt>
      <trkpt lat="43.52893" lon="5.56942">
        <ele>465.3</ele>
        <time>2023-05-28T11:33:56Z</time>
      </trkpt>
      <trkpt lat="43.52893" lon="5.56942">
        <ele>465.3</ele>
        <time>2023-05-28T11:33:57Z</time>
      </trkpt>
      <trkpt lat="43.52893" lon="5.56942">
        <ele>465.3</ele>
        <time>2023-05-28T11:33:58Z</time>
      </trkpt>
      <trkpt lat="43.52893" lon="5.56942">
        <ele>465.3</ele>
        <time>2023-05-28T11:33:59Z</time>
      </trkpt>
      <trkpt lat="43.52893" lon="5.56942">
        <ele>465.3</ele>
        <time>2023-05-28T11:34:00Z</time>
      </trkpt>
      <trkpt lat="43.52893" lon="5.56942">
        <ele>465.4</ele>
        <time>2023-05-28T11:34:01Z</time>
      </trkpt>
      <trkpt lat="43.52893" lon="5.56942">
        <ele>465.4</ele>
        <time>2023-05-28T11:34:02Z</time>
      </trkpt>
      <trkpt lat="43.52893" lon="5.56942">
        <ele>465.4</ele>
        <time>2023-05-28T11:34:03Z</time>
      </trkpt>
      <trkpt lat="43.52893" lon="5.56942">
        <ele>465.5</ele>
        <time>2023-05-28T11:34:04Z</time>
      </trkpt>
      <trkpt lat="43.52893" lon="5.56942">
        <ele>465.5</ele>
        <time>2023-05-28T11:34:05Z</time>
      </trkpt>
      <trkpt lat="43.52893" lon="5.56942">
        <ele>465.5</ele>
        <time>2023-05-28T11:34:06Z</time>
      </trkpt>
      <trkpt lat="43.52893" lon="5.56942">
        <ele>465.5</ele>
        <time>2023-05-28T11:34:07Z</time>
      </trkpt>
      <trkpt lat="43.52893" lon="5.56942">
        <ele>465.5</ele>
        <time>2023-05-28T11:34:08Z</time>
      </trkpt>
      <trkpt lat="43.52893" lon="5.56942">
        <ele>465.5</ele>
        <time>2023-05-28T11:34:09Z</time>
      </trkpt>
      <trkpt lat="43.52893" lon="5.56942">
        <ele>465.5</ele>
        <time>2023-05-28T11:34:10Z</time>
      </trkpt>
      <trkpt lat="43.52893" lon="5.56942">
        <ele>465.5</ele>
        <time>2023-05-28T11:34:11Z</time>
      </trkpt>
      <trkpt lat="43.52893" lon="5.56942">
        <ele>465.5</ele>
        <time>2023-05-28T11:34:12Z</time>
      </trkpt>
      <trkpt lat="43.52893" lon="5.56942">
        <ele>465.6</ele>
        <time>2023-05-28T11:34:13Z</time>
      </trkpt>
      <trkpt lat="43.52893" lon="5.56942">
        <ele>465.6</ele>
        <time>2023-05-28T11:34:14Z</time>
      </trkpt>
      <trkpt lat="43.52893" lon="5.56942">
        <ele>465.7</ele>
        <time>2023-05-28T11:34:15Z</time>
      </trkpt>
      <trkpt lat="43.52892" lon="5.56942">
        <ele>465.7</ele>
        <time>2023-05-28T11:34:16Z</time>
      </trkpt>
      <trkpt lat="43.52892" lon="5.56942">
        <ele>465.7</ele>
        <time>2023-05-28T11:34:17Z</time>
      </trkpt>
      <trkpt lat="43.52892" lon="5.56942">
        <ele>465.7</ele>
        <time>2023-05-28T11:34:18Z</time>
      </trkpt>
      <trkpt lat="43.52892" lon="5.56942">
        <ele>465.6</ele>
        <time>2023-05-28T11:34:19Z</time>
      </trkpt>
      <trkpt lat="43.52893" lon="5.56942">
        <ele>465.6</ele>
        <time>2023-05-28T11:34:20Z</time>
      </trkpt>
      <trkpt lat="43.52893" lon="5.56942">
        <ele>465.6</ele>
        <time>2023-05-28T11:34:21Z</time>
      </trkpt>
      <trkpt lat="43.52893" lon="5.56942">
        <ele>465.5</ele>
        <time>2023-05-28T11:34:22Z</time>
      </trkpt>
      <trkpt lat="43.52893" lon="5.56943">
        <ele>465.5</ele>
        <time>2023-05-28T11:34:23Z</time>
      </trkpt>
      <trkpt lat="43.52893" lon="5.56943">
        <ele>465.4</ele>
        <time>2023-05-28T11:34:24Z</time>
      </trkpt>
      <trkpt lat="43.52893" lon="5.56943">
        <ele>465.4</ele>
        <time>2023-05-28T11:34:25Z</time>
      </trkpt>
      <trkpt lat="43.52893" lon="5.56943">
        <ele>465.4</ele>
        <time>2023-05-28T11:34:26Z</time>
      </trkpt>
      <trkpt lat="43.52893" lon="5.56943">
        <ele>465.3</ele>
        <time>2023-05-28T11:34:27Z</time>
      </trkpt>
      <trkpt lat="43.52893" lon="5.56943">
        <ele>465.3</ele>
        <time>2023-05-28T11:34:28Z</time>
      </trkpt>
      <trkpt lat="43.52893" lon="5.56942">
        <ele>465.2</ele>
        <time>2023-05-28T11:34:29Z</time>
      </trkpt>
      <trkpt lat="43.52893" lon="5.56942">
        <ele>465.1</ele>
        <time>2023-05-28T11:34:30Z</time>
      </trkpt>
      <trkpt lat="43.52893" lon="5.56942">
        <ele>465.2</ele>
        <time>2023-05-28T11:34:31Z</time>
      </trkpt>
      <trkpt lat="43.52893" lon="5.56942">
        <ele>465.2</ele>
        <time>2023-05-28T11:34:32Z</time>
      </trkpt>
      <trkpt lat="43.52893" lon="5.56942">
        <ele>465.2</ele>
        <time>2023-05-28T11:34:33Z</time>
      </trkpt>
      <trkpt lat="43.52892" lon="5.56942">
        <ele>465.2</ele>
        <time>2023-05-28T11:34:34Z</time>
      </trkpt>
      <trkpt lat="43.52892" lon="5.56942">
        <ele>465.2</ele>
        <time>2023-05-28T11:34:35Z</time>
      </trkpt>
      <trkpt lat="43.52892" lon="5.56942">
        <ele>465.3</ele>
        <time>2023-05-28T11:34:36Z</time>
      </trkpt>
      <trkpt lat="43.52892" lon="5.56941">
        <ele>465.3</ele>
        <time>2023-05-28T11:34:37Z</time>
      </trkpt>
      <trkpt lat="43.52892" lon="5.56942">
        <ele>465.3</ele>
        <time>2023-05-28T11:34:38Z</time>
      </trkpt>
      <trkpt lat="43.52892" lon="5.56942">
        <ele>465.4</ele>
        <time>2023-05-28T11:34:39Z</time>
      </trkpt>
      <trkpt lat="43.52892" lon="5.56942">
        <ele>465.3</ele>
        <time>2023-05-28T11:34:40Z</time>
      </trkpt>
      <trkpt lat="43.52892" lon="5.56941">
        <ele>465.3</ele>
        <time>2023-05-28T11:34:41Z</time>
      </trkpt>
      <trkpt lat="43.52892" lon="5.56941">
        <ele>465.3</ele>
        <time>2023-05-28T11:34:42Z</time>
      </trkpt>
      <trkpt lat="43.52892" lon="5.56941">
        <ele>465.2</ele>
        <time>2023-05-28T11:34:43Z</time>
      </trkpt>
      <trkpt lat="43.52892" lon="5.56941">
        <ele>465.3</ele>
        <time>2023-05-28T11:34:44Z</time>
      </trkpt>
      <trkpt lat="43.52892" lon="5.56941">
        <ele>465.3</ele>
        <time>2023-05-28T11:34:45Z</time>
      </trkpt>
      <trkpt lat="43.52891" lon="5.56941">
        <ele>465.3</ele>
        <time>2023-05-28T11:34:46Z</time>
      </trkpt>
      <trkpt lat="43.52891" lon="5.56941">
        <ele>465.3</ele>
        <time>2023-05-28T11:34:47Z</time>
      </trkpt>
      <trkpt lat="43.52891" lon="5.56941">
        <ele>465.4</ele>
        <time>2023-05-28T11:34:48Z</time>
      </trkpt>
      <trkpt lat="43.52891" lon="5.56941">
        <ele>465.4</ele>
        <time>2023-05-28T11:34:49Z</time>
      </trkpt>
      <trkpt lat="43.52891" lon="5.56941">
        <ele>465.4</ele>
        <time>2023-05-28T11:34:50Z</time>
      </trkpt>
      <trkpt lat="43.52891" lon="5.5694">
        <ele>465.3</ele>
        <time>2023-05-28T11:34:51Z</time>
      </trkpt>
      <trkpt lat="43.52891" lon="5.5694">
        <ele>465.3</ele>
        <time>2023-05-28T11:34:52Z</time>
      </trkpt>
      <trkpt lat="43.52891" lon="5.5694">
        <ele>465.3</ele>
        <time>2023-05-28T11:34:53Z</time>
      </trkpt>
      <trkpt lat="43.52891" lon="5.5694">
        <ele>465.2</ele>
        <time>2023-05-28T11:34:54Z</time>
      </trkpt>
      <trkpt lat="43.52891" lon="5.5694">
        <ele>465.2</ele>
        <time>2023-05-28T11:34:55Z</time>
      </trkpt>
      <trkpt lat="43.52891" lon="5.5694">
        <ele>465.2</ele>
        <time>2023-05-28T11:34:56Z</time>
      </trkpt>
      <trkpt lat="43.52891" lon="5.5694">
        <ele>465.2</ele>
        <time>2023-05-28T11:34:57Z</time>
      </trkpt>
      <trkpt lat="43.52891" lon="5.5694">
        <ele>465.2</ele>
        <time>2023-05-28T11:34:58Z</time>
      </trkpt>
      <trkpt lat="43.52891" lon="5.5694">
        <ele>465.3</ele>
        <time>2023-05-28T11:34:59Z</time>
      </trkpt>
      <trkpt lat="43.52891" lon="5.5694">
        <ele>465.3</ele>
        <time>2023-05-28T11:35:00Z</time>
      </trkpt>
      <trkpt lat="43.52891" lon="5.5694">
        <ele>465.4</ele>
        <time>2023-05-28T11:35:01Z</time>
      </trkpt>
      <trkpt lat="43.52891" lon="5.5694">
        <ele>465.4</ele>
        <time>2023-05-28T11:35:02Z</time>
      </trkpt>
      <trkpt lat="43.52891" lon="5.5694">
        <ele>465.4</ele>
        <time>2023-05-28T11:35:03Z</time>
      </trkpt>
      <trkpt lat="43.52891" lon="5.5694">
        <ele>465.4</ele>
        <time>2023-05-28T11:35:04Z</time>
      </trkpt>
      <trkpt lat="43.52891" lon="5.5694">
        <ele>465.4</ele>
        <time>2023-05-28T11:35:05Z</time>
      </trkpt>
      <trkpt lat="43.52891" lon="5.5694">
        <ele>465.4</ele>
        <time>2023-05-28T11:35:06Z</time>
      </trkpt>
      <trkpt lat="43.52891" lon="5.5694">
        <ele>465.4</ele>
        <time>2023-05-28T11:35:07Z</time>
      </trkpt>
      <trkpt lat="43.52891" lon="5.5694">
        <ele>465.5</ele>
        <time>2023-05-28T11:35:08Z</time>
      </trkpt>
      <trkpt lat="43.52891" lon="5.5694">
        <ele>465.4</ele>
        <time>2023-05-28T11:35:09Z</time>
      </trkpt>
      <trkpt lat="43.52891" lon="5.5694">
        <ele>465.4</ele>
        <time>2023-05-28T11:35:10Z</time>
      </trkpt>
      <trkpt lat="43.52891" lon="5.5694">
        <ele>465.4</ele>
        <time>2023-05-28T11:35:11Z</time>
      </trkpt>
      <trkpt lat="43.52891" lon="5.5694">
        <ele>465.4</ele>
        <time>2023-05-28T11:35:12Z</time>
      </trkpt>
      <trkpt lat="43.52891" lon="5.5694">
        <ele>465.4</ele>
        <time>2023-05-28T11:35:13Z</time>
      </trkpt>
      <trkpt lat="43.52891" lon="5.56939">
        <ele>465.5</ele>
        <time>2023-05-28T11:35:14Z</time>
      </trkpt>
      <trkpt lat="43.5289" lon="5.56939">
        <ele>465.5</ele>
        <time>2023-05-28T11:35:15Z</time>
      </trkpt>
      <trkpt lat="43.5289" lon="5.56939">
        <ele>465.5</ele>
        <time>2023-05-28T11:35:16Z</time>
      </trkpt>
      <trkpt lat="43.5289" lon="5.56939">
        <ele>465.5</ele>
        <time>2023-05-28T11:35:17Z</time>
      </trkpt>
      <trkpt lat="43.5289" lon="5.56939">
        <ele>465.4</ele>
        <time>2023-05-28T11:35:18Z</time>
      </trkpt>
      <trkpt lat="43.5289" lon="5.56939">
        <ele>465.4</ele>
        <time>2023-05-28T11:35:19Z</time>
      </trkpt>
      <trkpt lat="43.5289" lon="5.56939">
        <ele>465.4</ele>
        <time>2023-05-28T11:35:20Z</time>
      </trkpt>
      <trkpt lat="43.5289" lon="5.56939">
        <ele>465.4</ele>
        <time>2023-05-28T11:35:21Z</time>
      </trkpt>
      <trkpt lat="43.5289" lon="5.5694">
        <ele>465.4</ele>
        <time>2023-05-28T11:35:22Z</time>
      </trkpt>
      <trkpt lat="43.52891" lon="5.5694">
        <ele>465.4</ele>
        <time>2023-05-28T11:35:23Z</time>
      </trkpt>
      <trkpt lat="43.52891" lon="5.5694">
        <ele>465.4</ele>
        <time>2023-05-28T11:35:24Z</time>
      </trkpt>
      <trkpt lat="43.52891" lon="5.5694">
        <ele>465.4</ele>
        <time>2023-05-28T11:35:25Z</time>
      </trkpt>
      <trkpt lat="43.52891" lon="5.5694">
        <ele>465.5</ele>
        <time>2023-05-28T11:35:26Z</time>
      </trkpt>
      <trkpt lat="43.52891" lon="5.5694">
        <ele>465.5</ele>
        <time>2023-05-28T11:35:27Z</time>
      </trkpt>
      <trkpt lat="43.52891" lon="5.5694">
        <ele>465.5</ele>
        <time>2023-05-28T11:35:28Z</time>
      </trkpt>
      <trkpt lat="43.52891" lon="5.5694">
        <ele>465.5</ele>
        <time>2023-05-28T11:35:29Z</time>
      </trkpt>
      <trkpt lat="43.52891" lon="5.5694">
        <ele>465.5</ele>
        <time>2023-05-28T11:35:30Z</time>
      </trkpt>
      <trkpt lat="43.52891" lon="5.5694">
        <ele>465.4</ele>
        <time>2023-05-28T11:35:31Z</time>
      </trkpt>
      <trkpt lat="43.52891" lon="5.5694">
        <ele>465.4</ele>
        <time>2023-05-28T11:35:32Z</time>
      </trkpt>
      <trkpt lat="43.52891" lon="5.5694">
        <ele>465.4</ele>
        <time>2023-05-28T11:35:33Z</time>
      </trkpt>
      <trkpt lat="43.52891" lon="5.5694">
        <ele>465.4</ele>
        <time>2023-05-28T11:35:34Z</time>
      </trkpt>
      <trkpt lat="43.52891" lon="5.5694">
        <ele>465.5</ele>
        <time>2023-05-28T11:35:35Z</time>
      </trkpt>
      <trkpt lat="43.52891" lon="5.5694">
        <ele>465.5</ele>
        <time>2023-05-28T11:35:36Z</time>
      </trkpt>
      <trkpt lat="43.52891" lon="5.5694">
        <ele>465.5</ele>
        <time>2023-05-28T11:35:37Z</time>
      </trkpt>
      <trkpt lat="43.52891" lon="5.5694">
        <ele>465.5</ele>
        <time>2023-05-28T11:35:38Z</time>
      </trkpt>
      <trkpt lat="43.52891" lon="5.5694">
        <ele>465.5</ele>
        <time>2023-05-28T11:35:39Z</time>
      </trkpt>
      <trkpt lat="43.52891" lon="5.5694">
        <ele>465.5</ele>
        <time>2023-05-28T11:35:40Z</time>
      </trkpt>
      <trkpt lat="43.52891" lon="5.56939">
        <ele>465.5</ele>
        <time>2023-05-28T11:35:41Z</time>
      </trkpt>
      <trkpt lat="43.52891" lon="5.56939">
        <ele>465.5</ele>
        <time>2023-05-28T11:35:42Z</time>
      </trkpt>
      <trkpt lat="43.52891" lon="5.56939">
        <ele>465.5</ele>
        <time>2023-05-28T11:35:43Z</time>
      </trkpt>
      <trkpt lat="43.52891" lon="5.56939">
        <ele>465.4</ele>
        <time>2023-05-28T11:35:44Z</time>
      </trkpt>
      <trkpt lat="43.52891" lon="5.56939">
        <ele>465.4</ele>
        <time>2023-05-28T11:35:45Z</time>
      </trkpt>
      <trkpt lat="43.52891" lon="5.56939">
        <ele>465.4</ele>
        <time>2023-05-28T11:35:46Z</time>
      </trkpt>
      <trkpt lat="43.52891" lon="5.56939">
        <ele>465.4</ele>
        <time>2023-05-28T11:35:47Z</time>
      </trkpt>
      <trkpt lat="43.52891" lon="5.56938">
        <ele>465.4</ele>
        <time>2023-05-28T11:35:48Z</time>
      </trkpt>
      <trkpt lat="43.52891" lon="5.56938">
        <ele>465.4</ele>
        <time>2023-05-28T11:35:49Z</time>
      </trkpt>
      <trkpt lat="43.52891" lon="5.56938">
        <ele>465.5</ele>
        <time>2023-05-28T11:35:50Z</time>
      </trkpt>
      <trkpt lat="43.52891" lon="5.56938">
        <ele>465.5</ele>
        <time>2023-05-28T11:35:51Z</time>
      </trkpt>
      <trkpt lat="43.52891" lon="5.56938">
        <ele>465.4</ele>
        <time>2023-05-28T11:35:52Z</time>
      </trkpt>
      <trkpt lat="43.5289" lon="5.56937">
        <ele>465.4</ele>
        <time>2023-05-28T11:35:53Z</time>
      </trkpt>
      <trkpt lat="43.5289" lon="5.56937">
        <ele>465.4</ele>
        <time>2023-05-28T11:35:54Z</time>
      </trkpt>
      <trkpt lat="43.5289" lon="5.56937">
        <ele>465.4</ele>
        <time>2023-05-28T11:35:55Z</time>
      </trkpt>
      <trkpt lat="43.5289" lon="5.56937">
        <ele>465.4</ele>
        <time>2023-05-28T11:35:56Z</time>
      </trkpt>
      <trkpt lat="43.5289" lon="5.56937">
        <ele>465.4</ele>
        <time>2023-05-28T11:35:57Z</time>
      </trkpt>
      <trkpt lat="43.5289" lon="5.56937">
        <ele>465.3</ele>
        <time>2023-05-28T11:35:58Z</time>
      </trkpt>
      <trkpt lat="43.5289" lon="5.56936">
        <ele>465.3</ele>
        <time>2023-05-28T11:35:59Z</time>
      </trkpt>
      <trkpt lat="43.5289" lon="5.56936">
        <ele>465.3</ele>
        <time>2023-05-28T11:36:00Z</time>
      </trkpt>
      <trkpt lat="43.5289" lon="5.56936">
        <ele>465.4</ele>
        <time>2023-05-28T11:36:01Z</time>
      </trkpt>
      <trkpt lat="43.5289" lon="5.56936">
        <ele>465.5</ele>
        <time>2023-05-28T11:36:02Z</time>
      </trkpt>
      <trkpt lat="43.5289" lon="5.56936">
        <ele>465.5</ele>
        <time>2023-05-28T11:36:03Z</time>
      </trkpt>
      <trkpt lat="43.5289" lon="5.56936">
        <ele>465.6</ele>
        <time>2023-05-28T11:36:04Z</time>
      </trkpt>
      <trkpt lat="43.5289" lon="5.56936">
        <ele>465.5</ele>
        <time>2023-05-28T11:36:05Z</time>
      </trkpt>
      <trkpt lat="43.5289" lon="5.56936">
        <ele>465.5</ele>
        <time>2023-05-28T11:36:06Z</time>
      </trkpt>
      <trkpt lat="43.5289" lon="5.56936">
        <ele>465.6</ele>
        <time>2023-05-28T11:36:07Z</time>
      </trkpt>
      <trkpt lat="43.5289" lon="5.56936">
        <ele>465.6</ele>
        <time>2023-05-28T11:36:08Z</time>
      </trkpt>
      <trkpt lat="43.5289" lon="5.56936">
        <ele>465.6</ele>
        <time>2023-05-28T11:36:09Z</time>
      </trkpt>
      <trkpt lat="43.5289" lon="5.56936">
        <ele>465.6</ele>
        <time>2023-05-28T11:36:10Z</time>
      </trkpt>
      <trkpt lat="43.5289" lon="5.56935">
        <ele>465.6</ele>
        <time>2023-05-28T11:36:11Z</time>
      </trkpt>
      <trkpt lat="43.5289" lon="5.56935">
        <ele>465.5</ele>
        <time>2023-05-28T11:36:12Z</time>
      </trkpt>
      <trkpt lat="43.5289" lon="5.56935">
        <ele>465.5</ele>
        <time>2023-05-28T11:36:13Z</time>
      </trkpt>
      <trkpt lat="43.5289" lon="5.56935">
        <ele>465.4</ele>
        <time>2023-05-28T11:36:14Z</time>
      </trkpt>
      <trkpt lat="43.5289" lon="5.56935">
        <ele>465.4</ele>
        <time>2023-05-28T11:36:15Z</time>
      </trkpt>
      <trkpt lat="43.5289" lon="5.56935">
        <ele>465.4</ele>
        <time>2023-05-28T11:36:16Z</time>
      </trkpt>
      <trkpt lat="43.5289" lon="5.56935">
        <ele>465.3</ele>
        <time>2023-05-28T11:36:17Z</time>
      </trkpt>
      <trkpt lat="43.5289" lon="5.56935">
        <ele>465.3</ele>
        <time>2023-05-28T11:36:18Z</time>
      </trkpt>
      <trkpt lat="43.5289" lon="5.56935">
        <ele>465.3</ele>
        <time>2023-05-28T11:36:19Z</time>
      </trkpt>
      <trkpt lat="43.5289" lon="5.56935">
        <ele>465.3</ele>
        <time>2023-05-28T11:36:20Z</time>
      </trkpt>
      <trkpt lat="43.5289" lon="5.56935">
        <ele>465.3</ele>
        <time>2023-05-28T11:36:21Z</time>
      </trkpt>
      <trkpt lat="43.5289" lon="5.56935">
        <ele>465.3</ele>
        <time>2023-05-28T11:36:22Z</time>
      </trkpt>
      <trkpt lat="43.5289" lon="5.56935">
        <ele>465.3</ele>
        <time>2023-05-28T11:36:23Z</time>
      </trkpt>
      <trkpt lat="43.5289" lon="5.56935">
        <ele>465.3</ele>
        <time>2023-05-28T11:36:24Z</time>
      </trkpt>
      <trkpt lat="43.5289" lon="5.56935">
        <ele>465.4</ele>
        <time>2023-05-28T11:36:25Z</time>
      </trkpt>
      <trkpt lat="43.5289" lon="5.56935">
        <ele>465.4</ele>
        <time>2023-05-28T11:36:26Z</time>
      </trkpt>
      <trkpt lat="43.5289" lon="5.56935">
        <ele>465.5</ele>
        <time>2023-05-28T11:36:27Z</time>
      </trkpt>
      <trkpt lat="43.52889" lon="5.56935">
        <ele>465.6</ele>
        <time>2023-05-28T11:36:28Z</time>
      </trkpt>
      <trkpt lat="43.52889" lon="5.56935">
        <ele>465.6</ele>
        <time>2023-05-28T11:36:29Z</time>
      </trkpt>
      <trkpt lat="43.52889" lon="5.56935">
        <ele>465.7</ele>
        <time>2023-05-28T11:36:30Z</time>
      </trkpt>
      <trkpt lat="43.52889" lon="5.56935">
        <ele>465.7</ele>
        <time>2023-05-28T11:36:31Z</time>
      </trkpt>
      <trkpt lat="43.52889" lon="5.56935">
        <ele>465.7</ele>
        <time>2023-05-28T11:36:32Z</time>
      </trkpt>
      <trkpt lat="43.52889" lon="5.56935">
        <ele>465.7</ele>
        <time>2023-05-28T11:36:33Z</time>
      </trkpt>
      <trkpt lat="43.52889" lon="5.56935">
        <ele>465.7</ele>
        <time>2023-05-28T11:36:34Z</time>
      </trkpt>
      <trkpt lat="43.52889" lon="5.56935">
        <ele>465.7</ele>
        <time>2023-05-28T11:36:35Z</time>
      </trkpt>
      <trkpt lat="43.52889" lon="5.56935">
        <ele>465.7</ele>
        <time>2023-05-28T11:36:36Z</time>
      </trkpt>
      <trkpt lat="43.52889" lon="5.56935">
        <ele>465.7</ele>
        <time>2023-05-28T11:36:37Z</time>
      </trkpt>
      <trkpt lat="43.52888" lon="5.56935">
        <ele>465.7</ele>
        <time>2023-05-28T11:36:38Z</time>
      </trkpt>
      <trkpt lat="43.52888" lon="5.56935">
        <ele>465.7</ele>
        <time>2023-05-28T11:36:39Z</time>
      </trkpt>
      <trkpt lat="43.52888" lon="5.56935">
        <ele>465.7</ele>
        <time>2023-05-28T11:36:40Z</time>
      </trkpt>
      <trkpt lat="43.52888" lon="5.56935">
        <ele>465.7</ele>
        <time>2023-05-28T11:36:41Z</time>
      </trkpt>
      <trkpt lat="43.52888" lon="5.56935">
        <ele>465.7</ele>
        <time>2023-05-28T11:36:42Z</time>
      </trkpt>
      <trkpt lat="43.52888" lon="5.56934">
        <ele>465.7</ele>
        <time>2023-05-28T11:36:43Z</time>
      </trkpt>
      <trkpt lat="43.52888" lon="5.56934">
        <ele>465.6</ele>
        <time>2023-05-28T11:36:44Z</time>
      </trkpt>
      <trkpt lat="43.52888" lon="5.56934">
        <ele>465.6</ele>
        <time>2023-05-28T11:36:45Z</time>
      </trkpt>
      <trkpt lat="43.52888" lon="5.56934">
        <ele>465.6</ele>
        <time>2023-05-28T11:36:46Z</time>
      </trkpt>
      <trkpt lat="43.52888" lon="5.56934">
        <ele>465.7</ele>
        <time>2023-05-28T11:36:47Z</time>
      </trkpt>
      <trkpt lat="43.52888" lon="5.56934">
        <ele>465.7</ele>
        <time>2023-05-28T11:36:48Z</time>
      </trkpt>
      <trkpt lat="43.52888" lon="5.56934">
        <ele>465.6</ele>
        <time>2023-05-28T11:36:49Z</time>
      </trkpt>
      <trkpt lat="43.52888" lon="5.56934">
        <ele>465.6</ele>
        <time>2023-05-28T11:36:50Z</time>
      </trkpt>
      <trkpt lat="43.52888" lon="5.56934">
        <ele>465.6</ele>
        <time>2023-05-28T11:36:51Z</time>
      </trkpt>
      <trkpt lat="43.52888" lon="5.56934">
        <ele>465.5</ele>
        <time>2023-05-28T11:36:52Z</time>
      </trkpt>
      <trkpt lat="43.52888" lon="5.56934">
        <ele>465.5</ele>
        <time>2023-05-28T11:36:53Z</time>
      </trkpt>
      <trkpt lat="43.52888" lon="5.56934">
        <ele>465.5</ele>
        <time>2023-05-28T11:36:54Z</time>
      </trkpt>
      <trkpt lat="43.52888" lon="5.56934">
        <ele>465.5</ele>
        <time>2023-05-28T11:36:55Z</time>
      </trkpt>
      <trkpt lat="43.52888" lon="5.56934">
        <ele>465.5</ele>
        <time>2023-05-28T11:36:56Z</time>
      </trkpt>
      <trkpt lat="43.52888" lon="5.56934">
        <ele>465.5</ele>
        <time>2023-05-28T11:36:57Z</time>
      </trkpt>
      <trkpt lat="43.52888" lon="5.56934">
        <ele>465.5</ele>
        <time>2023-05-28T11:36:58Z</time>
      </trkpt>
      <trkpt lat="43.52888" lon="5.56934">
        <ele>465.5</ele>
        <time>2023-05-28T11:36:59Z</time>
      </trkpt>
      <trkpt lat="43.52888" lon="5.56934">
        <ele>465.5</ele>
        <time>2023-05-28T11:37:00Z</time>
      </trkpt>
      <trkpt lat="43.52888" lon="5.56934">
        <ele>465.5</ele>
        <time>2023-05-28T11:37:01Z</time>
      </trkpt>
      <trkpt lat="43.52888" lon="5.56934">
        <ele>465.5</ele>
        <time>2023-05-28T11:37:02Z</time>
      </trkpt>
      <trkpt lat="43.52888" lon="5.56934">
        <ele>465.6</ele>
        <time>2023-05-28T11:37:03Z</time>
      </trkpt>
      <trkpt lat="43.52888" lon="5.56934">
        <ele>465.6</ele>
        <time>2023-05-28T11:37:04Z</time>
      </trkpt>
      <trkpt lat="43.52888" lon="5.56934">
        <ele>465.7</ele>
        <time>2023-05-28T11:37:05Z</time>
      </trkpt>
      <trkpt lat="43.52888" lon="5.56934">
        <ele>465.7</ele>
        <time>2023-05-28T11:37:06Z</time>
      </trkpt>
      <trkpt lat="43.52888" lon="5.56934">
        <ele>465.8</ele>
        <time>2023-05-28T11:37:07Z</time>
      </trkpt>
      <trkpt lat="43.52888" lon="5.56934">
        <ele>465.8</ele>
        <time>2023-05-28T11:37:08Z</time>
      </trkpt>
      <trkpt lat="43.52888" lon="5.56934">
        <ele>465.7</ele>
        <time>2023-05-28T11:37:09Z</time>
      </trkpt>
      <trkpt lat="43.52888" lon="5.56934">
        <ele>465.7</ele>
        <time>2023-05-28T11:37:10Z</time>
      </trkpt>
      <trkpt lat="43.52888" lon="5.56934">
        <ele>465.7</ele>
        <time>2023-05-28T11:37:11Z</time>
      </trkpt>
      <trkpt lat="43.52888" lon="5.56934">
        <ele>465.7</ele>
        <time>2023-05-28T11:37:12Z</time>
      </trkpt>
      <trkpt lat="43.52888" lon="5.56934">
        <ele>465.6</ele>
        <time>2023-05-28T11:37:13Z</time>
      </trkpt>
      <trkpt lat="43.52888" lon="5.56934">
        <ele>465.7</ele>
        <time>2023-05-28T11:37:14Z</time>
      </trkpt>
      <trkpt lat="43.52888" lon="5.56934">
        <ele>465.7</ele>
        <time>2023-05-28T11:37:15Z</time>
      </trkpt>
      <trkpt lat="43.52888" lon="5.56934">
        <ele>465.7</ele>
        <time>2023-05-28T11:37:16Z</time>
      </trkpt>
      <trkpt lat="43.52888" lon="5.56934">
        <ele>465.6</ele>
        <time>2023-05-28T11:37:17Z</time>
      </trkpt>
      <trkpt lat="43.52888" lon="5.56934">
        <ele>465.6</ele>
        <time>2023-05-28T11:37:18Z</time>
      </trkpt>
      <trkpt lat="43.52888" lon="5.56934">
        <ele>465.7</ele>
        <time>2023-05-28T11:37:19Z</time>
      </trkpt>
      <trkpt lat="43.52888" lon="5.56935">
        <ele>465.7</ele>
        <time>2023-05-28T11:37:20Z</time>
      </trkpt>
      <trkpt lat="43.52888" lon="5.56935">
        <ele>465.7</ele>
        <time>2023-05-28T11:37:21Z</time>
      </trkpt>
      <trkpt lat="43.52888" lon="5.56935">
        <ele>465.7</ele>
        <time>2023-05-28T11:37:22Z</time>
      </trkpt>
      <trkpt lat="43.52888" lon="5.56935">
        <ele>465.6</ele>
        <time>2023-05-28T11:37:23Z</time>
      </trkpt>
      <trkpt lat="43.52888" lon="5.56935">
        <ele>465.6</ele>
        <time>2023-05-28T11:37:24Z</time>
      </trkpt>
      <trkpt lat="43.52888" lon="5.56935">
        <ele>465.6</ele>
        <time>2023-05-28T11:37:25Z</time>
      </trkpt>
      <trkpt lat="43.52888" lon="5.56935">
        <ele>465.6</ele>
        <time>2023-05-28T11:37:26Z</time>
      </trkpt>
      <trkpt lat="43.52888" lon="5.56935">
        <ele>465.5</ele>
        <time>2023-05-28T11:37:27Z</time>
      </trkpt>
      <trkpt lat="43.52888" lon="5.56934">
        <ele>465.5</ele>
        <time>2023-05-28T11:37:28Z</time>
      </trkpt>
      <trkpt lat="43.52888" lon="5.56934">
        <ele>465.5</ele>
        <time>2023-05-28T11:37:29Z</time>
      </trkpt>
      <trkpt lat="43.52888" lon="5.56934">
        <ele>465.5</ele>
        <time>2023-05-28T11:37:30Z</time>
      </trkpt>
      <trkpt lat="43.52888" lon="5.56934">
        <ele>465.5</ele>
        <time>2023-05-28T11:37:31Z</time>
      </trkpt>
      <trkpt lat="43.52888" lon="5.56934">
        <ele>465.5</ele>
        <time>2023-05-28T11:37:32Z</time>
      </trkpt>
      <trkpt lat="43.52888" lon="5.56934">
        <ele>465.5</ele>
        <time>2023-05-28T11:37:33Z</time>
      </trkpt>
      <trkpt lat="43.52888" lon="5.56934">
        <ele>465.5</ele>
        <time>2023-05-28T11:37:34Z</time>
      </trkpt>
      <trkpt lat="43.52888" lon="5.56934">
        <ele>465.5</ele>
        <time>2023-05-28T11:37:35Z</time>
      </trkpt>
      <trkpt lat="43.52888" lon="5.56934">
        <ele>465.5</ele>
        <time>2023-05-28T11:37:36Z</time>
      </trkpt>
      <trkpt lat="43.52888" lon="5.56934">
        <ele>465.5</ele>
        <time>2023-05-28T11:37:37Z</time>
      </trkpt>
      <trkpt lat="43.52888" lon="5.56934">
        <ele>465.5</ele>
        <time>2023-05-28T11:37:38Z</time>
      </trkpt>
      <trkpt lat="43.52888" lon="5.56934">
        <ele>465.5</ele>
        <time>2023-05-28T11:37:39Z</time>
      </trkpt>
      <trkpt lat="43.52888" lon="5.56934">
        <ele>465.5</ele>
        <time>2023-05-28T11:37:40Z</time>
      </trkpt>
      <trkpt lat="43.52888" lon="5.56934">
        <ele>465.5</ele>
        <time>2023-05-28T11:37:41Z</time>
      </trkpt>
      <trkpt lat="43.52888" lon="5.56934">
        <ele>465.5</ele>
        <time>2023-05-28T11:37:42Z</time>
      </trkpt>
      <trkpt lat="43.52888" lon="5.56934">
        <ele>465.6</ele>
        <time>2023-05-28T11:37:43Z</time>
      </trkpt>
      <trkpt lat="43.52888" lon="5.56934">
        <ele>465.6</ele>
        <time>2023-05-28T11:37:44Z</time>
      </trkpt>
      <trkpt lat="43.52888" lon="5.56934">
        <ele>465.6</ele>
        <time>2023-05-28T11:37:45Z</time>
      </trkpt>
      <trkpt lat="43.52888" lon="5.56934">
        <ele>465.5</ele>
        <time>2023-05-28T11:37:46Z</time>
      </trkpt>
      <trkpt lat="43.52888" lon="5.56934">
        <ele>465.4</ele>
        <time>2023-05-28T11:37:47Z</time>
      </trkpt>
      <trkpt lat="43.52888" lon="5.56934">
        <ele>465.4</ele>
        <time>2023-05-28T11:37:48Z</time>
      </trkpt>
      <trkpt lat="43.52888" lon="5.56934">
        <ele>465.3</ele>
        <time>2023-05-28T11:37:49Z</time>
      </trkpt>
      <trkpt lat="43.52888" lon="5.56934">
        <ele>465.3</ele>
        <time>2023-05-28T11:37:50Z</time>
      </trkpt>
      <trkpt lat="43.52888" lon="5.56934">
        <ele>465.3</ele>
        <time>2023-05-28T11:37:51Z</time>
      </trkpt>
      <trkpt lat="43.52888" lon="5.56934">
        <ele>465.3</ele>
        <time>2023-05-28T11:37:52Z</time>
      </trkpt>
      <trkpt lat="43.52888" lon="5.56934">
        <ele>465.3</ele>
        <time>2023-05-28T11:37:53Z</time>
      </trkpt>
      <trkpt lat="43.52888" lon="5.56934">
        <ele>465.3</ele>
        <time>2023-05-28T11:37:54Z</time>
      </trkpt>
      <trkpt lat="43.52888" lon="5.56934">
        <ele>465.3</ele>
        <time>2023-05-28T11:37:55Z</time>
      </trkpt>
      <trkpt lat="43.52888" lon="5.56934">
        <ele>465.3</ele>
        <time>2023-05-28T11:37:56Z</time>
      </trkpt>
      <trkpt lat="43.52888" lon="5.56934">
        <ele>465.3</ele>
        <time>2023-05-28T11:37:57Z</time>
      </trkpt>
      <trkpt lat="43.52888" lon="5.56934">
        <ele>465.3</ele>
        <time>2023-05-28T11:37:58Z</time>
      </trkpt>
      <trkpt lat="43.52888" lon="5.56934">
        <ele>465.3</ele>
        <time>2023-05-28T11:37:59Z</time>
      </trkpt>
      <trkpt lat="43.52888" lon="5.56934">
        <ele>465.3</ele>
        <time>2023-05-28T11:38:00Z</time>
      </trkpt>
      <trkpt lat="43.52887" lon="5.56934">
        <ele>465.3</ele>
        <time>2023-05-28T11:38:01Z</time>
      </trkpt>
      <trkpt lat="43.52887" lon="5.56933">
        <ele>465.3</ele>
        <time>2023-05-28T11:38:02Z</time>
      </trkpt>
      <trkpt lat="43.52887" lon="5.56933">
        <ele>465.3</ele>
        <time>2023-05-28T11:38:03Z</time>
      </trkpt>
      <trkpt lat="43.52887" lon="5.56933">
        <ele>465.4</ele>
        <time>2023-05-28T11:38:04Z</time>
      </trkpt>
      <trkpt lat="43.52887" lon="5.56933">
        <ele>465.4</ele>
        <time>2023-05-28T11:38:05Z</time>
      </trkpt>
      <trkpt lat="43.52887" lon="5.56933">
        <ele>465.4</ele>
        <time>2023-05-28T11:38:06Z</time>
      </trkpt>
      <trkpt lat="43.52887" lon="5.56933">
        <ele>465.4</ele>
        <time>2023-05-28T11:38:07Z</time>
      </trkpt>
      <trkpt lat="43.52887" lon="5.56933">
        <ele>465.3</ele>
        <time>2023-05-28T11:38:08Z</time>
      </trkpt>
      <trkpt lat="43.52887" lon="5.56933">
        <ele>465.3</ele>
        <time>2023-05-28T11:38:09Z</time>
      </trkpt>
      <trkpt lat="43.52887" lon="5.56933">
        <ele>465.3</ele>
        <time>2023-05-28T11:38:10Z</time>
      </trkpt>
      <trkpt lat="43.52887" lon="5.56933">
        <ele>465.3</ele>
        <time>2023-05-28T11:38:11Z</time>
      </trkpt>
      <trkpt lat="43.52887" lon="5.56933">
        <ele>465.3</ele>
        <time>2023-05-28T11:38:12Z</time>
      </trkpt>
      <trkpt lat="43.52887" lon="5.56933">
        <ele>465.3</ele>
        <time>2023-05-28T11:38:13Z</time>
      </trkpt>
      <trkpt lat="43.52887" lon="5.56933">
        <ele>465.4</ele>
        <time>2023-05-28T11:38:14Z</time>
      </trkpt>
      <trkpt lat="43.52887" lon="5.56933">
        <ele>465.4</ele>
        <time>2023-05-28T11:38:15Z</time>
      </trkpt>
      <trkpt lat="43.52887" lon="5.56933">
        <ele>465.4</ele>
        <time>2023-05-28T11:38:16Z</time>
      </trkpt>
      <trkpt lat="43.52887" lon="5.56933">
        <ele>465.4</ele>
        <time>2023-05-28T11:38:17Z</time>
      </trkpt>
      <trkpt lat="43.52887" lon="5.56933">
        <ele>465.4</ele>
        <time>2023-05-28T11:38:18Z</time>
      </trkpt>
      <trkpt lat="43.52887" lon="5.56933">
        <ele>465.4</ele>
        <time>2023-05-28T11:38:19Z</time>
      </trkpt>
      <trkpt lat="43.52887" lon="5.56933">
        <ele>465.5</ele>
        <time>2023-05-28T11:38:20Z</time>
      </trkpt>
      <trkpt lat="43.52887" lon="5.56933">
        <ele>465.5</ele>
        <time>2023-05-28T11:38:21Z</time>
      </trkpt>
      <trkpt lat="43.52887" lon="5.56933">
        <ele>465.5</ele>
        <time>2023-05-28T11:38:22Z</time>
      </trkpt>
      <trkpt lat="43.52887" lon="5.56933">
        <ele>465.6</ele>
        <time>2023-05-28T11:38:23Z</time>
      </trkpt>
      <trkpt lat="43.52887" lon="5.56932">
        <ele>465.6</ele>
        <time>2023-05-28T11:38:24Z</time>
      </trkpt>
      <trkpt lat="43.52887" lon="5.56932">
        <ele>465.6</ele>
        <time>2023-05-28T11:38:25Z</time>
      </trkpt>
      <trkpt lat="43.52887" lon="5.56932">
        <ele>465.7</ele>
        <time>2023-05-28T11:38:26Z</time>
      </trkpt>
      <trkpt lat="43.52887" lon="5.56932">
        <ele>465.7</ele>
        <time>2023-05-28T11:38:27Z</time>
      </trkpt>
      <trkpt lat="43.52887" lon="5.56932">
        <ele>465.7</ele>
        <time>2023-05-28T11:38:28Z</time>
      </trkpt>
      <trkpt lat="43.52887" lon="5.56932">
        <ele>465.7</ele>
        <time>2023-05-28T11:38:29Z</time>
      </trkpt>
      <trkpt lat="43.52887" lon="5.56932">
        <ele>465.7</ele>
        <time>2023-05-28T11:38:30Z</time>
      </trkpt>
      <trkpt lat="43.52887" lon="5.56932">
        <ele>465.7</ele>
        <time>2023-05-28T11:38:31Z</time>
      </trkpt>
      <trkpt lat="43.52887" lon="5.56932">
        <ele>465.7</ele>
        <time>2023-05-28T11:38:32Z</time>
      </trkpt>
      <trkpt lat="43.52887" lon="5.56932">
        <ele>465.7</ele>
        <time>2023-05-28T11:38:33Z</time>
      </trkpt>
      <trkpt lat="43.52887" lon="5.56932">
        <ele>465.8</ele>
        <time>2023-05-28T11:38:34Z</time>
      </trkpt>
      <trkpt lat="43.52887" lon="5.56933">
        <ele>465.8</ele>
        <time>2023-05-28T11:38:35Z</time>
      </trkpt>
      <trkpt lat="43.52887" lon="5.56933">
        <ele>465.7</ele>
        <time>2023-05-28T11:38:36Z</time>
      </trkpt>
      <trkpt lat="43.52887" lon="5.56933">
        <ele>465.7</ele>
        <time>2023-05-28T11:38:37Z</time>
      </trkpt>
      <trkpt lat="43.52887" lon="5.56933">
        <ele>465.7</ele>
        <time>2023-05-28T11:38:38Z</time>
      </trkpt>
      <trkpt lat="43.52887" lon="5.56933">
        <ele>465.6</ele>
        <time>2023-05-28T11:38:39Z</time>
      </trkpt>
      <trkpt lat="43.52887" lon="5.56933">
        <ele>465.7</ele>
        <time>2023-05-28T11:38:40Z</time>
      </trkpt>
      <trkpt lat="43.52887" lon="5.56933">
        <ele>465.7</ele>
        <time>2023-05-28T11:38:41Z</time>
      </trkpt>
      <trkpt lat="43.52887" lon="5.56933">
        <ele>465.8</ele>
        <time>2023-05-28T11:38:42Z</time>
      </trkpt>
      <trkpt lat="43.52887" lon="5.56933">
        <ele>465.8</ele>
        <time>2023-05-28T11:38:43Z</time>
      </trkpt>
      <trkpt lat="43.52887" lon="5.56933">
        <ele>465.9</ele>
        <time>2023-05-28T11:38:44Z</time>
      </trkpt>
      <trkpt lat="43.52887" lon="5.56933">
        <ele>466</ele>
        <time>2023-05-28T11:38:45Z</time>
      </trkpt>
      <trkpt lat="43.52887" lon="5.56933">
        <ele>466</ele>
        <time>2023-05-28T11:38:46Z</time>
      </trkpt>
      <trkpt lat="43.52887" lon="5.56934">
        <ele>466</ele>
        <time>2023-05-28T11:38:47Z</time>
      </trkpt>
      <trkpt lat="43.52887" lon="5.56934">
        <ele>466</ele>
        <time>2023-05-28T11:38:48Z</time>
      </trkpt>
      <trkpt lat="43.52887" lon="5.56934">
        <ele>465.9</ele>
        <time>2023-05-28T11:38:49Z</time>
      </trkpt>
      <trkpt lat="43.52887" lon="5.56934">
        <ele>465.9</ele>
        <time>2023-05-28T11:38:50Z</time>
      </trkpt>
      <trkpt lat="43.52887" lon="5.56934">
        <ele>465.8</ele>
        <time>2023-05-28T11:38:51Z</time>
      </trkpt>
      <trkpt lat="43.52887" lon="5.56934">
        <ele>465.8</ele>
        <time>2023-05-28T11:38:52Z</time>
      </trkpt>
      <trkpt lat="43.52887" lon="5.56934">
        <ele>465.7</ele>
        <time>2023-05-28T11:38:53Z</time>
      </trkpt>
      <trkpt lat="43.52887" lon="5.56934">
        <ele>465.7</ele>
        <time>2023-05-28T11:38:54Z</time>
      </trkpt>
      <trkpt lat="43.52887" lon="5.56934">
        <ele>465.6</ele>
        <time>2023-05-28T11:38:55Z</time>
      </trkpt>
      <trkpt lat="43.52886" lon="5.56934">
        <ele>465.6</ele>
        <time>2023-05-28T11:38:56Z</time>
      </trkpt>
      <trkpt lat="43.52886" lon="5.56934">
        <ele>465.8</ele>
        <time>2023-05-28T11:38:57Z</time>
      </trkpt>
      <trkpt lat="43.52886" lon="5.56934">
        <ele>465.8</ele>
        <time>2023-05-28T11:38:58Z</time>
      </trkpt>
      <trkpt lat="43.52886" lon="5.56934">
        <ele>465.9</ele>
        <time>2023-05-28T11:38:59Z</time>
      </trkpt>
      <trkpt lat="43.52886" lon="5.56934">
        <ele>465.9</ele>
        <time>2023-05-28T11:39:00Z</time>
      </trkpt>
      <trkpt lat="43.52886" lon="5.56934">
        <ele>465.9</ele>
        <time>2023-05-28T11:39:01Z</time>
      </trkpt>
      <trkpt lat="43.52886" lon="5.56934">
        <ele>465.9</ele>
        <time>2023-05-28T11:39:02Z</time>
      </trkpt>
      <trkpt lat="43.52886" lon="5.56934">
        <ele>466</ele>
        <time>2023-05-28T11:39:03Z</time>
      </trkpt>
      <trkpt lat="43.52886" lon="5.56934">
        <ele>466</ele>
        <time>2023-05-28T11:39:04Z</time>
      </trkpt>
      <trkpt lat="43.52886" lon="5.56934">
        <ele>465.9</ele>
        <time>2023-05-28T11:39:05Z</time>
      </trkpt>
      <trkpt lat="43.52886" lon="5.56934">
        <ele>465.8</ele>
        <time>2023-05-28T11:39:06Z</time>
      </trkpt>
      <trkpt lat="43.52886" lon="5.56934">
        <ele>465.7</ele>
        <time>2023-05-28T11:39:07Z</time>
      </trkpt>
      <trkpt lat="43.52886" lon="5.56934">
        <ele>465.7</ele>
        <time>2023-05-28T11:39:08Z</time>
      </trkpt>
      <trkpt lat="43.52886" lon="5.56934">
        <ele>465.8</ele>
        <time>2023-05-28T11:39:09Z</time>
      </trkpt>
      <trkpt lat="43.52886" lon="5.56934">
        <ele>465.8</ele>
        <time>2023-05-28T11:39:10Z</time>
      </trkpt>
      <trkpt lat="43.52886" lon="5.56934">
        <ele>465.8</ele>
        <time>2023-05-28T11:39:11Z</time>
      </trkpt>
      <trkpt lat="43.52886" lon="5.56934">
        <ele>465.8</ele>
        <time>2023-05-28T11:39:12Z</time>
      </trkpt>
      <trkpt lat="43.52886" lon="5.56934">
        <ele>465.8</ele>
        <time>2023-05-28T11:39:13Z</time>
      </trkpt>
      <trkpt lat="43.52886" lon="5.56934">
        <ele>465.9</ele>
        <time>2023-05-28T11:39:14Z</time>
      </trkpt>
      <trkpt lat="43.52886" lon="5.56934">
        <ele>465.9</ele>
        <time>2023-05-28T11:39:15Z</time>
      </trkpt>
      <trkpt lat="43.52886" lon="5.56934">
        <ele>465.9</ele>
        <time>2023-05-28T11:39:16Z</time>
      </trkpt>
      <trkpt lat="43.52886" lon="5.56934">
        <ele>466</ele>
        <time>2023-05-28T11:39:17Z</time>
      </trkpt>
      <trkpt lat="43.52886" lon="5.56934">
        <ele>466</ele>
        <time>2023-05-28T11:39:18Z</time>
      </trkpt>
      <trkpt lat="43.52886" lon="5.56934">
        <ele>466</ele>
        <time>2023-05-28T11:39:19Z</time>
      </trkpt>
      <trkpt lat="43.52886" lon="5.56934">
        <ele>466</ele>
        <time>2023-05-28T11:39:20Z</time>
      </trkpt>
      <trkpt lat="43.52886" lon="5.56934">
        <ele>466</ele>
        <time>2023-05-28T11:39:21Z</time>
      </trkpt>
      <trkpt lat="43.52886" lon="5.56934">
        <ele>466</ele>
        <time>2023-05-28T11:39:22Z</time>
      </trkpt>
      <trkpt lat="43.52886" lon="5.56934">
        <ele>466</ele>
        <time>2023-05-28T11:39:23Z</time>
      </trkpt>
      <trkpt lat="43.52886" lon="5.56934">
        <ele>466</ele>
        <time>2023-05-28T11:39:24Z</time>
      </trkpt>
      <trkpt lat="43.52886" lon="5.56934">
        <ele>466</ele>
        <time>2023-05-28T11:39:25Z</time>
      </trkpt>
      <trkpt lat="43.52886" lon="5.56934">
        <ele>466</ele>
        <time>2023-05-28T11:39:26Z</time>
      </trkpt>
      <trkpt lat="43.52886" lon="5.56934">
        <ele>466</ele>
        <time>2023-05-28T11:39:27Z</time>
      </trkpt>
      <trkpt lat="43.52886" lon="5.56934">
        <ele>466</ele>
        <time>2023-05-28T11:39:28Z</time>
      </trkpt>
      <trkpt lat="43.52886" lon="5.56934">
        <ele>465.9</ele>
        <time>2023-05-28T11:39:29Z</time>
      </trkpt>
      <trkpt lat="43.52886" lon="5.56934">
        <ele>465.9</ele>
        <time>2023-05-28T11:39:30Z</time>
      </trkpt>
      <trkpt lat="43.52886" lon="5.56934">
        <ele>465.9</ele>
        <time>2023-05-28T11:39:31Z</time>
      </trkpt>
      <trkpt lat="43.52886" lon="5.56934">
        <ele>465.9</ele>
        <time>2023-05-28T11:39:32Z</time>
      </trkpt>
      <trkpt lat="43.52886" lon="5.56934">
        <ele>465.9</ele>
        <time>2023-05-28T11:39:33Z</time>
      </trkpt>
      <trkpt lat="43.52886" lon="5.56934">
        <ele>466</ele>
        <time>2023-05-28T11:39:34Z</time>
      </trkpt>
      <trkpt lat="43.52886" lon="5.56933">
        <ele>466</ele>
        <time>2023-05-28T11:39:35Z</time>
      </trkpt>
      <trkpt lat="43.52886" lon="5.56933">
        <ele>466</ele>
        <time>2023-05-28T11:39:36Z</time>
      </trkpt>
      <trkpt lat="43.52886" lon="5.56933">
        <ele>466</ele>
        <time>2023-05-28T11:39:37Z</time>
      </trkpt>
      <trkpt lat="43.52885" lon="5.56933">
        <ele>466</ele>
        <time>2023-05-28T11:39:38Z</time>
      </trkpt>
      <trkpt lat="43.52885" lon="5.56934">
        <ele>466</ele>
        <time>2023-05-28T11:39:39Z</time>
      </trkpt>
      <trkpt lat="43.52885" lon="5.56934">
        <ele>466</ele>
        <time>2023-05-28T11:39:40Z</time>
      </trkpt>
      <trkpt lat="43.52885" lon="5.56934">
        <ele>466</ele>
        <time>2023-05-28T11:39:41Z</time>
      </trkpt>
      <trkpt lat="43.52885" lon="5.56933">
        <ele>466.1</ele>
        <time>2023-05-28T11:39:42Z</time>
      </trkpt>
      <trkpt lat="43.52885" lon="5.56933">
        <ele>466</ele>
        <time>2023-05-28T11:39:43Z</time>
      </trkpt>
      <trkpt lat="43.52885" lon="5.56933">
        <ele>466</ele>
        <time>2023-05-28T11:39:44Z</time>
      </trkpt>
      <trkpt lat="43.52885" lon="5.56933">
        <ele>465.9</ele>
        <time>2023-05-28T11:39:45Z</time>
      </trkpt>
      <trkpt lat="43.52885" lon="5.56933">
        <ele>465.9</ele>
        <time>2023-05-28T11:39:46Z</time>
      </trkpt>
      <trkpt lat="43.52885" lon="5.56933">
        <ele>465.8</ele>
        <time>2023-05-28T11:39:47Z</time>
      </trkpt>
      <trkpt lat="43.52885" lon="5.56933">
        <ele>465.8</ele>
        <time>2023-05-28T11:39:48Z</time>
      </trkpt>
      <trkpt lat="43.52885" lon="5.56933">
        <ele>465.7</ele>
        <time>2023-05-28T11:39:49Z</time>
      </trkpt>
      <trkpt lat="43.52885" lon="5.56932">
        <ele>465.8</ele>
        <time>2023-05-28T11:39:50Z</time>
      </trkpt>
      <trkpt lat="43.52885" lon="5.56932">
        <ele>465.8</ele>
        <time>2023-05-28T11:39:51Z</time>
      </trkpt>
      <trkpt lat="43.52885" lon="5.56932">
        <ele>465.8</ele>
        <time>2023-05-28T11:39:52Z</time>
      </trkpt>
      <trkpt lat="43.52885" lon="5.56932">
        <ele>465.7</ele>
        <time>2023-05-28T11:39:53Z</time>
      </trkpt>
      <trkpt lat="43.52885" lon="5.56932">
        <ele>465.6</ele>
        <time>2023-05-28T11:39:54Z</time>
      </trkpt>
      <trkpt lat="43.52885" lon="5.56932">
        <ele>465.6</ele>
        <time>2023-05-28T11:39:55Z</time>
      </trkpt>
      <trkpt lat="43.52885" lon="5.56932">
        <ele>465.6</ele>
        <time>2023-05-28T11:39:56Z</time>
      </trkpt>
      <trkpt lat="43.52885" lon="5.56932">
        <ele>465.6</ele>
        <time>2023-05-28T11:39:57Z</time>
      </trkpt>
      <trkpt lat="43.52885" lon="5.56932">
        <ele>465.7</ele>
        <time>2023-05-28T11:39:58Z</time>
      </trkpt>
      <trkpt lat="43.52885" lon="5.56932">
        <ele>465.8</ele>
        <time>2023-05-28T11:39:59Z</time>
      </trkpt>
      <trkpt lat="43.52885" lon="5.56932">
        <ele>465.8</ele>
        <time>2023-05-28T11:40:00Z</time>
      </trkpt>
      <trkpt lat="43.52885" lon="5.56931">
        <ele>465.8</ele>
        <time>2023-05-28T11:40:01Z</time>
      </trkpt>
      <trkpt lat="43.52885" lon="5.56931">
        <ele>465.9</ele>
        <time>2023-05-28T11:40:02Z</time>
      </trkpt>
      <trkpt lat="43.52885" lon="5.56931">
        <ele>465.9</ele>
        <time>2023-05-28T11:40:03Z</time>
      </trkpt>
      <trkpt lat="43.52885" lon="5.56931">
        <ele>465.9</ele>
        <time>2023-05-28T11:40:04Z</time>
      </trkpt>
      <trkpt lat="43.52885" lon="5.56931">
        <ele>465.9</ele>
        <time>2023-05-28T11:40:05Z</time>
      </trkpt>
      <trkpt lat="43.52884" lon="5.56931">
        <ele>465.9</ele>
        <time>2023-05-28T11:40:06Z</time>
      </trkpt>
      <trkpt lat="43.52884" lon="5.56931">
        <ele>465.9</ele>
        <time>2023-05-28T11:40:07Z</time>
      </trkpt>
      <trkpt lat="43.52884" lon="5.56931">
        <ele>465.9</ele>
        <time>2023-05-28T11:40:08Z</time>
      </trkpt>
      <trkpt lat="43.52884" lon="5.56931">
        <ele>465.9</ele>
        <time>2023-05-28T11:40:09Z</time>
      </trkpt>
      <trkpt lat="43.52884" lon="5.56931">
        <ele>465.8</ele>
        <time>2023-05-28T11:40:10Z</time>
      </trkpt>
      <trkpt lat="43.52884" lon="5.56931">
        <ele>465.8</ele>
        <time>2023-05-28T11:40:11Z</time>
      </trkpt>
      <trkpt lat="43.52885" lon="5.56931">
        <ele>465.7</ele>
        <time>2023-05-28T11:40:12Z</time>
      </trkpt>
      <trkpt lat="43.52885" lon="5.56931">
        <ele>465.7</ele>
        <time>2023-05-28T11:40:13Z</time>
      </trkpt>
      <trkpt lat="43.52885" lon="5.56932">
        <ele>465.6</ele>
        <time>2023-05-28T11:40:14Z</time>
      </trkpt>
      <trkpt lat="43.52885" lon="5.56932">
        <ele>465.6</ele>
        <time>2023-05-28T11:40:15Z</time>
      </trkpt>
      <trkpt lat="43.52885" lon="5.56932">
        <ele>465.6</ele>
        <time>2023-05-28T11:40:16Z</time>
      </trkpt>
      <trkpt lat="43.52885" lon="5.56932">
        <ele>465.6</ele>
        <time>2023-05-28T11:40:17Z</time>
      </trkpt>
      <trkpt lat="43.52885" lon="5.56932">
        <ele>465.6</ele>
        <time>2023-05-28T11:40:18Z</time>
      </trkpt>
      <trkpt lat="43.52885" lon="5.56931">
        <ele>465.6</ele>
        <time>2023-05-28T11:40:19Z</time>
      </trkpt>
      <trkpt lat="43.52885" lon="5.56931">
        <ele>465.7</ele>
        <time>2023-05-28T11:40:20Z</time>
      </trkpt>
      <trkpt lat="43.52885" lon="5.56931">
        <ele>465.7</ele>
        <time>2023-05-28T11:40:21Z</time>
      </trkpt>
      <trkpt lat="43.52885" lon="5.56931">
        <ele>465.8</ele>
        <time>2023-05-28T11:40:22Z</time>
      </trkpt>
      <trkpt lat="43.52885" lon="5.56932">
        <ele>465.8</ele>
        <time>2023-05-28T11:40:23Z</time>
      </trkpt>
      <trkpt lat="43.52885" lon="5.56932">
        <ele>465.8</ele>
        <time>2023-05-28T11:40:24Z</time>
      </trkpt>
      <trkpt lat="43.52885" lon="5.56932">
        <ele>465.8</ele>
        <time>2023-05-28T11:40:25Z</time>
      </trkpt>
      <trkpt lat="43.52885" lon="5.56932">
        <ele>465.8</ele>
        <time>2023-05-28T11:40:26Z</time>
      </trkpt>
      <trkpt lat="43.52885" lon="5.56932">
        <ele>465.8</ele>
        <time>2023-05-28T11:40:27Z</time>
      </trkpt>
      <trkpt lat="43.52885" lon="5.56932">
        <ele>465.8</ele>
        <time>2023-05-28T11:40:28Z</time>
      </trkpt>
      <trkpt lat="43.52884" lon="5.56933">
        <ele>465.9</ele>
        <time>2023-05-28T11:40:29Z</time>
      </trkpt>
      <trkpt lat="43.52884" lon="5.56933">
        <ele>466</ele>
        <time>2023-05-28T11:40:30Z</time>
      </trkpt>
      <trkpt lat="43.52884" lon="5.56933">
        <ele>466</ele>
        <time>2023-05-28T11:40:31Z</time>
      </trkpt>
      <trkpt lat="43.52884" lon="5.56933">
        <ele>466</ele>
        <time>2023-05-28T11:40:32Z</time>
      </trkpt>
      <trkpt lat="43.52884" lon="5.56933">
        <ele>466</ele>
        <time>2023-05-28T11:40:33Z</time>
      </trkpt>
      <trkpt lat="43.52884" lon="5.56933">
        <ele>466</ele>
        <time>2023-05-28T11:40:34Z</time>
      </trkpt>
      <trkpt lat="43.52884" lon="5.56934">
        <ele>466</ele>
        <time>2023-05-28T11:40:35Z</time>
      </trkpt>
      <trkpt lat="43.52884" lon="5.56934">
        <ele>466</ele>
        <time>2023-05-28T11:40:36Z</time>
      </trkpt>
      <trkpt lat="43.52884" lon="5.56934">
        <ele>466</ele>
        <time>2023-05-28T11:40:37Z</time>
      </trkpt>
      <trkpt lat="43.52884" lon="5.56934">
        <ele>466</ele>
        <time>2023-05-28T11:40:38Z</time>
      </trkpt>
      <trkpt lat="43.52884" lon="5.56934">
        <ele>465.9</ele>
        <time>2023-05-28T11:40:39Z</time>
      </trkpt>
      <trkpt lat="43.52884" lon="5.56934">
        <ele>466</ele>
        <time>2023-05-28T11:40:40Z</time>
      </trkpt>
      <trkpt lat="43.52884" lon="5.56934">
        <ele>466</ele>
        <time>2023-05-28T11:40:41Z</time>
      </trkpt>
      <trkpt lat="43.52884" lon="5.56934">
        <ele>466.1</ele>
        <time>2023-05-28T11:40:42Z</time>
      </trkpt>
      <trkpt lat="43.52884" lon="5.56934">
        <ele>466.1</ele>
        <time>2023-05-28T11:40:43Z</time>
      </trkpt>
      <trkpt lat="43.52884" lon="5.56934">
        <ele>466</ele>
        <time>2023-05-28T11:40:44Z</time>
      </trkpt>
      <trkpt lat="43.52884" lon="5.56934">
        <ele>466.1</ele>
        <time>2023-05-28T11:40:45Z</time>
      </trkpt>
      <trkpt lat="43.52884" lon="5.56934">
        <ele>466</ele>
        <time>2023-05-28T11:40:46Z</time>
      </trkpt>
      <trkpt lat="43.52884" lon="5.56934">
        <ele>465.9</ele>
        <time>2023-05-28T11:40:47Z</time>
      </trkpt>
      <trkpt lat="43.52883" lon="5.56933">
        <ele>465.9</ele>
        <time>2023-05-28T11:40:48Z</time>
      </trkpt>
      <trkpt lat="43.52883" lon="5.56933">
        <ele>465.8</ele>
        <time>2023-05-28T11:40:49Z</time>
      </trkpt>
      <trkpt lat="43.52883" lon="5.56933">
        <ele>465.8</ele>
        <time>2023-05-28T11:40:50Z</time>
      </trkpt>
      <trkpt lat="43.52883" lon="5.56933">
        <ele>465.8</ele>
        <time>2023-05-28T11:40:51Z</time>
      </trkpt>
      <trkpt lat="43.52883" lon="5.56933">
        <ele>465.8</ele>
        <time>2023-05-28T11:40:52Z</time>
      </trkpt>
      <trkpt lat="43.52883" lon="5.56933">
        <ele>465.7</ele>
        <time>2023-05-28T11:40:53Z</time>
      </trkpt>
      <trkpt lat="43.52883" lon="5.56932">
        <ele>465.7</ele>
        <time>2023-05-28T11:40:54Z</time>
      </trkpt>
      <trkpt lat="43.52883" lon="5.56932">
        <ele>465.7</ele>
        <time>2023-05-28T11:40:55Z</time>
      </trkpt>
      <trkpt lat="43.52883" lon="5.56932">
        <ele>465.7</ele>
        <time>2023-05-28T11:40:56Z</time>
      </trkpt>
      <trkpt lat="43.52883" lon="5.56932">
        <ele>465.7</ele>
        <time>2023-05-28T11:40:57Z</time>
      </trkpt>
      <trkpt lat="43.52883" lon="5.56932">
        <ele>465.7</ele>
        <time>2023-05-28T11:40:58Z</time>
      </trkpt>
      <trkpt lat="43.52883" lon="5.56932">
        <ele>465.6</ele>
        <time>2023-05-28T11:40:59Z</time>
      </trkpt>
      <trkpt lat="43.52883" lon="5.56932">
        <ele>465.6</ele>
        <time>2023-05-28T11:41:00Z</time>
      </trkpt>
      <trkpt lat="43.52883" lon="5.56932">
        <ele>465.6</ele>
        <time>2023-05-28T11:41:01Z</time>
      </trkpt>
      <trkpt lat="43.52883" lon="5.56932">
        <ele>465.6</ele>
        <time>2023-05-28T11:41:02Z</time>
      </trkpt>
      <trkpt lat="43.52883" lon="5.56931">
        <ele>465.6</ele>
        <time>2023-05-28T11:41:03Z</time>
      </trkpt>
      <trkpt lat="43.52883" lon="5.56931">
        <ele>465.6</ele>
        <time>2023-05-28T11:41:04Z</time>
      </trkpt>
      <trkpt lat="43.52883" lon="5.56932">
        <ele>465.6</ele>
        <time>2023-05-28T11:41:05Z</time>
      </trkpt>
      <trkpt lat="43.52883" lon="5.56932">
        <ele>465.6</ele>
        <time>2023-05-28T11:41:06Z</time>
      </trkpt>
      <trkpt lat="43.52884" lon="5.56932">
        <ele>465.6</ele>
        <time>2023-05-28T11:41:07Z</time>
      </trkpt>
      <trkpt lat="43.52884" lon="5.56932">
        <ele>465.6</ele>
        <time>2023-05-28T11:41:08Z</time>
      </trkpt>
      <trkpt lat="43.52884" lon="5.56932">
        <ele>465.6</ele>
        <time>2023-05-28T11:41:09Z</time>
      </trkpt>
      <trkpt lat="43.52884" lon="5.56932">
        <ele>465.6</ele>
        <time>2023-05-28T11:41:10Z</time>
      </trkpt>
      <trkpt lat="43.52884" lon="5.56932">
        <ele>465.6</ele>
        <time>2023-05-28T11:41:11Z</time>
      </trkpt>
      <trkpt lat="43.52884" lon="5.56932">
        <ele>465.6</ele>
        <time>2023-05-28T11:41:12Z</time>
      </trkpt>
      <trkpt lat="43.52884" lon="5.56932">
        <ele>465.7</ele>
        <time>2023-05-28T11:41:13Z</time>
      </trkpt>
      <trkpt lat="43.52884" lon="5.56932">
        <ele>465.6</ele>
        <time>2023-05-28T11:41:14Z</time>
      </trkpt>
      <trkpt lat="43.52884" lon="5.56932">
        <ele>465.6</ele>
        <time>2023-05-28T11:41:15Z</time>
      </trkpt>
      <trkpt lat="43.52884" lon="5.56932">
        <ele>465.6</ele>
        <time>2023-05-28T11:41:16Z</time>
      </trkpt>
      <trkpt lat="43.52884" lon="5.56932">
        <ele>465.6</ele>
        <time>2023-05-28T11:41:17Z</time>
      </trkpt>
      <trkpt lat="43.52884" lon="5.56932">
        <ele>465.6</ele>
        <time>2023-05-28T11:41:18Z</time>
      </trkpt>
      <trkpt lat="43.52884" lon="5.56932">
        <ele>465.6</ele>
        <time>2023-05-28T11:41:19Z</time>
      </trkpt>
      <trkpt lat="43.52884" lon="5.56932">
        <ele>465.6</ele>
        <time>2023-05-28T11:41:20Z</time>
      </trkpt>
      <trkpt lat="43.52884" lon="5.56932">
        <ele>465.6</ele>
        <time>2023-05-28T11:41:21Z</time>
      </trkpt>
      <trkpt lat="43.52884" lon="5.56932">
        <ele>465.5</ele>
        <time>2023-05-28T11:41:22Z</time>
      </trkpt>
      <trkpt lat="43.52884" lon="5.56932">
        <ele>465.6</ele>
        <time>2023-05-28T11:41:23Z</time>
      </trkpt>
      <trkpt lat="43.52884" lon="5.56932">
        <ele>465.6</ele>
        <time>2023-05-28T11:41:24Z</time>
      </trkpt>
      <trkpt lat="43.52884" lon="5.56933">
        <ele>465.6</ele>
        <time>2023-05-28T11:41:25Z</time>
      </trkpt>
      <trkpt lat="43.52884" lon="5.56933">
        <ele>465.6</ele>
        <time>2023-05-28T11:41:26Z</time>
      </trkpt>
      <trkpt lat="43.52884" lon="5.56933">
        <ele>465.6</ele>
        <time>2023-05-28T11:41:27Z</time>
      </trkpt>
      <trkpt lat="43.52884" lon="5.56933">
        <ele>465.6</ele>
        <time>2023-05-28T11:41:28Z</time>
      </trkpt>
      <trkpt lat="43.52884" lon="5.56933">
        <ele>465.6</ele>
        <time>2023-05-28T11:41:29Z</time>
      </trkpt>
      <trkpt lat="43.52884" lon="5.56933">
        <ele>465.7</ele>
        <time>2023-05-28T11:41:30Z</time>
      </trkpt>
      <trkpt lat="43.52884" lon="5.56933">
        <ele>465.7</ele>
        <time>2023-05-28T11:41:31Z</time>
      </trkpt>
      <trkpt lat="43.52884" lon="5.56934">
        <ele>465.6</ele>
        <time>2023-05-28T11:41:32Z</time>
      </trkpt>
      <trkpt lat="43.52884" lon="5.56934">
        <ele>465.7</ele>
        <time>2023-05-28T11:41:33Z</time>
      </trkpt>
      <trkpt lat="43.52884" lon="5.56934">
        <ele>465.7</ele>
        <time>2023-05-28T11:41:34Z</time>
      </trkpt>
      <trkpt lat="43.52884" lon="5.56934">
        <ele>465.7</ele>
        <time>2023-05-28T11:41:35Z</time>
      </trkpt>
      <trkpt lat="43.52884" lon="5.56934">
        <ele>465.6</ele>
        <time>2023-05-28T11:41:36Z</time>
      </trkpt>
      <trkpt lat="43.52884" lon="5.56934">
        <ele>465.6</ele>
        <time>2023-05-28T11:41:37Z</time>
      </trkpt>
      <trkpt lat="43.52884" lon="5.56934">
        <ele>465.6</ele>
        <time>2023-05-28T11:41:38Z</time>
      </trkpt>
      <trkpt lat="43.52884" lon="5.56934">
        <ele>465.6</ele>
        <time>2023-05-28T11:41:39Z</time>
      </trkpt>
      <trkpt lat="43.52884" lon="5.56934">
        <ele>465.6</ele>
        <time>2023-05-28T11:41:40Z</time>
      </trkpt>
      <trkpt lat="43.52884" lon="5.56934">
        <ele>465.6</ele>
        <time>2023-05-28T11:41:41Z</time>
      </trkpt>
      <trkpt lat="43.52884" lon="5.56934">
        <ele>465.7</ele>
        <time>2023-05-28T11:41:42Z</time>
      </trkpt>
      <trkpt lat="43.52884" lon="5.56935">
        <ele>465.7</ele>
        <time>2023-05-28T11:41:43Z</time>
      </trkpt>
      <trkpt lat="43.52884" lon="5.56935">
        <ele>465.7</ele>
        <time>2023-05-28T11:41:44Z</time>
      </trkpt>
      <trkpt lat="43.52884" lon="5.56935">
        <ele>465.7</ele>
        <time>2023-05-28T11:41:45Z</time>
      </trkpt>
      <trkpt lat="43.52884" lon="5.56935">
        <ele>465.7</ele>
        <time>2023-05-28T11:41:46Z</time>
      </trkpt>
      <trkpt lat="43.52885" lon="5.56935">
        <ele>465.8</ele>
        <time>2023-05-28T11:41:47Z</time>
      </trkpt>
      <trkpt lat="43.52885" lon="5.56935">
        <ele>465.9</ele>
        <time>2023-05-28T11:41:48Z</time>
      </trkpt>
      <trkpt lat="43.52885" lon="5.56936">
        <ele>465.9</ele>
        <time>2023-05-28T11:41:49Z</time>
      </trkpt>
      <trkpt lat="43.52885" lon="5.56936">
        <ele>465.9</ele>
        <time>2023-05-28T11:41:50Z</time>
      </trkpt>
      <trkpt lat="43.52885" lon="5.56936">
        <ele>465.9</ele>
        <time>2023-05-28T11:41:51Z</time>
      </trkpt>
      <trkpt lat="43.52885" lon="5.56936">
        <ele>465.9</ele>
        <time>2023-05-28T11:41:52Z</time>
      </trkpt>
      <trkpt lat="43.52885" lon="5.56936">
        <ele>466</ele>
        <time>2023-05-28T11:41:53Z</time>
      </trkpt>
      <trkpt lat="43.52885" lon="5.56936">
        <ele>466</ele>
        <time>2023-05-28T11:41:54Z</time>
      </trkpt>
      <trkpt lat="43.52885" lon="5.56936">
        <ele>466</ele>
        <time>2023-05-28T11:41:55Z</time>
      </trkpt>
      <trkpt lat="43.52885" lon="5.56936">
        <ele>466</ele>
        <time>2023-05-28T11:41:56Z</time>
      </trkpt>
      <trkpt lat="43.52885" lon="5.56936">
        <ele>466</ele>
        <time>2023-05-28T11:41:57Z</time>
      </trkpt>
      <trkpt lat="43.52885" lon="5.56936">
        <ele>466</ele>
        <time>2023-05-28T11:41:58Z</time>
      </trkpt>
      <trkpt lat="43.52885" lon="5.56936">
        <ele>466</ele>
        <time>2023-05-28T11:41:59Z</time>
      </trkpt>
      <trkpt lat="43.52885" lon="5.56937">
        <ele>466</ele>
        <time>2023-05-28T11:42:00Z</time>
      </trkpt>
      <trkpt lat="43.52886" lon="5.56937">
        <ele>465.9</ele>
        <time>2023-05-28T11:42:01Z</time>
      </trkpt>
      <trkpt lat="43.52886" lon="5.56937">
        <ele>465.9</ele>
        <time>2023-05-28T11:42:02Z</time>
      </trkpt>
      <trkpt lat="43.52886" lon="5.56936">
        <ele>465.8</ele>
        <time>2023-05-28T11:42:03Z</time>
      </trkpt>
      <trkpt lat="43.52886" lon="5.56937">
        <ele>465.8</ele>
        <time>2023-05-28T11:42:04Z</time>
      </trkpt>
      <trkpt lat="43.52886" lon="5.56937">
        <ele>465.8</ele>
        <time>2023-05-28T11:42:05Z</time>
      </trkpt>
      <trkpt lat="43.52886" lon="5.56937">
        <ele>465.7</ele>
        <time>2023-05-28T11:42:06Z</time>
      </trkpt>
      <trkpt lat="43.52886" lon="5.56937">
        <ele>465.7</ele>
        <time>2023-05-28T11:42:07Z</time>
      </trkpt>
      <trkpt lat="43.52886" lon="5.56937">
        <ele>465.7</ele>
        <time>2023-05-28T11:42:08Z</time>
      </trkpt>
      <trkpt lat="43.52886" lon="5.56937">
        <ele>465.7</ele>
        <time>2023-05-28T11:42:09Z</time>
      </trkpt>
      <trkpt lat="43.52886" lon="5.56937">
        <ele>465.7</ele>
        <time>2023-05-28T11:42:10Z</time>
      </trkpt>
      <trkpt lat="43.52886" lon="5.56937">
        <ele>465.8</ele>
        <time>2023-05-28T11:42:11Z</time>
      </trkpt>
      <trkpt lat="43.52886" lon="5.56937">
        <ele>465.8</ele>
        <time>2023-05-28T11:42:12Z</time>
      </trkpt>
      <trkpt lat="43.52886" lon="5.56937">
        <ele>465.8</ele>
        <time>2023-05-28T11:42:13Z</time>
      </trkpt>
      <trkpt lat="43.52886" lon="5.56937">
        <ele>465.9</ele>
        <time>2023-05-28T11:42:14Z</time>
      </trkpt>
      <trkpt lat="43.52887" lon="5.56937">
        <ele>465.9</ele>
        <time>2023-05-28T11:42:15Z</time>
      </trkpt>
      <trkpt lat="43.52887" lon="5.56937">
        <ele>465.9</ele>
        <time>2023-05-28T11:42:16Z</time>
      </trkpt>
      <trkpt lat="43.52887" lon="5.56937">
        <ele>465.9</ele>
        <time>2023-05-28T11:42:17Z</time>
      </trkpt>
      <trkpt lat="43.52887" lon="5.56938">
        <ele>465.9</ele>
        <time>2023-05-28T11:42:18Z</time>
      </trkpt>
      <trkpt lat="43.52887" lon="5.56938">
        <ele>466</ele>
        <time>2023-05-28T11:42:19Z</time>
      </trkpt>
      <trkpt lat="43.52887" lon="5.56938">
        <ele>465.9</ele>
        <time>2023-05-28T11:42:20Z</time>
      </trkpt>
      <trkpt lat="43.52887" lon="5.56938">
        <ele>465.9</ele>
        <time>2023-05-28T11:42:21Z</time>
      </trkpt>
      <trkpt lat="43.52887" lon="5.56938">
        <ele>465.9</ele>
        <time>2023-05-28T11:42:22Z</time>
      </trkpt>
      <trkpt lat="43.52887" lon="5.56938">
        <ele>465.9</ele>
        <time>2023-05-28T11:42:23Z</time>
      </trkpt>
      <trkpt lat="43.52887" lon="5.56938">
        <ele>465.9</ele>
        <time>2023-05-28T11:42:24Z</time>
      </trkpt>
      <trkpt lat="43.52887" lon="5.56938">
        <ele>465.9</ele>
        <time>2023-05-28T11:42:25Z</time>
      </trkpt>
      <trkpt lat="43.52887" lon="5.56938">
        <ele>465.9</ele>
        <time>2023-05-28T11:42:26Z</time>
      </trkpt>
      <trkpt lat="43.52887" lon="5.56938">
        <ele>465.9</ele>
        <time>2023-05-28T11:42:27Z</time>
      </trkpt>
      <trkpt lat="43.52887" lon="5.56938">
        <ele>465.9</ele>
        <time>2023-05-28T11:42:28Z</time>
      </trkpt>
      <trkpt lat="43.52887" lon="5.56938">
        <ele>465.9</ele>
        <time>2023-05-28T11:42:29Z</time>
      </trkpt>
      <trkpt lat="43.52887" lon="5.56938">
        <ele>465.9</ele>
        <time>2023-05-28T11:42:30Z</time>
      </trkpt>
      <trkpt lat="43.52887" lon="5.56938">
        <ele>466</ele>
        <time>2023-05-28T11:42:31Z</time>
      </trkpt>
      <trkpt lat="43.52887" lon="5.56938">
        <ele>466</ele>
        <time>2023-05-28T11:42:32Z</time>
      </trkpt>
      <trkpt lat="43.52887" lon="5.56938">
        <ele>466</ele>
        <time>2023-05-28T11:42:33Z</time>
      </trkpt>
      <trkpt lat="43.52887" lon="5.56938">
        <ele>466</ele>
        <time>2023-05-28T11:42:34Z</time>
      </trkpt>
      <trkpt lat="43.52886" lon="5.56938">
        <ele>466</ele>
        <time>2023-05-28T11:42:35Z</time>
      </trkpt>
      <trkpt lat="43.52886" lon="5.56938">
        <ele>466</ele>
        <time>2023-05-28T11:42:36Z</time>
      </trkpt>
      <trkpt lat="43.52886" lon="5.56938">
        <ele>466</ele>
        <time>2023-05-28T11:42:37Z</time>
      </trkpt>
      <trkpt lat="43.52886" lon="5.56938">
        <ele>466</ele>
        <time>2023-05-28T11:42:38Z</time>
      </trkpt>
      <trkpt lat="43.52886" lon="5.56938">
        <ele>466</ele>
        <time>2023-05-28T11:42:39Z</time>
      </trkpt>
      <trkpt lat="43.52886" lon="5.56938">
        <ele>466</ele>
        <time>2023-05-28T11:42:40Z</time>
      </trkpt>
      <trkpt lat="43.52886" lon="5.56938">
        <ele>466</ele>
        <time>2023-05-28T11:42:41Z</time>
      </trkpt>
      <trkpt lat="43.52886" lon="5.56938">
        <ele>466.1</ele>
        <time>2023-05-28T11:42:42Z</time>
      </trkpt>
      <trkpt lat="43.52886" lon="5.56938">
        <ele>466.1</ele>
        <time>2023-05-28T11:42:43Z</time>
      </trkpt>
      <trkpt lat="43.52886" lon="5.56937">
        <ele>466.1</ele>
        <time>2023-05-28T11:42:44Z</time>
      </trkpt>
      <trkpt lat="43.52886" lon="5.56937">
        <ele>466.2</ele>
        <time>2023-05-28T11:42:45Z</time>
      </trkpt>
      <trkpt lat="43.52886" lon="5.56937">
        <ele>466.2</ele>
        <time>2023-05-28T11:42:46Z</time>
      </trkpt>
      <trkpt lat="43.52886" lon="5.56937">
        <ele>466.1</ele>
        <time>2023-05-28T11:42:47Z</time>
      </trkpt>
      <trkpt lat="43.52885" lon="5.56937">
        <ele>466.1</ele>
        <time>2023-05-28T11:42:48Z</time>
      </trkpt>
      <trkpt lat="43.52885" lon="5.56937">
        <ele>466.1</ele>
        <time>2023-05-28T11:42:49Z</time>
      </trkpt>
      <trkpt lat="43.52885" lon="5.56937">
        <ele>466.1</ele>
        <time>2023-05-28T11:42:50Z</time>
      </trkpt>
      <trkpt lat="43.52885" lon="5.56937">
        <ele>466.1</ele>
        <time>2023-05-28T11:42:51Z</time>
      </trkpt>
      <trkpt lat="43.52885" lon="5.56937">
        <ele>466.1</ele>
        <time>2023-05-28T11:42:52Z</time>
      </trkpt>
      <trkpt lat="43.52885" lon="5.56936">
        <ele>466</ele>
        <time>2023-05-28T11:42:53Z</time>
      </trkpt>
      <trkpt lat="43.52885" lon="5.56936">
        <ele>466</ele>
        <time>2023-05-28T11:42:54Z</time>
      </trkpt>
      <trkpt lat="43.52885" lon="5.56936">
        <ele>466.1</ele>
        <time>2023-05-28T11:42:55Z</time>
      </trkpt>
      <trkpt lat="43.52885" lon="5.56936">
        <ele>466.2</ele>
        <time>2023-05-28T11:42:56Z</time>
      </trkpt>
      <trkpt lat="43.52885" lon="5.56936">
        <ele>466</ele>
        <time>2023-05-28T11:42:57Z</time>
      </trkpt>
      <trkpt lat="43.52885" lon="5.56936">
        <ele>466.1</ele>
        <time>2023-05-28T11:42:58Z</time>
      </trkpt>
      <trkpt lat="43.52885" lon="5.56936">
        <ele>466</ele>
        <time>2023-05-28T11:42:59Z</time>
      </trkpt>
      <trkpt lat="43.52885" lon="5.56936">
        <ele>466</ele>
        <time>2023-05-28T11:43:00Z</time>
      </trkpt>
      <trkpt lat="43.52885" lon="5.56936">
        <ele>466</ele>
        <time>2023-05-28T11:43:01Z</time>
      </trkpt>
      <trkpt lat="43.52885" lon="5.56936">
        <ele>466</ele>
        <time>2023-05-28T11:43:02Z</time>
      </trkpt>
      <trkpt lat="43.52885" lon="5.56936">
        <ele>466</ele>
        <time>2023-05-28T11:43:03Z</time>
      </trkpt>
      <trkpt lat="43.52885" lon="5.56936">
        <ele>466.1</ele>
        <time>2023-05-28T11:43:04Z</time>
      </trkpt>
      <trkpt lat="43.52885" lon="5.56936">
        <ele>466</ele>
        <time>2023-05-28T11:43:05Z</time>
      </trkpt>
      <trkpt lat="43.52885" lon="5.56936">
        <ele>466.1</ele>
        <time>2023-05-28T11:43:06Z</time>
      </trkpt>
      <trkpt lat="43.52885" lon="5.56936">
        <ele>466.1</ele>
        <time>2023-05-28T11:43:07Z</time>
      </trkpt>
      <trkpt lat="43.52885" lon="5.56936">
        <ele>466.1</ele>
        <time>2023-05-28T11:43:08Z</time>
      </trkpt>
      <trkpt lat="43.52885" lon="5.56936">
        <ele>466.1</ele>
        <time>2023-05-28T11:43:09Z</time>
      </trkpt>
      <trkpt lat="43.52885" lon="5.56936">
        <ele>466.1</ele>
        <time>2023-05-28T11:43:10Z</time>
      </trkpt>
      <trkpt lat="43.52885" lon="5.56936">
        <ele>466.1</ele>
        <time>2023-05-28T11:43:11Z</time>
      </trkpt>
      <trkpt lat="43.52885" lon="5.56937">
        <ele>466.1</ele>
        <time>2023-05-28T11:43:12Z</time>
      </trkpt>
      <trkpt lat="43.52885" lon="5.56937">
        <ele>466.1</ele>
        <time>2023-05-28T11:43:13Z</time>
      </trkpt>
      <trkpt lat="43.52885" lon="5.56937">
        <ele>466</ele>
        <time>2023-05-28T11:43:14Z</time>
      </trkpt>
      <trkpt lat="43.52885" lon="5.56937">
        <ele>466</ele>
        <time>2023-05-28T11:43:15Z</time>
      </trkpt>
      <trkpt lat="43.52885" lon="5.56937">
        <ele>466.1</ele>
        <time>2023-05-28T11:43:16Z</time>
      </trkpt>
      <trkpt lat="43.52885" lon="5.56937">
        <ele>466.1</ele>
        <time>2023-05-28T11:43:17Z</time>
      </trkpt>
      <trkpt lat="43.52886" lon="5.56937">
        <ele>466.2</ele>
        <time>2023-05-28T11:43:18Z</time>
      </trkpt>
      <trkpt lat="43.52886" lon="5.56937">
        <ele>466.2</ele>
        <time>2023-05-28T11:43:19Z</time>
      </trkpt>
      <trkpt lat="43.52886" lon="5.56937">
        <ele>466.3</ele>
        <time>2023-05-28T11:43:20Z</time>
      </trkpt>
      <trkpt lat="43.52886" lon="5.56937">
        <ele>466.4</ele>
        <time>2023-05-28T11:43:21Z</time>
      </trkpt>
      <trkpt lat="43.52886" lon="5.56937">
        <ele>466.4</ele>
        <time>2023-05-28T11:43:22Z</time>
      </trkpt>
      <trkpt lat="43.52886" lon="5.56937">
        <ele>466.4</ele>
        <time>2023-05-28T11:43:23Z</time>
      </trkpt>
      <trkpt lat="43.52886" lon="5.56937">
        <ele>466.4</ele>
        <time>2023-05-28T11:43:24Z</time>
      </trkpt>
      <trkpt lat="43.52886" lon="5.56937">
        <ele>466.5</ele>
        <time>2023-05-28T11:43:25Z</time>
      </trkpt>
      <trkpt lat="43.52886" lon="5.56938">
        <ele>466.5</ele>
        <time>2023-05-28T11:43:26Z</time>
      </trkpt>
      <trkpt lat="43.52886" lon="5.56938">
        <ele>466.5</ele>
        <time>2023-05-28T11:43:27Z</time>
      </trkpt>
      <trkpt lat="43.52886" lon="5.56938">
        <ele>466.4</ele>
        <time>2023-05-28T11:43:28Z</time>
      </trkpt>
      <trkpt lat="43.52885" lon="5.56938">
        <ele>466.4</ele>
        <time>2023-05-28T11:43:29Z</time>
      </trkpt>
      <trkpt lat="43.52885" lon="5.56938">
        <ele>466.3</ele>
        <time>2023-05-28T11:43:30Z</time>
      </trkpt>
      <trkpt lat="43.52885" lon="5.56938">
        <ele>466.4</ele>
        <time>2023-05-28T11:43:31Z</time>
      </trkpt>
      <trkpt lat="43.52885" lon="5.56938">
        <ele>466.5</ele>
        <time>2023-05-28T11:43:32Z</time>
      </trkpt>
      <trkpt lat="43.52885" lon="5.56938">
        <ele>466.5</ele>
        <time>2023-05-28T11:43:33Z</time>
      </trkpt>
      <trkpt lat="43.52885" lon="5.56938">
        <ele>466.5</ele>
        <time>2023-05-28T11:43:34Z</time>
      </trkpt>
      <trkpt lat="43.52885" lon="5.56938">
        <ele>466.4</ele>
        <time>2023-05-28T11:43:35Z</time>
      </trkpt>
      <trkpt lat="43.52885" lon="5.56939">
        <ele>466.4</ele>
        <time>2023-05-28T11:43:36Z</time>
      </trkpt>
      <trkpt lat="43.52885" lon="5.56939">
        <ele>466.3</ele>
        <time>2023-05-28T11:43:37Z</time>
      </trkpt>
      <trkpt lat="43.52885" lon="5.56939">
        <ele>466.3</ele>
        <time>2023-05-28T11:43:38Z</time>
      </trkpt>
      <trkpt lat="43.52885" lon="5.56939">
        <ele>466.3</ele>
        <time>2023-05-28T11:43:39Z</time>
      </trkpt>
      <trkpt lat="43.52885" lon="5.56939">
        <ele>466.3</ele>
        <time>2023-05-28T11:43:40Z</time>
      </trkpt>
      <trkpt lat="43.52885" lon="5.56939">
        <ele>466.2</ele>
        <time>2023-05-28T11:43:41Z</time>
      </trkpt>
      <trkpt lat="43.52885" lon="5.56939">
        <ele>466.2</ele>
        <time>2023-05-28T11:43:42Z</time>
      </trkpt>
      <trkpt lat="43.52885" lon="5.56939">
        <ele>466.1</ele>
        <time>2023-05-28T11:43:43Z</time>
      </trkpt>
      <trkpt lat="43.52885" lon="5.56939">
        <ele>466.1</ele>
        <time>2023-05-28T11:43:44Z</time>
      </trkpt>
      <trkpt lat="43.52885" lon="5.56939">
        <ele>466</ele>
        <time>2023-05-28T11:43:45Z</time>
      </trkpt>
      <trkpt lat="43.52885" lon="5.56939">
        <ele>466.1</ele>
        <time>2023-05-28T11:43:46Z</time>
      </trkpt>
      <trkpt lat="43.52885" lon="5.56939">
        <ele>466.1</ele>
        <time>2023-05-28T11:43:47Z</time>
      </trkpt>
      <trkpt lat="43.52885" lon="5.56938">
        <ele>466.1</ele>
        <time>2023-05-28T11:43:48Z</time>
      </trkpt>
      <trkpt lat="43.52885" lon="5.56938">
        <ele>466</ele>
        <time>2023-05-28T11:43:49Z</time>
      </trkpt>
      <trkpt lat="43.52885" lon="5.56938">
        <ele>466</ele>
        <time>2023-05-28T11:43:50Z</time>
      </trkpt>
      <trkpt lat="43.52884" lon="5.56938">
        <ele>466</ele>
        <time>2023-05-28T11:43:51Z</time>
      </trkpt>
      <trkpt lat="43.52884" lon="5.56938">
        <ele>465.9</ele>
        <time>2023-05-28T11:43:52Z</time>
      </trkpt>
      <trkpt lat="43.52884" lon="5.56938">
        <ele>465.9</ele>
        <time>2023-05-28T11:43:53Z</time>
      </trkpt>
      <trkpt lat="43.52884" lon="5.56938">
        <ele>465.9</ele>
        <time>2023-05-28T11:43:54Z</time>
      </trkpt>
      <trkpt lat="43.52884" lon="5.56938">
        <ele>465.9</ele>
        <time>2023-05-28T11:43:55Z</time>
      </trkpt>
      <trkpt lat="43.52884" lon="5.56938">
        <ele>465.9</ele>
        <time>2023-05-28T11:43:56Z</time>
      </trkpt>
      <trkpt lat="43.52884" lon="5.56938">
        <ele>466</ele>
        <time>2023-05-28T11:43:57Z</time>
      </trkpt>
      <trkpt lat="43.52884" lon="5.56938">
        <ele>466</ele>
        <time>2023-05-28T11:43:58Z</time>
      </trkpt>
      <trkpt lat="43.52884" lon="5.56938">
        <ele>465.9</ele>
        <time>2023-05-28T11:43:59Z</time>
      </trkpt>
      <trkpt lat="43.52884" lon="5.56938">
        <ele>466</ele>
        <time>2023-05-28T11:44:00Z</time>
      </trkpt>
      <trkpt lat="43.52884" lon="5.56938">
        <ele>466.1</ele>
        <time>2023-05-28T11:44:01Z</time>
      </trkpt>
      <trkpt lat="43.52883" lon="5.56938">
        <ele>466.2</ele>
        <time>2023-05-28T11:44:02Z</time>
      </trkpt>
      <trkpt lat="43.52883" lon="5.56938">
        <ele>466.2</ele>
        <time>2023-05-28T11:44:03Z</time>
      </trkpt>
      <trkpt lat="43.52883" lon="5.56938">
        <ele>466.2</ele>
        <time>2023-05-28T11:44:04Z</time>
      </trkpt>
      <trkpt lat="43.52883" lon="5.56937">
        <ele>466.2</ele>
        <time>2023-05-28T11:44:05Z</time>
      </trkpt>
      <trkpt lat="43.52883" lon="5.56937">
        <ele>466.2</ele>
        <time>2023-05-28T11:44:06Z</time>
      </trkpt>
      <trkpt lat="43.52883" lon="5.56937">
        <ele>466.1</ele>
        <time>2023-05-28T11:44:07Z</time>
      </trkpt>
      <trkpt lat="43.52883" lon="5.56937">
        <ele>466.1</ele>
        <time>2023-05-28T11:44:08Z</time>
      </trkpt>
      <trkpt lat="43.52883" lon="5.56937">
        <ele>466.1</ele>
        <time>2023-05-28T11:44:09Z</time>
      </trkpt>
      <trkpt lat="43.52883" lon="5.56937">
        <ele>466.1</ele>
        <time>2023-05-28T11:44:10Z</time>
      </trkpt>
      <trkpt lat="43.52883" lon="5.56937">
        <ele>466.1</ele>
        <time>2023-05-28T11:44:11Z</time>
      </trkpt>
      <trkpt lat="43.52883" lon="5.56937">
        <ele>466.1</ele>
        <time>2023-05-28T11:44:12Z</time>
      </trkpt>
      <trkpt lat="43.52883" lon="5.56937">
        <ele>466</ele>
        <time>2023-05-28T11:44:13Z</time>
      </trkpt>
      <trkpt lat="43.52883" lon="5.56937">
        <ele>466</ele>
        <time>2023-05-28T11:44:14Z</time>
      </trkpt>
      <trkpt lat="43.52883" lon="5.56937">
        <ele>465.9</ele>
        <time>2023-05-28T11:44:15Z</time>
      </trkpt>
      <trkpt lat="43.52883" lon="5.56937">
        <ele>466</ele>
        <time>2023-05-28T11:44:16Z</time>
      </trkpt>
      <trkpt lat="43.52883" lon="5.56936">
        <ele>466</ele>
        <time>2023-05-28T11:44:17Z</time>
      </trkpt>
      <trkpt lat="43.52883" lon="5.56936">
        <ele>466.1</ele>
        <time>2023-05-28T11:44:18Z</time>
      </trkpt>
      <trkpt lat="43.52883" lon="5.56936">
        <ele>466.1</ele>
        <time>2023-05-28T11:44:19Z</time>
      </trkpt>
      <trkpt lat="43.52883" lon="5.56936">
        <ele>466.1</ele>
        <time>2023-05-28T11:44:20Z</time>
      </trkpt>
      <trkpt lat="43.52883" lon="5.56936">
        <ele>466.1</ele>
        <time>2023-05-28T11:44:21Z</time>
      </trkpt>
      <trkpt lat="43.52883" lon="5.56936">
        <ele>466</ele>
        <time>2023-05-28T11:44:22Z</time>
      </trkpt>
      <trkpt lat="43.52883" lon="5.56936">
        <ele>465.9</ele>
        <time>2023-05-28T11:44:23Z</time>
      </trkpt>
      <trkpt lat="43.52883" lon="5.56936">
        <ele>465.9</ele>
        <time>2023-05-28T11:44:24Z</time>
      </trkpt>
      <trkpt lat="43.52883" lon="5.56936">
        <ele>465.9</ele>
        <time>2023-05-28T11:44:25Z</time>
      </trkpt>
      <trkpt lat="43.52883" lon="5.56936">
        <ele>465.9</ele>
        <time>2023-05-28T11:44:26Z</time>
      </trkpt>
      <trkpt lat="43.52883" lon="5.56936">
        <ele>465.9</ele>
        <time>2023-05-28T11:44:27Z</time>
      </trkpt>
      <trkpt lat="43.52883" lon="5.56935">
        <ele>466</ele>
        <time>2023-05-28T11:44:28Z</time>
      </trkpt>
      <trkpt lat="43.52883" lon="5.56935">
        <ele>466.1</ele>
        <time>2023-05-28T11:44:29Z</time>
      </trkpt>
      <trkpt lat="43.52883" lon="5.56935">
        <ele>466</ele>
        <time>2023-05-28T11:44:30Z</time>
      </trkpt>
      <trkpt lat="43.52883" lon="5.56935">
        <ele>465.9</ele>
        <time>2023-05-28T11:44:31Z</time>
      </trkpt>
      <trkpt lat="43.52883" lon="5.56935">
        <ele>465.9</ele>
        <time>2023-05-28T11:44:32Z</time>
      </trkpt>
      <trkpt lat="43.52883" lon="5.56935">
        <ele>465.9</ele>
        <time>2023-05-28T11:44:33Z</time>
      </trkpt>
      <trkpt lat="43.52883" lon="5.56935">
        <ele>465.8</ele>
        <time>2023-05-28T11:44:34Z</time>
      </trkpt>
      <trkpt lat="43.52883" lon="5.56935">
        <ele>465.8</ele>
        <time>2023-05-28T11:44:35Z</time>
      </trkpt>
      <trkpt lat="43.52883" lon="5.56935">
        <ele>465.8</ele>
        <time>2023-05-28T11:44:36Z</time>
      </trkpt>
      <trkpt lat="43.52883" lon="5.56935">
        <ele>465.8</ele>
        <time>2023-05-28T11:44:37Z</time>
      </trkpt>
      <trkpt lat="43.52883" lon="5.56935">
        <ele>465.7</ele>
        <time>2023-05-28T11:44:38Z</time>
      </trkpt>
      <trkpt lat="43.52884" lon="5.56936">
        <ele>465.7</ele>
        <time>2023-05-28T11:44:39Z</time>
      </trkpt>
      <trkpt lat="43.52884" lon="5.56936">
        <ele>465.7</ele>
        <time>2023-05-28T11:44:40Z</time>
      </trkpt>
      <trkpt lat="43.52884" lon="5.56936">
        <ele>465.7</ele>
        <time>2023-05-28T11:44:41Z</time>
      </trkpt>
      <trkpt lat="43.52884" lon="5.56936">
        <ele>465.7</ele>
        <time>2023-05-28T11:44:42Z</time>
      </trkpt>
      <trkpt lat="43.52884" lon="5.56936">
        <ele>465.7</ele>
        <time>2023-05-28T11:44:43Z</time>
      </trkpt>
      <trkpt lat="43.52884" lon="5.56936">
        <ele>465.7</ele>
        <time>2023-05-28T11:44:44Z</time>
      </trkpt>
      <trkpt lat="43.52884" lon="5.56936">
        <ele>465.7</ele>
        <time>2023-05-28T11:44:45Z</time>
      </trkpt>
      <trkpt lat="43.52884" lon="5.56936">
        <ele>465.7</ele>
        <time>2023-05-28T11:44:46Z</time>
      </trkpt>
      <trkpt lat="43.52884" lon="5.56936">
        <ele>465.6</ele>
        <time>2023-05-28T11:44:47Z</time>
      </trkpt>
      <trkpt lat="43.52884" lon="5.56936">
        <ele>465.6</ele>
        <time>2023-05-28T11:44:48Z</time>
      </trkpt>
      <trkpt lat="43.52883" lon="5.56936">
        <ele>465.6</ele>
        <time>2023-05-28T11:44:49Z</time>
      </trkpt>
      <trkpt lat="43.52884" lon="5.56936">
        <ele>465.6</ele>
        <time>2023-05-28T11:44:50Z</time>
      </trkpt>
      <trkpt lat="43.52884" lon="5.56936">
        <ele>465.6</ele>
        <time>2023-05-28T11:44:51Z</time>
      </trkpt>
      <trkpt lat="43.52883" lon="5.56936">
        <ele>465.6</ele>
        <time>2023-05-28T11:44:52Z</time>
      </trkpt>
      <trkpt lat="43.52883" lon="5.56936">
        <ele>465.6</ele>
        <time>2023-05-28T11:44:53Z</time>
      </trkpt>
      <trkpt lat="43.52883" lon="5.56937">
        <ele>465.7</ele>
        <time>2023-05-28T11:44:54Z</time>
      </trkpt>
      <trkpt lat="43.52883" lon="5.56937">
        <ele>465.8</ele>
        <time>2023-05-28T11:44:55Z</time>
      </trkpt>
      <trkpt lat="43.52883" lon="5.56937">
        <ele>465.7</ele>
        <time>2023-05-28T11:44:56Z</time>
      </trkpt>
      <trkpt lat="43.52883" lon="5.56937">
        <ele>465.7</ele>
        <time>2023-05-28T11:44:57Z</time>
      </trkpt>
      <trkpt lat="43.52883" lon="5.56937">
        <ele>465.8</ele>
        <time>2023-05-28T11:44:58Z</time>
      </trkpt>
      <trkpt lat="43.52883" lon="5.56937">
        <ele>465.8</ele>
        <time>2023-05-28T11:44:59Z</time>
      </trkpt>
      <trkpt lat="43.52883" lon="5.56937">
        <ele>465.8</ele>
        <time>2023-05-28T11:45:00Z</time>
      </trkpt>
      <trkpt lat="43.52883" lon="5.56937">
        <ele>465.8</ele>
        <time>2023-05-28T11:45:01Z</time>
      </trkpt>
      <trkpt lat="43.52883" lon="5.56937">
        <ele>465.9</ele>
        <time>2023-05-28T11:45:02Z</time>
      </trkpt>
      <trkpt lat="43.52883" lon="5.56937">
        <ele>465.9</ele>
        <time>2023-05-28T11:45:03Z</time>
      </trkpt>
      <trkpt lat="43.52883" lon="5.56937">
        <ele>465.9</ele>
        <time>2023-05-28T11:45:04Z</time>
      </trkpt>
      <trkpt lat="43.52883" lon="5.56937">
        <ele>465.9</ele>
        <time>2023-05-28T11:45:05Z</time>
      </trkpt>
      <trkpt lat="43.52883" lon="5.56937">
        <ele>465.9</ele>
        <time>2023-05-28T11:45:06Z</time>
      </trkpt>
      <trkpt lat="43.52883" lon="5.56937">
        <ele>465.9</ele>
        <time>2023-05-28T11:45:07Z</time>
      </trkpt>
      <trkpt lat="43.52883" lon="5.56937">
        <ele>465.9</ele>
        <time>2023-05-28T11:45:08Z</time>
      </trkpt>
      <trkpt lat="43.52883" lon="5.56937">
        <ele>465.9</ele>
        <time>2023-05-28T11:45:09Z</time>
      </trkpt>
      <trkpt lat="43.52883" lon="5.56937">
        <ele>465.9</ele>
        <time>2023-05-28T11:45:10Z</time>
      </trkpt>
      <trkpt lat="43.52883" lon="5.56937">
        <ele>465.9</ele>
        <time>2023-05-28T11:45:11Z</time>
      </trkpt>
      <trkpt lat="43.52883" lon="5.56937">
        <ele>466</ele>
        <time>2023-05-28T11:45:12Z</time>
      </trkpt>
      <trkpt lat="43.52883" lon="5.56936">
        <ele>466</ele>
        <time>2023-05-28T11:45:13Z</time>
      </trkpt>
      <trkpt lat="43.52883" lon="5.56936">
        <ele>466</ele>
        <time>2023-05-28T11:45:14Z</time>
      </trkpt>
      <trkpt lat="43.52882" lon="5.56936">
        <ele>466</ele>
        <time>2023-05-28T11:45:15Z</time>
      </trkpt>
      <trkpt lat="43.52882" lon="5.56936">
        <ele>466</ele>
        <time>2023-05-28T11:45:16Z</time>
      </trkpt>
      <trkpt lat="43.52882" lon="5.56936">
        <ele>466</ele>
        <time>2023-05-28T11:45:17Z</time>
      </trkpt>
      <trkpt lat="43.52882" lon="5.56936">
        <ele>466</ele>
        <time>2023-05-28T11:45:18Z</time>
      </trkpt>
      <trkpt lat="43.52882" lon="5.56936">
        <ele>466</ele>
        <time>2023-05-28T11:45:19Z</time>
      </trkpt>
      <trkpt lat="43.52882" lon="5.56936">
        <ele>466</ele>
        <time>2023-05-28T11:45:20Z</time>
      </trkpt>
      <trkpt lat="43.52882" lon="5.56936">
        <ele>466</ele>
        <time>2023-05-28T11:45:21Z</time>
      </trkpt>
      <trkpt lat="43.52882" lon="5.56936">
        <ele>466.1</ele>
        <time>2023-05-28T11:45:22Z</time>
      </trkpt>
      <trkpt lat="43.52882" lon="5.56935">
        <ele>466.1</ele>
        <time>2023-05-28T11:45:23Z</time>
      </trkpt>
      <trkpt lat="43.52881" lon="5.56935">
        <ele>466.1</ele>
        <time>2023-05-28T11:45:24Z</time>
      </trkpt>
      <trkpt lat="43.52881" lon="5.56935">
        <ele>466.1</ele>
        <time>2023-05-28T11:45:25Z</time>
      </trkpt>
      <trkpt lat="43.52881" lon="5.56935">
        <ele>466.1</ele>
        <time>2023-05-28T11:45:26Z</time>
      </trkpt>
      <trkpt lat="43.52881" lon="5.56935">
        <ele>466.1</ele>
        <time>2023-05-28T11:45:27Z</time>
      </trkpt>
      <trkpt lat="43.52881" lon="5.56934">
        <ele>466.1</ele>
        <time>2023-05-28T11:45:28Z</time>
      </trkpt>
      <trkpt lat="43.52881" lon="5.56934">
        <ele>466.1</ele>
        <time>2023-05-28T11:45:29Z</time>
      </trkpt>
      <trkpt lat="43.52881" lon="5.56934">
        <ele>466.1</ele>
        <time>2023-05-28T11:45:30Z</time>
      </trkpt>
      <trkpt lat="43.52881" lon="5.56934">
        <ele>466.1</ele>
        <time>2023-05-28T11:45:31Z</time>
      </trkpt>
      <trkpt lat="43.52881" lon="5.56934">
        <ele>466.1</ele>
        <time>2023-05-28T11:45:32Z</time>
      </trkpt>
      <trkpt lat="43.52881" lon="5.56934">
        <ele>466.1</ele>
        <time>2023-05-28T11:45:33Z</time>
      </trkpt>
      <trkpt lat="43.52881" lon="5.56934">
        <ele>466.1</ele>
        <time>2023-05-28T11:45:34Z</time>
      </trkpt>
      <trkpt lat="43.52882" lon="5.56933">
        <ele>466.2</ele>
        <time>2023-05-28T11:45:35Z</time>
      </trkpt>
      <trkpt lat="43.52882" lon="5.56933">
        <ele>466.1</ele>
        <time>2023-05-28T11:45:36Z</time>
      </trkpt>
      <trkpt lat="43.52882" lon="5.56933">
        <ele>466.1</ele>
        <time>2023-05-28T11:45:37Z</time>
      </trkpt>
      <trkpt lat="43.52882" lon="5.56933">
        <ele>466.1</ele>
        <time>2023-05-28T11:45:38Z</time>
      </trkpt>
      <trkpt lat="43.52882" lon="5.56933">
        <ele>466.1</ele>
        <time>2023-05-28T11:45:39Z</time>
      </trkpt>
      <trkpt lat="43.52882" lon="5.56933">
        <ele>466.1</ele>
        <time>2023-05-28T11:45:40Z</time>
      </trkpt>
      <trkpt lat="43.52882" lon="5.56933">
        <ele>466.1</ele>
        <time>2023-05-28T11:45:41Z</time>
      </trkpt>
      <trkpt lat="43.52882" lon="5.56933">
        <ele>466.1</ele>
        <time>2023-05-28T11:45:42Z</time>
      </trkpt>
      <trkpt lat="43.52882" lon="5.56933">
        <ele>466.2</ele>
        <time>2023-05-28T11:45:43Z</time>
      </trkpt>
      <trkpt lat="43.52882" lon="5.56933">
        <ele>466.2</ele>
        <time>2023-05-28T11:45:44Z</time>
      </trkpt>
      <trkpt lat="43.52882" lon="5.56933">
        <ele>466.3</ele>
        <time>2023-05-28T11:45:45Z</time>
      </trkpt>
      <trkpt lat="43.52882" lon="5.56933">
        <ele>466.4</ele>
        <time>2023-05-28T11:45:46Z</time>
      </trkpt>
      <trkpt lat="43.52882" lon="5.56933">
        <ele>466.4</ele>
        <time>2023-05-28T11:45:47Z</time>
      </trkpt>
      <trkpt lat="43.52882" lon="5.56933">
        <ele>466.4</ele>
        <time>2023-05-28T11:45:48Z</time>
      </trkpt>
      <trkpt lat="43.52882" lon="5.56933">
        <ele>466.4</ele>
        <time>2023-05-28T11:45:49Z</time>
      </trkpt>
      <trkpt lat="43.52882" lon="5.56933">
        <ele>466.4</ele>
        <time>2023-05-28T11:45:50Z</time>
      </trkpt>
      <trkpt lat="43.52882" lon="5.56933">
        <ele>466.5</ele>
        <time>2023-05-28T11:45:51Z</time>
      </trkpt>
      <trkpt lat="43.52882" lon="5.56933">
        <ele>466.4</ele>
        <time>2023-05-28T11:45:52Z</time>
      </trkpt>
      <trkpt lat="43.52882" lon="5.56933">
        <ele>466.4</ele>
        <time>2023-05-28T11:45:53Z</time>
      </trkpt>
      <trkpt lat="43.52883" lon="5.56933">
        <ele>466.3</ele>
        <time>2023-05-28T11:45:54Z</time>
      </trkpt>
      <trkpt lat="43.52883" lon="5.56934">
        <ele>466.3</ele>
        <time>2023-05-28T11:45:55Z</time>
      </trkpt>
      <trkpt lat="43.52883" lon="5.56934">
        <ele>466.3</ele>
        <time>2023-05-28T11:45:56Z</time>
      </trkpt>
      <trkpt lat="43.52883" lon="5.56934">
        <ele>466.3</ele>
        <time>2023-05-28T11:45:57Z</time>
      </trkpt>
      <trkpt lat="43.52883" lon="5.56933">
        <ele>466.3</ele>
        <time>2023-05-28T11:45:58Z</time>
      </trkpt>
      <trkpt lat="43.52883" lon="5.56933">
        <ele>466.3</ele>
        <time>2023-05-28T11:45:59Z</time>
      </trkpt>
      <trkpt lat="43.52884" lon="5.56933">
        <ele>466.3</ele>
        <time>2023-05-28T11:46:00Z</time>
      </trkpt>
      <trkpt lat="43.52884" lon="5.56934">
        <ele>466.2</ele>
        <time>2023-05-28T11:46:01Z</time>
      </trkpt>
      <trkpt lat="43.52884" lon="5.56934">
        <ele>466.3</ele>
        <time>2023-05-28T11:46:02Z</time>
      </trkpt>
      <trkpt lat="43.52884" lon="5.56934">
        <ele>466.3</ele>
        <time>2023-05-28T11:46:03Z</time>
      </trkpt>
      <trkpt lat="43.52884" lon="5.56934">
        <ele>466.3</ele>
        <time>2023-05-28T11:46:04Z</time>
      </trkpt>
      <trkpt lat="43.52884" lon="5.56934">
        <ele>466.3</ele>
        <time>2023-05-28T11:46:05Z</time>
      </trkpt>
      <trkpt lat="43.52884" lon="5.56934">
        <ele>466.3</ele>
        <time>2023-05-28T11:46:06Z</time>
      </trkpt>
      <trkpt lat="43.52885" lon="5.56934">
        <ele>466.3</ele>
        <time>2023-05-28T11:46:07Z</time>
      </trkpt>
      <trkpt lat="43.52885" lon="5.56934">
        <ele>466.2</ele>
        <time>2023-05-28T11:46:08Z</time>
      </trkpt>
      <trkpt lat="43.52885" lon="5.56934">
        <ele>466.1</ele>
        <time>2023-05-28T11:46:09Z</time>
      </trkpt>
      <trkpt lat="43.52885" lon="5.56934">
        <ele>466.1</ele>
        <time>2023-05-28T11:46:10Z</time>
      </trkpt>
      <trkpt lat="43.52885" lon="5.56934">
        <ele>466.2</ele>
        <time>2023-05-28T11:46:11Z</time>
      </trkpt>
      <trkpt lat="43.52885" lon="5.56934">
        <ele>466.1</ele>
        <time>2023-05-28T11:46:12Z</time>
      </trkpt>
      <trkpt lat="43.52885" lon="5.56934">
        <ele>466.1</ele>
        <time>2023-05-28T11:46:13Z</time>
      </trkpt>
      <trkpt lat="43.52885" lon="5.56934">
        <ele>466.1</ele>
        <time>2023-05-28T11:46:14Z</time>
      </trkpt>
      <trkpt lat="43.52885" lon="5.56934">
        <ele>466.1</ele>
        <time>2023-05-28T11:46:15Z</time>
      </trkpt>
      <trkpt lat="43.52885" lon="5.56934">
        <ele>466</ele>
        <time>2023-05-28T11:46:16Z</time>
      </trkpt>
      <trkpt lat="43.52885" lon="5.56934">
        <ele>466</ele>
        <time>2023-05-28T11:46:17Z</time>
      </trkpt>
      <trkpt lat="43.52885" lon="5.56934">
        <ele>466</ele>
        <time>2023-05-28T11:46:18Z</time>
      </trkpt>
      <trkpt lat="43.52885" lon="5.56934">
        <ele>466</ele>
        <time>2023-05-28T11:46:19Z</time>
      </trkpt>
      <trkpt lat="43.52885" lon="5.56934">
        <ele>466</ele>
        <time>2023-05-28T11:46:20Z</time>
      </trkpt>
      <trkpt lat="43.52885" lon="5.56934">
        <ele>466</ele>
        <time>2023-05-28T11:46:21Z</time>
      </trkpt>
      <trkpt lat="43.52885" lon="5.56934">
        <ele>466</ele>
        <time>2023-05-28T11:46:22Z</time>
      </trkpt>
      <trkpt lat="43.52885" lon="5.56934">
        <ele>466</ele>
        <time>2023-05-28T11:46:23Z</time>
      </trkpt>
      <trkpt lat="43.52885" lon="5.56934">
        <ele>466</ele>
        <time>2023-05-28T11:46:24Z</time>
      </trkpt>
      <trkpt lat="43.52886" lon="5.56934">
        <ele>466</ele>
        <time>2023-05-28T11:46:25Z</time>
      </trkpt>
      <trkpt lat="43.52886" lon="5.56934">
        <ele>466</ele>
        <time>2023-05-28T11:46:26Z</time>
      </trkpt>
      <trkpt lat="43.52886" lon="5.56934">
        <ele>466</ele>
        <time>2023-05-28T11:46:27Z</time>
      </trkpt>
      <trkpt lat="43.52886" lon="5.56934">
        <ele>466</ele>
        <time>2023-05-28T11:46:28Z</time>
      </trkpt>
      <trkpt lat="43.52886" lon="5.56934">
        <ele>466</ele>
        <time>2023-05-28T11:46:29Z</time>
      </trkpt>
      <trkpt lat="43.52886" lon="5.56934">
        <ele>466</ele>
        <time>2023-05-28T11:46:30Z</time>
      </trkpt>
      <trkpt lat="43.52886" lon="5.56934">
        <ele>466</ele>
        <time>2023-05-28T11:46:31Z</time>
      </trkpt>
      <trkpt lat="43.52886" lon="5.56934">
        <ele>466</ele>
        <time>2023-05-28T11:46:32Z</time>
      </trkpt>
      <trkpt lat="43.52886" lon="5.56934">
        <ele>466</ele>
        <time>2023-05-28T11:46:33Z</time>
      </trkpt>
      <trkpt lat="43.52886" lon="5.56935">
        <ele>466</ele>
        <time>2023-05-28T11:46:34Z</time>
      </trkpt>
      <trkpt lat="43.52886" lon="5.56935">
        <ele>466</ele>
        <time>2023-05-28T11:46:35Z</time>
      </trkpt>
      <trkpt lat="43.52886" lon="5.56935">
        <ele>466</ele>
        <time>2023-05-28T11:46:36Z</time>
      </trkpt>
      <trkpt lat="43.52886" lon="5.56935">
        <ele>466</ele>
        <time>2023-05-28T11:46:37Z</time>
      </trkpt>
      <trkpt lat="43.52886" lon="5.56935">
        <ele>466</ele>
        <time>2023-05-28T11:46:38Z</time>
      </trkpt>
      <trkpt lat="43.52886" lon="5.56935">
        <ele>466.1</ele>
        <time>2023-05-28T11:46:39Z</time>
      </trkpt>
      <trkpt lat="43.52886" lon="5.56935">
        <ele>466.1</ele>
        <time>2023-05-28T11:46:40Z</time>
      </trkpt>
      <trkpt lat="43.52885" lon="5.56935">
        <ele>466.1</ele>
        <time>2023-05-28T11:46:41Z</time>
      </trkpt>
      <trkpt lat="43.52885" lon="5.56935">
        <ele>466.1</ele>
        <time>2023-05-28T11:46:42Z</time>
      </trkpt>
      <trkpt lat="43.52885" lon="5.56935">
        <ele>466</ele>
        <time>2023-05-28T11:46:43Z</time>
      </trkpt>
      <trkpt lat="43.52885" lon="5.56935">
        <ele>466.1</ele>
        <time>2023-05-28T11:46:44Z</time>
      </trkpt>
      <trkpt lat="43.52885" lon="5.56935">
        <ele>466</ele>
        <time>2023-05-28T11:46:45Z</time>
      </trkpt>
      <trkpt lat="43.52885" lon="5.56935">
        <ele>466</ele>
        <time>2023-05-28T11:46:46Z</time>
      </trkpt>
      <trkpt lat="43.52885" lon="5.56935">
        <ele>465.9</ele>
        <time>2023-05-28T11:46:47Z</time>
      </trkpt>
      <trkpt lat="43.52885" lon="5.56935">
        <ele>465.8</ele>
        <time>2023-05-28T11:46:48Z</time>
      </trkpt>
      <trkpt lat="43.52885" lon="5.56935">
        <ele>465.8</ele>
        <time>2023-05-28T11:46:49Z</time>
      </trkpt>
      <trkpt lat="43.52885" lon="5.56935">
        <ele>465.8</ele>
        <time>2023-05-28T11:46:50Z</time>
      </trkpt>
      <trkpt lat="43.52885" lon="5.56935">
        <ele>465.7</ele>
        <time>2023-05-28T11:46:51Z</time>
      </trkpt>
      <trkpt lat="43.52885" lon="5.56935">
        <ele>465.7</ele>
        <time>2023-05-28T11:46:52Z</time>
      </trkpt>
      <trkpt lat="43.52885" lon="5.56935">
        <ele>465.7</ele>
        <time>2023-05-28T11:46:53Z</time>
      </trkpt>
      <trkpt lat="43.52885" lon="5.56935">
        <ele>465.7</ele>
        <time>2023-05-28T11:46:54Z</time>
      </trkpt>
      <trkpt lat="43.52885" lon="5.56935">
        <ele>465.8</ele>
        <time>2023-05-28T11:46:55Z</time>
      </trkpt>
      <trkpt lat="43.52885" lon="5.56935">
        <ele>465.9</ele>
        <time>2023-05-28T11:46:56Z</time>
      </trkpt>
      <trkpt lat="43.52884" lon="5.56935">
        <ele>465.8</ele>
        <time>2023-05-28T11:46:57Z</time>
      </trkpt>
      <trkpt lat="43.52884" lon="5.56935">
        <ele>465.9</ele>
        <time>2023-05-28T11:46:58Z</time>
      </trkpt>
      <trkpt lat="43.52884" lon="5.56934">
        <ele>465.9</ele>
        <time>2023-05-28T11:46:59Z</time>
      </trkpt>
      <trkpt lat="43.52884" lon="5.56934">
        <ele>465.8</ele>
        <time>2023-05-28T11:47:00Z</time>
      </trkpt>
      <trkpt lat="43.52885" lon="5.56934">
        <ele>465.8</ele>
        <time>2023-05-28T11:47:01Z</time>
      </trkpt>
      <trkpt lat="43.52885" lon="5.56934">
        <ele>465.8</ele>
        <time>2023-05-28T11:47:02Z</time>
      </trkpt>
      <trkpt lat="43.52885" lon="5.56934">
        <ele>465.9</ele>
        <time>2023-05-28T11:47:03Z</time>
      </trkpt>
      <trkpt lat="43.52884" lon="5.56934">
        <ele>465.9</ele>
        <time>2023-05-28T11:47:04Z</time>
      </trkpt>
      <trkpt lat="43.52885" lon="5.56934">
        <ele>466</ele>
        <time>2023-05-28T11:47:05Z</time>
      </trkpt>
      <trkpt lat="43.52884" lon="5.56934">
        <ele>465.9</ele>
        <time>2023-05-28T11:47:06Z</time>
      </trkpt>
      <trkpt lat="43.52884" lon="5.56934">
        <ele>465.9</ele>
        <time>2023-05-28T11:47:07Z</time>
      </trkpt>
      <trkpt lat="43.52884" lon="5.56934">
        <ele>465.9</ele>
        <time>2023-05-28T11:47:08Z</time>
      </trkpt>
      <trkpt lat="43.52884" lon="5.56934">
        <ele>465.8</ele>
        <time>2023-05-28T11:47:09Z</time>
      </trkpt>
      <trkpt lat="43.52884" lon="5.56934">
        <ele>465.8</ele>
        <time>2023-05-28T11:47:10Z</time>
      </trkpt>
      <trkpt lat="43.52884" lon="5.56934">
        <ele>465.8</ele>
        <time>2023-05-28T11:47:11Z</time>
      </trkpt>
      <trkpt lat="43.52884" lon="5.56934">
        <ele>465.7</ele>
        <time>2023-05-28T11:47:12Z</time>
      </trkpt>
      <trkpt lat="43.52884" lon="5.56934">
        <ele>465.7</ele>
        <time>2023-05-28T11:47:13Z</time>
      </trkpt>
      <trkpt lat="43.52884" lon="5.56934">
        <ele>465.7</ele>
        <time>2023-05-28T11:47:14Z</time>
      </trkpt>
      <trkpt lat="43.52884" lon="5.56934">
        <ele>465.7</ele>
        <time>2023-05-28T11:47:15Z</time>
      </trkpt>
      <trkpt lat="43.52884" lon="5.56934">
        <ele>465.6</ele>
        <time>2023-05-28T11:47:16Z</time>
      </trkpt>
      <trkpt lat="43.52884" lon="5.56934">
        <ele>465.7</ele>
        <time>2023-05-28T11:47:17Z</time>
      </trkpt>
      <trkpt lat="43.52884" lon="5.56934">
        <ele>465.7</ele>
        <time>2023-05-28T11:47:18Z</time>
      </trkpt>
      <trkpt lat="43.52884" lon="5.56934">
        <ele>465.8</ele>
        <time>2023-05-28T11:47:19Z</time>
      </trkpt>
      <trkpt lat="43.52884" lon="5.56934">
        <ele>465.7</ele>
        <time>2023-05-28T11:47:20Z</time>
      </trkpt>
      <trkpt lat="43.52884" lon="5.56934">
        <ele>465.7</ele>
        <time>2023-05-28T11:47:21Z</time>
      </trkpt>
      <trkpt lat="43.52884" lon="5.56934">
        <ele>465.7</ele>
        <time>2023-05-28T11:47:22Z</time>
      </trkpt>
      <trkpt lat="43.52884" lon="5.56933">
        <ele>465.7</ele>
        <time>2023-05-28T11:47:23Z</time>
      </trkpt>
      <trkpt lat="43.52884" lon="5.56933">
        <ele>465.7</ele>
        <time>2023-05-28T11:47:24Z</time>
      </trkpt>
      <trkpt lat="43.52884" lon="5.56933">
        <ele>465.7</ele>
        <time>2023-05-28T11:47:25Z</time>
      </trkpt>
      <trkpt lat="43.52884" lon="5.56933">
        <ele>465.6</ele>
        <time>2023-05-28T11:47:26Z</time>
      </trkpt>
      <trkpt lat="43.52884" lon="5.56933">
        <ele>465.6</ele>
        <time>2023-05-28T11:47:27Z</time>
      </trkpt>
      <trkpt lat="43.52884" lon="5.56933">
        <ele>465.6</ele>
        <time>2023-05-28T11:47:28Z</time>
      </trkpt>
      <trkpt lat="43.52884" lon="5.56933">
        <ele>465.6</ele>
        <time>2023-05-28T11:47:29Z</time>
      </trkpt>
      <trkpt lat="43.52884" lon="5.56933">
        <ele>465.6</ele>
        <time>2023-05-28T11:47:30Z</time>
      </trkpt>
      <trkpt lat="43.52884" lon="5.56933">
        <ele>465.6</ele>
        <time>2023-05-28T11:47:31Z</time>
      </trkpt>
      <trkpt lat="43.52884" lon="5.56933">
        <ele>465.6</ele>
        <time>2023-05-28T11:47:32Z</time>
      </trkpt>
      <trkpt lat="43.52884" lon="5.56933">
        <ele>465.6</ele>
        <time>2023-05-28T11:47:33Z</time>
      </trkpt>
      <trkpt lat="43.52884" lon="5.56933">
        <ele>465.6</ele>
        <time>2023-05-28T11:47:34Z</time>
      </trkpt>
      <trkpt lat="43.52884" lon="5.56933">
        <ele>465.6</ele>
        <time>2023-05-28T11:47:35Z</time>
      </trkpt>
      <trkpt lat="43.52884" lon="5.56933">
        <ele>465.6</ele>
        <time>2023-05-28T11:47:36Z</time>
      </trkpt>
      <trkpt lat="43.52884" lon="5.56933">
        <ele>465.6</ele>
        <time>2023-05-28T11:47:37Z</time>
      </trkpt>
      <trkpt lat="43.52884" lon="5.56933">
        <ele>465.6</ele>
        <time>2023-05-28T11:47:38Z</time>
      </trkpt>
      <trkpt lat="43.52884" lon="5.56933">
        <ele>465.7</ele>
        <time>2023-05-28T11:47:39Z</time>
      </trkpt>
      <trkpt lat="43.52884" lon="5.56933">
        <ele>465.7</ele>
        <time>2023-05-28T11:47:40Z</time>
      </trkpt>
      <trkpt lat="43.52884" lon="5.56933">
        <ele>465.6</ele>
        <time>2023-05-28T11:47:41Z</time>
      </trkpt>
      <trkpt lat="43.52884" lon="5.56933">
        <ele>465.7</ele>
        <time>2023-05-28T11:47:42Z</time>
      </trkpt>
      <trkpt lat="43.52884" lon="5.56933">
        <ele>465.6</ele>
        <time>2023-05-28T11:47:43Z</time>
      </trkpt>
      <trkpt lat="43.52884" lon="5.56933">
        <ele>465.7</ele>
        <time>2023-05-28T11:47:44Z</time>
      </trkpt>
      <trkpt lat="43.52884" lon="5.56933">
        <ele>465.7</ele>
        <time>2023-05-28T11:47:45Z</time>
      </trkpt>
      <trkpt lat="43.52884" lon="5.56933">
        <ele>465.8</ele>
        <time>2023-05-28T11:47:46Z</time>
      </trkpt>
      <trkpt lat="43.52884" lon="5.56933">
        <ele>465.8</ele>
        <time>2023-05-28T11:47:47Z</time>
      </trkpt>
      <trkpt lat="43.52884" lon="5.56933">
        <ele>465.8</ele>
        <time>2023-05-28T11:47:48Z</time>
      </trkpt>
      <trkpt lat="43.52884" lon="5.56933">
        <ele>465.8</ele>
        <time>2023-05-28T11:47:49Z</time>
      </trkpt>
      <trkpt lat="43.52884" lon="5.56933">
        <ele>465.8</ele>
        <time>2023-05-28T11:47:50Z</time>
      </trkpt>
      <trkpt lat="43.52884" lon="5.56933">
        <ele>465.8</ele>
        <time>2023-05-28T11:47:51Z</time>
      </trkpt>
      <trkpt lat="43.52884" lon="5.56933">
        <ele>465.9</ele>
        <time>2023-05-28T11:47:52Z</time>
      </trkpt>
      <trkpt lat="43.52884" lon="5.56933">
        <ele>466</ele>
        <time>2023-05-28T11:47:53Z</time>
      </trkpt>
      <trkpt lat="43.52884" lon="5.56933">
        <ele>466</ele>
        <time>2023-05-28T11:47:54Z</time>
      </trkpt>
      <trkpt lat="43.52884" lon="5.56933">
        <ele>466</ele>
        <time>2023-05-28T11:47:55Z</time>
      </trkpt>
      <trkpt lat="43.52884" lon="5.56933">
        <ele>466</ele>
        <time>2023-05-28T11:47:56Z</time>
      </trkpt>
      <trkpt lat="43.52884" lon="5.56933">
        <ele>466</ele>
        <time>2023-05-28T11:47:57Z</time>
      </trkpt>
      <trkpt lat="43.52884" lon="5.56932">
        <ele>466</ele>
        <time>2023-05-28T11:47:58Z</time>
      </trkpt>
      <trkpt lat="43.52884" lon="5.56932">
        <ele>465.9</ele>
        <time>2023-05-28T11:47:59Z</time>
      </trkpt>
      <trkpt lat="43.52884" lon="5.56932">
        <ele>465.9</ele>
        <time>2023-05-28T11:48:00Z</time>
      </trkpt>
      <trkpt lat="43.52884" lon="5.56932">
        <ele>465.8</ele>
        <time>2023-05-28T11:48:01Z</time>
      </trkpt>
      <trkpt lat="43.52883" lon="5.56932">
        <ele>465.8</ele>
        <time>2023-05-28T11:48:02Z</time>
      </trkpt>
      <trkpt lat="43.52883" lon="5.56932">
        <ele>465.8</ele>
        <time>2023-05-28T11:48:03Z</time>
      </trkpt>
      <trkpt lat="43.52883" lon="5.56932">
        <ele>465.8</ele>
        <time>2023-05-28T11:48:04Z</time>
      </trkpt>
      <trkpt lat="43.52883" lon="5.56932">
        <ele>465.8</ele>
        <time>2023-05-28T11:48:05Z</time>
      </trkpt>
      <trkpt lat="43.52883" lon="5.56932">
        <ele>465.8</ele>
        <time>2023-05-28T11:48:06Z</time>
      </trkpt>
      <trkpt lat="43.52883" lon="5.56932">
        <ele>465.8</ele>
        <time>2023-05-28T11:48:07Z</time>
      </trkpt>
      <trkpt lat="43.52883" lon="5.56932">
        <ele>465.8</ele>
        <time>2023-05-28T11:48:08Z</time>
      </trkpt>
      <trkpt lat="43.52883" lon="5.56932">
        <ele>465.9</ele>
        <time>2023-05-28T11:48:09Z</time>
      </trkpt>
      <trkpt lat="43.52883" lon="5.56932">
        <ele>466</ele>
        <time>2023-05-28T11:48:10Z</time>
      </trkpt>
      <trkpt lat="43.52883" lon="5.56932">
        <ele>465.9</ele>
        <time>2023-05-28T11:48:11Z</time>
      </trkpt>
      <trkpt lat="43.52883" lon="5.56932">
        <ele>465.9</ele>
        <time>2023-05-28T11:48:12Z</time>
      </trkpt>
      <trkpt lat="43.52884" lon="5.56932">
        <ele>465.9</ele>
        <time>2023-05-28T11:48:13Z</time>
      </trkpt>
      <trkpt lat="43.52884" lon="5.56932">
        <ele>465.9</ele>
        <time>2023-05-28T11:48:14Z</time>
      </trkpt>
      <trkpt lat="43.52884" lon="5.56932">
        <ele>465.9</ele>
        <time>2023-05-28T11:48:15Z</time>
      </trkpt>
      <trkpt lat="43.52884" lon="5.56932">
        <ele>465.9</ele>
        <time>2023-05-28T11:48:16Z</time>
      </trkpt>
      <trkpt lat="43.52884" lon="5.56932">
        <ele>466</ele>
        <time>2023-05-28T11:48:17Z</time>
      </trkpt>
      <trkpt lat="43.52884" lon="5.56932">
        <ele>466</ele>
        <time>2023-05-28T11:48:18Z</time>
      </trkpt>
      <trkpt lat="43.52884" lon="5.56932">
        <ele>465.9</ele>
        <time>2023-05-28T11:48:19Z</time>
      </trkpt>
      <trkpt lat="43.52884" lon="5.56932">
        <ele>466</ele>
        <time>2023-05-28T11:48:20Z</time>
      </trkpt>
      <trkpt lat="43.52884" lon="5.56932">
        <ele>466.1</ele>
        <time>2023-05-28T11:48:21Z</time>
      </trkpt>
      <trkpt lat="43.52884" lon="5.56932">
        <ele>466.1</ele>
        <time>2023-05-28T11:48:22Z</time>
      </trkpt>
      <trkpt lat="43.52884" lon="5.56932">
        <ele>466.1</ele>
        <time>2023-05-28T11:48:23Z</time>
      </trkpt>
      <trkpt lat="43.52884" lon="5.56932">
        <ele>466.1</ele>
        <time>2023-05-28T11:48:24Z</time>
      </trkpt>
      <trkpt lat="43.52884" lon="5.56931">
        <ele>466.1</ele>
        <time>2023-05-28T11:48:25Z</time>
      </trkpt>
      <trkpt lat="43.52884" lon="5.56931">
        <ele>466</ele>
        <time>2023-05-28T11:48:26Z</time>
      </trkpt>
      <trkpt lat="43.52884" lon="5.56931">
        <ele>466</ele>
        <time>2023-05-28T11:48:27Z</time>
      </trkpt>
      <trkpt lat="43.52884" lon="5.56931">
        <ele>466</ele>
        <time>2023-05-28T11:48:28Z</time>
      </trkpt>
      <trkpt lat="43.52884" lon="5.56931">
        <ele>466.1</ele>
        <time>2023-05-28T11:48:29Z</time>
      </trkpt>
      <trkpt lat="43.52884" lon="5.56931">
        <ele>466.1</ele>
        <time>2023-05-28T11:48:30Z</time>
      </trkpt>
      <trkpt lat="43.52884" lon="5.56931">
        <ele>466.1</ele>
        <time>2023-05-28T11:48:31Z</time>
      </trkpt>
      <trkpt lat="43.52884" lon="5.56931">
        <ele>466</ele>
        <time>2023-05-28T11:48:32Z</time>
      </trkpt>
      <trkpt lat="43.52884" lon="5.56931">
        <ele>466</ele>
        <time>2023-05-28T11:48:33Z</time>
      </trkpt>
      <trkpt lat="43.52884" lon="5.56931">
        <ele>466</ele>
        <time>2023-05-28T11:48:34Z</time>
      </trkpt>
      <trkpt lat="43.52884" lon="5.56931">
        <ele>466.1</ele>
        <time>2023-05-28T11:48:35Z</time>
      </trkpt>
      <trkpt lat="43.52884" lon="5.56931">
        <ele>466.1</ele>
        <time>2023-05-28T11:48:36Z</time>
      </trkpt>
      <trkpt lat="43.52884" lon="5.56931">
        <ele>466</ele>
        <time>2023-05-28T11:48:37Z</time>
      </trkpt>
      <trkpt lat="43.52884" lon="5.56931">
        <ele>466.1</ele>
        <time>2023-05-28T11:48:38Z</time>
      </trkpt>
      <trkpt lat="43.52884" lon="5.5693">
        <ele>466.1</ele>
        <time>2023-05-28T11:48:39Z</time>
      </trkpt>
      <trkpt lat="43.52884" lon="5.5693">
        <ele>466.2</ele>
        <time>2023-05-28T11:48:40Z</time>
      </trkpt>
      <trkpt lat="43.52884" lon="5.5693">
        <ele>466.2</ele>
        <time>2023-05-28T11:48:41Z</time>
      </trkpt>
      <trkpt lat="43.52884" lon="5.5693">
        <ele>466.2</ele>
        <time>2023-05-28T11:48:42Z</time>
      </trkpt>
      <trkpt lat="43.52884" lon="5.5693">
        <ele>466.2</ele>
        <time>2023-05-28T11:48:43Z</time>
      </trkpt>
      <trkpt lat="43.52884" lon="5.5693">
        <ele>466.2</ele>
        <time>2023-05-28T11:48:44Z</time>
      </trkpt>
      <trkpt lat="43.52884" lon="5.5693">
        <ele>466.2</ele>
        <time>2023-05-28T11:48:45Z</time>
      </trkpt>
      <trkpt lat="43.52884" lon="5.5693">
        <ele>466.2</ele>
        <time>2023-05-28T11:48:46Z</time>
      </trkpt>
      <trkpt lat="43.52884" lon="5.5693">
        <ele>466.3</ele>
        <time>2023-05-28T11:48:47Z</time>
      </trkpt>
      <trkpt lat="43.52884" lon="5.56931">
        <ele>466.3</ele>
        <time>2023-05-28T11:48:48Z</time>
      </trkpt>
      <trkpt lat="43.52884" lon="5.56931">
        <ele>466.3</ele>
        <time>2023-05-28T11:48:49Z</time>
      </trkpt>
      <trkpt lat="43.52884" lon="5.5693">
        <ele>466.3</ele>
        <time>2023-05-28T11:48:50Z</time>
      </trkpt>
      <trkpt lat="43.52884" lon="5.56931">
        <ele>466.2</ele>
        <time>2023-05-28T11:48:51Z</time>
      </trkpt>
      <trkpt lat="43.52884" lon="5.5693">
        <ele>466.2</ele>
        <time>2023-05-28T11:48:52Z</time>
      </trkpt>
      <trkpt lat="43.52884" lon="5.5693">
        <ele>466.1</ele>
        <time>2023-05-28T11:48:53Z</time>
      </trkpt>
      <trkpt lat="43.52884" lon="5.5693">
        <ele>466.1</ele>
        <time>2023-05-28T11:48:54Z</time>
      </trkpt>
      <trkpt lat="43.52884" lon="5.5693">
        <ele>466.1</ele>
        <time>2023-05-28T11:48:55Z</time>
      </trkpt>
      <trkpt lat="43.52884" lon="5.5693">
        <ele>466.1</ele>
        <time>2023-05-28T11:48:56Z</time>
      </trkpt>
      <trkpt lat="43.52884" lon="5.5693">
        <ele>466.1</ele>
        <time>2023-05-28T11:48:57Z</time>
      </trkpt>
      <trkpt lat="43.52884" lon="5.5693">
        <ele>466.2</ele>
        <time>2023-05-28T11:48:58Z</time>
      </trkpt>
      <trkpt lat="43.52884" lon="5.5693">
        <ele>466.2</ele>
        <time>2023-05-28T11:48:59Z</time>
      </trkpt>
      <trkpt lat="43.52884" lon="5.5693">
        <ele>466.2</ele>
        <time>2023-05-28T11:49:00Z</time>
      </trkpt>
      <trkpt lat="43.52884" lon="5.5693">
        <ele>466.2</ele>
        <time>2023-05-28T11:49:01Z</time>
      </trkpt>
      <trkpt lat="43.52884" lon="5.5693">
        <ele>466.2</ele>
        <time>2023-05-28T11:49:02Z</time>
      </trkpt>
      <trkpt lat="43.52884" lon="5.5693">
        <ele>466.2</ele>
        <time>2023-05-28T11:49:03Z</time>
      </trkpt>
      <trkpt lat="43.52884" lon="5.5693">
        <ele>466.2</ele>
        <time>2023-05-28T11:49:04Z</time>
      </trkpt>
      <trkpt lat="43.52884" lon="5.5693">
        <ele>466.1</ele>
        <time>2023-05-28T11:49:05Z</time>
      </trkpt>
      <trkpt lat="43.52884" lon="5.5693">
        <ele>466.1</ele>
        <time>2023-05-28T11:49:06Z</time>
      </trkpt>
      <trkpt lat="43.52884" lon="5.5693">
        <ele>466.1</ele>
        <time>2023-05-28T11:49:07Z</time>
      </trkpt>
      <trkpt lat="43.52884" lon="5.5693">
        <ele>466.1</ele>
        <time>2023-05-28T11:49:08Z</time>
      </trkpt>
      <trkpt lat="43.52884" lon="5.5693">
        <ele>466.1</ele>
        <time>2023-05-28T11:49:09Z</time>
      </trkpt>
      <trkpt lat="43.52884" lon="5.5693">
        <ele>466.1</ele>
        <time>2023-05-28T11:49:10Z</time>
      </trkpt>
      <trkpt lat="43.52884" lon="5.5693">
        <ele>466.1</ele>
        <time>2023-05-28T11:49:11Z</time>
      </trkpt>
      <trkpt lat="43.52884" lon="5.5693">
        <ele>466</ele>
        <time>2023-05-28T11:49:12Z</time>
      </trkpt>
      <trkpt lat="43.52884" lon="5.5693">
        <ele>466</ele>
        <time>2023-05-28T11:49:13Z</time>
      </trkpt>
      <trkpt lat="43.52884" lon="5.5693">
        <ele>466.1</ele>
        <time>2023-05-28T11:49:14Z</time>
      </trkpt>
      <trkpt lat="43.52884" lon="5.5693">
        <ele>466.1</ele>
        <time>2023-05-28T11:49:15Z</time>
      </trkpt>
      <trkpt lat="43.52884" lon="5.5693">
        <ele>466.1</ele>
        <time>2023-05-28T11:49:16Z</time>
      </trkpt>
      <trkpt lat="43.52884" lon="5.5693">
        <ele>466.1</ele>
        <time>2023-05-28T11:49:17Z</time>
      </trkpt>
      <trkpt lat="43.52884" lon="5.5693">
        <ele>466.2</ele>
        <time>2023-05-28T11:49:18Z</time>
      </trkpt>
      <trkpt lat="43.52884" lon="5.5693">
        <ele>466.2</ele>
        <time>2023-05-28T11:49:19Z</time>
      </trkpt>
      <trkpt lat="43.52884" lon="5.5693">
        <ele>466.3</ele>
        <time>2023-05-28T11:49:20Z</time>
      </trkpt>
      <trkpt lat="43.52884" lon="5.5693">
        <ele>466.4</ele>
        <time>2023-05-28T11:49:21Z</time>
      </trkpt>
      <trkpt lat="43.52884" lon="5.5693">
        <ele>466.4</ele>
        <time>2023-05-28T11:49:22Z</time>
      </trkpt>
      <trkpt lat="43.52884" lon="5.5693">
        <ele>466.4</ele>
        <time>2023-05-28T11:49:23Z</time>
      </trkpt>
      <trkpt lat="43.52883" lon="5.5693">
        <ele>466.4</ele>
        <time>2023-05-28T11:49:24Z</time>
      </trkpt>
      <trkpt lat="43.52883" lon="5.5693">
        <ele>466.4</ele>
        <time>2023-05-28T11:49:25Z</time>
      </trkpt>
      <trkpt lat="43.52883" lon="5.5693">
        <ele>466.4</ele>
        <time>2023-05-28T11:49:26Z</time>
      </trkpt>
      <trkpt lat="43.52883" lon="5.5693">
        <ele>466.3</ele>
        <time>2023-05-28T11:49:27Z</time>
      </trkpt>
      <trkpt lat="43.52883" lon="5.56929">
        <ele>466.3</ele>
        <time>2023-05-28T11:49:28Z</time>
      </trkpt>
      <trkpt lat="43.52883" lon="5.56929">
        <ele>466.3</ele>
        <time>2023-05-28T11:49:29Z</time>
      </trkpt>
      <trkpt lat="43.52883" lon="5.56929">
        <ele>466.3</ele>
        <time>2023-05-28T11:49:30Z</time>
      </trkpt>
      <trkpt lat="43.52883" lon="5.5693">
        <ele>466.4</ele>
        <time>2023-05-28T11:49:31Z</time>
      </trkpt>
      <trkpt lat="43.52883" lon="5.5693">
        <ele>466.4</ele>
        <time>2023-05-28T11:49:32Z</time>
      </trkpt>
      <trkpt lat="43.52884" lon="5.5693">
        <ele>466.4</ele>
        <time>2023-05-28T11:49:33Z</time>
      </trkpt>
      <trkpt lat="43.52884" lon="5.5693">
        <ele>466.4</ele>
        <time>2023-05-28T11:49:34Z</time>
      </trkpt>
      <trkpt lat="43.52884" lon="5.5693">
        <ele>466.3</ele>
        <time>2023-05-28T11:49:35Z</time>
      </trkpt>
      <trkpt lat="43.52884" lon="5.5693">
        <ele>466.2</ele>
        <time>2023-05-28T11:49:36Z</time>
      </trkpt>
      <trkpt lat="43.52884" lon="5.5693">
        <ele>466.1</ele>
        <time>2023-05-28T11:49:37Z</time>
      </trkpt>
      <trkpt lat="43.52884" lon="5.56931">
        <ele>466.2</ele>
        <time>2023-05-28T11:49:38Z</time>
      </trkpt>
      <trkpt lat="43.52884" lon="5.56931">
        <ele>466.2</ele>
        <time>2023-05-28T11:49:39Z</time>
      </trkpt>
      <trkpt lat="43.52884" lon="5.56931">
        <ele>466.2</ele>
        <time>2023-05-28T11:49:40Z</time>
      </trkpt>
      <trkpt lat="43.52884" lon="5.56931">
        <ele>466.2</ele>
        <time>2023-05-28T11:49:41Z</time>
      </trkpt>
      <trkpt lat="43.52884" lon="5.56931">
        <ele>466.1</ele>
        <time>2023-05-28T11:49:42Z</time>
      </trkpt>
      <trkpt lat="43.52884" lon="5.56932">
        <ele>466.2</ele>
        <time>2023-05-28T11:49:43Z</time>
      </trkpt>
      <trkpt lat="43.52884" lon="5.56932">
        <ele>466.2</ele>
        <time>2023-05-28T11:49:44Z</time>
      </trkpt>
      <trkpt lat="43.52885" lon="5.56932">
        <ele>466.2</ele>
        <time>2023-05-28T11:49:45Z</time>
      </trkpt>
      <trkpt lat="43.52885" lon="5.56932">
        <ele>466.2</ele>
        <time>2023-05-28T11:49:46Z</time>
      </trkpt>
      <trkpt lat="43.52885" lon="5.56933">
        <ele>466.3</ele>
        <time>2023-05-28T11:49:47Z</time>
      </trkpt>
      <trkpt lat="43.52885" lon="5.56933">
        <ele>466.3</ele>
        <time>2023-05-28T11:49:48Z</time>
      </trkpt>
      <trkpt lat="43.52886" lon="5.56933">
        <ele>466.3</ele>
        <time>2023-05-28T11:49:49Z</time>
      </trkpt>
      <trkpt lat="43.52886" lon="5.56933">
        <ele>466.3</ele>
        <time>2023-05-28T11:49:50Z</time>
      </trkpt>
      <trkpt lat="43.52886" lon="5.56933">
        <ele>466.4</ele>
        <time>2023-05-28T11:49:51Z</time>
      </trkpt>
      <trkpt lat="43.52886" lon="5.56933">
        <ele>466.3</ele>
        <time>2023-05-28T11:49:52Z</time>
      </trkpt>
      <trkpt lat="43.52886" lon="5.56933">
        <ele>466.3</ele>
        <time>2023-05-28T11:49:53Z</time>
      </trkpt>
      <trkpt lat="43.52886" lon="5.56934">
        <ele>466.2</ele>
        <time>2023-05-28T11:49:54Z</time>
      </trkpt>
      <trkpt lat="43.52886" lon="5.56934">
        <ele>466.2</ele>
        <time>2023-05-28T11:49:55Z</time>
      </trkpt>
      <trkpt lat="43.52886" lon="5.56934">
        <ele>466.2</ele>
        <time>2023-05-28T11:49:56Z</time>
      </trkpt>
      <trkpt lat="43.52886" lon="5.56934">
        <ele>466.2</ele>
        <time>2023-05-28T11:49:57Z</time>
      </trkpt>
      <trkpt lat="43.52886" lon="5.56934">
        <ele>466.1</ele>
        <time>2023-05-28T11:49:58Z</time>
      </trkpt>
      <trkpt lat="43.52886" lon="5.56934">
        <ele>466</ele>
        <time>2023-05-28T11:49:59Z</time>
      </trkpt>
      <trkpt lat="43.52886" lon="5.56934">
        <ele>465.9</ele>
        <time>2023-05-28T11:50:00Z</time>
      </trkpt>
      <trkpt lat="43.52886" lon="5.56934">
        <ele>465.8</ele>
        <time>2023-05-28T11:50:01Z</time>
      </trkpt>
      <trkpt lat="43.52886" lon="5.56934">
        <ele>465.8</ele>
        <time>2023-05-28T11:50:02Z</time>
      </trkpt>
      <trkpt lat="43.52886" lon="5.56934">
        <ele>465.7</ele>
        <time>2023-05-28T11:50:03Z</time>
      </trkpt>
      <trkpt lat="43.52886" lon="5.56934">
        <ele>465.7</ele>
        <time>2023-05-28T11:50:04Z</time>
      </trkpt>
      <trkpt lat="43.52886" lon="5.56934">
        <ele>465.6</ele>
        <time>2023-05-28T11:50:05Z</time>
      </trkpt>
      <trkpt lat="43.52886" lon="5.56934">
        <ele>465.7</ele>
        <time>2023-05-28T11:50:06Z</time>
      </trkpt>
      <trkpt lat="43.52886" lon="5.56934">
        <ele>465.7</ele>
        <time>2023-05-28T11:50:07Z</time>
      </trkpt>
      <trkpt lat="43.52886" lon="5.56934">
        <ele>465.7</ele>
        <time>2023-05-28T11:50:08Z</time>
      </trkpt>
      <trkpt lat="43.52886" lon="5.56934">
        <ele>465.7</ele>
        <time>2023-05-28T11:50:09Z</time>
      </trkpt>
      <trkpt lat="43.52886" lon="5.56934">
        <ele>465.7</ele>
        <time>2023-05-28T11:50:10Z</time>
      </trkpt>
      <trkpt lat="43.52886" lon="5.56934">
        <ele>465.7</ele>
        <time>2023-05-28T11:50:11Z</time>
      </trkpt>
      <trkpt lat="43.52886" lon="5.56934">
        <ele>465.8</ele>
        <time>2023-05-28T11:50:12Z</time>
      </trkpt>
      <trkpt lat="43.52886" lon="5.56934">
        <ele>465.8</ele>
        <time>2023-05-28T11:50:13Z</time>
      </trkpt>
      <trkpt lat="43.52886" lon="5.56934">
        <ele>465.8</ele>
        <time>2023-05-28T11:50:14Z</time>
      </trkpt>
      <trkpt lat="43.52886" lon="5.56934">
        <ele>465.8</ele>
        <time>2023-05-28T11:50:15Z</time>
      </trkpt>
      <trkpt lat="43.52886" lon="5.56934">
        <ele>465.8</ele>
        <time>2023-05-28T11:50:16Z</time>
      </trkpt>
      <trkpt lat="43.52886" lon="5.56934">
        <ele>465.8</ele>
        <time>2023-05-28T11:50:17Z</time>
      </trkpt>
      <trkpt lat="43.52886" lon="5.56935">
        <ele>465.7</ele>
        <time>2023-05-28T11:50:18Z</time>
      </trkpt>
      <trkpt lat="43.52886" lon="5.56935">
        <ele>465.7</ele>
        <time>2023-05-28T11:50:19Z</time>
      </trkpt>
      <trkpt lat="43.52886" lon="5.56935">
        <ele>465.8</ele>
        <time>2023-05-28T11:50:20Z</time>
      </trkpt>
      <trkpt lat="43.52886" lon="5.56935">
        <ele>465.8</ele>
        <time>2023-05-28T11:50:21Z</time>
      </trkpt>
      <trkpt lat="43.52886" lon="5.56935">
        <ele>465.8</ele>
        <time>2023-05-28T11:50:22Z</time>
      </trkpt>
      <trkpt lat="43.52886" lon="5.56935">
        <ele>465.9</ele>
        <time>2023-05-28T11:50:23Z</time>
      </trkpt>
      <trkpt lat="43.52886" lon="5.56935">
        <ele>465.9</ele>
        <time>2023-05-28T11:50:24Z</time>
      </trkpt>
      <trkpt lat="43.52886" lon="5.56935">
        <ele>466</ele>
        <time>2023-05-28T11:50:25Z</time>
      </trkpt>
      <trkpt lat="43.52886" lon="5.56935">
        <ele>466</ele>
        <time>2023-05-28T11:50:26Z</time>
      </trkpt>
      <trkpt lat="43.52886" lon="5.56935">
        <ele>466</ele>
        <time>2023-05-28T11:50:27Z</time>
      </trkpt>
      <trkpt lat="43.52886" lon="5.56935">
        <ele>466</ele>
        <time>2023-05-28T11:50:28Z</time>
      </trkpt>
      <trkpt lat="43.52886" lon="5.56935">
        <ele>466</ele>
        <time>2023-05-28T11:50:29Z</time>
      </trkpt>
      <trkpt lat="43.52886" lon="5.56935">
        <ele>466</ele>
        <time>2023-05-28T11:50:30Z</time>
      </trkpt>
      <trkpt lat="43.52886" lon="5.56935">
        <ele>466</ele>
        <time>2023-05-28T11:50:31Z</time>
      </trkpt>
      <trkpt lat="43.52886" lon="5.56935">
        <ele>465.9</ele>
        <time>2023-05-28T11:50:32Z</time>
      </trkpt>
      <trkpt lat="43.52886" lon="5.56936">
        <ele>465.9</ele>
        <time>2023-05-28T11:50:33Z</time>
      </trkpt>
      <trkpt lat="43.52886" lon="5.56935">
        <ele>466</ele>
        <time>2023-05-28T11:50:34Z</time>
      </trkpt>
      <trkpt lat="43.52886" lon="5.56935">
        <ele>466.1</ele>
        <time>2023-05-28T11:50:35Z</time>
      </trkpt>
      <trkpt lat="43.52885" lon="5.56935">
        <ele>466.1</ele>
        <time>2023-05-28T11:50:36Z</time>
      </trkpt>
      <trkpt lat="43.52885" lon="5.56935">
        <ele>466.1</ele>
        <time>2023-05-28T11:50:37Z</time>
      </trkpt>
      <trkpt lat="43.52885" lon="5.56935">
        <ele>466.1</ele>
        <time>2023-05-28T11:50:38Z</time>
      </trkpt>
      <trkpt lat="43.52885" lon="5.56935">
        <ele>466</ele>
        <time>2023-05-28T11:50:39Z</time>
      </trkpt>
      <trkpt lat="43.52885" lon="5.56935">
        <ele>466</ele>
        <time>2023-05-28T11:50:40Z</time>
      </trkpt>
      <trkpt lat="43.52885" lon="5.56935">
        <ele>466</ele>
        <time>2023-05-28T11:50:41Z</time>
      </trkpt>
      <trkpt lat="43.52885" lon="5.56935">
        <ele>465.9</ele>
        <time>2023-05-28T11:50:42Z</time>
      </trkpt>
      <trkpt lat="43.52885" lon="5.56935">
        <ele>465.8</ele>
        <time>2023-05-28T11:50:43Z</time>
      </trkpt>
      <trkpt lat="43.52885" lon="5.56935">
        <ele>465.9</ele>
        <time>2023-05-28T11:50:44Z</time>
      </trkpt>
      <trkpt lat="43.52885" lon="5.56935">
        <ele>465.9</ele>
        <time>2023-05-28T11:50:45Z</time>
      </trkpt>
      <trkpt lat="43.52885" lon="5.56935">
        <ele>465.9</ele>
        <time>2023-05-28T11:50:46Z</time>
      </trkpt>
      <trkpt lat="43.52885" lon="5.56935">
        <ele>465.9</ele>
        <time>2023-05-28T11:50:47Z</time>
      </trkpt>
      <trkpt lat="43.52885" lon="5.56935">
        <ele>465.9</ele>
        <time>2023-05-28T11:50:48Z</time>
      </trkpt>
      <trkpt lat="43.52885" lon="5.56935">
        <ele>465.8</ele>
        <time>2023-05-28T11:50:49Z</time>
      </trkpt>
      <trkpt lat="43.52885" lon="5.56936">
        <ele>465.8</ele>
        <time>2023-05-28T11:50:50Z</time>
      </trkpt>
      <trkpt lat="43.52885" lon="5.56936">
        <ele>465.8</ele>
        <time>2023-05-28T11:50:51Z</time>
      </trkpt>
      <trkpt lat="43.52885" lon="5.56936">
        <ele>465.8</ele>
        <time>2023-05-28T11:50:52Z</time>
      </trkpt>
      <trkpt lat="43.52885" lon="5.56936">
        <ele>465.7</ele>
        <time>2023-05-28T11:50:53Z</time>
      </trkpt>
      <trkpt lat="43.52885" lon="5.56936">
        <ele>465.7</ele>
        <time>2023-05-28T11:50:54Z</time>
      </trkpt>
      <trkpt lat="43.52885" lon="5.56936">
        <ele>465.6</ele>
        <time>2023-05-28T11:50:55Z</time>
      </trkpt>
      <trkpt lat="43.52886" lon="5.56936">
        <ele>465.6</ele>
        <time>2023-05-28T11:50:56Z</time>
      </trkpt>
      <trkpt lat="43.52886" lon="5.56936">
        <ele>465.6</ele>
        <time>2023-05-28T11:50:57Z</time>
      </trkpt>
      <trkpt lat="43.52886" lon="5.56936">
        <ele>465.5</ele>
        <time>2023-05-28T11:50:58Z</time>
      </trkpt>
      <trkpt lat="43.52886" lon="5.56936">
        <ele>465.5</ele>
        <time>2023-05-28T11:50:59Z</time>
      </trkpt>
      <trkpt lat="43.52886" lon="5.56936">
        <ele>465.6</ele>
        <time>2023-05-28T11:51:00Z</time>
      </trkpt>
      <trkpt lat="43.52886" lon="5.56936">
        <ele>465.6</ele>
        <time>2023-05-28T11:51:01Z</time>
      </trkpt>
      <trkpt lat="43.52886" lon="5.56936">
        <ele>465.6</ele>
        <time>2023-05-28T11:51:02Z</time>
      </trkpt>
      <trkpt lat="43.52885" lon="5.56936">
        <ele>465.6</ele>
        <time>2023-05-28T11:51:03Z</time>
      </trkpt>
      <trkpt lat="43.52885" lon="5.56936">
        <ele>465.6</ele>
        <time>2023-05-28T11:51:04Z</time>
      </trkpt>
      <trkpt lat="43.52885" lon="5.56936">
        <ele>465.6</ele>
        <time>2023-05-28T11:51:05Z</time>
      </trkpt>
      <trkpt lat="43.52885" lon="5.56936">
        <ele>465.6</ele>
        <time>2023-05-28T11:51:06Z</time>
      </trkpt>
      <trkpt lat="43.52885" lon="5.56936">
        <ele>465.6</ele>
        <time>2023-05-28T11:51:07Z</time>
      </trkpt>
      <trkpt lat="43.52885" lon="5.56936">
        <ele>465.6</ele>
        <time>2023-05-28T11:51:08Z</time>
      </trkpt>
      <trkpt lat="43.52885" lon="5.56936">
        <ele>465.6</ele>
        <time>2023-05-28T11:51:09Z</time>
      </trkpt>
      <trkpt lat="43.52885" lon="5.56936">
        <ele>465.6</ele>
        <time>2023-05-28T11:51:10Z</time>
      </trkpt>
      <trkpt lat="43.52885" lon="5.56936">
        <ele>465.6</ele>
        <time>2023-05-28T11:51:11Z</time>
      </trkpt>
      <trkpt lat="43.52885" lon="5.56936">
        <ele>465.6</ele>
        <time>2023-05-28T11:51:12Z</time>
      </trkpt>
      <trkpt lat="43.52885" lon="5.56936">
        <ele>465.6</ele>
        <time>2023-05-28T11:51:13Z</time>
      </trkpt>
      <trkpt lat="43.52885" lon="5.56936">
        <ele>465.6</ele>
        <time>2023-05-28T11:51:14Z</time>
      </trkpt>
      <trkpt lat="43.52885" lon="5.56936">
        <ele>465.6</ele>
        <time>2023-05-28T11:51:15Z</time>
      </trkpt>
      <trkpt lat="43.52885" lon="5.56936">
        <ele>465.6</ele>
        <time>2023-05-28T11:51:16Z</time>
      </trkpt>
      <trkpt lat="43.52885" lon="5.56936">
        <ele>465.7</ele>
        <time>2023-05-28T11:51:17Z</time>
      </trkpt>
      <trkpt lat="43.52885" lon="5.56936">
        <ele>465.8</ele>
        <time>2023-05-28T11:51:18Z</time>
      </trkpt>
      <trkpt lat="43.52885" lon="5.56936">
        <ele>465.8</ele>
        <time>2023-05-28T11:51:19Z</time>
      </trkpt>
      <trkpt lat="43.52885" lon="5.56936">
        <ele>465.8</ele>
        <time>2023-05-28T11:51:20Z</time>
      </trkpt>
      <trkpt lat="43.52885" lon="5.56936">
        <ele>465.8</ele>
        <time>2023-05-28T11:51:21Z</time>
      </trkpt>
      <trkpt lat="43.52885" lon="5.56936">
        <ele>465.8</ele>
        <time>2023-05-28T11:51:22Z</time>
      </trkpt>
      <trkpt lat="43.52885" lon="5.56936">
        <ele>465.7</ele>
        <time>2023-05-28T11:51:23Z</time>
      </trkpt>
      <trkpt lat="43.52885" lon="5.56936">
        <ele>465.7</ele>
        <time>2023-05-28T11:51:24Z</time>
      </trkpt>
      <trkpt lat="43.52885" lon="5.56936">
        <ele>465.7</ele>
        <time>2023-05-28T11:51:25Z</time>
      </trkpt>
      <trkpt lat="43.52885" lon="5.56936">
        <ele>465.7</ele>
        <time>2023-05-28T11:51:26Z</time>
      </trkpt>
      <trkpt lat="43.52885" lon="5.56936">
        <ele>465.7</ele>
        <time>2023-05-28T11:51:27Z</time>
      </trkpt>
      <trkpt lat="43.52885" lon="5.56936">
        <ele>465.7</ele>
        <time>2023-05-28T11:51:28Z</time>
      </trkpt>
      <trkpt lat="43.52885" lon="5.56936">
        <ele>465.6</ele>
        <time>2023-05-28T11:51:29Z</time>
      </trkpt>
      <trkpt lat="43.52885" lon="5.56936">
        <ele>465.6</ele>
        <time>2023-05-28T11:51:30Z</time>
      </trkpt>
      <trkpt lat="43.52885" lon="5.56937">
        <ele>465.6</ele>
        <time>2023-05-28T11:51:31Z</time>
      </trkpt>
      <trkpt lat="43.52885" lon="5.56937">
        <ele>465.7</ele>
        <time>2023-05-28T11:51:32Z</time>
      </trkpt>
      <trkpt lat="43.52885" lon="5.56937">
        <ele>465.7</ele>
        <time>2023-05-28T11:51:33Z</time>
      </trkpt>
      <trkpt lat="43.52886" lon="5.56937">
        <ele>465.7</ele>
        <time>2023-05-28T11:51:34Z</time>
      </trkpt>
      <trkpt lat="43.52886" lon="5.56937">
        <ele>465.7</ele>
        <time>2023-05-28T11:51:35Z</time>
      </trkpt>
      <trkpt lat="43.52886" lon="5.56937">
        <ele>465.7</ele>
        <time>2023-05-28T11:51:36Z</time>
      </trkpt>
      <trkpt lat="43.52886" lon="5.56937">
        <ele>465.7</ele>
        <time>2023-05-28T11:51:37Z</time>
      </trkpt>
      <trkpt lat="43.52886" lon="5.56937">
        <ele>465.7</ele>
        <time>2023-05-28T11:51:38Z</time>
      </trkpt>
      <trkpt lat="43.52886" lon="5.56937">
        <ele>465.6</ele>
        <time>2023-05-28T11:51:39Z</time>
      </trkpt>
      <trkpt lat="43.52886" lon="5.56937">
        <ele>465.7</ele>
        <time>2023-05-28T11:51:40Z</time>
      </trkpt>
      <trkpt lat="43.52886" lon="5.56937">
        <ele>465.6</ele>
        <time>2023-05-28T11:51:41Z</time>
      </trkpt>
      <trkpt lat="43.52886" lon="5.56937">
        <ele>465.6</ele>
        <time>2023-05-28T11:51:42Z</time>
      </trkpt>
      <trkpt lat="43.52886" lon="5.56937">
        <ele>465.6</ele>
        <time>2023-05-28T11:51:43Z</time>
      </trkpt>
      <trkpt lat="43.52886" lon="5.56937">
        <ele>465.5</ele>
        <time>2023-05-28T11:51:44Z</time>
      </trkpt>
      <trkpt lat="43.52886" lon="5.56937">
        <ele>465.5</ele>
        <time>2023-05-28T11:51:45Z</time>
      </trkpt>
      <trkpt lat="43.52886" lon="5.56937">
        <ele>465.4</ele>
        <time>2023-05-28T11:51:46Z</time>
      </trkpt>
      <trkpt lat="43.52886" lon="5.56937">
        <ele>465.4</ele>
        <time>2023-05-28T11:51:47Z</time>
      </trkpt>
      <trkpt lat="43.52886" lon="5.56937">
        <ele>465.4</ele>
        <time>2023-05-28T11:51:48Z</time>
      </trkpt>
      <trkpt lat="43.52886" lon="5.56937">
        <ele>465.4</ele>
        <time>2023-05-28T11:51:49Z</time>
      </trkpt>
      <trkpt lat="43.52886" lon="5.56937">
        <ele>465.4</ele>
        <time>2023-05-28T11:51:50Z</time>
      </trkpt>
      <trkpt lat="43.52886" lon="5.56937">
        <ele>465.5</ele>
        <time>2023-05-28T11:51:51Z</time>
      </trkpt>
      <trkpt lat="43.52886" lon="5.56937">
        <ele>465.5</ele>
        <time>2023-05-28T11:51:52Z</time>
      </trkpt>
      <trkpt lat="43.52886" lon="5.56937">
        <ele>465.6</ele>
        <time>2023-05-28T11:51:53Z</time>
      </trkpt>
      <trkpt lat="43.52886" lon="5.56937">
        <ele>465.6</ele>
        <time>2023-05-28T11:51:54Z</time>
      </trkpt>
      <trkpt lat="43.52886" lon="5.56936">
        <ele>465.5</ele>
        <time>2023-05-28T11:51:55Z</time>
      </trkpt>
      <trkpt lat="43.52886" lon="5.56936">
        <ele>465.5</ele>
        <time>2023-05-28T11:51:56Z</time>
      </trkpt>
      <trkpt lat="43.52886" lon="5.56936">
        <ele>465.5</ele>
        <time>2023-05-28T11:51:57Z</time>
      </trkpt>
      <trkpt lat="43.52886" lon="5.56936">
        <ele>465.5</ele>
        <time>2023-05-28T11:51:58Z</time>
      </trkpt>
      <trkpt lat="43.52886" lon="5.56936">
        <ele>465.4</ele>
        <time>2023-05-28T11:51:59Z</time>
      </trkpt>
      <trkpt lat="43.52886" lon="5.56936">
        <ele>465.4</ele>
        <time>2023-05-28T11:52:00Z</time>
      </trkpt>
      <trkpt lat="43.52886" lon="5.56936">
        <ele>465.4</ele>
        <time>2023-05-28T11:52:01Z</time>
      </trkpt>
      <trkpt lat="43.52886" lon="5.56936">
        <ele>465.4</ele>
        <time>2023-05-28T11:52:02Z</time>
      </trkpt>
      <trkpt lat="43.52886" lon="5.56936">
        <ele>465.4</ele>
        <time>2023-05-28T11:52:03Z</time>
      </trkpt>
      <trkpt lat="43.52886" lon="5.56936">
        <ele>465.4</ele>
        <time>2023-05-28T11:52:04Z</time>
      </trkpt>
      <trkpt lat="43.52886" lon="5.56936">
        <ele>465.4</ele>
        <time>2023-05-28T11:52:05Z</time>
      </trkpt>
      <trkpt lat="43.52886" lon="5.56936">
        <ele>465.4</ele>
        <time>2023-05-28T11:52:06Z</time>
      </trkpt>
      <trkpt lat="43.52886" lon="5.56936">
        <ele>465.3</ele>
        <time>2023-05-28T11:52:07Z</time>
      </trkpt>
      <trkpt lat="43.52886" lon="5.56936">
        <ele>465.3</ele>
        <time>2023-05-28T11:52:08Z</time>
      </trkpt>
      <trkpt lat="43.52886" lon="5.56935">
        <ele>465.4</ele>
        <time>2023-05-28T11:52:09Z</time>
      </trkpt>
      <trkpt lat="43.52886" lon="5.56935">
        <ele>465.4</ele>
        <time>2023-05-28T11:52:10Z</time>
      </trkpt>
      <trkpt lat="43.52886" lon="5.56935">
        <ele>465.5</ele>
        <time>2023-05-28T11:52:11Z</time>
      </trkpt>
      <trkpt lat="43.52886" lon="5.56935">
        <ele>465.5</ele>
        <time>2023-05-28T11:52:12Z</time>
      </trkpt>
      <trkpt lat="43.52886" lon="5.56935">
        <ele>465.5</ele>
        <time>2023-05-28T11:52:13Z</time>
      </trkpt>
      <trkpt lat="43.52886" lon="5.56935">
        <ele>465.5</ele>
        <time>2023-05-28T11:52:14Z</time>
      </trkpt>
      <trkpt lat="43.52886" lon="5.56935">
        <ele>465.5</ele>
        <time>2023-05-28T11:52:15Z</time>
      </trkpt>
      <trkpt lat="43.52886" lon="5.56935">
        <ele>465.5</ele>
        <time>2023-05-28T11:52:16Z</time>
      </trkpt>
      <trkpt lat="43.52886" lon="5.56935">
        <ele>465.5</ele>
        <time>2023-05-28T11:52:17Z</time>
      </trkpt>
      <trkpt lat="43.52886" lon="5.56934">
        <ele>465.4</ele>
        <time>2023-05-28T11:52:18Z</time>
      </trkpt>
      <trkpt lat="43.52886" lon="5.56934">
        <ele>465.4</ele>
        <time>2023-05-28T11:52:19Z</time>
      </trkpt>
      <trkpt lat="43.52886" lon="5.56934">
        <ele>465.4</ele>
        <time>2023-05-28T11:52:20Z</time>
      </trkpt>
      <trkpt lat="43.52886" lon="5.56934">
        <ele>465.4</ele>
        <time>2023-05-28T11:52:21Z</time>
      </trkpt>
      <trkpt lat="43.52886" lon="5.56934">
        <ele>465.5</ele>
        <time>2023-05-28T11:52:22Z</time>
      </trkpt>
      <trkpt lat="43.52886" lon="5.56934">
        <ele>465.6</ele>
        <time>2023-05-28T11:52:23Z</time>
      </trkpt>
      <trkpt lat="43.52886" lon="5.56934">
        <ele>465.7</ele>
        <time>2023-05-28T11:52:24Z</time>
      </trkpt>
      <trkpt lat="43.52886" lon="5.56934">
        <ele>465.8</ele>
        <time>2023-05-28T11:52:25Z</time>
      </trkpt>
      <trkpt lat="43.52886" lon="5.56934">
        <ele>465.8</ele>
        <time>2023-05-28T11:52:26Z</time>
      </trkpt>
      <trkpt lat="43.52886" lon="5.56933">
        <ele>465.8</ele>
        <time>2023-05-28T11:52:27Z</time>
      </trkpt>
      <trkpt lat="43.52886" lon="5.56933">
        <ele>465.8</ele>
        <time>2023-05-28T11:52:28Z</time>
      </trkpt>
      <trkpt lat="43.52886" lon="5.56933">
        <ele>465.7</ele>
        <time>2023-05-28T11:52:29Z</time>
      </trkpt>
      <trkpt lat="43.52885" lon="5.56933">
        <ele>465.8</ele>
        <time>2023-05-28T11:52:30Z</time>
      </trkpt>
      <trkpt lat="43.52885" lon="5.56933">
        <ele>465.8</ele>
        <time>2023-05-28T11:52:31Z</time>
      </trkpt>
      <trkpt lat="43.52885" lon="5.56933">
        <ele>465.8</ele>
        <time>2023-05-28T11:52:32Z</time>
      </trkpt>
      <trkpt lat="43.52885" lon="5.56933">
        <ele>465.8</ele>
        <time>2023-05-28T11:52:33Z</time>
      </trkpt>
      <trkpt lat="43.52885" lon="5.56933">
        <ele>465.8</ele>
        <time>2023-05-28T11:52:34Z</time>
      </trkpt>
      <trkpt lat="43.52885" lon="5.56933">
        <ele>465.8</ele>
        <time>2023-05-28T11:52:35Z</time>
      </trkpt>
      <trkpt lat="43.52885" lon="5.56933">
        <ele>465.8</ele>
        <time>2023-05-28T11:52:36Z</time>
      </trkpt>
      <trkpt lat="43.52885" lon="5.56933">
        <ele>465.9</ele>
        <time>2023-05-28T11:52:37Z</time>
      </trkpt>
      <trkpt lat="43.52885" lon="5.56933">
        <ele>465.9</ele>
        <time>2023-05-28T11:52:38Z</time>
      </trkpt>
      <trkpt lat="43.52885" lon="5.56933">
        <ele>465.8</ele>
        <time>2023-05-28T11:52:39Z</time>
      </trkpt>
      <trkpt lat="43.52885" lon="5.56933">
        <ele>465.8</ele>
        <time>2023-05-28T11:52:40Z</time>
      </trkpt>
      <trkpt lat="43.52885" lon="5.56933">
        <ele>465.8</ele>
        <time>2023-05-28T11:52:41Z</time>
      </trkpt>
      <trkpt lat="43.52885" lon="5.56933">
        <ele>465.8</ele>
        <time>2023-05-28T11:52:42Z</time>
      </trkpt>
      <trkpt lat="43.52885" lon="5.56933">
        <ele>465.8</ele>
        <time>2023-05-28T11:52:43Z</time>
      </trkpt>
      <trkpt lat="43.52885" lon="5.56933">
        <ele>465.8</ele>
        <time>2023-05-28T11:52:44Z</time>
      </trkpt>
      <trkpt lat="43.52885" lon="5.56933">
        <ele>465.8</ele>
        <time>2023-05-28T11:52:45Z</time>
      </trkpt>
      <trkpt lat="43.52885" lon="5.56933">
        <ele>465.8</ele>
        <time>2023-05-28T11:52:46Z</time>
      </trkpt>
      <trkpt lat="43.52886" lon="5.56933">
        <ele>465.8</ele>
        <time>2023-05-28T11:52:47Z</time>
      </trkpt>
      <trkpt lat="43.52886" lon="5.56934">
        <ele>465.8</ele>
        <time>2023-05-28T11:52:48Z</time>
      </trkpt>
      <trkpt lat="43.52886" lon="5.56934">
        <ele>465.8</ele>
        <time>2023-05-28T11:52:49Z</time>
      </trkpt>
      <trkpt lat="43.52886" lon="5.56934">
        <ele>465.8</ele>
        <time>2023-05-28T11:52:50Z</time>
      </trkpt>
      <trkpt lat="43.52886" lon="5.56934">
        <ele>465.8</ele>
        <time>2023-05-28T11:52:51Z</time>
      </trkpt>
      <trkpt lat="43.52886" lon="5.56934">
        <ele>465.8</ele>
        <time>2023-05-28T11:52:52Z</time>
      </trkpt>
      <trkpt lat="43.52886" lon="5.56934">
        <ele>465.8</ele>
        <time>2023-05-28T11:52:53Z</time>
      </trkpt>
      <trkpt lat="43.52886" lon="5.56934">
        <ele>465.8</ele>
        <time>2023-05-28T11:52:54Z</time>
      </trkpt>
      <trkpt lat="43.52886" lon="5.56934">
        <ele>465.8</ele>
        <time>2023-05-28T11:52:55Z</time>
      </trkpt>
      <trkpt lat="43.52886" lon="5.56935">
        <ele>465.8</ele>
        <time>2023-05-28T11:52:56Z</time>
      </trkpt>
      <trkpt lat="43.52886" lon="5.56935">
        <ele>465.8</ele>
        <time>2023-05-28T11:52:57Z</time>
      </trkpt>
      <trkpt lat="43.52886" lon="5.56935">
        <ele>465.8</ele>
        <time>2023-05-28T11:52:58Z</time>
      </trkpt>
      <trkpt lat="43.52886" lon="5.56935">
        <ele>465.8</ele>
        <time>2023-05-28T11:52:59Z</time>
      </trkpt>
      <trkpt lat="43.52886" lon="5.56935">
        <ele>465.8</ele>
        <time>2023-05-28T11:53:00Z</time>
      </trkpt>
      <trkpt lat="43.52887" lon="5.56936">
        <ele>465.7</ele>
        <time>2023-05-28T11:53:01Z</time>
      </trkpt>
      <trkpt lat="43.52887" lon="5.56936">
        <ele>465.7</ele>
        <time>2023-05-28T11:53:02Z</time>
      </trkpt>
      <trkpt lat="43.52887" lon="5.56936">
        <ele>465.7</ele>
        <time>2023-05-28T11:53:03Z</time>
      </trkpt>
      <trkpt lat="43.52887" lon="5.56936">
        <ele>465.7</ele>
        <time>2023-05-28T11:53:04Z</time>
      </trkpt>
      <trkpt lat="43.52887" lon="5.56936">
        <ele>465.9</ele>
        <time>2023-05-28T11:53:05Z</time>
      </trkpt>
      <trkpt lat="43.52887" lon="5.56936">
        <ele>465.9</ele>
        <time>2023-05-28T11:53:06Z</time>
      </trkpt>
      <trkpt lat="43.52887" lon="5.56937">
        <ele>465.9</ele>
        <time>2023-05-28T11:53:07Z</time>
      </trkpt>
      <trkpt lat="43.52887" lon="5.56937">
        <ele>465.9</ele>
        <time>2023-05-28T11:53:08Z</time>
      </trkpt>
      <trkpt lat="43.52887" lon="5.56937">
        <ele>465.9</ele>
        <time>2023-05-28T11:53:09Z</time>
      </trkpt>
      <trkpt lat="43.52887" lon="5.56937">
        <ele>465.9</ele>
        <time>2023-05-28T11:53:10Z</time>
      </trkpt>
      <trkpt lat="43.52887" lon="5.56937">
        <ele>465.9</ele>
        <time>2023-05-28T11:53:11Z</time>
      </trkpt>
      <trkpt lat="43.52887" lon="5.56937">
        <ele>466</ele>
        <time>2023-05-28T11:53:12Z</time>
      </trkpt>
      <trkpt lat="43.52888" lon="5.56937">
        <ele>466</ele>
        <time>2023-05-28T11:53:13Z</time>
      </trkpt>
      <trkpt lat="43.52888" lon="5.56937">
        <ele>466</ele>
        <time>2023-05-28T11:53:14Z</time>
      </trkpt>
      <trkpt lat="43.52888" lon="5.56937">
        <ele>466</ele>
        <time>2023-05-28T11:53:15Z</time>
      </trkpt>
      <trkpt lat="43.52888" lon="5.56937">
        <ele>466.1</ele>
        <time>2023-05-28T11:53:16Z</time>
      </trkpt>
      <trkpt lat="43.52888" lon="5.56937">
        <ele>466.1</ele>
        <time>2023-05-28T11:53:17Z</time>
      </trkpt>
      <trkpt lat="43.52888" lon="5.56937">
        <ele>466.1</ele>
        <time>2023-05-28T11:53:18Z</time>
      </trkpt>
      <trkpt lat="43.52888" lon="5.56937">
        <ele>466.2</ele>
        <time>2023-05-28T11:53:19Z</time>
      </trkpt>
      <trkpt lat="43.52888" lon="5.56937">
        <ele>466.2</ele>
        <time>2023-05-28T11:53:20Z</time>
      </trkpt>
      <trkpt lat="43.52888" lon="5.56937">
        <ele>466.2</ele>
        <time>2023-05-28T11:53:21Z</time>
      </trkpt>
      <trkpt lat="43.52888" lon="5.56937">
        <ele>466.2</ele>
        <time>2023-05-28T11:53:22Z</time>
      </trkpt>
      <trkpt lat="43.52888" lon="5.56937">
        <ele>466.2</ele>
        <time>2023-05-28T11:53:23Z</time>
      </trkpt>
      <trkpt lat="43.52888" lon="5.56937">
        <ele>466.2</ele>
        <time>2023-05-28T11:53:24Z</time>
      </trkpt>
      <trkpt lat="43.52888" lon="5.56937">
        <ele>466.2</ele>
        <time>2023-05-28T11:53:25Z</time>
      </trkpt>
      <trkpt lat="43.52888" lon="5.56937">
        <ele>466.1</ele>
        <time>2023-05-28T11:53:26Z</time>
      </trkpt>
      <trkpt lat="43.52888" lon="5.56937">
        <ele>466.1</ele>
        <time>2023-05-28T11:53:27Z</time>
      </trkpt>
      <trkpt lat="43.52888" lon="5.56937">
        <ele>466.1</ele>
        <time>2023-05-28T11:53:28Z</time>
      </trkpt>
      <trkpt lat="43.52888" lon="5.56937">
        <ele>466.1</ele>
        <time>2023-05-28T11:53:29Z</time>
      </trkpt>
      <trkpt lat="43.52888" lon="5.56937">
        <ele>466.1</ele>
        <time>2023-05-28T11:53:30Z</time>
      </trkpt>
      <trkpt lat="43.52888" lon="5.56937">
        <ele>466.1</ele>
        <time>2023-05-28T11:53:31Z</time>
      </trkpt>
      <trkpt lat="43.52888" lon="5.56937">
        <ele>466.1</ele>
        <time>2023-05-28T11:53:32Z</time>
      </trkpt>
      <trkpt lat="43.52888" lon="5.56937">
        <ele>466.1</ele>
        <time>2023-05-28T11:53:33Z</time>
      </trkpt>
      <trkpt lat="43.52888" lon="5.56937">
        <ele>466.1</ele>
        <time>2023-05-28T11:53:34Z</time>
      </trkpt>
      <trkpt lat="43.52888" lon="5.56937">
        <ele>466.1</ele>
        <time>2023-05-28T11:53:35Z</time>
      </trkpt>
      <trkpt lat="43.52888" lon="5.56937">
        <ele>466</ele>
        <time>2023-05-28T11:53:36Z</time>
      </trkpt>
      <trkpt lat="43.52889" lon="5.56937">
        <ele>466</ele>
        <time>2023-05-28T11:53:37Z</time>
      </trkpt>
      <trkpt lat="43.52889" lon="5.56937">
        <ele>466</ele>
        <time>2023-05-28T11:53:38Z</time>
      </trkpt>
      <trkpt lat="43.52889" lon="5.56937">
        <ele>466</ele>
        <time>2023-05-28T11:53:39Z</time>
      </trkpt>
      <trkpt lat="43.52889" lon="5.56937">
        <ele>465.9</ele>
        <time>2023-05-28T11:53:40Z</time>
      </trkpt>
      <trkpt lat="43.52889" lon="5.56936">
        <ele>465.9</ele>
        <time>2023-05-28T11:53:41Z</time>
      </trkpt>
      <trkpt lat="43.52889" lon="5.56936">
        <ele>465.9</ele>
        <time>2023-05-28T11:53:42Z</time>
      </trkpt>
      <trkpt lat="43.52889" lon="5.56936">
        <ele>465.9</ele>
        <time>2023-05-28T11:53:43Z</time>
      </trkpt>
      <trkpt lat="43.52889" lon="5.56936">
        <ele>465.9</ele>
        <time>2023-05-28T11:53:44Z</time>
      </trkpt>
      <trkpt lat="43.52889" lon="5.56936">
        <ele>465.9</ele>
        <time>2023-05-28T11:53:45Z</time>
      </trkpt>
      <trkpt lat="43.52889" lon="5.56936">
        <ele>466</ele>
        <time>2023-05-28T11:53:46Z</time>
      </trkpt>
      <trkpt lat="43.52889" lon="5.56936">
        <ele>466</ele>
        <time>2023-05-28T11:53:47Z</time>
      </trkpt>
      <trkpt lat="43.52889" lon="5.56936">
        <ele>465.9</ele>
        <time>2023-05-28T11:53:48Z</time>
      </trkpt>
      <trkpt lat="43.52889" lon="5.56936">
        <ele>465.9</ele>
        <time>2023-05-28T11:53:49Z</time>
      </trkpt>
      <trkpt lat="43.52889" lon="5.56937">
        <ele>465.8</ele>
        <time>2023-05-28T11:53:50Z</time>
      </trkpt>
      <trkpt lat="43.52889" lon="5.56937">
        <ele>465.7</ele>
        <time>2023-05-28T11:53:51Z</time>
      </trkpt>
      <trkpt lat="43.52889" lon="5.56937">
        <ele>465.7</ele>
        <time>2023-05-28T11:53:52Z</time>
      </trkpt>
      <trkpt lat="43.52889" lon="5.56937">
        <ele>465.8</ele>
        <time>2023-05-28T11:53:53Z</time>
      </trkpt>
      <trkpt lat="43.52889" lon="5.56937">
        <ele>465.9</ele>
        <time>2023-05-28T11:53:54Z</time>
      </trkpt>
      <trkpt lat="43.52889" lon="5.56937">
        <ele>465.9</ele>
        <time>2023-05-28T11:53:55Z</time>
      </trkpt>
      <trkpt lat="43.52889" lon="5.56937">
        <ele>465.9</ele>
        <time>2023-05-28T11:53:56Z</time>
      </trkpt>
      <trkpt lat="43.52889" lon="5.56937">
        <ele>465.9</ele>
        <time>2023-05-28T11:53:57Z</time>
      </trkpt>
      <trkpt lat="43.52889" lon="5.56937">
        <ele>465.9</ele>
        <time>2023-05-28T11:53:58Z</time>
      </trkpt>
      <trkpt lat="43.52889" lon="5.56937">
        <ele>465.9</ele>
        <time>2023-05-28T11:53:59Z</time>
      </trkpt>
      <trkpt lat="43.52889" lon="5.56937">
        <ele>465.9</ele>
        <time>2023-05-28T11:54:00Z</time>
      </trkpt>
      <trkpt lat="43.52889" lon="5.56937">
        <ele>465.8</ele>
        <time>2023-05-28T11:54:01Z</time>
      </trkpt>
      <trkpt lat="43.52889" lon="5.56937">
        <ele>465.7</ele>
        <time>2023-05-28T11:54:02Z</time>
      </trkpt>
      <trkpt lat="43.52889" lon="5.56937">
        <ele>465.7</ele>
        <time>2023-05-28T11:54:03Z</time>
      </trkpt>
      <trkpt lat="43.52889" lon="5.56937">
        <ele>465.7</ele>
        <time>2023-05-28T11:54:04Z</time>
      </trkpt>
      <trkpt lat="43.52889" lon="5.56937">
        <ele>465.8</ele>
        <time>2023-05-28T11:54:05Z</time>
      </trkpt>
      <trkpt lat="43.52889" lon="5.56937">
        <ele>465.8</ele>
        <time>2023-05-28T11:54:06Z</time>
      </trkpt>
      <trkpt lat="43.52889" lon="5.56937">
        <ele>465.9</ele>
        <time>2023-05-28T11:54:07Z</time>
      </trkpt>
      <trkpt lat="43.52889" lon="5.56937">
        <ele>465.9</ele>
        <time>2023-05-28T11:54:08Z</time>
      </trkpt>
      <trkpt lat="43.52888" lon="5.56937">
        <ele>465.9</ele>
        <time>2023-05-28T11:54:09Z</time>
      </trkpt>
      <trkpt lat="43.52888" lon="5.56937">
        <ele>465.9</ele>
        <time>2023-05-28T11:54:10Z</time>
      </trkpt>
      <trkpt lat="43.52888" lon="5.56937">
        <ele>465.9</ele>
        <time>2023-05-28T11:54:11Z</time>
      </trkpt>
      <trkpt lat="43.52888" lon="5.56937">
        <ele>465.9</ele>
        <time>2023-05-28T11:54:12Z</time>
      </trkpt>
      <trkpt lat="43.52888" lon="5.56937">
        <ele>465.9</ele>
        <time>2023-05-28T11:54:13Z</time>
      </trkpt>
      <trkpt lat="43.52888" lon="5.56937">
        <ele>465.9</ele>
        <time>2023-05-28T11:54:14Z</time>
      </trkpt>
      <trkpt lat="43.52888" lon="5.56937">
        <ele>466</ele>
        <time>2023-05-28T11:54:15Z</time>
      </trkpt>
      <trkpt lat="43.52888" lon="5.56937">
        <ele>466</ele>
        <time>2023-05-28T11:54:16Z</time>
      </trkpt>
      <trkpt lat="43.52888" lon="5.56937">
        <ele>466</ele>
        <time>2023-05-28T11:54:17Z</time>
      </trkpt>
      <trkpt lat="43.52888" lon="5.56937">
        <ele>466.1</ele>
        <time>2023-05-28T11:54:18Z</time>
      </trkpt>
      <trkpt lat="43.52888" lon="5.56937">
        <ele>466.2</ele>
        <time>2023-05-28T11:54:19Z</time>
      </trkpt>
      <trkpt lat="43.52887" lon="5.56937">
        <ele>466.2</ele>
        <time>2023-05-28T11:54:20Z</time>
      </trkpt>
      <trkpt lat="43.52887" lon="5.56937">
        <ele>466.3</ele>
        <time>2023-05-28T11:54:21Z</time>
      </trkpt>
      <trkpt lat="43.52887" lon="5.56937">
        <ele>466.3</ele>
        <time>2023-05-28T11:54:22Z</time>
      </trkpt>
      <trkpt lat="43.52887" lon="5.56937">
        <ele>466.4</ele>
        <time>2023-05-28T11:54:23Z</time>
      </trkpt>
      <trkpt lat="43.52887" lon="5.56937">
        <ele>466.3</ele>
        <time>2023-05-28T11:54:24Z</time>
      </trkpt>
      <trkpt lat="43.52887" lon="5.56937">
        <ele>466.3</ele>
        <time>2023-05-28T11:54:25Z</time>
      </trkpt>
      <trkpt lat="43.52887" lon="5.56937">
        <ele>466.4</ele>
        <time>2023-05-28T11:54:26Z</time>
      </trkpt>
      <trkpt lat="43.52887" lon="5.56937">
        <ele>466.3</ele>
        <time>2023-05-28T11:54:27Z</time>
      </trkpt>
      <trkpt lat="43.52887" lon="5.56937">
        <ele>466.2</ele>
        <time>2023-05-28T11:54:28Z</time>
      </trkpt>
      <trkpt lat="43.52887" lon="5.56937">
        <ele>466.2</ele>
        <time>2023-05-28T11:54:29Z</time>
      </trkpt>
      <trkpt lat="43.52887" lon="5.56937">
        <ele>466.2</ele>
        <time>2023-05-28T11:54:30Z</time>
      </trkpt>
      <trkpt lat="43.52887" lon="5.56937">
        <ele>466.3</ele>
        <time>2023-05-28T11:54:31Z</time>
      </trkpt>
      <trkpt lat="43.52887" lon="5.56937">
        <ele>466.2</ele>
        <time>2023-05-28T11:54:32Z</time>
      </trkpt>
      <trkpt lat="43.52887" lon="5.56937">
        <ele>466.2</ele>
        <time>2023-05-28T11:54:33Z</time>
      </trkpt>
      <trkpt lat="43.52887" lon="5.56937">
        <ele>466.1</ele>
        <time>2023-05-28T11:54:34Z</time>
      </trkpt>
      <trkpt lat="43.52887" lon="5.56937">
        <ele>466.1</ele>
        <time>2023-05-28T11:54:35Z</time>
      </trkpt>
      <trkpt lat="43.52887" lon="5.56937">
        <ele>466.1</ele>
        <time>2023-05-28T11:54:36Z</time>
      </trkpt>
      <trkpt lat="43.52888" lon="5.56937">
        <ele>466.1</ele>
        <time>2023-05-28T11:54:37Z</time>
      </trkpt>
      <trkpt lat="43.52888" lon="5.56937">
        <ele>466.1</ele>
        <time>2023-05-28T11:54:38Z</time>
      </trkpt>
      <trkpt lat="43.52888" lon="5.56937">
        <ele>466.1</ele>
        <time>2023-05-28T11:54:39Z</time>
      </trkpt>
      <trkpt lat="43.52888" lon="5.56937">
        <ele>466.1</ele>
        <time>2023-05-28T11:54:40Z</time>
      </trkpt>
      <trkpt lat="43.52888" lon="5.56937">
        <ele>466.1</ele>
        <time>2023-05-28T11:54:41Z</time>
      </trkpt>
      <trkpt lat="43.52888" lon="5.56937">
        <ele>466.1</ele>
        <time>2023-05-28T11:54:42Z</time>
      </trkpt>
      <trkpt lat="43.52888" lon="5.56937">
        <ele>466</ele>
        <time>2023-05-28T11:54:43Z</time>
      </trkpt>
      <trkpt lat="43.52888" lon="5.56937">
        <ele>466</ele>
        <time>2023-05-28T11:54:44Z</time>
      </trkpt>
      <trkpt lat="43.52888" lon="5.56937">
        <ele>466</ele>
        <time>2023-05-28T11:54:45Z</time>
      </trkpt>
      <trkpt lat="43.52888" lon="5.56937">
        <ele>466</ele>
        <time>2023-05-28T11:54:46Z</time>
      </trkpt>
      <trkpt lat="43.52888" lon="5.56937">
        <ele>466</ele>
        <time>2023-05-28T11:54:47Z</time>
      </trkpt>
      <trkpt lat="43.52888" lon="5.56936">
        <ele>466</ele>
        <time>2023-05-28T11:54:48Z</time>
      </trkpt>
      <trkpt lat="43.52888" lon="5.56936">
        <ele>466</ele>
        <time>2023-05-28T11:54:49Z</time>
      </trkpt>
      <trkpt lat="43.52888" lon="5.56936">
        <ele>466</ele>
        <time>2023-05-28T11:54:50Z</time>
      </trkpt>
      <trkpt lat="43.52888" lon="5.56936">
        <ele>466</ele>
        <time>2023-05-28T11:54:51Z</time>
      </trkpt>
      <trkpt lat="43.52888" lon="5.56936">
        <ele>466</ele>
        <time>2023-05-28T11:54:52Z</time>
      </trkpt>
      <trkpt lat="43.52888" lon="5.56936">
        <ele>466</ele>
        <time>2023-05-28T11:54:53Z</time>
      </trkpt>
      <trkpt lat="43.52888" lon="5.56936">
        <ele>466</ele>
        <time>2023-05-28T11:54:54Z</time>
      </trkpt>
      <trkpt lat="43.52888" lon="5.56936">
        <ele>465.9</ele>
        <time>2023-05-28T11:54:55Z</time>
      </trkpt>
      <trkpt lat="43.52888" lon="5.56936">
        <ele>465.9</ele>
        <time>2023-05-28T11:54:56Z</time>
      </trkpt>
      <trkpt lat="43.52888" lon="5.56936">
        <ele>465.9</ele>
        <time>2023-05-28T11:54:57Z</time>
      </trkpt>
      <trkpt lat="43.52888" lon="5.56936">
        <ele>465.8</ele>
        <time>2023-05-28T11:54:58Z</time>
      </trkpt>
      <trkpt lat="43.52888" lon="5.56936">
        <ele>465.8</ele>
        <time>2023-05-28T11:54:59Z</time>
      </trkpt>
      <trkpt lat="43.52888" lon="5.56935">
        <ele>465.8</ele>
        <time>2023-05-28T11:55:00Z</time>
      </trkpt>
      <trkpt lat="43.52888" lon="5.56935">
        <ele>465.8</ele>
        <time>2023-05-28T11:55:01Z</time>
      </trkpt>
      <trkpt lat="43.52888" lon="5.56935">
        <ele>465.8</ele>
        <time>2023-05-28T11:55:02Z</time>
      </trkpt>
      <trkpt lat="43.52888" lon="5.56935">
        <ele>465.8</ele>
        <time>2023-05-28T11:55:03Z</time>
      </trkpt>
      <trkpt lat="43.52888" lon="5.56935">
        <ele>465.8</ele>
        <time>2023-05-28T11:55:04Z</time>
      </trkpt>
      <trkpt lat="43.52888" lon="5.56935">
        <ele>465.7</ele>
        <time>2023-05-28T11:55:05Z</time>
      </trkpt>
      <trkpt lat="43.52888" lon="5.56935">
        <ele>465.7</ele>
        <time>2023-05-28T11:55:06Z</time>
      </trkpt>
      <trkpt lat="43.52888" lon="5.56934">
        <ele>465.8</ele>
        <time>2023-05-28T11:55:07Z</time>
      </trkpt>
      <trkpt lat="43.52887" lon="5.56934">
        <ele>465.7</ele>
        <time>2023-05-28T11:55:08Z</time>
      </trkpt>
      <trkpt lat="43.52887" lon="5.56934">
        <ele>465.7</ele>
        <time>2023-05-28T11:55:09Z</time>
      </trkpt>
      <trkpt lat="43.52887" lon="5.56934">
        <ele>465.6</ele>
        <time>2023-05-28T11:55:10Z</time>
      </trkpt>
      <trkpt lat="43.52887" lon="5.56934">
        <ele>465.6</ele>
        <time>2023-05-28T11:55:11Z</time>
      </trkpt>
      <trkpt lat="43.52887" lon="5.56934">
        <ele>465.6</ele>
        <time>2023-05-28T11:55:12Z</time>
      </trkpt>
      <trkpt lat="43.52887" lon="5.56934">
        <ele>465.7</ele>
        <time>2023-05-28T11:55:13Z</time>
      </trkpt>
      <trkpt lat="43.52887" lon="5.56934">
        <ele>465.7</ele>
        <time>2023-05-28T11:55:14Z</time>
      </trkpt>
      <trkpt lat="43.52887" lon="5.56934">
        <ele>465.7</ele>
        <time>2023-05-28T11:55:15Z</time>
      </trkpt>
      <trkpt lat="43.52887" lon="5.56934">
        <ele>465.8</ele>
        <time>2023-05-28T11:55:16Z</time>
      </trkpt>
      <trkpt lat="43.52887" lon="5.56934">
        <ele>465.8</ele>
        <time>2023-05-28T11:55:17Z</time>
      </trkpt>
      <trkpt lat="43.52887" lon="5.56934">
        <ele>465.9</ele>
        <time>2023-05-28T11:55:18Z</time>
      </trkpt>
      <trkpt lat="43.52887" lon="5.56933">
        <ele>466</ele>
        <time>2023-05-28T11:55:19Z</time>
      </trkpt>
      <trkpt lat="43.52887" lon="5.56933">
        <ele>466.1</ele>
        <time>2023-05-28T11:55:20Z</time>
      </trkpt>
      <trkpt lat="43.52887" lon="5.56933">
        <ele>466.1</ele>
        <time>2023-05-28T11:55:21Z</time>
      </trkpt>
      <trkpt lat="43.52887" lon="5.56933">
        <ele>466.1</ele>
        <time>2023-05-28T11:55:22Z</time>
      </trkpt>
      <trkpt lat="43.52887" lon="5.56933">
        <ele>466.2</ele>
        <time>2023-05-28T11:55:23Z</time>
      </trkpt>
      <trkpt lat="43.52887" lon="5.56933">
        <ele>466.2</ele>
        <time>2023-05-28T11:55:24Z</time>
      </trkpt>
      <trkpt lat="43.52887" lon="5.56933">
        <ele>466</ele>
        <time>2023-05-28T11:55:25Z</time>
      </trkpt>
      <trkpt lat="43.52887" lon="5.56933">
        <ele>466</ele>
        <time>2023-05-28T11:55:26Z</time>
      </trkpt>
      <trkpt lat="43.52887" lon="5.56933">
        <ele>466</ele>
        <time>2023-05-28T11:55:27Z</time>
      </trkpt>
      <trkpt lat="43.52887" lon="5.56933">
        <ele>466</ele>
        <time>2023-05-28T11:55:28Z</time>
      </trkpt>
      <trkpt lat="43.52887" lon="5.56933">
        <ele>466</ele>
        <time>2023-05-28T11:55:29Z</time>
      </trkpt>
      <trkpt lat="43.52887" lon="5.56933">
        <ele>466</ele>
        <time>2023-05-28T11:55:30Z</time>
      </trkpt>
      <trkpt lat="43.52887" lon="5.56933">
        <ele>466</ele>
        <time>2023-05-28T11:55:31Z</time>
      </trkpt>
      <trkpt lat="43.52887" lon="5.56933">
        <ele>465.9</ele>
        <time>2023-05-28T11:55:32Z</time>
      </trkpt>
      <trkpt lat="43.52887" lon="5.56933">
        <ele>465.9</ele>
        <time>2023-05-28T11:55:33Z</time>
      </trkpt>
      <trkpt lat="43.52887" lon="5.56933">
        <ele>466</ele>
        <time>2023-05-28T11:55:34Z</time>
      </trkpt>
      <trkpt lat="43.52887" lon="5.56933">
        <ele>465.9</ele>
        <time>2023-05-28T11:55:35Z</time>
      </trkpt>
      <trkpt lat="43.52887" lon="5.56933">
        <ele>465.8</ele>
        <time>2023-05-28T11:55:36Z</time>
      </trkpt>
      <trkpt lat="43.52887" lon="5.56933">
        <ele>465.8</ele>
        <time>2023-05-28T11:55:37Z</time>
      </trkpt>
      <trkpt lat="43.52887" lon="5.56933">
        <ele>465.8</ele>
        <time>2023-05-28T11:55:38Z</time>
      </trkpt>
      <trkpt lat="43.52887" lon="5.56933">
        <ele>465.8</ele>
        <time>2023-05-28T11:55:39Z</time>
      </trkpt>
      <trkpt lat="43.52887" lon="5.56933">
        <ele>465.8</ele>
        <time>2023-05-28T11:55:40Z</time>
      </trkpt>
      <trkpt lat="43.52887" lon="5.56933">
        <ele>465.8</ele>
        <time>2023-05-28T11:55:41Z</time>
      </trkpt>
      <trkpt lat="43.52887" lon="5.56933">
        <ele>465.8</ele>
        <time>2023-05-28T11:55:42Z</time>
      </trkpt>
      <trkpt lat="43.52887" lon="5.56933">
        <ele>465.8</ele>
        <time>2023-05-28T11:55:43Z</time>
      </trkpt>
      <trkpt lat="43.52887" lon="5.56933">
        <ele>465.9</ele>
        <time>2023-05-28T11:55:44Z</time>
      </trkpt>
      <trkpt lat="43.52887" lon="5.56933">
        <ele>466</ele>
        <time>2023-05-28T11:55:45Z</time>
      </trkpt>
      <trkpt lat="43.52887" lon="5.56933">
        <ele>465.9</ele>
        <time>2023-05-28T11:55:46Z</time>
      </trkpt>
      <trkpt lat="43.52887" lon="5.56933">
        <ele>465.8</ele>
        <time>2023-05-28T11:55:47Z</time>
      </trkpt>
      <trkpt lat="43.52887" lon="5.56933">
        <ele>465.7</ele>
        <time>2023-05-28T11:55:48Z</time>
      </trkpt>
      <trkpt lat="43.52887" lon="5.56933">
        <ele>465.8</ele>
        <time>2023-05-28T11:55:49Z</time>
      </trkpt>
      <trkpt lat="43.52887" lon="5.56933">
        <ele>465.8</ele>
        <time>2023-05-28T11:55:50Z</time>
      </trkpt>
      <trkpt lat="43.52887" lon="5.56933">
        <ele>465.8</ele>
        <time>2023-05-28T11:55:51Z</time>
      </trkpt>
      <trkpt lat="43.52887" lon="5.56933">
        <ele>465.8</ele>
        <time>2023-05-28T11:55:52Z</time>
      </trkpt>
      <trkpt lat="43.52887" lon="5.56933">
        <ele>465.8</ele>
        <time>2023-05-28T11:55:53Z</time>
      </trkpt>
      <trkpt lat="43.52887" lon="5.56933">
        <ele>465.9</ele>
        <time>2023-05-28T11:55:54Z</time>
      </trkpt>
      <trkpt lat="43.52887" lon="5.56933">
        <ele>465.9</ele>
        <time>2023-05-28T11:55:55Z</time>
      </trkpt>
      <trkpt lat="43.52887" lon="5.56933">
        <ele>465.9</ele>
        <time>2023-05-28T11:55:56Z</time>
      </trkpt>
      <trkpt lat="43.52887" lon="5.56933">
        <ele>465.9</ele>
        <time>2023-05-28T11:55:57Z</time>
      </trkpt>
      <trkpt lat="43.52887" lon="5.56933">
        <ele>465.9</ele>
        <time>2023-05-28T11:55:58Z</time>
      </trkpt>
      <trkpt lat="43.52887" lon="5.56933">
        <ele>465.9</ele>
        <time>2023-05-28T11:55:59Z</time>
      </trkpt>
      <trkpt lat="43.52887" lon="5.56933">
        <ele>466</ele>
        <time>2023-05-28T11:56:00Z</time>
      </trkpt>
      <trkpt lat="43.52887" lon="5.56933">
        <ele>466</ele>
        <time>2023-05-28T11:56:01Z</time>
      </trkpt>
      <trkpt lat="43.52887" lon="5.56933">
        <ele>466</ele>
        <time>2023-05-28T11:56:02Z</time>
      </trkpt>
      <trkpt lat="43.52887" lon="5.56933">
        <ele>466</ele>
        <time>2023-05-28T11:56:03Z</time>
      </trkpt>
      <trkpt lat="43.52887" lon="5.56933">
        <ele>466</ele>
        <time>2023-05-28T11:56:04Z</time>
      </trkpt>
      <trkpt lat="43.52887" lon="5.56933">
        <ele>466</ele>
        <time>2023-05-28T11:56:05Z</time>
      </trkpt>
      <trkpt lat="43.52887" lon="5.56933">
        <ele>466.1</ele>
        <time>2023-05-28T11:56:06Z</time>
      </trkpt>
      <trkpt lat="43.52887" lon="5.56934">
        <ele>466.1</ele>
        <time>2023-05-28T11:56:07Z</time>
      </trkpt>
      <trkpt lat="43.52887" lon="5.56934">
        <ele>466.1</ele>
        <time>2023-05-28T11:56:08Z</time>
      </trkpt>
      <trkpt lat="43.52886" lon="5.56934">
        <ele>466.1</ele>
        <time>2023-05-28T11:56:09Z</time>
      </trkpt>
      <trkpt lat="43.52886" lon="5.56934">
        <ele>466.2</ele>
        <time>2023-05-28T11:56:10Z</time>
      </trkpt>
      <trkpt lat="43.52886" lon="5.56934">
        <ele>466.2</ele>
        <time>2023-05-28T11:56:11Z</time>
      </trkpt>
      <trkpt lat="43.52886" lon="5.56934">
        <ele>466.2</ele>
        <time>2023-05-28T11:56:12Z</time>
      </trkpt>
      <trkpt lat="43.52886" lon="5.56935">
        <ele>466.1</ele>
        <time>2023-05-28T11:56:13Z</time>
      </trkpt>
      <trkpt lat="43.52886" lon="5.56935">
        <ele>466</ele>
        <time>2023-05-28T11:56:14Z</time>
      </trkpt>
      <trkpt lat="43.52886" lon="5.56935">
        <ele>465.9</ele>
        <time>2023-05-28T11:56:15Z</time>
      </trkpt>
      <trkpt lat="43.52886" lon="5.56935">
        <ele>465.9</ele>
        <time>2023-05-28T11:56:16Z</time>
      </trkpt>
      <trkpt lat="43.52886" lon="5.56935">
        <ele>465.9</ele>
        <time>2023-05-28T11:56:17Z</time>
      </trkpt>
      <trkpt lat="43.52886" lon="5.56935">
        <ele>465.8</ele>
        <time>2023-05-28T11:56:18Z</time>
      </trkpt>
      <trkpt lat="43.52886" lon="5.56935">
        <ele>465.9</ele>
        <time>2023-05-28T11:56:19Z</time>
      </trkpt>
      <trkpt lat="43.52886" lon="5.56935">
        <ele>465.9</ele>
        <time>2023-05-28T11:56:20Z</time>
      </trkpt>
      <trkpt lat="43.52886" lon="5.56935">
        <ele>465.8</ele>
        <time>2023-05-28T11:56:21Z</time>
      </trkpt>
      <trkpt lat="43.52886" lon="5.56935">
        <ele>465.8</ele>
        <time>2023-05-28T11:56:22Z</time>
      </trkpt>
      <trkpt lat="43.52886" lon="5.56935">
        <ele>465.8</ele>
        <time>2023-05-28T11:56:23Z</time>
      </trkpt>
      <trkpt lat="43.52886" lon="5.56935">
        <ele>465.8</ele>
        <time>2023-05-28T11:56:24Z</time>
      </trkpt>
      <trkpt lat="43.52886" lon="5.56935">
        <ele>465.7</ele>
        <time>2023-05-28T11:56:25Z</time>
      </trkpt>
      <trkpt lat="43.52886" lon="5.56935">
        <ele>465.7</ele>
        <time>2023-05-28T11:56:26Z</time>
      </trkpt>
      <trkpt lat="43.52886" lon="5.56934">
        <ele>465.7</ele>
        <time>2023-05-28T11:56:27Z</time>
      </trkpt>
      <trkpt lat="43.52886" lon="5.56934">
        <ele>465.7</ele>
        <time>2023-05-28T11:56:28Z</time>
      </trkpt>
      <trkpt lat="43.52886" lon="5.56934">
        <ele>465.7</ele>
        <time>2023-05-28T11:56:29Z</time>
      </trkpt>
      <trkpt lat="43.52886" lon="5.56934">
        <ele>465.7</ele>
        <time>2023-05-28T11:56:30Z</time>
      </trkpt>
      <trkpt lat="43.52886" lon="5.56935">
        <ele>465.7</ele>
        <time>2023-05-28T11:56:31Z</time>
      </trkpt>
      <trkpt lat="43.52886" lon="5.56935">
        <ele>465.7</ele>
        <time>2023-05-28T11:56:32Z</time>
      </trkpt>
      <trkpt lat="43.52887" lon="5.56935">
        <ele>465.8</ele>
        <time>2023-05-28T11:56:33Z</time>
      </trkpt>
      <trkpt lat="43.52887" lon="5.56935">
        <ele>465.8</ele>
        <time>2023-05-28T11:56:34Z</time>
      </trkpt>
      <trkpt lat="43.52887" lon="5.56935">
        <ele>465.8</ele>
        <time>2023-05-28T11:56:35Z</time>
      </trkpt>
      <trkpt lat="43.52887" lon="5.56935">
        <ele>465.9</ele>
        <time>2023-05-28T11:56:36Z</time>
      </trkpt>
      <trkpt lat="43.52887" lon="5.56935">
        <ele>465.9</ele>
        <time>2023-05-28T11:56:37Z</time>
      </trkpt>
      <trkpt lat="43.52887" lon="5.56935">
        <ele>465.9</ele>
        <time>2023-05-28T11:56:38Z</time>
      </trkpt>
      <trkpt lat="43.52887" lon="5.56936">
        <ele>465.9</ele>
        <time>2023-05-28T11:56:39Z</time>
      </trkpt>
      <trkpt lat="43.52887" lon="5.56936">
        <ele>465.9</ele>
        <time>2023-05-28T11:56:40Z</time>
      </trkpt>
      <trkpt lat="43.52887" lon="5.56936">
        <ele>465.9</ele>
        <time>2023-05-28T11:56:41Z</time>
      </trkpt>
      <trkpt lat="43.52887" lon="5.56936">
        <ele>465.9</ele>
        <time>2023-05-28T11:56:42Z</time>
      </trkpt>
      <trkpt lat="43.52887" lon="5.56936">
        <ele>465.9</ele>
        <time>2023-05-28T11:56:43Z</time>
      </trkpt>
      <trkpt lat="43.52887" lon="5.56936">
        <ele>465.9</ele>
        <time>2023-05-28T11:56:44Z</time>
      </trkpt>
      <trkpt lat="43.52887" lon="5.56936">
        <ele>465.9</ele>
        <time>2023-05-28T11:56:45Z</time>
      </trkpt>
      <trkpt lat="43.52887" lon="5.56936">
        <ele>465.9</ele>
        <time>2023-05-28T11:56:46Z</time>
      </trkpt>
      <trkpt lat="43.52887" lon="5.56936">
        <ele>465.9</ele>
        <time>2023-05-28T11:56:47Z</time>
      </trkpt>
      <trkpt lat="43.52887" lon="5.56936">
        <ele>465.9</ele>
        <time>2023-05-28T11:56:48Z</time>
      </trkpt>
      <trkpt lat="43.52887" lon="5.56936">
        <ele>465.9</ele>
        <time>2023-05-28T11:56:49Z</time>
      </trkpt>
      <trkpt lat="43.52887" lon="5.56935">
        <ele>465.9</ele>
        <time>2023-05-28T11:56:50Z</time>
      </trkpt>
      <trkpt lat="43.52887" lon="5.56935">
        <ele>465.8</ele>
        <time>2023-05-28T11:56:51Z</time>
      </trkpt>
      <trkpt lat="43.52887" lon="5.56935">
        <ele>465.8</ele>
        <time>2023-05-28T11:56:52Z</time>
      </trkpt>
      <trkpt lat="43.52887" lon="5.56934">
        <ele>465.7</ele>
        <time>2023-05-28T11:56:53Z</time>
      </trkpt>
      <trkpt lat="43.52887" lon="5.56934">
        <ele>465.6</ele>
        <time>2023-05-28T11:56:54Z</time>
      </trkpt>
      <trkpt lat="43.52887" lon="5.56934">
        <ele>465.6</ele>
        <time>2023-05-28T11:56:55Z</time>
      </trkpt>
      <trkpt lat="43.52887" lon="5.56934">
        <ele>465.6</ele>
        <time>2023-05-28T11:56:56Z</time>
      </trkpt>
      <trkpt lat="43.52887" lon="5.56933">
        <ele>465.5</ele>
        <time>2023-05-28T11:56:57Z</time>
      </trkpt>
      <trkpt lat="43.52887" lon="5.56933">
        <ele>465.5</ele>
        <time>2023-05-28T11:56:58Z</time>
      </trkpt>
      <trkpt lat="43.52886" lon="5.56933">
        <ele>465.4</ele>
        <time>2023-05-28T11:56:59Z</time>
      </trkpt>
      <trkpt lat="43.52886" lon="5.56933">
        <ele>465.4</ele>
        <time>2023-05-28T11:57:00Z</time>
      </trkpt>
      <trkpt lat="43.52886" lon="5.56933">
        <ele>465.4</ele>
        <time>2023-05-28T11:57:01Z</time>
      </trkpt>
      <trkpt lat="43.52886" lon="5.56933">
        <ele>465.3</ele>
        <time>2023-05-28T11:57:02Z</time>
      </trkpt>
      <trkpt lat="43.52886" lon="5.56933">
        <ele>465.3</ele>
        <time>2023-05-28T11:57:03Z</time>
      </trkpt>
      <trkpt lat="43.52886" lon="5.56933">
        <ele>465.3</ele>
        <time>2023-05-28T11:57:04Z</time>
      </trkpt>
      <trkpt lat="43.52886" lon="5.56933">
        <ele>465.3</ele>
        <time>2023-05-28T11:57:05Z</time>
      </trkpt>
      <trkpt lat="43.52886" lon="5.56933">
        <ele>465.4</ele>
        <time>2023-05-28T11:57:06Z</time>
      </trkpt>
      <trkpt lat="43.52886" lon="5.56933">
        <ele>465.5</ele>
        <time>2023-05-28T11:57:07Z</time>
      </trkpt>
      <trkpt lat="43.52886" lon="5.56932">
        <ele>465.5</ele>
        <time>2023-05-28T11:57:08Z</time>
      </trkpt>
      <trkpt lat="43.52885" lon="5.56932">
        <ele>465.5</ele>
        <time>2023-05-28T11:57:09Z</time>
      </trkpt>
      <trkpt lat="43.52885" lon="5.56932">
        <ele>465.5</ele>
        <time>2023-05-28T11:57:10Z</time>
      </trkpt>
      <trkpt lat="43.52885" lon="5.56932">
        <ele>465.5</ele>
        <time>2023-05-28T11:57:11Z</time>
      </trkpt>
      <trkpt lat="43.52885" lon="5.56932">
        <ele>465.5</ele>
        <time>2023-05-28T11:57:12Z</time>
      </trkpt>
      <trkpt lat="43.52885" lon="5.56932">
        <ele>465.5</ele>
        <time>2023-05-28T11:57:13Z</time>
      </trkpt>
      <trkpt lat="43.52885" lon="5.56932">
        <ele>465.5</ele>
        <time>2023-05-28T11:57:14Z</time>
      </trkpt>
      <trkpt lat="43.52885" lon="5.56932">
        <ele>465.5</ele>
        <time>2023-05-28T11:57:15Z</time>
      </trkpt>
      <trkpt lat="43.52886" lon="5.56932">
        <ele>465.5</ele>
        <time>2023-05-28T11:57:16Z</time>
      </trkpt>
      <trkpt lat="43.52886" lon="5.56933">
        <ele>465.5</ele>
        <time>2023-05-28T11:57:17Z</time>
      </trkpt>
      <trkpt lat="43.52886" lon="5.56933">
        <ele>465.5</ele>
        <time>2023-05-28T11:57:18Z</time>
      </trkpt>
      <trkpt lat="43.52886" lon="5.56933">
        <ele>465.6</ele>
        <time>2023-05-28T11:57:19Z</time>
      </trkpt>
      <trkpt lat="43.52886" lon="5.56933">
        <ele>465.6</ele>
        <time>2023-05-28T11:57:20Z</time>
      </trkpt>
      <trkpt lat="43.52886" lon="5.56933">
        <ele>465.6</ele>
        <time>2023-05-28T11:57:21Z</time>
      </trkpt>
      <trkpt lat="43.52886" lon="5.56933">
        <ele>465.6</ele>
        <time>2023-05-28T11:57:22Z</time>
      </trkpt>
      <trkpt lat="43.52886" lon="5.56933">
        <ele>465.6</ele>
        <time>2023-05-28T11:57:23Z</time>
      </trkpt>
      <trkpt lat="43.52886" lon="5.56933">
        <ele>465.6</ele>
        <time>2023-05-28T11:57:24Z</time>
      </trkpt>
      <trkpt lat="43.52886" lon="5.56933">
        <ele>465.6</ele>
        <time>2023-05-28T11:57:25Z</time>
      </trkpt>
      <trkpt lat="43.52887" lon="5.56933">
        <ele>465.7</ele>
        <time>2023-05-28T11:57:26Z</time>
      </trkpt>
      <trkpt lat="43.52887" lon="5.56933">
        <ele>465.7</ele>
        <time>2023-05-28T11:57:27Z</time>
      </trkpt>
      <trkpt lat="43.52887" lon="5.56933">
        <ele>465.8</ele>
        <time>2023-05-28T11:57:28Z</time>
      </trkpt>
      <trkpt lat="43.52887" lon="5.56933">
        <ele>465.8</ele>
        <time>2023-05-28T11:57:29Z</time>
      </trkpt>
      <trkpt lat="43.52887" lon="5.56933">
        <ele>465.8</ele>
        <time>2023-05-28T11:57:30Z</time>
      </trkpt>
      <trkpt lat="43.52887" lon="5.56933">
        <ele>465.7</ele>
        <time>2023-05-28T11:57:31Z</time>
      </trkpt>
      <trkpt lat="43.52887" lon="5.56933">
        <ele>465.7</ele>
        <time>2023-05-28T11:57:32Z</time>
      </trkpt>
      <trkpt lat="43.52887" lon="5.56933">
        <ele>465.8</ele>
        <time>2023-05-28T11:57:33Z</time>
      </trkpt>
      <trkpt lat="43.52887" lon="5.56933">
        <ele>465.9</ele>
        <time>2023-05-28T11:57:34Z</time>
      </trkpt>
      <trkpt lat="43.52887" lon="5.56933">
        <ele>465.9</ele>
        <time>2023-05-28T11:57:35Z</time>
      </trkpt>
      <trkpt lat="43.52887" lon="5.56934">
        <ele>465.8</ele>
        <time>2023-05-28T11:57:36Z</time>
      </trkpt>
      <trkpt lat="43.52887" lon="5.56933">
        <ele>465.8</ele>
        <time>2023-05-28T11:57:37Z</time>
      </trkpt>
      <trkpt lat="43.52887" lon="5.56933">
        <ele>465.8</ele>
        <time>2023-05-28T11:57:38Z</time>
      </trkpt>
      <trkpt lat="43.52887" lon="5.56933">
        <ele>465.7</ele>
        <time>2023-05-28T11:57:39Z</time>
      </trkpt>
      <trkpt lat="43.52887" lon="5.56933">
        <ele>465.7</ele>
        <time>2023-05-28T11:57:40Z</time>
      </trkpt>
      <trkpt lat="43.52887" lon="5.56933">
        <ele>465.8</ele>
        <time>2023-05-28T11:57:41Z</time>
      </trkpt>
      <trkpt lat="43.52887" lon="5.56933">
        <ele>465.8</ele>
        <time>2023-05-28T11:57:42Z</time>
      </trkpt>
      <trkpt lat="43.52887" lon="5.56933">
        <ele>465.8</ele>
        <time>2023-05-28T11:57:43Z</time>
      </trkpt>
      <trkpt lat="43.52887" lon="5.56933">
        <ele>465.9</ele>
        <time>2023-05-28T11:57:44Z</time>
      </trkpt>
      <trkpt lat="43.52887" lon="5.56933">
        <ele>465.9</ele>
        <time>2023-05-28T11:57:45Z</time>
      </trkpt>
      <trkpt lat="43.52887" lon="5.56933">
        <ele>465.9</ele>
        <time>2023-05-28T11:57:46Z</time>
      </trkpt>
      <trkpt lat="43.52887" lon="5.56934">
        <ele>465.9</ele>
        <time>2023-05-28T11:57:47Z</time>
      </trkpt>
      <trkpt lat="43.52887" lon="5.56934">
        <ele>465.9</ele>
        <time>2023-05-28T11:57:48Z</time>
      </trkpt>
      <trkpt lat="43.52887" lon="5.56934">
        <ele>465.9</ele>
        <time>2023-05-28T11:57:49Z</time>
      </trkpt>
      <trkpt lat="43.52887" lon="5.56934">
        <ele>466</ele>
        <time>2023-05-28T11:57:50Z</time>
      </trkpt>
      <trkpt lat="43.52887" lon="5.56934">
        <ele>466</ele>
        <time>2023-05-28T11:57:51Z</time>
      </trkpt>
      <trkpt lat="43.52887" lon="5.56934">
        <ele>466</ele>
        <time>2023-05-28T11:57:52Z</time>
      </trkpt>
      <trkpt lat="43.52887" lon="5.56934">
        <ele>465.9</ele>
        <time>2023-05-28T11:57:53Z</time>
      </trkpt>
      <trkpt lat="43.52887" lon="5.56934">
        <ele>465.8</ele>
        <time>2023-05-28T11:57:54Z</time>
      </trkpt>
      <trkpt lat="43.52887" lon="5.56934">
        <ele>465.8</ele>
        <time>2023-05-28T11:57:55Z</time>
      </trkpt>
      <trkpt lat="43.52887" lon="5.56934">
        <ele>465.8</ele>
        <time>2023-05-28T11:57:56Z</time>
      </trkpt>
      <trkpt lat="43.52888" lon="5.56934">
        <ele>465.8</ele>
        <time>2023-05-28T11:57:57Z</time>
      </trkpt>
      <trkpt lat="43.52888" lon="5.56934">
        <ele>465.8</ele>
        <time>2023-05-28T11:57:58Z</time>
      </trkpt>
      <trkpt lat="43.52888" lon="5.56934">
        <ele>465.8</ele>
        <time>2023-05-28T11:57:59Z</time>
      </trkpt>
      <trkpt lat="43.52888" lon="5.56934">
        <ele>465.8</ele>
        <time>2023-05-28T11:58:00Z</time>
      </trkpt>
      <trkpt lat="43.52888" lon="5.56934">
        <ele>465.7</ele>
        <time>2023-05-28T11:58:01Z</time>
      </trkpt>
      <trkpt lat="43.52888" lon="5.56934">
        <ele>465.7</ele>
        <time>2023-05-28T11:58:02Z</time>
      </trkpt>
      <trkpt lat="43.52888" lon="5.56934">
        <ele>465.7</ele>
        <time>2023-05-28T11:58:03Z</time>
      </trkpt>
      <trkpt lat="43.52888" lon="5.56934">
        <ele>465.6</ele>
        <time>2023-05-28T11:58:04Z</time>
      </trkpt>
      <trkpt lat="43.52888" lon="5.56934">
        <ele>465.5</ele>
        <time>2023-05-28T11:58:05Z</time>
      </trkpt>
      <trkpt lat="43.52888" lon="5.56934">
        <ele>465.5</ele>
        <time>2023-05-28T11:58:06Z</time>
      </trkpt>
      <trkpt lat="43.52888" lon="5.56934">
        <ele>465.4</ele>
        <time>2023-05-28T11:58:07Z</time>
      </trkpt>
      <trkpt lat="43.52888" lon="5.56934">
        <ele>465.4</ele>
        <time>2023-05-28T11:58:08Z</time>
      </trkpt>
      <trkpt lat="43.52888" lon="5.56934">
        <ele>465.3</ele>
        <time>2023-05-28T11:58:09Z</time>
      </trkpt>
      <trkpt lat="43.52888" lon="5.56934">
        <ele>465.3</ele>
        <time>2023-05-28T11:58:10Z</time>
      </trkpt>
      <trkpt lat="43.52888" lon="5.56934">
        <ele>465.3</ele>
        <time>2023-05-28T11:58:11Z</time>
      </trkpt>
      <trkpt lat="43.52888" lon="5.56934">
        <ele>465.3</ele>
        <time>2023-05-28T11:58:12Z</time>
      </trkpt>
      <trkpt lat="43.52888" lon="5.56934">
        <ele>465.2</ele>
        <time>2023-05-28T11:58:13Z</time>
      </trkpt>
      <trkpt lat="43.52888" lon="5.56934">
        <ele>465.2</ele>
        <time>2023-05-28T11:58:14Z</time>
      </trkpt>
      <trkpt lat="43.52888" lon="5.56934">
        <ele>465.3</ele>
        <time>2023-05-28T11:58:15Z</time>
      </trkpt>
      <trkpt lat="43.52888" lon="5.56934">
        <ele>465.3</ele>
        <time>2023-05-28T11:58:16Z</time>
      </trkpt>
      <trkpt lat="43.52888" lon="5.56934">
        <ele>465.4</ele>
        <time>2023-05-28T11:58:17Z</time>
      </trkpt>
      <trkpt lat="43.52888" lon="5.56934">
        <ele>465.5</ele>
        <time>2023-05-28T11:58:18Z</time>
      </trkpt>
      <trkpt lat="43.52888" lon="5.56934">
        <ele>465.5</ele>
        <time>2023-05-28T11:58:19Z</time>
      </trkpt>
      <trkpt lat="43.52888" lon="5.56934">
        <ele>465.5</ele>
        <time>2023-05-28T11:58:20Z</time>
      </trkpt>
      <trkpt lat="43.52888" lon="5.56934">
        <ele>465.5</ele>
        <time>2023-05-28T11:58:21Z</time>
      </trkpt>
      <trkpt lat="43.52888" lon="5.56934">
        <ele>465.5</ele>
        <time>2023-05-28T11:58:22Z</time>
      </trkpt>
      <trkpt lat="43.52888" lon="5.56934">
        <ele>465.5</ele>
        <time>2023-05-28T11:58:23Z</time>
      </trkpt>
      <trkpt lat="43.52888" lon="5.56934">
        <ele>465.5</ele>
        <time>2023-05-28T11:58:24Z</time>
      </trkpt>
      <trkpt lat="43.52888" lon="5.56935">
        <ele>465.6</ele>
        <time>2023-05-28T11:58:25Z</time>
      </trkpt>
      <trkpt lat="43.52888" lon="5.56935">
        <ele>465.6</ele>
        <time>2023-05-28T11:58:26Z</time>
      </trkpt>
      <trkpt lat="43.52888" lon="5.56935">
        <ele>465.6</ele>
        <time>2023-05-28T11:58:27Z</time>
      </trkpt>
      <trkpt lat="43.52888" lon="5.56935">
        <ele>465.6</ele>
        <time>2023-05-28T11:58:28Z</time>
      </trkpt>
      <trkpt lat="43.52888" lon="5.56935">
        <ele>465.6</ele>
        <time>2023-05-28T11:58:29Z</time>
      </trkpt>
      <trkpt lat="43.52888" lon="5.56935">
        <ele>465.6</ele>
        <time>2023-05-28T11:58:30Z</time>
      </trkpt>
      <trkpt lat="43.52889" lon="5.56935">
        <ele>465.6</ele>
        <time>2023-05-28T11:58:31Z</time>
      </trkpt>
      <trkpt lat="43.52889" lon="5.56935">
        <ele>465.7</ele>
        <time>2023-05-28T11:58:32Z</time>
      </trkpt>
      <trkpt lat="43.52889" lon="5.56936">
        <ele>465.7</ele>
        <time>2023-05-28T11:58:33Z</time>
      </trkpt>
      <trkpt lat="43.52889" lon="5.56936">
        <ele>465.6</ele>
        <time>2023-05-28T11:58:34Z</time>
      </trkpt>
      <trkpt lat="43.52889" lon="5.56936">
        <ele>465.7</ele>
        <time>2023-05-28T11:58:35Z</time>
      </trkpt>
      <trkpt lat="43.52889" lon="5.56936">
        <ele>465.7</ele>
        <time>2023-05-28T11:58:36Z</time>
      </trkpt>
      <trkpt lat="43.52889" lon="5.56936">
        <ele>465.7</ele>
        <time>2023-05-28T11:58:37Z</time>
      </trkpt>
      <trkpt lat="43.52889" lon="5.56936">
        <ele>465.6</ele>
        <time>2023-05-28T11:58:38Z</time>
      </trkpt>
      <trkpt lat="43.52889" lon="5.56936">
        <ele>465.6</ele>
        <time>2023-05-28T11:58:39Z</time>
      </trkpt>
      <trkpt lat="43.52889" lon="5.56936">
        <ele>465.7</ele>
        <time>2023-05-28T11:58:40Z</time>
      </trkpt>
      <trkpt lat="43.52889" lon="5.56936">
        <ele>465.7</ele>
        <time>2023-05-28T11:58:41Z</time>
      </trkpt>
      <trkpt lat="43.52889" lon="5.56936">
        <ele>465.7</ele>
        <time>2023-05-28T11:58:42Z</time>
      </trkpt>
      <trkpt lat="43.52889" lon="5.56936">
        <ele>465.7</ele>
        <time>2023-05-28T11:58:43Z</time>
      </trkpt>
      <trkpt lat="43.52889" lon="5.56936">
        <ele>465.7</ele>
        <time>2023-05-28T11:58:44Z</time>
      </trkpt>
      <trkpt lat="43.52889" lon="5.56936">
        <ele>465.7</ele>
        <time>2023-05-28T11:58:45Z</time>
      </trkpt>
      <trkpt lat="43.52889" lon="5.56936">
        <ele>465.7</ele>
        <time>2023-05-28T11:58:46Z</time>
      </trkpt>
      <trkpt lat="43.5289" lon="5.56936">
        <ele>465.7</ele>
        <time>2023-05-28T11:58:47Z</time>
      </trkpt>
      <trkpt lat="43.5289" lon="5.56936">
        <ele>465.7</ele>
        <time>2023-05-28T11:58:48Z</time>
      </trkpt>
      <trkpt lat="43.5289" lon="5.56936">
        <ele>465.7</ele>
        <time>2023-05-28T11:58:49Z</time>
      </trkpt>
      <trkpt lat="43.5289" lon="5.56937">
        <ele>465.8</ele>
        <time>2023-05-28T11:58:50Z</time>
      </trkpt>
      <trkpt lat="43.5289" lon="5.56937">
        <ele>465.8</ele>
        <time>2023-05-28T11:58:51Z</time>
      </trkpt>
      <trkpt lat="43.5289" lon="5.56937">
        <ele>465.7</ele>
        <time>2023-05-28T11:58:52Z</time>
      </trkpt>
      <trkpt lat="43.5289" lon="5.56937">
        <ele>465.7</ele>
        <time>2023-05-28T11:58:53Z</time>
      </trkpt>
      <trkpt lat="43.5289" lon="5.56937">
        <ele>465.7</ele>
        <time>2023-05-28T11:58:54Z</time>
      </trkpt>
      <trkpt lat="43.5289" lon="5.56937">
        <ele>465.6</ele>
        <time>2023-05-28T11:58:55Z</time>
      </trkpt>
      <trkpt lat="43.5289" lon="5.56937">
        <ele>465.6</ele>
        <time>2023-05-28T11:58:56Z</time>
      </trkpt>
      <trkpt lat="43.52891" lon="5.56937">
        <ele>465.6</ele>
        <time>2023-05-28T11:58:57Z</time>
      </trkpt>
      <trkpt lat="43.52891" lon="5.56937">
        <ele>465.6</ele>
        <time>2023-05-28T11:58:58Z</time>
      </trkpt>
      <trkpt lat="43.52891" lon="5.56937">
        <ele>465.5</ele>
        <time>2023-05-28T11:58:59Z</time>
      </trkpt>
      <trkpt lat="43.52891" lon="5.56937">
        <ele>465.5</ele>
        <time>2023-05-28T11:59:00Z</time>
      </trkpt>
      <trkpt lat="43.52891" lon="5.56937">
        <ele>465.5</ele>
        <time>2023-05-28T11:59:01Z</time>
      </trkpt>
      <trkpt lat="43.52891" lon="5.56937">
        <ele>465.6</ele>
        <time>2023-05-28T11:59:02Z</time>
      </trkpt>
      <trkpt lat="43.52891" lon="5.56937">
        <ele>465.8</ele>
        <time>2023-05-28T11:59:03Z</time>
      </trkpt>
      <trkpt lat="43.52891" lon="5.56937">
        <ele>465.7</ele>
        <time>2023-05-28T11:59:04Z</time>
      </trkpt>
      <trkpt lat="43.52891" lon="5.56937">
        <ele>465.8</ele>
        <time>2023-05-28T11:59:05Z</time>
      </trkpt>
      <trkpt lat="43.52891" lon="5.56937">
        <ele>465.7</ele>
        <time>2023-05-28T11:59:06Z</time>
      </trkpt>
      <trkpt lat="43.52891" lon="5.56937">
        <ele>465.7</ele>
        <time>2023-05-28T11:59:07Z</time>
      </trkpt>
      <trkpt lat="43.52891" lon="5.56937">
        <ele>465.6</ele>
        <time>2023-05-28T11:59:08Z</time>
      </trkpt>
      <trkpt lat="43.52891" lon="5.56937">
        <ele>465.6</ele>
        <time>2023-05-28T11:59:09Z</time>
      </trkpt>
      <trkpt lat="43.52891" lon="5.56937">
        <ele>465.5</ele>
        <time>2023-05-28T11:59:10Z</time>
      </trkpt>
      <trkpt lat="43.52891" lon="5.56937">
        <ele>465.6</ele>
        <time>2023-05-28T11:59:11Z</time>
      </trkpt>
      <trkpt lat="43.52891" lon="5.56937">
        <ele>465.6</ele>
        <time>2023-05-28T11:59:12Z</time>
      </trkpt>
      <trkpt lat="43.52891" lon="5.56937">
        <ele>465.6</ele>
        <time>2023-05-28T11:59:13Z</time>
      </trkpt>
      <trkpt lat="43.5289" lon="5.56937">
        <ele>465.6</ele>
        <time>2023-05-28T11:59:14Z</time>
      </trkpt>
      <trkpt lat="43.5289" lon="5.56937">
        <ele>465.5</ele>
        <time>2023-05-28T11:59:15Z</time>
      </trkpt>
      <trkpt lat="43.5289" lon="5.56937">
        <ele>465.5</ele>
        <time>2023-05-28T11:59:16Z</time>
      </trkpt>
      <trkpt lat="43.5289" lon="5.56937">
        <ele>465.4</ele>
        <time>2023-05-28T11:59:17Z</time>
      </trkpt>
      <trkpt lat="43.5289" lon="5.56937">
        <ele>465.4</ele>
        <time>2023-05-28T11:59:18Z</time>
      </trkpt>
      <trkpt lat="43.5289" lon="5.56936">
        <ele>465.3</ele>
        <time>2023-05-28T11:59:19Z</time>
      </trkpt>
      <trkpt lat="43.5289" lon="5.56936">
        <ele>465.2</ele>
        <time>2023-05-28T11:59:20Z</time>
      </trkpt>
      <trkpt lat="43.5289" lon="5.56936">
        <ele>465.2</ele>
        <time>2023-05-28T11:59:21Z</time>
      </trkpt>
      <trkpt lat="43.5289" lon="5.56936">
        <ele>465.1</ele>
        <time>2023-05-28T11:59:22Z</time>
      </trkpt>
      <trkpt lat="43.5289" lon="5.56936">
        <ele>465.1</ele>
        <time>2023-05-28T11:59:23Z</time>
      </trkpt>
      <trkpt lat="43.5289" lon="5.56936">
        <ele>465.1</ele>
        <time>2023-05-28T11:59:24Z</time>
      </trkpt>
      <trkpt lat="43.52889" lon="5.56936">
        <ele>465.1</ele>
        <time>2023-05-28T11:59:25Z</time>
      </trkpt>
      <trkpt lat="43.52889" lon="5.56936">
        <ele>465</ele>
        <time>2023-05-28T11:59:26Z</time>
      </trkpt>
      <trkpt lat="43.52889" lon="5.56936">
        <ele>465</ele>
        <time>2023-05-28T11:59:27Z</time>
      </trkpt>
      <trkpt lat="43.52889" lon="5.56936">
        <ele>465.1</ele>
        <time>2023-05-28T11:59:28Z</time>
      </trkpt>
      <trkpt lat="43.52889" lon="5.56936">
        <ele>465.1</ele>
        <time>2023-05-28T11:59:29Z</time>
      </trkpt>
      <trkpt lat="43.52889" lon="5.56936">
        <ele>465.1</ele>
        <time>2023-05-28T11:59:30Z</time>
      </trkpt>
      <trkpt lat="43.52889" lon="5.56936">
        <ele>465.2</ele>
        <time>2023-05-28T11:59:31Z</time>
      </trkpt>
      <trkpt lat="43.52889" lon="5.56936">
        <ele>465.3</ele>
        <time>2023-05-28T11:59:32Z</time>
      </trkpt>
      <trkpt lat="43.52889" lon="5.56935">
        <ele>465.3</ele>
        <time>2023-05-28T11:59:33Z</time>
      </trkpt>
      <trkpt lat="43.52889" lon="5.56935">
        <ele>465.3</ele>
        <time>2023-05-28T11:59:34Z</time>
      </trkpt>
      <trkpt lat="43.52889" lon="5.56935">
        <ele>465.4</ele>
        <time>2023-05-28T11:59:35Z</time>
      </trkpt>
      <trkpt lat="43.52889" lon="5.56935">
        <ele>465.4</ele>
        <time>2023-05-28T11:59:36Z</time>
      </trkpt>
      <trkpt lat="43.52889" lon="5.56935">
        <ele>465.4</ele>
        <time>2023-05-28T11:59:37Z</time>
      </trkpt>
      <trkpt lat="43.52889" lon="5.56935">
        <ele>465.4</ele>
        <time>2023-05-28T11:59:38Z</time>
      </trkpt>
      <trkpt lat="43.52889" lon="5.56935">
        <ele>465.4</ele>
        <time>2023-05-28T11:59:39Z</time>
      </trkpt>
      <trkpt lat="43.52889" lon="5.56935">
        <ele>465.4</ele>
        <time>2023-05-28T11:59:40Z</time>
      </trkpt>
      <trkpt lat="43.52889" lon="5.56935">
        <ele>465.4</ele>
        <time>2023-05-28T11:59:41Z</time>
      </trkpt>
      <trkpt lat="43.52889" lon="5.56935">
        <ele>465.4</ele>
        <time>2023-05-28T11:59:42Z</time>
      </trkpt>
      <trkpt lat="43.52889" lon="5.56935">
        <ele>465.4</ele>
        <time>2023-05-28T11:59:43Z</time>
      </trkpt>
      <trkpt lat="43.52889" lon="5.56935">
        <ele>465.4</ele>
        <time>2023-05-28T11:59:44Z</time>
      </trkpt>
      <trkpt lat="43.52889" lon="5.56935">
        <ele>465.5</ele>
        <time>2023-05-28T11:59:45Z</time>
      </trkpt>
      <trkpt lat="43.52889" lon="5.56935">
        <ele>465.5</ele>
        <time>2023-05-28T11:59:46Z</time>
      </trkpt>
      <trkpt lat="43.52889" lon="5.56935">
        <ele>465.4</ele>
        <time>2023-05-28T11:59:47Z</time>
      </trkpt>
      <trkpt lat="43.52889" lon="5.56935">
        <ele>465.4</ele>
        <time>2023-05-28T11:59:48Z</time>
      </trkpt>
      <trkpt lat="43.52889" lon="5.56935">
        <ele>465.3</ele>
        <time>2023-05-28T11:59:49Z</time>
      </trkpt>
      <trkpt lat="43.52889" lon="5.56935">
        <ele>465.3</ele>
        <time>2023-05-28T11:59:50Z</time>
      </trkpt>
      <trkpt lat="43.52888" lon="5.56935">
        <ele>465.3</ele>
        <time>2023-05-28T11:59:51Z</time>
      </trkpt>
      <trkpt lat="43.52888" lon="5.56935">
        <ele>465.3</ele>
        <time>2023-05-28T11:59:52Z</time>
      </trkpt>
      <trkpt lat="43.52888" lon="5.56935">
        <ele>465.3</ele>
        <time>2023-05-28T11:59:53Z</time>
      </trkpt>
      <trkpt lat="43.52888" lon="5.56935">
        <ele>465.3</ele>
        <time>2023-05-28T11:59:54Z</time>
      </trkpt>
      <trkpt lat="43.52888" lon="5.56935">
        <ele>465.3</ele>
        <time>2023-05-28T11:59:55Z</time>
      </trkpt>
      <trkpt lat="43.52888" lon="5.56935">
        <ele>465.3</ele>
        <time>2023-05-28T11:59:56Z</time>
      </trkpt>
      <trkpt lat="43.52888" lon="5.56935">
        <ele>465.3</ele>
        <time>2023-05-28T11:59:57Z</time>
      </trkpt>
      <trkpt lat="43.52888" lon="5.56935">
        <ele>465.3</ele>
        <time>2023-05-28T11:59:58Z</time>
      </trkpt>
      <trkpt lat="43.52888" lon="5.56935">
        <ele>465.3</ele>
        <time>2023-05-28T11:59:59Z</time>
      </trkpt>
      <trkpt lat="43.52888" lon="5.56935">
        <ele>465.2</ele>
        <time>2023-05-28T12:00:00Z</time>
      </trkpt>
      <trkpt lat="43.52888" lon="5.56935">
        <ele>465.2</ele>
        <time>2023-05-28T12:00:01Z</time>
      </trkpt>
      <trkpt lat="43.52888" lon="5.56935">
        <ele>465.2</ele>
        <time>2023-05-28T12:00:02Z</time>
      </trkpt>
      <trkpt lat="43.52888" lon="5.56935">
        <ele>465.2</ele>
        <time>2023-05-28T12:00:03Z</time>
      </trkpt>
      <trkpt lat="43.52888" lon="5.56935">
        <ele>465.1</ele>
        <time>2023-05-28T12:00:04Z</time>
      </trkpt>
      <trkpt lat="43.52888" lon="5.56935">
        <ele>465.1</ele>
        <time>2023-05-28T12:00:05Z</time>
      </trkpt>
      <trkpt lat="43.52888" lon="5.56935">
        <ele>465.1</ele>
        <time>2023-05-28T12:00:06Z</time>
      </trkpt>
      <trkpt lat="43.52888" lon="5.56935">
        <ele>465.1</ele>
        <time>2023-05-28T12:00:07Z</time>
      </trkpt>
      <trkpt lat="43.52888" lon="5.56935">
        <ele>465.1</ele>
        <time>2023-05-28T12:00:08Z</time>
      </trkpt>
      <trkpt lat="43.52888" lon="5.56935">
        <ele>465.1</ele>
        <time>2023-05-28T12:00:09Z</time>
      </trkpt>
      <trkpt lat="43.52888" lon="5.56935">
        <ele>465.1</ele>
        <time>2023-05-28T12:00:10Z</time>
      </trkpt>
      <trkpt lat="43.52888" lon="5.56935">
        <ele>465.1</ele>
        <time>2023-05-28T12:00:11Z</time>
      </trkpt>
      <trkpt lat="43.52888" lon="5.56935">
        <ele>465.2</ele>
        <time>2023-05-28T12:00:12Z</time>
      </trkpt>
      <trkpt lat="43.52888" lon="5.56936">
        <ele>465.2</ele>
        <time>2023-05-28T12:00:13Z</time>
      </trkpt>
      <trkpt lat="43.52888" lon="5.56936">
        <ele>465.2</ele>
        <time>2023-05-28T12:00:14Z</time>
      </trkpt>
      <trkpt lat="43.52888" lon="5.56936">
        <ele>465.2</ele>
        <time>2023-05-28T12:00:15Z</time>
      </trkpt>
      <trkpt lat="43.52888" lon="5.56936">
        <ele>465.2</ele>
        <time>2023-05-28T12:00:16Z</time>
      </trkpt>
      <trkpt lat="43.52888" lon="5.56936">
        <ele>465.2</ele>
        <time>2023-05-28T12:00:17Z</time>
      </trkpt>
      <trkpt lat="43.52888" lon="5.56936">
        <ele>465.2</ele>
        <time>2023-05-28T12:00:18Z</time>
      </trkpt>
      <trkpt lat="43.52888" lon="5.56936">
        <ele>465.1</ele>
        <time>2023-05-28T12:00:19Z</time>
      </trkpt>
      <trkpt lat="43.52888" lon="5.56936">
        <ele>465.1</ele>
        <time>2023-05-28T12:00:20Z</time>
      </trkpt>
      <trkpt lat="43.52888" lon="5.56936">
        <ele>465.1</ele>
        <time>2023-05-28T12:00:21Z</time>
      </trkpt>
      <trkpt lat="43.52888" lon="5.56936">
        <ele>465.1</ele>
        <time>2023-05-28T12:00:22Z</time>
      </trkpt>
      <trkpt lat="43.52888" lon="5.56935">
        <ele>465.1</ele>
        <time>2023-05-28T12:00:23Z</time>
      </trkpt>
      <trkpt lat="43.52888" lon="5.56935">
        <ele>465.2</ele>
        <time>2023-05-28T12:00:24Z</time>
      </trkpt>
      <trkpt lat="43.52888" lon="5.56935">
        <ele>465.2</ele>
        <time>2023-05-28T12:00:25Z</time>
      </trkpt>
      <trkpt lat="43.52888" lon="5.56935">
        <ele>465.3</ele>
        <time>2023-05-28T12:00:26Z</time>
      </trkpt>
      <trkpt lat="43.52887" lon="5.56935">
        <ele>465.3</ele>
        <time>2023-05-28T12:00:27Z</time>
      </trkpt>
      <trkpt lat="43.52887" lon="5.56935">
        <ele>465.4</ele>
        <time>2023-05-28T12:00:28Z</time>
      </trkpt>
      <trkpt lat="43.52887" lon="5.56934">
        <ele>465.4</ele>
        <time>2023-05-28T12:00:29Z</time>
      </trkpt>
      <trkpt lat="43.52887" lon="5.56934">
        <ele>465.4</ele>
        <time>2023-05-28T12:00:30Z</time>
      </trkpt>
      <trkpt lat="43.52887" lon="5.56934">
        <ele>465.4</ele>
        <time>2023-05-28T12:00:31Z</time>
      </trkpt>
      <trkpt lat="43.52887" lon="5.56934">
        <ele>465.4</ele>
        <time>2023-05-28T12:00:32Z</time>
      </trkpt>
      <trkpt lat="43.52886" lon="5.56934">
        <ele>465.4</ele>
        <time>2023-05-28T12:00:33Z</time>
      </trkpt>
      <trkpt lat="43.52886" lon="5.56934">
        <ele>465.4</ele>
        <time>2023-05-28T12:00:34Z</time>
      </trkpt>
      <trkpt lat="43.52886" lon="5.56934">
        <ele>465.4</ele>
        <time>2023-05-28T12:00:35Z</time>
      </trkpt>
      <trkpt lat="43.52886" lon="5.56933">
        <ele>465.5</ele>
        <time>2023-05-28T12:00:36Z</time>
      </trkpt>
      <trkpt lat="43.52886" lon="5.56933">
        <ele>465.5</ele>
        <time>2023-05-28T12:00:37Z</time>
      </trkpt>
      <trkpt lat="43.52886" lon="5.56933">
        <ele>465.5</ele>
        <time>2023-05-28T12:00:38Z</time>
      </trkpt>
      <trkpt lat="43.52886" lon="5.56933">
        <ele>465.5</ele>
        <time>2023-05-28T12:00:39Z</time>
      </trkpt>
      <trkpt lat="43.52886" lon="5.56933">
        <ele>465.5</ele>
        <time>2023-05-28T12:00:40Z</time>
      </trkpt>
      <trkpt lat="43.52886" lon="5.56933">
        <ele>465.4</ele>
        <time>2023-05-28T12:00:41Z</time>
      </trkpt>
      <trkpt lat="43.52886" lon="5.56933">
        <ele>465.4</ele>
        <time>2023-05-28T12:00:42Z</time>
      </trkpt>
      <trkpt lat="43.52886" lon="5.56933">
        <ele>465.5</ele>
        <time>2023-05-28T12:00:43Z</time>
      </trkpt>
      <trkpt lat="43.52886" lon="5.56933">
        <ele>465.5</ele>
        <time>2023-05-28T12:00:44Z</time>
      </trkpt>
      <trkpt lat="43.52886" lon="5.56933">
        <ele>465.5</ele>
        <time>2023-05-28T12:00:45Z</time>
      </trkpt>
      <trkpt lat="43.52886" lon="5.56933">
        <ele>465.5</ele>
        <time>2023-05-28T12:00:46Z</time>
      </trkpt>
      <trkpt lat="43.52886" lon="5.56933">
        <ele>465.5</ele>
        <time>2023-05-28T12:00:47Z</time>
      </trkpt>
      <trkpt lat="43.52886" lon="5.56933">
        <ele>465.6</ele>
        <time>2023-05-28T12:00:48Z</time>
      </trkpt>
      <trkpt lat="43.52886" lon="5.56933">
        <ele>465.6</ele>
        <time>2023-05-28T12:00:49Z</time>
      </trkpt>
      <trkpt lat="43.52886" lon="5.56933">
        <ele>465.6</ele>
        <time>2023-05-28T12:00:50Z</time>
      </trkpt>
      <trkpt lat="43.52885" lon="5.56933">
        <ele>465.6</ele>
        <time>2023-05-28T12:00:51Z</time>
      </trkpt>
      <trkpt lat="43.52885" lon="5.56933">
        <ele>465.6</ele>
        <time>2023-05-28T12:00:52Z</time>
      </trkpt>
      <trkpt lat="43.52885" lon="5.56933">
        <ele>465.6</ele>
        <time>2023-05-28T12:00:53Z</time>
      </trkpt>
      <trkpt lat="43.52885" lon="5.56933">
        <ele>465.6</ele>
        <time>2023-05-28T12:00:54Z</time>
      </trkpt>
      <trkpt lat="43.52885" lon="5.56933">
        <ele>465.5</ele>
        <time>2023-05-28T12:00:55Z</time>
      </trkpt>
      <trkpt lat="43.52885" lon="5.56933">
        <ele>465.5</ele>
        <time>2023-05-28T12:00:56Z</time>
      </trkpt>
      <trkpt lat="43.52884" lon="5.56933">
        <ele>465.5</ele>
        <time>2023-05-28T12:00:57Z</time>
      </trkpt>
      <trkpt lat="43.52884" lon="5.56933">
        <ele>465.4</ele>
        <time>2023-05-28T12:00:58Z</time>
      </trkpt>
      <trkpt lat="43.52884" lon="5.56933">
        <ele>465.4</ele>
        <time>2023-05-28T12:00:59Z</time>
      </trkpt>
      <trkpt lat="43.52884" lon="5.56933">
        <ele>465.4</ele>
        <time>2023-05-28T12:01:00Z</time>
      </trkpt>
      <trkpt lat="43.52884" lon="5.56933">
        <ele>465.4</ele>
        <time>2023-05-28T12:01:01Z</time>
      </trkpt>
      <trkpt lat="43.52884" lon="5.56933">
        <ele>465.4</ele>
        <time>2023-05-28T12:01:02Z</time>
      </trkpt>
      <trkpt lat="43.52884" lon="5.56934">
        <ele>465.4</ele>
        <time>2023-05-28T12:01:03Z</time>
      </trkpt>
      <trkpt lat="43.52884" lon="5.56934">
        <ele>465.4</ele>
        <time>2023-05-28T12:01:04Z</time>
      </trkpt>
      <trkpt lat="43.52884" lon="5.56934">
        <ele>465.5</ele>
        <time>2023-05-28T12:01:05Z</time>
      </trkpt>
      <trkpt lat="43.52883" lon="5.56934">
        <ele>465.5</ele>
        <time>2023-05-28T12:01:06Z</time>
      </trkpt>
      <trkpt lat="43.52883" lon="5.56934">
        <ele>465.5</ele>
        <time>2023-05-28T12:01:07Z</time>
      </trkpt>
      <trkpt lat="43.52883" lon="5.56934">
        <ele>465.5</ele>
        <time>2023-05-28T12:01:08Z</time>
      </trkpt>
      <trkpt lat="43.52883" lon="5.56934">
        <ele>465.6</ele>
        <time>2023-05-28T12:01:09Z</time>
      </trkpt>
      <trkpt lat="43.52883" lon="5.56934">
        <ele>465.6</ele>
        <time>2023-05-28T12:01:10Z</time>
      </trkpt>
      <trkpt lat="43.52883" lon="5.56934">
        <ele>465.6</ele>
        <time>2023-05-28T12:01:11Z</time>
      </trkpt>
      <trkpt lat="43.52883" lon="5.56934">
        <ele>465.6</ele>
        <time>2023-05-28T12:01:12Z</time>
      </trkpt>
      <trkpt lat="43.52883" lon="5.56934">
        <ele>465.6</ele>
        <time>2023-05-28T12:01:13Z</time>
      </trkpt>
      <trkpt lat="43.52883" lon="5.56934">
        <ele>465.6</ele>
        <time>2023-05-28T12:01:14Z</time>
      </trkpt>
      <trkpt lat="43.52883" lon="5.56934">
        <ele>465.6</ele>
        <time>2023-05-28T12:01:15Z</time>
      </trkpt>
      <trkpt lat="43.52883" lon="5.56934">
        <ele>465.5</ele>
        <time>2023-05-28T12:01:16Z</time>
      </trkpt>
      <trkpt lat="43.52883" lon="5.56935">
        <ele>465.5</ele>
        <time>2023-05-28T12:01:17Z</time>
      </trkpt>
      <trkpt lat="43.52883" lon="5.56935">
        <ele>465.5</ele>
        <time>2023-05-28T12:01:18Z</time>
      </trkpt>
      <trkpt lat="43.52883" lon="5.56935">
        <ele>465.5</ele>
        <time>2023-05-28T12:01:19Z</time>
      </trkpt>
      <trkpt lat="43.52883" lon="5.56935">
        <ele>465.4</ele>
        <time>2023-05-28T12:01:20Z</time>
      </trkpt>
      <trkpt lat="43.52883" lon="5.56936">
        <ele>465.3</ele>
        <time>2023-05-28T12:01:21Z</time>
      </trkpt>
      <trkpt lat="43.52884" lon="5.56936">
        <ele>465.3</ele>
        <time>2023-05-28T12:01:22Z</time>
      </trkpt>
      <trkpt lat="43.52884" lon="5.56936">
        <ele>465.3</ele>
        <time>2023-05-28T12:01:23Z</time>
      </trkpt>
      <trkpt lat="43.52884" lon="5.56936">
        <ele>465.3</ele>
        <time>2023-05-28T12:01:24Z</time>
      </trkpt>
      <trkpt lat="43.52884" lon="5.56936">
        <ele>465.3</ele>
        <time>2023-05-28T12:01:25Z</time>
      </trkpt>
      <trkpt lat="43.52884" lon="5.56936">
        <ele>465.3</ele>
        <time>2023-05-28T12:01:26Z</time>
      </trkpt>
      <trkpt lat="43.52883" lon="5.56936">
        <ele>465.3</ele>
        <time>2023-05-28T12:01:27Z</time>
      </trkpt>
      <trkpt lat="43.52883" lon="5.56936">
        <ele>465.3</ele>
        <time>2023-05-28T12:01:28Z</time>
      </trkpt>
      <trkpt lat="43.52883" lon="5.56936">
        <ele>465.3</ele>
        <time>2023-05-28T12:01:29Z</time>
      </trkpt>
      <trkpt lat="43.52883" lon="5.56936">
        <ele>465.4</ele>
        <time>2023-05-28T12:01:30Z</time>
      </trkpt>
      <trkpt lat="43.52883" lon="5.56936">
        <ele>465.4</ele>
        <time>2023-05-28T12:01:31Z</time>
      </trkpt>
      <trkpt lat="43.52884" lon="5.56937">
        <ele>465.4</ele>
        <time>2023-05-28T12:01:32Z</time>
      </trkpt>
      <trkpt lat="43.52884" lon="5.56937">
        <ele>465.5</ele>
        <time>2023-05-28T12:01:33Z</time>
      </trkpt>
      <trkpt lat="43.52884" lon="5.56937">
        <ele>465.5</ele>
        <time>2023-05-28T12:01:34Z</time>
      </trkpt>
      <trkpt lat="43.52884" lon="5.56937">
        <ele>465.5</ele>
        <time>2023-05-28T12:01:35Z</time>
      </trkpt>
      <trkpt lat="43.52884" lon="5.56937">
        <ele>465.5</ele>
        <time>2023-05-28T12:01:36Z</time>
      </trkpt>
      <trkpt lat="43.52884" lon="5.56937">
        <ele>465.5</ele>
        <time>2023-05-28T12:01:37Z</time>
      </trkpt>
      <trkpt lat="43.52884" lon="5.56937">
        <ele>465.5</ele>
        <time>2023-05-28T12:01:38Z</time>
      </trkpt>
      <trkpt lat="43.52884" lon="5.56937">
        <ele>465.5</ele>
        <time>2023-05-28T12:01:39Z</time>
      </trkpt>
      <trkpt lat="43.52884" lon="5.56937">
        <ele>465.5</ele>
        <time>2023-05-28T12:01:40Z</time>
      </trkpt>
      <trkpt lat="43.52884" lon="5.56937">
        <ele>465.5</ele>
        <time>2023-05-28T12:01:41Z</time>
      </trkpt>
      <trkpt lat="43.52884" lon="5.56936">
        <ele>465.4</ele>
        <time>2023-05-28T12:01:42Z</time>
      </trkpt>
      <trkpt lat="43.52884" lon="5.56936">
        <ele>465.4</ele>
        <time>2023-05-28T12:01:43Z</time>
      </trkpt>
      <trkpt lat="43.52884" lon="5.56936">
        <ele>465.4</ele>
        <time>2023-05-28T12:01:44Z</time>
      </trkpt>
      <trkpt lat="43.52884" lon="5.56936">
        <ele>465.3</ele>
        <time>2023-05-28T12:01:45Z</time>
      </trkpt>
      <trkpt lat="43.52884" lon="5.56935">
        <ele>465.3</ele>
        <time>2023-05-28T12:01:46Z</time>
      </trkpt>
      <trkpt lat="43.52884" lon="5.56935">
        <ele>465.2</ele>
        <time>2023-05-28T12:01:47Z</time>
      </trkpt>
      <trkpt lat="43.52883" lon="5.56935">
        <ele>465.2</ele>
        <time>2023-05-28T12:01:48Z</time>
      </trkpt>
      <trkpt lat="43.52884" lon="5.56936">
        <ele>465.2</ele>
        <time>2023-05-28T12:01:49Z</time>
      </trkpt>
      <trkpt lat="43.52884" lon="5.56935">
        <ele>465.2</ele>
        <time>2023-05-28T12:01:50Z</time>
      </trkpt>
      <trkpt lat="43.52884" lon="5.56936">
        <ele>465.2</ele>
        <time>2023-05-28T12:01:51Z</time>
      </trkpt>
      <trkpt lat="43.52884" lon="5.56936">
        <ele>465.1</ele>
        <time>2023-05-28T12:01:52Z</time>
      </trkpt>
      <trkpt lat="43.52884" lon="5.56936">
        <ele>465.1</ele>
        <time>2023-05-28T12:01:53Z</time>
      </trkpt>
      <trkpt lat="43.52884" lon="5.56936">
        <ele>465.1</ele>
        <time>2023-05-28T12:01:54Z</time>
      </trkpt>
      <trkpt lat="43.52884" lon="5.56936">
        <ele>465.1</ele>
        <time>2023-05-28T12:01:55Z</time>
      </trkpt>
      <trkpt lat="43.52884" lon="5.56935">
        <ele>465.1</ele>
        <time>2023-05-28T12:01:56Z</time>
      </trkpt>
      <trkpt lat="43.52884" lon="5.56935">
        <ele>465.2</ele>
        <time>2023-05-28T12:01:57Z</time>
      </trkpt>
      <trkpt lat="43.52884" lon="5.56935">
        <ele>465.1</ele>
        <time>2023-05-28T12:01:58Z</time>
      </trkpt>
      <trkpt lat="43.52884" lon="5.56935">
        <ele>465.1</ele>
        <time>2023-05-28T12:01:59Z</time>
      </trkpt>
      <trkpt lat="43.52884" lon="5.56935">
        <ele>465.1</ele>
        <time>2023-05-28T12:02:00Z</time>
      </trkpt>
      <trkpt lat="43.52884" lon="5.56935">
        <ele>465.1</ele>
        <time>2023-05-28T12:02:01Z</time>
      </trkpt>
      <trkpt lat="43.52884" lon="5.56935">
        <ele>465.1</ele>
        <time>2023-05-28T12:02:02Z</time>
      </trkpt>
      <trkpt lat="43.52884" lon="5.56934">
        <ele>465.2</ele>
        <time>2023-05-28T12:02:03Z</time>
      </trkpt>
      <trkpt lat="43.52883" lon="5.56934">
        <ele>465.2</ele>
        <time>2023-05-28T12:02:04Z</time>
      </trkpt>
      <trkpt lat="43.52884" lon="5.56935">
        <ele>465.3</ele>
        <time>2023-05-28T12:02:05Z</time>
      </trkpt>
      <trkpt lat="43.52883" lon="5.56934">
        <ele>465.3</ele>
        <time>2023-05-28T12:02:06Z</time>
      </trkpt>
      <trkpt lat="43.52884" lon="5.56934">
        <ele>465.3</ele>
        <time>2023-05-28T12:02:07Z</time>
      </trkpt>
      <trkpt lat="43.52884" lon="5.56934">
        <ele>465.5</ele>
        <time>2023-05-28T12:02:08Z</time>
      </trkpt>
      <trkpt lat="43.52884" lon="5.56935">
        <ele>465.6</ele>
        <time>2023-05-28T12:02:09Z</time>
      </trkpt>
      <trkpt lat="43.52884" lon="5.56935">
        <ele>465.7</ele>
        <time>2023-05-28T12:02:10Z</time>
      </trkpt>
      <trkpt lat="43.52884" lon="5.56935">
        <ele>465.7</ele>
        <time>2023-05-28T12:02:11Z</time>
      </trkpt>
      <trkpt lat="43.52884" lon="5.56934">
        <ele>465.7</ele>
        <time>2023-05-28T12:02:12Z</time>
      </trkpt>
      <trkpt lat="43.52884" lon="5.56934">
        <ele>465.8</ele>
        <time>2023-05-28T12:02:13Z</time>
      </trkpt>
      <trkpt lat="43.52884" lon="5.56934">
        <ele>465.8</ele>
        <time>2023-05-28T12:02:14Z</time>
      </trkpt>
      <trkpt lat="43.52884" lon="5.56934">
        <ele>465.8</ele>
        <time>2023-05-28T12:02:15Z</time>
      </trkpt>
      <trkpt lat="43.52884" lon="5.56934">
        <ele>465.8</ele>
        <time>2023-05-28T12:02:16Z</time>
      </trkpt>
      <trkpt lat="43.52884" lon="5.56934">
        <ele>465.8</ele>
        <time>2023-05-28T12:02:17Z</time>
      </trkpt>
      <trkpt lat="43.52884" lon="5.56934">
        <ele>465.8</ele>
        <time>2023-05-28T12:02:18Z</time>
      </trkpt>
      <trkpt lat="43.52884" lon="5.56934">
        <ele>465.8</ele>
        <time>2023-05-28T12:02:19Z</time>
      </trkpt>
      <trkpt lat="43.52884" lon="5.56934">
        <ele>465.8</ele>
        <time>2023-05-28T12:02:20Z</time>
      </trkpt>
      <trkpt lat="43.52884" lon="5.56934">
        <ele>465.8</ele>
        <time>2023-05-28T12:02:21Z</time>
      </trkpt>
      <trkpt lat="43.52884" lon="5.56934">
        <ele>465.8</ele>
        <time>2023-05-28T12:02:22Z</time>
      </trkpt>
      <trkpt lat="43.52885" lon="5.56934">
        <ele>465.8</ele>
        <time>2023-05-28T12:02:23Z</time>
      </trkpt>
      <trkpt lat="43.52885" lon="5.56934">
        <ele>465.9</ele>
        <time>2023-05-28T12:02:24Z</time>
      </trkpt>
      <trkpt lat="43.52885" lon="5.56934">
        <ele>465.9</ele>
        <time>2023-05-28T12:02:25Z</time>
      </trkpt>
      <trkpt lat="43.52885" lon="5.56934">
        <ele>466</ele>
        <time>2023-05-28T12:02:26Z</time>
      </trkpt>
      <trkpt lat="43.52885" lon="5.56935">
        <ele>466</ele>
        <time>2023-05-28T12:02:27Z</time>
      </trkpt>
      <trkpt lat="43.52886" lon="5.56935">
        <ele>466</ele>
        <time>2023-05-28T12:02:28Z</time>
      </trkpt>
      <trkpt lat="43.52886" lon="5.56934">
        <ele>466</ele>
        <time>2023-05-28T12:02:29Z</time>
      </trkpt>
      <trkpt lat="43.52886" lon="5.56934">
        <ele>466</ele>
        <time>2023-05-28T12:02:30Z</time>
      </trkpt>
      <trkpt lat="43.52887" lon="5.56934">
        <ele>466.1</ele>
        <time>2023-05-28T12:02:31Z</time>
      </trkpt>
      <trkpt lat="43.52887" lon="5.56934">
        <ele>466.1</ele>
        <time>2023-05-28T12:02:32Z</time>
      </trkpt>
      <trkpt lat="43.52886" lon="5.56934">
        <ele>468.1</ele>
        <time>2023-05-28T12:02:33Z</time>
      </trkpt>
      <trkpt lat="43.52886" lon="5.56934">
        <ele>467.8</ele>
        <time>2023-05-28T12:02:34Z</time>
      </trkpt>
      <trkpt lat="43.52887" lon="5.56935">
        <ele>467.6</ele>
        <time>2023-05-28T12:02:35Z</time>
      </trkpt>
      <trkpt lat="43.52887" lon="5.56935">
        <ele>467.4</ele>
        <time>2023-05-28T12:02:36Z</time>
      </trkpt>
      <trkpt lat="43.52887" lon="5.56936">
        <ele>467.3</ele>
        <time>2023-05-28T12:02:37Z</time>
      </trkpt>
      <trkpt lat="43.52887" lon="5.56936">
        <ele>467.1</ele>
        <time>2023-05-28T12:02:38Z</time>
      </trkpt>
      <trkpt lat="43.52887" lon="5.56936">
        <ele>467</ele>
        <time>2023-05-28T12:02:39Z</time>
      </trkpt>
      <trkpt lat="43.52887" lon="5.56936">
        <ele>466.8</ele>
        <time>2023-05-28T12:02:40Z</time>
      </trkpt>
      <trkpt lat="43.52887" lon="5.56937">
        <ele>466.6</ele>
        <time>2023-05-28T12:02:41Z</time>
      </trkpt>
      <trkpt lat="43.52888" lon="5.56937">
        <ele>466.4</ele>
        <time>2023-05-28T12:02:42Z</time>
      </trkpt>
      <trkpt lat="43.52888" lon="5.56937">
        <ele>466.3</ele>
        <time>2023-05-28T12:02:43Z</time>
      </trkpt>
      <trkpt lat="43.52887" lon="5.56937">
        <ele>466.2</ele>
        <time>2023-05-28T12:02:44Z</time>
      </trkpt>
      <trkpt lat="43.52888" lon="5.56937">
        <ele>466.2</ele>
        <time>2023-05-28T12:02:45Z</time>
      </trkpt>
      <trkpt lat="43.52887" lon="5.56937">
        <ele>466.1</ele>
        <time>2023-05-28T12:02:46Z</time>
      </trkpt>
      <trkpt lat="43.52887" lon="5.56937">
        <ele>466.1</ele>
        <time>2023-05-28T12:02:47Z</time>
      </trkpt>
      <trkpt lat="43.52887" lon="5.56937">
        <ele>466.1</ele>
        <time>2023-05-28T12:02:48Z</time>
      </trkpt>
      <trkpt lat="43.52887" lon="5.56937">
        <ele>466</ele>
        <time>2023-05-28T12:02:49Z</time>
      </trkpt>
      <trkpt lat="43.52887" lon="5.56937">
        <ele>466</ele>
        <time>2023-05-28T12:02:50Z</time>
      </trkpt>
      <trkpt lat="43.52887" lon="5.56936">
        <ele>466.1</ele>
        <time>2023-05-28T12:02:51Z</time>
      </trkpt>
      <trkpt lat="43.52887" lon="5.56936">
        <ele>466.1</ele>
        <time>2023-05-28T12:02:52Z</time>
      </trkpt>
      <trkpt lat="43.52887" lon="5.56936">
        <ele>466.1</ele>
        <time>2023-05-28T12:02:53Z</time>
      </trkpt>
      <trkpt lat="43.52887" lon="5.56936">
        <ele>466.1</ele>
        <time>2023-05-28T12:02:54Z</time>
      </trkpt>
      <trkpt lat="43.52887" lon="5.56935">
        <ele>466.1</ele>
        <time>2023-05-28T12:02:55Z</time>
      </trkpt>
      <trkpt lat="43.52887" lon="5.56936">
        <ele>466.1</ele>
        <time>2023-05-28T12:02:56Z</time>
      </trkpt>
      <trkpt lat="43.52888" lon="5.56936">
        <ele>466.1</ele>
        <time>2023-05-28T12:02:57Z</time>
      </trkpt>
      <trkpt lat="43.52888" lon="5.56936">
        <ele>466.1</ele>
        <time>2023-05-28T12:02:58Z</time>
      </trkpt>
      <trkpt lat="43.52889" lon="5.56937">
        <ele>466.1</ele>
        <time>2023-05-28T12:02:59Z</time>
      </trkpt>
      <trkpt lat="43.52889" lon="5.56937">
        <ele>466.1</ele>
        <time>2023-05-28T12:03:00Z</time>
      </trkpt>
      <trkpt lat="43.52889" lon="5.56937">
        <ele>466.1</ele>
        <time>2023-05-28T12:03:01Z</time>
      </trkpt>
      <trkpt lat="43.52889" lon="5.56937">
        <ele>466.2</ele>
        <time>2023-05-28T12:03:02Z</time>
      </trkpt>
      <trkpt lat="43.52889" lon="5.56937">
        <ele>466.2</ele>
        <time>2023-05-28T12:03:03Z</time>
      </trkpt>
      <trkpt lat="43.52889" lon="5.56937">
        <ele>466.2</ele>
        <time>2023-05-28T12:03:04Z</time>
      </trkpt>
      <trkpt lat="43.52889" lon="5.56937">
        <ele>466.2</ele>
        <time>2023-05-28T12:03:05Z</time>
      </trkpt>
      <trkpt lat="43.52889" lon="5.56937">
        <ele>466.1</ele>
        <time>2023-05-28T12:03:06Z</time>
      </trkpt>
      <trkpt lat="43.52889" lon="5.56937">
        <ele>466.2</ele>
        <time>2023-05-28T12:03:07Z</time>
      </trkpt>
      <trkpt lat="43.52889" lon="5.56937">
        <ele>466.3</ele>
        <time>2023-05-28T12:03:08Z</time>
      </trkpt>
      <trkpt lat="43.52889" lon="5.56938">
        <ele>466.3</ele>
        <time>2023-05-28T12:03:09Z</time>
      </trkpt>
      <trkpt lat="43.52889" lon="5.56937">
        <ele>466.3</ele>
        <time>2023-05-28T12:03:10Z</time>
      </trkpt>
      <trkpt lat="43.52889" lon="5.56937">
        <ele>466.3</ele>
        <time>2023-05-28T12:03:11Z</time>
      </trkpt>
      <trkpt lat="43.52889" lon="5.56938">
        <ele>466.3</ele>
        <time>2023-05-28T12:03:12Z</time>
      </trkpt>
      <trkpt lat="43.52889" lon="5.56938">
        <ele>466.3</ele>
        <time>2023-05-28T12:03:13Z</time>
      </trkpt>
      <trkpt lat="43.52889" lon="5.56938">
        <ele>466.3</ele>
        <time>2023-05-28T12:03:14Z</time>
      </trkpt>
      <trkpt lat="43.52889" lon="5.56938">
        <ele>466.3</ele>
        <time>2023-05-28T12:03:15Z</time>
      </trkpt>
      <trkpt lat="43.52889" lon="5.56938">
        <ele>466.3</ele>
        <time>2023-05-28T12:03:16Z</time>
      </trkpt>
      <trkpt lat="43.52889" lon="5.56938">
        <ele>466.3</ele>
        <time>2023-05-28T12:03:17Z</time>
      </trkpt>
      <trkpt lat="43.52889" lon="5.56938">
        <ele>466.3</ele>
        <time>2023-05-28T12:03:18Z</time>
      </trkpt>
      <trkpt lat="43.52889" lon="5.56939">
        <ele>466.4</ele>
        <time>2023-05-28T12:03:19Z</time>
      </trkpt>
      <trkpt lat="43.52889" lon="5.56939">
        <ele>466.4</ele>
        <time>2023-05-28T12:03:20Z</time>
      </trkpt>
      <trkpt lat="43.52889" lon="5.56939">
        <ele>466.5</ele>
        <time>2023-05-28T12:03:21Z</time>
      </trkpt>
      <trkpt lat="43.52889" lon="5.5694">
        <ele>466.4</ele>
        <time>2023-05-28T12:03:22Z</time>
      </trkpt>
      <trkpt lat="43.52889" lon="5.5694">
        <ele>466.4</ele>
        <time>2023-05-28T12:03:23Z</time>
      </trkpt>
      <trkpt lat="43.52889" lon="5.5694">
        <ele>466.4</ele>
        <time>2023-05-28T12:03:24Z</time>
      </trkpt>
      <trkpt lat="43.52889" lon="5.5694">
        <ele>466.4</ele>
        <time>2023-05-28T12:03:25Z</time>
      </trkpt>
      <trkpt lat="43.52889" lon="5.5694">
        <ele>466.4</ele>
        <time>2023-05-28T12:03:26Z</time>
      </trkpt>
      <trkpt lat="43.52889" lon="5.5694">
        <ele>466.4</ele>
        <time>2023-05-28T12:03:27Z</time>
      </trkpt>
      <trkpt lat="43.52889" lon="5.56941">
        <ele>466.5</ele>
        <time>2023-05-28T12:03:28Z</time>
      </trkpt>
      <trkpt lat="43.52889" lon="5.56941">
        <ele>466.6</ele>
        <time>2023-05-28T12:03:29Z</time>
      </trkpt>
      <trkpt lat="43.52889" lon="5.56941">
        <ele>466.5</ele>
        <time>2023-05-28T12:03:30Z</time>
      </trkpt>
      <trkpt lat="43.52889" lon="5.56941">
        <ele>466.4</ele>
        <time>2023-05-28T12:03:31Z</time>
      </trkpt>
      <trkpt lat="43.52889" lon="5.56941">
        <ele>466.4</ele>
        <time>2023-05-28T12:03:32Z</time>
      </trkpt>
      <trkpt lat="43.52889" lon="5.56941">
        <ele>466.4</ele>
        <time>2023-05-28T12:03:33Z</time>
      </trkpt>
      <trkpt lat="43.52889" lon="5.56942">
        <ele>466.4</ele>
        <time>2023-05-28T12:03:34Z</time>
      </trkpt>
      <trkpt lat="43.52889" lon="5.56942">
        <ele>466.4</ele>
        <time>2023-05-28T12:03:35Z</time>
      </trkpt>
      <trkpt lat="43.52889" lon="5.56942">
        <ele>466.4</ele>
        <time>2023-05-28T12:03:36Z</time>
      </trkpt>
      <trkpt lat="43.52889" lon="5.56942">
        <ele>466.5</ele>
        <time>2023-05-28T12:03:37Z</time>
      </trkpt>
      <trkpt lat="43.52889" lon="5.56942">
        <ele>466.5</ele>
        <time>2023-05-28T12:03:38Z</time>
      </trkpt>
      <trkpt lat="43.52889" lon="5.56942">
        <ele>466.6</ele>
        <time>2023-05-28T12:03:39Z</time>
      </trkpt>
      <trkpt lat="43.52889" lon="5.56942">
        <ele>466.6</ele>
        <time>2023-05-28T12:03:40Z</time>
      </trkpt>
      <trkpt lat="43.52889" lon="5.56942">
        <ele>466.6</ele>
        <time>2023-05-28T12:03:41Z</time>
      </trkpt>
      <trkpt lat="43.52889" lon="5.56942">
        <ele>466.5</ele>
        <time>2023-05-28T12:03:42Z</time>
      </trkpt>
      <trkpt lat="43.52889" lon="5.56942">
        <ele>466.5</ele>
        <time>2023-05-28T12:03:43Z</time>
      </trkpt>
      <trkpt lat="43.52889" lon="5.56942">
        <ele>466.5</ele>
        <time>2023-05-28T12:03:44Z</time>
      </trkpt>
      <trkpt lat="43.52889" lon="5.56942">
        <ele>466.5</ele>
        <time>2023-05-28T12:03:45Z</time>
      </trkpt>
      <trkpt lat="43.52889" lon="5.56942">
        <ele>466.5</ele>
        <time>2023-05-28T12:03:46Z</time>
      </trkpt>
      <trkpt lat="43.52889" lon="5.56941">
        <ele>466.5</ele>
        <time>2023-05-28T12:03:47Z</time>
      </trkpt>
      <trkpt lat="43.52888" lon="5.56941">
        <ele>466.5</ele>
        <time>2023-05-28T12:03:48Z</time>
      </trkpt>
      <trkpt lat="43.52888" lon="5.56941">
        <ele>466.5</ele>
        <time>2023-05-28T12:03:49Z</time>
      </trkpt>
      <trkpt lat="43.52888" lon="5.56941">
        <ele>466.5</ele>
        <time>2023-05-28T12:03:50Z</time>
      </trkpt>
      <trkpt lat="43.52888" lon="5.56941">
        <ele>466.5</ele>
        <time>2023-05-28T12:03:51Z</time>
      </trkpt>
      <trkpt lat="43.52888" lon="5.5694">
        <ele>466.5</ele>
        <time>2023-05-28T12:03:52Z</time>
      </trkpt>
      <trkpt lat="43.52888" lon="5.5694">
        <ele>466.5</ele>
        <time>2023-05-28T12:03:53Z</time>
      </trkpt>
      <trkpt lat="43.52888" lon="5.5694">
        <ele>466.5</ele>
        <time>2023-05-28T12:03:54Z</time>
      </trkpt>
      <trkpt lat="43.52888" lon="5.5694">
        <ele>466.5</ele>
        <time>2023-05-28T12:03:55Z</time>
      </trkpt>
      <trkpt lat="43.52888" lon="5.5694">
        <ele>466.6</ele>
        <time>2023-05-28T12:03:56Z</time>
      </trkpt>
      <trkpt lat="43.52888" lon="5.56941">
        <ele>466.6</ele>
        <time>2023-05-28T12:03:57Z</time>
      </trkpt>
      <trkpt lat="43.52888" lon="5.56941">
        <ele>466.6</ele>
        <time>2023-05-28T12:03:58Z</time>
      </trkpt>
      <trkpt lat="43.52888" lon="5.56941">
        <ele>466.5</ele>
        <time>2023-05-28T12:03:59Z</time>
      </trkpt>
      <trkpt lat="43.52888" lon="5.5694">
        <ele>466.6</ele>
        <time>2023-05-28T12:04:00Z</time>
      </trkpt>
      <trkpt lat="43.52889" lon="5.56941">
        <ele>466.6</ele>
        <time>2023-05-28T12:04:01Z</time>
      </trkpt>
      <trkpt lat="43.5289" lon="5.56941">
        <ele>466.5</ele>
        <time>2023-05-28T12:04:02Z</time>
      </trkpt>
      <trkpt lat="43.5289" lon="5.56941">
        <ele>466.5</ele>
        <time>2023-05-28T12:04:03Z</time>
      </trkpt>
      <trkpt lat="43.52891" lon="5.56942">
        <ele>466.5</ele>
        <time>2023-05-28T12:04:04Z</time>
      </trkpt>
      <trkpt lat="43.52892" lon="5.56942">
        <ele>466.5</ele>
        <time>2023-05-28T12:04:05Z</time>
      </trkpt>
      <trkpt lat="43.52893" lon="5.56942">
        <ele>466.5</ele>
        <time>2023-05-28T12:04:06Z</time>
      </trkpt>
      <trkpt lat="43.52893" lon="5.56942">
        <ele>466.5</ele>
        <time>2023-05-28T12:04:07Z</time>
      </trkpt>
      <trkpt lat="43.52894" lon="5.56942">
        <ele>466.5</ele>
        <time>2023-05-28T12:04:08Z</time>
      </trkpt>
      <trkpt lat="43.52894" lon="5.56942">
        <ele>466.5</ele>
        <time>2023-05-28T12:04:09Z</time>
      </trkpt>
      <trkpt lat="43.52895" lon="5.56942">
        <ele>466.4</ele>
        <time>2023-05-28T12:04:10Z</time>
      </trkpt>
      <trkpt lat="43.52896" lon="5.56942">
        <ele>466.4</ele>
        <time>2023-05-28T12:04:11Z</time>
      </trkpt>
      <trkpt lat="43.52897" lon="5.56942">
        <ele>466.4</ele>
        <time>2023-05-28T12:04:12Z</time>
      </trkpt>
      <trkpt lat="43.52897" lon="5.56943">
        <ele>466.4</ele>
        <time>2023-05-28T12:04:13Z</time>
      </trkpt>
      <trkpt lat="43.52898" lon="5.56943">
        <ele>466.4</ele>
        <time>2023-05-28T12:04:14Z</time>
      </trkpt>
      <trkpt lat="43.52899" lon="5.56943">
        <ele>466.4</ele>
        <time>2023-05-28T12:04:15Z</time>
      </trkpt>
      <trkpt lat="43.529" lon="5.56943">
        <ele>466.5</ele>
        <time>2023-05-28T12:04:16Z</time>
      </trkpt>
      <trkpt lat="43.52901" lon="5.56943">
        <ele>466.4</ele>
        <time>2023-05-28T12:04:17Z</time>
      </trkpt>
      <trkpt lat="43.52902" lon="5.56943">
        <ele>466.4</ele>
        <time>2023-05-28T12:04:18Z</time>
      </trkpt>
      <trkpt lat="43.52903" lon="5.56942">
        <ele>466.3</ele>
        <time>2023-05-28T12:04:19Z</time>
      </trkpt>
      <trkpt lat="43.52904" lon="5.56942">
        <ele>466.3</ele>
        <time>2023-05-28T12:04:20Z</time>
      </trkpt>
      <trkpt lat="43.52904" lon="5.56942">
        <ele>466.2</ele>
        <time>2023-05-28T12:04:21Z</time>
      </trkpt>
      <trkpt lat="43.52905" lon="5.56941">
        <ele>466.3</ele>
        <time>2023-05-28T12:04:22Z</time>
      </trkpt>
      <trkpt lat="43.52906" lon="5.56942">
        <ele>466.3</ele>
        <time>2023-05-28T12:04:23Z</time>
      </trkpt>
      <trkpt lat="43.52907" lon="5.56941">
        <ele>466.2</ele>
        <time>2023-05-28T12:04:24Z</time>
      </trkpt>
      <trkpt lat="43.52908" lon="5.56941">
        <ele>466.1</ele>
        <time>2023-05-28T12:04:25Z</time>
      </trkpt>
      <trkpt lat="43.52908" lon="5.5694">
        <ele>466.1</ele>
        <time>2023-05-28T12:04:26Z</time>
      </trkpt>
      <trkpt lat="43.52909" lon="5.5694">
        <ele>466.1</ele>
        <time>2023-05-28T12:04:27Z</time>
      </trkpt>
      <trkpt lat="43.5291" lon="5.5694">
        <ele>466.1</ele>
        <time>2023-05-28T12:04:28Z</time>
      </trkpt>
      <trkpt lat="43.52911" lon="5.56939">
        <ele>466.1</ele>
        <time>2023-05-28T12:04:29Z</time>
      </trkpt>
      <trkpt lat="43.52912" lon="5.56938">
        <ele>465.9</ele>
        <time>2023-05-28T12:04:30Z</time>
      </trkpt>
      <trkpt lat="43.52913" lon="5.56938">
        <ele>466</ele>
        <time>2023-05-28T12:04:31Z</time>
      </trkpt>
      <trkpt lat="43.52913" lon="5.56937">
        <ele>465.9</ele>
        <time>2023-05-28T12:04:32Z</time>
      </trkpt>
      <trkpt lat="43.52914" lon="5.56937">
        <ele>465.9</ele>
        <time>2023-05-28T12:04:33Z</time>
      </trkpt>
      <trkpt lat="43.52915" lon="5.56937">
        <ele>465.9</ele>
        <time>2023-05-28T12:04:34Z</time>
      </trkpt>
      <trkpt lat="43.52915" lon="5.56937">
        <ele>465.8</ele>
        <time>2023-05-28T12:04:35Z</time>
      </trkpt>
      <trkpt lat="43.52915" lon="5.56937">
        <ele>465.8</ele>
        <time>2023-05-28T12:04:36Z</time>
      </trkpt>
      <trkpt lat="43.52915" lon="5.56936">
        <ele>465.8</ele>
        <time>2023-05-28T12:04:37Z</time>
      </trkpt>
      <trkpt lat="43.52916" lon="5.56935">
        <ele>465.8</ele>
        <time>2023-05-28T12:04:38Z</time>
      </trkpt>
      <trkpt lat="43.52916" lon="5.56934">
        <ele>465.7</ele>
        <time>2023-05-28T12:04:39Z</time>
      </trkpt>
      <trkpt lat="43.52917" lon="5.56934">
        <ele>465.8</ele>
        <time>2023-05-28T12:04:40Z</time>
      </trkpt>
      <trkpt lat="43.52917" lon="5.56934">
        <ele>465.8</ele>
        <time>2023-05-28T12:04:41Z</time>
      </trkpt>
      <trkpt lat="43.52917" lon="5.56934">
        <ele>465.8</ele>
        <time>2023-05-28T12:04:42Z</time>
      </trkpt>
      <trkpt lat="43.52918" lon="5.56934">
        <ele>465.8</ele>
        <time>2023-05-28T12:04:43Z</time>
      </trkpt>
      <trkpt lat="43.52918" lon="5.56934">
        <ele>465.9</ele>
        <time>2023-05-28T12:04:44Z</time>
      </trkpt>
      <trkpt lat="43.52918" lon="5.56934">
        <ele>465.9</ele>
        <time>2023-05-28T12:04:45Z</time>
      </trkpt>
      <trkpt lat="43.52919" lon="5.56934">
        <ele>465.9</ele>
        <time>2023-05-28T12:04:46Z</time>
      </trkpt>
      <trkpt lat="43.52919" lon="5.56934">
        <ele>466</ele>
        <time>2023-05-28T12:04:47Z</time>
      </trkpt>
      <trkpt lat="43.52919" lon="5.56933">
        <ele>466</ele>
        <time>2023-05-28T12:04:48Z</time>
      </trkpt>
      <trkpt lat="43.52919" lon="5.56933">
        <ele>466</ele>
        <time>2023-05-28T12:04:49Z</time>
      </trkpt>
      <trkpt lat="43.52919" lon="5.56933">
        <ele>466</ele>
        <time>2023-05-28T12:04:50Z</time>
      </trkpt>
      <trkpt lat="43.5292" lon="5.56933">
        <ele>466</ele>
        <time>2023-05-28T12:04:51Z</time>
      </trkpt>
      <trkpt lat="43.5292" lon="5.56933">
        <ele>466</ele>
        <time>2023-05-28T12:04:52Z</time>
      </trkpt>
      <trkpt lat="43.5292" lon="5.56933">
        <ele>466</ele>
        <time>2023-05-28T12:04:53Z</time>
      </trkpt>
      <trkpt lat="43.52921" lon="5.56933">
        <ele>466</ele>
        <time>2023-05-28T12:04:54Z</time>
      </trkpt>
      <trkpt lat="43.52921" lon="5.56932">
        <ele>466</ele>
        <time>2023-05-28T12:04:55Z</time>
      </trkpt>
      <trkpt lat="43.52921" lon="5.56932">
        <ele>466</ele>
        <time>2023-05-28T12:04:56Z</time>
      </trkpt>
      <trkpt lat="43.52922" lon="5.56932">
        <ele>466</ele>
        <time>2023-05-28T12:04:57Z</time>
      </trkpt>
      <trkpt lat="43.52922" lon="5.56931">
        <ele>465.9</ele>
        <time>2023-05-28T12:04:58Z</time>
      </trkpt>
      <trkpt lat="43.52923" lon="5.56931">
        <ele>465.8</ele>
        <time>2023-05-28T12:04:59Z</time>
      </trkpt>
      <trkpt lat="43.52923" lon="5.5693">
        <ele>465.8</ele>
        <time>2023-05-28T12:05:00Z</time>
      </trkpt>
      <trkpt lat="43.52924" lon="5.5693">
        <ele>465.7</ele>
        <time>2023-05-28T12:05:01Z</time>
      </trkpt>
      <trkpt lat="43.52924" lon="5.56929">
        <ele>465.8</ele>
        <time>2023-05-28T12:05:02Z</time>
      </trkpt>
      <trkpt lat="43.52924" lon="5.56929">
        <ele>465.7</ele>
        <time>2023-05-28T12:05:03Z</time>
      </trkpt>
      <trkpt lat="43.52925" lon="5.56928">
        <ele>465.7</ele>
        <time>2023-05-28T12:05:04Z</time>
      </trkpt>
      <trkpt lat="43.52925" lon="5.56927">
        <ele>465.7</ele>
        <time>2023-05-28T12:05:05Z</time>
      </trkpt>
      <trkpt lat="43.52925" lon="5.56926">
        <ele>465.7</ele>
        <time>2023-05-28T12:05:06Z</time>
      </trkpt>
      <trkpt lat="43.52925" lon="5.56925">
        <ele>465.6</ele>
        <time>2023-05-28T12:05:07Z</time>
      </trkpt>
      <trkpt lat="43.52925" lon="5.56923">
        <ele>465.5</ele>
        <time>2023-05-28T12:05:08Z</time>
      </trkpt>
      <trkpt lat="43.52925" lon="5.56922">
        <ele>465.5</ele>
        <time>2023-05-28T12:05:09Z</time>
      </trkpt>
      <trkpt lat="43.52924" lon="5.56921">
        <ele>465.4</ele>
        <time>2023-05-28T12:05:10Z</time>
      </trkpt>
      <trkpt lat="43.52924" lon="5.56921">
        <ele>465.2</ele>
        <time>2023-05-28T12:05:11Z</time>
      </trkpt>
      <trkpt lat="43.52923" lon="5.5692">
        <ele>465.1</ele>
        <time>2023-05-28T12:05:12Z</time>
      </trkpt>
      <trkpt lat="43.52922" lon="5.5692">
        <ele>465</ele>
        <time>2023-05-28T12:05:13Z</time>
      </trkpt>
      <trkpt lat="43.52922" lon="5.56919">
        <ele>464.9</ele>
        <time>2023-05-28T12:05:14Z</time>
      </trkpt>
      <trkpt lat="43.52921" lon="5.56919">
        <ele>464.8</ele>
        <time>2023-05-28T12:05:15Z</time>
      </trkpt>
      <trkpt lat="43.5292" lon="5.56919">
        <ele>464.8</ele>
        <time>2023-05-28T12:05:16Z</time>
      </trkpt>
      <trkpt lat="43.52919" lon="5.56919">
        <ele>464.7</ele>
        <time>2023-05-28T12:05:17Z</time>
      </trkpt>
      <trkpt lat="43.52919" lon="5.56919">
        <ele>464.6</ele>
        <time>2023-05-28T12:05:18Z</time>
      </trkpt>
      <trkpt lat="43.52918" lon="5.56919">
        <ele>464.5</ele>
        <time>2023-05-28T12:05:19Z</time>
      </trkpt>
      <trkpt lat="43.52917" lon="5.56919">
        <ele>464.4</ele>
        <time>2023-05-28T12:05:20Z</time>
      </trkpt>
      <trkpt lat="43.52916" lon="5.56919">
        <ele>464.3</ele>
        <time>2023-05-28T12:05:21Z</time>
      </trkpt>
      <trkpt lat="43.52916" lon="5.56919">
        <ele>464.2</ele>
        <time>2023-05-28T12:05:22Z</time>
      </trkpt>
      <trkpt lat="43.52915" lon="5.56919">
        <ele>464.1</ele>
        <time>2023-05-28T12:05:23Z</time>
      </trkpt>
      <trkpt lat="43.52914" lon="5.56919">
        <ele>464</ele>
        <time>2023-05-28T12:05:24Z</time>
      </trkpt>
      <trkpt lat="43.52913" lon="5.56918">
        <ele>463.9</ele>
        <time>2023-05-28T12:05:25Z</time>
      </trkpt>
      <trkpt lat="43.52913" lon="5.56918">
        <ele>463.7</ele>
        <time>2023-05-28T12:05:26Z</time>
      </trkpt>
      <trkpt lat="43.52912" lon="5.56918">
        <ele>463.5</ele>
        <time>2023-05-28T12:05:27Z</time>
      </trkpt>
      <trkpt lat="43.52911" lon="5.56918">
        <ele>463.4</ele>
        <time>2023-05-28T12:05:28Z</time>
      </trkpt>
      <trkpt lat="43.52911" lon="5.56919">
        <ele>463.4</ele>
        <time>2023-05-28T12:05:29Z</time>
      </trkpt>
      <trkpt lat="43.5291" lon="5.56918">
        <ele>463.2</ele>
        <time>2023-05-28T12:05:30Z</time>
      </trkpt>
      <trkpt lat="43.52909" lon="5.56918">
        <ele>463.1</ele>
        <time>2023-05-28T12:05:31Z</time>
      </trkpt>
      <trkpt lat="43.52908" lon="5.56918">
        <ele>462.9</ele>
        <time>2023-05-28T12:05:32Z</time>
      </trkpt>
      <trkpt lat="43.52907" lon="5.56918">
        <ele>462.7</ele>
        <time>2023-05-28T12:05:33Z</time>
      </trkpt>
      <trkpt lat="43.52907" lon="5.56917">
        <ele>462.6</ele>
        <time>2023-05-28T12:05:34Z</time>
      </trkpt>
      <trkpt lat="43.52906" lon="5.56917">
        <ele>462.4</ele>
        <time>2023-05-28T12:05:35Z</time>
      </trkpt>
      <trkpt lat="43.52905" lon="5.56917">
        <ele>462.3</ele>
        <time>2023-05-28T12:05:36Z</time>
      </trkpt>
      <trkpt lat="43.52905" lon="5.56917">
        <ele>462.1</ele>
        <time>2023-05-28T12:05:37Z</time>
      </trkpt>
      <trkpt lat="43.52904" lon="5.56917">
        <ele>462</ele>
        <time>2023-05-28T12:05:38Z</time>
      </trkpt>
      <trkpt lat="43.52903" lon="5.56916">
        <ele>462</ele>
        <time>2023-05-28T12:05:39Z</time>
      </trkpt>
      <trkpt lat="43.52903" lon="5.56916">
        <ele>461.9</ele>
        <time>2023-05-28T12:05:40Z</time>
      </trkpt>
      <trkpt lat="43.52902" lon="5.56916">
        <ele>461.9</ele>
        <time>2023-05-28T12:05:41Z</time>
      </trkpt>
      <trkpt lat="43.52901" lon="5.56915">
        <ele>461.9</ele>
        <time>2023-05-28T12:05:42Z</time>
      </trkpt>
      <trkpt lat="43.529" lon="5.56915">
        <ele>461.9</ele>
        <time>2023-05-28T12:05:43Z</time>
      </trkpt>
      <trkpt lat="43.529" lon="5.56915">
        <ele>461.8</ele>
        <time>2023-05-28T12:05:44Z</time>
      </trkpt>
      <trkpt lat="43.52899" lon="5.56915">
        <ele>461.8</ele>
        <time>2023-05-28T12:05:45Z</time>
      </trkpt>
      <trkpt lat="43.52898" lon="5.56914">
        <ele>461.6</ele>
        <time>2023-05-28T12:05:46Z</time>
      </trkpt>
      <trkpt lat="43.52898" lon="5.56914">
        <ele>461.5</ele>
        <time>2023-05-28T12:05:47Z</time>
      </trkpt>
      <trkpt lat="43.52896" lon="5.56913">
        <ele>461.4</ele>
        <time>2023-05-28T12:05:48Z</time>
      </trkpt>
      <trkpt lat="43.52895" lon="5.56912">
        <ele>461.3</ele>
        <time>2023-05-28T12:05:49Z</time>
      </trkpt>
      <trkpt lat="43.52894" lon="5.56912">
        <ele>461.2</ele>
        <time>2023-05-28T12:05:50Z</time>
      </trkpt>
      <trkpt lat="43.52893" lon="5.56911">
        <ele>461.1</ele>
        <time>2023-05-28T12:05:51Z</time>
      </trkpt>
      <trkpt lat="43.52892" lon="5.56911">
        <ele>460.9</ele>
        <time>2023-05-28T12:05:52Z</time>
      </trkpt>
      <trkpt lat="43.52892" lon="5.5691">
        <ele>460.8</ele>
        <time>2023-05-28T12:05:53Z</time>
      </trkpt>
      <trkpt lat="43.52891" lon="5.5691">
        <ele>460.6</ele>
        <time>2023-05-28T12:05:54Z</time>
      </trkpt>
      <trkpt lat="43.5289" lon="5.5691">
        <ele>460.5</ele>
        <time>2023-05-28T12:05:55Z</time>
      </trkpt>
      <trkpt lat="43.52889" lon="5.56909">
        <ele>460.4</ele>
        <time>2023-05-28T12:05:56Z</time>
      </trkpt>
      <trkpt lat="43.52889" lon="5.56909">
        <ele>460.3</ele>
        <time>2023-05-28T12:05:57Z</time>
      </trkpt>
      <trkpt lat="43.52889" lon="5.56908">
        <ele>460.2</ele>
        <time>2023-05-28T12:05:58Z</time>
      </trkpt>
      <trkpt lat="43.52888" lon="5.56908">
        <ele>460</ele>
        <time>2023-05-28T12:05:59Z</time>
      </trkpt>
      <trkpt lat="43.52888" lon="5.56907">
        <ele>459.9</ele>
        <time>2023-05-28T12:06:00Z</time>
      </trkpt>
      <trkpt lat="43.52887" lon="5.56907">
        <ele>459.8</ele>
        <time>2023-05-28T12:06:01Z</time>
      </trkpt>
      <trkpt lat="43.52886" lon="5.56906">
        <ele>459.7</ele>
        <time>2023-05-28T12:06:02Z</time>
      </trkpt>
      <trkpt lat="43.52886" lon="5.56905">
        <ele>459.6</ele>
        <time>2023-05-28T12:06:03Z</time>
      </trkpt>
      <trkpt lat="43.52886" lon="5.56905">
        <ele>459.5</ele>
        <time>2023-05-28T12:06:04Z</time>
      </trkpt>
      <trkpt lat="43.52885" lon="5.56904">
        <ele>459.4</ele>
        <time>2023-05-28T12:06:05Z</time>
      </trkpt>
      <trkpt lat="43.52884" lon="5.56903">
        <ele>459.2</ele>
        <time>2023-05-28T12:06:06Z</time>
      </trkpt>
      <trkpt lat="43.52884" lon="5.56902">
        <ele>459</ele>
        <time>2023-05-28T12:06:07Z</time>
      </trkpt>
      <trkpt lat="43.52883" lon="5.56901">
        <ele>458.9</ele>
        <time>2023-05-28T12:06:08Z</time>
      </trkpt>
      <trkpt lat="43.52883" lon="5.56899">
        <ele>458.7</ele>
        <time>2023-05-28T12:06:09Z</time>
      </trkpt>
      <trkpt lat="43.52882" lon="5.56899">
        <ele>458.5</ele>
        <time>2023-05-28T12:06:10Z</time>
      </trkpt>
      <trkpt lat="43.52882" lon="5.56897">
        <ele>458.3</ele>
        <time>2023-05-28T12:06:11Z</time>
      </trkpt>
      <trkpt lat="43.52882" lon="5.56896">
        <ele>458.2</ele>
        <time>2023-05-28T12:06:12Z</time>
      </trkpt>
      <trkpt lat="43.52881" lon="5.56895">
        <ele>458.1</ele>
        <time>2023-05-28T12:06:13Z</time>
      </trkpt>
      <trkpt lat="43.52881" lon="5.56894">
        <ele>457.8</ele>
        <time>2023-05-28T12:06:14Z</time>
      </trkpt>
      <trkpt lat="43.52881" lon="5.56893">
        <ele>457.7</ele>
        <time>2023-05-28T12:06:15Z</time>
      </trkpt>
      <trkpt lat="43.5288" lon="5.56893">
        <ele>457.6</ele>
        <time>2023-05-28T12:06:16Z</time>
      </trkpt>
      <trkpt lat="43.5288" lon="5.56892">
        <ele>457.6</ele>
        <time>2023-05-28T12:06:17Z</time>
      </trkpt>
      <trkpt lat="43.5288" lon="5.5689">
        <ele>457.3</ele>
        <time>2023-05-28T12:06:18Z</time>
      </trkpt>
      <trkpt lat="43.5288" lon="5.56889">
        <ele>457.3</ele>
        <time>2023-05-28T12:06:19Z</time>
      </trkpt>
      <trkpt lat="43.5288" lon="5.56888">
        <ele>457.2</ele>
        <time>2023-05-28T12:06:20Z</time>
      </trkpt>
      <trkpt lat="43.5288" lon="5.56887">
        <ele>457.3</ele>
        <time>2023-05-28T12:06:21Z</time>
      </trkpt>
      <trkpt lat="43.5288" lon="5.56885">
        <ele>457.3</ele>
        <time>2023-05-28T12:06:22Z</time>
      </trkpt>
      <trkpt lat="43.5288" lon="5.56884">
        <ele>457.3</ele>
        <time>2023-05-28T12:06:23Z</time>
      </trkpt>
      <trkpt lat="43.52879" lon="5.56882">
        <ele>457.2</ele>
        <time>2023-05-28T12:06:24Z</time>
      </trkpt>
      <trkpt lat="43.52879" lon="5.56881">
        <ele>457.2</ele>
        <time>2023-05-28T12:06:25Z</time>
      </trkpt>
      <trkpt lat="43.52879" lon="5.56879">
        <ele>457.1</ele>
        <time>2023-05-28T12:06:26Z</time>
      </trkpt>
      <trkpt lat="43.52879" lon="5.56878">
        <ele>457.1</ele>
        <time>2023-05-28T12:06:27Z</time>
      </trkpt>
      <trkpt lat="43.52879" lon="5.56877">
        <ele>457.1</ele>
        <time>2023-05-28T12:06:28Z</time>
      </trkpt>
      <trkpt lat="43.52879" lon="5.56876">
        <ele>457.2</ele>
        <time>2023-05-28T12:06:29Z</time>
      </trkpt>
      <trkpt lat="43.52879" lon="5.56875">
        <ele>457.3</ele>
        <time>2023-05-28T12:06:30Z</time>
      </trkpt>
      <trkpt lat="43.52879" lon="5.56873">
        <ele>457.4</ele>
        <time>2023-05-28T12:06:31Z</time>
      </trkpt>
      <trkpt lat="43.52879" lon="5.56872">
        <ele>457.4</ele>
        <time>2023-05-28T12:06:32Z</time>
      </trkpt>
      <trkpt lat="43.52879" lon="5.5687">
        <ele>457.6</ele>
        <time>2023-05-28T12:06:33Z</time>
      </trkpt>
      <trkpt lat="43.52879" lon="5.56869">
        <ele>457.7</ele>
        <time>2023-05-28T12:06:34Z</time>
      </trkpt>
      <trkpt lat="43.52879" lon="5.56868">
        <ele>457.7</ele>
        <time>2023-05-28T12:06:35Z</time>
      </trkpt>
      <trkpt lat="43.52879" lon="5.56866">
        <ele>457.8</ele>
        <time>2023-05-28T12:06:36Z</time>
      </trkpt>
      <trkpt lat="43.52879" lon="5.56865">
        <ele>457.7</ele>
        <time>2023-05-28T12:06:37Z</time>
      </trkpt>
      <trkpt lat="43.52879" lon="5.56864">
        <ele>457.8</ele>
        <time>2023-05-28T12:06:38Z</time>
      </trkpt>
      <trkpt lat="43.52878" lon="5.56863">
        <ele>457.8</ele>
        <time>2023-05-28T12:06:39Z</time>
      </trkpt>
      <trkpt lat="43.52878" lon="5.56862">
        <ele>457.8</ele>
        <time>2023-05-28T12:06:40Z</time>
      </trkpt>
      <trkpt lat="43.52878" lon="5.56861">
        <ele>457.8</ele>
        <time>2023-05-28T12:06:41Z</time>
      </trkpt>
      <trkpt lat="43.52878" lon="5.56859">
        <ele>457.8</ele>
        <time>2023-05-28T12:06:42Z</time>
      </trkpt>
      <trkpt lat="43.52878" lon="5.56858">
        <ele>457.8</ele>
        <time>2023-05-28T12:06:43Z</time>
      </trkpt>
      <trkpt lat="43.52878" lon="5.56857">
        <ele>457.9</ele>
        <time>2023-05-28T12:06:44Z</time>
      </trkpt>
      <trkpt lat="43.52878" lon="5.56856">
        <ele>457.9</ele>
        <time>2023-05-28T12:06:45Z</time>
      </trkpt>
      <trkpt lat="43.52878" lon="5.56854">
        <ele>457.9</ele>
        <time>2023-05-28T12:06:46Z</time>
      </trkpt>
      <trkpt lat="43.52878" lon="5.56853">
        <ele>457.9</ele>
        <time>2023-05-28T12:06:47Z</time>
      </trkpt>
      <trkpt lat="43.52878" lon="5.56852">
        <ele>457.9</ele>
        <time>2023-05-28T12:06:48Z</time>
      </trkpt>
      <trkpt lat="43.52878" lon="5.56851">
        <ele>457.8</ele>
        <time>2023-05-28T12:06:49Z</time>
      </trkpt>
      <trkpt lat="43.52878" lon="5.5685">
        <ele>457.9</ele>
        <time>2023-05-28T12:06:50Z</time>
      </trkpt>
      <trkpt lat="43.52878" lon="5.56848">
        <ele>457.9</ele>
        <time>2023-05-28T12:06:51Z</time>
      </trkpt>
      <trkpt lat="43.52878" lon="5.56847">
        <ele>457.9</ele>
        <time>2023-05-28T12:06:52Z</time>
      </trkpt>
      <trkpt lat="43.52878" lon="5.56846">
        <ele>457.9</ele>
        <time>2023-05-28T12:06:53Z</time>
      </trkpt>
      <trkpt lat="43.52879" lon="5.56845">
        <ele>457.8</ele>
        <time>2023-05-28T12:06:54Z</time>
      </trkpt>
      <trkpt lat="43.52879" lon="5.56843">
        <ele>457.6</ele>
        <time>2023-05-28T12:06:55Z</time>
      </trkpt>
      <trkpt lat="43.52879" lon="5.56842">
        <ele>457.6</ele>
        <time>2023-05-28T12:06:56Z</time>
      </trkpt>
      <trkpt lat="43.52879" lon="5.56841">
        <ele>457.5</ele>
        <time>2023-05-28T12:06:57Z</time>
      </trkpt>
      <trkpt lat="43.5288" lon="5.56839">
        <ele>457.4</ele>
        <time>2023-05-28T12:06:58Z</time>
      </trkpt>
      <trkpt lat="43.5288" lon="5.56838">
        <ele>457.3</ele>
        <time>2023-05-28T12:06:59Z</time>
      </trkpt>
      <trkpt lat="43.5288" lon="5.56837">
        <ele>457.2</ele>
        <time>2023-05-28T12:07:00Z</time>
      </trkpt>
      <trkpt lat="43.52881" lon="5.56835">
        <ele>457.1</ele>
        <time>2023-05-28T12:07:01Z</time>
      </trkpt>
      <trkpt lat="43.52881" lon="5.56834">
        <ele>457.1</ele>
        <time>2023-05-28T12:07:02Z</time>
      </trkpt>
      <trkpt lat="43.52881" lon="5.56832">
        <ele>457</ele>
        <time>2023-05-28T12:07:03Z</time>
      </trkpt>
      <trkpt lat="43.52882" lon="5.56831">
        <ele>457</ele>
        <time>2023-05-28T12:07:04Z</time>
      </trkpt>
      <trkpt lat="43.52882" lon="5.5683">
        <ele>456.9</ele>
        <time>2023-05-28T12:07:05Z</time>
      </trkpt>
      <trkpt lat="43.52882" lon="5.56828">
        <ele>456.9</ele>
        <time>2023-05-28T12:07:06Z</time>
      </trkpt>
      <trkpt lat="43.52883" lon="5.56827">
        <ele>456.9</ele>
        <time>2023-05-28T12:07:07Z</time>
      </trkpt>
      <trkpt lat="43.52883" lon="5.56826">
        <ele>456.9</ele>
        <time>2023-05-28T12:07:08Z</time>
      </trkpt>
      <trkpt lat="43.52884" lon="5.56824">
        <ele>456.9</ele>
        <time>2023-05-28T12:07:09Z</time>
      </trkpt>
      <trkpt lat="43.52884" lon="5.56823">
        <ele>456.8</ele>
        <time>2023-05-28T12:07:10Z</time>
      </trkpt>
      <trkpt lat="43.52885" lon="5.56822">
        <ele>456.8</ele>
        <time>2023-05-28T12:07:11Z</time>
      </trkpt>
      <trkpt lat="43.52885" lon="5.5682">
        <ele>456.8</ele>
        <time>2023-05-28T12:07:12Z</time>
      </trkpt>
      <trkpt lat="43.52885" lon="5.56819">
        <ele>456.7</ele>
        <time>2023-05-28T12:07:13Z</time>
      </trkpt>
      <trkpt lat="43.52886" lon="5.56818">
        <ele>456.7</ele>
        <time>2023-05-28T12:07:14Z</time>
      </trkpt>
      <trkpt lat="43.52887" lon="5.56817">
        <ele>456.7</ele>
        <time>2023-05-28T12:07:15Z</time>
      </trkpt>
      <trkpt lat="43.52887" lon="5.56815">
        <ele>456.7</ele>
        <time>2023-05-28T12:07:16Z</time>
      </trkpt>
      <trkpt lat="43.52888" lon="5.56814">
        <ele>456.7</ele>
        <time>2023-05-28T12:07:17Z</time>
      </trkpt>
      <trkpt lat="43.52888" lon="5.56813">
        <ele>456.7</ele>
        <time>2023-05-28T12:07:18Z</time>
      </trkpt>
      <trkpt lat="43.52889" lon="5.56812">
        <ele>456.7</ele>
        <time>2023-05-28T12:07:19Z</time>
      </trkpt>
      <trkpt lat="43.52889" lon="5.5681">
        <ele>456.7</ele>
        <time>2023-05-28T12:07:20Z</time>
      </trkpt>
      <trkpt lat="43.52889" lon="5.56809">
        <ele>456.5</ele>
        <time>2023-05-28T12:07:21Z</time>
      </trkpt>
      <trkpt lat="43.5289" lon="5.56807">
        <ele>456.4</ele>
        <time>2023-05-28T12:07:22Z</time>
      </trkpt>
      <trkpt lat="43.5289" lon="5.56806">
        <ele>456.3</ele>
        <time>2023-05-28T12:07:23Z</time>
      </trkpt>
      <trkpt lat="43.5289" lon="5.56805">
        <ele>456.2</ele>
        <time>2023-05-28T12:07:24Z</time>
      </trkpt>
      <trkpt lat="43.52891" lon="5.56804">
        <ele>456.1</ele>
        <time>2023-05-28T12:07:25Z</time>
      </trkpt>
      <trkpt lat="43.52891" lon="5.56802">
        <ele>456.1</ele>
        <time>2023-05-28T12:07:26Z</time>
      </trkpt>
      <trkpt lat="43.52891" lon="5.56801">
        <ele>456</ele>
        <time>2023-05-28T12:07:27Z</time>
      </trkpt>
      <trkpt lat="43.52892" lon="5.568">
        <ele>455.9</ele>
        <time>2023-05-28T12:07:28Z</time>
      </trkpt>
      <trkpt lat="43.52892" lon="5.56798">
        <ele>455.9</ele>
        <time>2023-05-28T12:07:29Z</time>
      </trkpt>
      <trkpt lat="43.52892" lon="5.56797">
        <ele>455.9</ele>
        <time>2023-05-28T12:07:30Z</time>
      </trkpt>
      <trkpt lat="43.52893" lon="5.56795">
        <ele>455.9</ele>
        <time>2023-05-28T12:07:31Z</time>
      </trkpt>
      <trkpt lat="43.52893" lon="5.56794">
        <ele>455.8</ele>
        <time>2023-05-28T12:07:32Z</time>
      </trkpt>
      <trkpt lat="43.52893" lon="5.56792">
        <ele>455.7</ele>
        <time>2023-05-28T12:07:33Z</time>
      </trkpt>
      <trkpt lat="43.52893" lon="5.56791">
        <ele>455.6</ele>
        <time>2023-05-28T12:07:34Z</time>
      </trkpt>
      <trkpt lat="43.52893" lon="5.5679">
        <ele>455.5</ele>
        <time>2023-05-28T12:07:35Z</time>
      </trkpt>
      <trkpt lat="43.52893" lon="5.56788">
        <ele>455.4</ele>
        <time>2023-05-28T12:07:36Z</time>
      </trkpt>
      <trkpt lat="43.52893" lon="5.56787">
        <ele>455.4</ele>
        <time>2023-05-28T12:07:37Z</time>
      </trkpt>
      <trkpt lat="43.52893" lon="5.56785">
        <ele>455.3</ele>
        <time>2023-05-28T12:07:38Z</time>
      </trkpt>
      <trkpt lat="43.52893" lon="5.56783">
        <ele>455.2</ele>
        <time>2023-05-28T12:07:39Z</time>
      </trkpt>
      <trkpt lat="43.52893" lon="5.56782">
        <ele>455.2</ele>
        <time>2023-05-28T12:07:40Z</time>
      </trkpt>
      <trkpt lat="43.52894" lon="5.5678">
        <ele>455.1</ele>
        <time>2023-05-28T12:07:41Z</time>
      </trkpt>
      <trkpt lat="43.52894" lon="5.56779">
        <ele>454.9</ele>
        <time>2023-05-28T12:07:42Z</time>
      </trkpt>
      <trkpt lat="43.52894" lon="5.56777">
        <ele>454.8</ele>
        <time>2023-05-28T12:07:43Z</time>
      </trkpt>
      <trkpt lat="43.52894" lon="5.56776">
        <ele>454.6</ele>
        <time>2023-05-28T12:07:44Z</time>
      </trkpt>
      <trkpt lat="43.52894" lon="5.56774">
        <ele>454.5</ele>
        <time>2023-05-28T12:07:45Z</time>
      </trkpt>
      <trkpt lat="43.52894" lon="5.56773">
        <ele>454.6</ele>
        <time>2023-05-28T12:07:46Z</time>
      </trkpt>
      <trkpt lat="43.52894" lon="5.56771">
        <ele>454.6</ele>
        <time>2023-05-28T12:07:47Z</time>
      </trkpt>
      <trkpt lat="43.52894" lon="5.5677">
        <ele>454.6</ele>
        <time>2023-05-28T12:07:48Z</time>
      </trkpt>
      <trkpt lat="43.52894" lon="5.56768">
        <ele>454.5</ele>
        <time>2023-05-28T12:07:49Z</time>
      </trkpt>
      <trkpt lat="43.52894" lon="5.56767">
        <ele>454.5</ele>
        <time>2023-05-28T12:07:50Z</time>
      </trkpt>
      <trkpt lat="43.52894" lon="5.56765">
        <ele>454.5</ele>
        <time>2023-05-28T12:07:51Z</time>
      </trkpt>
      <trkpt lat="43.52894" lon="5.56764">
        <ele>454.6</ele>
        <time>2023-05-28T12:07:52Z</time>
      </trkpt>
      <trkpt lat="43.52894" lon="5.56762">
        <ele>454.5</ele>
        <time>2023-05-28T12:07:53Z</time>
      </trkpt>
      <trkpt lat="43.52894" lon="5.56761">
        <ele>454.5</ele>
        <time>2023-05-28T12:07:54Z</time>
      </trkpt>
      <trkpt lat="43.52894" lon="5.56759">
        <ele>454.4</ele>
        <time>2023-05-28T12:07:55Z</time>
      </trkpt>
      <trkpt lat="43.52894" lon="5.56758">
        <ele>454.3</ele>
        <time>2023-05-28T12:07:56Z</time>
      </trkpt>
      <trkpt lat="43.52894" lon="5.56756">
        <ele>454.2</ele>
        <time>2023-05-28T12:07:57Z</time>
      </trkpt>
      <trkpt lat="43.52894" lon="5.56755">
        <ele>454.2</ele>
        <time>2023-05-28T12:07:58Z</time>
      </trkpt>
      <trkpt lat="43.52893" lon="5.56754">
        <ele>454.2</ele>
        <time>2023-05-28T12:07:59Z</time>
      </trkpt>
      <trkpt lat="43.52893" lon="5.56752">
        <ele>454.1</ele>
        <time>2023-05-28T12:08:00Z</time>
      </trkpt>
      <trkpt lat="43.52893" lon="5.56751">
        <ele>454.1</ele>
        <time>2023-05-28T12:08:01Z</time>
      </trkpt>
      <trkpt lat="43.52893" lon="5.56749">
        <ele>454.1</ele>
        <time>2023-05-28T12:08:02Z</time>
      </trkpt>
      <trkpt lat="43.52892" lon="5.56748">
        <ele>454.1</ele>
        <time>2023-05-28T12:08:03Z</time>
      </trkpt>
      <trkpt lat="43.52892" lon="5.56746">
        <ele>454.1</ele>
        <time>2023-05-28T12:08:04Z</time>
      </trkpt>
      <trkpt lat="43.52892" lon="5.56745">
        <ele>454.1</ele>
        <time>2023-05-28T12:08:05Z</time>
      </trkpt>
      <trkpt lat="43.52892" lon="5.56743">
        <ele>454</ele>
        <time>2023-05-28T12:08:06Z</time>
      </trkpt>
      <trkpt lat="43.52891" lon="5.56741">
        <ele>453.9</ele>
        <time>2023-05-28T12:08:07Z</time>
      </trkpt>
      <trkpt lat="43.52891" lon="5.5674">
        <ele>453.8</ele>
        <time>2023-05-28T12:08:08Z</time>
      </trkpt>
      <trkpt lat="43.52891" lon="5.56738">
        <ele>453.7</ele>
        <time>2023-05-28T12:08:09Z</time>
      </trkpt>
      <trkpt lat="43.52891" lon="5.56736">
        <ele>453.7</ele>
        <time>2023-05-28T12:08:10Z</time>
      </trkpt>
      <trkpt lat="43.52891" lon="5.56735">
        <ele>453.6</ele>
        <time>2023-05-28T12:08:11Z</time>
      </trkpt>
      <trkpt lat="43.52891" lon="5.56733">
        <ele>453.6</ele>
        <time>2023-05-28T12:08:12Z</time>
      </trkpt>
      <trkpt lat="43.52891" lon="5.56732">
        <ele>453.6</ele>
        <time>2023-05-28T12:08:13Z</time>
      </trkpt>
      <trkpt lat="43.52891" lon="5.56731">
        <ele>453.5</ele>
        <time>2023-05-28T12:08:14Z</time>
      </trkpt>
      <trkpt lat="43.52891" lon="5.56729">
        <ele>453.6</ele>
        <time>2023-05-28T12:08:15Z</time>
      </trkpt>
      <trkpt lat="43.5289" lon="5.56727">
        <ele>453.7</ele>
        <time>2023-05-28T12:08:16Z</time>
      </trkpt>
      <trkpt lat="43.52891" lon="5.56726">
        <ele>453.7</ele>
        <time>2023-05-28T12:08:17Z</time>
      </trkpt>
      <trkpt lat="43.52891" lon="5.56724">
        <ele>453.8</ele>
        <time>2023-05-28T12:08:18Z</time>
      </trkpt>
      <trkpt lat="43.5289" lon="5.56723">
        <ele>453.9</ele>
        <time>2023-05-28T12:08:19Z</time>
      </trkpt>
      <trkpt lat="43.5289" lon="5.56721">
        <ele>453.9</ele>
        <time>2023-05-28T12:08:20Z</time>
      </trkpt>
      <trkpt lat="43.5289" lon="5.5672">
        <ele>454</ele>
        <time>2023-05-28T12:08:21Z</time>
      </trkpt>
      <trkpt lat="43.5289" lon="5.56718">
        <ele>454</ele>
        <time>2023-05-28T12:08:22Z</time>
      </trkpt>
      <trkpt lat="43.5289" lon="5.56717">
        <ele>454.1</ele>
        <time>2023-05-28T12:08:23Z</time>
      </trkpt>
      <trkpt lat="43.5289" lon="5.56715">
        <ele>454.1</ele>
        <time>2023-05-28T12:08:24Z</time>
      </trkpt>
      <trkpt lat="43.5289" lon="5.56713">
        <ele>454.3</ele>
        <time>2023-05-28T12:08:25Z</time>
      </trkpt>
      <trkpt lat="43.5289" lon="5.56712">
        <ele>454.4</ele>
        <time>2023-05-28T12:08:26Z</time>
      </trkpt>
      <trkpt lat="43.5289" lon="5.5671">
        <ele>454.5</ele>
        <time>2023-05-28T12:08:27Z</time>
      </trkpt>
      <trkpt lat="43.52889" lon="5.56709">
        <ele>454.6</ele>
        <time>2023-05-28T12:08:28Z</time>
      </trkpt>
      <trkpt lat="43.52889" lon="5.56707">
        <ele>454.7</ele>
        <time>2023-05-28T12:08:29Z</time>
      </trkpt>
      <trkpt lat="43.52889" lon="5.56706">
        <ele>454.8</ele>
        <time>2023-05-28T12:08:30Z</time>
      </trkpt>
      <trkpt lat="43.52889" lon="5.56705">
        <ele>454.9</ele>
        <time>2023-05-28T12:08:31Z</time>
      </trkpt>
      <trkpt lat="43.52889" lon="5.56703">
        <ele>454.9</ele>
        <time>2023-05-28T12:08:32Z</time>
      </trkpt>
      <trkpt lat="43.52889" lon="5.56702">
        <ele>455</ele>
        <time>2023-05-28T12:08:33Z</time>
      </trkpt>
      <trkpt lat="43.52889" lon="5.56701">
        <ele>455.2</ele>
        <time>2023-05-28T12:08:34Z</time>
      </trkpt>
      <trkpt lat="43.52889" lon="5.567">
        <ele>455.2</ele>
        <time>2023-05-28T12:08:35Z</time>
      </trkpt>
      <trkpt lat="43.52889" lon="5.56698">
        <ele>455.2</ele>
        <time>2023-05-28T12:08:36Z</time>
      </trkpt>
      <trkpt lat="43.52889" lon="5.56697">
        <ele>455.1</ele>
        <time>2023-05-28T12:08:37Z</time>
      </trkpt>
      <trkpt lat="43.5289" lon="5.56695">
        <ele>455</ele>
        <time>2023-05-28T12:08:38Z</time>
      </trkpt>
      <trkpt lat="43.5289" lon="5.56694">
        <ele>454.9</ele>
        <time>2023-05-28T12:08:39Z</time>
      </trkpt>
      <trkpt lat="43.5289" lon="5.56692">
        <ele>454.7</ele>
        <time>2023-05-28T12:08:40Z</time>
      </trkpt>
      <trkpt lat="43.5289" lon="5.56691">
        <ele>454.6</ele>
        <time>2023-05-28T12:08:41Z</time>
      </trkpt>
      <trkpt lat="43.5289" lon="5.5669">
        <ele>454.6</ele>
        <time>2023-05-28T12:08:42Z</time>
      </trkpt>
      <trkpt lat="43.5289" lon="5.56688">
        <ele>454.5</ele>
        <time>2023-05-28T12:08:43Z</time>
      </trkpt>
      <trkpt lat="43.52891" lon="5.56687">
        <ele>454.4</ele>
        <time>2023-05-28T12:08:44Z</time>
      </trkpt>
      <trkpt lat="43.52891" lon="5.56685">
        <ele>454.3</ele>
        <time>2023-05-28T12:08:45Z</time>
      </trkpt>
      <trkpt lat="43.52891" lon="5.56684">
        <ele>454.3</ele>
        <time>2023-05-28T12:08:46Z</time>
      </trkpt>
      <trkpt lat="43.52891" lon="5.56683">
        <ele>454.2</ele>
        <time>2023-05-28T12:08:47Z</time>
      </trkpt>
      <trkpt lat="43.52891" lon="5.56682">
        <ele>454.2</ele>
        <time>2023-05-28T12:08:48Z</time>
      </trkpt>
      <trkpt lat="43.52892" lon="5.56681">
        <ele>453.9</ele>
        <time>2023-05-28T12:08:49Z</time>
      </trkpt>
      <trkpt lat="43.52892" lon="5.5668">
        <ele>453.8</ele>
        <time>2023-05-28T12:08:50Z</time>
      </trkpt>
      <trkpt lat="43.52892" lon="5.56679">
        <ele>453.6</ele>
        <time>2023-05-28T12:08:51Z</time>
      </trkpt>
      <trkpt lat="43.52892" lon="5.56678">
        <ele>453.4</ele>
        <time>2023-05-28T12:08:52Z</time>
      </trkpt>
      <trkpt lat="43.52893" lon="5.56677">
        <ele>453.3</ele>
        <time>2023-05-28T12:08:53Z</time>
      </trkpt>
      <trkpt lat="43.52893" lon="5.56676">
        <ele>453.1</ele>
        <time>2023-05-28T12:08:54Z</time>
      </trkpt>
      <trkpt lat="43.52893" lon="5.56674">
        <ele>452.9</ele>
        <time>2023-05-28T12:08:55Z</time>
      </trkpt>
      <trkpt lat="43.52894" lon="5.56673">
        <ele>452.7</ele>
        <time>2023-05-28T12:08:56Z</time>
      </trkpt>
      <trkpt lat="43.52894" lon="5.56671">
        <ele>452.5</ele>
        <time>2023-05-28T12:08:57Z</time>
      </trkpt>
      <trkpt lat="43.52894" lon="5.5667">
        <ele>452.3</ele>
        <time>2023-05-28T12:08:58Z</time>
      </trkpt>
      <trkpt lat="43.52894" lon="5.56669">
        <ele>452</ele>
        <time>2023-05-28T12:08:59Z</time>
      </trkpt>
      <trkpt lat="43.52894" lon="5.56668">
        <ele>451.7</ele>
        <time>2023-05-28T12:09:00Z</time>
      </trkpt>
      <trkpt lat="43.52894" lon="5.56666">
        <ele>451.5</ele>
        <time>2023-05-28T12:09:01Z</time>
      </trkpt>
      <trkpt lat="43.52894" lon="5.56665">
        <ele>451.3</ele>
        <time>2023-05-28T12:09:02Z</time>
      </trkpt>
      <trkpt lat="43.52894" lon="5.56664">
        <ele>451.1</ele>
        <time>2023-05-28T12:09:03Z</time>
      </trkpt>
      <trkpt lat="43.52894" lon="5.56662">
        <ele>450.9</ele>
        <time>2023-05-28T12:09:04Z</time>
      </trkpt>
      <trkpt lat="43.52894" lon="5.56661">
        <ele>450.6</ele>
        <time>2023-05-28T12:09:05Z</time>
      </trkpt>
      <trkpt lat="43.52895" lon="5.5666">
        <ele>450.6</ele>
        <time>2023-05-28T12:09:06Z</time>
      </trkpt>
      <trkpt lat="43.52895" lon="5.56659">
        <ele>450.4</ele>
        <time>2023-05-28T12:09:07Z</time>
      </trkpt>
      <trkpt lat="43.52895" lon="5.56657">
        <ele>450.3</ele>
        <time>2023-05-28T12:09:08Z</time>
      </trkpt>
      <trkpt lat="43.52895" lon="5.56656">
        <ele>450.2</ele>
        <time>2023-05-28T12:09:09Z</time>
      </trkpt>
      <trkpt lat="43.52895" lon="5.56655">
        <ele>450</ele>
        <time>2023-05-28T12:09:10Z</time>
      </trkpt>
      <trkpt lat="43.52895" lon="5.56654">
        <ele>449.9</ele>
        <time>2023-05-28T12:09:11Z</time>
      </trkpt>
      <trkpt lat="43.52896" lon="5.56652">
        <ele>449.8</ele>
        <time>2023-05-28T12:09:12Z</time>
      </trkpt>
      <trkpt lat="43.52897" lon="5.56651">
        <ele>449.6</ele>
        <time>2023-05-28T12:09:13Z</time>
      </trkpt>
      <trkpt lat="43.52898" lon="5.56649">
        <ele>449.5</ele>
        <time>2023-05-28T12:09:14Z</time>
      </trkpt>
      <trkpt lat="43.52898" lon="5.56648">
        <ele>449.4</ele>
        <time>2023-05-28T12:09:15Z</time>
      </trkpt>
      <trkpt lat="43.52898" lon="5.56647">
        <ele>449.4</ele>
        <time>2023-05-28T12:09:16Z</time>
      </trkpt>
      <trkpt lat="43.52898" lon="5.56645">
        <ele>449.3</ele>
        <time>2023-05-28T12:09:17Z</time>
      </trkpt>
      <trkpt lat="43.52899" lon="5.56644">
        <ele>449.2</ele>
        <time>2023-05-28T12:09:18Z</time>
      </trkpt>
      <trkpt lat="43.52899" lon="5.56643">
        <ele>449.2</ele>
        <time>2023-05-28T12:09:19Z</time>
      </trkpt>
      <trkpt lat="43.52899" lon="5.56642">
        <ele>449.1</ele>
        <time>2023-05-28T12:09:20Z</time>
      </trkpt>
      <trkpt lat="43.52899" lon="5.5664">
        <ele>449</ele>
        <time>2023-05-28T12:09:21Z</time>
      </trkpt>
      <trkpt lat="43.529" lon="5.56639">
        <ele>449</ele>
        <time>2023-05-28T12:09:22Z</time>
      </trkpt>
      <trkpt lat="43.529" lon="5.56637">
        <ele>449</ele>
        <time>2023-05-28T12:09:23Z</time>
      </trkpt>
      <trkpt lat="43.52901" lon="5.56635">
        <ele>449</ele>
        <time>2023-05-28T12:09:24Z</time>
      </trkpt>
      <trkpt lat="43.52901" lon="5.56634">
        <ele>448.9</ele>
        <time>2023-05-28T12:09:25Z</time>
      </trkpt>
      <trkpt lat="43.52902" lon="5.56632">
        <ele>448.8</ele>
        <time>2023-05-28T12:09:26Z</time>
      </trkpt>
      <trkpt lat="43.52902" lon="5.56631">
        <ele>448.6</ele>
        <time>2023-05-28T12:09:27Z</time>
      </trkpt>
      <trkpt lat="43.52903" lon="5.56629">
        <ele>448.5</ele>
        <time>2023-05-28T12:09:28Z</time>
      </trkpt>
      <trkpt lat="43.52903" lon="5.56628">
        <ele>448.4</ele>
        <time>2023-05-28T12:09:29Z</time>
      </trkpt>
      <trkpt lat="43.52904" lon="5.56626">
        <ele>448.4</ele>
        <time>2023-05-28T12:09:30Z</time>
      </trkpt>
      <trkpt lat="43.52904" lon="5.56625">
        <ele>448.5</ele>
        <time>2023-05-28T12:09:31Z</time>
      </trkpt>
      <trkpt lat="43.52905" lon="5.56624">
        <ele>448.6</ele>
        <time>2023-05-28T12:09:32Z</time>
      </trkpt>
      <trkpt lat="43.52905" lon="5.56622">
        <ele>448.6</ele>
        <time>2023-05-28T12:09:33Z</time>
      </trkpt>
      <trkpt lat="43.52905" lon="5.56621">
        <ele>448.7</ele>
        <time>2023-05-28T12:09:34Z</time>
      </trkpt>
      <trkpt lat="43.52905" lon="5.56619">
        <ele>448.7</ele>
        <time>2023-05-28T12:09:35Z</time>
      </trkpt>
      <trkpt lat="43.52906" lon="5.56618">
        <ele>448.8</ele>
        <time>2023-05-28T12:09:36Z</time>
      </trkpt>
      <trkpt lat="43.52906" lon="5.56616">
        <ele>448.7</ele>
        <time>2023-05-28T12:09:37Z</time>
      </trkpt>
      <trkpt lat="43.52907" lon="5.56615">
        <ele>448.7</ele>
        <time>2023-05-28T12:09:38Z</time>
      </trkpt>
      <trkpt lat="43.52907" lon="5.56614">
        <ele>448.7</ele>
        <time>2023-05-28T12:09:39Z</time>
      </trkpt>
      <trkpt lat="43.52907" lon="5.56613">
        <ele>448.7</ele>
        <time>2023-05-28T12:09:40Z</time>
      </trkpt>
      <trkpt lat="43.52907" lon="5.56611">
        <ele>448.7</ele>
        <time>2023-05-28T12:09:41Z</time>
      </trkpt>
      <trkpt lat="43.52908" lon="5.5661">
        <ele>448.7</ele>
        <time>2023-05-28T12:09:42Z</time>
      </trkpt>
      <trkpt lat="43.52908" lon="5.56609">
        <ele>448.6</ele>
        <time>2023-05-28T12:09:43Z</time>
      </trkpt>
      <trkpt lat="43.52908" lon="5.56607">
        <ele>448.6</ele>
        <time>2023-05-28T12:09:44Z</time>
      </trkpt>
      <trkpt lat="43.52908" lon="5.56606">
        <ele>448.6</ele>
        <time>2023-05-28T12:09:45Z</time>
      </trkpt>
      <trkpt lat="43.52909" lon="5.56604">
        <ele>448.6</ele>
        <time>2023-05-28T12:09:46Z</time>
      </trkpt>
      <trkpt lat="43.52909" lon="5.56603">
        <ele>448.6</ele>
        <time>2023-05-28T12:09:47Z</time>
      </trkpt>
      <trkpt lat="43.52909" lon="5.56601">
        <ele>448.6</ele>
        <time>2023-05-28T12:09:48Z</time>
      </trkpt>
      <trkpt lat="43.5291" lon="5.566">
        <ele>448.5</ele>
        <time>2023-05-28T12:09:49Z</time>
      </trkpt>
      <trkpt lat="43.5291" lon="5.56599">
        <ele>448.4</ele>
        <time>2023-05-28T12:09:50Z</time>
      </trkpt>
      <trkpt lat="43.5291" lon="5.56598">
        <ele>448.3</ele>
        <time>2023-05-28T12:09:51Z</time>
      </trkpt>
      <trkpt lat="43.5291" lon="5.56596">
        <ele>448.3</ele>
        <time>2023-05-28T12:09:52Z</time>
      </trkpt>
      <trkpt lat="43.52911" lon="5.56595">
        <ele>448.2</ele>
        <time>2023-05-28T12:09:53Z</time>
      </trkpt>
      <trkpt lat="43.52911" lon="5.56593">
        <ele>448.2</ele>
        <time>2023-05-28T12:09:54Z</time>
      </trkpt>
      <trkpt lat="43.52911" lon="5.56592">
        <ele>448.1</ele>
        <time>2023-05-28T12:09:55Z</time>
      </trkpt>
      <trkpt lat="43.52911" lon="5.5659">
        <ele>448.1</ele>
        <time>2023-05-28T12:09:56Z</time>
      </trkpt>
      <trkpt lat="43.52912" lon="5.56588">
        <ele>448.1</ele>
        <time>2023-05-28T12:09:57Z</time>
      </trkpt>
      <trkpt lat="43.52913" lon="5.56586">
        <ele>448.1</ele>
        <time>2023-05-28T12:09:58Z</time>
      </trkpt>
      <trkpt lat="43.52914" lon="5.56585">
        <ele>448</ele>
        <time>2023-05-28T12:09:59Z</time>
      </trkpt>
      <trkpt lat="43.52914" lon="5.56584">
        <ele>447.9</ele>
        <time>2023-05-28T12:10:00Z</time>
      </trkpt>
      <trkpt lat="43.52914" lon="5.56582">
        <ele>447.8</ele>
        <time>2023-05-28T12:10:01Z</time>
      </trkpt>
      <trkpt lat="43.52914" lon="5.56581">
        <ele>447.7</ele>
        <time>2023-05-28T12:10:02Z</time>
      </trkpt>
      <trkpt lat="43.52914" lon="5.5658">
        <ele>447.6</ele>
        <time>2023-05-28T12:10:03Z</time>
      </trkpt>
      <trkpt lat="43.52914" lon="5.56578">
        <ele>447.5</ele>
        <time>2023-05-28T12:10:04Z</time>
      </trkpt>
      <trkpt lat="43.52915" lon="5.56577">
        <ele>447.4</ele>
        <time>2023-05-28T12:10:05Z</time>
      </trkpt>
      <trkpt lat="43.52916" lon="5.56575">
        <ele>447.4</ele>
        <time>2023-05-28T12:10:06Z</time>
      </trkpt>
      <trkpt lat="43.52916" lon="5.56573">
        <ele>447.3</ele>
        <time>2023-05-28T12:10:07Z</time>
      </trkpt>
      <trkpt lat="43.52917" lon="5.56572">
        <ele>447.3</ele>
        <time>2023-05-28T12:10:08Z</time>
      </trkpt>
      <trkpt lat="43.52917" lon="5.56571">
        <ele>447.2</ele>
        <time>2023-05-28T12:10:09Z</time>
      </trkpt>
      <trkpt lat="43.52917" lon="5.56569">
        <ele>447.1</ele>
        <time>2023-05-28T12:10:10Z</time>
      </trkpt>
      <trkpt lat="43.52918" lon="5.56568">
        <ele>447</ele>
        <time>2023-05-28T12:10:11Z</time>
      </trkpt>
      <trkpt lat="43.52919" lon="5.56567">
        <ele>447</ele>
        <time>2023-05-28T12:10:12Z</time>
      </trkpt>
      <trkpt lat="43.52919" lon="5.56566">
        <ele>446.9</ele>
        <time>2023-05-28T12:10:13Z</time>
      </trkpt>
      <trkpt lat="43.52919" lon="5.56564">
        <ele>446.8</ele>
        <time>2023-05-28T12:10:14Z</time>
      </trkpt>
      <trkpt lat="43.5292" lon="5.56562">
        <ele>446.7</ele>
        <time>2023-05-28T12:10:15Z</time>
      </trkpt>
      <trkpt lat="43.5292" lon="5.5656">
        <ele>446.6</ele>
        <time>2023-05-28T12:10:16Z</time>
      </trkpt>
      <trkpt lat="43.52921" lon="5.56558">
        <ele>446.4</ele>
        <time>2023-05-28T12:10:17Z</time>
      </trkpt>
      <trkpt lat="43.5292" lon="5.56556">
        <ele>446.3</ele>
        <time>2023-05-28T12:10:18Z</time>
      </trkpt>
      <trkpt lat="43.5292" lon="5.56555">
        <ele>446.2</ele>
        <time>2023-05-28T12:10:19Z</time>
      </trkpt>
      <trkpt lat="43.5292" lon="5.56553">
        <ele>446</ele>
        <time>2023-05-28T12:10:20Z</time>
      </trkpt>
      <trkpt lat="43.5292" lon="5.56552">
        <ele>445.9</ele>
        <time>2023-05-28T12:10:21Z</time>
      </trkpt>
      <trkpt lat="43.5292" lon="5.56551">
        <ele>445.7</ele>
        <time>2023-05-28T12:10:22Z</time>
      </trkpt>
      <trkpt lat="43.5292" lon="5.56549">
        <ele>445.6</ele>
        <time>2023-05-28T12:10:23Z</time>
      </trkpt>
      <trkpt lat="43.5292" lon="5.56548">
        <ele>445.4</ele>
        <time>2023-05-28T12:10:24Z</time>
      </trkpt>
      <trkpt lat="43.5292" lon="5.56547">
        <ele>445.1</ele>
        <time>2023-05-28T12:10:25Z</time>
      </trkpt>
      <trkpt lat="43.5292" lon="5.56546">
        <ele>444.9</ele>
        <time>2023-05-28T12:10:26Z</time>
      </trkpt>
      <trkpt lat="43.5292" lon="5.56544">
        <ele>444.7</ele>
        <time>2023-05-28T12:10:27Z</time>
      </trkpt>
      <trkpt lat="43.5292" lon="5.56543">
        <ele>444.6</ele>
        <time>2023-05-28T12:10:28Z</time>
      </trkpt>
      <trkpt lat="43.5292" lon="5.56542">
        <ele>444.5</ele>
        <time>2023-05-28T12:10:29Z</time>
      </trkpt>
      <trkpt lat="43.52919" lon="5.56539">
        <ele>444.3</ele>
        <time>2023-05-28T12:10:30Z</time>
      </trkpt>
      <trkpt lat="43.52918" lon="5.56538">
        <ele>444</ele>
        <time>2023-05-28T12:10:31Z</time>
      </trkpt>
      <trkpt lat="43.52918" lon="5.56537">
        <ele>443.9</ele>
        <time>2023-05-28T12:10:32Z</time>
      </trkpt>
      <trkpt lat="43.52917" lon="5.56535">
        <ele>443.8</ele>
        <time>2023-05-28T12:10:33Z</time>
      </trkpt>
      <trkpt lat="43.52917" lon="5.56533">
        <ele>443.7</ele>
        <time>2023-05-28T12:10:34Z</time>
      </trkpt>
      <trkpt lat="43.52917" lon="5.56532">
        <ele>443.6</ele>
        <time>2023-05-28T12:10:35Z</time>
      </trkpt>
      <trkpt lat="43.52916" lon="5.5653">
        <ele>443.5</ele>
        <time>2023-05-28T12:10:36Z</time>
      </trkpt>
      <trkpt lat="43.52915" lon="5.56529">
        <ele>443.5</ele>
        <time>2023-05-28T12:10:37Z</time>
      </trkpt>
      <trkpt lat="43.52915" lon="5.56527">
        <ele>443.5</ele>
        <time>2023-05-28T12:10:38Z</time>
      </trkpt>
      <trkpt lat="43.52914" lon="5.56526">
        <ele>443.3</ele>
        <time>2023-05-28T12:10:39Z</time>
      </trkpt>
      <trkpt lat="43.52914" lon="5.56524">
        <ele>443.3</ele>
        <time>2023-05-28T12:10:40Z</time>
      </trkpt>
      <trkpt lat="43.52914" lon="5.56523">
        <ele>443.1</ele>
        <time>2023-05-28T12:10:41Z</time>
      </trkpt>
      <trkpt lat="43.52913" lon="5.56521">
        <ele>443.1</ele>
        <time>2023-05-28T12:10:42Z</time>
      </trkpt>
      <trkpt lat="43.52912" lon="5.56519">
        <ele>442.9</ele>
        <time>2023-05-28T12:10:43Z</time>
      </trkpt>
      <trkpt lat="43.52911" lon="5.56517">
        <ele>442.9</ele>
        <time>2023-05-28T12:10:44Z</time>
      </trkpt>
      <trkpt lat="43.5291" lon="5.56516">
        <ele>442.9</ele>
        <time>2023-05-28T12:10:45Z</time>
      </trkpt>
      <trkpt lat="43.52909" lon="5.56515">
        <ele>442.8</ele>
        <time>2023-05-28T12:10:46Z</time>
      </trkpt>
      <trkpt lat="43.52909" lon="5.56513">
        <ele>442.8</ele>
        <time>2023-05-28T12:10:47Z</time>
      </trkpt>
      <trkpt lat="43.52908" lon="5.56512">
        <ele>442.8</ele>
        <time>2023-05-28T12:10:48Z</time>
      </trkpt>
      <trkpt lat="43.52907" lon="5.56511">
        <ele>442.7</ele>
        <time>2023-05-28T12:10:49Z</time>
      </trkpt>
      <trkpt lat="43.52907" lon="5.56509">
        <ele>442.6</ele>
        <time>2023-05-28T12:10:50Z</time>
      </trkpt>
      <trkpt lat="43.52906" lon="5.56508">
        <ele>442.5</ele>
        <time>2023-05-28T12:10:51Z</time>
      </trkpt>
      <trkpt lat="43.52905" lon="5.56506">
        <ele>442.5</ele>
        <time>2023-05-28T12:10:52Z</time>
      </trkpt>
      <trkpt lat="43.52904" lon="5.56504">
        <ele>442.5</ele>
        <time>2023-05-28T12:10:53Z</time>
      </trkpt>
      <trkpt lat="43.52903" lon="5.56503">
        <ele>442.4</ele>
        <time>2023-05-28T12:10:54Z</time>
      </trkpt>
      <trkpt lat="43.52902" lon="5.56502">
        <ele>442.3</ele>
        <time>2023-05-28T12:10:55Z</time>
      </trkpt>
      <trkpt lat="43.52901" lon="5.565">
        <ele>442.3</ele>
        <time>2023-05-28T12:10:56Z</time>
      </trkpt>
      <trkpt lat="43.52901" lon="5.56498">
        <ele>442.4</ele>
        <time>2023-05-28T12:10:57Z</time>
      </trkpt>
      <trkpt lat="43.529" lon="5.56496">
        <ele>442.4</ele>
        <time>2023-05-28T12:10:58Z</time>
      </trkpt>
      <trkpt lat="43.529" lon="5.56494">
        <ele>442.4</ele>
        <time>2023-05-28T12:10:59Z</time>
      </trkpt>
      <trkpt lat="43.52899" lon="5.56492">
        <ele>442.4</ele>
        <time>2023-05-28T12:11:00Z</time>
      </trkpt>
      <trkpt lat="43.52899" lon="5.56491">
        <ele>442.3</ele>
        <time>2023-05-28T12:11:01Z</time>
      </trkpt>
      <trkpt lat="43.52898" lon="5.56489">
        <ele>442.3</ele>
        <time>2023-05-28T12:11:02Z</time>
      </trkpt>
      <trkpt lat="43.52898" lon="5.56487">
        <ele>442.3</ele>
        <time>2023-05-28T12:11:03Z</time>
      </trkpt>
      <trkpt lat="43.52897" lon="5.56486">
        <ele>442.3</ele>
        <time>2023-05-28T12:11:04Z</time>
      </trkpt>
      <trkpt lat="43.52897" lon="5.56484">
        <ele>442.3</ele>
        <time>2023-05-28T12:11:05Z</time>
      </trkpt>
      <trkpt lat="43.52896" lon="5.56483">
        <ele>442.4</ele>
        <time>2023-05-28T12:11:06Z</time>
      </trkpt>
      <trkpt lat="43.52896" lon="5.56481">
        <ele>442.3</ele>
        <time>2023-05-28T12:11:07Z</time>
      </trkpt>
      <trkpt lat="43.52895" lon="5.56479">
        <ele>442.4</ele>
        <time>2023-05-28T12:11:08Z</time>
      </trkpt>
      <trkpt lat="43.52894" lon="5.56478">
        <ele>442.3</ele>
        <time>2023-05-28T12:11:09Z</time>
      </trkpt>
      <trkpt lat="43.52894" lon="5.56476">
        <ele>442.2</ele>
        <time>2023-05-28T12:11:10Z</time>
      </trkpt>
      <trkpt lat="43.52894" lon="5.56475">
        <ele>442.2</ele>
        <time>2023-05-28T12:11:11Z</time>
      </trkpt>
      <trkpt lat="43.52893" lon="5.56473">
        <ele>442.1</ele>
        <time>2023-05-28T12:11:12Z</time>
      </trkpt>
      <trkpt lat="43.52893" lon="5.56471">
        <ele>442</ele>
        <time>2023-05-28T12:11:13Z</time>
      </trkpt>
      <trkpt lat="43.52892" lon="5.5647">
        <ele>441.9</ele>
        <time>2023-05-28T12:11:14Z</time>
      </trkpt>
      <trkpt lat="43.52892" lon="5.56468">
        <ele>441.9</ele>
        <time>2023-05-28T12:11:15Z</time>
      </trkpt>
      <trkpt lat="43.52891" lon="5.56467">
        <ele>442</ele>
        <time>2023-05-28T12:11:16Z</time>
      </trkpt>
      <trkpt lat="43.52891" lon="5.56466">
        <ele>441.9</ele>
        <time>2023-05-28T12:11:17Z</time>
      </trkpt>
      <trkpt lat="43.52891" lon="5.56464">
        <ele>441.9</ele>
        <time>2023-05-28T12:11:18Z</time>
      </trkpt>
      <trkpt lat="43.5289" lon="5.56463">
        <ele>442.1</ele>
        <time>2023-05-28T12:11:19Z</time>
      </trkpt>
      <trkpt lat="43.5289" lon="5.56461">
        <ele>442.2</ele>
        <time>2023-05-28T12:11:20Z</time>
      </trkpt>
      <trkpt lat="43.52889" lon="5.5646">
        <ele>442.3</ele>
        <time>2023-05-28T12:11:21Z</time>
      </trkpt>
      <trkpt lat="43.52889" lon="5.56459">
        <ele>442.4</ele>
        <time>2023-05-28T12:11:22Z</time>
      </trkpt>
      <trkpt lat="43.5289" lon="5.56457">
        <ele>442.5</ele>
        <time>2023-05-28T12:11:23Z</time>
      </trkpt>
      <trkpt lat="43.5289" lon="5.56455">
        <ele>442.5</ele>
        <time>2023-05-28T12:11:24Z</time>
      </trkpt>
      <trkpt lat="43.5289" lon="5.56454">
        <ele>442.4</ele>
        <time>2023-05-28T12:11:25Z</time>
      </trkpt>
      <trkpt lat="43.5289" lon="5.56452">
        <ele>442.4</ele>
        <time>2023-05-28T12:11:26Z</time>
      </trkpt>
      <trkpt lat="43.52889" lon="5.56451">
        <ele>442.4</ele>
        <time>2023-05-28T12:11:27Z</time>
      </trkpt>
      <trkpt lat="43.52889" lon="5.5645">
        <ele>442.4</ele>
        <time>2023-05-28T12:11:28Z</time>
      </trkpt>
      <trkpt lat="43.52889" lon="5.56449">
        <ele>442.4</ele>
        <time>2023-05-28T12:11:29Z</time>
      </trkpt>
      <trkpt lat="43.52888" lon="5.56447">
        <ele>442.5</ele>
        <time>2023-05-28T12:11:30Z</time>
      </trkpt>
      <trkpt lat="43.52888" lon="5.56445">
        <ele>442.5</ele>
        <time>2023-05-28T12:11:31Z</time>
      </trkpt>
      <trkpt lat="43.52888" lon="5.56444">
        <ele>442.5</ele>
        <time>2023-05-28T12:11:32Z</time>
      </trkpt>
      <trkpt lat="43.52887" lon="5.56443">
        <ele>442.4</ele>
        <time>2023-05-28T12:11:33Z</time>
      </trkpt>
      <trkpt lat="43.52887" lon="5.56441">
        <ele>442.4</ele>
        <time>2023-05-28T12:11:34Z</time>
      </trkpt>
      <trkpt lat="43.52887" lon="5.5644">
        <ele>442.5</ele>
        <time>2023-05-28T12:11:35Z</time>
      </trkpt>
      <trkpt lat="43.52886" lon="5.56438">
        <ele>442.5</ele>
        <time>2023-05-28T12:11:36Z</time>
      </trkpt>
      <trkpt lat="43.52885" lon="5.56437">
        <ele>442.6</ele>
        <time>2023-05-28T12:11:37Z</time>
      </trkpt>
      <trkpt lat="43.52884" lon="5.56436">
        <ele>442.7</ele>
        <time>2023-05-28T12:11:38Z</time>
      </trkpt>
      <trkpt lat="43.52883" lon="5.56434">
        <ele>442.7</ele>
        <time>2023-05-28T12:11:39Z</time>
      </trkpt>
      <trkpt lat="43.52883" lon="5.56433">
        <ele>442.9</ele>
        <time>2023-05-28T12:11:40Z</time>
      </trkpt>
      <trkpt lat="43.52882" lon="5.56432">
        <ele>443</ele>
        <time>2023-05-28T12:11:41Z</time>
      </trkpt>
      <trkpt lat="43.52882" lon="5.5643">
        <ele>443</ele>
        <time>2023-05-28T12:11:42Z</time>
      </trkpt>
      <trkpt lat="43.52882" lon="5.56429">
        <ele>443.1</ele>
        <time>2023-05-28T12:11:43Z</time>
      </trkpt>
      <trkpt lat="43.52881" lon="5.56427">
        <ele>443.1</ele>
        <time>2023-05-28T12:11:44Z</time>
      </trkpt>
      <trkpt lat="43.52881" lon="5.56426">
        <ele>443.1</ele>
        <time>2023-05-28T12:11:45Z</time>
      </trkpt>
      <trkpt lat="43.5288" lon="5.56425">
        <ele>443.1</ele>
        <time>2023-05-28T12:11:46Z</time>
      </trkpt>
      <trkpt lat="43.5288" lon="5.56423">
        <ele>443.2</ele>
        <time>2023-05-28T12:11:47Z</time>
      </trkpt>
      <trkpt lat="43.52879" lon="5.56422">
        <ele>443.2</ele>
        <time>2023-05-28T12:11:48Z</time>
      </trkpt>
      <trkpt lat="43.52878" lon="5.5642">
        <ele>443.2</ele>
        <time>2023-05-28T12:11:49Z</time>
      </trkpt>
      <trkpt lat="43.52878" lon="5.56419">
        <ele>443.3</ele>
        <time>2023-05-28T12:11:50Z</time>
      </trkpt>
      <trkpt lat="43.52877" lon="5.56417">
        <ele>443.2</ele>
        <time>2023-05-28T12:11:51Z</time>
      </trkpt>
      <trkpt lat="43.52877" lon="5.56416">
        <ele>443.1</ele>
        <time>2023-05-28T12:11:52Z</time>
      </trkpt>
      <trkpt lat="43.52877" lon="5.56414">
        <ele>443.1</ele>
        <time>2023-05-28T12:11:53Z</time>
      </trkpt>
      <trkpt lat="43.52876" lon="5.56412">
        <ele>443.1</ele>
        <time>2023-05-28T12:11:54Z</time>
      </trkpt>
      <trkpt lat="43.52876" lon="5.56411">
        <ele>443</ele>
        <time>2023-05-28T12:11:55Z</time>
      </trkpt>
      <trkpt lat="43.52875" lon="5.56409">
        <ele>443</ele>
        <time>2023-05-28T12:11:56Z</time>
      </trkpt>
      <trkpt lat="43.52875" lon="5.56408">
        <ele>443</ele>
        <time>2023-05-28T12:11:57Z</time>
      </trkpt>
      <trkpt lat="43.52874" lon="5.56407">
        <ele>443</ele>
        <time>2023-05-28T12:11:58Z</time>
      </trkpt>
      <trkpt lat="43.52874" lon="5.56406">
        <ele>443</ele>
        <time>2023-05-28T12:11:59Z</time>
      </trkpt>
      <trkpt lat="43.52874" lon="5.56404">
        <ele>443</ele>
        <time>2023-05-28T12:12:00Z</time>
      </trkpt>
      <trkpt lat="43.52874" lon="5.56402">
        <ele>442.9</ele>
        <time>2023-05-28T12:12:01Z</time>
      </trkpt>
      <trkpt lat="43.52874" lon="5.56401">
        <ele>442.9</ele>
        <time>2023-05-28T12:12:02Z</time>
      </trkpt>
      <trkpt lat="43.52874" lon="5.56399">
        <ele>442.9</ele>
        <time>2023-05-28T12:12:03Z</time>
      </trkpt>
      <trkpt lat="43.52874" lon="5.56397">
        <ele>442.8</ele>
        <time>2023-05-28T12:12:04Z</time>
      </trkpt>
      <trkpt lat="43.52874" lon="5.56396">
        <ele>442.7</ele>
        <time>2023-05-28T12:12:05Z</time>
      </trkpt>
      <trkpt lat="43.52873" lon="5.56394">
        <ele>442.7</ele>
        <time>2023-05-28T12:12:06Z</time>
      </trkpt>
      <trkpt lat="43.52873" lon="5.56393">
        <ele>442.7</ele>
        <time>2023-05-28T12:12:07Z</time>
      </trkpt>
      <trkpt lat="43.52873" lon="5.56391">
        <ele>442.6</ele>
        <time>2023-05-28T12:12:08Z</time>
      </trkpt>
      <trkpt lat="43.52873" lon="5.5639">
        <ele>442.6</ele>
        <time>2023-05-28T12:12:09Z</time>
      </trkpt>
      <trkpt lat="43.52873" lon="5.56388">
        <ele>442.6</ele>
        <time>2023-05-28T12:12:10Z</time>
      </trkpt>
      <trkpt lat="43.52873" lon="5.56387">
        <ele>442.5</ele>
        <time>2023-05-28T12:12:11Z</time>
      </trkpt>
      <trkpt lat="43.52873" lon="5.56385">
        <ele>442.4</ele>
        <time>2023-05-28T12:12:12Z</time>
      </trkpt>
      <trkpt lat="43.52872" lon="5.56384">
        <ele>442.3</ele>
        <time>2023-05-28T12:12:13Z</time>
      </trkpt>
      <trkpt lat="43.52872" lon="5.56383">
        <ele>442.2</ele>
        <time>2023-05-28T12:12:14Z</time>
      </trkpt>
      <trkpt lat="43.52872" lon="5.56381">
        <ele>442.2</ele>
        <time>2023-05-28T12:12:15Z</time>
      </trkpt>
      <trkpt lat="43.52872" lon="5.5638">
        <ele>442.2</ele>
        <time>2023-05-28T12:12:16Z</time>
      </trkpt>
      <trkpt lat="43.52872" lon="5.56378">
        <ele>442.1</ele>
        <time>2023-05-28T12:12:17Z</time>
      </trkpt>
      <trkpt lat="43.52872" lon="5.56376">
        <ele>442.1</ele>
        <time>2023-05-28T12:12:18Z</time>
      </trkpt>
      <trkpt lat="43.52872" lon="5.56375">
        <ele>442</ele>
        <time>2023-05-28T12:12:19Z</time>
      </trkpt>
      <trkpt lat="43.52872" lon="5.56373">
        <ele>442</ele>
        <time>2023-05-28T12:12:20Z</time>
      </trkpt>
      <trkpt lat="43.52871" lon="5.56371">
        <ele>442</ele>
        <time>2023-05-28T12:12:21Z</time>
      </trkpt>
      <trkpt lat="43.52871" lon="5.5637">
        <ele>441.9</ele>
        <time>2023-05-28T12:12:22Z</time>
      </trkpt>
      <trkpt lat="43.52871" lon="5.56368">
        <ele>441.9</ele>
        <time>2023-05-28T12:12:23Z</time>
      </trkpt>
      <trkpt lat="43.52871" lon="5.56367">
        <ele>441.9</ele>
        <time>2023-05-28T12:12:24Z</time>
      </trkpt>
      <trkpt lat="43.5287" lon="5.56365">
        <ele>441.9</ele>
        <time>2023-05-28T12:12:25Z</time>
      </trkpt>
      <trkpt lat="43.5287" lon="5.56363">
        <ele>441.9</ele>
        <time>2023-05-28T12:12:26Z</time>
      </trkpt>
      <trkpt lat="43.5287" lon="5.56362">
        <ele>441.9</ele>
        <time>2023-05-28T12:12:27Z</time>
      </trkpt>
      <trkpt lat="43.5287" lon="5.5636">
        <ele>441.9</ele>
        <time>2023-05-28T12:12:28Z</time>
      </trkpt>
      <trkpt lat="43.5287" lon="5.56358">
        <ele>441.9</ele>
        <time>2023-05-28T12:12:29Z</time>
      </trkpt>
      <trkpt lat="43.5287" lon="5.56357">
        <ele>442</ele>
        <time>2023-05-28T12:12:30Z</time>
      </trkpt>
      <trkpt lat="43.52869" lon="5.56355">
        <ele>442</ele>
        <time>2023-05-28T12:12:31Z</time>
      </trkpt>
      <trkpt lat="43.52869" lon="5.56354">
        <ele>442</ele>
        <time>2023-05-28T12:12:32Z</time>
      </trkpt>
      <trkpt lat="43.52869" lon="5.56352">
        <ele>441.9</ele>
        <time>2023-05-28T12:12:33Z</time>
      </trkpt>
      <trkpt lat="43.52868" lon="5.56351">
        <ele>441.9</ele>
        <time>2023-05-28T12:12:34Z</time>
      </trkpt>
      <trkpt lat="43.52868" lon="5.56349">
        <ele>441.8</ele>
        <time>2023-05-28T12:12:35Z</time>
      </trkpt>
      <trkpt lat="43.52868" lon="5.56347">
        <ele>441.7</ele>
        <time>2023-05-28T12:12:36Z</time>
      </trkpt>
      <trkpt lat="43.52867" lon="5.56346">
        <ele>441.7</ele>
        <time>2023-05-28T12:12:37Z</time>
      </trkpt>
      <trkpt lat="43.52867" lon="5.56344">
        <ele>441.6</ele>
        <time>2023-05-28T12:12:38Z</time>
      </trkpt>
      <trkpt lat="43.52866" lon="5.56343">
        <ele>441.5</ele>
        <time>2023-05-28T12:12:39Z</time>
      </trkpt>
      <trkpt lat="43.52866" lon="5.56341">
        <ele>441.5</ele>
        <time>2023-05-28T12:12:40Z</time>
      </trkpt>
      <trkpt lat="43.52865" lon="5.5634">
        <ele>441.4</ele>
        <time>2023-05-28T12:12:41Z</time>
      </trkpt>
      <trkpt lat="43.52865" lon="5.56338">
        <ele>441.3</ele>
        <time>2023-05-28T12:12:42Z</time>
      </trkpt>
      <trkpt lat="43.52865" lon="5.56337">
        <ele>441.2</ele>
        <time>2023-05-28T12:12:43Z</time>
      </trkpt>
      <trkpt lat="43.52864" lon="5.56335">
        <ele>441.3</ele>
        <time>2023-05-28T12:12:44Z</time>
      </trkpt>
      <trkpt lat="43.52864" lon="5.56334">
        <ele>441.3</ele>
        <time>2023-05-28T12:12:45Z</time>
      </trkpt>
      <trkpt lat="43.52864" lon="5.56332">
        <ele>441.2</ele>
        <time>2023-05-28T12:12:46Z</time>
      </trkpt>
      <trkpt lat="43.52863" lon="5.56331">
        <ele>441.2</ele>
        <time>2023-05-28T12:12:47Z</time>
      </trkpt>
      <trkpt lat="43.52863" lon="5.56329">
        <ele>441.1</ele>
        <time>2023-05-28T12:12:48Z</time>
      </trkpt>
      <trkpt lat="43.52863" lon="5.56328">
        <ele>441.1</ele>
        <time>2023-05-28T12:12:49Z</time>
      </trkpt>
      <trkpt lat="43.52862" lon="5.56326">
        <ele>441.1</ele>
        <time>2023-05-28T12:12:50Z</time>
      </trkpt>
      <trkpt lat="43.52862" lon="5.56325">
        <ele>441.1</ele>
        <time>2023-05-28T12:12:51Z</time>
      </trkpt>
      <trkpt lat="43.52861" lon="5.56323">
        <ele>441</ele>
        <time>2023-05-28T12:12:52Z</time>
      </trkpt>
      <trkpt lat="43.52861" lon="5.56321">
        <ele>441.1</ele>
        <time>2023-05-28T12:12:53Z</time>
      </trkpt>
      <trkpt lat="43.52861" lon="5.56319">
        <ele>441.1</ele>
        <time>2023-05-28T12:12:54Z</time>
      </trkpt>
      <trkpt lat="43.5286" lon="5.56318">
        <ele>441.2</ele>
        <time>2023-05-28T12:12:55Z</time>
      </trkpt>
      <trkpt lat="43.5286" lon="5.56316">
        <ele>441.1</ele>
        <time>2023-05-28T12:12:56Z</time>
      </trkpt>
      <trkpt lat="43.5286" lon="5.56315">
        <ele>441.1</ele>
        <time>2023-05-28T12:12:57Z</time>
      </trkpt>
      <trkpt lat="43.5286" lon="5.56313">
        <ele>441</ele>
        <time>2023-05-28T12:12:58Z</time>
      </trkpt>
      <trkpt lat="43.5286" lon="5.56311">
        <ele>441</ele>
        <time>2023-05-28T12:12:59Z</time>
      </trkpt>
      <trkpt lat="43.5286" lon="5.5631">
        <ele>440.8</ele>
        <time>2023-05-28T12:13:00Z</time>
      </trkpt>
      <trkpt lat="43.5286" lon="5.56308">
        <ele>440.7</ele>
        <time>2023-05-28T12:13:01Z</time>
      </trkpt>
      <trkpt lat="43.5286" lon="5.56306">
        <ele>440.5</ele>
        <time>2023-05-28T12:13:02Z</time>
      </trkpt>
      <trkpt lat="43.5286" lon="5.56305">
        <ele>440.5</ele>
        <time>2023-05-28T12:13:03Z</time>
      </trkpt>
      <trkpt lat="43.52861" lon="5.56303">
        <ele>440.4</ele>
        <time>2023-05-28T12:13:04Z</time>
      </trkpt>
      <trkpt lat="43.52861" lon="5.56301">
        <ele>440.4</ele>
        <time>2023-05-28T12:13:05Z</time>
      </trkpt>
      <trkpt lat="43.5286" lon="5.563">
        <ele>440.3</ele>
        <time>2023-05-28T12:13:06Z</time>
      </trkpt>
      <trkpt lat="43.52861" lon="5.56298">
        <ele>440.1</ele>
        <time>2023-05-28T12:13:07Z</time>
      </trkpt>
      <trkpt lat="43.52861" lon="5.56297">
        <ele>440.1</ele>
        <time>2023-05-28T12:13:08Z</time>
      </trkpt>
      <trkpt lat="43.52861" lon="5.56295">
        <ele>440.1</ele>
        <time>2023-05-28T12:13:09Z</time>
      </trkpt>
      <trkpt lat="43.52861" lon="5.56293">
        <ele>440</ele>
        <time>2023-05-28T12:13:10Z</time>
      </trkpt>
      <trkpt lat="43.52861" lon="5.56292">
        <ele>439.9</ele>
        <time>2023-05-28T12:13:11Z</time>
      </trkpt>
      <trkpt lat="43.52862" lon="5.5629">
        <ele>440</ele>
        <time>2023-05-28T12:13:12Z</time>
      </trkpt>
      <trkpt lat="43.52862" lon="5.56288">
        <ele>440</ele>
        <time>2023-05-28T12:13:13Z</time>
      </trkpt>
      <trkpt lat="43.52863" lon="5.56286">
        <ele>440</ele>
        <time>2023-05-28T12:13:14Z</time>
      </trkpt>
      <trkpt lat="43.52863" lon="5.56285">
        <ele>439.9</ele>
        <time>2023-05-28T12:13:15Z</time>
      </trkpt>
      <trkpt lat="43.52863" lon="5.56283">
        <ele>439.8</ele>
        <time>2023-05-28T12:13:16Z</time>
      </trkpt>
      <trkpt lat="43.52864" lon="5.56281">
        <ele>439.7</ele>
        <time>2023-05-28T12:13:17Z</time>
      </trkpt>
      <trkpt lat="43.52864" lon="5.5628">
        <ele>439.6</ele>
        <time>2023-05-28T12:13:18Z</time>
      </trkpt>
      <trkpt lat="43.52864" lon="5.56278">
        <ele>439.6</ele>
        <time>2023-05-28T12:13:19Z</time>
      </trkpt>
      <trkpt lat="43.52864" lon="5.56276">
        <ele>439.5</ele>
        <time>2023-05-28T12:13:20Z</time>
      </trkpt>
      <trkpt lat="43.52864" lon="5.56275">
        <ele>439.4</ele>
        <time>2023-05-28T12:13:21Z</time>
      </trkpt>
      <trkpt lat="43.52864" lon="5.56273">
        <ele>439.4</ele>
        <time>2023-05-28T12:13:22Z</time>
      </trkpt>
      <trkpt lat="43.52864" lon="5.56271">
        <ele>439.3</ele>
        <time>2023-05-28T12:13:23Z</time>
      </trkpt>
      <trkpt lat="43.52864" lon="5.56269">
        <ele>439.2</ele>
        <time>2023-05-28T12:13:24Z</time>
      </trkpt>
      <trkpt lat="43.52865" lon="5.56268">
        <ele>439</ele>
        <time>2023-05-28T12:13:25Z</time>
      </trkpt>
      <trkpt lat="43.52865" lon="5.56266">
        <ele>438.9</ele>
        <time>2023-05-28T12:13:26Z</time>
      </trkpt>
      <trkpt lat="43.52865" lon="5.56264">
        <ele>438.8</ele>
        <time>2023-05-28T12:13:27Z</time>
      </trkpt>
      <trkpt lat="43.52865" lon="5.56262">
        <ele>438.7</ele>
        <time>2023-05-28T12:13:28Z</time>
      </trkpt>
      <trkpt lat="43.52865" lon="5.5626">
        <ele>438.6</ele>
        <time>2023-05-28T12:13:29Z</time>
      </trkpt>
      <trkpt lat="43.52865" lon="5.56259">
        <ele>438.4</ele>
        <time>2023-05-28T12:13:30Z</time>
      </trkpt>
      <trkpt lat="43.52865" lon="5.56257">
        <ele>438.3</ele>
        <time>2023-05-28T12:13:31Z</time>
      </trkpt>
      <trkpt lat="43.52865" lon="5.56255">
        <ele>438.2</ele>
        <time>2023-05-28T12:13:32Z</time>
      </trkpt>
      <trkpt lat="43.52865" lon="5.56254">
        <ele>438.2</ele>
        <time>2023-05-28T12:13:33Z</time>
      </trkpt>
      <trkpt lat="43.52865" lon="5.56252">
        <ele>438.2</ele>
        <time>2023-05-28T12:13:34Z</time>
      </trkpt>
      <trkpt lat="43.52864" lon="5.5625">
        <ele>438.1</ele>
        <time>2023-05-28T12:13:35Z</time>
      </trkpt>
      <trkpt lat="43.52864" lon="5.56249">
        <ele>438.1</ele>
        <time>2023-05-28T12:13:36Z</time>
      </trkpt>
      <trkpt lat="43.52863" lon="5.56247">
        <ele>438</ele>
        <time>2023-05-28T12:13:37Z</time>
      </trkpt>
      <trkpt lat="43.52863" lon="5.56245">
        <ele>437.9</ele>
        <time>2023-05-28T12:13:38Z</time>
      </trkpt>
      <trkpt lat="43.52863" lon="5.56244">
        <ele>437.8</ele>
        <time>2023-05-28T12:13:39Z</time>
      </trkpt>
      <trkpt lat="43.52863" lon="5.56242">
        <ele>437.8</ele>
        <time>2023-05-28T12:13:40Z</time>
      </trkpt>
      <trkpt lat="43.52863" lon="5.5624">
        <ele>437.8</ele>
        <time>2023-05-28T12:13:41Z</time>
      </trkpt>
      <trkpt lat="43.52863" lon="5.56239">
        <ele>437.9</ele>
        <time>2023-05-28T12:13:42Z</time>
      </trkpt>
      <trkpt lat="43.52862" lon="5.56237">
        <ele>437.9</ele>
        <time>2023-05-28T12:13:43Z</time>
      </trkpt>
      <trkpt lat="43.52862" lon="5.56236">
        <ele>438</ele>
        <time>2023-05-28T12:13:44Z</time>
      </trkpt>
      <trkpt lat="43.52861" lon="5.56234">
        <ele>438</ele>
        <time>2023-05-28T12:13:45Z</time>
      </trkpt>
      <trkpt lat="43.52861" lon="5.56233">
        <ele>437.9</ele>
        <time>2023-05-28T12:13:46Z</time>
      </trkpt>
      <trkpt lat="43.52861" lon="5.56231">
        <ele>437.9</ele>
        <time>2023-05-28T12:13:47Z</time>
      </trkpt>
      <trkpt lat="43.52861" lon="5.5623">
        <ele>437.9</ele>
        <time>2023-05-28T12:13:48Z</time>
      </trkpt>
      <trkpt lat="43.5286" lon="5.56228">
        <ele>437.9</ele>
        <time>2023-05-28T12:13:49Z</time>
      </trkpt>
      <trkpt lat="43.5286" lon="5.56226">
        <ele>437.8</ele>
        <time>2023-05-28T12:13:50Z</time>
      </trkpt>
      <trkpt lat="43.5286" lon="5.56224">
        <ele>437.8</ele>
        <time>2023-05-28T12:13:51Z</time>
      </trkpt>
      <trkpt lat="43.52859" lon="5.56223">
        <ele>437.8</ele>
        <time>2023-05-28T12:13:52Z</time>
      </trkpt>
      <trkpt lat="43.52859" lon="5.56221">
        <ele>437.8</ele>
        <time>2023-05-28T12:13:53Z</time>
      </trkpt>
      <trkpt lat="43.52859" lon="5.5622">
        <ele>437.7</ele>
        <time>2023-05-28T12:13:54Z</time>
      </trkpt>
      <trkpt lat="43.52858" lon="5.56218">
        <ele>437.7</ele>
        <time>2023-05-28T12:13:55Z</time>
      </trkpt>
      <trkpt lat="43.52858" lon="5.56217">
        <ele>437.5</ele>
        <time>2023-05-28T12:13:56Z</time>
      </trkpt>
      <trkpt lat="43.52858" lon="5.56215">
        <ele>437.4</ele>
        <time>2023-05-28T12:13:57Z</time>
      </trkpt>
      <trkpt lat="43.52857" lon="5.56214">
        <ele>437.4</ele>
        <time>2023-05-28T12:13:58Z</time>
      </trkpt>
      <trkpt lat="43.52856" lon="5.56213">
        <ele>437.3</ele>
        <time>2023-05-28T12:13:59Z</time>
      </trkpt>
      <trkpt lat="43.52856" lon="5.56212">
        <ele>437.2</ele>
        <time>2023-05-28T12:14:00Z</time>
      </trkpt>
      <trkpt lat="43.52855" lon="5.5621">
        <ele>437.1</ele>
        <time>2023-05-28T12:14:01Z</time>
      </trkpt>
      <trkpt lat="43.52855" lon="5.56209">
        <ele>437</ele>
        <time>2023-05-28T12:14:02Z</time>
      </trkpt>
      <trkpt lat="43.52854" lon="5.56208">
        <ele>436.9</ele>
        <time>2023-05-28T12:14:03Z</time>
      </trkpt>
      <trkpt lat="43.52854" lon="5.56206">
        <ele>436.9</ele>
        <time>2023-05-28T12:14:04Z</time>
      </trkpt>
      <trkpt lat="43.52853" lon="5.56205">
        <ele>436.7</ele>
        <time>2023-05-28T12:14:05Z</time>
      </trkpt>
      <trkpt lat="43.52853" lon="5.56204">
        <ele>436.5</ele>
        <time>2023-05-28T12:14:06Z</time>
      </trkpt>
      <trkpt lat="43.52852" lon="5.56203">
        <ele>436.4</ele>
        <time>2023-05-28T12:14:07Z</time>
      </trkpt>
      <trkpt lat="43.52851" lon="5.56202">
        <ele>436.1</ele>
        <time>2023-05-28T12:14:08Z</time>
      </trkpt>
      <trkpt lat="43.52851" lon="5.56201">
        <ele>435.8</ele>
        <time>2023-05-28T12:14:09Z</time>
      </trkpt>
      <trkpt lat="43.52851" lon="5.562">
        <ele>435.6</ele>
        <time>2023-05-28T12:14:10Z</time>
      </trkpt>
      <trkpt lat="43.52852" lon="5.56198">
        <ele>435.4</ele>
        <time>2023-05-28T12:14:11Z</time>
      </trkpt>
      <trkpt lat="43.52851" lon="5.56197">
        <ele>435.2</ele>
        <time>2023-05-28T12:14:12Z</time>
      </trkpt>
      <trkpt lat="43.52851" lon="5.56196">
        <ele>435</ele>
        <time>2023-05-28T12:14:13Z</time>
      </trkpt>
      <trkpt lat="43.5285" lon="5.56195">
        <ele>434.8</ele>
        <time>2023-05-28T12:14:14Z</time>
      </trkpt>
      <trkpt lat="43.52848" lon="5.56195">
        <ele>434.6</ele>
        <time>2023-05-28T12:14:15Z</time>
      </trkpt>
      <trkpt lat="43.52847" lon="5.56194">
        <ele>434.3</ele>
        <time>2023-05-28T12:14:16Z</time>
      </trkpt>
      <trkpt lat="43.52847" lon="5.56193">
        <ele>434.1</ele>
        <time>2023-05-28T12:14:17Z</time>
      </trkpt>
      <trkpt lat="43.52846" lon="5.56192">
        <ele>433.9</ele>
        <time>2023-05-28T12:14:18Z</time>
      </trkpt>
      <trkpt lat="43.52845" lon="5.56191">
        <ele>433.6</ele>
        <time>2023-05-28T12:14:19Z</time>
      </trkpt>
      <trkpt lat="43.52844" lon="5.5619">
        <ele>433.4</ele>
        <time>2023-05-28T12:14:20Z</time>
      </trkpt>
      <trkpt lat="43.52844" lon="5.56189">
        <ele>433.2</ele>
        <time>2023-05-28T12:14:21Z</time>
      </trkpt>
      <trkpt lat="43.52843" lon="5.56188">
        <ele>433</ele>
        <time>2023-05-28T12:14:22Z</time>
      </trkpt>
      <trkpt lat="43.52843" lon="5.56187">
        <ele>432.8</ele>
        <time>2023-05-28T12:14:23Z</time>
      </trkpt>
      <trkpt lat="43.52842" lon="5.56186">
        <ele>432.6</ele>
        <time>2023-05-28T12:14:24Z</time>
      </trkpt>
      <trkpt lat="43.52842" lon="5.56184">
        <ele>432.3</ele>
        <time>2023-05-28T12:14:25Z</time>
      </trkpt>
      <trkpt lat="43.52841" lon="5.56183">
        <ele>432.1</ele>
        <time>2023-05-28T12:14:26Z</time>
      </trkpt>
      <trkpt lat="43.52841" lon="5.56181">
        <ele>431.9</ele>
        <time>2023-05-28T12:14:27Z</time>
      </trkpt>
      <trkpt lat="43.52841" lon="5.5618">
        <ele>431.6</ele>
        <time>2023-05-28T12:14:28Z</time>
      </trkpt>
      <trkpt lat="43.5284" lon="5.56178">
        <ele>431.4</ele>
        <time>2023-05-28T12:14:29Z</time>
      </trkpt>
      <trkpt lat="43.52839" lon="5.56177">
        <ele>431.1</ele>
        <time>2023-05-28T12:14:30Z</time>
      </trkpt>
      <trkpt lat="43.52839" lon="5.56175">
        <ele>430.9</ele>
        <time>2023-05-28T12:14:31Z</time>
      </trkpt>
      <trkpt lat="43.52839" lon="5.56174">
        <ele>430.7</ele>
        <time>2023-05-28T12:14:32Z</time>
      </trkpt>
      <trkpt lat="43.52839" lon="5.56172">
        <ele>430.6</ele>
        <time>2023-05-28T12:14:33Z</time>
      </trkpt>
      <trkpt lat="43.52838" lon="5.56171">
        <ele>430.5</ele>
        <time>2023-05-28T12:14:34Z</time>
      </trkpt>
      <trkpt lat="43.52838" lon="5.5617">
        <ele>430.4</ele>
        <time>2023-05-28T12:14:35Z</time>
      </trkpt>
      <trkpt lat="43.52837" lon="5.56169">
        <ele>430.2</ele>
        <time>2023-05-28T12:14:36Z</time>
      </trkpt>
      <trkpt lat="43.52837" lon="5.56167">
        <ele>430.1</ele>
        <time>2023-05-28T12:14:37Z</time>
      </trkpt>
      <trkpt lat="43.52836" lon="5.56166">
        <ele>429.9</ele>
        <time>2023-05-28T12:14:38Z</time>
      </trkpt>
      <trkpt lat="43.52836" lon="5.56164">
        <ele>429.7</ele>
        <time>2023-05-28T12:14:39Z</time>
      </trkpt>
      <trkpt lat="43.52835" lon="5.56163">
        <ele>429.5</ele>
        <time>2023-05-28T12:14:40Z</time>
      </trkpt>
      <trkpt lat="43.52835" lon="5.56162">
        <ele>429.3</ele>
        <time>2023-05-28T12:14:41Z</time>
      </trkpt>
      <trkpt lat="43.52835" lon="5.5616">
        <ele>429.2</ele>
        <time>2023-05-28T12:14:42Z</time>
      </trkpt>
      <trkpt lat="43.52835" lon="5.56158">
        <ele>429</ele>
        <time>2023-05-28T12:14:43Z</time>
      </trkpt>
      <trkpt lat="43.52835" lon="5.56156">
        <ele>428.9</ele>
        <time>2023-05-28T12:14:44Z</time>
      </trkpt>
      <trkpt lat="43.52834" lon="5.56155">
        <ele>428.8</ele>
        <time>2023-05-28T12:14:45Z</time>
      </trkpt>
      <trkpt lat="43.52834" lon="5.56153">
        <ele>428.7</ele>
        <time>2023-05-28T12:14:46Z</time>
      </trkpt>
      <trkpt lat="43.52834" lon="5.56152">
        <ele>428.6</ele>
        <time>2023-05-28T12:14:47Z</time>
      </trkpt>
      <trkpt lat="43.52833" lon="5.56151">
        <ele>428.5</ele>
        <time>2023-05-28T12:14:48Z</time>
      </trkpt>
      <trkpt lat="43.52834" lon="5.56149">
        <ele>428.4</ele>
        <time>2023-05-28T12:14:49Z</time>
      </trkpt>
      <trkpt lat="43.52833" lon="5.56147">
        <ele>428.1</ele>
        <time>2023-05-28T12:14:50Z</time>
      </trkpt>
      <trkpt lat="43.52833" lon="5.56145">
        <ele>428</ele>
        <time>2023-05-28T12:14:51Z</time>
      </trkpt>
      <trkpt lat="43.52833" lon="5.56144">
        <ele>427.8</ele>
        <time>2023-05-28T12:14:52Z</time>
      </trkpt>
      <trkpt lat="43.52833" lon="5.56143">
        <ele>427.7</ele>
        <time>2023-05-28T12:14:53Z</time>
      </trkpt>
      <trkpt lat="43.52832" lon="5.56141">
        <ele>427.6</ele>
        <time>2023-05-28T12:14:54Z</time>
      </trkpt>
      <trkpt lat="43.52832" lon="5.56139">
        <ele>427.3</ele>
        <time>2023-05-28T12:14:55Z</time>
      </trkpt>
      <trkpt lat="43.52832" lon="5.56138">
        <ele>427</ele>
        <time>2023-05-28T12:14:56Z</time>
      </trkpt>
      <trkpt lat="43.52832" lon="5.56136">
        <ele>426.8</ele>
        <time>2023-05-28T12:14:57Z</time>
      </trkpt>
      <trkpt lat="43.52831" lon="5.56135">
        <ele>426.5</ele>
        <time>2023-05-28T12:14:58Z</time>
      </trkpt>
      <trkpt lat="43.52831" lon="5.56134">
        <ele>426.3</ele>
        <time>2023-05-28T12:14:59Z</time>
      </trkpt>
      <trkpt lat="43.5283" lon="5.56132">
        <ele>426.1</ele>
        <time>2023-05-28T12:15:00Z</time>
      </trkpt>
      <trkpt lat="43.52829" lon="5.56131">
        <ele>425.9</ele>
        <time>2023-05-28T12:15:01Z</time>
      </trkpt>
      <trkpt lat="43.52828" lon="5.5613">
        <ele>425.7</ele>
        <time>2023-05-28T12:15:02Z</time>
      </trkpt>
      <trkpt lat="43.52828" lon="5.56128">
        <ele>425.4</ele>
        <time>2023-05-28T12:15:03Z</time>
      </trkpt>
      <trkpt lat="43.52827" lon="5.56127">
        <ele>425.2</ele>
        <time>2023-05-28T12:15:04Z</time>
      </trkpt>
      <trkpt lat="43.52827" lon="5.56125">
        <ele>425</ele>
        <time>2023-05-28T12:15:05Z</time>
      </trkpt>
      <trkpt lat="43.52826" lon="5.56123">
        <ele>424.8</ele>
        <time>2023-05-28T12:15:06Z</time>
      </trkpt>
      <trkpt lat="43.52825" lon="5.56121">
        <ele>424.6</ele>
        <time>2023-05-28T12:15:07Z</time>
      </trkpt>
      <trkpt lat="43.52825" lon="5.56119">
        <ele>424.5</ele>
        <time>2023-05-28T12:15:08Z</time>
      </trkpt>
      <trkpt lat="43.52824" lon="5.56118">
        <ele>424.3</ele>
        <time>2023-05-28T12:15:09Z</time>
      </trkpt>
      <trkpt lat="43.52824" lon="5.56115">
        <ele>424.1</ele>
        <time>2023-05-28T12:15:10Z</time>
      </trkpt>
      <trkpt lat="43.52824" lon="5.56113">
        <ele>424</ele>
        <time>2023-05-28T12:15:11Z</time>
      </trkpt>
      <trkpt lat="43.52824" lon="5.56112">
        <ele>423.8</ele>
        <time>2023-05-28T12:15:12Z</time>
      </trkpt>
      <trkpt lat="43.52824" lon="5.5611">
        <ele>423.6</ele>
        <time>2023-05-28T12:15:13Z</time>
      </trkpt>
      <trkpt lat="43.52824" lon="5.56108">
        <ele>423.4</ele>
        <time>2023-05-28T12:15:14Z</time>
      </trkpt>
      <trkpt lat="43.52823" lon="5.56106">
        <ele>423.2</ele>
        <time>2023-05-28T12:15:15Z</time>
      </trkpt>
      <trkpt lat="43.52823" lon="5.56105">
        <ele>423</ele>
        <time>2023-05-28T12:15:16Z</time>
      </trkpt>
      <trkpt lat="43.52822" lon="5.56103">
        <ele>422.9</ele>
        <time>2023-05-28T12:15:17Z</time>
      </trkpt>
      <trkpt lat="43.52822" lon="5.56102">
        <ele>422.6</ele>
        <time>2023-05-28T12:15:18Z</time>
      </trkpt>
      <trkpt lat="43.52821" lon="5.56101">
        <ele>422.3</ele>
        <time>2023-05-28T12:15:19Z</time>
      </trkpt>
      <trkpt lat="43.52821" lon="5.56099">
        <ele>422.1</ele>
        <time>2023-05-28T12:15:20Z</time>
      </trkpt>
      <trkpt lat="43.52821" lon="5.56097">
        <ele>421.9</ele>
        <time>2023-05-28T12:15:21Z</time>
      </trkpt>
      <trkpt lat="43.5282" lon="5.56096">
        <ele>421.8</ele>
        <time>2023-05-28T12:15:22Z</time>
      </trkpt>
      <trkpt lat="43.52819" lon="5.56094">
        <ele>421.7</ele>
        <time>2023-05-28T12:15:23Z</time>
      </trkpt>
      <trkpt lat="43.52819" lon="5.56093">
        <ele>421.6</ele>
        <time>2023-05-28T12:15:24Z</time>
      </trkpt>
      <trkpt lat="43.52819" lon="5.56091">
        <ele>421.6</ele>
        <time>2023-05-28T12:15:25Z</time>
      </trkpt>
      <trkpt lat="43.52818" lon="5.5609">
        <ele>421.5</ele>
        <time>2023-05-28T12:15:26Z</time>
      </trkpt>
      <trkpt lat="43.52818" lon="5.56089">
        <ele>421.4</ele>
        <time>2023-05-28T12:15:27Z</time>
      </trkpt>
      <trkpt lat="43.52818" lon="5.56088">
        <ele>421.2</ele>
        <time>2023-05-28T12:15:28Z</time>
      </trkpt>
      <trkpt lat="43.52818" lon="5.56087">
        <ele>421.1</ele>
        <time>2023-05-28T12:15:29Z</time>
      </trkpt>
      <trkpt lat="43.52818" lon="5.56085">
        <ele>420.9</ele>
        <time>2023-05-28T12:15:30Z</time>
      </trkpt>
      <trkpt lat="43.52818" lon="5.56084">
        <ele>420.8</ele>
        <time>2023-05-28T12:15:31Z</time>
      </trkpt>
      <trkpt lat="43.52817" lon="5.56082">
        <ele>420.7</ele>
        <time>2023-05-28T12:15:32Z</time>
      </trkpt>
      <trkpt lat="43.52817" lon="5.56081">
        <ele>420.5</ele>
        <time>2023-05-28T12:15:33Z</time>
      </trkpt>
      <trkpt lat="43.52817" lon="5.5608">
        <ele>420.3</ele>
        <time>2023-05-28T12:15:34Z</time>
      </trkpt>
      <trkpt lat="43.52817" lon="5.56079">
        <ele>420.1</ele>
        <time>2023-05-28T12:15:35Z</time>
      </trkpt>
      <trkpt lat="43.52817" lon="5.56077">
        <ele>420</ele>
        <time>2023-05-28T12:15:36Z</time>
      </trkpt>
      <trkpt lat="43.52817" lon="5.56076">
        <ele>419.8</ele>
        <time>2023-05-28T12:15:37Z</time>
      </trkpt>
      <trkpt lat="43.52817" lon="5.56074">
        <ele>419.6</ele>
        <time>2023-05-28T12:15:38Z</time>
      </trkpt>
      <trkpt lat="43.52817" lon="5.56072">
        <ele>419.5</ele>
        <time>2023-05-28T12:15:39Z</time>
      </trkpt>
      <trkpt lat="43.52816" lon="5.5607">
        <ele>419.4</ele>
        <time>2023-05-28T12:15:40Z</time>
      </trkpt>
      <trkpt lat="43.52816" lon="5.56069">
        <ele>419.2</ele>
        <time>2023-05-28T12:15:41Z</time>
      </trkpt>
      <trkpt lat="43.52816" lon="5.56068">
        <ele>419</ele>
        <time>2023-05-28T12:15:42Z</time>
      </trkpt>
      <trkpt lat="43.52815" lon="5.56067">
        <ele>418.9</ele>
        <time>2023-05-28T12:15:43Z</time>
      </trkpt>
      <trkpt lat="43.52815" lon="5.56065">
        <ele>418.8</ele>
        <time>2023-05-28T12:15:44Z</time>
      </trkpt>
      <trkpt lat="43.52815" lon="5.56064">
        <ele>418.6</ele>
        <time>2023-05-28T12:15:45Z</time>
      </trkpt>
      <trkpt lat="43.52815" lon="5.56063">
        <ele>418.3</ele>
        <time>2023-05-28T12:15:46Z</time>
      </trkpt>
      <trkpt lat="43.52814" lon="5.56061">
        <ele>418.3</ele>
        <time>2023-05-28T12:15:47Z</time>
      </trkpt>
      <trkpt lat="43.52814" lon="5.5606">
        <ele>418.2</ele>
        <time>2023-05-28T12:15:48Z</time>
      </trkpt>
      <trkpt lat="43.52814" lon="5.56058">
        <ele>417.9</ele>
        <time>2023-05-28T12:15:49Z</time>
      </trkpt>
      <trkpt lat="43.52814" lon="5.56056">
        <ele>417.8</ele>
        <time>2023-05-28T12:15:50Z</time>
      </trkpt>
      <trkpt lat="43.52814" lon="5.56055">
        <ele>417.6</ele>
        <time>2023-05-28T12:15:51Z</time>
      </trkpt>
      <trkpt lat="43.52814" lon="5.56053">
        <ele>417.5</ele>
        <time>2023-05-28T12:15:52Z</time>
      </trkpt>
      <trkpt lat="43.52815" lon="5.56052">
        <ele>417.3</ele>
        <time>2023-05-28T12:15:53Z</time>
      </trkpt>
      <trkpt lat="43.52814" lon="5.56051">
        <ele>417.2</ele>
        <time>2023-05-28T12:15:54Z</time>
      </trkpt>
      <trkpt lat="43.52814" lon="5.56049">
        <ele>417</ele>
        <time>2023-05-28T12:15:55Z</time>
      </trkpt>
      <trkpt lat="43.52814" lon="5.56048">
        <ele>416.9</ele>
        <time>2023-05-28T12:15:56Z</time>
      </trkpt>
      <trkpt lat="43.52813" lon="5.56047">
        <ele>416.8</ele>
        <time>2023-05-28T12:15:57Z</time>
      </trkpt>
      <trkpt lat="43.52813" lon="5.56045">
        <ele>416.6</ele>
        <time>2023-05-28T12:15:58Z</time>
      </trkpt>
      <trkpt lat="43.52813" lon="5.56044">
        <ele>416.5</ele>
        <time>2023-05-28T12:15:59Z</time>
      </trkpt>
      <trkpt lat="43.52813" lon="5.56042">
        <ele>416.3</ele>
        <time>2023-05-28T12:16:00Z</time>
      </trkpt>
      <trkpt lat="43.52812" lon="5.56041">
        <ele>416.1</ele>
        <time>2023-05-28T12:16:01Z</time>
      </trkpt>
      <trkpt lat="43.52812" lon="5.56039">
        <ele>416</ele>
        <time>2023-05-28T12:16:02Z</time>
      </trkpt>
      <trkpt lat="43.52812" lon="5.56038">
        <ele>415.7</ele>
        <time>2023-05-28T12:16:03Z</time>
      </trkpt>
      <trkpt lat="43.52812" lon="5.56036">
        <ele>415.6</ele>
        <time>2023-05-28T12:16:04Z</time>
      </trkpt>
      <trkpt lat="43.52812" lon="5.56035">
        <ele>415.4</ele>
        <time>2023-05-28T12:16:05Z</time>
      </trkpt>
      <trkpt lat="43.52812" lon="5.56033">
        <ele>415.2</ele>
        <time>2023-05-28T12:16:06Z</time>
      </trkpt>
      <trkpt lat="43.52812" lon="5.56031">
        <ele>415.1</ele>
        <time>2023-05-28T12:16:07Z</time>
      </trkpt>
      <trkpt lat="43.52812" lon="5.56029">
        <ele>415</ele>
        <time>2023-05-28T12:16:08Z</time>
      </trkpt>
      <trkpt lat="43.52812" lon="5.56028">
        <ele>414.9</ele>
        <time>2023-05-28T12:16:09Z</time>
      </trkpt>
      <trkpt lat="43.52811" lon="5.56026">
        <ele>414.9</ele>
        <time>2023-05-28T12:16:10Z</time>
      </trkpt>
      <trkpt lat="43.52811" lon="5.56025">
        <ele>414.9</ele>
        <time>2023-05-28T12:16:11Z</time>
      </trkpt>
      <trkpt lat="43.52811" lon="5.56023">
        <ele>414.7</ele>
        <time>2023-05-28T12:16:12Z</time>
      </trkpt>
      <trkpt lat="43.5281" lon="5.56022">
        <ele>414.4</ele>
        <time>2023-05-28T12:16:13Z</time>
      </trkpt>
      <trkpt lat="43.5281" lon="5.56021">
        <ele>414.3</ele>
        <time>2023-05-28T12:16:14Z</time>
      </trkpt>
      <trkpt lat="43.52811" lon="5.56019">
        <ele>414.2</ele>
        <time>2023-05-28T12:16:15Z</time>
      </trkpt>
      <trkpt lat="43.5281" lon="5.56017">
        <ele>414.1</ele>
        <time>2023-05-28T12:16:16Z</time>
      </trkpt>
      <trkpt lat="43.5281" lon="5.56016">
        <ele>414</ele>
        <time>2023-05-28T12:16:17Z</time>
      </trkpt>
      <trkpt lat="43.5281" lon="5.56014">
        <ele>413.9</ele>
        <time>2023-05-28T12:16:18Z</time>
      </trkpt>
      <trkpt lat="43.5281" lon="5.56013">
        <ele>413.8</ele>
        <time>2023-05-28T12:16:19Z</time>
      </trkpt>
      <trkpt lat="43.5281" lon="5.56011">
        <ele>413.6</ele>
        <time>2023-05-28T12:16:20Z</time>
      </trkpt>
      <trkpt lat="43.52809" lon="5.56009">
        <ele>413.5</ele>
        <time>2023-05-28T12:16:21Z</time>
      </trkpt>
      <trkpt lat="43.52809" lon="5.56008">
        <ele>413.3</ele>
        <time>2023-05-28T12:16:22Z</time>
      </trkpt>
      <trkpt lat="43.52809" lon="5.56007">
        <ele>413.2</ele>
        <time>2023-05-28T12:16:23Z</time>
      </trkpt>
      <trkpt lat="43.52808" lon="5.56005">
        <ele>413</ele>
        <time>2023-05-28T12:16:24Z</time>
      </trkpt>
      <trkpt lat="43.52808" lon="5.56004">
        <ele>412.9</ele>
        <time>2023-05-28T12:16:25Z</time>
      </trkpt>
      <trkpt lat="43.52808" lon="5.56003">
        <ele>412.8</ele>
        <time>2023-05-28T12:16:26Z</time>
      </trkpt>
      <trkpt lat="43.52807" lon="5.56001">
        <ele>412.6</ele>
        <time>2023-05-28T12:16:27Z</time>
      </trkpt>
      <trkpt lat="43.52808" lon="5.55999">
        <ele>412.4</ele>
        <time>2023-05-28T12:16:28Z</time>
      </trkpt>
      <trkpt lat="43.52808" lon="5.55997">
        <ele>412.3</ele>
        <time>2023-05-28T12:16:29Z</time>
      </trkpt>
      <trkpt lat="43.52808" lon="5.55995">
        <ele>412.1</ele>
        <time>2023-05-28T12:16:30Z</time>
      </trkpt>
      <trkpt lat="43.52807" lon="5.55994">
        <ele>412</ele>
        <time>2023-05-28T12:16:31Z</time>
      </trkpt>
      <trkpt lat="43.52807" lon="5.55992">
        <ele>411.9</ele>
        <time>2023-05-28T12:16:32Z</time>
      </trkpt>
      <trkpt lat="43.52807" lon="5.55991">
        <ele>411.7</ele>
        <time>2023-05-28T12:16:33Z</time>
      </trkpt>
      <trkpt lat="43.52807" lon="5.55989">
        <ele>411.6</ele>
        <time>2023-05-28T12:16:34Z</time>
      </trkpt>
      <trkpt lat="43.52807" lon="5.55987">
        <ele>411.6</ele>
        <time>2023-05-28T12:16:35Z</time>
      </trkpt>
      <trkpt lat="43.52806" lon="5.55986">
        <ele>411.4</ele>
        <time>2023-05-28T12:16:36Z</time>
      </trkpt>
      <trkpt lat="43.52807" lon="5.55984">
        <ele>411.4</ele>
        <time>2023-05-28T12:16:37Z</time>
      </trkpt>
      <trkpt lat="43.52807" lon="5.55983">
        <ele>411.3</ele>
        <time>2023-05-28T12:16:38Z</time>
      </trkpt>
      <trkpt lat="43.52807" lon="5.55981">
        <ele>411.2</ele>
        <time>2023-05-28T12:16:39Z</time>
      </trkpt>
      <trkpt lat="43.52807" lon="5.55979">
        <ele>411.2</ele>
        <time>2023-05-28T12:16:40Z</time>
      </trkpt>
      <trkpt lat="43.52807" lon="5.55977">
        <ele>411</ele>
        <time>2023-05-28T12:16:41Z</time>
      </trkpt>
      <trkpt lat="43.52807" lon="5.55976">
        <ele>410.9</ele>
        <time>2023-05-28T12:16:42Z</time>
      </trkpt>
      <trkpt lat="43.52807" lon="5.55974">
        <ele>410.7</ele>
        <time>2023-05-28T12:16:43Z</time>
      </trkpt>
      <trkpt lat="43.52807" lon="5.55973">
        <ele>410.7</ele>
        <time>2023-05-28T12:16:44Z</time>
      </trkpt>
      <trkpt lat="43.52807" lon="5.55971">
        <ele>410.6</ele>
        <time>2023-05-28T12:16:45Z</time>
      </trkpt>
      <trkpt lat="43.52807" lon="5.5597">
        <ele>410.6</ele>
        <time>2023-05-28T12:16:46Z</time>
      </trkpt>
      <trkpt lat="43.52807" lon="5.55968">
        <ele>410.6</ele>
        <time>2023-05-28T12:16:47Z</time>
      </trkpt>
      <trkpt lat="43.52807" lon="5.55967">
        <ele>410.6</ele>
        <time>2023-05-28T12:16:48Z</time>
      </trkpt>
      <trkpt lat="43.52807" lon="5.55965">
        <ele>410.4</ele>
        <time>2023-05-28T12:16:49Z</time>
      </trkpt>
      <trkpt lat="43.52807" lon="5.55963">
        <ele>410.3</ele>
        <time>2023-05-28T12:16:50Z</time>
      </trkpt>
      <trkpt lat="43.52807" lon="5.55962">
        <ele>410.2</ele>
        <time>2023-05-28T12:16:51Z</time>
      </trkpt>
      <trkpt lat="43.52807" lon="5.5596">
        <ele>410</ele>
        <time>2023-05-28T12:16:52Z</time>
      </trkpt>
      <trkpt lat="43.52807" lon="5.55959">
        <ele>409.9</ele>
        <time>2023-05-28T12:16:53Z</time>
      </trkpt>
      <trkpt lat="43.52806" lon="5.55957">
        <ele>409.7</ele>
        <time>2023-05-28T12:16:54Z</time>
      </trkpt>
      <trkpt lat="43.52806" lon="5.55956">
        <ele>409.5</ele>
        <time>2023-05-28T12:16:55Z</time>
      </trkpt>
      <trkpt lat="43.52806" lon="5.55954">
        <ele>409.3</ele>
        <time>2023-05-28T12:16:56Z</time>
      </trkpt>
      <trkpt lat="43.52805" lon="5.55953">
        <ele>409.2</ele>
        <time>2023-05-28T12:16:57Z</time>
      </trkpt>
      <trkpt lat="43.52805" lon="5.55951">
        <ele>409</ele>
        <time>2023-05-28T12:16:58Z</time>
      </trkpt>
      <trkpt lat="43.52804" lon="5.5595">
        <ele>408.9</ele>
        <time>2023-05-28T12:16:59Z</time>
      </trkpt>
      <trkpt lat="43.52804" lon="5.55949">
        <ele>408.8</ele>
        <time>2023-05-28T12:17:00Z</time>
      </trkpt>
      <trkpt lat="43.52804" lon="5.55947">
        <ele>408.7</ele>
        <time>2023-05-28T12:17:01Z</time>
      </trkpt>
      <trkpt lat="43.52804" lon="5.55945">
        <ele>408.6</ele>
        <time>2023-05-28T12:17:02Z</time>
      </trkpt>
      <trkpt lat="43.52804" lon="5.55944">
        <ele>408.5</ele>
        <time>2023-05-28T12:17:03Z</time>
      </trkpt>
      <trkpt lat="43.52804" lon="5.55942">
        <ele>408.4</ele>
        <time>2023-05-28T12:17:04Z</time>
      </trkpt>
      <trkpt lat="43.52804" lon="5.5594">
        <ele>408.3</ele>
        <time>2023-05-28T12:17:05Z</time>
      </trkpt>
      <trkpt lat="43.52804" lon="5.55939">
        <ele>408.2</ele>
        <time>2023-05-28T12:17:06Z</time>
      </trkpt>
      <trkpt lat="43.52803" lon="5.55937">
        <ele>408</ele>
        <time>2023-05-28T12:17:07Z</time>
      </trkpt>
      <trkpt lat="43.52803" lon="5.55936">
        <ele>407.9</ele>
        <time>2023-05-28T12:17:08Z</time>
      </trkpt>
      <trkpt lat="43.52803" lon="5.55934">
        <ele>407.8</ele>
        <time>2023-05-28T12:17:09Z</time>
      </trkpt>
      <trkpt lat="43.52802" lon="5.55933">
        <ele>407.7</ele>
        <time>2023-05-28T12:17:10Z</time>
      </trkpt>
      <trkpt lat="43.52802" lon="5.55931">
        <ele>407.6</ele>
        <time>2023-05-28T12:17:11Z</time>
      </trkpt>
      <trkpt lat="43.52802" lon="5.5593">
        <ele>407.6</ele>
        <time>2023-05-28T12:17:12Z</time>
      </trkpt>
      <trkpt lat="43.52802" lon="5.55928">
        <ele>407.5</ele>
        <time>2023-05-28T12:17:13Z</time>
      </trkpt>
      <trkpt lat="43.52802" lon="5.55927">
        <ele>407.4</ele>
        <time>2023-05-28T12:17:14Z</time>
      </trkpt>
      <trkpt lat="43.52802" lon="5.55925">
        <ele>407.2</ele>
        <time>2023-05-28T12:17:15Z</time>
      </trkpt>
      <trkpt lat="43.52802" lon="5.55923">
        <ele>407.1</ele>
        <time>2023-05-28T12:17:16Z</time>
      </trkpt>
      <trkpt lat="43.52802" lon="5.55921">
        <ele>407</ele>
        <time>2023-05-28T12:17:17Z</time>
      </trkpt>
      <trkpt lat="43.52801" lon="5.55919">
        <ele>406.9</ele>
        <time>2023-05-28T12:17:18Z</time>
      </trkpt>
      <trkpt lat="43.52801" lon="5.55917">
        <ele>406.8</ele>
        <time>2023-05-28T12:17:19Z</time>
      </trkpt>
      <trkpt lat="43.52801" lon="5.55915">
        <ele>406.5</ele>
        <time>2023-05-28T12:17:20Z</time>
      </trkpt>
      <trkpt lat="43.52801" lon="5.55914">
        <ele>406.4</ele>
        <time>2023-05-28T12:17:21Z</time>
      </trkpt>
      <trkpt lat="43.52801" lon="5.55912">
        <ele>406.2</ele>
        <time>2023-05-28T12:17:22Z</time>
      </trkpt>
      <trkpt lat="43.52801" lon="5.55911">
        <ele>406</ele>
        <time>2023-05-28T12:17:23Z</time>
      </trkpt>
      <trkpt lat="43.52801" lon="5.55909">
        <ele>405.9</ele>
        <time>2023-05-28T12:17:24Z</time>
      </trkpt>
      <trkpt lat="43.52801" lon="5.55908">
        <ele>405.7</ele>
        <time>2023-05-28T12:17:25Z</time>
      </trkpt>
      <trkpt lat="43.52801" lon="5.55906">
        <ele>405.6</ele>
        <time>2023-05-28T12:17:26Z</time>
      </trkpt>
      <trkpt lat="43.528" lon="5.55905">
        <ele>405.4</ele>
        <time>2023-05-28T12:17:27Z</time>
      </trkpt>
      <trkpt lat="43.528" lon="5.55903">
        <ele>405.3</ele>
        <time>2023-05-28T12:17:28Z</time>
      </trkpt>
      <trkpt lat="43.528" lon="5.55902">
        <ele>405.3</ele>
        <time>2023-05-28T12:17:29Z</time>
      </trkpt>
      <trkpt lat="43.528" lon="5.559">
        <ele>405.1</ele>
        <time>2023-05-28T12:17:30Z</time>
      </trkpt>
      <trkpt lat="43.528" lon="5.55899">
        <ele>404.9</ele>
        <time>2023-05-28T12:17:31Z</time>
      </trkpt>
      <trkpt lat="43.52801" lon="5.55897">
        <ele>404.8</ele>
        <time>2023-05-28T12:17:32Z</time>
      </trkpt>
      <trkpt lat="43.52801" lon="5.55895">
        <ele>404.7</ele>
        <time>2023-05-28T12:17:33Z</time>
      </trkpt>
      <trkpt lat="43.52801" lon="5.55894">
        <ele>404.5</ele>
        <time>2023-05-28T12:17:34Z</time>
      </trkpt>
      <trkpt lat="43.52801" lon="5.55892">
        <ele>404.4</ele>
        <time>2023-05-28T12:17:35Z</time>
      </trkpt>
      <trkpt lat="43.528" lon="5.5589">
        <ele>404.2</ele>
        <time>2023-05-28T12:17:36Z</time>
      </trkpt>
      <trkpt lat="43.528" lon="5.55889">
        <ele>404.1</ele>
        <time>2023-05-28T12:17:37Z</time>
      </trkpt>
      <trkpt lat="43.52799" lon="5.55887">
        <ele>404</ele>
        <time>2023-05-28T12:17:38Z</time>
      </trkpt>
      <trkpt lat="43.52799" lon="5.55886">
        <ele>403.9</ele>
        <time>2023-05-28T12:17:39Z</time>
      </trkpt>
      <trkpt lat="43.52799" lon="5.55884">
        <ele>403.8</ele>
        <time>2023-05-28T12:17:40Z</time>
      </trkpt>
      <trkpt lat="43.52798" lon="5.55883">
        <ele>403.7</ele>
        <time>2023-05-28T12:17:41Z</time>
      </trkpt>
      <trkpt lat="43.52798" lon="5.55881">
        <ele>403.7</ele>
        <time>2023-05-28T12:17:42Z</time>
      </trkpt>
      <trkpt lat="43.52797" lon="5.5588">
        <ele>403.5</ele>
        <time>2023-05-28T12:17:43Z</time>
      </trkpt>
      <trkpt lat="43.52797" lon="5.55878">
        <ele>403.4</ele>
        <time>2023-05-28T12:17:44Z</time>
      </trkpt>
      <trkpt lat="43.52797" lon="5.55877">
        <ele>403.4</ele>
        <time>2023-05-28T12:17:45Z</time>
      </trkpt>
      <trkpt lat="43.52797" lon="5.55875">
        <ele>403.3</ele>
        <time>2023-05-28T12:17:46Z</time>
      </trkpt>
      <trkpt lat="43.52797" lon="5.55873">
        <ele>403.2</ele>
        <time>2023-05-28T12:17:47Z</time>
      </trkpt>
      <trkpt lat="43.52797" lon="5.55872">
        <ele>403.2</ele>
        <time>2023-05-28T12:17:48Z</time>
      </trkpt>
      <trkpt lat="43.52797" lon="5.5587">
        <ele>403.2</ele>
        <time>2023-05-28T12:17:49Z</time>
      </trkpt>
      <trkpt lat="43.52797" lon="5.55869">
        <ele>403.1</ele>
        <time>2023-05-28T12:17:50Z</time>
      </trkpt>
      <trkpt lat="43.52797" lon="5.55867">
        <ele>403</ele>
        <time>2023-05-28T12:17:51Z</time>
      </trkpt>
      <trkpt lat="43.52797" lon="5.55866">
        <ele>402.9</ele>
        <time>2023-05-28T12:17:52Z</time>
      </trkpt>
      <trkpt lat="43.52797" lon="5.55864">
        <ele>402.9</ele>
        <time>2023-05-28T12:17:53Z</time>
      </trkpt>
      <trkpt lat="43.52797" lon="5.55862">
        <ele>402.9</ele>
        <time>2023-05-28T12:17:54Z</time>
      </trkpt>
      <trkpt lat="43.52797" lon="5.5586">
        <ele>402.8</ele>
        <time>2023-05-28T12:17:55Z</time>
      </trkpt>
      <trkpt lat="43.52797" lon="5.55859">
        <ele>402.9</ele>
        <time>2023-05-28T12:17:56Z</time>
      </trkpt>
      <trkpt lat="43.52798" lon="5.55856">
        <ele>402.8</ele>
        <time>2023-05-28T12:17:57Z</time>
      </trkpt>
      <trkpt lat="43.52798" lon="5.55855">
        <ele>402.8</ele>
        <time>2023-05-28T12:17:58Z</time>
      </trkpt>
      <trkpt lat="43.52798" lon="5.55853">
        <ele>402.7</ele>
        <time>2023-05-28T12:17:59Z</time>
      </trkpt>
      <trkpt lat="43.52797" lon="5.55851">
        <ele>402.5</ele>
        <time>2023-05-28T12:18:00Z</time>
      </trkpt>
      <trkpt lat="43.52797" lon="5.55849">
        <ele>402.3</ele>
        <time>2023-05-28T12:18:01Z</time>
      </trkpt>
      <trkpt lat="43.52797" lon="5.55848">
        <ele>402.2</ele>
        <time>2023-05-28T12:18:02Z</time>
      </trkpt>
      <trkpt lat="43.52797" lon="5.55846">
        <ele>402.1</ele>
        <time>2023-05-28T12:18:03Z</time>
      </trkpt>
      <trkpt lat="43.52796" lon="5.55845">
        <ele>402.1</ele>
        <time>2023-05-28T12:18:04Z</time>
      </trkpt>
      <trkpt lat="43.52796" lon="5.55843">
        <ele>402.1</ele>
        <time>2023-05-28T12:18:05Z</time>
      </trkpt>
      <trkpt lat="43.52796" lon="5.55842">
        <ele>402</ele>
        <time>2023-05-28T12:18:06Z</time>
      </trkpt>
      <trkpt lat="43.52796" lon="5.5584">
        <ele>401.9</ele>
        <time>2023-05-28T12:18:07Z</time>
      </trkpt>
      <trkpt lat="43.52796" lon="5.55838">
        <ele>401.9</ele>
        <time>2023-05-28T12:18:08Z</time>
      </trkpt>
      <trkpt lat="43.52796" lon="5.55837">
        <ele>401.8</ele>
        <time>2023-05-28T12:18:09Z</time>
      </trkpt>
      <trkpt lat="43.52796" lon="5.55835">
        <ele>401.7</ele>
        <time>2023-05-28T12:18:10Z</time>
      </trkpt>
      <trkpt lat="43.52796" lon="5.55833">
        <ele>401.6</ele>
        <time>2023-05-28T12:18:11Z</time>
      </trkpt>
      <trkpt lat="43.52796" lon="5.55831">
        <ele>401.5</ele>
        <time>2023-05-28T12:18:12Z</time>
      </trkpt>
      <trkpt lat="43.52795" lon="5.55829">
        <ele>401.5</ele>
        <time>2023-05-28T12:18:13Z</time>
      </trkpt>
      <trkpt lat="43.52795" lon="5.55827">
        <ele>401.3</ele>
        <time>2023-05-28T12:18:14Z</time>
      </trkpt>
      <trkpt lat="43.52794" lon="5.55826">
        <ele>401.3</ele>
        <time>2023-05-28T12:18:15Z</time>
      </trkpt>
      <trkpt lat="43.52794" lon="5.55824">
        <ele>401.2</ele>
        <time>2023-05-28T12:18:16Z</time>
      </trkpt>
      <trkpt lat="43.52794" lon="5.55823">
        <ele>401.1</ele>
        <time>2023-05-28T12:18:17Z</time>
      </trkpt>
      <trkpt lat="43.52793" lon="5.55821">
        <ele>401.1</ele>
        <time>2023-05-28T12:18:18Z</time>
      </trkpt>
      <trkpt lat="43.52793" lon="5.55819">
        <ele>401</ele>
        <time>2023-05-28T12:18:19Z</time>
      </trkpt>
      <trkpt lat="43.52792" lon="5.55818">
        <ele>401</ele>
        <time>2023-05-28T12:18:20Z</time>
      </trkpt>
      <trkpt lat="43.52793" lon="5.55816">
        <ele>400.8</ele>
        <time>2023-05-28T12:18:21Z</time>
      </trkpt>
      <trkpt lat="43.52792" lon="5.55814">
        <ele>400.7</ele>
        <time>2023-05-28T12:18:22Z</time>
      </trkpt>
      <trkpt lat="43.52792" lon="5.55813">
        <ele>400.6</ele>
        <time>2023-05-28T12:18:23Z</time>
      </trkpt>
      <trkpt lat="43.52792" lon="5.55811">
        <ele>400.4</ele>
        <time>2023-05-28T12:18:24Z</time>
      </trkpt>
      <trkpt lat="43.52791" lon="5.55809">
        <ele>400.3</ele>
        <time>2023-05-28T12:18:25Z</time>
      </trkpt>
      <trkpt lat="43.52791" lon="5.55808">
        <ele>400.1</ele>
        <time>2023-05-28T12:18:26Z</time>
      </trkpt>
      <trkpt lat="43.52791" lon="5.55806">
        <ele>400</ele>
        <time>2023-05-28T12:18:27Z</time>
      </trkpt>
      <trkpt lat="43.52791" lon="5.55805">
        <ele>399.9</ele>
        <time>2023-05-28T12:18:28Z</time>
      </trkpt>
      <trkpt lat="43.5279" lon="5.55803">
        <ele>399.9</ele>
        <time>2023-05-28T12:18:29Z</time>
      </trkpt>
      <trkpt lat="43.52789" lon="5.55801">
        <ele>399.8</ele>
        <time>2023-05-28T12:18:30Z</time>
      </trkpt>
      <trkpt lat="43.52789" lon="5.55799">
        <ele>399.8</ele>
        <time>2023-05-28T12:18:31Z</time>
      </trkpt>
      <trkpt lat="43.52788" lon="5.55798">
        <ele>399.8</ele>
        <time>2023-05-28T12:18:32Z</time>
      </trkpt>
      <trkpt lat="43.52788" lon="5.55796">
        <ele>399.7</ele>
        <time>2023-05-28T12:18:33Z</time>
      </trkpt>
      <trkpt lat="43.52788" lon="5.55795">
        <ele>399.6</ele>
        <time>2023-05-28T12:18:34Z</time>
      </trkpt>
      <trkpt lat="43.52788" lon="5.55793">
        <ele>399.5</ele>
        <time>2023-05-28T12:18:35Z</time>
      </trkpt>
      <trkpt lat="43.52788" lon="5.55791">
        <ele>399.4</ele>
        <time>2023-05-28T12:18:36Z</time>
      </trkpt>
      <trkpt lat="43.52788" lon="5.55789">
        <ele>399.3</ele>
        <time>2023-05-28T12:18:37Z</time>
      </trkpt>
      <trkpt lat="43.52788" lon="5.55787">
        <ele>399.2</ele>
        <time>2023-05-28T12:18:38Z</time>
      </trkpt>
      <trkpt lat="43.52788" lon="5.55786">
        <ele>399.1</ele>
        <time>2023-05-28T12:18:39Z</time>
      </trkpt>
      <trkpt lat="43.52787" lon="5.55784">
        <ele>399.1</ele>
        <time>2023-05-28T12:18:40Z</time>
      </trkpt>
      <trkpt lat="43.52787" lon="5.55782">
        <ele>399.1</ele>
        <time>2023-05-28T12:18:41Z</time>
      </trkpt>
      <trkpt lat="43.52787" lon="5.55781">
        <ele>399.1</ele>
        <time>2023-05-28T12:18:42Z</time>
      </trkpt>
      <trkpt lat="43.52787" lon="5.55779">
        <ele>399.1</ele>
        <time>2023-05-28T12:18:43Z</time>
      </trkpt>
      <trkpt lat="43.52786" lon="5.55778">
        <ele>399</ele>
        <time>2023-05-28T12:18:44Z</time>
      </trkpt>
      <trkpt lat="43.52786" lon="5.55776">
        <ele>398.9</ele>
        <time>2023-05-28T12:18:45Z</time>
      </trkpt>
      <trkpt lat="43.52786" lon="5.55774">
        <ele>398.9</ele>
        <time>2023-05-28T12:18:46Z</time>
      </trkpt>
      <trkpt lat="43.52785" lon="5.55773">
        <ele>398.8</ele>
        <time>2023-05-28T12:18:47Z</time>
      </trkpt>
      <trkpt lat="43.52785" lon="5.55771">
        <ele>398.7</ele>
        <time>2023-05-28T12:18:48Z</time>
      </trkpt>
      <trkpt lat="43.52785" lon="5.55769">
        <ele>398.7</ele>
        <time>2023-05-28T12:18:49Z</time>
      </trkpt>
      <trkpt lat="43.52785" lon="5.55767">
        <ele>398.6</ele>
        <time>2023-05-28T12:18:50Z</time>
      </trkpt>
      <trkpt lat="43.52785" lon="5.55766">
        <ele>398.5</ele>
        <time>2023-05-28T12:18:51Z</time>
      </trkpt>
      <trkpt lat="43.52784" lon="5.55765">
        <ele>398.4</ele>
        <time>2023-05-28T12:18:52Z</time>
      </trkpt>
      <trkpt lat="43.52784" lon="5.55763">
        <ele>398.3</ele>
        <time>2023-05-28T12:18:53Z</time>
      </trkpt>
      <trkpt lat="43.52784" lon="5.55762">
        <ele>398.2</ele>
        <time>2023-05-28T12:18:54Z</time>
      </trkpt>
      <trkpt lat="43.52783" lon="5.5576">
        <ele>398.2</ele>
        <time>2023-05-28T12:18:55Z</time>
      </trkpt>
      <trkpt lat="43.52783" lon="5.55758">
        <ele>398.2</ele>
        <time>2023-05-28T12:18:56Z</time>
      </trkpt>
      <trkpt lat="43.52783" lon="5.55757">
        <ele>398.1</ele>
        <time>2023-05-28T12:18:57Z</time>
      </trkpt>
      <trkpt lat="43.52783" lon="5.55755">
        <ele>398.1</ele>
        <time>2023-05-28T12:18:58Z</time>
      </trkpt>
      <trkpt lat="43.52783" lon="5.55753">
        <ele>398</ele>
        <time>2023-05-28T12:18:59Z</time>
      </trkpt>
      <trkpt lat="43.52783" lon="5.55752">
        <ele>397.9</ele>
        <time>2023-05-28T12:19:00Z</time>
      </trkpt>
      <trkpt lat="43.52782" lon="5.5575">
        <ele>397.8</ele>
        <time>2023-05-28T12:19:01Z</time>
      </trkpt>
      <trkpt lat="43.52782" lon="5.55749">
        <ele>397.8</ele>
        <time>2023-05-28T12:19:02Z</time>
      </trkpt>
      <trkpt lat="43.52782" lon="5.55747">
        <ele>397.8</ele>
        <time>2023-05-28T12:19:03Z</time>
      </trkpt>
      <trkpt lat="43.52781" lon="5.55746">
        <ele>397.7</ele>
        <time>2023-05-28T12:19:04Z</time>
      </trkpt>
      <trkpt lat="43.52781" lon="5.55744">
        <ele>397.6</ele>
        <time>2023-05-28T12:19:05Z</time>
      </trkpt>
      <trkpt lat="43.5278" lon="5.55742">
        <ele>397.5</ele>
        <time>2023-05-28T12:19:06Z</time>
      </trkpt>
      <trkpt lat="43.5278" lon="5.55741">
        <ele>397.5</ele>
        <time>2023-05-28T12:19:07Z</time>
      </trkpt>
      <trkpt lat="43.5278" lon="5.55739">
        <ele>397.5</ele>
        <time>2023-05-28T12:19:08Z</time>
      </trkpt>
      <trkpt lat="43.5278" lon="5.55737">
        <ele>397.5</ele>
        <time>2023-05-28T12:19:09Z</time>
      </trkpt>
      <trkpt lat="43.5278" lon="5.55735">
        <ele>397.5</ele>
        <time>2023-05-28T12:19:10Z</time>
      </trkpt>
      <trkpt lat="43.5278" lon="5.55733">
        <ele>397.5</ele>
        <time>2023-05-28T12:19:11Z</time>
      </trkpt>
      <trkpt lat="43.52779" lon="5.55732">
        <ele>397.4</ele>
        <time>2023-05-28T12:19:12Z</time>
      </trkpt>
      <trkpt lat="43.52779" lon="5.5573">
        <ele>397.4</ele>
        <time>2023-05-28T12:19:13Z</time>
      </trkpt>
      <trkpt lat="43.52779" lon="5.55729">
        <ele>397.4</ele>
        <time>2023-05-28T12:19:14Z</time>
      </trkpt>
      <trkpt lat="43.52778" lon="5.55727">
        <ele>397.3</ele>
        <time>2023-05-28T12:19:15Z</time>
      </trkpt>
      <trkpt lat="43.52778" lon="5.55725">
        <ele>397.3</ele>
        <time>2023-05-28T12:19:16Z</time>
      </trkpt>
      <trkpt lat="43.52778" lon="5.55724">
        <ele>397.2</ele>
        <time>2023-05-28T12:19:17Z</time>
      </trkpt>
      <trkpt lat="43.52778" lon="5.55722">
        <ele>397.1</ele>
        <time>2023-05-28T12:19:18Z</time>
      </trkpt>
      <trkpt lat="43.52778" lon="5.55721">
        <ele>397.1</ele>
        <time>2023-05-28T12:19:19Z</time>
      </trkpt>
      <trkpt lat="43.52778" lon="5.55719">
        <ele>397</ele>
        <time>2023-05-28T12:19:20Z</time>
      </trkpt>
      <trkpt lat="43.52778" lon="5.55718">
        <ele>397</ele>
        <time>2023-05-28T12:19:21Z</time>
      </trkpt>
      <trkpt lat="43.52777" lon="5.55716">
        <ele>396.9</ele>
        <time>2023-05-28T12:19:22Z</time>
      </trkpt>
      <trkpt lat="43.52777" lon="5.55715">
        <ele>396.9</ele>
        <time>2023-05-28T12:19:23Z</time>
      </trkpt>
      <trkpt lat="43.52778" lon="5.55713">
        <ele>396.9</ele>
        <time>2023-05-28T12:19:24Z</time>
      </trkpt>
      <trkpt lat="43.52778" lon="5.55712">
        <ele>396.9</ele>
        <time>2023-05-28T12:19:25Z</time>
      </trkpt>
      <trkpt lat="43.52779" lon="5.55711">
        <ele>396.9</ele>
        <time>2023-05-28T12:19:26Z</time>
      </trkpt>
      <trkpt lat="43.52779" lon="5.5571">
        <ele>396.9</ele>
        <time>2023-05-28T12:19:27Z</time>
      </trkpt>
      <trkpt lat="43.5278" lon="5.5571">
        <ele>396.9</ele>
        <time>2023-05-28T12:19:28Z</time>
      </trkpt>
      <trkpt lat="43.52781" lon="5.5571">
        <ele>396.9</ele>
        <time>2023-05-28T12:19:29Z</time>
      </trkpt>
      <trkpt lat="43.52781" lon="5.55711">
        <ele>396.9</ele>
        <time>2023-05-28T12:19:30Z</time>
      </trkpt>
      <trkpt lat="43.52782" lon="5.55711">
        <ele>396.8</ele>
        <time>2023-05-28T12:19:31Z</time>
      </trkpt>
      <trkpt lat="43.52783" lon="5.55712">
        <ele>396.7</ele>
        <time>2023-05-28T12:19:32Z</time>
      </trkpt>
      <trkpt lat="43.52784" lon="5.55713">
        <ele>396.7</ele>
        <time>2023-05-28T12:19:33Z</time>
      </trkpt>
      <trkpt lat="43.52785" lon="5.55714">
        <ele>396.6</ele>
        <time>2023-05-28T12:19:34Z</time>
      </trkpt>
      <trkpt lat="43.52786" lon="5.55715">
        <ele>396.5</ele>
        <time>2023-05-28T12:19:35Z</time>
      </trkpt>
      <trkpt lat="43.52786" lon="5.55716">
        <ele>396.4</ele>
        <time>2023-05-28T12:19:36Z</time>
      </trkpt>
      <trkpt lat="43.52787" lon="5.55717">
        <ele>396.3</ele>
        <time>2023-05-28T12:19:37Z</time>
      </trkpt>
      <trkpt lat="43.52788" lon="5.55718">
        <ele>396.3</ele>
        <time>2023-05-28T12:19:38Z</time>
      </trkpt>
      <trkpt lat="43.52788" lon="5.55719">
        <ele>396.2</ele>
        <time>2023-05-28T12:19:39Z</time>
      </trkpt>
      <trkpt lat="43.52788" lon="5.5572">
        <ele>396.2</ele>
        <time>2023-05-28T12:19:40Z</time>
      </trkpt>
      <trkpt lat="43.52788" lon="5.55721">
        <ele>396.1</ele>
        <time>2023-05-28T12:19:41Z</time>
      </trkpt>
      <trkpt lat="43.52789" lon="5.55722">
        <ele>396.1</ele>
        <time>2023-05-28T12:19:42Z</time>
      </trkpt>
      <trkpt lat="43.52789" lon="5.55722">
        <ele>396.1</ele>
        <time>2023-05-28T12:19:43Z</time>
      </trkpt>
      <trkpt lat="43.52789" lon="5.55723">
        <ele>396.1</ele>
        <time>2023-05-28T12:19:44Z</time>
      </trkpt>
      <trkpt lat="43.52789" lon="5.55723">
        <ele>396.1</ele>
        <time>2023-05-28T12:19:45Z</time>
      </trkpt>
      <trkpt lat="43.52789" lon="5.55723">
        <ele>396.1</ele>
        <time>2023-05-28T12:19:46Z</time>
      </trkpt>
      <trkpt lat="43.52789" lon="5.55723">
        <ele>396.1</ele>
        <time>2023-05-28T12:19:47Z</time>
      </trkpt>
      <trkpt lat="43.52788" lon="5.55723">
        <ele>396</ele>
        <time>2023-05-28T12:19:48Z</time>
      </trkpt>
      <trkpt lat="43.52788" lon="5.55723">
        <ele>396</ele>
        <time>2023-05-28T12:19:49Z</time>
      </trkpt>
      <trkpt lat="43.52788" lon="5.55723">
        <ele>396</ele>
        <time>2023-05-28T12:19:50Z</time>
      </trkpt>
      <trkpt lat="43.52788" lon="5.55723">
        <ele>396.1</ele>
        <time>2023-05-28T12:19:51Z</time>
      </trkpt>
      <trkpt lat="43.52788" lon="5.55723">
        <ele>396.1</ele>
        <time>2023-05-28T12:19:52Z</time>
      </trkpt>
      <trkpt lat="43.52788" lon="5.55723">
        <ele>396.1</ele>
        <time>2023-05-28T12:19:53Z</time>
      </trkpt>
      <trkpt lat="43.52788" lon="5.55723">
        <ele>396.1</ele>
        <time>2023-05-28T12:19:54Z</time>
      </trkpt>
      <trkpt lat="43.52788" lon="5.55723">
        <ele>396.2</ele>
        <time>2023-05-28T12:19:55Z</time>
      </trkpt>
      <trkpt lat="43.52788" lon="5.55723">
        <ele>396.2</ele>
        <time>2023-05-28T12:19:56Z</time>
      </trkpt>
      <trkpt lat="43.52788" lon="5.55723">
        <ele>396.2</ele>
        <time>2023-05-28T12:19:57Z</time>
      </trkpt>
      <trkpt lat="43.52788" lon="5.55723">
        <ele>396.3</ele>
        <time>2023-05-28T12:19:58Z</time>
      </trkpt>
      <trkpt lat="43.52787" lon="5.55724">
        <ele>396.2</ele>
        <time>2023-05-28T12:19:59Z</time>
      </trkpt>
      <trkpt lat="43.52787" lon="5.55724">
        <ele>396.2</ele>
        <time>2023-05-28T12:20:00Z</time>
      </trkpt>
      <trkpt lat="43.52787" lon="5.55724">
        <ele>396.2</ele>
        <time>2023-05-28T12:20:01Z</time>
      </trkpt>
      <trkpt lat="43.52787" lon="5.55724">
        <ele>396.2</ele>
        <time>2023-05-28T12:20:02Z</time>
      </trkpt>
      <trkpt lat="43.52787" lon="5.55724">
        <ele>396.2</ele>
        <time>2023-05-28T12:20:03Z</time>
      </trkpt>
      <trkpt lat="43.52787" lon="5.55724">
        <ele>396.2</ele>
        <time>2023-05-28T12:20:04Z</time>
      </trkpt>
      <trkpt lat="43.52787" lon="5.55724">
        <ele>396.3</ele>
        <time>2023-05-28T12:20:05Z</time>
      </trkpt>
      <trkpt lat="43.52787" lon="5.55724">
        <ele>396.2</ele>
        <time>2023-05-28T12:20:06Z</time>
      </trkpt>
      <trkpt lat="43.52786" lon="5.55724">
        <ele>396.2</ele>
        <time>2023-05-28T12:20:07Z</time>
      </trkpt>
      <trkpt lat="43.52786" lon="5.55724">
        <ele>396.2</ele>
        <time>2023-05-28T12:20:08Z</time>
      </trkpt>
      <trkpt lat="43.52786" lon="5.55724">
        <ele>396.2</ele>
        <time>2023-05-28T12:20:09Z</time>
      </trkpt>
      <trkpt lat="43.52786" lon="5.55724">
        <ele>396.1</ele>
        <time>2023-05-28T12:20:10Z</time>
      </trkpt>
      <trkpt lat="43.52786" lon="5.55724">
        <ele>396.1</ele>
        <time>2023-05-28T12:20:11Z</time>
      </trkpt>
      <trkpt lat="43.52786" lon="5.55724">
        <ele>396</ele>
        <time>2023-05-28T12:20:12Z</time>
      </trkpt>
      <trkpt lat="43.52786" lon="5.55724">
        <ele>396</ele>
        <time>2023-05-28T12:20:13Z</time>
      </trkpt>
      <trkpt lat="43.52787" lon="5.55725">
        <ele>396</ele>
        <time>2023-05-28T12:20:14Z</time>
      </trkpt>
      <trkpt lat="43.52787" lon="5.55725">
        <ele>395.9</ele>
        <time>2023-05-28T12:20:15Z</time>
      </trkpt>
      <trkpt lat="43.52787" lon="5.55725">
        <ele>395.9</ele>
        <time>2023-05-28T12:20:16Z</time>
      </trkpt>
      <trkpt lat="43.52786" lon="5.55725">
        <ele>395.8</ele>
        <time>2023-05-28T12:20:17Z</time>
      </trkpt>
      <trkpt lat="43.52786" lon="5.55725">
        <ele>395.8</ele>
        <time>2023-05-28T12:20:18Z</time>
      </trkpt>
      <trkpt lat="43.52786" lon="5.55725">
        <ele>395.8</ele>
        <time>2023-05-28T12:20:19Z</time>
      </trkpt>
      <trkpt lat="43.52786" lon="5.55726">
        <ele>395.7</ele>
        <time>2023-05-28T12:20:20Z</time>
      </trkpt>
      <trkpt lat="43.52786" lon="5.55727">
        <ele>395.7</ele>
        <time>2023-05-28T12:20:21Z</time>
      </trkpt>
      <trkpt lat="43.52786" lon="5.55728">
        <ele>395.7</ele>
        <time>2023-05-28T12:20:22Z</time>
      </trkpt>
      <trkpt lat="43.52787" lon="5.55729">
        <ele>395.7</ele>
        <time>2023-05-28T12:20:23Z</time>
      </trkpt>
      <trkpt lat="43.52787" lon="5.55729">
        <ele>395.6</ele>
        <time>2023-05-28T12:20:24Z</time>
      </trkpt>
      <trkpt lat="43.52787" lon="5.5573">
        <ele>395.6</ele>
        <time>2023-05-28T12:20:25Z</time>
      </trkpt>
      <trkpt lat="43.52788" lon="5.5573">
        <ele>395.6</ele>
        <time>2023-05-28T12:20:26Z</time>
      </trkpt>
      <trkpt lat="43.52788" lon="5.55731">
        <ele>395.6</ele>
        <time>2023-05-28T12:20:27Z</time>
      </trkpt>
      <trkpt lat="43.52789" lon="5.55732">
        <ele>395.4</ele>
        <time>2023-05-28T12:20:28Z</time>
      </trkpt>
      <trkpt lat="43.52789" lon="5.55733">
        <ele>395.4</ele>
        <time>2023-05-28T12:20:29Z</time>
      </trkpt>
      <trkpt lat="43.5279" lon="5.55735">
        <ele>395.2</ele>
        <time>2023-05-28T12:20:30Z</time>
      </trkpt>
      <trkpt lat="43.5279" lon="5.55737">
        <ele>395.1</ele>
        <time>2023-05-28T12:20:31Z</time>
      </trkpt>
      <trkpt lat="43.5279" lon="5.55738">
        <ele>395.1</ele>
        <time>2023-05-28T12:20:32Z</time>
      </trkpt>
      <trkpt lat="43.5279" lon="5.55739">
        <ele>395</ele>
        <time>2023-05-28T12:20:33Z</time>
      </trkpt>
      <trkpt lat="43.5279" lon="5.5574">
        <ele>395</ele>
        <time>2023-05-28T12:20:34Z</time>
      </trkpt>
      <trkpt lat="43.52791" lon="5.55742">
        <ele>394.9</ele>
        <time>2023-05-28T12:20:35Z</time>
      </trkpt>
      <trkpt lat="43.52791" lon="5.55743">
        <ele>394.9</ele>
        <time>2023-05-28T12:20:36Z</time>
      </trkpt>
      <trkpt lat="43.52792" lon="5.55744">
        <ele>394.8</ele>
        <time>2023-05-28T12:20:37Z</time>
      </trkpt>
      <trkpt lat="43.52792" lon="5.55745">
        <ele>394.8</ele>
        <time>2023-05-28T12:20:38Z</time>
      </trkpt>
      <trkpt lat="43.52792" lon="5.55747">
        <ele>394.7</ele>
        <time>2023-05-28T12:20:39Z</time>
      </trkpt>
      <trkpt lat="43.52793" lon="5.55748">
        <ele>394.6</ele>
        <time>2023-05-28T12:20:40Z</time>
      </trkpt>
      <trkpt lat="43.52793" lon="5.55749">
        <ele>394.5</ele>
        <time>2023-05-28T12:20:41Z</time>
      </trkpt>
      <trkpt lat="43.52793" lon="5.55751">
        <ele>394.6</ele>
        <time>2023-05-28T12:20:42Z</time>
      </trkpt>
      <trkpt lat="43.52794" lon="5.55752">
        <ele>394.6</ele>
        <time>2023-05-28T12:20:43Z</time>
      </trkpt>
      <trkpt lat="43.52794" lon="5.55753">
        <ele>394.6</ele>
        <time>2023-05-28T12:20:44Z</time>
      </trkpt>
      <trkpt lat="43.52794" lon="5.55754">
        <ele>394.6</ele>
        <time>2023-05-28T12:20:45Z</time>
      </trkpt>
      <trkpt lat="43.52794" lon="5.55755">
        <ele>394.6</ele>
        <time>2023-05-28T12:20:46Z</time>
      </trkpt>
      <trkpt lat="43.52794" lon="5.55757">
        <ele>394.6</ele>
        <time>2023-05-28T12:20:47Z</time>
      </trkpt>
      <trkpt lat="43.52795" lon="5.55757">
        <ele>394.6</ele>
        <time>2023-05-28T12:20:48Z</time>
      </trkpt>
      <trkpt lat="43.52795" lon="5.55758">
        <ele>394.5</ele>
        <time>2023-05-28T12:20:49Z</time>
      </trkpt>
      <trkpt lat="43.52795" lon="5.55758">
        <ele>394.4</ele>
        <time>2023-05-28T12:20:50Z</time>
      </trkpt>
      <trkpt lat="43.52795" lon="5.55758">
        <ele>394.4</ele>
        <time>2023-05-28T12:20:51Z</time>
      </trkpt>
      <trkpt lat="43.52795" lon="5.55758">
        <ele>394.3</ele>
        <time>2023-05-28T12:20:52Z</time>
      </trkpt>
      <trkpt lat="43.52795" lon="5.55759">
        <ele>394.3</ele>
        <time>2023-05-28T12:20:53Z</time>
      </trkpt>
      <trkpt lat="43.52795" lon="5.55761">
        <ele>394.2</ele>
        <time>2023-05-28T12:20:54Z</time>
      </trkpt>
      <trkpt lat="43.52796" lon="5.55762">
        <ele>394.2</ele>
        <time>2023-05-28T12:20:55Z</time>
      </trkpt>
      <trkpt lat="43.52796" lon="5.55763">
        <ele>394.2</ele>
        <time>2023-05-28T12:20:56Z</time>
      </trkpt>
      <trkpt lat="43.52796" lon="5.55765">
        <ele>394.1</ele>
        <time>2023-05-28T12:20:57Z</time>
      </trkpt>
      <trkpt lat="43.52796" lon="5.55766">
        <ele>394</ele>
        <time>2023-05-28T12:20:58Z</time>
      </trkpt>
      <trkpt lat="43.52795" lon="5.55767">
        <ele>394</ele>
        <time>2023-05-28T12:20:59Z</time>
      </trkpt>
      <trkpt lat="43.52795" lon="5.55769">
        <ele>393.9</ele>
        <time>2023-05-28T12:21:00Z</time>
      </trkpt>
      <trkpt lat="43.52795" lon="5.55771">
        <ele>393.9</ele>
        <time>2023-05-28T12:21:01Z</time>
      </trkpt>
      <trkpt lat="43.52796" lon="5.55772">
        <ele>393.8</ele>
        <time>2023-05-28T12:21:02Z</time>
      </trkpt>
      <trkpt lat="43.52796" lon="5.55773">
        <ele>393.9</ele>
        <time>2023-05-28T12:21:03Z</time>
      </trkpt>
      <trkpt lat="43.52796" lon="5.55774">
        <ele>393.8</ele>
        <time>2023-05-28T12:21:04Z</time>
      </trkpt>
      <trkpt lat="43.52796" lon="5.55775">
        <ele>393.8</ele>
        <time>2023-05-28T12:21:05Z</time>
      </trkpt>
      <trkpt lat="43.52797" lon="5.55776">
        <ele>393.7</ele>
        <time>2023-05-28T12:21:06Z</time>
      </trkpt>
      <trkpt lat="43.52797" lon="5.55778">
        <ele>393.6</ele>
        <time>2023-05-28T12:21:07Z</time>
      </trkpt>
      <trkpt lat="43.52797" lon="5.55779">
        <ele>393.6</ele>
        <time>2023-05-28T12:21:08Z</time>
      </trkpt>
      <trkpt lat="43.52798" lon="5.55781">
        <ele>393.5</ele>
        <time>2023-05-28T12:21:09Z</time>
      </trkpt>
      <trkpt lat="43.52798" lon="5.55782">
        <ele>393.5</ele>
        <time>2023-05-28T12:21:10Z</time>
      </trkpt>
      <trkpt lat="43.52798" lon="5.55783">
        <ele>393.5</ele>
        <time>2023-05-28T12:21:11Z</time>
      </trkpt>
      <trkpt lat="43.52798" lon="5.55784">
        <ele>393.5</ele>
        <time>2023-05-28T12:21:12Z</time>
      </trkpt>
      <trkpt lat="43.52799" lon="5.55786">
        <ele>393.5</ele>
        <time>2023-05-28T12:21:13Z</time>
      </trkpt>
      <trkpt lat="43.52799" lon="5.55787">
        <ele>393.4</ele>
        <time>2023-05-28T12:21:14Z</time>
      </trkpt>
      <trkpt lat="43.52799" lon="5.55789">
        <ele>393.4</ele>
        <time>2023-05-28T12:21:15Z</time>
      </trkpt>
      <trkpt lat="43.528" lon="5.5579">
        <ele>393.4</ele>
        <time>2023-05-28T12:21:16Z</time>
      </trkpt>
      <trkpt lat="43.528" lon="5.55791">
        <ele>393.3</ele>
        <time>2023-05-28T12:21:17Z</time>
      </trkpt>
      <trkpt lat="43.52801" lon="5.55792">
        <ele>393.3</ele>
        <time>2023-05-28T12:21:18Z</time>
      </trkpt>
      <trkpt lat="43.52801" lon="5.55792">
        <ele>393.2</ele>
        <time>2023-05-28T12:21:19Z</time>
      </trkpt>
      <trkpt lat="43.52801" lon="5.55793">
        <ele>393.2</ele>
        <time>2023-05-28T12:21:20Z</time>
      </trkpt>
      <trkpt lat="43.52801" lon="5.55793">
        <ele>393.2</ele>
        <time>2023-05-28T12:21:21Z</time>
      </trkpt>
      <trkpt lat="43.528" lon="5.55793">
        <ele>393.2</ele>
        <time>2023-05-28T12:21:22Z</time>
      </trkpt>
      <trkpt lat="43.52801" lon="5.55795">
        <ele>393.1</ele>
        <time>2023-05-28T12:21:23Z</time>
      </trkpt>
      <trkpt lat="43.52801" lon="5.55796">
        <ele>393.1</ele>
        <time>2023-05-28T12:21:24Z</time>
      </trkpt>
      <trkpt lat="43.52801" lon="5.55797">
        <ele>393.1</ele>
        <time>2023-05-28T12:21:25Z</time>
      </trkpt>
      <trkpt lat="43.52801" lon="5.55798">
        <ele>393</ele>
        <time>2023-05-28T12:21:26Z</time>
      </trkpt>
      <trkpt lat="43.52801" lon="5.55799">
        <ele>393</ele>
        <time>2023-05-28T12:21:27Z</time>
      </trkpt>
      <trkpt lat="43.52801" lon="5.55799">
        <ele>393</ele>
        <time>2023-05-28T12:21:28Z</time>
      </trkpt>
      <trkpt lat="43.52801" lon="5.558">
        <ele>393</ele>
        <time>2023-05-28T12:21:29Z</time>
      </trkpt>
      <trkpt lat="43.52801" lon="5.558">
        <ele>393</ele>
        <time>2023-05-28T12:21:30Z</time>
      </trkpt>
      <trkpt lat="43.52802" lon="5.558">
        <ele>393</ele>
        <time>2023-05-28T12:21:31Z</time>
      </trkpt>
      <trkpt lat="43.52802" lon="5.55801">
        <ele>393</ele>
        <time>2023-05-28T12:21:32Z</time>
      </trkpt>
      <trkpt lat="43.52802" lon="5.55802">
        <ele>392.9</ele>
        <time>2023-05-28T12:21:33Z</time>
      </trkpt>
      <trkpt lat="43.52802" lon="5.55804">
        <ele>392.8</ele>
        <time>2023-05-28T12:21:34Z</time>
      </trkpt>
      <trkpt lat="43.52803" lon="5.55805">
        <ele>392.7</ele>
        <time>2023-05-28T12:21:35Z</time>
      </trkpt>
      <trkpt lat="43.52803" lon="5.55806">
        <ele>392.7</ele>
        <time>2023-05-28T12:21:36Z</time>
      </trkpt>
      <trkpt lat="43.52803" lon="5.55807">
        <ele>392.6</ele>
        <time>2023-05-28T12:21:37Z</time>
      </trkpt>
      <trkpt lat="43.52804" lon="5.55808">
        <ele>392.5</ele>
        <time>2023-05-28T12:21:38Z</time>
      </trkpt>
      <trkpt lat="43.52804" lon="5.55809">
        <ele>392.4</ele>
        <time>2023-05-28T12:21:39Z</time>
      </trkpt>
      <trkpt lat="43.52804" lon="5.5581">
        <ele>392.4</ele>
        <time>2023-05-28T12:21:40Z</time>
      </trkpt>
      <trkpt lat="43.52805" lon="5.55812">
        <ele>392.3</ele>
        <time>2023-05-28T12:21:41Z</time>
      </trkpt>
      <trkpt lat="43.52805" lon="5.55812">
        <ele>392.2</ele>
        <time>2023-05-28T12:21:42Z</time>
      </trkpt>
      <trkpt lat="43.52805" lon="5.55812">
        <ele>392.1</ele>
        <time>2023-05-28T12:21:43Z</time>
      </trkpt>
      <trkpt lat="43.52805" lon="5.55813">
        <ele>392.1</ele>
        <time>2023-05-28T12:21:44Z</time>
      </trkpt>
      <trkpt lat="43.52805" lon="5.55814">
        <ele>392.1</ele>
        <time>2023-05-28T12:21:45Z</time>
      </trkpt>
      <trkpt lat="43.52805" lon="5.55815">
        <ele>392.1</ele>
        <time>2023-05-28T12:21:46Z</time>
      </trkpt>
      <trkpt lat="43.52805" lon="5.55816">
        <ele>392</ele>
        <time>2023-05-28T12:21:47Z</time>
      </trkpt>
      <trkpt lat="43.52806" lon="5.55817">
        <ele>392</ele>
        <time>2023-05-28T12:21:48Z</time>
      </trkpt>
      <trkpt lat="43.52806" lon="5.55818">
        <ele>392</ele>
        <time>2023-05-28T12:21:49Z</time>
      </trkpt>
      <trkpt lat="43.52806" lon="5.5582">
        <ele>391.9</ele>
        <time>2023-05-28T12:21:50Z</time>
      </trkpt>
      <trkpt lat="43.52806" lon="5.55821">
        <ele>391.8</ele>
        <time>2023-05-28T12:21:51Z</time>
      </trkpt>
      <trkpt lat="43.52807" lon="5.55822">
        <ele>391.8</ele>
        <time>2023-05-28T12:21:52Z</time>
      </trkpt>
      <trkpt lat="43.52807" lon="5.55824">
        <ele>391.7</ele>
        <time>2023-05-28T12:21:53Z</time>
      </trkpt>
      <trkpt lat="43.52807" lon="5.55825">
        <ele>391.7</ele>
        <time>2023-05-28T12:21:54Z</time>
      </trkpt>
      <trkpt lat="43.52807" lon="5.55826">
        <ele>391.7</ele>
        <time>2023-05-28T12:21:55Z</time>
      </trkpt>
      <trkpt lat="43.52807" lon="5.55828">
        <ele>391.7</ele>
        <time>2023-05-28T12:21:56Z</time>
      </trkpt>
      <trkpt lat="43.52808" lon="5.55829">
        <ele>391.7</ele>
        <time>2023-05-28T12:21:57Z</time>
      </trkpt>
      <trkpt lat="43.52808" lon="5.55831">
        <ele>391.7</ele>
        <time>2023-05-28T12:21:58Z</time>
      </trkpt>
      <trkpt lat="43.52808" lon="5.55832">
        <ele>391.7</ele>
        <time>2023-05-28T12:21:59Z</time>
      </trkpt>
      <trkpt lat="43.52808" lon="5.55834">
        <ele>391.6</ele>
        <time>2023-05-28T12:22:00Z</time>
      </trkpt>
      <trkpt lat="43.52809" lon="5.55835">
        <ele>391.5</ele>
        <time>2023-05-28T12:22:01Z</time>
      </trkpt>
      <trkpt lat="43.52809" lon="5.55836">
        <ele>391.4</ele>
        <time>2023-05-28T12:22:02Z</time>
      </trkpt>
      <trkpt lat="43.52809" lon="5.55838">
        <ele>391.3</ele>
        <time>2023-05-28T12:22:03Z</time>
      </trkpt>
      <trkpt lat="43.52809" lon="5.55839">
        <ele>391.2</ele>
        <time>2023-05-28T12:22:04Z</time>
      </trkpt>
      <trkpt lat="43.52809" lon="5.5584">
        <ele>391.2</ele>
        <time>2023-05-28T12:22:05Z</time>
      </trkpt>
      <trkpt lat="43.5281" lon="5.55841">
        <ele>391.2</ele>
        <time>2023-05-28T12:22:06Z</time>
      </trkpt>
      <trkpt lat="43.5281" lon="5.55843">
        <ele>391.1</ele>
        <time>2023-05-28T12:22:07Z</time>
      </trkpt>
      <trkpt lat="43.52811" lon="5.55844">
        <ele>391.1</ele>
        <time>2023-05-28T12:22:08Z</time>
      </trkpt>
      <trkpt lat="43.52811" lon="5.55845">
        <ele>391</ele>
        <time>2023-05-28T12:22:09Z</time>
      </trkpt>
      <trkpt lat="43.52812" lon="5.55847">
        <ele>390.9</ele>
        <time>2023-05-28T12:22:10Z</time>
      </trkpt>
      <trkpt lat="43.52812" lon="5.55849">
        <ele>390.7</ele>
        <time>2023-05-28T12:22:11Z</time>
      </trkpt>
      <trkpt lat="43.52813" lon="5.5585">
        <ele>390.6</ele>
        <time>2023-05-28T12:22:12Z</time>
      </trkpt>
      <trkpt lat="43.52814" lon="5.55852">
        <ele>390.6</ele>
        <time>2023-05-28T12:22:13Z</time>
      </trkpt>
      <trkpt lat="43.52815" lon="5.55853">
        <ele>390.6</ele>
        <time>2023-05-28T12:22:14Z</time>
      </trkpt>
      <trkpt lat="43.52816" lon="5.55854">
        <ele>390.5</ele>
        <time>2023-05-28T12:22:15Z</time>
      </trkpt>
      <trkpt lat="43.52817" lon="5.55855">
        <ele>390.4</ele>
        <time>2023-05-28T12:22:16Z</time>
      </trkpt>
      <trkpt lat="43.52818" lon="5.55856">
        <ele>390.4</ele>
        <time>2023-05-28T12:22:17Z</time>
      </trkpt>
      <trkpt lat="43.52818" lon="5.55857">
        <ele>390.3</ele>
        <time>2023-05-28T12:22:18Z</time>
      </trkpt>
      <trkpt lat="43.52819" lon="5.55859">
        <ele>390.3</ele>
        <time>2023-05-28T12:22:19Z</time>
      </trkpt>
      <trkpt lat="43.52819" lon="5.5586">
        <ele>390.2</ele>
        <time>2023-05-28T12:22:20Z</time>
      </trkpt>
      <trkpt lat="43.5282" lon="5.55862">
        <ele>390.2</ele>
        <time>2023-05-28T12:22:21Z</time>
      </trkpt>
      <trkpt lat="43.52821" lon="5.55863">
        <ele>390</ele>
        <time>2023-05-28T12:22:22Z</time>
      </trkpt>
      <trkpt lat="43.52821" lon="5.55865">
        <ele>389.9</ele>
        <time>2023-05-28T12:22:23Z</time>
      </trkpt>
      <trkpt lat="43.52821" lon="5.55867">
        <ele>389.7</ele>
        <time>2023-05-28T12:22:24Z</time>
      </trkpt>
      <trkpt lat="43.52822" lon="5.55868">
        <ele>389.6</ele>
        <time>2023-05-28T12:22:25Z</time>
      </trkpt>
      <trkpt lat="43.52822" lon="5.55869">
        <ele>389.4</ele>
        <time>2023-05-28T12:22:26Z</time>
      </trkpt>
      <trkpt lat="43.52823" lon="5.5587">
        <ele>389.3</ele>
        <time>2023-05-28T12:22:27Z</time>
      </trkpt>
      <trkpt lat="43.52823" lon="5.55871">
        <ele>389.3</ele>
        <time>2023-05-28T12:22:28Z</time>
      </trkpt>
      <trkpt lat="43.52824" lon="5.55872">
        <ele>389.3</ele>
        <time>2023-05-28T12:22:29Z</time>
      </trkpt>
      <trkpt lat="43.52824" lon="5.55874">
        <ele>389.2</ele>
        <time>2023-05-28T12:22:30Z</time>
      </trkpt>
      <trkpt lat="43.52824" lon="5.55875">
        <ele>389</ele>
        <time>2023-05-28T12:22:31Z</time>
      </trkpt>
      <trkpt lat="43.52825" lon="5.55876">
        <ele>388.9</ele>
        <time>2023-05-28T12:22:32Z</time>
      </trkpt>
      <trkpt lat="43.52825" lon="5.55877">
        <ele>388.8</ele>
        <time>2023-05-28T12:22:33Z</time>
      </trkpt>
      <trkpt lat="43.52826" lon="5.55878">
        <ele>388.7</ele>
        <time>2023-05-28T12:22:34Z</time>
      </trkpt>
      <trkpt lat="43.52826" lon="5.55879">
        <ele>388.6</ele>
        <time>2023-05-28T12:22:35Z</time>
      </trkpt>
      <trkpt lat="43.52827" lon="5.5588">
        <ele>388.6</ele>
        <time>2023-05-28T12:22:36Z</time>
      </trkpt>
      <trkpt lat="43.52827" lon="5.55881">
        <ele>388.6</ele>
        <time>2023-05-28T12:22:37Z</time>
      </trkpt>
      <trkpt lat="43.52827" lon="5.55883">
        <ele>388.6</ele>
        <time>2023-05-28T12:22:38Z</time>
      </trkpt>
      <trkpt lat="43.52828" lon="5.55884">
        <ele>388.5</ele>
        <time>2023-05-28T12:22:39Z</time>
      </trkpt>
      <trkpt lat="43.52828" lon="5.55886">
        <ele>388.4</ele>
        <time>2023-05-28T12:22:40Z</time>
      </trkpt>
      <trkpt lat="43.52828" lon="5.55887">
        <ele>388.4</ele>
        <time>2023-05-28T12:22:41Z</time>
      </trkpt>
      <trkpt lat="43.52828" lon="5.55889">
        <ele>388.3</ele>
        <time>2023-05-28T12:22:42Z</time>
      </trkpt>
      <trkpt lat="43.52829" lon="5.55891">
        <ele>388.3</ele>
        <time>2023-05-28T12:22:43Z</time>
      </trkpt>
      <trkpt lat="43.5283" lon="5.55892">
        <ele>388.2</ele>
        <time>2023-05-28T12:22:44Z</time>
      </trkpt>
      <trkpt lat="43.5283" lon="5.55893">
        <ele>388.2</ele>
        <time>2023-05-28T12:22:45Z</time>
      </trkpt>
      <trkpt lat="43.52831" lon="5.55895">
        <ele>388.2</ele>
        <time>2023-05-28T12:22:46Z</time>
      </trkpt>
      <trkpt lat="43.52831" lon="5.55896">
        <ele>388.3</ele>
        <time>2023-05-28T12:22:47Z</time>
      </trkpt>
      <trkpt lat="43.52832" lon="5.55897">
        <ele>388.3</ele>
        <time>2023-05-28T12:22:48Z</time>
      </trkpt>
      <trkpt lat="43.52832" lon="5.55899">
        <ele>388.3</ele>
        <time>2023-05-28T12:22:49Z</time>
      </trkpt>
      <trkpt lat="43.52833" lon="5.559">
        <ele>388.3</ele>
        <time>2023-05-28T12:22:50Z</time>
      </trkpt>
      <trkpt lat="43.52834" lon="5.55901">
        <ele>388.2</ele>
        <time>2023-05-28T12:22:51Z</time>
      </trkpt>
      <trkpt lat="43.52835" lon="5.55902">
        <ele>388.2</ele>
        <time>2023-05-28T12:22:52Z</time>
      </trkpt>
      <trkpt lat="43.52835" lon="5.55902">
        <ele>388.1</ele>
        <time>2023-05-28T12:22:53Z</time>
      </trkpt>
      <trkpt lat="43.52836" lon="5.55902">
        <ele>388</ele>
        <time>2023-05-28T12:22:54Z</time>
      </trkpt>
      <trkpt lat="43.52838" lon="5.55902">
        <ele>387.8</ele>
        <time>2023-05-28T12:22:55Z</time>
      </trkpt>
      <trkpt lat="43.52839" lon="5.55902">
        <ele>387.6</ele>
        <time>2023-05-28T12:22:56Z</time>
      </trkpt>
      <trkpt lat="43.5284" lon="5.55903">
        <ele>387.3</ele>
        <time>2023-05-28T12:22:57Z</time>
      </trkpt>
      <trkpt lat="43.5284" lon="5.55904">
        <ele>387</ele>
        <time>2023-05-28T12:22:58Z</time>
      </trkpt>
      <trkpt lat="43.52841" lon="5.55904">
        <ele>386.7</ele>
        <time>2023-05-28T12:22:59Z</time>
      </trkpt>
      <trkpt lat="43.52843" lon="5.55905">
        <ele>386.4</ele>
        <time>2023-05-28T12:23:00Z</time>
      </trkpt>
      <trkpt lat="43.52844" lon="5.55906">
        <ele>386</ele>
        <time>2023-05-28T12:23:01Z</time>
      </trkpt>
      <trkpt lat="43.52846" lon="5.55906">
        <ele>385.7</ele>
        <time>2023-05-28T12:23:02Z</time>
      </trkpt>
      <trkpt lat="43.52848" lon="5.55906">
        <ele>385.3</ele>
        <time>2023-05-28T12:23:03Z</time>
      </trkpt>
      <trkpt lat="43.52849" lon="5.55907">
        <ele>385</ele>
        <time>2023-05-28T12:23:04Z</time>
      </trkpt>
      <trkpt lat="43.52851" lon="5.55908">
        <ele>384.7</ele>
        <time>2023-05-28T12:23:05Z</time>
      </trkpt>
      <trkpt lat="43.52852" lon="5.55908">
        <ele>384.3</ele>
        <time>2023-05-28T12:23:06Z</time>
      </trkpt>
      <trkpt lat="43.52853" lon="5.55909">
        <ele>384</ele>
        <time>2023-05-28T12:23:07Z</time>
      </trkpt>
      <trkpt lat="43.52854" lon="5.5591">
        <ele>383.6</ele>
        <time>2023-05-28T12:23:08Z</time>
      </trkpt>
      <trkpt lat="43.52855" lon="5.55911">
        <ele>383.2</ele>
        <time>2023-05-28T12:23:09Z</time>
      </trkpt>
      <trkpt lat="43.52857" lon="5.55912">
        <ele>382.9</ele>
        <time>2023-05-28T12:23:10Z</time>
      </trkpt>
      <trkpt lat="43.52858" lon="5.55913">
        <ele>382.6</ele>
        <time>2023-05-28T12:23:11Z</time>
      </trkpt>
      <trkpt lat="43.5286" lon="5.55913">
        <ele>382.4</ele>
        <time>2023-05-28T12:23:12Z</time>
      </trkpt>
      <trkpt lat="43.52861" lon="5.55914">
        <ele>382.1</ele>
        <time>2023-05-28T12:23:13Z</time>
      </trkpt>
      <trkpt lat="43.52862" lon="5.55913">
        <ele>381.8</ele>
        <time>2023-05-28T12:23:14Z</time>
      </trkpt>
      <trkpt lat="43.52863" lon="5.55914">
        <ele>381.5</ele>
        <time>2023-05-28T12:23:15Z</time>
      </trkpt>
      <trkpt lat="43.52865" lon="5.55913">
        <ele>381</ele>
        <time>2023-05-28T12:23:16Z</time>
      </trkpt>
      <trkpt lat="43.52866" lon="5.55913">
        <ele>380.7</ele>
        <time>2023-05-28T12:23:17Z</time>
      </trkpt>
      <trkpt lat="43.52866" lon="5.55914">
        <ele>380.4</ele>
        <time>2023-05-28T12:23:18Z</time>
      </trkpt>
      <trkpt lat="43.52867" lon="5.55915">
        <ele>380</ele>
        <time>2023-05-28T12:23:19Z</time>
      </trkpt>
      <trkpt lat="43.52867" lon="5.55915">
        <ele>379.8</ele>
        <time>2023-05-28T12:23:20Z</time>
      </trkpt>
      <trkpt lat="43.52868" lon="5.55915">
        <ele>379.4</ele>
        <time>2023-05-28T12:23:21Z</time>
      </trkpt>
      <trkpt lat="43.52868" lon="5.55915">
        <ele>379.1</ele>
        <time>2023-05-28T12:23:22Z</time>
      </trkpt>
      <trkpt lat="43.52869" lon="5.55915">
        <ele>378.8</ele>
        <time>2023-05-28T12:23:23Z</time>
      </trkpt>
      <trkpt lat="43.52869" lon="5.55915">
        <ele>378.6</ele>
        <time>2023-05-28T12:23:24Z</time>
      </trkpt>
      <trkpt lat="43.5287" lon="5.55916">
        <ele>378.3</ele>
        <time>2023-05-28T12:23:25Z</time>
      </trkpt>
      <trkpt lat="43.5287" lon="5.55916">
        <ele>378</ele>
        <time>2023-05-28T12:23:26Z</time>
      </trkpt>
      <trkpt lat="43.52871" lon="5.55917">
        <ele>377.7</ele>
        <time>2023-05-28T12:23:27Z</time>
      </trkpt>
      <trkpt lat="43.52872" lon="5.55917">
        <ele>377.5</ele>
        <time>2023-05-28T12:23:28Z</time>
      </trkpt>
      <trkpt lat="43.52873" lon="5.55917">
        <ele>377.2</ele>
        <time>2023-05-28T12:23:29Z</time>
      </trkpt>
      <trkpt lat="43.52874" lon="5.55917">
        <ele>376.7</ele>
        <time>2023-05-28T12:23:30Z</time>
      </trkpt>
      <trkpt lat="43.52876" lon="5.55919">
        <ele>376.2</ele>
        <time>2023-05-28T12:23:31Z</time>
      </trkpt>
      <trkpt lat="43.52877" lon="5.55919">
        <ele>375.6</ele>
        <time>2023-05-28T12:23:32Z</time>
      </trkpt>
      <trkpt lat="43.52878" lon="5.55919">
        <ele>375</ele>
        <time>2023-05-28T12:23:33Z</time>
      </trkpt>
      <trkpt lat="43.52878" lon="5.55919">
        <ele>374.6</ele>
        <time>2023-05-28T12:23:34Z</time>
      </trkpt>
      <trkpt lat="43.52878" lon="5.55918">
        <ele>374.1</ele>
        <time>2023-05-28T12:23:35Z</time>
      </trkpt>
      <trkpt lat="43.52879" lon="5.55917">
        <ele>373.7</ele>
        <time>2023-05-28T12:23:36Z</time>
      </trkpt>
      <trkpt lat="43.5288" lon="5.55916">
        <ele>373.3</ele>
        <time>2023-05-28T12:23:37Z</time>
      </trkpt>
      <trkpt lat="43.5288" lon="5.55916">
        <ele>373</ele>
        <time>2023-05-28T12:23:38Z</time>
      </trkpt>
      <trkpt lat="43.5288" lon="5.55915">
        <ele>372.6</ele>
        <time>2023-05-28T12:23:39Z</time>
      </trkpt>
      <trkpt lat="43.52881" lon="5.55913">
        <ele>372.3</ele>
        <time>2023-05-28T12:23:40Z</time>
      </trkpt>
      <trkpt lat="43.52882" lon="5.55912">
        <ele>371.9</ele>
        <time>2023-05-28T12:23:41Z</time>
      </trkpt>
      <trkpt lat="43.52883" lon="5.5591">
        <ele>371.7</ele>
        <time>2023-05-28T12:23:42Z</time>
      </trkpt>
      <trkpt lat="43.52883" lon="5.55909">
        <ele>371.4</ele>
        <time>2023-05-28T12:23:43Z</time>
      </trkpt>
      <trkpt lat="43.52883" lon="5.55908">
        <ele>371.2</ele>
        <time>2023-05-28T12:23:44Z</time>
      </trkpt>
      <trkpt lat="43.52884" lon="5.55906">
        <ele>370.9</ele>
        <time>2023-05-28T12:23:45Z</time>
      </trkpt>
      <trkpt lat="43.52883" lon="5.55905">
        <ele>370.7</ele>
        <time>2023-05-28T12:23:46Z</time>
      </trkpt>
      <trkpt lat="43.52884" lon="5.55904">
        <ele>370.4</ele>
        <time>2023-05-28T12:23:47Z</time>
      </trkpt>
      <trkpt lat="43.52884" lon="5.55903">
        <ele>370</ele>
        <time>2023-05-28T12:23:48Z</time>
      </trkpt>
      <trkpt lat="43.52884" lon="5.55902">
        <ele>369.7</ele>
        <time>2023-05-28T12:23:49Z</time>
      </trkpt>
      <trkpt lat="43.52885" lon="5.55902">
        <ele>369.3</ele>
        <time>2023-05-28T12:23:50Z</time>
      </trkpt>
      <trkpt lat="43.52885" lon="5.55901">
        <ele>369</ele>
        <time>2023-05-28T12:23:51Z</time>
      </trkpt>
      <trkpt lat="43.52886" lon="5.559">
        <ele>368.8</ele>
        <time>2023-05-28T12:23:52Z</time>
      </trkpt>
      <trkpt lat="43.52887" lon="5.55899">
        <ele>368.5</ele>
        <time>2023-05-28T12:23:53Z</time>
      </trkpt>
      <trkpt lat="43.52889" lon="5.55898">
        <ele>368.2</ele>
        <time>2023-05-28T12:23:54Z</time>
      </trkpt>
      <trkpt lat="43.52889" lon="5.55897">
        <ele>368</ele>
        <time>2023-05-28T12:23:55Z</time>
      </trkpt>
      <trkpt lat="43.5289" lon="5.55896">
        <ele>367.8</ele>
        <time>2023-05-28T12:23:56Z</time>
      </trkpt>
      <trkpt lat="43.52892" lon="5.55895">
        <ele>367.6</ele>
        <time>2023-05-28T12:23:57Z</time>
      </trkpt>
      <trkpt lat="43.52893" lon="5.55892">
        <ele>367.4</ele>
        <time>2023-05-28T12:23:58Z</time>
      </trkpt>
      <trkpt lat="43.52893" lon="5.55891">
        <ele>367.3</ele>
        <time>2023-05-28T12:23:59Z</time>
      </trkpt>
      <trkpt lat="43.52893" lon="5.5589">
        <ele>367.2</ele>
        <time>2023-05-28T12:24:00Z</time>
      </trkpt>
      <trkpt lat="43.52893" lon="5.55889">
        <ele>367</ele>
        <time>2023-05-28T12:24:01Z</time>
      </trkpt>
      <trkpt lat="43.52894" lon="5.55886">
        <ele>366.9</ele>
        <time>2023-05-28T12:24:02Z</time>
      </trkpt>
      <trkpt lat="43.52894" lon="5.55884">
        <ele>366.8</ele>
        <time>2023-05-28T12:24:03Z</time>
      </trkpt>
      <trkpt lat="43.52894" lon="5.55882">
        <ele>366.8</ele>
        <time>2023-05-28T12:24:04Z</time>
      </trkpt>
      <trkpt lat="43.52894" lon="5.5588">
        <ele>366.5</ele>
        <time>2023-05-28T12:24:05Z</time>
      </trkpt>
      <trkpt lat="43.52894" lon="5.55879">
        <ele>366.4</ele>
        <time>2023-05-28T12:24:06Z</time>
      </trkpt>
      <trkpt lat="43.52894" lon="5.55877">
        <ele>366.2</ele>
        <time>2023-05-28T12:24:07Z</time>
      </trkpt>
      <trkpt lat="43.52894" lon="5.55875">
        <ele>366.1</ele>
        <time>2023-05-28T12:24:08Z</time>
      </trkpt>
      <trkpt lat="43.52895" lon="5.55873">
        <ele>366</ele>
        <time>2023-05-28T12:24:09Z</time>
      </trkpt>
      <trkpt lat="43.52895" lon="5.55871">
        <ele>365.9</ele>
        <time>2023-05-28T12:24:10Z</time>
      </trkpt>
      <trkpt lat="43.52895" lon="5.55869">
        <ele>365.7</ele>
        <time>2023-05-28T12:24:11Z</time>
      </trkpt>
      <trkpt lat="43.52895" lon="5.55867">
        <ele>365.7</ele>
        <time>2023-05-28T12:24:12Z</time>
      </trkpt>
      <trkpt lat="43.52895" lon="5.55866">
        <ele>365.7</ele>
        <time>2023-05-28T12:24:13Z</time>
      </trkpt>
      <trkpt lat="43.52895" lon="5.55864">
        <ele>365.5</ele>
        <time>2023-05-28T12:24:14Z</time>
      </trkpt>
      <trkpt lat="43.52895" lon="5.55863">
        <ele>365.4</ele>
        <time>2023-05-28T12:24:15Z</time>
      </trkpt>
      <trkpt lat="43.52895" lon="5.55861">
        <ele>365.2</ele>
        <time>2023-05-28T12:24:16Z</time>
      </trkpt>
      <trkpt lat="43.52895" lon="5.55859">
        <ele>365.2</ele>
        <time>2023-05-28T12:24:17Z</time>
      </trkpt>
      <trkpt lat="43.52895" lon="5.55858">
        <ele>365</ele>
        <time>2023-05-28T12:24:18Z</time>
      </trkpt>
      <trkpt lat="43.52895" lon="5.55856">
        <ele>364.8</ele>
        <time>2023-05-28T12:24:19Z</time>
      </trkpt>
      <trkpt lat="43.52894" lon="5.55854">
        <ele>364.7</ele>
        <time>2023-05-28T12:24:20Z</time>
      </trkpt>
      <trkpt lat="43.52894" lon="5.55852">
        <ele>364.6</ele>
        <time>2023-05-28T12:24:21Z</time>
      </trkpt>
      <trkpt lat="43.52895" lon="5.5585">
        <ele>364.4</ele>
        <time>2023-05-28T12:24:22Z</time>
      </trkpt>
      <trkpt lat="43.52896" lon="5.55848">
        <ele>364.3</ele>
        <time>2023-05-28T12:24:23Z</time>
      </trkpt>
      <trkpt lat="43.52896" lon="5.55845">
        <ele>364.2</ele>
        <time>2023-05-28T12:24:24Z</time>
      </trkpt>
      <trkpt lat="43.52897" lon="5.55843">
        <ele>364.1</ele>
        <time>2023-05-28T12:24:25Z</time>
      </trkpt>
      <trkpt lat="43.52899" lon="5.5584">
        <ele>364</ele>
        <time>2023-05-28T12:24:26Z</time>
      </trkpt>
      <trkpt lat="43.52899" lon="5.55838">
        <ele>363.9</ele>
        <time>2023-05-28T12:24:27Z</time>
      </trkpt>
      <trkpt lat="43.52899" lon="5.55836">
        <ele>363.8</ele>
        <time>2023-05-28T12:24:28Z</time>
      </trkpt>
      <trkpt lat="43.52899" lon="5.55834">
        <ele>363.7</ele>
        <time>2023-05-28T12:24:29Z</time>
      </trkpt>
      <trkpt lat="43.52899" lon="5.55832">
        <ele>363.5</ele>
        <time>2023-05-28T12:24:30Z</time>
      </trkpt>
      <trkpt lat="43.52899" lon="5.5583">
        <ele>363.4</ele>
        <time>2023-05-28T12:24:31Z</time>
      </trkpt>
      <trkpt lat="43.529" lon="5.55828">
        <ele>363.3</ele>
        <time>2023-05-28T12:24:32Z</time>
      </trkpt>
      <trkpt lat="43.529" lon="5.55827">
        <ele>363.2</ele>
        <time>2023-05-28T12:24:33Z</time>
      </trkpt>
      <trkpt lat="43.52899" lon="5.55825">
        <ele>363.1</ele>
        <time>2023-05-28T12:24:34Z</time>
      </trkpt>
      <trkpt lat="43.52899" lon="5.55824">
        <ele>362.9</ele>
        <time>2023-05-28T12:24:35Z</time>
      </trkpt>
      <trkpt lat="43.52899" lon="5.55822">
        <ele>362.8</ele>
        <time>2023-05-28T12:24:36Z</time>
      </trkpt>
      <trkpt lat="43.52899" lon="5.55821">
        <ele>362.7</ele>
        <time>2023-05-28T12:24:37Z</time>
      </trkpt>
      <trkpt lat="43.52899" lon="5.55819">
        <ele>362.6</ele>
        <time>2023-05-28T12:24:38Z</time>
      </trkpt>
      <trkpt lat="43.52899" lon="5.55817">
        <ele>362.6</ele>
        <time>2023-05-28T12:24:39Z</time>
      </trkpt>
      <trkpt lat="43.52899" lon="5.55816">
        <ele>362.5</ele>
        <time>2023-05-28T12:24:40Z</time>
      </trkpt>
      <trkpt lat="43.52899" lon="5.55814">
        <ele>362.3</ele>
        <time>2023-05-28T12:24:41Z</time>
      </trkpt>
      <trkpt lat="43.529" lon="5.55812">
        <ele>362.3</ele>
        <time>2023-05-28T12:24:42Z</time>
      </trkpt>
      <trkpt lat="43.529" lon="5.5581">
        <ele>362.1</ele>
        <time>2023-05-28T12:24:43Z</time>
      </trkpt>
      <trkpt lat="43.529" lon="5.55809">
        <ele>362</ele>
        <time>2023-05-28T12:24:44Z</time>
      </trkpt>
      <trkpt lat="43.529" lon="5.55808">
        <ele>361.9</ele>
        <time>2023-05-28T12:24:45Z</time>
      </trkpt>
      <trkpt lat="43.529" lon="5.55807">
        <ele>361.8</ele>
        <time>2023-05-28T12:24:46Z</time>
      </trkpt>
      <trkpt lat="43.529" lon="5.55806">
        <ele>361.8</ele>
        <time>2023-05-28T12:24:47Z</time>
      </trkpt>
      <trkpt lat="43.52899" lon="5.55805">
        <ele>361.7</ele>
        <time>2023-05-28T12:24:48Z</time>
      </trkpt>
      <trkpt lat="43.52899" lon="5.55804">
        <ele>361.5</ele>
        <time>2023-05-28T12:24:49Z</time>
      </trkpt>
      <trkpt lat="43.52899" lon="5.55803">
        <ele>361.4</ele>
        <time>2023-05-28T12:24:50Z</time>
      </trkpt>
      <trkpt lat="43.52899" lon="5.55801">
        <ele>361.3</ele>
        <time>2023-05-28T12:24:51Z</time>
      </trkpt>
      <trkpt lat="43.52899" lon="5.55799">
        <ele>361.3</ele>
        <time>2023-05-28T12:24:52Z</time>
      </trkpt>
      <trkpt lat="43.52899" lon="5.55796">
        <ele>361.3</ele>
        <time>2023-05-28T12:24:53Z</time>
      </trkpt>
      <trkpt lat="43.52899" lon="5.55794">
        <ele>361.3</ele>
        <time>2023-05-28T12:24:54Z</time>
      </trkpt>
      <trkpt lat="43.52899" lon="5.55792">
        <ele>361.2</ele>
        <time>2023-05-28T12:24:55Z</time>
      </trkpt>
      <trkpt lat="43.52899" lon="5.55791">
        <ele>361.1</ele>
        <time>2023-05-28T12:24:56Z</time>
      </trkpt>
      <trkpt lat="43.52898" lon="5.55789">
        <ele>361</ele>
        <time>2023-05-28T12:24:57Z</time>
      </trkpt>
      <trkpt lat="43.52898" lon="5.55788">
        <ele>360.9</ele>
        <time>2023-05-28T12:24:58Z</time>
      </trkpt>
      <trkpt lat="43.529" lon="5.55786">
        <ele>360.8</ele>
        <time>2023-05-28T12:24:59Z</time>
      </trkpt>
      <trkpt lat="43.52899" lon="5.55785">
        <ele>360.6</ele>
        <time>2023-05-28T12:25:00Z</time>
      </trkpt>
      <trkpt lat="43.52899" lon="5.55784">
        <ele>360.5</ele>
        <time>2023-05-28T12:25:01Z</time>
      </trkpt>
      <trkpt lat="43.52898" lon="5.55782">
        <ele>360.5</ele>
        <time>2023-05-28T12:25:02Z</time>
      </trkpt>
      <trkpt lat="43.52899" lon="5.55781">
        <ele>360.4</ele>
        <time>2023-05-28T12:25:03Z</time>
      </trkpt>
      <trkpt lat="43.52898" lon="5.55779">
        <ele>360.3</ele>
        <time>2023-05-28T12:25:04Z</time>
      </trkpt>
      <trkpt lat="43.52898" lon="5.55777">
        <ele>360.2</ele>
        <time>2023-05-28T12:25:05Z</time>
      </trkpt>
      <trkpt lat="43.52897" lon="5.55775">
        <ele>360.1</ele>
        <time>2023-05-28T12:25:06Z</time>
      </trkpt>
      <trkpt lat="43.52897" lon="5.55773">
        <ele>359.9</ele>
        <time>2023-05-28T12:25:07Z</time>
      </trkpt>
      <trkpt lat="43.52897" lon="5.55772">
        <ele>359.8</ele>
        <time>2023-05-28T12:25:08Z</time>
      </trkpt>
      <trkpt lat="43.52897" lon="5.5577">
        <ele>359.7</ele>
        <time>2023-05-28T12:25:09Z</time>
      </trkpt>
      <trkpt lat="43.52897" lon="5.55768">
        <ele>359.6</ele>
        <time>2023-05-28T12:25:10Z</time>
      </trkpt>
      <trkpt lat="43.52897" lon="5.55767">
        <ele>359.5</ele>
        <time>2023-05-28T12:25:11Z</time>
      </trkpt>
      <trkpt lat="43.52896" lon="5.55765">
        <ele>359.4</ele>
        <time>2023-05-28T12:25:12Z</time>
      </trkpt>
      <trkpt lat="43.52896" lon="5.55764">
        <ele>359.3</ele>
        <time>2023-05-28T12:25:13Z</time>
      </trkpt>
      <trkpt lat="43.52896" lon="5.55762">
        <ele>359.1</ele>
        <time>2023-05-28T12:25:14Z</time>
      </trkpt>
      <trkpt lat="43.52896" lon="5.5576">
        <ele>359</ele>
        <time>2023-05-28T12:25:15Z</time>
      </trkpt>
      <trkpt lat="43.52895" lon="5.55759">
        <ele>359</ele>
        <time>2023-05-28T12:25:16Z</time>
      </trkpt>
      <trkpt lat="43.52895" lon="5.55757">
        <ele>358.9</ele>
        <time>2023-05-28T12:25:17Z</time>
      </trkpt>
      <trkpt lat="43.52895" lon="5.55755">
        <ele>358.7</ele>
        <time>2023-05-28T12:25:18Z</time>
      </trkpt>
      <trkpt lat="43.52895" lon="5.55754">
        <ele>358.6</ele>
        <time>2023-05-28T12:25:19Z</time>
      </trkpt>
      <trkpt lat="43.52894" lon="5.55753">
        <ele>358.5</ele>
        <time>2023-05-28T12:25:20Z</time>
      </trkpt>
      <trkpt lat="43.52893" lon="5.55751">
        <ele>358.4</ele>
        <time>2023-05-28T12:25:21Z</time>
      </trkpt>
      <trkpt lat="43.52893" lon="5.55749">
        <ele>358.2</ele>
        <time>2023-05-28T12:25:22Z</time>
      </trkpt>
      <trkpt lat="43.52892" lon="5.55747">
        <ele>358.1</ele>
        <time>2023-05-28T12:25:23Z</time>
      </trkpt>
      <trkpt lat="43.52892" lon="5.55745">
        <ele>357.9</ele>
        <time>2023-05-28T12:25:24Z</time>
      </trkpt>
      <trkpt lat="43.52891" lon="5.55744">
        <ele>357.7</ele>
        <time>2023-05-28T12:25:25Z</time>
      </trkpt>
      <trkpt lat="43.52891" lon="5.55742">
        <ele>357.6</ele>
        <time>2023-05-28T12:25:26Z</time>
      </trkpt>
      <trkpt lat="43.52891" lon="5.5574">
        <ele>357.6</ele>
        <time>2023-05-28T12:25:27Z</time>
      </trkpt>
      <trkpt lat="43.52891" lon="5.55739">
        <ele>357.5</ele>
        <time>2023-05-28T12:25:28Z</time>
      </trkpt>
      <trkpt lat="43.5289" lon="5.55737">
        <ele>357.4</ele>
        <time>2023-05-28T12:25:29Z</time>
      </trkpt>
      <trkpt lat="43.5289" lon="5.55735">
        <ele>357.3</ele>
        <time>2023-05-28T12:25:30Z</time>
      </trkpt>
      <trkpt lat="43.5289" lon="5.55733">
        <ele>357.2</ele>
        <time>2023-05-28T12:25:31Z</time>
      </trkpt>
      <trkpt lat="43.52889" lon="5.55731">
        <ele>357</ele>
        <time>2023-05-28T12:25:32Z</time>
      </trkpt>
      <trkpt lat="43.52889" lon="5.5573">
        <ele>356.9</ele>
        <time>2023-05-28T12:25:33Z</time>
      </trkpt>
      <trkpt lat="43.52889" lon="5.55728">
        <ele>356.8</ele>
        <time>2023-05-28T12:25:34Z</time>
      </trkpt>
      <trkpt lat="43.52888" lon="5.55726">
        <ele>356.7</ele>
        <time>2023-05-28T12:25:35Z</time>
      </trkpt>
      <trkpt lat="43.52888" lon="5.55725">
        <ele>356.5</ele>
        <time>2023-05-28T12:25:36Z</time>
      </trkpt>
      <trkpt lat="43.52888" lon="5.55723">
        <ele>356.4</ele>
        <time>2023-05-28T12:25:37Z</time>
      </trkpt>
      <trkpt lat="43.52887" lon="5.55722">
        <ele>356.2</ele>
        <time>2023-05-28T12:25:38Z</time>
      </trkpt>
      <trkpt lat="43.52886" lon="5.5572">
        <ele>356.1</ele>
        <time>2023-05-28T12:25:39Z</time>
      </trkpt>
      <trkpt lat="43.52886" lon="5.55719">
        <ele>356</ele>
        <time>2023-05-28T12:25:40Z</time>
      </trkpt>
      <trkpt lat="43.52886" lon="5.55717">
        <ele>355.9</ele>
        <time>2023-05-28T12:25:41Z</time>
      </trkpt>
      <trkpt lat="43.52885" lon="5.55715">
        <ele>355.9</ele>
        <time>2023-05-28T12:25:42Z</time>
      </trkpt>
      <trkpt lat="43.52885" lon="5.55714">
        <ele>355.8</ele>
        <time>2023-05-28T12:25:43Z</time>
      </trkpt>
      <trkpt lat="43.52884" lon="5.55712">
        <ele>355.6</ele>
        <time>2023-05-28T12:25:44Z</time>
      </trkpt>
      <trkpt lat="43.52884" lon="5.5571">
        <ele>355.6</ele>
        <time>2023-05-28T12:25:45Z</time>
      </trkpt>
      <trkpt lat="43.52884" lon="5.55708">
        <ele>355.4</ele>
        <time>2023-05-28T12:25:46Z</time>
      </trkpt>
      <trkpt lat="43.52884" lon="5.55706">
        <ele>355.4</ele>
        <time>2023-05-28T12:25:47Z</time>
      </trkpt>
      <trkpt lat="43.52883" lon="5.55705">
        <ele>355.3</ele>
        <time>2023-05-28T12:25:48Z</time>
      </trkpt>
      <trkpt lat="43.52883" lon="5.55703">
        <ele>355.2</ele>
        <time>2023-05-28T12:25:49Z</time>
      </trkpt>
      <trkpt lat="43.52883" lon="5.55701">
        <ele>355.1</ele>
        <time>2023-05-28T12:25:50Z</time>
      </trkpt>
      <trkpt lat="43.52884" lon="5.55699">
        <ele>355</ele>
        <time>2023-05-28T12:25:51Z</time>
      </trkpt>
      <trkpt lat="43.52884" lon="5.55697">
        <ele>354.9</ele>
        <time>2023-05-28T12:25:52Z</time>
      </trkpt>
      <trkpt lat="43.52883" lon="5.55696">
        <ele>354.8</ele>
        <time>2023-05-28T12:25:53Z</time>
      </trkpt>
      <trkpt lat="43.52882" lon="5.55694">
        <ele>354.7</ele>
        <time>2023-05-28T12:25:54Z</time>
      </trkpt>
      <trkpt lat="43.52882" lon="5.55692">
        <ele>354.6</ele>
        <time>2023-05-28T12:25:55Z</time>
      </trkpt>
      <trkpt lat="43.52881" lon="5.55691">
        <ele>354.6</ele>
        <time>2023-05-28T12:25:56Z</time>
      </trkpt>
      <trkpt lat="43.52881" lon="5.55689">
        <ele>354.5</ele>
        <time>2023-05-28T12:25:57Z</time>
      </trkpt>
      <trkpt lat="43.52881" lon="5.55687">
        <ele>354.4</ele>
        <time>2023-05-28T12:25:58Z</time>
      </trkpt>
      <trkpt lat="43.5288" lon="5.55686">
        <ele>354.2</ele>
        <time>2023-05-28T12:25:59Z</time>
      </trkpt>
      <trkpt lat="43.5288" lon="5.55684">
        <ele>354.1</ele>
        <time>2023-05-28T12:26:00Z</time>
      </trkpt>
      <trkpt lat="43.52879" lon="5.55682">
        <ele>354</ele>
        <time>2023-05-28T12:26:01Z</time>
      </trkpt>
      <trkpt lat="43.52879" lon="5.55681">
        <ele>353.9</ele>
        <time>2023-05-28T12:26:02Z</time>
      </trkpt>
      <trkpt lat="43.52878" lon="5.5568">
        <ele>353.8</ele>
        <time>2023-05-28T12:26:03Z</time>
      </trkpt>
      <trkpt lat="43.52878" lon="5.55678">
        <ele>353.8</ele>
        <time>2023-05-28T12:26:04Z</time>
      </trkpt>
      <trkpt lat="43.52878" lon="5.55678">
        <ele>353.7</ele>
        <time>2023-05-28T12:26:05Z</time>
      </trkpt>
      <trkpt lat="43.52878" lon="5.55677">
        <ele>353.6</ele>
        <time>2023-05-28T12:26:06Z</time>
      </trkpt>
      <trkpt lat="43.52878" lon="5.55676">
        <ele>353.6</ele>
        <time>2023-05-28T12:26:07Z</time>
      </trkpt>
      <trkpt lat="43.52878" lon="5.55674">
        <ele>353.5</ele>
        <time>2023-05-28T12:26:08Z</time>
      </trkpt>
      <trkpt lat="43.52878" lon="5.55672">
        <ele>353.4</ele>
        <time>2023-05-28T12:26:09Z</time>
      </trkpt>
      <trkpt lat="43.52878" lon="5.55671">
        <ele>353.4</ele>
        <time>2023-05-28T12:26:10Z</time>
      </trkpt>
      <trkpt lat="43.52877" lon="5.55669">
        <ele>353.4</ele>
        <time>2023-05-28T12:26:11Z</time>
      </trkpt>
      <trkpt lat="43.52877" lon="5.55668">
        <ele>353.3</ele>
        <time>2023-05-28T12:26:12Z</time>
      </trkpt>
      <trkpt lat="43.52877" lon="5.55667">
        <ele>353.2</ele>
        <time>2023-05-28T12:26:13Z</time>
      </trkpt>
      <trkpt lat="43.52876" lon="5.55665">
        <ele>353</ele>
        <time>2023-05-28T12:26:14Z</time>
      </trkpt>
      <trkpt lat="43.52876" lon="5.55664">
        <ele>352.8</ele>
        <time>2023-05-28T12:26:15Z</time>
      </trkpt>
      <trkpt lat="43.52877" lon="5.55662">
        <ele>352.7</ele>
        <time>2023-05-28T12:26:16Z</time>
      </trkpt>
      <trkpt lat="43.52876" lon="5.55661">
        <ele>352.5</ele>
        <time>2023-05-28T12:26:17Z</time>
      </trkpt>
      <trkpt lat="43.52875" lon="5.55659">
        <ele>352.3</ele>
        <time>2023-05-28T12:26:18Z</time>
      </trkpt>
      <trkpt lat="43.52875" lon="5.55657">
        <ele>352.2</ele>
        <time>2023-05-28T12:26:19Z</time>
      </trkpt>
      <trkpt lat="43.52875" lon="5.55655">
        <ele>352.2</ele>
        <time>2023-05-28T12:26:20Z</time>
      </trkpt>
      <trkpt lat="43.52875" lon="5.55654">
        <ele>352.1</ele>
        <time>2023-05-28T12:26:21Z</time>
      </trkpt>
      <trkpt lat="43.52875" lon="5.55652">
        <ele>352</ele>
        <time>2023-05-28T12:26:22Z</time>
      </trkpt>
      <trkpt lat="43.52875" lon="5.5565">
        <ele>351.9</ele>
        <time>2023-05-28T12:26:23Z</time>
      </trkpt>
      <trkpt lat="43.52875" lon="5.55648">
        <ele>351.8</ele>
        <time>2023-05-28T12:26:24Z</time>
      </trkpt>
      <trkpt lat="43.52875" lon="5.55646">
        <ele>351.6</ele>
        <time>2023-05-28T12:26:25Z</time>
      </trkpt>
      <trkpt lat="43.52875" lon="5.55644">
        <ele>351.5</ele>
        <time>2023-05-28T12:26:26Z</time>
      </trkpt>
      <trkpt lat="43.52874" lon="5.55643">
        <ele>351.3</ele>
        <time>2023-05-28T12:26:27Z</time>
      </trkpt>
      <trkpt lat="43.52874" lon="5.55641">
        <ele>351.1</ele>
        <time>2023-05-28T12:26:28Z</time>
      </trkpt>
      <trkpt lat="43.52874" lon="5.5564">
        <ele>351</ele>
        <time>2023-05-28T12:26:29Z</time>
      </trkpt>
      <trkpt lat="43.52874" lon="5.55638">
        <ele>351</ele>
        <time>2023-05-28T12:26:30Z</time>
      </trkpt>
      <trkpt lat="43.52874" lon="5.55637">
        <ele>350.9</ele>
        <time>2023-05-28T12:26:31Z</time>
      </trkpt>
      <trkpt lat="43.52875" lon="5.55635">
        <ele>350.8</ele>
        <time>2023-05-28T12:26:32Z</time>
      </trkpt>
      <trkpt lat="43.52876" lon="5.55633">
        <ele>350.7</ele>
        <time>2023-05-28T12:26:33Z</time>
      </trkpt>
      <trkpt lat="43.52875" lon="5.55632">
        <ele>350.6</ele>
        <time>2023-05-28T12:26:34Z</time>
      </trkpt>
      <trkpt lat="43.52874" lon="5.5563">
        <ele>350.4</ele>
        <time>2023-05-28T12:26:35Z</time>
      </trkpt>
      <trkpt lat="43.52874" lon="5.55628">
        <ele>350.3</ele>
        <time>2023-05-28T12:26:36Z</time>
      </trkpt>
      <trkpt lat="43.52873" lon="5.55626">
        <ele>350.1</ele>
        <time>2023-05-28T12:26:37Z</time>
      </trkpt>
      <trkpt lat="43.52872" lon="5.55624">
        <ele>350</ele>
        <time>2023-05-28T12:26:38Z</time>
      </trkpt>
      <trkpt lat="43.52872" lon="5.55623">
        <ele>349.9</ele>
        <time>2023-05-28T12:26:39Z</time>
      </trkpt>
      <trkpt lat="43.52871" lon="5.55622">
        <ele>349.8</ele>
        <time>2023-05-28T12:26:40Z</time>
      </trkpt>
      <trkpt lat="43.52871" lon="5.55621">
        <ele>349.6</ele>
        <time>2023-05-28T12:26:41Z</time>
      </trkpt>
      <trkpt lat="43.5287" lon="5.55619">
        <ele>349.5</ele>
        <time>2023-05-28T12:26:42Z</time>
      </trkpt>
      <trkpt lat="43.52869" lon="5.55618">
        <ele>349.4</ele>
        <time>2023-05-28T12:26:43Z</time>
      </trkpt>
      <trkpt lat="43.52868" lon="5.55617">
        <ele>349.3</ele>
        <time>2023-05-28T12:26:44Z</time>
      </trkpt>
      <trkpt lat="43.52867" lon="5.55616">
        <ele>349.2</ele>
        <time>2023-05-28T12:26:45Z</time>
      </trkpt>
      <trkpt lat="43.52867" lon="5.55615">
        <ele>349.2</ele>
        <time>2023-05-28T12:26:46Z</time>
      </trkpt>
      <trkpt lat="43.52866" lon="5.55613">
        <ele>349.1</ele>
        <time>2023-05-28T12:26:47Z</time>
      </trkpt>
      <trkpt lat="43.52866" lon="5.55611">
        <ele>348.9</ele>
        <time>2023-05-28T12:26:48Z</time>
      </trkpt>
      <trkpt lat="43.52865" lon="5.55609">
        <ele>348.8</ele>
        <time>2023-05-28T12:26:49Z</time>
      </trkpt>
      <trkpt lat="43.52865" lon="5.55607">
        <ele>348.7</ele>
        <time>2023-05-28T12:26:50Z</time>
      </trkpt>
      <trkpt lat="43.52865" lon="5.55606">
        <ele>348.6</ele>
        <time>2023-05-28T12:26:51Z</time>
      </trkpt>
      <trkpt lat="43.52864" lon="5.55605">
        <ele>348.4</ele>
        <time>2023-05-28T12:26:52Z</time>
      </trkpt>
      <trkpt lat="43.52864" lon="5.55604">
        <ele>348.5</ele>
        <time>2023-05-28T12:26:53Z</time>
      </trkpt>
      <trkpt lat="43.52863" lon="5.55602">
        <ele>348.4</ele>
        <time>2023-05-28T12:26:54Z</time>
      </trkpt>
      <trkpt lat="43.52863" lon="5.55601">
        <ele>348.3</ele>
        <time>2023-05-28T12:26:55Z</time>
      </trkpt>
      <trkpt lat="43.52863" lon="5.556">
        <ele>348.3</ele>
        <time>2023-05-28T12:26:56Z</time>
      </trkpt>
      <trkpt lat="43.52864" lon="5.55598">
        <ele>348.2</ele>
        <time>2023-05-28T12:26:57Z</time>
      </trkpt>
      <trkpt lat="43.52864" lon="5.55596">
        <ele>348.2</ele>
        <time>2023-05-28T12:26:58Z</time>
      </trkpt>
      <trkpt lat="43.52864" lon="5.55594">
        <ele>348.1</ele>
        <time>2023-05-28T12:26:59Z</time>
      </trkpt>
      <trkpt lat="43.52864" lon="5.55593">
        <ele>348.1</ele>
        <time>2023-05-28T12:27:00Z</time>
      </trkpt>
      <trkpt lat="43.52864" lon="5.55592">
        <ele>348</ele>
        <time>2023-05-28T12:27:01Z</time>
      </trkpt>
      <trkpt lat="43.52865" lon="5.55591">
        <ele>348</ele>
        <time>2023-05-28T12:27:02Z</time>
      </trkpt>
      <trkpt lat="43.52865" lon="5.55589">
        <ele>347.8</ele>
        <time>2023-05-28T12:27:03Z</time>
      </trkpt>
      <trkpt lat="43.52865" lon="5.55587">
        <ele>347.6</ele>
        <time>2023-05-28T12:27:04Z</time>
      </trkpt>
      <trkpt lat="43.52866" lon="5.55586">
        <ele>347.4</ele>
        <time>2023-05-28T12:27:05Z</time>
      </trkpt>
      <trkpt lat="43.52866" lon="5.55585">
        <ele>347.3</ele>
        <time>2023-05-28T12:27:06Z</time>
      </trkpt>
      <trkpt lat="43.52865" lon="5.55583">
        <ele>347.1</ele>
        <time>2023-05-28T12:27:07Z</time>
      </trkpt>
      <trkpt lat="43.52865" lon="5.55581">
        <ele>347</ele>
        <time>2023-05-28T12:27:08Z</time>
      </trkpt>
      <trkpt lat="43.52866" lon="5.5558">
        <ele>346.9</ele>
        <time>2023-05-28T12:27:09Z</time>
      </trkpt>
      <trkpt lat="43.52865" lon="5.55579">
        <ele>346.8</ele>
        <time>2023-05-28T12:27:10Z</time>
      </trkpt>
      <trkpt lat="43.52865" lon="5.55577">
        <ele>346.6</ele>
        <time>2023-05-28T12:27:11Z</time>
      </trkpt>
      <trkpt lat="43.52866" lon="5.55575">
        <ele>346.5</ele>
        <time>2023-05-28T12:27:12Z</time>
      </trkpt>
      <trkpt lat="43.52866" lon="5.55574">
        <ele>346.3</ele>
        <time>2023-05-28T12:27:13Z</time>
      </trkpt>
      <trkpt lat="43.52865" lon="5.55571">
        <ele>346.2</ele>
        <time>2023-05-28T12:27:14Z</time>
      </trkpt>
      <trkpt lat="43.52865" lon="5.5557">
        <ele>346.1</ele>
        <time>2023-05-28T12:27:15Z</time>
      </trkpt>
      <trkpt lat="43.52865" lon="5.55568">
        <ele>346.1</ele>
        <time>2023-05-28T12:27:16Z</time>
      </trkpt>
      <trkpt lat="43.52865" lon="5.55566">
        <ele>346</ele>
        <time>2023-05-28T12:27:17Z</time>
      </trkpt>
      <trkpt lat="43.52864" lon="5.55564">
        <ele>345.9</ele>
        <time>2023-05-28T12:27:18Z</time>
      </trkpt>
      <trkpt lat="43.52864" lon="5.55563">
        <ele>345.8</ele>
        <time>2023-05-28T12:27:19Z</time>
      </trkpt>
      <trkpt lat="43.52864" lon="5.55561">
        <ele>345.8</ele>
        <time>2023-05-28T12:27:20Z</time>
      </trkpt>
      <trkpt lat="43.52865" lon="5.55559">
        <ele>345.8</ele>
        <time>2023-05-28T12:27:21Z</time>
      </trkpt>
      <trkpt lat="43.52865" lon="5.55557">
        <ele>345.7</ele>
        <time>2023-05-28T12:27:22Z</time>
      </trkpt>
      <trkpt lat="43.52865" lon="5.55555">
        <ele>345.7</ele>
        <time>2023-05-28T12:27:23Z</time>
      </trkpt>
      <trkpt lat="43.52864" lon="5.55554">
        <ele>345.5</ele>
        <time>2023-05-28T12:27:24Z</time>
      </trkpt>
      <trkpt lat="43.52865" lon="5.55552">
        <ele>345.3</ele>
        <time>2023-05-28T12:27:25Z</time>
      </trkpt>
      <trkpt lat="43.52865" lon="5.55551">
        <ele>345.3</ele>
        <time>2023-05-28T12:27:26Z</time>
      </trkpt>
      <trkpt lat="43.52866" lon="5.55549">
        <ele>345.2</ele>
        <time>2023-05-28T12:27:27Z</time>
      </trkpt>
      <trkpt lat="43.52866" lon="5.55548">
        <ele>345.2</ele>
        <time>2023-05-28T12:27:28Z</time>
      </trkpt>
      <trkpt lat="43.52867" lon="5.55546">
        <ele>345.2</ele>
        <time>2023-05-28T12:27:29Z</time>
      </trkpt>
      <trkpt lat="43.52867" lon="5.55544">
        <ele>345.1</ele>
        <time>2023-05-28T12:27:30Z</time>
      </trkpt>
      <trkpt lat="43.52867" lon="5.55542">
        <ele>345.1</ele>
        <time>2023-05-28T12:27:31Z</time>
      </trkpt>
      <trkpt lat="43.52868" lon="5.5554">
        <ele>345.1</ele>
        <time>2023-05-28T12:27:32Z</time>
      </trkpt>
      <trkpt lat="43.52868" lon="5.55539">
        <ele>345.1</ele>
        <time>2023-05-28T12:27:33Z</time>
      </trkpt>
      <trkpt lat="43.52868" lon="5.55538">
        <ele>345.1</ele>
        <time>2023-05-28T12:27:34Z</time>
      </trkpt>
      <trkpt lat="43.52868" lon="5.55537">
        <ele>345.1</ele>
        <time>2023-05-28T12:27:35Z</time>
      </trkpt>
      <trkpt lat="43.52868" lon="5.55537">
        <ele>345.2</ele>
        <time>2023-05-28T12:27:36Z</time>
      </trkpt>
      <trkpt lat="43.52868" lon="5.55535">
        <ele>345</ele>
        <time>2023-05-28T12:27:37Z</time>
      </trkpt>
      <trkpt lat="43.52869" lon="5.55533">
        <ele>344.8</ele>
        <time>2023-05-28T12:27:38Z</time>
      </trkpt>
      <trkpt lat="43.52869" lon="5.55531">
        <ele>344.7</ele>
        <time>2023-05-28T12:27:39Z</time>
      </trkpt>
      <trkpt lat="43.5287" lon="5.55529">
        <ele>344.6</ele>
        <time>2023-05-28T12:27:40Z</time>
      </trkpt>
      <trkpt lat="43.52871" lon="5.55527">
        <ele>344.6</ele>
        <time>2023-05-28T12:27:41Z</time>
      </trkpt>
      <trkpt lat="43.52872" lon="5.55526">
        <ele>344.6</ele>
        <time>2023-05-28T12:27:42Z</time>
      </trkpt>
      <trkpt lat="43.52872" lon="5.55524">
        <ele>344.5</ele>
        <time>2023-05-28T12:27:43Z</time>
      </trkpt>
      <trkpt lat="43.52872" lon="5.55521">
        <ele>344.5</ele>
        <time>2023-05-28T12:27:44Z</time>
      </trkpt>
      <trkpt lat="43.52872" lon="5.55519">
        <ele>344.4</ele>
        <time>2023-05-28T12:27:45Z</time>
      </trkpt>
      <trkpt lat="43.52872" lon="5.55516">
        <ele>344.3</ele>
        <time>2023-05-28T12:27:46Z</time>
      </trkpt>
      <trkpt lat="43.52872" lon="5.55514">
        <ele>344.3</ele>
        <time>2023-05-28T12:27:47Z</time>
      </trkpt>
      <trkpt lat="43.52872" lon="5.55511">
        <ele>344.3</ele>
        <time>2023-05-28T12:27:48Z</time>
      </trkpt>
      <trkpt lat="43.52872" lon="5.55509">
        <ele>344.2</ele>
        <time>2023-05-28T12:27:49Z</time>
      </trkpt>
      <trkpt lat="43.52872" lon="5.55507">
        <ele>344.1</ele>
        <time>2023-05-28T12:27:50Z</time>
      </trkpt>
      <trkpt lat="43.52872" lon="5.55505">
        <ele>344.1</ele>
        <time>2023-05-28T12:27:51Z</time>
      </trkpt>
      <trkpt lat="43.52872" lon="5.55503">
        <ele>344.1</ele>
        <time>2023-05-28T12:27:52Z</time>
      </trkpt>
      <trkpt lat="43.52872" lon="5.55502">
        <ele>344</ele>
        <time>2023-05-28T12:27:53Z</time>
      </trkpt>
      <trkpt lat="43.52872" lon="5.555">
        <ele>343.9</ele>
        <time>2023-05-28T12:27:54Z</time>
      </trkpt>
      <trkpt lat="43.52872" lon="5.55499">
        <ele>343.8</ele>
        <time>2023-05-28T12:27:55Z</time>
      </trkpt>
      <trkpt lat="43.52873" lon="5.55496">
        <ele>343.8</ele>
        <time>2023-05-28T12:27:56Z</time>
      </trkpt>
      <trkpt lat="43.52873" lon="5.55494">
        <ele>343.7</ele>
        <time>2023-05-28T12:27:57Z</time>
      </trkpt>
      <trkpt lat="43.52872" lon="5.55492">
        <ele>343.8</ele>
        <time>2023-05-28T12:27:58Z</time>
      </trkpt>
      <trkpt lat="43.52872" lon="5.5549">
        <ele>343.8</ele>
        <time>2023-05-28T12:27:59Z</time>
      </trkpt>
      <trkpt lat="43.52871" lon="5.55489">
        <ele>343.7</ele>
        <time>2023-05-28T12:28:00Z</time>
      </trkpt>
      <trkpt lat="43.52872" lon="5.55487">
        <ele>343.7</ele>
        <time>2023-05-28T12:28:01Z</time>
      </trkpt>
      <trkpt lat="43.52872" lon="5.55486">
        <ele>343.6</ele>
        <time>2023-05-28T12:28:02Z</time>
      </trkpt>
      <trkpt lat="43.52873" lon="5.55484">
        <ele>343.5</ele>
        <time>2023-05-28T12:28:03Z</time>
      </trkpt>
      <trkpt lat="43.52874" lon="5.55482">
        <ele>343.5</ele>
        <time>2023-05-28T12:28:04Z</time>
      </trkpt>
      <trkpt lat="43.52873" lon="5.5548">
        <ele>343.4</ele>
        <time>2023-05-28T12:28:05Z</time>
      </trkpt>
      <trkpt lat="43.52874" lon="5.55478">
        <ele>343.3</ele>
        <time>2023-05-28T12:28:06Z</time>
      </trkpt>
      <trkpt lat="43.52872" lon="5.55477">
        <ele>343.1</ele>
        <time>2023-05-28T12:28:07Z</time>
      </trkpt>
      <trkpt lat="43.52872" lon="5.55475">
        <ele>343</ele>
        <time>2023-05-28T12:28:08Z</time>
      </trkpt>
      <trkpt lat="43.52872" lon="5.55473">
        <ele>343</ele>
        <time>2023-05-28T12:28:09Z</time>
      </trkpt>
      <trkpt lat="43.52872" lon="5.55471">
        <ele>343</ele>
        <time>2023-05-28T12:28:10Z</time>
      </trkpt>
      <trkpt lat="43.52873" lon="5.55469">
        <ele>342.9</ele>
        <time>2023-05-28T12:28:11Z</time>
      </trkpt>
      <trkpt lat="43.52873" lon="5.55467">
        <ele>342.9</ele>
        <time>2023-05-28T12:28:12Z</time>
      </trkpt>
      <trkpt lat="43.52873" lon="5.55465">
        <ele>342.9</ele>
        <time>2023-05-28T12:28:13Z</time>
      </trkpt>
      <trkpt lat="43.52874" lon="5.55464">
        <ele>342.8</ele>
        <time>2023-05-28T12:28:14Z</time>
      </trkpt>
      <trkpt lat="43.52873" lon="5.55462">
        <ele>342.8</ele>
        <time>2023-05-28T12:28:15Z</time>
      </trkpt>
      <trkpt lat="43.52873" lon="5.5546">
        <ele>342.8</ele>
        <time>2023-05-28T12:28:16Z</time>
      </trkpt>
      <trkpt lat="43.52872" lon="5.55458">
        <ele>342.7</ele>
        <time>2023-05-28T12:28:17Z</time>
      </trkpt>
      <trkpt lat="43.52872" lon="5.55456">
        <ele>342.7</ele>
        <time>2023-05-28T12:28:18Z</time>
      </trkpt>
      <trkpt lat="43.52872" lon="5.55454">
        <ele>342.5</ele>
        <time>2023-05-28T12:28:19Z</time>
      </trkpt>
      <trkpt lat="43.52872" lon="5.55453">
        <ele>342.3</ele>
        <time>2023-05-28T12:28:20Z</time>
      </trkpt>
      <trkpt lat="43.52872" lon="5.55451">
        <ele>342.2</ele>
        <time>2023-05-28T12:28:21Z</time>
      </trkpt>
      <trkpt lat="43.52871" lon="5.55449">
        <ele>342.2</ele>
        <time>2023-05-28T12:28:22Z</time>
      </trkpt>
      <trkpt lat="43.52871" lon="5.55448">
        <ele>342.2</ele>
        <time>2023-05-28T12:28:23Z</time>
      </trkpt>
      <trkpt lat="43.52871" lon="5.55446">
        <ele>342.1</ele>
        <time>2023-05-28T12:28:24Z</time>
      </trkpt>
      <trkpt lat="43.52871" lon="5.55444">
        <ele>342</ele>
        <time>2023-05-28T12:28:25Z</time>
      </trkpt>
      <trkpt lat="43.5287" lon="5.55441">
        <ele>341.9</ele>
        <time>2023-05-28T12:28:26Z</time>
      </trkpt>
      <trkpt lat="43.5287" lon="5.55439">
        <ele>341.8</ele>
        <time>2023-05-28T12:28:27Z</time>
      </trkpt>
      <trkpt lat="43.52869" lon="5.55438">
        <ele>341.8</ele>
        <time>2023-05-28T12:28:28Z</time>
      </trkpt>
      <trkpt lat="43.5287" lon="5.55436">
        <ele>341.7</ele>
        <time>2023-05-28T12:28:29Z</time>
      </trkpt>
      <trkpt lat="43.52869" lon="5.55435">
        <ele>341.6</ele>
        <time>2023-05-28T12:28:30Z</time>
      </trkpt>
      <trkpt lat="43.52869" lon="5.55433">
        <ele>341.4</ele>
        <time>2023-05-28T12:28:31Z</time>
      </trkpt>
      <trkpt lat="43.52868" lon="5.55431">
        <ele>341.2</ele>
        <time>2023-05-28T12:28:32Z</time>
      </trkpt>
      <trkpt lat="43.52868" lon="5.5543">
        <ele>341.1</ele>
        <time>2023-05-28T12:28:33Z</time>
      </trkpt>
      <trkpt lat="43.52867" lon="5.55428">
        <ele>340.9</ele>
        <time>2023-05-28T12:28:34Z</time>
      </trkpt>
      <trkpt lat="43.52868" lon="5.55427">
        <ele>340.8</ele>
        <time>2023-05-28T12:28:35Z</time>
      </trkpt>
      <trkpt lat="43.52867" lon="5.55425">
        <ele>340.7</ele>
        <time>2023-05-28T12:28:36Z</time>
      </trkpt>
      <trkpt lat="43.52867" lon="5.55423">
        <ele>340.6</ele>
        <time>2023-05-28T12:28:37Z</time>
      </trkpt>
      <trkpt lat="43.52867" lon="5.55421">
        <ele>340.5</ele>
        <time>2023-05-28T12:28:38Z</time>
      </trkpt>
      <trkpt lat="43.52867" lon="5.55419">
        <ele>340.4</ele>
        <time>2023-05-28T12:28:39Z</time>
      </trkpt>
      <trkpt lat="43.52868" lon="5.55417">
        <ele>340.1</ele>
        <time>2023-05-28T12:28:40Z</time>
      </trkpt>
      <trkpt lat="43.52868" lon="5.55416">
        <ele>339.9</ele>
        <time>2023-05-28T12:28:41Z</time>
      </trkpt>
      <trkpt lat="43.52869" lon="5.55413">
        <ele>339.8</ele>
        <time>2023-05-28T12:28:42Z</time>
      </trkpt>
      <trkpt lat="43.52869" lon="5.55411">
        <ele>339.6</ele>
        <time>2023-05-28T12:28:43Z</time>
      </trkpt>
      <trkpt lat="43.52868" lon="5.55409">
        <ele>339.5</ele>
        <time>2023-05-28T12:28:44Z</time>
      </trkpt>
      <trkpt lat="43.52868" lon="5.55407">
        <ele>339.4</ele>
        <time>2023-05-28T12:28:45Z</time>
      </trkpt>
      <trkpt lat="43.52867" lon="5.55406">
        <ele>339.2</ele>
        <time>2023-05-28T12:28:46Z</time>
      </trkpt>
      <trkpt lat="43.52867" lon="5.55404">
        <ele>339.2</ele>
        <time>2023-05-28T12:28:47Z</time>
      </trkpt>
      <trkpt lat="43.52866" lon="5.55403">
        <ele>339.1</ele>
        <time>2023-05-28T12:28:48Z</time>
      </trkpt>
      <trkpt lat="43.52865" lon="5.55401">
        <ele>338.9</ele>
        <time>2023-05-28T12:28:49Z</time>
      </trkpt>
      <trkpt lat="43.52864" lon="5.554">
        <ele>338.8</ele>
        <time>2023-05-28T12:28:50Z</time>
      </trkpt>
      <trkpt lat="43.52864" lon="5.55398">
        <ele>338.6</ele>
        <time>2023-05-28T12:28:51Z</time>
      </trkpt>
      <trkpt lat="43.52863" lon="5.55397">
        <ele>338.4</ele>
        <time>2023-05-28T12:28:52Z</time>
      </trkpt>
      <trkpt lat="43.52863" lon="5.55395">
        <ele>338.2</ele>
        <time>2023-05-28T12:28:53Z</time>
      </trkpt>
      <trkpt lat="43.52862" lon="5.55393">
        <ele>338.1</ele>
        <time>2023-05-28T12:28:54Z</time>
      </trkpt>
      <trkpt lat="43.52862" lon="5.55391">
        <ele>338</ele>
        <time>2023-05-28T12:28:55Z</time>
      </trkpt>
      <trkpt lat="43.52862" lon="5.5539">
        <ele>337.9</ele>
        <time>2023-05-28T12:28:56Z</time>
      </trkpt>
      <trkpt lat="43.52862" lon="5.55388">
        <ele>337.8</ele>
        <time>2023-05-28T12:28:57Z</time>
      </trkpt>
      <trkpt lat="43.52861" lon="5.55386">
        <ele>337.6</ele>
        <time>2023-05-28T12:28:58Z</time>
      </trkpt>
      <trkpt lat="43.52861" lon="5.55385">
        <ele>337.4</ele>
        <time>2023-05-28T12:28:59Z</time>
      </trkpt>
      <trkpt lat="43.52861" lon="5.55383">
        <ele>337.2</ele>
        <time>2023-05-28T12:29:00Z</time>
      </trkpt>
      <trkpt lat="43.52861" lon="5.55381">
        <ele>337</ele>
        <time>2023-05-28T12:29:01Z</time>
      </trkpt>
      <trkpt lat="43.52861" lon="5.55379">
        <ele>336.9</ele>
        <time>2023-05-28T12:29:02Z</time>
      </trkpt>
      <trkpt lat="43.52861" lon="5.55378">
        <ele>336.8</ele>
        <time>2023-05-28T12:29:03Z</time>
      </trkpt>
      <trkpt lat="43.5286" lon="5.55376">
        <ele>336.6</ele>
        <time>2023-05-28T12:29:04Z</time>
      </trkpt>
      <trkpt lat="43.5286" lon="5.55374">
        <ele>336.4</ele>
        <time>2023-05-28T12:29:05Z</time>
      </trkpt>
      <trkpt lat="43.5286" lon="5.55373">
        <ele>336.3</ele>
        <time>2023-05-28T12:29:06Z</time>
      </trkpt>
      <trkpt lat="43.52858" lon="5.55371">
        <ele>336.1</ele>
        <time>2023-05-28T12:29:07Z</time>
      </trkpt>
      <trkpt lat="43.52857" lon="5.5537">
        <ele>336</ele>
        <time>2023-05-28T12:29:08Z</time>
      </trkpt>
      <trkpt lat="43.52857" lon="5.55368">
        <ele>335.8</ele>
        <time>2023-05-28T12:29:09Z</time>
      </trkpt>
      <trkpt lat="43.52857" lon="5.55366">
        <ele>335.5</ele>
        <time>2023-05-28T12:29:10Z</time>
      </trkpt>
      <trkpt lat="43.52857" lon="5.55364">
        <ele>335.3</ele>
        <time>2023-05-28T12:29:11Z</time>
      </trkpt>
      <trkpt lat="43.52856" lon="5.55363">
        <ele>335.1</ele>
        <time>2023-05-28T12:29:12Z</time>
      </trkpt>
      <trkpt lat="43.52856" lon="5.55361">
        <ele>334.9</ele>
        <time>2023-05-28T12:29:13Z</time>
      </trkpt>
      <trkpt lat="43.52855" lon="5.5536">
        <ele>334.7</ele>
        <time>2023-05-28T12:29:14Z</time>
      </trkpt>
      <trkpt lat="43.52854" lon="5.55358">
        <ele>334.5</ele>
        <time>2023-05-28T12:29:15Z</time>
      </trkpt>
      <trkpt lat="43.52853" lon="5.55357">
        <ele>334.4</ele>
        <time>2023-05-28T12:29:16Z</time>
      </trkpt>
      <trkpt lat="43.52853" lon="5.55355">
        <ele>334.2</ele>
        <time>2023-05-28T12:29:17Z</time>
      </trkpt>
      <trkpt lat="43.52852" lon="5.55354">
        <ele>334.1</ele>
        <time>2023-05-28T12:29:18Z</time>
      </trkpt>
      <trkpt lat="43.52852" lon="5.55352">
        <ele>333.9</ele>
        <time>2023-05-28T12:29:19Z</time>
      </trkpt>
      <trkpt lat="43.52852" lon="5.55351">
        <ele>333.7</ele>
        <time>2023-05-28T12:29:20Z</time>
      </trkpt>
      <trkpt lat="43.52851" lon="5.55349">
        <ele>333.5</ele>
        <time>2023-05-28T12:29:21Z</time>
      </trkpt>
      <trkpt lat="43.52851" lon="5.55347">
        <ele>333.3</ele>
        <time>2023-05-28T12:29:22Z</time>
      </trkpt>
      <trkpt lat="43.5285" lon="5.55346">
        <ele>333.2</ele>
        <time>2023-05-28T12:29:23Z</time>
      </trkpt>
      <trkpt lat="43.52849" lon="5.55344">
        <ele>333.1</ele>
        <time>2023-05-28T12:29:24Z</time>
      </trkpt>
      <trkpt lat="43.52849" lon="5.55343">
        <ele>332.9</ele>
        <time>2023-05-28T12:29:25Z</time>
      </trkpt>
      <trkpt lat="43.52848" lon="5.55342">
        <ele>332.7</ele>
        <time>2023-05-28T12:29:26Z</time>
      </trkpt>
      <trkpt lat="43.52846" lon="5.55341">
        <ele>332.6</ele>
        <time>2023-05-28T12:29:27Z</time>
      </trkpt>
      <trkpt lat="43.52846" lon="5.55339">
        <ele>332.4</ele>
        <time>2023-05-28T12:29:28Z</time>
      </trkpt>
      <trkpt lat="43.52845" lon="5.55338">
        <ele>332.3</ele>
        <time>2023-05-28T12:29:29Z</time>
      </trkpt>
      <trkpt lat="43.52844" lon="5.55337">
        <ele>332.1</ele>
        <time>2023-05-28T12:29:30Z</time>
      </trkpt>
      <trkpt lat="43.52844" lon="5.55336">
        <ele>332</ele>
        <time>2023-05-28T12:29:31Z</time>
      </trkpt>
      <trkpt lat="43.52843" lon="5.55334">
        <ele>331.8</ele>
        <time>2023-05-28T12:29:32Z</time>
      </trkpt>
      <trkpt lat="43.52843" lon="5.55333">
        <ele>331.7</ele>
        <time>2023-05-28T12:29:33Z</time>
      </trkpt>
      <trkpt lat="43.52842" lon="5.55331">
        <ele>331.5</ele>
        <time>2023-05-28T12:29:34Z</time>
      </trkpt>
      <trkpt lat="43.52842" lon="5.5533">
        <ele>331.3</ele>
        <time>2023-05-28T12:29:35Z</time>
      </trkpt>
      <trkpt lat="43.52842" lon="5.55328">
        <ele>331.2</ele>
        <time>2023-05-28T12:29:36Z</time>
      </trkpt>
      <trkpt lat="43.52841" lon="5.55327">
        <ele>331</ele>
        <time>2023-05-28T12:29:37Z</time>
      </trkpt>
      <trkpt lat="43.5284" lon="5.55325">
        <ele>330.8</ele>
        <time>2023-05-28T12:29:38Z</time>
      </trkpt>
      <trkpt lat="43.52839" lon="5.55324">
        <ele>330.7</ele>
        <time>2023-05-28T12:29:39Z</time>
      </trkpt>
      <trkpt lat="43.52839" lon="5.55322">
        <ele>330.6</ele>
        <time>2023-05-28T12:29:40Z</time>
      </trkpt>
      <trkpt lat="43.52839" lon="5.55321">
        <ele>330.3</ele>
        <time>2023-05-28T12:29:41Z</time>
      </trkpt>
      <trkpt lat="43.52838" lon="5.5532">
        <ele>330.2</ele>
        <time>2023-05-28T12:29:42Z</time>
      </trkpt>
      <trkpt lat="43.52837" lon="5.55319">
        <ele>330</ele>
        <time>2023-05-28T12:29:43Z</time>
      </trkpt>
      <trkpt lat="43.52837" lon="5.55318">
        <ele>329.9</ele>
        <time>2023-05-28T12:29:44Z</time>
      </trkpt>
      <trkpt lat="43.52836" lon="5.55316">
        <ele>329.7</ele>
        <time>2023-05-28T12:29:45Z</time>
      </trkpt>
      <trkpt lat="43.52836" lon="5.55315">
        <ele>329.5</ele>
        <time>2023-05-28T12:29:46Z</time>
      </trkpt>
      <trkpt lat="43.52835" lon="5.55313">
        <ele>329.4</ele>
        <time>2023-05-28T12:29:47Z</time>
      </trkpt>
      <trkpt lat="43.52835" lon="5.55312">
        <ele>329.3</ele>
        <time>2023-05-28T12:29:48Z</time>
      </trkpt>
      <trkpt lat="43.52834" lon="5.5531">
        <ele>329.1</ele>
        <time>2023-05-28T12:29:49Z</time>
      </trkpt>
      <trkpt lat="43.52834" lon="5.55309">
        <ele>329</ele>
        <time>2023-05-28T12:29:50Z</time>
      </trkpt>
      <trkpt lat="43.52834" lon="5.55307">
        <ele>328.9</ele>
        <time>2023-05-28T12:29:51Z</time>
      </trkpt>
      <trkpt lat="43.52834" lon="5.55305">
        <ele>328.7</ele>
        <time>2023-05-28T12:29:52Z</time>
      </trkpt>
      <trkpt lat="43.52833" lon="5.55303">
        <ele>328.5</ele>
        <time>2023-05-28T12:29:53Z</time>
      </trkpt>
      <trkpt lat="43.52833" lon="5.55302">
        <ele>328.3</ele>
        <time>2023-05-28T12:29:54Z</time>
      </trkpt>
      <trkpt lat="43.52832" lon="5.55301">
        <ele>328.1</ele>
        <time>2023-05-28T12:29:55Z</time>
      </trkpt>
      <trkpt lat="43.52831" lon="5.55299">
        <ele>328</ele>
        <time>2023-05-28T12:29:56Z</time>
      </trkpt>
      <trkpt lat="43.5283" lon="5.55298">
        <ele>327.8</ele>
        <time>2023-05-28T12:29:57Z</time>
      </trkpt>
      <trkpt lat="43.5283" lon="5.55297">
        <ele>327.7</ele>
        <time>2023-05-28T12:29:58Z</time>
      </trkpt>
      <trkpt lat="43.52829" lon="5.55295">
        <ele>327.5</ele>
        <time>2023-05-28T12:29:59Z</time>
      </trkpt>
      <trkpt lat="43.5283" lon="5.55293">
        <ele>327.4</ele>
        <time>2023-05-28T12:30:00Z</time>
      </trkpt>
      <trkpt lat="43.52829" lon="5.55292">
        <ele>327.2</ele>
        <time>2023-05-28T12:30:01Z</time>
      </trkpt>
      <trkpt lat="43.52829" lon="5.5529">
        <ele>327</ele>
        <time>2023-05-28T12:30:02Z</time>
      </trkpt>
      <trkpt lat="43.52828" lon="5.55289">
        <ele>326.8</ele>
        <time>2023-05-28T12:30:03Z</time>
      </trkpt>
      <trkpt lat="43.52827" lon="5.55287">
        <ele>326.6</ele>
        <time>2023-05-28T12:30:04Z</time>
      </trkpt>
      <trkpt lat="43.52827" lon="5.55286">
        <ele>326.3</ele>
        <time>2023-05-28T12:30:05Z</time>
      </trkpt>
      <trkpt lat="43.52826" lon="5.55284">
        <ele>326.2</ele>
        <time>2023-05-28T12:30:06Z</time>
      </trkpt>
      <trkpt lat="43.52826" lon="5.55283">
        <ele>326</ele>
        <time>2023-05-28T12:30:07Z</time>
      </trkpt>
      <trkpt lat="43.52825" lon="5.55282">
        <ele>325.8</ele>
        <time>2023-05-28T12:30:08Z</time>
      </trkpt>
      <trkpt lat="43.52824" lon="5.55281">
        <ele>325.7</ele>
        <time>2023-05-28T12:30:09Z</time>
      </trkpt>
      <trkpt lat="43.52824" lon="5.55279">
        <ele>325.4</ele>
        <time>2023-05-28T12:30:10Z</time>
      </trkpt>
      <trkpt lat="43.52823" lon="5.55278">
        <ele>325.3</ele>
        <time>2023-05-28T12:30:11Z</time>
      </trkpt>
      <trkpt lat="43.52823" lon="5.55277">
        <ele>325.2</ele>
        <time>2023-05-28T12:30:12Z</time>
      </trkpt>
      <trkpt lat="43.52822" lon="5.55276">
        <ele>324.9</ele>
        <time>2023-05-28T12:30:13Z</time>
      </trkpt>
      <trkpt lat="43.52821" lon="5.55275">
        <ele>324.7</ele>
        <time>2023-05-28T12:30:14Z</time>
      </trkpt>
      <trkpt lat="43.5282" lon="5.55273">
        <ele>324.5</ele>
        <time>2023-05-28T12:30:15Z</time>
      </trkpt>
      <trkpt lat="43.5282" lon="5.55272">
        <ele>324.3</ele>
        <time>2023-05-28T12:30:16Z</time>
      </trkpt>
      <trkpt lat="43.52819" lon="5.55271">
        <ele>324</ele>
        <time>2023-05-28T12:30:17Z</time>
      </trkpt>
      <trkpt lat="43.52819" lon="5.55269">
        <ele>323.8</ele>
        <time>2023-05-28T12:30:18Z</time>
      </trkpt>
      <trkpt lat="43.52818" lon="5.55267">
        <ele>323.7</ele>
        <time>2023-05-28T12:30:19Z</time>
      </trkpt>
      <trkpt lat="43.52817" lon="5.55266">
        <ele>323.5</ele>
        <time>2023-05-28T12:30:20Z</time>
      </trkpt>
      <trkpt lat="43.52817" lon="5.55264">
        <ele>323.5</ele>
        <time>2023-05-28T12:30:21Z</time>
      </trkpt>
      <trkpt lat="43.52816" lon="5.55263">
        <ele>323.4</ele>
        <time>2023-05-28T12:30:22Z</time>
      </trkpt>
      <trkpt lat="43.52816" lon="5.55261">
        <ele>323.3</ele>
        <time>2023-05-28T12:30:23Z</time>
      </trkpt>
      <trkpt lat="43.52816" lon="5.5526">
        <ele>323.2</ele>
        <time>2023-05-28T12:30:24Z</time>
      </trkpt>
      <trkpt lat="43.52816" lon="5.55258">
        <ele>323.1</ele>
        <time>2023-05-28T12:30:25Z</time>
      </trkpt>
      <trkpt lat="43.52816" lon="5.55256">
        <ele>323</ele>
        <time>2023-05-28T12:30:26Z</time>
      </trkpt>
      <trkpt lat="43.52815" lon="5.55254">
        <ele>322.9</ele>
        <time>2023-05-28T12:30:27Z</time>
      </trkpt>
      <trkpt lat="43.52815" lon="5.55253">
        <ele>322.7</ele>
        <time>2023-05-28T12:30:28Z</time>
      </trkpt>
      <trkpt lat="43.52815" lon="5.55251">
        <ele>322.6</ele>
        <time>2023-05-28T12:30:29Z</time>
      </trkpt>
      <trkpt lat="43.52815" lon="5.5525">
        <ele>322.4</ele>
        <time>2023-05-28T12:30:30Z</time>
      </trkpt>
      <trkpt lat="43.52814" lon="5.55248">
        <ele>322.3</ele>
        <time>2023-05-28T12:30:31Z</time>
      </trkpt>
      <trkpt lat="43.52814" lon="5.55247">
        <ele>322.2</ele>
        <time>2023-05-28T12:30:32Z</time>
      </trkpt>
      <trkpt lat="43.52813" lon="5.55245">
        <ele>322.1</ele>
        <time>2023-05-28T12:30:33Z</time>
      </trkpt>
      <trkpt lat="43.52813" lon="5.55243">
        <ele>322</ele>
        <time>2023-05-28T12:30:34Z</time>
      </trkpt>
      <trkpt lat="43.52814" lon="5.55241">
        <ele>321.9</ele>
        <time>2023-05-28T12:30:35Z</time>
      </trkpt>
      <trkpt lat="43.52813" lon="5.5524">
        <ele>321.8</ele>
        <time>2023-05-28T12:30:36Z</time>
      </trkpt>
      <trkpt lat="43.52813" lon="5.55238">
        <ele>321.8</ele>
        <time>2023-05-28T12:30:37Z</time>
      </trkpt>
      <trkpt lat="43.52814" lon="5.55236">
        <ele>321.7</ele>
        <time>2023-05-28T12:30:38Z</time>
      </trkpt>
      <trkpt lat="43.52813" lon="5.55235">
        <ele>321.4</ele>
        <time>2023-05-28T12:30:39Z</time>
      </trkpt>
      <trkpt lat="43.52813" lon="5.55233">
        <ele>321.3</ele>
        <time>2023-05-28T12:30:40Z</time>
      </trkpt>
      <trkpt lat="43.52813" lon="5.55231">
        <ele>321.1</ele>
        <time>2023-05-28T12:30:41Z</time>
      </trkpt>
      <trkpt lat="43.52812" lon="5.55229">
        <ele>321</ele>
        <time>2023-05-28T12:30:42Z</time>
      </trkpt>
      <trkpt lat="43.52812" lon="5.55228">
        <ele>320.8</ele>
        <time>2023-05-28T12:30:43Z</time>
      </trkpt>
      <trkpt lat="43.52811" lon="5.55226">
        <ele>320.7</ele>
        <time>2023-05-28T12:30:44Z</time>
      </trkpt>
      <trkpt lat="43.5281" lon="5.55225">
        <ele>320.5</ele>
        <time>2023-05-28T12:30:45Z</time>
      </trkpt>
      <trkpt lat="43.5281" lon="5.55224">
        <ele>320.4</ele>
        <time>2023-05-28T12:30:46Z</time>
      </trkpt>
      <trkpt lat="43.52809" lon="5.55223">
        <ele>320.2</ele>
        <time>2023-05-28T12:30:47Z</time>
      </trkpt>
      <trkpt lat="43.52809" lon="5.55222">
        <ele>320.1</ele>
        <time>2023-05-28T12:30:48Z</time>
      </trkpt>
      <trkpt lat="43.52808" lon="5.5522">
        <ele>320</ele>
        <time>2023-05-28T12:30:49Z</time>
      </trkpt>
      <trkpt lat="43.52808" lon="5.55218">
        <ele>319.9</ele>
        <time>2023-05-28T12:30:50Z</time>
      </trkpt>
      <trkpt lat="43.52808" lon="5.55217">
        <ele>319.8</ele>
        <time>2023-05-28T12:30:51Z</time>
      </trkpt>
      <trkpt lat="43.52809" lon="5.55215">
        <ele>319.7</ele>
        <time>2023-05-28T12:30:52Z</time>
      </trkpt>
      <trkpt lat="43.52808" lon="5.55213">
        <ele>319.7</ele>
        <time>2023-05-28T12:30:53Z</time>
      </trkpt>
      <trkpt lat="43.52808" lon="5.55211">
        <ele>319.6</ele>
        <time>2023-05-28T12:30:54Z</time>
      </trkpt>
      <trkpt lat="43.52808" lon="5.55209">
        <ele>319.5</ele>
        <time>2023-05-28T12:30:55Z</time>
      </trkpt>
      <trkpt lat="43.52808" lon="5.55208">
        <ele>319.5</ele>
        <time>2023-05-28T12:30:56Z</time>
      </trkpt>
      <trkpt lat="43.52808" lon="5.55206">
        <ele>319.4</ele>
        <time>2023-05-28T12:30:57Z</time>
      </trkpt>
      <trkpt lat="43.52808" lon="5.55204">
        <ele>319.3</ele>
        <time>2023-05-28T12:30:58Z</time>
      </trkpt>
      <trkpt lat="43.52808" lon="5.55202">
        <ele>319.1</ele>
        <time>2023-05-28T12:30:59Z</time>
      </trkpt>
      <trkpt lat="43.52807" lon="5.55201">
        <ele>318.9</ele>
        <time>2023-05-28T12:31:00Z</time>
      </trkpt>
      <trkpt lat="43.52807" lon="5.552">
        <ele>318.7</ele>
        <time>2023-05-28T12:31:01Z</time>
      </trkpt>
      <trkpt lat="43.52806" lon="5.55199">
        <ele>318.5</ele>
        <time>2023-05-28T12:31:02Z</time>
      </trkpt>
      <trkpt lat="43.52806" lon="5.55197">
        <ele>318.4</ele>
        <time>2023-05-28T12:31:03Z</time>
      </trkpt>
      <trkpt lat="43.52807" lon="5.55196">
        <ele>318.2</ele>
        <time>2023-05-28T12:31:04Z</time>
      </trkpt>
      <trkpt lat="43.52807" lon="5.55194">
        <ele>318</ele>
        <time>2023-05-28T12:31:05Z</time>
      </trkpt>
      <trkpt lat="43.52806" lon="5.55192">
        <ele>317.8</ele>
        <time>2023-05-28T12:31:06Z</time>
      </trkpt>
      <trkpt lat="43.52805" lon="5.55191">
        <ele>317.7</ele>
        <time>2023-05-28T12:31:07Z</time>
      </trkpt>
      <trkpt lat="43.52805" lon="5.55189">
        <ele>317.5</ele>
        <time>2023-05-28T12:31:08Z</time>
      </trkpt>
      <trkpt lat="43.52805" lon="5.55187">
        <ele>317.2</ele>
        <time>2023-05-28T12:31:09Z</time>
      </trkpt>
      <trkpt lat="43.52804" lon="5.55186">
        <ele>317</ele>
        <time>2023-05-28T12:31:10Z</time>
      </trkpt>
      <trkpt lat="43.52803" lon="5.55184">
        <ele>316.9</ele>
        <time>2023-05-28T12:31:11Z</time>
      </trkpt>
      <trkpt lat="43.52803" lon="5.55182">
        <ele>316.6</ele>
        <time>2023-05-28T12:31:12Z</time>
      </trkpt>
      <trkpt lat="43.52803" lon="5.55181">
        <ele>316.5</ele>
        <time>2023-05-28T12:31:13Z</time>
      </trkpt>
      <trkpt lat="43.52802" lon="5.5518">
        <ele>316.2</ele>
        <time>2023-05-28T12:31:14Z</time>
      </trkpt>
      <trkpt lat="43.52801" lon="5.55178">
        <ele>316</ele>
        <time>2023-05-28T12:31:15Z</time>
      </trkpt>
      <trkpt lat="43.52801" lon="5.55177">
        <ele>315.8</ele>
        <time>2023-05-28T12:31:16Z</time>
      </trkpt>
      <trkpt lat="43.528" lon="5.55175">
        <ele>315.6</ele>
        <time>2023-05-28T12:31:17Z</time>
      </trkpt>
      <trkpt lat="43.52799" lon="5.55173">
        <ele>315.5</ele>
        <time>2023-05-28T12:31:18Z</time>
      </trkpt>
      <trkpt lat="43.52799" lon="5.55172">
        <ele>315.4</ele>
        <time>2023-05-28T12:31:19Z</time>
      </trkpt>
      <trkpt lat="43.52798" lon="5.5517">
        <ele>315.3</ele>
        <time>2023-05-28T12:31:20Z</time>
      </trkpt>
      <trkpt lat="43.52798" lon="5.55169">
        <ele>315.2</ele>
        <time>2023-05-28T12:31:21Z</time>
      </trkpt>
      <trkpt lat="43.52797" lon="5.55167">
        <ele>315.1</ele>
        <time>2023-05-28T12:31:22Z</time>
      </trkpt>
      <trkpt lat="43.52797" lon="5.55165">
        <ele>314.9</ele>
        <time>2023-05-28T12:31:23Z</time>
      </trkpt>
      <trkpt lat="43.52797" lon="5.55164">
        <ele>314.7</ele>
        <time>2023-05-28T12:31:24Z</time>
      </trkpt>
      <trkpt lat="43.52797" lon="5.55162">
        <ele>314.5</ele>
        <time>2023-05-28T12:31:25Z</time>
      </trkpt>
      <trkpt lat="43.52797" lon="5.5516">
        <ele>314.3</ele>
        <time>2023-05-28T12:31:26Z</time>
      </trkpt>
      <trkpt lat="43.52796" lon="5.55158">
        <ele>314.2</ele>
        <time>2023-05-28T12:31:27Z</time>
      </trkpt>
      <trkpt lat="43.52795" lon="5.55156">
        <ele>314</ele>
        <time>2023-05-28T12:31:28Z</time>
      </trkpt>
      <trkpt lat="43.52795" lon="5.55155">
        <ele>313.8</ele>
        <time>2023-05-28T12:31:29Z</time>
      </trkpt>
      <trkpt lat="43.52794" lon="5.55153">
        <ele>313.7</ele>
        <time>2023-05-28T12:31:30Z</time>
      </trkpt>
      <trkpt lat="43.52794" lon="5.55152">
        <ele>313.6</ele>
        <time>2023-05-28T12:31:31Z</time>
      </trkpt>
      <trkpt lat="43.52794" lon="5.5515">
        <ele>313.5</ele>
        <time>2023-05-28T12:31:32Z</time>
      </trkpt>
      <trkpt lat="43.52793" lon="5.55149">
        <ele>313.3</ele>
        <time>2023-05-28T12:31:33Z</time>
      </trkpt>
      <trkpt lat="43.52793" lon="5.55147">
        <ele>313.1</ele>
        <time>2023-05-28T12:31:34Z</time>
      </trkpt>
      <trkpt lat="43.52792" lon="5.55145">
        <ele>313</ele>
        <time>2023-05-28T12:31:35Z</time>
      </trkpt>
      <trkpt lat="43.52792" lon="5.55144">
        <ele>312.9</ele>
        <time>2023-05-28T12:31:36Z</time>
      </trkpt>
      <trkpt lat="43.52792" lon="5.55142">
        <ele>312.7</ele>
        <time>2023-05-28T12:31:37Z</time>
      </trkpt>
      <trkpt lat="43.52792" lon="5.5514">
        <ele>312.5</ele>
        <time>2023-05-28T12:31:38Z</time>
      </trkpt>
      <trkpt lat="43.52792" lon="5.55139">
        <ele>312.4</ele>
        <time>2023-05-28T12:31:39Z</time>
      </trkpt>
      <trkpt lat="43.52791" lon="5.55137">
        <ele>312.2</ele>
        <time>2023-05-28T12:31:40Z</time>
      </trkpt>
      <trkpt lat="43.52791" lon="5.55135">
        <ele>312</ele>
        <time>2023-05-28T12:31:41Z</time>
      </trkpt>
      <trkpt lat="43.52791" lon="5.55133">
        <ele>311.9</ele>
        <time>2023-05-28T12:31:42Z</time>
      </trkpt>
      <trkpt lat="43.5279" lon="5.55131">
        <ele>311.7</ele>
        <time>2023-05-28T12:31:43Z</time>
      </trkpt>
      <trkpt lat="43.5279" lon="5.5513">
        <ele>311.5</ele>
        <time>2023-05-28T12:31:44Z</time>
      </trkpt>
      <trkpt lat="43.52789" lon="5.55129">
        <ele>311.2</ele>
        <time>2023-05-28T12:31:45Z</time>
      </trkpt>
      <trkpt lat="43.52789" lon="5.55127">
        <ele>311.1</ele>
        <time>2023-05-28T12:31:46Z</time>
      </trkpt>
      <trkpt lat="43.52789" lon="5.55125">
        <ele>310.9</ele>
        <time>2023-05-28T12:31:47Z</time>
      </trkpt>
      <trkpt lat="43.52789" lon="5.55123">
        <ele>310.7</ele>
        <time>2023-05-28T12:31:48Z</time>
      </trkpt>
      <trkpt lat="43.52788" lon="5.55122">
        <ele>310.4</ele>
        <time>2023-05-28T12:31:49Z</time>
      </trkpt>
      <trkpt lat="43.52787" lon="5.5512">
        <ele>310.2</ele>
        <time>2023-05-28T12:31:50Z</time>
      </trkpt>
      <trkpt lat="43.52787" lon="5.55119">
        <ele>310</ele>
        <time>2023-05-28T12:31:51Z</time>
      </trkpt>
      <trkpt lat="43.52787" lon="5.55117">
        <ele>309.9</ele>
        <time>2023-05-28T12:31:52Z</time>
      </trkpt>
      <trkpt lat="43.52786" lon="5.55116">
        <ele>309.7</ele>
        <time>2023-05-28T12:31:53Z</time>
      </trkpt>
      <trkpt lat="43.52786" lon="5.55114">
        <ele>309.5</ele>
        <time>2023-05-28T12:31:54Z</time>
      </trkpt>
      <trkpt lat="43.52786" lon="5.55112">
        <ele>309.4</ele>
        <time>2023-05-28T12:31:55Z</time>
      </trkpt>
      <trkpt lat="43.52786" lon="5.55111">
        <ele>309.3</ele>
        <time>2023-05-28T12:31:56Z</time>
      </trkpt>
      <trkpt lat="43.52785" lon="5.55109">
        <ele>309.1</ele>
        <time>2023-05-28T12:31:57Z</time>
      </trkpt>
      <trkpt lat="43.52785" lon="5.55107">
        <ele>308.9</ele>
        <time>2023-05-28T12:31:58Z</time>
      </trkpt>
      <trkpt lat="43.52785" lon="5.55106">
        <ele>308.8</ele>
        <time>2023-05-28T12:31:59Z</time>
      </trkpt>
      <trkpt lat="43.52784" lon="5.55104">
        <ele>308.6</ele>
        <time>2023-05-28T12:32:00Z</time>
      </trkpt>
      <trkpt lat="43.52784" lon="5.55103">
        <ele>308.4</ele>
        <time>2023-05-28T12:32:01Z</time>
      </trkpt>
      <trkpt lat="43.52784" lon="5.55101">
        <ele>308.3</ele>
        <time>2023-05-28T12:32:02Z</time>
      </trkpt>
      <trkpt lat="43.52783" lon="5.551">
        <ele>308.1</ele>
        <time>2023-05-28T12:32:03Z</time>
      </trkpt>
      <trkpt lat="43.52783" lon="5.55098">
        <ele>308</ele>
        <time>2023-05-28T12:32:04Z</time>
      </trkpt>
      <trkpt lat="43.52782" lon="5.55096">
        <ele>307.9</ele>
        <time>2023-05-28T12:32:05Z</time>
      </trkpt>
      <trkpt lat="43.52782" lon="5.55095">
        <ele>307.8</ele>
        <time>2023-05-28T12:32:06Z</time>
      </trkpt>
      <trkpt lat="43.52782" lon="5.55093">
        <ele>307.7</ele>
        <time>2023-05-28T12:32:07Z</time>
      </trkpt>
      <trkpt lat="43.52783" lon="5.55091">
        <ele>307.5</ele>
        <time>2023-05-28T12:32:08Z</time>
      </trkpt>
      <trkpt lat="43.52783" lon="5.55089">
        <ele>307.3</ele>
        <time>2023-05-28T12:32:09Z</time>
      </trkpt>
      <trkpt lat="43.52782" lon="5.55087">
        <ele>307.1</ele>
        <time>2023-05-28T12:32:10Z</time>
      </trkpt>
      <trkpt lat="43.52781" lon="5.55085">
        <ele>307</ele>
        <time>2023-05-28T12:32:11Z</time>
      </trkpt>
      <trkpt lat="43.5278" lon="5.55084">
        <ele>307</ele>
        <time>2023-05-28T12:32:12Z</time>
      </trkpt>
      <trkpt lat="43.5278" lon="5.55082">
        <ele>306.8</ele>
        <time>2023-05-28T12:32:13Z</time>
      </trkpt>
      <trkpt lat="43.5278" lon="5.55081">
        <ele>306.7</ele>
        <time>2023-05-28T12:32:14Z</time>
      </trkpt>
      <trkpt lat="43.5278" lon="5.55079">
        <ele>306.6</ele>
        <time>2023-05-28T12:32:15Z</time>
      </trkpt>
      <trkpt lat="43.52779" lon="5.55078">
        <ele>306.5</ele>
        <time>2023-05-28T12:32:16Z</time>
      </trkpt>
      <trkpt lat="43.52779" lon="5.55077">
        <ele>306.3</ele>
        <time>2023-05-28T12:32:17Z</time>
      </trkpt>
      <trkpt lat="43.52777" lon="5.55076">
        <ele>306.2</ele>
        <time>2023-05-28T12:32:18Z</time>
      </trkpt>
      <trkpt lat="43.52776" lon="5.55074">
        <ele>306.1</ele>
        <time>2023-05-28T12:32:19Z</time>
      </trkpt>
      <trkpt lat="43.52774" lon="5.55073">
        <ele>306.1</ele>
        <time>2023-05-28T12:32:20Z</time>
      </trkpt>
      <trkpt lat="43.52774" lon="5.55072">
        <ele>306</ele>
        <time>2023-05-28T12:32:21Z</time>
      </trkpt>
      <trkpt lat="43.52774" lon="5.55071">
        <ele>305.8</ele>
        <time>2023-05-28T12:32:22Z</time>
      </trkpt>
      <trkpt lat="43.52774" lon="5.55069">
        <ele>305.7</ele>
        <time>2023-05-28T12:32:23Z</time>
      </trkpt>
      <trkpt lat="43.52774" lon="5.55067">
        <ele>305.5</ele>
        <time>2023-05-28T12:32:24Z</time>
      </trkpt>
      <trkpt lat="43.52774" lon="5.55065">
        <ele>305.3</ele>
        <time>2023-05-28T12:32:25Z</time>
      </trkpt>
      <trkpt lat="43.52773" lon="5.55063">
        <ele>305.1</ele>
        <time>2023-05-28T12:32:26Z</time>
      </trkpt>
      <trkpt lat="43.52773" lon="5.55061">
        <ele>304.9</ele>
        <time>2023-05-28T12:32:27Z</time>
      </trkpt>
      <trkpt lat="43.52773" lon="5.55059">
        <ele>304.8</ele>
        <time>2023-05-28T12:32:28Z</time>
      </trkpt>
      <trkpt lat="43.52773" lon="5.55058">
        <ele>304.6</ele>
        <time>2023-05-28T12:32:29Z</time>
      </trkpt>
      <trkpt lat="43.52773" lon="5.55057">
        <ele>304.5</ele>
        <time>2023-05-28T12:32:30Z</time>
      </trkpt>
      <trkpt lat="43.52773" lon="5.55055">
        <ele>304.4</ele>
        <time>2023-05-28T12:32:31Z</time>
      </trkpt>
      <trkpt lat="43.52772" lon="5.55053">
        <ele>304.3</ele>
        <time>2023-05-28T12:32:32Z</time>
      </trkpt>
      <trkpt lat="43.52772" lon="5.55052">
        <ele>304.1</ele>
        <time>2023-05-28T12:32:33Z</time>
      </trkpt>
      <trkpt lat="43.52771" lon="5.55051">
        <ele>304</ele>
        <time>2023-05-28T12:32:34Z</time>
      </trkpt>
      <trkpt lat="43.52771" lon="5.55049">
        <ele>303.9</ele>
        <time>2023-05-28T12:32:35Z</time>
      </trkpt>
      <trkpt lat="43.52771" lon="5.55048">
        <ele>303.6</ele>
        <time>2023-05-28T12:32:36Z</time>
      </trkpt>
      <trkpt lat="43.52771" lon="5.55046">
        <ele>303.5</ele>
        <time>2023-05-28T12:32:37Z</time>
      </trkpt>
      <trkpt lat="43.52771" lon="5.55044">
        <ele>303.5</ele>
        <time>2023-05-28T12:32:38Z</time>
      </trkpt>
      <trkpt lat="43.52771" lon="5.55042">
        <ele>303.3</ele>
        <time>2023-05-28T12:32:39Z</time>
      </trkpt>
      <trkpt lat="43.5277" lon="5.55041">
        <ele>303.1</ele>
        <time>2023-05-28T12:32:40Z</time>
      </trkpt>
      <trkpt lat="43.52769" lon="5.55039">
        <ele>303</ele>
        <time>2023-05-28T12:32:41Z</time>
      </trkpt>
      <trkpt lat="43.52769" lon="5.55038">
        <ele>302.8</ele>
        <time>2023-05-28T12:32:42Z</time>
      </trkpt>
      <trkpt lat="43.52768" lon="5.55037">
        <ele>302.7</ele>
        <time>2023-05-28T12:32:43Z</time>
      </trkpt>
      <trkpt lat="43.52768" lon="5.55035">
        <ele>302.6</ele>
        <time>2023-05-28T12:32:44Z</time>
      </trkpt>
      <trkpt lat="43.52768" lon="5.55033">
        <ele>302.4</ele>
        <time>2023-05-28T12:32:45Z</time>
      </trkpt>
      <trkpt lat="43.52767" lon="5.55032">
        <ele>302.2</ele>
        <time>2023-05-28T12:32:46Z</time>
      </trkpt>
      <trkpt lat="43.52767" lon="5.5503">
        <ele>302</ele>
        <time>2023-05-28T12:32:47Z</time>
      </trkpt>
      <trkpt lat="43.52766" lon="5.55029">
        <ele>301.9</ele>
        <time>2023-05-28T12:32:48Z</time>
      </trkpt>
      <trkpt lat="43.52765" lon="5.55028">
        <ele>301.8</ele>
        <time>2023-05-28T12:32:49Z</time>
      </trkpt>
      <trkpt lat="43.52764" lon="5.55027">
        <ele>301.6</ele>
        <time>2023-05-28T12:32:50Z</time>
      </trkpt>
      <trkpt lat="43.52764" lon="5.55025">
        <ele>301.4</ele>
        <time>2023-05-28T12:32:51Z</time>
      </trkpt>
      <trkpt lat="43.52764" lon="5.55024">
        <ele>301.2</ele>
        <time>2023-05-28T12:32:52Z</time>
      </trkpt>
      <trkpt lat="43.52764" lon="5.55022">
        <ele>301</ele>
        <time>2023-05-28T12:32:53Z</time>
      </trkpt>
      <trkpt lat="43.52762" lon="5.55022">
        <ele>300.9</ele>
        <time>2023-05-28T12:32:54Z</time>
      </trkpt>
      <trkpt lat="43.52762" lon="5.5502">
        <ele>300.7</ele>
        <time>2023-05-28T12:32:55Z</time>
      </trkpt>
      <trkpt lat="43.52762" lon="5.55018">
        <ele>300.7</ele>
        <time>2023-05-28T12:32:56Z</time>
      </trkpt>
      <trkpt lat="43.52762" lon="5.55017">
        <ele>300.5</ele>
        <time>2023-05-28T12:32:57Z</time>
      </trkpt>
      <trkpt lat="43.52761" lon="5.55015">
        <ele>300.4</ele>
        <time>2023-05-28T12:32:58Z</time>
      </trkpt>
      <trkpt lat="43.5276" lon="5.55013">
        <ele>300.1</ele>
        <time>2023-05-28T12:32:59Z</time>
      </trkpt>
      <trkpt lat="43.5276" lon="5.55011">
        <ele>300.1</ele>
        <time>2023-05-28T12:33:00Z</time>
      </trkpt>
      <trkpt lat="43.5276" lon="5.5501">
        <ele>300</ele>
        <time>2023-05-28T12:33:01Z</time>
      </trkpt>
      <trkpt lat="43.52759" lon="5.55009">
        <ele>299.9</ele>
        <time>2023-05-28T12:33:02Z</time>
      </trkpt>
      <trkpt lat="43.52758" lon="5.55007">
        <ele>299.8</ele>
        <time>2023-05-28T12:33:03Z</time>
      </trkpt>
      <trkpt lat="43.52758" lon="5.55006">
        <ele>299.7</ele>
        <time>2023-05-28T12:33:04Z</time>
      </trkpt>
      <trkpt lat="43.52757" lon="5.55004">
        <ele>299.5</ele>
        <time>2023-05-28T12:33:05Z</time>
      </trkpt>
      <trkpt lat="43.52756" lon="5.55003">
        <ele>299.3</ele>
        <time>2023-05-28T12:33:06Z</time>
      </trkpt>
      <trkpt lat="43.52756" lon="5.55001">
        <ele>299.1</ele>
        <time>2023-05-28T12:33:07Z</time>
      </trkpt>
      <trkpt lat="43.52755" lon="5.55">
        <ele>298.9</ele>
        <time>2023-05-28T12:33:08Z</time>
      </trkpt>
      <trkpt lat="43.52754" lon="5.54999">
        <ele>298.7</ele>
        <time>2023-05-28T12:33:09Z</time>
      </trkpt>
      <trkpt lat="43.52753" lon="5.54998">
        <ele>298.5</ele>
        <time>2023-05-28T12:33:10Z</time>
      </trkpt>
      <trkpt lat="43.52753" lon="5.54996">
        <ele>298.2</ele>
        <time>2023-05-28T12:33:11Z</time>
      </trkpt>
      <trkpt lat="43.52753" lon="5.54995">
        <ele>298</ele>
        <time>2023-05-28T12:33:12Z</time>
      </trkpt>
      <trkpt lat="43.52753" lon="5.54993">
        <ele>297.9</ele>
        <time>2023-05-28T12:33:13Z</time>
      </trkpt>
      <trkpt lat="43.52752" lon="5.54992">
        <ele>297.8</ele>
        <time>2023-05-28T12:33:14Z</time>
      </trkpt>
      <trkpt lat="43.52752" lon="5.5499">
        <ele>297.6</ele>
        <time>2023-05-28T12:33:15Z</time>
      </trkpt>
      <trkpt lat="43.52751" lon="5.54988">
        <ele>297.3</ele>
        <time>2023-05-28T12:33:16Z</time>
      </trkpt>
      <trkpt lat="43.52751" lon="5.54986">
        <ele>297.1</ele>
        <time>2023-05-28T12:33:17Z</time>
      </trkpt>
      <trkpt lat="43.5275" lon="5.54985">
        <ele>296.7</ele>
        <time>2023-05-28T12:33:18Z</time>
      </trkpt>
      <trkpt lat="43.5275" lon="5.54984">
        <ele>296.5</ele>
        <time>2023-05-28T12:33:19Z</time>
      </trkpt>
      <trkpt lat="43.52749" lon="5.54982">
        <ele>296.4</ele>
        <time>2023-05-28T12:33:20Z</time>
      </trkpt>
      <trkpt lat="43.52749" lon="5.54981">
        <ele>296.2</ele>
        <time>2023-05-28T12:33:21Z</time>
      </trkpt>
      <trkpt lat="43.52748" lon="5.54979">
        <ele>296</ele>
        <time>2023-05-28T12:33:22Z</time>
      </trkpt>
      <trkpt lat="43.52748" lon="5.54978">
        <ele>295.8</ele>
        <time>2023-05-28T12:33:23Z</time>
      </trkpt>
      <trkpt lat="43.52747" lon="5.54976">
        <ele>295.6</ele>
        <time>2023-05-28T12:33:24Z</time>
      </trkpt>
      <trkpt lat="43.52746" lon="5.54974">
        <ele>295.4</ele>
        <time>2023-05-28T12:33:25Z</time>
      </trkpt>
      <trkpt lat="43.52745" lon="5.54973">
        <ele>295.1</ele>
        <time>2023-05-28T12:33:26Z</time>
      </trkpt>
      <trkpt lat="43.52744" lon="5.54971">
        <ele>294.9</ele>
        <time>2023-05-28T12:33:27Z</time>
      </trkpt>
      <trkpt lat="43.52743" lon="5.5497">
        <ele>294.6</ele>
        <time>2023-05-28T12:33:28Z</time>
      </trkpt>
      <trkpt lat="43.52742" lon="5.54968">
        <ele>294.3</ele>
        <time>2023-05-28T12:33:29Z</time>
      </trkpt>
      <trkpt lat="43.52742" lon="5.54967">
        <ele>294</ele>
        <time>2023-05-28T12:33:30Z</time>
      </trkpt>
      <trkpt lat="43.52742" lon="5.54966">
        <ele>293.8</ele>
        <time>2023-05-28T12:33:31Z</time>
      </trkpt>
      <trkpt lat="43.52741" lon="5.54965">
        <ele>293.7</ele>
        <time>2023-05-28T12:33:32Z</time>
      </trkpt>
      <trkpt lat="43.52741" lon="5.54963">
        <ele>293.5</ele>
        <time>2023-05-28T12:33:33Z</time>
      </trkpt>
      <trkpt lat="43.52741" lon="5.54962">
        <ele>293.3</ele>
        <time>2023-05-28T12:33:34Z</time>
      </trkpt>
      <trkpt lat="43.52741" lon="5.5496">
        <ele>293</ele>
        <time>2023-05-28T12:33:35Z</time>
      </trkpt>
      <trkpt lat="43.52741" lon="5.54958">
        <ele>292.8</ele>
        <time>2023-05-28T12:33:36Z</time>
      </trkpt>
      <trkpt lat="43.52741" lon="5.54957">
        <ele>292.6</ele>
        <time>2023-05-28T12:33:37Z</time>
      </trkpt>
      <trkpt lat="43.5274" lon="5.54955">
        <ele>292.3</ele>
        <time>2023-05-28T12:33:38Z</time>
      </trkpt>
      <trkpt lat="43.5274" lon="5.54953">
        <ele>292</ele>
        <time>2023-05-28T12:33:39Z</time>
      </trkpt>
      <trkpt lat="43.5274" lon="5.54952">
        <ele>291.7</ele>
        <time>2023-05-28T12:33:40Z</time>
      </trkpt>
      <trkpt lat="43.52739" lon="5.54951">
        <ele>291.7</ele>
        <time>2023-05-28T12:33:41Z</time>
      </trkpt>
      <trkpt lat="43.52738" lon="5.54949">
        <ele>291.5</ele>
        <time>2023-05-28T12:33:42Z</time>
      </trkpt>
      <trkpt lat="43.52738" lon="5.54948">
        <ele>291.4</ele>
        <time>2023-05-28T12:33:43Z</time>
      </trkpt>
      <trkpt lat="43.52737" lon="5.54946">
        <ele>291.3</ele>
        <time>2023-05-28T12:33:44Z</time>
      </trkpt>
      <trkpt lat="43.52737" lon="5.54945">
        <ele>291.3</ele>
        <time>2023-05-28T12:33:45Z</time>
      </trkpt>
      <trkpt lat="43.52736" lon="5.54943">
        <ele>291.1</ele>
        <time>2023-05-28T12:33:46Z</time>
      </trkpt>
      <trkpt lat="43.52736" lon="5.54942">
        <ele>290.9</ele>
        <time>2023-05-28T12:33:47Z</time>
      </trkpt>
      <trkpt lat="43.52736" lon="5.5494">
        <ele>290.8</ele>
        <time>2023-05-28T12:33:48Z</time>
      </trkpt>
      <trkpt lat="43.52735" lon="5.54939">
        <ele>290.7</ele>
        <time>2023-05-28T12:33:49Z</time>
      </trkpt>
      <trkpt lat="43.52735" lon="5.54937">
        <ele>290.5</ele>
        <time>2023-05-28T12:33:50Z</time>
      </trkpt>
      <trkpt lat="43.52736" lon="5.54935">
        <ele>290.3</ele>
        <time>2023-05-28T12:33:51Z</time>
      </trkpt>
      <trkpt lat="43.52736" lon="5.54933">
        <ele>290.2</ele>
        <time>2023-05-28T12:33:52Z</time>
      </trkpt>
      <trkpt lat="43.52735" lon="5.54932">
        <ele>290.1</ele>
        <time>2023-05-28T12:33:53Z</time>
      </trkpt>
      <trkpt lat="43.52735" lon="5.5493">
        <ele>290</ele>
        <time>2023-05-28T12:33:54Z</time>
      </trkpt>
      <trkpt lat="43.52735" lon="5.54928">
        <ele>289.9</ele>
        <time>2023-05-28T12:33:55Z</time>
      </trkpt>
      <trkpt lat="43.52735" lon="5.54927">
        <ele>289.9</ele>
        <time>2023-05-28T12:33:56Z</time>
      </trkpt>
      <trkpt lat="43.52734" lon="5.54925">
        <ele>289.8</ele>
        <time>2023-05-28T12:33:57Z</time>
      </trkpt>
      <trkpt lat="43.52734" lon="5.54924">
        <ele>289.8</ele>
        <time>2023-05-28T12:33:58Z</time>
      </trkpt>
      <trkpt lat="43.52733" lon="5.54922">
        <ele>289.7</ele>
        <time>2023-05-28T12:33:59Z</time>
      </trkpt>
      <trkpt lat="43.52733" lon="5.5492">
        <ele>289.6</ele>
        <time>2023-05-28T12:34:00Z</time>
      </trkpt>
      <trkpt lat="43.52733" lon="5.54919">
        <ele>289.5</ele>
        <time>2023-05-28T12:34:01Z</time>
      </trkpt>
      <trkpt lat="43.52733" lon="5.54917">
        <ele>289.4</ele>
        <time>2023-05-28T12:34:02Z</time>
      </trkpt>
      <trkpt lat="43.52733" lon="5.54916">
        <ele>289.2</ele>
        <time>2023-05-28T12:34:03Z</time>
      </trkpt>
      <trkpt lat="43.52732" lon="5.54914">
        <ele>289.1</ele>
        <time>2023-05-28T12:34:04Z</time>
      </trkpt>
      <trkpt lat="43.52732" lon="5.54912">
        <ele>289</ele>
        <time>2023-05-28T12:34:05Z</time>
      </trkpt>
      <trkpt lat="43.52732" lon="5.5491">
        <ele>288.9</ele>
        <time>2023-05-28T12:34:06Z</time>
      </trkpt>
      <trkpt lat="43.52731" lon="5.54908">
        <ele>288.7</ele>
        <time>2023-05-28T12:34:07Z</time>
      </trkpt>
      <trkpt lat="43.5273" lon="5.54907">
        <ele>288.6</ele>
        <time>2023-05-28T12:34:08Z</time>
      </trkpt>
      <trkpt lat="43.5273" lon="5.54905">
        <ele>288.5</ele>
        <time>2023-05-28T12:34:09Z</time>
      </trkpt>
      <trkpt lat="43.52729" lon="5.54904">
        <ele>288.3</ele>
        <time>2023-05-28T12:34:10Z</time>
      </trkpt>
      <trkpt lat="43.52729" lon="5.54902">
        <ele>288.1</ele>
        <time>2023-05-28T12:34:11Z</time>
      </trkpt>
      <trkpt lat="43.52729" lon="5.549">
        <ele>287.9</ele>
        <time>2023-05-28T12:34:12Z</time>
      </trkpt>
      <trkpt lat="43.52728" lon="5.54898">
        <ele>287.8</ele>
        <time>2023-05-28T12:34:13Z</time>
      </trkpt>
      <trkpt lat="43.52728" lon="5.54897">
        <ele>287.7</ele>
        <time>2023-05-28T12:34:14Z</time>
      </trkpt>
      <trkpt lat="43.52728" lon="5.54895">
        <ele>287.6</ele>
        <time>2023-05-28T12:34:15Z</time>
      </trkpt>
      <trkpt lat="43.52728" lon="5.54894">
        <ele>287.5</ele>
        <time>2023-05-28T12:34:16Z</time>
      </trkpt>
      <trkpt lat="43.52729" lon="5.54892">
        <ele>287.5</ele>
        <time>2023-05-28T12:34:17Z</time>
      </trkpt>
      <trkpt lat="43.52729" lon="5.54891">
        <ele>287.4</ele>
        <time>2023-05-28T12:34:18Z</time>
      </trkpt>
      <trkpt lat="43.52729" lon="5.54889">
        <ele>287.4</ele>
        <time>2023-05-28T12:34:19Z</time>
      </trkpt>
      <trkpt lat="43.52729" lon="5.54887">
        <ele>287.3</ele>
        <time>2023-05-28T12:34:20Z</time>
      </trkpt>
      <trkpt lat="43.52729" lon="5.54885">
        <ele>287.1</ele>
        <time>2023-05-28T12:34:21Z</time>
      </trkpt>
      <trkpt lat="43.5273" lon="5.54883">
        <ele>287</ele>
        <time>2023-05-28T12:34:22Z</time>
      </trkpt>
      <trkpt lat="43.5273" lon="5.54882">
        <ele>286.8</ele>
        <time>2023-05-28T12:34:23Z</time>
      </trkpt>
      <trkpt lat="43.5273" lon="5.5488">
        <ele>286.6</ele>
        <time>2023-05-28T12:34:24Z</time>
      </trkpt>
      <trkpt lat="43.5273" lon="5.54878">
        <ele>286.5</ele>
        <time>2023-05-28T12:34:25Z</time>
      </trkpt>
      <trkpt lat="43.5273" lon="5.54876">
        <ele>286.4</ele>
        <time>2023-05-28T12:34:26Z</time>
      </trkpt>
      <trkpt lat="43.5273" lon="5.54875">
        <ele>286.3</ele>
        <time>2023-05-28T12:34:27Z</time>
      </trkpt>
      <trkpt lat="43.5273" lon="5.54874">
        <ele>286.2</ele>
        <time>2023-05-28T12:34:28Z</time>
      </trkpt>
      <trkpt lat="43.5273" lon="5.54872">
        <ele>286.1</ele>
        <time>2023-05-28T12:34:29Z</time>
      </trkpt>
      <trkpt lat="43.5273" lon="5.54871">
        <ele>286.1</ele>
        <time>2023-05-28T12:34:30Z</time>
      </trkpt>
      <trkpt lat="43.52731" lon="5.54869">
        <ele>286</ele>
        <time>2023-05-28T12:34:31Z</time>
      </trkpt>
      <trkpt lat="43.52731" lon="5.54868">
        <ele>285.9</ele>
        <time>2023-05-28T12:34:32Z</time>
      </trkpt>
      <trkpt lat="43.52732" lon="5.54866">
        <ele>285.9</ele>
        <time>2023-05-28T12:34:33Z</time>
      </trkpt>
      <trkpt lat="43.52732" lon="5.54864">
        <ele>285.8</ele>
        <time>2023-05-28T12:34:34Z</time>
      </trkpt>
      <trkpt lat="43.52732" lon="5.54862">
        <ele>285.7</ele>
        <time>2023-05-28T12:34:35Z</time>
      </trkpt>
      <trkpt lat="43.52733" lon="5.54861">
        <ele>285.7</ele>
        <time>2023-05-28T12:34:36Z</time>
      </trkpt>
      <trkpt lat="43.52733" lon="5.54859">
        <ele>285.6</ele>
        <time>2023-05-28T12:34:37Z</time>
      </trkpt>
      <trkpt lat="43.52733" lon="5.54858">
        <ele>285.5</ele>
        <time>2023-05-28T12:34:38Z</time>
      </trkpt>
      <trkpt lat="43.52733" lon="5.54856">
        <ele>285.5</ele>
        <time>2023-05-28T12:34:39Z</time>
      </trkpt>
      <trkpt lat="43.52734" lon="5.54854">
        <ele>285.4</ele>
        <time>2023-05-28T12:34:40Z</time>
      </trkpt>
      <trkpt lat="43.52734" lon="5.54853">
        <ele>285.2</ele>
        <time>2023-05-28T12:34:41Z</time>
      </trkpt>
      <trkpt lat="43.52734" lon="5.54853">
        <ele>285.1</ele>
        <time>2023-05-28T12:34:42Z</time>
      </trkpt>
      <trkpt lat="43.52734" lon="5.54853">
        <ele>285</ele>
        <time>2023-05-28T12:34:43Z</time>
      </trkpt>
      <trkpt lat="43.52734" lon="5.54853">
        <ele>284.9</ele>
        <time>2023-05-28T12:34:44Z</time>
      </trkpt>
      <trkpt lat="43.52734" lon="5.54853">
        <ele>284.9</ele>
        <time>2023-05-28T12:34:45Z</time>
      </trkpt>
      <trkpt lat="43.52734" lon="5.54853">
        <ele>284.8</ele>
        <time>2023-05-28T12:34:46Z</time>
      </trkpt>
      <trkpt lat="43.52733" lon="5.54853">
        <ele>284.7</ele>
        <time>2023-05-28T12:34:47Z</time>
      </trkpt>
      <trkpt lat="43.52733" lon="5.54853">
        <ele>284.7</ele>
        <time>2023-05-28T12:34:48Z</time>
      </trkpt>
      <trkpt lat="43.52733" lon="5.54853">
        <ele>284.6</ele>
        <time>2023-05-28T12:34:49Z</time>
      </trkpt>
      <trkpt lat="43.52733" lon="5.54852">
        <ele>284.5</ele>
        <time>2023-05-28T12:34:50Z</time>
      </trkpt>
      <trkpt lat="43.52732" lon="5.54852">
        <ele>284.5</ele>
        <time>2023-05-28T12:34:51Z</time>
      </trkpt>
      <trkpt lat="43.52732" lon="5.54852">
        <ele>284.4</ele>
        <time>2023-05-28T12:34:52Z</time>
      </trkpt>
      <trkpt lat="43.52732" lon="5.54852">
        <ele>284.3</ele>
        <time>2023-05-28T12:34:53Z</time>
      </trkpt>
      <trkpt lat="43.52732" lon="5.54851">
        <ele>284.3</ele>
        <time>2023-05-28T12:34:54Z</time>
      </trkpt>
      <trkpt lat="43.52732" lon="5.54851">
        <ele>284.3</ele>
        <time>2023-05-28T12:34:55Z</time>
      </trkpt>
      <trkpt lat="43.52732" lon="5.54851">
        <ele>284.2</ele>
        <time>2023-05-28T12:34:56Z</time>
      </trkpt>
      <trkpt lat="43.52732" lon="5.54851">
        <ele>284.2</ele>
        <time>2023-05-28T12:34:57Z</time>
      </trkpt>
      <trkpt lat="43.52731" lon="5.54851">
        <ele>284.2</ele>
        <time>2023-05-28T12:34:58Z</time>
      </trkpt>
      <trkpt lat="43.52731" lon="5.54851">
        <ele>284.2</ele>
        <time>2023-05-28T12:34:59Z</time>
      </trkpt>
      <trkpt lat="43.5273" lon="5.5485">
        <ele>284.2</ele>
        <time>2023-05-28T12:35:00Z</time>
      </trkpt>
      <trkpt lat="43.5273" lon="5.5485">
        <ele>284.2</ele>
        <time>2023-05-28T12:35:01Z</time>
      </trkpt>
      <trkpt lat="43.5273" lon="5.5485">
        <ele>284.2</ele>
        <time>2023-05-28T12:35:02Z</time>
      </trkpt>
      <trkpt lat="43.5273" lon="5.5485">
        <ele>284.2</ele>
        <time>2023-05-28T12:35:03Z</time>
      </trkpt>
      <trkpt lat="43.5273" lon="5.5485">
        <ele>284.2</ele>
        <time>2023-05-28T12:35:04Z</time>
      </trkpt>
      <trkpt lat="43.5273" lon="5.54849">
        <ele>284.2</ele>
        <time>2023-05-28T12:35:05Z</time>
      </trkpt>
      <trkpt lat="43.5273" lon="5.54848">
        <ele>284.2</ele>
        <time>2023-05-28T12:35:06Z</time>
      </trkpt>
      <trkpt lat="43.5273" lon="5.54847">
        <ele>284.1</ele>
        <time>2023-05-28T12:35:07Z</time>
      </trkpt>
      <trkpt lat="43.5273" lon="5.54845">
        <ele>284.1</ele>
        <time>2023-05-28T12:35:08Z</time>
      </trkpt>
      <trkpt lat="43.5273" lon="5.54843">
        <ele>284.1</ele>
        <time>2023-05-28T12:35:09Z</time>
      </trkpt>
      <trkpt lat="43.52731" lon="5.54842">
        <ele>284</ele>
        <time>2023-05-28T12:35:10Z</time>
      </trkpt>
      <trkpt lat="43.52732" lon="5.54841">
        <ele>284</ele>
        <time>2023-05-28T12:35:11Z</time>
      </trkpt>
      <trkpt lat="43.52732" lon="5.54839">
        <ele>283.9</ele>
        <time>2023-05-28T12:35:12Z</time>
      </trkpt>
      <trkpt lat="43.52732" lon="5.54838">
        <ele>283.8</ele>
        <time>2023-05-28T12:35:13Z</time>
      </trkpt>
      <trkpt lat="43.52733" lon="5.54837">
        <ele>283.7</ele>
        <time>2023-05-28T12:35:14Z</time>
      </trkpt>
      <trkpt lat="43.52733" lon="5.54835">
        <ele>283.7</ele>
        <time>2023-05-28T12:35:15Z</time>
      </trkpt>
      <trkpt lat="43.52734" lon="5.54834">
        <ele>283.6</ele>
        <time>2023-05-28T12:35:16Z</time>
      </trkpt>
      <trkpt lat="43.52734" lon="5.54832">
        <ele>283.6</ele>
        <time>2023-05-28T12:35:17Z</time>
      </trkpt>
      <trkpt lat="43.52733" lon="5.54831">
        <ele>283.6</ele>
        <time>2023-05-28T12:35:18Z</time>
      </trkpt>
      <trkpt lat="43.52733" lon="5.54831">
        <ele>283.6</ele>
        <time>2023-05-28T12:35:19Z</time>
      </trkpt>
      <trkpt lat="43.52733" lon="5.54831">
        <ele>283.5</ele>
        <time>2023-05-28T12:35:20Z</time>
      </trkpt>
      <trkpt lat="43.52733" lon="5.54831">
        <ele>283.5</ele>
        <time>2023-05-28T12:35:21Z</time>
      </trkpt>
      <trkpt lat="43.52733" lon="5.5483">
        <ele>283.4</ele>
        <time>2023-05-28T12:35:22Z</time>
      </trkpt>
      <trkpt lat="43.52733" lon="5.5483">
        <ele>283.4</ele>
        <time>2023-05-28T12:35:23Z</time>
      </trkpt>
      <trkpt lat="43.52733" lon="5.5483">
        <ele>283.3</ele>
        <time>2023-05-28T12:35:24Z</time>
      </trkpt>
      <trkpt lat="43.52733" lon="5.5483">
        <ele>283.3</ele>
        <time>2023-05-28T12:35:25Z</time>
      </trkpt>
      <trkpt lat="43.52733" lon="5.5483">
        <ele>283.3</ele>
        <time>2023-05-28T12:35:26Z</time>
      </trkpt>
      <trkpt lat="43.52734" lon="5.5483">
        <ele>283.2</ele>
        <time>2023-05-28T12:35:27Z</time>
      </trkpt>
      <trkpt lat="43.52735" lon="5.54829">
        <ele>283.2</ele>
        <time>2023-05-28T12:35:28Z</time>
      </trkpt>
      <trkpt lat="43.52734" lon="5.54829">
        <ele>283.1</ele>
        <time>2023-05-28T12:35:29Z</time>
      </trkpt>
      <trkpt lat="43.52735" lon="5.54828">
        <ele>283.1</ele>
        <time>2023-05-28T12:35:30Z</time>
      </trkpt>
      <trkpt lat="43.52735" lon="5.54827">
        <ele>283</ele>
        <time>2023-05-28T12:35:31Z</time>
      </trkpt>
      <trkpt lat="43.52736" lon="5.54826">
        <ele>283</ele>
        <time>2023-05-28T12:35:32Z</time>
      </trkpt>
      <trkpt lat="43.52736" lon="5.54826">
        <ele>282.8</ele>
        <time>2023-05-28T12:35:33Z</time>
      </trkpt>
      <trkpt lat="43.52736" lon="5.54826">
        <ele>282.7</ele>
        <time>2023-05-28T12:35:34Z</time>
      </trkpt>
      <trkpt lat="43.52735" lon="5.54825">
        <ele>282.6</ele>
        <time>2023-05-28T12:35:35Z</time>
      </trkpt>
      <trkpt lat="43.52735" lon="5.54824">
        <ele>282.5</ele>
        <time>2023-05-28T12:35:36Z</time>
      </trkpt>
      <trkpt lat="43.52735" lon="5.54824">
        <ele>282.5</ele>
        <time>2023-05-28T12:35:37Z</time>
      </trkpt>
      <trkpt lat="43.52735" lon="5.54824">
        <ele>282.4</ele>
        <time>2023-05-28T12:35:38Z</time>
      </trkpt>
      <trkpt lat="43.52735" lon="5.54824">
        <ele>282.3</ele>
        <time>2023-05-28T12:35:39Z</time>
      </trkpt>
      <trkpt lat="43.52735" lon="5.54824">
        <ele>282.3</ele>
        <time>2023-05-28T12:35:40Z</time>
      </trkpt>
      <trkpt lat="43.52735" lon="5.54823">
        <ele>282.3</ele>
        <time>2023-05-28T12:35:41Z</time>
      </trkpt>
      <trkpt lat="43.52735" lon="5.54823">
        <ele>282.3</ele>
        <time>2023-05-28T12:35:42Z</time>
      </trkpt>
      <trkpt lat="43.52734" lon="5.54824">
        <ele>282.3</ele>
        <time>2023-05-28T12:35:43Z</time>
      </trkpt>
      <trkpt lat="43.52733" lon="5.54824">
        <ele>282.2</ele>
        <time>2023-05-28T12:35:44Z</time>
      </trkpt>
      <trkpt lat="43.52733" lon="5.54825">
        <ele>282.2</ele>
        <time>2023-05-28T12:35:45Z</time>
      </trkpt>
      <trkpt lat="43.52732" lon="5.54825">
        <ele>282.3</ele>
        <time>2023-05-28T12:35:46Z</time>
      </trkpt>
      <trkpt lat="43.52731" lon="5.54825">
        <ele>282.4</ele>
        <time>2023-05-28T12:35:47Z</time>
      </trkpt>
      <trkpt lat="43.5273" lon="5.54825">
        <ele>282.3</ele>
        <time>2023-05-28T12:35:48Z</time>
      </trkpt>
      <trkpt lat="43.52729" lon="5.54825">
        <ele>282.4</ele>
        <time>2023-05-28T12:35:49Z</time>
      </trkpt>
      <trkpt lat="43.52728" lon="5.54826">
        <ele>282.5</ele>
        <time>2023-05-28T12:35:50Z</time>
      </trkpt>
      <trkpt lat="43.52728" lon="5.54826">
        <ele>282.5</ele>
        <time>2023-05-28T12:35:51Z</time>
      </trkpt>
      <trkpt lat="43.52727" lon="5.54825">
        <ele>282.5</ele>
        <time>2023-05-28T12:35:52Z</time>
      </trkpt>
      <trkpt lat="43.52727" lon="5.54824">
        <ele>282.6</ele>
        <time>2023-05-28T12:35:53Z</time>
      </trkpt>
      <trkpt lat="43.52726" lon="5.54824">
        <ele>282.7</ele>
        <time>2023-05-28T12:35:54Z</time>
      </trkpt>
      <trkpt lat="43.52726" lon="5.54823">
        <ele>282.7</ele>
        <time>2023-05-28T12:35:55Z</time>
      </trkpt>
      <trkpt lat="43.52726" lon="5.54823">
        <ele>282.7</ele>
        <time>2023-05-28T12:35:56Z</time>
      </trkpt>
      <trkpt lat="43.52726" lon="5.54823">
        <ele>282.7</ele>
        <time>2023-05-28T12:35:57Z</time>
      </trkpt>
      <trkpt lat="43.52727" lon="5.54822">
        <ele>282.7</ele>
        <time>2023-05-28T12:35:58Z</time>
      </trkpt>
      <trkpt lat="43.52728" lon="5.54821">
        <ele>282.7</ele>
        <time>2023-05-28T12:35:59Z</time>
      </trkpt>
      <trkpt lat="43.52728" lon="5.54821">
        <ele>282.6</ele>
        <time>2023-05-28T12:36:00Z</time>
      </trkpt>
      <trkpt lat="43.52728" lon="5.5482">
        <ele>282.6</ele>
        <time>2023-05-28T12:36:01Z</time>
      </trkpt>
      <trkpt lat="43.52728" lon="5.54819">
        <ele>282.6</ele>
        <time>2023-05-28T12:36:02Z</time>
      </trkpt>
      <trkpt lat="43.52728" lon="5.5482">
        <ele>282.5</ele>
        <time>2023-05-28T12:36:03Z</time>
      </trkpt>
      <trkpt lat="43.52727" lon="5.5482">
        <ele>282.4</ele>
        <time>2023-05-28T12:36:04Z</time>
      </trkpt>
      <trkpt lat="43.52727" lon="5.5482">
        <ele>282.2</ele>
        <time>2023-05-28T12:36:05Z</time>
      </trkpt>
      <trkpt lat="43.52726" lon="5.5482">
        <ele>282</ele>
        <time>2023-05-28T12:36:06Z</time>
      </trkpt>
      <trkpt lat="43.52726" lon="5.5482">
        <ele>281.8</ele>
        <time>2023-05-28T12:36:07Z</time>
      </trkpt>
      <trkpt lat="43.52725" lon="5.54821">
        <ele>281.8</ele>
        <time>2023-05-28T12:36:08Z</time>
      </trkpt>
      <trkpt lat="43.52725" lon="5.54821">
        <ele>281.9</ele>
        <time>2023-05-28T12:36:09Z</time>
      </trkpt>
      <trkpt lat="43.52725" lon="5.54821">
        <ele>281.8</ele>
        <time>2023-05-28T12:36:10Z</time>
      </trkpt>
      <trkpt lat="43.52725" lon="5.54821">
        <ele>281.9</ele>
        <time>2023-05-28T12:36:11Z</time>
      </trkpt>
      <trkpt lat="43.52724" lon="5.54821">
        <ele>281.9</ele>
        <time>2023-05-28T12:36:12Z</time>
      </trkpt>
      <trkpt lat="43.52725" lon="5.54821">
        <ele>281.9</ele>
        <time>2023-05-28T12:36:13Z</time>
      </trkpt>
      <trkpt lat="43.52724" lon="5.54821">
        <ele>281.9</ele>
        <time>2023-05-28T12:36:14Z</time>
      </trkpt>
      <trkpt lat="43.52724" lon="5.54821">
        <ele>282</ele>
        <time>2023-05-28T12:36:15Z</time>
      </trkpt>
      <trkpt lat="43.52724" lon="5.54821">
        <ele>282</ele>
        <time>2023-05-28T12:36:16Z</time>
      </trkpt>
      <trkpt lat="43.52724" lon="5.54822">
        <ele>282</ele>
        <time>2023-05-28T12:36:17Z</time>
      </trkpt>
      <trkpt lat="43.52724" lon="5.54822">
        <ele>282.3</ele>
        <time>2023-05-28T12:36:18Z</time>
      </trkpt>
      <trkpt lat="43.52724" lon="5.54823">
        <ele>282.2</ele>
        <time>2023-05-28T12:36:19Z</time>
      </trkpt>
      <trkpt lat="43.52724" lon="5.54824">
        <ele>282.2</ele>
        <time>2023-05-28T12:36:20Z</time>
      </trkpt>
      <trkpt lat="43.52725" lon="5.54826">
        <ele>282.2</ele>
        <time>2023-05-28T12:36:21Z</time>
      </trkpt>
      <trkpt lat="43.52725" lon="5.54826">
        <ele>282.2</ele>
        <time>2023-05-28T12:36:22Z</time>
      </trkpt>
      <trkpt lat="43.52725" lon="5.54826">
        <ele>282.2</ele>
        <time>2023-05-28T12:36:23Z</time>
      </trkpt>
      <trkpt lat="43.52725" lon="5.54826">
        <ele>282.2</ele>
        <time>2023-05-28T12:36:24Z</time>
      </trkpt>
      <trkpt lat="43.52725" lon="5.54826">
        <ele>282.2</ele>
        <time>2023-05-28T12:36:25Z</time>
      </trkpt>
      <trkpt lat="43.52725" lon="5.54826">
        <ele>282.2</ele>
        <time>2023-05-28T12:36:26Z</time>
      </trkpt>
      <trkpt lat="43.52725" lon="5.54826">
        <ele>282.2</ele>
        <time>2023-05-28T12:36:27Z</time>
      </trkpt>
      <trkpt lat="43.52725" lon="5.54826">
        <ele>282.2</ele>
        <time>2023-05-28T12:36:28Z</time>
      </trkpt>
      <trkpt lat="43.52725" lon="5.54826">
        <ele>282.2</ele>
        <time>2023-05-28T12:36:29Z</time>
      </trkpt>
      <trkpt lat="43.52725" lon="5.54826">
        <ele>282</ele>
        <time>2023-05-28T12:36:30Z</time>
      </trkpt>
      <trkpt lat="43.52725" lon="5.54826">
        <ele>282</ele>
        <time>2023-05-28T12:36:31Z</time>
      </trkpt>
      <trkpt lat="43.52725" lon="5.54826">
        <ele>281.8</ele>
        <time>2023-05-28T12:36:32Z</time>
      </trkpt>
      <trkpt lat="43.52725" lon="5.54826">
        <ele>281.8</ele>
        <time>2023-05-28T12:36:33Z</time>
      </trkpt>
      <trkpt lat="43.52725" lon="5.54825">
        <ele>281.9</ele>
        <time>2023-05-28T12:36:34Z</time>
      </trkpt>
      <trkpt lat="43.52725" lon="5.54825">
        <ele>281.9</ele>
        <time>2023-05-28T12:36:35Z</time>
      </trkpt>
      <trkpt lat="43.52725" lon="5.54825">
        <ele>281.9</ele>
        <time>2023-05-28T12:36:36Z</time>
      </trkpt>
      <trkpt lat="43.52725" lon="5.54825">
        <ele>282</ele>
        <time>2023-05-28T12:36:37Z</time>
      </trkpt>
      <trkpt lat="43.52725" lon="5.54825">
        <ele>281.9</ele>
        <time>2023-05-28T12:36:38Z</time>
      </trkpt>
      <trkpt lat="43.52725" lon="5.54825">
        <ele>281.9</ele>
        <time>2023-05-28T12:36:39Z</time>
      </trkpt>
      <trkpt lat="43.52726" lon="5.54825">
        <ele>281.9</ele>
        <time>2023-05-28T12:36:40Z</time>
      </trkpt>
      <trkpt lat="43.52726" lon="5.54825">
        <ele>281.8</ele>
        <time>2023-05-28T12:36:41Z</time>
      </trkpt>
      <trkpt lat="43.52727" lon="5.54825">
        <ele>281.8</ele>
        <time>2023-05-28T12:36:42Z</time>
      </trkpt>
      <trkpt lat="43.52728" lon="5.54825">
        <ele>281.8</ele>
        <time>2023-05-28T12:36:43Z</time>
      </trkpt>
      <trkpt lat="43.52728" lon="5.54826">
        <ele>281.8</ele>
        <time>2023-05-28T12:36:44Z</time>
      </trkpt>
      <trkpt lat="43.52728" lon="5.54826">
        <ele>281.8</ele>
        <time>2023-05-28T12:36:45Z</time>
      </trkpt>
      <trkpt lat="43.52729" lon="5.54825">
        <ele>281.8</ele>
        <time>2023-05-28T12:36:46Z</time>
      </trkpt>
      <trkpt lat="43.52729" lon="5.54825">
        <ele>281.8</ele>
        <time>2023-05-28T12:36:47Z</time>
      </trkpt>
      <trkpt lat="43.52728" lon="5.54825">
        <ele>281.8</ele>
        <time>2023-05-28T12:36:48Z</time>
      </trkpt>
      <trkpt lat="43.52728" lon="5.54825">
        <ele>281.8</ele>
        <time>2023-05-28T12:36:49Z</time>
      </trkpt>
      <trkpt lat="43.52728" lon="5.54824">
        <ele>281.8</ele>
        <time>2023-05-28T12:36:50Z</time>
      </trkpt>
      <trkpt lat="43.52728" lon="5.54824">
        <ele>281.8</ele>
        <time>2023-05-28T12:36:51Z</time>
      </trkpt>
      <trkpt lat="43.52728" lon="5.54824">
        <ele>281.8</ele>
        <time>2023-05-28T12:36:52Z</time>
      </trkpt>
      <trkpt lat="43.52728" lon="5.54824">
        <ele>281.8</ele>
        <time>2023-05-28T12:36:53Z</time>
      </trkpt>
      <trkpt lat="43.52728" lon="5.54824">
        <ele>281.8</ele>
        <time>2023-05-28T12:36:54Z</time>
      </trkpt>
      <trkpt lat="43.52728" lon="5.54824">
        <ele>281.7</ele>
        <time>2023-05-28T12:36:55Z</time>
      </trkpt>
      <trkpt lat="43.52728" lon="5.54824">
        <ele>281.7</ele>
        <time>2023-05-28T12:36:56Z</time>
      </trkpt>
      <trkpt lat="43.52728" lon="5.54823">
        <ele>281.7</ele>
        <time>2023-05-28T12:36:57Z</time>
      </trkpt>
      <trkpt lat="43.52728" lon="5.54823">
        <ele>281.7</ele>
        <time>2023-05-28T12:36:58Z</time>
      </trkpt>
      <trkpt lat="43.52728" lon="5.54823">
        <ele>281.7</ele>
        <time>2023-05-28T12:36:59Z</time>
      </trkpt>
      <trkpt lat="43.52728" lon="5.54823">
        <ele>281.7</ele>
        <time>2023-05-28T12:37:00Z</time>
      </trkpt>
      <trkpt lat="43.52728" lon="5.54823">
        <ele>281.7</ele>
        <time>2023-05-28T12:37:01Z</time>
      </trkpt>
      <trkpt lat="43.52728" lon="5.54823">
        <ele>281.7</ele>
        <time>2023-05-28T12:37:02Z</time>
      </trkpt>
      <trkpt lat="43.52728" lon="5.54823">
        <ele>281.7</ele>
        <time>2023-05-28T12:37:03Z</time>
      </trkpt>
      <trkpt lat="43.52728" lon="5.54823">
        <ele>281.6</ele>
        <time>2023-05-28T12:37:04Z</time>
      </trkpt>
      <trkpt lat="43.52728" lon="5.54823">
        <ele>281.5</ele>
        <time>2023-05-28T12:37:05Z</time>
      </trkpt>
      <trkpt lat="43.52728" lon="5.54823">
        <ele>281.5</ele>
        <time>2023-05-28T12:37:06Z</time>
      </trkpt>
      <trkpt lat="43.52728" lon="5.54823">
        <ele>281.4</ele>
        <time>2023-05-28T12:37:07Z</time>
      </trkpt>
      <trkpt lat="43.52728" lon="5.54823">
        <ele>281.3</ele>
        <time>2023-05-28T12:37:08Z</time>
      </trkpt>
      <trkpt lat="43.52728" lon="5.54824">
        <ele>281.3</ele>
        <time>2023-05-28T12:37:09Z</time>
      </trkpt>
      <trkpt lat="43.52728" lon="5.54824">
        <ele>281.3</ele>
        <time>2023-05-28T12:37:10Z</time>
      </trkpt>
      <trkpt lat="43.52728" lon="5.54824">
        <ele>281.2</ele>
        <time>2023-05-28T12:37:11Z</time>
      </trkpt>
      <trkpt lat="43.52728" lon="5.54824">
        <ele>281.1</ele>
        <time>2023-05-28T12:37:12Z</time>
      </trkpt>
      <trkpt lat="43.52729" lon="5.54823">
        <ele>281.1</ele>
        <time>2023-05-28T12:37:13Z</time>
      </trkpt>
      <trkpt lat="43.52728" lon="5.54823">
        <ele>281.1</ele>
        <time>2023-05-28T12:37:14Z</time>
      </trkpt>
      <trkpt lat="43.52728" lon="5.54823">
        <ele>281</ele>
        <time>2023-05-28T12:37:15Z</time>
      </trkpt>
      <trkpt lat="43.52728" lon="5.54823">
        <ele>281.1</ele>
        <time>2023-05-28T12:37:16Z</time>
      </trkpt>
      <trkpt lat="43.52728" lon="5.54823">
        <ele>281</ele>
        <time>2023-05-28T12:37:17Z</time>
      </trkpt>
      <trkpt lat="43.52729" lon="5.54823">
        <ele>281.3</ele>
        <time>2023-05-28T12:37:18Z</time>
      </trkpt>
      <trkpt lat="43.52729" lon="5.54823">
        <ele>281.2</ele>
        <time>2023-05-28T12:37:19Z</time>
      </trkpt>
      <trkpt lat="43.52729" lon="5.54823">
        <ele>281.1</ele>
        <time>2023-05-28T12:37:20Z</time>
      </trkpt>
      <trkpt lat="43.52729" lon="5.54824">
        <ele>281.1</ele>
        <time>2023-05-28T12:37:21Z</time>
      </trkpt>
      <trkpt lat="43.5273" lon="5.54824">
        <ele>281.1</ele>
        <time>2023-05-28T12:37:22Z</time>
      </trkpt>
      <trkpt lat="43.5273" lon="5.54825">
        <ele>281</ele>
        <time>2023-05-28T12:37:23Z</time>
      </trkpt>
      <trkpt lat="43.52731" lon="5.54825">
        <ele>281</ele>
        <time>2023-05-28T12:37:24Z</time>
      </trkpt>
      <trkpt lat="43.52731" lon="5.54826">
        <ele>281</ele>
        <time>2023-05-28T12:37:25Z</time>
      </trkpt>
      <trkpt lat="43.52731" lon="5.54826">
        <ele>281</ele>
        <time>2023-05-28T12:37:26Z</time>
      </trkpt>
      <trkpt lat="43.52731" lon="5.54825">
        <ele>281</ele>
        <time>2023-05-28T12:37:27Z</time>
      </trkpt>
      <trkpt lat="43.52732" lon="5.54825">
        <ele>281</ele>
        <time>2023-05-28T12:37:28Z</time>
      </trkpt>
      <trkpt lat="43.52732" lon="5.54825">
        <ele>281</ele>
        <time>2023-05-28T12:37:29Z</time>
      </trkpt>
      <trkpt lat="43.52732" lon="5.54825">
        <ele>281</ele>
        <time>2023-05-28T12:37:30Z</time>
      </trkpt>
      <trkpt lat="43.52732" lon="5.54825">
        <ele>281</ele>
        <time>2023-05-28T12:37:31Z</time>
      </trkpt>
      <trkpt lat="43.52732" lon="5.54825">
        <ele>280.9</ele>
        <time>2023-05-28T12:37:32Z</time>
      </trkpt>
      <trkpt lat="43.52732" lon="5.54825">
        <ele>280.8</ele>
        <time>2023-05-28T12:37:33Z</time>
      </trkpt>
      <trkpt lat="43.52732" lon="5.54825">
        <ele>280.7</ele>
        <time>2023-05-28T12:37:34Z</time>
      </trkpt>
      <trkpt lat="43.52732" lon="5.54825">
        <ele>280.7</ele>
        <time>2023-05-28T12:37:35Z</time>
      </trkpt>
      <trkpt lat="43.52732" lon="5.54825">
        <ele>280.6</ele>
        <time>2023-05-28T12:37:36Z</time>
      </trkpt>
      <trkpt lat="43.52732" lon="5.54825">
        <ele>280.7</ele>
        <time>2023-05-28T12:37:37Z</time>
      </trkpt>
      <trkpt lat="43.52732" lon="5.54825">
        <ele>280.7</ele>
        <time>2023-05-28T12:37:38Z</time>
      </trkpt>
      <trkpt lat="43.52732" lon="5.54825">
        <ele>280.7</ele>
        <time>2023-05-28T12:37:39Z</time>
      </trkpt>
      <trkpt lat="43.52732" lon="5.54825">
        <ele>280.6</ele>
        <time>2023-05-28T12:37:40Z</time>
      </trkpt>
      <trkpt lat="43.52732" lon="5.54826">
        <ele>280.6</ele>
        <time>2023-05-28T12:37:41Z</time>
      </trkpt>
      <trkpt lat="43.52732" lon="5.54826">
        <ele>280.6</ele>
        <time>2023-05-28T12:37:42Z</time>
      </trkpt>
      <trkpt lat="43.52733" lon="5.54826">
        <ele>280.6</ele>
        <time>2023-05-28T12:37:43Z</time>
      </trkpt>
      <trkpt lat="43.52733" lon="5.54826">
        <ele>280.6</ele>
        <time>2023-05-28T12:37:44Z</time>
      </trkpt>
      <trkpt lat="43.52733" lon="5.54826">
        <ele>280.5</ele>
        <time>2023-05-28T12:37:45Z</time>
      </trkpt>
      <trkpt lat="43.52733" lon="5.54826">
        <ele>280.5</ele>
        <time>2023-05-28T12:37:46Z</time>
      </trkpt>
      <trkpt lat="43.52733" lon="5.54826">
        <ele>280.5</ele>
        <time>2023-05-28T12:37:47Z</time>
      </trkpt>
      <trkpt lat="43.52733" lon="5.54826">
        <ele>280.5</ele>
        <time>2023-05-28T12:37:48Z</time>
      </trkpt>
      <trkpt lat="43.52734" lon="5.54826">
        <ele>280.6</ele>
        <time>2023-05-28T12:37:49Z</time>
      </trkpt>
      <trkpt lat="43.52734" lon="5.54826">
        <ele>280.6</ele>
        <time>2023-05-28T12:37:50Z</time>
      </trkpt>
      <trkpt lat="43.52734" lon="5.54826">
        <ele>280.6</ele>
        <time>2023-05-28T12:37:51Z</time>
      </trkpt>
      <trkpt lat="43.52734" lon="5.54827">
        <ele>280.6</ele>
        <time>2023-05-28T12:37:52Z</time>
      </trkpt>
      <trkpt lat="43.52734" lon="5.54827">
        <ele>280.6</ele>
        <time>2023-05-28T12:37:53Z</time>
      </trkpt>
      <trkpt lat="43.52735" lon="5.54828">
        <ele>280.5</ele>
        <time>2023-05-28T12:37:54Z</time>
      </trkpt>
      <trkpt lat="43.52735" lon="5.54828">
        <ele>280.5</ele>
        <time>2023-05-28T12:37:55Z</time>
      </trkpt>
      <trkpt lat="43.52735" lon="5.54828">
        <ele>280.5</ele>
        <time>2023-05-28T12:37:56Z</time>
      </trkpt>
      <trkpt lat="43.52735" lon="5.54829">
        <ele>280.5</ele>
        <time>2023-05-28T12:37:57Z</time>
      </trkpt>
      <trkpt lat="43.52735" lon="5.54829">
        <ele>280.4</ele>
        <time>2023-05-28T12:37:58Z</time>
      </trkpt>
      <trkpt lat="43.52735" lon="5.54829">
        <ele>280.5</ele>
        <time>2023-05-28T12:37:59Z</time>
      </trkpt>
      <trkpt lat="43.52735" lon="5.54829">
        <ele>280.5</ele>
        <time>2023-05-28T12:38:00Z</time>
      </trkpt>
      <trkpt lat="43.52735" lon="5.54829">
        <ele>280.5</ele>
        <time>2023-05-28T12:38:01Z</time>
      </trkpt>
      <trkpt lat="43.52735" lon="5.54829">
        <ele>280.5</ele>
        <time>2023-05-28T12:38:02Z</time>
      </trkpt>
      <trkpt lat="43.52735" lon="5.54829">
        <ele>280.4</ele>
        <time>2023-05-28T12:38:03Z</time>
      </trkpt>
      <trkpt lat="43.52735" lon="5.54829">
        <ele>280.4</ele>
        <time>2023-05-28T12:38:04Z</time>
      </trkpt>
      <trkpt lat="43.52735" lon="5.54829">
        <ele>280.4</ele>
        <time>2023-05-28T12:38:05Z</time>
      </trkpt>
      <trkpt lat="43.52735" lon="5.54829">
        <ele>280.4</ele>
        <time>2023-05-28T12:38:06Z</time>
      </trkpt>
      <trkpt lat="43.52735" lon="5.54828">
        <ele>280.4</ele>
        <time>2023-05-28T12:38:07Z</time>
      </trkpt>
      <trkpt lat="43.52734" lon="5.54828">
        <ele>280.4</ele>
        <time>2023-05-28T12:38:08Z</time>
      </trkpt>
      <trkpt lat="43.52734" lon="5.54829">
        <ele>280.4</ele>
        <time>2023-05-28T12:38:09Z</time>
      </trkpt>
      <trkpt lat="43.52734" lon="5.54829">
        <ele>280.2</ele>
        <time>2023-05-28T12:38:10Z</time>
      </trkpt>
      <trkpt lat="43.52735" lon="5.54828">
        <ele>280.2</ele>
        <time>2023-05-28T12:38:11Z</time>
      </trkpt>
      <trkpt lat="43.52734" lon="5.54828">
        <ele>280.2</ele>
        <time>2023-05-28T12:38:12Z</time>
      </trkpt>
      <trkpt lat="43.52734" lon="5.54827">
        <ele>280.2</ele>
        <time>2023-05-28T12:38:13Z</time>
      </trkpt>
      <trkpt lat="43.52734" lon="5.54826">
        <ele>280.2</ele>
        <time>2023-05-28T12:38:14Z</time>
      </trkpt>
      <trkpt lat="43.52734" lon="5.54826">
        <ele>280.2</ele>
        <time>2023-05-28T12:38:15Z</time>
      </trkpt>
      <trkpt lat="43.52734" lon="5.54827">
        <ele>280.1</ele>
        <time>2023-05-28T12:38:16Z</time>
      </trkpt>
      <trkpt lat="43.52734" lon="5.54827">
        <ele>280.1</ele>
        <time>2023-05-28T12:38:17Z</time>
      </trkpt>
      <trkpt lat="43.52734" lon="5.54826">
        <ele>280</ele>
        <time>2023-05-28T12:38:18Z</time>
      </trkpt>
      <trkpt lat="43.52734" lon="5.54827">
        <ele>280</ele>
        <time>2023-05-28T12:38:19Z</time>
      </trkpt>
      <trkpt lat="43.52733" lon="5.54827">
        <ele>279.9</ele>
        <time>2023-05-28T12:38:20Z</time>
      </trkpt>
      <trkpt lat="43.52733" lon="5.54827">
        <ele>279.9</ele>
        <time>2023-05-28T12:38:21Z</time>
      </trkpt>
      <trkpt lat="43.52733" lon="5.54827">
        <ele>279.9</ele>
        <time>2023-05-28T12:38:22Z</time>
      </trkpt>
      <trkpt lat="43.52733" lon="5.54828">
        <ele>279.8</ele>
        <time>2023-05-28T12:38:23Z</time>
      </trkpt>
      <trkpt lat="43.52733" lon="5.54828">
        <ele>279.8</ele>
        <time>2023-05-28T12:38:24Z</time>
      </trkpt>
      <trkpt lat="43.52733" lon="5.54828">
        <ele>279.8</ele>
        <time>2023-05-28T12:38:25Z</time>
      </trkpt>
      <trkpt lat="43.52733" lon="5.54828">
        <ele>279.8</ele>
        <time>2023-05-28T12:38:26Z</time>
      </trkpt>
      <trkpt lat="43.52733" lon="5.54828">
        <ele>279.8</ele>
        <time>2023-05-28T12:38:27Z</time>
      </trkpt>
      <trkpt lat="43.52733" lon="5.54828">
        <ele>279.8</ele>
        <time>2023-05-28T12:38:28Z</time>
      </trkpt>
      <trkpt lat="43.52733" lon="5.54828">
        <ele>279.8</ele>
        <time>2023-05-28T12:38:29Z</time>
      </trkpt>
      <trkpt lat="43.52733" lon="5.54828">
        <ele>279.8</ele>
        <time>2023-05-28T12:38:30Z</time>
      </trkpt>
      <trkpt lat="43.52734" lon="5.54827">
        <ele>279.7</ele>
        <time>2023-05-28T12:38:31Z</time>
      </trkpt>
      <trkpt lat="43.52734" lon="5.54826">
        <ele>279.6</ele>
        <time>2023-05-28T12:38:32Z</time>
      </trkpt>
      <trkpt lat="43.52735" lon="5.54825">
        <ele>279.6</ele>
        <time>2023-05-28T12:38:33Z</time>
      </trkpt>
      <trkpt lat="43.52734" lon="5.54824">
        <ele>279.6</ele>
        <time>2023-05-28T12:38:34Z</time>
      </trkpt>
      <trkpt lat="43.52734" lon="5.54824">
        <ele>279.6</ele>
        <time>2023-05-28T12:38:35Z</time>
      </trkpt>
      <trkpt lat="43.52734" lon="5.54823">
        <ele>279.6</ele>
        <time>2023-05-28T12:38:36Z</time>
      </trkpt>
      <trkpt lat="43.52733" lon="5.54823">
        <ele>279.6</ele>
        <time>2023-05-28T12:38:37Z</time>
      </trkpt>
      <trkpt lat="43.52734" lon="5.54823">
        <ele>279.6</ele>
        <time>2023-05-28T12:38:38Z</time>
      </trkpt>
      <trkpt lat="43.52734" lon="5.54823">
        <ele>279.6</ele>
        <time>2023-05-28T12:38:39Z</time>
      </trkpt>
      <trkpt lat="43.52734" lon="5.54823">
        <ele>279.5</ele>
        <time>2023-05-28T12:38:40Z</time>
      </trkpt>
      <trkpt lat="43.52734" lon="5.54823">
        <ele>279.5</ele>
        <time>2023-05-28T12:38:41Z</time>
      </trkpt>
      <trkpt lat="43.52734" lon="5.54823">
        <ele>279.6</ele>
        <time>2023-05-28T12:38:42Z</time>
      </trkpt>
      <trkpt lat="43.52734" lon="5.54823">
        <ele>279.6</ele>
        <time>2023-05-28T12:38:43Z</time>
      </trkpt>
      <trkpt lat="43.52734" lon="5.54823">
        <ele>279.7</ele>
        <time>2023-05-28T12:38:44Z</time>
      </trkpt>
      <trkpt lat="43.52735" lon="5.54823">
        <ele>279.7</ele>
        <time>2023-05-28T12:38:45Z</time>
      </trkpt>
      <trkpt lat="43.52735" lon="5.54823">
        <ele>279.7</ele>
        <time>2023-05-28T12:38:46Z</time>
      </trkpt>
      <trkpt lat="43.52736" lon="5.54823">
        <ele>279.6</ele>
        <time>2023-05-28T12:38:47Z</time>
      </trkpt>
      <trkpt lat="43.52737" lon="5.54822">
        <ele>279.6</ele>
        <time>2023-05-28T12:38:48Z</time>
      </trkpt>
      <trkpt lat="43.52737" lon="5.54821">
        <ele>279.6</ele>
        <time>2023-05-28T12:38:49Z</time>
      </trkpt>
      <trkpt lat="43.52737" lon="5.54821">
        <ele>279.5</ele>
        <time>2023-05-28T12:38:50Z</time>
      </trkpt>
      <trkpt lat="43.52738" lon="5.5482">
        <ele>279.4</ele>
        <time>2023-05-28T12:38:51Z</time>
      </trkpt>
      <trkpt lat="43.52738" lon="5.54819">
        <ele>279.3</ele>
        <time>2023-05-28T12:38:52Z</time>
      </trkpt>
      <trkpt lat="43.52738" lon="5.54818">
        <ele>279.3</ele>
        <time>2023-05-28T12:38:53Z</time>
      </trkpt>
      <trkpt lat="43.52739" lon="5.54817">
        <ele>279.2</ele>
        <time>2023-05-28T12:38:54Z</time>
      </trkpt>
      <trkpt lat="43.5274" lon="5.54817">
        <ele>279.2</ele>
        <time>2023-05-28T12:38:55Z</time>
      </trkpt>
      <trkpt lat="43.5274" lon="5.54816">
        <ele>279.2</ele>
        <time>2023-05-28T12:38:56Z</time>
      </trkpt>
      <trkpt lat="43.5274" lon="5.54815">
        <ele>279.2</ele>
        <time>2023-05-28T12:38:57Z</time>
      </trkpt>
      <trkpt lat="43.5274" lon="5.54813">
        <ele>279.2</ele>
        <time>2023-05-28T12:38:58Z</time>
      </trkpt>
      <trkpt lat="43.5274" lon="5.54811">
        <ele>279.2</ele>
        <time>2023-05-28T12:38:59Z</time>
      </trkpt>
      <trkpt lat="43.5274" lon="5.5481">
        <ele>279.3</ele>
        <time>2023-05-28T12:39:00Z</time>
      </trkpt>
      <trkpt lat="43.5274" lon="5.5481">
        <ele>279.4</ele>
        <time>2023-05-28T12:39:01Z</time>
      </trkpt>
      <trkpt lat="43.5274" lon="5.54808">
        <ele>279.3</ele>
        <time>2023-05-28T12:39:02Z</time>
      </trkpt>
      <trkpt lat="43.5274" lon="5.54808">
        <ele>279.4</ele>
        <time>2023-05-28T12:39:03Z</time>
      </trkpt>
      <trkpt lat="43.52741" lon="5.54806">
        <ele>279.4</ele>
        <time>2023-05-28T12:39:04Z</time>
      </trkpt>
      <trkpt lat="43.52741" lon="5.54805">
        <ele>279.3</ele>
        <time>2023-05-28T12:39:05Z</time>
      </trkpt>
      <trkpt lat="43.52741" lon="5.54805">
        <ele>279.3</ele>
        <time>2023-05-28T12:39:06Z</time>
      </trkpt>
      <trkpt lat="43.5274" lon="5.54803">
        <ele>279.4</ele>
        <time>2023-05-28T12:39:07Z</time>
      </trkpt>
      <trkpt lat="43.5274" lon="5.54803">
        <ele>279.4</ele>
        <time>2023-05-28T12:39:08Z</time>
      </trkpt>
      <trkpt lat="43.5274" lon="5.54802">
        <ele>279.4</ele>
        <time>2023-05-28T12:39:09Z</time>
      </trkpt>
      <trkpt lat="43.5274" lon="5.54801">
        <ele>279.4</ele>
        <time>2023-05-28T12:39:10Z</time>
      </trkpt>
      <trkpt lat="43.52739" lon="5.548">
        <ele>279.5</ele>
        <time>2023-05-28T12:39:11Z</time>
      </trkpt>
      <trkpt lat="43.52738" lon="5.54797">
        <ele>279.5</ele>
        <time>2023-05-28T12:39:12Z</time>
      </trkpt>
      <trkpt lat="43.52738" lon="5.54796">
        <ele>279.4</ele>
        <time>2023-05-28T12:39:13Z</time>
      </trkpt>
      <trkpt lat="43.52739" lon="5.54796">
        <ele>279.4</ele>
        <time>2023-05-28T12:39:14Z</time>
      </trkpt>
      <trkpt lat="43.52739" lon="5.54795">
        <ele>279.4</ele>
        <time>2023-05-28T12:39:15Z</time>
      </trkpt>
      <trkpt lat="43.52738" lon="5.54796">
        <ele>279.4</ele>
        <time>2023-05-28T12:39:16Z</time>
      </trkpt>
      <trkpt lat="43.52739" lon="5.54795">
        <ele>279.4</ele>
        <time>2023-05-28T12:39:17Z</time>
      </trkpt>
      <trkpt lat="43.52738" lon="5.54794">
        <ele>279.4</ele>
        <time>2023-05-28T12:39:18Z</time>
      </trkpt>
      <trkpt lat="43.52739" lon="5.54794">
        <ele>279.4</ele>
        <time>2023-05-28T12:39:19Z</time>
      </trkpt>
      <trkpt lat="43.52738" lon="5.54794">
        <ele>279.4</ele>
        <time>2023-05-28T12:39:20Z</time>
      </trkpt>
      <trkpt lat="43.52738" lon="5.54793">
        <ele>279.4</ele>
        <time>2023-05-28T12:39:21Z</time>
      </trkpt>
      <trkpt lat="43.52739" lon="5.54793">
        <ele>279.4</ele>
        <time>2023-05-28T12:39:22Z</time>
      </trkpt>
      <trkpt lat="43.52738" lon="5.54793">
        <ele>279.4</ele>
        <time>2023-05-28T12:39:23Z</time>
      </trkpt>
      <trkpt lat="43.52738" lon="5.54792">
        <ele>279.3</ele>
        <time>2023-05-28T12:39:24Z</time>
      </trkpt>
      <trkpt lat="43.52738" lon="5.54792">
        <ele>279.4</ele>
        <time>2023-05-28T12:39:25Z</time>
      </trkpt>
      <trkpt lat="43.52739" lon="5.54792">
        <ele>279.4</ele>
        <time>2023-05-28T12:39:26Z</time>
      </trkpt>
      <trkpt lat="43.52738" lon="5.54792">
        <ele>279.4</ele>
        <time>2023-05-28T12:39:27Z</time>
      </trkpt>
      <trkpt lat="43.52739" lon="5.54792">
        <ele>279.4</ele>
        <time>2023-05-28T12:39:28Z</time>
      </trkpt>
      <trkpt lat="43.52739" lon="5.54791">
        <ele>279.4</ele>
        <time>2023-05-28T12:39:29Z</time>
      </trkpt>
      <trkpt lat="43.52739" lon="5.54791">
        <ele>279.4</ele>
        <time>2023-05-28T12:39:30Z</time>
      </trkpt>
      <trkpt lat="43.52739" lon="5.54791">
        <ele>279.4</ele>
        <time>2023-05-28T12:39:31Z</time>
      </trkpt>
      <trkpt lat="43.52739" lon="5.54791">
        <ele>279.4</ele>
        <time>2023-05-28T12:39:32Z</time>
      </trkpt>
      <trkpt lat="43.52739" lon="5.54791">
        <ele>279.3</ele>
        <time>2023-05-28T12:39:33Z</time>
      </trkpt>
      <trkpt lat="43.52739" lon="5.5479">
        <ele>279.2</ele>
        <time>2023-05-28T12:39:34Z</time>
      </trkpt>
      <trkpt lat="43.52739" lon="5.54789">
        <ele>279.1</ele>
        <time>2023-05-28T12:39:35Z</time>
      </trkpt>
      <trkpt lat="43.52739" lon="5.5479">
        <ele>279.1</ele>
        <time>2023-05-28T12:39:36Z</time>
      </trkpt>
      <trkpt lat="43.52739" lon="5.54792">
        <ele>279.1</ele>
        <time>2023-05-28T12:39:37Z</time>
      </trkpt>
      <trkpt lat="43.52739" lon="5.54791">
        <ele>279</ele>
        <time>2023-05-28T12:39:38Z</time>
      </trkpt>
      <trkpt lat="43.52739" lon="5.5479">
        <ele>279</ele>
        <time>2023-05-28T12:39:39Z</time>
      </trkpt>
      <trkpt lat="43.52739" lon="5.54789">
        <ele>279</ele>
        <time>2023-05-28T12:39:40Z</time>
      </trkpt>
      <trkpt lat="43.52739" lon="5.54788">
        <ele>279</ele>
        <time>2023-05-28T12:39:41Z</time>
      </trkpt>
      <trkpt lat="43.5274" lon="5.54788">
        <ele>279</ele>
        <time>2023-05-28T12:39:42Z</time>
      </trkpt>
      <trkpt lat="43.52741" lon="5.54787">
        <ele>279</ele>
        <time>2023-05-28T12:39:43Z</time>
      </trkpt>
      <trkpt lat="43.52741" lon="5.54785">
        <ele>279</ele>
        <time>2023-05-28T12:39:44Z</time>
      </trkpt>
      <trkpt lat="43.52741" lon="5.54785">
        <ele>279</ele>
        <time>2023-05-28T12:39:45Z</time>
      </trkpt>
      <trkpt lat="43.52742" lon="5.54784">
        <ele>279</ele>
        <time>2023-05-28T12:39:46Z</time>
      </trkpt>
      <trkpt lat="43.52741" lon="5.54783">
        <ele>279.1</ele>
        <time>2023-05-28T12:39:47Z</time>
      </trkpt>
      <trkpt lat="43.52741" lon="5.54783">
        <ele>279.1</ele>
        <time>2023-05-28T12:39:48Z</time>
      </trkpt>
      <trkpt lat="43.5274" lon="5.54782">
        <ele>279.1</ele>
        <time>2023-05-28T12:39:49Z</time>
      </trkpt>
      <trkpt lat="43.5274" lon="5.54782">
        <ele>279.2</ele>
        <time>2023-05-28T12:39:50Z</time>
      </trkpt>
      <trkpt lat="43.5274" lon="5.54782">
        <ele>279.1</ele>
        <time>2023-05-28T12:39:51Z</time>
      </trkpt>
      <trkpt lat="43.52739" lon="5.54782">
        <ele>279.2</ele>
        <time>2023-05-28T12:39:52Z</time>
      </trkpt>
      <trkpt lat="43.52739" lon="5.54781">
        <ele>279.2</ele>
        <time>2023-05-28T12:39:53Z</time>
      </trkpt>
      <trkpt lat="43.52738" lon="5.54782">
        <ele>279.2</ele>
        <time>2023-05-28T12:39:54Z</time>
      </trkpt>
      <trkpt lat="43.52738" lon="5.54781">
        <ele>279.2</ele>
        <time>2023-05-28T12:39:55Z</time>
      </trkpt>
      <trkpt lat="43.52738" lon="5.54781">
        <ele>279.2</ele>
        <time>2023-05-28T12:39:56Z</time>
      </trkpt>
      <trkpt lat="43.52738" lon="5.54781">
        <ele>279.2</ele>
        <time>2023-05-28T12:39:57Z</time>
      </trkpt>
      <trkpt lat="43.52737" lon="5.54781">
        <ele>279.2</ele>
        <time>2023-05-28T12:39:58Z</time>
      </trkpt>
      <trkpt lat="43.52737" lon="5.54781">
        <ele>279.2</ele>
        <time>2023-05-28T12:39:59Z</time>
      </trkpt>
      <trkpt lat="43.52737" lon="5.54781">
        <ele>279.2</ele>
        <time>2023-05-28T12:40:00Z</time>
      </trkpt>
      <trkpt lat="43.52736" lon="5.5478">
        <ele>279.1</ele>
        <time>2023-05-28T12:40:01Z</time>
      </trkpt>
      <trkpt lat="43.52736" lon="5.5478">
        <ele>279.1</ele>
        <time>2023-05-28T12:40:02Z</time>
      </trkpt>
      <trkpt lat="43.52736" lon="5.5478">
        <ele>279.2</ele>
        <time>2023-05-28T12:40:03Z</time>
      </trkpt>
      <trkpt lat="43.52736" lon="5.54779">
        <ele>279.2</ele>
        <time>2023-05-28T12:40:04Z</time>
      </trkpt>
      <trkpt lat="43.52736" lon="5.54778">
        <ele>279.3</ele>
        <time>2023-05-28T12:40:05Z</time>
      </trkpt>
      <trkpt lat="43.52736" lon="5.54778">
        <ele>279.3</ele>
        <time>2023-05-28T12:40:06Z</time>
      </trkpt>
      <trkpt lat="43.52736" lon="5.54777">
        <ele>279.3</ele>
        <time>2023-05-28T12:40:07Z</time>
      </trkpt>
      <trkpt lat="43.52735" lon="5.54776">
        <ele>279.3</ele>
        <time>2023-05-28T12:40:08Z</time>
      </trkpt>
      <trkpt lat="43.52734" lon="5.54776">
        <ele>279.4</ele>
        <time>2023-05-28T12:40:09Z</time>
      </trkpt>
      <trkpt lat="43.52734" lon="5.54776">
        <ele>279.4</ele>
        <time>2023-05-28T12:40:10Z</time>
      </trkpt>
      <trkpt lat="43.52733" lon="5.54775">
        <ele>279.4</ele>
        <time>2023-05-28T12:40:11Z</time>
      </trkpt>
      <trkpt lat="43.52732" lon="5.54775">
        <ele>279.4</ele>
        <time>2023-05-28T12:40:12Z</time>
      </trkpt>
      <trkpt lat="43.52732" lon="5.54775">
        <ele>279.4</ele>
        <time>2023-05-28T12:40:13Z</time>
      </trkpt>
      <trkpt lat="43.52732" lon="5.54775">
        <ele>279.4</ele>
        <time>2023-05-28T12:40:14Z</time>
      </trkpt>
      <trkpt lat="43.52731" lon="5.54774">
        <ele>279.4</ele>
        <time>2023-05-28T12:40:15Z</time>
      </trkpt>
      <trkpt lat="43.52731" lon="5.54773">
        <ele>279.4</ele>
        <time>2023-05-28T12:40:16Z</time>
      </trkpt>
      <trkpt lat="43.52731" lon="5.54773">
        <ele>279.4</ele>
        <time>2023-05-28T12:40:17Z</time>
      </trkpt>
      <trkpt lat="43.52732" lon="5.54772">
        <ele>279.4</ele>
        <time>2023-05-28T12:40:18Z</time>
      </trkpt>
      <trkpt lat="43.52731" lon="5.54772">
        <ele>279.3</ele>
        <time>2023-05-28T12:40:19Z</time>
      </trkpt>
      <trkpt lat="43.52731" lon="5.54772">
        <ele>279.3</ele>
        <time>2023-05-28T12:40:20Z</time>
      </trkpt>
      <trkpt lat="43.5273" lon="5.54771">
        <ele>279.3</ele>
        <time>2023-05-28T12:40:21Z</time>
      </trkpt>
      <trkpt lat="43.52729" lon="5.54771">
        <ele>279.3</ele>
        <time>2023-05-28T12:40:22Z</time>
      </trkpt>
      <trkpt lat="43.52729" lon="5.54771">
        <ele>279.3</ele>
        <time>2023-05-28T12:40:23Z</time>
      </trkpt>
      <trkpt lat="43.52728" lon="5.5477">
        <ele>279.3</ele>
        <time>2023-05-28T12:40:24Z</time>
      </trkpt>
      <trkpt lat="43.52727" lon="5.5477">
        <ele>279.1</ele>
        <time>2023-05-28T12:40:25Z</time>
      </trkpt>
      <trkpt lat="43.52726" lon="5.5477">
        <ele>279.1</ele>
        <time>2023-05-28T12:40:26Z</time>
      </trkpt>
      <trkpt lat="43.52726" lon="5.54769">
        <ele>279.1</ele>
        <time>2023-05-28T12:40:27Z</time>
      </trkpt>
      <trkpt lat="43.52725" lon="5.54769">
        <ele>279.1</ele>
        <time>2023-05-28T12:40:28Z</time>
      </trkpt>
      <trkpt lat="43.52724" lon="5.54768">
        <ele>279.1</ele>
        <time>2023-05-28T12:40:29Z</time>
      </trkpt>
      <trkpt lat="43.52723" lon="5.54768">
        <ele>279.1</ele>
        <time>2023-05-28T12:40:30Z</time>
      </trkpt>
      <trkpt lat="43.52723" lon="5.54767">
        <ele>279.1</ele>
        <time>2023-05-28T12:40:31Z</time>
      </trkpt>
      <trkpt lat="43.52722" lon="5.54766">
        <ele>278.6</ele>
        <time>2023-05-28T12:40:32Z</time>
      </trkpt>
      <trkpt lat="43.52722" lon="5.54766">
        <ele>278.6</ele>
        <time>2023-05-28T12:40:33Z</time>
      </trkpt>
      <trkpt lat="43.52721" lon="5.54766">
        <ele>278.7</ele>
        <time>2023-05-28T12:40:34Z</time>
      </trkpt>
      <trkpt lat="43.52721" lon="5.54765">
        <ele>278.7</ele>
        <time>2023-05-28T12:40:35Z</time>
      </trkpt>
      <trkpt lat="43.5272" lon="5.54764">
        <ele>278.8</ele>
        <time>2023-05-28T12:40:36Z</time>
      </trkpt>
      <trkpt lat="43.52719" lon="5.54764">
        <ele>278.7</ele>
        <time>2023-05-28T12:40:37Z</time>
      </trkpt>
      <trkpt lat="43.52718" lon="5.54764">
        <ele>278.7</ele>
        <time>2023-05-28T12:40:38Z</time>
      </trkpt>
      <trkpt lat="43.52717" lon="5.54764">
        <ele>278.7</ele>
        <time>2023-05-28T12:40:39Z</time>
      </trkpt>
      <trkpt lat="43.52716" lon="5.54763">
        <ele>278.7</ele>
        <time>2023-05-28T12:40:40Z</time>
      </trkpt>
      <trkpt lat="43.52715" lon="5.54763">
        <ele>278.7</ele>
        <time>2023-05-28T12:40:41Z</time>
      </trkpt>
      <trkpt lat="43.52715" lon="5.54763">
        <ele>278.7</ele>
        <time>2023-05-28T12:40:42Z</time>
      </trkpt>
      <trkpt lat="43.52715" lon="5.54762">
        <ele>278.7</ele>
        <time>2023-05-28T12:40:43Z</time>
      </trkpt>
      <trkpt lat="43.52714" lon="5.54762">
        <ele>278.7</ele>
        <time>2023-05-28T12:40:44Z</time>
      </trkpt>
      <trkpt lat="43.52715" lon="5.54761">
        <ele>278.6</ele>
        <time>2023-05-28T12:40:45Z</time>
      </trkpt>
      <trkpt lat="43.52715" lon="5.54761">
        <ele>278.7</ele>
        <time>2023-05-28T12:40:46Z</time>
      </trkpt>
      <trkpt lat="43.52715" lon="5.54761">
        <ele>278.7</ele>
        <time>2023-05-28T12:40:47Z</time>
      </trkpt>
      <trkpt lat="43.52714" lon="5.54761">
        <ele>278.7</ele>
        <time>2023-05-28T12:40:48Z</time>
      </trkpt>
      <trkpt lat="43.52713" lon="5.5476">
        <ele>278.7</ele>
        <time>2023-05-28T12:40:49Z</time>
      </trkpt>
      <trkpt lat="43.52712" lon="5.54759">
        <ele>278.7</ele>
        <time>2023-05-28T12:40:50Z</time>
      </trkpt>
      <trkpt lat="43.52712" lon="5.54758">
        <ele>278.7</ele>
        <time>2023-05-28T12:40:51Z</time>
      </trkpt>
      <trkpt lat="43.52711" lon="5.54757">
        <ele>278.6</ele>
        <time>2023-05-28T12:40:52Z</time>
      </trkpt>
      <trkpt lat="43.5271" lon="5.54756">
        <ele>278.6</ele>
        <time>2023-05-28T12:40:53Z</time>
      </trkpt>
      <trkpt lat="43.52709" lon="5.54756">
        <ele>278.5</ele>
        <time>2023-05-28T12:40:54Z</time>
      </trkpt>
      <trkpt lat="43.52709" lon="5.54755">
        <ele>278.5</ele>
        <time>2023-05-28T12:40:55Z</time>
      </trkpt>
      <trkpt lat="43.52708" lon="5.54754">
        <ele>278.5</ele>
        <time>2023-05-28T12:40:56Z</time>
      </trkpt>
      <trkpt lat="43.52708" lon="5.54753">
        <ele>278.5</ele>
        <time>2023-05-28T12:40:57Z</time>
      </trkpt>
      <trkpt lat="43.52707" lon="5.54752">
        <ele>278.6</ele>
        <time>2023-05-28T12:40:58Z</time>
      </trkpt>
      <trkpt lat="43.52707" lon="5.54751">
        <ele>278.6</ele>
        <time>2023-05-28T12:40:59Z</time>
      </trkpt>
      <trkpt lat="43.52706" lon="5.54751">
        <ele>278.6</ele>
        <time>2023-05-28T12:41:00Z</time>
      </trkpt>
      <trkpt lat="43.52705" lon="5.5475">
        <ele>278.5</ele>
        <time>2023-05-28T12:41:01Z</time>
      </trkpt>
      <trkpt lat="43.52704" lon="5.5475">
        <ele>278.5</ele>
        <time>2023-05-28T12:41:02Z</time>
      </trkpt>
      <trkpt lat="43.52704" lon="5.54749">
        <ele>278.6</ele>
        <time>2023-05-28T12:41:03Z</time>
      </trkpt>
      <trkpt lat="43.52703" lon="5.54748">
        <ele>278.6</ele>
        <time>2023-05-28T12:41:04Z</time>
      </trkpt>
      <trkpt lat="43.52703" lon="5.54747">
        <ele>278.6</ele>
        <time>2023-05-28T12:41:05Z</time>
      </trkpt>
      <trkpt lat="43.52702" lon="5.54747">
        <ele>278.6</ele>
        <time>2023-05-28T12:41:06Z</time>
      </trkpt>
      <trkpt lat="43.52702" lon="5.54746">
        <ele>278.5</ele>
        <time>2023-05-28T12:41:07Z</time>
      </trkpt>
      <trkpt lat="43.52702" lon="5.54746">
        <ele>278.5</ele>
        <time>2023-05-28T12:41:08Z</time>
      </trkpt>
      <trkpt lat="43.52701" lon="5.54745">
        <ele>278.5</ele>
        <time>2023-05-28T12:41:09Z</time>
      </trkpt>
      <trkpt lat="43.527" lon="5.54743">
        <ele>278.5</ele>
        <time>2023-05-28T12:41:10Z</time>
      </trkpt>
      <trkpt lat="43.52699" lon="5.54743">
        <ele>278.4</ele>
        <time>2023-05-28T12:41:11Z</time>
      </trkpt>
      <trkpt lat="43.52698" lon="5.54742">
        <ele>278.4</ele>
        <time>2023-05-28T12:41:12Z</time>
      </trkpt>
      <trkpt lat="43.52698" lon="5.5474">
        <ele>278.3</ele>
        <time>2023-05-28T12:41:13Z</time>
      </trkpt>
      <trkpt lat="43.52697" lon="5.5474">
        <ele>278.3</ele>
        <time>2023-05-28T12:41:14Z</time>
      </trkpt>
      <trkpt lat="43.52696" lon="5.5474">
        <ele>278.3</ele>
        <time>2023-05-28T12:41:15Z</time>
      </trkpt>
      <trkpt lat="43.52695" lon="5.54739">
        <ele>278.4</ele>
        <time>2023-05-28T12:41:16Z</time>
      </trkpt>
      <trkpt lat="43.52695" lon="5.54738">
        <ele>278.4</ele>
        <time>2023-05-28T12:41:17Z</time>
      </trkpt>
      <trkpt lat="43.52694" lon="5.54737">
        <ele>278.3</ele>
        <time>2023-05-28T12:41:18Z</time>
      </trkpt>
      <trkpt lat="43.52693" lon="5.54736">
        <ele>278.3</ele>
        <time>2023-05-28T12:41:19Z</time>
      </trkpt>
      <trkpt lat="43.52693" lon="5.54735">
        <ele>278.3</ele>
        <time>2023-05-28T12:41:20Z</time>
      </trkpt>
      <trkpt lat="43.52692" lon="5.54734">
        <ele>278.4</ele>
        <time>2023-05-28T12:41:21Z</time>
      </trkpt>
      <trkpt lat="43.52692" lon="5.54732">
        <ele>278.4</ele>
        <time>2023-05-28T12:41:22Z</time>
      </trkpt>
      <trkpt lat="43.52692" lon="5.54731">
        <ele>278.4</ele>
        <time>2023-05-28T12:41:23Z</time>
      </trkpt>
      <trkpt lat="43.52691" lon="5.5473">
        <ele>278.5</ele>
        <time>2023-05-28T12:41:24Z</time>
      </trkpt>
      <trkpt lat="43.5269" lon="5.5473">
        <ele>278.5</ele>
        <time>2023-05-28T12:41:25Z</time>
      </trkpt>
      <trkpt lat="43.52689" lon="5.54729">
        <ele>278.5</ele>
        <time>2023-05-28T12:41:26Z</time>
      </trkpt>
      <trkpt lat="43.52689" lon="5.54728">
        <ele>278.5</ele>
        <time>2023-05-28T12:41:27Z</time>
      </trkpt>
      <trkpt lat="43.52689" lon="5.54726">
        <ele>278.6</ele>
        <time>2023-05-28T12:41:28Z</time>
      </trkpt>
      <trkpt lat="43.52689" lon="5.54725">
        <ele>278.7</ele>
        <time>2023-05-28T12:41:29Z</time>
      </trkpt>
      <trkpt lat="43.52689" lon="5.54723">
        <ele>278.6</ele>
        <time>2023-05-28T12:41:30Z</time>
      </trkpt>
      <trkpt lat="43.52688" lon="5.54721">
        <ele>278.6</ele>
        <time>2023-05-28T12:41:31Z</time>
      </trkpt>
      <trkpt lat="43.52687" lon="5.5472">
        <ele>278.5</ele>
        <time>2023-05-28T12:41:32Z</time>
      </trkpt>
      <trkpt lat="43.52686" lon="5.54718">
        <ele>278.5</ele>
        <time>2023-05-28T12:41:33Z</time>
      </trkpt>
      <trkpt lat="43.52684" lon="5.54718">
        <ele>278.5</ele>
        <time>2023-05-28T12:41:34Z</time>
      </trkpt>
      <trkpt lat="43.52684" lon="5.54716">
        <ele>278.5</ele>
        <time>2023-05-28T12:41:35Z</time>
      </trkpt>
      <trkpt lat="43.52683" lon="5.54715">
        <ele>278.3</ele>
        <time>2023-05-28T12:41:36Z</time>
      </trkpt>
      <trkpt lat="43.52682" lon="5.54714">
        <ele>278.2</ele>
        <time>2023-05-28T12:41:37Z</time>
      </trkpt>
      <trkpt lat="43.52681" lon="5.54713">
        <ele>278.3</ele>
        <time>2023-05-28T12:41:38Z</time>
      </trkpt>
      <trkpt lat="43.52681" lon="5.54712">
        <ele>278.2</ele>
        <time>2023-05-28T12:41:39Z</time>
      </trkpt>
      <trkpt lat="43.5268" lon="5.54711">
        <ele>278.2</ele>
        <time>2023-05-28T12:41:40Z</time>
      </trkpt>
      <trkpt lat="43.52679" lon="5.5471">
        <ele>278.2</ele>
        <time>2023-05-28T12:41:41Z</time>
      </trkpt>
      <trkpt lat="43.52678" lon="5.54709">
        <ele>278.2</ele>
        <time>2023-05-28T12:41:42Z</time>
      </trkpt>
      <trkpt lat="43.52678" lon="5.54708">
        <ele>278.2</ele>
        <time>2023-05-28T12:41:43Z</time>
      </trkpt>
      <trkpt lat="43.52677" lon="5.54706">
        <ele>278.2</ele>
        <time>2023-05-28T12:41:44Z</time>
      </trkpt>
      <trkpt lat="43.52677" lon="5.54705">
        <ele>278.2</ele>
        <time>2023-05-28T12:41:45Z</time>
      </trkpt>
      <trkpt lat="43.52676" lon="5.54704">
        <ele>278.2</ele>
        <time>2023-05-28T12:41:46Z</time>
      </trkpt>
      <trkpt lat="43.52676" lon="5.54704">
        <ele>278.2</ele>
        <time>2023-05-28T12:41:47Z</time>
      </trkpt>
      <trkpt lat="43.52676" lon="5.54703">
        <ele>278.2</ele>
        <time>2023-05-28T12:41:48Z</time>
      </trkpt>
      <trkpt lat="43.52676" lon="5.54702">
        <ele>278.1</ele>
        <time>2023-05-28T12:41:49Z</time>
      </trkpt>
      <trkpt lat="43.52676" lon="5.54702">
        <ele>278.1</ele>
        <time>2023-05-28T12:41:50Z</time>
      </trkpt>
      <trkpt lat="43.52676" lon="5.54701">
        <ele>278.1</ele>
        <time>2023-05-28T12:41:51Z</time>
      </trkpt>
      <trkpt lat="43.52675" lon="5.547">
        <ele>278.1</ele>
        <time>2023-05-28T12:41:52Z</time>
      </trkpt>
      <trkpt lat="43.52675" lon="5.547">
        <ele>278</ele>
        <time>2023-05-28T12:41:53Z</time>
      </trkpt>
      <trkpt lat="43.52675" lon="5.54699">
        <ele>278</ele>
        <time>2023-05-28T12:41:54Z</time>
      </trkpt>
      <trkpt lat="43.52675" lon="5.54699">
        <ele>278</ele>
        <time>2023-05-28T12:41:55Z</time>
      </trkpt>
      <trkpt lat="43.52674" lon="5.54699">
        <ele>278</ele>
        <time>2023-05-28T12:41:56Z</time>
      </trkpt>
      <trkpt lat="43.52674" lon="5.54699">
        <ele>278.1</ele>
        <time>2023-05-28T12:41:57Z</time>
      </trkpt>
      <trkpt lat="43.52674" lon="5.54698">
        <ele>278.2</ele>
        <time>2023-05-28T12:41:58Z</time>
      </trkpt>
      <trkpt lat="43.52674" lon="5.54698">
        <ele>278.2</ele>
        <time>2023-05-28T12:41:59Z</time>
      </trkpt>
      <trkpt lat="43.52674" lon="5.54698">
        <ele>278.2</ele>
        <time>2023-05-28T12:42:00Z</time>
      </trkpt>
      <trkpt lat="43.52673" lon="5.54698">
        <ele>278.2</ele>
        <time>2023-05-28T12:42:01Z</time>
      </trkpt>
      <trkpt lat="43.52673" lon="5.54697">
        <ele>278.2</ele>
        <time>2023-05-28T12:42:02Z</time>
      </trkpt>
      <trkpt lat="43.52672" lon="5.54697">
        <ele>278.2</ele>
        <time>2023-05-28T12:42:03Z</time>
      </trkpt>
      <trkpt lat="43.52671" lon="5.54697">
        <ele>278.2</ele>
        <time>2023-05-28T12:42:04Z</time>
      </trkpt>
      <trkpt lat="43.52671" lon="5.54696">
        <ele>278.1</ele>
        <time>2023-05-28T12:42:05Z</time>
      </trkpt>
      <trkpt lat="43.52671" lon="5.54695">
        <ele>278.1</ele>
        <time>2023-05-28T12:42:06Z</time>
      </trkpt>
      <trkpt lat="43.5267" lon="5.54694">
        <ele>278.1</ele>
        <time>2023-05-28T12:42:07Z</time>
      </trkpt>
      <trkpt lat="43.5267" lon="5.54693">
        <ele>278.1</ele>
        <time>2023-05-28T12:42:08Z</time>
      </trkpt>
      <trkpt lat="43.52669" lon="5.54693">
        <ele>278</ele>
        <time>2023-05-28T12:42:09Z</time>
      </trkpt>
      <trkpt lat="43.52667" lon="5.54693">
        <ele>278.1</ele>
        <time>2023-05-28T12:42:10Z</time>
      </trkpt>
      <trkpt lat="43.52667" lon="5.54693">
        <ele>278.1</ele>
        <time>2023-05-28T12:42:11Z</time>
      </trkpt>
      <trkpt lat="43.52666" lon="5.54692">
        <ele>278.1</ele>
        <time>2023-05-28T12:42:12Z</time>
      </trkpt>
      <trkpt lat="43.52666" lon="5.54692">
        <ele>278.1</ele>
        <time>2023-05-28T12:42:13Z</time>
      </trkpt>
      <trkpt lat="43.52665" lon="5.54691">
        <ele>278.1</ele>
        <time>2023-05-28T12:42:14Z</time>
      </trkpt>
      <trkpt lat="43.52665" lon="5.54691">
        <ele>278.1</ele>
        <time>2023-05-28T12:42:15Z</time>
      </trkpt>
      <trkpt lat="43.52665" lon="5.5469">
        <ele>278.1</ele>
        <time>2023-05-28T12:42:16Z</time>
      </trkpt>
      <trkpt lat="43.52665" lon="5.54689">
        <ele>278.1</ele>
        <time>2023-05-28T12:42:17Z</time>
      </trkpt>
      <trkpt lat="43.52665" lon="5.54689">
        <ele>278.1</ele>
        <time>2023-05-28T12:42:18Z</time>
      </trkpt>
      <trkpt lat="43.52665" lon="5.54689">
        <ele>278.2</ele>
        <time>2023-05-28T12:42:19Z</time>
      </trkpt>
      <trkpt lat="43.52665" lon="5.54689">
        <ele>278.2</ele>
        <time>2023-05-28T12:42:20Z</time>
      </trkpt>
      <trkpt lat="43.52665" lon="5.54688">
        <ele>278.1</ele>
        <time>2023-05-28T12:42:21Z</time>
      </trkpt>
      <trkpt lat="43.52665" lon="5.54688">
        <ele>278.1</ele>
        <time>2023-05-28T12:42:22Z</time>
      </trkpt>
      <trkpt lat="43.52665" lon="5.54688">
        <ele>278.1</ele>
        <time>2023-05-28T12:42:23Z</time>
      </trkpt>
      <trkpt lat="43.52664" lon="5.54688">
        <ele>278.1</ele>
        <time>2023-05-28T12:42:24Z</time>
      </trkpt>
      <trkpt lat="43.52664" lon="5.54688">
        <ele>278</ele>
        <time>2023-05-28T12:42:25Z</time>
      </trkpt>
      <trkpt lat="43.52664" lon="5.54688">
        <ele>278</ele>
        <time>2023-05-28T12:42:26Z</time>
      </trkpt>
      <trkpt lat="43.52664" lon="5.54688">
        <ele>277.9</ele>
        <time>2023-05-28T12:42:27Z</time>
      </trkpt>
      <trkpt lat="43.52663" lon="5.54687">
        <ele>277.8</ele>
        <time>2023-05-28T12:42:28Z</time>
      </trkpt>
      <trkpt lat="43.52663" lon="5.54687">
        <ele>277.8</ele>
        <time>2023-05-28T12:42:29Z</time>
      </trkpt>
      <trkpt lat="43.52662" lon="5.54686">
        <ele>277.8</ele>
        <time>2023-05-28T12:42:30Z</time>
      </trkpt>
      <trkpt lat="43.52662" lon="5.54685">
        <ele>277.8</ele>
        <time>2023-05-28T12:42:31Z</time>
      </trkpt>
      <trkpt lat="43.52662" lon="5.54685">
        <ele>277.7</ele>
        <time>2023-05-28T12:42:32Z</time>
      </trkpt>
      <trkpt lat="43.52661" lon="5.54683">
        <ele>277.7</ele>
        <time>2023-05-28T12:42:33Z</time>
      </trkpt>
      <trkpt lat="43.52661" lon="5.54683">
        <ele>277.7</ele>
        <time>2023-05-28T12:42:34Z</time>
      </trkpt>
      <trkpt lat="43.5266" lon="5.54681">
        <ele>277.7</ele>
        <time>2023-05-28T12:42:35Z</time>
      </trkpt>
      <trkpt lat="43.5266" lon="5.54681">
        <ele>277.7</ele>
        <time>2023-05-28T12:42:36Z</time>
      </trkpt>
      <trkpt lat="43.5266" lon="5.5468">
        <ele>277.7</ele>
        <time>2023-05-28T12:42:37Z</time>
      </trkpt>
      <trkpt lat="43.52659" lon="5.54679">
        <ele>277.7</ele>
        <time>2023-05-28T12:42:38Z</time>
      </trkpt>
      <trkpt lat="43.52659" lon="5.54678">
        <ele>277.6</ele>
        <time>2023-05-28T12:42:39Z</time>
      </trkpt>
      <trkpt lat="43.52659" lon="5.54677">
        <ele>277.5</ele>
        <time>2023-05-28T12:42:40Z</time>
      </trkpt>
      <trkpt lat="43.52658" lon="5.54676">
        <ele>277.5</ele>
        <time>2023-05-28T12:42:41Z</time>
      </trkpt>
      <trkpt lat="43.52657" lon="5.54675">
        <ele>277.4</ele>
        <time>2023-05-28T12:42:42Z</time>
      </trkpt>
      <trkpt lat="43.52656" lon="5.54675">
        <ele>277.4</ele>
        <time>2023-05-28T12:42:43Z</time>
      </trkpt>
      <trkpt lat="43.52656" lon="5.54676">
        <ele>277.3</ele>
        <time>2023-05-28T12:42:44Z</time>
      </trkpt>
      <trkpt lat="43.52656" lon="5.54676">
        <ele>277.4</ele>
        <time>2023-05-28T12:42:45Z</time>
      </trkpt>
      <trkpt lat="43.52656" lon="5.54676">
        <ele>277.4</ele>
        <time>2023-05-28T12:42:46Z</time>
      </trkpt>
      <trkpt lat="43.52656" lon="5.54676">
        <ele>277.4</ele>
        <time>2023-05-28T12:42:47Z</time>
      </trkpt>
      <trkpt lat="43.52656" lon="5.54675">
        <ele>277.4</ele>
        <time>2023-05-28T12:42:48Z</time>
      </trkpt>
      <trkpt lat="43.52656" lon="5.54674">
        <ele>277.4</ele>
        <time>2023-05-28T12:42:49Z</time>
      </trkpt>
      <trkpt lat="43.52655" lon="5.54673">
        <ele>277.4</ele>
        <time>2023-05-28T12:42:50Z</time>
      </trkpt>
      <trkpt lat="43.52655" lon="5.54672">
        <ele>277.4</ele>
        <time>2023-05-28T12:42:51Z</time>
      </trkpt>
      <trkpt lat="43.52655" lon="5.54671">
        <ele>277.4</ele>
        <time>2023-05-28T12:42:52Z</time>
      </trkpt>
      <trkpt lat="43.52655" lon="5.5467">
        <ele>277.4</ele>
        <time>2023-05-28T12:42:53Z</time>
      </trkpt>
      <trkpt lat="43.52655" lon="5.54668">
        <ele>277.4</ele>
        <time>2023-05-28T12:42:54Z</time>
      </trkpt>
      <trkpt lat="43.52655" lon="5.54667">
        <ele>277.3</ele>
        <time>2023-05-28T12:42:55Z</time>
      </trkpt>
      <trkpt lat="43.52654" lon="5.54666">
        <ele>277.2</ele>
        <time>2023-05-28T12:42:56Z</time>
      </trkpt>
      <trkpt lat="43.52653" lon="5.54664">
        <ele>277.1</ele>
        <time>2023-05-28T12:42:57Z</time>
      </trkpt>
      <trkpt lat="43.52652" lon="5.54663">
        <ele>277.2</ele>
        <time>2023-05-28T12:42:58Z</time>
      </trkpt>
      <trkpt lat="43.52652" lon="5.54661">
        <ele>277.3</ele>
        <time>2023-05-28T12:42:59Z</time>
      </trkpt>
      <trkpt lat="43.52652" lon="5.5466">
        <ele>277.3</ele>
        <time>2023-05-28T12:43:00Z</time>
      </trkpt>
      <trkpt lat="43.52651" lon="5.54658">
        <ele>277.4</ele>
        <time>2023-05-28T12:43:01Z</time>
      </trkpt>
      <trkpt lat="43.52651" lon="5.54657">
        <ele>277.3</ele>
        <time>2023-05-28T12:43:02Z</time>
      </trkpt>
      <trkpt lat="43.52651" lon="5.54656">
        <ele>277.2</ele>
        <time>2023-05-28T12:43:03Z</time>
      </trkpt>
      <trkpt lat="43.5265" lon="5.54655">
        <ele>277.2</ele>
        <time>2023-05-28T12:43:04Z</time>
      </trkpt>
      <trkpt lat="43.5265" lon="5.54654">
        <ele>277.1</ele>
        <time>2023-05-28T12:43:05Z</time>
      </trkpt>
      <trkpt lat="43.52649" lon="5.54652">
        <ele>277.1</ele>
        <time>2023-05-28T12:43:06Z</time>
      </trkpt>
      <trkpt lat="43.52648" lon="5.54652">
        <ele>277</ele>
        <time>2023-05-28T12:43:07Z</time>
      </trkpt>
      <trkpt lat="43.52648" lon="5.5465">
        <ele>277</ele>
        <time>2023-05-28T12:43:08Z</time>
      </trkpt>
      <trkpt lat="43.52648" lon="5.54649">
        <ele>277</ele>
        <time>2023-05-28T12:43:09Z</time>
      </trkpt>
      <trkpt lat="43.52647" lon="5.54648">
        <ele>276.9</ele>
        <time>2023-05-28T12:43:10Z</time>
      </trkpt>
      <trkpt lat="43.52646" lon="5.54647">
        <ele>276.9</ele>
        <time>2023-05-28T12:43:11Z</time>
      </trkpt>
      <trkpt lat="43.52644" lon="5.54646">
        <ele>276.9</ele>
        <time>2023-05-28T12:43:12Z</time>
      </trkpt>
      <trkpt lat="43.52643" lon="5.54645">
        <ele>276.9</ele>
        <time>2023-05-28T12:43:13Z</time>
      </trkpt>
      <trkpt lat="43.52643" lon="5.54644">
        <ele>277</ele>
        <time>2023-05-28T12:43:14Z</time>
      </trkpt>
      <trkpt lat="43.52642" lon="5.54643">
        <ele>277</ele>
        <time>2023-05-28T12:43:15Z</time>
      </trkpt>
      <trkpt lat="43.52642" lon="5.54642">
        <ele>277.1</ele>
        <time>2023-05-28T12:43:16Z</time>
      </trkpt>
      <trkpt lat="43.52641" lon="5.54641">
        <ele>277.1</ele>
        <time>2023-05-28T12:43:17Z</time>
      </trkpt>
      <trkpt lat="43.5264" lon="5.5464">
        <ele>277</ele>
        <time>2023-05-28T12:43:18Z</time>
      </trkpt>
      <trkpt lat="43.52639" lon="5.54638">
        <ele>277</ele>
        <time>2023-05-28T12:43:19Z</time>
      </trkpt>
      <trkpt lat="43.52639" lon="5.54637">
        <ele>276.9</ele>
        <time>2023-05-28T12:43:20Z</time>
      </trkpt>
      <trkpt lat="43.52639" lon="5.54636">
        <ele>276.8</ele>
        <time>2023-05-28T12:43:21Z</time>
      </trkpt>
      <trkpt lat="43.52638" lon="5.54635">
        <ele>276.8</ele>
        <time>2023-05-28T12:43:22Z</time>
      </trkpt>
      <trkpt lat="43.52637" lon="5.54634">
        <ele>276.7</ele>
        <time>2023-05-28T12:43:23Z</time>
      </trkpt>
      <trkpt lat="43.52637" lon="5.54632">
        <ele>276.7</ele>
        <time>2023-05-28T12:43:24Z</time>
      </trkpt>
      <trkpt lat="43.52636" lon="5.54631">
        <ele>276.6</ele>
        <time>2023-05-28T12:43:25Z</time>
      </trkpt>
      <trkpt lat="43.52635" lon="5.5463">
        <ele>276.6</ele>
        <time>2023-05-28T12:43:26Z</time>
      </trkpt>
      <trkpt lat="43.52634" lon="5.54628">
        <ele>276.5</ele>
        <time>2023-05-28T12:43:27Z</time>
      </trkpt>
      <trkpt lat="43.52633" lon="5.54627">
        <ele>276.5</ele>
        <time>2023-05-28T12:43:28Z</time>
      </trkpt>
      <trkpt lat="43.52632" lon="5.54626">
        <ele>276.4</ele>
        <time>2023-05-28T12:43:29Z</time>
      </trkpt>
      <trkpt lat="43.52631" lon="5.54625">
        <ele>276.4</ele>
        <time>2023-05-28T12:43:30Z</time>
      </trkpt>
      <trkpt lat="43.52631" lon="5.54624">
        <ele>276.3</ele>
        <time>2023-05-28T12:43:31Z</time>
      </trkpt>
      <trkpt lat="43.5263" lon="5.54622">
        <ele>276.3</ele>
        <time>2023-05-28T12:43:32Z</time>
      </trkpt>
      <trkpt lat="43.5263" lon="5.54621">
        <ele>276.3</ele>
        <time>2023-05-28T12:43:33Z</time>
      </trkpt>
      <trkpt lat="43.52629" lon="5.54619">
        <ele>276.2</ele>
        <time>2023-05-28T12:43:34Z</time>
      </trkpt>
      <trkpt lat="43.52629" lon="5.54618">
        <ele>276.2</ele>
        <time>2023-05-28T12:43:35Z</time>
      </trkpt>
      <trkpt lat="43.52628" lon="5.54617">
        <ele>276.2</ele>
        <time>2023-05-28T12:43:36Z</time>
      </trkpt>
      <trkpt lat="43.52626" lon="5.54615">
        <ele>276.2</ele>
        <time>2023-05-28T12:43:37Z</time>
      </trkpt>
      <trkpt lat="43.52625" lon="5.54614">
        <ele>276.1</ele>
        <time>2023-05-28T12:43:38Z</time>
      </trkpt>
      <trkpt lat="43.52625" lon="5.54612">
        <ele>276.2</ele>
        <time>2023-05-28T12:43:39Z</time>
      </trkpt>
      <trkpt lat="43.52625" lon="5.54611">
        <ele>276.2</ele>
        <time>2023-05-28T12:43:40Z</time>
      </trkpt>
      <trkpt lat="43.52624" lon="5.5461">
        <ele>276.3</ele>
        <time>2023-05-28T12:43:41Z</time>
      </trkpt>
      <trkpt lat="43.52623" lon="5.54608">
        <ele>276.3</ele>
        <time>2023-05-28T12:43:42Z</time>
      </trkpt>
      <trkpt lat="43.52623" lon="5.54607">
        <ele>276.3</ele>
        <time>2023-05-28T12:43:43Z</time>
      </trkpt>
      <trkpt lat="43.52622" lon="5.54606">
        <ele>276.3</ele>
        <time>2023-05-28T12:43:44Z</time>
      </trkpt>
      <trkpt lat="43.52621" lon="5.54605">
        <ele>276.2</ele>
        <time>2023-05-28T12:43:45Z</time>
      </trkpt>
      <trkpt lat="43.52621" lon="5.54603">
        <ele>276.2</ele>
        <time>2023-05-28T12:43:46Z</time>
      </trkpt>
      <trkpt lat="43.5262" lon="5.54602">
        <ele>276.1</ele>
        <time>2023-05-28T12:43:47Z</time>
      </trkpt>
      <trkpt lat="43.5262" lon="5.546">
        <ele>276.1</ele>
        <time>2023-05-28T12:43:48Z</time>
      </trkpt>
      <trkpt lat="43.52619" lon="5.54599">
        <ele>276</ele>
        <time>2023-05-28T12:43:49Z</time>
      </trkpt>
      <trkpt lat="43.52619" lon="5.54597">
        <ele>275.9</ele>
        <time>2023-05-28T12:43:50Z</time>
      </trkpt>
      <trkpt lat="43.52618" lon="5.54595">
        <ele>275.9</ele>
        <time>2023-05-28T12:43:51Z</time>
      </trkpt>
      <trkpt lat="43.52617" lon="5.54594">
        <ele>276</ele>
        <time>2023-05-28T12:43:52Z</time>
      </trkpt>
      <trkpt lat="43.52617" lon="5.54593">
        <ele>275.8</ele>
        <time>2023-05-28T12:43:53Z</time>
      </trkpt>
      <trkpt lat="43.52616" lon="5.54592">
        <ele>275.8</ele>
        <time>2023-05-28T12:43:54Z</time>
      </trkpt>
      <trkpt lat="43.52616" lon="5.54591">
        <ele>275.7</ele>
        <time>2023-05-28T12:43:55Z</time>
      </trkpt>
      <trkpt lat="43.52615" lon="5.5459">
        <ele>275.7</ele>
        <time>2023-05-28T12:43:56Z</time>
      </trkpt>
      <trkpt lat="43.52614" lon="5.54588">
        <ele>275.7</ele>
        <time>2023-05-28T12:43:57Z</time>
      </trkpt>
      <trkpt lat="43.52613" lon="5.54587">
        <ele>275.7</ele>
        <time>2023-05-28T12:43:58Z</time>
      </trkpt>
      <trkpt lat="43.52613" lon="5.54586">
        <ele>275.6</ele>
        <time>2023-05-28T12:43:59Z</time>
      </trkpt>
      <trkpt lat="43.52612" lon="5.54585">
        <ele>275.6</ele>
        <time>2023-05-28T12:44:00Z</time>
      </trkpt>
      <trkpt lat="43.52612" lon="5.54583">
        <ele>275.6</ele>
        <time>2023-05-28T12:44:01Z</time>
      </trkpt>
      <trkpt lat="43.52611" lon="5.54581">
        <ele>275.6</ele>
        <time>2023-05-28T12:44:02Z</time>
      </trkpt>
      <trkpt lat="43.52611" lon="5.54579">
        <ele>275.6</ele>
        <time>2023-05-28T12:44:03Z</time>
      </trkpt>
      <trkpt lat="43.52611" lon="5.54578">
        <ele>275.6</ele>
        <time>2023-05-28T12:44:04Z</time>
      </trkpt>
      <trkpt lat="43.5261" lon="5.54577">
        <ele>275.6</ele>
        <time>2023-05-28T12:44:05Z</time>
      </trkpt>
      <trkpt lat="43.52609" lon="5.54576">
        <ele>275.6</ele>
        <time>2023-05-28T12:44:06Z</time>
      </trkpt>
      <trkpt lat="43.52609" lon="5.54575">
        <ele>275.6</ele>
        <time>2023-05-28T12:44:07Z</time>
      </trkpt>
      <trkpt lat="43.52608" lon="5.54574">
        <ele>275.6</ele>
        <time>2023-05-28T12:44:08Z</time>
      </trkpt>
      <trkpt lat="43.52608" lon="5.54573">
        <ele>275.6</ele>
        <time>2023-05-28T12:44:09Z</time>
      </trkpt>
      <trkpt lat="43.52607" lon="5.54572">
        <ele>275.7</ele>
        <time>2023-05-28T12:44:10Z</time>
      </trkpt>
      <trkpt lat="43.52606" lon="5.54571">
        <ele>275.6</ele>
        <time>2023-05-28T12:44:11Z</time>
      </trkpt>
      <trkpt lat="43.52605" lon="5.54569">
        <ele>275.6</ele>
        <time>2023-05-28T12:44:12Z</time>
      </trkpt>
      <trkpt lat="43.52605" lon="5.54567">
        <ele>275.6</ele>
        <time>2023-05-28T12:44:13Z</time>
      </trkpt>
      <trkpt lat="43.52604" lon="5.54565">
        <ele>275.6</ele>
        <time>2023-05-28T12:44:14Z</time>
      </trkpt>
      <trkpt lat="43.52603" lon="5.54563">
        <ele>275.6</ele>
        <time>2023-05-28T12:44:15Z</time>
      </trkpt>
      <trkpt lat="43.52603" lon="5.54561">
        <ele>275.6</ele>
        <time>2023-05-28T12:44:16Z</time>
      </trkpt>
      <trkpt lat="43.52603" lon="5.5456">
        <ele>275.6</ele>
        <time>2023-05-28T12:44:17Z</time>
      </trkpt>
      <trkpt lat="43.52602" lon="5.54559">
        <ele>275.6</ele>
        <time>2023-05-28T12:44:18Z</time>
      </trkpt>
      <trkpt lat="43.52602" lon="5.54558">
        <ele>275.6</ele>
        <time>2023-05-28T12:44:19Z</time>
      </trkpt>
      <trkpt lat="43.526" lon="5.54557">
        <ele>275.6</ele>
        <time>2023-05-28T12:44:20Z</time>
      </trkpt>
      <trkpt lat="43.52599" lon="5.54556">
        <ele>275.7</ele>
        <time>2023-05-28T12:44:21Z</time>
      </trkpt>
      <trkpt lat="43.52599" lon="5.54554">
        <ele>275.7</ele>
        <time>2023-05-28T12:44:22Z</time>
      </trkpt>
      <trkpt lat="43.52598" lon="5.54553">
        <ele>275.7</ele>
        <time>2023-05-28T12:44:23Z</time>
      </trkpt>
      <trkpt lat="43.52598" lon="5.54551">
        <ele>275.8</ele>
        <time>2023-05-28T12:44:24Z</time>
      </trkpt>
      <trkpt lat="43.52597" lon="5.54549">
        <ele>275.8</ele>
        <time>2023-05-28T12:44:25Z</time>
      </trkpt>
      <trkpt lat="43.52597" lon="5.54547">
        <ele>275.7</ele>
        <time>2023-05-28T12:44:26Z</time>
      </trkpt>
      <trkpt lat="43.52596" lon="5.54546">
        <ele>275.6</ele>
        <time>2023-05-28T12:44:27Z</time>
      </trkpt>
      <trkpt lat="43.52596" lon="5.54545">
        <ele>275.6</ele>
        <time>2023-05-28T12:44:28Z</time>
      </trkpt>
      <trkpt lat="43.52595" lon="5.54544">
        <ele>275.6</ele>
        <time>2023-05-28T12:44:29Z</time>
      </trkpt>
      <trkpt lat="43.52595" lon="5.54542">
        <ele>275.6</ele>
        <time>2023-05-28T12:44:30Z</time>
      </trkpt>
      <trkpt lat="43.52594" lon="5.54541">
        <ele>275.6</ele>
        <time>2023-05-28T12:44:31Z</time>
      </trkpt>
      <trkpt lat="43.52593" lon="5.5454">
        <ele>275.6</ele>
        <time>2023-05-28T12:44:32Z</time>
      </trkpt>
      <trkpt lat="43.52592" lon="5.54539">
        <ele>275.7</ele>
        <time>2023-05-28T12:44:33Z</time>
      </trkpt>
      <trkpt lat="43.52591" lon="5.54538">
        <ele>275.7</ele>
        <time>2023-05-28T12:44:34Z</time>
      </trkpt>
      <trkpt lat="43.5259" lon="5.54536">
        <ele>275.7</ele>
        <time>2023-05-28T12:44:35Z</time>
      </trkpt>
      <trkpt lat="43.5259" lon="5.54534">
        <ele>275.8</ele>
        <time>2023-05-28T12:44:36Z</time>
      </trkpt>
      <trkpt lat="43.52589" lon="5.54533">
        <ele>275.9</ele>
        <time>2023-05-28T12:44:37Z</time>
      </trkpt>
      <trkpt lat="43.52588" lon="5.54532">
        <ele>276</ele>
        <time>2023-05-28T12:44:38Z</time>
      </trkpt>
      <trkpt lat="43.52587" lon="5.54531">
        <ele>276.1</ele>
        <time>2023-05-28T12:44:39Z</time>
      </trkpt>
      <trkpt lat="43.52587" lon="5.5453">
        <ele>276.1</ele>
        <time>2023-05-28T12:44:40Z</time>
      </trkpt>
      <trkpt lat="43.52586" lon="5.54529">
        <ele>276.1</ele>
        <time>2023-05-28T12:44:41Z</time>
      </trkpt>
      <trkpt lat="43.52585" lon="5.54527">
        <ele>276.1</ele>
        <time>2023-05-28T12:44:42Z</time>
      </trkpt>
      <trkpt lat="43.52585" lon="5.54526">
        <ele>276.1</ele>
        <time>2023-05-28T12:44:43Z</time>
      </trkpt>
      <trkpt lat="43.52585" lon="5.54524">
        <ele>276.1</ele>
        <time>2023-05-28T12:44:44Z</time>
      </trkpt>
      <trkpt lat="43.52585" lon="5.54523">
        <ele>276.2</ele>
        <time>2023-05-28T12:44:45Z</time>
      </trkpt>
      <trkpt lat="43.52585" lon="5.54521">
        <ele>276.2</ele>
        <time>2023-05-28T12:44:46Z</time>
      </trkpt>
      <trkpt lat="43.52584" lon="5.54521">
        <ele>276.2</ele>
        <time>2023-05-28T12:44:47Z</time>
      </trkpt>
      <trkpt lat="43.52583" lon="5.5452">
        <ele>276.1</ele>
        <time>2023-05-28T12:44:48Z</time>
      </trkpt>
      <trkpt lat="43.52582" lon="5.54518">
        <ele>276.1</ele>
        <time>2023-05-28T12:44:49Z</time>
      </trkpt>
      <trkpt lat="43.52582" lon="5.54517">
        <ele>276.1</ele>
        <time>2023-05-28T12:44:50Z</time>
      </trkpt>
      <trkpt lat="43.52581" lon="5.54516">
        <ele>276.1</ele>
        <time>2023-05-28T12:44:51Z</time>
      </trkpt>
      <trkpt lat="43.5258" lon="5.54515">
        <ele>276.2</ele>
        <time>2023-05-28T12:44:52Z</time>
      </trkpt>
      <trkpt lat="43.5258" lon="5.54513">
        <ele>276.3</ele>
        <time>2023-05-28T12:44:53Z</time>
      </trkpt>
      <trkpt lat="43.52579" lon="5.54512">
        <ele>276.4</ele>
        <time>2023-05-28T12:44:54Z</time>
      </trkpt>
      <trkpt lat="43.52578" lon="5.5451">
        <ele>276.5</ele>
        <time>2023-05-28T12:44:55Z</time>
      </trkpt>
      <trkpt lat="43.52577" lon="5.54509">
        <ele>276.5</ele>
        <time>2023-05-28T12:44:56Z</time>
      </trkpt>
      <trkpt lat="43.52577" lon="5.54508">
        <ele>276.5</ele>
        <time>2023-05-28T12:44:57Z</time>
      </trkpt>
      <trkpt lat="43.52577" lon="5.54506">
        <ele>276.5</ele>
        <time>2023-05-28T12:44:58Z</time>
      </trkpt>
      <trkpt lat="43.52578" lon="5.54504">
        <ele>276.5</ele>
        <time>2023-05-28T12:44:59Z</time>
      </trkpt>
      <trkpt lat="43.52578" lon="5.54502">
        <ele>276.6</ele>
        <time>2023-05-28T12:45:00Z</time>
      </trkpt>
      <trkpt lat="43.52577" lon="5.54501">
        <ele>276.6</ele>
        <time>2023-05-28T12:45:01Z</time>
      </trkpt>
      <trkpt lat="43.52576" lon="5.54499">
        <ele>276.7</ele>
        <time>2023-05-28T12:45:02Z</time>
      </trkpt>
      <trkpt lat="43.52575" lon="5.54498">
        <ele>276.7</ele>
        <time>2023-05-28T12:45:03Z</time>
      </trkpt>
      <trkpt lat="43.52573" lon="5.54497">
        <ele>276.8</ele>
        <time>2023-05-28T12:45:04Z</time>
      </trkpt>
      <trkpt lat="43.52573" lon="5.54495">
        <ele>276.8</ele>
        <time>2023-05-28T12:45:05Z</time>
      </trkpt>
      <trkpt lat="43.52573" lon="5.54493">
        <ele>276.8</ele>
        <time>2023-05-28T12:45:06Z</time>
      </trkpt>
      <trkpt lat="43.52573" lon="5.54491">
        <ele>276.9</ele>
        <time>2023-05-28T12:45:07Z</time>
      </trkpt>
      <trkpt lat="43.52573" lon="5.5449">
        <ele>277</ele>
        <time>2023-05-28T12:45:08Z</time>
      </trkpt>
      <trkpt lat="43.52573" lon="5.54488">
        <ele>277.2</ele>
        <time>2023-05-28T12:45:09Z</time>
      </trkpt>
      <trkpt lat="43.52572" lon="5.54487">
        <ele>277.3</ele>
        <time>2023-05-28T12:45:10Z</time>
      </trkpt>
      <trkpt lat="43.52572" lon="5.54485">
        <ele>277.4</ele>
        <time>2023-05-28T12:45:11Z</time>
      </trkpt>
      <trkpt lat="43.52572" lon="5.54483">
        <ele>277.5</ele>
        <time>2023-05-28T12:45:12Z</time>
      </trkpt>
      <trkpt lat="43.52571" lon="5.54482">
        <ele>277.6</ele>
        <time>2023-05-28T12:45:13Z</time>
      </trkpt>
      <trkpt lat="43.52571" lon="5.5448">
        <ele>277.7</ele>
        <time>2023-05-28T12:45:14Z</time>
      </trkpt>
      <trkpt lat="43.5257" lon="5.54479">
        <ele>277.7</ele>
        <time>2023-05-28T12:45:15Z</time>
      </trkpt>
      <trkpt lat="43.5257" lon="5.54477">
        <ele>277.8</ele>
        <time>2023-05-28T12:45:16Z</time>
      </trkpt>
      <trkpt lat="43.5257" lon="5.54475">
        <ele>277.8</ele>
        <time>2023-05-28T12:45:17Z</time>
      </trkpt>
      <trkpt lat="43.5257" lon="5.54473">
        <ele>277.8</ele>
        <time>2023-05-28T12:45:18Z</time>
      </trkpt>
      <trkpt lat="43.52569" lon="5.54471">
        <ele>277.9</ele>
        <time>2023-05-28T12:45:19Z</time>
      </trkpt>
      <trkpt lat="43.52569" lon="5.54469">
        <ele>277.9</ele>
        <time>2023-05-28T12:45:20Z</time>
      </trkpt>
      <trkpt lat="43.52568" lon="5.54468">
        <ele>278.1</ele>
        <time>2023-05-28T12:45:21Z</time>
      </trkpt>
      <trkpt lat="43.52567" lon="5.54466">
        <ele>278.1</ele>
        <time>2023-05-28T12:45:22Z</time>
      </trkpt>
      <trkpt lat="43.52567" lon="5.54465">
        <ele>278.2</ele>
        <time>2023-05-28T12:45:23Z</time>
      </trkpt>
      <trkpt lat="43.52566" lon="5.54463">
        <ele>278.4</ele>
        <time>2023-05-28T12:45:24Z</time>
      </trkpt>
      <trkpt lat="43.52566" lon="5.54462">
        <ele>278.5</ele>
        <time>2023-05-28T12:45:25Z</time>
      </trkpt>
      <trkpt lat="43.52566" lon="5.5446">
        <ele>278.6</ele>
        <time>2023-05-28T12:45:26Z</time>
      </trkpt>
      <trkpt lat="43.52566" lon="5.54458">
        <ele>278.7</ele>
        <time>2023-05-28T12:45:27Z</time>
      </trkpt>
      <trkpt lat="43.52566" lon="5.54456">
        <ele>278.7</ele>
        <time>2023-05-28T12:45:28Z</time>
      </trkpt>
      <trkpt lat="43.52566" lon="5.54454">
        <ele>278.8</ele>
        <time>2023-05-28T12:45:29Z</time>
      </trkpt>
      <trkpt lat="43.52566" lon="5.54452">
        <ele>278.9</ele>
        <time>2023-05-28T12:45:30Z</time>
      </trkpt>
      <trkpt lat="43.52566" lon="5.5445">
        <ele>279</ele>
        <time>2023-05-28T12:45:31Z</time>
      </trkpt>
      <trkpt lat="43.52566" lon="5.54449">
        <ele>279.1</ele>
        <time>2023-05-28T12:45:32Z</time>
      </trkpt>
      <trkpt lat="43.52565" lon="5.54448">
        <ele>279.3</ele>
        <time>2023-05-28T12:45:33Z</time>
      </trkpt>
      <trkpt lat="43.52565" lon="5.54447">
        <ele>279.5</ele>
        <time>2023-05-28T12:45:34Z</time>
      </trkpt>
      <trkpt lat="43.52565" lon="5.54445">
        <ele>279.6</ele>
        <time>2023-05-28T12:45:35Z</time>
      </trkpt>
      <trkpt lat="43.52564" lon="5.54444">
        <ele>279.8</ele>
        <time>2023-05-28T12:45:36Z</time>
      </trkpt>
      <trkpt lat="43.52563" lon="5.54443">
        <ele>280</ele>
        <time>2023-05-28T12:45:37Z</time>
      </trkpt>
      <trkpt lat="43.52562" lon="5.54442">
        <ele>280.2</ele>
        <time>2023-05-28T12:45:38Z</time>
      </trkpt>
      <trkpt lat="43.52562" lon="5.5444">
        <ele>280.4</ele>
        <time>2023-05-28T12:45:39Z</time>
      </trkpt>
      <trkpt lat="43.52562" lon="5.54438">
        <ele>280.6</ele>
        <time>2023-05-28T12:45:40Z</time>
      </trkpt>
      <trkpt lat="43.52562" lon="5.54437">
        <ele>280.8</ele>
        <time>2023-05-28T12:45:41Z</time>
      </trkpt>
      <trkpt lat="43.52561" lon="5.54436">
        <ele>280.9</ele>
        <time>2023-05-28T12:45:42Z</time>
      </trkpt>
      <trkpt lat="43.52561" lon="5.54434">
        <ele>280.9</ele>
        <time>2023-05-28T12:45:43Z</time>
      </trkpt>
      <trkpt lat="43.52561" lon="5.54432">
        <ele>281</ele>
        <time>2023-05-28T12:45:44Z</time>
      </trkpt>
      <trkpt lat="43.52561" lon="5.54431">
        <ele>281</ele>
        <time>2023-05-28T12:45:45Z</time>
      </trkpt>
      <trkpt lat="43.52561" lon="5.54429">
        <ele>281.1</ele>
        <time>2023-05-28T12:45:46Z</time>
      </trkpt>
      <trkpt lat="43.52561" lon="5.54427">
        <ele>281.3</ele>
        <time>2023-05-28T12:45:47Z</time>
      </trkpt>
      <trkpt lat="43.52561" lon="5.54425">
        <ele>281.4</ele>
        <time>2023-05-28T12:45:48Z</time>
      </trkpt>
      <trkpt lat="43.5256" lon="5.54424">
        <ele>281.4</ele>
        <time>2023-05-28T12:45:49Z</time>
      </trkpt>
      <trkpt lat="43.5256" lon="5.54422">
        <ele>281.6</ele>
        <time>2023-05-28T12:45:50Z</time>
      </trkpt>
      <trkpt lat="43.5256" lon="5.54421">
        <ele>281.7</ele>
        <time>2023-05-28T12:45:51Z</time>
      </trkpt>
      <trkpt lat="43.52559" lon="5.5442">
        <ele>281.7</ele>
        <time>2023-05-28T12:45:52Z</time>
      </trkpt>
      <trkpt lat="43.52559" lon="5.54418">
        <ele>281.8</ele>
        <time>2023-05-28T12:45:53Z</time>
      </trkpt>
      <trkpt lat="43.52559" lon="5.54416">
        <ele>282</ele>
        <time>2023-05-28T12:45:54Z</time>
      </trkpt>
      <trkpt lat="43.52559" lon="5.54415">
        <ele>282.1</ele>
        <time>2023-05-28T12:45:55Z</time>
      </trkpt>
      <trkpt lat="43.52559" lon="5.54414">
        <ele>282.2</ele>
        <time>2023-05-28T12:45:56Z</time>
      </trkpt>
      <trkpt lat="43.52558" lon="5.54412">
        <ele>282.4</ele>
        <time>2023-05-28T12:45:57Z</time>
      </trkpt>
      <trkpt lat="43.52557" lon="5.5441">
        <ele>282.5</ele>
        <time>2023-05-28T12:45:58Z</time>
      </trkpt>
      <trkpt lat="43.52557" lon="5.54409">
        <ele>282.6</ele>
        <time>2023-05-28T12:45:59Z</time>
      </trkpt>
      <trkpt lat="43.52556" lon="5.54407">
        <ele>282.8</ele>
        <time>2023-05-28T12:46:00Z</time>
      </trkpt>
      <trkpt lat="43.52555" lon="5.54406">
        <ele>282.9</ele>
        <time>2023-05-28T12:46:01Z</time>
      </trkpt>
      <trkpt lat="43.52556" lon="5.54404">
        <ele>283.1</ele>
        <time>2023-05-28T12:46:02Z</time>
      </trkpt>
      <trkpt lat="43.52555" lon="5.54403">
        <ele>283.2</ele>
        <time>2023-05-28T12:46:03Z</time>
      </trkpt>
      <trkpt lat="43.52555" lon="5.54401">
        <ele>283.3</ele>
        <time>2023-05-28T12:46:04Z</time>
      </trkpt>
      <trkpt lat="43.52554" lon="5.544">
        <ele>283.5</ele>
        <time>2023-05-28T12:46:05Z</time>
      </trkpt>
      <trkpt lat="43.52553" lon="5.54399">
        <ele>283.6</ele>
        <time>2023-05-28T12:46:06Z</time>
      </trkpt>
      <trkpt lat="43.52553" lon="5.54397">
        <ele>283.7</ele>
        <time>2023-05-28T12:46:07Z</time>
      </trkpt>
      <trkpt lat="43.52553" lon="5.54396">
        <ele>283.8</ele>
        <time>2023-05-28T12:46:08Z</time>
      </trkpt>
      <trkpt lat="43.52553" lon="5.54395">
        <ele>283.9</ele>
        <time>2023-05-28T12:46:09Z</time>
      </trkpt>
      <trkpt lat="43.52553" lon="5.54393">
        <ele>284</ele>
        <time>2023-05-28T12:46:10Z</time>
      </trkpt>
      <trkpt lat="43.52552" lon="5.54391">
        <ele>284.1</ele>
        <time>2023-05-28T12:46:11Z</time>
      </trkpt>
      <trkpt lat="43.52552" lon="5.5439">
        <ele>284.2</ele>
        <time>2023-05-28T12:46:12Z</time>
      </trkpt>
      <trkpt lat="43.52552" lon="5.54388">
        <ele>284.3</ele>
        <time>2023-05-28T12:46:13Z</time>
      </trkpt>
      <trkpt lat="43.52552" lon="5.54387">
        <ele>284.4</ele>
        <time>2023-05-28T12:46:14Z</time>
      </trkpt>
      <trkpt lat="43.5255" lon="5.54386">
        <ele>284.5</ele>
        <time>2023-05-28T12:46:15Z</time>
      </trkpt>
      <trkpt lat="43.5255" lon="5.54384">
        <ele>284.6</ele>
        <time>2023-05-28T12:46:16Z</time>
      </trkpt>
      <trkpt lat="43.5255" lon="5.54382">
        <ele>284.7</ele>
        <time>2023-05-28T12:46:17Z</time>
      </trkpt>
      <trkpt lat="43.5255" lon="5.54381">
        <ele>285</ele>
        <time>2023-05-28T12:46:18Z</time>
      </trkpt>
      <trkpt lat="43.5255" lon="5.54379">
        <ele>285.1</ele>
        <time>2023-05-28T12:46:19Z</time>
      </trkpt>
      <trkpt lat="43.52549" lon="5.54377">
        <ele>285.3</ele>
        <time>2023-05-28T12:46:20Z</time>
      </trkpt>
      <trkpt lat="43.52549" lon="5.54376">
        <ele>285.4</ele>
        <time>2023-05-28T12:46:21Z</time>
      </trkpt>
      <trkpt lat="43.52549" lon="5.54374">
        <ele>285.5</ele>
        <time>2023-05-28T12:46:22Z</time>
      </trkpt>
      <trkpt lat="43.52548" lon="5.54373">
        <ele>285.6</ele>
        <time>2023-05-28T12:46:23Z</time>
      </trkpt>
      <trkpt lat="43.52549" lon="5.54372">
        <ele>285.9</ele>
        <time>2023-05-28T12:46:24Z</time>
      </trkpt>
      <trkpt lat="43.52548" lon="5.54371">
        <ele>286</ele>
        <time>2023-05-28T12:46:25Z</time>
      </trkpt>
      <trkpt lat="43.52548" lon="5.54369">
        <ele>286.2</ele>
        <time>2023-05-28T12:46:26Z</time>
      </trkpt>
      <trkpt lat="43.52548" lon="5.54368">
        <ele>286.4</ele>
        <time>2023-05-28T12:46:27Z</time>
      </trkpt>
      <trkpt lat="43.52548" lon="5.54366">
        <ele>286.4</ele>
        <time>2023-05-28T12:46:28Z</time>
      </trkpt>
      <trkpt lat="43.52548" lon="5.54364">
        <ele>286.4</ele>
        <time>2023-05-28T12:46:29Z</time>
      </trkpt>
      <trkpt lat="43.52548" lon="5.54363">
        <ele>286.5</ele>
        <time>2023-05-28T12:46:30Z</time>
      </trkpt>
      <trkpt lat="43.52547" lon="5.54361">
        <ele>286.6</ele>
        <time>2023-05-28T12:46:31Z</time>
      </trkpt>
      <trkpt lat="43.52547" lon="5.5436">
        <ele>286.7</ele>
        <time>2023-05-28T12:46:32Z</time>
      </trkpt>
      <trkpt lat="43.52546" lon="5.54358">
        <ele>286.8</ele>
        <time>2023-05-28T12:46:33Z</time>
      </trkpt>
      <trkpt lat="43.52546" lon="5.54356">
        <ele>286.9</ele>
        <time>2023-05-28T12:46:34Z</time>
      </trkpt>
      <trkpt lat="43.52546" lon="5.54355">
        <ele>287.1</ele>
        <time>2023-05-28T12:46:35Z</time>
      </trkpt>
      <trkpt lat="43.52546" lon="5.54354">
        <ele>287.2</ele>
        <time>2023-05-28T12:46:36Z</time>
      </trkpt>
      <trkpt lat="43.52546" lon="5.54352">
        <ele>287.3</ele>
        <time>2023-05-28T12:46:37Z</time>
      </trkpt>
      <trkpt lat="43.52546" lon="5.54351">
        <ele>287.4</ele>
        <time>2023-05-28T12:46:38Z</time>
      </trkpt>
      <trkpt lat="43.52546" lon="5.54349">
        <ele>287.5</ele>
        <time>2023-05-28T12:46:39Z</time>
      </trkpt>
      <trkpt lat="43.52546" lon="5.54348">
        <ele>287.7</ele>
        <time>2023-05-28T12:46:40Z</time>
      </trkpt>
      <trkpt lat="43.52546" lon="5.54346">
        <ele>287.9</ele>
        <time>2023-05-28T12:46:41Z</time>
      </trkpt>
      <trkpt lat="43.52545" lon="5.54345">
        <ele>288</ele>
        <time>2023-05-28T12:46:42Z</time>
      </trkpt>
      <trkpt lat="43.52546" lon="5.54343">
        <ele>288.2</ele>
        <time>2023-05-28T12:46:43Z</time>
      </trkpt>
      <trkpt lat="43.52546" lon="5.54341">
        <ele>288.4</ele>
        <time>2023-05-28T12:46:44Z</time>
      </trkpt>
      <trkpt lat="43.52546" lon="5.5434">
        <ele>288.5</ele>
        <time>2023-05-28T12:46:45Z</time>
      </trkpt>
      <trkpt lat="43.52545" lon="5.54338">
        <ele>288.6</ele>
        <time>2023-05-28T12:46:46Z</time>
      </trkpt>
      <trkpt lat="43.52546" lon="5.54337">
        <ele>288.7</ele>
        <time>2023-05-28T12:46:47Z</time>
      </trkpt>
      <trkpt lat="43.52545" lon="5.54335">
        <ele>288.8</ele>
        <time>2023-05-28T12:46:48Z</time>
      </trkpt>
      <trkpt lat="43.52545" lon="5.54334">
        <ele>288.9</ele>
        <time>2023-05-28T12:46:49Z</time>
      </trkpt>
      <trkpt lat="43.52545" lon="5.54332">
        <ele>289</ele>
        <time>2023-05-28T12:46:50Z</time>
      </trkpt>
      <trkpt lat="43.52546" lon="5.54331">
        <ele>289.1</ele>
        <time>2023-05-28T12:46:51Z</time>
      </trkpt>
      <trkpt lat="43.52546" lon="5.54329">
        <ele>289.2</ele>
        <time>2023-05-28T12:46:52Z</time>
      </trkpt>
      <trkpt lat="43.52546" lon="5.54327">
        <ele>289.5</ele>
        <time>2023-05-28T12:46:53Z</time>
      </trkpt>
      <trkpt lat="43.52546" lon="5.54326">
        <ele>289.6</ele>
        <time>2023-05-28T12:46:54Z</time>
      </trkpt>
      <trkpt lat="43.52546" lon="5.54324">
        <ele>289.7</ele>
        <time>2023-05-28T12:46:55Z</time>
      </trkpt>
      <trkpt lat="43.52546" lon="5.54323">
        <ele>289.7</ele>
        <time>2023-05-28T12:46:56Z</time>
      </trkpt>
      <trkpt lat="43.52546" lon="5.54322">
        <ele>289.8</ele>
        <time>2023-05-28T12:46:57Z</time>
      </trkpt>
      <trkpt lat="43.52546" lon="5.54321">
        <ele>289.8</ele>
        <time>2023-05-28T12:46:58Z</time>
      </trkpt>
      <trkpt lat="43.52546" lon="5.5432">
        <ele>289.9</ele>
        <time>2023-05-28T12:46:59Z</time>
      </trkpt>
      <trkpt lat="43.52546" lon="5.54318">
        <ele>289.9</ele>
        <time>2023-05-28T12:47:00Z</time>
      </trkpt>
      <trkpt lat="43.52547" lon="5.54317">
        <ele>290</ele>
        <time>2023-05-28T12:47:01Z</time>
      </trkpt>
      <trkpt lat="43.52547" lon="5.54315">
        <ele>290.1</ele>
        <time>2023-05-28T12:47:02Z</time>
      </trkpt>
      <trkpt lat="43.52547" lon="5.54314">
        <ele>290.3</ele>
        <time>2023-05-28T12:47:03Z</time>
      </trkpt>
      <trkpt lat="43.52547" lon="5.54312">
        <ele>290.5</ele>
        <time>2023-05-28T12:47:04Z</time>
      </trkpt>
      <trkpt lat="43.52547" lon="5.54311">
        <ele>290.6</ele>
        <time>2023-05-28T12:47:05Z</time>
      </trkpt>
      <trkpt lat="43.52547" lon="5.5431">
        <ele>290.7</ele>
        <time>2023-05-28T12:47:06Z</time>
      </trkpt>
      <trkpt lat="43.52547" lon="5.54309">
        <ele>290.8</ele>
        <time>2023-05-28T12:47:07Z</time>
      </trkpt>
      <trkpt lat="43.52547" lon="5.54308">
        <ele>290.9</ele>
        <time>2023-05-28T12:47:08Z</time>
      </trkpt>
      <trkpt lat="43.52547" lon="5.54307">
        <ele>290.9</ele>
        <time>2023-05-28T12:47:09Z</time>
      </trkpt>
      <trkpt lat="43.52547" lon="5.54306">
        <ele>291.1</ele>
        <time>2023-05-28T12:47:10Z</time>
      </trkpt>
      <trkpt lat="43.52547" lon="5.54305">
        <ele>291.1</ele>
        <time>2023-05-28T12:47:11Z</time>
      </trkpt>
      <trkpt lat="43.52547" lon="5.54303">
        <ele>291.2</ele>
        <time>2023-05-28T12:47:12Z</time>
      </trkpt>
      <trkpt lat="43.52547" lon="5.54302">
        <ele>291.3</ele>
        <time>2023-05-28T12:47:13Z</time>
      </trkpt>
      <trkpt lat="43.52547" lon="5.54301">
        <ele>291.5</ele>
        <time>2023-05-28T12:47:14Z</time>
      </trkpt>
      <trkpt lat="43.52548" lon="5.543">
        <ele>291.7</ele>
        <time>2023-05-28T12:47:15Z</time>
      </trkpt>
      <trkpt lat="43.52549" lon="5.54299">
        <ele>291.8</ele>
        <time>2023-05-28T12:47:16Z</time>
      </trkpt>
      <trkpt lat="43.52549" lon="5.54298">
        <ele>291.8</ele>
        <time>2023-05-28T12:47:17Z</time>
      </trkpt>
      <trkpt lat="43.5255" lon="5.54296">
        <ele>291.9</ele>
        <time>2023-05-28T12:47:18Z</time>
      </trkpt>
      <trkpt lat="43.52551" lon="5.54294">
        <ele>291.9</ele>
        <time>2023-05-28T12:47:19Z</time>
      </trkpt>
      <trkpt lat="43.52551" lon="5.54292">
        <ele>291.9</ele>
        <time>2023-05-28T12:47:20Z</time>
      </trkpt>
      <trkpt lat="43.52551" lon="5.54291">
        <ele>292</ele>
        <time>2023-05-28T12:47:21Z</time>
      </trkpt>
      <trkpt lat="43.52551" lon="5.54289">
        <ele>292.1</ele>
        <time>2023-05-28T12:47:22Z</time>
      </trkpt>
      <trkpt lat="43.52551" lon="5.54289">
        <ele>292.3</ele>
        <time>2023-05-28T12:47:23Z</time>
      </trkpt>
      <trkpt lat="43.52551" lon="5.54288">
        <ele>292.4</ele>
        <time>2023-05-28T12:47:24Z</time>
      </trkpt>
      <trkpt lat="43.52551" lon="5.54286">
        <ele>292.5</ele>
        <time>2023-05-28T12:47:25Z</time>
      </trkpt>
      <trkpt lat="43.52552" lon="5.54284">
        <ele>292.6</ele>
        <time>2023-05-28T12:47:26Z</time>
      </trkpt>
      <trkpt lat="43.52553" lon="5.54282">
        <ele>292.7</ele>
        <time>2023-05-28T12:47:27Z</time>
      </trkpt>
      <trkpt lat="43.52554" lon="5.5428">
        <ele>292.8</ele>
        <time>2023-05-28T12:47:28Z</time>
      </trkpt>
      <trkpt lat="43.52554" lon="5.54279">
        <ele>293</ele>
        <time>2023-05-28T12:47:29Z</time>
      </trkpt>
      <trkpt lat="43.52554" lon="5.54278">
        <ele>293.1</ele>
        <time>2023-05-28T12:47:30Z</time>
      </trkpt>
      <trkpt lat="43.52555" lon="5.54276">
        <ele>293.3</ele>
        <time>2023-05-28T12:47:31Z</time>
      </trkpt>
      <trkpt lat="43.52555" lon="5.54275">
        <ele>293.4</ele>
        <time>2023-05-28T12:47:32Z</time>
      </trkpt>
      <trkpt lat="43.52555" lon="5.54274">
        <ele>293.5</ele>
        <time>2023-05-28T12:47:33Z</time>
      </trkpt>
      <trkpt lat="43.52556" lon="5.54273">
        <ele>293.7</ele>
        <time>2023-05-28T12:47:34Z</time>
      </trkpt>
      <trkpt lat="43.52555" lon="5.54273">
        <ele>293.8</ele>
        <time>2023-05-28T12:47:35Z</time>
      </trkpt>
      <trkpt lat="43.52557" lon="5.54272">
        <ele>294</ele>
        <time>2023-05-28T12:47:36Z</time>
      </trkpt>
      <trkpt lat="43.52557" lon="5.54271">
        <ele>294.1</ele>
        <time>2023-05-28T12:47:37Z</time>
      </trkpt>
      <trkpt lat="43.52558" lon="5.5427">
        <ele>294.2</ele>
        <time>2023-05-28T12:47:38Z</time>
      </trkpt>
      <trkpt lat="43.52558" lon="5.54269">
        <ele>294.3</ele>
        <time>2023-05-28T12:47:39Z</time>
      </trkpt>
      <trkpt lat="43.52558" lon="5.54268">
        <ele>294.4</ele>
        <time>2023-05-28T12:47:40Z</time>
      </trkpt>
      <trkpt lat="43.52558" lon="5.54267">
        <ele>294.6</ele>
        <time>2023-05-28T12:47:41Z</time>
      </trkpt>
      <trkpt lat="43.52559" lon="5.54265">
        <ele>294.7</ele>
        <time>2023-05-28T12:47:42Z</time>
      </trkpt>
      <trkpt lat="43.52559" lon="5.54263">
        <ele>294.8</ele>
        <time>2023-05-28T12:47:43Z</time>
      </trkpt>
      <trkpt lat="43.5256" lon="5.54261">
        <ele>295</ele>
        <time>2023-05-28T12:47:44Z</time>
      </trkpt>
      <trkpt lat="43.5256" lon="5.5426">
        <ele>295.1</ele>
        <time>2023-05-28T12:47:45Z</time>
      </trkpt>
      <trkpt lat="43.5256" lon="5.54258">
        <ele>295.2</ele>
        <time>2023-05-28T12:47:46Z</time>
      </trkpt>
      <trkpt lat="43.5256" lon="5.54257">
        <ele>295.3</ele>
        <time>2023-05-28T12:47:47Z</time>
      </trkpt>
      <trkpt lat="43.52561" lon="5.54255">
        <ele>295.4</ele>
        <time>2023-05-28T12:47:48Z</time>
      </trkpt>
      <trkpt lat="43.52562" lon="5.54253">
        <ele>295.5</ele>
        <time>2023-05-28T12:47:49Z</time>
      </trkpt>
      <trkpt lat="43.52562" lon="5.54252">
        <ele>295.6</ele>
        <time>2023-05-28T12:47:50Z</time>
      </trkpt>
      <trkpt lat="43.52562" lon="5.54251">
        <ele>295.6</ele>
        <time>2023-05-28T12:47:51Z</time>
      </trkpt>
      <trkpt lat="43.52561" lon="5.54249">
        <ele>295.6</ele>
        <time>2023-05-28T12:47:52Z</time>
      </trkpt>
      <trkpt lat="43.52561" lon="5.54248">
        <ele>295.6</ele>
        <time>2023-05-28T12:47:53Z</time>
      </trkpt>
      <trkpt lat="43.52562" lon="5.54247">
        <ele>295.7</ele>
        <time>2023-05-28T12:47:54Z</time>
      </trkpt>
      <trkpt lat="43.52562" lon="5.54245">
        <ele>295.7</ele>
        <time>2023-05-28T12:47:55Z</time>
      </trkpt>
      <trkpt lat="43.52563" lon="5.54244">
        <ele>295.8</ele>
        <time>2023-05-28T12:47:56Z</time>
      </trkpt>
      <trkpt lat="43.52563" lon="5.54242">
        <ele>295.9</ele>
        <time>2023-05-28T12:47:57Z</time>
      </trkpt>
      <trkpt lat="43.52564" lon="5.5424">
        <ele>296</ele>
        <time>2023-05-28T12:47:58Z</time>
      </trkpt>
      <trkpt lat="43.52565" lon="5.54238">
        <ele>296</ele>
        <time>2023-05-28T12:47:59Z</time>
      </trkpt>
      <trkpt lat="43.52565" lon="5.54237">
        <ele>296</ele>
        <time>2023-05-28T12:48:00Z</time>
      </trkpt>
      <trkpt lat="43.52565" lon="5.54236">
        <ele>296.1</ele>
        <time>2023-05-28T12:48:01Z</time>
      </trkpt>
      <trkpt lat="43.52565" lon="5.54234">
        <ele>296.3</ele>
        <time>2023-05-28T12:48:02Z</time>
      </trkpt>
      <trkpt lat="43.52565" lon="5.54233">
        <ele>296.4</ele>
        <time>2023-05-28T12:48:03Z</time>
      </trkpt>
      <trkpt lat="43.52566" lon="5.54231">
        <ele>296.4</ele>
        <time>2023-05-28T12:48:04Z</time>
      </trkpt>
      <trkpt lat="43.52566" lon="5.5423">
        <ele>296.5</ele>
        <time>2023-05-28T12:48:05Z</time>
      </trkpt>
      <trkpt lat="43.52565" lon="5.54228">
        <ele>296.6</ele>
        <time>2023-05-28T12:48:06Z</time>
      </trkpt>
      <trkpt lat="43.52565" lon="5.54227">
        <ele>296.7</ele>
        <time>2023-05-28T12:48:07Z</time>
      </trkpt>
      <trkpt lat="43.52565" lon="5.54226">
        <ele>296.8</ele>
        <time>2023-05-28T12:48:08Z</time>
      </trkpt>
      <trkpt lat="43.52565" lon="5.54224">
        <ele>296.9</ele>
        <time>2023-05-28T12:48:09Z</time>
      </trkpt>
      <trkpt lat="43.52565" lon="5.54223">
        <ele>297</ele>
        <time>2023-05-28T12:48:10Z</time>
      </trkpt>
      <trkpt lat="43.52566" lon="5.54221">
        <ele>297.1</ele>
        <time>2023-05-28T12:48:11Z</time>
      </trkpt>
      <trkpt lat="43.52566" lon="5.5422">
        <ele>297.2</ele>
        <time>2023-05-28T12:48:12Z</time>
      </trkpt>
      <trkpt lat="43.52566" lon="5.54218">
        <ele>297.2</ele>
        <time>2023-05-28T12:48:13Z</time>
      </trkpt>
      <trkpt lat="43.52566" lon="5.54217">
        <ele>297.3</ele>
        <time>2023-05-28T12:48:14Z</time>
      </trkpt>
      <trkpt lat="43.52566" lon="5.54215">
        <ele>297.5</ele>
        <time>2023-05-28T12:48:15Z</time>
      </trkpt>
      <trkpt lat="43.52565" lon="5.54215">
        <ele>297.7</ele>
        <time>2023-05-28T12:48:16Z</time>
      </trkpt>
      <trkpt lat="43.52564" lon="5.54214">
        <ele>297.8</ele>
        <time>2023-05-28T12:48:17Z</time>
      </trkpt>
      <trkpt lat="43.52564" lon="5.54212">
        <ele>298</ele>
        <time>2023-05-28T12:48:18Z</time>
      </trkpt>
      <trkpt lat="43.52565" lon="5.54211">
        <ele>298.1</ele>
        <time>2023-05-28T12:48:19Z</time>
      </trkpt>
      <trkpt lat="43.52565" lon="5.54209">
        <ele>298.2</ele>
        <time>2023-05-28T12:48:20Z</time>
      </trkpt>
      <trkpt lat="43.52565" lon="5.54208">
        <ele>298.3</ele>
        <time>2023-05-28T12:48:21Z</time>
      </trkpt>
      <trkpt lat="43.52566" lon="5.54205">
        <ele>298.5</ele>
        <time>2023-05-28T12:48:22Z</time>
      </trkpt>
      <trkpt lat="43.52566" lon="5.54203">
        <ele>298.6</ele>
        <time>2023-05-28T12:48:23Z</time>
      </trkpt>
      <trkpt lat="43.52566" lon="5.54201">
        <ele>298.7</ele>
        <time>2023-05-28T12:48:24Z</time>
      </trkpt>
      <trkpt lat="43.52566" lon="5.542">
        <ele>298.8</ele>
        <time>2023-05-28T12:48:25Z</time>
      </trkpt>
      <trkpt lat="43.52566" lon="5.54198">
        <ele>298.9</ele>
        <time>2023-05-28T12:48:26Z</time>
      </trkpt>
      <trkpt lat="43.52566" lon="5.54196">
        <ele>298.9</ele>
        <time>2023-05-28T12:48:27Z</time>
      </trkpt>
      <trkpt lat="43.52566" lon="5.54194">
        <ele>298.9</ele>
        <time>2023-05-28T12:48:28Z</time>
      </trkpt>
      <trkpt lat="43.52567" lon="5.54192">
        <ele>299</ele>
        <time>2023-05-28T12:48:29Z</time>
      </trkpt>
      <trkpt lat="43.52567" lon="5.54191">
        <ele>299.1</ele>
        <time>2023-05-28T12:48:30Z</time>
      </trkpt>
      <trkpt lat="43.52566" lon="5.54189">
        <ele>299.2</ele>
        <time>2023-05-28T12:48:31Z</time>
      </trkpt>
      <trkpt lat="43.52566" lon="5.54187">
        <ele>299.3</ele>
        <time>2023-05-28T12:48:32Z</time>
      </trkpt>
      <trkpt lat="43.52566" lon="5.54186">
        <ele>299.4</ele>
        <time>2023-05-28T12:48:33Z</time>
      </trkpt>
      <trkpt lat="43.52567" lon="5.54184">
        <ele>299.5</ele>
        <time>2023-05-28T12:48:34Z</time>
      </trkpt>
      <trkpt lat="43.52567" lon="5.54182">
        <ele>299.7</ele>
        <time>2023-05-28T12:48:35Z</time>
      </trkpt>
      <trkpt lat="43.52566" lon="5.54181">
        <ele>299.7</ele>
        <time>2023-05-28T12:48:36Z</time>
      </trkpt>
      <trkpt lat="43.52566" lon="5.54179">
        <ele>299.8</ele>
        <time>2023-05-28T12:48:37Z</time>
      </trkpt>
      <trkpt lat="43.52566" lon="5.54176">
        <ele>299.7</ele>
        <time>2023-05-28T12:48:38Z</time>
      </trkpt>
      <trkpt lat="43.52566" lon="5.54175">
        <ele>299.8</ele>
        <time>2023-05-28T12:48:39Z</time>
      </trkpt>
      <trkpt lat="43.52565" lon="5.54174">
        <ele>299.8</ele>
        <time>2023-05-28T12:48:40Z</time>
      </trkpt>
      <trkpt lat="43.52564" lon="5.54172">
        <ele>299.9</ele>
        <time>2023-05-28T12:48:41Z</time>
      </trkpt>
      <trkpt lat="43.52564" lon="5.54171">
        <ele>299.9</ele>
        <time>2023-05-28T12:48:42Z</time>
      </trkpt>
      <trkpt lat="43.52564" lon="5.54169">
        <ele>300</ele>
        <time>2023-05-28T12:48:43Z</time>
      </trkpt>
      <trkpt lat="43.52564" lon="5.54168">
        <ele>300</ele>
        <time>2023-05-28T12:48:44Z</time>
      </trkpt>
      <trkpt lat="43.52564" lon="5.54166">
        <ele>300</ele>
        <time>2023-05-28T12:48:45Z</time>
      </trkpt>
      <trkpt lat="43.52564" lon="5.54164">
        <ele>300</ele>
        <time>2023-05-28T12:48:46Z</time>
      </trkpt>
      <trkpt lat="43.52565" lon="5.54163">
        <ele>300</ele>
        <time>2023-05-28T12:48:47Z</time>
      </trkpt>
      <trkpt lat="43.52565" lon="5.54162">
        <ele>300</ele>
        <time>2023-05-28T12:48:48Z</time>
      </trkpt>
      <trkpt lat="43.52565" lon="5.54161">
        <ele>300</ele>
        <time>2023-05-28T12:48:49Z</time>
      </trkpt>
      <trkpt lat="43.52565" lon="5.5416">
        <ele>300</ele>
        <time>2023-05-28T12:48:50Z</time>
      </trkpt>
      <trkpt lat="43.52565" lon="5.54159">
        <ele>300.1</ele>
        <time>2023-05-28T12:48:51Z</time>
      </trkpt>
      <trkpt lat="43.52565" lon="5.54158">
        <ele>300.1</ele>
        <time>2023-05-28T12:48:52Z</time>
      </trkpt>
      <trkpt lat="43.52566" lon="5.54157">
        <ele>300.1</ele>
        <time>2023-05-28T12:48:53Z</time>
      </trkpt>
      <trkpt lat="43.52566" lon="5.54156">
        <ele>300.2</ele>
        <time>2023-05-28T12:48:54Z</time>
      </trkpt>
      <trkpt lat="43.52567" lon="5.54154">
        <ele>300.3</ele>
        <time>2023-05-28T12:48:55Z</time>
      </trkpt>
      <trkpt lat="43.52567" lon="5.54152">
        <ele>300.3</ele>
        <time>2023-05-28T12:48:56Z</time>
      </trkpt>
      <trkpt lat="43.52567" lon="5.54151">
        <ele>300.3</ele>
        <time>2023-05-28T12:48:57Z</time>
      </trkpt>
      <trkpt lat="43.52567" lon="5.5415">
        <ele>300.3</ele>
        <time>2023-05-28T12:48:58Z</time>
      </trkpt>
      <trkpt lat="43.52566" lon="5.54148">
        <ele>300.3</ele>
        <time>2023-05-28T12:48:59Z</time>
      </trkpt>
      <trkpt lat="43.52566" lon="5.54147">
        <ele>300.3</ele>
        <time>2023-05-28T12:49:00Z</time>
      </trkpt>
      <trkpt lat="43.52567" lon="5.54146">
        <ele>300.4</ele>
        <time>2023-05-28T12:49:01Z</time>
      </trkpt>
      <trkpt lat="43.52567" lon="5.54144">
        <ele>300.5</ele>
        <time>2023-05-28T12:49:02Z</time>
      </trkpt>
      <trkpt lat="43.52567" lon="5.54143">
        <ele>300.6</ele>
        <time>2023-05-28T12:49:03Z</time>
      </trkpt>
      <trkpt lat="43.52567" lon="5.54141">
        <ele>300.7</ele>
        <time>2023-05-28T12:49:04Z</time>
      </trkpt>
      <trkpt lat="43.52567" lon="5.5414">
        <ele>300.8</ele>
        <time>2023-05-28T12:49:05Z</time>
      </trkpt>
      <trkpt lat="43.52567" lon="5.54138">
        <ele>300.8</ele>
        <time>2023-05-28T12:49:06Z</time>
      </trkpt>
      <trkpt lat="43.52568" lon="5.54136">
        <ele>300.9</ele>
        <time>2023-05-28T12:49:07Z</time>
      </trkpt>
      <trkpt lat="43.52567" lon="5.54135">
        <ele>300.9</ele>
        <time>2023-05-28T12:49:08Z</time>
      </trkpt>
      <trkpt lat="43.52567" lon="5.54134">
        <ele>300.9</ele>
        <time>2023-05-28T12:49:09Z</time>
      </trkpt>
      <trkpt lat="43.52567" lon="5.54133">
        <ele>300.8</ele>
        <time>2023-05-28T12:49:10Z</time>
      </trkpt>
      <trkpt lat="43.52568" lon="5.54133">
        <ele>300.9</ele>
        <time>2023-05-28T12:49:11Z</time>
      </trkpt>
      <trkpt lat="43.52568" lon="5.54132">
        <ele>300.9</ele>
        <time>2023-05-28T12:49:12Z</time>
      </trkpt>
      <trkpt lat="43.52568" lon="5.54132">
        <ele>300.9</ele>
        <time>2023-05-28T12:49:13Z</time>
      </trkpt>
      <trkpt lat="43.52568" lon="5.54132">
        <ele>301</ele>
        <time>2023-05-28T12:49:14Z</time>
      </trkpt>
      <trkpt lat="43.52568" lon="5.54132">
        <ele>301</ele>
        <time>2023-05-28T12:49:15Z</time>
      </trkpt>
      <trkpt lat="43.52568" lon="5.54131">
        <ele>301</ele>
        <time>2023-05-28T12:49:16Z</time>
      </trkpt>
      <trkpt lat="43.52568" lon="5.5413">
        <ele>301</ele>
        <time>2023-05-28T12:49:17Z</time>
      </trkpt>
      <trkpt lat="43.52568" lon="5.54129">
        <ele>301</ele>
        <time>2023-05-28T12:49:18Z</time>
      </trkpt>
      <trkpt lat="43.52568" lon="5.54128">
        <ele>301</ele>
        <time>2023-05-28T12:49:19Z</time>
      </trkpt>
      <trkpt lat="43.52568" lon="5.54127">
        <ele>300.9</ele>
        <time>2023-05-28T12:49:20Z</time>
      </trkpt>
      <trkpt lat="43.52568" lon="5.54126">
        <ele>300.9</ele>
        <time>2023-05-28T12:49:21Z</time>
      </trkpt>
      <trkpt lat="43.52568" lon="5.54126">
        <ele>300.9</ele>
        <time>2023-05-28T12:49:22Z</time>
      </trkpt>
      <trkpt lat="43.52567" lon="5.54126">
        <ele>300.9</ele>
        <time>2023-05-28T12:49:23Z</time>
      </trkpt>
      <trkpt lat="43.52567" lon="5.54126">
        <ele>300.9</ele>
        <time>2023-05-28T12:49:24Z</time>
      </trkpt>
      <trkpt lat="43.52567" lon="5.54126">
        <ele>300.9</ele>
        <time>2023-05-28T12:49:25Z</time>
      </trkpt>
      <trkpt lat="43.52567" lon="5.54125">
        <ele>301</ele>
        <time>2023-05-28T12:49:26Z</time>
      </trkpt>
      <trkpt lat="43.52566" lon="5.54125">
        <ele>301</ele>
        <time>2023-05-28T12:49:27Z</time>
      </trkpt>
      <trkpt lat="43.52566" lon="5.54124">
        <ele>301</ele>
        <time>2023-05-28T12:49:28Z</time>
      </trkpt>
      <trkpt lat="43.52565" lon="5.54124">
        <ele>301</ele>
        <time>2023-05-28T12:49:29Z</time>
      </trkpt>
      <trkpt lat="43.52565" lon="5.54123">
        <ele>300.9</ele>
        <time>2023-05-28T12:49:30Z</time>
      </trkpt>
      <trkpt lat="43.52564" lon="5.54123">
        <ele>300.9</ele>
        <time>2023-05-28T12:49:31Z</time>
      </trkpt>
      <trkpt lat="43.52563" lon="5.54122">
        <ele>300.9</ele>
        <time>2023-05-28T12:49:32Z</time>
      </trkpt>
      <trkpt lat="43.52563" lon="5.54121">
        <ele>300.9</ele>
        <time>2023-05-28T12:49:33Z</time>
      </trkpt>
      <trkpt lat="43.52563" lon="5.5412">
        <ele>300.9</ele>
        <time>2023-05-28T12:49:34Z</time>
      </trkpt>
      <trkpt lat="43.52562" lon="5.54119">
        <ele>300.8</ele>
        <time>2023-05-28T12:49:35Z</time>
      </trkpt>
      <trkpt lat="43.52562" lon="5.54119">
        <ele>300</ele>
        <time>2023-05-28T12:49:36Z</time>
      </trkpt>
      <trkpt lat="43.52562" lon="5.54118">
        <ele>300.1</ele>
        <time>2023-05-28T12:49:37Z</time>
      </trkpt>
      <trkpt lat="43.52563" lon="5.54118">
        <ele>300.2</ele>
        <time>2023-05-28T12:49:38Z</time>
      </trkpt>
      <trkpt lat="43.52563" lon="5.54117">
        <ele>300.3</ele>
        <time>2023-05-28T12:49:39Z</time>
      </trkpt>
      <trkpt lat="43.52563" lon="5.54116">
        <ele>300.3</ele>
        <time>2023-05-28T12:49:40Z</time>
      </trkpt>
      <trkpt lat="43.52563" lon="5.54115">
        <ele>300.4</ele>
        <time>2023-05-28T12:49:41Z</time>
      </trkpt>
      <trkpt lat="43.52562" lon="5.54114">
        <ele>300.4</ele>
        <time>2023-05-28T12:49:42Z</time>
      </trkpt>
      <trkpt lat="43.52562" lon="5.54113">
        <ele>300.5</ele>
        <time>2023-05-28T12:49:43Z</time>
      </trkpt>
      <trkpt lat="43.52562" lon="5.54111">
        <ele>300.5</ele>
        <time>2023-05-28T12:49:44Z</time>
      </trkpt>
      <trkpt lat="43.52561" lon="5.54111">
        <ele>300.6</ele>
        <time>2023-05-28T12:49:45Z</time>
      </trkpt>
      <trkpt lat="43.52561" lon="5.5411">
        <ele>300.6</ele>
        <time>2023-05-28T12:49:46Z</time>
      </trkpt>
      <trkpt lat="43.52562" lon="5.5411">
        <ele>300.6</ele>
        <time>2023-05-28T12:49:47Z</time>
      </trkpt>
      <trkpt lat="43.52562" lon="5.5411">
        <ele>300.6</ele>
        <time>2023-05-28T12:49:48Z</time>
      </trkpt>
      <trkpt lat="43.52561" lon="5.5411">
        <ele>300.5</ele>
        <time>2023-05-28T12:49:49Z</time>
      </trkpt>
      <trkpt lat="43.5256" lon="5.54111">
        <ele>300.5</ele>
        <time>2023-05-28T12:49:50Z</time>
      </trkpt>
      <trkpt lat="43.5256" lon="5.54111">
        <ele>300.4</ele>
        <time>2023-05-28T12:49:51Z</time>
      </trkpt>
      <trkpt lat="43.52561" lon="5.54112">
        <ele>300.4</ele>
        <time>2023-05-28T12:49:52Z</time>
      </trkpt>
      <trkpt lat="43.52561" lon="5.54113">
        <ele>300.3</ele>
        <time>2023-05-28T12:49:53Z</time>
      </trkpt>
      <trkpt lat="43.52561" lon="5.54114">
        <ele>300.3</ele>
        <time>2023-05-28T12:49:54Z</time>
      </trkpt>
      <trkpt lat="43.52561" lon="5.54114">
        <ele>300.3</ele>
        <time>2023-05-28T12:49:55Z</time>
      </trkpt>
      <trkpt lat="43.52561" lon="5.54115">
        <ele>300.3</ele>
        <time>2023-05-28T12:49:56Z</time>
      </trkpt>
      <trkpt lat="43.5256" lon="5.54116">
        <ele>300.3</ele>
        <time>2023-05-28T12:49:57Z</time>
      </trkpt>
      <trkpt lat="43.52561" lon="5.54117">
        <ele>300.4</ele>
        <time>2023-05-28T12:49:58Z</time>
      </trkpt>
      <trkpt lat="43.5256" lon="5.54118">
        <ele>300.4</ele>
        <time>2023-05-28T12:49:59Z</time>
      </trkpt>
      <trkpt lat="43.5256" lon="5.54119">
        <ele>300.4</ele>
        <time>2023-05-28T12:50:00Z</time>
      </trkpt>
      <trkpt lat="43.5256" lon="5.5412">
        <ele>300.3</ele>
        <time>2023-05-28T12:50:01Z</time>
      </trkpt>
      <trkpt lat="43.5256" lon="5.5412">
        <ele>300.2</ele>
        <time>2023-05-28T12:50:02Z</time>
      </trkpt>
      <trkpt lat="43.5256" lon="5.54121">
        <ele>300.2</ele>
        <time>2023-05-28T12:50:03Z</time>
      </trkpt>
      <trkpt lat="43.5256" lon="5.54121">
        <ele>300.2</ele>
        <time>2023-05-28T12:50:04Z</time>
      </trkpt>
      <trkpt lat="43.5256" lon="5.54121">
        <ele>300.2</ele>
        <time>2023-05-28T12:50:05Z</time>
      </trkpt>
      <trkpt lat="43.5256" lon="5.54121">
        <ele>300.2</ele>
        <time>2023-05-28T12:50:06Z</time>
      </trkpt>
      <trkpt lat="43.5256" lon="5.54121">
        <ele>300.2</ele>
        <time>2023-05-28T12:50:07Z</time>
      </trkpt>
      <trkpt lat="43.52561" lon="5.54121">
        <ele>300.2</ele>
        <time>2023-05-28T12:50:08Z</time>
      </trkpt>
      <trkpt lat="43.52561" lon="5.54122">
        <ele>300.2</ele>
        <time>2023-05-28T12:50:09Z</time>
      </trkpt>
      <trkpt lat="43.5256" lon="5.54123">
        <ele>300.2</ele>
        <time>2023-05-28T12:50:10Z</time>
      </trkpt>
      <trkpt lat="43.5256" lon="5.54123">
        <ele>300.2</ele>
        <time>2023-05-28T12:50:11Z</time>
      </trkpt>
      <trkpt lat="43.5256" lon="5.54123">
        <ele>300.2</ele>
        <time>2023-05-28T12:50:12Z</time>
      </trkpt>
      <trkpt lat="43.52559" lon="5.54124">
        <ele>300.2</ele>
        <time>2023-05-28T12:50:13Z</time>
      </trkpt>
      <trkpt lat="43.5256" lon="5.54124">
        <ele>300.2</ele>
        <time>2023-05-28T12:50:14Z</time>
      </trkpt>
      <trkpt lat="43.5256" lon="5.54124">
        <ele>300.1</ele>
        <time>2023-05-28T12:50:15Z</time>
      </trkpt>
      <trkpt lat="43.52559" lon="5.54124">
        <ele>300.1</ele>
        <time>2023-05-28T12:50:16Z</time>
      </trkpt>
      <trkpt lat="43.5256" lon="5.54125">
        <ele>300.1</ele>
        <time>2023-05-28T12:50:17Z</time>
      </trkpt>
      <trkpt lat="43.52559" lon="5.54125">
        <ele>300.1</ele>
        <time>2023-05-28T12:50:18Z</time>
      </trkpt>
      <trkpt lat="43.5256" lon="5.54124">
        <ele>300.1</ele>
        <time>2023-05-28T12:50:19Z</time>
      </trkpt>
      <trkpt lat="43.5256" lon="5.54124">
        <ele>300</ele>
        <time>2023-05-28T12:50:20Z</time>
      </trkpt>
      <trkpt lat="43.5256" lon="5.54124">
        <ele>300</ele>
        <time>2023-05-28T12:50:21Z</time>
      </trkpt>
      <trkpt lat="43.5256" lon="5.54124">
        <ele>300</ele>
        <time>2023-05-28T12:50:22Z</time>
      </trkpt>
      <trkpt lat="43.5256" lon="5.54124">
        <ele>300</ele>
        <time>2023-05-28T12:50:23Z</time>
      </trkpt>
      <trkpt lat="43.5256" lon="5.54124">
        <ele>299.9</ele>
        <time>2023-05-28T12:50:24Z</time>
      </trkpt>
      <trkpt lat="43.5256" lon="5.54124">
        <ele>300</ele>
        <time>2023-05-28T12:50:25Z</time>
      </trkpt>
      <trkpt lat="43.5256" lon="5.54125">
        <ele>300</ele>
        <time>2023-05-28T12:50:26Z</time>
      </trkpt>
      <trkpt lat="43.5256" lon="5.54125">
        <ele>300</ele>
        <time>2023-05-28T12:50:27Z</time>
      </trkpt>
      <trkpt lat="43.5256" lon="5.54125">
        <ele>300</ele>
        <time>2023-05-28T12:50:28Z</time>
      </trkpt>
      <trkpt lat="43.5256" lon="5.54125">
        <ele>300</ele>
        <time>2023-05-28T12:50:29Z</time>
      </trkpt>
      <trkpt lat="43.5256" lon="5.54125">
        <ele>299.9</ele>
        <time>2023-05-28T12:50:30Z</time>
      </trkpt>
      <trkpt lat="43.52561" lon="5.54124">
        <ele>299.9</ele>
        <time>2023-05-28T12:50:31Z</time>
      </trkpt>
      <trkpt lat="43.52561" lon="5.54124">
        <ele>299.9</ele>
        <time>2023-05-28T12:50:32Z</time>
      </trkpt>
      <trkpt lat="43.52562" lon="5.54124">
        <ele>299.9</ele>
        <time>2023-05-28T12:50:33Z</time>
      </trkpt>
      <trkpt lat="43.52563" lon="5.54124">
        <ele>299.9</ele>
        <time>2023-05-28T12:50:34Z</time>
      </trkpt>
      <trkpt lat="43.52564" lon="5.54124">
        <ele>299.9</ele>
        <time>2023-05-28T12:50:35Z</time>
      </trkpt>
      <trkpt lat="43.52565" lon="5.54123">
        <ele>299.8</ele>
        <time>2023-05-28T12:50:36Z</time>
      </trkpt>
      <trkpt lat="43.52566" lon="5.54123">
        <ele>299.7</ele>
        <time>2023-05-28T12:50:37Z</time>
      </trkpt>
      <trkpt lat="43.52566" lon="5.54124">
        <ele>299.7</ele>
        <time>2023-05-28T12:50:38Z</time>
      </trkpt>
      <trkpt lat="43.52567" lon="5.54123">
        <ele>299.7</ele>
        <time>2023-05-28T12:50:39Z</time>
      </trkpt>
      <trkpt lat="43.52568" lon="5.54123">
        <ele>299.8</ele>
        <time>2023-05-28T12:50:40Z</time>
      </trkpt>
      <trkpt lat="43.52569" lon="5.54123">
        <ele>299.8</ele>
        <time>2023-05-28T12:50:41Z</time>
      </trkpt>
      <trkpt lat="43.52569" lon="5.54124">
        <ele>299.8</ele>
        <time>2023-05-28T12:50:42Z</time>
      </trkpt>
      <trkpt lat="43.5257" lon="5.54124">
        <ele>299.7</ele>
        <time>2023-05-28T12:50:43Z</time>
      </trkpt>
      <trkpt lat="43.5257" lon="5.54124">
        <ele>299.7</ele>
        <time>2023-05-28T12:50:44Z</time>
      </trkpt>
      <trkpt lat="43.5257" lon="5.54124">
        <ele>299.7</ele>
        <time>2023-05-28T12:50:45Z</time>
      </trkpt>
      <trkpt lat="43.52571" lon="5.54124">
        <ele>299.7</ele>
        <time>2023-05-28T12:50:46Z</time>
      </trkpt>
      <trkpt lat="43.52571" lon="5.54125">
        <ele>299.7</ele>
        <time>2023-05-28T12:50:47Z</time>
      </trkpt>
      <trkpt lat="43.52571" lon="5.54125">
        <ele>299.7</ele>
        <time>2023-05-28T12:50:48Z</time>
      </trkpt>
      <trkpt lat="43.52571" lon="5.54125">
        <ele>299.7</ele>
        <time>2023-05-28T12:50:49Z</time>
      </trkpt>
      <trkpt lat="43.52572" lon="5.54125">
        <ele>299.7</ele>
        <time>2023-05-28T12:50:50Z</time>
      </trkpt>
      <trkpt lat="43.52572" lon="5.54123">
        <ele>299.6</ele>
        <time>2023-05-28T12:50:51Z</time>
      </trkpt>
      <trkpt lat="43.52572" lon="5.54122">
        <ele>299.6</ele>
        <time>2023-05-28T12:50:52Z</time>
      </trkpt>
      <trkpt lat="43.52572" lon="5.5412">
        <ele>299.6</ele>
        <time>2023-05-28T12:50:53Z</time>
      </trkpt>
      <trkpt lat="43.52572" lon="5.54119">
        <ele>299.7</ele>
        <time>2023-05-28T12:50:54Z</time>
      </trkpt>
      <trkpt lat="43.52572" lon="5.54118">
        <ele>299.7</ele>
        <time>2023-05-28T12:50:55Z</time>
      </trkpt>
      <trkpt lat="43.52572" lon="5.54117">
        <ele>299.7</ele>
        <time>2023-05-28T12:50:56Z</time>
      </trkpt>
      <trkpt lat="43.52572" lon="5.54116">
        <ele>299.8</ele>
        <time>2023-05-28T12:50:57Z</time>
      </trkpt>
      <trkpt lat="43.52571" lon="5.54116">
        <ele>299.8</ele>
        <time>2023-05-28T12:50:58Z</time>
      </trkpt>
      <trkpt lat="43.5257" lon="5.54117">
        <ele>299.8</ele>
        <time>2023-05-28T12:50:59Z</time>
      </trkpt>
      <trkpt lat="43.52571" lon="5.54118">
        <ele>299.9</ele>
        <time>2023-05-28T12:51:00Z</time>
      </trkpt>
      <trkpt lat="43.52571" lon="5.54118">
        <ele>299.9</ele>
        <time>2023-05-28T12:51:01Z</time>
      </trkpt>
      <trkpt lat="43.52571" lon="5.54119">
        <ele>299.9</ele>
        <time>2023-05-28T12:51:02Z</time>
      </trkpt>
      <trkpt lat="43.52572" lon="5.5412">
        <ele>299.9</ele>
        <time>2023-05-28T12:51:03Z</time>
      </trkpt>
      <trkpt lat="43.52572" lon="5.5412">
        <ele>300</ele>
        <time>2023-05-28T12:51:04Z</time>
      </trkpt>
      <trkpt lat="43.52573" lon="5.5412">
        <ele>300</ele>
        <time>2023-05-28T12:51:05Z</time>
      </trkpt>
      <trkpt lat="43.52573" lon="5.54119">
        <ele>300.1</ele>
        <time>2023-05-28T12:51:06Z</time>
      </trkpt>
      <trkpt lat="43.52574" lon="5.54119">
        <ele>300.1</ele>
        <time>2023-05-28T12:51:07Z</time>
      </trkpt>
      <trkpt lat="43.52574" lon="5.54119">
        <ele>300.1</ele>
        <time>2023-05-28T12:51:08Z</time>
      </trkpt>
      <trkpt lat="43.52574" lon="5.54118">
        <ele>300.1</ele>
        <time>2023-05-28T12:51:09Z</time>
      </trkpt>
      <trkpt lat="43.52575" lon="5.54119">
        <ele>300.2</ele>
        <time>2023-05-28T12:51:10Z</time>
      </trkpt>
      <trkpt lat="43.52575" lon="5.54119">
        <ele>300.2</ele>
        <time>2023-05-28T12:51:11Z</time>
      </trkpt>
      <trkpt lat="43.52575" lon="5.54119">
        <ele>300.2</ele>
        <time>2023-05-28T12:51:12Z</time>
      </trkpt>
      <trkpt lat="43.52576" lon="5.54118">
        <ele>300.5</ele>
        <time>2023-05-28T12:51:13Z</time>
      </trkpt>
      <trkpt lat="43.52576" lon="5.54119">
        <ele>300.6</ele>
        <time>2023-05-28T12:51:14Z</time>
      </trkpt>
      <trkpt lat="43.52575" lon="5.54119">
        <ele>300.6</ele>
        <time>2023-05-28T12:51:15Z</time>
      </trkpt>
      <trkpt lat="43.52575" lon="5.54118">
        <ele>300.7</ele>
        <time>2023-05-28T12:51:16Z</time>
      </trkpt>
      <trkpt lat="43.52575" lon="5.54119">
        <ele>300.7</ele>
        <time>2023-05-28T12:51:17Z</time>
      </trkpt>
      <trkpt lat="43.52575" lon="5.54119">
        <ele>300.7</ele>
        <time>2023-05-28T12:51:18Z</time>
      </trkpt>
      <trkpt lat="43.52575" lon="5.5412">
        <ele>300.6</ele>
        <time>2023-05-28T12:51:19Z</time>
      </trkpt>
      <trkpt lat="43.52576" lon="5.54121">
        <ele>300.5</ele>
        <time>2023-05-28T12:51:20Z</time>
      </trkpt>
      <trkpt lat="43.52576" lon="5.54121">
        <ele>300.1</ele>
        <time>2023-05-28T12:51:21Z</time>
      </trkpt>
      <trkpt lat="43.52578" lon="5.54121">
        <ele>299.9</ele>
        <time>2023-05-28T12:51:22Z</time>
      </trkpt>
      <trkpt lat="43.52579" lon="5.54122">
        <ele>299.9</ele>
        <time>2023-05-28T12:51:23Z</time>
      </trkpt>
      <trkpt lat="43.52579" lon="5.54122">
        <ele>299.9</ele>
        <time>2023-05-28T12:51:24Z</time>
      </trkpt>
      <trkpt lat="43.5258" lon="5.54122">
        <ele>300.1</ele>
        <time>2023-05-28T12:51:25Z</time>
      </trkpt>
      <trkpt lat="43.52581" lon="5.54122">
        <ele>300.3</ele>
        <time>2023-05-28T12:51:26Z</time>
      </trkpt>
      <trkpt lat="43.52582" lon="5.54123">
        <ele>300.4</ele>
        <time>2023-05-28T12:51:27Z</time>
      </trkpt>
      <trkpt lat="43.52582" lon="5.54123">
        <ele>300.5</ele>
        <time>2023-05-28T12:51:28Z</time>
      </trkpt>
      <trkpt lat="43.52582" lon="5.54123">
        <ele>300.6</ele>
        <time>2023-05-28T12:51:29Z</time>
      </trkpt>
      <trkpt lat="43.52583" lon="5.54124">
        <ele>300.6</ele>
        <time>2023-05-28T12:51:30Z</time>
      </trkpt>
      <trkpt lat="43.52583" lon="5.54125">
        <ele>300.8</ele>
        <time>2023-05-28T12:51:31Z</time>
      </trkpt>
      <trkpt lat="43.52584" lon="5.54125">
        <ele>300.9</ele>
        <time>2023-05-28T12:51:32Z</time>
      </trkpt>
      <trkpt lat="43.52585" lon="5.54124">
        <ele>301.3</ele>
        <time>2023-05-28T12:51:33Z</time>
      </trkpt>
      <trkpt lat="43.52585" lon="5.54123">
        <ele>301.6</ele>
        <time>2023-05-28T12:51:34Z</time>
      </trkpt>
      <trkpt lat="43.52585" lon="5.54123">
        <ele>301.6</ele>
        <time>2023-05-28T12:51:35Z</time>
      </trkpt>
      <trkpt lat="43.52586" lon="5.54122">
        <ele>301.8</ele>
        <time>2023-05-28T12:51:36Z</time>
      </trkpt>
      <trkpt lat="43.52586" lon="5.54122">
        <ele>301.9</ele>
        <time>2023-05-28T12:51:37Z</time>
      </trkpt>
      <trkpt lat="43.52587" lon="5.54122">
        <ele>301.9</ele>
        <time>2023-05-28T12:51:38Z</time>
      </trkpt>
      <trkpt lat="43.52586" lon="5.54121">
        <ele>301.9</ele>
        <time>2023-05-28T12:51:39Z</time>
      </trkpt>
      <trkpt lat="43.52587" lon="5.54121">
        <ele>301.9</ele>
        <time>2023-05-28T12:51:40Z</time>
      </trkpt>
      <trkpt lat="43.52587" lon="5.54121">
        <ele>301.8</ele>
        <time>2023-05-28T12:51:41Z</time>
      </trkpt>
      <trkpt lat="43.52586" lon="5.54121">
        <ele>301.7</ele>
        <time>2023-05-28T12:51:42Z</time>
      </trkpt>
      <trkpt lat="43.52586" lon="5.5412">
        <ele>301.7</ele>
        <time>2023-05-28T12:51:43Z</time>
      </trkpt>
      <trkpt lat="43.52587" lon="5.5412">
        <ele>301.6</ele>
        <time>2023-05-28T12:51:44Z</time>
      </trkpt>
      <trkpt lat="43.52588" lon="5.54119">
        <ele>301.6</ele>
        <time>2023-05-28T12:51:45Z</time>
      </trkpt>
      <trkpt lat="43.52588" lon="5.54119">
        <ele>301.5</ele>
        <time>2023-05-28T12:51:46Z</time>
      </trkpt>
      <trkpt lat="43.52589" lon="5.54118">
        <ele>301.5</ele>
        <time>2023-05-28T12:51:47Z</time>
      </trkpt>
      <trkpt lat="43.5259" lon="5.54118">
        <ele>301.4</ele>
        <time>2023-05-28T12:51:48Z</time>
      </trkpt>
      <trkpt lat="43.52591" lon="5.54118">
        <ele>301.4</ele>
        <time>2023-05-28T12:51:49Z</time>
      </trkpt>
      <trkpt lat="43.52591" lon="5.54118">
        <ele>301.4</ele>
        <time>2023-05-28T12:51:50Z</time>
      </trkpt>
      <trkpt lat="43.52592" lon="5.54118">
        <ele>301.3</ele>
        <time>2023-05-28T12:51:51Z</time>
      </trkpt>
      <trkpt lat="43.52592" lon="5.54118">
        <ele>301.3</ele>
        <time>2023-05-28T12:51:52Z</time>
      </trkpt>
      <trkpt lat="43.52594" lon="5.54117">
        <ele>301.4</ele>
        <time>2023-05-28T12:51:53Z</time>
      </trkpt>
      <trkpt lat="43.52595" lon="5.54117">
        <ele>301.4</ele>
        <time>2023-05-28T12:51:54Z</time>
      </trkpt>
      <trkpt lat="43.52595" lon="5.54117">
        <ele>301.5</ele>
        <time>2023-05-28T12:51:55Z</time>
      </trkpt>
      <trkpt lat="43.52596" lon="5.54117">
        <ele>301.4</ele>
        <time>2023-05-28T12:51:56Z</time>
      </trkpt>
      <trkpt lat="43.52597" lon="5.54118">
        <ele>301.3</ele>
        <time>2023-05-28T12:51:57Z</time>
      </trkpt>
      <trkpt lat="43.52598" lon="5.54119">
        <ele>301.2</ele>
        <time>2023-05-28T12:51:58Z</time>
      </trkpt>
      <trkpt lat="43.52599" lon="5.54119">
        <ele>301.2</ele>
        <time>2023-05-28T12:51:59Z</time>
      </trkpt>
      <trkpt lat="43.52599" lon="5.5412">
        <ele>301.1</ele>
        <time>2023-05-28T12:52:00Z</time>
      </trkpt>
      <trkpt lat="43.526" lon="5.54121">
        <ele>301.1</ele>
        <time>2023-05-28T12:52:01Z</time>
      </trkpt>
      <trkpt lat="43.526" lon="5.54122">
        <ele>301</ele>
        <time>2023-05-28T12:52:02Z</time>
      </trkpt>
      <trkpt lat="43.52601" lon="5.54122">
        <ele>301</ele>
        <time>2023-05-28T12:52:03Z</time>
      </trkpt>
      <trkpt lat="43.52601" lon="5.54122">
        <ele>300.9</ele>
        <time>2023-05-28T12:52:04Z</time>
      </trkpt>
      <trkpt lat="43.52601" lon="5.54122">
        <ele>300.9</ele>
        <time>2023-05-28T12:52:05Z</time>
      </trkpt>
      <trkpt lat="43.52601" lon="5.54122">
        <ele>300.9</ele>
        <time>2023-05-28T12:52:06Z</time>
      </trkpt>
      <trkpt lat="43.52601" lon="5.54122">
        <ele>301</ele>
        <time>2023-05-28T12:52:07Z</time>
      </trkpt>
      <trkpt lat="43.52602" lon="5.54122">
        <ele>301</ele>
        <time>2023-05-28T12:52:08Z</time>
      </trkpt>
      <trkpt lat="43.52602" lon="5.54122">
        <ele>301</ele>
        <time>2023-05-28T12:52:09Z</time>
      </trkpt>
      <trkpt lat="43.52603" lon="5.54122">
        <ele>301</ele>
        <time>2023-05-28T12:52:10Z</time>
      </trkpt>
      <trkpt lat="43.52603" lon="5.54122">
        <ele>301.1</ele>
        <time>2023-05-28T12:52:11Z</time>
      </trkpt>
      <trkpt lat="43.52603" lon="5.54122">
        <ele>301.1</ele>
        <time>2023-05-28T12:52:12Z</time>
      </trkpt>
      <trkpt lat="43.52604" lon="5.54122">
        <ele>301.1</ele>
        <time>2023-05-28T12:52:13Z</time>
      </trkpt>
      <trkpt lat="43.52604" lon="5.54122">
        <ele>301.1</ele>
        <time>2023-05-28T12:52:14Z</time>
      </trkpt>
      <trkpt lat="43.52604" lon="5.54122">
        <ele>301.2</ele>
        <time>2023-05-28T12:52:15Z</time>
      </trkpt>
      <trkpt lat="43.52604" lon="5.54122">
        <ele>301.3</ele>
        <time>2023-05-28T12:52:16Z</time>
      </trkpt>
      <trkpt lat="43.52604" lon="5.54122">
        <ele>301.3</ele>
        <time>2023-05-28T12:52:17Z</time>
      </trkpt>
      <trkpt lat="43.52605" lon="5.54122">
        <ele>301.3</ele>
        <time>2023-05-28T12:52:18Z</time>
      </trkpt>
      <trkpt lat="43.52605" lon="5.54122">
        <ele>301.3</ele>
        <time>2023-05-28T12:52:19Z</time>
      </trkpt>
      <trkpt lat="43.52605" lon="5.54122">
        <ele>301.3</ele>
        <time>2023-05-28T12:52:20Z</time>
      </trkpt>
      <trkpt lat="43.52605" lon="5.54122">
        <ele>301.3</ele>
        <time>2023-05-28T12:52:21Z</time>
      </trkpt>
      <trkpt lat="43.52605" lon="5.54122">
        <ele>301.3</ele>
        <time>2023-05-28T12:52:22Z</time>
      </trkpt>
      <trkpt lat="43.52605" lon="5.54122">
        <ele>301.3</ele>
        <time>2023-05-28T12:52:23Z</time>
      </trkpt>
      <trkpt lat="43.52605" lon="5.54122">
        <ele>301.3</ele>
        <time>2023-05-28T12:52:24Z</time>
      </trkpt>
      <trkpt lat="43.52605" lon="5.54122">
        <ele>301.3</ele>
        <time>2023-05-28T12:52:25Z</time>
      </trkpt>
      <trkpt lat="43.52605" lon="5.54122">
        <ele>301.3</ele>
        <time>2023-05-28T12:52:26Z</time>
      </trkpt>
      <trkpt lat="43.52605" lon="5.54122">
        <ele>301.3</ele>
        <time>2023-05-28T12:52:27Z</time>
      </trkpt>
      <trkpt lat="43.52605" lon="5.54122">
        <ele>301.3</ele>
        <time>2023-05-28T12:52:28Z</time>
      </trkpt>
      <trkpt lat="43.52605" lon="5.54122">
        <ele>301.4</ele>
        <time>2023-05-28T12:52:29Z</time>
      </trkpt>
      <trkpt lat="43.52605" lon="5.54122">
        <ele>301.4</ele>
        <time>2023-05-28T12:52:30Z</time>
      </trkpt>
      <trkpt lat="43.52605" lon="5.54122">
        <ele>301.4</ele>
        <time>2023-05-28T12:52:31Z</time>
      </trkpt>
      <trkpt lat="43.52605" lon="5.54122">
        <ele>301.4</ele>
        <time>2023-05-28T12:52:32Z</time>
      </trkpt>
      <trkpt lat="43.52606" lon="5.54122">
        <ele>301.4</ele>
        <time>2023-05-28T12:52:33Z</time>
      </trkpt>
      <trkpt lat="43.52606" lon="5.54122">
        <ele>301.4</ele>
        <time>2023-05-28T12:52:34Z</time>
      </trkpt>
      <trkpt lat="43.52606" lon="5.54122">
        <ele>301.4</ele>
        <time>2023-05-28T12:52:35Z</time>
      </trkpt>
      <trkpt lat="43.52606" lon="5.54123">
        <ele>301.4</ele>
        <time>2023-05-28T12:52:36Z</time>
      </trkpt>
      <trkpt lat="43.52606" lon="5.54123">
        <ele>301.4</ele>
        <time>2023-05-28T12:52:37Z</time>
      </trkpt>
      <trkpt lat="43.52606" lon="5.54123">
        <ele>301.4</ele>
        <time>2023-05-28T12:52:38Z</time>
      </trkpt>
      <trkpt lat="43.52606" lon="5.54123">
        <ele>301.4</ele>
        <time>2023-05-28T12:52:39Z</time>
      </trkpt>
      <trkpt lat="43.52606" lon="5.54123">
        <ele>301.4</ele>
        <time>2023-05-28T12:52:40Z</time>
      </trkpt>
      <trkpt lat="43.52606" lon="5.54123">
        <ele>301.4</ele>
        <time>2023-05-28T12:52:41Z</time>
      </trkpt>
      <trkpt lat="43.52606" lon="5.54123">
        <ele>301.3</ele>
        <time>2023-05-28T12:52:42Z</time>
      </trkpt>
      <trkpt lat="43.52606" lon="5.54123">
        <ele>301.2</ele>
        <time>2023-05-28T12:52:43Z</time>
      </trkpt>
      <trkpt lat="43.52606" lon="5.54123">
        <ele>301.1</ele>
        <time>2023-05-28T12:52:44Z</time>
      </trkpt>
      <trkpt lat="43.52606" lon="5.54123">
        <ele>301.1</ele>
        <time>2023-05-28T12:52:45Z</time>
      </trkpt>
      <trkpt lat="43.52606" lon="5.54123">
        <ele>301</ele>
        <time>2023-05-28T12:52:46Z</time>
      </trkpt>
      <trkpt lat="43.52606" lon="5.54123">
        <ele>301</ele>
        <time>2023-05-28T12:52:47Z</time>
      </trkpt>
      <trkpt lat="43.52606" lon="5.54124">
        <ele>301</ele>
        <time>2023-05-28T12:52:48Z</time>
      </trkpt>
      <trkpt lat="43.52606" lon="5.54124">
        <ele>301</ele>
        <time>2023-05-28T12:52:49Z</time>
      </trkpt>
      <trkpt lat="43.52606" lon="5.54124">
        <ele>301</ele>
        <time>2023-05-28T12:52:50Z</time>
      </trkpt>
      <trkpt lat="43.52606" lon="5.54124">
        <ele>300.9</ele>
        <time>2023-05-28T12:52:51Z</time>
      </trkpt>
      <trkpt lat="43.52605" lon="5.54124">
        <ele>300.9</ele>
        <time>2023-05-28T12:52:52Z</time>
      </trkpt>
      <trkpt lat="43.52605" lon="5.54124">
        <ele>300.9</ele>
        <time>2023-05-28T12:52:53Z</time>
      </trkpt>
      <trkpt lat="43.52605" lon="5.54124">
        <ele>300.9</ele>
        <time>2023-05-28T12:52:54Z</time>
      </trkpt>
      <trkpt lat="43.52605" lon="5.54124">
        <ele>300.9</ele>
        <time>2023-05-28T12:52:55Z</time>
      </trkpt>
      <trkpt lat="43.52605" lon="5.54124">
        <ele>300.9</ele>
        <time>2023-05-28T12:52:56Z</time>
      </trkpt>
      <trkpt lat="43.52604" lon="5.54123">
        <ele>300.9</ele>
        <time>2023-05-28T12:52:57Z</time>
      </trkpt>
      <trkpt lat="43.52604" lon="5.54123">
        <ele>300.9</ele>
        <time>2023-05-28T12:52:58Z</time>
      </trkpt>
      <trkpt lat="43.52603" lon="5.54122">
        <ele>301</ele>
        <time>2023-05-28T12:52:59Z</time>
      </trkpt>
      <trkpt lat="43.52603" lon="5.54122">
        <ele>301</ele>
        <time>2023-05-28T12:53:00Z</time>
      </trkpt>
      <trkpt lat="43.52602" lon="5.54121">
        <ele>301</ele>
        <time>2023-05-28T12:53:01Z</time>
      </trkpt>
      <trkpt lat="43.52601" lon="5.54121">
        <ele>300.9</ele>
        <time>2023-05-28T12:53:02Z</time>
      </trkpt>
      <trkpt lat="43.52601" lon="5.5412">
        <ele>300.9</ele>
        <time>2023-05-28T12:53:03Z</time>
      </trkpt>
      <trkpt lat="43.52601" lon="5.5412">
        <ele>300.8</ele>
        <time>2023-05-28T12:53:04Z</time>
      </trkpt>
      <trkpt lat="43.52601" lon="5.54119">
        <ele>300.8</ele>
        <time>2023-05-28T12:53:05Z</time>
      </trkpt>
      <trkpt lat="43.526" lon="5.54118">
        <ele>300.8</ele>
        <time>2023-05-28T12:53:06Z</time>
      </trkpt>
      <trkpt lat="43.526" lon="5.54117">
        <ele>300.8</ele>
        <time>2023-05-28T12:53:07Z</time>
      </trkpt>
      <trkpt lat="43.52599" lon="5.54118">
        <ele>300.9</ele>
        <time>2023-05-28T12:53:08Z</time>
      </trkpt>
      <trkpt lat="43.52598" lon="5.54117">
        <ele>300.9</ele>
        <time>2023-05-28T12:53:09Z</time>
      </trkpt>
      <trkpt lat="43.52597" lon="5.54117">
        <ele>300.9</ele>
        <time>2023-05-28T12:53:10Z</time>
      </trkpt>
      <trkpt lat="43.52596" lon="5.54117">
        <ele>300.8</ele>
        <time>2023-05-28T12:53:11Z</time>
      </trkpt>
      <trkpt lat="43.52595" lon="5.54117">
        <ele>300.9</ele>
        <time>2023-05-28T12:53:12Z</time>
      </trkpt>
      <trkpt lat="43.52595" lon="5.54116">
        <ele>300.8</ele>
        <time>2023-05-28T12:53:13Z</time>
      </trkpt>
      <trkpt lat="43.52595" lon="5.54116">
        <ele>300.8</ele>
        <time>2023-05-28T12:53:14Z</time>
      </trkpt>
      <trkpt lat="43.52594" lon="5.54115">
        <ele>300.8</ele>
        <time>2023-05-28T12:53:15Z</time>
      </trkpt>
      <trkpt lat="43.52593" lon="5.54116">
        <ele>300.8</ele>
        <time>2023-05-28T12:53:16Z</time>
      </trkpt>
      <trkpt lat="43.52593" lon="5.54115">
        <ele>300.9</ele>
        <time>2023-05-28T12:53:17Z</time>
      </trkpt>
      <trkpt lat="43.52592" lon="5.54114">
        <ele>301.1</ele>
        <time>2023-05-28T12:53:18Z</time>
      </trkpt>
      <trkpt lat="43.52592" lon="5.54114">
        <ele>301.2</ele>
        <time>2023-05-28T12:53:19Z</time>
      </trkpt>
      <trkpt lat="43.52591" lon="5.54114">
        <ele>301.3</ele>
        <time>2023-05-28T12:53:20Z</time>
      </trkpt>
      <trkpt lat="43.52591" lon="5.54114">
        <ele>301.1</ele>
        <time>2023-05-28T12:53:21Z</time>
      </trkpt>
      <trkpt lat="43.5259" lon="5.54114">
        <ele>301.1</ele>
        <time>2023-05-28T12:53:22Z</time>
      </trkpt>
      <trkpt lat="43.5259" lon="5.54114">
        <ele>301.2</ele>
        <time>2023-05-28T12:53:23Z</time>
      </trkpt>
      <trkpt lat="43.52589" lon="5.54114">
        <ele>301.3</ele>
        <time>2023-05-28T12:53:24Z</time>
      </trkpt>
      <trkpt lat="43.52588" lon="5.54114">
        <ele>301.5</ele>
        <time>2023-05-28T12:53:25Z</time>
      </trkpt>
      <trkpt lat="43.52588" lon="5.54114">
        <ele>301.6</ele>
        <time>2023-05-28T12:53:26Z</time>
      </trkpt>
      <trkpt lat="43.52588" lon="5.54114">
        <ele>301.7</ele>
        <time>2023-05-28T12:53:27Z</time>
      </trkpt>
      <trkpt lat="43.52588" lon="5.54114">
        <ele>301.9</ele>
        <time>2023-05-28T12:53:28Z</time>
      </trkpt>
      <trkpt lat="43.52588" lon="5.54114">
        <ele>302</ele>
        <time>2023-05-28T12:53:29Z</time>
      </trkpt>
      <trkpt lat="43.52588" lon="5.54114">
        <ele>302</ele>
        <time>2023-05-28T12:53:30Z</time>
      </trkpt>
      <trkpt lat="43.52588" lon="5.54114">
        <ele>302.1</ele>
        <time>2023-05-28T12:53:31Z</time>
      </trkpt>
      <trkpt lat="43.52587" lon="5.54113">
        <ele>302.2</ele>
        <time>2023-05-28T12:53:32Z</time>
      </trkpt>
      <trkpt lat="43.52586" lon="5.54112">
        <ele>302.3</ele>
        <time>2023-05-28T12:53:33Z</time>
      </trkpt>
      <trkpt lat="43.52585" lon="5.54111">
        <ele>302.4</ele>
        <time>2023-05-28T12:53:34Z</time>
      </trkpt>
      <trkpt lat="43.52583" lon="5.5411">
        <ele>302.4</ele>
        <time>2023-05-28T12:53:35Z</time>
      </trkpt>
      <trkpt lat="43.52583" lon="5.5411">
        <ele>302.4</ele>
        <time>2023-05-28T12:53:36Z</time>
      </trkpt>
      <trkpt lat="43.52582" lon="5.5411">
        <ele>302.4</ele>
        <time>2023-05-28T12:53:37Z</time>
      </trkpt>
      <trkpt lat="43.5258" lon="5.5411">
        <ele>302.4</ele>
        <time>2023-05-28T12:53:38Z</time>
      </trkpt>
      <trkpt lat="43.5258" lon="5.5411">
        <ele>302.3</ele>
        <time>2023-05-28T12:53:39Z</time>
      </trkpt>
      <trkpt lat="43.52579" lon="5.54109">
        <ele>302.1</ele>
        <time>2023-05-28T12:53:40Z</time>
      </trkpt>
      <trkpt lat="43.52577" lon="5.54109">
        <ele>302</ele>
        <time>2023-05-28T12:53:41Z</time>
      </trkpt>
      <trkpt lat="43.52577" lon="5.54109">
        <ele>301.8</ele>
        <time>2023-05-28T12:53:42Z</time>
      </trkpt>
      <trkpt lat="43.52576" lon="5.54109">
        <ele>301.7</ele>
        <time>2023-05-28T12:53:43Z</time>
      </trkpt>
      <trkpt lat="43.52574" lon="5.54109">
        <ele>301.6</ele>
        <time>2023-05-28T12:53:44Z</time>
      </trkpt>
      <trkpt lat="43.52574" lon="5.5411">
        <ele>301.5</ele>
        <time>2023-05-28T12:53:45Z</time>
      </trkpt>
      <trkpt lat="43.52573" lon="5.5411">
        <ele>301.4</ele>
        <time>2023-05-28T12:53:46Z</time>
      </trkpt>
      <trkpt lat="43.52572" lon="5.5411">
        <ele>301.3</ele>
        <time>2023-05-28T12:53:47Z</time>
      </trkpt>
      <trkpt lat="43.52573" lon="5.54109">
        <ele>301.3</ele>
        <time>2023-05-28T12:53:48Z</time>
      </trkpt>
      <trkpt lat="43.52573" lon="5.54109">
        <ele>301.1</ele>
        <time>2023-05-28T12:53:49Z</time>
      </trkpt>
      <trkpt lat="43.52573" lon="5.54108">
        <ele>301.2</ele>
        <time>2023-05-28T12:53:50Z</time>
      </trkpt>
      <trkpt lat="43.52573" lon="5.54108">
        <ele>301.2</ele>
        <time>2023-05-28T12:53:51Z</time>
      </trkpt>
      <trkpt lat="43.52573" lon="5.54108">
        <ele>301.2</ele>
        <time>2023-05-28T12:53:52Z</time>
      </trkpt>
      <trkpt lat="43.52572" lon="5.54109">
        <ele>301.2</ele>
        <time>2023-05-28T12:53:53Z</time>
      </trkpt>
      <trkpt lat="43.52571" lon="5.54109">
        <ele>301.2</ele>
        <time>2023-05-28T12:53:54Z</time>
      </trkpt>
      <trkpt lat="43.52569" lon="5.54109">
        <ele>301</ele>
        <time>2023-05-28T12:53:55Z</time>
      </trkpt>
      <trkpt lat="43.52568" lon="5.54109">
        <ele>300.9</ele>
        <time>2023-05-28T12:53:56Z</time>
      </trkpt>
      <trkpt lat="43.52567" lon="5.54109">
        <ele>300.7</ele>
        <time>2023-05-28T12:53:57Z</time>
      </trkpt>
      <trkpt lat="43.52566" lon="5.54108">
        <ele>300.6</ele>
        <time>2023-05-28T12:53:58Z</time>
      </trkpt>
      <trkpt lat="43.52565" lon="5.54107">
        <ele>300.5</ele>
        <time>2023-05-28T12:53:59Z</time>
      </trkpt>
      <trkpt lat="43.52564" lon="5.54107">
        <ele>300.5</ele>
        <time>2023-05-28T12:54:00Z</time>
      </trkpt>
      <trkpt lat="43.52563" lon="5.54107">
        <ele>300.5</ele>
        <time>2023-05-28T12:54:01Z</time>
      </trkpt>
      <trkpt lat="43.52563" lon="5.54107">
        <ele>300.4</ele>
        <time>2023-05-28T12:54:02Z</time>
      </trkpt>
      <trkpt lat="43.52563" lon="5.54108">
        <ele>300.3</ele>
        <time>2023-05-28T12:54:03Z</time>
      </trkpt>
      <trkpt lat="43.52561" lon="5.54108">
        <ele>300.2</ele>
        <time>2023-05-28T12:54:04Z</time>
      </trkpt>
      <trkpt lat="43.52561" lon="5.54108">
        <ele>300.2</ele>
        <time>2023-05-28T12:54:05Z</time>
      </trkpt>
      <trkpt lat="43.5256" lon="5.54109">
        <ele>300.3</ele>
        <time>2023-05-28T12:54:06Z</time>
      </trkpt>
      <trkpt lat="43.5256" lon="5.5411">
        <ele>300.2</ele>
        <time>2023-05-28T12:54:07Z</time>
      </trkpt>
      <trkpt lat="43.52559" lon="5.5411">
        <ele>300.2</ele>
        <time>2023-05-28T12:54:08Z</time>
      </trkpt>
      <trkpt lat="43.52559" lon="5.54111">
        <ele>300.1</ele>
        <time>2023-05-28T12:54:09Z</time>
      </trkpt>
      <trkpt lat="43.52559" lon="5.54111">
        <ele>300.1</ele>
        <time>2023-05-28T12:54:10Z</time>
      </trkpt>
      <trkpt lat="43.52559" lon="5.54112">
        <ele>300</ele>
        <time>2023-05-28T12:54:11Z</time>
      </trkpt>
      <trkpt lat="43.52559" lon="5.54112">
        <ele>300.1</ele>
        <time>2023-05-28T12:54:12Z</time>
      </trkpt>
      <trkpt lat="43.52559" lon="5.54113">
        <ele>300.2</ele>
        <time>2023-05-28T12:54:13Z</time>
      </trkpt>
      <trkpt lat="43.5256" lon="5.54114">
        <ele>300.2</ele>
        <time>2023-05-28T12:54:14Z</time>
      </trkpt>
      <trkpt lat="43.5256" lon="5.54114">
        <ele>300.3</ele>
        <time>2023-05-28T12:54:15Z</time>
      </trkpt>
      <trkpt lat="43.5256" lon="5.54115">
        <ele>300.3</ele>
        <time>2023-05-28T12:54:16Z</time>
      </trkpt>
      <trkpt lat="43.5256" lon="5.54115">
        <ele>300.2</ele>
        <time>2023-05-28T12:54:17Z</time>
      </trkpt>
      <trkpt lat="43.5256" lon="5.54115">
        <ele>300.2</ele>
        <time>2023-05-28T12:54:18Z</time>
      </trkpt>
      <trkpt lat="43.5256" lon="5.54116">
        <ele>300.2</ele>
        <time>2023-05-28T12:54:19Z</time>
      </trkpt>
      <trkpt lat="43.52559" lon="5.54116">
        <ele>300.2</ele>
        <time>2023-05-28T12:54:20Z</time>
      </trkpt>
      <trkpt lat="43.52559" lon="5.54116">
        <ele>300.2</ele>
        <time>2023-05-28T12:54:21Z</time>
      </trkpt>
      <trkpt lat="43.52559" lon="5.54116">
        <ele>300.2</ele>
        <time>2023-05-28T12:54:22Z</time>
      </trkpt>
      <trkpt lat="43.52559" lon="5.54117">
        <ele>300.1</ele>
        <time>2023-05-28T12:54:23Z</time>
      </trkpt>
      <trkpt lat="43.52559" lon="5.54117">
        <ele>300.1</ele>
        <time>2023-05-28T12:54:24Z</time>
      </trkpt>
      <trkpt lat="43.52559" lon="5.54117">
        <ele>300.1</ele>
        <time>2023-05-28T12:54:25Z</time>
      </trkpt>
      <trkpt lat="43.52559" lon="5.54117">
        <ele>300.2</ele>
        <time>2023-05-28T12:54:26Z</time>
      </trkpt>
      <trkpt lat="43.52559" lon="5.54118">
        <ele>300.2</ele>
        <time>2023-05-28T12:54:27Z</time>
      </trkpt>
      <trkpt lat="43.52559" lon="5.54118">
        <ele>300.2</ele>
        <time>2023-05-28T12:54:28Z</time>
      </trkpt>
      <trkpt lat="43.52558" lon="5.54118">
        <ele>300.2</ele>
        <time>2023-05-28T12:54:29Z</time>
      </trkpt>
      <trkpt lat="43.52558" lon="5.54118">
        <ele>300.2</ele>
        <time>2023-05-28T12:54:30Z</time>
      </trkpt>
      <trkpt lat="43.52558" lon="5.54119">
        <ele>300.1</ele>
        <time>2023-05-28T12:54:31Z</time>
      </trkpt>
      <trkpt lat="43.52559" lon="5.54119">
        <ele>300.1</ele>
        <time>2023-05-28T12:54:32Z</time>
      </trkpt>
      <trkpt lat="43.52559" lon="5.54119">
        <ele>300.1</ele>
        <time>2023-05-28T12:54:33Z</time>
      </trkpt>
      <trkpt lat="43.52559" lon="5.54119">
        <ele>300.1</ele>
        <time>2023-05-28T12:54:34Z</time>
      </trkpt>
      <trkpt lat="43.52559" lon="5.54119">
        <ele>300.1</ele>
        <time>2023-05-28T12:54:35Z</time>
      </trkpt>
      <trkpt lat="43.52559" lon="5.54119">
        <ele>300.1</ele>
        <time>2023-05-28T12:54:36Z</time>
      </trkpt>
      <trkpt lat="43.52559" lon="5.5412">
        <ele>300.2</ele>
        <time>2023-05-28T12:54:37Z</time>
      </trkpt>
      <trkpt lat="43.52559" lon="5.5412">
        <ele>300.2</ele>
        <time>2023-05-28T12:54:38Z</time>
      </trkpt>
      <trkpt lat="43.5256" lon="5.5412">
        <ele>300.2</ele>
        <time>2023-05-28T12:54:39Z</time>
      </trkpt>
      <trkpt lat="43.5256" lon="5.5412">
        <ele>300.3</ele>
        <time>2023-05-28T12:54:40Z</time>
      </trkpt>
      <trkpt lat="43.5256" lon="5.5412">
        <ele>300.3</ele>
        <time>2023-05-28T12:54:41Z</time>
      </trkpt>
      <trkpt lat="43.52559" lon="5.5412">
        <ele>300.3</ele>
        <time>2023-05-28T12:54:42Z</time>
      </trkpt>
      <trkpt lat="43.52559" lon="5.54121">
        <ele>300.3</ele>
        <time>2023-05-28T12:54:43Z</time>
      </trkpt>
      <trkpt lat="43.52559" lon="5.54121">
        <ele>300.2</ele>
        <time>2023-05-28T12:54:44Z</time>
      </trkpt>
      <trkpt lat="43.52559" lon="5.54121">
        <ele>300.2</ele>
        <time>2023-05-28T12:54:45Z</time>
      </trkpt>
      <trkpt lat="43.52559" lon="5.54121">
        <ele>300.2</ele>
        <time>2023-05-28T12:54:46Z</time>
      </trkpt>
      <trkpt lat="43.52559" lon="5.54121">
        <ele>300.2</ele>
        <time>2023-05-28T12:54:47Z</time>
      </trkpt>
      <trkpt lat="43.52559" lon="5.54121">
        <ele>300.2</ele>
        <time>2023-05-28T12:54:48Z</time>
      </trkpt>
      <trkpt lat="43.52559" lon="5.54122">
        <ele>300.1</ele>
        <time>2023-05-28T12:54:49Z</time>
      </trkpt>
      <trkpt lat="43.52559" lon="5.54122">
        <ele>300</ele>
        <time>2023-05-28T12:54:50Z</time>
      </trkpt>
      <trkpt lat="43.52559" lon="5.54122">
        <ele>300.1</ele>
        <time>2023-05-28T12:54:51Z</time>
      </trkpt>
      <trkpt lat="43.52559" lon="5.54122">
        <ele>300.1</ele>
        <time>2023-05-28T12:54:52Z</time>
      </trkpt>
      <trkpt lat="43.52559" lon="5.54122">
        <ele>300.1</ele>
        <time>2023-05-28T12:54:53Z</time>
      </trkpt>
      <trkpt lat="43.52559" lon="5.54122">
        <ele>300.1</ele>
        <time>2023-05-28T12:54:54Z</time>
      </trkpt>
      <trkpt lat="43.52559" lon="5.54122">
        <ele>300.1</ele>
        <time>2023-05-28T12:54:55Z</time>
      </trkpt>
      <trkpt lat="43.52559" lon="5.54122">
        <ele>300.1</ele>
        <time>2023-05-28T12:54:56Z</time>
      </trkpt>
      <trkpt lat="43.52559" lon="5.54122">
        <ele>300.1</ele>
        <time>2023-05-28T12:54:57Z</time>
      </trkpt>
      <trkpt lat="43.52559" lon="5.54122">
        <ele>300.1</ele>
        <time>2023-05-28T12:54:58Z</time>
      </trkpt>
      <trkpt lat="43.52559" lon="5.54122">
        <ele>300.1</ele>
        <time>2023-05-28T12:54:59Z</time>
      </trkpt>
      <trkpt lat="43.52559" lon="5.54122">
        <ele>300.1</ele>
        <time>2023-05-28T12:55:00Z</time>
      </trkpt>
      <trkpt lat="43.52559" lon="5.54122">
        <ele>300</ele>
        <time>2023-05-28T12:55:01Z</time>
      </trkpt>
      <trkpt lat="43.52559" lon="5.54122">
        <ele>300</ele>
        <time>2023-05-28T12:55:02Z</time>
      </trkpt>
      <trkpt lat="43.52559" lon="5.54122">
        <ele>299.9</ele>
        <time>2023-05-28T12:55:03Z</time>
      </trkpt>
      <trkpt lat="43.52559" lon="5.54122">
        <ele>299.9</ele>
        <time>2023-05-28T12:55:04Z</time>
      </trkpt>
      <trkpt lat="43.52559" lon="5.54122">
        <ele>299.8</ele>
        <time>2023-05-28T12:55:05Z</time>
      </trkpt>
      <trkpt lat="43.52559" lon="5.54122">
        <ele>299.8</ele>
        <time>2023-05-28T12:55:06Z</time>
      </trkpt>
      <trkpt lat="43.52559" lon="5.54122">
        <ele>299.8</ele>
        <time>2023-05-28T12:55:07Z</time>
      </trkpt>
      <trkpt lat="43.52559" lon="5.54121">
        <ele>299.9</ele>
        <time>2023-05-28T12:55:08Z</time>
      </trkpt>
      <trkpt lat="43.52559" lon="5.54121">
        <ele>300.1</ele>
        <time>2023-05-28T12:55:09Z</time>
      </trkpt>
      <trkpt lat="43.52559" lon="5.54121">
        <ele>300.1</ele>
        <time>2023-05-28T12:55:10Z</time>
      </trkpt>
      <trkpt lat="43.52559" lon="5.54121">
        <ele>300.2</ele>
        <time>2023-05-28T12:55:11Z</time>
      </trkpt>
      <trkpt lat="43.52559" lon="5.54121">
        <ele>300.2</ele>
        <time>2023-05-28T12:55:12Z</time>
      </trkpt>
      <trkpt lat="43.52559" lon="5.54121">
        <ele>300.2</ele>
        <time>2023-05-28T12:55:13Z</time>
      </trkpt>
      <trkpt lat="43.52559" lon="5.54121">
        <ele>300.3</ele>
        <time>2023-05-28T12:55:14Z</time>
      </trkpt>
      <trkpt lat="43.52559" lon="5.54121">
        <ele>300.2</ele>
        <time>2023-05-28T12:55:15Z</time>
      </trkpt>
      <trkpt lat="43.52559" lon="5.54121">
        <ele>300.2</ele>
        <time>2023-05-28T12:55:16Z</time>
      </trkpt>
      <trkpt lat="43.52559" lon="5.54121">
        <ele>300.3</ele>
        <time>2023-05-28T12:55:17Z</time>
      </trkpt>
      <trkpt lat="43.52559" lon="5.54121">
        <ele>300.3</ele>
        <time>2023-05-28T12:55:18Z</time>
      </trkpt>
      <trkpt lat="43.52559" lon="5.54121">
        <ele>300.3</ele>
        <time>2023-05-28T12:55:19Z</time>
      </trkpt>
      <trkpt lat="43.52559" lon="5.54121">
        <ele>300.2</ele>
        <time>2023-05-28T12:55:20Z</time>
      </trkpt>
      <trkpt lat="43.52559" lon="5.54121">
        <ele>300.2</ele>
        <time>2023-05-28T12:55:21Z</time>
      </trkpt>
      <trkpt lat="43.52559" lon="5.54121">
        <ele>300.2</ele>
        <time>2023-05-28T12:55:22Z</time>
      </trkpt>
      <trkpt lat="43.52559" lon="5.54121">
        <ele>300.1</ele>
        <time>2023-05-28T12:55:23Z</time>
      </trkpt>
      <trkpt lat="43.52559" lon="5.54121">
        <ele>300</ele>
        <time>2023-05-28T12:55:24Z</time>
      </trkpt>
      <trkpt lat="43.52559" lon="5.54121">
        <ele>300</ele>
        <time>2023-05-28T12:55:25Z</time>
      </trkpt>
      <trkpt lat="43.52559" lon="5.54121">
        <ele>299.8</ele>
        <time>2023-05-28T12:55:26Z</time>
      </trkpt>
      <trkpt lat="43.5256" lon="5.54121">
        <ele>299.8</ele>
        <time>2023-05-28T12:55:27Z</time>
      </trkpt>
      <trkpt lat="43.5256" lon="5.54121">
        <ele>299.8</ele>
        <time>2023-05-28T12:55:28Z</time>
      </trkpt>
      <trkpt lat="43.5256" lon="5.54121">
        <ele>299.8</ele>
        <time>2023-05-28T12:55:29Z</time>
      </trkpt>
      <trkpt lat="43.5256" lon="5.54121">
        <ele>299.8</ele>
        <time>2023-05-28T12:55:30Z</time>
      </trkpt>
      <trkpt lat="43.5256" lon="5.54121">
        <ele>299.8</ele>
        <time>2023-05-28T12:55:31Z</time>
      </trkpt>
      <trkpt lat="43.5256" lon="5.54121">
        <ele>299.8</ele>
        <time>2023-05-28T12:55:32Z</time>
      </trkpt>
      <trkpt lat="43.5256" lon="5.54121">
        <ele>299.8</ele>
        <time>2023-05-28T12:55:33Z</time>
      </trkpt>
      <trkpt lat="43.52561" lon="5.5412">
        <ele>299.8</ele>
        <time>2023-05-28T12:55:34Z</time>
      </trkpt>
      <trkpt lat="43.52561" lon="5.5412">
        <ele>299.8</ele>
        <time>2023-05-28T12:55:35Z</time>
      </trkpt>
      <trkpt lat="43.52561" lon="5.54121">
        <ele>299.8</ele>
        <time>2023-05-28T12:55:36Z</time>
      </trkpt>
      <trkpt lat="43.5256" lon="5.54121">
        <ele>299.8</ele>
        <time>2023-05-28T12:55:37Z</time>
      </trkpt>
      <trkpt lat="43.5256" lon="5.54121">
        <ele>299.9</ele>
        <time>2023-05-28T12:55:38Z</time>
      </trkpt>
      <trkpt lat="43.5256" lon="5.54122">
        <ele>299.9</ele>
        <time>2023-05-28T12:55:39Z</time>
      </trkpt>
      <trkpt lat="43.5256" lon="5.54122">
        <ele>299.9</ele>
        <time>2023-05-28T12:55:40Z</time>
      </trkpt>
      <trkpt lat="43.5256" lon="5.54123">
        <ele>300</ele>
        <time>2023-05-28T12:55:41Z</time>
      </trkpt>
      <trkpt lat="43.5256" lon="5.54123">
        <ele>300</ele>
        <time>2023-05-28T12:55:42Z</time>
      </trkpt>
      <trkpt lat="43.5256" lon="5.54123">
        <ele>300</ele>
        <time>2023-05-28T12:55:43Z</time>
      </trkpt>
      <trkpt lat="43.5256" lon="5.54123">
        <ele>300</ele>
        <time>2023-05-28T12:55:44Z</time>
      </trkpt>
      <trkpt lat="43.5256" lon="5.54123">
        <ele>300.1</ele>
        <time>2023-05-28T12:55:45Z</time>
      </trkpt>
      <trkpt lat="43.5256" lon="5.54123">
        <ele>300.1</ele>
        <time>2023-05-28T12:55:46Z</time>
      </trkpt>
      <trkpt lat="43.5256" lon="5.54122">
        <ele>300.1</ele>
        <time>2023-05-28T12:55:47Z</time>
      </trkpt>
      <trkpt lat="43.5256" lon="5.54122">
        <ele>300.1</ele>
        <time>2023-05-28T12:55:48Z</time>
      </trkpt>
      <trkpt lat="43.52559" lon="5.54122">
        <ele>300.2</ele>
        <time>2023-05-28T12:55:49Z</time>
      </trkpt>
      <trkpt lat="43.52559" lon="5.54122">
        <ele>300.2</ele>
        <time>2023-05-28T12:55:50Z</time>
      </trkpt>
      <trkpt lat="43.52559" lon="5.54122">
        <ele>300.2</ele>
        <time>2023-05-28T12:55:51Z</time>
      </trkpt>
      <trkpt lat="43.52559" lon="5.54122">
        <ele>300.2</ele>
        <time>2023-05-28T12:55:52Z</time>
      </trkpt>
      <trkpt lat="43.52559" lon="5.54122">
        <ele>300.2</ele>
        <time>2023-05-28T12:55:53Z</time>
      </trkpt>
      <trkpt lat="43.52559" lon="5.54122">
        <ele>300.2</ele>
        <time>2023-05-28T12:55:54Z</time>
      </trkpt>
      <trkpt lat="43.52558" lon="5.54122">
        <ele>300.2</ele>
        <time>2023-05-28T12:55:55Z</time>
      </trkpt>
      <trkpt lat="43.52558" lon="5.54121">
        <ele>300.2</ele>
        <time>2023-05-28T12:55:56Z</time>
      </trkpt>
      <trkpt lat="43.52558" lon="5.54121">
        <ele>300.2</ele>
        <time>2023-05-28T12:55:57Z</time>
      </trkpt>
      <trkpt lat="43.52558" lon="5.54121">
        <ele>300.2</ele>
        <time>2023-05-28T12:55:58Z</time>
      </trkpt>
      <trkpt lat="43.52557" lon="5.54121">
        <ele>300.2</ele>
        <time>2023-05-28T12:55:59Z</time>
      </trkpt>
      <trkpt lat="43.52557" lon="5.54121">
        <ele>300.1</ele>
        <time>2023-05-28T12:56:00Z</time>
      </trkpt>
      <trkpt lat="43.52557" lon="5.54122">
        <ele>300.1</ele>
        <time>2023-05-28T12:56:01Z</time>
      </trkpt>
      <trkpt lat="43.52557" lon="5.54121">
        <ele>300.1</ele>
        <time>2023-05-28T12:56:02Z</time>
      </trkpt>
      <trkpt lat="43.52557" lon="5.54121">
        <ele>300.2</ele>
        <time>2023-05-28T12:56:03Z</time>
      </trkpt>
      <trkpt lat="43.52557" lon="5.54122">
        <ele>300.1</ele>
        <time>2023-05-28T12:56:04Z</time>
      </trkpt>
      <trkpt lat="43.52557" lon="5.54122">
        <ele>300.1</ele>
        <time>2023-05-28T12:56:05Z</time>
      </trkpt>
      <trkpt lat="43.52556" lon="5.54122">
        <ele>300.1</ele>
        <time>2023-05-28T12:56:06Z</time>
      </trkpt>
      <trkpt lat="43.52556" lon="5.54122">
        <ele>300.1</ele>
        <time>2023-05-28T12:56:07Z</time>
      </trkpt>
      <trkpt lat="43.52556" lon="5.54121">
        <ele>300.1</ele>
        <time>2023-05-28T12:56:08Z</time>
      </trkpt>
      <trkpt lat="43.52556" lon="5.54121">
        <ele>300.1</ele>
        <time>2023-05-28T12:56:09Z</time>
      </trkpt>
      <trkpt lat="43.52556" lon="5.54121">
        <ele>300.1</ele>
        <time>2023-05-28T12:56:10Z</time>
      </trkpt>
      <trkpt lat="43.52556" lon="5.54121">
        <ele>300.1</ele>
        <time>2023-05-28T12:56:11Z</time>
      </trkpt>
      <trkpt lat="43.52556" lon="5.54121">
        <ele>300.1</ele>
        <time>2023-05-28T12:56:12Z</time>
      </trkpt>
      <trkpt lat="43.52556" lon="5.5412">
        <ele>300.1</ele>
        <time>2023-05-28T12:56:13Z</time>
      </trkpt>
      <trkpt lat="43.52556" lon="5.5412">
        <ele>300.1</ele>
        <time>2023-05-28T12:56:14Z</time>
      </trkpt>
      <trkpt lat="43.52556" lon="5.5412">
        <ele>300</ele>
        <time>2023-05-28T12:56:15Z</time>
      </trkpt>
      <trkpt lat="43.52556" lon="5.5412">
        <ele>300</ele>
        <time>2023-05-28T12:56:16Z</time>
      </trkpt>
      <trkpt lat="43.52556" lon="5.5412">
        <ele>300</ele>
        <time>2023-05-28T12:56:17Z</time>
      </trkpt>
      <trkpt lat="43.52556" lon="5.5412">
        <ele>300</ele>
        <time>2023-05-28T12:56:18Z</time>
      </trkpt>
      <trkpt lat="43.52556" lon="5.5412">
        <ele>299.9</ele>
        <time>2023-05-28T12:56:19Z</time>
      </trkpt>
      <trkpt lat="43.52556" lon="5.5412">
        <ele>299.9</ele>
        <time>2023-05-28T12:56:20Z</time>
      </trkpt>
      <trkpt lat="43.52556" lon="5.5412">
        <ele>299.9</ele>
        <time>2023-05-28T12:56:21Z</time>
      </trkpt>
      <trkpt lat="43.52556" lon="5.5412">
        <ele>299.9</ele>
        <time>2023-05-28T12:56:22Z</time>
      </trkpt>
      <trkpt lat="43.52556" lon="5.5412">
        <ele>299.9</ele>
        <time>2023-05-28T12:56:23Z</time>
      </trkpt>
      <trkpt lat="43.52556" lon="5.5412">
        <ele>300</ele>
        <time>2023-05-28T12:56:24Z</time>
      </trkpt>
      <trkpt lat="43.52556" lon="5.5412">
        <ele>300</ele>
        <time>2023-05-28T12:56:25Z</time>
      </trkpt>
      <trkpt lat="43.52556" lon="5.5412">
        <ele>300.1</ele>
        <time>2023-05-28T12:56:26Z</time>
      </trkpt>
      <trkpt lat="43.52556" lon="5.5412">
        <ele>300.1</ele>
        <time>2023-05-28T12:56:27Z</time>
      </trkpt>
      <trkpt lat="43.52556" lon="5.5412">
        <ele>300.1</ele>
        <time>2023-05-28T12:56:28Z</time>
      </trkpt>
      <trkpt lat="43.52555" lon="5.5412">
        <ele>300.1</ele>
        <time>2023-05-28T12:56:29Z</time>
      </trkpt>
      <trkpt lat="43.52555" lon="5.54121">
        <ele>300.1</ele>
        <time>2023-05-28T12:56:30Z</time>
      </trkpt>
      <trkpt lat="43.52555" lon="5.5412">
        <ele>300.1</ele>
        <time>2023-05-28T12:56:31Z</time>
      </trkpt>
      <trkpt lat="43.52556" lon="5.5412">
        <ele>300</ele>
        <time>2023-05-28T12:56:32Z</time>
      </trkpt>
      <trkpt lat="43.52556" lon="5.54121">
        <ele>300</ele>
        <time>2023-05-28T12:56:33Z</time>
      </trkpt>
      <trkpt lat="43.52556" lon="5.54121">
        <ele>300</ele>
        <time>2023-05-28T12:56:34Z</time>
      </trkpt>
      <trkpt lat="43.52556" lon="5.54121">
        <ele>300</ele>
        <time>2023-05-28T12:56:35Z</time>
      </trkpt>
      <trkpt lat="43.52556" lon="5.54121">
        <ele>300</ele>
        <time>2023-05-28T12:56:36Z</time>
      </trkpt>
      <trkpt lat="43.52556" lon="5.54121">
        <ele>300</ele>
        <time>2023-05-28T12:56:37Z</time>
      </trkpt>
      <trkpt lat="43.52556" lon="5.54121">
        <ele>300</ele>
        <time>2023-05-28T12:56:38Z</time>
      </trkpt>
      <trkpt lat="43.52556" lon="5.54121">
        <ele>299.9</ele>
        <time>2023-05-28T12:56:39Z</time>
      </trkpt>
      <trkpt lat="43.52556" lon="5.54121">
        <ele>299.8</ele>
        <time>2023-05-28T12:56:40Z</time>
      </trkpt>
      <trkpt lat="43.52556" lon="5.54121">
        <ele>299.8</ele>
        <time>2023-05-28T12:56:41Z</time>
      </trkpt>
      <trkpt lat="43.52556" lon="5.54121">
        <ele>299.7</ele>
        <time>2023-05-28T12:56:42Z</time>
      </trkpt>
      <trkpt lat="43.52556" lon="5.54121">
        <ele>299.7</ele>
        <time>2023-05-28T12:56:43Z</time>
      </trkpt>
      <trkpt lat="43.52556" lon="5.54121">
        <ele>299.7</ele>
        <time>2023-05-28T12:56:44Z</time>
      </trkpt>
      <trkpt lat="43.52556" lon="5.54121">
        <ele>299.7</ele>
        <time>2023-05-28T12:56:45Z</time>
      </trkpt>
      <trkpt lat="43.52556" lon="5.54121">
        <ele>299.7</ele>
        <time>2023-05-28T12:56:46Z</time>
      </trkpt>
      <trkpt lat="43.52557" lon="5.54121">
        <ele>299.7</ele>
        <time>2023-05-28T12:56:47Z</time>
      </trkpt>
      <trkpt lat="43.52557" lon="5.54121">
        <ele>299.7</ele>
        <time>2023-05-28T12:56:48Z</time>
      </trkpt>
      <trkpt lat="43.52556" lon="5.54121">
        <ele>299.6</ele>
        <time>2023-05-28T12:56:49Z</time>
      </trkpt>
      <trkpt lat="43.52557" lon="5.54121">
        <ele>299.5</ele>
        <time>2023-05-28T12:56:50Z</time>
      </trkpt>
      <trkpt lat="43.52557" lon="5.54121">
        <ele>299.5</ele>
        <time>2023-05-28T12:56:51Z</time>
      </trkpt>
      <trkpt lat="43.52557" lon="5.54121">
        <ele>299.4</ele>
        <time>2023-05-28T12:56:52Z</time>
      </trkpt>
      <trkpt lat="43.52557" lon="5.54121">
        <ele>299.5</ele>
        <time>2023-05-28T12:56:53Z</time>
      </trkpt>
      <trkpt lat="43.52557" lon="5.54121">
        <ele>299.5</ele>
        <time>2023-05-28T12:56:54Z</time>
      </trkpt>
      <trkpt lat="43.52557" lon="5.54121">
        <ele>299.6</ele>
        <time>2023-05-28T12:56:55Z</time>
      </trkpt>
      <trkpt lat="43.52557" lon="5.5412">
        <ele>299.6</ele>
        <time>2023-05-28T12:56:56Z</time>
      </trkpt>
      <trkpt lat="43.52556" lon="5.54121">
        <ele>299.5</ele>
        <time>2023-05-28T12:56:57Z</time>
      </trkpt>
      <trkpt lat="43.52556" lon="5.54121">
        <ele>299.6</ele>
        <time>2023-05-28T12:56:58Z</time>
      </trkpt>
      <trkpt lat="43.52556" lon="5.54121">
        <ele>299.6</ele>
        <time>2023-05-28T12:56:59Z</time>
      </trkpt>
      <trkpt lat="43.52556" lon="5.54121">
        <ele>299.6</ele>
        <time>2023-05-28T12:57:00Z</time>
      </trkpt>
      <trkpt lat="43.52556" lon="5.54121">
        <ele>299.6</ele>
        <time>2023-05-28T12:57:01Z</time>
      </trkpt>
      <trkpt lat="43.52555" lon="5.54121">
        <ele>299.7</ele>
        <time>2023-05-28T12:57:02Z</time>
      </trkpt>
      <trkpt lat="43.52555" lon="5.54121">
        <ele>299.8</ele>
        <time>2023-05-28T12:57:03Z</time>
      </trkpt>
      <trkpt lat="43.52555" lon="5.54121">
        <ele>299.8</ele>
        <time>2023-05-28T12:57:04Z</time>
      </trkpt>
      <trkpt lat="43.52555" lon="5.54121">
        <ele>299.8</ele>
        <time>2023-05-28T12:57:05Z</time>
      </trkpt>
      <trkpt lat="43.52555" lon="5.54121">
        <ele>299.8</ele>
        <time>2023-05-28T12:57:06Z</time>
      </trkpt>
      <trkpt lat="43.52555" lon="5.54121">
        <ele>299.8</ele>
        <time>2023-05-28T12:57:07Z</time>
      </trkpt>
      <trkpt lat="43.52555" lon="5.5412">
        <ele>299.8</ele>
        <time>2023-05-28T12:57:08Z</time>
      </trkpt>
      <trkpt lat="43.52554" lon="5.5412">
        <ele>299.8</ele>
        <time>2023-05-28T12:57:09Z</time>
      </trkpt>
      <trkpt lat="43.52554" lon="5.5412">
        <ele>299.9</ele>
        <time>2023-05-28T12:57:10Z</time>
      </trkpt>
      <trkpt lat="43.52554" lon="5.54121">
        <ele>299.8</ele>
        <time>2023-05-28T12:57:11Z</time>
      </trkpt>
      <trkpt lat="43.52554" lon="5.54121">
        <ele>299.8</ele>
        <time>2023-05-28T12:57:12Z</time>
      </trkpt>
      <trkpt lat="43.52554" lon="5.54121">
        <ele>299.8</ele>
        <time>2023-05-28T12:57:13Z</time>
      </trkpt>
      <trkpt lat="43.52554" lon="5.54121">
        <ele>299.8</ele>
        <time>2023-05-28T12:57:14Z</time>
      </trkpt>
      <trkpt lat="43.52554" lon="5.54121">
        <ele>299.8</ele>
        <time>2023-05-28T12:57:15Z</time>
      </trkpt>
      <trkpt lat="43.52554" lon="5.54121">
        <ele>299.8</ele>
        <time>2023-05-28T12:57:16Z</time>
      </trkpt>
      <trkpt lat="43.52554" lon="5.54121">
        <ele>299.8</ele>
        <time>2023-05-28T12:57:17Z</time>
      </trkpt>
      <trkpt lat="43.52554" lon="5.54121">
        <ele>299.8</ele>
        <time>2023-05-28T12:57:18Z</time>
      </trkpt>
      <trkpt lat="43.52554" lon="5.54121">
        <ele>299.9</ele>
        <time>2023-05-28T12:57:19Z</time>
      </trkpt>
      <trkpt lat="43.52554" lon="5.54121">
        <ele>299.9</ele>
        <time>2023-05-28T12:57:20Z</time>
      </trkpt>
      <trkpt lat="43.52554" lon="5.54121">
        <ele>299.9</ele>
        <time>2023-05-28T12:57:21Z</time>
      </trkpt>
      <trkpt lat="43.52555" lon="5.54121">
        <ele>300</ele>
        <time>2023-05-28T12:57:22Z</time>
      </trkpt>
      <trkpt lat="43.52555" lon="5.5412">
        <ele>300</ele>
        <time>2023-05-28T12:57:23Z</time>
      </trkpt>
      <trkpt lat="43.52555" lon="5.54119">
        <ele>299.9</ele>
        <time>2023-05-28T12:57:24Z</time>
      </trkpt>
      <trkpt lat="43.52555" lon="5.54119">
        <ele>299.8</ele>
        <time>2023-05-28T12:57:25Z</time>
      </trkpt>
      <trkpt lat="43.52555" lon="5.54118">
        <ele>299.9</ele>
        <time>2023-05-28T12:57:26Z</time>
      </trkpt>
      <trkpt lat="43.52555" lon="5.54118">
        <ele>299.9</ele>
        <time>2023-05-28T12:57:27Z</time>
      </trkpt>
      <trkpt lat="43.52555" lon="5.54118">
        <ele>300</ele>
        <time>2023-05-28T12:57:28Z</time>
      </trkpt>
      <trkpt lat="43.52555" lon="5.54118">
        <ele>299.9</ele>
        <time>2023-05-28T12:57:29Z</time>
      </trkpt>
      <trkpt lat="43.52554" lon="5.54118">
        <ele>299.9</ele>
        <time>2023-05-28T12:57:30Z</time>
      </trkpt>
      <trkpt lat="43.52554" lon="5.54118">
        <ele>299.9</ele>
        <time>2023-05-28T12:57:31Z</time>
      </trkpt>
      <trkpt lat="43.52554" lon="5.54118">
        <ele>299.9</ele>
        <time>2023-05-28T12:57:32Z</time>
      </trkpt>
      <trkpt lat="43.52554" lon="5.54118">
        <ele>299.9</ele>
        <time>2023-05-28T12:57:33Z</time>
      </trkpt>
      <trkpt lat="43.52554" lon="5.54118">
        <ele>300</ele>
        <time>2023-05-28T12:57:34Z</time>
      </trkpt>
      <trkpt lat="43.52554" lon="5.54118">
        <ele>300</ele>
        <time>2023-05-28T12:57:35Z</time>
      </trkpt>
      <trkpt lat="43.52554" lon="5.54118">
        <ele>299.9</ele>
        <time>2023-05-28T12:57:36Z</time>
      </trkpt>
      <trkpt lat="43.52554" lon="5.54119">
        <ele>299.9</ele>
        <time>2023-05-28T12:57:37Z</time>
      </trkpt>
      <trkpt lat="43.52554" lon="5.54119">
        <ele>300</ele>
        <time>2023-05-28T12:57:38Z</time>
      </trkpt>
      <trkpt lat="43.52554" lon="5.54119">
        <ele>299.9</ele>
        <time>2023-05-28T12:57:39Z</time>
      </trkpt>
      <trkpt lat="43.52554" lon="5.54118">
        <ele>300</ele>
        <time>2023-05-28T12:57:40Z</time>
      </trkpt>
      <trkpt lat="43.52554" lon="5.54118">
        <ele>300</ele>
        <time>2023-05-28T12:57:41Z</time>
      </trkpt>
      <trkpt lat="43.52554" lon="5.54117">
        <ele>300</ele>
        <time>2023-05-28T12:57:42Z</time>
      </trkpt>
      <trkpt lat="43.52555" lon="5.54117">
        <ele>299.9</ele>
        <time>2023-05-28T12:57:43Z</time>
      </trkpt>
      <trkpt lat="43.52555" lon="5.54116">
        <ele>299.9</ele>
        <time>2023-05-28T12:57:44Z</time>
      </trkpt>
      <trkpt lat="43.52555" lon="5.54116">
        <ele>299.8</ele>
        <time>2023-05-28T12:57:45Z</time>
      </trkpt>
      <trkpt lat="43.52556" lon="5.54116">
        <ele>299.8</ele>
        <time>2023-05-28T12:57:46Z</time>
      </trkpt>
      <trkpt lat="43.52556" lon="5.54115">
        <ele>299.7</ele>
        <time>2023-05-28T12:57:47Z</time>
      </trkpt>
      <trkpt lat="43.52557" lon="5.54114">
        <ele>299.7</ele>
        <time>2023-05-28T12:57:48Z</time>
      </trkpt>
      <trkpt lat="43.52557" lon="5.54113">
        <ele>299.7</ele>
        <time>2023-05-28T12:57:49Z</time>
      </trkpt>
      <trkpt lat="43.52557" lon="5.54112">
        <ele>299.7</ele>
        <time>2023-05-28T12:57:50Z</time>
      </trkpt>
      <trkpt lat="43.52557" lon="5.54111">
        <ele>299.8</ele>
        <time>2023-05-28T12:57:51Z</time>
      </trkpt>
      <trkpt lat="43.52557" lon="5.54111">
        <ele>299.8</ele>
        <time>2023-05-28T12:57:52Z</time>
      </trkpt>
      <trkpt lat="43.52556" lon="5.5411">
        <ele>299.8</ele>
        <time>2023-05-28T12:57:53Z</time>
      </trkpt>
      <trkpt lat="43.52556" lon="5.54109">
        <ele>299.8</ele>
        <time>2023-05-28T12:57:54Z</time>
      </trkpt>
      <trkpt lat="43.52556" lon="5.54109">
        <ele>299.9</ele>
        <time>2023-05-28T12:57:55Z</time>
      </trkpt>
      <trkpt lat="43.52556" lon="5.54108">
        <ele>299.9</ele>
        <time>2023-05-28T12:57:56Z</time>
      </trkpt>
      <trkpt lat="43.52556" lon="5.54108">
        <ele>300.1</ele>
        <time>2023-05-28T12:57:57Z</time>
      </trkpt>
      <trkpt lat="43.52556" lon="5.54108">
        <ele>300.1</ele>
        <time>2023-05-28T12:57:58Z</time>
      </trkpt>
      <trkpt lat="43.52556" lon="5.54108">
        <ele>300.1</ele>
        <time>2023-05-28T12:57:59Z</time>
      </trkpt>
      <trkpt lat="43.52556" lon="5.54107">
        <ele>300.1</ele>
        <time>2023-05-28T12:58:00Z</time>
      </trkpt>
      <trkpt lat="43.52556" lon="5.54107">
        <ele>300.1</ele>
        <time>2023-05-28T12:58:01Z</time>
      </trkpt>
      <trkpt lat="43.52556" lon="5.54107">
        <ele>300</ele>
        <time>2023-05-28T12:58:02Z</time>
      </trkpt>
      <trkpt lat="43.52556" lon="5.54107">
        <ele>300</ele>
        <time>2023-05-28T12:58:03Z</time>
      </trkpt>
      <trkpt lat="43.52556" lon="5.54107">
        <ele>300</ele>
        <time>2023-05-28T12:58:04Z</time>
      </trkpt>
      <trkpt lat="43.52556" lon="5.54107">
        <ele>300</ele>
        <time>2023-05-28T12:58:05Z</time>
      </trkpt>
      <trkpt lat="43.52556" lon="5.54107">
        <ele>300.1</ele>
        <time>2023-05-28T12:58:06Z</time>
      </trkpt>
      <trkpt lat="43.52556" lon="5.54108">
        <ele>300.2</ele>
        <time>2023-05-28T12:58:07Z</time>
      </trkpt>
      <trkpt lat="43.52556" lon="5.54108">
        <ele>300.2</ele>
        <time>2023-05-28T12:58:08Z</time>
      </trkpt>
      <trkpt lat="43.52557" lon="5.54108">
        <ele>300.2</ele>
        <time>2023-05-28T12:58:09Z</time>
      </trkpt>
      <trkpt lat="43.52557" lon="5.54107">
        <ele>300.3</ele>
        <time>2023-05-28T12:58:10Z</time>
      </trkpt>
      <trkpt lat="43.52557" lon="5.54107">
        <ele>300.2</ele>
        <time>2023-05-28T12:58:11Z</time>
      </trkpt>
      <trkpt lat="43.52557" lon="5.54107">
        <ele>300.2</ele>
        <time>2023-05-28T12:58:12Z</time>
      </trkpt>
      <trkpt lat="43.52557" lon="5.54106">
        <ele>300.2</ele>
        <time>2023-05-28T12:58:13Z</time>
      </trkpt>
      <trkpt lat="43.52557" lon="5.54106">
        <ele>300.1</ele>
        <time>2023-05-28T12:58:14Z</time>
      </trkpt>
      <trkpt lat="43.52557" lon="5.54106">
        <ele>300</ele>
        <time>2023-05-28T12:58:15Z</time>
      </trkpt>
      <trkpt lat="43.52557" lon="5.54106">
        <ele>299.9</ele>
        <time>2023-05-28T12:58:16Z</time>
      </trkpt>
      <trkpt lat="43.52558" lon="5.54106">
        <ele>300</ele>
        <time>2023-05-28T12:58:17Z</time>
      </trkpt>
      <trkpt lat="43.52558" lon="5.54105">
        <ele>300</ele>
        <time>2023-05-28T12:58:18Z</time>
      </trkpt>
      <trkpt lat="43.52558" lon="5.54105">
        <ele>300</ele>
        <time>2023-05-28T12:58:19Z</time>
      </trkpt>
      <trkpt lat="43.52558" lon="5.54105">
        <ele>300</ele>
        <time>2023-05-28T12:58:20Z</time>
      </trkpt>
      <trkpt lat="43.52558" lon="5.54105">
        <ele>300</ele>
        <time>2023-05-28T12:58:21Z</time>
      </trkpt>
      <trkpt lat="43.52557" lon="5.54106">
        <ele>300</ele>
        <time>2023-05-28T12:58:22Z</time>
      </trkpt>
      <trkpt lat="43.52557" lon="5.54106">
        <ele>299.9</ele>
        <time>2023-05-28T12:58:23Z</time>
      </trkpt>
      <trkpt lat="43.52558" lon="5.54106">
        <ele>299.9</ele>
        <time>2023-05-28T12:58:24Z</time>
      </trkpt>
      <trkpt lat="43.52558" lon="5.54106">
        <ele>299.8</ele>
        <time>2023-05-28T12:58:25Z</time>
      </trkpt>
      <trkpt lat="43.52558" lon="5.54106">
        <ele>299.8</ele>
        <time>2023-05-28T12:58:26Z</time>
      </trkpt>
      <trkpt lat="43.52558" lon="5.54106">
        <ele>299.9</ele>
        <time>2023-05-28T12:58:27Z</time>
      </trkpt>
      <trkpt lat="43.52558" lon="5.54107">
        <ele>299.8</ele>
        <time>2023-05-28T12:58:28Z</time>
      </trkpt>
      <trkpt lat="43.52558" lon="5.54107">
        <ele>299.8</ele>
        <time>2023-05-28T12:58:29Z</time>
      </trkpt>
      <trkpt lat="43.52558" lon="5.54107">
        <ele>299.9</ele>
        <time>2023-05-28T12:58:30Z</time>
      </trkpt>
      <trkpt lat="43.52558" lon="5.54107">
        <ele>299.8</ele>
        <time>2023-05-28T12:58:31Z</time>
      </trkpt>
      <trkpt lat="43.52558" lon="5.54107">
        <ele>299.8</ele>
        <time>2023-05-28T12:58:32Z</time>
      </trkpt>
      <trkpt lat="43.52559" lon="5.54107">
        <ele>299.8</ele>
        <time>2023-05-28T12:58:33Z</time>
      </trkpt>
      <trkpt lat="43.52559" lon="5.54107">
        <ele>299.8</ele>
        <time>2023-05-28T12:58:34Z</time>
      </trkpt>
      <trkpt lat="43.52559" lon="5.54107">
        <ele>299.8</ele>
        <time>2023-05-28T12:58:35Z</time>
      </trkpt>
      <trkpt lat="43.52559" lon="5.54107">
        <ele>299.8</ele>
        <time>2023-05-28T12:58:36Z</time>
      </trkpt>
      <trkpt lat="43.52559" lon="5.54107">
        <ele>299.8</ele>
        <time>2023-05-28T12:58:37Z</time>
      </trkpt>
      <trkpt lat="43.52559" lon="5.54107">
        <ele>299.8</ele>
        <time>2023-05-28T12:58:38Z</time>
      </trkpt>
      <trkpt lat="43.52559" lon="5.54107">
        <ele>299.8</ele>
        <time>2023-05-28T12:58:39Z</time>
      </trkpt>
      <trkpt lat="43.52559" lon="5.54107">
        <ele>299.8</ele>
        <time>2023-05-28T12:58:40Z</time>
      </trkpt>
      <trkpt lat="43.52559" lon="5.54108">
        <ele>299.7</ele>
        <time>2023-05-28T12:58:41Z</time>
      </trkpt>
      <trkpt lat="43.52559" lon="5.54108">
        <ele>299.8</ele>
        <time>2023-05-28T12:58:42Z</time>
      </trkpt>
      <trkpt lat="43.52559" lon="5.54108">
        <ele>299.8</ele>
        <time>2023-05-28T12:58:43Z</time>
      </trkpt>
      <trkpt lat="43.52559" lon="5.54108">
        <ele>299.8</ele>
        <time>2023-05-28T12:58:44Z</time>
      </trkpt>
      <trkpt lat="43.52559" lon="5.54108">
        <ele>299.8</ele>
        <time>2023-05-28T12:58:45Z</time>
      </trkpt>
      <trkpt lat="43.52559" lon="5.54108">
        <ele>299.8</ele>
        <time>2023-05-28T12:58:46Z</time>
      </trkpt>
      <trkpt lat="43.52559" lon="5.54108">
        <ele>299.7</ele>
        <time>2023-05-28T12:58:47Z</time>
      </trkpt>
      <trkpt lat="43.52558" lon="5.54108">
        <ele>299.8</ele>
        <time>2023-05-28T12:58:48Z</time>
      </trkpt>
      <trkpt lat="43.52558" lon="5.54109">
        <ele>299.8</ele>
        <time>2023-05-28T12:58:49Z</time>
      </trkpt>
      <trkpt lat="43.52558" lon="5.54109">
        <ele>299.9</ele>
        <time>2023-05-28T12:58:50Z</time>
      </trkpt>
      <trkpt lat="43.52558" lon="5.54109">
        <ele>299.8</ele>
        <time>2023-05-28T12:58:51Z</time>
      </trkpt>
      <trkpt lat="43.52558" lon="5.5411">
        <ele>299.8</ele>
        <time>2023-05-28T12:58:52Z</time>
      </trkpt>
      <trkpt lat="43.52558" lon="5.5411">
        <ele>299.7</ele>
        <time>2023-05-28T12:58:53Z</time>
      </trkpt>
      <trkpt lat="43.52558" lon="5.5411">
        <ele>299.7</ele>
        <time>2023-05-28T12:58:54Z</time>
      </trkpt>
      <trkpt lat="43.52558" lon="5.54111">
        <ele>299.8</ele>
        <time>2023-05-28T12:58:55Z</time>
      </trkpt>
      <trkpt lat="43.52558" lon="5.54111">
        <ele>299.8</ele>
        <time>2023-05-28T12:58:56Z</time>
      </trkpt>
      <trkpt lat="43.52558" lon="5.54111">
        <ele>299.9</ele>
        <time>2023-05-28T12:58:57Z</time>
      </trkpt>
      <trkpt lat="43.52558" lon="5.54112">
        <ele>299.9</ele>
        <time>2023-05-28T12:58:58Z</time>
      </trkpt>
      <trkpt lat="43.52558" lon="5.54112">
        <ele>299.9</ele>
        <time>2023-05-28T12:58:59Z</time>
      </trkpt>
      <trkpt lat="43.52558" lon="5.54112">
        <ele>300</ele>
        <time>2023-05-28T12:59:00Z</time>
      </trkpt>
      <trkpt lat="43.52558" lon="5.54113">
        <ele>300</ele>
        <time>2023-05-28T12:59:01Z</time>
      </trkpt>
      <trkpt lat="43.52558" lon="5.54113">
        <ele>299.8</ele>
        <time>2023-05-28T12:59:02Z</time>
      </trkpt>
      <trkpt lat="43.52558" lon="5.54113">
        <ele>299.8</ele>
        <time>2023-05-28T12:59:03Z</time>
      </trkpt>
      <trkpt lat="43.52558" lon="5.54114">
        <ele>299.7</ele>
        <time>2023-05-28T12:59:04Z</time>
      </trkpt>
      <trkpt lat="43.52558" lon="5.54114">
        <ele>299.6</ele>
        <time>2023-05-28T12:59:05Z</time>
      </trkpt>
      <trkpt lat="43.52558" lon="5.54113">
        <ele>299.5</ele>
        <time>2023-05-28T12:59:06Z</time>
      </trkpt>
      <trkpt lat="43.52558" lon="5.54113">
        <ele>299.5</ele>
        <time>2023-05-28T12:59:07Z</time>
      </trkpt>
      <trkpt lat="43.52558" lon="5.54113">
        <ele>299.4</ele>
        <time>2023-05-28T12:59:08Z</time>
      </trkpt>
      <trkpt lat="43.52558" lon="5.54113">
        <ele>299.4</ele>
        <time>2023-05-28T12:59:09Z</time>
      </trkpt>
      <trkpt lat="43.52558" lon="5.54113">
        <ele>299.4</ele>
        <time>2023-05-28T12:59:10Z</time>
      </trkpt>
      <trkpt lat="43.52558" lon="5.54113">
        <ele>299.4</ele>
        <time>2023-05-28T12:59:11Z</time>
      </trkpt>
      <trkpt lat="43.52557" lon="5.54113">
        <ele>299.3</ele>
        <time>2023-05-28T12:59:12Z</time>
      </trkpt>
      <trkpt lat="43.52557" lon="5.54113">
        <ele>299.3</ele>
        <time>2023-05-28T12:59:13Z</time>
      </trkpt>
      <trkpt lat="43.52557" lon="5.54113">
        <ele>299.3</ele>
        <time>2023-05-28T12:59:14Z</time>
      </trkpt>
      <trkpt lat="43.52557" lon="5.54113">
        <ele>299.3</ele>
        <time>2023-05-28T12:59:15Z</time>
      </trkpt>
      <trkpt lat="43.52557" lon="5.54113">
        <ele>299.3</ele>
        <time>2023-05-28T12:59:16Z</time>
      </trkpt>
      <trkpt lat="43.52557" lon="5.54113">
        <ele>299.3</ele>
        <time>2023-05-28T12:59:17Z</time>
      </trkpt>
      <trkpt lat="43.52557" lon="5.54113">
        <ele>299.4</ele>
        <time>2023-05-28T12:59:18Z</time>
      </trkpt>
      <trkpt lat="43.52557" lon="5.54113">
        <ele>299.5</ele>
        <time>2023-05-28T12:59:19Z</time>
      </trkpt>
      <trkpt lat="43.52557" lon="5.54113">
        <ele>299.5</ele>
        <time>2023-05-28T12:59:20Z</time>
      </trkpt>
      <trkpt lat="43.52556" lon="5.54113">
        <ele>299.5</ele>
        <time>2023-05-28T12:59:21Z</time>
      </trkpt>
      <trkpt lat="43.52556" lon="5.54113">
        <ele>299.5</ele>
        <time>2023-05-28T12:59:22Z</time>
      </trkpt>
      <trkpt lat="43.52556" lon="5.54113">
        <ele>299.6</ele>
        <time>2023-05-28T12:59:23Z</time>
      </trkpt>
      <trkpt lat="43.52556" lon="5.54113">
        <ele>299.6</ele>
        <time>2023-05-28T12:59:24Z</time>
      </trkpt>
      <trkpt lat="43.52556" lon="5.54113">
        <ele>299.6</ele>
        <time>2023-05-28T12:59:25Z</time>
      </trkpt>
      <trkpt lat="43.52556" lon="5.54113">
        <ele>299.6</ele>
        <time>2023-05-28T12:59:26Z</time>
      </trkpt>
      <trkpt lat="43.52556" lon="5.54113">
        <ele>299.6</ele>
        <time>2023-05-28T12:59:27Z</time>
      </trkpt>
      <trkpt lat="43.52556" lon="5.54113">
        <ele>299.5</ele>
        <time>2023-05-28T12:59:28Z</time>
      </trkpt>
      <trkpt lat="43.52556" lon="5.54113">
        <ele>299.4</ele>
        <time>2023-05-28T12:59:29Z</time>
      </trkpt>
      <trkpt lat="43.52556" lon="5.54113">
        <ele>299.4</ele>
        <time>2023-05-28T12:59:30Z</time>
      </trkpt>
      <trkpt lat="43.52555" lon="5.54113">
        <ele>299.4</ele>
        <time>2023-05-28T12:59:31Z</time>
      </trkpt>
      <trkpt lat="43.52555" lon="5.54113">
        <ele>299.4</ele>
        <time>2023-05-28T12:59:32Z</time>
      </trkpt>
      <trkpt lat="43.52555" lon="5.54113">
        <ele>299.3</ele>
        <time>2023-05-28T12:59:33Z</time>
      </trkpt>
      <trkpt lat="43.52555" lon="5.54113">
        <ele>299.3</ele>
        <time>2023-05-28T12:59:34Z</time>
      </trkpt>
      <trkpt lat="43.52555" lon="5.54114">
        <ele>299.3</ele>
        <time>2023-05-28T12:59:35Z</time>
      </trkpt>
      <trkpt lat="43.52555" lon="5.54114">
        <ele>299.3</ele>
        <time>2023-05-28T12:59:36Z</time>
      </trkpt>
      <trkpt lat="43.52555" lon="5.54114">
        <ele>299.3</ele>
        <time>2023-05-28T12:59:37Z</time>
      </trkpt>
      <trkpt lat="43.52555" lon="5.54114">
        <ele>299.3</ele>
        <time>2023-05-28T12:59:38Z</time>
      </trkpt>
      <trkpt lat="43.52555" lon="5.54114">
        <ele>299.3</ele>
        <time>2023-05-28T12:59:39Z</time>
      </trkpt>
      <trkpt lat="43.52555" lon="5.54114">
        <ele>299.3</ele>
        <time>2023-05-28T12:59:40Z</time>
      </trkpt>
      <trkpt lat="43.52554" lon="5.54114">
        <ele>299.3</ele>
        <time>2023-05-28T12:59:41Z</time>
      </trkpt>
      <trkpt lat="43.52554" lon="5.54114">
        <ele>299.3</ele>
        <time>2023-05-28T12:59:42Z</time>
      </trkpt>
      <trkpt lat="43.52554" lon="5.54115">
        <ele>299.3</ele>
        <time>2023-05-28T12:59:43Z</time>
      </trkpt>
      <trkpt lat="43.52554" lon="5.54115">
        <ele>299.2</ele>
        <time>2023-05-28T12:59:44Z</time>
      </trkpt>
      <trkpt lat="43.52554" lon="5.54115">
        <ele>299.2</ele>
        <time>2023-05-28T12:59:45Z</time>
      </trkpt>
      <trkpt lat="43.52554" lon="5.54115">
        <ele>299.2</ele>
        <time>2023-05-28T12:59:46Z</time>
      </trkpt>
      <trkpt lat="43.52554" lon="5.54115">
        <ele>299.2</ele>
        <time>2023-05-28T12:59:47Z</time>
      </trkpt>
      <trkpt lat="43.52554" lon="5.54115">
        <ele>299.2</ele>
        <time>2023-05-28T12:59:48Z</time>
      </trkpt>
      <trkpt lat="43.52554" lon="5.54115">
        <ele>299.2</ele>
        <time>2023-05-28T12:59:49Z</time>
      </trkpt>
      <trkpt lat="43.52554" lon="5.54115">
        <ele>299.3</ele>
        <time>2023-05-28T12:59:50Z</time>
      </trkpt>
      <trkpt lat="43.52554" lon="5.54115">
        <ele>299.3</ele>
        <time>2023-05-28T12:59:51Z</time>
      </trkpt>
      <trkpt lat="43.52554" lon="5.54115">
        <ele>299.3</ele>
        <time>2023-05-28T12:59:52Z</time>
      </trkpt>
      <trkpt lat="43.52554" lon="5.54115">
        <ele>299.3</ele>
        <time>2023-05-28T12:59:53Z</time>
      </trkpt>
      <trkpt lat="43.52554" lon="5.54116">
        <ele>299.4</ele>
        <time>2023-05-28T12:59:54Z</time>
      </trkpt>
      <trkpt lat="43.52554" lon="5.54116">
        <ele>299.5</ele>
        <time>2023-05-28T12:59:55Z</time>
      </trkpt>
      <trkpt lat="43.52554" lon="5.54116">
        <ele>299.5</ele>
        <time>2023-05-28T12:59:56Z</time>
      </trkpt>
      <trkpt lat="43.52554" lon="5.54116">
        <ele>299.5</ele>
        <time>2023-05-28T12:59:57Z</time>
      </trkpt>
      <trkpt lat="43.52553" lon="5.54117">
        <ele>299.6</ele>
        <time>2023-05-28T12:59:58Z</time>
      </trkpt>
      <trkpt lat="43.52553" lon="5.54117">
        <ele>299.5</ele>
        <time>2023-05-28T12:59:59Z</time>
      </trkpt>
      <trkpt lat="43.52553" lon="5.54117">
        <ele>299.5</ele>
        <time>2023-05-28T13:00:00Z</time>
      </trkpt>
      <trkpt lat="43.52553" lon="5.54117">
        <ele>299.5</ele>
        <time>2023-05-28T13:00:01Z</time>
      </trkpt>
      <trkpt lat="43.52554" lon="5.54117">
        <ele>299.4</ele>
        <time>2023-05-28T13:00:02Z</time>
      </trkpt>
      <trkpt lat="43.52554" lon="5.54117">
        <ele>299.5</ele>
        <time>2023-05-28T13:00:03Z</time>
      </trkpt>
      <trkpt lat="43.52553" lon="5.54117">
        <ele>299.5</ele>
        <time>2023-05-28T13:00:04Z</time>
      </trkpt>
      <trkpt lat="43.52554" lon="5.54117">
        <ele>299.5</ele>
        <time>2023-05-28T13:00:05Z</time>
      </trkpt>
      <trkpt lat="43.52554" lon="5.54117">
        <ele>299.5</ele>
        <time>2023-05-28T13:00:06Z</time>
      </trkpt>
      <trkpt lat="43.52554" lon="5.54117">
        <ele>299.6</ele>
        <time>2023-05-28T13:00:07Z</time>
      </trkpt>
      <trkpt lat="43.52554" lon="5.54117">
        <ele>299.6</ele>
        <time>2023-05-28T13:00:08Z</time>
      </trkpt>
      <trkpt lat="43.52553" lon="5.54117">
        <ele>299.6</ele>
        <time>2023-05-28T13:00:09Z</time>
      </trkpt>
      <trkpt lat="43.52553" lon="5.54117">
        <ele>299.6</ele>
        <time>2023-05-28T13:00:10Z</time>
      </trkpt>
      <trkpt lat="43.52553" lon="5.54117">
        <ele>299.6</ele>
        <time>2023-05-28T13:00:11Z</time>
      </trkpt>
      <trkpt lat="43.52553" lon="5.54117">
        <ele>299.6</ele>
        <time>2023-05-28T13:00:12Z</time>
      </trkpt>
      <trkpt lat="43.52553" lon="5.54117">
        <ele>299.6</ele>
        <time>2023-05-28T13:00:13Z</time>
      </trkpt>
      <trkpt lat="43.52553" lon="5.54117">
        <ele>299.7</ele>
        <time>2023-05-28T13:00:14Z</time>
      </trkpt>
      <trkpt lat="43.52553" lon="5.54117">
        <ele>299.8</ele>
        <time>2023-05-28T13:00:15Z</time>
      </trkpt>
      <trkpt lat="43.52553" lon="5.54118">
        <ele>299.8</ele>
        <time>2023-05-28T13:00:16Z</time>
      </trkpt>
      <trkpt lat="43.52553" lon="5.54118">
        <ele>299.9</ele>
        <time>2023-05-28T13:00:17Z</time>
      </trkpt>
      <trkpt lat="43.52553" lon="5.54118">
        <ele>299.9</ele>
        <time>2023-05-28T13:00:18Z</time>
      </trkpt>
      <trkpt lat="43.52553" lon="5.54118">
        <ele>299.9</ele>
        <time>2023-05-28T13:00:19Z</time>
      </trkpt>
      <trkpt lat="43.52553" lon="5.54118">
        <ele>299.9</ele>
        <time>2023-05-28T13:00:20Z</time>
      </trkpt>
      <trkpt lat="43.52553" lon="5.54118">
        <ele>299.8</ele>
        <time>2023-05-28T13:00:21Z</time>
      </trkpt>
      <trkpt lat="43.52553" lon="5.54118">
        <ele>299.8</ele>
        <time>2023-05-28T13:00:22Z</time>
      </trkpt>
      <trkpt lat="43.52553" lon="5.54118">
        <ele>299.8</ele>
        <time>2023-05-28T13:00:23Z</time>
      </trkpt>
      <trkpt lat="43.52553" lon="5.54118">
        <ele>299.8</ele>
        <time>2023-05-28T13:00:24Z</time>
      </trkpt>
      <trkpt lat="43.52553" lon="5.54118">
        <ele>299.7</ele>
        <time>2023-05-28T13:00:25Z</time>
      </trkpt>
      <trkpt lat="43.52553" lon="5.54118">
        <ele>299.6</ele>
        <time>2023-05-28T13:00:26Z</time>
      </trkpt>
      <trkpt lat="43.52553" lon="5.54118">
        <ele>299.6</ele>
        <time>2023-05-28T13:00:27Z</time>
      </trkpt>
      <trkpt lat="43.52553" lon="5.54118">
        <ele>299.6</ele>
        <time>2023-05-28T13:00:28Z</time>
      </trkpt>
      <trkpt lat="43.52553" lon="5.54119">
        <ele>299.6</ele>
        <time>2023-05-28T13:00:29Z</time>
      </trkpt>
      <trkpt lat="43.52553" lon="5.54119">
        <ele>299.6</ele>
        <time>2023-05-28T13:00:30Z</time>
      </trkpt>
      <trkpt lat="43.52553" lon="5.54119">
        <ele>299.6</ele>
        <time>2023-05-28T13:00:31Z</time>
      </trkpt>
      <trkpt lat="43.52553" lon="5.54119">
        <ele>299.6</ele>
        <time>2023-05-28T13:00:32Z</time>
      </trkpt>
      <trkpt lat="43.52554" lon="5.54119">
        <ele>299.5</ele>
        <time>2023-05-28T13:00:33Z</time>
      </trkpt>
      <trkpt lat="43.52554" lon="5.54119">
        <ele>299.5</ele>
        <time>2023-05-28T13:00:34Z</time>
      </trkpt>
      <trkpt lat="43.52554" lon="5.54119">
        <ele>299.6</ele>
        <time>2023-05-28T13:00:35Z</time>
      </trkpt>
      <trkpt lat="43.52554" lon="5.54119">
        <ele>299.6</ele>
        <time>2023-05-28T13:00:36Z</time>
      </trkpt>
      <trkpt lat="43.52554" lon="5.54119">
        <ele>299.6</ele>
        <time>2023-05-28T13:00:37Z</time>
      </trkpt>
      <trkpt lat="43.52554" lon="5.54119">
        <ele>299.7</ele>
        <time>2023-05-28T13:00:38Z</time>
      </trkpt>
      <trkpt lat="43.52554" lon="5.54119">
        <ele>299.7</ele>
        <time>2023-05-28T13:00:39Z</time>
      </trkpt>
      <trkpt lat="43.52554" lon="5.54119">
        <ele>299.7</ele>
        <time>2023-05-28T13:00:40Z</time>
      </trkpt>
      <trkpt lat="43.52554" lon="5.54119">
        <ele>299.8</ele>
        <time>2023-05-28T13:00:41Z</time>
      </trkpt>
      <trkpt lat="43.52554" lon="5.54119">
        <ele>299.8</ele>
        <time>2023-05-28T13:00:42Z</time>
      </trkpt>
      <trkpt lat="43.52554" lon="5.54119">
        <ele>299.8</ele>
        <time>2023-05-28T13:00:43Z</time>
      </trkpt>
      <trkpt lat="43.52554" lon="5.54119">
        <ele>299.8</ele>
        <time>2023-05-28T13:00:44Z</time>
      </trkpt>
      <trkpt lat="43.52554" lon="5.54119">
        <ele>299.8</ele>
        <time>2023-05-28T13:00:45Z</time>
      </trkpt>
      <trkpt lat="43.52554" lon="5.54119">
        <ele>299.8</ele>
        <time>2023-05-28T13:00:46Z</time>
      </trkpt>
      <trkpt lat="43.52554" lon="5.54119">
        <ele>299.8</ele>
        <time>2023-05-28T13:00:47Z</time>
      </trkpt>
      <trkpt lat="43.52554" lon="5.54119">
        <ele>299.8</ele>
        <time>2023-05-28T13:00:48Z</time>
      </trkpt>
      <trkpt lat="43.52554" lon="5.54119">
        <ele>299.8</ele>
        <time>2023-05-28T13:00:49Z</time>
      </trkpt>
      <trkpt lat="43.52554" lon="5.54119">
        <ele>299.9</ele>
        <time>2023-05-28T13:00:50Z</time>
      </trkpt>
      <trkpt lat="43.52554" lon="5.54119">
        <ele>299.9</ele>
        <time>2023-05-28T13:00:51Z</time>
      </trkpt>
      <trkpt lat="43.52554" lon="5.54119">
        <ele>299.9</ele>
        <time>2023-05-28T13:00:52Z</time>
      </trkpt>
      <trkpt lat="43.52554" lon="5.54119">
        <ele>299.9</ele>
        <time>2023-05-28T13:00:53Z</time>
      </trkpt>
      <trkpt lat="43.52554" lon="5.54119">
        <ele>299.9</ele>
        <time>2023-05-28T13:00:54Z</time>
      </trkpt>
      <trkpt lat="43.52554" lon="5.54119">
        <ele>299.9</ele>
        <time>2023-05-28T13:00:55Z</time>
      </trkpt>
      <trkpt lat="43.52554" lon="5.54119">
        <ele>299.9</ele>
        <time>2023-05-28T13:00:56Z</time>
      </trkpt>
      <trkpt lat="43.52554" lon="5.54119">
        <ele>299.9</ele>
        <time>2023-05-28T13:00:57Z</time>
      </trkpt>
      <trkpt lat="43.52554" lon="5.54119">
        <ele>299.9</ele>
        <time>2023-05-28T13:00:58Z</time>
      </trkpt>
      <trkpt lat="43.52554" lon="5.54119">
        <ele>299.9</ele>
        <time>2023-05-28T13:00:59Z</time>
      </trkpt>
      <trkpt lat="43.52554" lon="5.54119">
        <ele>299.9</ele>
        <time>2023-05-28T13:01:00Z</time>
      </trkpt>
      <trkpt lat="43.52554" lon="5.54118">
        <ele>299.9</ele>
        <time>2023-05-28T13:01:01Z</time>
      </trkpt>
      <trkpt lat="43.52555" lon="5.54118">
        <ele>299.9</ele>
        <time>2023-05-28T13:01:02Z</time>
      </trkpt>
      <trkpt lat="43.52555" lon="5.54118">
        <ele>299.9</ele>
        <time>2023-05-28T13:01:03Z</time>
      </trkpt>
      <trkpt lat="43.52554" lon="5.54118">
        <ele>299.8</ele>
        <time>2023-05-28T13:01:04Z</time>
      </trkpt>
      <trkpt lat="43.52554" lon="5.54118">
        <ele>299.8</ele>
        <time>2023-05-28T13:01:05Z</time>
      </trkpt>
      <trkpt lat="43.52554" lon="5.54118">
        <ele>299.8</ele>
        <time>2023-05-28T13:01:06Z</time>
      </trkpt>
      <trkpt lat="43.52554" lon="5.54119">
        <ele>299.8</ele>
        <time>2023-05-28T13:01:07Z</time>
      </trkpt>
      <trkpt lat="43.52554" lon="5.54118">
        <ele>299.8</ele>
        <time>2023-05-28T13:01:08Z</time>
      </trkpt>
      <trkpt lat="43.52554" lon="5.54119">
        <ele>299.7</ele>
        <time>2023-05-28T13:01:09Z</time>
      </trkpt>
      <trkpt lat="43.52554" lon="5.54119">
        <ele>299.7</ele>
        <time>2023-05-28T13:01:10Z</time>
      </trkpt>
      <trkpt lat="43.52554" lon="5.54119">
        <ele>299.6</ele>
        <time>2023-05-28T13:01:11Z</time>
      </trkpt>
      <trkpt lat="43.52554" lon="5.54119">
        <ele>299.7</ele>
        <time>2023-05-28T13:01:12Z</time>
      </trkpt>
      <trkpt lat="43.52554" lon="5.54119">
        <ele>299.7</ele>
        <time>2023-05-28T13:01:13Z</time>
      </trkpt>
      <trkpt lat="43.52554" lon="5.54119">
        <ele>299.8</ele>
        <time>2023-05-28T13:01:14Z</time>
      </trkpt>
      <trkpt lat="43.52554" lon="5.54119">
        <ele>299.8</ele>
        <time>2023-05-28T13:01:15Z</time>
      </trkpt>
      <trkpt lat="43.52553" lon="5.54119">
        <ele>299.9</ele>
        <time>2023-05-28T13:01:16Z</time>
      </trkpt>
      <trkpt lat="43.52553" lon="5.54119">
        <ele>299.8</ele>
        <time>2023-05-28T13:01:17Z</time>
      </trkpt>
      <trkpt lat="43.52553" lon="5.5412">
        <ele>299.8</ele>
        <time>2023-05-28T13:01:18Z</time>
      </trkpt>
      <trkpt lat="43.52553" lon="5.5412">
        <ele>299.8</ele>
        <time>2023-05-28T13:01:19Z</time>
      </trkpt>
      <trkpt lat="43.52553" lon="5.5412">
        <ele>299.9</ele>
        <time>2023-05-28T13:01:20Z</time>
      </trkpt>
      <trkpt lat="43.52553" lon="5.5412">
        <ele>299.9</ele>
        <time>2023-05-28T13:01:21Z</time>
      </trkpt>
      <trkpt lat="43.52553" lon="5.5412">
        <ele>299.9</ele>
        <time>2023-05-28T13:01:22Z</time>
      </trkpt>
      <trkpt lat="43.52553" lon="5.5412">
        <ele>299.9</ele>
        <time>2023-05-28T13:01:23Z</time>
      </trkpt>
      <trkpt lat="43.52553" lon="5.5412">
        <ele>299.9</ele>
        <time>2023-05-28T13:01:24Z</time>
      </trkpt>
      <trkpt lat="43.52553" lon="5.54121">
        <ele>299.9</ele>
        <time>2023-05-28T13:01:25Z</time>
      </trkpt>
      <trkpt lat="43.52553" lon="5.54121">
        <ele>299.9</ele>
        <time>2023-05-28T13:01:26Z</time>
      </trkpt>
      <trkpt lat="43.52553" lon="5.54121">
        <ele>299.9</ele>
        <time>2023-05-28T13:01:27Z</time>
      </trkpt>
      <trkpt lat="43.52553" lon="5.54121">
        <ele>299.9</ele>
        <time>2023-05-28T13:01:28Z</time>
      </trkpt>
      <trkpt lat="43.52553" lon="5.54121">
        <ele>299.9</ele>
        <time>2023-05-28T13:01:29Z</time>
      </trkpt>
      <trkpt lat="43.52553" lon="5.54121">
        <ele>299.9</ele>
        <time>2023-05-28T13:01:30Z</time>
      </trkpt>
      <trkpt lat="43.52553" lon="5.54121">
        <ele>299.9</ele>
        <time>2023-05-28T13:01:31Z</time>
      </trkpt>
      <trkpt lat="43.52553" lon="5.54121">
        <ele>299.9</ele>
        <time>2023-05-28T13:01:32Z</time>
      </trkpt>
      <trkpt lat="43.52552" lon="5.54121">
        <ele>299.9</ele>
        <time>2023-05-28T13:01:33Z</time>
      </trkpt>
      <trkpt lat="43.52552" lon="5.54121">
        <ele>299.9</ele>
        <time>2023-05-28T13:01:34Z</time>
      </trkpt>
      <trkpt lat="43.52552" lon="5.54121">
        <ele>299.9</ele>
        <time>2023-05-28T13:01:35Z</time>
      </trkpt>
      <trkpt lat="43.52552" lon="5.54121">
        <ele>299.9</ele>
        <time>2023-05-28T13:01:36Z</time>
      </trkpt>
      <trkpt lat="43.52552" lon="5.54121">
        <ele>299.9</ele>
        <time>2023-05-28T13:01:37Z</time>
      </trkpt>
      <trkpt lat="43.52552" lon="5.5412">
        <ele>299.9</ele>
        <time>2023-05-28T13:01:38Z</time>
      </trkpt>
      <trkpt lat="43.52552" lon="5.5412">
        <ele>299.9</ele>
        <time>2023-05-28T13:01:39Z</time>
      </trkpt>
      <trkpt lat="43.52552" lon="5.5412">
        <ele>300</ele>
        <time>2023-05-28T13:01:40Z</time>
      </trkpt>
      <trkpt lat="43.52552" lon="5.5412">
        <ele>300</ele>
        <time>2023-05-28T13:01:41Z</time>
      </trkpt>
      <trkpt lat="43.52552" lon="5.5412">
        <ele>300</ele>
        <time>2023-05-28T13:01:42Z</time>
      </trkpt>
      <trkpt lat="43.52552" lon="5.54119">
        <ele>300</ele>
        <time>2023-05-28T13:01:43Z</time>
      </trkpt>
      <trkpt lat="43.52552" lon="5.54119">
        <ele>300</ele>
        <time>2023-05-28T13:01:44Z</time>
      </trkpt>
      <trkpt lat="43.52552" lon="5.54119">
        <ele>300</ele>
        <time>2023-05-28T13:01:45Z</time>
      </trkpt>
      <trkpt lat="43.52552" lon="5.54119">
        <ele>300</ele>
        <time>2023-05-28T13:01:46Z</time>
      </trkpt>
      <trkpt lat="43.52552" lon="5.54119">
        <ele>300</ele>
        <time>2023-05-28T13:01:47Z</time>
      </trkpt>
      <trkpt lat="43.52552" lon="5.54119">
        <ele>300</ele>
        <time>2023-05-28T13:01:48Z</time>
      </trkpt>
      <trkpt lat="43.52552" lon="5.54119">
        <ele>300.1</ele>
        <time>2023-05-28T13:01:49Z</time>
      </trkpt>
      <trkpt lat="43.52552" lon="5.54119">
        <ele>300.1</ele>
        <time>2023-05-28T13:01:50Z</time>
      </trkpt>
      <trkpt lat="43.52552" lon="5.54119">
        <ele>300.1</ele>
        <time>2023-05-28T13:01:51Z</time>
      </trkpt>
      <trkpt lat="43.52552" lon="5.54119">
        <ele>300.1</ele>
        <time>2023-05-28T13:01:52Z</time>
      </trkpt>
      <trkpt lat="43.52552" lon="5.54119">
        <ele>300.1</ele>
        <time>2023-05-28T13:01:53Z</time>
      </trkpt>
      <trkpt lat="43.52552" lon="5.54119">
        <ele>300.1</ele>
        <time>2023-05-28T13:01:54Z</time>
      </trkpt>
      <trkpt lat="43.52552" lon="5.54119">
        <ele>300.1</ele>
        <time>2023-05-28T13:01:55Z</time>
      </trkpt>
      <trkpt lat="43.52552" lon="5.54119">
        <ele>300.1</ele>
        <time>2023-05-28T13:01:56Z</time>
      </trkpt>
      <trkpt lat="43.52552" lon="5.54119">
        <ele>300.1</ele>
        <time>2023-05-28T13:01:57Z</time>
      </trkpt>
      <trkpt lat="43.52552" lon="5.54119">
        <ele>300.1</ele>
        <time>2023-05-28T13:01:58Z</time>
      </trkpt>
      <trkpt lat="43.52552" lon="5.54119">
        <ele>300.1</ele>
        <time>2023-05-28T13:01:59Z</time>
      </trkpt>
      <trkpt lat="43.52552" lon="5.54119">
        <ele>300.1</ele>
        <time>2023-05-28T13:02:00Z</time>
      </trkpt>
      <trkpt lat="43.52552" lon="5.54119">
        <ele>300.1</ele>
        <time>2023-05-28T13:02:01Z</time>
      </trkpt>
      <trkpt lat="43.52552" lon="5.54119">
        <ele>300.1</ele>
        <time>2023-05-28T13:02:02Z</time>
      </trkpt>
      <trkpt lat="43.52552" lon="5.54119">
        <ele>300.1</ele>
        <time>2023-05-28T13:02:03Z</time>
      </trkpt>
      <trkpt lat="43.52552" lon="5.54119">
        <ele>300.2</ele>
        <time>2023-05-28T13:02:04Z</time>
      </trkpt>
      <trkpt lat="43.52552" lon="5.54118">
        <ele>300.2</ele>
        <time>2023-05-28T13:02:05Z</time>
      </trkpt>
      <trkpt lat="43.52552" lon="5.54118">
        <ele>300.2</ele>
        <time>2023-05-28T13:02:06Z</time>
      </trkpt>
      <trkpt lat="43.52552" lon="5.54118">
        <ele>300.3</ele>
        <time>2023-05-28T13:02:07Z</time>
      </trkpt>
      <trkpt lat="43.52552" lon="5.54118">
        <ele>300.3</ele>
        <time>2023-05-28T13:02:08Z</time>
      </trkpt>
      <trkpt lat="43.52552" lon="5.54118">
        <ele>300.3</ele>
        <time>2023-05-28T13:02:09Z</time>
      </trkpt>
      <trkpt lat="43.52552" lon="5.54118">
        <ele>300.2</ele>
        <time>2023-05-28T13:02:10Z</time>
      </trkpt>
      <trkpt lat="43.52552" lon="5.54117">
        <ele>300.2</ele>
        <time>2023-05-28T13:02:11Z</time>
      </trkpt>
      <trkpt lat="43.52553" lon="5.54117">
        <ele>300.2</ele>
        <time>2023-05-28T13:02:12Z</time>
      </trkpt>
      <trkpt lat="43.52553" lon="5.54117">
        <ele>300.3</ele>
        <time>2023-05-28T13:02:13Z</time>
      </trkpt>
      <trkpt lat="43.52553" lon="5.54117">
        <ele>300.3</ele>
        <time>2023-05-28T13:02:14Z</time>
      </trkpt>
      <trkpt lat="43.52553" lon="5.54117">
        <ele>300.3</ele>
        <time>2023-05-28T13:02:15Z</time>
      </trkpt>
      <trkpt lat="43.52553" lon="5.54116">
        <ele>300.2</ele>
        <time>2023-05-28T13:02:16Z</time>
      </trkpt>
      <trkpt lat="43.52553" lon="5.54116">
        <ele>300.2</ele>
        <time>2023-05-28T13:02:17Z</time>
      </trkpt>
      <trkpt lat="43.52553" lon="5.54116">
        <ele>300.2</ele>
        <time>2023-05-28T13:02:18Z</time>
      </trkpt>
      <trkpt lat="43.52554" lon="5.54116">
        <ele>300.3</ele>
        <time>2023-05-28T13:02:19Z</time>
      </trkpt>
      <trkpt lat="43.52554" lon="5.54117">
        <ele>300.3</ele>
        <time>2023-05-28T13:02:20Z</time>
      </trkpt>
      <trkpt lat="43.52555" lon="5.54117">
        <ele>300.4</ele>
        <time>2023-05-28T13:02:21Z</time>
      </trkpt>
      <trkpt lat="43.52555" lon="5.54117">
        <ele>300.3</ele>
        <time>2023-05-28T13:02:22Z</time>
      </trkpt>
      <trkpt lat="43.52555" lon="5.54117">
        <ele>300.3</ele>
        <time>2023-05-28T13:02:23Z</time>
      </trkpt>
      <trkpt lat="43.52555" lon="5.54117">
        <ele>300.3</ele>
        <time>2023-05-28T13:02:24Z</time>
      </trkpt>
      <trkpt lat="43.52556" lon="5.54117">
        <ele>300.2</ele>
        <time>2023-05-28T13:02:25Z</time>
      </trkpt>
      <trkpt lat="43.52556" lon="5.54116">
        <ele>300.2</ele>
        <time>2023-05-28T13:02:26Z</time>
      </trkpt>
      <trkpt lat="43.52557" lon="5.54115">
        <ele>300.2</ele>
        <time>2023-05-28T13:02:27Z</time>
      </trkpt>
      <trkpt lat="43.52557" lon="5.54115">
        <ele>300.3</ele>
        <time>2023-05-28T13:02:28Z</time>
      </trkpt>
      <trkpt lat="43.52557" lon="5.54113">
        <ele>300.3</ele>
        <time>2023-05-28T13:02:29Z</time>
      </trkpt>
      <trkpt lat="43.52558" lon="5.54112">
        <ele>300.3</ele>
        <time>2023-05-28T13:02:30Z</time>
      </trkpt>
      <trkpt lat="43.52558" lon="5.54112">
        <ele>300.4</ele>
        <time>2023-05-28T13:02:31Z</time>
      </trkpt>
      <trkpt lat="43.52558" lon="5.5411">
        <ele>300.5</ele>
        <time>2023-05-28T13:02:32Z</time>
      </trkpt>
      <trkpt lat="43.52559" lon="5.54109">
        <ele>300.6</ele>
        <time>2023-05-28T13:02:33Z</time>
      </trkpt>
      <trkpt lat="43.5256" lon="5.54108">
        <ele>300.6</ele>
        <time>2023-05-28T13:02:34Z</time>
      </trkpt>
      <trkpt lat="43.5256" lon="5.54106">
        <ele>300.6</ele>
        <time>2023-05-28T13:02:35Z</time>
      </trkpt>
      <trkpt lat="43.5256" lon="5.54105">
        <ele>300.7</ele>
        <time>2023-05-28T13:02:36Z</time>
      </trkpt>
      <trkpt lat="43.5256" lon="5.54105">
        <ele>300.7</ele>
        <time>2023-05-28T13:02:37Z</time>
      </trkpt>
      <trkpt lat="43.52559" lon="5.54103">
        <ele>300.8</ele>
        <time>2023-05-28T13:02:38Z</time>
      </trkpt>
      <trkpt lat="43.5256" lon="5.54102">
        <ele>300.8</ele>
        <time>2023-05-28T13:02:39Z</time>
      </trkpt>
      <trkpt lat="43.52559" lon="5.54101">
        <ele>300.8</ele>
        <time>2023-05-28T13:02:40Z</time>
      </trkpt>
      <trkpt lat="43.52559" lon="5.541">
        <ele>300.9</ele>
        <time>2023-05-28T13:02:41Z</time>
      </trkpt>
      <trkpt lat="43.52559" lon="5.54099">
        <ele>300.9</ele>
        <time>2023-05-28T13:02:42Z</time>
      </trkpt>
      <trkpt lat="43.52559" lon="5.54097">
        <ele>301</ele>
        <time>2023-05-28T13:02:43Z</time>
      </trkpt>
      <trkpt lat="43.52558" lon="5.54096">
        <ele>301</ele>
        <time>2023-05-28T13:02:44Z</time>
      </trkpt>
      <trkpt lat="43.52558" lon="5.54095">
        <ele>301.1</ele>
        <time>2023-05-28T13:02:45Z</time>
      </trkpt>
      <trkpt lat="43.52558" lon="5.54094">
        <ele>301.2</ele>
        <time>2023-05-28T13:02:46Z</time>
      </trkpt>
      <trkpt lat="43.52558" lon="5.54093">
        <ele>301.3</ele>
        <time>2023-05-28T13:02:47Z</time>
      </trkpt>
      <trkpt lat="43.52559" lon="5.54092">
        <ele>301.3</ele>
        <time>2023-05-28T13:02:48Z</time>
      </trkpt>
      <trkpt lat="43.52559" lon="5.5409">
        <ele>301.4</ele>
        <time>2023-05-28T13:02:49Z</time>
      </trkpt>
      <trkpt lat="43.52559" lon="5.54089">
        <ele>301.5</ele>
        <time>2023-05-28T13:02:50Z</time>
      </trkpt>
      <trkpt lat="43.52559" lon="5.54088">
        <ele>301.6</ele>
        <time>2023-05-28T13:02:51Z</time>
      </trkpt>
      <trkpt lat="43.52559" lon="5.54086">
        <ele>301.7</ele>
        <time>2023-05-28T13:02:52Z</time>
      </trkpt>
      <trkpt lat="43.52558" lon="5.54085">
        <ele>301.8</ele>
        <time>2023-05-28T13:02:53Z</time>
      </trkpt>
      <trkpt lat="43.52558" lon="5.54084">
        <ele>301.9</ele>
        <time>2023-05-28T13:02:54Z</time>
      </trkpt>
      <trkpt lat="43.52558" lon="5.54082">
        <ele>302</ele>
        <time>2023-05-28T13:02:55Z</time>
      </trkpt>
      <trkpt lat="43.52558" lon="5.54081">
        <ele>302.2</ele>
        <time>2023-05-28T13:02:56Z</time>
      </trkpt>
      <trkpt lat="43.52559" lon="5.5408">
        <ele>302.4</ele>
        <time>2023-05-28T13:02:57Z</time>
      </trkpt>
      <trkpt lat="43.52559" lon="5.54079">
        <ele>302.7</ele>
        <time>2023-05-28T13:02:58Z</time>
      </trkpt>
      <trkpt lat="43.52559" lon="5.54077">
        <ele>302.9</ele>
        <time>2023-05-28T13:02:59Z</time>
      </trkpt>
      <trkpt lat="43.52559" lon="5.54076">
        <ele>303</ele>
        <time>2023-05-28T13:03:00Z</time>
      </trkpt>
      <trkpt lat="43.52559" lon="5.54075">
        <ele>303.2</ele>
        <time>2023-05-28T13:03:01Z</time>
      </trkpt>
      <trkpt lat="43.5256" lon="5.54073">
        <ele>303.3</ele>
        <time>2023-05-28T13:03:02Z</time>
      </trkpt>
      <trkpt lat="43.5256" lon="5.54072">
        <ele>303.4</ele>
        <time>2023-05-28T13:03:03Z</time>
      </trkpt>
      <trkpt lat="43.5256" lon="5.54071">
        <ele>303.6</ele>
        <time>2023-05-28T13:03:04Z</time>
      </trkpt>
      <trkpt lat="43.5256" lon="5.5407">
        <ele>303.7</ele>
        <time>2023-05-28T13:03:05Z</time>
      </trkpt>
      <trkpt lat="43.52561" lon="5.54068">
        <ele>304</ele>
        <time>2023-05-28T13:03:06Z</time>
      </trkpt>
      <trkpt lat="43.52561" lon="5.54067">
        <ele>304.3</ele>
        <time>2023-05-28T13:03:07Z</time>
      </trkpt>
      <trkpt lat="43.52561" lon="5.54066">
        <ele>304.6</ele>
        <time>2023-05-28T13:03:08Z</time>
      </trkpt>
      <trkpt lat="43.52561" lon="5.54065">
        <ele>304.8</ele>
        <time>2023-05-28T13:03:09Z</time>
      </trkpt>
      <trkpt lat="43.52561" lon="5.54063">
        <ele>305</ele>
        <time>2023-05-28T13:03:10Z</time>
      </trkpt>
      <trkpt lat="43.52562" lon="5.54062">
        <ele>305.1</ele>
        <time>2023-05-28T13:03:11Z</time>
      </trkpt>
      <trkpt lat="43.52562" lon="5.54061">
        <ele>305.3</ele>
        <time>2023-05-28T13:03:12Z</time>
      </trkpt>
      <trkpt lat="43.52562" lon="5.5406">
        <ele>305.5</ele>
        <time>2023-05-28T13:03:13Z</time>
      </trkpt>
      <trkpt lat="43.52562" lon="5.54059">
        <ele>305.6</ele>
        <time>2023-05-28T13:03:14Z</time>
      </trkpt>
      <trkpt lat="43.52563" lon="5.54058">
        <ele>305.7</ele>
        <time>2023-05-28T13:03:15Z</time>
      </trkpt>
      <trkpt lat="43.52563" lon="5.54057">
        <ele>305.9</ele>
        <time>2023-05-28T13:03:16Z</time>
      </trkpt>
      <trkpt lat="43.52563" lon="5.54057">
        <ele>305.9</ele>
        <time>2023-05-28T13:03:17Z</time>
      </trkpt>
      <trkpt lat="43.52564" lon="5.54056">
        <ele>306.1</ele>
        <time>2023-05-28T13:03:18Z</time>
      </trkpt>
      <trkpt lat="43.52565" lon="5.54055">
        <ele>306.3</ele>
        <time>2023-05-28T13:03:19Z</time>
      </trkpt>
      <trkpt lat="43.52565" lon="5.54054">
        <ele>306.5</ele>
        <time>2023-05-28T13:03:20Z</time>
      </trkpt>
      <trkpt lat="43.52566" lon="5.54053">
        <ele>306.7</ele>
        <time>2023-05-28T13:03:21Z</time>
      </trkpt>
      <trkpt lat="43.52566" lon="5.54052">
        <ele>306.8</ele>
        <time>2023-05-28T13:03:22Z</time>
      </trkpt>
      <trkpt lat="43.52567" lon="5.54051">
        <ele>306.9</ele>
        <time>2023-05-28T13:03:23Z</time>
      </trkpt>
      <trkpt lat="43.52567" lon="5.54049">
        <ele>307.1</ele>
        <time>2023-05-28T13:03:24Z</time>
      </trkpt>
      <trkpt lat="43.52568" lon="5.54048">
        <ele>307.2</ele>
        <time>2023-05-28T13:03:25Z</time>
      </trkpt>
      <trkpt lat="43.52568" lon="5.54047">
        <ele>307.4</ele>
        <time>2023-05-28T13:03:26Z</time>
      </trkpt>
      <trkpt lat="43.52569" lon="5.54046">
        <ele>307.5</ele>
        <time>2023-05-28T13:03:27Z</time>
      </trkpt>
      <trkpt lat="43.52569" lon="5.54045">
        <ele>307.6</ele>
        <time>2023-05-28T13:03:28Z</time>
      </trkpt>
      <trkpt lat="43.52569" lon="5.54043">
        <ele>307.8</ele>
        <time>2023-05-28T13:03:29Z</time>
      </trkpt>
      <trkpt lat="43.5257" lon="5.54042">
        <ele>307.9</ele>
        <time>2023-05-28T13:03:30Z</time>
      </trkpt>
      <trkpt lat="43.5257" lon="5.54042">
        <ele>308.1</ele>
        <time>2023-05-28T13:03:31Z</time>
      </trkpt>
      <trkpt lat="43.5257" lon="5.5404">
        <ele>308.3</ele>
        <time>2023-05-28T13:03:32Z</time>
      </trkpt>
      <trkpt lat="43.52571" lon="5.54039">
        <ele>308.5</ele>
        <time>2023-05-28T13:03:33Z</time>
      </trkpt>
      <trkpt lat="43.52571" lon="5.54038">
        <ele>308.7</ele>
        <time>2023-05-28T13:03:34Z</time>
      </trkpt>
      <trkpt lat="43.52572" lon="5.54037">
        <ele>308.9</ele>
        <time>2023-05-28T13:03:35Z</time>
      </trkpt>
      <trkpt lat="43.52572" lon="5.54036">
        <ele>309</ele>
        <time>2023-05-28T13:03:36Z</time>
      </trkpt>
      <trkpt lat="43.52573" lon="5.54035">
        <ele>309.1</ele>
        <time>2023-05-28T13:03:37Z</time>
      </trkpt>
      <trkpt lat="43.52573" lon="5.54034">
        <ele>309.2</ele>
        <time>2023-05-28T13:03:38Z</time>
      </trkpt>
      <trkpt lat="43.52573" lon="5.54033">
        <ele>309.4</ele>
        <time>2023-05-28T13:03:39Z</time>
      </trkpt>
      <trkpt lat="43.52573" lon="5.54032">
        <ele>309.6</ele>
        <time>2023-05-28T13:03:40Z</time>
      </trkpt>
      <trkpt lat="43.52573" lon="5.5403">
        <ele>309.7</ele>
        <time>2023-05-28T13:03:41Z</time>
      </trkpt>
      <trkpt lat="43.52574" lon="5.54029">
        <ele>309.8</ele>
        <time>2023-05-28T13:03:42Z</time>
      </trkpt>
      <trkpt lat="43.52574" lon="5.54027">
        <ele>310</ele>
        <time>2023-05-28T13:03:43Z</time>
      </trkpt>
      <trkpt lat="43.52575" lon="5.54026">
        <ele>310.1</ele>
        <time>2023-05-28T13:03:44Z</time>
      </trkpt>
      <trkpt lat="43.52575" lon="5.54025">
        <ele>310.3</ele>
        <time>2023-05-28T13:03:45Z</time>
      </trkpt>
      <trkpt lat="43.52575" lon="5.54023">
        <ele>310.5</ele>
        <time>2023-05-28T13:03:46Z</time>
      </trkpt>
      <trkpt lat="43.52576" lon="5.54022">
        <ele>310.7</ele>
        <time>2023-05-28T13:03:47Z</time>
      </trkpt>
      <trkpt lat="43.52576" lon="5.5402">
        <ele>310.9</ele>
        <time>2023-05-28T13:03:48Z</time>
      </trkpt>
      <trkpt lat="43.52576" lon="5.54019">
        <ele>311.1</ele>
        <time>2023-05-28T13:03:49Z</time>
      </trkpt>
      <trkpt lat="43.52576" lon="5.54017">
        <ele>311.3</ele>
        <time>2023-05-28T13:03:50Z</time>
      </trkpt>
      <trkpt lat="43.52576" lon="5.54015">
        <ele>311.4</ele>
        <time>2023-05-28T13:03:51Z</time>
      </trkpt>
      <trkpt lat="43.52576" lon="5.54014">
        <ele>311.6</ele>
        <time>2023-05-28T13:03:52Z</time>
      </trkpt>
      <trkpt lat="43.52577" lon="5.54013">
        <ele>311.8</ele>
        <time>2023-05-28T13:03:53Z</time>
      </trkpt>
      <trkpt lat="43.52577" lon="5.54011">
        <ele>311.9</ele>
        <time>2023-05-28T13:03:54Z</time>
      </trkpt>
      <trkpt lat="43.52577" lon="5.5401">
        <ele>312</ele>
        <time>2023-05-28T13:03:55Z</time>
      </trkpt>
      <trkpt lat="43.52577" lon="5.54008">
        <ele>312.1</ele>
        <time>2023-05-28T13:03:56Z</time>
      </trkpt>
      <trkpt lat="43.52578" lon="5.54007">
        <ele>312.2</ele>
        <time>2023-05-28T13:03:57Z</time>
      </trkpt>
      <trkpt lat="43.52578" lon="5.54005">
        <ele>312.2</ele>
        <time>2023-05-28T13:03:58Z</time>
      </trkpt>
      <trkpt lat="43.52578" lon="5.54004">
        <ele>312.2</ele>
        <time>2023-05-28T13:03:59Z</time>
      </trkpt>
      <trkpt lat="43.52579" lon="5.54002">
        <ele>312.4</ele>
        <time>2023-05-28T13:04:00Z</time>
      </trkpt>
      <trkpt lat="43.52579" lon="5.54001">
        <ele>312.6</ele>
        <time>2023-05-28T13:04:01Z</time>
      </trkpt>
      <trkpt lat="43.52579" lon="5.54">
        <ele>312.8</ele>
        <time>2023-05-28T13:04:02Z</time>
      </trkpt>
      <trkpt lat="43.52579" lon="5.53998">
        <ele>312.9</ele>
        <time>2023-05-28T13:04:03Z</time>
      </trkpt>
      <trkpt lat="43.5258" lon="5.53997">
        <ele>313.1</ele>
        <time>2023-05-28T13:04:04Z</time>
      </trkpt>
      <trkpt lat="43.5258" lon="5.53996">
        <ele>313.2</ele>
        <time>2023-05-28T13:04:05Z</time>
      </trkpt>
      <trkpt lat="43.5258" lon="5.53994">
        <ele>313.3</ele>
        <time>2023-05-28T13:04:06Z</time>
      </trkpt>
      <trkpt lat="43.5258" lon="5.53993">
        <ele>313.4</ele>
        <time>2023-05-28T13:04:07Z</time>
      </trkpt>
      <trkpt lat="43.5258" lon="5.53991">
        <ele>313.5</ele>
        <time>2023-05-28T13:04:08Z</time>
      </trkpt>
      <trkpt lat="43.5258" lon="5.5399">
        <ele>313.6</ele>
        <time>2023-05-28T13:04:09Z</time>
      </trkpt>
      <trkpt lat="43.5258" lon="5.53988">
        <ele>313.7</ele>
        <time>2023-05-28T13:04:10Z</time>
      </trkpt>
      <trkpt lat="43.5258" lon="5.53987">
        <ele>313.8</ele>
        <time>2023-05-28T13:04:11Z</time>
      </trkpt>
      <trkpt lat="43.5258" lon="5.53985">
        <ele>313.9</ele>
        <time>2023-05-28T13:04:12Z</time>
      </trkpt>
      <trkpt lat="43.5258" lon="5.53984">
        <ele>314.1</ele>
        <time>2023-05-28T13:04:13Z</time>
      </trkpt>
      <trkpt lat="43.5258" lon="5.53982">
        <ele>314.3</ele>
        <time>2023-05-28T13:04:14Z</time>
      </trkpt>
      <trkpt lat="43.5258" lon="5.53981">
        <ele>314.5</ele>
        <time>2023-05-28T13:04:15Z</time>
      </trkpt>
      <trkpt lat="43.5258" lon="5.5398">
        <ele>314.7</ele>
        <time>2023-05-28T13:04:16Z</time>
      </trkpt>
      <trkpt lat="43.5258" lon="5.53979">
        <ele>314.8</ele>
        <time>2023-05-28T13:04:17Z</time>
      </trkpt>
      <trkpt lat="43.5258" lon="5.53977">
        <ele>314.9</ele>
        <time>2023-05-28T13:04:18Z</time>
      </trkpt>
      <trkpt lat="43.5258" lon="5.53976">
        <ele>315</ele>
        <time>2023-05-28T13:04:19Z</time>
      </trkpt>
      <trkpt lat="43.5258" lon="5.53974">
        <ele>315.1</ele>
        <time>2023-05-28T13:04:20Z</time>
      </trkpt>
      <trkpt lat="43.52579" lon="5.53973">
        <ele>315.2</ele>
        <time>2023-05-28T13:04:21Z</time>
      </trkpt>
      <trkpt lat="43.5258" lon="5.53972">
        <ele>315.4</ele>
        <time>2023-05-28T13:04:22Z</time>
      </trkpt>
      <trkpt lat="43.52579" lon="5.5397">
        <ele>315.6</ele>
        <time>2023-05-28T13:04:23Z</time>
      </trkpt>
      <trkpt lat="43.5258" lon="5.53969">
        <ele>315.8</ele>
        <time>2023-05-28T13:04:24Z</time>
      </trkpt>
      <trkpt lat="43.5258" lon="5.53967">
        <ele>316</ele>
        <time>2023-05-28T13:04:25Z</time>
      </trkpt>
      <trkpt lat="43.5258" lon="5.53966">
        <ele>316.1</ele>
        <time>2023-05-28T13:04:26Z</time>
      </trkpt>
      <trkpt lat="43.52579" lon="5.53965">
        <ele>316.2</ele>
        <time>2023-05-28T13:04:27Z</time>
      </trkpt>
      <trkpt lat="43.52579" lon="5.53965">
        <ele>316.3</ele>
        <time>2023-05-28T13:04:28Z</time>
      </trkpt>
      <trkpt lat="43.52579" lon="5.53965">
        <ele>316.4</ele>
        <time>2023-05-28T13:04:29Z</time>
      </trkpt>
      <trkpt lat="43.52579" lon="5.53965">
        <ele>316.5</ele>
        <time>2023-05-28T13:04:30Z</time>
      </trkpt>
      <trkpt lat="43.52579" lon="5.53965">
        <ele>316.5</ele>
        <time>2023-05-28T13:04:31Z</time>
      </trkpt>
      <trkpt lat="43.52579" lon="5.53965">
        <ele>316.6</ele>
        <time>2023-05-28T13:04:32Z</time>
      </trkpt>
      <trkpt lat="43.5258" lon="5.53964">
        <ele>316.6</ele>
        <time>2023-05-28T13:04:33Z</time>
      </trkpt>
      <trkpt lat="43.5258" lon="5.53963">
        <ele>316.8</ele>
        <time>2023-05-28T13:04:34Z</time>
      </trkpt>
      <trkpt lat="43.5258" lon="5.53962">
        <ele>316.9</ele>
        <time>2023-05-28T13:04:35Z</time>
      </trkpt>
      <trkpt lat="43.5258" lon="5.53961">
        <ele>317</ele>
        <time>2023-05-28T13:04:36Z</time>
      </trkpt>
      <trkpt lat="43.5258" lon="5.5396">
        <ele>317.1</ele>
        <time>2023-05-28T13:04:37Z</time>
      </trkpt>
      <trkpt lat="43.52581" lon="5.53958">
        <ele>317.2</ele>
        <time>2023-05-28T13:04:38Z</time>
      </trkpt>
      <trkpt lat="43.52581" lon="5.53958">
        <ele>317.2</ele>
        <time>2023-05-28T13:04:39Z</time>
      </trkpt>
      <trkpt lat="43.52581" lon="5.53957">
        <ele>317.2</ele>
        <time>2023-05-28T13:04:40Z</time>
      </trkpt>
      <trkpt lat="43.52581" lon="5.53956">
        <ele>317.2</ele>
        <time>2023-05-28T13:04:41Z</time>
      </trkpt>
      <trkpt lat="43.52581" lon="5.53954">
        <ele>317.4</ele>
        <time>2023-05-28T13:04:42Z</time>
      </trkpt>
      <trkpt lat="43.52582" lon="5.53953">
        <ele>317.5</ele>
        <time>2023-05-28T13:04:43Z</time>
      </trkpt>
      <trkpt lat="43.52582" lon="5.53953">
        <ele>317.5</ele>
        <time>2023-05-28T13:04:44Z</time>
      </trkpt>
      <trkpt lat="43.52582" lon="5.53951">
        <ele>317.7</ele>
        <time>2023-05-28T13:04:45Z</time>
      </trkpt>
      <trkpt lat="43.52581" lon="5.5395">
        <ele>317.8</ele>
        <time>2023-05-28T13:04:46Z</time>
      </trkpt>
      <trkpt lat="43.52582" lon="5.5395">
        <ele>317.9</ele>
        <time>2023-05-28T13:04:47Z</time>
      </trkpt>
      <trkpt lat="43.52582" lon="5.53949">
        <ele>317.9</ele>
        <time>2023-05-28T13:04:48Z</time>
      </trkpt>
      <trkpt lat="43.52582" lon="5.53948">
        <ele>318</ele>
        <time>2023-05-28T13:04:49Z</time>
      </trkpt>
      <trkpt lat="43.52581" lon="5.53947">
        <ele>318</ele>
        <time>2023-05-28T13:04:50Z</time>
      </trkpt>
      <trkpt lat="43.52581" lon="5.53946">
        <ele>318.1</ele>
        <time>2023-05-28T13:04:51Z</time>
      </trkpt>
      <trkpt lat="43.52581" lon="5.53946">
        <ele>318.1</ele>
        <time>2023-05-28T13:04:52Z</time>
      </trkpt>
      <trkpt lat="43.52581" lon="5.53945">
        <ele>318.2</ele>
        <time>2023-05-28T13:04:53Z</time>
      </trkpt>
      <trkpt lat="43.52581" lon="5.53944">
        <ele>318.3</ele>
        <time>2023-05-28T13:04:54Z</time>
      </trkpt>
      <trkpt lat="43.52581" lon="5.53942">
        <ele>318.4</ele>
        <time>2023-05-28T13:04:55Z</time>
      </trkpt>
      <trkpt lat="43.52581" lon="5.53941">
        <ele>318.5</ele>
        <time>2023-05-28T13:04:56Z</time>
      </trkpt>
      <trkpt lat="43.52581" lon="5.5394">
        <ele>318.6</ele>
        <time>2023-05-28T13:04:57Z</time>
      </trkpt>
      <trkpt lat="43.5258" lon="5.53939">
        <ele>318.7</ele>
        <time>2023-05-28T13:04:58Z</time>
      </trkpt>
      <trkpt lat="43.5258" lon="5.53938">
        <ele>318.8</ele>
        <time>2023-05-28T13:04:59Z</time>
      </trkpt>
      <trkpt lat="43.5258" lon="5.53936">
        <ele>318.9</ele>
        <time>2023-05-28T13:05:00Z</time>
      </trkpt>
      <trkpt lat="43.52581" lon="5.53935">
        <ele>319.1</ele>
        <time>2023-05-28T13:05:01Z</time>
      </trkpt>
      <trkpt lat="43.52581" lon="5.53934">
        <ele>319.2</ele>
        <time>2023-05-28T13:05:02Z</time>
      </trkpt>
      <trkpt lat="43.52581" lon="5.53932">
        <ele>319.4</ele>
        <time>2023-05-28T13:05:03Z</time>
      </trkpt>
      <trkpt lat="43.52582" lon="5.53931">
        <ele>319.5</ele>
        <time>2023-05-28T13:05:04Z</time>
      </trkpt>
      <trkpt lat="43.52582" lon="5.53929">
        <ele>319.7</ele>
        <time>2023-05-28T13:05:05Z</time>
      </trkpt>
      <trkpt lat="43.52582" lon="5.53928">
        <ele>319.8</ele>
        <time>2023-05-28T13:05:06Z</time>
      </trkpt>
      <trkpt lat="43.52582" lon="5.53927">
        <ele>319.9</ele>
        <time>2023-05-28T13:05:07Z</time>
      </trkpt>
      <trkpt lat="43.52582" lon="5.53926">
        <ele>320.1</ele>
        <time>2023-05-28T13:05:08Z</time>
      </trkpt>
      <trkpt lat="43.52583" lon="5.53924">
        <ele>320.3</ele>
        <time>2023-05-28T13:05:09Z</time>
      </trkpt>
      <trkpt lat="43.52583" lon="5.53923">
        <ele>320.4</ele>
        <time>2023-05-28T13:05:10Z</time>
      </trkpt>
      <trkpt lat="43.52583" lon="5.53921">
        <ele>320.7</ele>
        <time>2023-05-28T13:05:11Z</time>
      </trkpt>
      <trkpt lat="43.52583" lon="5.5392">
        <ele>320.8</ele>
        <time>2023-05-28T13:05:12Z</time>
      </trkpt>
      <trkpt lat="43.52582" lon="5.53918">
        <ele>321</ele>
        <time>2023-05-28T13:05:13Z</time>
      </trkpt>
      <trkpt lat="43.52582" lon="5.53917">
        <ele>321.3</ele>
        <time>2023-05-28T13:05:14Z</time>
      </trkpt>
      <trkpt lat="43.52583" lon="5.53916">
        <ele>321.4</ele>
        <time>2023-05-28T13:05:15Z</time>
      </trkpt>
      <trkpt lat="43.52583" lon="5.53914">
        <ele>321.6</ele>
        <time>2023-05-28T13:05:16Z</time>
      </trkpt>
      <trkpt lat="43.52583" lon="5.53912">
        <ele>321.8</ele>
        <time>2023-05-28T13:05:17Z</time>
      </trkpt>
      <trkpt lat="43.52583" lon="5.53911">
        <ele>321.9</ele>
        <time>2023-05-28T13:05:18Z</time>
      </trkpt>
      <trkpt lat="43.52583" lon="5.53909">
        <ele>322.1</ele>
        <time>2023-05-28T13:05:19Z</time>
      </trkpt>
      <trkpt lat="43.52583" lon="5.53908">
        <ele>322.3</ele>
        <time>2023-05-28T13:05:20Z</time>
      </trkpt>
      <trkpt lat="43.52583" lon="5.53907">
        <ele>322.5</ele>
        <time>2023-05-28T13:05:21Z</time>
      </trkpt>
      <trkpt lat="43.52582" lon="5.53905">
        <ele>322.8</ele>
        <time>2023-05-28T13:05:22Z</time>
      </trkpt>
      <trkpt lat="43.52582" lon="5.53904">
        <ele>323</ele>
        <time>2023-05-28T13:05:23Z</time>
      </trkpt>
      <trkpt lat="43.52583" lon="5.53903">
        <ele>323.2</ele>
        <time>2023-05-28T13:05:24Z</time>
      </trkpt>
      <trkpt lat="43.52583" lon="5.53901">
        <ele>323.4</ele>
        <time>2023-05-28T13:05:25Z</time>
      </trkpt>
      <trkpt lat="43.52583" lon="5.539">
        <ele>323.6</ele>
        <time>2023-05-28T13:05:26Z</time>
      </trkpt>
      <trkpt lat="43.52583" lon="5.53899">
        <ele>323.7</ele>
        <time>2023-05-28T13:05:27Z</time>
      </trkpt>
      <trkpt lat="43.52583" lon="5.53897">
        <ele>323.8</ele>
        <time>2023-05-28T13:05:28Z</time>
      </trkpt>
      <trkpt lat="43.52583" lon="5.53896">
        <ele>323.9</ele>
        <time>2023-05-28T13:05:29Z</time>
      </trkpt>
      <trkpt lat="43.52583" lon="5.53894">
        <ele>324.1</ele>
        <time>2023-05-28T13:05:30Z</time>
      </trkpt>
      <trkpt lat="43.52583" lon="5.53893">
        <ele>324.2</ele>
        <time>2023-05-28T13:05:31Z</time>
      </trkpt>
      <trkpt lat="43.52583" lon="5.53891">
        <ele>324.4</ele>
        <time>2023-05-28T13:05:32Z</time>
      </trkpt>
      <trkpt lat="43.52583" lon="5.5389">
        <ele>324.5</ele>
        <time>2023-05-28T13:05:33Z</time>
      </trkpt>
      <trkpt lat="43.52583" lon="5.53888">
        <ele>324.6</ele>
        <time>2023-05-28T13:05:34Z</time>
      </trkpt>
      <trkpt lat="43.52583" lon="5.53887">
        <ele>324.7</ele>
        <time>2023-05-28T13:05:35Z</time>
      </trkpt>
      <trkpt lat="43.52583" lon="5.53886">
        <ele>324.8</ele>
        <time>2023-05-28T13:05:36Z</time>
      </trkpt>
      <trkpt lat="43.52583" lon="5.53885">
        <ele>325</ele>
        <time>2023-05-28T13:05:37Z</time>
      </trkpt>
      <trkpt lat="43.52583" lon="5.53883">
        <ele>325.1</ele>
        <time>2023-05-28T13:05:38Z</time>
      </trkpt>
      <trkpt lat="43.52583" lon="5.53881">
        <ele>325.2</ele>
        <time>2023-05-28T13:05:39Z</time>
      </trkpt>
      <trkpt lat="43.52583" lon="5.5388">
        <ele>325.4</ele>
        <time>2023-05-28T13:05:40Z</time>
      </trkpt>
      <trkpt lat="43.52583" lon="5.53878">
        <ele>325.6</ele>
        <time>2023-05-28T13:05:41Z</time>
      </trkpt>
      <trkpt lat="43.52582" lon="5.53877">
        <ele>325.8</ele>
        <time>2023-05-28T13:05:42Z</time>
      </trkpt>
      <trkpt lat="43.52582" lon="5.53875">
        <ele>325.9</ele>
        <time>2023-05-28T13:05:43Z</time>
      </trkpt>
      <trkpt lat="43.52582" lon="5.53874">
        <ele>326</ele>
        <time>2023-05-28T13:05:44Z</time>
      </trkpt>
      <trkpt lat="43.52582" lon="5.53873">
        <ele>326.1</ele>
        <time>2023-05-28T13:05:45Z</time>
      </trkpt>
      <trkpt lat="43.52581" lon="5.53872">
        <ele>326.3</ele>
        <time>2023-05-28T13:05:46Z</time>
      </trkpt>
      <trkpt lat="43.52581" lon="5.53871">
        <ele>326.4</ele>
        <time>2023-05-28T13:05:47Z</time>
      </trkpt>
      <trkpt lat="43.52582" lon="5.5387">
        <ele>326.5</ele>
        <time>2023-05-28T13:05:48Z</time>
      </trkpt>
      <trkpt lat="43.52582" lon="5.53869">
        <ele>326.7</ele>
        <time>2023-05-28T13:05:49Z</time>
      </trkpt>
      <trkpt lat="43.52582" lon="5.53868">
        <ele>326.9</ele>
        <time>2023-05-28T13:05:50Z</time>
      </trkpt>
      <trkpt lat="43.52581" lon="5.53866">
        <ele>327</ele>
        <time>2023-05-28T13:05:51Z</time>
      </trkpt>
      <trkpt lat="43.52581" lon="5.53865">
        <ele>327</ele>
        <time>2023-05-28T13:05:52Z</time>
      </trkpt>
      <trkpt lat="43.52581" lon="5.53864">
        <ele>327.1</ele>
        <time>2023-05-28T13:05:53Z</time>
      </trkpt>
      <trkpt lat="43.52581" lon="5.53863">
        <ele>327.1</ele>
        <time>2023-05-28T13:05:54Z</time>
      </trkpt>
      <trkpt lat="43.52581" lon="5.53862">
        <ele>327.2</ele>
        <time>2023-05-28T13:05:55Z</time>
      </trkpt>
      <trkpt lat="43.52581" lon="5.53861">
        <ele>327.2</ele>
        <time>2023-05-28T13:05:56Z</time>
      </trkpt>
      <trkpt lat="43.52581" lon="5.5386">
        <ele>327.2</ele>
        <time>2023-05-28T13:05:57Z</time>
      </trkpt>
      <trkpt lat="43.52581" lon="5.53859">
        <ele>327.3</ele>
        <time>2023-05-28T13:05:58Z</time>
      </trkpt>
      <trkpt lat="43.52581" lon="5.53858">
        <ele>327.3</ele>
        <time>2023-05-28T13:05:59Z</time>
      </trkpt>
      <trkpt lat="43.52581" lon="5.53857">
        <ele>327.3</ele>
        <time>2023-05-28T13:06:00Z</time>
      </trkpt>
      <trkpt lat="43.52581" lon="5.53856">
        <ele>327.3</ele>
        <time>2023-05-28T13:06:01Z</time>
      </trkpt>
      <trkpt lat="43.52581" lon="5.53855">
        <ele>327.5</ele>
        <time>2023-05-28T13:06:02Z</time>
      </trkpt>
      <trkpt lat="43.52582" lon="5.53855">
        <ele>327.7</ele>
        <time>2023-05-28T13:06:03Z</time>
      </trkpt>
      <trkpt lat="43.52582" lon="5.53853">
        <ele>327.8</ele>
        <time>2023-05-28T13:06:04Z</time>
      </trkpt>
      <trkpt lat="43.52582" lon="5.53852">
        <ele>327.9</ele>
        <time>2023-05-28T13:06:05Z</time>
      </trkpt>
      <trkpt lat="43.52581" lon="5.53851">
        <ele>327.8</ele>
        <time>2023-05-28T13:06:06Z</time>
      </trkpt>
      <trkpt lat="43.52581" lon="5.5385">
        <ele>327.8</ele>
        <time>2023-05-28T13:06:07Z</time>
      </trkpt>
      <trkpt lat="43.52581" lon="5.53849">
        <ele>327.8</ele>
        <time>2023-05-28T13:06:08Z</time>
      </trkpt>
      <trkpt lat="43.52581" lon="5.53847">
        <ele>327.8</ele>
        <time>2023-05-28T13:06:09Z</time>
      </trkpt>
      <trkpt lat="43.52581" lon="5.53846">
        <ele>327.8</ele>
        <time>2023-05-28T13:06:10Z</time>
      </trkpt>
      <trkpt lat="43.52581" lon="5.53845">
        <ele>327.9</ele>
        <time>2023-05-28T13:06:11Z</time>
      </trkpt>
      <trkpt lat="43.52581" lon="5.53843">
        <ele>327.9</ele>
        <time>2023-05-28T13:06:12Z</time>
      </trkpt>
      <trkpt lat="43.52581" lon="5.53842">
        <ele>327.9</ele>
        <time>2023-05-28T13:06:13Z</time>
      </trkpt>
      <trkpt lat="43.5258" lon="5.53841">
        <ele>327.8</ele>
        <time>2023-05-28T13:06:14Z</time>
      </trkpt>
      <trkpt lat="43.5258" lon="5.5384">
        <ele>327.8</ele>
        <time>2023-05-28T13:06:15Z</time>
      </trkpt>
      <trkpt lat="43.5258" lon="5.53838">
        <ele>327.8</ele>
        <time>2023-05-28T13:06:16Z</time>
      </trkpt>
      <trkpt lat="43.5258" lon="5.53837">
        <ele>327.8</ele>
        <time>2023-05-28T13:06:17Z</time>
      </trkpt>
      <trkpt lat="43.5258" lon="5.53836">
        <ele>327.8</ele>
        <time>2023-05-28T13:06:18Z</time>
      </trkpt>
      <trkpt lat="43.52579" lon="5.53835">
        <ele>327.8</ele>
        <time>2023-05-28T13:06:19Z</time>
      </trkpt>
      <trkpt lat="43.52579" lon="5.53833">
        <ele>327.8</ele>
        <time>2023-05-28T13:06:20Z</time>
      </trkpt>
      <trkpt lat="43.52578" lon="5.53833">
        <ele>327.8</ele>
        <time>2023-05-28T13:06:21Z</time>
      </trkpt>
      <trkpt lat="43.52578" lon="5.53832">
        <ele>327.7</ele>
        <time>2023-05-28T13:06:22Z</time>
      </trkpt>
      <trkpt lat="43.52578" lon="5.53831">
        <ele>327.7</ele>
        <time>2023-05-28T13:06:23Z</time>
      </trkpt>
      <trkpt lat="43.52577" lon="5.5383">
        <ele>327.7</ele>
        <time>2023-05-28T13:06:24Z</time>
      </trkpt>
      <trkpt lat="43.52578" lon="5.53829">
        <ele>327.7</ele>
        <time>2023-05-28T13:06:25Z</time>
      </trkpt>
      <trkpt lat="43.52578" lon="5.53829">
        <ele>327.7</ele>
        <time>2023-05-28T13:06:26Z</time>
      </trkpt>
      <trkpt lat="43.52578" lon="5.53828">
        <ele>327.7</ele>
        <time>2023-05-28T13:06:27Z</time>
      </trkpt>
      <trkpt lat="43.52578" lon="5.53828">
        <ele>327.7</ele>
        <time>2023-05-28T13:06:28Z</time>
      </trkpt>
      <trkpt lat="43.52578" lon="5.53828">
        <ele>327.6</ele>
        <time>2023-05-28T13:06:29Z</time>
      </trkpt>
      <trkpt lat="43.52579" lon="5.53828">
        <ele>327.6</ele>
        <time>2023-05-28T13:06:30Z</time>
      </trkpt>
      <trkpt lat="43.52579" lon="5.53827">
        <ele>327.7</ele>
        <time>2023-05-28T13:06:31Z</time>
      </trkpt>
      <trkpt lat="43.52579" lon="5.53827">
        <ele>327.8</ele>
        <time>2023-05-28T13:06:32Z</time>
      </trkpt>
      <trkpt lat="43.52579" lon="5.53827">
        <ele>327.8</ele>
        <time>2023-05-28T13:06:33Z</time>
      </trkpt>
      <trkpt lat="43.52579" lon="5.53827">
        <ele>327.8</ele>
        <time>2023-05-28T13:06:34Z</time>
      </trkpt>
      <trkpt lat="43.52579" lon="5.53827">
        <ele>327.8</ele>
        <time>2023-05-28T13:06:35Z</time>
      </trkpt>
      <trkpt lat="43.52579" lon="5.53826">
        <ele>327.7</ele>
        <time>2023-05-28T13:06:36Z</time>
      </trkpt>
      <trkpt lat="43.52579" lon="5.53826">
        <ele>327.7</ele>
        <time>2023-05-28T13:06:37Z</time>
      </trkpt>
      <trkpt lat="43.52579" lon="5.53826">
        <ele>327.8</ele>
        <time>2023-05-28T13:06:38Z</time>
      </trkpt>
      <trkpt lat="43.52579" lon="5.53826">
        <ele>327.8</ele>
        <time>2023-05-28T13:06:39Z</time>
      </trkpt>
      <trkpt lat="43.52579" lon="5.53826">
        <ele>327.8</ele>
        <time>2023-05-28T13:06:40Z</time>
      </trkpt>
      <trkpt lat="43.52579" lon="5.53825">
        <ele>327.8</ele>
        <time>2023-05-28T13:06:41Z</time>
      </trkpt>
      <trkpt lat="43.52579" lon="5.53823">
        <ele>327.7</ele>
        <time>2023-05-28T13:06:42Z</time>
      </trkpt>
      <trkpt lat="43.52579" lon="5.53822">
        <ele>327.7</ele>
        <time>2023-05-28T13:06:43Z</time>
      </trkpt>
      <trkpt lat="43.52579" lon="5.53821">
        <ele>327.7</ele>
        <time>2023-05-28T13:06:44Z</time>
      </trkpt>
      <trkpt lat="43.52579" lon="5.5382">
        <ele>327.6</ele>
        <time>2023-05-28T13:06:45Z</time>
      </trkpt>
      <trkpt lat="43.52579" lon="5.53818">
        <ele>327.6</ele>
        <time>2023-05-28T13:06:46Z</time>
      </trkpt>
      <trkpt lat="43.52579" lon="5.53817">
        <ele>327.5</ele>
        <time>2023-05-28T13:06:47Z</time>
      </trkpt>
      <trkpt lat="43.52579" lon="5.53816">
        <ele>327.5</ele>
        <time>2023-05-28T13:06:48Z</time>
      </trkpt>
      <trkpt lat="43.52579" lon="5.53814">
        <ele>327.5</ele>
        <time>2023-05-28T13:06:49Z</time>
      </trkpt>
      <trkpt lat="43.52579" lon="5.53812">
        <ele>327.4</ele>
        <time>2023-05-28T13:06:50Z</time>
      </trkpt>
      <trkpt lat="43.52579" lon="5.53811">
        <ele>327.4</ele>
        <time>2023-05-28T13:06:51Z</time>
      </trkpt>
      <trkpt lat="43.52579" lon="5.5381">
        <ele>327.3</ele>
        <time>2023-05-28T13:06:52Z</time>
      </trkpt>
      <trkpt lat="43.52579" lon="5.53809">
        <ele>327.3</ele>
        <time>2023-05-28T13:06:53Z</time>
      </trkpt>
      <trkpt lat="43.52578" lon="5.53807">
        <ele>327.3</ele>
        <time>2023-05-28T13:06:54Z</time>
      </trkpt>
      <trkpt lat="43.52578" lon="5.53806">
        <ele>327.2</ele>
        <time>2023-05-28T13:06:55Z</time>
      </trkpt>
      <trkpt lat="43.52578" lon="5.53805">
        <ele>327.2</ele>
        <time>2023-05-28T13:06:56Z</time>
      </trkpt>
      <trkpt lat="43.52577" lon="5.53803">
        <ele>327.1</ele>
        <time>2023-05-28T13:06:57Z</time>
      </trkpt>
      <trkpt lat="43.52577" lon="5.53802">
        <ele>327.1</ele>
        <time>2023-05-28T13:06:58Z</time>
      </trkpt>
      <trkpt lat="43.52577" lon="5.53801">
        <ele>327</ele>
        <time>2023-05-28T13:06:59Z</time>
      </trkpt>
      <trkpt lat="43.52577" lon="5.53799">
        <ele>327</ele>
        <time>2023-05-28T13:07:00Z</time>
      </trkpt>
      <trkpt lat="43.52576" lon="5.53797">
        <ele>327</ele>
        <time>2023-05-28T13:07:01Z</time>
      </trkpt>
      <trkpt lat="43.52576" lon="5.53796">
        <ele>326.9</ele>
        <time>2023-05-28T13:07:02Z</time>
      </trkpt>
      <trkpt lat="43.52575" lon="5.53794">
        <ele>326.9</ele>
        <time>2023-05-28T13:07:03Z</time>
      </trkpt>
      <trkpt lat="43.52574" lon="5.53793">
        <ele>326.9</ele>
        <time>2023-05-28T13:07:04Z</time>
      </trkpt>
      <trkpt lat="43.52574" lon="5.53791">
        <ele>326.8</ele>
        <time>2023-05-28T13:07:05Z</time>
      </trkpt>
      <trkpt lat="43.52573" lon="5.5379">
        <ele>326.7</ele>
        <time>2023-05-28T13:07:06Z</time>
      </trkpt>
      <trkpt lat="43.52573" lon="5.53789">
        <ele>326.6</ele>
        <time>2023-05-28T13:07:07Z</time>
      </trkpt>
      <trkpt lat="43.52572" lon="5.53787">
        <ele>326.6</ele>
        <time>2023-05-28T13:07:08Z</time>
      </trkpt>
      <trkpt lat="43.52571" lon="5.53786">
        <ele>326.5</ele>
        <time>2023-05-28T13:07:09Z</time>
      </trkpt>
      <trkpt lat="43.52571" lon="5.53784">
        <ele>326.5</ele>
        <time>2023-05-28T13:07:10Z</time>
      </trkpt>
      <trkpt lat="43.5257" lon="5.53783">
        <ele>326.5</ele>
        <time>2023-05-28T13:07:11Z</time>
      </trkpt>
      <trkpt lat="43.5257" lon="5.53782">
        <ele>326.5</ele>
        <time>2023-05-28T13:07:12Z</time>
      </trkpt>
      <trkpt lat="43.52569" lon="5.5378">
        <ele>326.5</ele>
        <time>2023-05-28T13:07:13Z</time>
      </trkpt>
      <trkpt lat="43.52569" lon="5.53779">
        <ele>326.5</ele>
        <time>2023-05-28T13:07:14Z</time>
      </trkpt>
      <trkpt lat="43.52568" lon="5.53777">
        <ele>326.5</ele>
        <time>2023-05-28T13:07:15Z</time>
      </trkpt>
      <trkpt lat="43.52568" lon="5.53776">
        <ele>326.5</ele>
        <time>2023-05-28T13:07:16Z</time>
      </trkpt>
      <trkpt lat="43.52567" lon="5.53774">
        <ele>326.6</ele>
        <time>2023-05-28T13:07:17Z</time>
      </trkpt>
      <trkpt lat="43.52567" lon="5.53773">
        <ele>326.6</ele>
        <time>2023-05-28T13:07:18Z</time>
      </trkpt>
      <trkpt lat="43.52566" lon="5.53771">
        <ele>326.7</ele>
        <time>2023-05-28T13:07:19Z</time>
      </trkpt>
      <trkpt lat="43.52566" lon="5.5377">
        <ele>326.8</ele>
        <time>2023-05-28T13:07:20Z</time>
      </trkpt>
      <trkpt lat="43.52566" lon="5.53768">
        <ele>326.9</ele>
        <time>2023-05-28T13:07:21Z</time>
      </trkpt>
      <trkpt lat="43.52565" lon="5.53767">
        <ele>327</ele>
        <time>2023-05-28T13:07:22Z</time>
      </trkpt>
      <trkpt lat="43.52565" lon="5.53765">
        <ele>327.1</ele>
        <time>2023-05-28T13:07:23Z</time>
      </trkpt>
      <trkpt lat="43.52565" lon="5.53764">
        <ele>327.2</ele>
        <time>2023-05-28T13:07:24Z</time>
      </trkpt>
      <trkpt lat="43.52564" lon="5.53763">
        <ele>327.3</ele>
        <time>2023-05-28T13:07:25Z</time>
      </trkpt>
      <trkpt lat="43.52564" lon="5.53761">
        <ele>327.3</ele>
        <time>2023-05-28T13:07:26Z</time>
      </trkpt>
      <trkpt lat="43.52564" lon="5.53759">
        <ele>327.4</ele>
        <time>2023-05-28T13:07:27Z</time>
      </trkpt>
      <trkpt lat="43.52563" lon="5.53758">
        <ele>327.4</ele>
        <time>2023-05-28T13:07:28Z</time>
      </trkpt>
      <trkpt lat="43.52563" lon="5.53756">
        <ele>327.4</ele>
        <time>2023-05-28T13:07:29Z</time>
      </trkpt>
      <trkpt lat="43.52563" lon="5.53755">
        <ele>327.5</ele>
        <time>2023-05-28T13:07:30Z</time>
      </trkpt>
      <trkpt lat="43.52562" lon="5.53754">
        <ele>327.5</ele>
        <time>2023-05-28T13:07:31Z</time>
      </trkpt>
      <trkpt lat="43.52561" lon="5.53752">
        <ele>327.6</ele>
        <time>2023-05-28T13:07:32Z</time>
      </trkpt>
      <trkpt lat="43.5256" lon="5.53751">
        <ele>327.7</ele>
        <time>2023-05-28T13:07:33Z</time>
      </trkpt>
      <trkpt lat="43.5256" lon="5.53749">
        <ele>327.6</ele>
        <time>2023-05-28T13:07:34Z</time>
      </trkpt>
      <trkpt lat="43.52559" lon="5.53748">
        <ele>327.6</ele>
        <time>2023-05-28T13:07:35Z</time>
      </trkpt>
      <trkpt lat="43.52559" lon="5.53746">
        <ele>327.6</ele>
        <time>2023-05-28T13:07:36Z</time>
      </trkpt>
      <trkpt lat="43.52558" lon="5.53745">
        <ele>327.6</ele>
        <time>2023-05-28T13:07:37Z</time>
      </trkpt>
      <trkpt lat="43.52558" lon="5.53744">
        <ele>327.5</ele>
        <time>2023-05-28T13:07:38Z</time>
      </trkpt>
      <trkpt lat="43.52558" lon="5.53742">
        <ele>327.5</ele>
        <time>2023-05-28T13:07:39Z</time>
      </trkpt>
      <trkpt lat="43.52557" lon="5.5374">
        <ele>327.4</ele>
        <time>2023-05-28T13:07:40Z</time>
      </trkpt>
      <trkpt lat="43.52557" lon="5.53738">
        <ele>327.3</ele>
        <time>2023-05-28T13:07:41Z</time>
      </trkpt>
      <trkpt lat="43.52557" lon="5.53736">
        <ele>327.3</ele>
        <time>2023-05-28T13:07:42Z</time>
      </trkpt>
      <trkpt lat="43.52556" lon="5.53734">
        <ele>327.2</ele>
        <time>2023-05-28T13:07:43Z</time>
      </trkpt>
      <trkpt lat="43.52556" lon="5.53732">
        <ele>327.1</ele>
        <time>2023-05-28T13:07:44Z</time>
      </trkpt>
      <trkpt lat="43.52556" lon="5.53731">
        <ele>327</ele>
        <time>2023-05-28T13:07:45Z</time>
      </trkpt>
      <trkpt lat="43.52555" lon="5.53729">
        <ele>326.9</ele>
        <time>2023-05-28T13:07:46Z</time>
      </trkpt>
      <trkpt lat="43.52555" lon="5.53728">
        <ele>326.8</ele>
        <time>2023-05-28T13:07:47Z</time>
      </trkpt>
      <trkpt lat="43.52554" lon="5.53726">
        <ele>326.6</ele>
        <time>2023-05-28T13:07:48Z</time>
      </trkpt>
      <trkpt lat="43.52554" lon="5.53725">
        <ele>326.5</ele>
        <time>2023-05-28T13:07:49Z</time>
      </trkpt>
      <trkpt lat="43.52554" lon="5.53723">
        <ele>326.4</ele>
        <time>2023-05-28T13:07:50Z</time>
      </trkpt>
      <trkpt lat="43.52554" lon="5.53722">
        <ele>326.3</ele>
        <time>2023-05-28T13:07:51Z</time>
      </trkpt>
      <trkpt lat="43.52553" lon="5.5372">
        <ele>326.2</ele>
        <time>2023-05-28T13:07:52Z</time>
      </trkpt>
      <trkpt lat="43.52553" lon="5.53719">
        <ele>326.1</ele>
        <time>2023-05-28T13:07:53Z</time>
      </trkpt>
      <trkpt lat="43.52553" lon="5.53717">
        <ele>326</ele>
        <time>2023-05-28T13:07:54Z</time>
      </trkpt>
      <trkpt lat="43.52553" lon="5.53715">
        <ele>325.8</ele>
        <time>2023-05-28T13:07:55Z</time>
      </trkpt>
      <trkpt lat="43.52553" lon="5.53714">
        <ele>325.6</ele>
        <time>2023-05-28T13:07:56Z</time>
      </trkpt>
      <trkpt lat="43.52553" lon="5.53712">
        <ele>325.6</ele>
        <time>2023-05-28T13:07:57Z</time>
      </trkpt>
      <trkpt lat="43.52553" lon="5.53711">
        <ele>325.5</ele>
        <time>2023-05-28T13:07:58Z</time>
      </trkpt>
      <trkpt lat="43.52554" lon="5.5371">
        <ele>325.4</ele>
        <time>2023-05-28T13:07:59Z</time>
      </trkpt>
      <trkpt lat="43.52554" lon="5.53709">
        <ele>325.3</ele>
        <time>2023-05-28T13:08:00Z</time>
      </trkpt>
      <trkpt lat="43.52554" lon="5.53707">
        <ele>325.1</ele>
        <time>2023-05-28T13:08:01Z</time>
      </trkpt>
      <trkpt lat="43.52554" lon="5.53705">
        <ele>324.9</ele>
        <time>2023-05-28T13:08:02Z</time>
      </trkpt>
      <trkpt lat="43.52554" lon="5.53704">
        <ele>324.5</ele>
        <time>2023-05-28T13:08:03Z</time>
      </trkpt>
      <trkpt lat="43.52554" lon="5.53702">
        <ele>324.2</ele>
        <time>2023-05-28T13:08:04Z</time>
      </trkpt>
      <trkpt lat="43.52554" lon="5.537">
        <ele>324</ele>
        <time>2023-05-28T13:08:05Z</time>
      </trkpt>
      <trkpt lat="43.52554" lon="5.53698">
        <ele>323.8</ele>
        <time>2023-05-28T13:08:06Z</time>
      </trkpt>
      <trkpt lat="43.52554" lon="5.53697">
        <ele>323.6</ele>
        <time>2023-05-28T13:08:07Z</time>
      </trkpt>
      <trkpt lat="43.52554" lon="5.53694">
        <ele>323.4</ele>
        <time>2023-05-28T13:08:08Z</time>
      </trkpt>
      <trkpt lat="43.52554" lon="5.53692">
        <ele>323.2</ele>
        <time>2023-05-28T13:08:09Z</time>
      </trkpt>
      <trkpt lat="43.52554" lon="5.53691">
        <ele>323</ele>
        <time>2023-05-28T13:08:10Z</time>
      </trkpt>
      <trkpt lat="43.52554" lon="5.53689">
        <ele>322.8</ele>
        <time>2023-05-28T13:08:11Z</time>
      </trkpt>
      <trkpt lat="43.52555" lon="5.53688">
        <ele>322.7</ele>
        <time>2023-05-28T13:08:12Z</time>
      </trkpt>
      <trkpt lat="43.52556" lon="5.53687">
        <ele>322.5</ele>
        <time>2023-05-28T13:08:13Z</time>
      </trkpt>
      <trkpt lat="43.52557" lon="5.53685">
        <ele>322.3</ele>
        <time>2023-05-28T13:08:14Z</time>
      </trkpt>
      <trkpt lat="43.52558" lon="5.53683">
        <ele>322.2</ele>
        <time>2023-05-28T13:08:15Z</time>
      </trkpt>
      <trkpt lat="43.52558" lon="5.53682">
        <ele>322.1</ele>
        <time>2023-05-28T13:08:16Z</time>
      </trkpt>
      <trkpt lat="43.52559" lon="5.53681">
        <ele>322.1</ele>
        <time>2023-05-28T13:08:17Z</time>
      </trkpt>
      <trkpt lat="43.5256" lon="5.5368">
        <ele>322.1</ele>
        <time>2023-05-28T13:08:18Z</time>
      </trkpt>
      <trkpt lat="43.52561" lon="5.53679">
        <ele>322.1</ele>
        <time>2023-05-28T13:08:19Z</time>
      </trkpt>
      <trkpt lat="43.52562" lon="5.53678">
        <ele>322.1</ele>
        <time>2023-05-28T13:08:20Z</time>
      </trkpt>
      <trkpt lat="43.52563" lon="5.53677">
        <ele>322.1</ele>
        <time>2023-05-28T13:08:21Z</time>
      </trkpt>
      <trkpt lat="43.52564" lon="5.53676">
        <ele>322.1</ele>
        <time>2023-05-28T13:08:22Z</time>
      </trkpt>
      <trkpt lat="43.52564" lon="5.53675">
        <ele>322.2</ele>
        <time>2023-05-28T13:08:23Z</time>
      </trkpt>
      <trkpt lat="43.52565" lon="5.53673">
        <ele>322.2</ele>
        <time>2023-05-28T13:08:24Z</time>
      </trkpt>
      <trkpt lat="43.52565" lon="5.53673">
        <ele>322.3</ele>
        <time>2023-05-28T13:08:25Z</time>
      </trkpt>
      <trkpt lat="43.52565" lon="5.53672">
        <ele>322.2</ele>
        <time>2023-05-28T13:08:26Z</time>
      </trkpt>
      <trkpt lat="43.52565" lon="5.53672">
        <ele>322.2</ele>
        <time>2023-05-28T13:08:27Z</time>
      </trkpt>
      <trkpt lat="43.52566" lon="5.53672">
        <ele>322.2</ele>
        <time>2023-05-28T13:08:28Z</time>
      </trkpt>
      <trkpt lat="43.52567" lon="5.53671">
        <ele>322.3</ele>
        <time>2023-05-28T13:08:29Z</time>
      </trkpt>
      <trkpt lat="43.52567" lon="5.5367">
        <ele>322.3</ele>
        <time>2023-05-28T13:08:30Z</time>
      </trkpt>
      <trkpt lat="43.52568" lon="5.5367">
        <ele>322.3</ele>
        <time>2023-05-28T13:08:31Z</time>
      </trkpt>
      <trkpt lat="43.52569" lon="5.5367">
        <ele>322.4</ele>
        <time>2023-05-28T13:08:32Z</time>
      </trkpt>
      <trkpt lat="43.5257" lon="5.53669">
        <ele>322.4</ele>
        <time>2023-05-28T13:08:33Z</time>
      </trkpt>
      <trkpt lat="43.5257" lon="5.53669">
        <ele>322.6</ele>
        <time>2023-05-28T13:08:34Z</time>
      </trkpt>
      <trkpt lat="43.52571" lon="5.53668">
        <ele>322.7</ele>
        <time>2023-05-28T13:08:35Z</time>
      </trkpt>
      <trkpt lat="43.52572" lon="5.53668">
        <ele>322.8</ele>
        <time>2023-05-28T13:08:36Z</time>
      </trkpt>
      <trkpt lat="43.52573" lon="5.53668">
        <ele>322.9</ele>
        <time>2023-05-28T13:08:37Z</time>
      </trkpt>
      <trkpt lat="43.52574" lon="5.53668">
        <ele>323.1</ele>
        <time>2023-05-28T13:08:38Z</time>
      </trkpt>
      <trkpt lat="43.52575" lon="5.53668">
        <ele>323.3</ele>
        <time>2023-05-28T13:08:39Z</time>
      </trkpt>
      <trkpt lat="43.52576" lon="5.53667">
        <ele>323.5</ele>
        <time>2023-05-28T13:08:40Z</time>
      </trkpt>
      <trkpt lat="43.52577" lon="5.53667">
        <ele>323.8</ele>
        <time>2023-05-28T13:08:41Z</time>
      </trkpt>
      <trkpt lat="43.52578" lon="5.53666">
        <ele>324</ele>
        <time>2023-05-28T13:08:42Z</time>
      </trkpt>
      <trkpt lat="43.52579" lon="5.53666">
        <ele>324.2</ele>
        <time>2023-05-28T13:08:43Z</time>
      </trkpt>
      <trkpt lat="43.5258" lon="5.53666">
        <ele>324.3</ele>
        <time>2023-05-28T13:08:44Z</time>
      </trkpt>
      <trkpt lat="43.52581" lon="5.53666">
        <ele>324.4</ele>
        <time>2023-05-28T13:08:45Z</time>
      </trkpt>
      <trkpt lat="43.52582" lon="5.53666">
        <ele>324.6</ele>
        <time>2023-05-28T13:08:46Z</time>
      </trkpt>
      <trkpt lat="43.52582" lon="5.53666">
        <ele>324.7</ele>
        <time>2023-05-28T13:08:47Z</time>
      </trkpt>
      <trkpt lat="43.52583" lon="5.53666">
        <ele>324.7</ele>
        <time>2023-05-28T13:08:48Z</time>
      </trkpt>
      <trkpt lat="43.52584" lon="5.53666">
        <ele>324.9</ele>
        <time>2023-05-28T13:08:49Z</time>
      </trkpt>
      <trkpt lat="43.52584" lon="5.53666">
        <ele>325</ele>
        <time>2023-05-28T13:08:50Z</time>
      </trkpt>
      <trkpt lat="43.52585" lon="5.53666">
        <ele>325.1</ele>
        <time>2023-05-28T13:08:51Z</time>
      </trkpt>
      <trkpt lat="43.52585" lon="5.53665">
        <ele>325.3</ele>
        <time>2023-05-28T13:08:52Z</time>
      </trkpt>
      <trkpt lat="43.52586" lon="5.53664">
        <ele>325.4</ele>
        <time>2023-05-28T13:08:53Z</time>
      </trkpt>
      <trkpt lat="43.52587" lon="5.53663">
        <ele>325.4</ele>
        <time>2023-05-28T13:08:54Z</time>
      </trkpt>
      <trkpt lat="43.52588" lon="5.53662">
        <ele>325.6</ele>
        <time>2023-05-28T13:08:55Z</time>
      </trkpt>
      <trkpt lat="43.52588" lon="5.53661">
        <ele>325.7</ele>
        <time>2023-05-28T13:08:56Z</time>
      </trkpt>
      <trkpt lat="43.52589" lon="5.53661">
        <ele>325.9</ele>
        <time>2023-05-28T13:08:57Z</time>
      </trkpt>
      <trkpt lat="43.52591" lon="5.53661">
        <ele>326.1</ele>
        <time>2023-05-28T13:08:58Z</time>
      </trkpt>
      <trkpt lat="43.52591" lon="5.53661">
        <ele>326.3</ele>
        <time>2023-05-28T13:08:59Z</time>
      </trkpt>
      <trkpt lat="43.52592" lon="5.53661">
        <ele>326.5</ele>
        <time>2023-05-28T13:09:00Z</time>
      </trkpt>
      <trkpt lat="43.52593" lon="5.53661">
        <ele>326.6</ele>
        <time>2023-05-28T13:09:01Z</time>
      </trkpt>
      <trkpt lat="43.52594" lon="5.5366">
        <ele>326.8</ele>
        <time>2023-05-28T13:09:02Z</time>
      </trkpt>
      <trkpt lat="43.52594" lon="5.53659">
        <ele>326.9</ele>
        <time>2023-05-28T13:09:03Z</time>
      </trkpt>
      <trkpt lat="43.52595" lon="5.53659">
        <ele>327.1</ele>
        <time>2023-05-28T13:09:04Z</time>
      </trkpt>
      <trkpt lat="43.52596" lon="5.53658">
        <ele>327.2</ele>
        <time>2023-05-28T13:09:05Z</time>
      </trkpt>
      <trkpt lat="43.52597" lon="5.53658">
        <ele>327.4</ele>
        <time>2023-05-28T13:09:06Z</time>
      </trkpt>
      <trkpt lat="43.52598" lon="5.53658">
        <ele>327.6</ele>
        <time>2023-05-28T13:09:07Z</time>
      </trkpt>
      <trkpt lat="43.52599" lon="5.53657">
        <ele>327.8</ele>
        <time>2023-05-28T13:09:08Z</time>
      </trkpt>
      <trkpt lat="43.52599" lon="5.53656">
        <ele>328</ele>
        <time>2023-05-28T13:09:09Z</time>
      </trkpt>
      <trkpt lat="43.526" lon="5.53656">
        <ele>328.2</ele>
        <time>2023-05-28T13:09:10Z</time>
      </trkpt>
      <trkpt lat="43.52601" lon="5.53656">
        <ele>328.3</ele>
        <time>2023-05-28T13:09:11Z</time>
      </trkpt>
      <trkpt lat="43.52602" lon="5.53656">
        <ele>328.5</ele>
        <time>2023-05-28T13:09:12Z</time>
      </trkpt>
      <trkpt lat="43.52603" lon="5.53655">
        <ele>328.6</ele>
        <time>2023-05-28T13:09:13Z</time>
      </trkpt>
      <trkpt lat="43.52604" lon="5.53654">
        <ele>328.7</ele>
        <time>2023-05-28T13:09:14Z</time>
      </trkpt>
      <trkpt lat="43.52605" lon="5.53654">
        <ele>328.8</ele>
        <time>2023-05-28T13:09:15Z</time>
      </trkpt>
      <trkpt lat="43.52606" lon="5.53654">
        <ele>328.9</ele>
        <time>2023-05-28T13:09:16Z</time>
      </trkpt>
      <trkpt lat="43.52607" lon="5.53653">
        <ele>328.9</ele>
        <time>2023-05-28T13:09:17Z</time>
      </trkpt>
      <trkpt lat="43.52608" lon="5.53653">
        <ele>329.2</ele>
        <time>2023-05-28T13:09:18Z</time>
      </trkpt>
      <trkpt lat="43.52609" lon="5.53653">
        <ele>329.4</ele>
        <time>2023-05-28T13:09:19Z</time>
      </trkpt>
      <trkpt lat="43.5261" lon="5.53653">
        <ele>329.5</ele>
        <time>2023-05-28T13:09:20Z</time>
      </trkpt>
      <trkpt lat="43.52611" lon="5.53652">
        <ele>329.6</ele>
        <time>2023-05-28T13:09:21Z</time>
      </trkpt>
      <trkpt lat="43.52612" lon="5.53651">
        <ele>329.9</ele>
        <time>2023-05-28T13:09:22Z</time>
      </trkpt>
      <trkpt lat="43.52613" lon="5.53651">
        <ele>330.1</ele>
        <time>2023-05-28T13:09:23Z</time>
      </trkpt>
      <trkpt lat="43.52614" lon="5.53651">
        <ele>330.3</ele>
        <time>2023-05-28T13:09:24Z</time>
      </trkpt>
      <trkpt lat="43.52615" lon="5.5365">
        <ele>330.4</ele>
        <time>2023-05-28T13:09:25Z</time>
      </trkpt>
      <trkpt lat="43.52616" lon="5.5365">
        <ele>330.6</ele>
        <time>2023-05-28T13:09:26Z</time>
      </trkpt>
      <trkpt lat="43.52617" lon="5.5365">
        <ele>330.9</ele>
        <time>2023-05-28T13:09:27Z</time>
      </trkpt>
      <trkpt lat="43.52618" lon="5.5365">
        <ele>331.1</ele>
        <time>2023-05-28T13:09:28Z</time>
      </trkpt>
      <trkpt lat="43.52619" lon="5.5365">
        <ele>331.3</ele>
        <time>2023-05-28T13:09:29Z</time>
      </trkpt>
      <trkpt lat="43.5262" lon="5.5365">
        <ele>331.4</ele>
        <time>2023-05-28T13:09:30Z</time>
      </trkpt>
      <trkpt lat="43.52621" lon="5.5365">
        <ele>331.7</ele>
        <time>2023-05-28T13:09:31Z</time>
      </trkpt>
      <trkpt lat="43.52622" lon="5.5365">
        <ele>331.8</ele>
        <time>2023-05-28T13:09:32Z</time>
      </trkpt>
      <trkpt lat="43.52623" lon="5.5365">
        <ele>331.9</ele>
        <time>2023-05-28T13:09:33Z</time>
      </trkpt>
      <trkpt lat="43.52624" lon="5.5365">
        <ele>332</ele>
        <time>2023-05-28T13:09:34Z</time>
      </trkpt>
      <trkpt lat="43.52626" lon="5.5365">
        <ele>332.1</ele>
        <time>2023-05-28T13:09:35Z</time>
      </trkpt>
      <trkpt lat="43.52627" lon="5.5365">
        <ele>332.2</ele>
        <time>2023-05-28T13:09:36Z</time>
      </trkpt>
      <trkpt lat="43.52628" lon="5.53651">
        <ele>332.3</ele>
        <time>2023-05-28T13:09:37Z</time>
      </trkpt>
      <trkpt lat="43.5263" lon="5.53651">
        <ele>332.4</ele>
        <time>2023-05-28T13:09:38Z</time>
      </trkpt>
      <trkpt lat="43.52631" lon="5.53651">
        <ele>332.6</ele>
        <time>2023-05-28T13:09:39Z</time>
      </trkpt>
      <trkpt lat="43.52632" lon="5.53651">
        <ele>332.7</ele>
        <time>2023-05-28T13:09:40Z</time>
      </trkpt>
      <trkpt lat="43.52633" lon="5.53651">
        <ele>332.9</ele>
        <time>2023-05-28T13:09:41Z</time>
      </trkpt>
      <trkpt lat="43.52634" lon="5.53651">
        <ele>333</ele>
        <time>2023-05-28T13:09:42Z</time>
      </trkpt>
      <trkpt lat="43.52635" lon="5.53652">
        <ele>333.1</ele>
        <time>2023-05-28T13:09:43Z</time>
      </trkpt>
      <trkpt lat="43.52636" lon="5.53652">
        <ele>333.1</ele>
        <time>2023-05-28T13:09:44Z</time>
      </trkpt>
      <trkpt lat="43.52638" lon="5.53653">
        <ele>333.4</ele>
        <time>2023-05-28T13:09:45Z</time>
      </trkpt>
      <trkpt lat="43.52639" lon="5.53653">
        <ele>333.4</ele>
        <time>2023-05-28T13:09:46Z</time>
      </trkpt>
      <trkpt lat="43.5264" lon="5.53654">
        <ele>333.5</ele>
        <time>2023-05-28T13:09:47Z</time>
      </trkpt>
      <trkpt lat="43.52641" lon="5.53654">
        <ele>333.5</ele>
        <time>2023-05-28T13:09:48Z</time>
      </trkpt>
      <trkpt lat="43.52642" lon="5.53655">
        <ele>333.6</ele>
        <time>2023-05-28T13:09:49Z</time>
      </trkpt>
      <trkpt lat="43.52643" lon="5.53656">
        <ele>333.7</ele>
        <time>2023-05-28T13:09:50Z</time>
      </trkpt>
      <trkpt lat="43.52645" lon="5.53656">
        <ele>333.9</ele>
        <time>2023-05-28T13:09:51Z</time>
      </trkpt>
      <trkpt lat="43.52646" lon="5.53657">
        <ele>334</ele>
        <time>2023-05-28T13:09:52Z</time>
      </trkpt>
      <trkpt lat="43.52647" lon="5.53657">
        <ele>334.1</ele>
        <time>2023-05-28T13:09:53Z</time>
      </trkpt>
      <trkpt lat="43.52648" lon="5.53658">
        <ele>334.2</ele>
        <time>2023-05-28T13:09:54Z</time>
      </trkpt>
      <trkpt lat="43.52649" lon="5.53658">
        <ele>334.3</ele>
        <time>2023-05-28T13:09:55Z</time>
      </trkpt>
      <trkpt lat="43.5265" lon="5.53659">
        <ele>334.4</ele>
        <time>2023-05-28T13:09:56Z</time>
      </trkpt>
      <trkpt lat="43.52651" lon="5.53659">
        <ele>334.4</ele>
        <time>2023-05-28T13:09:57Z</time>
      </trkpt>
      <trkpt lat="43.52652" lon="5.53659">
        <ele>334.5</ele>
        <time>2023-05-28T13:09:58Z</time>
      </trkpt>
      <trkpt lat="43.52653" lon="5.53659">
        <ele>334.4</ele>
        <time>2023-05-28T13:09:59Z</time>
      </trkpt>
      <trkpt lat="43.52654" lon="5.53659">
        <ele>334.4</ele>
        <time>2023-05-28T13:10:00Z</time>
      </trkpt>
      <trkpt lat="43.52655" lon="5.53659">
        <ele>334.5</ele>
        <time>2023-05-28T13:10:01Z</time>
      </trkpt>
      <trkpt lat="43.52656" lon="5.53659">
        <ele>334.6</ele>
        <time>2023-05-28T13:10:02Z</time>
      </trkpt>
      <trkpt lat="43.52657" lon="5.53658">
        <ele>334.7</ele>
        <time>2023-05-28T13:10:03Z</time>
      </trkpt>
      <trkpt lat="43.52658" lon="5.53658">
        <ele>334.8</ele>
        <time>2023-05-28T13:10:04Z</time>
      </trkpt>
      <trkpt lat="43.52659" lon="5.53658">
        <ele>334.9</ele>
        <time>2023-05-28T13:10:05Z</time>
      </trkpt>
      <trkpt lat="43.52659" lon="5.53658">
        <ele>334.9</ele>
        <time>2023-05-28T13:10:06Z</time>
      </trkpt>
      <trkpt lat="43.5266" lon="5.53658">
        <ele>334.9</ele>
        <time>2023-05-28T13:10:07Z</time>
      </trkpt>
      <trkpt lat="43.5266" lon="5.53659">
        <ele>334.9</ele>
        <time>2023-05-28T13:10:08Z</time>
      </trkpt>
      <trkpt lat="43.52661" lon="5.53659">
        <ele>334.9</ele>
        <time>2023-05-28T13:10:09Z</time>
      </trkpt>
      <trkpt lat="43.52662" lon="5.53659">
        <ele>334.9</ele>
        <time>2023-05-28T13:10:10Z</time>
      </trkpt>
      <trkpt lat="43.52662" lon="5.53659">
        <ele>335</ele>
        <time>2023-05-28T13:10:11Z</time>
      </trkpt>
      <trkpt lat="43.52663" lon="5.53659">
        <ele>335.1</ele>
        <time>2023-05-28T13:10:12Z</time>
      </trkpt>
      <trkpt lat="43.52664" lon="5.53659">
        <ele>335.1</ele>
        <time>2023-05-28T13:10:13Z</time>
      </trkpt>
      <trkpt lat="43.52664" lon="5.53658">
        <ele>335.2</ele>
        <time>2023-05-28T13:10:14Z</time>
      </trkpt>
      <trkpt lat="43.52664" lon="5.53658">
        <ele>335.2</ele>
        <time>2023-05-28T13:10:15Z</time>
      </trkpt>
      <trkpt lat="43.52664" lon="5.53658">
        <ele>335.3</ele>
        <time>2023-05-28T13:10:16Z</time>
      </trkpt>
      <trkpt lat="43.52664" lon="5.53659">
        <ele>335.3</ele>
        <time>2023-05-28T13:10:17Z</time>
      </trkpt>
      <trkpt lat="43.52664" lon="5.53658">
        <ele>335.3</ele>
        <time>2023-05-28T13:10:18Z</time>
      </trkpt>
      <trkpt lat="43.52664" lon="5.53658">
        <ele>335.3</ele>
        <time>2023-05-28T13:10:19Z</time>
      </trkpt>
      <trkpt lat="43.52664" lon="5.53658">
        <ele>335.3</ele>
        <time>2023-05-28T13:10:20Z</time>
      </trkpt>
      <trkpt lat="43.52664" lon="5.53658">
        <ele>335.4</ele>
        <time>2023-05-28T13:10:21Z</time>
      </trkpt>
      <trkpt lat="43.52664" lon="5.53658">
        <ele>335.3</ele>
        <time>2023-05-28T13:10:22Z</time>
      </trkpt>
      <trkpt lat="43.52664" lon="5.53657">
        <ele>335.3</ele>
        <time>2023-05-28T13:10:23Z</time>
      </trkpt>
      <trkpt lat="43.52664" lon="5.53657">
        <ele>335.3</ele>
        <time>2023-05-28T13:10:24Z</time>
      </trkpt>
      <trkpt lat="43.52664" lon="5.53657">
        <ele>335.4</ele>
        <time>2023-05-28T13:10:25Z</time>
      </trkpt>
      <trkpt lat="43.52664" lon="5.53657">
        <ele>335.3</ele>
        <time>2023-05-28T13:10:26Z</time>
      </trkpt>
      <trkpt lat="43.52664" lon="5.53657">
        <ele>335.4</ele>
        <time>2023-05-28T13:10:27Z</time>
      </trkpt>
      <trkpt lat="43.52664" lon="5.53657">
        <ele>335.4</ele>
        <time>2023-05-28T13:10:28Z</time>
      </trkpt>
      <trkpt lat="43.52664" lon="5.53657">
        <ele>335.3</ele>
        <time>2023-05-28T13:10:29Z</time>
      </trkpt>
      <trkpt lat="43.52664" lon="5.53657">
        <ele>335.3</ele>
        <time>2023-05-28T13:10:30Z</time>
      </trkpt>
      <trkpt lat="43.52665" lon="5.53657">
        <ele>335.4</ele>
        <time>2023-05-28T13:10:31Z</time>
      </trkpt>
      <trkpt lat="43.52665" lon="5.53656">
        <ele>335.4</ele>
        <time>2023-05-28T13:10:32Z</time>
      </trkpt>
      <trkpt lat="43.52665" lon="5.53656">
        <ele>335.5</ele>
        <time>2023-05-28T13:10:33Z</time>
      </trkpt>
      <trkpt lat="43.52665" lon="5.53656">
        <ele>335.5</ele>
        <time>2023-05-28T13:10:34Z</time>
      </trkpt>
      <trkpt lat="43.52665" lon="5.53656">
        <ele>335.5</ele>
        <time>2023-05-28T13:10:35Z</time>
      </trkpt>
      <trkpt lat="43.52665" lon="5.53656">
        <ele>335.6</ele>
        <time>2023-05-28T13:10:36Z</time>
      </trkpt>
      <trkpt lat="43.52665" lon="5.53656">
        <ele>335.6</ele>
        <time>2023-05-28T13:10:37Z</time>
      </trkpt>
      <trkpt lat="43.52665" lon="5.53656">
        <ele>335.6</ele>
        <time>2023-05-28T13:10:38Z</time>
      </trkpt>
      <trkpt lat="43.52665" lon="5.53656">
        <ele>335.6</ele>
        <time>2023-05-28T13:10:39Z</time>
      </trkpt>
      <trkpt lat="43.52665" lon="5.53656">
        <ele>335.5</ele>
        <time>2023-05-28T13:10:40Z</time>
      </trkpt>
      <trkpt lat="43.52665" lon="5.53656">
        <ele>335.6</ele>
        <time>2023-05-28T13:10:41Z</time>
      </trkpt>
      <trkpt lat="43.52665" lon="5.53656">
        <ele>335.7</ele>
        <time>2023-05-28T13:10:42Z</time>
      </trkpt>
      <trkpt lat="43.52665" lon="5.53656">
        <ele>335.7</ele>
        <time>2023-05-28T13:10:43Z</time>
      </trkpt>
      <trkpt lat="43.52665" lon="5.53656">
        <ele>335.7</ele>
        <time>2023-05-28T13:10:44Z</time>
      </trkpt>
      <trkpt lat="43.52665" lon="5.53656">
        <ele>335.7</ele>
        <time>2023-05-28T13:10:45Z</time>
      </trkpt>
      <trkpt lat="43.52665" lon="5.53656">
        <ele>335.7</ele>
        <time>2023-05-28T13:10:46Z</time>
      </trkpt>
      <trkpt lat="43.52665" lon="5.53656">
        <ele>335.7</ele>
        <time>2023-05-28T13:10:47Z</time>
      </trkpt>
      <trkpt lat="43.52665" lon="5.53656">
        <ele>335.7</ele>
        <time>2023-05-28T13:10:48Z</time>
      </trkpt>
      <trkpt lat="43.52665" lon="5.53656">
        <ele>335.7</ele>
        <time>2023-05-28T13:10:49Z</time>
      </trkpt>
      <trkpt lat="43.52665" lon="5.53656">
        <ele>335.7</ele>
        <time>2023-05-28T13:10:50Z</time>
      </trkpt>
      <trkpt lat="43.52665" lon="5.53655">
        <ele>335.8</ele>
        <time>2023-05-28T13:10:51Z</time>
      </trkpt>
      <trkpt lat="43.52666" lon="5.53655">
        <ele>335.8</ele>
        <time>2023-05-28T13:10:52Z</time>
      </trkpt>
      <trkpt lat="43.52666" lon="5.53655">
        <ele>335.8</ele>
        <time>2023-05-28T13:10:53Z</time>
      </trkpt>
      <trkpt lat="43.52666" lon="5.53655">
        <ele>335.8</ele>
        <time>2023-05-28T13:10:54Z</time>
      </trkpt>
      <trkpt lat="43.52666" lon="5.53654">
        <ele>335.8</ele>
        <time>2023-05-28T13:10:55Z</time>
      </trkpt>
      <trkpt lat="43.52666" lon="5.53654">
        <ele>335.8</ele>
        <time>2023-05-28T13:10:56Z</time>
      </trkpt>
      <trkpt lat="43.52666" lon="5.53654">
        <ele>335.8</ele>
        <time>2023-05-28T13:10:57Z</time>
      </trkpt>
      <trkpt lat="43.52666" lon="5.53654">
        <ele>335.8</ele>
        <time>2023-05-28T13:10:58Z</time>
      </trkpt>
      <trkpt lat="43.52666" lon="5.53654">
        <ele>335.8</ele>
        <time>2023-05-28T13:10:59Z</time>
      </trkpt>
      <trkpt lat="43.52666" lon="5.53654">
        <ele>335.7</ele>
        <time>2023-05-28T13:11:00Z</time>
      </trkpt>
      <trkpt lat="43.52667" lon="5.53654">
        <ele>335.7</ele>
        <time>2023-05-28T13:11:01Z</time>
      </trkpt>
      <trkpt lat="43.52667" lon="5.53654">
        <ele>335.6</ele>
        <time>2023-05-28T13:11:02Z</time>
      </trkpt>
      <trkpt lat="43.52667" lon="5.53654">
        <ele>335.7</ele>
        <time>2023-05-28T13:11:03Z</time>
      </trkpt>
      <trkpt lat="43.52667" lon="5.53654">
        <ele>335.7</ele>
        <time>2023-05-28T13:11:04Z</time>
      </trkpt>
      <trkpt lat="43.52667" lon="5.53653">
        <ele>335.8</ele>
        <time>2023-05-28T13:11:05Z</time>
      </trkpt>
      <trkpt lat="43.52667" lon="5.53654">
        <ele>335.8</ele>
        <time>2023-05-28T13:11:06Z</time>
      </trkpt>
      <trkpt lat="43.52667" lon="5.53654">
        <ele>335.8</ele>
        <time>2023-05-28T13:11:07Z</time>
      </trkpt>
      <trkpt lat="43.52667" lon="5.53653">
        <ele>335.8</ele>
        <time>2023-05-28T13:11:08Z</time>
      </trkpt>
      <trkpt lat="43.52667" lon="5.53654">
        <ele>335.8</ele>
        <time>2023-05-28T13:11:09Z</time>
      </trkpt>
      <trkpt lat="43.52667" lon="5.53653">
        <ele>335.8</ele>
        <time>2023-05-28T13:11:10Z</time>
      </trkpt>
      <trkpt lat="43.52667" lon="5.53653">
        <ele>335.9</ele>
        <time>2023-05-28T13:11:11Z</time>
      </trkpt>
      <trkpt lat="43.52667" lon="5.53653">
        <ele>335.9</ele>
        <time>2023-05-28T13:11:12Z</time>
      </trkpt>
      <trkpt lat="43.52667" lon="5.53653">
        <ele>335.8</ele>
        <time>2023-05-28T13:11:13Z</time>
      </trkpt>
      <trkpt lat="43.52668" lon="5.53653">
        <ele>335.8</ele>
        <time>2023-05-28T13:11:14Z</time>
      </trkpt>
      <trkpt lat="43.52668" lon="5.53653">
        <ele>335.8</ele>
        <time>2023-05-28T13:11:15Z</time>
      </trkpt>
      <trkpt lat="43.52668" lon="5.53653">
        <ele>335.7</ele>
        <time>2023-05-28T13:11:16Z</time>
      </trkpt>
      <trkpt lat="43.52668" lon="5.53653">
        <ele>335.7</ele>
        <time>2023-05-28T13:11:17Z</time>
      </trkpt>
      <trkpt lat="43.52668" lon="5.53653">
        <ele>335.8</ele>
        <time>2023-05-28T13:11:18Z</time>
      </trkpt>
      <trkpt lat="43.52668" lon="5.53653">
        <ele>335.8</ele>
        <time>2023-05-28T13:11:19Z</time>
      </trkpt>
      <trkpt lat="43.52668" lon="5.53653">
        <ele>335.9</ele>
        <time>2023-05-28T13:11:20Z</time>
      </trkpt>
      <trkpt lat="43.52668" lon="5.53653">
        <ele>335.9</ele>
        <time>2023-05-28T13:11:21Z</time>
      </trkpt>
      <trkpt lat="43.52668" lon="5.53653">
        <ele>335.9</ele>
        <time>2023-05-28T13:11:22Z</time>
      </trkpt>
      <trkpt lat="43.52669" lon="5.53653">
        <ele>335.9</ele>
        <time>2023-05-28T13:11:23Z</time>
      </trkpt>
      <trkpt lat="43.52669" lon="5.53653">
        <ele>336</ele>
        <time>2023-05-28T13:11:24Z</time>
      </trkpt>
      <trkpt lat="43.52669" lon="5.53652">
        <ele>336</ele>
        <time>2023-05-28T13:11:25Z</time>
      </trkpt>
      <trkpt lat="43.52669" lon="5.53652">
        <ele>336</ele>
        <time>2023-05-28T13:11:26Z</time>
      </trkpt>
      <trkpt lat="43.52669" lon="5.53652">
        <ele>336</ele>
        <time>2023-05-28T13:11:27Z</time>
      </trkpt>
      <trkpt lat="43.52669" lon="5.53652">
        <ele>335.9</ele>
        <time>2023-05-28T13:11:28Z</time>
      </trkpt>
      <trkpt lat="43.5267" lon="5.53652">
        <ele>335.9</ele>
        <time>2023-05-28T13:11:29Z</time>
      </trkpt>
      <trkpt lat="43.5267" lon="5.53652">
        <ele>335.9</ele>
        <time>2023-05-28T13:11:30Z</time>
      </trkpt>
      <trkpt lat="43.5267" lon="5.53652">
        <ele>335.7</ele>
        <time>2023-05-28T13:11:31Z</time>
      </trkpt>
      <trkpt lat="43.5267" lon="5.53651">
        <ele>335.8</ele>
        <time>2023-05-28T13:11:32Z</time>
      </trkpt>
      <trkpt lat="43.5267" lon="5.53652">
        <ele>335.8</ele>
        <time>2023-05-28T13:11:33Z</time>
      </trkpt>
      <trkpt lat="43.5267" lon="5.53651">
        <ele>335.9</ele>
        <time>2023-05-28T13:11:34Z</time>
      </trkpt>
      <trkpt lat="43.5267" lon="5.53651">
        <ele>335.9</ele>
        <time>2023-05-28T13:11:35Z</time>
      </trkpt>
      <trkpt lat="43.5267" lon="5.53652">
        <ele>335.9</ele>
        <time>2023-05-28T13:11:36Z</time>
      </trkpt>
      <trkpt lat="43.5267" lon="5.53652">
        <ele>335.8</ele>
        <time>2023-05-28T13:11:37Z</time>
      </trkpt>
      <trkpt lat="43.52669" lon="5.53652">
        <ele>335.8</ele>
        <time>2023-05-28T13:11:38Z</time>
      </trkpt>
      <trkpt lat="43.52669" lon="5.53652">
        <ele>335.8</ele>
        <time>2023-05-28T13:11:39Z</time>
      </trkpt>
      <trkpt lat="43.52669" lon="5.53652">
        <ele>335.8</ele>
        <time>2023-05-28T13:11:40Z</time>
      </trkpt>
      <trkpt lat="43.52669" lon="5.53652">
        <ele>335.7</ele>
        <time>2023-05-28T13:11:41Z</time>
      </trkpt>
      <trkpt lat="43.52669" lon="5.53652">
        <ele>335.7</ele>
        <time>2023-05-28T13:11:42Z</time>
      </trkpt>
      <trkpt lat="43.52669" lon="5.53652">
        <ele>335.7</ele>
        <time>2023-05-28T13:11:43Z</time>
      </trkpt>
      <trkpt lat="43.52669" lon="5.53652">
        <ele>335.7</ele>
        <time>2023-05-28T13:11:44Z</time>
      </trkpt>
      <trkpt lat="43.52669" lon="5.53652">
        <ele>335.7</ele>
        <time>2023-05-28T13:11:45Z</time>
      </trkpt>
      <trkpt lat="43.52669" lon="5.53652">
        <ele>335.7</ele>
        <time>2023-05-28T13:11:46Z</time>
      </trkpt>
      <trkpt lat="43.52669" lon="5.53653">
        <ele>335.6</ele>
        <time>2023-05-28T13:11:47Z</time>
      </trkpt>
      <trkpt lat="43.52669" lon="5.53653">
        <ele>335.6</ele>
        <time>2023-05-28T13:11:48Z</time>
      </trkpt>
      <trkpt lat="43.52669" lon="5.53653">
        <ele>335.6</ele>
        <time>2023-05-28T13:11:49Z</time>
      </trkpt>
      <trkpt lat="43.52669" lon="5.53653">
        <ele>335.6</ele>
        <time>2023-05-28T13:11:50Z</time>
      </trkpt>
      <trkpt lat="43.52669" lon="5.53653">
        <ele>335.7</ele>
        <time>2023-05-28T13:11:51Z</time>
      </trkpt>
      <trkpt lat="43.52669" lon="5.53653">
        <ele>335.7</ele>
        <time>2023-05-28T13:11:52Z</time>
      </trkpt>
      <trkpt lat="43.52669" lon="5.53653">
        <ele>335.7</ele>
        <time>2023-05-28T13:11:53Z</time>
      </trkpt>
      <trkpt lat="43.52669" lon="5.53653">
        <ele>335.8</ele>
        <time>2023-05-28T13:11:54Z</time>
      </trkpt>
      <trkpt lat="43.52669" lon="5.53653">
        <ele>335.8</ele>
        <time>2023-05-28T13:11:55Z</time>
      </trkpt>
      <trkpt lat="43.52669" lon="5.53653">
        <ele>335.8</ele>
        <time>2023-05-28T13:11:56Z</time>
      </trkpt>
      <trkpt lat="43.52669" lon="5.53653">
        <ele>335.7</ele>
        <time>2023-05-28T13:11:57Z</time>
      </trkpt>
      <trkpt lat="43.52669" lon="5.53653">
        <ele>335.6</ele>
        <time>2023-05-28T13:11:58Z</time>
      </trkpt>
      <trkpt lat="43.52669" lon="5.53653">
        <ele>335.7</ele>
        <time>2023-05-28T13:11:59Z</time>
      </trkpt>
      <trkpt lat="43.52669" lon="5.53653">
        <ele>335.8</ele>
        <time>2023-05-28T13:12:00Z</time>
      </trkpt>
      <trkpt lat="43.52669" lon="5.53653">
        <ele>335.8</ele>
        <time>2023-05-28T13:12:01Z</time>
      </trkpt>
      <trkpt lat="43.52669" lon="5.53653">
        <ele>335.8</ele>
        <time>2023-05-28T13:12:02Z</time>
      </trkpt>
      <trkpt lat="43.52669" lon="5.53653">
        <ele>335.7</ele>
        <time>2023-05-28T13:12:03Z</time>
      </trkpt>
      <trkpt lat="43.52669" lon="5.53653">
        <ele>335.7</ele>
        <time>2023-05-28T13:12:04Z</time>
      </trkpt>
      <trkpt lat="43.52669" lon="5.53654">
        <ele>335.7</ele>
        <time>2023-05-28T13:12:05Z</time>
      </trkpt>
      <trkpt lat="43.52669" lon="5.53654">
        <ele>335.7</ele>
        <time>2023-05-28T13:12:06Z</time>
      </trkpt>
      <trkpt lat="43.52669" lon="5.53653">
        <ele>335.8</ele>
        <time>2023-05-28T13:12:07Z</time>
      </trkpt>
      <trkpt lat="43.52669" lon="5.53654">
        <ele>335.7</ele>
        <time>2023-05-28T13:12:08Z</time>
      </trkpt>
      <trkpt lat="43.52669" lon="5.53653">
        <ele>335.7</ele>
        <time>2023-05-28T13:12:09Z</time>
      </trkpt>
      <trkpt lat="43.52669" lon="5.53653">
        <ele>335.6</ele>
        <time>2023-05-28T13:12:10Z</time>
      </trkpt>
      <trkpt lat="43.52669" lon="5.53653">
        <ele>335.6</ele>
        <time>2023-05-28T13:12:11Z</time>
      </trkpt>
      <trkpt lat="43.52669" lon="5.53653">
        <ele>335.7</ele>
        <time>2023-05-28T13:12:12Z</time>
      </trkpt>
      <trkpt lat="43.5267" lon="5.53653">
        <ele>335.6</ele>
        <time>2023-05-28T13:12:13Z</time>
      </trkpt>
      <trkpt lat="43.5267" lon="5.53653">
        <ele>335.6</ele>
        <time>2023-05-28T13:12:14Z</time>
      </trkpt>
      <trkpt lat="43.5267" lon="5.53653">
        <ele>335.6</ele>
        <time>2023-05-28T13:12:15Z</time>
      </trkpt>
      <trkpt lat="43.52671" lon="5.53653">
        <ele>335.5</ele>
        <time>2023-05-28T13:12:16Z</time>
      </trkpt>
      <trkpt lat="43.52671" lon="5.53653">
        <ele>335.5</ele>
        <time>2023-05-28T13:12:17Z</time>
      </trkpt>
      <trkpt lat="43.52671" lon="5.53653">
        <ele>335.5</ele>
        <time>2023-05-28T13:12:18Z</time>
      </trkpt>
      <trkpt lat="43.52671" lon="5.53653">
        <ele>335.5</ele>
        <time>2023-05-28T13:12:19Z</time>
      </trkpt>
      <trkpt lat="43.52671" lon="5.53653">
        <ele>335.6</ele>
        <time>2023-05-28T13:12:20Z</time>
      </trkpt>
      <trkpt lat="43.52672" lon="5.53654">
        <ele>335.5</ele>
        <time>2023-05-28T13:12:21Z</time>
      </trkpt>
      <trkpt lat="43.52672" lon="5.53654">
        <ele>335.5</ele>
        <time>2023-05-28T13:12:22Z</time>
      </trkpt>
      <trkpt lat="43.52672" lon="5.53654">
        <ele>335.5</ele>
        <time>2023-05-28T13:12:23Z</time>
      </trkpt>
      <trkpt lat="43.52672" lon="5.53654">
        <ele>335.4</ele>
        <time>2023-05-28T13:12:24Z</time>
      </trkpt>
      <trkpt lat="43.52672" lon="5.53654">
        <ele>335.5</ele>
        <time>2023-05-28T13:12:25Z</time>
      </trkpt>
      <trkpt lat="43.52672" lon="5.53654">
        <ele>335.5</ele>
        <time>2023-05-28T13:12:26Z</time>
      </trkpt>
      <trkpt lat="43.52672" lon="5.53654">
        <ele>335.5</ele>
        <time>2023-05-28T13:12:27Z</time>
      </trkpt>
      <trkpt lat="43.52672" lon="5.53654">
        <ele>335.5</ele>
        <time>2023-05-28T13:12:28Z</time>
      </trkpt>
      <trkpt lat="43.52673" lon="5.53654">
        <ele>335.5</ele>
        <time>2023-05-28T13:12:29Z</time>
      </trkpt>
      <trkpt lat="43.52673" lon="5.53654">
        <ele>335.6</ele>
        <time>2023-05-28T13:12:30Z</time>
      </trkpt>
      <trkpt lat="43.52673" lon="5.53654">
        <ele>335.6</ele>
        <time>2023-05-28T13:12:31Z</time>
      </trkpt>
      <trkpt lat="43.52673" lon="5.53654">
        <ele>335.6</ele>
        <time>2023-05-28T13:12:32Z</time>
      </trkpt>
      <trkpt lat="43.52673" lon="5.53654">
        <ele>335.6</ele>
        <time>2023-05-28T13:12:33Z</time>
      </trkpt>
      <trkpt lat="43.52673" lon="5.53654">
        <ele>335.6</ele>
        <time>2023-05-28T13:12:34Z</time>
      </trkpt>
      <trkpt lat="43.52673" lon="5.53654">
        <ele>335.5</ele>
        <time>2023-05-28T13:12:35Z</time>
      </trkpt>
      <trkpt lat="43.52673" lon="5.53654">
        <ele>335.5</ele>
        <time>2023-05-28T13:12:36Z</time>
      </trkpt>
      <trkpt lat="43.52673" lon="5.53654">
        <ele>335.5</ele>
        <time>2023-05-28T13:12:37Z</time>
      </trkpt>
      <trkpt lat="43.52673" lon="5.53653">
        <ele>335.6</ele>
        <time>2023-05-28T13:12:38Z</time>
      </trkpt>
      <trkpt lat="43.52672" lon="5.53653">
        <ele>335.5</ele>
        <time>2023-05-28T13:12:39Z</time>
      </trkpt>
      <trkpt lat="43.52673" lon="5.53653">
        <ele>335.5</ele>
        <time>2023-05-28T13:12:40Z</time>
      </trkpt>
      <trkpt lat="43.52673" lon="5.53653">
        <ele>335.5</ele>
        <time>2023-05-28T13:12:41Z</time>
      </trkpt>
      <trkpt lat="43.52673" lon="5.53653">
        <ele>335.4</ele>
        <time>2023-05-28T13:12:42Z</time>
      </trkpt>
      <trkpt lat="43.52673" lon="5.53653">
        <ele>335.4</ele>
        <time>2023-05-28T13:12:43Z</time>
      </trkpt>
      <trkpt lat="43.52674" lon="5.53653">
        <ele>335.5</ele>
        <time>2023-05-28T13:12:44Z</time>
      </trkpt>
      <trkpt lat="43.52674" lon="5.53653">
        <ele>335.6</ele>
        <time>2023-05-28T13:12:45Z</time>
      </trkpt>
      <trkpt lat="43.52674" lon="5.53653">
        <ele>335.6</ele>
        <time>2023-05-28T13:12:46Z</time>
      </trkpt>
      <trkpt lat="43.52675" lon="5.53653">
        <ele>335.7</ele>
        <time>2023-05-28T13:12:47Z</time>
      </trkpt>
      <trkpt lat="43.52675" lon="5.53653">
        <ele>335.7</ele>
        <time>2023-05-28T13:12:48Z</time>
      </trkpt>
      <trkpt lat="43.52675" lon="5.53653">
        <ele>335.7</ele>
        <time>2023-05-28T13:12:49Z</time>
      </trkpt>
      <trkpt lat="43.52676" lon="5.53653">
        <ele>335.7</ele>
        <time>2023-05-28T13:12:50Z</time>
      </trkpt>
      <trkpt lat="43.52676" lon="5.53653">
        <ele>335.6</ele>
        <time>2023-05-28T13:12:51Z</time>
      </trkpt>
      <trkpt lat="43.52676" lon="5.53653">
        <ele>335.6</ele>
        <time>2023-05-28T13:12:52Z</time>
      </trkpt>
      <trkpt lat="43.52677" lon="5.53653">
        <ele>335.6</ele>
        <time>2023-05-28T13:12:53Z</time>
      </trkpt>
      <trkpt lat="43.52677" lon="5.53653">
        <ele>335.6</ele>
        <time>2023-05-28T13:12:54Z</time>
      </trkpt>
      <trkpt lat="43.52677" lon="5.53653">
        <ele>335.6</ele>
        <time>2023-05-28T13:12:55Z</time>
      </trkpt>
      <trkpt lat="43.52678" lon="5.53653">
        <ele>335.6</ele>
        <time>2023-05-28T13:12:56Z</time>
      </trkpt>
      <trkpt lat="43.52678" lon="5.53653">
        <ele>335.6</ele>
        <time>2023-05-28T13:12:57Z</time>
      </trkpt>
      <trkpt lat="43.52678" lon="5.53653">
        <ele>335.5</ele>
        <time>2023-05-28T13:12:58Z</time>
      </trkpt>
      <trkpt lat="43.52678" lon="5.53653">
        <ele>335.5</ele>
        <time>2023-05-28T13:12:59Z</time>
      </trkpt>
      <trkpt lat="43.52678" lon="5.53653">
        <ele>335.5</ele>
        <time>2023-05-28T13:13:00Z</time>
      </trkpt>
      <trkpt lat="43.52678" lon="5.53653">
        <ele>335.5</ele>
        <time>2023-05-28T13:13:01Z</time>
      </trkpt>
      <trkpt lat="43.52678" lon="5.53653">
        <ele>335.5</ele>
        <time>2023-05-28T13:13:02Z</time>
      </trkpt>
      <trkpt lat="43.52678" lon="5.53653">
        <ele>335.5</ele>
        <time>2023-05-28T13:13:03Z</time>
      </trkpt>
      <trkpt lat="43.52678" lon="5.53653">
        <ele>335.5</ele>
        <time>2023-05-28T13:13:04Z</time>
      </trkpt>
      <trkpt lat="43.52678" lon="5.53653">
        <ele>335.5</ele>
        <time>2023-05-28T13:13:05Z</time>
      </trkpt>
      <trkpt lat="43.52678" lon="5.53653">
        <ele>335.5</ele>
        <time>2023-05-28T13:13:06Z</time>
      </trkpt>
      <trkpt lat="43.52678" lon="5.53653">
        <ele>335.6</ele>
        <time>2023-05-28T13:13:07Z</time>
      </trkpt>
      <trkpt lat="43.52679" lon="5.53653">
        <ele>335.5</ele>
        <time>2023-05-28T13:13:08Z</time>
      </trkpt>
      <trkpt lat="43.52678" lon="5.53653">
        <ele>335.5</ele>
        <time>2023-05-28T13:13:09Z</time>
      </trkpt>
      <trkpt lat="43.52678" lon="5.53653">
        <ele>335.4</ele>
        <time>2023-05-28T13:13:10Z</time>
      </trkpt>
      <trkpt lat="43.52678" lon="5.53653">
        <ele>335.3</ele>
        <time>2023-05-28T13:13:11Z</time>
      </trkpt>
      <trkpt lat="43.52678" lon="5.53653">
        <ele>335.2</ele>
        <time>2023-05-28T13:13:12Z</time>
      </trkpt>
      <trkpt lat="43.52678" lon="5.53653">
        <ele>335.2</ele>
        <time>2023-05-28T13:13:13Z</time>
      </trkpt>
      <trkpt lat="43.52678" lon="5.53653">
        <ele>335.3</ele>
        <time>2023-05-28T13:13:14Z</time>
      </trkpt>
      <trkpt lat="43.52678" lon="5.53653">
        <ele>335.3</ele>
        <time>2023-05-28T13:13:15Z</time>
      </trkpt>
      <trkpt lat="43.52678" lon="5.53653">
        <ele>335.3</ele>
        <time>2023-05-28T13:13:16Z</time>
      </trkpt>
      <trkpt lat="43.52678" lon="5.53653">
        <ele>335.3</ele>
        <time>2023-05-28T13:13:17Z</time>
      </trkpt>
      <trkpt lat="43.52678" lon="5.53653">
        <ele>335.3</ele>
        <time>2023-05-28T13:13:18Z</time>
      </trkpt>
      <trkpt lat="43.52678" lon="5.53654">
        <ele>335.3</ele>
        <time>2023-05-28T13:13:19Z</time>
      </trkpt>
      <trkpt lat="43.52678" lon="5.53654">
        <ele>335.2</ele>
        <time>2023-05-28T13:13:20Z</time>
      </trkpt>
      <trkpt lat="43.52678" lon="5.53654">
        <ele>335.3</ele>
        <time>2023-05-28T13:13:21Z</time>
      </trkpt>
      <trkpt lat="43.52679" lon="5.53653">
        <ele>335.2</ele>
        <time>2023-05-28T13:13:22Z</time>
      </trkpt>
      <trkpt lat="43.52679" lon="5.53653">
        <ele>335.2</ele>
        <time>2023-05-28T13:13:23Z</time>
      </trkpt>
      <trkpt lat="43.52679" lon="5.53654">
        <ele>335.2</ele>
        <time>2023-05-28T13:13:24Z</time>
      </trkpt>
      <trkpt lat="43.52679" lon="5.53654">
        <ele>335.2</ele>
        <time>2023-05-28T13:13:25Z</time>
      </trkpt>
      <trkpt lat="43.52679" lon="5.53654">
        <ele>335.3</ele>
        <time>2023-05-28T13:13:26Z</time>
      </trkpt>
      <trkpt lat="43.52679" lon="5.53654">
        <ele>335.4</ele>
        <time>2023-05-28T13:13:27Z</time>
      </trkpt>
      <trkpt lat="43.52679" lon="5.53654">
        <ele>335.4</ele>
        <time>2023-05-28T13:13:28Z</time>
      </trkpt>
      <trkpt lat="43.52679" lon="5.53654">
        <ele>335.4</ele>
        <time>2023-05-28T13:13:29Z</time>
      </trkpt>
      <trkpt lat="43.52679" lon="5.53654">
        <ele>335.4</ele>
        <time>2023-05-28T13:13:30Z</time>
      </trkpt>
      <trkpt lat="43.52679" lon="5.53654">
        <ele>335.4</ele>
        <time>2023-05-28T13:13:31Z</time>
      </trkpt>
      <trkpt lat="43.52679" lon="5.53654">
        <ele>335.4</ele>
        <time>2023-05-28T13:13:32Z</time>
      </trkpt>
      <trkpt lat="43.52679" lon="5.53654">
        <ele>335.4</ele>
        <time>2023-05-28T13:13:33Z</time>
      </trkpt>
      <trkpt lat="43.52679" lon="5.53654">
        <ele>335.4</ele>
        <time>2023-05-28T13:13:34Z</time>
      </trkpt>
      <trkpt lat="43.52679" lon="5.53654">
        <ele>335.4</ele>
        <time>2023-05-28T13:13:35Z</time>
      </trkpt>
      <trkpt lat="43.52679" lon="5.53655">
        <ele>335.3</ele>
        <time>2023-05-28T13:13:36Z</time>
      </trkpt>
      <trkpt lat="43.52679" lon="5.53655">
        <ele>335.3</ele>
        <time>2023-05-28T13:13:37Z</time>
      </trkpt>
      <trkpt lat="43.52679" lon="5.53655">
        <ele>335.3</ele>
        <time>2023-05-28T13:13:38Z</time>
      </trkpt>
      <trkpt lat="43.52679" lon="5.53655">
        <ele>335.3</ele>
        <time>2023-05-28T13:13:39Z</time>
      </trkpt>
      <trkpt lat="43.52679" lon="5.53655">
        <ele>335.3</ele>
        <time>2023-05-28T13:13:40Z</time>
      </trkpt>
      <trkpt lat="43.52679" lon="5.53655">
        <ele>335.4</ele>
        <time>2023-05-28T13:13:41Z</time>
      </trkpt>
      <trkpt lat="43.52679" lon="5.53655">
        <ele>335.4</ele>
        <time>2023-05-28T13:13:42Z</time>
      </trkpt>
      <trkpt lat="43.52679" lon="5.53655">
        <ele>335.4</ele>
        <time>2023-05-28T13:13:43Z</time>
      </trkpt>
      <trkpt lat="43.52679" lon="5.53655">
        <ele>335.4</ele>
        <time>2023-05-28T13:13:44Z</time>
      </trkpt>
      <trkpt lat="43.52679" lon="5.53655">
        <ele>335.4</ele>
        <time>2023-05-28T13:13:45Z</time>
      </trkpt>
      <trkpt lat="43.52679" lon="5.53655">
        <ele>335.4</ele>
        <time>2023-05-28T13:13:46Z</time>
      </trkpt>
      <trkpt lat="43.52679" lon="5.53655">
        <ele>335.4</ele>
        <time>2023-05-28T13:13:47Z</time>
      </trkpt>
      <trkpt lat="43.52679" lon="5.53655">
        <ele>335.4</ele>
        <time>2023-05-28T13:13:48Z</time>
      </trkpt>
      <trkpt lat="43.52678" lon="5.53654">
        <ele>335.5</ele>
        <time>2023-05-28T13:13:49Z</time>
      </trkpt>
      <trkpt lat="43.52678" lon="5.53654">
        <ele>335.5</ele>
        <time>2023-05-28T13:13:50Z</time>
      </trkpt>
      <trkpt lat="43.52678" lon="5.53654">
        <ele>335.6</ele>
        <time>2023-05-28T13:13:51Z</time>
      </trkpt>
      <trkpt lat="43.52678" lon="5.53654">
        <ele>335.6</ele>
        <time>2023-05-28T13:13:52Z</time>
      </trkpt>
      <trkpt lat="43.52678" lon="5.53654">
        <ele>335.7</ele>
        <time>2023-05-28T13:13:53Z</time>
      </trkpt>
      <trkpt lat="43.52678" lon="5.53654">
        <ele>335.7</ele>
        <time>2023-05-28T13:13:54Z</time>
      </trkpt>
      <trkpt lat="43.52678" lon="5.53654">
        <ele>335.8</ele>
        <time>2023-05-28T13:13:55Z</time>
      </trkpt>
      <trkpt lat="43.52678" lon="5.53654">
        <ele>335.8</ele>
        <time>2023-05-28T13:13:56Z</time>
      </trkpt>
      <trkpt lat="43.52678" lon="5.53654">
        <ele>335.8</ele>
        <time>2023-05-28T13:13:57Z</time>
      </trkpt>
      <trkpt lat="43.52678" lon="5.53654">
        <ele>335.8</ele>
        <time>2023-05-28T13:13:58Z</time>
      </trkpt>
      <trkpt lat="43.52678" lon="5.53654">
        <ele>335.8</ele>
        <time>2023-05-28T13:13:59Z</time>
      </trkpt>
      <trkpt lat="43.52678" lon="5.53654">
        <ele>335.7</ele>
        <time>2023-05-28T13:14:00Z</time>
      </trkpt>
      <trkpt lat="43.52679" lon="5.53654">
        <ele>335.6</ele>
        <time>2023-05-28T13:14:01Z</time>
      </trkpt>
      <trkpt lat="43.52679" lon="5.53654">
        <ele>335.6</ele>
        <time>2023-05-28T13:14:02Z</time>
      </trkpt>
      <trkpt lat="43.52679" lon="5.53654">
        <ele>335.5</ele>
        <time>2023-05-28T13:14:03Z</time>
      </trkpt>
      <trkpt lat="43.52679" lon="5.53654">
        <ele>335.5</ele>
        <time>2023-05-28T13:14:04Z</time>
      </trkpt>
      <trkpt lat="43.52679" lon="5.53654">
        <ele>335.4</ele>
        <time>2023-05-28T13:14:05Z</time>
      </trkpt>
      <trkpt lat="43.52679" lon="5.53654">
        <ele>335.4</ele>
        <time>2023-05-28T13:14:06Z</time>
      </trkpt>
      <trkpt lat="43.52679" lon="5.53654">
        <ele>335.4</ele>
        <time>2023-05-28T13:14:07Z</time>
      </trkpt>
      <trkpt lat="43.5268" lon="5.53653">
        <ele>335.3</ele>
        <time>2023-05-28T13:14:08Z</time>
      </trkpt>
      <trkpt lat="43.5268" lon="5.53653">
        <ele>335.3</ele>
        <time>2023-05-28T13:14:09Z</time>
      </trkpt>
      <trkpt lat="43.5268" lon="5.53653">
        <ele>335.3</ele>
        <time>2023-05-28T13:14:10Z</time>
      </trkpt>
      <trkpt lat="43.5268" lon="5.53653">
        <ele>335.3</ele>
        <time>2023-05-28T13:14:11Z</time>
      </trkpt>
      <trkpt lat="43.5268" lon="5.53653">
        <ele>335.3</ele>
        <time>2023-05-28T13:14:12Z</time>
      </trkpt>
      <trkpt lat="43.5268" lon="5.53653">
        <ele>335.3</ele>
        <time>2023-05-28T13:14:13Z</time>
      </trkpt>
      <trkpt lat="43.5268" lon="5.53653">
        <ele>335.3</ele>
        <time>2023-05-28T13:14:14Z</time>
      </trkpt>
      <trkpt lat="43.5268" lon="5.53653">
        <ele>335.2</ele>
        <time>2023-05-28T13:14:15Z</time>
      </trkpt>
      <trkpt lat="43.5268" lon="5.53653">
        <ele>335.2</ele>
        <time>2023-05-28T13:14:16Z</time>
      </trkpt>
      <trkpt lat="43.5268" lon="5.53653">
        <ele>335.3</ele>
        <time>2023-05-28T13:14:17Z</time>
      </trkpt>
      <trkpt lat="43.5268" lon="5.53653">
        <ele>335.3</ele>
        <time>2023-05-28T13:14:18Z</time>
      </trkpt>
      <trkpt lat="43.5268" lon="5.53653">
        <ele>335.4</ele>
        <time>2023-05-28T13:14:19Z</time>
      </trkpt>
      <trkpt lat="43.5268" lon="5.53653">
        <ele>335.5</ele>
        <time>2023-05-28T13:14:20Z</time>
      </trkpt>
      <trkpt lat="43.5268" lon="5.53653">
        <ele>335.6</ele>
        <time>2023-05-28T13:14:21Z</time>
      </trkpt>
      <trkpt lat="43.5268" lon="5.53653">
        <ele>335.6</ele>
        <time>2023-05-28T13:14:22Z</time>
      </trkpt>
      <trkpt lat="43.5268" lon="5.53653">
        <ele>335.6</ele>
        <time>2023-05-28T13:14:23Z</time>
      </trkpt>
      <trkpt lat="43.5268" lon="5.53653">
        <ele>335.6</ele>
        <time>2023-05-28T13:14:24Z</time>
      </trkpt>
      <trkpt lat="43.52679" lon="5.53652">
        <ele>335.6</ele>
        <time>2023-05-28T13:14:25Z</time>
      </trkpt>
      <trkpt lat="43.52679" lon="5.53652">
        <ele>335.7</ele>
        <time>2023-05-28T13:14:26Z</time>
      </trkpt>
      <trkpt lat="43.52679" lon="5.53652">
        <ele>335.8</ele>
        <time>2023-05-28T13:14:27Z</time>
      </trkpt>
      <trkpt lat="43.52679" lon="5.53652">
        <ele>335.7</ele>
        <time>2023-05-28T13:14:28Z</time>
      </trkpt>
      <trkpt lat="43.52679" lon="5.53652">
        <ele>335.6</ele>
        <time>2023-05-28T13:14:29Z</time>
      </trkpt>
      <trkpt lat="43.52679" lon="5.53652">
        <ele>335.6</ele>
        <time>2023-05-28T13:14:30Z</time>
      </trkpt>
      <trkpt lat="43.52679" lon="5.53652">
        <ele>335.6</ele>
        <time>2023-05-28T13:14:31Z</time>
      </trkpt>
      <trkpt lat="43.52679" lon="5.53652">
        <ele>335.5</ele>
        <time>2023-05-28T13:14:32Z</time>
      </trkpt>
      <trkpt lat="43.52679" lon="5.53652">
        <ele>335.5</ele>
        <time>2023-05-28T13:14:33Z</time>
      </trkpt>
      <trkpt lat="43.52679" lon="5.53652">
        <ele>335.4</ele>
        <time>2023-05-28T13:14:34Z</time>
      </trkpt>
      <trkpt lat="43.52679" lon="5.53652">
        <ele>335.4</ele>
        <time>2023-05-28T13:14:35Z</time>
      </trkpt>
      <trkpt lat="43.52679" lon="5.53652">
        <ele>335.4</ele>
        <time>2023-05-28T13:14:36Z</time>
      </trkpt>
      <trkpt lat="43.52679" lon="5.53652">
        <ele>335.4</ele>
        <time>2023-05-28T13:14:37Z</time>
      </trkpt>
      <trkpt lat="43.52679" lon="5.53652">
        <ele>335.4</ele>
        <time>2023-05-28T13:14:38Z</time>
      </trkpt>
      <trkpt lat="43.52679" lon="5.53653">
        <ele>335.4</ele>
        <time>2023-05-28T13:14:39Z</time>
      </trkpt>
      <trkpt lat="43.52679" lon="5.53653">
        <ele>335.4</ele>
        <time>2023-05-28T13:14:40Z</time>
      </trkpt>
      <trkpt lat="43.52679" lon="5.53653">
        <ele>335.4</ele>
        <time>2023-05-28T13:14:41Z</time>
      </trkpt>
      <trkpt lat="43.52678" lon="5.53653">
        <ele>335.4</ele>
        <time>2023-05-28T13:14:42Z</time>
      </trkpt>
      <trkpt lat="43.52678" lon="5.53653">
        <ele>335.4</ele>
        <time>2023-05-28T13:14:43Z</time>
      </trkpt>
      <trkpt lat="43.52678" lon="5.53653">
        <ele>335.4</ele>
        <time>2023-05-28T13:14:44Z</time>
      </trkpt>
      <trkpt lat="43.52678" lon="5.53653">
        <ele>335.4</ele>
        <time>2023-05-28T13:14:45Z</time>
      </trkpt>
      <trkpt lat="43.52678" lon="5.53652">
        <ele>335.5</ele>
        <time>2023-05-28T13:14:46Z</time>
      </trkpt>
      <trkpt lat="43.52677" lon="5.53651">
        <ele>335.5</ele>
        <time>2023-05-28T13:14:47Z</time>
      </trkpt>
      <trkpt lat="43.52677" lon="5.53651">
        <ele>335.5</ele>
        <time>2023-05-28T13:14:48Z</time>
      </trkpt>
      <trkpt lat="43.52677" lon="5.5365">
        <ele>335.6</ele>
        <time>2023-05-28T13:14:49Z</time>
      </trkpt>
      <trkpt lat="43.52676" lon="5.5365">
        <ele>335.6</ele>
        <time>2023-05-28T13:14:50Z</time>
      </trkpt>
      <trkpt lat="43.52675" lon="5.5365">
        <ele>335.7</ele>
        <time>2023-05-28T13:14:51Z</time>
      </trkpt>
      <trkpt lat="43.52675" lon="5.53649">
        <ele>335.8</ele>
        <time>2023-05-28T13:14:52Z</time>
      </trkpt>
      <trkpt lat="43.52675" lon="5.53649">
        <ele>335.8</ele>
        <time>2023-05-28T13:14:53Z</time>
      </trkpt>
      <trkpt lat="43.52675" lon="5.53648">
        <ele>335.8</ele>
        <time>2023-05-28T13:14:54Z</time>
      </trkpt>
      <trkpt lat="43.52675" lon="5.53648">
        <ele>335.9</ele>
        <time>2023-05-28T13:14:55Z</time>
      </trkpt>
      <trkpt lat="43.52674" lon="5.53648">
        <ele>335.9</ele>
        <time>2023-05-28T13:14:56Z</time>
      </trkpt>
      <trkpt lat="43.52674" lon="5.53648">
        <ele>335.9</ele>
        <time>2023-05-28T13:14:57Z</time>
      </trkpt>
      <trkpt lat="43.52674" lon="5.53648">
        <ele>335.9</ele>
        <time>2023-05-28T13:14:58Z</time>
      </trkpt>
      <trkpt lat="43.52673" lon="5.53648">
        <ele>335.9</ele>
        <time>2023-05-28T13:14:59Z</time>
      </trkpt>
      <trkpt lat="43.52673" lon="5.53648">
        <ele>335.9</ele>
        <time>2023-05-28T13:15:00Z</time>
      </trkpt>
      <trkpt lat="43.52673" lon="5.53648">
        <ele>335.9</ele>
        <time>2023-05-28T13:15:01Z</time>
      </trkpt>
      <trkpt lat="43.52672" lon="5.53648">
        <ele>335.8</ele>
        <time>2023-05-28T13:15:02Z</time>
      </trkpt>
      <trkpt lat="43.52672" lon="5.53648">
        <ele>335.8</ele>
        <time>2023-05-28T13:15:03Z</time>
      </trkpt>
      <trkpt lat="43.52672" lon="5.53647">
        <ele>335.8</ele>
        <time>2023-05-28T13:15:04Z</time>
      </trkpt>
      <trkpt lat="43.52673" lon="5.53646">
        <ele>335.8</ele>
        <time>2023-05-28T13:15:05Z</time>
      </trkpt>
      <trkpt lat="43.52673" lon="5.53645">
        <ele>335.7</ele>
        <time>2023-05-28T13:15:06Z</time>
      </trkpt>
      <trkpt lat="43.52673" lon="5.53645">
        <ele>335.7</ele>
        <time>2023-05-28T13:15:07Z</time>
      </trkpt>
      <trkpt lat="43.52673" lon="5.53644">
        <ele>335.7</ele>
        <time>2023-05-28T13:15:08Z</time>
      </trkpt>
      <trkpt lat="43.52674" lon="5.53643">
        <ele>335.8</ele>
        <time>2023-05-28T13:15:09Z</time>
      </trkpt>
      <trkpt lat="43.52674" lon="5.53643">
        <ele>335.8</ele>
        <time>2023-05-28T13:15:10Z</time>
      </trkpt>
      <trkpt lat="43.52674" lon="5.53642">
        <ele>335.8</ele>
        <time>2023-05-28T13:15:11Z</time>
      </trkpt>
      <trkpt lat="43.52675" lon="5.53642">
        <ele>335.7</ele>
        <time>2023-05-28T13:15:12Z</time>
      </trkpt>
      <trkpt lat="43.52675" lon="5.53641">
        <ele>335.8</ele>
        <time>2023-05-28T13:15:13Z</time>
      </trkpt>
      <trkpt lat="43.52675" lon="5.5364">
        <ele>335.9</ele>
        <time>2023-05-28T13:15:14Z</time>
      </trkpt>
      <trkpt lat="43.52676" lon="5.53639">
        <ele>335.9</ele>
        <time>2023-05-28T13:15:15Z</time>
      </trkpt>
      <trkpt lat="43.52676" lon="5.53638">
        <ele>335.9</ele>
        <time>2023-05-28T13:15:16Z</time>
      </trkpt>
      <trkpt lat="43.52676" lon="5.53637">
        <ele>336</ele>
        <time>2023-05-28T13:15:17Z</time>
      </trkpt>
      <trkpt lat="43.52677" lon="5.53635">
        <ele>336</ele>
        <time>2023-05-28T13:15:18Z</time>
      </trkpt>
      <trkpt lat="43.52677" lon="5.53634">
        <ele>335.9</ele>
        <time>2023-05-28T13:15:19Z</time>
      </trkpt>
      <trkpt lat="43.52677" lon="5.53633">
        <ele>335.9</ele>
        <time>2023-05-28T13:15:20Z</time>
      </trkpt>
      <trkpt lat="43.52678" lon="5.53632">
        <ele>335.9</ele>
        <time>2023-05-28T13:15:21Z</time>
      </trkpt>
      <trkpt lat="43.52678" lon="5.53631">
        <ele>336.1</ele>
        <time>2023-05-28T13:15:22Z</time>
      </trkpt>
      <trkpt lat="43.52678" lon="5.5363">
        <ele>336.2</ele>
        <time>2023-05-28T13:15:23Z</time>
      </trkpt>
      <trkpt lat="43.52679" lon="5.53629">
        <ele>336.1</ele>
        <time>2023-05-28T13:15:24Z</time>
      </trkpt>
      <trkpt lat="43.52679" lon="5.53628">
        <ele>336.1</ele>
        <time>2023-05-28T13:15:25Z</time>
      </trkpt>
      <trkpt lat="43.5268" lon="5.53627">
        <ele>336.1</ele>
        <time>2023-05-28T13:15:26Z</time>
      </trkpt>
      <trkpt lat="43.5268" lon="5.53626">
        <ele>336.1</ele>
        <time>2023-05-28T13:15:27Z</time>
      </trkpt>
      <trkpt lat="43.5268" lon="5.53625">
        <ele>336</ele>
        <time>2023-05-28T13:15:28Z</time>
      </trkpt>
      <trkpt lat="43.5268" lon="5.53624">
        <ele>336.1</ele>
        <time>2023-05-28T13:15:29Z</time>
      </trkpt>
      <trkpt lat="43.52681" lon="5.53623">
        <ele>336.1</ele>
        <time>2023-05-28T13:15:30Z</time>
      </trkpt>
      <trkpt lat="43.52681" lon="5.53621">
        <ele>336.2</ele>
        <time>2023-05-28T13:15:31Z</time>
      </trkpt>
      <trkpt lat="43.52681" lon="5.5362">
        <ele>336.3</ele>
        <time>2023-05-28T13:15:32Z</time>
      </trkpt>
      <trkpt lat="43.52682" lon="5.53619">
        <ele>336.3</ele>
        <time>2023-05-28T13:15:33Z</time>
      </trkpt>
      <trkpt lat="43.52682" lon="5.53617">
        <ele>336.4</ele>
        <time>2023-05-28T13:15:34Z</time>
      </trkpt>
      <trkpt lat="43.52682" lon="5.53616">
        <ele>336.6</ele>
        <time>2023-05-28T13:15:35Z</time>
      </trkpt>
      <trkpt lat="43.52683" lon="5.53615">
        <ele>336.6</ele>
        <time>2023-05-28T13:15:36Z</time>
      </trkpt>
      <trkpt lat="43.52683" lon="5.53613">
        <ele>336.6</ele>
        <time>2023-05-28T13:15:37Z</time>
      </trkpt>
      <trkpt lat="43.52683" lon="5.53612">
        <ele>336.7</ele>
        <time>2023-05-28T13:15:38Z</time>
      </trkpt>
      <trkpt lat="43.52683" lon="5.53611">
        <ele>336.7</ele>
        <time>2023-05-28T13:15:39Z</time>
      </trkpt>
      <trkpt lat="43.52684" lon="5.5361">
        <ele>336.7</ele>
        <time>2023-05-28T13:15:40Z</time>
      </trkpt>
      <trkpt lat="43.52684" lon="5.53608">
        <ele>336.9</ele>
        <time>2023-05-28T13:15:41Z</time>
      </trkpt>
      <trkpt lat="43.52685" lon="5.53607">
        <ele>337</ele>
        <time>2023-05-28T13:15:42Z</time>
      </trkpt>
      <trkpt lat="43.52685" lon="5.53606">
        <ele>337.1</ele>
        <time>2023-05-28T13:15:43Z</time>
      </trkpt>
      <trkpt lat="43.52685" lon="5.53604">
        <ele>337.2</ele>
        <time>2023-05-28T13:15:44Z</time>
      </trkpt>
      <trkpt lat="43.52685" lon="5.53603">
        <ele>337.2</ele>
        <time>2023-05-28T13:15:45Z</time>
      </trkpt>
      <trkpt lat="43.52685" lon="5.53601">
        <ele>337.3</ele>
        <time>2023-05-28T13:15:46Z</time>
      </trkpt>
      <trkpt lat="43.52685" lon="5.536">
        <ele>337.6</ele>
        <time>2023-05-28T13:15:47Z</time>
      </trkpt>
      <trkpt lat="43.52685" lon="5.53599">
        <ele>337.7</ele>
        <time>2023-05-28T13:15:48Z</time>
      </trkpt>
      <trkpt lat="43.52685" lon="5.53597">
        <ele>337.8</ele>
        <time>2023-05-28T13:15:49Z</time>
      </trkpt>
      <trkpt lat="43.52686" lon="5.53596">
        <ele>338</ele>
        <time>2023-05-28T13:15:50Z</time>
      </trkpt>
      <trkpt lat="43.52686" lon="5.53594">
        <ele>338.1</ele>
        <time>2023-05-28T13:15:51Z</time>
      </trkpt>
      <trkpt lat="43.52686" lon="5.53593">
        <ele>338.1</ele>
        <time>2023-05-28T13:15:52Z</time>
      </trkpt>
      <trkpt lat="43.52686" lon="5.53591">
        <ele>338.2</ele>
        <time>2023-05-28T13:15:53Z</time>
      </trkpt>
      <trkpt lat="43.52686" lon="5.5359">
        <ele>338.2</ele>
        <time>2023-05-28T13:15:54Z</time>
      </trkpt>
      <trkpt lat="43.52686" lon="5.53589">
        <ele>338.4</ele>
        <time>2023-05-28T13:15:55Z</time>
      </trkpt>
      <trkpt lat="43.52686" lon="5.53587">
        <ele>338.5</ele>
        <time>2023-05-28T13:15:56Z</time>
      </trkpt>
      <trkpt lat="43.52687" lon="5.53585">
        <ele>338.6</ele>
        <time>2023-05-28T13:15:57Z</time>
      </trkpt>
      <trkpt lat="43.52687" lon="5.53584">
        <ele>338.9</ele>
        <time>2023-05-28T13:15:58Z</time>
      </trkpt>
      <trkpt lat="43.52687" lon="5.53583">
        <ele>339</ele>
        <time>2023-05-28T13:15:59Z</time>
      </trkpt>
      <trkpt lat="43.52687" lon="5.53582">
        <ele>339.2</ele>
        <time>2023-05-28T13:16:00Z</time>
      </trkpt>
      <trkpt lat="43.52687" lon="5.5358">
        <ele>339.3</ele>
        <time>2023-05-28T13:16:01Z</time>
      </trkpt>
      <trkpt lat="43.52687" lon="5.53579">
        <ele>339.4</ele>
        <time>2023-05-28T13:16:02Z</time>
      </trkpt>
      <trkpt lat="43.52687" lon="5.53577">
        <ele>339.5</ele>
        <time>2023-05-28T13:16:03Z</time>
      </trkpt>
      <trkpt lat="43.52687" lon="5.53576">
        <ele>339.6</ele>
        <time>2023-05-28T13:16:04Z</time>
      </trkpt>
      <trkpt lat="43.52687" lon="5.53574">
        <ele>339.6</ele>
        <time>2023-05-28T13:16:05Z</time>
      </trkpt>
      <trkpt lat="43.52688" lon="5.53573">
        <ele>339.7</ele>
        <time>2023-05-28T13:16:06Z</time>
      </trkpt>
      <trkpt lat="43.52688" lon="5.53572">
        <ele>339.8</ele>
        <time>2023-05-28T13:16:07Z</time>
      </trkpt>
      <trkpt lat="43.52688" lon="5.5357">
        <ele>340</ele>
        <time>2023-05-28T13:16:08Z</time>
      </trkpt>
      <trkpt lat="43.52688" lon="5.53569">
        <ele>340.2</ele>
        <time>2023-05-28T13:16:09Z</time>
      </trkpt>
      <trkpt lat="43.52688" lon="5.53568">
        <ele>340.3</ele>
        <time>2023-05-28T13:16:10Z</time>
      </trkpt>
      <trkpt lat="43.52688" lon="5.53566">
        <ele>340.4</ele>
        <time>2023-05-28T13:16:11Z</time>
      </trkpt>
      <trkpt lat="43.52688" lon="5.53564">
        <ele>340.7</ele>
        <time>2023-05-28T13:16:12Z</time>
      </trkpt>
      <trkpt lat="43.52688" lon="5.53563">
        <ele>340.8</ele>
        <time>2023-05-28T13:16:13Z</time>
      </trkpt>
      <trkpt lat="43.52689" lon="5.53562">
        <ele>340.9</ele>
        <time>2023-05-28T13:16:14Z</time>
      </trkpt>
      <trkpt lat="43.52689" lon="5.5356">
        <ele>341</ele>
        <time>2023-05-28T13:16:15Z</time>
      </trkpt>
      <trkpt lat="43.52689" lon="5.53559">
        <ele>341.1</ele>
        <time>2023-05-28T13:16:16Z</time>
      </trkpt>
      <trkpt lat="43.52689" lon="5.53558">
        <ele>341.2</ele>
        <time>2023-05-28T13:16:17Z</time>
      </trkpt>
      <trkpt lat="43.52689" lon="5.53556">
        <ele>341.4</ele>
        <time>2023-05-28T13:16:18Z</time>
      </trkpt>
      <trkpt lat="43.5269" lon="5.53555">
        <ele>341.5</ele>
        <time>2023-05-28T13:16:19Z</time>
      </trkpt>
      <trkpt lat="43.5269" lon="5.53553">
        <ele>341.6</ele>
        <time>2023-05-28T13:16:20Z</time>
      </trkpt>
      <trkpt lat="43.5269" lon="5.53551">
        <ele>341.7</ele>
        <time>2023-05-28T13:16:21Z</time>
      </trkpt>
      <trkpt lat="43.5269" lon="5.5355">
        <ele>341.8</ele>
        <time>2023-05-28T13:16:22Z</time>
      </trkpt>
      <trkpt lat="43.5269" lon="5.53549">
        <ele>341.9</ele>
        <time>2023-05-28T13:16:23Z</time>
      </trkpt>
      <trkpt lat="43.5269" lon="5.53547">
        <ele>342.1</ele>
        <time>2023-05-28T13:16:24Z</time>
      </trkpt>
      <trkpt lat="43.5269" lon="5.53546">
        <ele>342.3</ele>
        <time>2023-05-28T13:16:25Z</time>
      </trkpt>
      <trkpt lat="43.52691" lon="5.53544">
        <ele>342.4</ele>
        <time>2023-05-28T13:16:26Z</time>
      </trkpt>
      <trkpt lat="43.52691" lon="5.53542">
        <ele>342.6</ele>
        <time>2023-05-28T13:16:27Z</time>
      </trkpt>
      <trkpt lat="43.52691" lon="5.53541">
        <ele>342.7</ele>
        <time>2023-05-28T13:16:28Z</time>
      </trkpt>
      <trkpt lat="43.52692" lon="5.53539">
        <ele>342.8</ele>
        <time>2023-05-28T13:16:29Z</time>
      </trkpt>
      <trkpt lat="43.52692" lon="5.53538">
        <ele>342.9</ele>
        <time>2023-05-28T13:16:30Z</time>
      </trkpt>
      <trkpt lat="43.52692" lon="5.53536">
        <ele>342.9</ele>
        <time>2023-05-28T13:16:31Z</time>
      </trkpt>
      <trkpt lat="43.52691" lon="5.53535">
        <ele>343</ele>
        <time>2023-05-28T13:16:32Z</time>
      </trkpt>
      <trkpt lat="43.52691" lon="5.53534">
        <ele>343.1</ele>
        <time>2023-05-28T13:16:33Z</time>
      </trkpt>
      <trkpt lat="43.52692" lon="5.53532">
        <ele>343.2</ele>
        <time>2023-05-28T13:16:34Z</time>
      </trkpt>
      <trkpt lat="43.52692" lon="5.5353">
        <ele>343.3</ele>
        <time>2023-05-28T13:16:35Z</time>
      </trkpt>
      <trkpt lat="43.52692" lon="5.53529">
        <ele>343.4</ele>
        <time>2023-05-28T13:16:36Z</time>
      </trkpt>
      <trkpt lat="43.52692" lon="5.53527">
        <ele>343.5</ele>
        <time>2023-05-28T13:16:37Z</time>
      </trkpt>
      <trkpt lat="43.52692" lon="5.53526">
        <ele>343.6</ele>
        <time>2023-05-28T13:16:38Z</time>
      </trkpt>
      <trkpt lat="43.52693" lon="5.53524">
        <ele>343.8</ele>
        <time>2023-05-28T13:16:39Z</time>
      </trkpt>
      <trkpt lat="43.52693" lon="5.53522">
        <ele>343.8</ele>
        <time>2023-05-28T13:16:40Z</time>
      </trkpt>
      <trkpt lat="43.52692" lon="5.53521">
        <ele>343.8</ele>
        <time>2023-05-28T13:16:41Z</time>
      </trkpt>
      <trkpt lat="43.52692" lon="5.53519">
        <ele>343.9</ele>
        <time>2023-05-28T13:16:42Z</time>
      </trkpt>
      <trkpt lat="43.52692" lon="5.53518">
        <ele>344</ele>
        <time>2023-05-28T13:16:43Z</time>
      </trkpt>
      <trkpt lat="43.52692" lon="5.53517">
        <ele>344.1</ele>
        <time>2023-05-28T13:16:44Z</time>
      </trkpt>
      <trkpt lat="43.52693" lon="5.53515">
        <ele>344.2</ele>
        <time>2023-05-28T13:16:45Z</time>
      </trkpt>
      <trkpt lat="43.52693" lon="5.53513">
        <ele>344.3</ele>
        <time>2023-05-28T13:16:46Z</time>
      </trkpt>
      <trkpt lat="43.52693" lon="5.53511">
        <ele>344.4</ele>
        <time>2023-05-28T13:16:47Z</time>
      </trkpt>
      <trkpt lat="43.52693" lon="5.5351">
        <ele>344.5</ele>
        <time>2023-05-28T13:16:48Z</time>
      </trkpt>
      <trkpt lat="43.52693" lon="5.53509">
        <ele>344.5</ele>
        <time>2023-05-28T13:16:49Z</time>
      </trkpt>
      <trkpt lat="43.52693" lon="5.53507">
        <ele>344.6</ele>
        <time>2023-05-28T13:16:50Z</time>
      </trkpt>
      <trkpt lat="43.52693" lon="5.53506">
        <ele>344.7</ele>
        <time>2023-05-28T13:16:51Z</time>
      </trkpt>
      <trkpt lat="43.52693" lon="5.53504">
        <ele>344.8</ele>
        <time>2023-05-28T13:16:52Z</time>
      </trkpt>
      <trkpt lat="43.52694" lon="5.53503">
        <ele>344.9</ele>
        <time>2023-05-28T13:16:53Z</time>
      </trkpt>
      <trkpt lat="43.52693" lon="5.53501">
        <ele>345.1</ele>
        <time>2023-05-28T13:16:54Z</time>
      </trkpt>
      <trkpt lat="43.52694" lon="5.535">
        <ele>345.3</ele>
        <time>2023-05-28T13:16:55Z</time>
      </trkpt>
      <trkpt lat="43.52694" lon="5.53498">
        <ele>345.5</ele>
        <time>2023-05-28T13:16:56Z</time>
      </trkpt>
      <trkpt lat="43.52694" lon="5.53497">
        <ele>345.8</ele>
        <time>2023-05-28T13:16:57Z</time>
      </trkpt>
      <trkpt lat="43.52694" lon="5.53495">
        <ele>346</ele>
        <time>2023-05-28T13:16:58Z</time>
      </trkpt>
      <trkpt lat="43.52693" lon="5.53494">
        <ele>346.1</ele>
        <time>2023-05-28T13:16:59Z</time>
      </trkpt>
      <trkpt lat="43.52693" lon="5.53492">
        <ele>346.3</ele>
        <time>2023-05-28T13:17:00Z</time>
      </trkpt>
      <trkpt lat="43.52693" lon="5.53491">
        <ele>346.4</ele>
        <time>2023-05-28T13:17:01Z</time>
      </trkpt>
      <trkpt lat="43.52693" lon="5.53489">
        <ele>346.6</ele>
        <time>2023-05-28T13:17:02Z</time>
      </trkpt>
      <trkpt lat="43.52692" lon="5.53488">
        <ele>346.8</ele>
        <time>2023-05-28T13:17:03Z</time>
      </trkpt>
      <trkpt lat="43.52692" lon="5.53486">
        <ele>346.9</ele>
        <time>2023-05-28T13:17:04Z</time>
      </trkpt>
      <trkpt lat="43.52692" lon="5.53485">
        <ele>347.1</ele>
        <time>2023-05-28T13:17:05Z</time>
      </trkpt>
      <trkpt lat="43.52692" lon="5.53483">
        <ele>347.3</ele>
        <time>2023-05-28T13:17:06Z</time>
      </trkpt>
      <trkpt lat="43.52691" lon="5.53482">
        <ele>347.3</ele>
        <time>2023-05-28T13:17:07Z</time>
      </trkpt>
      <trkpt lat="43.52691" lon="5.5348">
        <ele>347.5</ele>
        <time>2023-05-28T13:17:08Z</time>
      </trkpt>
      <trkpt lat="43.52691" lon="5.53479">
        <ele>347.6</ele>
        <time>2023-05-28T13:17:09Z</time>
      </trkpt>
      <trkpt lat="43.52691" lon="5.53477">
        <ele>347.7</ele>
        <time>2023-05-28T13:17:10Z</time>
      </trkpt>
      <trkpt lat="43.52691" lon="5.53475">
        <ele>347.8</ele>
        <time>2023-05-28T13:17:11Z</time>
      </trkpt>
      <trkpt lat="43.52691" lon="5.53474">
        <ele>348</ele>
        <time>2023-05-28T13:17:12Z</time>
      </trkpt>
      <trkpt lat="43.52691" lon="5.53472">
        <ele>348.2</ele>
        <time>2023-05-28T13:17:13Z</time>
      </trkpt>
      <trkpt lat="43.52691" lon="5.53471">
        <ele>348.3</ele>
        <time>2023-05-28T13:17:14Z</time>
      </trkpt>
      <trkpt lat="43.52691" lon="5.53469">
        <ele>348.4</ele>
        <time>2023-05-28T13:17:15Z</time>
      </trkpt>
      <trkpt lat="43.52691" lon="5.53467">
        <ele>348.6</ele>
        <time>2023-05-28T13:17:16Z</time>
      </trkpt>
      <trkpt lat="43.52691" lon="5.53466">
        <ele>348.8</ele>
        <time>2023-05-28T13:17:17Z</time>
      </trkpt>
      <trkpt lat="43.52691" lon="5.53465">
        <ele>348.9</ele>
        <time>2023-05-28T13:17:18Z</time>
      </trkpt>
      <trkpt lat="43.52691" lon="5.53463">
        <ele>349</ele>
        <time>2023-05-28T13:17:19Z</time>
      </trkpt>
      <trkpt lat="43.52691" lon="5.53462">
        <ele>349.2</ele>
        <time>2023-05-28T13:17:20Z</time>
      </trkpt>
      <trkpt lat="43.5269" lon="5.5346">
        <ele>349.4</ele>
        <time>2023-05-28T13:17:21Z</time>
      </trkpt>
      <trkpt lat="43.5269" lon="5.53459">
        <ele>349.5</ele>
        <time>2023-05-28T13:17:22Z</time>
      </trkpt>
      <trkpt lat="43.5269" lon="5.53457">
        <ele>349.7</ele>
        <time>2023-05-28T13:17:23Z</time>
      </trkpt>
      <trkpt lat="43.5269" lon="5.53455">
        <ele>349.9</ele>
        <time>2023-05-28T13:17:24Z</time>
      </trkpt>
      <trkpt lat="43.5269" lon="5.53454">
        <ele>350.1</ele>
        <time>2023-05-28T13:17:25Z</time>
      </trkpt>
      <trkpt lat="43.5269" lon="5.53452">
        <ele>350.3</ele>
        <time>2023-05-28T13:17:26Z</time>
      </trkpt>
      <trkpt lat="43.52689" lon="5.5345">
        <ele>350.4</ele>
        <time>2023-05-28T13:17:27Z</time>
      </trkpt>
      <trkpt lat="43.52689" lon="5.53449">
        <ele>350.6</ele>
        <time>2023-05-28T13:17:28Z</time>
      </trkpt>
      <trkpt lat="43.52689" lon="5.53448">
        <ele>350.8</ele>
        <time>2023-05-28T13:17:29Z</time>
      </trkpt>
      <trkpt lat="43.52689" lon="5.53446">
        <ele>350.9</ele>
        <time>2023-05-28T13:17:30Z</time>
      </trkpt>
      <trkpt lat="43.52689" lon="5.53445">
        <ele>351.2</ele>
        <time>2023-05-28T13:17:31Z</time>
      </trkpt>
      <trkpt lat="43.5269" lon="5.53444">
        <ele>351.4</ele>
        <time>2023-05-28T13:17:32Z</time>
      </trkpt>
      <trkpt lat="43.5269" lon="5.53442">
        <ele>351.5</ele>
        <time>2023-05-28T13:17:33Z</time>
      </trkpt>
      <trkpt lat="43.5269" lon="5.53441">
        <ele>351.7</ele>
        <time>2023-05-28T13:17:34Z</time>
      </trkpt>
      <trkpt lat="43.5269" lon="5.53439">
        <ele>351.8</ele>
        <time>2023-05-28T13:17:35Z</time>
      </trkpt>
      <trkpt lat="43.5269" lon="5.53438">
        <ele>351.9</ele>
        <time>2023-05-28T13:17:36Z</time>
      </trkpt>
      <trkpt lat="43.5269" lon="5.53436">
        <ele>351.9</ele>
        <time>2023-05-28T13:17:37Z</time>
      </trkpt>
      <trkpt lat="43.5269" lon="5.53435">
        <ele>352</ele>
        <time>2023-05-28T13:17:38Z</time>
      </trkpt>
      <trkpt lat="43.5269" lon="5.53433">
        <ele>352.1</ele>
        <time>2023-05-28T13:17:39Z</time>
      </trkpt>
      <trkpt lat="43.5269" lon="5.53432">
        <ele>352.2</ele>
        <time>2023-05-28T13:17:40Z</time>
      </trkpt>
      <trkpt lat="43.5269" lon="5.53431">
        <ele>352.3</ele>
        <time>2023-05-28T13:17:41Z</time>
      </trkpt>
      <trkpt lat="43.5269" lon="5.53429">
        <ele>352.3</ele>
        <time>2023-05-28T13:17:42Z</time>
      </trkpt>
      <trkpt lat="43.5269" lon="5.53428">
        <ele>352.4</ele>
        <time>2023-05-28T13:17:43Z</time>
      </trkpt>
      <trkpt lat="43.52689" lon="5.53426">
        <ele>352.4</ele>
        <time>2023-05-28T13:17:44Z</time>
      </trkpt>
      <trkpt lat="43.52689" lon="5.53425">
        <ele>352.5</ele>
        <time>2023-05-28T13:17:45Z</time>
      </trkpt>
      <trkpt lat="43.5269" lon="5.53424">
        <ele>352.6</ele>
        <time>2023-05-28T13:17:46Z</time>
      </trkpt>
      <trkpt lat="43.5269" lon="5.53422">
        <ele>352.6</ele>
        <time>2023-05-28T13:17:47Z</time>
      </trkpt>
      <trkpt lat="43.5269" lon="5.5342">
        <ele>352.7</ele>
        <time>2023-05-28T13:17:48Z</time>
      </trkpt>
      <trkpt lat="43.52689" lon="5.53419">
        <ele>352.8</ele>
        <time>2023-05-28T13:17:49Z</time>
      </trkpt>
      <trkpt lat="43.52689" lon="5.53417">
        <ele>352.8</ele>
        <time>2023-05-28T13:17:50Z</time>
      </trkpt>
      <trkpt lat="43.52689" lon="5.53416">
        <ele>353</ele>
        <time>2023-05-28T13:17:51Z</time>
      </trkpt>
      <trkpt lat="43.52689" lon="5.53414">
        <ele>353.2</ele>
        <time>2023-05-28T13:17:52Z</time>
      </trkpt>
      <trkpt lat="43.52689" lon="5.53413">
        <ele>353.3</ele>
        <time>2023-05-28T13:17:53Z</time>
      </trkpt>
      <trkpt lat="43.52689" lon="5.53411">
        <ele>353.5</ele>
        <time>2023-05-28T13:17:54Z</time>
      </trkpt>
      <trkpt lat="43.52689" lon="5.53409">
        <ele>353.7</ele>
        <time>2023-05-28T13:17:55Z</time>
      </trkpt>
      <trkpt lat="43.52689" lon="5.53408">
        <ele>353.8</ele>
        <time>2023-05-28T13:17:56Z</time>
      </trkpt>
      <trkpt lat="43.52689" lon="5.53406">
        <ele>354</ele>
        <time>2023-05-28T13:17:57Z</time>
      </trkpt>
      <trkpt lat="43.52689" lon="5.53405">
        <ele>354.1</ele>
        <time>2023-05-28T13:17:58Z</time>
      </trkpt>
      <trkpt lat="43.52688" lon="5.53403">
        <ele>354.2</ele>
        <time>2023-05-28T13:17:59Z</time>
      </trkpt>
      <trkpt lat="43.52688" lon="5.53402">
        <ele>354.3</ele>
        <time>2023-05-28T13:18:00Z</time>
      </trkpt>
      <trkpt lat="43.52689" lon="5.534">
        <ele>354.4</ele>
        <time>2023-05-28T13:18:01Z</time>
      </trkpt>
      <trkpt lat="43.52689" lon="5.53398">
        <ele>354.5</ele>
        <time>2023-05-28T13:18:02Z</time>
      </trkpt>
      <trkpt lat="43.52688" lon="5.53397">
        <ele>354.6</ele>
        <time>2023-05-28T13:18:03Z</time>
      </trkpt>
      <trkpt lat="43.52688" lon="5.53396">
        <ele>354.7</ele>
        <time>2023-05-28T13:18:04Z</time>
      </trkpt>
      <trkpt lat="43.52688" lon="5.53394">
        <ele>354.8</ele>
        <time>2023-05-28T13:18:05Z</time>
      </trkpt>
      <trkpt lat="43.52687" lon="5.53392">
        <ele>354.8</ele>
        <time>2023-05-28T13:18:06Z</time>
      </trkpt>
      <trkpt lat="43.52687" lon="5.53391">
        <ele>355.1</ele>
        <time>2023-05-28T13:18:07Z</time>
      </trkpt>
      <trkpt lat="43.52687" lon="5.53389">
        <ele>355.2</ele>
        <time>2023-05-28T13:18:08Z</time>
      </trkpt>
      <trkpt lat="43.52687" lon="5.53388">
        <ele>355.2</ele>
        <time>2023-05-28T13:18:09Z</time>
      </trkpt>
      <trkpt lat="43.52687" lon="5.53386">
        <ele>355.3</ele>
        <time>2023-05-28T13:18:10Z</time>
      </trkpt>
      <trkpt lat="43.52687" lon="5.53384">
        <ele>355.3</ele>
        <time>2023-05-28T13:18:11Z</time>
      </trkpt>
      <trkpt lat="43.52688" lon="5.53383">
        <ele>355.4</ele>
        <time>2023-05-28T13:18:12Z</time>
      </trkpt>
      <trkpt lat="43.52688" lon="5.53381">
        <ele>355.5</ele>
        <time>2023-05-28T13:18:13Z</time>
      </trkpt>
      <trkpt lat="43.52688" lon="5.53379">
        <ele>355.6</ele>
        <time>2023-05-28T13:18:14Z</time>
      </trkpt>
      <trkpt lat="43.52688" lon="5.53378">
        <ele>355.8</ele>
        <time>2023-05-28T13:18:15Z</time>
      </trkpt>
      <trkpt lat="43.52688" lon="5.53376">
        <ele>356</ele>
        <time>2023-05-28T13:18:16Z</time>
      </trkpt>
      <trkpt lat="43.52688" lon="5.53374">
        <ele>356</ele>
        <time>2023-05-28T13:18:17Z</time>
      </trkpt>
      <trkpt lat="43.52688" lon="5.53373">
        <ele>356.1</ele>
        <time>2023-05-28T13:18:18Z</time>
      </trkpt>
      <trkpt lat="43.52688" lon="5.53372">
        <ele>356.2</ele>
        <time>2023-05-28T13:18:19Z</time>
      </trkpt>
      <trkpt lat="43.52688" lon="5.5337">
        <ele>356.2</ele>
        <time>2023-05-28T13:18:20Z</time>
      </trkpt>
      <trkpt lat="43.52688" lon="5.53368">
        <ele>356.3</ele>
        <time>2023-05-28T13:18:21Z</time>
      </trkpt>
      <trkpt lat="43.52688" lon="5.53367">
        <ele>356.4</ele>
        <time>2023-05-28T13:18:22Z</time>
      </trkpt>
      <trkpt lat="43.52689" lon="5.53365">
        <ele>356.6</ele>
        <time>2023-05-28T13:18:23Z</time>
      </trkpt>
      <trkpt lat="43.52689" lon="5.53363">
        <ele>356.6</ele>
        <time>2023-05-28T13:18:24Z</time>
      </trkpt>
      <trkpt lat="43.5269" lon="5.53362">
        <ele>356.7</ele>
        <time>2023-05-28T13:18:25Z</time>
      </trkpt>
      <trkpt lat="43.5269" lon="5.5336">
        <ele>356.8</ele>
        <time>2023-05-28T13:18:26Z</time>
      </trkpt>
      <trkpt lat="43.5269" lon="5.53358">
        <ele>356.9</ele>
        <time>2023-05-28T13:18:27Z</time>
      </trkpt>
      <trkpt lat="43.5269" lon="5.53356">
        <ele>357</ele>
        <time>2023-05-28T13:18:28Z</time>
      </trkpt>
      <trkpt lat="43.5269" lon="5.53355">
        <ele>357.1</ele>
        <time>2023-05-28T13:18:29Z</time>
      </trkpt>
      <trkpt lat="43.5269" lon="5.53353">
        <ele>357.2</ele>
        <time>2023-05-28T13:18:30Z</time>
      </trkpt>
      <trkpt lat="43.5269" lon="5.53351">
        <ele>357.2</ele>
        <time>2023-05-28T13:18:31Z</time>
      </trkpt>
      <trkpt lat="43.52691" lon="5.5335">
        <ele>357.2</ele>
        <time>2023-05-28T13:18:32Z</time>
      </trkpt>
      <trkpt lat="43.5269" lon="5.53348">
        <ele>357.2</ele>
        <time>2023-05-28T13:18:33Z</time>
      </trkpt>
      <trkpt lat="43.52691" lon="5.53347">
        <ele>357.3</ele>
        <time>2023-05-28T13:18:34Z</time>
      </trkpt>
      <trkpt lat="43.52691" lon="5.53345">
        <ele>357.5</ele>
        <time>2023-05-28T13:18:35Z</time>
      </trkpt>
      <trkpt lat="43.52691" lon="5.53343">
        <ele>357.6</ele>
        <time>2023-05-28T13:18:36Z</time>
      </trkpt>
      <trkpt lat="43.52692" lon="5.53341">
        <ele>357.5</ele>
        <time>2023-05-28T13:18:37Z</time>
      </trkpt>
      <trkpt lat="43.52692" lon="5.5334">
        <ele>357.5</ele>
        <time>2023-05-28T13:18:38Z</time>
      </trkpt>
      <trkpt lat="43.52692" lon="5.53338">
        <ele>357.5</ele>
        <time>2023-05-28T13:18:39Z</time>
      </trkpt>
      <trkpt lat="43.52692" lon="5.53336">
        <ele>357.6</ele>
        <time>2023-05-28T13:18:40Z</time>
      </trkpt>
      <trkpt lat="43.52693" lon="5.53335">
        <ele>357.6</ele>
        <time>2023-05-28T13:18:41Z</time>
      </trkpt>
      <trkpt lat="43.52693" lon="5.53333">
        <ele>357.6</ele>
        <time>2023-05-28T13:18:42Z</time>
      </trkpt>
      <trkpt lat="43.52693" lon="5.53332">
        <ele>357.7</ele>
        <time>2023-05-28T13:18:43Z</time>
      </trkpt>
      <trkpt lat="43.52693" lon="5.53331">
        <ele>357.8</ele>
        <time>2023-05-28T13:18:44Z</time>
      </trkpt>
      <trkpt lat="43.52693" lon="5.53329">
        <ele>357.8</ele>
        <time>2023-05-28T13:18:45Z</time>
      </trkpt>
      <trkpt lat="43.52694" lon="5.53327">
        <ele>358</ele>
        <time>2023-05-28T13:18:46Z</time>
      </trkpt>
      <trkpt lat="43.52694" lon="5.53326">
        <ele>358.1</ele>
        <time>2023-05-28T13:18:47Z</time>
      </trkpt>
      <trkpt lat="43.52694" lon="5.53324">
        <ele>358.2</ele>
        <time>2023-05-28T13:18:48Z</time>
      </trkpt>
      <trkpt lat="43.52694" lon="5.53322">
        <ele>358.3</ele>
        <time>2023-05-28T13:18:49Z</time>
      </trkpt>
      <trkpt lat="43.52694" lon="5.5332">
        <ele>358.3</ele>
        <time>2023-05-28T13:18:50Z</time>
      </trkpt>
      <trkpt lat="43.52694" lon="5.53319">
        <ele>358.3</ele>
        <time>2023-05-28T13:18:51Z</time>
      </trkpt>
      <trkpt lat="43.52695" lon="5.53317">
        <ele>358.3</ele>
        <time>2023-05-28T13:18:52Z</time>
      </trkpt>
      <trkpt lat="43.52694" lon="5.53315">
        <ele>358.3</ele>
        <time>2023-05-28T13:18:53Z</time>
      </trkpt>
      <trkpt lat="43.52695" lon="5.53314">
        <ele>358.3</ele>
        <time>2023-05-28T13:18:54Z</time>
      </trkpt>
      <trkpt lat="43.52695" lon="5.53312">
        <ele>358.3</ele>
        <time>2023-05-28T13:18:55Z</time>
      </trkpt>
      <trkpt lat="43.52695" lon="5.53311">
        <ele>358.4</ele>
        <time>2023-05-28T13:18:56Z</time>
      </trkpt>
      <trkpt lat="43.52695" lon="5.53309">
        <ele>358.5</ele>
        <time>2023-05-28T13:18:57Z</time>
      </trkpt>
      <trkpt lat="43.52695" lon="5.53308">
        <ele>358.6</ele>
        <time>2023-05-28T13:18:58Z</time>
      </trkpt>
      <trkpt lat="43.52695" lon="5.53306">
        <ele>358.7</ele>
        <time>2023-05-28T13:18:59Z</time>
      </trkpt>
      <trkpt lat="43.52695" lon="5.53305">
        <ele>358.8</ele>
        <time>2023-05-28T13:19:00Z</time>
      </trkpt>
      <trkpt lat="43.52695" lon="5.53303">
        <ele>358.9</ele>
        <time>2023-05-28T13:19:01Z</time>
      </trkpt>
      <trkpt lat="43.52696" lon="5.53301">
        <ele>359</ele>
        <time>2023-05-28T13:19:02Z</time>
      </trkpt>
      <trkpt lat="43.52696" lon="5.53299">
        <ele>359</ele>
        <time>2023-05-28T13:19:03Z</time>
      </trkpt>
      <trkpt lat="43.52696" lon="5.53298">
        <ele>359.1</ele>
        <time>2023-05-28T13:19:04Z</time>
      </trkpt>
      <trkpt lat="43.52696" lon="5.53296">
        <ele>359.3</ele>
        <time>2023-05-28T13:19:05Z</time>
      </trkpt>
      <trkpt lat="43.52697" lon="5.53294">
        <ele>359.4</ele>
        <time>2023-05-28T13:19:06Z</time>
      </trkpt>
      <trkpt lat="43.52697" lon="5.53293">
        <ele>359.5</ele>
        <time>2023-05-28T13:19:07Z</time>
      </trkpt>
      <trkpt lat="43.52697" lon="5.53291">
        <ele>359.6</ele>
        <time>2023-05-28T13:19:08Z</time>
      </trkpt>
      <trkpt lat="43.52697" lon="5.5329">
        <ele>359.7</ele>
        <time>2023-05-28T13:19:09Z</time>
      </trkpt>
      <trkpt lat="43.52698" lon="5.53289">
        <ele>359.7</ele>
        <time>2023-05-28T13:19:10Z</time>
      </trkpt>
      <trkpt lat="43.52699" lon="5.53287">
        <ele>359.8</ele>
        <time>2023-05-28T13:19:11Z</time>
      </trkpt>
      <trkpt lat="43.52699" lon="5.53286">
        <ele>359.8</ele>
        <time>2023-05-28T13:19:12Z</time>
      </trkpt>
      <trkpt lat="43.52699" lon="5.53285">
        <ele>359.9</ele>
        <time>2023-05-28T13:19:13Z</time>
      </trkpt>
      <trkpt lat="43.527" lon="5.53284">
        <ele>360</ele>
        <time>2023-05-28T13:19:14Z</time>
      </trkpt>
      <trkpt lat="43.527" lon="5.53282">
        <ele>360.1</ele>
        <time>2023-05-28T13:19:15Z</time>
      </trkpt>
      <trkpt lat="43.527" lon="5.53281">
        <ele>360.1</ele>
        <time>2023-05-28T13:19:16Z</time>
      </trkpt>
      <trkpt lat="43.527" lon="5.5328">
        <ele>360</ele>
        <time>2023-05-28T13:19:17Z</time>
      </trkpt>
      <trkpt lat="43.527" lon="5.53279">
        <ele>360</ele>
        <time>2023-05-28T13:19:18Z</time>
      </trkpt>
      <trkpt lat="43.527" lon="5.53278">
        <ele>360</ele>
        <time>2023-05-28T13:19:19Z</time>
      </trkpt>
      <trkpt lat="43.527" lon="5.53277">
        <ele>360.1</ele>
        <time>2023-05-28T13:19:20Z</time>
      </trkpt>
      <trkpt lat="43.527" lon="5.53276">
        <ele>360.1</ele>
        <time>2023-05-28T13:19:21Z</time>
      </trkpt>
      <trkpt lat="43.52701" lon="5.53275">
        <ele>360.2</ele>
        <time>2023-05-28T13:19:22Z</time>
      </trkpt>
      <trkpt lat="43.52701" lon="5.53274">
        <ele>360.3</ele>
        <time>2023-05-28T13:19:23Z</time>
      </trkpt>
      <trkpt lat="43.52701" lon="5.53273">
        <ele>360.4</ele>
        <time>2023-05-28T13:19:24Z</time>
      </trkpt>
      <trkpt lat="43.52702" lon="5.53271">
        <ele>360.5</ele>
        <time>2023-05-28T13:19:25Z</time>
      </trkpt>
      <trkpt lat="43.52702" lon="5.5327">
        <ele>360.5</ele>
        <time>2023-05-28T13:19:26Z</time>
      </trkpt>
      <trkpt lat="43.52702" lon="5.53269">
        <ele>360.6</ele>
        <time>2023-05-28T13:19:27Z</time>
      </trkpt>
      <trkpt lat="43.52703" lon="5.53267">
        <ele>360.6</ele>
        <time>2023-05-28T13:19:28Z</time>
      </trkpt>
      <trkpt lat="43.52703" lon="5.53265">
        <ele>360.7</ele>
        <time>2023-05-28T13:19:29Z</time>
      </trkpt>
      <trkpt lat="43.52703" lon="5.53264">
        <ele>360.7</ele>
        <time>2023-05-28T13:19:30Z</time>
      </trkpt>
      <trkpt lat="43.52703" lon="5.53262">
        <ele>360.7</ele>
        <time>2023-05-28T13:19:31Z</time>
      </trkpt>
      <trkpt lat="43.52704" lon="5.53261">
        <ele>360.7</ele>
        <time>2023-05-28T13:19:32Z</time>
      </trkpt>
      <trkpt lat="43.52704" lon="5.5326">
        <ele>361</ele>
        <time>2023-05-28T13:19:33Z</time>
      </trkpt>
      <trkpt lat="43.52704" lon="5.53258">
        <ele>361</ele>
        <time>2023-05-28T13:19:34Z</time>
      </trkpt>
      <trkpt lat="43.52704" lon="5.53257">
        <ele>361.1</ele>
        <time>2023-05-28T13:19:35Z</time>
      </trkpt>
      <trkpt lat="43.52705" lon="5.53256">
        <ele>361.1</ele>
        <time>2023-05-28T13:19:36Z</time>
      </trkpt>
      <trkpt lat="43.52705" lon="5.53254">
        <ele>361.2</ele>
        <time>2023-05-28T13:19:37Z</time>
      </trkpt>
      <trkpt lat="43.52706" lon="5.53253">
        <ele>361.3</ele>
        <time>2023-05-28T13:19:38Z</time>
      </trkpt>
      <trkpt lat="43.52706" lon="5.53251">
        <ele>361.4</ele>
        <time>2023-05-28T13:19:39Z</time>
      </trkpt>
      <trkpt lat="43.52706" lon="5.5325">
        <ele>361.6</ele>
        <time>2023-05-28T13:19:40Z</time>
      </trkpt>
      <trkpt lat="43.52707" lon="5.53249">
        <ele>361.6</ele>
        <time>2023-05-28T13:19:41Z</time>
      </trkpt>
      <trkpt lat="43.52707" lon="5.53247">
        <ele>361.6</ele>
        <time>2023-05-28T13:19:42Z</time>
      </trkpt>
      <trkpt lat="43.52707" lon="5.53246">
        <ele>361.7</ele>
        <time>2023-05-28T13:19:43Z</time>
      </trkpt>
      <trkpt lat="43.52708" lon="5.53245">
        <ele>361.8</ele>
        <time>2023-05-28T13:19:44Z</time>
      </trkpt>
      <trkpt lat="43.52708" lon="5.53243">
        <ele>361.9</ele>
        <time>2023-05-28T13:19:45Z</time>
      </trkpt>
      <trkpt lat="43.52709" lon="5.53242">
        <ele>362</ele>
        <time>2023-05-28T13:19:46Z</time>
      </trkpt>
      <trkpt lat="43.5271" lon="5.5324">
        <ele>362</ele>
        <time>2023-05-28T13:19:47Z</time>
      </trkpt>
      <trkpt lat="43.52711" lon="5.53239">
        <ele>362</ele>
        <time>2023-05-28T13:19:48Z</time>
      </trkpt>
      <trkpt lat="43.52712" lon="5.53238">
        <ele>362.1</ele>
        <time>2023-05-28T13:19:49Z</time>
      </trkpt>
      <trkpt lat="43.52713" lon="5.53237">
        <ele>362.2</ele>
        <time>2023-05-28T13:19:50Z</time>
      </trkpt>
      <trkpt lat="43.52713" lon="5.53236">
        <ele>362.1</ele>
        <time>2023-05-28T13:19:51Z</time>
      </trkpt>
      <trkpt lat="43.52714" lon="5.53234">
        <ele>362.1</ele>
        <time>2023-05-28T13:19:52Z</time>
      </trkpt>
      <trkpt lat="43.52715" lon="5.53233">
        <ele>362.1</ele>
        <time>2023-05-28T13:19:53Z</time>
      </trkpt>
      <trkpt lat="43.52716" lon="5.53232">
        <ele>362.2</ele>
        <time>2023-05-28T13:19:54Z</time>
      </trkpt>
      <trkpt lat="43.52716" lon="5.53231">
        <ele>362.2</ele>
        <time>2023-05-28T13:19:55Z</time>
      </trkpt>
      <trkpt lat="43.52717" lon="5.5323">
        <ele>362.2</ele>
        <time>2023-05-28T13:19:56Z</time>
      </trkpt>
      <trkpt lat="43.52718" lon="5.53228">
        <ele>362.3</ele>
        <time>2023-05-28T13:19:57Z</time>
      </trkpt>
      <trkpt lat="43.52719" lon="5.53227">
        <ele>362.5</ele>
        <time>2023-05-28T13:19:58Z</time>
      </trkpt>
      <trkpt lat="43.5272" lon="5.53226">
        <ele>362.6</ele>
        <time>2023-05-28T13:19:59Z</time>
      </trkpt>
      <trkpt lat="43.52721" lon="5.53226">
        <ele>362.7</ele>
        <time>2023-05-28T13:20:00Z</time>
      </trkpt>
      <trkpt lat="43.52722" lon="5.53224">
        <ele>362.8</ele>
        <time>2023-05-28T13:20:01Z</time>
      </trkpt>
      <trkpt lat="43.52723" lon="5.53223">
        <ele>362.8</ele>
        <time>2023-05-28T13:20:02Z</time>
      </trkpt>
      <trkpt lat="43.52724" lon="5.53223">
        <ele>362.9</ele>
        <time>2023-05-28T13:20:03Z</time>
      </trkpt>
      <trkpt lat="43.52725" lon="5.53222">
        <ele>363</ele>
        <time>2023-05-28T13:20:04Z</time>
      </trkpt>
      <trkpt lat="43.52726" lon="5.53221">
        <ele>363</ele>
        <time>2023-05-28T13:20:05Z</time>
      </trkpt>
      <trkpt lat="43.52727" lon="5.5322">
        <ele>363.2</ele>
        <time>2023-05-28T13:20:06Z</time>
      </trkpt>
      <trkpt lat="43.52728" lon="5.5322">
        <ele>363.2</ele>
        <time>2023-05-28T13:20:07Z</time>
      </trkpt>
      <trkpt lat="43.52729" lon="5.53219">
        <ele>363.2</ele>
        <time>2023-05-28T13:20:08Z</time>
      </trkpt>
      <trkpt lat="43.5273" lon="5.53219">
        <ele>363.3</ele>
        <time>2023-05-28T13:20:09Z</time>
      </trkpt>
      <trkpt lat="43.52732" lon="5.53218">
        <ele>363.3</ele>
        <time>2023-05-28T13:20:10Z</time>
      </trkpt>
      <trkpt lat="43.52733" lon="5.53217">
        <ele>363.3</ele>
        <time>2023-05-28T13:20:11Z</time>
      </trkpt>
      <trkpt lat="43.52734" lon="5.53217">
        <ele>363.4</ele>
        <time>2023-05-28T13:20:12Z</time>
      </trkpt>
      <trkpt lat="43.52735" lon="5.53216">
        <ele>363.4</ele>
        <time>2023-05-28T13:20:13Z</time>
      </trkpt>
      <trkpt lat="43.52736" lon="5.53215">
        <ele>363.5</ele>
        <time>2023-05-28T13:20:14Z</time>
      </trkpt>
      <trkpt lat="43.52737" lon="5.53215">
        <ele>363.7</ele>
        <time>2023-05-28T13:20:15Z</time>
      </trkpt>
      <trkpt lat="43.52738" lon="5.53214">
        <ele>363.8</ele>
        <time>2023-05-28T13:20:16Z</time>
      </trkpt>
      <trkpt lat="43.5274" lon="5.53213">
        <ele>363.8</ele>
        <time>2023-05-28T13:20:17Z</time>
      </trkpt>
      <trkpt lat="43.52741" lon="5.53213">
        <ele>363.8</ele>
        <time>2023-05-28T13:20:18Z</time>
      </trkpt>
      <trkpt lat="43.52742" lon="5.53213">
        <ele>363.8</ele>
        <time>2023-05-28T13:20:19Z</time>
      </trkpt>
      <trkpt lat="43.52743" lon="5.53212">
        <ele>363.9</ele>
        <time>2023-05-28T13:20:20Z</time>
      </trkpt>
      <trkpt lat="43.52744" lon="5.53212">
        <ele>363.9</ele>
        <time>2023-05-28T13:20:21Z</time>
      </trkpt>
      <trkpt lat="43.52745" lon="5.53212">
        <ele>363.8</ele>
        <time>2023-05-28T13:20:22Z</time>
      </trkpt>
      <trkpt lat="43.52746" lon="5.53211">
        <ele>363.9</ele>
        <time>2023-05-28T13:20:23Z</time>
      </trkpt>
      <trkpt lat="43.52747" lon="5.53211">
        <ele>364</ele>
        <time>2023-05-28T13:20:24Z</time>
      </trkpt>
      <trkpt lat="43.52748" lon="5.5321">
        <ele>364</ele>
        <time>2023-05-28T13:20:25Z</time>
      </trkpt>
      <trkpt lat="43.52749" lon="5.5321">
        <ele>364</ele>
        <time>2023-05-28T13:20:26Z</time>
      </trkpt>
      <trkpt lat="43.5275" lon="5.53209">
        <ele>364</ele>
        <time>2023-05-28T13:20:27Z</time>
      </trkpt>
      <trkpt lat="43.52751" lon="5.53209">
        <ele>364.2</ele>
        <time>2023-05-28T13:20:28Z</time>
      </trkpt>
      <trkpt lat="43.52752" lon="5.53208">
        <ele>364.3</ele>
        <time>2023-05-28T13:20:29Z</time>
      </trkpt>
      <trkpt lat="43.52753" lon="5.53208">
        <ele>364.4</ele>
        <time>2023-05-28T13:20:30Z</time>
      </trkpt>
      <trkpt lat="43.52754" lon="5.53207">
        <ele>364.4</ele>
        <time>2023-05-28T13:20:31Z</time>
      </trkpt>
      <trkpt lat="43.52755" lon="5.53207">
        <ele>364.4</ele>
        <time>2023-05-28T13:20:32Z</time>
      </trkpt>
      <trkpt lat="43.52756" lon="5.53206">
        <ele>364.5</ele>
        <time>2023-05-28T13:20:33Z</time>
      </trkpt>
      <trkpt lat="43.52757" lon="5.53206">
        <ele>364.5</ele>
        <time>2023-05-28T13:20:34Z</time>
      </trkpt>
      <trkpt lat="43.52758" lon="5.53206">
        <ele>364.4</ele>
        <time>2023-05-28T13:20:35Z</time>
      </trkpt>
      <trkpt lat="43.52759" lon="5.53205">
        <ele>364.4</ele>
        <time>2023-05-28T13:20:36Z</time>
      </trkpt>
      <trkpt lat="43.5276" lon="5.53205">
        <ele>364.4</ele>
        <time>2023-05-28T13:20:37Z</time>
      </trkpt>
      <trkpt lat="43.52762" lon="5.53205">
        <ele>364.3</ele>
        <time>2023-05-28T13:20:38Z</time>
      </trkpt>
      <trkpt lat="43.52763" lon="5.53205">
        <ele>364.4</ele>
        <time>2023-05-28T13:20:39Z</time>
      </trkpt>
      <trkpt lat="43.52764" lon="5.53204">
        <ele>364.4</ele>
        <time>2023-05-28T13:20:40Z</time>
      </trkpt>
      <trkpt lat="43.52765" lon="5.53204">
        <ele>364.4</ele>
        <time>2023-05-28T13:20:41Z</time>
      </trkpt>
      <trkpt lat="43.52766" lon="5.53203">
        <ele>364.4</ele>
        <time>2023-05-28T13:20:42Z</time>
      </trkpt>
      <trkpt lat="43.52768" lon="5.53203">
        <ele>364.4</ele>
        <time>2023-05-28T13:20:43Z</time>
      </trkpt>
      <trkpt lat="43.52769" lon="5.53202">
        <ele>364.2</ele>
        <time>2023-05-28T13:20:44Z</time>
      </trkpt>
      <trkpt lat="43.5277" lon="5.53202">
        <ele>364.2</ele>
        <time>2023-05-28T13:20:45Z</time>
      </trkpt>
      <trkpt lat="43.52771" lon="5.53201">
        <ele>364.3</ele>
        <time>2023-05-28T13:20:46Z</time>
      </trkpt>
      <trkpt lat="43.52772" lon="5.53201">
        <ele>364.3</ele>
        <time>2023-05-28T13:20:47Z</time>
      </trkpt>
      <trkpt lat="43.52773" lon="5.53201">
        <ele>364.3</ele>
        <time>2023-05-28T13:20:48Z</time>
      </trkpt>
      <trkpt lat="43.52774" lon="5.53201">
        <ele>364.3</ele>
        <time>2023-05-28T13:20:49Z</time>
      </trkpt>
      <trkpt lat="43.52775" lon="5.532">
        <ele>364.3</ele>
        <time>2023-05-28T13:20:50Z</time>
      </trkpt>
      <trkpt lat="43.52777" lon="5.532">
        <ele>364.3</ele>
        <time>2023-05-28T13:20:51Z</time>
      </trkpt>
      <trkpt lat="43.52778" lon="5.53199">
        <ele>364.4</ele>
        <time>2023-05-28T13:20:52Z</time>
      </trkpt>
      <trkpt lat="43.52779" lon="5.53199">
        <ele>364.4</ele>
        <time>2023-05-28T13:20:53Z</time>
      </trkpt>
      <trkpt lat="43.5278" lon="5.53198">
        <ele>364.4</ele>
        <time>2023-05-28T13:20:54Z</time>
      </trkpt>
      <trkpt lat="43.52781" lon="5.53198">
        <ele>364.4</ele>
        <time>2023-05-28T13:20:55Z</time>
      </trkpt>
      <trkpt lat="43.52782" lon="5.53197">
        <ele>364.3</ele>
        <time>2023-05-28T13:20:56Z</time>
      </trkpt>
      <trkpt lat="43.52783" lon="5.53197">
        <ele>364.3</ele>
        <time>2023-05-28T13:20:57Z</time>
      </trkpt>
      <trkpt lat="43.52785" lon="5.53197">
        <ele>364.3</ele>
        <time>2023-05-28T13:20:58Z</time>
      </trkpt>
      <trkpt lat="43.52785" lon="5.53196">
        <ele>364.3</ele>
        <time>2023-05-28T13:20:59Z</time>
      </trkpt>
      <trkpt lat="43.52786" lon="5.53196">
        <ele>364.3</ele>
        <time>2023-05-28T13:21:00Z</time>
      </trkpt>
      <trkpt lat="43.52787" lon="5.53195">
        <ele>364.3</ele>
        <time>2023-05-28T13:21:01Z</time>
      </trkpt>
      <trkpt lat="43.52789" lon="5.53195">
        <ele>364.2</ele>
        <time>2023-05-28T13:21:02Z</time>
      </trkpt>
      <trkpt lat="43.5279" lon="5.53194">
        <ele>364.3</ele>
        <time>2023-05-28T13:21:03Z</time>
      </trkpt>
      <trkpt lat="43.5279" lon="5.53193">
        <ele>364.2</ele>
        <time>2023-05-28T13:21:04Z</time>
      </trkpt>
      <trkpt lat="43.52792" lon="5.53192">
        <ele>364.2</ele>
        <time>2023-05-28T13:21:05Z</time>
      </trkpt>
      <trkpt lat="43.52793" lon="5.53192">
        <ele>364.1</ele>
        <time>2023-05-28T13:21:06Z</time>
      </trkpt>
      <trkpt lat="43.52794" lon="5.53191">
        <ele>364</ele>
        <time>2023-05-28T13:21:07Z</time>
      </trkpt>
      <trkpt lat="43.52795" lon="5.5319">
        <ele>364</ele>
        <time>2023-05-28T13:21:08Z</time>
      </trkpt>
      <trkpt lat="43.52796" lon="5.53189">
        <ele>363.9</ele>
        <time>2023-05-28T13:21:09Z</time>
      </trkpt>
      <trkpt lat="43.52797" lon="5.53188">
        <ele>363.9</ele>
        <time>2023-05-28T13:21:10Z</time>
      </trkpt>
      <trkpt lat="43.52798" lon="5.53187">
        <ele>363.9</ele>
        <time>2023-05-28T13:21:11Z</time>
      </trkpt>
      <trkpt lat="43.52799" lon="5.53185">
        <ele>363.7</ele>
        <time>2023-05-28T13:21:12Z</time>
      </trkpt>
      <trkpt lat="43.528" lon="5.53184">
        <ele>363.6</ele>
        <time>2023-05-28T13:21:13Z</time>
      </trkpt>
      <trkpt lat="43.52801" lon="5.53183">
        <ele>363.6</ele>
        <time>2023-05-28T13:21:14Z</time>
      </trkpt>
      <trkpt lat="43.52802" lon="5.53181">
        <ele>363.5</ele>
        <time>2023-05-28T13:21:15Z</time>
      </trkpt>
      <trkpt lat="43.52802" lon="5.5318">
        <ele>363.4</ele>
        <time>2023-05-28T13:21:16Z</time>
      </trkpt>
      <trkpt lat="43.52803" lon="5.53178">
        <ele>363.4</ele>
        <time>2023-05-28T13:21:17Z</time>
      </trkpt>
      <trkpt lat="43.52804" lon="5.53177">
        <ele>363.3</ele>
        <time>2023-05-28T13:21:18Z</time>
      </trkpt>
      <trkpt lat="43.52804" lon="5.53175">
        <ele>363.3</ele>
        <time>2023-05-28T13:21:19Z</time>
      </trkpt>
      <trkpt lat="43.52805" lon="5.53174">
        <ele>363.2</ele>
        <time>2023-05-28T13:21:20Z</time>
      </trkpt>
      <trkpt lat="43.52805" lon="5.53173">
        <ele>363.2</ele>
        <time>2023-05-28T13:21:21Z</time>
      </trkpt>
      <trkpt lat="43.52806" lon="5.53171">
        <ele>363.1</ele>
        <time>2023-05-28T13:21:22Z</time>
      </trkpt>
      <trkpt lat="43.52807" lon="5.5317">
        <ele>363</ele>
        <time>2023-05-28T13:21:23Z</time>
      </trkpt>
      <trkpt lat="43.52807" lon="5.53168">
        <ele>363</ele>
        <time>2023-05-28T13:21:24Z</time>
      </trkpt>
      <trkpt lat="43.52808" lon="5.53167">
        <ele>363</ele>
        <time>2023-05-28T13:21:25Z</time>
      </trkpt>
      <trkpt lat="43.52808" lon="5.53165">
        <ele>363</ele>
        <time>2023-05-28T13:21:26Z</time>
      </trkpt>
      <trkpt lat="43.52809" lon="5.53164">
        <ele>363</ele>
        <time>2023-05-28T13:21:27Z</time>
      </trkpt>
      <trkpt lat="43.5281" lon="5.53162">
        <ele>363</ele>
        <time>2023-05-28T13:21:28Z</time>
      </trkpt>
      <trkpt lat="43.5281" lon="5.53161">
        <ele>363.1</ele>
        <time>2023-05-28T13:21:29Z</time>
      </trkpt>
      <trkpt lat="43.52811" lon="5.53159">
        <ele>363.1</ele>
        <time>2023-05-28T13:21:30Z</time>
      </trkpt>
      <trkpt lat="43.52811" lon="5.53158">
        <ele>363.2</ele>
        <time>2023-05-28T13:21:31Z</time>
      </trkpt>
      <trkpt lat="43.52811" lon="5.53156">
        <ele>363.2</ele>
        <time>2023-05-28T13:21:32Z</time>
      </trkpt>
      <trkpt lat="43.52812" lon="5.53155">
        <ele>363.2</ele>
        <time>2023-05-28T13:21:33Z</time>
      </trkpt>
      <trkpt lat="43.52812" lon="5.53153">
        <ele>363.2</ele>
        <time>2023-05-28T13:21:34Z</time>
      </trkpt>
      <trkpt lat="43.52813" lon="5.53152">
        <ele>363.2</ele>
        <time>2023-05-28T13:21:35Z</time>
      </trkpt>
      <trkpt lat="43.52814" lon="5.53151">
        <ele>363.3</ele>
        <time>2023-05-28T13:21:36Z</time>
      </trkpt>
      <trkpt lat="43.52814" lon="5.53149">
        <ele>363.3</ele>
        <time>2023-05-28T13:21:37Z</time>
      </trkpt>
      <trkpt lat="43.52815" lon="5.53147">
        <ele>363.3</ele>
        <time>2023-05-28T13:21:38Z</time>
      </trkpt>
      <trkpt lat="43.52815" lon="5.53146">
        <ele>363.3</ele>
        <time>2023-05-28T13:21:39Z</time>
      </trkpt>
      <trkpt lat="43.52816" lon="5.53144">
        <ele>363.3</ele>
        <time>2023-05-28T13:21:40Z</time>
      </trkpt>
      <trkpt lat="43.52816" lon="5.53143">
        <ele>363.3</ele>
        <time>2023-05-28T13:21:41Z</time>
      </trkpt>
      <trkpt lat="43.52817" lon="5.53141">
        <ele>363.4</ele>
        <time>2023-05-28T13:21:42Z</time>
      </trkpt>
      <trkpt lat="43.52817" lon="5.53139">
        <ele>363.5</ele>
        <time>2023-05-28T13:21:43Z</time>
      </trkpt>
      <trkpt lat="43.52818" lon="5.53138">
        <ele>363.4</ele>
        <time>2023-05-28T13:21:44Z</time>
      </trkpt>
      <trkpt lat="43.52818" lon="5.53136">
        <ele>363.4</ele>
        <time>2023-05-28T13:21:45Z</time>
      </trkpt>
      <trkpt lat="43.52819" lon="5.53135">
        <ele>363.4</ele>
        <time>2023-05-28T13:21:46Z</time>
      </trkpt>
      <trkpt lat="43.5282" lon="5.53133">
        <ele>363.4</ele>
        <time>2023-05-28T13:21:47Z</time>
      </trkpt>
      <trkpt lat="43.5282" lon="5.53132">
        <ele>363.4</ele>
        <time>2023-05-28T13:21:48Z</time>
      </trkpt>
      <trkpt lat="43.52821" lon="5.5313">
        <ele>363.4</ele>
        <time>2023-05-28T13:21:49Z</time>
      </trkpt>
      <trkpt lat="43.52821" lon="5.53129">
        <ele>363.4</ele>
        <time>2023-05-28T13:21:50Z</time>
      </trkpt>
      <trkpt lat="43.52822" lon="5.53127">
        <ele>363.4</ele>
        <time>2023-05-28T13:21:51Z</time>
      </trkpt>
      <trkpt lat="43.52822" lon="5.53125">
        <ele>363.4</ele>
        <time>2023-05-28T13:21:52Z</time>
      </trkpt>
      <trkpt lat="43.52823" lon="5.53124">
        <ele>363.5</ele>
        <time>2023-05-28T13:21:53Z</time>
      </trkpt>
      <trkpt lat="43.52823" lon="5.53122">
        <ele>363.5</ele>
        <time>2023-05-28T13:21:54Z</time>
      </trkpt>
      <trkpt lat="43.52823" lon="5.53121">
        <ele>363.7</ele>
        <time>2023-05-28T13:21:55Z</time>
      </trkpt>
      <trkpt lat="43.52824" lon="5.53119">
        <ele>363.8</ele>
        <time>2023-05-28T13:21:56Z</time>
      </trkpt>
      <trkpt lat="43.52824" lon="5.53118">
        <ele>363.9</ele>
        <time>2023-05-28T13:21:57Z</time>
      </trkpt>
      <trkpt lat="43.52825" lon="5.53116">
        <ele>363.9</ele>
        <time>2023-05-28T13:21:58Z</time>
      </trkpt>
      <trkpt lat="43.52825" lon="5.53115">
        <ele>363.9</ele>
        <time>2023-05-28T13:21:59Z</time>
      </trkpt>
      <trkpt lat="43.52826" lon="5.53114">
        <ele>363.9</ele>
        <time>2023-05-28T13:22:00Z</time>
      </trkpt>
      <trkpt lat="43.52827" lon="5.53112">
        <ele>363.8</ele>
        <time>2023-05-28T13:22:01Z</time>
      </trkpt>
      <trkpt lat="43.52827" lon="5.5311">
        <ele>363.8</ele>
        <time>2023-05-28T13:22:02Z</time>
      </trkpt>
      <trkpt lat="43.52828" lon="5.53108">
        <ele>363.8</ele>
        <time>2023-05-28T13:22:03Z</time>
      </trkpt>
      <trkpt lat="43.52828" lon="5.53107">
        <ele>363.9</ele>
        <time>2023-05-28T13:22:04Z</time>
      </trkpt>
      <trkpt lat="43.52829" lon="5.53105">
        <ele>363.9</ele>
        <time>2023-05-28T13:22:05Z</time>
      </trkpt>
      <trkpt lat="43.52829" lon="5.53104">
        <ele>364</ele>
        <time>2023-05-28T13:22:06Z</time>
      </trkpt>
      <trkpt lat="43.5283" lon="5.53103">
        <ele>364</ele>
        <time>2023-05-28T13:22:07Z</time>
      </trkpt>
      <trkpt lat="43.5283" lon="5.53101">
        <ele>364</ele>
        <time>2023-05-28T13:22:08Z</time>
      </trkpt>
      <trkpt lat="43.52831" lon="5.531">
        <ele>363.9</ele>
        <time>2023-05-28T13:22:09Z</time>
      </trkpt>
      <trkpt lat="43.52831" lon="5.53098">
        <ele>364</ele>
        <time>2023-05-28T13:22:10Z</time>
      </trkpt>
      <trkpt lat="43.52832" lon="5.53097">
        <ele>364.1</ele>
        <time>2023-05-28T13:22:11Z</time>
      </trkpt>
      <trkpt lat="43.52832" lon="5.53095">
        <ele>364.2</ele>
        <time>2023-05-28T13:22:12Z</time>
      </trkpt>
      <trkpt lat="43.52833" lon="5.53093">
        <ele>364.3</ele>
        <time>2023-05-28T13:22:13Z</time>
      </trkpt>
      <trkpt lat="43.52833" lon="5.53092">
        <ele>364.3</ele>
        <time>2023-05-28T13:22:14Z</time>
      </trkpt>
      <trkpt lat="43.52833" lon="5.53091">
        <ele>364.4</ele>
        <time>2023-05-28T13:22:15Z</time>
      </trkpt>
      <trkpt lat="43.52834" lon="5.53089">
        <ele>364.5</ele>
        <time>2023-05-28T13:22:16Z</time>
      </trkpt>
      <trkpt lat="43.52834" lon="5.53088">
        <ele>364.5</ele>
        <time>2023-05-28T13:22:17Z</time>
      </trkpt>
      <trkpt lat="43.52834" lon="5.53086">
        <ele>364.5</ele>
        <time>2023-05-28T13:22:18Z</time>
      </trkpt>
      <trkpt lat="43.52835" lon="5.53084">
        <ele>364.6</ele>
        <time>2023-05-28T13:22:19Z</time>
      </trkpt>
      <trkpt lat="43.52835" lon="5.53083">
        <ele>364.6</ele>
        <time>2023-05-28T13:22:20Z</time>
      </trkpt>
      <trkpt lat="43.52836" lon="5.53081">
        <ele>364.7</ele>
        <time>2023-05-28T13:22:21Z</time>
      </trkpt>
      <trkpt lat="43.52836" lon="5.53079">
        <ele>364.7</ele>
        <time>2023-05-28T13:22:22Z</time>
      </trkpt>
      <trkpt lat="43.52836" lon="5.53078">
        <ele>364.8</ele>
        <time>2023-05-28T13:22:23Z</time>
      </trkpt>
      <trkpt lat="43.52837" lon="5.53076">
        <ele>364.9</ele>
        <time>2023-05-28T13:22:24Z</time>
      </trkpt>
      <trkpt lat="43.52837" lon="5.53074">
        <ele>365</ele>
        <time>2023-05-28T13:22:25Z</time>
      </trkpt>
      <trkpt lat="43.52838" lon="5.53073">
        <ele>364.9</ele>
        <time>2023-05-28T13:22:26Z</time>
      </trkpt>
      <trkpt lat="43.52838" lon="5.53072">
        <ele>365</ele>
        <time>2023-05-28T13:22:27Z</time>
      </trkpt>
      <trkpt lat="43.52838" lon="5.5307">
        <ele>365</ele>
        <time>2023-05-28T13:22:28Z</time>
      </trkpt>
      <trkpt lat="43.52839" lon="5.53069">
        <ele>365.1</ele>
        <time>2023-05-28T13:22:29Z</time>
      </trkpt>
      <trkpt lat="43.52839" lon="5.53067">
        <ele>365.2</ele>
        <time>2023-05-28T13:22:30Z</time>
      </trkpt>
      <trkpt lat="43.52839" lon="5.53065">
        <ele>365.2</ele>
        <time>2023-05-28T13:22:31Z</time>
      </trkpt>
      <trkpt lat="43.5284" lon="5.53064">
        <ele>365.3</ele>
        <time>2023-05-28T13:22:32Z</time>
      </trkpt>
      <trkpt lat="43.5284" lon="5.53062">
        <ele>365.3</ele>
        <time>2023-05-28T13:22:33Z</time>
      </trkpt>
      <trkpt lat="43.5284" lon="5.5306">
        <ele>365.4</ele>
        <time>2023-05-28T13:22:34Z</time>
      </trkpt>
      <trkpt lat="43.5284" lon="5.53059">
        <ele>365.4</ele>
        <time>2023-05-28T13:22:35Z</time>
      </trkpt>
      <trkpt lat="43.52841" lon="5.53057">
        <ele>365.6</ele>
        <time>2023-05-28T13:22:36Z</time>
      </trkpt>
      <trkpt lat="43.52841" lon="5.53056">
        <ele>365.6</ele>
        <time>2023-05-28T13:22:37Z</time>
      </trkpt>
      <trkpt lat="43.52841" lon="5.53054">
        <ele>365.6</ele>
        <time>2023-05-28T13:22:38Z</time>
      </trkpt>
      <trkpt lat="43.52841" lon="5.53053">
        <ele>365.7</ele>
        <time>2023-05-28T13:22:39Z</time>
      </trkpt>
      <trkpt lat="43.52842" lon="5.53051">
        <ele>365.8</ele>
        <time>2023-05-28T13:22:40Z</time>
      </trkpt>
      <trkpt lat="43.52842" lon="5.53049">
        <ele>365.9</ele>
        <time>2023-05-28T13:22:41Z</time>
      </trkpt>
      <trkpt lat="43.52842" lon="5.53047">
        <ele>365.9</ele>
        <time>2023-05-28T13:22:42Z</time>
      </trkpt>
      <trkpt lat="43.52842" lon="5.53046">
        <ele>365.9</ele>
        <time>2023-05-28T13:22:43Z</time>
      </trkpt>
      <trkpt lat="43.52843" lon="5.53044">
        <ele>366</ele>
        <time>2023-05-28T13:22:44Z</time>
      </trkpt>
      <trkpt lat="43.52843" lon="5.53043">
        <ele>366</ele>
        <time>2023-05-28T13:22:45Z</time>
      </trkpt>
      <trkpt lat="43.52843" lon="5.53041">
        <ele>366</ele>
        <time>2023-05-28T13:22:46Z</time>
      </trkpt>
      <trkpt lat="43.52843" lon="5.53039">
        <ele>366</ele>
        <time>2023-05-28T13:22:47Z</time>
      </trkpt>
      <trkpt lat="43.52843" lon="5.53037">
        <ele>366.1</ele>
        <time>2023-05-28T13:22:48Z</time>
      </trkpt>
      <trkpt lat="43.52844" lon="5.53036">
        <ele>366.2</ele>
        <time>2023-05-28T13:22:49Z</time>
      </trkpt>
      <trkpt lat="43.52844" lon="5.53034">
        <ele>366.3</ele>
        <time>2023-05-28T13:22:50Z</time>
      </trkpt>
      <trkpt lat="43.52844" lon="5.53033">
        <ele>366.5</ele>
        <time>2023-05-28T13:22:51Z</time>
      </trkpt>
      <trkpt lat="43.52845" lon="5.53031">
        <ele>366.6</ele>
        <time>2023-05-28T13:22:52Z</time>
      </trkpt>
      <trkpt lat="43.52845" lon="5.53029">
        <ele>366.7</ele>
        <time>2023-05-28T13:22:53Z</time>
      </trkpt>
      <trkpt lat="43.52846" lon="5.53028">
        <ele>366.8</ele>
        <time>2023-05-28T13:22:54Z</time>
      </trkpt>
      <trkpt lat="43.52846" lon="5.53026">
        <ele>366.8</ele>
        <time>2023-05-28T13:22:55Z</time>
      </trkpt>
      <trkpt lat="43.52847" lon="5.53024">
        <ele>366.9</ele>
        <time>2023-05-28T13:22:56Z</time>
      </trkpt>
      <trkpt lat="43.52847" lon="5.53023">
        <ele>367</ele>
        <time>2023-05-28T13:22:57Z</time>
      </trkpt>
      <trkpt lat="43.52848" lon="5.53021">
        <ele>367</ele>
        <time>2023-05-28T13:22:58Z</time>
      </trkpt>
      <trkpt lat="43.52848" lon="5.53019">
        <ele>367.1</ele>
        <time>2023-05-28T13:22:59Z</time>
      </trkpt>
      <trkpt lat="43.52848" lon="5.53018">
        <ele>367.1</ele>
        <time>2023-05-28T13:23:00Z</time>
      </trkpt>
      <trkpt lat="43.52849" lon="5.53016">
        <ele>367.1</ele>
        <time>2023-05-28T13:23:01Z</time>
      </trkpt>
      <trkpt lat="43.52849" lon="5.53014">
        <ele>367.1</ele>
        <time>2023-05-28T13:23:02Z</time>
      </trkpt>
      <trkpt lat="43.5285" lon="5.53013">
        <ele>367.1</ele>
        <time>2023-05-28T13:23:03Z</time>
      </trkpt>
      <trkpt lat="43.5285" lon="5.53012">
        <ele>367.1</ele>
        <time>2023-05-28T13:23:04Z</time>
      </trkpt>
      <trkpt lat="43.52851" lon="5.5301">
        <ele>367.2</ele>
        <time>2023-05-28T13:23:05Z</time>
      </trkpt>
      <trkpt lat="43.52851" lon="5.53009">
        <ele>367.2</ele>
        <time>2023-05-28T13:23:06Z</time>
      </trkpt>
      <trkpt lat="43.52852" lon="5.53007">
        <ele>367.3</ele>
        <time>2023-05-28T13:23:07Z</time>
      </trkpt>
      <trkpt lat="43.52853" lon="5.53005">
        <ele>367.4</ele>
        <time>2023-05-28T13:23:08Z</time>
      </trkpt>
      <trkpt lat="43.52853" lon="5.53003">
        <ele>367.3</ele>
        <time>2023-05-28T13:23:09Z</time>
      </trkpt>
      <trkpt lat="43.52854" lon="5.53002">
        <ele>367.4</ele>
        <time>2023-05-28T13:23:10Z</time>
      </trkpt>
      <trkpt lat="43.52855" lon="5.53">
        <ele>367.4</ele>
        <time>2023-05-28T13:23:11Z</time>
      </trkpt>
      <trkpt lat="43.52855" lon="5.52999">
        <ele>367.4</ele>
        <time>2023-05-28T13:23:12Z</time>
      </trkpt>
      <trkpt lat="43.52856" lon="5.52998">
        <ele>367.4</ele>
        <time>2023-05-28T13:23:13Z</time>
      </trkpt>
      <trkpt lat="43.52856" lon="5.52996">
        <ele>367.4</ele>
        <time>2023-05-28T13:23:14Z</time>
      </trkpt>
      <trkpt lat="43.52857" lon="5.52995">
        <ele>367.4</ele>
        <time>2023-05-28T13:23:15Z</time>
      </trkpt>
      <trkpt lat="43.52857" lon="5.52993">
        <ele>367.4</ele>
        <time>2023-05-28T13:23:16Z</time>
      </trkpt>
      <trkpt lat="43.52858" lon="5.52992">
        <ele>367.5</ele>
        <time>2023-05-28T13:23:17Z</time>
      </trkpt>
      <trkpt lat="43.52859" lon="5.52991">
        <ele>367.6</ele>
        <time>2023-05-28T13:23:18Z</time>
      </trkpt>
      <trkpt lat="43.52859" lon="5.52989">
        <ele>367.7</ele>
        <time>2023-05-28T13:23:19Z</time>
      </trkpt>
      <trkpt lat="43.5286" lon="5.52988">
        <ele>367.8</ele>
        <time>2023-05-28T13:23:20Z</time>
      </trkpt>
      <trkpt lat="43.52861" lon="5.52987">
        <ele>367.8</ele>
        <time>2023-05-28T13:23:21Z</time>
      </trkpt>
      <trkpt lat="43.52862" lon="5.52986">
        <ele>367.8</ele>
        <time>2023-05-28T13:23:22Z</time>
      </trkpt>
      <trkpt lat="43.52862" lon="5.52984">
        <ele>367.9</ele>
        <time>2023-05-28T13:23:23Z</time>
      </trkpt>
      <trkpt lat="43.52863" lon="5.52983">
        <ele>368</ele>
        <time>2023-05-28T13:23:24Z</time>
      </trkpt>
      <trkpt lat="43.52864" lon="5.52982">
        <ele>368.1</ele>
        <time>2023-05-28T13:23:25Z</time>
      </trkpt>
      <trkpt lat="43.52864" lon="5.52981">
        <ele>368.2</ele>
        <time>2023-05-28T13:23:26Z</time>
      </trkpt>
      <trkpt lat="43.52865" lon="5.5298">
        <ele>368.2</ele>
        <time>2023-05-28T13:23:27Z</time>
      </trkpt>
      <trkpt lat="43.52866" lon="5.52978">
        <ele>368.3</ele>
        <time>2023-05-28T13:23:28Z</time>
      </trkpt>
      <trkpt lat="43.52866" lon="5.52977">
        <ele>368.2</ele>
        <time>2023-05-28T13:23:29Z</time>
      </trkpt>
      <trkpt lat="43.52867" lon="5.52976">
        <ele>368.1</ele>
        <time>2023-05-28T13:23:30Z</time>
      </trkpt>
      <trkpt lat="43.52868" lon="5.52974">
        <ele>368.1</ele>
        <time>2023-05-28T13:23:31Z</time>
      </trkpt>
      <trkpt lat="43.52868" lon="5.52973">
        <ele>368.1</ele>
        <time>2023-05-28T13:23:32Z</time>
      </trkpt>
      <trkpt lat="43.52869" lon="5.52972">
        <ele>368.2</ele>
        <time>2023-05-28T13:23:33Z</time>
      </trkpt>
      <trkpt lat="43.5287" lon="5.5297">
        <ele>368.2</ele>
        <time>2023-05-28T13:23:34Z</time>
      </trkpt>
      <trkpt lat="43.52871" lon="5.52969">
        <ele>368.2</ele>
        <time>2023-05-28T13:23:35Z</time>
      </trkpt>
      <trkpt lat="43.52871" lon="5.52968">
        <ele>368.2</ele>
        <time>2023-05-28T13:23:36Z</time>
      </trkpt>
      <trkpt lat="43.52872" lon="5.52967">
        <ele>368.2</ele>
        <time>2023-05-28T13:23:37Z</time>
      </trkpt>
      <trkpt lat="43.52873" lon="5.52966">
        <ele>368.2</ele>
        <time>2023-05-28T13:23:38Z</time>
      </trkpt>
      <trkpt lat="43.52874" lon="5.52964">
        <ele>368.2</ele>
        <time>2023-05-28T13:23:39Z</time>
      </trkpt>
      <trkpt lat="43.52875" lon="5.52963">
        <ele>368.3</ele>
        <time>2023-05-28T13:23:40Z</time>
      </trkpt>
      <trkpt lat="43.52875" lon="5.52962">
        <ele>368.3</ele>
        <time>2023-05-28T13:23:41Z</time>
      </trkpt>
      <trkpt lat="43.52876" lon="5.52961">
        <ele>368.4</ele>
        <time>2023-05-28T13:23:42Z</time>
      </trkpt>
      <trkpt lat="43.52877" lon="5.52959">
        <ele>368.4</ele>
        <time>2023-05-28T13:23:43Z</time>
      </trkpt>
      <trkpt lat="43.52878" lon="5.52958">
        <ele>368.4</ele>
        <time>2023-05-28T13:23:44Z</time>
      </trkpt>
      <trkpt lat="43.52879" lon="5.52957">
        <ele>368.4</ele>
        <time>2023-05-28T13:23:45Z</time>
      </trkpt>
      <trkpt lat="43.52879" lon="5.52956">
        <ele>368.4</ele>
        <time>2023-05-28T13:23:46Z</time>
      </trkpt>
      <trkpt lat="43.5288" lon="5.52955">
        <ele>368.3</ele>
        <time>2023-05-28T13:23:47Z</time>
      </trkpt>
      <trkpt lat="43.52881" lon="5.52954">
        <ele>368.3</ele>
        <time>2023-05-28T13:23:48Z</time>
      </trkpt>
      <trkpt lat="43.52882" lon="5.52952">
        <ele>368.3</ele>
        <time>2023-05-28T13:23:49Z</time>
      </trkpt>
      <trkpt lat="43.52883" lon="5.52951">
        <ele>368.2</ele>
        <time>2023-05-28T13:23:50Z</time>
      </trkpt>
      <trkpt lat="43.52884" lon="5.5295">
        <ele>368.2</ele>
        <time>2023-05-28T13:23:51Z</time>
      </trkpt>
      <trkpt lat="43.52885" lon="5.52949">
        <ele>368.1</ele>
        <time>2023-05-28T13:23:52Z</time>
      </trkpt>
      <trkpt lat="43.52886" lon="5.52948">
        <ele>368.1</ele>
        <time>2023-05-28T13:23:53Z</time>
      </trkpt>
      <trkpt lat="43.52886" lon="5.52946">
        <ele>368.1</ele>
        <time>2023-05-28T13:23:54Z</time>
      </trkpt>
      <trkpt lat="43.52887" lon="5.52945">
        <ele>368.1</ele>
        <time>2023-05-28T13:23:55Z</time>
      </trkpt>
      <trkpt lat="43.52888" lon="5.52944">
        <ele>368.1</ele>
        <time>2023-05-28T13:23:56Z</time>
      </trkpt>
      <trkpt lat="43.52889" lon="5.52942">
        <ele>368.1</ele>
        <time>2023-05-28T13:23:57Z</time>
      </trkpt>
      <trkpt lat="43.5289" lon="5.52941">
        <ele>368</ele>
        <time>2023-05-28T13:23:58Z</time>
      </trkpt>
      <trkpt lat="43.5289" lon="5.5294">
        <ele>368</ele>
        <time>2023-05-28T13:23:59Z</time>
      </trkpt>
      <trkpt lat="43.52891" lon="5.52938">
        <ele>367.9</ele>
        <time>2023-05-28T13:24:00Z</time>
      </trkpt>
      <trkpt lat="43.52892" lon="5.52937">
        <ele>367.8</ele>
        <time>2023-05-28T13:24:01Z</time>
      </trkpt>
      <trkpt lat="43.52893" lon="5.52936">
        <ele>367.8</ele>
        <time>2023-05-28T13:24:02Z</time>
      </trkpt>
      <trkpt lat="43.52894" lon="5.52934">
        <ele>367.8</ele>
        <time>2023-05-28T13:24:03Z</time>
      </trkpt>
      <trkpt lat="43.52895" lon="5.52933">
        <ele>367.8</ele>
        <time>2023-05-28T13:24:04Z</time>
      </trkpt>
      <trkpt lat="43.52895" lon="5.52932">
        <ele>367.9</ele>
        <time>2023-05-28T13:24:05Z</time>
      </trkpt>
      <trkpt lat="43.52896" lon="5.52931">
        <ele>367.9</ele>
        <time>2023-05-28T13:24:06Z</time>
      </trkpt>
      <trkpt lat="43.52897" lon="5.52929">
        <ele>367.9</ele>
        <time>2023-05-28T13:24:07Z</time>
      </trkpt>
      <trkpt lat="43.52898" lon="5.52928">
        <ele>368</ele>
        <time>2023-05-28T13:24:08Z</time>
      </trkpt>
      <trkpt lat="43.52898" lon="5.52926">
        <ele>368</ele>
        <time>2023-05-28T13:24:09Z</time>
      </trkpt>
      <trkpt lat="43.52899" lon="5.52925">
        <ele>368.1</ele>
        <time>2023-05-28T13:24:10Z</time>
      </trkpt>
      <trkpt lat="43.529" lon="5.52924">
        <ele>368.1</ele>
        <time>2023-05-28T13:24:11Z</time>
      </trkpt>
      <trkpt lat="43.52901" lon="5.52923">
        <ele>368.1</ele>
        <time>2023-05-28T13:24:12Z</time>
      </trkpt>
      <trkpt lat="43.52902" lon="5.52922">
        <ele>368.1</ele>
        <time>2023-05-28T13:24:13Z</time>
      </trkpt>
      <trkpt lat="43.52902" lon="5.52921">
        <ele>368</ele>
        <time>2023-05-28T13:24:14Z</time>
      </trkpt>
      <trkpt lat="43.52903" lon="5.52919">
        <ele>367.9</ele>
        <time>2023-05-28T13:24:15Z</time>
      </trkpt>
      <trkpt lat="43.52904" lon="5.52918">
        <ele>367.8</ele>
        <time>2023-05-28T13:24:16Z</time>
      </trkpt>
      <trkpt lat="43.52905" lon="5.52917">
        <ele>367.8</ele>
        <time>2023-05-28T13:24:17Z</time>
      </trkpt>
      <trkpt lat="43.52905" lon="5.52916">
        <ele>367.9</ele>
        <time>2023-05-28T13:24:18Z</time>
      </trkpt>
      <trkpt lat="43.52906" lon="5.52914">
        <ele>367.8</ele>
        <time>2023-05-28T13:24:19Z</time>
      </trkpt>
      <trkpt lat="43.52907" lon="5.52913">
        <ele>367.7</ele>
        <time>2023-05-28T13:24:20Z</time>
      </trkpt>
      <trkpt lat="43.52907" lon="5.52911">
        <ele>367.6</ele>
        <time>2023-05-28T13:24:21Z</time>
      </trkpt>
      <trkpt lat="43.52908" lon="5.5291">
        <ele>367.7</ele>
        <time>2023-05-28T13:24:22Z</time>
      </trkpt>
      <trkpt lat="43.52909" lon="5.52909">
        <ele>367.7</ele>
        <time>2023-05-28T13:24:23Z</time>
      </trkpt>
      <trkpt lat="43.52909" lon="5.52908">
        <ele>367.7</ele>
        <time>2023-05-28T13:24:24Z</time>
      </trkpt>
      <trkpt lat="43.5291" lon="5.52906">
        <ele>367.7</ele>
        <time>2023-05-28T13:24:25Z</time>
      </trkpt>
      <trkpt lat="43.52911" lon="5.52905">
        <ele>367.7</ele>
        <time>2023-05-28T13:24:26Z</time>
      </trkpt>
      <trkpt lat="43.52912" lon="5.52904">
        <ele>367.7</ele>
        <time>2023-05-28T13:24:27Z</time>
      </trkpt>
      <trkpt lat="43.52912" lon="5.52902">
        <ele>367.7</ele>
        <time>2023-05-28T13:24:28Z</time>
      </trkpt>
      <trkpt lat="43.52913" lon="5.52901">
        <ele>367.6</ele>
        <time>2023-05-28T13:24:29Z</time>
      </trkpt>
      <trkpt lat="43.52914" lon="5.529">
        <ele>367.6</ele>
        <time>2023-05-28T13:24:30Z</time>
      </trkpt>
      <trkpt lat="43.52914" lon="5.52898">
        <ele>367.7</ele>
        <time>2023-05-28T13:24:31Z</time>
      </trkpt>
      <trkpt lat="43.52915" lon="5.52897">
        <ele>367.6</ele>
        <time>2023-05-28T13:24:32Z</time>
      </trkpt>
      <trkpt lat="43.52916" lon="5.52895">
        <ele>367.5</ele>
        <time>2023-05-28T13:24:33Z</time>
      </trkpt>
      <trkpt lat="43.52916" lon="5.52894">
        <ele>367.5</ele>
        <time>2023-05-28T13:24:34Z</time>
      </trkpt>
      <trkpt lat="43.52917" lon="5.52893">
        <ele>367.4</ele>
        <time>2023-05-28T13:24:35Z</time>
      </trkpt>
      <trkpt lat="43.52918" lon="5.52892">
        <ele>367.4</ele>
        <time>2023-05-28T13:24:36Z</time>
      </trkpt>
      <trkpt lat="43.52919" lon="5.52891">
        <ele>367.4</ele>
        <time>2023-05-28T13:24:37Z</time>
      </trkpt>
      <trkpt lat="43.5292" lon="5.5289">
        <ele>367.4</ele>
        <time>2023-05-28T13:24:38Z</time>
      </trkpt>
      <trkpt lat="43.52921" lon="5.52889">
        <ele>367.4</ele>
        <time>2023-05-28T13:24:39Z</time>
      </trkpt>
      <trkpt lat="43.52922" lon="5.52887">
        <ele>367.3</ele>
        <time>2023-05-28T13:24:40Z</time>
      </trkpt>
      <trkpt lat="43.52923" lon="5.52885">
        <ele>367.4</ele>
        <time>2023-05-28T13:24:41Z</time>
      </trkpt>
      <trkpt lat="43.52923" lon="5.52883">
        <ele>367.3</ele>
        <time>2023-05-28T13:24:42Z</time>
      </trkpt>
      <trkpt lat="43.52923" lon="5.52882">
        <ele>367.2</ele>
        <time>2023-05-28T13:24:43Z</time>
      </trkpt>
      <trkpt lat="43.52923" lon="5.5288">
        <ele>367.2</ele>
        <time>2023-05-28T13:24:44Z</time>
      </trkpt>
      <trkpt lat="43.52923" lon="5.52879">
        <ele>367.3</ele>
        <time>2023-05-28T13:24:45Z</time>
      </trkpt>
      <trkpt lat="43.52923" lon="5.52877">
        <ele>367.3</ele>
        <time>2023-05-28T13:24:46Z</time>
      </trkpt>
      <trkpt lat="43.52923" lon="5.52875">
        <ele>367.3</ele>
        <time>2023-05-28T13:24:47Z</time>
      </trkpt>
      <trkpt lat="43.52923" lon="5.52874">
        <ele>367.2</ele>
        <time>2023-05-28T13:24:48Z</time>
      </trkpt>
      <trkpt lat="43.52923" lon="5.52872">
        <ele>367.2</ele>
        <time>2023-05-28T13:24:49Z</time>
      </trkpt>
      <trkpt lat="43.52923" lon="5.52871">
        <ele>367.2</ele>
        <time>2023-05-28T13:24:50Z</time>
      </trkpt>
      <trkpt lat="43.52924" lon="5.52869">
        <ele>367.3</ele>
        <time>2023-05-28T13:24:51Z</time>
      </trkpt>
      <trkpt lat="43.52924" lon="5.52867">
        <ele>367.4</ele>
        <time>2023-05-28T13:24:52Z</time>
      </trkpt>
      <trkpt lat="43.52924" lon="5.52866">
        <ele>367.3</ele>
        <time>2023-05-28T13:24:53Z</time>
      </trkpt>
      <trkpt lat="43.52924" lon="5.52864">
        <ele>367.2</ele>
        <time>2023-05-28T13:24:54Z</time>
      </trkpt>
      <trkpt lat="43.52924" lon="5.52862">
        <ele>367.1</ele>
        <time>2023-05-28T13:24:55Z</time>
      </trkpt>
      <trkpt lat="43.52924" lon="5.5286">
        <ele>367</ele>
        <time>2023-05-28T13:24:56Z</time>
      </trkpt>
      <trkpt lat="43.52924" lon="5.52859">
        <ele>366.9</ele>
        <time>2023-05-28T13:24:57Z</time>
      </trkpt>
      <trkpt lat="43.52924" lon="5.52857">
        <ele>366.7</ele>
        <time>2023-05-28T13:24:58Z</time>
      </trkpt>
      <trkpt lat="43.52925" lon="5.52856">
        <ele>366.7</ele>
        <time>2023-05-28T13:24:59Z</time>
      </trkpt>
      <trkpt lat="43.52925" lon="5.52854">
        <ele>366.6</ele>
        <time>2023-05-28T13:25:00Z</time>
      </trkpt>
      <trkpt lat="43.52925" lon="5.52853">
        <ele>366.6</ele>
        <time>2023-05-28T13:25:01Z</time>
      </trkpt>
      <trkpt lat="43.52926" lon="5.52851">
        <ele>366.5</ele>
        <time>2023-05-28T13:25:02Z</time>
      </trkpt>
      <trkpt lat="43.52926" lon="5.52849">
        <ele>366.5</ele>
        <time>2023-05-28T13:25:03Z</time>
      </trkpt>
      <trkpt lat="43.52926" lon="5.52848">
        <ele>366.4</ele>
        <time>2023-05-28T13:25:04Z</time>
      </trkpt>
      <trkpt lat="43.52927" lon="5.52846">
        <ele>366.5</ele>
        <time>2023-05-28T13:25:05Z</time>
      </trkpt>
      <trkpt lat="43.52927" lon="5.52845">
        <ele>366.5</ele>
        <time>2023-05-28T13:25:06Z</time>
      </trkpt>
      <trkpt lat="43.52927" lon="5.52843">
        <ele>366.5</ele>
        <time>2023-05-28T13:25:07Z</time>
      </trkpt>
      <trkpt lat="43.52927" lon="5.52841">
        <ele>366.5</ele>
        <time>2023-05-28T13:25:08Z</time>
      </trkpt>
      <trkpt lat="43.52928" lon="5.5284">
        <ele>366.4</ele>
        <time>2023-05-28T13:25:09Z</time>
      </trkpt>
      <trkpt lat="43.52928" lon="5.52838">
        <ele>366.4</ele>
        <time>2023-05-28T13:25:10Z</time>
      </trkpt>
      <trkpt lat="43.52927" lon="5.52836">
        <ele>366.3</ele>
        <time>2023-05-28T13:25:11Z</time>
      </trkpt>
      <trkpt lat="43.52927" lon="5.52835">
        <ele>366.1</ele>
        <time>2023-05-28T13:25:12Z</time>
      </trkpt>
      <trkpt lat="43.52928" lon="5.52833">
        <ele>365.9</ele>
        <time>2023-05-28T13:25:13Z</time>
      </trkpt>
      <trkpt lat="43.52928" lon="5.52831">
        <ele>365.8</ele>
        <time>2023-05-28T13:25:14Z</time>
      </trkpt>
      <trkpt lat="43.52928" lon="5.5283">
        <ele>365.8</ele>
        <time>2023-05-28T13:25:15Z</time>
      </trkpt>
      <trkpt lat="43.52928" lon="5.52828">
        <ele>365.6</ele>
        <time>2023-05-28T13:25:16Z</time>
      </trkpt>
      <trkpt lat="43.52928" lon="5.52827">
        <ele>365.5</ele>
        <time>2023-05-28T13:25:17Z</time>
      </trkpt>
      <trkpt lat="43.52928" lon="5.52825">
        <ele>365.5</ele>
        <time>2023-05-28T13:25:18Z</time>
      </trkpt>
      <trkpt lat="43.52929" lon="5.52823">
        <ele>365.3</ele>
        <time>2023-05-28T13:25:19Z</time>
      </trkpt>
      <trkpt lat="43.52928" lon="5.52821">
        <ele>365.3</ele>
        <time>2023-05-28T13:25:20Z</time>
      </trkpt>
      <trkpt lat="43.52928" lon="5.5282">
        <ele>365.3</ele>
        <time>2023-05-28T13:25:21Z</time>
      </trkpt>
      <trkpt lat="43.52928" lon="5.52818">
        <ele>365.1</ele>
        <time>2023-05-28T13:25:22Z</time>
      </trkpt>
      <trkpt lat="43.52928" lon="5.52817">
        <ele>365</ele>
        <time>2023-05-28T13:25:23Z</time>
      </trkpt>
      <trkpt lat="43.52928" lon="5.52815">
        <ele>364.9</ele>
        <time>2023-05-28T13:25:24Z</time>
      </trkpt>
      <trkpt lat="43.52928" lon="5.52813">
        <ele>364.9</ele>
        <time>2023-05-28T13:25:25Z</time>
      </trkpt>
      <trkpt lat="43.52929" lon="5.52812">
        <ele>364.8</ele>
        <time>2023-05-28T13:25:26Z</time>
      </trkpt>
      <trkpt lat="43.52929" lon="5.5281">
        <ele>364.7</ele>
        <time>2023-05-28T13:25:27Z</time>
      </trkpt>
      <trkpt lat="43.52929" lon="5.52809">
        <ele>364.6</ele>
        <time>2023-05-28T13:25:28Z</time>
      </trkpt>
      <trkpt lat="43.52929" lon="5.52808">
        <ele>364.5</ele>
        <time>2023-05-28T13:25:29Z</time>
      </trkpt>
      <trkpt lat="43.5293" lon="5.52806">
        <ele>364.4</ele>
        <time>2023-05-28T13:25:30Z</time>
      </trkpt>
      <trkpt lat="43.5293" lon="5.52804">
        <ele>364.4</ele>
        <time>2023-05-28T13:25:31Z</time>
      </trkpt>
      <trkpt lat="43.5293" lon="5.52802">
        <ele>364.2</ele>
        <time>2023-05-28T13:25:32Z</time>
      </trkpt>
      <trkpt lat="43.5293" lon="5.52801">
        <ele>364.2</ele>
        <time>2023-05-28T13:25:33Z</time>
      </trkpt>
      <trkpt lat="43.5293" lon="5.528">
        <ele>364.1</ele>
        <time>2023-05-28T13:25:34Z</time>
      </trkpt>
      <trkpt lat="43.52931" lon="5.52798">
        <ele>364</ele>
        <time>2023-05-28T13:25:35Z</time>
      </trkpt>
      <trkpt lat="43.52931" lon="5.52797">
        <ele>363.8</ele>
        <time>2023-05-28T13:25:36Z</time>
      </trkpt>
      <trkpt lat="43.52932" lon="5.52796">
        <ele>363.7</ele>
        <time>2023-05-28T13:25:37Z</time>
      </trkpt>
      <trkpt lat="43.52933" lon="5.52795">
        <ele>363.6</ele>
        <time>2023-05-28T13:25:38Z</time>
      </trkpt>
      <trkpt lat="43.52934" lon="5.52794">
        <ele>363.5</ele>
        <time>2023-05-28T13:25:39Z</time>
      </trkpt>
      <trkpt lat="43.52934" lon="5.52792">
        <ele>363.5</ele>
        <time>2023-05-28T13:25:40Z</time>
      </trkpt>
      <trkpt lat="43.52935" lon="5.52791">
        <ele>363.5</ele>
        <time>2023-05-28T13:25:41Z</time>
      </trkpt>
      <trkpt lat="43.52935" lon="5.5279">
        <ele>363.4</ele>
        <time>2023-05-28T13:25:42Z</time>
      </trkpt>
      <trkpt lat="43.52936" lon="5.52788">
        <ele>363.3</ele>
        <time>2023-05-28T13:25:43Z</time>
      </trkpt>
      <trkpt lat="43.52937" lon="5.52787">
        <ele>363.1</ele>
        <time>2023-05-28T13:25:44Z</time>
      </trkpt>
      <trkpt lat="43.52937" lon="5.52786">
        <ele>363</ele>
        <time>2023-05-28T13:25:45Z</time>
      </trkpt>
      <trkpt lat="43.52938" lon="5.52785">
        <ele>363</ele>
        <time>2023-05-28T13:25:46Z</time>
      </trkpt>
      <trkpt lat="43.52939" lon="5.52784">
        <ele>362.8</ele>
        <time>2023-05-28T13:25:47Z</time>
      </trkpt>
      <trkpt lat="43.5294" lon="5.52783">
        <ele>362.7</ele>
        <time>2023-05-28T13:25:48Z</time>
      </trkpt>
      <trkpt lat="43.52941" lon="5.52781">
        <ele>362.6</ele>
        <time>2023-05-28T13:25:49Z</time>
      </trkpt>
      <trkpt lat="43.52942" lon="5.5278">
        <ele>362.4</ele>
        <time>2023-05-28T13:25:50Z</time>
      </trkpt>
      <trkpt lat="43.52943" lon="5.52779">
        <ele>362.3</ele>
        <time>2023-05-28T13:25:51Z</time>
      </trkpt>
      <trkpt lat="43.52943" lon="5.52777">
        <ele>362.2</ele>
        <time>2023-05-28T13:25:52Z</time>
      </trkpt>
      <trkpt lat="43.52944" lon="5.52776">
        <ele>362.1</ele>
        <time>2023-05-28T13:25:53Z</time>
      </trkpt>
      <trkpt lat="43.52945" lon="5.52775">
        <ele>361.9</ele>
        <time>2023-05-28T13:25:54Z</time>
      </trkpt>
      <trkpt lat="43.52946" lon="5.52774">
        <ele>361.8</ele>
        <time>2023-05-28T13:25:55Z</time>
      </trkpt>
      <trkpt lat="43.52946" lon="5.52773">
        <ele>361.7</ele>
        <time>2023-05-28T13:25:56Z</time>
      </trkpt>
      <trkpt lat="43.52947" lon="5.52772">
        <ele>361.5</ele>
        <time>2023-05-28T13:25:57Z</time>
      </trkpt>
      <trkpt lat="43.52948" lon="5.52771">
        <ele>361.3</ele>
        <time>2023-05-28T13:25:58Z</time>
      </trkpt>
      <trkpt lat="43.52948" lon="5.52769">
        <ele>361.2</ele>
        <time>2023-05-28T13:25:59Z</time>
      </trkpt>
      <trkpt lat="43.52949" lon="5.52768">
        <ele>361.1</ele>
        <time>2023-05-28T13:26:00Z</time>
      </trkpt>
      <trkpt lat="43.52949" lon="5.52767">
        <ele>361</ele>
        <time>2023-05-28T13:26:01Z</time>
      </trkpt>
      <trkpt lat="43.5295" lon="5.52766">
        <ele>360.8</ele>
        <time>2023-05-28T13:26:02Z</time>
      </trkpt>
      <trkpt lat="43.52951" lon="5.52765">
        <ele>360.8</ele>
        <time>2023-05-28T13:26:03Z</time>
      </trkpt>
      <trkpt lat="43.52952" lon="5.52764">
        <ele>360.6</ele>
        <time>2023-05-28T13:26:04Z</time>
      </trkpt>
      <trkpt lat="43.52953" lon="5.52763">
        <ele>360.5</ele>
        <time>2023-05-28T13:26:05Z</time>
      </trkpt>
      <trkpt lat="43.52954" lon="5.52762">
        <ele>360.2</ele>
        <time>2023-05-28T13:26:06Z</time>
      </trkpt>
      <trkpt lat="43.52954" lon="5.52761">
        <ele>360</ele>
        <time>2023-05-28T13:26:07Z</time>
      </trkpt>
      <trkpt lat="43.52955" lon="5.52759">
        <ele>359.9</ele>
        <time>2023-05-28T13:26:08Z</time>
      </trkpt>
      <trkpt lat="43.52956" lon="5.52758">
        <ele>359.8</ele>
        <time>2023-05-28T13:26:09Z</time>
      </trkpt>
      <trkpt lat="43.52956" lon="5.52756">
        <ele>359.6</ele>
        <time>2023-05-28T13:26:10Z</time>
      </trkpt>
      <trkpt lat="43.52956" lon="5.52755">
        <ele>359.4</ele>
        <time>2023-05-28T13:26:11Z</time>
      </trkpt>
      <trkpt lat="43.52956" lon="5.52754">
        <ele>359.3</ele>
        <time>2023-05-28T13:26:12Z</time>
      </trkpt>
      <trkpt lat="43.52956" lon="5.52753">
        <ele>359.2</ele>
        <time>2023-05-28T13:26:13Z</time>
      </trkpt>
      <trkpt lat="43.52957" lon="5.52751">
        <ele>359.1</ele>
        <time>2023-05-28T13:26:14Z</time>
      </trkpt>
      <trkpt lat="43.52957" lon="5.5275">
        <ele>358.9</ele>
        <time>2023-05-28T13:26:15Z</time>
      </trkpt>
      <trkpt lat="43.52957" lon="5.52749">
        <ele>358.7</ele>
        <time>2023-05-28T13:26:16Z</time>
      </trkpt>
      <trkpt lat="43.52957" lon="5.52748">
        <ele>358.5</ele>
        <time>2023-05-28T13:26:17Z</time>
      </trkpt>
      <trkpt lat="43.52958" lon="5.52747">
        <ele>358.4</ele>
        <time>2023-05-28T13:26:18Z</time>
      </trkpt>
      <trkpt lat="43.52959" lon="5.52746">
        <ele>358.2</ele>
        <time>2023-05-28T13:26:19Z</time>
      </trkpt>
      <trkpt lat="43.52959" lon="5.52745">
        <ele>357.9</ele>
        <time>2023-05-28T13:26:20Z</time>
      </trkpt>
      <trkpt lat="43.5296" lon="5.52744">
        <ele>357.7</ele>
        <time>2023-05-28T13:26:21Z</time>
      </trkpt>
      <trkpt lat="43.5296" lon="5.52742">
        <ele>357.5</ele>
        <time>2023-05-28T13:26:22Z</time>
      </trkpt>
      <trkpt lat="43.52961" lon="5.52741">
        <ele>357.3</ele>
        <time>2023-05-28T13:26:23Z</time>
      </trkpt>
      <trkpt lat="43.52961" lon="5.5274">
        <ele>357.1</ele>
        <time>2023-05-28T13:26:24Z</time>
      </trkpt>
      <trkpt lat="43.52961" lon="5.52738">
        <ele>357</ele>
        <time>2023-05-28T13:26:25Z</time>
      </trkpt>
      <trkpt lat="43.52961" lon="5.52737">
        <ele>356.9</ele>
        <time>2023-05-28T13:26:26Z</time>
      </trkpt>
      <trkpt lat="43.52962" lon="5.52736">
        <ele>356.6</ele>
        <time>2023-05-28T13:26:27Z</time>
      </trkpt>
      <trkpt lat="43.52962" lon="5.52734">
        <ele>356.4</ele>
        <time>2023-05-28T13:26:28Z</time>
      </trkpt>
      <trkpt lat="43.52963" lon="5.52733">
        <ele>356.2</ele>
        <time>2023-05-28T13:26:29Z</time>
      </trkpt>
      <trkpt lat="43.52963" lon="5.52732">
        <ele>355.9</ele>
        <time>2023-05-28T13:26:30Z</time>
      </trkpt>
      <trkpt lat="43.52964" lon="5.52731">
        <ele>355.7</ele>
        <time>2023-05-28T13:26:31Z</time>
      </trkpt>
      <trkpt lat="43.52965" lon="5.52729">
        <ele>355.4</ele>
        <time>2023-05-28T13:26:32Z</time>
      </trkpt>
      <trkpt lat="43.52965" lon="5.52728">
        <ele>355.2</ele>
        <time>2023-05-28T13:26:33Z</time>
      </trkpt>
      <trkpt lat="43.52966" lon="5.52727">
        <ele>355</ele>
        <time>2023-05-28T13:26:34Z</time>
      </trkpt>
      <trkpt lat="43.52966" lon="5.52725">
        <ele>354.8</ele>
        <time>2023-05-28T13:26:35Z</time>
      </trkpt>
      <trkpt lat="43.52967" lon="5.52724">
        <ele>354.6</ele>
        <time>2023-05-28T13:26:36Z</time>
      </trkpt>
      <trkpt lat="43.52967" lon="5.52723">
        <ele>354.5</ele>
        <time>2023-05-28T13:26:37Z</time>
      </trkpt>
      <trkpt lat="43.52968" lon="5.52722">
        <ele>354.3</ele>
        <time>2023-05-28T13:26:38Z</time>
      </trkpt>
      <trkpt lat="43.52969" lon="5.52721">
        <ele>354.1</ele>
        <time>2023-05-28T13:26:39Z</time>
      </trkpt>
      <trkpt lat="43.5297" lon="5.5272">
        <ele>353.9</ele>
        <time>2023-05-28T13:26:40Z</time>
      </trkpt>
      <trkpt lat="43.5297" lon="5.52718">
        <ele>353.8</ele>
        <time>2023-05-28T13:26:41Z</time>
      </trkpt>
      <trkpt lat="43.52971" lon="5.52717">
        <ele>353.7</ele>
        <time>2023-05-28T13:26:42Z</time>
      </trkpt>
      <trkpt lat="43.52972" lon="5.52716">
        <ele>353.5</ele>
        <time>2023-05-28T13:26:43Z</time>
      </trkpt>
      <trkpt lat="43.52972" lon="5.52715">
        <ele>353.3</ele>
        <time>2023-05-28T13:26:44Z</time>
      </trkpt>
      <trkpt lat="43.52973" lon="5.52714">
        <ele>353.1</ele>
        <time>2023-05-28T13:26:45Z</time>
      </trkpt>
      <trkpt lat="43.52974" lon="5.52712">
        <ele>353.1</ele>
        <time>2023-05-28T13:26:46Z</time>
      </trkpt>
      <trkpt lat="43.52974" lon="5.52711">
        <ele>353</ele>
        <time>2023-05-28T13:26:47Z</time>
      </trkpt>
      <trkpt lat="43.52975" lon="5.52709">
        <ele>352.7</ele>
        <time>2023-05-28T13:26:48Z</time>
      </trkpt>
      <trkpt lat="43.52975" lon="5.52708">
        <ele>352.5</ele>
        <time>2023-05-28T13:26:49Z</time>
      </trkpt>
      <trkpt lat="43.52976" lon="5.52707">
        <ele>352.3</ele>
        <time>2023-05-28T13:26:50Z</time>
      </trkpt>
      <trkpt lat="43.52976" lon="5.52705">
        <ele>352.1</ele>
        <time>2023-05-28T13:26:51Z</time>
      </trkpt>
      <trkpt lat="43.52977" lon="5.52704">
        <ele>352</ele>
        <time>2023-05-28T13:26:52Z</time>
      </trkpt>
      <trkpt lat="43.52977" lon="5.52703">
        <ele>351.8</ele>
        <time>2023-05-28T13:26:53Z</time>
      </trkpt>
      <trkpt lat="43.52978" lon="5.52701">
        <ele>351.7</ele>
        <time>2023-05-28T13:26:54Z</time>
      </trkpt>
      <trkpt lat="43.52978" lon="5.527">
        <ele>351.5</ele>
        <time>2023-05-28T13:26:55Z</time>
      </trkpt>
      <trkpt lat="43.52978" lon="5.52698">
        <ele>351.1</ele>
        <time>2023-05-28T13:26:56Z</time>
      </trkpt>
      <trkpt lat="43.52979" lon="5.52697">
        <ele>350.9</ele>
        <time>2023-05-28T13:26:57Z</time>
      </trkpt>
      <trkpt lat="43.52979" lon="5.52696">
        <ele>350.5</ele>
        <time>2023-05-28T13:26:58Z</time>
      </trkpt>
      <trkpt lat="43.5298" lon="5.52694">
        <ele>350.2</ele>
        <time>2023-05-28T13:26:59Z</time>
      </trkpt>
      <trkpt lat="43.5298" lon="5.52693">
        <ele>349.9</ele>
        <time>2023-05-28T13:27:00Z</time>
      </trkpt>
      <trkpt lat="43.5298" lon="5.52692">
        <ele>349.6</ele>
        <time>2023-05-28T13:27:01Z</time>
      </trkpt>
      <trkpt lat="43.52981" lon="5.52691">
        <ele>349.3</ele>
        <time>2023-05-28T13:27:02Z</time>
      </trkpt>
      <trkpt lat="43.52982" lon="5.5269">
        <ele>349</ele>
        <time>2023-05-28T13:27:03Z</time>
      </trkpt>
      <trkpt lat="43.52983" lon="5.52689">
        <ele>348.7</ele>
        <time>2023-05-28T13:27:04Z</time>
      </trkpt>
      <trkpt lat="43.52983" lon="5.52687">
        <ele>348.5</ele>
        <time>2023-05-28T13:27:05Z</time>
      </trkpt>
      <trkpt lat="43.52984" lon="5.52686">
        <ele>348.3</ele>
        <time>2023-05-28T13:27:06Z</time>
      </trkpt>
      <trkpt lat="43.52984" lon="5.52685">
        <ele>348.1</ele>
        <time>2023-05-28T13:27:07Z</time>
      </trkpt>
      <trkpt lat="43.52985" lon="5.52684">
        <ele>347.8</ele>
        <time>2023-05-28T13:27:08Z</time>
      </trkpt>
      <trkpt lat="43.52985" lon="5.52682">
        <ele>347.4</ele>
        <time>2023-05-28T13:27:09Z</time>
      </trkpt>
      <trkpt lat="43.52986" lon="5.52681">
        <ele>347.2</ele>
        <time>2023-05-28T13:27:10Z</time>
      </trkpt>
      <trkpt lat="43.52987" lon="5.5268">
        <ele>346.9</ele>
        <time>2023-05-28T13:27:11Z</time>
      </trkpt>
      <trkpt lat="43.52987" lon="5.52679">
        <ele>346.6</ele>
        <time>2023-05-28T13:27:12Z</time>
      </trkpt>
      <trkpt lat="43.52987" lon="5.52678">
        <ele>346.3</ele>
        <time>2023-05-28T13:27:13Z</time>
      </trkpt>
      <trkpt lat="43.52988" lon="5.52676">
        <ele>345.9</ele>
        <time>2023-05-28T13:27:14Z</time>
      </trkpt>
      <trkpt lat="43.52989" lon="5.52675">
        <ele>345.6</ele>
        <time>2023-05-28T13:27:15Z</time>
      </trkpt>
      <trkpt lat="43.5299" lon="5.52674">
        <ele>345.3</ele>
        <time>2023-05-28T13:27:16Z</time>
      </trkpt>
      <trkpt lat="43.5299" lon="5.52673">
        <ele>345.1</ele>
        <time>2023-05-28T13:27:17Z</time>
      </trkpt>
      <trkpt lat="43.52991" lon="5.52672">
        <ele>344.8</ele>
        <time>2023-05-28T13:27:18Z</time>
      </trkpt>
      <trkpt lat="43.52992" lon="5.52672">
        <ele>344.6</ele>
        <time>2023-05-28T13:27:19Z</time>
      </trkpt>
      <trkpt lat="43.52992" lon="5.5267">
        <ele>344.4</ele>
        <time>2023-05-28T13:27:20Z</time>
      </trkpt>
      <trkpt lat="43.52993" lon="5.52669">
        <ele>344.2</ele>
        <time>2023-05-28T13:27:21Z</time>
      </trkpt>
      <trkpt lat="43.52993" lon="5.52668">
        <ele>344</ele>
        <time>2023-05-28T13:27:22Z</time>
      </trkpt>
      <trkpt lat="43.52994" lon="5.52668">
        <ele>343.8</ele>
        <time>2023-05-28T13:27:23Z</time>
      </trkpt>
      <trkpt lat="43.52994" lon="5.52667">
        <ele>343.7</ele>
        <time>2023-05-28T13:27:24Z</time>
      </trkpt>
      <trkpt lat="43.52995" lon="5.52666">
        <ele>343.4</ele>
        <time>2023-05-28T13:27:25Z</time>
      </trkpt>
      <trkpt lat="43.52996" lon="5.52666">
        <ele>343.2</ele>
        <time>2023-05-28T13:27:26Z</time>
      </trkpt>
      <trkpt lat="43.52997" lon="5.52665">
        <ele>342.9</ele>
        <time>2023-05-28T13:27:27Z</time>
      </trkpt>
      <trkpt lat="43.52998" lon="5.52664">
        <ele>342.7</ele>
        <time>2023-05-28T13:27:28Z</time>
      </trkpt>
      <trkpt lat="43.52998" lon="5.52663">
        <ele>342.5</ele>
        <time>2023-05-28T13:27:29Z</time>
      </trkpt>
      <trkpt lat="43.52999" lon="5.52662">
        <ele>342.2</ele>
        <time>2023-05-28T13:27:30Z</time>
      </trkpt>
      <trkpt lat="43.53" lon="5.52661">
        <ele>342</ele>
        <time>2023-05-28T13:27:31Z</time>
      </trkpt>
      <trkpt lat="43.53" lon="5.5266">
        <ele>341.7</ele>
        <time>2023-05-28T13:27:32Z</time>
      </trkpt>
      <trkpt lat="43.53001" lon="5.52659">
        <ele>341.5</ele>
        <time>2023-05-28T13:27:33Z</time>
      </trkpt>
      <trkpt lat="43.53001" lon="5.52658">
        <ele>341.1</ele>
        <time>2023-05-28T13:27:34Z</time>
      </trkpt>
      <trkpt lat="43.53001" lon="5.52657">
        <ele>341</ele>
        <time>2023-05-28T13:27:35Z</time>
      </trkpt>
      <trkpt lat="43.53001" lon="5.52656">
        <ele>340.8</ele>
        <time>2023-05-28T13:27:36Z</time>
      </trkpt>
      <trkpt lat="43.53002" lon="5.52655">
        <ele>340.6</ele>
        <time>2023-05-28T13:27:37Z</time>
      </trkpt>
      <trkpt lat="43.53002" lon="5.52654">
        <ele>340.4</ele>
        <time>2023-05-28T13:27:38Z</time>
      </trkpt>
      <trkpt lat="43.53002" lon="5.52653">
        <ele>340.2</ele>
        <time>2023-05-28T13:27:39Z</time>
      </trkpt>
      <trkpt lat="43.53001" lon="5.52652">
        <ele>339.9</ele>
        <time>2023-05-28T13:27:40Z</time>
      </trkpt>
      <trkpt lat="43.53001" lon="5.52651">
        <ele>339.6</ele>
        <time>2023-05-28T13:27:41Z</time>
      </trkpt>
      <trkpt lat="43.53001" lon="5.52651">
        <ele>339.4</ele>
        <time>2023-05-28T13:27:42Z</time>
      </trkpt>
      <trkpt lat="43.53" lon="5.5265">
        <ele>339.3</ele>
        <time>2023-05-28T13:27:43Z</time>
      </trkpt>
      <trkpt lat="43.53" lon="5.52648">
        <ele>339.1</ele>
        <time>2023-05-28T13:27:44Z</time>
      </trkpt>
      <trkpt lat="43.52999" lon="5.52648">
        <ele>338.8</ele>
        <time>2023-05-28T13:27:45Z</time>
      </trkpt>
      <trkpt lat="43.52999" lon="5.52646">
        <ele>338.6</ele>
        <time>2023-05-28T13:27:46Z</time>
      </trkpt>
      <trkpt lat="43.52998" lon="5.52646">
        <ele>338.4</ele>
        <time>2023-05-28T13:27:47Z</time>
      </trkpt>
      <trkpt lat="43.52998" lon="5.52645">
        <ele>338.3</ele>
        <time>2023-05-28T13:27:48Z</time>
      </trkpt>
      <trkpt lat="43.52998" lon="5.52643">
        <ele>338</ele>
        <time>2023-05-28T13:27:49Z</time>
      </trkpt>
      <trkpt lat="43.52998" lon="5.52642">
        <ele>337.7</ele>
        <time>2023-05-28T13:27:50Z</time>
      </trkpt>
      <trkpt lat="43.52998" lon="5.52641">
        <ele>337.5</ele>
        <time>2023-05-28T13:27:51Z</time>
      </trkpt>
      <trkpt lat="43.52998" lon="5.5264">
        <ele>337.3</ele>
        <time>2023-05-28T13:27:52Z</time>
      </trkpt>
      <trkpt lat="43.52997" lon="5.52639">
        <ele>337.1</ele>
        <time>2023-05-28T13:27:53Z</time>
      </trkpt>
      <trkpt lat="43.52997" lon="5.52638">
        <ele>336.9</ele>
        <time>2023-05-28T13:27:54Z</time>
      </trkpt>
      <trkpt lat="43.52997" lon="5.52637">
        <ele>336.7</ele>
        <time>2023-05-28T13:27:55Z</time>
      </trkpt>
      <trkpt lat="43.52997" lon="5.52635">
        <ele>336.6</ele>
        <time>2023-05-28T13:27:56Z</time>
      </trkpt>
      <trkpt lat="43.52996" lon="5.52633">
        <ele>336.4</ele>
        <time>2023-05-28T13:27:57Z</time>
      </trkpt>
      <trkpt lat="43.52996" lon="5.52632">
        <ele>336.2</ele>
        <time>2023-05-28T13:27:58Z</time>
      </trkpt>
      <trkpt lat="43.52996" lon="5.52631">
        <ele>336.1</ele>
        <time>2023-05-28T13:27:59Z</time>
      </trkpt>
      <trkpt lat="43.52995" lon="5.5263">
        <ele>336</ele>
        <time>2023-05-28T13:28:00Z</time>
      </trkpt>
      <trkpt lat="43.52994" lon="5.52629">
        <ele>335.9</ele>
        <time>2023-05-28T13:28:01Z</time>
      </trkpt>
      <trkpt lat="43.52994" lon="5.52627">
        <ele>335.7</ele>
        <time>2023-05-28T13:28:02Z</time>
      </trkpt>
      <trkpt lat="43.52993" lon="5.52626">
        <ele>335.7</ele>
        <time>2023-05-28T13:28:03Z</time>
      </trkpt>
      <trkpt lat="43.52992" lon="5.52625">
        <ele>335.5</ele>
        <time>2023-05-28T13:28:04Z</time>
      </trkpt>
      <trkpt lat="43.52991" lon="5.52624">
        <ele>335.5</ele>
        <time>2023-05-28T13:28:05Z</time>
      </trkpt>
      <trkpt lat="43.5299" lon="5.52623">
        <ele>335.4</ele>
        <time>2023-05-28T13:28:06Z</time>
      </trkpt>
      <trkpt lat="43.52989" lon="5.52622">
        <ele>335.3</ele>
        <time>2023-05-28T13:28:07Z</time>
      </trkpt>
      <trkpt lat="43.52988" lon="5.52622">
        <ele>335.2</ele>
        <time>2023-05-28T13:28:08Z</time>
      </trkpt>
      <trkpt lat="43.52987" lon="5.52621">
        <ele>335.1</ele>
        <time>2023-05-28T13:28:09Z</time>
      </trkpt>
      <trkpt lat="43.52985" lon="5.52621">
        <ele>335.1</ele>
        <time>2023-05-28T13:28:10Z</time>
      </trkpt>
      <trkpt lat="43.52984" lon="5.52621">
        <ele>335</ele>
        <time>2023-05-28T13:28:11Z</time>
      </trkpt>
      <trkpt lat="43.52983" lon="5.52621">
        <ele>334.9</ele>
        <time>2023-05-28T13:28:12Z</time>
      </trkpt>
      <trkpt lat="43.52982" lon="5.5262">
        <ele>334.7</ele>
        <time>2023-05-28T13:28:13Z</time>
      </trkpt>
      <trkpt lat="43.52981" lon="5.52619">
        <ele>334.6</ele>
        <time>2023-05-28T13:28:14Z</time>
      </trkpt>
      <trkpt lat="43.5298" lon="5.52619">
        <ele>334.5</ele>
        <time>2023-05-28T13:28:15Z</time>
      </trkpt>
      <trkpt lat="43.52978" lon="5.52619">
        <ele>334.3</ele>
        <time>2023-05-28T13:28:16Z</time>
      </trkpt>
      <trkpt lat="43.52977" lon="5.52619">
        <ele>334.2</ele>
        <time>2023-05-28T13:28:17Z</time>
      </trkpt>
      <trkpt lat="43.52976" lon="5.52618">
        <ele>334.1</ele>
        <time>2023-05-28T13:28:18Z</time>
      </trkpt>
      <trkpt lat="43.52975" lon="5.52618">
        <ele>333.9</ele>
        <time>2023-05-28T13:28:19Z</time>
      </trkpt>
      <trkpt lat="43.52974" lon="5.52618">
        <ele>333.7</ele>
        <time>2023-05-28T13:28:20Z</time>
      </trkpt>
      <trkpt lat="43.52973" lon="5.52618">
        <ele>333.6</ele>
        <time>2023-05-28T13:28:21Z</time>
      </trkpt>
      <trkpt lat="43.52971" lon="5.52618">
        <ele>333.4</ele>
        <time>2023-05-28T13:28:22Z</time>
      </trkpt>
      <trkpt lat="43.52971" lon="5.52618">
        <ele>333.2</ele>
        <time>2023-05-28T13:28:23Z</time>
      </trkpt>
      <trkpt lat="43.52969" lon="5.52616">
        <ele>333</ele>
        <time>2023-05-28T13:28:24Z</time>
      </trkpt>
      <trkpt lat="43.52968" lon="5.52615">
        <ele>332.8</ele>
        <time>2023-05-28T13:28:25Z</time>
      </trkpt>
      <trkpt lat="43.52967" lon="5.52613">
        <ele>332.7</ele>
        <time>2023-05-28T13:28:26Z</time>
      </trkpt>
      <trkpt lat="43.52967" lon="5.52613">
        <ele>332.6</ele>
        <time>2023-05-28T13:28:27Z</time>
      </trkpt>
      <trkpt lat="43.52966" lon="5.52612">
        <ele>332.7</ele>
        <time>2023-05-28T13:28:28Z</time>
      </trkpt>
      <trkpt lat="43.52965" lon="5.52611">
        <ele>332.7</ele>
        <time>2023-05-28T13:28:29Z</time>
      </trkpt>
      <trkpt lat="43.52964" lon="5.5261">
        <ele>332.7</ele>
        <time>2023-05-28T13:28:30Z</time>
      </trkpt>
      <trkpt lat="43.52963" lon="5.5261">
        <ele>332.7</ele>
        <time>2023-05-28T13:28:31Z</time>
      </trkpt>
      <trkpt lat="43.52962" lon="5.52609">
        <ele>332.6</ele>
        <time>2023-05-28T13:28:32Z</time>
      </trkpt>
      <trkpt lat="43.52961" lon="5.52608">
        <ele>332.4</ele>
        <time>2023-05-28T13:28:33Z</time>
      </trkpt>
      <trkpt lat="43.52961" lon="5.52607">
        <ele>332.3</ele>
        <time>2023-05-28T13:28:34Z</time>
      </trkpt>
      <trkpt lat="43.52959" lon="5.52606">
        <ele>332.1</ele>
        <time>2023-05-28T13:28:35Z</time>
      </trkpt>
      <trkpt lat="43.52958" lon="5.52605">
        <ele>332</ele>
        <time>2023-05-28T13:28:36Z</time>
      </trkpt>
      <trkpt lat="43.52957" lon="5.52604">
        <ele>331.9</ele>
        <time>2023-05-28T13:28:37Z</time>
      </trkpt>
      <trkpt lat="43.52956" lon="5.52604">
        <ele>331.7</ele>
        <time>2023-05-28T13:28:38Z</time>
      </trkpt>
      <trkpt lat="43.52955" lon="5.52603">
        <ele>331.6</ele>
        <time>2023-05-28T13:28:39Z</time>
      </trkpt>
      <trkpt lat="43.52954" lon="5.52603">
        <ele>331.5</ele>
        <time>2023-05-28T13:28:40Z</time>
      </trkpt>
      <trkpt lat="43.52954" lon="5.52603">
        <ele>331.4</ele>
        <time>2023-05-28T13:28:41Z</time>
      </trkpt>
      <trkpt lat="43.52952" lon="5.52602">
        <ele>331.3</ele>
        <time>2023-05-28T13:28:42Z</time>
      </trkpt>
      <trkpt lat="43.52951" lon="5.52602">
        <ele>331.2</ele>
        <time>2023-05-28T13:28:43Z</time>
      </trkpt>
      <trkpt lat="43.5295" lon="5.52601">
        <ele>331.2</ele>
        <time>2023-05-28T13:28:44Z</time>
      </trkpt>
      <trkpt lat="43.52949" lon="5.526">
        <ele>331.1</ele>
        <time>2023-05-28T13:28:45Z</time>
      </trkpt>
      <trkpt lat="43.52948" lon="5.52599">
        <ele>331</ele>
        <time>2023-05-28T13:28:46Z</time>
      </trkpt>
      <trkpt lat="43.52947" lon="5.52598">
        <ele>330.9</ele>
        <time>2023-05-28T13:28:47Z</time>
      </trkpt>
      <trkpt lat="43.52946" lon="5.52597">
        <ele>330.8</ele>
        <time>2023-05-28T13:28:48Z</time>
      </trkpt>
      <trkpt lat="43.52944" lon="5.52596">
        <ele>330.8</ele>
        <time>2023-05-28T13:28:49Z</time>
      </trkpt>
      <trkpt lat="43.52944" lon="5.52596">
        <ele>330.7</ele>
        <time>2023-05-28T13:28:50Z</time>
      </trkpt>
      <trkpt lat="43.52943" lon="5.52595">
        <ele>330.5</ele>
        <time>2023-05-28T13:28:51Z</time>
      </trkpt>
      <trkpt lat="43.52942" lon="5.52595">
        <ele>330.4</ele>
        <time>2023-05-28T13:28:52Z</time>
      </trkpt>
      <trkpt lat="43.52942" lon="5.52595">
        <ele>330.3</ele>
        <time>2023-05-28T13:28:53Z</time>
      </trkpt>
      <trkpt lat="43.52941" lon="5.52594">
        <ele>330.3</ele>
        <time>2023-05-28T13:28:54Z</time>
      </trkpt>
      <trkpt lat="43.5294" lon="5.52593">
        <ele>330.2</ele>
        <time>2023-05-28T13:28:55Z</time>
      </trkpt>
      <trkpt lat="43.52939" lon="5.52592">
        <ele>330.1</ele>
        <time>2023-05-28T13:28:56Z</time>
      </trkpt>
      <trkpt lat="43.52938" lon="5.5259">
        <ele>330</ele>
        <time>2023-05-28T13:28:57Z</time>
      </trkpt>
      <trkpt lat="43.52937" lon="5.52589">
        <ele>329.9</ele>
        <time>2023-05-28T13:28:58Z</time>
      </trkpt>
      <trkpt lat="43.52937" lon="5.52588">
        <ele>329.7</ele>
        <time>2023-05-28T13:28:59Z</time>
      </trkpt>
      <trkpt lat="43.52936" lon="5.52587">
        <ele>329.5</ele>
        <time>2023-05-28T13:29:00Z</time>
      </trkpt>
      <trkpt lat="43.52935" lon="5.52586">
        <ele>329.3</ele>
        <time>2023-05-28T13:29:01Z</time>
      </trkpt>
      <trkpt lat="43.52934" lon="5.52586">
        <ele>329.2</ele>
        <time>2023-05-28T13:29:02Z</time>
      </trkpt>
      <trkpt lat="43.52933" lon="5.52586">
        <ele>329</ele>
        <time>2023-05-28T13:29:03Z</time>
      </trkpt>
      <trkpt lat="43.52933" lon="5.52585">
        <ele>328.8</ele>
        <time>2023-05-28T13:29:04Z</time>
      </trkpt>
      <trkpt lat="43.52932" lon="5.52585">
        <ele>328.6</ele>
        <time>2023-05-28T13:29:05Z</time>
      </trkpt>
      <trkpt lat="43.52931" lon="5.52585">
        <ele>328.5</ele>
        <time>2023-05-28T13:29:06Z</time>
      </trkpt>
      <trkpt lat="43.5293" lon="5.52584">
        <ele>328.4</ele>
        <time>2023-05-28T13:29:07Z</time>
      </trkpt>
      <trkpt lat="43.5293" lon="5.52583">
        <ele>328.2</ele>
        <time>2023-05-28T13:29:08Z</time>
      </trkpt>
      <trkpt lat="43.5293" lon="5.52582">
        <ele>328.1</ele>
        <time>2023-05-28T13:29:09Z</time>
      </trkpt>
      <trkpt lat="43.52929" lon="5.52581">
        <ele>327.9</ele>
        <time>2023-05-28T13:29:10Z</time>
      </trkpt>
      <trkpt lat="43.52928" lon="5.5258">
        <ele>327.8</ele>
        <time>2023-05-28T13:29:11Z</time>
      </trkpt>
      <trkpt lat="43.52927" lon="5.52579">
        <ele>327.6</ele>
        <time>2023-05-28T13:29:12Z</time>
      </trkpt>
      <trkpt lat="43.52925" lon="5.52577">
        <ele>327.4</ele>
        <time>2023-05-28T13:29:13Z</time>
      </trkpt>
      <trkpt lat="43.52924" lon="5.52575">
        <ele>327.3</ele>
        <time>2023-05-28T13:29:14Z</time>
      </trkpt>
      <trkpt lat="43.52923" lon="5.52574">
        <ele>327.1</ele>
        <time>2023-05-28T13:29:15Z</time>
      </trkpt>
      <trkpt lat="43.52922" lon="5.52573">
        <ele>326.9</ele>
        <time>2023-05-28T13:29:16Z</time>
      </trkpt>
      <trkpt lat="43.52921" lon="5.52572">
        <ele>326.8</ele>
        <time>2023-05-28T13:29:17Z</time>
      </trkpt>
      <trkpt lat="43.52919" lon="5.52572">
        <ele>326.8</ele>
        <time>2023-05-28T13:29:18Z</time>
      </trkpt>
      <trkpt lat="43.52918" lon="5.52571">
        <ele>326.6</ele>
        <time>2023-05-28T13:29:19Z</time>
      </trkpt>
      <trkpt lat="43.52917" lon="5.52571">
        <ele>326.4</ele>
        <time>2023-05-28T13:29:20Z</time>
      </trkpt>
      <trkpt lat="43.52916" lon="5.5257">
        <ele>326.2</ele>
        <time>2023-05-28T13:29:21Z</time>
      </trkpt>
      <trkpt lat="43.52916" lon="5.52568">
        <ele>326.1</ele>
        <time>2023-05-28T13:29:22Z</time>
      </trkpt>
      <trkpt lat="43.52915" lon="5.52567">
        <ele>326</ele>
        <time>2023-05-28T13:29:23Z</time>
      </trkpt>
      <trkpt lat="43.52914" lon="5.52565">
        <ele>325.9</ele>
        <time>2023-05-28T13:29:24Z</time>
      </trkpt>
      <trkpt lat="43.52913" lon="5.52563">
        <ele>325.8</ele>
        <time>2023-05-28T13:29:25Z</time>
      </trkpt>
      <trkpt lat="43.52912" lon="5.52562">
        <ele>325.7</ele>
        <time>2023-05-28T13:29:26Z</time>
      </trkpt>
      <trkpt lat="43.52911" lon="5.52561">
        <ele>325.6</ele>
        <time>2023-05-28T13:29:27Z</time>
      </trkpt>
      <trkpt lat="43.5291" lon="5.5256">
        <ele>325.5</ele>
        <time>2023-05-28T13:29:28Z</time>
      </trkpt>
      <trkpt lat="43.5291" lon="5.52559">
        <ele>325.4</ele>
        <time>2023-05-28T13:29:29Z</time>
      </trkpt>
      <trkpt lat="43.52909" lon="5.52558">
        <ele>325.4</ele>
        <time>2023-05-28T13:29:30Z</time>
      </trkpt>
      <trkpt lat="43.52908" lon="5.52557">
        <ele>325.3</ele>
        <time>2023-05-28T13:29:31Z</time>
      </trkpt>
      <trkpt lat="43.52907" lon="5.52555">
        <ele>325.3</ele>
        <time>2023-05-28T13:29:32Z</time>
      </trkpt>
      <trkpt lat="43.52905" lon="5.52554">
        <ele>325.2</ele>
        <time>2023-05-28T13:29:33Z</time>
      </trkpt>
      <trkpt lat="43.52905" lon="5.52553">
        <ele>325.2</ele>
        <time>2023-05-28T13:29:34Z</time>
      </trkpt>
      <trkpt lat="43.52905" lon="5.52552">
        <ele>325.1</ele>
        <time>2023-05-28T13:29:35Z</time>
      </trkpt>
      <trkpt lat="43.52904" lon="5.5255">
        <ele>325</ele>
        <time>2023-05-28T13:29:36Z</time>
      </trkpt>
      <trkpt lat="43.52904" lon="5.52549">
        <ele>324.9</ele>
        <time>2023-05-28T13:29:37Z</time>
      </trkpt>
      <trkpt lat="43.52903" lon="5.52548">
        <ele>324.8</ele>
        <time>2023-05-28T13:29:38Z</time>
      </trkpt>
      <trkpt lat="43.52902" lon="5.52547">
        <ele>324.7</ele>
        <time>2023-05-28T13:29:39Z</time>
      </trkpt>
      <trkpt lat="43.52901" lon="5.52545">
        <ele>324.6</ele>
        <time>2023-05-28T13:29:40Z</time>
      </trkpt>
      <trkpt lat="43.52901" lon="5.52544">
        <ele>324.5</ele>
        <time>2023-05-28T13:29:41Z</time>
      </trkpt>
      <trkpt lat="43.52901" lon="5.52542">
        <ele>324.5</ele>
        <time>2023-05-28T13:29:42Z</time>
      </trkpt>
      <trkpt lat="43.529" lon="5.52541">
        <ele>324.5</ele>
        <time>2023-05-28T13:29:43Z</time>
      </trkpt>
      <trkpt lat="43.52899" lon="5.5254">
        <ele>324.5</ele>
        <time>2023-05-28T13:29:44Z</time>
      </trkpt>
      <trkpt lat="43.52898" lon="5.52538">
        <ele>324.4</ele>
        <time>2023-05-28T13:29:45Z</time>
      </trkpt>
      <trkpt lat="43.52898" lon="5.52537">
        <ele>324.3</ele>
        <time>2023-05-28T13:29:46Z</time>
      </trkpt>
      <trkpt lat="43.52897" lon="5.52536">
        <ele>324.3</ele>
        <time>2023-05-28T13:29:47Z</time>
      </trkpt>
      <trkpt lat="43.52896" lon="5.52535">
        <ele>324.3</ele>
        <time>2023-05-28T13:29:48Z</time>
      </trkpt>
      <trkpt lat="43.52896" lon="5.52534">
        <ele>324.3</ele>
        <time>2023-05-28T13:29:49Z</time>
      </trkpt>
      <trkpt lat="43.52894" lon="5.52533">
        <ele>324.2</ele>
        <time>2023-05-28T13:29:50Z</time>
      </trkpt>
      <trkpt lat="43.52893" lon="5.52532">
        <ele>324.3</ele>
        <time>2023-05-28T13:29:51Z</time>
      </trkpt>
      <trkpt lat="43.52892" lon="5.52531">
        <ele>324.3</ele>
        <time>2023-05-28T13:29:52Z</time>
      </trkpt>
      <trkpt lat="43.52891" lon="5.5253">
        <ele>324.3</ele>
        <time>2023-05-28T13:29:53Z</time>
      </trkpt>
      <trkpt lat="43.52891" lon="5.52529">
        <ele>324.3</ele>
        <time>2023-05-28T13:29:54Z</time>
      </trkpt>
      <trkpt lat="43.5289" lon="5.52527">
        <ele>324.3</ele>
        <time>2023-05-28T13:29:55Z</time>
      </trkpt>
      <trkpt lat="43.52889" lon="5.52526">
        <ele>324.2</ele>
        <time>2023-05-28T13:29:56Z</time>
      </trkpt>
      <trkpt lat="43.52888" lon="5.52525">
        <ele>324.2</ele>
        <time>2023-05-28T13:29:57Z</time>
      </trkpt>
      <trkpt lat="43.52888" lon="5.52524">
        <ele>324.2</ele>
        <time>2023-05-28T13:29:58Z</time>
      </trkpt>
      <trkpt lat="43.52887" lon="5.52523">
        <ele>324.2</ele>
        <time>2023-05-28T13:29:59Z</time>
      </trkpt>
      <trkpt lat="43.52886" lon="5.52522">
        <ele>323.8</ele>
        <time>2023-05-28T13:30:00Z</time>
      </trkpt>
      <trkpt lat="43.52885" lon="5.52521">
        <ele>323.8</ele>
        <time>2023-05-28T13:30:01Z</time>
      </trkpt>
      <trkpt lat="43.52885" lon="5.5252">
        <ele>323.8</ele>
        <time>2023-05-28T13:30:02Z</time>
      </trkpt>
      <trkpt lat="43.52885" lon="5.52519">
        <ele>323.8</ele>
        <time>2023-05-28T13:30:03Z</time>
      </trkpt>
      <trkpt lat="43.52884" lon="5.52518">
        <ele>324</ele>
        <time>2023-05-28T13:30:04Z</time>
      </trkpt>
      <trkpt lat="43.52884" lon="5.52516">
        <ele>324.1</ele>
        <time>2023-05-28T13:30:05Z</time>
      </trkpt>
      <trkpt lat="43.52884" lon="5.52515">
        <ele>324.2</ele>
        <time>2023-05-28T13:30:06Z</time>
      </trkpt>
      <trkpt lat="43.52883" lon="5.52514">
        <ele>324.2</ele>
        <time>2023-05-28T13:30:07Z</time>
      </trkpt>
      <trkpt lat="43.52882" lon="5.52513">
        <ele>324.1</ele>
        <time>2023-05-28T13:30:08Z</time>
      </trkpt>
      <trkpt lat="43.52882" lon="5.52511">
        <ele>324.1</ele>
        <time>2023-05-28T13:30:09Z</time>
      </trkpt>
      <trkpt lat="43.52882" lon="5.5251">
        <ele>324</ele>
        <time>2023-05-28T13:30:10Z</time>
      </trkpt>
      <trkpt lat="43.52881" lon="5.52509">
        <ele>323.9</ele>
        <time>2023-05-28T13:30:11Z</time>
      </trkpt>
      <trkpt lat="43.5288" lon="5.52508">
        <ele>323.7</ele>
        <time>2023-05-28T13:30:12Z</time>
      </trkpt>
      <trkpt lat="43.52879" lon="5.52507">
        <ele>324.1</ele>
        <time>2023-05-28T13:30:13Z</time>
      </trkpt>
      <trkpt lat="43.52879" lon="5.52506">
        <ele>324.1</ele>
        <time>2023-05-28T13:30:14Z</time>
      </trkpt>
      <trkpt lat="43.52878" lon="5.52504">
        <ele>324.6</ele>
        <time>2023-05-28T13:30:15Z</time>
      </trkpt>
      <trkpt lat="43.52878" lon="5.52503">
        <ele>324.5</ele>
        <time>2023-05-28T13:30:16Z</time>
      </trkpt>
      <trkpt lat="43.52876" lon="5.52502">
        <ele>324.5</ele>
        <time>2023-05-28T13:30:17Z</time>
      </trkpt>
      <trkpt lat="43.52874" lon="5.52501">
        <ele>324.5</ele>
        <time>2023-05-28T13:30:18Z</time>
      </trkpt>
      <trkpt lat="43.52873" lon="5.525">
        <ele>324.4</ele>
        <time>2023-05-28T13:30:19Z</time>
      </trkpt>
      <trkpt lat="43.52872" lon="5.52499">
        <ele>324.4</ele>
        <time>2023-05-28T13:30:20Z</time>
      </trkpt>
      <trkpt lat="43.52871" lon="5.52498">
        <ele>324.4</ele>
        <time>2023-05-28T13:30:21Z</time>
      </trkpt>
      <trkpt lat="43.52871" lon="5.52497">
        <ele>324.5</ele>
        <time>2023-05-28T13:30:22Z</time>
      </trkpt>
      <trkpt lat="43.5287" lon="5.52497">
        <ele>324.5</ele>
        <time>2023-05-28T13:30:23Z</time>
      </trkpt>
      <trkpt lat="43.52869" lon="5.52496">
        <ele>324.3</ele>
        <time>2023-05-28T13:30:24Z</time>
      </trkpt>
      <trkpt lat="43.52868" lon="5.52495">
        <ele>324.1</ele>
        <time>2023-05-28T13:30:25Z</time>
      </trkpt>
      <trkpt lat="43.52868" lon="5.52494">
        <ele>324</ele>
        <time>2023-05-28T13:30:26Z</time>
      </trkpt>
      <trkpt lat="43.52867" lon="5.52494">
        <ele>324</ele>
        <time>2023-05-28T13:30:27Z</time>
      </trkpt>
      <trkpt lat="43.52865" lon="5.52493">
        <ele>324</ele>
        <time>2023-05-28T13:30:28Z</time>
      </trkpt>
      <trkpt lat="43.52865" lon="5.52492">
        <ele>324</ele>
        <time>2023-05-28T13:30:29Z</time>
      </trkpt>
      <trkpt lat="43.52864" lon="5.52491">
        <ele>324</ele>
        <time>2023-05-28T13:30:30Z</time>
      </trkpt>
      <trkpt lat="43.52863" lon="5.5249">
        <ele>323.9</ele>
        <time>2023-05-28T13:30:31Z</time>
      </trkpt>
      <trkpt lat="43.52863" lon="5.52489">
        <ele>324</ele>
        <time>2023-05-28T13:30:32Z</time>
      </trkpt>
      <trkpt lat="43.52861" lon="5.52488">
        <ele>324</ele>
        <time>2023-05-28T13:30:33Z</time>
      </trkpt>
      <trkpt lat="43.5286" lon="5.52488">
        <ele>323.9</ele>
        <time>2023-05-28T13:30:34Z</time>
      </trkpt>
      <trkpt lat="43.52857" lon="5.52486">
        <ele>323.9</ele>
        <time>2023-05-28T13:30:35Z</time>
      </trkpt>
      <trkpt lat="43.52856" lon="5.52485">
        <ele>323.8</ele>
        <time>2023-05-28T13:30:36Z</time>
      </trkpt>
      <trkpt lat="43.52855" lon="5.52484">
        <ele>323.8</ele>
        <time>2023-05-28T13:30:37Z</time>
      </trkpt>
      <trkpt lat="43.52854" lon="5.52484">
        <ele>323.9</ele>
        <time>2023-05-28T13:30:38Z</time>
      </trkpt>
      <trkpt lat="43.52853" lon="5.52482">
        <ele>323.8</ele>
        <time>2023-05-28T13:30:39Z</time>
      </trkpt>
      <trkpt lat="43.52852" lon="5.52482">
        <ele>324</ele>
        <time>2023-05-28T13:30:40Z</time>
      </trkpt>
      <trkpt lat="43.52851" lon="5.52481">
        <ele>323.9</ele>
        <time>2023-05-28T13:30:41Z</time>
      </trkpt>
      <trkpt lat="43.5285" lon="5.5248">
        <ele>323.8</ele>
        <time>2023-05-28T13:30:42Z</time>
      </trkpt>
      <trkpt lat="43.52849" lon="5.52479">
        <ele>323.6</ele>
        <time>2023-05-28T13:30:43Z</time>
      </trkpt>
      <trkpt lat="43.52848" lon="5.52478">
        <ele>323.4</ele>
        <time>2023-05-28T13:30:44Z</time>
      </trkpt>
      <trkpt lat="43.52847" lon="5.52478">
        <ele>323.3</ele>
        <time>2023-05-28T13:30:45Z</time>
      </trkpt>
      <trkpt lat="43.52846" lon="5.52477">
        <ele>323.1</ele>
        <time>2023-05-28T13:30:46Z</time>
      </trkpt>
      <trkpt lat="43.52845" lon="5.52477">
        <ele>322.4</ele>
        <time>2023-05-28T13:30:47Z</time>
      </trkpt>
      <trkpt lat="43.52844" lon="5.52476">
        <ele>322.2</ele>
        <time>2023-05-28T13:30:48Z</time>
      </trkpt>
      <trkpt lat="43.52844" lon="5.52476">
        <ele>322</ele>
        <time>2023-05-28T13:30:49Z</time>
      </trkpt>
      <trkpt lat="43.52843" lon="5.52475">
        <ele>321.9</ele>
        <time>2023-05-28T13:30:50Z</time>
      </trkpt>
      <trkpt lat="43.52843" lon="5.52475">
        <ele>321.8</ele>
        <time>2023-05-28T13:30:51Z</time>
      </trkpt>
      <trkpt lat="43.52842" lon="5.52473">
        <ele>321.6</ele>
        <time>2023-05-28T13:30:52Z</time>
      </trkpt>
      <trkpt lat="43.52841" lon="5.52472">
        <ele>321.4</ele>
        <time>2023-05-28T13:30:53Z</time>
      </trkpt>
      <trkpt lat="43.52841" lon="5.52472">
        <ele>321.2</ele>
        <time>2023-05-28T13:30:54Z</time>
      </trkpt>
      <trkpt lat="43.5284" lon="5.52471">
        <ele>321</ele>
        <time>2023-05-28T13:30:55Z</time>
      </trkpt>
      <trkpt lat="43.52839" lon="5.5247">
        <ele>320.8</ele>
        <time>2023-05-28T13:30:56Z</time>
      </trkpt>
      <trkpt lat="43.52839" lon="5.52471">
        <ele>321.2</ele>
        <time>2023-05-28T13:30:57Z</time>
      </trkpt>
      <trkpt lat="43.52839" lon="5.5247">
        <ele>320.9</ele>
        <time>2023-05-28T13:30:58Z</time>
      </trkpt>
      <trkpt lat="43.52839" lon="5.52469">
        <ele>320.6</ele>
        <time>2023-05-28T13:30:59Z</time>
      </trkpt>
      <trkpt lat="43.5284" lon="5.52468">
        <ele>320.3</ele>
        <time>2023-05-28T13:31:00Z</time>
      </trkpt>
      <trkpt lat="43.52839" lon="5.52468">
        <ele>320.1</ele>
        <time>2023-05-28T13:31:01Z</time>
      </trkpt>
      <trkpt lat="43.52838" lon="5.52468">
        <ele>319.8</ele>
        <time>2023-05-28T13:31:02Z</time>
      </trkpt>
      <trkpt lat="43.52837" lon="5.52466">
        <ele>319.6</ele>
        <time>2023-05-28T13:31:03Z</time>
      </trkpt>
      <trkpt lat="43.52837" lon="5.52466">
        <ele>319.4</ele>
        <time>2023-05-28T13:31:04Z</time>
      </trkpt>
      <trkpt lat="43.52836" lon="5.52465">
        <ele>319.2</ele>
        <time>2023-05-28T13:31:05Z</time>
      </trkpt>
      <trkpt lat="43.52835" lon="5.52464">
        <ele>319</ele>
        <time>2023-05-28T13:31:06Z</time>
      </trkpt>
      <trkpt lat="43.52835" lon="5.52463">
        <ele>318.8</ele>
        <time>2023-05-28T13:31:07Z</time>
      </trkpt>
      <trkpt lat="43.52835" lon="5.52462">
        <ele>318.7</ele>
        <time>2023-05-28T13:31:08Z</time>
      </trkpt>
      <trkpt lat="43.52835" lon="5.52461">
        <ele>318.5</ele>
        <time>2023-05-28T13:31:09Z</time>
      </trkpt>
      <trkpt lat="43.52835" lon="5.5246">
        <ele>318.3</ele>
        <time>2023-05-28T13:31:10Z</time>
      </trkpt>
      <trkpt lat="43.52834" lon="5.52458">
        <ele>318.1</ele>
        <time>2023-05-28T13:31:11Z</time>
      </trkpt>
      <trkpt lat="43.52834" lon="5.52456">
        <ele>317.9</ele>
        <time>2023-05-28T13:31:12Z</time>
      </trkpt>
      <trkpt lat="43.52834" lon="5.52455">
        <ele>317.8</ele>
        <time>2023-05-28T13:31:13Z</time>
      </trkpt>
      <trkpt lat="43.52834" lon="5.52454">
        <ele>317.7</ele>
        <time>2023-05-28T13:31:14Z</time>
      </trkpt>
      <trkpt lat="43.52833" lon="5.52453">
        <ele>317.5</ele>
        <time>2023-05-28T13:31:15Z</time>
      </trkpt>
      <trkpt lat="43.52833" lon="5.52451">
        <ele>317.3</ele>
        <time>2023-05-28T13:31:16Z</time>
      </trkpt>
      <trkpt lat="43.52833" lon="5.5245">
        <ele>317.2</ele>
        <time>2023-05-28T13:31:17Z</time>
      </trkpt>
      <trkpt lat="43.52832" lon="5.52449">
        <ele>317</ele>
        <time>2023-05-28T13:31:18Z</time>
      </trkpt>
      <trkpt lat="43.52832" lon="5.52448">
        <ele>316.8</ele>
        <time>2023-05-28T13:31:19Z</time>
      </trkpt>
      <trkpt lat="43.52833" lon="5.52447">
        <ele>316.7</ele>
        <time>2023-05-28T13:31:20Z</time>
      </trkpt>
      <trkpt lat="43.52833" lon="5.52445">
        <ele>316.6</ele>
        <time>2023-05-28T13:31:21Z</time>
      </trkpt>
      <trkpt lat="43.52834" lon="5.52444">
        <ele>316.6</ele>
        <time>2023-05-28T13:31:22Z</time>
      </trkpt>
      <trkpt lat="43.52834" lon="5.52442">
        <ele>316.5</ele>
        <time>2023-05-28T13:31:23Z</time>
      </trkpt>
      <trkpt lat="43.52834" lon="5.52441">
        <ele>316.4</ele>
        <time>2023-05-28T13:31:24Z</time>
      </trkpt>
      <trkpt lat="43.52834" lon="5.52439">
        <ele>316.3</ele>
        <time>2023-05-28T13:31:25Z</time>
      </trkpt>
      <trkpt lat="43.52834" lon="5.52438">
        <ele>316.3</ele>
        <time>2023-05-28T13:31:26Z</time>
      </trkpt>
      <trkpt lat="43.52834" lon="5.52436">
        <ele>316.3</ele>
        <time>2023-05-28T13:31:27Z</time>
      </trkpt>
      <trkpt lat="43.52834" lon="5.52435">
        <ele>316.3</ele>
        <time>2023-05-28T13:31:28Z</time>
      </trkpt>
      <trkpt lat="43.52834" lon="5.52433">
        <ele>316.3</ele>
        <time>2023-05-28T13:31:29Z</time>
      </trkpt>
      <trkpt lat="43.52834" lon="5.52432">
        <ele>316.4</ele>
        <time>2023-05-28T13:31:30Z</time>
      </trkpt>
      <trkpt lat="43.52835" lon="5.5243">
        <ele>316.3</ele>
        <time>2023-05-28T13:31:31Z</time>
      </trkpt>
      <trkpt lat="43.52834" lon="5.52428">
        <ele>316.4</ele>
        <time>2023-05-28T13:31:32Z</time>
      </trkpt>
      <trkpt lat="43.52834" lon="5.52426">
        <ele>316.5</ele>
        <time>2023-05-28T13:31:33Z</time>
      </trkpt>
      <trkpt lat="43.52835" lon="5.52425">
        <ele>316.4</ele>
        <time>2023-05-28T13:31:34Z</time>
      </trkpt>
      <trkpt lat="43.52835" lon="5.52423">
        <ele>316.4</ele>
        <time>2023-05-28T13:31:35Z</time>
      </trkpt>
      <trkpt lat="43.52835" lon="5.52421">
        <ele>316.4</ele>
        <time>2023-05-28T13:31:36Z</time>
      </trkpt>
      <trkpt lat="43.52834" lon="5.52419">
        <ele>316.4</ele>
        <time>2023-05-28T13:31:37Z</time>
      </trkpt>
      <trkpt lat="43.52834" lon="5.52418">
        <ele>316.4</ele>
        <time>2023-05-28T13:31:38Z</time>
      </trkpt>
      <trkpt lat="43.52833" lon="5.52416">
        <ele>316.4</ele>
        <time>2023-05-28T13:31:39Z</time>
      </trkpt>
      <trkpt lat="43.52832" lon="5.52415">
        <ele>316.4</ele>
        <time>2023-05-28T13:31:40Z</time>
      </trkpt>
      <trkpt lat="43.52831" lon="5.52413">
        <ele>316.5</ele>
        <time>2023-05-28T13:31:41Z</time>
      </trkpt>
      <trkpt lat="43.5283" lon="5.52411">
        <ele>316.5</ele>
        <time>2023-05-28T13:31:42Z</time>
      </trkpt>
      <trkpt lat="43.52829" lon="5.5241">
        <ele>316.6</ele>
        <time>2023-05-28T13:31:43Z</time>
      </trkpt>
      <trkpt lat="43.52828" lon="5.52408">
        <ele>316.7</ele>
        <time>2023-05-28T13:31:44Z</time>
      </trkpt>
      <trkpt lat="43.52827" lon="5.52407">
        <ele>316.8</ele>
        <time>2023-05-28T13:31:45Z</time>
      </trkpt>
      <trkpt lat="43.52826" lon="5.52405">
        <ele>317.1</ele>
        <time>2023-05-28T13:31:46Z</time>
      </trkpt>
      <trkpt lat="43.52825" lon="5.52404">
        <ele>317.3</ele>
        <time>2023-05-28T13:31:47Z</time>
      </trkpt>
      <trkpt lat="43.52824" lon="5.52403">
        <ele>317.3</ele>
        <time>2023-05-28T13:31:48Z</time>
      </trkpt>
      <trkpt lat="43.52823" lon="5.52401">
        <ele>317.4</ele>
        <time>2023-05-28T13:31:49Z</time>
      </trkpt>
      <trkpt lat="43.52823" lon="5.524">
        <ele>317.4</ele>
        <time>2023-05-28T13:31:50Z</time>
      </trkpt>
      <trkpt lat="43.52822" lon="5.52398">
        <ele>317.4</ele>
        <time>2023-05-28T13:31:51Z</time>
      </trkpt>
      <trkpt lat="43.52821" lon="5.52397">
        <ele>317.5</ele>
        <time>2023-05-28T13:31:52Z</time>
      </trkpt>
      <trkpt lat="43.5282" lon="5.52396">
        <ele>317.4</ele>
        <time>2023-05-28T13:31:53Z</time>
      </trkpt>
      <trkpt lat="43.5282" lon="5.52395">
        <ele>317.5</ele>
        <time>2023-05-28T13:31:54Z</time>
      </trkpt>
      <trkpt lat="43.52819" lon="5.52393">
        <ele>317.5</ele>
        <time>2023-05-28T13:31:55Z</time>
      </trkpt>
      <trkpt lat="43.52818" lon="5.52392">
        <ele>317.6</ele>
        <time>2023-05-28T13:31:56Z</time>
      </trkpt>
      <trkpt lat="43.52817" lon="5.52391">
        <ele>317.7</ele>
        <time>2023-05-28T13:31:57Z</time>
      </trkpt>
      <trkpt lat="43.52816" lon="5.5239">
        <ele>317.7</ele>
        <time>2023-05-28T13:31:58Z</time>
      </trkpt>
      <trkpt lat="43.52816" lon="5.52389">
        <ele>317.8</ele>
        <time>2023-05-28T13:31:59Z</time>
      </trkpt>
      <trkpt lat="43.52816" lon="5.52387">
        <ele>317.9</ele>
        <time>2023-05-28T13:32:00Z</time>
      </trkpt>
      <trkpt lat="43.52815" lon="5.52386">
        <ele>318.1</ele>
        <time>2023-05-28T13:32:01Z</time>
      </trkpt>
      <trkpt lat="43.52815" lon="5.52384">
        <ele>318.2</ele>
        <time>2023-05-28T13:32:02Z</time>
      </trkpt>
      <trkpt lat="43.52814" lon="5.52383">
        <ele>318.4</ele>
        <time>2023-05-28T13:32:03Z</time>
      </trkpt>
      <trkpt lat="43.52813" lon="5.52381">
        <ele>318.6</ele>
        <time>2023-05-28T13:32:04Z</time>
      </trkpt>
      <trkpt lat="43.52813" lon="5.5238">
        <ele>318.7</ele>
        <time>2023-05-28T13:32:05Z</time>
      </trkpt>
      <trkpt lat="43.52812" lon="5.52378">
        <ele>318.8</ele>
        <time>2023-05-28T13:32:06Z</time>
      </trkpt>
      <trkpt lat="43.52812" lon="5.52376">
        <ele>318.9</ele>
        <time>2023-05-28T13:32:07Z</time>
      </trkpt>
      <trkpt lat="43.52811" lon="5.52375">
        <ele>318.9</ele>
        <time>2023-05-28T13:32:08Z</time>
      </trkpt>
      <trkpt lat="43.52811" lon="5.52374">
        <ele>318.9</ele>
        <time>2023-05-28T13:32:09Z</time>
      </trkpt>
      <trkpt lat="43.5281" lon="5.52372">
        <ele>319</ele>
        <time>2023-05-28T13:32:10Z</time>
      </trkpt>
      <trkpt lat="43.5281" lon="5.52371">
        <ele>319</ele>
        <time>2023-05-28T13:32:11Z</time>
      </trkpt>
      <trkpt lat="43.5281" lon="5.52369">
        <ele>319.1</ele>
        <time>2023-05-28T13:32:12Z</time>
      </trkpt>
      <trkpt lat="43.52809" lon="5.52367">
        <ele>319.3</ele>
        <time>2023-05-28T13:32:13Z</time>
      </trkpt>
      <trkpt lat="43.52809" lon="5.52366">
        <ele>319.5</ele>
        <time>2023-05-28T13:32:14Z</time>
      </trkpt>
      <trkpt lat="43.52809" lon="5.52364">
        <ele>319.6</ele>
        <time>2023-05-28T13:32:15Z</time>
      </trkpt>
      <trkpt lat="43.52809" lon="5.52363">
        <ele>319.6</ele>
        <time>2023-05-28T13:32:16Z</time>
      </trkpt>
      <trkpt lat="43.52808" lon="5.52361">
        <ele>319.7</ele>
        <time>2023-05-28T13:32:17Z</time>
      </trkpt>
      <trkpt lat="43.52808" lon="5.5236">
        <ele>319.7</ele>
        <time>2023-05-28T13:32:18Z</time>
      </trkpt>
      <trkpt lat="43.52808" lon="5.52359">
        <ele>319.7</ele>
        <time>2023-05-28T13:32:19Z</time>
      </trkpt>
      <trkpt lat="43.52807" lon="5.52358">
        <ele>319.8</ele>
        <time>2023-05-28T13:32:20Z</time>
      </trkpt>
      <trkpt lat="43.52807" lon="5.52357">
        <ele>319.8</ele>
        <time>2023-05-28T13:32:21Z</time>
      </trkpt>
      <trkpt lat="43.52807" lon="5.52356">
        <ele>319.9</ele>
        <time>2023-05-28T13:32:22Z</time>
      </trkpt>
      <trkpt lat="43.52807" lon="5.52355">
        <ele>319.9</ele>
        <time>2023-05-28T13:32:23Z</time>
      </trkpt>
      <trkpt lat="43.52807" lon="5.52353">
        <ele>319.9</ele>
        <time>2023-05-28T13:32:24Z</time>
      </trkpt>
      <trkpt lat="43.52807" lon="5.52352">
        <ele>319.9</ele>
        <time>2023-05-28T13:32:25Z</time>
      </trkpt>
      <trkpt lat="43.52807" lon="5.52351">
        <ele>319.9</ele>
        <time>2023-05-28T13:32:26Z</time>
      </trkpt>
      <trkpt lat="43.52806" lon="5.5235">
        <ele>319.8</ele>
        <time>2023-05-28T13:32:27Z</time>
      </trkpt>
      <trkpt lat="43.52806" lon="5.52348">
        <ele>319.9</ele>
        <time>2023-05-28T13:32:28Z</time>
      </trkpt>
      <trkpt lat="43.52806" lon="5.52347">
        <ele>320</ele>
        <time>2023-05-28T13:32:29Z</time>
      </trkpt>
      <trkpt lat="43.52805" lon="5.52346">
        <ele>320.2</ele>
        <time>2023-05-28T13:32:30Z</time>
      </trkpt>
      <trkpt lat="43.52805" lon="5.52344">
        <ele>320.3</ele>
        <time>2023-05-28T13:32:31Z</time>
      </trkpt>
      <trkpt lat="43.52804" lon="5.52343">
        <ele>320.4</ele>
        <time>2023-05-28T13:32:32Z</time>
      </trkpt>
      <trkpt lat="43.52804" lon="5.52342">
        <ele>320.7</ele>
        <time>2023-05-28T13:32:33Z</time>
      </trkpt>
      <trkpt lat="43.52803" lon="5.52341">
        <ele>320.7</ele>
        <time>2023-05-28T13:32:34Z</time>
      </trkpt>
      <trkpt lat="43.52803" lon="5.5234">
        <ele>320.8</ele>
        <time>2023-05-28T13:32:35Z</time>
      </trkpt>
      <trkpt lat="43.52802" lon="5.52338">
        <ele>320.9</ele>
        <time>2023-05-28T13:32:36Z</time>
      </trkpt>
      <trkpt lat="43.52802" lon="5.52337">
        <ele>320.9</ele>
        <time>2023-05-28T13:32:37Z</time>
      </trkpt>
      <trkpt lat="43.52801" lon="5.52336">
        <ele>321</ele>
        <time>2023-05-28T13:32:38Z</time>
      </trkpt>
      <trkpt lat="43.528" lon="5.52335">
        <ele>321.1</ele>
        <time>2023-05-28T13:32:39Z</time>
      </trkpt>
      <trkpt lat="43.528" lon="5.52333">
        <ele>321.2</ele>
        <time>2023-05-28T13:32:40Z</time>
      </trkpt>
      <trkpt lat="43.52799" lon="5.52332">
        <ele>321.3</ele>
        <time>2023-05-28T13:32:41Z</time>
      </trkpt>
      <trkpt lat="43.52799" lon="5.52331">
        <ele>321.3</ele>
        <time>2023-05-28T13:32:42Z</time>
      </trkpt>
      <trkpt lat="43.52798" lon="5.5233">
        <ele>321.4</ele>
        <time>2023-05-28T13:32:43Z</time>
      </trkpt>
      <trkpt lat="43.52797" lon="5.52328">
        <ele>321.4</ele>
        <time>2023-05-28T13:32:44Z</time>
      </trkpt>
      <trkpt lat="43.52796" lon="5.52327">
        <ele>321.3</ele>
        <time>2023-05-28T13:32:45Z</time>
      </trkpt>
      <trkpt lat="43.52796" lon="5.52326">
        <ele>321.3</ele>
        <time>2023-05-28T13:32:46Z</time>
      </trkpt>
      <trkpt lat="43.52795" lon="5.52325">
        <ele>321.3</ele>
        <time>2023-05-28T13:32:47Z</time>
      </trkpt>
      <trkpt lat="43.52794" lon="5.52324">
        <ele>321.3</ele>
        <time>2023-05-28T13:32:48Z</time>
      </trkpt>
      <trkpt lat="43.52793" lon="5.52323">
        <ele>321.4</ele>
        <time>2023-05-28T13:32:49Z</time>
      </trkpt>
      <trkpt lat="43.52792" lon="5.52322">
        <ele>321.4</ele>
        <time>2023-05-28T13:32:50Z</time>
      </trkpt>
      <trkpt lat="43.52791" lon="5.52321">
        <ele>321.4</ele>
        <time>2023-05-28T13:32:51Z</time>
      </trkpt>
      <trkpt lat="43.5279" lon="5.52321">
        <ele>321.5</ele>
        <time>2023-05-28T13:32:52Z</time>
      </trkpt>
      <trkpt lat="43.52789" lon="5.5232">
        <ele>321.5</ele>
        <time>2023-05-28T13:32:53Z</time>
      </trkpt>
      <trkpt lat="43.52788" lon="5.52319">
        <ele>321.5</ele>
        <time>2023-05-28T13:32:54Z</time>
      </trkpt>
      <trkpt lat="43.52787" lon="5.52317">
        <ele>321.6</ele>
        <time>2023-05-28T13:32:55Z</time>
      </trkpt>
      <trkpt lat="43.52787" lon="5.52316">
        <ele>321.9</ele>
        <time>2023-05-28T13:32:56Z</time>
      </trkpt>
      <trkpt lat="43.52786" lon="5.52315">
        <ele>322.1</ele>
        <time>2023-05-28T13:32:57Z</time>
      </trkpt>
      <trkpt lat="43.52785" lon="5.52314">
        <ele>322.2</ele>
        <time>2023-05-28T13:32:58Z</time>
      </trkpt>
      <trkpt lat="43.52783" lon="5.52313">
        <ele>322.3</ele>
        <time>2023-05-28T13:32:59Z</time>
      </trkpt>
      <trkpt lat="43.52783" lon="5.52312">
        <ele>322.4</ele>
        <time>2023-05-28T13:33:00Z</time>
      </trkpt>
      <trkpt lat="43.52782" lon="5.52311">
        <ele>322.5</ele>
        <time>2023-05-28T13:33:01Z</time>
      </trkpt>
      <trkpt lat="43.52781" lon="5.5231">
        <ele>322.6</ele>
        <time>2023-05-28T13:33:02Z</time>
      </trkpt>
      <trkpt lat="43.5278" lon="5.52309">
        <ele>322.8</ele>
        <time>2023-05-28T13:33:03Z</time>
      </trkpt>
      <trkpt lat="43.52779" lon="5.52308">
        <ele>322.9</ele>
        <time>2023-05-28T13:33:04Z</time>
      </trkpt>
      <trkpt lat="43.52778" lon="5.52307">
        <ele>323</ele>
        <time>2023-05-28T13:33:05Z</time>
      </trkpt>
      <trkpt lat="43.52777" lon="5.52306">
        <ele>323.2</ele>
        <time>2023-05-28T13:33:06Z</time>
      </trkpt>
      <trkpt lat="43.52776" lon="5.52305">
        <ele>323.3</ele>
        <time>2023-05-28T13:33:07Z</time>
      </trkpt>
      <trkpt lat="43.52775" lon="5.52304">
        <ele>323.4</ele>
        <time>2023-05-28T13:33:08Z</time>
      </trkpt>
      <trkpt lat="43.52774" lon="5.52304">
        <ele>323.4</ele>
        <time>2023-05-28T13:33:09Z</time>
      </trkpt>
      <trkpt lat="43.52773" lon="5.52303">
        <ele>323.5</ele>
        <time>2023-05-28T13:33:10Z</time>
      </trkpt>
      <trkpt lat="43.52772" lon="5.52302">
        <ele>323.6</ele>
        <time>2023-05-28T13:33:11Z</time>
      </trkpt>
      <trkpt lat="43.52771" lon="5.52301">
        <ele>323.7</ele>
        <time>2023-05-28T13:33:12Z</time>
      </trkpt>
      <trkpt lat="43.5277" lon="5.523">
        <ele>323.7</ele>
        <time>2023-05-28T13:33:13Z</time>
      </trkpt>
      <trkpt lat="43.52769" lon="5.52299">
        <ele>323.9</ele>
        <time>2023-05-28T13:33:14Z</time>
      </trkpt>
      <trkpt lat="43.52768" lon="5.52298">
        <ele>324</ele>
        <time>2023-05-28T13:33:15Z</time>
      </trkpt>
      <trkpt lat="43.52767" lon="5.52297">
        <ele>324.1</ele>
        <time>2023-05-28T13:33:16Z</time>
      </trkpt>
      <trkpt lat="43.52766" lon="5.52296">
        <ele>324.2</ele>
        <time>2023-05-28T13:33:17Z</time>
      </trkpt>
      <trkpt lat="43.52765" lon="5.52295">
        <ele>324.3</ele>
        <time>2023-05-28T13:33:18Z</time>
      </trkpt>
      <trkpt lat="43.52764" lon="5.52294">
        <ele>324.5</ele>
        <time>2023-05-28T13:33:19Z</time>
      </trkpt>
      <trkpt lat="43.52763" lon="5.52293">
        <ele>324.4</ele>
        <time>2023-05-28T13:33:20Z</time>
      </trkpt>
      <trkpt lat="43.52762" lon="5.52292">
        <ele>324.4</ele>
        <time>2023-05-28T13:33:21Z</time>
      </trkpt>
      <trkpt lat="43.52762" lon="5.52291">
        <ele>324.5</ele>
        <time>2023-05-28T13:33:22Z</time>
      </trkpt>
      <trkpt lat="43.52761" lon="5.52289">
        <ele>324.6</ele>
        <time>2023-05-28T13:33:23Z</time>
      </trkpt>
      <trkpt lat="43.5276" lon="5.52288">
        <ele>324.7</ele>
        <time>2023-05-28T13:33:24Z</time>
      </trkpt>
      <trkpt lat="43.52759" lon="5.52287">
        <ele>324.8</ele>
        <time>2023-05-28T13:33:25Z</time>
      </trkpt>
      <trkpt lat="43.52758" lon="5.52286">
        <ele>324.9</ele>
        <time>2023-05-28T13:33:26Z</time>
      </trkpt>
      <trkpt lat="43.52757" lon="5.52285">
        <ele>324.9</ele>
        <time>2023-05-28T13:33:27Z</time>
      </trkpt>
      <trkpt lat="43.52756" lon="5.52283">
        <ele>325.1</ele>
        <time>2023-05-28T13:33:28Z</time>
      </trkpt>
      <trkpt lat="43.52755" lon="5.52282">
        <ele>325.2</ele>
        <time>2023-05-28T13:33:29Z</time>
      </trkpt>
      <trkpt lat="43.52754" lon="5.52281">
        <ele>325.2</ele>
        <time>2023-05-28T13:33:30Z</time>
      </trkpt>
      <trkpt lat="43.52754" lon="5.5228">
        <ele>325.2</ele>
        <time>2023-05-28T13:33:31Z</time>
      </trkpt>
      <trkpt lat="43.52752" lon="5.52279">
        <ele>325.3</ele>
        <time>2023-05-28T13:33:32Z</time>
      </trkpt>
      <trkpt lat="43.52752" lon="5.52277">
        <ele>325.4</ele>
        <time>2023-05-28T13:33:33Z</time>
      </trkpt>
      <trkpt lat="43.52751" lon="5.52276">
        <ele>325.4</ele>
        <time>2023-05-28T13:33:34Z</time>
      </trkpt>
      <trkpt lat="43.5275" lon="5.52275">
        <ele>325.6</ele>
        <time>2023-05-28T13:33:35Z</time>
      </trkpt>
      <trkpt lat="43.52749" lon="5.52274">
        <ele>325.8</ele>
        <time>2023-05-28T13:33:36Z</time>
      </trkpt>
      <trkpt lat="43.52748" lon="5.52273">
        <ele>325.9</ele>
        <time>2023-05-28T13:33:37Z</time>
      </trkpt>
      <trkpt lat="43.52747" lon="5.52272">
        <ele>326</ele>
        <time>2023-05-28T13:33:38Z</time>
      </trkpt>
      <trkpt lat="43.52746" lon="5.52271">
        <ele>326.2</ele>
        <time>2023-05-28T13:33:39Z</time>
      </trkpt>
      <trkpt lat="43.52745" lon="5.5227">
        <ele>326.4</ele>
        <time>2023-05-28T13:33:40Z</time>
      </trkpt>
      <trkpt lat="43.52745" lon="5.52269">
        <ele>326.5</ele>
        <time>2023-05-28T13:33:41Z</time>
      </trkpt>
      <trkpt lat="43.52744" lon="5.52268">
        <ele>326.4</ele>
        <time>2023-05-28T13:33:42Z</time>
      </trkpt>
      <trkpt lat="43.52744" lon="5.52267">
        <ele>326.7</ele>
        <time>2023-05-28T13:33:43Z</time>
      </trkpt>
      <trkpt lat="43.52744" lon="5.52265">
        <ele>327</ele>
        <time>2023-05-28T13:33:44Z</time>
      </trkpt>
      <trkpt lat="43.52744" lon="5.52264">
        <ele>327.2</ele>
        <time>2023-05-28T13:33:45Z</time>
      </trkpt>
      <trkpt lat="43.52743" lon="5.52262">
        <ele>327.5</ele>
        <time>2023-05-28T13:33:46Z</time>
      </trkpt>
      <trkpt lat="43.52742" lon="5.52261">
        <ele>327.7</ele>
        <time>2023-05-28T13:33:47Z</time>
      </trkpt>
      <trkpt lat="43.52742" lon="5.5226">
        <ele>327.9</ele>
        <time>2023-05-28T13:33:48Z</time>
      </trkpt>
      <trkpt lat="43.52741" lon="5.52258">
        <ele>328.1</ele>
        <time>2023-05-28T13:33:49Z</time>
      </trkpt>
      <trkpt lat="43.5274" lon="5.52257">
        <ele>328.3</ele>
        <time>2023-05-28T13:33:50Z</time>
      </trkpt>
      <trkpt lat="43.5274" lon="5.52255">
        <ele>328.4</ele>
        <time>2023-05-28T13:33:51Z</time>
      </trkpt>
      <trkpt lat="43.52739" lon="5.52254">
        <ele>328.6</ele>
        <time>2023-05-28T13:33:52Z</time>
      </trkpt>
      <trkpt lat="43.52738" lon="5.52252">
        <ele>328.7</ele>
        <time>2023-05-28T13:33:53Z</time>
      </trkpt>
      <trkpt lat="43.52738" lon="5.52251">
        <ele>328.9</ele>
        <time>2023-05-28T13:33:54Z</time>
      </trkpt>
      <trkpt lat="43.52737" lon="5.5225">
        <ele>329.1</ele>
        <time>2023-05-28T13:33:55Z</time>
      </trkpt>
      <trkpt lat="43.52736" lon="5.52249">
        <ele>329.3</ele>
        <time>2023-05-28T13:33:56Z</time>
      </trkpt>
      <trkpt lat="43.52735" lon="5.52248">
        <ele>329.5</ele>
        <time>2023-05-28T13:33:57Z</time>
      </trkpt>
      <trkpt lat="43.52734" lon="5.52247">
        <ele>329.8</ele>
        <time>2023-05-28T13:33:58Z</time>
      </trkpt>
      <trkpt lat="43.52733" lon="5.52245">
        <ele>330</ele>
        <time>2023-05-28T13:33:59Z</time>
      </trkpt>
      <trkpt lat="43.52732" lon="5.52244">
        <ele>330.1</ele>
        <time>2023-05-28T13:34:00Z</time>
      </trkpt>
      <trkpt lat="43.52731" lon="5.52243">
        <ele>330.4</ele>
        <time>2023-05-28T13:34:01Z</time>
      </trkpt>
      <trkpt lat="43.5273" lon="5.52241">
        <ele>330.5</ele>
        <time>2023-05-28T13:34:02Z</time>
      </trkpt>
      <trkpt lat="43.52729" lon="5.5224">
        <ele>330.7</ele>
        <time>2023-05-28T13:34:03Z</time>
      </trkpt>
      <trkpt lat="43.52728" lon="5.52239">
        <ele>330.8</ele>
        <time>2023-05-28T13:34:04Z</time>
      </trkpt>
      <trkpt lat="43.52727" lon="5.52238">
        <ele>330.9</ele>
        <time>2023-05-28T13:34:05Z</time>
      </trkpt>
      <trkpt lat="43.52727" lon="5.52236">
        <ele>331</ele>
        <time>2023-05-28T13:34:06Z</time>
      </trkpt>
      <trkpt lat="43.52726" lon="5.52235">
        <ele>331.1</ele>
        <time>2023-05-28T13:34:07Z</time>
      </trkpt>
      <trkpt lat="43.52726" lon="5.52233">
        <ele>331.2</ele>
        <time>2023-05-28T13:34:08Z</time>
      </trkpt>
      <trkpt lat="43.52725" lon="5.52232">
        <ele>331.3</ele>
        <time>2023-05-28T13:34:09Z</time>
      </trkpt>
      <trkpt lat="43.52725" lon="5.5223">
        <ele>331.4</ele>
        <time>2023-05-28T13:34:10Z</time>
      </trkpt>
      <trkpt lat="43.52724" lon="5.52228">
        <ele>331.5</ele>
        <time>2023-05-28T13:34:11Z</time>
      </trkpt>
      <trkpt lat="43.52723" lon="5.52226">
        <ele>331.7</ele>
        <time>2023-05-28T13:34:12Z</time>
      </trkpt>
      <trkpt lat="43.52723" lon="5.52225">
        <ele>331.8</ele>
        <time>2023-05-28T13:34:13Z</time>
      </trkpt>
      <trkpt lat="43.52722" lon="5.52223">
        <ele>332</ele>
        <time>2023-05-28T13:34:14Z</time>
      </trkpt>
      <trkpt lat="43.52722" lon="5.52222">
        <ele>332.2</ele>
        <time>2023-05-28T13:34:15Z</time>
      </trkpt>
      <trkpt lat="43.52722" lon="5.5222">
        <ele>332.4</ele>
        <time>2023-05-28T13:34:16Z</time>
      </trkpt>
      <trkpt lat="43.52722" lon="5.52219">
        <ele>332.4</ele>
        <time>2023-05-28T13:34:17Z</time>
      </trkpt>
      <trkpt lat="43.52722" lon="5.52217">
        <ele>332.5</ele>
        <time>2023-05-28T13:34:18Z</time>
      </trkpt>
      <trkpt lat="43.52722" lon="5.52216">
        <ele>332.5</ele>
        <time>2023-05-28T13:34:19Z</time>
      </trkpt>
      <trkpt lat="43.52722" lon="5.52214">
        <ele>332.5</ele>
        <time>2023-05-28T13:34:20Z</time>
      </trkpt>
      <trkpt lat="43.52722" lon="5.52212">
        <ele>332.6</ele>
        <time>2023-05-28T13:34:21Z</time>
      </trkpt>
      <trkpt lat="43.52722" lon="5.5221">
        <ele>332.5</ele>
        <time>2023-05-28T13:34:22Z</time>
      </trkpt>
      <trkpt lat="43.52722" lon="5.52208">
        <ele>332.5</ele>
        <time>2023-05-28T13:34:23Z</time>
      </trkpt>
      <trkpt lat="43.52721" lon="5.52206">
        <ele>332.4</ele>
        <time>2023-05-28T13:34:24Z</time>
      </trkpt>
      <trkpt lat="43.52721" lon="5.52204">
        <ele>332.3</ele>
        <time>2023-05-28T13:34:25Z</time>
      </trkpt>
      <trkpt lat="43.52721" lon="5.52202">
        <ele>332.2</ele>
        <time>2023-05-28T13:34:26Z</time>
      </trkpt>
      <trkpt lat="43.52721" lon="5.52201">
        <ele>332</ele>
        <time>2023-05-28T13:34:27Z</time>
      </trkpt>
      <trkpt lat="43.52721" lon="5.522">
        <ele>331.9</ele>
        <time>2023-05-28T13:34:28Z</time>
      </trkpt>
      <trkpt lat="43.5272" lon="5.52198">
        <ele>331.9</ele>
        <time>2023-05-28T13:34:29Z</time>
      </trkpt>
      <trkpt lat="43.5272" lon="5.52197">
        <ele>331.9</ele>
        <time>2023-05-28T13:34:30Z</time>
      </trkpt>
      <trkpt lat="43.5272" lon="5.52195">
        <ele>331.9</ele>
        <time>2023-05-28T13:34:31Z</time>
      </trkpt>
      <trkpt lat="43.52719" lon="5.52193">
        <ele>331.9</ele>
        <time>2023-05-28T13:34:32Z</time>
      </trkpt>
      <trkpt lat="43.52719" lon="5.52192">
        <ele>331.8</ele>
        <time>2023-05-28T13:34:33Z</time>
      </trkpt>
      <trkpt lat="43.52718" lon="5.5219">
        <ele>331.9</ele>
        <time>2023-05-28T13:34:34Z</time>
      </trkpt>
      <trkpt lat="43.52718" lon="5.52188">
        <ele>331.9</ele>
        <time>2023-05-28T13:34:35Z</time>
      </trkpt>
      <trkpt lat="43.52718" lon="5.52187">
        <ele>332</ele>
        <time>2023-05-28T13:34:36Z</time>
      </trkpt>
      <trkpt lat="43.52718" lon="5.52185">
        <ele>332</ele>
        <time>2023-05-28T13:34:37Z</time>
      </trkpt>
      <trkpt lat="43.52718" lon="5.52183">
        <ele>331.9</ele>
        <time>2023-05-28T13:34:38Z</time>
      </trkpt>
      <trkpt lat="43.52718" lon="5.52181">
        <ele>331.9</ele>
        <time>2023-05-28T13:34:39Z</time>
      </trkpt>
      <trkpt lat="43.52718" lon="5.5218">
        <ele>331.8</ele>
        <time>2023-05-28T13:34:40Z</time>
      </trkpt>
      <trkpt lat="43.52718" lon="5.52178">
        <ele>331.8</ele>
        <time>2023-05-28T13:34:41Z</time>
      </trkpt>
      <trkpt lat="43.52717" lon="5.52176">
        <ele>331.8</ele>
        <time>2023-05-28T13:34:42Z</time>
      </trkpt>
      <trkpt lat="43.52717" lon="5.52175">
        <ele>331.8</ele>
        <time>2023-05-28T13:34:43Z</time>
      </trkpt>
      <trkpt lat="43.52717" lon="5.52173">
        <ele>331.9</ele>
        <time>2023-05-28T13:34:44Z</time>
      </trkpt>
      <trkpt lat="43.52717" lon="5.52172">
        <ele>331.9</ele>
        <time>2023-05-28T13:34:45Z</time>
      </trkpt>
      <trkpt lat="43.52717" lon="5.5217">
        <ele>331.8</ele>
        <time>2023-05-28T13:34:46Z</time>
      </trkpt>
      <trkpt lat="43.52716" lon="5.52168">
        <ele>331.7</ele>
        <time>2023-05-28T13:34:47Z</time>
      </trkpt>
      <trkpt lat="43.52716" lon="5.52167">
        <ele>331.7</ele>
        <time>2023-05-28T13:34:48Z</time>
      </trkpt>
      <trkpt lat="43.52716" lon="5.52165">
        <ele>331.6</ele>
        <time>2023-05-28T13:34:49Z</time>
      </trkpt>
      <trkpt lat="43.52715" lon="5.52164">
        <ele>331.5</ele>
        <time>2023-05-28T13:34:50Z</time>
      </trkpt>
      <trkpt lat="43.52714" lon="5.52161">
        <ele>331.5</ele>
        <time>2023-05-28T13:34:51Z</time>
      </trkpt>
      <trkpt lat="43.52713" lon="5.52159">
        <ele>331.5</ele>
        <time>2023-05-28T13:34:52Z</time>
      </trkpt>
      <trkpt lat="43.52713" lon="5.52157">
        <ele>331.4</ele>
        <time>2023-05-28T13:34:53Z</time>
      </trkpt>
      <trkpt lat="43.52713" lon="5.52155">
        <ele>331.3</ele>
        <time>2023-05-28T13:34:54Z</time>
      </trkpt>
      <trkpt lat="43.52713" lon="5.52154">
        <ele>331.2</ele>
        <time>2023-05-28T13:34:55Z</time>
      </trkpt>
      <trkpt lat="43.52713" lon="5.52152">
        <ele>331.1</ele>
        <time>2023-05-28T13:34:56Z</time>
      </trkpt>
      <trkpt lat="43.52713" lon="5.5215">
        <ele>331</ele>
        <time>2023-05-28T13:34:57Z</time>
      </trkpt>
      <trkpt lat="43.52712" lon="5.52148">
        <ele>331</ele>
        <time>2023-05-28T13:34:58Z</time>
      </trkpt>
      <trkpt lat="43.52712" lon="5.52146">
        <ele>330.9</ele>
        <time>2023-05-28T13:34:59Z</time>
      </trkpt>
      <trkpt lat="43.52712" lon="5.52144">
        <ele>330.7</ele>
        <time>2023-05-28T13:35:00Z</time>
      </trkpt>
      <trkpt lat="43.52711" lon="5.52142">
        <ele>330.7</ele>
        <time>2023-05-28T13:35:01Z</time>
      </trkpt>
      <trkpt lat="43.52711" lon="5.52141">
        <ele>330.6</ele>
        <time>2023-05-28T13:35:02Z</time>
      </trkpt>
      <trkpt lat="43.52711" lon="5.5214">
        <ele>330.6</ele>
        <time>2023-05-28T13:35:03Z</time>
      </trkpt>
      <trkpt lat="43.52711" lon="5.52138">
        <ele>330.6</ele>
        <time>2023-05-28T13:35:04Z</time>
      </trkpt>
      <trkpt lat="43.52711" lon="5.52136">
        <ele>330.5</ele>
        <time>2023-05-28T13:35:05Z</time>
      </trkpt>
      <trkpt lat="43.52711" lon="5.52134">
        <ele>330.5</ele>
        <time>2023-05-28T13:35:06Z</time>
      </trkpt>
      <trkpt lat="43.52711" lon="5.52133">
        <ele>330.4</ele>
        <time>2023-05-28T13:35:07Z</time>
      </trkpt>
      <trkpt lat="43.5271" lon="5.52131">
        <ele>330.2</ele>
        <time>2023-05-28T13:35:08Z</time>
      </trkpt>
      <trkpt lat="43.5271" lon="5.52129">
        <ele>330.1</ele>
        <time>2023-05-28T13:35:09Z</time>
      </trkpt>
      <trkpt lat="43.5271" lon="5.52128">
        <ele>330</ele>
        <time>2023-05-28T13:35:10Z</time>
      </trkpt>
      <trkpt lat="43.5271" lon="5.52126">
        <ele>330</ele>
        <time>2023-05-28T13:35:11Z</time>
      </trkpt>
      <trkpt lat="43.52709" lon="5.52124">
        <ele>329.9</ele>
        <time>2023-05-28T13:35:12Z</time>
      </trkpt>
      <trkpt lat="43.52709" lon="5.52123">
        <ele>329.9</ele>
        <time>2023-05-28T13:35:13Z</time>
      </trkpt>
      <trkpt lat="43.52709" lon="5.52121">
        <ele>329.8</ele>
        <time>2023-05-28T13:35:14Z</time>
      </trkpt>
      <trkpt lat="43.52709" lon="5.52119">
        <ele>329.9</ele>
        <time>2023-05-28T13:35:15Z</time>
      </trkpt>
      <trkpt lat="43.52709" lon="5.52118">
        <ele>329.9</ele>
        <time>2023-05-28T13:35:16Z</time>
      </trkpt>
      <trkpt lat="43.52708" lon="5.52116">
        <ele>330</ele>
        <time>2023-05-28T13:35:17Z</time>
      </trkpt>
      <trkpt lat="43.52708" lon="5.52115">
        <ele>329.9</ele>
        <time>2023-05-28T13:35:18Z</time>
      </trkpt>
      <trkpt lat="43.52707" lon="5.52113">
        <ele>329.9</ele>
        <time>2023-05-28T13:35:19Z</time>
      </trkpt>
      <trkpt lat="43.52707" lon="5.52112">
        <ele>329.9</ele>
        <time>2023-05-28T13:35:20Z</time>
      </trkpt>
      <trkpt lat="43.52707" lon="5.5211">
        <ele>329.9</ele>
        <time>2023-05-28T13:35:21Z</time>
      </trkpt>
      <trkpt lat="43.52707" lon="5.52108">
        <ele>330</ele>
        <time>2023-05-28T13:35:22Z</time>
      </trkpt>
      <trkpt lat="43.52707" lon="5.52106">
        <ele>330</ele>
        <time>2023-05-28T13:35:23Z</time>
      </trkpt>
      <trkpt lat="43.52707" lon="5.52104">
        <ele>330.1</ele>
        <time>2023-05-28T13:35:24Z</time>
      </trkpt>
      <trkpt lat="43.52707" lon="5.52102">
        <ele>330.1</ele>
        <time>2023-05-28T13:35:25Z</time>
      </trkpt>
      <trkpt lat="43.52707" lon="5.52101">
        <ele>330.2</ele>
        <time>2023-05-28T13:35:26Z</time>
      </trkpt>
      <trkpt lat="43.52707" lon="5.52099">
        <ele>330.3</ele>
        <time>2023-05-28T13:35:27Z</time>
      </trkpt>
      <trkpt lat="43.52707" lon="5.52097">
        <ele>330.4</ele>
        <time>2023-05-28T13:35:28Z</time>
      </trkpt>
      <trkpt lat="43.52706" lon="5.52096">
        <ele>330.4</ele>
        <time>2023-05-28T13:35:29Z</time>
      </trkpt>
      <trkpt lat="43.52706" lon="5.52095">
        <ele>330.5</ele>
        <time>2023-05-28T13:35:30Z</time>
      </trkpt>
      <trkpt lat="43.52706" lon="5.52093">
        <ele>330.6</ele>
        <time>2023-05-28T13:35:31Z</time>
      </trkpt>
      <trkpt lat="43.52705" lon="5.52092">
        <ele>330.7</ele>
        <time>2023-05-28T13:35:32Z</time>
      </trkpt>
      <trkpt lat="43.52705" lon="5.52091">
        <ele>330.7</ele>
        <time>2023-05-28T13:35:33Z</time>
      </trkpt>
      <trkpt lat="43.52704" lon="5.52089">
        <ele>330.8</ele>
        <time>2023-05-28T13:35:34Z</time>
      </trkpt>
      <trkpt lat="43.52704" lon="5.52087">
        <ele>330.9</ele>
        <time>2023-05-28T13:35:35Z</time>
      </trkpt>
      <trkpt lat="43.52704" lon="5.52086">
        <ele>331</ele>
        <time>2023-05-28T13:35:36Z</time>
      </trkpt>
      <trkpt lat="43.52704" lon="5.52084">
        <ele>331.1</ele>
        <time>2023-05-28T13:35:37Z</time>
      </trkpt>
      <trkpt lat="43.52704" lon="5.52082">
        <ele>331.1</ele>
        <time>2023-05-28T13:35:38Z</time>
      </trkpt>
      <trkpt lat="43.52704" lon="5.52081">
        <ele>331.2</ele>
        <time>2023-05-28T13:35:39Z</time>
      </trkpt>
      <trkpt lat="43.52703" lon="5.5208">
        <ele>331.2</ele>
        <time>2023-05-28T13:35:40Z</time>
      </trkpt>
      <trkpt lat="43.52703" lon="5.52078">
        <ele>331.2</ele>
        <time>2023-05-28T13:35:41Z</time>
      </trkpt>
      <trkpt lat="43.52703" lon="5.52076">
        <ele>331.2</ele>
        <time>2023-05-28T13:35:42Z</time>
      </trkpt>
      <trkpt lat="43.52703" lon="5.52074">
        <ele>331.2</ele>
        <time>2023-05-28T13:35:43Z</time>
      </trkpt>
      <trkpt lat="43.52703" lon="5.52072">
        <ele>331.2</ele>
        <time>2023-05-28T13:35:44Z</time>
      </trkpt>
      <trkpt lat="43.52703" lon="5.5207">
        <ele>331.2</ele>
        <time>2023-05-28T13:35:45Z</time>
      </trkpt>
      <trkpt lat="43.52702" lon="5.52068">
        <ele>331.2</ele>
        <time>2023-05-28T13:35:46Z</time>
      </trkpt>
      <trkpt lat="43.52702" lon="5.52066">
        <ele>331.2</ele>
        <time>2023-05-28T13:35:47Z</time>
      </trkpt>
      <trkpt lat="43.52701" lon="5.52065">
        <ele>331.1</ele>
        <time>2023-05-28T13:35:48Z</time>
      </trkpt>
      <trkpt lat="43.52701" lon="5.52063">
        <ele>331.1</ele>
        <time>2023-05-28T13:35:49Z</time>
      </trkpt>
      <trkpt lat="43.52701" lon="5.52062">
        <ele>331.1</ele>
        <time>2023-05-28T13:35:50Z</time>
      </trkpt>
      <trkpt lat="43.52701" lon="5.5206">
        <ele>331.1</ele>
        <time>2023-05-28T13:35:51Z</time>
      </trkpt>
      <trkpt lat="43.52701" lon="5.52058">
        <ele>331</ele>
        <time>2023-05-28T13:35:52Z</time>
      </trkpt>
      <trkpt lat="43.527" lon="5.52056">
        <ele>330.9</ele>
        <time>2023-05-28T13:35:53Z</time>
      </trkpt>
      <trkpt lat="43.527" lon="5.52053">
        <ele>330.8</ele>
        <time>2023-05-28T13:35:54Z</time>
      </trkpt>
      <trkpt lat="43.52699" lon="5.52051">
        <ele>330.7</ele>
        <time>2023-05-28T13:35:55Z</time>
      </trkpt>
      <trkpt lat="43.52699" lon="5.5205">
        <ele>330.8</ele>
        <time>2023-05-28T13:35:56Z</time>
      </trkpt>
      <trkpt lat="43.52699" lon="5.52049">
        <ele>330.7</ele>
        <time>2023-05-28T13:35:57Z</time>
      </trkpt>
      <trkpt lat="43.52699" lon="5.52046">
        <ele>330.7</ele>
        <time>2023-05-28T13:35:58Z</time>
      </trkpt>
      <trkpt lat="43.52699" lon="5.52044">
        <ele>330.8</ele>
        <time>2023-05-28T13:35:59Z</time>
      </trkpt>
      <trkpt lat="43.52699" lon="5.52043">
        <ele>330.8</ele>
        <time>2023-05-28T13:36:00Z</time>
      </trkpt>
      <trkpt lat="43.52699" lon="5.52041">
        <ele>330.9</ele>
        <time>2023-05-28T13:36:01Z</time>
      </trkpt>
      <trkpt lat="43.52699" lon="5.5204">
        <ele>330.9</ele>
        <time>2023-05-28T13:36:02Z</time>
      </trkpt>
      <trkpt lat="43.52699" lon="5.52038">
        <ele>331</ele>
        <time>2023-05-28T13:36:03Z</time>
      </trkpt>
      <trkpt lat="43.52698" lon="5.52036">
        <ele>331</ele>
        <time>2023-05-28T13:36:04Z</time>
      </trkpt>
      <trkpt lat="43.52698" lon="5.52033">
        <ele>331.1</ele>
        <time>2023-05-28T13:36:05Z</time>
      </trkpt>
      <trkpt lat="43.52698" lon="5.52032">
        <ele>331.2</ele>
        <time>2023-05-28T13:36:06Z</time>
      </trkpt>
      <trkpt lat="43.52698" lon="5.5203">
        <ele>331</ele>
        <time>2023-05-28T13:36:07Z</time>
      </trkpt>
      <trkpt lat="43.52698" lon="5.52028">
        <ele>330.9</ele>
        <time>2023-05-28T13:36:08Z</time>
      </trkpt>
      <trkpt lat="43.52697" lon="5.52026">
        <ele>330.9</ele>
        <time>2023-05-28T13:36:09Z</time>
      </trkpt>
      <trkpt lat="43.52696" lon="5.52025">
        <ele>330.9</ele>
        <time>2023-05-28T13:36:10Z</time>
      </trkpt>
      <trkpt lat="43.52696" lon="5.52024">
        <ele>330.9</ele>
        <time>2023-05-28T13:36:11Z</time>
      </trkpt>
      <trkpt lat="43.52696" lon="5.52022">
        <ele>330.9</ele>
        <time>2023-05-28T13:36:12Z</time>
      </trkpt>
      <trkpt lat="43.52696" lon="5.52021">
        <ele>330.7</ele>
        <time>2023-05-28T13:36:13Z</time>
      </trkpt>
      <trkpt lat="43.52696" lon="5.5202">
        <ele>330.5</ele>
        <time>2023-05-28T13:36:14Z</time>
      </trkpt>
      <trkpt lat="43.52696" lon="5.52017">
        <ele>330.5</ele>
        <time>2023-05-28T13:36:15Z</time>
      </trkpt>
      <trkpt lat="43.52696" lon="5.52015">
        <ele>330.4</ele>
        <time>2023-05-28T13:36:16Z</time>
      </trkpt>
      <trkpt lat="43.52697" lon="5.52013">
        <ele>330.4</ele>
        <time>2023-05-28T13:36:17Z</time>
      </trkpt>
      <trkpt lat="43.52697" lon="5.52011">
        <ele>330.2</ele>
        <time>2023-05-28T13:36:18Z</time>
      </trkpt>
      <trkpt lat="43.52696" lon="5.52009">
        <ele>330.1</ele>
        <time>2023-05-28T13:36:19Z</time>
      </trkpt>
      <trkpt lat="43.52696" lon="5.52006">
        <ele>330</ele>
        <time>2023-05-28T13:36:20Z</time>
      </trkpt>
      <trkpt lat="43.52696" lon="5.52004">
        <ele>329.9</ele>
        <time>2023-05-28T13:36:21Z</time>
      </trkpt>
      <trkpt lat="43.52696" lon="5.52002">
        <ele>329.9</ele>
        <time>2023-05-28T13:36:22Z</time>
      </trkpt>
      <trkpt lat="43.52696" lon="5.52">
        <ele>329.9</ele>
        <time>2023-05-28T13:36:23Z</time>
      </trkpt>
      <trkpt lat="43.52695" lon="5.51998">
        <ele>329.9</ele>
        <time>2023-05-28T13:36:24Z</time>
      </trkpt>
      <trkpt lat="43.52695" lon="5.51996">
        <ele>329.7</ele>
        <time>2023-05-28T13:36:25Z</time>
      </trkpt>
      <trkpt lat="43.52695" lon="5.51995">
        <ele>329.6</ele>
        <time>2023-05-28T13:36:26Z</time>
      </trkpt>
      <trkpt lat="43.52694" lon="5.51993">
        <ele>329.6</ele>
        <time>2023-05-28T13:36:27Z</time>
      </trkpt>
      <trkpt lat="43.52695" lon="5.51991">
        <ele>329.7</ele>
        <time>2023-05-28T13:36:28Z</time>
      </trkpt>
      <trkpt lat="43.52695" lon="5.51989">
        <ele>329.7</ele>
        <time>2023-05-28T13:36:29Z</time>
      </trkpt>
      <trkpt lat="43.52695" lon="5.51988">
        <ele>329.6</ele>
        <time>2023-05-28T13:36:30Z</time>
      </trkpt>
      <trkpt lat="43.52695" lon="5.51985">
        <ele>329.6</ele>
        <time>2023-05-28T13:36:31Z</time>
      </trkpt>
      <trkpt lat="43.52695" lon="5.51983">
        <ele>329.5</ele>
        <time>2023-05-28T13:36:32Z</time>
      </trkpt>
      <trkpt lat="43.52695" lon="5.51981">
        <ele>329.5</ele>
        <time>2023-05-28T13:36:33Z</time>
      </trkpt>
      <trkpt lat="43.52695" lon="5.51979">
        <ele>329.4</ele>
        <time>2023-05-28T13:36:34Z</time>
      </trkpt>
      <trkpt lat="43.52694" lon="5.51977">
        <ele>329.4</ele>
        <time>2023-05-28T13:36:35Z</time>
      </trkpt>
      <trkpt lat="43.52694" lon="5.51975">
        <ele>329.3</ele>
        <time>2023-05-28T13:36:36Z</time>
      </trkpt>
      <trkpt lat="43.52693" lon="5.51973">
        <ele>329.3</ele>
        <time>2023-05-28T13:36:37Z</time>
      </trkpt>
      <trkpt lat="43.52692" lon="5.51971">
        <ele>329.3</ele>
        <time>2023-05-28T13:36:38Z</time>
      </trkpt>
      <trkpt lat="43.52692" lon="5.5197">
        <ele>329.3</ele>
        <time>2023-05-28T13:36:39Z</time>
      </trkpt>
      <trkpt lat="43.52692" lon="5.51968">
        <ele>329.3</ele>
        <time>2023-05-28T13:36:40Z</time>
      </trkpt>
      <trkpt lat="43.52692" lon="5.51966">
        <ele>329.2</ele>
        <time>2023-05-28T13:36:41Z</time>
      </trkpt>
      <trkpt lat="43.52692" lon="5.51964">
        <ele>329.2</ele>
        <time>2023-05-28T13:36:42Z</time>
      </trkpt>
      <trkpt lat="43.52692" lon="5.51962">
        <ele>329.2</ele>
        <time>2023-05-28T13:36:43Z</time>
      </trkpt>
      <trkpt lat="43.52692" lon="5.5196">
        <ele>329.2</ele>
        <time>2023-05-28T13:36:44Z</time>
      </trkpt>
      <trkpt lat="43.52692" lon="5.51958">
        <ele>329.3</ele>
        <time>2023-05-28T13:36:45Z</time>
      </trkpt>
      <trkpt lat="43.52692" lon="5.51955">
        <ele>329.3</ele>
        <time>2023-05-28T13:36:46Z</time>
      </trkpt>
      <trkpt lat="43.52692" lon="5.51953">
        <ele>329.3</ele>
        <time>2023-05-28T13:36:47Z</time>
      </trkpt>
      <trkpt lat="43.52692" lon="5.51951">
        <ele>329.2</ele>
        <time>2023-05-28T13:36:48Z</time>
      </trkpt>
      <trkpt lat="43.52692" lon="5.51949">
        <ele>329.3</ele>
        <time>2023-05-28T13:36:49Z</time>
      </trkpt>
      <trkpt lat="43.52692" lon="5.51948">
        <ele>329.3</ele>
        <time>2023-05-28T13:36:50Z</time>
      </trkpt>
      <trkpt lat="43.52692" lon="5.51946">
        <ele>329.3</ele>
        <time>2023-05-28T13:36:51Z</time>
      </trkpt>
      <trkpt lat="43.52692" lon="5.51944">
        <ele>329.4</ele>
        <time>2023-05-28T13:36:52Z</time>
      </trkpt>
      <trkpt lat="43.52692" lon="5.51943">
        <ele>329.4</ele>
        <time>2023-05-28T13:36:53Z</time>
      </trkpt>
      <trkpt lat="43.52692" lon="5.51941">
        <ele>329.4</ele>
        <time>2023-05-28T13:36:54Z</time>
      </trkpt>
      <trkpt lat="43.52692" lon="5.51939">
        <ele>329.5</ele>
        <time>2023-05-28T13:36:55Z</time>
      </trkpt>
      <trkpt lat="43.52692" lon="5.51937">
        <ele>329.5</ele>
        <time>2023-05-28T13:36:56Z</time>
      </trkpt>
      <trkpt lat="43.52692" lon="5.51935">
        <ele>329.5</ele>
        <time>2023-05-28T13:36:57Z</time>
      </trkpt>
      <trkpt lat="43.52692" lon="5.51933">
        <ele>329.7</ele>
        <time>2023-05-28T13:36:58Z</time>
      </trkpt>
      <trkpt lat="43.52692" lon="5.51931">
        <ele>329.7</ele>
        <time>2023-05-28T13:36:59Z</time>
      </trkpt>
      <trkpt lat="43.52692" lon="5.51929">
        <ele>329.8</ele>
        <time>2023-05-28T13:37:00Z</time>
      </trkpt>
      <trkpt lat="43.52692" lon="5.51928">
        <ele>329.8</ele>
        <time>2023-05-28T13:37:01Z</time>
      </trkpt>
      <trkpt lat="43.52691" lon="5.51926">
        <ele>329.8</ele>
        <time>2023-05-28T13:37:02Z</time>
      </trkpt>
      <trkpt lat="43.52692" lon="5.51924">
        <ele>329.9</ele>
        <time>2023-05-28T13:37:03Z</time>
      </trkpt>
      <trkpt lat="43.52692" lon="5.51923">
        <ele>329.9</ele>
        <time>2023-05-28T13:37:04Z</time>
      </trkpt>
      <trkpt lat="43.52693" lon="5.51921">
        <ele>330</ele>
        <time>2023-05-28T13:37:05Z</time>
      </trkpt>
      <trkpt lat="43.52693" lon="5.51919">
        <ele>329.9</ele>
        <time>2023-05-28T13:37:06Z</time>
      </trkpt>
      <trkpt lat="43.52694" lon="5.51917">
        <ele>329.9</ele>
        <time>2023-05-28T13:37:07Z</time>
      </trkpt>
      <trkpt lat="43.52694" lon="5.51915">
        <ele>329.9</ele>
        <time>2023-05-28T13:37:08Z</time>
      </trkpt>
      <trkpt lat="43.52694" lon="5.51914">
        <ele>329.9</ele>
        <time>2023-05-28T13:37:09Z</time>
      </trkpt>
      <trkpt lat="43.52694" lon="5.51912">
        <ele>330</ele>
        <time>2023-05-28T13:37:10Z</time>
      </trkpt>
      <trkpt lat="43.52695" lon="5.51911">
        <ele>330</ele>
        <time>2023-05-28T13:37:11Z</time>
      </trkpt>
      <trkpt lat="43.52694" lon="5.51909">
        <ele>330</ele>
        <time>2023-05-28T13:37:12Z</time>
      </trkpt>
      <trkpt lat="43.52695" lon="5.51907">
        <ele>330.1</ele>
        <time>2023-05-28T13:37:13Z</time>
      </trkpt>
      <trkpt lat="43.52695" lon="5.51905">
        <ele>330</ele>
        <time>2023-05-28T13:37:14Z</time>
      </trkpt>
      <trkpt lat="43.52695" lon="5.51904">
        <ele>330</ele>
        <time>2023-05-28T13:37:15Z</time>
      </trkpt>
      <trkpt lat="43.52696" lon="5.51902">
        <ele>330</ele>
        <time>2023-05-28T13:37:16Z</time>
      </trkpt>
      <trkpt lat="43.52696" lon="5.519">
        <ele>329.9</ele>
        <time>2023-05-28T13:37:17Z</time>
      </trkpt>
      <trkpt lat="43.52696" lon="5.51899">
        <ele>329.8</ele>
        <time>2023-05-28T13:37:18Z</time>
      </trkpt>
      <trkpt lat="43.52697" lon="5.51897">
        <ele>329.7</ele>
        <time>2023-05-28T13:37:19Z</time>
      </trkpt>
      <trkpt lat="43.52697" lon="5.51895">
        <ele>329.6</ele>
        <time>2023-05-28T13:37:20Z</time>
      </trkpt>
      <trkpt lat="43.52698" lon="5.51894">
        <ele>329.6</ele>
        <time>2023-05-28T13:37:21Z</time>
      </trkpt>
      <trkpt lat="43.52698" lon="5.51893">
        <ele>329.6</ele>
        <time>2023-05-28T13:37:22Z</time>
      </trkpt>
      <trkpt lat="43.52699" lon="5.51891">
        <ele>329.6</ele>
        <time>2023-05-28T13:37:23Z</time>
      </trkpt>
      <trkpt lat="43.527" lon="5.51889">
        <ele>329.6</ele>
        <time>2023-05-28T13:37:24Z</time>
      </trkpt>
      <trkpt lat="43.52701" lon="5.51888">
        <ele>329.6</ele>
        <time>2023-05-28T13:37:25Z</time>
      </trkpt>
      <trkpt lat="43.52701" lon="5.51886">
        <ele>329.6</ele>
        <time>2023-05-28T13:37:26Z</time>
      </trkpt>
      <trkpt lat="43.52702" lon="5.51884">
        <ele>329.6</ele>
        <time>2023-05-28T13:37:27Z</time>
      </trkpt>
      <trkpt lat="43.52703" lon="5.51883">
        <ele>329.6</ele>
        <time>2023-05-28T13:37:28Z</time>
      </trkpt>
      <trkpt lat="43.52703" lon="5.51882">
        <ele>329.6</ele>
        <time>2023-05-28T13:37:29Z</time>
      </trkpt>
      <trkpt lat="43.52704" lon="5.51881">
        <ele>329.6</ele>
        <time>2023-05-28T13:37:30Z</time>
      </trkpt>
      <trkpt lat="43.52704" lon="5.5188">
        <ele>329.6</ele>
        <time>2023-05-28T13:37:31Z</time>
      </trkpt>
      <trkpt lat="43.52705" lon="5.51878">
        <ele>329.5</ele>
        <time>2023-05-28T13:37:32Z</time>
      </trkpt>
      <trkpt lat="43.52706" lon="5.51876">
        <ele>329.5</ele>
        <time>2023-05-28T13:37:33Z</time>
      </trkpt>
      <trkpt lat="43.52707" lon="5.51875">
        <ele>329.4</ele>
        <time>2023-05-28T13:37:34Z</time>
      </trkpt>
      <trkpt lat="43.52707" lon="5.51874">
        <ele>329.3</ele>
        <time>2023-05-28T13:37:35Z</time>
      </trkpt>
      <trkpt lat="43.52708" lon="5.51872">
        <ele>329.3</ele>
        <time>2023-05-28T13:37:36Z</time>
      </trkpt>
      <trkpt lat="43.52709" lon="5.51871">
        <ele>329.3</ele>
        <time>2023-05-28T13:37:37Z</time>
      </trkpt>
      <trkpt lat="43.5271" lon="5.5187">
        <ele>329.2</ele>
        <time>2023-05-28T13:37:38Z</time>
      </trkpt>
      <trkpt lat="43.5271" lon="5.51868">
        <ele>329.2</ele>
        <time>2023-05-28T13:37:39Z</time>
      </trkpt>
      <trkpt lat="43.52711" lon="5.51867">
        <ele>329.2</ele>
        <time>2023-05-28T13:37:40Z</time>
      </trkpt>
      <trkpt lat="43.52712" lon="5.51865">
        <ele>329.2</ele>
        <time>2023-05-28T13:37:41Z</time>
      </trkpt>
      <trkpt lat="43.52712" lon="5.51864">
        <ele>329.1</ele>
        <time>2023-05-28T13:37:42Z</time>
      </trkpt>
      <trkpt lat="43.52713" lon="5.51863">
        <ele>329.2</ele>
        <time>2023-05-28T13:37:43Z</time>
      </trkpt>
      <trkpt lat="43.52713" lon="5.51861">
        <ele>329.2</ele>
        <time>2023-05-28T13:37:44Z</time>
      </trkpt>
      <trkpt lat="43.52714" lon="5.5186">
        <ele>329.2</ele>
        <time>2023-05-28T13:37:45Z</time>
      </trkpt>
      <trkpt lat="43.52714" lon="5.51858">
        <ele>329.2</ele>
        <time>2023-05-28T13:37:46Z</time>
      </trkpt>
      <trkpt lat="43.52715" lon="5.51856">
        <ele>329.3</ele>
        <time>2023-05-28T13:37:47Z</time>
      </trkpt>
      <trkpt lat="43.52715" lon="5.51854">
        <ele>329.2</ele>
        <time>2023-05-28T13:37:48Z</time>
      </trkpt>
      <trkpt lat="43.52714" lon="5.51852">
        <ele>329.1</ele>
        <time>2023-05-28T13:37:49Z</time>
      </trkpt>
      <trkpt lat="43.52714" lon="5.5185">
        <ele>328.9</ele>
        <time>2023-05-28T13:37:50Z</time>
      </trkpt>
      <trkpt lat="43.52714" lon="5.51848">
        <ele>328.7</ele>
        <time>2023-05-28T13:37:51Z</time>
      </trkpt>
      <trkpt lat="43.52714" lon="5.51846">
        <ele>328.6</ele>
        <time>2023-05-28T13:37:52Z</time>
      </trkpt>
      <trkpt lat="43.52715" lon="5.51844">
        <ele>328.5</ele>
        <time>2023-05-28T13:37:53Z</time>
      </trkpt>
      <trkpt lat="43.52715" lon="5.51843">
        <ele>328.4</ele>
        <time>2023-05-28T13:37:54Z</time>
      </trkpt>
      <trkpt lat="43.52715" lon="5.51841">
        <ele>328.3</ele>
        <time>2023-05-28T13:37:55Z</time>
      </trkpt>
      <trkpt lat="43.52715" lon="5.51839">
        <ele>328.2</ele>
        <time>2023-05-28T13:37:56Z</time>
      </trkpt>
      <trkpt lat="43.52714" lon="5.51836">
        <ele>328.2</ele>
        <time>2023-05-28T13:37:57Z</time>
      </trkpt>
      <trkpt lat="43.52714" lon="5.51834">
        <ele>328</ele>
        <time>2023-05-28T13:37:58Z</time>
      </trkpt>
      <trkpt lat="43.52714" lon="5.51832">
        <ele>327.9</ele>
        <time>2023-05-28T13:37:59Z</time>
      </trkpt>
      <trkpt lat="43.52713" lon="5.5183">
        <ele>328</ele>
        <time>2023-05-28T13:38:00Z</time>
      </trkpt>
      <trkpt lat="43.52713" lon="5.51828">
        <ele>327.9</ele>
        <time>2023-05-28T13:38:01Z</time>
      </trkpt>
      <trkpt lat="43.52713" lon="5.51826">
        <ele>327.9</ele>
        <time>2023-05-28T13:38:02Z</time>
      </trkpt>
      <trkpt lat="43.52713" lon="5.51824">
        <ele>327.9</ele>
        <time>2023-05-28T13:38:03Z</time>
      </trkpt>
      <trkpt lat="43.52713" lon="5.51822">
        <ele>327.8</ele>
        <time>2023-05-28T13:38:04Z</time>
      </trkpt>
      <trkpt lat="43.52713" lon="5.5182">
        <ele>327.6</ele>
        <time>2023-05-28T13:38:05Z</time>
      </trkpt>
      <trkpt lat="43.52713" lon="5.51818">
        <ele>327.5</ele>
        <time>2023-05-28T13:38:06Z</time>
      </trkpt>
      <trkpt lat="43.52713" lon="5.51816">
        <ele>327.3</ele>
        <time>2023-05-28T13:38:07Z</time>
      </trkpt>
      <trkpt lat="43.52713" lon="5.51814">
        <ele>327.2</ele>
        <time>2023-05-28T13:38:08Z</time>
      </trkpt>
      <trkpt lat="43.52713" lon="5.51813">
        <ele>327.1</ele>
        <time>2023-05-28T13:38:09Z</time>
      </trkpt>
      <trkpt lat="43.52713" lon="5.51811">
        <ele>327</ele>
        <time>2023-05-28T13:38:10Z</time>
      </trkpt>
      <trkpt lat="43.52713" lon="5.51809">
        <ele>326.9</ele>
        <time>2023-05-28T13:38:11Z</time>
      </trkpt>
      <trkpt lat="43.52713" lon="5.51807">
        <ele>326.8</ele>
        <time>2023-05-28T13:38:12Z</time>
      </trkpt>
      <trkpt lat="43.52714" lon="5.51806">
        <ele>326.7</ele>
        <time>2023-05-28T13:38:13Z</time>
      </trkpt>
      <trkpt lat="43.52714" lon="5.51804">
        <ele>326.4</ele>
        <time>2023-05-28T13:38:14Z</time>
      </trkpt>
      <trkpt lat="43.52714" lon="5.51802">
        <ele>326.3</ele>
        <time>2023-05-28T13:38:15Z</time>
      </trkpt>
      <trkpt lat="43.52714" lon="5.518">
        <ele>326.3</ele>
        <time>2023-05-28T13:38:16Z</time>
      </trkpt>
      <trkpt lat="43.52714" lon="5.51798">
        <ele>326.4</ele>
        <time>2023-05-28T13:38:17Z</time>
      </trkpt>
      <trkpt lat="43.52715" lon="5.51796">
        <ele>326.3</ele>
        <time>2023-05-28T13:38:18Z</time>
      </trkpt>
      <trkpt lat="43.52716" lon="5.51794">
        <ele>326.2</ele>
        <time>2023-05-28T13:38:19Z</time>
      </trkpt>
      <trkpt lat="43.52716" lon="5.51793">
        <ele>326.2</ele>
        <time>2023-05-28T13:38:20Z</time>
      </trkpt>
      <trkpt lat="43.52717" lon="5.51791">
        <ele>326.1</ele>
        <time>2023-05-28T13:38:21Z</time>
      </trkpt>
      <trkpt lat="43.52717" lon="5.51789">
        <ele>325.9</ele>
        <time>2023-05-28T13:38:22Z</time>
      </trkpt>
      <trkpt lat="43.52717" lon="5.51788">
        <ele>325.8</ele>
        <time>2023-05-28T13:38:23Z</time>
      </trkpt>
      <trkpt lat="43.52718" lon="5.51786">
        <ele>325.8</ele>
        <time>2023-05-28T13:38:24Z</time>
      </trkpt>
      <trkpt lat="43.52718" lon="5.51784">
        <ele>325.7</ele>
        <time>2023-05-28T13:38:25Z</time>
      </trkpt>
      <trkpt lat="43.52718" lon="5.51783">
        <ele>325.6</ele>
        <time>2023-05-28T13:38:26Z</time>
      </trkpt>
      <trkpt lat="43.52719" lon="5.51781">
        <ele>325.5</ele>
        <time>2023-05-28T13:38:27Z</time>
      </trkpt>
      <trkpt lat="43.52719" lon="5.51779">
        <ele>325.5</ele>
        <time>2023-05-28T13:38:28Z</time>
      </trkpt>
      <trkpt lat="43.52719" lon="5.51777">
        <ele>325.5</ele>
        <time>2023-05-28T13:38:29Z</time>
      </trkpt>
      <trkpt lat="43.52719" lon="5.51775">
        <ele>325.6</ele>
        <time>2023-05-28T13:38:30Z</time>
      </trkpt>
      <trkpt lat="43.52719" lon="5.51774">
        <ele>325.6</ele>
        <time>2023-05-28T13:38:31Z</time>
      </trkpt>
      <trkpt lat="43.5272" lon="5.51772">
        <ele>325.5</ele>
        <time>2023-05-28T13:38:32Z</time>
      </trkpt>
      <trkpt lat="43.5272" lon="5.5177">
        <ele>325.4</ele>
        <time>2023-05-28T13:38:33Z</time>
      </trkpt>
      <trkpt lat="43.5272" lon="5.51769">
        <ele>325.2</ele>
        <time>2023-05-28T13:38:34Z</time>
      </trkpt>
      <trkpt lat="43.5272" lon="5.51767">
        <ele>325.2</ele>
        <time>2023-05-28T13:38:35Z</time>
      </trkpt>
      <trkpt lat="43.5272" lon="5.51765">
        <ele>325.1</ele>
        <time>2023-05-28T13:38:36Z</time>
      </trkpt>
      <trkpt lat="43.5272" lon="5.51763">
        <ele>324.9</ele>
        <time>2023-05-28T13:38:37Z</time>
      </trkpt>
      <trkpt lat="43.5272" lon="5.51761">
        <ele>324.8</ele>
        <time>2023-05-28T13:38:38Z</time>
      </trkpt>
      <trkpt lat="43.52721" lon="5.5176">
        <ele>324.8</ele>
        <time>2023-05-28T13:38:39Z</time>
      </trkpt>
      <trkpt lat="43.52721" lon="5.51758">
        <ele>324.7</ele>
        <time>2023-05-28T13:38:40Z</time>
      </trkpt>
      <trkpt lat="43.52722" lon="5.51756">
        <ele>324.7</ele>
        <time>2023-05-28T13:38:41Z</time>
      </trkpt>
      <trkpt lat="43.52723" lon="5.51755">
        <ele>324.6</ele>
        <time>2023-05-28T13:38:42Z</time>
      </trkpt>
      <trkpt lat="43.52723" lon="5.51753">
        <ele>324.5</ele>
        <time>2023-05-28T13:38:43Z</time>
      </trkpt>
      <trkpt lat="43.52724" lon="5.51752">
        <ele>324.6</ele>
        <time>2023-05-28T13:38:44Z</time>
      </trkpt>
      <trkpt lat="43.52724" lon="5.5175">
        <ele>324.6</ele>
        <time>2023-05-28T13:38:45Z</time>
      </trkpt>
      <trkpt lat="43.52725" lon="5.51748">
        <ele>324.7</ele>
        <time>2023-05-28T13:38:46Z</time>
      </trkpt>
      <trkpt lat="43.52725" lon="5.51747">
        <ele>324.7</ele>
        <time>2023-05-28T13:38:47Z</time>
      </trkpt>
      <trkpt lat="43.52725" lon="5.51744">
        <ele>324.7</ele>
        <time>2023-05-28T13:38:48Z</time>
      </trkpt>
      <trkpt lat="43.52726" lon="5.51743">
        <ele>324.7</ele>
        <time>2023-05-28T13:38:49Z</time>
      </trkpt>
      <trkpt lat="43.52726" lon="5.51741">
        <ele>324.7</ele>
        <time>2023-05-28T13:38:50Z</time>
      </trkpt>
      <trkpt lat="43.52726" lon="5.51739">
        <ele>324.7</ele>
        <time>2023-05-28T13:38:51Z</time>
      </trkpt>
      <trkpt lat="43.52726" lon="5.51738">
        <ele>324.6</ele>
        <time>2023-05-28T13:38:52Z</time>
      </trkpt>
      <trkpt lat="43.52726" lon="5.51736">
        <ele>324.5</ele>
        <time>2023-05-28T13:38:53Z</time>
      </trkpt>
      <trkpt lat="43.52726" lon="5.51735">
        <ele>324.4</ele>
        <time>2023-05-28T13:38:54Z</time>
      </trkpt>
      <trkpt lat="43.52725" lon="5.51734">
        <ele>324.4</ele>
        <time>2023-05-28T13:38:55Z</time>
      </trkpt>
      <trkpt lat="43.52726" lon="5.51732">
        <ele>324.3</ele>
        <time>2023-05-28T13:38:56Z</time>
      </trkpt>
      <trkpt lat="43.52726" lon="5.5173">
        <ele>324.2</ele>
        <time>2023-05-28T13:38:57Z</time>
      </trkpt>
      <trkpt lat="43.52726" lon="5.51729">
        <ele>324.1</ele>
        <time>2023-05-28T13:38:58Z</time>
      </trkpt>
      <trkpt lat="43.52726" lon="5.51727">
        <ele>324.1</ele>
        <time>2023-05-28T13:38:59Z</time>
      </trkpt>
      <trkpt lat="43.52726" lon="5.51725">
        <ele>324</ele>
        <time>2023-05-28T13:39:00Z</time>
      </trkpt>
      <trkpt lat="43.52726" lon="5.51723">
        <ele>323.9</ele>
        <time>2023-05-28T13:39:01Z</time>
      </trkpt>
      <trkpt lat="43.52726" lon="5.51722">
        <ele>323.8</ele>
        <time>2023-05-28T13:39:02Z</time>
      </trkpt>
      <trkpt lat="43.52726" lon="5.5172">
        <ele>323.7</ele>
        <time>2023-05-28T13:39:03Z</time>
      </trkpt>
      <trkpt lat="43.52727" lon="5.51718">
        <ele>323.6</ele>
        <time>2023-05-28T13:39:04Z</time>
      </trkpt>
      <trkpt lat="43.52727" lon="5.51717">
        <ele>323.5</ele>
        <time>2023-05-28T13:39:05Z</time>
      </trkpt>
      <trkpt lat="43.52727" lon="5.51716">
        <ele>323.4</ele>
        <time>2023-05-28T13:39:06Z</time>
      </trkpt>
      <trkpt lat="43.52728" lon="5.51714">
        <ele>323.2</ele>
        <time>2023-05-28T13:39:07Z</time>
      </trkpt>
      <trkpt lat="43.52728" lon="5.51712">
        <ele>323.1</ele>
        <time>2023-05-28T13:39:08Z</time>
      </trkpt>
      <trkpt lat="43.52729" lon="5.51711">
        <ele>323</ele>
        <time>2023-05-28T13:39:09Z</time>
      </trkpt>
      <trkpt lat="43.5273" lon="5.51709">
        <ele>322.9</ele>
        <time>2023-05-28T13:39:10Z</time>
      </trkpt>
      <trkpt lat="43.52731" lon="5.51706">
        <ele>322.7</ele>
        <time>2023-05-28T13:39:11Z</time>
      </trkpt>
      <trkpt lat="43.52731" lon="5.51704">
        <ele>322.6</ele>
        <time>2023-05-28T13:39:12Z</time>
      </trkpt>
      <trkpt lat="43.52732" lon="5.51703">
        <ele>322.4</ele>
        <time>2023-05-28T13:39:13Z</time>
      </trkpt>
      <trkpt lat="43.52732" lon="5.51701">
        <ele>322.3</ele>
        <time>2023-05-28T13:39:14Z</time>
      </trkpt>
      <trkpt lat="43.52733" lon="5.51699">
        <ele>322.2</ele>
        <time>2023-05-28T13:39:15Z</time>
      </trkpt>
      <trkpt lat="43.52733" lon="5.51697">
        <ele>322.1</ele>
        <time>2023-05-28T13:39:16Z</time>
      </trkpt>
      <trkpt lat="43.52733" lon="5.51695">
        <ele>322.1</ele>
        <time>2023-05-28T13:39:17Z</time>
      </trkpt>
      <trkpt lat="43.52733" lon="5.51694">
        <ele>322</ele>
        <time>2023-05-28T13:39:18Z</time>
      </trkpt>
      <trkpt lat="43.52734" lon="5.51692">
        <ele>321.9</ele>
        <time>2023-05-28T13:39:19Z</time>
      </trkpt>
      <trkpt lat="43.52735" lon="5.51691">
        <ele>321.8</ele>
        <time>2023-05-28T13:39:20Z</time>
      </trkpt>
      <trkpt lat="43.52735" lon="5.5169">
        <ele>321.8</ele>
        <time>2023-05-28T13:39:21Z</time>
      </trkpt>
      <trkpt lat="43.52736" lon="5.51688">
        <ele>321.6</ele>
        <time>2023-05-28T13:39:22Z</time>
      </trkpt>
      <trkpt lat="43.52736" lon="5.51686">
        <ele>321.6</ele>
        <time>2023-05-28T13:39:23Z</time>
      </trkpt>
      <trkpt lat="43.52736" lon="5.51685">
        <ele>321.6</ele>
        <time>2023-05-28T13:39:24Z</time>
      </trkpt>
      <trkpt lat="43.52737" lon="5.51683">
        <ele>321.5</ele>
        <time>2023-05-28T13:39:25Z</time>
      </trkpt>
      <trkpt lat="43.52737" lon="5.51682">
        <ele>321.5</ele>
        <time>2023-05-28T13:39:26Z</time>
      </trkpt>
      <trkpt lat="43.52738" lon="5.5168">
        <ele>321.3</ele>
        <time>2023-05-28T13:39:27Z</time>
      </trkpt>
      <trkpt lat="43.52738" lon="5.51679">
        <ele>321.2</ele>
        <time>2023-05-28T13:39:28Z</time>
      </trkpt>
      <trkpt lat="43.52737" lon="5.51677">
        <ele>321.1</ele>
        <time>2023-05-28T13:39:29Z</time>
      </trkpt>
      <trkpt lat="43.52738" lon="5.51676">
        <ele>321</ele>
        <time>2023-05-28T13:39:30Z</time>
      </trkpt>
      <trkpt lat="43.52738" lon="5.51674">
        <ele>320.9</ele>
        <time>2023-05-28T13:39:31Z</time>
      </trkpt>
      <trkpt lat="43.52738" lon="5.51672">
        <ele>320.8</ele>
        <time>2023-05-28T13:39:32Z</time>
      </trkpt>
      <trkpt lat="43.52738" lon="5.5167">
        <ele>320.7</ele>
        <time>2023-05-28T13:39:33Z</time>
      </trkpt>
      <trkpt lat="43.52738" lon="5.51668">
        <ele>320.6</ele>
        <time>2023-05-28T13:39:34Z</time>
      </trkpt>
      <trkpt lat="43.52739" lon="5.51667">
        <ele>320.5</ele>
        <time>2023-05-28T13:39:35Z</time>
      </trkpt>
      <trkpt lat="43.52739" lon="5.51665">
        <ele>320.4</ele>
        <time>2023-05-28T13:39:36Z</time>
      </trkpt>
      <trkpt lat="43.52739" lon="5.51663">
        <ele>320.2</ele>
        <time>2023-05-28T13:39:37Z</time>
      </trkpt>
      <trkpt lat="43.52739" lon="5.51661">
        <ele>320</ele>
        <time>2023-05-28T13:39:38Z</time>
      </trkpt>
      <trkpt lat="43.52739" lon="5.51659">
        <ele>319.8</ele>
        <time>2023-05-28T13:39:39Z</time>
      </trkpt>
      <trkpt lat="43.52739" lon="5.51657">
        <ele>319.6</ele>
        <time>2023-05-28T13:39:40Z</time>
      </trkpt>
      <trkpt lat="43.5274" lon="5.51656">
        <ele>319.5</ele>
        <time>2023-05-28T13:39:41Z</time>
      </trkpt>
      <trkpt lat="43.5274" lon="5.51654">
        <ele>319.2</ele>
        <time>2023-05-28T13:39:42Z</time>
      </trkpt>
      <trkpt lat="43.5274" lon="5.51653">
        <ele>319</ele>
        <time>2023-05-28T13:39:43Z</time>
      </trkpt>
      <trkpt lat="43.52741" lon="5.51651">
        <ele>318.9</ele>
        <time>2023-05-28T13:39:44Z</time>
      </trkpt>
      <trkpt lat="43.5274" lon="5.51649">
        <ele>318.7</ele>
        <time>2023-05-28T13:39:45Z</time>
      </trkpt>
      <trkpt lat="43.52741" lon="5.51647">
        <ele>318.5</ele>
        <time>2023-05-28T13:39:46Z</time>
      </trkpt>
      <trkpt lat="43.52741" lon="5.51645">
        <ele>318.4</ele>
        <time>2023-05-28T13:39:47Z</time>
      </trkpt>
      <trkpt lat="43.5274" lon="5.51643">
        <ele>318.2</ele>
        <time>2023-05-28T13:39:48Z</time>
      </trkpt>
      <trkpt lat="43.5274" lon="5.51642">
        <ele>318.1</ele>
        <time>2023-05-28T13:39:49Z</time>
      </trkpt>
      <trkpt lat="43.5274" lon="5.51641">
        <ele>317.9</ele>
        <time>2023-05-28T13:39:50Z</time>
      </trkpt>
      <trkpt lat="43.5274" lon="5.51639">
        <ele>317.7</ele>
        <time>2023-05-28T13:39:51Z</time>
      </trkpt>
      <trkpt lat="43.5274" lon="5.51637">
        <ele>317.5</ele>
        <time>2023-05-28T13:39:52Z</time>
      </trkpt>
      <trkpt lat="43.5274" lon="5.51636">
        <ele>317.3</ele>
        <time>2023-05-28T13:39:53Z</time>
      </trkpt>
      <trkpt lat="43.52739" lon="5.51634">
        <ele>317</ele>
        <time>2023-05-28T13:39:54Z</time>
      </trkpt>
      <trkpt lat="43.52739" lon="5.51633">
        <ele>316.8</ele>
        <time>2023-05-28T13:39:55Z</time>
      </trkpt>
      <trkpt lat="43.52739" lon="5.51631">
        <ele>316.7</ele>
        <time>2023-05-28T13:39:56Z</time>
      </trkpt>
      <trkpt lat="43.52739" lon="5.51629">
        <ele>316.5</ele>
        <time>2023-05-28T13:39:57Z</time>
      </trkpt>
      <trkpt lat="43.52738" lon="5.51627">
        <ele>316.3</ele>
        <time>2023-05-28T13:39:58Z</time>
      </trkpt>
      <trkpt lat="43.52738" lon="5.51624">
        <ele>316.1</ele>
        <time>2023-05-28T13:39:59Z</time>
      </trkpt>
      <trkpt lat="43.52737" lon="5.51622">
        <ele>315.9</ele>
        <time>2023-05-28T13:40:00Z</time>
      </trkpt>
      <trkpt lat="43.52737" lon="5.5162">
        <ele>315.8</ele>
        <time>2023-05-28T13:40:01Z</time>
      </trkpt>
      <trkpt lat="43.52738" lon="5.51619">
        <ele>315.8</ele>
        <time>2023-05-28T13:40:02Z</time>
      </trkpt>
      <trkpt lat="43.52738" lon="5.51617">
        <ele>315.7</ele>
        <time>2023-05-28T13:40:03Z</time>
      </trkpt>
      <trkpt lat="43.52738" lon="5.51615">
        <ele>315.5</ele>
        <time>2023-05-28T13:40:04Z</time>
      </trkpt>
      <trkpt lat="43.52738" lon="5.51614">
        <ele>315.3</ele>
        <time>2023-05-28T13:40:05Z</time>
      </trkpt>
      <trkpt lat="43.52737" lon="5.51611">
        <ele>315.2</ele>
        <time>2023-05-28T13:40:06Z</time>
      </trkpt>
      <trkpt lat="43.52737" lon="5.51609">
        <ele>315</ele>
        <time>2023-05-28T13:40:07Z</time>
      </trkpt>
      <trkpt lat="43.52737" lon="5.51607">
        <ele>314.9</ele>
        <time>2023-05-28T13:40:08Z</time>
      </trkpt>
      <trkpt lat="43.52737" lon="5.51604">
        <ele>314.9</ele>
        <time>2023-05-28T13:40:09Z</time>
      </trkpt>
      <trkpt lat="43.52737" lon="5.51603">
        <ele>314.8</ele>
        <time>2023-05-28T13:40:10Z</time>
      </trkpt>
      <trkpt lat="43.52737" lon="5.51602">
        <ele>314.6</ele>
        <time>2023-05-28T13:40:11Z</time>
      </trkpt>
      <trkpt lat="43.52737" lon="5.516">
        <ele>314.4</ele>
        <time>2023-05-28T13:40:12Z</time>
      </trkpt>
      <trkpt lat="43.52737" lon="5.51599">
        <ele>314.3</ele>
        <time>2023-05-28T13:40:13Z</time>
      </trkpt>
      <trkpt lat="43.52737" lon="5.51597">
        <ele>314.2</ele>
        <time>2023-05-28T13:40:14Z</time>
      </trkpt>
      <trkpt lat="43.52737" lon="5.51595">
        <ele>314</ele>
        <time>2023-05-28T13:40:15Z</time>
      </trkpt>
      <trkpt lat="43.52737" lon="5.51594">
        <ele>313.9</ele>
        <time>2023-05-28T13:40:16Z</time>
      </trkpt>
      <trkpt lat="43.52737" lon="5.51592">
        <ele>313.7</ele>
        <time>2023-05-28T13:40:17Z</time>
      </trkpt>
      <trkpt lat="43.52737" lon="5.5159">
        <ele>313.6</ele>
        <time>2023-05-28T13:40:18Z</time>
      </trkpt>
      <trkpt lat="43.52737" lon="5.51588">
        <ele>313.4</ele>
        <time>2023-05-28T13:40:19Z</time>
      </trkpt>
      <trkpt lat="43.52737" lon="5.51586">
        <ele>313.3</ele>
        <time>2023-05-28T13:40:20Z</time>
      </trkpt>
      <trkpt lat="43.52738" lon="5.51585">
        <ele>313.1</ele>
        <time>2023-05-28T13:40:21Z</time>
      </trkpt>
      <trkpt lat="43.52738" lon="5.51583">
        <ele>312.9</ele>
        <time>2023-05-28T13:40:22Z</time>
      </trkpt>
      <trkpt lat="43.52738" lon="5.51582">
        <ele>312.8</ele>
        <time>2023-05-28T13:40:23Z</time>
      </trkpt>
      <trkpt lat="43.52738" lon="5.5158">
        <ele>312.6</ele>
        <time>2023-05-28T13:40:24Z</time>
      </trkpt>
      <trkpt lat="43.52739" lon="5.51579">
        <ele>312.5</ele>
        <time>2023-05-28T13:40:25Z</time>
      </trkpt>
      <trkpt lat="43.52739" lon="5.51577">
        <ele>312.3</ele>
        <time>2023-05-28T13:40:26Z</time>
      </trkpt>
      <trkpt lat="43.52739" lon="5.51575">
        <ele>312.2</ele>
        <time>2023-05-28T13:40:27Z</time>
      </trkpt>
      <trkpt lat="43.52739" lon="5.51574">
        <ele>312.1</ele>
        <time>2023-05-28T13:40:28Z</time>
      </trkpt>
      <trkpt lat="43.52739" lon="5.51571">
        <ele>311.9</ele>
        <time>2023-05-28T13:40:29Z</time>
      </trkpt>
      <trkpt lat="43.52739" lon="5.5157">
        <ele>311.8</ele>
        <time>2023-05-28T13:40:30Z</time>
      </trkpt>
      <trkpt lat="43.52739" lon="5.51568">
        <ele>311.7</ele>
        <time>2023-05-28T13:40:31Z</time>
      </trkpt>
      <trkpt lat="43.52739" lon="5.51566">
        <ele>311.6</ele>
        <time>2023-05-28T13:40:32Z</time>
      </trkpt>
      <trkpt lat="43.52738" lon="5.51565">
        <ele>311.5</ele>
        <time>2023-05-28T13:40:33Z</time>
      </trkpt>
      <trkpt lat="43.52739" lon="5.51564">
        <ele>311.4</ele>
        <time>2023-05-28T13:40:34Z</time>
      </trkpt>
      <trkpt lat="43.52738" lon="5.51563">
        <ele>311.3</ele>
        <time>2023-05-28T13:40:35Z</time>
      </trkpt>
      <trkpt lat="43.52738" lon="5.51562">
        <ele>311.2</ele>
        <time>2023-05-28T13:40:36Z</time>
      </trkpt>
      <trkpt lat="43.52737" lon="5.5156">
        <ele>311.1</ele>
        <time>2023-05-28T13:40:37Z</time>
      </trkpt>
      <trkpt lat="43.52737" lon="5.51558">
        <ele>311.1</ele>
        <time>2023-05-28T13:40:38Z</time>
      </trkpt>
      <trkpt lat="43.52737" lon="5.51556">
        <ele>310.9</ele>
        <time>2023-05-28T13:40:39Z</time>
      </trkpt>
      <trkpt lat="43.52737" lon="5.51555">
        <ele>310.8</ele>
        <time>2023-05-28T13:40:40Z</time>
      </trkpt>
      <trkpt lat="43.52737" lon="5.51553">
        <ele>310.5</ele>
        <time>2023-05-28T13:40:41Z</time>
      </trkpt>
      <trkpt lat="43.52737" lon="5.51551">
        <ele>310.3</ele>
        <time>2023-05-28T13:40:42Z</time>
      </trkpt>
      <trkpt lat="43.52737" lon="5.51549">
        <ele>310.1</ele>
        <time>2023-05-28T13:40:43Z</time>
      </trkpt>
      <trkpt lat="43.52737" lon="5.51547">
        <ele>309.9</ele>
        <time>2023-05-28T13:40:44Z</time>
      </trkpt>
      <trkpt lat="43.52737" lon="5.51544">
        <ele>309.7</ele>
        <time>2023-05-28T13:40:45Z</time>
      </trkpt>
      <trkpt lat="43.52737" lon="5.51542">
        <ele>309.5</ele>
        <time>2023-05-28T13:40:46Z</time>
      </trkpt>
      <trkpt lat="43.52738" lon="5.5154">
        <ele>309.4</ele>
        <time>2023-05-28T13:40:47Z</time>
      </trkpt>
      <trkpt lat="43.52738" lon="5.51538">
        <ele>309.3</ele>
        <time>2023-05-28T13:40:48Z</time>
      </trkpt>
      <trkpt lat="43.52737" lon="5.51536">
        <ele>309.1</ele>
        <time>2023-05-28T13:40:49Z</time>
      </trkpt>
      <trkpt lat="43.52737" lon="5.51534">
        <ele>309</ele>
        <time>2023-05-28T13:40:50Z</time>
      </trkpt>
      <trkpt lat="43.52737" lon="5.51532">
        <ele>308.8</ele>
        <time>2023-05-28T13:40:51Z</time>
      </trkpt>
      <trkpt lat="43.52737" lon="5.5153">
        <ele>308.6</ele>
        <time>2023-05-28T13:40:52Z</time>
      </trkpt>
      <trkpt lat="43.52737" lon="5.51529">
        <ele>308.5</ele>
        <time>2023-05-28T13:40:53Z</time>
      </trkpt>
      <trkpt lat="43.52737" lon="5.51527">
        <ele>308.2</ele>
        <time>2023-05-28T13:40:54Z</time>
      </trkpt>
      <trkpt lat="43.52736" lon="5.51525">
        <ele>307.9</ele>
        <time>2023-05-28T13:40:55Z</time>
      </trkpt>
      <trkpt lat="43.52736" lon="5.51523">
        <ele>307.7</ele>
        <time>2023-05-28T13:40:56Z</time>
      </trkpt>
      <trkpt lat="43.52735" lon="5.51521">
        <ele>307.5</ele>
        <time>2023-05-28T13:40:57Z</time>
      </trkpt>
      <trkpt lat="43.52736" lon="5.51519">
        <ele>307.3</ele>
        <time>2023-05-28T13:40:58Z</time>
      </trkpt>
      <trkpt lat="43.52736" lon="5.51518">
        <ele>307</ele>
        <time>2023-05-28T13:40:59Z</time>
      </trkpt>
      <trkpt lat="43.52737" lon="5.51516">
        <ele>306.8</ele>
        <time>2023-05-28T13:41:00Z</time>
      </trkpt>
      <trkpt lat="43.52737" lon="5.51514">
        <ele>306.6</ele>
        <time>2023-05-28T13:41:01Z</time>
      </trkpt>
      <trkpt lat="43.52737" lon="5.51512">
        <ele>306.4</ele>
        <time>2023-05-28T13:41:02Z</time>
      </trkpt>
      <trkpt lat="43.52737" lon="5.5151">
        <ele>306.2</ele>
        <time>2023-05-28T13:41:03Z</time>
      </trkpt>
      <trkpt lat="43.52737" lon="5.51508">
        <ele>306.1</ele>
        <time>2023-05-28T13:41:04Z</time>
      </trkpt>
      <trkpt lat="43.52738" lon="5.51506">
        <ele>306</ele>
        <time>2023-05-28T13:41:05Z</time>
      </trkpt>
      <trkpt lat="43.52738" lon="5.51504">
        <ele>305.9</ele>
        <time>2023-05-28T13:41:06Z</time>
      </trkpt>
      <trkpt lat="43.52738" lon="5.51503">
        <ele>305.7</ele>
        <time>2023-05-28T13:41:07Z</time>
      </trkpt>
      <trkpt lat="43.52739" lon="5.51501">
        <ele>305.5</ele>
        <time>2023-05-28T13:41:08Z</time>
      </trkpt>
      <trkpt lat="43.52739" lon="5.515">
        <ele>305.3</ele>
        <time>2023-05-28T13:41:09Z</time>
      </trkpt>
      <trkpt lat="43.52739" lon="5.51498">
        <ele>305</ele>
        <time>2023-05-28T13:41:10Z</time>
      </trkpt>
      <trkpt lat="43.52739" lon="5.51496">
        <ele>304.8</ele>
        <time>2023-05-28T13:41:11Z</time>
      </trkpt>
      <trkpt lat="43.52739" lon="5.51494">
        <ele>304.6</ele>
        <time>2023-05-28T13:41:12Z</time>
      </trkpt>
      <trkpt lat="43.5274" lon="5.51493">
        <ele>304.4</ele>
        <time>2023-05-28T13:41:13Z</time>
      </trkpt>
      <trkpt lat="43.52741" lon="5.51492">
        <ele>304.2</ele>
        <time>2023-05-28T13:41:14Z</time>
      </trkpt>
      <trkpt lat="43.52741" lon="5.5149">
        <ele>304</ele>
        <time>2023-05-28T13:41:15Z</time>
      </trkpt>
      <trkpt lat="43.52742" lon="5.51489">
        <ele>303.7</ele>
        <time>2023-05-28T13:41:16Z</time>
      </trkpt>
      <trkpt lat="43.52743" lon="5.51488">
        <ele>303.5</ele>
        <time>2023-05-28T13:41:17Z</time>
      </trkpt>
      <trkpt lat="43.52743" lon="5.51487">
        <ele>303.3</ele>
        <time>2023-05-28T13:41:18Z</time>
      </trkpt>
      <trkpt lat="43.52745" lon="5.51486">
        <ele>303.1</ele>
        <time>2023-05-28T13:41:19Z</time>
      </trkpt>
      <trkpt lat="43.52745" lon="5.51485">
        <ele>302.9</ele>
        <time>2023-05-28T13:41:20Z</time>
      </trkpt>
      <trkpt lat="43.52747" lon="5.51485">
        <ele>302.7</ele>
        <time>2023-05-28T13:41:21Z</time>
      </trkpt>
      <trkpt lat="43.52747" lon="5.51484">
        <ele>302.5</ele>
        <time>2023-05-28T13:41:22Z</time>
      </trkpt>
      <trkpt lat="43.52748" lon="5.51484">
        <ele>302.3</ele>
        <time>2023-05-28T13:41:23Z</time>
      </trkpt>
      <trkpt lat="43.52749" lon="5.51483">
        <ele>302.1</ele>
        <time>2023-05-28T13:41:24Z</time>
      </trkpt>
      <trkpt lat="43.5275" lon="5.51483">
        <ele>302</ele>
        <time>2023-05-28T13:41:25Z</time>
      </trkpt>
      <trkpt lat="43.52752" lon="5.51482">
        <ele>301.9</ele>
        <time>2023-05-28T13:41:26Z</time>
      </trkpt>
      <trkpt lat="43.52753" lon="5.51481">
        <ele>301.8</ele>
        <time>2023-05-28T13:41:27Z</time>
      </trkpt>
      <trkpt lat="43.52755" lon="5.51481">
        <ele>301.6</ele>
        <time>2023-05-28T13:41:28Z</time>
      </trkpt>
      <trkpt lat="43.52756" lon="5.51481">
        <ele>301.5</ele>
        <time>2023-05-28T13:41:29Z</time>
      </trkpt>
      <trkpt lat="43.52757" lon="5.5148">
        <ele>301.4</ele>
        <time>2023-05-28T13:41:30Z</time>
      </trkpt>
      <trkpt lat="43.52758" lon="5.5148">
        <ele>301.3</ele>
        <time>2023-05-28T13:41:31Z</time>
      </trkpt>
      <trkpt lat="43.52759" lon="5.51479">
        <ele>301.2</ele>
        <time>2023-05-28T13:41:32Z</time>
      </trkpt>
      <trkpt lat="43.5276" lon="5.51477">
        <ele>301</ele>
        <time>2023-05-28T13:41:33Z</time>
      </trkpt>
      <trkpt lat="43.5276" lon="5.51476">
        <ele>300.9</ele>
        <time>2023-05-28T13:41:34Z</time>
      </trkpt>
      <trkpt lat="43.52761" lon="5.51475">
        <ele>300.7</ele>
        <time>2023-05-28T13:41:35Z</time>
      </trkpt>
      <trkpt lat="43.52763" lon="5.51474">
        <ele>300.6</ele>
        <time>2023-05-28T13:41:36Z</time>
      </trkpt>
      <trkpt lat="43.52764" lon="5.51473">
        <ele>300.4</ele>
        <time>2023-05-28T13:41:37Z</time>
      </trkpt>
      <trkpt lat="43.52765" lon="5.51472">
        <ele>300.2</ele>
        <time>2023-05-28T13:41:38Z</time>
      </trkpt>
      <trkpt lat="43.52766" lon="5.5147">
        <ele>300.1</ele>
        <time>2023-05-28T13:41:39Z</time>
      </trkpt>
      <trkpt lat="43.52767" lon="5.51469">
        <ele>300</ele>
        <time>2023-05-28T13:41:40Z</time>
      </trkpt>
      <trkpt lat="43.52769" lon="5.51469">
        <ele>299.9</ele>
        <time>2023-05-28T13:41:41Z</time>
      </trkpt>
      <trkpt lat="43.5277" lon="5.51468">
        <ele>299.7</ele>
        <time>2023-05-28T13:41:42Z</time>
      </trkpt>
      <trkpt lat="43.52771" lon="5.51468">
        <ele>299.6</ele>
        <time>2023-05-28T13:41:43Z</time>
      </trkpt>
      <trkpt lat="43.52772" lon="5.51468">
        <ele>299.5</ele>
        <time>2023-05-28T13:41:44Z</time>
      </trkpt>
      <trkpt lat="43.52774" lon="5.51467">
        <ele>299.4</ele>
        <time>2023-05-28T13:41:45Z</time>
      </trkpt>
      <trkpt lat="43.52775" lon="5.51467">
        <ele>299.2</ele>
        <time>2023-05-28T13:41:46Z</time>
      </trkpt>
      <trkpt lat="43.52776" lon="5.51467">
        <ele>299.1</ele>
        <time>2023-05-28T13:41:47Z</time>
      </trkpt>
      <trkpt lat="43.52777" lon="5.51466">
        <ele>299</ele>
        <time>2023-05-28T13:41:48Z</time>
      </trkpt>
      <trkpt lat="43.52779" lon="5.51466">
        <ele>298.8</ele>
        <time>2023-05-28T13:41:49Z</time>
      </trkpt>
      <trkpt lat="43.5278" lon="5.51465">
        <ele>298.7</ele>
        <time>2023-05-28T13:41:50Z</time>
      </trkpt>
      <trkpt lat="43.52781" lon="5.51464">
        <ele>298.5</ele>
        <time>2023-05-28T13:41:51Z</time>
      </trkpt>
      <trkpt lat="43.52782" lon="5.51463">
        <ele>298.3</ele>
        <time>2023-05-28T13:41:52Z</time>
      </trkpt>
      <trkpt lat="43.52783" lon="5.51463">
        <ele>298.2</ele>
        <time>2023-05-28T13:41:53Z</time>
      </trkpt>
      <trkpt lat="43.52784" lon="5.51462">
        <ele>298.1</ele>
        <time>2023-05-28T13:41:54Z</time>
      </trkpt>
      <trkpt lat="43.52786" lon="5.51462">
        <ele>298</ele>
        <time>2023-05-28T13:41:55Z</time>
      </trkpt>
      <trkpt lat="43.52787" lon="5.51461">
        <ele>297.9</ele>
        <time>2023-05-28T13:41:56Z</time>
      </trkpt>
      <trkpt lat="43.52788" lon="5.51461">
        <ele>297.7</ele>
        <time>2023-05-28T13:41:57Z</time>
      </trkpt>
      <trkpt lat="43.52789" lon="5.5146">
        <ele>297.5</ele>
        <time>2023-05-28T13:41:58Z</time>
      </trkpt>
      <trkpt lat="43.5279" lon="5.5146">
        <ele>297.4</ele>
        <time>2023-05-28T13:41:59Z</time>
      </trkpt>
      <trkpt lat="43.52791" lon="5.51459">
        <ele>297.1</ele>
        <time>2023-05-28T13:42:00Z</time>
      </trkpt>
      <trkpt lat="43.52792" lon="5.51459">
        <ele>297</ele>
        <time>2023-05-28T13:42:01Z</time>
      </trkpt>
      <trkpt lat="43.52794" lon="5.51457">
        <ele>296.8</ele>
        <time>2023-05-28T13:42:02Z</time>
      </trkpt>
      <trkpt lat="43.52795" lon="5.51456">
        <ele>296.5</ele>
        <time>2023-05-28T13:42:03Z</time>
      </trkpt>
      <trkpt lat="43.52796" lon="5.51456">
        <ele>296.5</ele>
        <time>2023-05-28T13:42:04Z</time>
      </trkpt>
      <trkpt lat="43.52798" lon="5.51456">
        <ele>296.4</ele>
        <time>2023-05-28T13:42:05Z</time>
      </trkpt>
      <trkpt lat="43.52799" lon="5.51455">
        <ele>296.2</ele>
        <time>2023-05-28T13:42:06Z</time>
      </trkpt>
      <trkpt lat="43.528" lon="5.51454">
        <ele>296.1</ele>
        <time>2023-05-28T13:42:07Z</time>
      </trkpt>
      <trkpt lat="43.52801" lon="5.51453">
        <ele>295.9</ele>
        <time>2023-05-28T13:42:08Z</time>
      </trkpt>
      <trkpt lat="43.52802" lon="5.51453">
        <ele>295.8</ele>
        <time>2023-05-28T13:42:09Z</time>
      </trkpt>
      <trkpt lat="43.52803" lon="5.51453">
        <ele>295.7</ele>
        <time>2023-05-28T13:42:10Z</time>
      </trkpt>
      <trkpt lat="43.52805" lon="5.51453">
        <ele>295.6</ele>
        <time>2023-05-28T13:42:11Z</time>
      </trkpt>
      <trkpt lat="43.52806" lon="5.51453">
        <ele>295.4</ele>
        <time>2023-05-28T13:42:12Z</time>
      </trkpt>
      <trkpt lat="43.52807" lon="5.51452">
        <ele>295.3</ele>
        <time>2023-05-28T13:42:13Z</time>
      </trkpt>
      <trkpt lat="43.52808" lon="5.51451">
        <ele>295.1</ele>
        <time>2023-05-28T13:42:14Z</time>
      </trkpt>
      <trkpt lat="43.52809" lon="5.5145">
        <ele>295</ele>
        <time>2023-05-28T13:42:15Z</time>
      </trkpt>
      <trkpt lat="43.5281" lon="5.5145">
        <ele>294.9</ele>
        <time>2023-05-28T13:42:16Z</time>
      </trkpt>
      <trkpt lat="43.52811" lon="5.5145">
        <ele>294.9</ele>
        <time>2023-05-28T13:42:17Z</time>
      </trkpt>
      <trkpt lat="43.52812" lon="5.5145">
        <ele>294.8</ele>
        <time>2023-05-28T13:42:18Z</time>
      </trkpt>
      <trkpt lat="43.52812" lon="5.51449">
        <ele>294.7</ele>
        <time>2023-05-28T13:42:19Z</time>
      </trkpt>
      <trkpt lat="43.52814" lon="5.51449">
        <ele>294.6</ele>
        <time>2023-05-28T13:42:20Z</time>
      </trkpt>
      <trkpt lat="43.52815" lon="5.51449">
        <ele>294.4</ele>
        <time>2023-05-28T13:42:21Z</time>
      </trkpt>
      <trkpt lat="43.52817" lon="5.5145">
        <ele>294.2</ele>
        <time>2023-05-28T13:42:22Z</time>
      </trkpt>
      <trkpt lat="43.52819" lon="5.51449">
        <ele>294.1</ele>
        <time>2023-05-28T13:42:23Z</time>
      </trkpt>
      <trkpt lat="43.5282" lon="5.51449">
        <ele>294</ele>
        <time>2023-05-28T13:42:24Z</time>
      </trkpt>
      <trkpt lat="43.52822" lon="5.51448">
        <ele>293.9</ele>
        <time>2023-05-28T13:42:25Z</time>
      </trkpt>
      <trkpt lat="43.52823" lon="5.51447">
        <ele>293.8</ele>
        <time>2023-05-28T13:42:26Z</time>
      </trkpt>
      <trkpt lat="43.52824" lon="5.51447">
        <ele>293.7</ele>
        <time>2023-05-28T13:42:27Z</time>
      </trkpt>
      <trkpt lat="43.52825" lon="5.51447">
        <ele>293.7</ele>
        <time>2023-05-28T13:42:28Z</time>
      </trkpt>
      <trkpt lat="43.52827" lon="5.51446">
        <ele>293.6</ele>
        <time>2023-05-28T13:42:29Z</time>
      </trkpt>
      <trkpt lat="43.52828" lon="5.51446">
        <ele>293.6</ele>
        <time>2023-05-28T13:42:30Z</time>
      </trkpt>
      <trkpt lat="43.52829" lon="5.51445">
        <ele>293.6</ele>
        <time>2023-05-28T13:42:31Z</time>
      </trkpt>
      <trkpt lat="43.52831" lon="5.51444">
        <ele>293.6</ele>
        <time>2023-05-28T13:42:32Z</time>
      </trkpt>
      <trkpt lat="43.52832" lon="5.51444">
        <ele>293.5</ele>
        <time>2023-05-28T13:42:33Z</time>
      </trkpt>
      <trkpt lat="43.52833" lon="5.51444">
        <ele>293.5</ele>
        <time>2023-05-28T13:42:34Z</time>
      </trkpt>
      <trkpt lat="43.52834" lon="5.51443">
        <ele>293.5</ele>
        <time>2023-05-28T13:42:35Z</time>
      </trkpt>
      <trkpt lat="43.52835" lon="5.51443">
        <ele>293.4</ele>
        <time>2023-05-28T13:42:36Z</time>
      </trkpt>
      <trkpt lat="43.52836" lon="5.51444">
        <ele>293.3</ele>
        <time>2023-05-28T13:42:37Z</time>
      </trkpt>
      <trkpt lat="43.52838" lon="5.51443">
        <ele>293.3</ele>
        <time>2023-05-28T13:42:38Z</time>
      </trkpt>
      <trkpt lat="43.52839" lon="5.51444">
        <ele>293.3</ele>
        <time>2023-05-28T13:42:39Z</time>
      </trkpt>
      <trkpt lat="43.5284" lon="5.51444">
        <ele>293.2</ele>
        <time>2023-05-28T13:42:40Z</time>
      </trkpt>
      <trkpt lat="43.52841" lon="5.51444">
        <ele>293.1</ele>
        <time>2023-05-28T13:42:41Z</time>
      </trkpt>
      <trkpt lat="43.52842" lon="5.51444">
        <ele>293.1</ele>
        <time>2023-05-28T13:42:42Z</time>
      </trkpt>
      <trkpt lat="43.52843" lon="5.51445">
        <ele>293</ele>
        <time>2023-05-28T13:42:43Z</time>
      </trkpt>
      <trkpt lat="43.52844" lon="5.51445">
        <ele>292.9</ele>
        <time>2023-05-28T13:42:44Z</time>
      </trkpt>
      <trkpt lat="43.52845" lon="5.51445">
        <ele>292.9</ele>
        <time>2023-05-28T13:42:45Z</time>
      </trkpt>
      <trkpt lat="43.52846" lon="5.51446">
        <ele>292.8</ele>
        <time>2023-05-28T13:42:46Z</time>
      </trkpt>
      <trkpt lat="43.52847" lon="5.51447">
        <ele>292.8</ele>
        <time>2023-05-28T13:42:47Z</time>
      </trkpt>
      <trkpt lat="43.52849" lon="5.51447">
        <ele>292.6</ele>
        <time>2023-05-28T13:42:48Z</time>
      </trkpt>
      <trkpt lat="43.5285" lon="5.51448">
        <ele>292.5</ele>
        <time>2023-05-28T13:42:49Z</time>
      </trkpt>
      <trkpt lat="43.52851" lon="5.51447">
        <ele>292.4</ele>
        <time>2023-05-28T13:42:50Z</time>
      </trkpt>
      <trkpt lat="43.52852" lon="5.51448">
        <ele>292.4</ele>
        <time>2023-05-28T13:42:51Z</time>
      </trkpt>
      <trkpt lat="43.52854" lon="5.51447">
        <ele>292.4</ele>
        <time>2023-05-28T13:42:52Z</time>
      </trkpt>
      <trkpt lat="43.52855" lon="5.51447">
        <ele>292.2</ele>
        <time>2023-05-28T13:42:53Z</time>
      </trkpt>
      <trkpt lat="43.52856" lon="5.51447">
        <ele>292.1</ele>
        <time>2023-05-28T13:42:54Z</time>
      </trkpt>
      <trkpt lat="43.52856" lon="5.51447">
        <ele>292</ele>
        <time>2023-05-28T13:42:55Z</time>
      </trkpt>
      <trkpt lat="43.52857" lon="5.51446">
        <ele>291.9</ele>
        <time>2023-05-28T13:42:56Z</time>
      </trkpt>
      <trkpt lat="43.52859" lon="5.51445">
        <ele>291.7</ele>
        <time>2023-05-28T13:42:57Z</time>
      </trkpt>
      <trkpt lat="43.5286" lon="5.51445">
        <ele>291.5</ele>
        <time>2023-05-28T13:42:58Z</time>
      </trkpt>
      <trkpt lat="43.52861" lon="5.51445">
        <ele>291.4</ele>
        <time>2023-05-28T13:42:59Z</time>
      </trkpt>
      <trkpt lat="43.52862" lon="5.51444">
        <ele>291.2</ele>
        <time>2023-05-28T13:43:00Z</time>
      </trkpt>
      <trkpt lat="43.52863" lon="5.51443">
        <ele>291</ele>
        <time>2023-05-28T13:43:01Z</time>
      </trkpt>
      <trkpt lat="43.52864" lon="5.51443">
        <ele>290.8</ele>
        <time>2023-05-28T13:43:02Z</time>
      </trkpt>
      <trkpt lat="43.52865" lon="5.51442">
        <ele>290.6</ele>
        <time>2023-05-28T13:43:03Z</time>
      </trkpt>
      <trkpt lat="43.52866" lon="5.51442">
        <ele>290.5</ele>
        <time>2023-05-28T13:43:04Z</time>
      </trkpt>
      <trkpt lat="43.52867" lon="5.51441">
        <ele>290.3</ele>
        <time>2023-05-28T13:43:05Z</time>
      </trkpt>
      <trkpt lat="43.52869" lon="5.51441">
        <ele>290.2</ele>
        <time>2023-05-28T13:43:06Z</time>
      </trkpt>
      <trkpt lat="43.5287" lon="5.5144">
        <ele>290</ele>
        <time>2023-05-28T13:43:07Z</time>
      </trkpt>
      <trkpt lat="43.52871" lon="5.5144">
        <ele>289.8</ele>
        <time>2023-05-28T13:43:08Z</time>
      </trkpt>
      <trkpt lat="43.52872" lon="5.51439">
        <ele>289.7</ele>
        <time>2023-05-28T13:43:09Z</time>
      </trkpt>
      <trkpt lat="43.52873" lon="5.51439">
        <ele>289.6</ele>
        <time>2023-05-28T13:43:10Z</time>
      </trkpt>
      <trkpt lat="43.52874" lon="5.51438">
        <ele>289.5</ele>
        <time>2023-05-28T13:43:11Z</time>
      </trkpt>
      <trkpt lat="43.52875" lon="5.51437">
        <ele>289.4</ele>
        <time>2023-05-28T13:43:12Z</time>
      </trkpt>
      <trkpt lat="43.52876" lon="5.51436">
        <ele>289.4</ele>
        <time>2023-05-28T13:43:13Z</time>
      </trkpt>
      <trkpt lat="43.52877" lon="5.51434">
        <ele>289.3</ele>
        <time>2023-05-28T13:43:14Z</time>
      </trkpt>
      <trkpt lat="43.52878" lon="5.51433">
        <ele>289.1</ele>
        <time>2023-05-28T13:43:15Z</time>
      </trkpt>
      <trkpt lat="43.52879" lon="5.51431">
        <ele>289</ele>
        <time>2023-05-28T13:43:16Z</time>
      </trkpt>
      <trkpt lat="43.52881" lon="5.51431">
        <ele>288.9</ele>
        <time>2023-05-28T13:43:17Z</time>
      </trkpt>
      <trkpt lat="43.52882" lon="5.5143">
        <ele>288.8</ele>
        <time>2023-05-28T13:43:18Z</time>
      </trkpt>
      <trkpt lat="43.52882" lon="5.51429">
        <ele>288.7</ele>
        <time>2023-05-28T13:43:19Z</time>
      </trkpt>
      <trkpt lat="43.52884" lon="5.51428">
        <ele>288.6</ele>
        <time>2023-05-28T13:43:20Z</time>
      </trkpt>
      <trkpt lat="43.52885" lon="5.51427">
        <ele>288.5</ele>
        <time>2023-05-28T13:43:21Z</time>
      </trkpt>
      <trkpt lat="43.52887" lon="5.51426">
        <ele>288.4</ele>
        <time>2023-05-28T13:43:22Z</time>
      </trkpt>
      <trkpt lat="43.52888" lon="5.51426">
        <ele>288.3</ele>
        <time>2023-05-28T13:43:23Z</time>
      </trkpt>
      <trkpt lat="43.52889" lon="5.51425">
        <ele>288.2</ele>
        <time>2023-05-28T13:43:24Z</time>
      </trkpt>
      <trkpt lat="43.5289" lon="5.51424">
        <ele>288</ele>
        <time>2023-05-28T13:43:25Z</time>
      </trkpt>
      <trkpt lat="43.52891" lon="5.51423">
        <ele>287.9</ele>
        <time>2023-05-28T13:43:26Z</time>
      </trkpt>
      <trkpt lat="43.52892" lon="5.51423">
        <ele>287.9</ele>
        <time>2023-05-28T13:43:27Z</time>
      </trkpt>
      <trkpt lat="43.52893" lon="5.51423">
        <ele>287.7</ele>
        <time>2023-05-28T13:43:28Z</time>
      </trkpt>
      <trkpt lat="43.52894" lon="5.51422">
        <ele>287.6</ele>
        <time>2023-05-28T13:43:29Z</time>
      </trkpt>
      <trkpt lat="43.52894" lon="5.51422">
        <ele>287.4</ele>
        <time>2023-05-28T13:43:30Z</time>
      </trkpt>
      <trkpt lat="43.52895" lon="5.51421">
        <ele>287.3</ele>
        <time>2023-05-28T13:43:31Z</time>
      </trkpt>
      <trkpt lat="43.52897" lon="5.51421">
        <ele>287</ele>
        <time>2023-05-28T13:43:32Z</time>
      </trkpt>
      <trkpt lat="43.52899" lon="5.51421">
        <ele>286.9</ele>
        <time>2023-05-28T13:43:33Z</time>
      </trkpt>
      <trkpt lat="43.529" lon="5.5142">
        <ele>286.7</ele>
        <time>2023-05-28T13:43:34Z</time>
      </trkpt>
      <trkpt lat="43.52901" lon="5.51419">
        <ele>286.5</ele>
        <time>2023-05-28T13:43:35Z</time>
      </trkpt>
      <trkpt lat="43.52902" lon="5.51418">
        <ele>286.3</ele>
        <time>2023-05-28T13:43:36Z</time>
      </trkpt>
      <trkpt lat="43.52903" lon="5.51418">
        <ele>286.2</ele>
        <time>2023-05-28T13:43:37Z</time>
      </trkpt>
      <trkpt lat="43.52904" lon="5.51418">
        <ele>286</ele>
        <time>2023-05-28T13:43:38Z</time>
      </trkpt>
      <trkpt lat="43.52905" lon="5.51416">
        <ele>285.7</ele>
        <time>2023-05-28T13:43:39Z</time>
      </trkpt>
      <trkpt lat="43.52906" lon="5.51416">
        <ele>285.5</ele>
        <time>2023-05-28T13:43:40Z</time>
      </trkpt>
      <trkpt lat="43.52907" lon="5.51415">
        <ele>285.3</ele>
        <time>2023-05-28T13:43:41Z</time>
      </trkpt>
      <trkpt lat="43.52908" lon="5.51415">
        <ele>285.2</ele>
        <time>2023-05-28T13:43:42Z</time>
      </trkpt>
      <trkpt lat="43.52909" lon="5.51415">
        <ele>284.9</ele>
        <time>2023-05-28T13:43:43Z</time>
      </trkpt>
      <trkpt lat="43.52911" lon="5.51415">
        <ele>284.7</ele>
        <time>2023-05-28T13:43:44Z</time>
      </trkpt>
      <trkpt lat="43.52911" lon="5.51415">
        <ele>284.5</ele>
        <time>2023-05-28T13:43:45Z</time>
      </trkpt>
      <trkpt lat="43.52913" lon="5.51415">
        <ele>284.4</ele>
        <time>2023-05-28T13:43:46Z</time>
      </trkpt>
      <trkpt lat="43.52914" lon="5.51415">
        <ele>284.2</ele>
        <time>2023-05-28T13:43:47Z</time>
      </trkpt>
      <trkpt lat="43.52915" lon="5.51415">
        <ele>284</ele>
        <time>2023-05-28T13:43:48Z</time>
      </trkpt>
      <trkpt lat="43.52916" lon="5.51414">
        <ele>283.9</ele>
        <time>2023-05-28T13:43:49Z</time>
      </trkpt>
      <trkpt lat="43.52918" lon="5.51414">
        <ele>283.7</ele>
        <time>2023-05-28T13:43:50Z</time>
      </trkpt>
      <trkpt lat="43.52919" lon="5.51414">
        <ele>283.6</ele>
        <time>2023-05-28T13:43:51Z</time>
      </trkpt>
      <trkpt lat="43.5292" lon="5.51413">
        <ele>283.4</ele>
        <time>2023-05-28T13:43:52Z</time>
      </trkpt>
      <trkpt lat="43.52921" lon="5.51412">
        <ele>283.4</ele>
        <time>2023-05-28T13:43:53Z</time>
      </trkpt>
      <trkpt lat="43.52923" lon="5.51412">
        <ele>283.2</ele>
        <time>2023-05-28T13:43:54Z</time>
      </trkpt>
      <trkpt lat="43.52924" lon="5.51412">
        <ele>283</ele>
        <time>2023-05-28T13:43:55Z</time>
      </trkpt>
      <trkpt lat="43.52926" lon="5.51411">
        <ele>282.9</ele>
        <time>2023-05-28T13:43:56Z</time>
      </trkpt>
      <trkpt lat="43.52927" lon="5.51411">
        <ele>282.8</ele>
        <time>2023-05-28T13:43:57Z</time>
      </trkpt>
      <trkpt lat="43.52928" lon="5.51411">
        <ele>282.6</ele>
        <time>2023-05-28T13:43:58Z</time>
      </trkpt>
      <trkpt lat="43.52929" lon="5.5141">
        <ele>282.4</ele>
        <time>2023-05-28T13:43:59Z</time>
      </trkpt>
      <trkpt lat="43.5293" lon="5.5141">
        <ele>282.3</ele>
        <time>2023-05-28T13:44:00Z</time>
      </trkpt>
      <trkpt lat="43.52931" lon="5.51409">
        <ele>282.2</ele>
        <time>2023-05-28T13:44:01Z</time>
      </trkpt>
      <trkpt lat="43.52932" lon="5.51408">
        <ele>282.1</ele>
        <time>2023-05-28T13:44:02Z</time>
      </trkpt>
      <trkpt lat="43.52933" lon="5.51407">
        <ele>282.1</ele>
        <time>2023-05-28T13:44:03Z</time>
      </trkpt>
      <trkpt lat="43.52934" lon="5.51407">
        <ele>282.1</ele>
        <time>2023-05-28T13:44:04Z</time>
      </trkpt>
      <trkpt lat="43.52935" lon="5.51407">
        <ele>282</ele>
        <time>2023-05-28T13:44:05Z</time>
      </trkpt>
      <trkpt lat="43.52935" lon="5.51407">
        <ele>282</ele>
        <time>2023-05-28T13:44:06Z</time>
      </trkpt>
      <trkpt lat="43.52937" lon="5.51407">
        <ele>281.9</ele>
        <time>2023-05-28T13:44:07Z</time>
      </trkpt>
      <trkpt lat="43.5294" lon="5.51407">
        <ele>281.7</ele>
        <time>2023-05-28T13:44:08Z</time>
      </trkpt>
      <trkpt lat="43.52942" lon="5.51405">
        <ele>281.7</ele>
        <time>2023-05-28T13:44:09Z</time>
      </trkpt>
      <trkpt lat="43.52943" lon="5.51405">
        <ele>281.6</ele>
        <time>2023-05-28T13:44:10Z</time>
      </trkpt>
      <trkpt lat="43.52943" lon="5.51404">
        <ele>281.6</ele>
        <time>2023-05-28T13:44:11Z</time>
      </trkpt>
      <trkpt lat="43.52944" lon="5.51404">
        <ele>281.5</ele>
        <time>2023-05-28T13:44:12Z</time>
      </trkpt>
      <trkpt lat="43.52945" lon="5.51405">
        <ele>281.3</ele>
        <time>2023-05-28T13:44:13Z</time>
      </trkpt>
      <trkpt lat="43.52946" lon="5.51405">
        <ele>281.2</ele>
        <time>2023-05-28T13:44:14Z</time>
      </trkpt>
      <trkpt lat="43.52948" lon="5.51405">
        <ele>281.1</ele>
        <time>2023-05-28T13:44:15Z</time>
      </trkpt>
      <trkpt lat="43.52949" lon="5.51405">
        <ele>280.9</ele>
        <time>2023-05-28T13:44:16Z</time>
      </trkpt>
      <trkpt lat="43.52951" lon="5.51405">
        <ele>280.7</ele>
        <time>2023-05-28T13:44:17Z</time>
      </trkpt>
      <trkpt lat="43.52952" lon="5.51405">
        <ele>280.5</ele>
        <time>2023-05-28T13:44:18Z</time>
      </trkpt>
      <trkpt lat="43.52954" lon="5.51405">
        <ele>280.4</ele>
        <time>2023-05-28T13:44:19Z</time>
      </trkpt>
      <trkpt lat="43.52955" lon="5.51404">
        <ele>280.3</ele>
        <time>2023-05-28T13:44:20Z</time>
      </trkpt>
      <trkpt lat="43.52957" lon="5.51404">
        <ele>280.2</ele>
        <time>2023-05-28T13:44:21Z</time>
      </trkpt>
      <trkpt lat="43.52958" lon="5.51404">
        <ele>280.1</ele>
        <time>2023-05-28T13:44:22Z</time>
      </trkpt>
      <trkpt lat="43.52959" lon="5.51403">
        <ele>280</ele>
        <time>2023-05-28T13:44:23Z</time>
      </trkpt>
      <trkpt lat="43.5296" lon="5.51403">
        <ele>279.9</ele>
        <time>2023-05-28T13:44:24Z</time>
      </trkpt>
      <trkpt lat="43.52961" lon="5.51402">
        <ele>279.8</ele>
        <time>2023-05-28T13:44:25Z</time>
      </trkpt>
      <trkpt lat="43.52962" lon="5.51402">
        <ele>279.7</ele>
        <time>2023-05-28T13:44:26Z</time>
      </trkpt>
      <trkpt lat="43.52963" lon="5.51402">
        <ele>279.6</ele>
        <time>2023-05-28T13:44:27Z</time>
      </trkpt>
      <trkpt lat="43.52964" lon="5.51401">
        <ele>279.4</ele>
        <time>2023-05-28T13:44:28Z</time>
      </trkpt>
      <trkpt lat="43.52966" lon="5.51401">
        <ele>279.3</ele>
        <time>2023-05-28T13:44:29Z</time>
      </trkpt>
      <trkpt lat="43.52967" lon="5.514">
        <ele>279.2</ele>
        <time>2023-05-28T13:44:30Z</time>
      </trkpt>
      <trkpt lat="43.52968" lon="5.514">
        <ele>279.2</ele>
        <time>2023-05-28T13:44:31Z</time>
      </trkpt>
      <trkpt lat="43.52969" lon="5.514">
        <ele>279.1</ele>
        <time>2023-05-28T13:44:32Z</time>
      </trkpt>
      <trkpt lat="43.5297" lon="5.51399">
        <ele>279.1</ele>
        <time>2023-05-28T13:44:33Z</time>
      </trkpt>
      <trkpt lat="43.52972" lon="5.51398">
        <ele>279.1</ele>
        <time>2023-05-28T13:44:34Z</time>
      </trkpt>
      <trkpt lat="43.52973" lon="5.51398">
        <ele>279.1</ele>
        <time>2023-05-28T13:44:35Z</time>
      </trkpt>
      <trkpt lat="43.52974" lon="5.51397">
        <ele>279</ele>
        <time>2023-05-28T13:44:36Z</time>
      </trkpt>
      <trkpt lat="43.52976" lon="5.51397">
        <ele>279</ele>
        <time>2023-05-28T13:44:37Z</time>
      </trkpt>
      <trkpt lat="43.52977" lon="5.51397">
        <ele>279</ele>
        <time>2023-05-28T13:44:38Z</time>
      </trkpt>
      <trkpt lat="43.52978" lon="5.51396">
        <ele>279</ele>
        <time>2023-05-28T13:44:39Z</time>
      </trkpt>
      <trkpt lat="43.5298" lon="5.51396">
        <ele>279</ele>
        <time>2023-05-28T13:44:40Z</time>
      </trkpt>
      <trkpt lat="43.52981" lon="5.51395">
        <ele>279.1</ele>
        <time>2023-05-28T13:44:41Z</time>
      </trkpt>
      <trkpt lat="43.52983" lon="5.51396">
        <ele>279.1</ele>
        <time>2023-05-28T13:44:42Z</time>
      </trkpt>
      <trkpt lat="43.52984" lon="5.51396">
        <ele>279.2</ele>
        <time>2023-05-28T13:44:43Z</time>
      </trkpt>
      <trkpt lat="43.52985" lon="5.51395">
        <ele>279.3</ele>
        <time>2023-05-28T13:44:44Z</time>
      </trkpt>
      <trkpt lat="43.52987" lon="5.51395">
        <ele>279.4</ele>
        <time>2023-05-28T13:44:45Z</time>
      </trkpt>
      <trkpt lat="43.52988" lon="5.51395">
        <ele>279.5</ele>
        <time>2023-05-28T13:44:46Z</time>
      </trkpt>
      <trkpt lat="43.52989" lon="5.51394">
        <ele>279.6</ele>
        <time>2023-05-28T13:44:47Z</time>
      </trkpt>
      <trkpt lat="43.5299" lon="5.51394">
        <ele>279.7</ele>
        <time>2023-05-28T13:44:48Z</time>
      </trkpt>
      <trkpt lat="43.52991" lon="5.51393">
        <ele>279.9</ele>
        <time>2023-05-28T13:44:49Z</time>
      </trkpt>
      <trkpt lat="43.52993" lon="5.51394">
        <ele>280</ele>
        <time>2023-05-28T13:44:50Z</time>
      </trkpt>
      <trkpt lat="43.52994" lon="5.51393">
        <ele>280.1</ele>
        <time>2023-05-28T13:44:51Z</time>
      </trkpt>
      <trkpt lat="43.52995" lon="5.51393">
        <ele>280.2</ele>
        <time>2023-05-28T13:44:52Z</time>
      </trkpt>
      <trkpt lat="43.52996" lon="5.51393">
        <ele>280.3</ele>
        <time>2023-05-28T13:44:53Z</time>
      </trkpt>
      <trkpt lat="43.52998" lon="5.51392">
        <ele>280.5</ele>
        <time>2023-05-28T13:44:54Z</time>
      </trkpt>
      <trkpt lat="43.52999" lon="5.51391">
        <ele>280.5</ele>
        <time>2023-05-28T13:44:55Z</time>
      </trkpt>
      <trkpt lat="43.53" lon="5.51391">
        <ele>280.7</ele>
        <time>2023-05-28T13:44:56Z</time>
      </trkpt>
      <trkpt lat="43.53002" lon="5.51391">
        <ele>280.7</ele>
        <time>2023-05-28T13:44:57Z</time>
      </trkpt>
      <trkpt lat="43.53003" lon="5.51391">
        <ele>280.9</ele>
        <time>2023-05-28T13:44:58Z</time>
      </trkpt>
      <trkpt lat="43.53004" lon="5.5139">
        <ele>281</ele>
        <time>2023-05-28T13:44:59Z</time>
      </trkpt>
      <trkpt lat="43.53005" lon="5.51389">
        <ele>281.2</ele>
        <time>2023-05-28T13:45:00Z</time>
      </trkpt>
      <trkpt lat="43.53006" lon="5.51388">
        <ele>281.3</ele>
        <time>2023-05-28T13:45:01Z</time>
      </trkpt>
      <trkpt lat="43.53007" lon="5.51388">
        <ele>281.5</ele>
        <time>2023-05-28T13:45:02Z</time>
      </trkpt>
      <trkpt lat="43.53008" lon="5.51387">
        <ele>281.7</ele>
        <time>2023-05-28T13:45:03Z</time>
      </trkpt>
      <trkpt lat="43.53008" lon="5.51386">
        <ele>281.8</ele>
        <time>2023-05-28T13:45:04Z</time>
      </trkpt>
      <trkpt lat="43.53009" lon="5.51385">
        <ele>282</ele>
        <time>2023-05-28T13:45:05Z</time>
      </trkpt>
      <trkpt lat="43.5301" lon="5.51384">
        <ele>282.2</ele>
        <time>2023-05-28T13:45:06Z</time>
      </trkpt>
      <trkpt lat="43.53011" lon="5.51383">
        <ele>282.5</ele>
        <time>2023-05-28T13:45:07Z</time>
      </trkpt>
      <trkpt lat="43.53012" lon="5.51383">
        <ele>282.7</ele>
        <time>2023-05-28T13:45:08Z</time>
      </trkpt>
      <trkpt lat="43.53013" lon="5.51382">
        <ele>283</ele>
        <time>2023-05-28T13:45:09Z</time>
      </trkpt>
      <trkpt lat="43.53014" lon="5.51382">
        <ele>283.1</ele>
        <time>2023-05-28T13:45:10Z</time>
      </trkpt>
      <trkpt lat="43.53015" lon="5.51382">
        <ele>283.4</ele>
        <time>2023-05-28T13:45:11Z</time>
      </trkpt>
      <trkpt lat="43.53015" lon="5.51381">
        <ele>283.6</ele>
        <time>2023-05-28T13:45:12Z</time>
      </trkpt>
      <trkpt lat="43.53016" lon="5.51381">
        <ele>283.7</ele>
        <time>2023-05-28T13:45:13Z</time>
      </trkpt>
      <trkpt lat="43.53017" lon="5.51382">
        <ele>283.8</ele>
        <time>2023-05-28T13:45:14Z</time>
      </trkpt>
      <trkpt lat="43.53018" lon="5.51381">
        <ele>284</ele>
        <time>2023-05-28T13:45:15Z</time>
      </trkpt>
      <trkpt lat="43.5302" lon="5.51382">
        <ele>284.1</ele>
        <time>2023-05-28T13:45:16Z</time>
      </trkpt>
      <trkpt lat="43.53021" lon="5.51381">
        <ele>284.3</ele>
        <time>2023-05-28T13:45:17Z</time>
      </trkpt>
      <trkpt lat="43.53022" lon="5.51382">
        <ele>284.6</ele>
        <time>2023-05-28T13:45:18Z</time>
      </trkpt>
      <trkpt lat="43.53023" lon="5.51382">
        <ele>284.8</ele>
        <time>2023-05-28T13:45:19Z</time>
      </trkpt>
      <trkpt lat="43.53024" lon="5.51382">
        <ele>285</ele>
        <time>2023-05-28T13:45:20Z</time>
      </trkpt>
      <trkpt lat="43.53025" lon="5.51382">
        <ele>285.2</ele>
        <time>2023-05-28T13:45:21Z</time>
      </trkpt>
      <trkpt lat="43.53027" lon="5.51382">
        <ele>285.4</ele>
        <time>2023-05-28T13:45:22Z</time>
      </trkpt>
      <trkpt lat="43.53028" lon="5.51382">
        <ele>285.6</ele>
        <time>2023-05-28T13:45:23Z</time>
      </trkpt>
      <trkpt lat="43.53029" lon="5.51382">
        <ele>285.7</ele>
        <time>2023-05-28T13:45:24Z</time>
      </trkpt>
      <trkpt lat="43.5303" lon="5.51381">
        <ele>285.8</ele>
        <time>2023-05-28T13:45:25Z</time>
      </trkpt>
      <trkpt lat="43.53031" lon="5.51381">
        <ele>285.9</ele>
        <time>2023-05-28T13:45:26Z</time>
      </trkpt>
      <trkpt lat="43.53032" lon="5.51381">
        <ele>286</ele>
        <time>2023-05-28T13:45:27Z</time>
      </trkpt>
      <trkpt lat="43.53033" lon="5.51381">
        <ele>286.1</ele>
        <time>2023-05-28T13:45:28Z</time>
      </trkpt>
      <trkpt lat="43.53035" lon="5.51381">
        <ele>286.2</ele>
        <time>2023-05-28T13:45:29Z</time>
      </trkpt>
      <trkpt lat="43.53036" lon="5.5138">
        <ele>286.2</ele>
        <time>2023-05-28T13:45:30Z</time>
      </trkpt>
      <trkpt lat="43.53037" lon="5.51381">
        <ele>286.3</ele>
        <time>2023-05-28T13:45:31Z</time>
      </trkpt>
      <trkpt lat="43.53038" lon="5.5138">
        <ele>286.4</ele>
        <time>2023-05-28T13:45:32Z</time>
      </trkpt>
      <trkpt lat="43.53039" lon="5.51381">
        <ele>286.5</ele>
        <time>2023-05-28T13:45:33Z</time>
      </trkpt>
      <trkpt lat="43.5304" lon="5.5138">
        <ele>286.6</ele>
        <time>2023-05-28T13:45:34Z</time>
      </trkpt>
      <trkpt lat="43.53041" lon="5.5138">
        <ele>286.7</ele>
        <time>2023-05-28T13:45:35Z</time>
      </trkpt>
      <trkpt lat="43.53042" lon="5.5138">
        <ele>286.9</ele>
        <time>2023-05-28T13:45:36Z</time>
      </trkpt>
      <trkpt lat="43.53044" lon="5.5138">
        <ele>287</ele>
        <time>2023-05-28T13:45:37Z</time>
      </trkpt>
      <trkpt lat="43.53045" lon="5.5138">
        <ele>287.1</ele>
        <time>2023-05-28T13:45:38Z</time>
      </trkpt>
      <trkpt lat="43.53046" lon="5.51379">
        <ele>287.1</ele>
        <time>2023-05-28T13:45:39Z</time>
      </trkpt>
      <trkpt lat="43.53047" lon="5.51379">
        <ele>287.2</ele>
        <time>2023-05-28T13:45:40Z</time>
      </trkpt>
      <trkpt lat="43.53048" lon="5.51379">
        <ele>287.2</ele>
        <time>2023-05-28T13:45:41Z</time>
      </trkpt>
      <trkpt lat="43.53049" lon="5.51379">
        <ele>287.4</ele>
        <time>2023-05-28T13:45:42Z</time>
      </trkpt>
      <trkpt lat="43.5305" lon="5.51378">
        <ele>287.5</ele>
        <time>2023-05-28T13:45:43Z</time>
      </trkpt>
      <trkpt lat="43.53051" lon="5.51378">
        <ele>287.6</ele>
        <time>2023-05-28T13:45:44Z</time>
      </trkpt>
      <trkpt lat="43.53052" lon="5.51378">
        <ele>287.8</ele>
        <time>2023-05-28T13:45:45Z</time>
      </trkpt>
      <trkpt lat="43.53053" lon="5.51378">
        <ele>287.9</ele>
        <time>2023-05-28T13:45:46Z</time>
      </trkpt>
      <trkpt lat="43.53054" lon="5.51379">
        <ele>288.1</ele>
        <time>2023-05-28T13:45:47Z</time>
      </trkpt>
      <trkpt lat="43.53056" lon="5.51379">
        <ele>288.2</ele>
        <time>2023-05-28T13:45:48Z</time>
      </trkpt>
      <trkpt lat="43.53057" lon="5.51379">
        <ele>288.2</ele>
        <time>2023-05-28T13:45:49Z</time>
      </trkpt>
      <trkpt lat="43.53058" lon="5.51379">
        <ele>288.4</ele>
        <time>2023-05-28T13:45:50Z</time>
      </trkpt>
      <trkpt lat="43.53059" lon="5.5138">
        <ele>288.7</ele>
        <time>2023-05-28T13:45:51Z</time>
      </trkpt>
      <trkpt lat="43.5306" lon="5.5138">
        <ele>288.9</ele>
        <time>2023-05-28T13:45:52Z</time>
      </trkpt>
      <trkpt lat="43.53061" lon="5.5138">
        <ele>289.1</ele>
        <time>2023-05-28T13:45:53Z</time>
      </trkpt>
      <trkpt lat="43.53062" lon="5.5138">
        <ele>289.2</ele>
        <time>2023-05-28T13:45:54Z</time>
      </trkpt>
      <trkpt lat="43.53064" lon="5.5138">
        <ele>289.3</ele>
        <time>2023-05-28T13:45:55Z</time>
      </trkpt>
      <trkpt lat="43.53065" lon="5.5138">
        <ele>289.6</ele>
        <time>2023-05-28T13:45:56Z</time>
      </trkpt>
      <trkpt lat="43.53066" lon="5.5138">
        <ele>289.8</ele>
        <time>2023-05-28T13:45:57Z</time>
      </trkpt>
      <trkpt lat="43.53067" lon="5.51381">
        <ele>289.9</ele>
        <time>2023-05-28T13:45:58Z</time>
      </trkpt>
      <trkpt lat="43.53068" lon="5.5138">
        <ele>290</ele>
        <time>2023-05-28T13:45:59Z</time>
      </trkpt>
      <trkpt lat="43.53069" lon="5.5138">
        <ele>290.1</ele>
        <time>2023-05-28T13:46:00Z</time>
      </trkpt>
      <trkpt lat="43.5307" lon="5.5138">
        <ele>290.3</ele>
        <time>2023-05-28T13:46:01Z</time>
      </trkpt>
      <trkpt lat="43.53072" lon="5.5138">
        <ele>290.4</ele>
        <time>2023-05-28T13:46:02Z</time>
      </trkpt>
      <trkpt lat="43.53073" lon="5.5138">
        <ele>290.5</ele>
        <time>2023-05-28T13:46:03Z</time>
      </trkpt>
      <trkpt lat="43.53073" lon="5.5138">
        <ele>290.8</ele>
        <time>2023-05-28T13:46:04Z</time>
      </trkpt>
      <trkpt lat="43.53073" lon="5.5138">
        <ele>290.9</ele>
        <time>2023-05-28T13:46:05Z</time>
      </trkpt>
      <trkpt lat="43.53075" lon="5.51381">
        <ele>291.1</ele>
        <time>2023-05-28T13:46:06Z</time>
      </trkpt>
      <trkpt lat="43.53076" lon="5.5138">
        <ele>291.3</ele>
        <time>2023-05-28T13:46:07Z</time>
      </trkpt>
      <trkpt lat="43.53077" lon="5.5138">
        <ele>291.5</ele>
        <time>2023-05-28T13:46:08Z</time>
      </trkpt>
      <trkpt lat="43.53078" lon="5.51379">
        <ele>291.7</ele>
        <time>2023-05-28T13:46:09Z</time>
      </trkpt>
      <trkpt lat="43.53079" lon="5.51378">
        <ele>291.8</ele>
        <time>2023-05-28T13:46:10Z</time>
      </trkpt>
      <trkpt lat="43.5308" lon="5.51377">
        <ele>292</ele>
        <time>2023-05-28T13:46:11Z</time>
      </trkpt>
      <trkpt lat="43.53081" lon="5.51377">
        <ele>292.1</ele>
        <time>2023-05-28T13:46:12Z</time>
      </trkpt>
      <trkpt lat="43.53082" lon="5.51377">
        <ele>292.3</ele>
        <time>2023-05-28T13:46:13Z</time>
      </trkpt>
      <trkpt lat="43.53082" lon="5.51377">
        <ele>292.3</ele>
        <time>2023-05-28T13:46:14Z</time>
      </trkpt>
      <trkpt lat="43.53083" lon="5.51377">
        <ele>292.5</ele>
        <time>2023-05-28T13:46:15Z</time>
      </trkpt>
      <trkpt lat="43.53085" lon="5.51377">
        <ele>292.7</ele>
        <time>2023-05-28T13:46:16Z</time>
      </trkpt>
      <trkpt lat="43.53086" lon="5.51377">
        <ele>292.8</ele>
        <time>2023-05-28T13:46:17Z</time>
      </trkpt>
      <trkpt lat="43.53087" lon="5.51377">
        <ele>292.9</ele>
        <time>2023-05-28T13:46:18Z</time>
      </trkpt>
      <trkpt lat="43.53088" lon="5.51376">
        <ele>292.9</ele>
        <time>2023-05-28T13:46:19Z</time>
      </trkpt>
      <trkpt lat="43.53089" lon="5.51376">
        <ele>293</ele>
        <time>2023-05-28T13:46:20Z</time>
      </trkpt>
      <trkpt lat="43.5309" lon="5.51376">
        <ele>293.2</ele>
        <time>2023-05-28T13:46:21Z</time>
      </trkpt>
      <trkpt lat="43.53091" lon="5.51376">
        <ele>293.3</ele>
        <time>2023-05-28T13:46:22Z</time>
      </trkpt>
      <trkpt lat="43.53092" lon="5.51376">
        <ele>293.5</ele>
        <time>2023-05-28T13:46:23Z</time>
      </trkpt>
      <trkpt lat="43.53093" lon="5.51376">
        <ele>293.6</ele>
        <time>2023-05-28T13:46:24Z</time>
      </trkpt>
      <trkpt lat="43.53094" lon="5.51377">
        <ele>293.8</ele>
        <time>2023-05-28T13:46:25Z</time>
      </trkpt>
      <trkpt lat="43.53095" lon="5.51377">
        <ele>293.8</ele>
        <time>2023-05-28T13:46:26Z</time>
      </trkpt>
      <trkpt lat="43.53097" lon="5.51377">
        <ele>293.9</ele>
        <time>2023-05-28T13:46:27Z</time>
      </trkpt>
      <trkpt lat="43.53098" lon="5.51378">
        <ele>294</ele>
        <time>2023-05-28T13:46:28Z</time>
      </trkpt>
      <trkpt lat="43.53099" lon="5.51378">
        <ele>294</ele>
        <time>2023-05-28T13:46:29Z</time>
      </trkpt>
      <trkpt lat="43.531" lon="5.51378">
        <ele>294.1</ele>
        <time>2023-05-28T13:46:30Z</time>
      </trkpt>
      <trkpt lat="43.53101" lon="5.51378">
        <ele>294.1</ele>
        <time>2023-05-28T13:46:31Z</time>
      </trkpt>
      <trkpt lat="43.53102" lon="5.51379">
        <ele>294.2</ele>
        <time>2023-05-28T13:46:32Z</time>
      </trkpt>
      <trkpt lat="43.53102" lon="5.51381">
        <ele>294.2</ele>
        <time>2023-05-28T13:46:33Z</time>
      </trkpt>
      <trkpt lat="43.53103" lon="5.51382">
        <ele>294.2</ele>
        <time>2023-05-28T13:46:34Z</time>
      </trkpt>
      <trkpt lat="43.53104" lon="5.51383">
        <ele>294.1</ele>
        <time>2023-05-28T13:46:35Z</time>
      </trkpt>
      <trkpt lat="43.53105" lon="5.51384">
        <ele>294</ele>
        <time>2023-05-28T13:46:36Z</time>
      </trkpt>
      <trkpt lat="43.53106" lon="5.51385">
        <ele>293.9</ele>
        <time>2023-05-28T13:46:37Z</time>
      </trkpt>
      <trkpt lat="43.53107" lon="5.51387">
        <ele>293.9</ele>
        <time>2023-05-28T13:46:38Z</time>
      </trkpt>
      <trkpt lat="43.53107" lon="5.51388">
        <ele>293.9</ele>
        <time>2023-05-28T13:46:39Z</time>
      </trkpt>
      <trkpt lat="43.53107" lon="5.51388">
        <ele>293.8</ele>
        <time>2023-05-28T13:46:40Z</time>
      </trkpt>
      <trkpt lat="43.53107" lon="5.51389">
        <ele>293.7</ele>
        <time>2023-05-28T13:46:41Z</time>
      </trkpt>
      <trkpt lat="43.53108" lon="5.5139">
        <ele>293.6</ele>
        <time>2023-05-28T13:46:42Z</time>
      </trkpt>
      <trkpt lat="43.53108" lon="5.5139">
        <ele>293.5</ele>
        <time>2023-05-28T13:46:43Z</time>
      </trkpt>
      <trkpt lat="43.53107" lon="5.5139">
        <ele>293.4</ele>
        <time>2023-05-28T13:46:44Z</time>
      </trkpt>
      <trkpt lat="43.53107" lon="5.5139">
        <ele>293.3</ele>
        <time>2023-05-28T13:46:45Z</time>
      </trkpt>
      <trkpt lat="43.53107" lon="5.5139">
        <ele>293.2</ele>
        <time>2023-05-28T13:46:46Z</time>
      </trkpt>
      <trkpt lat="43.53107" lon="5.5139">
        <ele>293.2</ele>
        <time>2023-05-28T13:46:47Z</time>
      </trkpt>
      <trkpt lat="43.53107" lon="5.5139">
        <ele>293.2</ele>
        <time>2023-05-28T13:46:48Z</time>
      </trkpt>
      <trkpt lat="43.53107" lon="5.5139">
        <ele>293.2</ele>
        <time>2023-05-28T13:46:49Z</time>
      </trkpt>
      <trkpt lat="43.53107" lon="5.5139">
        <ele>293.2</ele>
        <time>2023-05-28T13:46:50Z</time>
      </trkpt>
      <trkpt lat="43.53108" lon="5.5139">
        <ele>293.2</ele>
        <time>2023-05-28T13:46:51Z</time>
      </trkpt>
      <trkpt lat="43.53108" lon="5.51391">
        <ele>293.1</ele>
        <time>2023-05-28T13:46:52Z</time>
      </trkpt>
      <trkpt lat="43.53108" lon="5.51391">
        <ele>293.1</ele>
        <time>2023-05-28T13:46:53Z</time>
      </trkpt>
      <trkpt lat="43.53107" lon="5.51391">
        <ele>293.1</ele>
        <time>2023-05-28T13:46:54Z</time>
      </trkpt>
      <trkpt lat="43.53107" lon="5.51391">
        <ele>293.1</ele>
        <time>2023-05-28T13:46:55Z</time>
      </trkpt>
      <trkpt lat="43.53107" lon="5.51391">
        <ele>293.1</ele>
        <time>2023-05-28T13:46:56Z</time>
      </trkpt>
      <trkpt lat="43.53107" lon="5.51391">
        <ele>293.1</ele>
        <time>2023-05-28T13:46:57Z</time>
      </trkpt>
      <trkpt lat="43.53107" lon="5.51391">
        <ele>293.1</ele>
        <time>2023-05-28T13:46:58Z</time>
      </trkpt>
      <trkpt lat="43.53107" lon="5.51391">
        <ele>293</ele>
        <time>2023-05-28T13:46:59Z</time>
      </trkpt>
      <trkpt lat="43.53107" lon="5.51391">
        <ele>293</ele>
        <time>2023-05-28T13:47:00Z</time>
      </trkpt>
      <trkpt lat="43.53107" lon="5.51391">
        <ele>293</ele>
        <time>2023-05-28T13:47:01Z</time>
      </trkpt>
      <trkpt lat="43.53108" lon="5.51391">
        <ele>293.1</ele>
        <time>2023-05-28T13:47:02Z</time>
      </trkpt>
      <trkpt lat="43.53108" lon="5.51391">
        <ele>293</ele>
        <time>2023-05-28T13:47:03Z</time>
      </trkpt>
      <trkpt lat="43.53108" lon="5.51391">
        <ele>292.8</ele>
        <time>2023-05-28T13:47:04Z</time>
      </trkpt>
      <trkpt lat="43.53108" lon="5.5139">
        <ele>292.8</ele>
        <time>2023-05-28T13:47:05Z</time>
      </trkpt>
      <trkpt lat="43.53108" lon="5.5139">
        <ele>292.8</ele>
        <time>2023-05-28T13:47:06Z</time>
      </trkpt>
      <trkpt lat="43.53108" lon="5.51388">
        <ele>292.8</ele>
        <time>2023-05-28T13:47:07Z</time>
      </trkpt>
      <trkpt lat="43.53109" lon="5.51387">
        <ele>292.9</ele>
        <time>2023-05-28T13:47:08Z</time>
      </trkpt>
      <trkpt lat="43.53109" lon="5.51386">
        <ele>293</ele>
        <time>2023-05-28T13:47:09Z</time>
      </trkpt>
      <trkpt lat="43.53109" lon="5.51385">
        <ele>293.1</ele>
        <time>2023-05-28T13:47:10Z</time>
      </trkpt>
      <trkpt lat="43.53109" lon="5.51384">
        <ele>293.1</ele>
        <time>2023-05-28T13:47:11Z</time>
      </trkpt>
      <trkpt lat="43.53109" lon="5.51383">
        <ele>293</ele>
        <time>2023-05-28T13:47:12Z</time>
      </trkpt>
      <trkpt lat="43.5311" lon="5.51381">
        <ele>293</ele>
        <time>2023-05-28T13:47:13Z</time>
      </trkpt>
      <trkpt lat="43.53111" lon="5.5138">
        <ele>293</ele>
        <time>2023-05-28T13:47:14Z</time>
      </trkpt>
      <trkpt lat="43.53111" lon="5.51379">
        <ele>293</ele>
        <time>2023-05-28T13:47:15Z</time>
      </trkpt>
      <trkpt lat="43.53111" lon="5.51377">
        <ele>293</ele>
        <time>2023-05-28T13:47:16Z</time>
      </trkpt>
      <trkpt lat="43.53111" lon="5.51375">
        <ele>293</ele>
        <time>2023-05-28T13:47:17Z</time>
      </trkpt>
      <trkpt lat="43.53111" lon="5.51374">
        <ele>293</ele>
        <time>2023-05-28T13:47:18Z</time>
      </trkpt>
      <trkpt lat="43.53112" lon="5.51373">
        <ele>293</ele>
        <time>2023-05-28T13:47:19Z</time>
      </trkpt>
      <trkpt lat="43.53112" lon="5.51371">
        <ele>292.9</ele>
        <time>2023-05-28T13:47:20Z</time>
      </trkpt>
      <trkpt lat="43.53113" lon="5.5137">
        <ele>292.9</ele>
        <time>2023-05-28T13:47:21Z</time>
      </trkpt>
      <trkpt lat="43.53113" lon="5.51368">
        <ele>292.8</ele>
        <time>2023-05-28T13:47:22Z</time>
      </trkpt>
      <trkpt lat="43.53114" lon="5.51367">
        <ele>292.7</ele>
        <time>2023-05-28T13:47:23Z</time>
      </trkpt>
      <trkpt lat="43.53114" lon="5.51365">
        <ele>292.5</ele>
        <time>2023-05-28T13:47:24Z</time>
      </trkpt>
      <trkpt lat="43.53115" lon="5.51364">
        <ele>292.4</ele>
        <time>2023-05-28T13:47:25Z</time>
      </trkpt>
      <trkpt lat="43.53115" lon="5.51362">
        <ele>292.3</ele>
        <time>2023-05-28T13:47:26Z</time>
      </trkpt>
      <trkpt lat="43.53115" lon="5.51361">
        <ele>292.2</ele>
        <time>2023-05-28T13:47:27Z</time>
      </trkpt>
      <trkpt lat="43.53115" lon="5.51359">
        <ele>292.1</ele>
        <time>2023-05-28T13:47:28Z</time>
      </trkpt>
      <trkpt lat="43.53116" lon="5.51358">
        <ele>292</ele>
        <time>2023-05-28T13:47:29Z</time>
      </trkpt>
      <trkpt lat="43.53116" lon="5.51356">
        <ele>292</ele>
        <time>2023-05-28T13:47:30Z</time>
      </trkpt>
      <trkpt lat="43.53116" lon="5.51355">
        <ele>291.9</ele>
        <time>2023-05-28T13:47:31Z</time>
      </trkpt>
      <trkpt lat="43.53117" lon="5.51354">
        <ele>291.9</ele>
        <time>2023-05-28T13:47:32Z</time>
      </trkpt>
      <trkpt lat="43.53117" lon="5.51352">
        <ele>291.7</ele>
        <time>2023-05-28T13:47:33Z</time>
      </trkpt>
      <trkpt lat="43.53118" lon="5.51351">
        <ele>291.5</ele>
        <time>2023-05-28T13:47:34Z</time>
      </trkpt>
      <trkpt lat="43.53118" lon="5.51349">
        <ele>291.4</ele>
        <time>2023-05-28T13:47:35Z</time>
      </trkpt>
      <trkpt lat="43.53119" lon="5.51348">
        <ele>291.2</ele>
        <time>2023-05-28T13:47:36Z</time>
      </trkpt>
      <trkpt lat="43.53119" lon="5.51346">
        <ele>291.1</ele>
        <time>2023-05-28T13:47:37Z</time>
      </trkpt>
      <trkpt lat="43.53119" lon="5.51345">
        <ele>290.9</ele>
        <time>2023-05-28T13:47:38Z</time>
      </trkpt>
      <trkpt lat="43.53119" lon="5.51343">
        <ele>290.7</ele>
        <time>2023-05-28T13:47:39Z</time>
      </trkpt>
      <trkpt lat="43.5312" lon="5.51342">
        <ele>290.5</ele>
        <time>2023-05-28T13:47:40Z</time>
      </trkpt>
      <trkpt lat="43.5312" lon="5.5134">
        <ele>290.3</ele>
        <time>2023-05-28T13:47:41Z</time>
      </trkpt>
      <trkpt lat="43.5312" lon="5.51339">
        <ele>290.1</ele>
        <time>2023-05-28T13:47:42Z</time>
      </trkpt>
      <trkpt lat="43.5312" lon="5.51338">
        <ele>290</ele>
        <time>2023-05-28T13:47:43Z</time>
      </trkpt>
      <trkpt lat="43.53121" lon="5.51336">
        <ele>289.9</ele>
        <time>2023-05-28T13:47:44Z</time>
      </trkpt>
      <trkpt lat="43.53121" lon="5.51334">
        <ele>289.8</ele>
        <time>2023-05-28T13:47:45Z</time>
      </trkpt>
      <trkpt lat="43.53122" lon="5.51332">
        <ele>289.6</ele>
        <time>2023-05-28T13:47:46Z</time>
      </trkpt>
      <trkpt lat="43.53122" lon="5.51331">
        <ele>289.3</ele>
        <time>2023-05-28T13:47:47Z</time>
      </trkpt>
      <trkpt lat="43.53122" lon="5.51329">
        <ele>289.1</ele>
        <time>2023-05-28T13:47:48Z</time>
      </trkpt>
      <trkpt lat="43.53123" lon="5.51327">
        <ele>288.9</ele>
        <time>2023-05-28T13:47:49Z</time>
      </trkpt>
      <trkpt lat="43.53123" lon="5.51325">
        <ele>288.7</ele>
        <time>2023-05-28T13:47:50Z</time>
      </trkpt>
      <trkpt lat="43.53124" lon="5.51323">
        <ele>288.5</ele>
        <time>2023-05-28T13:47:51Z</time>
      </trkpt>
      <trkpt lat="43.53124" lon="5.51322">
        <ele>288.3</ele>
        <time>2023-05-28T13:47:52Z</time>
      </trkpt>
      <trkpt lat="43.53124" lon="5.51321">
        <ele>288.1</ele>
        <time>2023-05-28T13:47:53Z</time>
      </trkpt>
      <trkpt lat="43.53125" lon="5.51319">
        <ele>287.9</ele>
        <time>2023-05-28T13:47:54Z</time>
      </trkpt>
      <trkpt lat="43.53125" lon="5.51317">
        <ele>287.7</ele>
        <time>2023-05-28T13:47:55Z</time>
      </trkpt>
      <trkpt lat="43.53126" lon="5.51316">
        <ele>287.6</ele>
        <time>2023-05-28T13:47:56Z</time>
      </trkpt>
      <trkpt lat="43.53126" lon="5.51314">
        <ele>287.3</ele>
        <time>2023-05-28T13:47:57Z</time>
      </trkpt>
      <trkpt lat="43.53126" lon="5.51313">
        <ele>287.1</ele>
        <time>2023-05-28T13:47:58Z</time>
      </trkpt>
      <trkpt lat="43.53126" lon="5.51311">
        <ele>286.8</ele>
        <time>2023-05-28T13:47:59Z</time>
      </trkpt>
      <trkpt lat="43.53127" lon="5.5131">
        <ele>286.6</ele>
        <time>2023-05-28T13:48:00Z</time>
      </trkpt>
      <trkpt lat="43.53127" lon="5.51308">
        <ele>286.4</ele>
        <time>2023-05-28T13:48:01Z</time>
      </trkpt>
      <trkpt lat="43.53128" lon="5.51307">
        <ele>286.2</ele>
        <time>2023-05-28T13:48:02Z</time>
      </trkpt>
      <trkpt lat="43.53128" lon="5.51305">
        <ele>285.9</ele>
        <time>2023-05-28T13:48:03Z</time>
      </trkpt>
      <trkpt lat="43.53128" lon="5.51304">
        <ele>285.6</ele>
        <time>2023-05-28T13:48:04Z</time>
      </trkpt>
      <trkpt lat="43.53129" lon="5.51303">
        <ele>285.5</ele>
        <time>2023-05-28T13:48:05Z</time>
      </trkpt>
      <trkpt lat="43.53129" lon="5.51301">
        <ele>285.3</ele>
        <time>2023-05-28T13:48:06Z</time>
      </trkpt>
      <trkpt lat="43.5313" lon="5.51299">
        <ele>285.1</ele>
        <time>2023-05-28T13:48:07Z</time>
      </trkpt>
      <trkpt lat="43.53131" lon="5.51297">
        <ele>284.9</ele>
        <time>2023-05-28T13:48:08Z</time>
      </trkpt>
      <trkpt lat="43.5313" lon="5.51295">
        <ele>284.8</ele>
        <time>2023-05-28T13:48:09Z</time>
      </trkpt>
      <trkpt lat="43.53131" lon="5.51293">
        <ele>284.7</ele>
        <time>2023-05-28T13:48:10Z</time>
      </trkpt>
      <trkpt lat="43.53131" lon="5.51292">
        <ele>284.6</ele>
        <time>2023-05-28T13:48:11Z</time>
      </trkpt>
      <trkpt lat="43.53131" lon="5.5129">
        <ele>284.4</ele>
        <time>2023-05-28T13:48:12Z</time>
      </trkpt>
      <trkpt lat="43.53131" lon="5.51288">
        <ele>284.2</ele>
        <time>2023-05-28T13:48:13Z</time>
      </trkpt>
      <trkpt lat="43.53132" lon="5.51287">
        <ele>284</ele>
        <time>2023-05-28T13:48:14Z</time>
      </trkpt>
      <trkpt lat="43.53132" lon="5.51285">
        <ele>283.7</ele>
        <time>2023-05-28T13:48:15Z</time>
      </trkpt>
      <trkpt lat="43.53132" lon="5.51283">
        <ele>283.5</ele>
        <time>2023-05-28T13:48:16Z</time>
      </trkpt>
      <trkpt lat="43.53132" lon="5.51281">
        <ele>283.4</ele>
        <time>2023-05-28T13:48:17Z</time>
      </trkpt>
      <trkpt lat="43.53132" lon="5.5128">
        <ele>283.3</ele>
        <time>2023-05-28T13:48:18Z</time>
      </trkpt>
      <trkpt lat="43.53133" lon="5.51278">
        <ele>283.2</ele>
        <time>2023-05-28T13:48:19Z</time>
      </trkpt>
      <trkpt lat="43.53133" lon="5.51276">
        <ele>283.1</ele>
        <time>2023-05-28T13:48:20Z</time>
      </trkpt>
      <trkpt lat="43.53133" lon="5.51274">
        <ele>283</ele>
        <time>2023-05-28T13:48:21Z</time>
      </trkpt>
      <trkpt lat="43.53134" lon="5.51273">
        <ele>283</ele>
        <time>2023-05-28T13:48:22Z</time>
      </trkpt>
      <trkpt lat="43.53134" lon="5.51271">
        <ele>282.8</ele>
        <time>2023-05-28T13:48:23Z</time>
      </trkpt>
      <trkpt lat="43.53135" lon="5.5127">
        <ele>282.6</ele>
        <time>2023-05-28T13:48:24Z</time>
      </trkpt>
      <trkpt lat="43.53135" lon="5.51268">
        <ele>282.5</ele>
        <time>2023-05-28T13:48:25Z</time>
      </trkpt>
      <trkpt lat="43.53135" lon="5.51267">
        <ele>282.3</ele>
        <time>2023-05-28T13:48:26Z</time>
      </trkpt>
      <trkpt lat="43.53136" lon="5.51265">
        <ele>282.1</ele>
        <time>2023-05-28T13:48:27Z</time>
      </trkpt>
      <trkpt lat="43.53137" lon="5.51263">
        <ele>281.9</ele>
        <time>2023-05-28T13:48:28Z</time>
      </trkpt>
      <trkpt lat="43.53137" lon="5.51262">
        <ele>281.8</ele>
        <time>2023-05-28T13:48:29Z</time>
      </trkpt>
      <trkpt lat="43.53138" lon="5.5126">
        <ele>281.7</ele>
        <time>2023-05-28T13:48:30Z</time>
      </trkpt>
      <trkpt lat="43.53138" lon="5.51258">
        <ele>281.5</ele>
        <time>2023-05-28T13:48:31Z</time>
      </trkpt>
      <trkpt lat="43.53139" lon="5.51255">
        <ele>281.2</ele>
        <time>2023-05-28T13:48:32Z</time>
      </trkpt>
      <trkpt lat="43.5314" lon="5.51254">
        <ele>281.1</ele>
        <time>2023-05-28T13:48:33Z</time>
      </trkpt>
      <trkpt lat="43.5314" lon="5.51252">
        <ele>281</ele>
        <time>2023-05-28T13:48:34Z</time>
      </trkpt>
      <trkpt lat="43.53141" lon="5.5125">
        <ele>280.9</ele>
        <time>2023-05-28T13:48:35Z</time>
      </trkpt>
      <trkpt lat="43.53141" lon="5.51248">
        <ele>280.8</ele>
        <time>2023-05-28T13:48:36Z</time>
      </trkpt>
      <trkpt lat="43.53141" lon="5.51246">
        <ele>280.6</ele>
        <time>2023-05-28T13:48:37Z</time>
      </trkpt>
      <trkpt lat="43.53142" lon="5.51244">
        <ele>280.4</ele>
        <time>2023-05-28T13:48:38Z</time>
      </trkpt>
      <trkpt lat="43.53142" lon="5.51243">
        <ele>280.2</ele>
        <time>2023-05-28T13:48:39Z</time>
      </trkpt>
      <trkpt lat="43.53142" lon="5.51241">
        <ele>280</ele>
        <time>2023-05-28T13:48:40Z</time>
      </trkpt>
      <trkpt lat="43.53142" lon="5.5124">
        <ele>279.8</ele>
        <time>2023-05-28T13:48:41Z</time>
      </trkpt>
      <trkpt lat="43.53143" lon="5.51238">
        <ele>279.7</ele>
        <time>2023-05-28T13:48:42Z</time>
      </trkpt>
      <trkpt lat="43.53143" lon="5.51236">
        <ele>279.6</ele>
        <time>2023-05-28T13:48:43Z</time>
      </trkpt>
      <trkpt lat="43.53144" lon="5.51235">
        <ele>279.5</ele>
        <time>2023-05-28T13:48:44Z</time>
      </trkpt>
      <trkpt lat="43.53144" lon="5.51233">
        <ele>279.3</ele>
        <time>2023-05-28T13:48:45Z</time>
      </trkpt>
      <trkpt lat="43.53145" lon="5.51231">
        <ele>279.2</ele>
        <time>2023-05-28T13:48:46Z</time>
      </trkpt>
      <trkpt lat="43.53145" lon="5.5123">
        <ele>279</ele>
        <time>2023-05-28T13:48:47Z</time>
      </trkpt>
      <trkpt lat="43.53145" lon="5.51228">
        <ele>278.8</ele>
        <time>2023-05-28T13:48:48Z</time>
      </trkpt>
      <trkpt lat="43.53146" lon="5.51226">
        <ele>278.7</ele>
        <time>2023-05-28T13:48:49Z</time>
      </trkpt>
      <trkpt lat="43.53146" lon="5.51225">
        <ele>278.6</ele>
        <time>2023-05-28T13:48:50Z</time>
      </trkpt>
      <trkpt lat="43.53146" lon="5.51223">
        <ele>278.4</ele>
        <time>2023-05-28T13:48:51Z</time>
      </trkpt>
      <trkpt lat="43.53147" lon="5.51221">
        <ele>278.2</ele>
        <time>2023-05-28T13:48:52Z</time>
      </trkpt>
      <trkpt lat="43.53147" lon="5.51219">
        <ele>278</ele>
        <time>2023-05-28T13:48:53Z</time>
      </trkpt>
      <trkpt lat="43.53147" lon="5.51218">
        <ele>277.9</ele>
        <time>2023-05-28T13:48:54Z</time>
      </trkpt>
      <trkpt lat="43.53148" lon="5.51216">
        <ele>277.9</ele>
        <time>2023-05-28T13:48:55Z</time>
      </trkpt>
      <trkpt lat="43.53149" lon="5.51214">
        <ele>277.8</ele>
        <time>2023-05-28T13:48:56Z</time>
      </trkpt>
      <trkpt lat="43.53149" lon="5.51212">
        <ele>277.7</ele>
        <time>2023-05-28T13:48:57Z</time>
      </trkpt>
      <trkpt lat="43.53149" lon="5.5121">
        <ele>277.6</ele>
        <time>2023-05-28T13:48:58Z</time>
      </trkpt>
      <trkpt lat="43.5315" lon="5.51208">
        <ele>277.5</ele>
        <time>2023-05-28T13:48:59Z</time>
      </trkpt>
      <trkpt lat="43.5315" lon="5.51206">
        <ele>277.3</ele>
        <time>2023-05-28T13:49:00Z</time>
      </trkpt>
      <trkpt lat="43.5315" lon="5.51204">
        <ele>277.1</ele>
        <time>2023-05-28T13:49:01Z</time>
      </trkpt>
      <trkpt lat="43.5315" lon="5.51203">
        <ele>276.9</ele>
        <time>2023-05-28T13:49:02Z</time>
      </trkpt>
      <trkpt lat="43.53151" lon="5.51202">
        <ele>276.8</ele>
        <time>2023-05-28T13:49:03Z</time>
      </trkpt>
      <trkpt lat="43.53151" lon="5.512">
        <ele>276.6</ele>
        <time>2023-05-28T13:49:04Z</time>
      </trkpt>
      <trkpt lat="43.53152" lon="5.51199">
        <ele>276.4</ele>
        <time>2023-05-28T13:49:05Z</time>
      </trkpt>
      <trkpt lat="43.53151" lon="5.51197">
        <ele>276.2</ele>
        <time>2023-05-28T13:49:06Z</time>
      </trkpt>
      <trkpt lat="43.53152" lon="5.51196">
        <ele>276</ele>
        <time>2023-05-28T13:49:07Z</time>
      </trkpt>
      <trkpt lat="43.53152" lon="5.51195">
        <ele>275.9</ele>
        <time>2023-05-28T13:49:08Z</time>
      </trkpt>
      <trkpt lat="43.53152" lon="5.51195">
        <ele>275.7</ele>
        <time>2023-05-28T13:49:09Z</time>
      </trkpt>
      <trkpt lat="43.53153" lon="5.51195">
        <ele>275.6</ele>
        <time>2023-05-28T13:49:10Z</time>
      </trkpt>
      <trkpt lat="43.53154" lon="5.51194">
        <ele>275.4</ele>
        <time>2023-05-28T13:49:11Z</time>
      </trkpt>
      <trkpt lat="43.53155" lon="5.51193">
        <ele>275.3</ele>
        <time>2023-05-28T13:49:12Z</time>
      </trkpt>
      <trkpt lat="43.53155" lon="5.51193">
        <ele>275.1</ele>
        <time>2023-05-28T13:49:13Z</time>
      </trkpt>
      <trkpt lat="43.53156" lon="5.51192">
        <ele>275</ele>
        <time>2023-05-28T13:49:14Z</time>
      </trkpt>
      <trkpt lat="43.53157" lon="5.51192">
        <ele>274.9</ele>
        <time>2023-05-28T13:49:15Z</time>
      </trkpt>
      <trkpt lat="43.53158" lon="5.51193">
        <ele>274.7</ele>
        <time>2023-05-28T13:49:16Z</time>
      </trkpt>
      <trkpt lat="43.53157" lon="5.51193">
        <ele>274.5</ele>
        <time>2023-05-28T13:49:17Z</time>
      </trkpt>
      <trkpt lat="43.53157" lon="5.51193">
        <ele>274.4</ele>
        <time>2023-05-28T13:49:18Z</time>
      </trkpt>
      <trkpt lat="43.53157" lon="5.51193">
        <ele>274.2</ele>
        <time>2023-05-28T13:49:19Z</time>
      </trkpt>
      <trkpt lat="43.53157" lon="5.51194">
        <ele>274</ele>
        <time>2023-05-28T13:49:20Z</time>
      </trkpt>
      <trkpt lat="43.53158" lon="5.51194">
        <ele>273.9</ele>
        <time>2023-05-28T13:49:21Z</time>
      </trkpt>
      <trkpt lat="43.53158" lon="5.51194">
        <ele>273.7</ele>
        <time>2023-05-28T13:49:22Z</time>
      </trkpt>
      <trkpt lat="43.53158" lon="5.51194">
        <ele>273.6</ele>
        <time>2023-05-28T13:49:23Z</time>
      </trkpt>
      <trkpt lat="43.53158" lon="5.51194">
        <ele>273.5</ele>
        <time>2023-05-28T13:49:24Z</time>
      </trkpt>
      <trkpt lat="43.53159" lon="5.51194">
        <ele>273.4</ele>
        <time>2023-05-28T13:49:25Z</time>
      </trkpt>
      <trkpt lat="43.53159" lon="5.51193">
        <ele>273.1</ele>
        <time>2023-05-28T13:49:26Z</time>
      </trkpt>
      <trkpt lat="43.5316" lon="5.51193">
        <ele>272.9</ele>
        <time>2023-05-28T13:49:27Z</time>
      </trkpt>
      <trkpt lat="43.5316" lon="5.51193">
        <ele>272.6</ele>
        <time>2023-05-28T13:49:28Z</time>
      </trkpt>
      <trkpt lat="43.53161" lon="5.51193">
        <ele>272.2</ele>
        <time>2023-05-28T13:49:29Z</time>
      </trkpt>
      <trkpt lat="43.53161" lon="5.51194">
        <ele>272</ele>
        <time>2023-05-28T13:49:30Z</time>
      </trkpt>
      <trkpt lat="43.53162" lon="5.51194">
        <ele>271.7</ele>
        <time>2023-05-28T13:49:31Z</time>
      </trkpt>
      <trkpt lat="43.53162" lon="5.51193">
        <ele>271.5</ele>
        <time>2023-05-28T13:49:32Z</time>
      </trkpt>
      <trkpt lat="43.53163" lon="5.51191">
        <ele>271.2</ele>
        <time>2023-05-28T13:49:33Z</time>
      </trkpt>
      <trkpt lat="43.53163" lon="5.5119">
        <ele>270.9</ele>
        <time>2023-05-28T13:49:34Z</time>
      </trkpt>
      <trkpt lat="43.53163" lon="5.51189">
        <ele>270.6</ele>
        <time>2023-05-28T13:49:35Z</time>
      </trkpt>
      <trkpt lat="43.53162" lon="5.51187">
        <ele>270.4</ele>
        <time>2023-05-28T13:49:36Z</time>
      </trkpt>
      <trkpt lat="43.53163" lon="5.51187">
        <ele>270.3</ele>
        <time>2023-05-28T13:49:37Z</time>
      </trkpt>
      <trkpt lat="43.53163" lon="5.51186">
        <ele>270</ele>
        <time>2023-05-28T13:49:38Z</time>
      </trkpt>
      <trkpt lat="43.53163" lon="5.51185">
        <ele>269.9</ele>
        <time>2023-05-28T13:49:39Z</time>
      </trkpt>
      <trkpt lat="43.53164" lon="5.51184">
        <ele>269.8</ele>
        <time>2023-05-28T13:49:40Z</time>
      </trkpt>
      <trkpt lat="43.53164" lon="5.51184">
        <ele>269.6</ele>
        <time>2023-05-28T13:49:41Z</time>
      </trkpt>
      <trkpt lat="43.53164" lon="5.51183">
        <ele>269.5</ele>
        <time>2023-05-28T13:49:42Z</time>
      </trkpt>
      <trkpt lat="43.53165" lon="5.51183">
        <ele>269.4</ele>
        <time>2023-05-28T13:49:43Z</time>
      </trkpt>
      <trkpt lat="43.53165" lon="5.51183">
        <ele>269.2</ele>
        <time>2023-05-28T13:49:44Z</time>
      </trkpt>
      <trkpt lat="43.53165" lon="5.51183">
        <ele>269.1</ele>
        <time>2023-05-28T13:49:45Z</time>
      </trkpt>
      <trkpt lat="43.53165" lon="5.51183">
        <ele>269</ele>
        <time>2023-05-28T13:49:46Z</time>
      </trkpt>
      <trkpt lat="43.53166" lon="5.51182">
        <ele>269</ele>
        <time>2023-05-28T13:49:47Z</time>
      </trkpt>
      <trkpt lat="43.53166" lon="5.51182">
        <ele>268.9</ele>
        <time>2023-05-28T13:49:48Z</time>
      </trkpt>
      <trkpt lat="43.53166" lon="5.51182">
        <ele>268.8</ele>
        <time>2023-05-28T13:49:49Z</time>
      </trkpt>
      <trkpt lat="43.53167" lon="5.51182">
        <ele>268.6</ele>
        <time>2023-05-28T13:49:50Z</time>
      </trkpt>
      <trkpt lat="43.53167" lon="5.51182">
        <ele>268.6</ele>
        <time>2023-05-28T13:49:51Z</time>
      </trkpt>
      <trkpt lat="43.53167" lon="5.51182">
        <ele>268.4</ele>
        <time>2023-05-28T13:49:52Z</time>
      </trkpt>
      <trkpt lat="43.53167" lon="5.51182">
        <ele>268.3</ele>
        <time>2023-05-28T13:49:53Z</time>
      </trkpt>
      <trkpt lat="43.53167" lon="5.51182">
        <ele>268.2</ele>
        <time>2023-05-28T13:49:54Z</time>
      </trkpt>
      <trkpt lat="43.53167" lon="5.51182">
        <ele>268.2</ele>
        <time>2023-05-28T13:49:55Z</time>
      </trkpt>
      <trkpt lat="43.53167" lon="5.51182">
        <ele>268.1</ele>
        <time>2023-05-28T13:49:56Z</time>
      </trkpt>
      <trkpt lat="43.53167" lon="5.51182">
        <ele>268.1</ele>
        <time>2023-05-28T13:49:57Z</time>
      </trkpt>
      <trkpt lat="43.53167" lon="5.51183">
        <ele>268.1</ele>
        <time>2023-05-28T13:49:58Z</time>
      </trkpt>
      <trkpt lat="43.53167" lon="5.51183">
        <ele>268.1</ele>
        <time>2023-05-28T13:49:59Z</time>
      </trkpt>
      <trkpt lat="43.53167" lon="5.51183">
        <ele>268.1</ele>
        <time>2023-05-28T13:50:00Z</time>
      </trkpt>
      <trkpt lat="43.53167" lon="5.51183">
        <ele>268.1</ele>
        <time>2023-05-28T13:50:01Z</time>
      </trkpt>
      <trkpt lat="43.53167" lon="5.51183">
        <ele>268.1</ele>
        <time>2023-05-28T13:50:02Z</time>
      </trkpt>
      <trkpt lat="43.53167" lon="5.51183">
        <ele>268.1</ele>
        <time>2023-05-28T13:50:03Z</time>
      </trkpt>
      <trkpt lat="43.53167" lon="5.51183">
        <ele>267.9</ele>
        <time>2023-05-28T13:50:04Z</time>
      </trkpt>
      <trkpt lat="43.53167" lon="5.51183">
        <ele>267.9</ele>
        <time>2023-05-28T13:50:05Z</time>
      </trkpt>
      <trkpt lat="43.53167" lon="5.51182">
        <ele>267.8</ele>
        <time>2023-05-28T13:50:06Z</time>
      </trkpt>
      <trkpt lat="43.53167" lon="5.51182">
        <ele>267.8</ele>
        <time>2023-05-28T13:50:07Z</time>
      </trkpt>
      <trkpt lat="43.53167" lon="5.51183">
        <ele>267.7</ele>
        <time>2023-05-28T13:50:08Z</time>
      </trkpt>
      <trkpt lat="43.53167" lon="5.51182">
        <ele>267.7</ele>
        <time>2023-05-28T13:50:09Z</time>
      </trkpt>
      <trkpt lat="43.53167" lon="5.51182">
        <ele>267.7</ele>
        <time>2023-05-28T13:50:10Z</time>
      </trkpt>
      <trkpt lat="43.53167" lon="5.51182">
        <ele>267.7</ele>
        <time>2023-05-28T13:50:11Z</time>
      </trkpt>
      <trkpt lat="43.53167" lon="5.51182">
        <ele>267.7</ele>
        <time>2023-05-28T13:50:12Z</time>
      </trkpt>
      <trkpt lat="43.53167" lon="5.51182">
        <ele>267.8</ele>
        <time>2023-05-28T13:50:13Z</time>
      </trkpt>
      <trkpt lat="43.53167" lon="5.51182">
        <ele>267.8</ele>
        <time>2023-05-28T13:50:14Z</time>
      </trkpt>
      <trkpt lat="43.53166" lon="5.51183">
        <ele>267.8</ele>
        <time>2023-05-28T13:50:15Z</time>
      </trkpt>
      <trkpt lat="43.53166" lon="5.51183">
        <ele>267.9</ele>
        <time>2023-05-28T13:50:16Z</time>
      </trkpt>
      <trkpt lat="43.53166" lon="5.51183">
        <ele>267.9</ele>
        <time>2023-05-28T13:50:17Z</time>
      </trkpt>
      <trkpt lat="43.53166" lon="5.51183">
        <ele>268</ele>
        <time>2023-05-28T13:50:18Z</time>
      </trkpt>
      <trkpt lat="43.53167" lon="5.51183">
        <ele>268</ele>
        <time>2023-05-28T13:50:19Z</time>
      </trkpt>
      <trkpt lat="43.53167" lon="5.51183">
        <ele>268</ele>
        <time>2023-05-28T13:50:20Z</time>
      </trkpt>
      <trkpt lat="43.53167" lon="5.51183">
        <ele>268</ele>
        <time>2023-05-28T13:50:21Z</time>
      </trkpt>
      <trkpt lat="43.53167" lon="5.51183">
        <ele>268</ele>
        <time>2023-05-28T13:50:22Z</time>
      </trkpt>
      <trkpt lat="43.53166" lon="5.51183">
        <ele>268</ele>
        <time>2023-05-28T13:50:23Z</time>
      </trkpt>
      <trkpt lat="43.53166" lon="5.51182">
        <ele>267.9</ele>
        <time>2023-05-28T13:50:24Z</time>
      </trkpt>
      <trkpt lat="43.53166" lon="5.51182">
        <ele>267.9</ele>
        <time>2023-05-28T13:50:25Z</time>
      </trkpt>
      <trkpt lat="43.53166" lon="5.51182">
        <ele>267.9</ele>
        <time>2023-05-28T13:50:26Z</time>
      </trkpt>
      <trkpt lat="43.53166" lon="5.51182">
        <ele>267.9</ele>
        <time>2023-05-28T13:50:27Z</time>
      </trkpt>
      <trkpt lat="43.53166" lon="5.51182">
        <ele>267.9</ele>
        <time>2023-05-28T13:50:28Z</time>
      </trkpt>
      <trkpt lat="43.53166" lon="5.51182">
        <ele>267.8</ele>
        <time>2023-05-28T13:50:29Z</time>
      </trkpt>
      <trkpt lat="43.53166" lon="5.51182">
        <ele>267.8</ele>
        <time>2023-05-28T13:50:30Z</time>
      </trkpt>
      <trkpt lat="43.53166" lon="5.51182">
        <ele>267.8</ele>
        <time>2023-05-28T13:50:31Z</time>
      </trkpt>
      <trkpt lat="43.53166" lon="5.51182">
        <ele>267.7</ele>
        <time>2023-05-28T13:50:32Z</time>
      </trkpt>
      <trkpt lat="43.53166" lon="5.51181">
        <ele>267.7</ele>
        <time>2023-05-28T13:50:33Z</time>
      </trkpt>
      <trkpt lat="43.53167" lon="5.51181">
        <ele>267.7</ele>
        <time>2023-05-28T13:50:34Z</time>
      </trkpt>
      <trkpt lat="43.53167" lon="5.51181">
        <ele>267.6</ele>
        <time>2023-05-28T13:50:35Z</time>
      </trkpt>
      <trkpt lat="43.53167" lon="5.5118">
        <ele>267.6</ele>
        <time>2023-05-28T13:50:36Z</time>
      </trkpt>
      <trkpt lat="43.53167" lon="5.5118">
        <ele>267.5</ele>
        <time>2023-05-28T13:50:37Z</time>
      </trkpt>
      <trkpt lat="43.53167" lon="5.5118">
        <ele>267.5</ele>
        <time>2023-05-28T13:50:38Z</time>
      </trkpt>
      <trkpt lat="43.53167" lon="5.5118">
        <ele>267.5</ele>
        <time>2023-05-28T13:50:39Z</time>
      </trkpt>
      <trkpt lat="43.53167" lon="5.51179">
        <ele>267.5</ele>
        <time>2023-05-28T13:50:40Z</time>
      </trkpt>
      <trkpt lat="43.53167" lon="5.51178">
        <ele>267.4</ele>
        <time>2023-05-28T13:50:41Z</time>
      </trkpt>
      <trkpt lat="43.53167" lon="5.51177">
        <ele>267.3</ele>
        <time>2023-05-28T13:50:42Z</time>
      </trkpt>
      <trkpt lat="43.53167" lon="5.51175">
        <ele>267.3</ele>
        <time>2023-05-28T13:50:43Z</time>
      </trkpt>
      <trkpt lat="43.53167" lon="5.51174">
        <ele>267.3</ele>
        <time>2023-05-28T13:50:44Z</time>
      </trkpt>
      <trkpt lat="43.53168" lon="5.51173">
        <ele>267</ele>
        <time>2023-05-28T13:50:45Z</time>
      </trkpt>
      <trkpt lat="43.53167" lon="5.51172">
        <ele>266.9</ele>
        <time>2023-05-28T13:50:46Z</time>
      </trkpt>
      <trkpt lat="43.53167" lon="5.51171">
        <ele>266.9</ele>
        <time>2023-05-28T13:50:47Z</time>
      </trkpt>
      <trkpt lat="43.53168" lon="5.51171">
        <ele>266.7</ele>
        <time>2023-05-28T13:50:48Z</time>
      </trkpt>
      <trkpt lat="43.53168" lon="5.5117">
        <ele>266.6</ele>
        <time>2023-05-28T13:50:49Z</time>
      </trkpt>
      <trkpt lat="43.53169" lon="5.51169">
        <ele>266.6</ele>
        <time>2023-05-28T13:50:50Z</time>
      </trkpt>
      <trkpt lat="43.53169" lon="5.51168">
        <ele>266.5</ele>
        <time>2023-05-28T13:50:51Z</time>
      </trkpt>
      <trkpt lat="43.5317" lon="5.51167">
        <ele>266.5</ele>
        <time>2023-05-28T13:50:52Z</time>
      </trkpt>
      <trkpt lat="43.5317" lon="5.51165">
        <ele>266.3</ele>
        <time>2023-05-28T13:50:53Z</time>
      </trkpt>
      <trkpt lat="43.53171" lon="5.51164">
        <ele>266.2</ele>
        <time>2023-05-28T13:50:54Z</time>
      </trkpt>
      <trkpt lat="43.53171" lon="5.51163">
        <ele>266.2</ele>
        <time>2023-05-28T13:50:55Z</time>
      </trkpt>
      <trkpt lat="43.53171" lon="5.51161">
        <ele>266.1</ele>
        <time>2023-05-28T13:50:56Z</time>
      </trkpt>
      <trkpt lat="43.53172" lon="5.5116">
        <ele>265.9</ele>
        <time>2023-05-28T13:50:57Z</time>
      </trkpt>
      <trkpt lat="43.53173" lon="5.51159">
        <ele>265.7</ele>
        <time>2023-05-28T13:50:58Z</time>
      </trkpt>
      <trkpt lat="43.53174" lon="5.51158">
        <ele>265.5</ele>
        <time>2023-05-28T13:50:59Z</time>
      </trkpt>
      <trkpt lat="43.53174" lon="5.51156">
        <ele>265.4</ele>
        <time>2023-05-28T13:51:00Z</time>
      </trkpt>
      <trkpt lat="43.53174" lon="5.51155">
        <ele>265.2</ele>
        <time>2023-05-28T13:51:01Z</time>
      </trkpt>
      <trkpt lat="43.53174" lon="5.51153">
        <ele>265.1</ele>
        <time>2023-05-28T13:51:02Z</time>
      </trkpt>
      <trkpt lat="43.53174" lon="5.51151">
        <ele>264.9</ele>
        <time>2023-05-28T13:51:03Z</time>
      </trkpt>
      <trkpt lat="43.53174" lon="5.5115">
        <ele>264.9</ele>
        <time>2023-05-28T13:51:04Z</time>
      </trkpt>
      <trkpt lat="43.53174" lon="5.51148">
        <ele>264.7</ele>
        <time>2023-05-28T13:51:05Z</time>
      </trkpt>
      <trkpt lat="43.53174" lon="5.51147">
        <ele>264.7</ele>
        <time>2023-05-28T13:51:06Z</time>
      </trkpt>
      <trkpt lat="43.53174" lon="5.51145">
        <ele>264.7</ele>
        <time>2023-05-28T13:51:07Z</time>
      </trkpt>
      <trkpt lat="43.53174" lon="5.51143">
        <ele>264.6</ele>
        <time>2023-05-28T13:51:08Z</time>
      </trkpt>
      <trkpt lat="43.53173" lon="5.51142">
        <ele>264.7</ele>
        <time>2023-05-28T13:51:09Z</time>
      </trkpt>
      <trkpt lat="43.53173" lon="5.5114">
        <ele>264.8</ele>
        <time>2023-05-28T13:51:10Z</time>
      </trkpt>
      <trkpt lat="43.53172" lon="5.51139">
        <ele>264.9</ele>
        <time>2023-05-28T13:51:11Z</time>
      </trkpt>
      <trkpt lat="43.53171" lon="5.51138">
        <ele>265</ele>
        <time>2023-05-28T13:51:12Z</time>
      </trkpt>
      <trkpt lat="43.53171" lon="5.51136">
        <ele>265.1</ele>
        <time>2023-05-28T13:51:13Z</time>
      </trkpt>
      <trkpt lat="43.5317" lon="5.51135">
        <ele>265.2</ele>
        <time>2023-05-28T13:51:14Z</time>
      </trkpt>
      <trkpt lat="43.5317" lon="5.51134">
        <ele>265.2</ele>
        <time>2023-05-28T13:51:15Z</time>
      </trkpt>
      <trkpt lat="43.5317" lon="5.51132">
        <ele>265.1</ele>
        <time>2023-05-28T13:51:16Z</time>
      </trkpt>
      <trkpt lat="43.53169" lon="5.51131">
        <ele>265.1</ele>
        <time>2023-05-28T13:51:17Z</time>
      </trkpt>
      <trkpt lat="43.53169" lon="5.51129">
        <ele>265.1</ele>
        <time>2023-05-28T13:51:18Z</time>
      </trkpt>
      <trkpt lat="43.53168" lon="5.51127">
        <ele>265.1</ele>
        <time>2023-05-28T13:51:19Z</time>
      </trkpt>
      <trkpt lat="43.53168" lon="5.51126">
        <ele>265.2</ele>
        <time>2023-05-28T13:51:20Z</time>
      </trkpt>
      <trkpt lat="43.53168" lon="5.51124">
        <ele>265.2</ele>
        <time>2023-05-28T13:51:21Z</time>
      </trkpt>
      <trkpt lat="43.53168" lon="5.51122">
        <ele>265.2</ele>
        <time>2023-05-28T13:51:22Z</time>
      </trkpt>
      <trkpt lat="43.53168" lon="5.51121">
        <ele>265.2</ele>
        <time>2023-05-28T13:51:23Z</time>
      </trkpt>
      <trkpt lat="43.53168" lon="5.51119">
        <ele>265.2</ele>
        <time>2023-05-28T13:51:24Z</time>
      </trkpt>
      <trkpt lat="43.53167" lon="5.51118">
        <ele>265.1</ele>
        <time>2023-05-28T13:51:25Z</time>
      </trkpt>
      <trkpt lat="43.53167" lon="5.51116">
        <ele>265.1</ele>
        <time>2023-05-28T13:51:26Z</time>
      </trkpt>
      <trkpt lat="43.53168" lon="5.51115">
        <ele>265</ele>
        <time>2023-05-28T13:51:27Z</time>
      </trkpt>
      <trkpt lat="43.53168" lon="5.51113">
        <ele>265</ele>
        <time>2023-05-28T13:51:28Z</time>
      </trkpt>
      <trkpt lat="43.53168" lon="5.51112">
        <ele>264.8</ele>
        <time>2023-05-28T13:51:29Z</time>
      </trkpt>
      <trkpt lat="43.53168" lon="5.51112">
        <ele>264.6</ele>
        <time>2023-05-28T13:51:30Z</time>
      </trkpt>
      <trkpt lat="43.53168" lon="5.5111">
        <ele>264.3</ele>
        <time>2023-05-28T13:51:31Z</time>
      </trkpt>
      <trkpt lat="43.53169" lon="5.51109">
        <ele>264.1</ele>
        <time>2023-05-28T13:51:32Z</time>
      </trkpt>
      <trkpt lat="43.53169" lon="5.51108">
        <ele>263.9</ele>
        <time>2023-05-28T13:51:33Z</time>
      </trkpt>
      <trkpt lat="43.53169" lon="5.51106">
        <ele>263.7</ele>
        <time>2023-05-28T13:51:34Z</time>
      </trkpt>
      <trkpt lat="43.5317" lon="5.51104">
        <ele>263.5</ele>
        <time>2023-05-28T13:51:35Z</time>
      </trkpt>
      <trkpt lat="43.5317" lon="5.51103">
        <ele>263.3</ele>
        <time>2023-05-28T13:51:36Z</time>
      </trkpt>
      <trkpt lat="43.5317" lon="5.51101">
        <ele>263.2</ele>
        <time>2023-05-28T13:51:37Z</time>
      </trkpt>
      <trkpt lat="43.5317" lon="5.511">
        <ele>263.1</ele>
        <time>2023-05-28T13:51:38Z</time>
      </trkpt>
      <trkpt lat="43.5317" lon="5.51098">
        <ele>263.1</ele>
        <time>2023-05-28T13:51:39Z</time>
      </trkpt>
      <trkpt lat="43.5317" lon="5.51097">
        <ele>263.1</ele>
        <time>2023-05-28T13:51:40Z</time>
      </trkpt>
      <trkpt lat="43.53171" lon="5.51096">
        <ele>263</ele>
        <time>2023-05-28T13:51:41Z</time>
      </trkpt>
      <trkpt lat="43.53171" lon="5.51094">
        <ele>262.9</ele>
        <time>2023-05-28T13:51:42Z</time>
      </trkpt>
      <trkpt lat="43.53171" lon="5.51093">
        <ele>262.7</ele>
        <time>2023-05-28T13:51:43Z</time>
      </trkpt>
      <trkpt lat="43.53171" lon="5.51092">
        <ele>262.5</ele>
        <time>2023-05-28T13:51:44Z</time>
      </trkpt>
      <trkpt lat="43.53172" lon="5.51092">
        <ele>262.3</ele>
        <time>2023-05-28T13:51:45Z</time>
      </trkpt>
      <trkpt lat="43.53172" lon="5.51091">
        <ele>262.2</ele>
        <time>2023-05-28T13:51:46Z</time>
      </trkpt>
      <trkpt lat="43.53173" lon="5.5109">
        <ele>262.1</ele>
        <time>2023-05-28T13:51:47Z</time>
      </trkpt>
      <trkpt lat="43.53173" lon="5.5109">
        <ele>261.9</ele>
        <time>2023-05-28T13:51:48Z</time>
      </trkpt>
      <trkpt lat="43.53173" lon="5.5109">
        <ele>261.8</ele>
        <time>2023-05-28T13:51:49Z</time>
      </trkpt>
      <trkpt lat="43.53174" lon="5.5109">
        <ele>261.6</ele>
        <time>2023-05-28T13:51:50Z</time>
      </trkpt>
      <trkpt lat="43.53174" lon="5.5109">
        <ele>261.4</ele>
        <time>2023-05-28T13:51:51Z</time>
      </trkpt>
      <trkpt lat="43.53174" lon="5.51089">
        <ele>261.3</ele>
        <time>2023-05-28T13:51:52Z</time>
      </trkpt>
      <trkpt lat="43.53174" lon="5.51089">
        <ele>261.2</ele>
        <time>2023-05-28T13:51:53Z</time>
      </trkpt>
      <trkpt lat="43.53174" lon="5.51089">
        <ele>261.1</ele>
        <time>2023-05-28T13:51:54Z</time>
      </trkpt>
      <trkpt lat="43.53174" lon="5.51089">
        <ele>261</ele>
        <time>2023-05-28T13:51:55Z</time>
      </trkpt>
      <trkpt lat="43.53174" lon="5.51089">
        <ele>260.9</ele>
        <time>2023-05-28T13:51:56Z</time>
      </trkpt>
      <trkpt lat="43.53174" lon="5.51089">
        <ele>260.9</ele>
        <time>2023-05-28T13:51:57Z</time>
      </trkpt>
      <trkpt lat="43.53174" lon="5.51088">
        <ele>261</ele>
        <time>2023-05-28T13:51:58Z</time>
      </trkpt>
      <trkpt lat="43.53174" lon="5.51087">
        <ele>261</ele>
        <time>2023-05-28T13:51:59Z</time>
      </trkpt>
      <trkpt lat="43.53174" lon="5.51086">
        <ele>260.9</ele>
        <time>2023-05-28T13:52:00Z</time>
      </trkpt>
      <trkpt lat="43.53174" lon="5.51085">
        <ele>260.7</ele>
        <time>2023-05-28T13:52:01Z</time>
      </trkpt>
      <trkpt lat="43.53174" lon="5.51083">
        <ele>260.5</ele>
        <time>2023-05-28T13:52:02Z</time>
      </trkpt>
      <trkpt lat="43.53175" lon="5.51082">
        <ele>260.4</ele>
        <time>2023-05-28T13:52:03Z</time>
      </trkpt>
      <trkpt lat="43.53175" lon="5.51081">
        <ele>260.2</ele>
        <time>2023-05-28T13:52:04Z</time>
      </trkpt>
      <trkpt lat="43.53176" lon="5.5108">
        <ele>260.1</ele>
        <time>2023-05-28T13:52:05Z</time>
      </trkpt>
      <trkpt lat="43.53176" lon="5.5108">
        <ele>259.9</ele>
        <time>2023-05-28T13:52:06Z</time>
      </trkpt>
      <trkpt lat="43.53177" lon="5.5108">
        <ele>259.7</ele>
        <time>2023-05-28T13:52:07Z</time>
      </trkpt>
      <trkpt lat="43.53178" lon="5.5108">
        <ele>259.5</ele>
        <time>2023-05-28T13:52:08Z</time>
      </trkpt>
      <trkpt lat="43.53179" lon="5.5108">
        <ele>259.3</ele>
        <time>2023-05-28T13:52:09Z</time>
      </trkpt>
      <trkpt lat="43.5318" lon="5.51081">
        <ele>259</ele>
        <time>2023-05-28T13:52:10Z</time>
      </trkpt>
      <trkpt lat="43.53181" lon="5.51081">
        <ele>258.8</ele>
        <time>2023-05-28T13:52:11Z</time>
      </trkpt>
      <trkpt lat="43.53182" lon="5.51081">
        <ele>258.7</ele>
        <time>2023-05-28T13:52:12Z</time>
      </trkpt>
      <trkpt lat="43.53183" lon="5.51082">
        <ele>258.5</ele>
        <time>2023-05-28T13:52:13Z</time>
      </trkpt>
      <trkpt lat="43.53183" lon="5.51082">
        <ele>258.4</ele>
        <time>2023-05-28T13:52:14Z</time>
      </trkpt>
      <trkpt lat="43.53184" lon="5.51082">
        <ele>258.3</ele>
        <time>2023-05-28T13:52:15Z</time>
      </trkpt>
      <trkpt lat="43.53185" lon="5.51083">
        <ele>258.2</ele>
        <time>2023-05-28T13:52:16Z</time>
      </trkpt>
      <trkpt lat="43.53185" lon="5.51084">
        <ele>257.9</ele>
        <time>2023-05-28T13:52:17Z</time>
      </trkpt>
      <trkpt lat="43.53186" lon="5.51085">
        <ele>257.8</ele>
        <time>2023-05-28T13:52:18Z</time>
      </trkpt>
      <trkpt lat="43.53186" lon="5.51085">
        <ele>257.7</ele>
        <time>2023-05-28T13:52:19Z</time>
      </trkpt>
      <trkpt lat="43.53187" lon="5.51086">
        <ele>257.6</ele>
        <time>2023-05-28T13:52:20Z</time>
      </trkpt>
      <trkpt lat="43.53188" lon="5.51086">
        <ele>257.4</ele>
        <time>2023-05-28T13:52:21Z</time>
      </trkpt>
      <trkpt lat="43.53189" lon="5.51087">
        <ele>257.3</ele>
        <time>2023-05-28T13:52:22Z</time>
      </trkpt>
      <trkpt lat="43.5319" lon="5.51087">
        <ele>257.2</ele>
        <time>2023-05-28T13:52:23Z</time>
      </trkpt>
      <trkpt lat="43.5319" lon="5.51087">
        <ele>257.1</ele>
        <time>2023-05-28T13:52:24Z</time>
      </trkpt>
      <trkpt lat="43.53191" lon="5.51088">
        <ele>257</ele>
        <time>2023-05-28T13:52:25Z</time>
      </trkpt>
      <trkpt lat="43.53191" lon="5.51087">
        <ele>256.9</ele>
        <time>2023-05-28T13:52:26Z</time>
      </trkpt>
      <trkpt lat="43.53192" lon="5.51088">
        <ele>256.8</ele>
        <time>2023-05-28T13:52:27Z</time>
      </trkpt>
      <trkpt lat="43.53192" lon="5.51088">
        <ele>256.6</ele>
        <time>2023-05-28T13:52:28Z</time>
      </trkpt>
      <trkpt lat="43.53193" lon="5.51089">
        <ele>256.4</ele>
        <time>2023-05-28T13:52:29Z</time>
      </trkpt>
      <trkpt lat="43.53193" lon="5.5109">
        <ele>256.1</ele>
        <time>2023-05-28T13:52:30Z</time>
      </trkpt>
      <trkpt lat="43.53193" lon="5.51091">
        <ele>255.9</ele>
        <time>2023-05-28T13:52:31Z</time>
      </trkpt>
      <trkpt lat="43.53194" lon="5.51092">
        <ele>255.7</ele>
        <time>2023-05-28T13:52:32Z</time>
      </trkpt>
      <trkpt lat="43.53194" lon="5.51093">
        <ele>255.6</ele>
        <time>2023-05-28T13:52:33Z</time>
      </trkpt>
      <trkpt lat="43.53195" lon="5.51093">
        <ele>255.5</ele>
        <time>2023-05-28T13:52:34Z</time>
      </trkpt>
      <trkpt lat="43.53196" lon="5.51094">
        <ele>255.2</ele>
        <time>2023-05-28T13:52:35Z</time>
      </trkpt>
      <trkpt lat="43.53196" lon="5.51095">
        <ele>255</ele>
        <time>2023-05-28T13:52:36Z</time>
      </trkpt>
      <trkpt lat="43.53196" lon="5.51096">
        <ele>254.9</ele>
        <time>2023-05-28T13:52:37Z</time>
      </trkpt>
      <trkpt lat="43.53197" lon="5.51097">
        <ele>254.7</ele>
        <time>2023-05-28T13:52:38Z</time>
      </trkpt>
      <trkpt lat="43.53197" lon="5.51098">
        <ele>254.5</ele>
        <time>2023-05-28T13:52:39Z</time>
      </trkpt>
      <trkpt lat="43.53197" lon="5.51099">
        <ele>254.3</ele>
        <time>2023-05-28T13:52:40Z</time>
      </trkpt>
      <trkpt lat="43.53197" lon="5.51099">
        <ele>254.2</ele>
        <time>2023-05-28T13:52:41Z</time>
      </trkpt>
      <trkpt lat="43.53197" lon="5.511">
        <ele>254</ele>
        <time>2023-05-28T13:52:42Z</time>
      </trkpt>
      <trkpt lat="43.53197" lon="5.511">
        <ele>253.6</ele>
        <time>2023-05-28T13:52:43Z</time>
      </trkpt>
      <trkpt lat="43.53197" lon="5.51101">
        <ele>253.5</ele>
        <time>2023-05-28T13:52:44Z</time>
      </trkpt>
      <trkpt lat="43.53197" lon="5.51101">
        <ele>253.4</ele>
        <time>2023-05-28T13:52:45Z</time>
      </trkpt>
      <trkpt lat="43.53197" lon="5.51102">
        <ele>253.4</ele>
        <time>2023-05-28T13:52:46Z</time>
      </trkpt>
      <trkpt lat="43.53197" lon="5.51102">
        <ele>253.3</ele>
        <time>2023-05-28T13:52:47Z</time>
      </trkpt>
      <trkpt lat="43.53197" lon="5.51102">
        <ele>253.3</ele>
        <time>2023-05-28T13:52:48Z</time>
      </trkpt>
      <trkpt lat="43.53198" lon="5.51102">
        <ele>253.3</ele>
        <time>2023-05-28T13:52:49Z</time>
      </trkpt>
      <trkpt lat="43.53198" lon="5.51103">
        <ele>253.3</ele>
        <time>2023-05-28T13:52:50Z</time>
      </trkpt>
      <trkpt lat="43.53198" lon="5.51103">
        <ele>253.3</ele>
        <time>2023-05-28T13:52:51Z</time>
      </trkpt>
      <trkpt lat="43.53198" lon="5.51104">
        <ele>253.3</ele>
        <time>2023-05-28T13:52:52Z</time>
      </trkpt>
      <trkpt lat="43.53198" lon="5.51105">
        <ele>253.1</ele>
        <time>2023-05-28T13:52:53Z</time>
      </trkpt>
      <trkpt lat="43.53199" lon="5.51106">
        <ele>253</ele>
        <time>2023-05-28T13:52:54Z</time>
      </trkpt>
      <trkpt lat="43.53199" lon="5.51107">
        <ele>252.8</ele>
        <time>2023-05-28T13:52:55Z</time>
      </trkpt>
      <trkpt lat="43.53199" lon="5.51107">
        <ele>252.6</ele>
        <time>2023-05-28T13:52:56Z</time>
      </trkpt>
      <trkpt lat="43.53199" lon="5.51106">
        <ele>252.4</ele>
        <time>2023-05-28T13:52:57Z</time>
      </trkpt>
      <trkpt lat="43.53199" lon="5.51106">
        <ele>252.3</ele>
        <time>2023-05-28T13:52:58Z</time>
      </trkpt>
      <trkpt lat="43.53198" lon="5.51107">
        <ele>252.3</ele>
        <time>2023-05-28T13:52:59Z</time>
      </trkpt>
      <trkpt lat="43.53198" lon="5.51108">
        <ele>252.2</ele>
        <time>2023-05-28T13:53:00Z</time>
      </trkpt>
      <trkpt lat="43.53198" lon="5.51108">
        <ele>252.4</ele>
        <time>2023-05-28T13:53:01Z</time>
      </trkpt>
      <trkpt lat="43.53199" lon="5.5111">
        <ele>252.4</ele>
        <time>2023-05-28T13:53:02Z</time>
      </trkpt>
      <trkpt lat="43.53199" lon="5.51111">
        <ele>252.5</ele>
        <time>2023-05-28T13:53:03Z</time>
      </trkpt>
      <trkpt lat="43.53199" lon="5.51112">
        <ele>252.4</ele>
        <time>2023-05-28T13:53:04Z</time>
      </trkpt>
      <trkpt lat="43.53199" lon="5.51113">
        <ele>252.3</ele>
        <time>2023-05-28T13:53:05Z</time>
      </trkpt>
      <trkpt lat="43.53199" lon="5.51114">
        <ele>252.4</ele>
        <time>2023-05-28T13:53:06Z</time>
      </trkpt>
      <trkpt lat="43.53198" lon="5.51115">
        <ele>252.3</ele>
        <time>2023-05-28T13:53:07Z</time>
      </trkpt>
      <trkpt lat="43.53197" lon="5.51116">
        <ele>252.1</ele>
        <time>2023-05-28T13:53:08Z</time>
      </trkpt>
      <trkpt lat="43.53198" lon="5.51117">
        <ele>252.2</ele>
        <time>2023-05-28T13:53:09Z</time>
      </trkpt>
      <trkpt lat="43.53198" lon="5.51118">
        <ele>252.4</ele>
        <time>2023-05-28T13:53:10Z</time>
      </trkpt>
      <trkpt lat="43.53198" lon="5.51119">
        <ele>252.5</ele>
        <time>2023-05-28T13:53:11Z</time>
      </trkpt>
      <trkpt lat="43.53199" lon="5.5112">
        <ele>252.5</ele>
        <time>2023-05-28T13:53:12Z</time>
      </trkpt>
      <trkpt lat="43.532" lon="5.51121">
        <ele>252.6</ele>
        <time>2023-05-28T13:53:13Z</time>
      </trkpt>
      <trkpt lat="43.53201" lon="5.51121">
        <ele>252.6</ele>
        <time>2023-05-28T13:53:14Z</time>
      </trkpt>
      <trkpt lat="43.53202" lon="5.51122">
        <ele>252.6</ele>
        <time>2023-05-28T13:53:15Z</time>
      </trkpt>
      <trkpt lat="43.53203" lon="5.51122">
        <ele>252.6</ele>
        <time>2023-05-28T13:53:16Z</time>
      </trkpt>
      <trkpt lat="43.53203" lon="5.51123">
        <ele>252.6</ele>
        <time>2023-05-28T13:53:17Z</time>
      </trkpt>
      <trkpt lat="43.53204" lon="5.51123">
        <ele>252.6</ele>
        <time>2023-05-28T13:53:18Z</time>
      </trkpt>
      <trkpt lat="43.53205" lon="5.51124">
        <ele>252.6</ele>
        <time>2023-05-28T13:53:19Z</time>
      </trkpt>
      <trkpt lat="43.53205" lon="5.51124">
        <ele>252.6</ele>
        <time>2023-05-28T13:53:20Z</time>
      </trkpt>
      <trkpt lat="43.53205" lon="5.51124">
        <ele>252.6</ele>
        <time>2023-05-28T13:53:21Z</time>
      </trkpt>
      <trkpt lat="43.53205" lon="5.51125">
        <ele>252.6</ele>
        <time>2023-05-28T13:53:22Z</time>
      </trkpt>
      <trkpt lat="43.53206" lon="5.51125">
        <ele>252.5</ele>
        <time>2023-05-28T13:53:23Z</time>
      </trkpt>
      <trkpt lat="43.53205" lon="5.51125">
        <ele>252.5</ele>
        <time>2023-05-28T13:53:24Z</time>
      </trkpt>
      <trkpt lat="43.53205" lon="5.51125">
        <ele>252.5</ele>
        <time>2023-05-28T13:53:25Z</time>
      </trkpt>
      <trkpt lat="43.53205" lon="5.51125">
        <ele>252.5</ele>
        <time>2023-05-28T13:53:26Z</time>
      </trkpt>
      <trkpt lat="43.53206" lon="5.51125">
        <ele>252.5</ele>
        <time>2023-05-28T13:53:27Z</time>
      </trkpt>
      <trkpt lat="43.53206" lon="5.51125">
        <ele>252.5</ele>
        <time>2023-05-28T13:53:28Z</time>
      </trkpt>
      <trkpt lat="43.53206" lon="5.51125">
        <ele>252.4</ele>
        <time>2023-05-28T13:53:29Z</time>
      </trkpt>
      <trkpt lat="43.53206" lon="5.51125">
        <ele>252.4</ele>
        <time>2023-05-28T13:53:30Z</time>
      </trkpt>
      <trkpt lat="43.53206" lon="5.51125">
        <ele>252.5</ele>
        <time>2023-05-28T13:53:31Z</time>
      </trkpt>
      <trkpt lat="43.53206" lon="5.51124">
        <ele>252.5</ele>
        <time>2023-05-28T13:53:32Z</time>
      </trkpt>
      <trkpt lat="43.53206" lon="5.51124">
        <ele>252.5</ele>
        <time>2023-05-28T13:53:33Z</time>
      </trkpt>
      <trkpt lat="43.53206" lon="5.51124">
        <ele>252.5</ele>
        <time>2023-05-28T13:53:34Z</time>
      </trkpt>
      <trkpt lat="43.53206" lon="5.51124">
        <ele>252.5</ele>
        <time>2023-05-28T13:53:35Z</time>
      </trkpt>
      <trkpt lat="43.53206" lon="5.51124">
        <ele>252.4</ele>
        <time>2023-05-28T13:53:36Z</time>
      </trkpt>
      <trkpt lat="43.53206" lon="5.51124">
        <ele>252.3</ele>
        <time>2023-05-28T13:53:37Z</time>
      </trkpt>
      <trkpt lat="43.53206" lon="5.51124">
        <ele>252.3</ele>
        <time>2023-05-28T13:53:38Z</time>
      </trkpt>
      <trkpt lat="43.53206" lon="5.51124">
        <ele>252.1</ele>
        <time>2023-05-28T13:53:39Z</time>
      </trkpt>
      <trkpt lat="43.53206" lon="5.51124">
        <ele>252</ele>
        <time>2023-05-28T13:53:40Z</time>
      </trkpt>
      <trkpt lat="43.53206" lon="5.51124">
        <ele>251.9</ele>
        <time>2023-05-28T13:53:41Z</time>
      </trkpt>
      <trkpt lat="43.53206" lon="5.51124">
        <ele>251.9</ele>
        <time>2023-05-28T13:53:42Z</time>
      </trkpt>
      <trkpt lat="43.53206" lon="5.51124">
        <ele>251.9</ele>
        <time>2023-05-28T13:53:43Z</time>
      </trkpt>
      <trkpt lat="43.53206" lon="5.51123">
        <ele>251.8</ele>
        <time>2023-05-28T13:53:44Z</time>
      </trkpt>
      <trkpt lat="43.53206" lon="5.51123">
        <ele>251.7</ele>
        <time>2023-05-28T13:53:45Z</time>
      </trkpt>
      <trkpt lat="43.53206" lon="5.51123">
        <ele>251.7</ele>
        <time>2023-05-28T13:53:46Z</time>
      </trkpt>
      <trkpt lat="43.53206" lon="5.51124">
        <ele>251.7</ele>
        <time>2023-05-28T13:53:47Z</time>
      </trkpt>
      <trkpt lat="43.53206" lon="5.51124">
        <ele>251.6</ele>
        <time>2023-05-28T13:53:48Z</time>
      </trkpt>
      <trkpt lat="43.53206" lon="5.51124">
        <ele>251.6</ele>
        <time>2023-05-28T13:53:49Z</time>
      </trkpt>
      <trkpt lat="43.53206" lon="5.51123">
        <ele>251.6</ele>
        <time>2023-05-28T13:53:50Z</time>
      </trkpt>
      <trkpt lat="43.53206" lon="5.51123">
        <ele>251.7</ele>
        <time>2023-05-28T13:53:51Z</time>
      </trkpt>
      <trkpt lat="43.53205" lon="5.51123">
        <ele>251.7</ele>
        <time>2023-05-28T13:53:52Z</time>
      </trkpt>
      <trkpt lat="43.53205" lon="5.51123">
        <ele>251.7</ele>
        <time>2023-05-28T13:53:53Z</time>
      </trkpt>
      <trkpt lat="43.53205" lon="5.51123">
        <ele>251.7</ele>
        <time>2023-05-28T13:53:54Z</time>
      </trkpt>
      <trkpt lat="43.53205" lon="5.51123">
        <ele>251.6</ele>
        <time>2023-05-28T13:53:55Z</time>
      </trkpt>
      <trkpt lat="43.53204" lon="5.51122">
        <ele>251.7</ele>
        <time>2023-05-28T13:53:56Z</time>
      </trkpt>
      <trkpt lat="43.53205" lon="5.51123">
        <ele>251.7</ele>
        <time>2023-05-28T13:53:57Z</time>
      </trkpt>
      <trkpt lat="43.53205" lon="5.51123">
        <ele>251.7</ele>
        <time>2023-05-28T13:53:58Z</time>
      </trkpt>
      <trkpt lat="43.53204" lon="5.51123">
        <ele>251.7</ele>
        <time>2023-05-28T13:53:59Z</time>
      </trkpt>
      <trkpt lat="43.53205" lon="5.51123">
        <ele>251.8</ele>
        <time>2023-05-28T13:54:00Z</time>
      </trkpt>
      <trkpt lat="43.53205" lon="5.51124">
        <ele>251.9</ele>
        <time>2023-05-28T13:54:01Z</time>
      </trkpt>
      <trkpt lat="43.53205" lon="5.51124">
        <ele>251.9</ele>
        <time>2023-05-28T13:54:02Z</time>
      </trkpt>
      <trkpt lat="43.53205" lon="5.51124">
        <ele>251.9</ele>
        <time>2023-05-28T13:54:03Z</time>
      </trkpt>
      <trkpt lat="43.53205" lon="5.51125">
        <ele>251.9</ele>
        <time>2023-05-28T13:54:04Z</time>
      </trkpt>
      <trkpt lat="43.53205" lon="5.51125">
        <ele>252</ele>
        <time>2023-05-28T13:54:05Z</time>
      </trkpt>
      <trkpt lat="43.53205" lon="5.51125">
        <ele>252</ele>
        <time>2023-05-28T13:54:06Z</time>
      </trkpt>
      <trkpt lat="43.53205" lon="5.51125">
        <ele>252</ele>
        <time>2023-05-28T13:54:07Z</time>
      </trkpt>
      <trkpt lat="43.53205" lon="5.51125">
        <ele>252.1</ele>
        <time>2023-05-28T13:54:08Z</time>
      </trkpt>
      <trkpt lat="43.53205" lon="5.51125">
        <ele>252.1</ele>
        <time>2023-05-28T13:54:09Z</time>
      </trkpt>
      <trkpt lat="43.53205" lon="5.51125">
        <ele>252.1</ele>
        <time>2023-05-28T13:54:10Z</time>
      </trkpt>
      <trkpt lat="43.53205" lon="5.51125">
        <ele>252.2</ele>
        <time>2023-05-28T13:54:11Z</time>
      </trkpt>
      <trkpt lat="43.53205" lon="5.51126">
        <ele>252.2</ele>
        <time>2023-05-28T13:54:12Z</time>
      </trkpt>
      <trkpt lat="43.53205" lon="5.51126">
        <ele>252.3</ele>
        <time>2023-05-28T13:54:13Z</time>
      </trkpt>
      <trkpt lat="43.53205" lon="5.51126">
        <ele>252.3</ele>
        <time>2023-05-28T13:54:14Z</time>
      </trkpt>
      <trkpt lat="43.53205" lon="5.51126">
        <ele>252.3</ele>
        <time>2023-05-28T13:54:15Z</time>
      </trkpt>
      <trkpt lat="43.53205" lon="5.51126">
        <ele>252.3</ele>
        <time>2023-05-28T13:54:16Z</time>
      </trkpt>
      <trkpt lat="43.53205" lon="5.51126">
        <ele>252.4</ele>
        <time>2023-05-28T13:54:17Z</time>
      </trkpt>
      <trkpt lat="43.53205" lon="5.51126">
        <ele>252.4</ele>
        <time>2023-05-28T13:54:18Z</time>
      </trkpt>
      <trkpt lat="43.53205" lon="5.51126">
        <ele>252.4</ele>
        <time>2023-05-28T13:54:19Z</time>
      </trkpt>
      <trkpt lat="43.53205" lon="5.51127">
        <ele>252.4</ele>
        <time>2023-05-28T13:54:20Z</time>
      </trkpt>
      <trkpt lat="43.53205" lon="5.51126">
        <ele>252.5</ele>
        <time>2023-05-28T13:54:21Z</time>
      </trkpt>
      <trkpt lat="43.53205" lon="5.51126">
        <ele>252.5</ele>
        <time>2023-05-28T13:54:22Z</time>
      </trkpt>
      <trkpt lat="43.53205" lon="5.51126">
        <ele>252.5</ele>
        <time>2023-05-28T13:54:23Z</time>
      </trkpt>
      <trkpt lat="43.53205" lon="5.51126">
        <ele>252.5</ele>
        <time>2023-05-28T13:54:24Z</time>
      </trkpt>
      <trkpt lat="43.53205" lon="5.51126">
        <ele>252.4</ele>
        <time>2023-05-28T13:54:25Z</time>
      </trkpt>
      <trkpt lat="43.53204" lon="5.51126">
        <ele>252.3</ele>
        <time>2023-05-28T13:54:26Z</time>
      </trkpt>
      <trkpt lat="43.53204" lon="5.51126">
        <ele>252.2</ele>
        <time>2023-05-28T13:54:27Z</time>
      </trkpt>
      <trkpt lat="43.53204" lon="5.51126">
        <ele>252.1</ele>
        <time>2023-05-28T13:54:28Z</time>
      </trkpt>
      <trkpt lat="43.53204" lon="5.51126">
        <ele>252</ele>
        <time>2023-05-28T13:54:29Z</time>
      </trkpt>
      <trkpt lat="43.53204" lon="5.51126">
        <ele>252.1</ele>
        <time>2023-05-28T13:54:30Z</time>
      </trkpt>
      <trkpt lat="43.53204" lon="5.51126">
        <ele>252.1</ele>
        <time>2023-05-28T13:54:31Z</time>
      </trkpt>
      <trkpt lat="43.53204" lon="5.51126">
        <ele>252.2</ele>
        <time>2023-05-28T13:54:32Z</time>
      </trkpt>
      <trkpt lat="43.53205" lon="5.51126">
        <ele>252.3</ele>
        <time>2023-05-28T13:54:33Z</time>
      </trkpt>
      <trkpt lat="43.53206" lon="5.51127">
        <ele>252.3</ele>
        <time>2023-05-28T13:54:34Z</time>
      </trkpt>
      <trkpt lat="43.53207" lon="5.51128">
        <ele>252.4</ele>
        <time>2023-05-28T13:54:35Z</time>
      </trkpt>
      <trkpt lat="43.53208" lon="5.51129">
        <ele>252.5</ele>
        <time>2023-05-28T13:54:36Z</time>
      </trkpt>
      <trkpt lat="43.53208" lon="5.51129">
        <ele>252.5</ele>
        <time>2023-05-28T13:54:37Z</time>
      </trkpt>
      <trkpt lat="43.53208" lon="5.51129">
        <ele>252.6</ele>
        <time>2023-05-28T13:54:38Z</time>
      </trkpt>
      <trkpt lat="43.53208" lon="5.51129">
        <ele>252.6</ele>
        <time>2023-05-28T13:54:39Z</time>
      </trkpt>
      <trkpt lat="43.53209" lon="5.51129">
        <ele>252.6</ele>
        <time>2023-05-28T13:54:40Z</time>
      </trkpt>
      <trkpt lat="43.53209" lon="5.51129">
        <ele>252.6</ele>
        <time>2023-05-28T13:54:41Z</time>
      </trkpt>
      <trkpt lat="43.53209" lon="5.51129">
        <ele>252.6</ele>
        <time>2023-05-28T13:54:42Z</time>
      </trkpt>
      <trkpt lat="43.53209" lon="5.51129">
        <ele>252.7</ele>
        <time>2023-05-28T13:54:43Z</time>
      </trkpt>
      <trkpt lat="43.5321" lon="5.51129">
        <ele>252.8</ele>
        <time>2023-05-28T13:54:44Z</time>
      </trkpt>
      <trkpt lat="43.5321" lon="5.51129">
        <ele>252.8</ele>
        <time>2023-05-28T13:54:45Z</time>
      </trkpt>
      <trkpt lat="43.5321" lon="5.51129">
        <ele>252.9</ele>
        <time>2023-05-28T13:54:46Z</time>
      </trkpt>
      <trkpt lat="43.5321" lon="5.51129">
        <ele>252.9</ele>
        <time>2023-05-28T13:54:47Z</time>
      </trkpt>
      <trkpt lat="43.53211" lon="5.51129">
        <ele>252.9</ele>
        <time>2023-05-28T13:54:48Z</time>
      </trkpt>
      <trkpt lat="43.53211" lon="5.51129">
        <ele>252.9</ele>
        <time>2023-05-28T13:54:49Z</time>
      </trkpt>
      <trkpt lat="43.53211" lon="5.51129">
        <ele>252.9</ele>
        <time>2023-05-28T13:54:50Z</time>
      </trkpt>
      <trkpt lat="43.53211" lon="5.51129">
        <ele>252.9</ele>
        <time>2023-05-28T13:54:51Z</time>
      </trkpt>
      <trkpt lat="43.53211" lon="5.51129">
        <ele>253</ele>
        <time>2023-05-28T13:54:52Z</time>
      </trkpt>
      <trkpt lat="43.53211" lon="5.51129">
        <ele>253</ele>
        <time>2023-05-28T13:54:53Z</time>
      </trkpt>
      <trkpt lat="43.53212" lon="5.51129">
        <ele>252.9</ele>
        <time>2023-05-28T13:54:54Z</time>
      </trkpt>
      <trkpt lat="43.53212" lon="5.5113">
        <ele>252.9</ele>
        <time>2023-05-28T13:54:55Z</time>
      </trkpt>
      <trkpt lat="43.53213" lon="5.51131">
        <ele>252.9</ele>
        <time>2023-05-28T13:54:56Z</time>
      </trkpt>
      <trkpt lat="43.53214" lon="5.51131">
        <ele>252.8</ele>
        <time>2023-05-28T13:54:57Z</time>
      </trkpt>
      <trkpt lat="43.53214" lon="5.51132">
        <ele>252.8</ele>
        <time>2023-05-28T13:54:58Z</time>
      </trkpt>
      <trkpt lat="43.53215" lon="5.51132">
        <ele>252.7</ele>
        <time>2023-05-28T13:54:59Z</time>
      </trkpt>
      <trkpt lat="43.53216" lon="5.51132">
        <ele>252.7</ele>
        <time>2023-05-28T13:55:00Z</time>
      </trkpt>
      <trkpt lat="43.53216" lon="5.51133">
        <ele>252.7</ele>
        <time>2023-05-28T13:55:01Z</time>
      </trkpt>
      <trkpt lat="43.53217" lon="5.51133">
        <ele>252.7</ele>
        <time>2023-05-28T13:55:02Z</time>
      </trkpt>
      <trkpt lat="43.53218" lon="5.51134">
        <ele>252.7</ele>
        <time>2023-05-28T13:55:03Z</time>
      </trkpt>
      <trkpt lat="43.53219" lon="5.51134">
        <ele>252.7</ele>
        <time>2023-05-28T13:55:04Z</time>
      </trkpt>
      <trkpt lat="43.53219" lon="5.51135">
        <ele>252.7</ele>
        <time>2023-05-28T13:55:05Z</time>
      </trkpt>
      <trkpt lat="43.5322" lon="5.51135">
        <ele>252.7</ele>
        <time>2023-05-28T13:55:06Z</time>
      </trkpt>
      <trkpt lat="43.53221" lon="5.51135">
        <ele>252.7</ele>
        <time>2023-05-28T13:55:07Z</time>
      </trkpt>
      <trkpt lat="43.53222" lon="5.51136">
        <ele>252.8</ele>
        <time>2023-05-28T13:55:08Z</time>
      </trkpt>
      <trkpt lat="43.53223" lon="5.51137">
        <ele>252.7</ele>
        <time>2023-05-28T13:55:09Z</time>
      </trkpt>
      <trkpt lat="43.53224" lon="5.51137">
        <ele>252.7</ele>
        <time>2023-05-28T13:55:10Z</time>
      </trkpt>
      <trkpt lat="43.53224" lon="5.51137">
        <ele>252.8</ele>
        <time>2023-05-28T13:55:11Z</time>
      </trkpt>
      <trkpt lat="43.53225" lon="5.51137">
        <ele>252.8</ele>
        <time>2023-05-28T13:55:12Z</time>
      </trkpt>
      <trkpt lat="43.53226" lon="5.51138">
        <ele>252.8</ele>
        <time>2023-05-28T13:55:13Z</time>
      </trkpt>
      <trkpt lat="43.53227" lon="5.51138">
        <ele>252.8</ele>
        <time>2023-05-28T13:55:14Z</time>
      </trkpt>
      <trkpt lat="43.53228" lon="5.51139">
        <ele>252.9</ele>
        <time>2023-05-28T13:55:15Z</time>
      </trkpt>
      <trkpt lat="43.53229" lon="5.51139">
        <ele>252.8</ele>
        <time>2023-05-28T13:55:16Z</time>
      </trkpt>
      <trkpt lat="43.5323" lon="5.51139">
        <ele>252.8</ele>
        <time>2023-05-28T13:55:17Z</time>
      </trkpt>
      <trkpt lat="43.53231" lon="5.5114">
        <ele>252.8</ele>
        <time>2023-05-28T13:55:18Z</time>
      </trkpt>
      <trkpt lat="43.53232" lon="5.5114">
        <ele>252.9</ele>
        <time>2023-05-28T13:55:19Z</time>
      </trkpt>
      <trkpt lat="43.53233" lon="5.5114">
        <ele>252.8</ele>
        <time>2023-05-28T13:55:20Z</time>
      </trkpt>
      <trkpt lat="43.53234" lon="5.5114">
        <ele>252.8</ele>
        <time>2023-05-28T13:55:21Z</time>
      </trkpt>
      <trkpt lat="43.53235" lon="5.5114">
        <ele>252.9</ele>
        <time>2023-05-28T13:55:22Z</time>
      </trkpt>
      <trkpt lat="43.53236" lon="5.5114">
        <ele>253</ele>
        <time>2023-05-28T13:55:23Z</time>
      </trkpt>
      <trkpt lat="43.53237" lon="5.5114">
        <ele>253.1</ele>
        <time>2023-05-28T13:55:24Z</time>
      </trkpt>
      <trkpt lat="43.53238" lon="5.51141">
        <ele>253.1</ele>
        <time>2023-05-28T13:55:25Z</time>
      </trkpt>
      <trkpt lat="43.53239" lon="5.51141">
        <ele>253</ele>
        <time>2023-05-28T13:55:26Z</time>
      </trkpt>
      <trkpt lat="43.5324" lon="5.51141">
        <ele>252.9</ele>
        <time>2023-05-28T13:55:27Z</time>
      </trkpt>
      <trkpt lat="43.5324" lon="5.51141">
        <ele>252.7</ele>
        <time>2023-05-28T13:55:28Z</time>
      </trkpt>
      <trkpt lat="43.53241" lon="5.51139">
        <ele>252.4</ele>
        <time>2023-05-28T13:55:29Z</time>
      </trkpt>
      <trkpt lat="43.53243" lon="5.5114">
        <ele>252.1</ele>
        <time>2023-05-28T13:55:30Z</time>
      </trkpt>
      <trkpt lat="43.53244" lon="5.5114">
        <ele>251.9</ele>
        <time>2023-05-28T13:55:31Z</time>
      </trkpt>
      <trkpt lat="43.53245" lon="5.5114">
        <ele>251.8</ele>
        <time>2023-05-28T13:55:32Z</time>
      </trkpt>
      <trkpt lat="43.53246" lon="5.51139">
        <ele>251.7</ele>
        <time>2023-05-28T13:55:33Z</time>
      </trkpt>
      <trkpt lat="43.53247" lon="5.51139">
        <ele>251.6</ele>
        <time>2023-05-28T13:55:34Z</time>
      </trkpt>
      <trkpt lat="43.53248" lon="5.51139">
        <ele>251.5</ele>
        <time>2023-05-28T13:55:35Z</time>
      </trkpt>
      <trkpt lat="43.53248" lon="5.5114">
        <ele>251.5</ele>
        <time>2023-05-28T13:55:36Z</time>
      </trkpt>
      <trkpt lat="43.5325" lon="5.5114">
        <ele>251.5</ele>
        <time>2023-05-28T13:55:37Z</time>
      </trkpt>
      <trkpt lat="43.5325" lon="5.5114">
        <ele>251.4</ele>
        <time>2023-05-28T13:55:38Z</time>
      </trkpt>
      <trkpt lat="43.53251" lon="5.5114">
        <ele>251.4</ele>
        <time>2023-05-28T13:55:39Z</time>
      </trkpt>
      <trkpt lat="43.53252" lon="5.5114">
        <ele>251.4</ele>
        <time>2023-05-28T13:55:40Z</time>
      </trkpt>
      <trkpt lat="43.53253" lon="5.5114">
        <ele>251.3</ele>
        <time>2023-05-28T13:55:41Z</time>
      </trkpt>
      <trkpt lat="43.53254" lon="5.5114">
        <ele>251.2</ele>
        <time>2023-05-28T13:55:42Z</time>
      </trkpt>
      <trkpt lat="43.53255" lon="5.5114">
        <ele>251.1</ele>
        <time>2023-05-28T13:55:43Z</time>
      </trkpt>
      <trkpt lat="43.53256" lon="5.51141">
        <ele>251.1</ele>
        <time>2023-05-28T13:55:44Z</time>
      </trkpt>
      <trkpt lat="43.53256" lon="5.51141">
        <ele>251</ele>
        <time>2023-05-28T13:55:45Z</time>
      </trkpt>
      <trkpt lat="43.53257" lon="5.51143">
        <ele>251</ele>
        <time>2023-05-28T13:55:46Z</time>
      </trkpt>
      <trkpt lat="43.53257" lon="5.51144">
        <ele>250.9</ele>
        <time>2023-05-28T13:55:47Z</time>
      </trkpt>
      <trkpt lat="43.53258" lon="5.51145">
        <ele>250.9</ele>
        <time>2023-05-28T13:55:48Z</time>
      </trkpt>
      <trkpt lat="43.53259" lon="5.51146">
        <ele>250.9</ele>
        <time>2023-05-28T13:55:49Z</time>
      </trkpt>
      <trkpt lat="43.53259" lon="5.51146">
        <ele>250.8</ele>
        <time>2023-05-28T13:55:50Z</time>
      </trkpt>
      <trkpt lat="43.53259" lon="5.51147">
        <ele>250.8</ele>
        <time>2023-05-28T13:55:51Z</time>
      </trkpt>
      <trkpt lat="43.5326" lon="5.51147">
        <ele>250.8</ele>
        <time>2023-05-28T13:55:52Z</time>
      </trkpt>
      <trkpt lat="43.53261" lon="5.51148">
        <ele>250.8</ele>
        <time>2023-05-28T13:55:53Z</time>
      </trkpt>
      <trkpt lat="43.53262" lon="5.51148">
        <ele>250.9</ele>
        <time>2023-05-28T13:55:54Z</time>
      </trkpt>
      <trkpt lat="43.53262" lon="5.51149">
        <ele>250.9</ele>
        <time>2023-05-28T13:55:55Z</time>
      </trkpt>
      <trkpt lat="43.53262" lon="5.51148">
        <ele>250.9</ele>
        <time>2023-05-28T13:55:56Z</time>
      </trkpt>
      <trkpt lat="43.53262" lon="5.51148">
        <ele>250.9</ele>
        <time>2023-05-28T13:55:57Z</time>
      </trkpt>
      <trkpt lat="43.53261" lon="5.51148">
        <ele>250.9</ele>
        <time>2023-05-28T13:55:58Z</time>
      </trkpt>
      <trkpt lat="43.53261" lon="5.51148">
        <ele>251</ele>
        <time>2023-05-28T13:55:59Z</time>
      </trkpt>
      <trkpt lat="43.53261" lon="5.51148">
        <ele>251</ele>
        <time>2023-05-28T13:56:00Z</time>
      </trkpt>
      <trkpt lat="43.53261" lon="5.51148">
        <ele>251</ele>
        <time>2023-05-28T13:56:01Z</time>
      </trkpt>
      <trkpt lat="43.53261" lon="5.51148">
        <ele>251</ele>
        <time>2023-05-28T13:56:02Z</time>
      </trkpt>
      <trkpt lat="43.53261" lon="5.51148">
        <ele>251.1</ele>
        <time>2023-05-28T13:56:03Z</time>
      </trkpt>
      <trkpt lat="43.53261" lon="5.51147">
        <ele>251.2</ele>
        <time>2023-05-28T13:56:04Z</time>
      </trkpt>
      <trkpt lat="43.5326" lon="5.51147">
        <ele>251.3</ele>
        <time>2023-05-28T13:56:05Z</time>
      </trkpt>
      <trkpt lat="43.5326" lon="5.51147">
        <ele>251.3</ele>
        <time>2023-05-28T13:56:06Z</time>
      </trkpt>
      <trkpt lat="43.53261" lon="5.51147">
        <ele>251.3</ele>
        <time>2023-05-28T13:56:07Z</time>
      </trkpt>
      <trkpt lat="43.53261" lon="5.51147">
        <ele>251.4</ele>
        <time>2023-05-28T13:56:08Z</time>
      </trkpt>
      <trkpt lat="43.53261" lon="5.51147">
        <ele>251.4</ele>
        <time>2023-05-28T13:56:09Z</time>
      </trkpt>
      <trkpt lat="43.5326" lon="5.51147">
        <ele>251.4</ele>
        <time>2023-05-28T13:56:10Z</time>
      </trkpt>
      <trkpt lat="43.5326" lon="5.51147">
        <ele>251.4</ele>
        <time>2023-05-28T13:56:11Z</time>
      </trkpt>
      <trkpt lat="43.5326" lon="5.51146">
        <ele>251.5</ele>
        <time>2023-05-28T13:56:12Z</time>
      </trkpt>
      <trkpt lat="43.5326" lon="5.51146">
        <ele>251.4</ele>
        <time>2023-05-28T13:56:13Z</time>
      </trkpt>
      <trkpt lat="43.5326" lon="5.51146">
        <ele>251.4</ele>
        <time>2023-05-28T13:56:14Z</time>
      </trkpt>
      <trkpt lat="43.53261" lon="5.51146">
        <ele>251.4</ele>
        <time>2023-05-28T13:56:15Z</time>
      </trkpt>
      <trkpt lat="43.53261" lon="5.51147">
        <ele>251.4</ele>
        <time>2023-05-28T13:56:16Z</time>
      </trkpt>
      <trkpt lat="43.53261" lon="5.51147">
        <ele>251.3</ele>
        <time>2023-05-28T13:56:17Z</time>
      </trkpt>
      <trkpt lat="43.53261" lon="5.51147">
        <ele>251.2</ele>
        <time>2023-05-28T13:56:18Z</time>
      </trkpt>
      <trkpt lat="43.53261" lon="5.51147">
        <ele>251.3</ele>
        <time>2023-05-28T13:56:19Z</time>
      </trkpt>
      <trkpt lat="43.53261" lon="5.51147">
        <ele>251.3</ele>
        <time>2023-05-28T13:56:20Z</time>
      </trkpt>
      <trkpt lat="43.53261" lon="5.51147">
        <ele>251.2</ele>
        <time>2023-05-28T13:56:21Z</time>
      </trkpt>
      <trkpt lat="43.53261" lon="5.51147">
        <ele>251.2</ele>
        <time>2023-05-28T13:56:22Z</time>
      </trkpt>
      <trkpt lat="43.53261" lon="5.51147">
        <ele>251.3</ele>
        <time>2023-05-28T13:56:23Z</time>
      </trkpt>
      <trkpt lat="43.53261" lon="5.51147">
        <ele>251.4</ele>
        <time>2023-05-28T13:56:24Z</time>
      </trkpt>
      <trkpt lat="43.53261" lon="5.51147">
        <ele>251.4</ele>
        <time>2023-05-28T13:56:25Z</time>
      </trkpt>
      <trkpt lat="43.53261" lon="5.51147">
        <ele>251.5</ele>
        <time>2023-05-28T13:56:26Z</time>
      </trkpt>
      <trkpt lat="43.53261" lon="5.51147">
        <ele>251.4</ele>
        <time>2023-05-28T13:56:27Z</time>
      </trkpt>
      <trkpt lat="43.53261" lon="5.51147">
        <ele>251.4</ele>
        <time>2023-05-28T13:56:28Z</time>
      </trkpt>
      <trkpt lat="43.53261" lon="5.51147">
        <ele>251.4</ele>
        <time>2023-05-28T13:56:29Z</time>
      </trkpt>
      <trkpt lat="43.53261" lon="5.51147">
        <ele>251.5</ele>
        <time>2023-05-28T13:56:30Z</time>
      </trkpt>
      <trkpt lat="43.53261" lon="5.51147">
        <ele>251.5</ele>
        <time>2023-05-28T13:56:31Z</time>
      </trkpt>
      <trkpt lat="43.53261" lon="5.51147">
        <ele>251.4</ele>
        <time>2023-05-28T13:56:32Z</time>
      </trkpt>
      <trkpt lat="43.53261" lon="5.51147">
        <ele>251.4</ele>
        <time>2023-05-28T13:56:33Z</time>
      </trkpt>
      <trkpt lat="43.53261" lon="5.51147">
        <ele>251.4</ele>
        <time>2023-05-28T13:56:34Z</time>
      </trkpt>
      <trkpt lat="43.53261" lon="5.51147">
        <ele>251.3</ele>
        <time>2023-05-28T13:56:35Z</time>
      </trkpt>
      <trkpt lat="43.53261" lon="5.51147">
        <ele>251.3</ele>
        <time>2023-05-28T13:56:36Z</time>
      </trkpt>
      <trkpt lat="43.53261" lon="5.51147">
        <ele>251.2</ele>
        <time>2023-05-28T13:56:37Z</time>
      </trkpt>
      <trkpt lat="43.53261" lon="5.51147">
        <ele>251.2</ele>
        <time>2023-05-28T13:56:38Z</time>
      </trkpt>
      <trkpt lat="43.53261" lon="5.51146">
        <ele>251.2</ele>
        <time>2023-05-28T13:56:39Z</time>
      </trkpt>
      <trkpt lat="43.53261" lon="5.51146">
        <ele>251.2</ele>
        <time>2023-05-28T13:56:40Z</time>
      </trkpt>
      <trkpt lat="43.53261" lon="5.51146">
        <ele>251.1</ele>
        <time>2023-05-28T13:56:41Z</time>
      </trkpt>
      <trkpt lat="43.53261" lon="5.51146">
        <ele>251.2</ele>
        <time>2023-05-28T13:56:42Z</time>
      </trkpt>
      <trkpt lat="43.53261" lon="5.51146">
        <ele>251.2</ele>
        <time>2023-05-28T13:56:43Z</time>
      </trkpt>
      <trkpt lat="43.53261" lon="5.51146">
        <ele>251.2</ele>
        <time>2023-05-28T13:56:44Z</time>
      </trkpt>
      <trkpt lat="43.53261" lon="5.51146">
        <ele>251.2</ele>
        <time>2023-05-28T13:56:45Z</time>
      </trkpt>
      <trkpt lat="43.53261" lon="5.51146">
        <ele>251.1</ele>
        <time>2023-05-28T13:56:46Z</time>
      </trkpt>
      <trkpt lat="43.53261" lon="5.51146">
        <ele>251.1</ele>
        <time>2023-05-28T13:56:47Z</time>
      </trkpt>
      <trkpt lat="43.53261" lon="5.51146">
        <ele>251</ele>
        <time>2023-05-28T13:56:48Z</time>
      </trkpt>
      <trkpt lat="43.53261" lon="5.51146">
        <ele>251</ele>
        <time>2023-05-28T13:56:49Z</time>
      </trkpt>
      <trkpt lat="43.53261" lon="5.51146">
        <ele>251</ele>
        <time>2023-05-28T13:56:50Z</time>
      </trkpt>
      <trkpt lat="43.53261" lon="5.51146">
        <ele>250.9</ele>
        <time>2023-05-28T13:56:51Z</time>
      </trkpt>
      <trkpt lat="43.53262" lon="5.51147">
        <ele>250.9</ele>
        <time>2023-05-28T13:56:52Z</time>
      </trkpt>
      <trkpt lat="43.53262" lon="5.51148">
        <ele>251</ele>
        <time>2023-05-28T13:56:53Z</time>
      </trkpt>
      <trkpt lat="43.53263" lon="5.51149">
        <ele>251</ele>
        <time>2023-05-28T13:56:54Z</time>
      </trkpt>
      <trkpt lat="43.53264" lon="5.5115">
        <ele>251.1</ele>
        <time>2023-05-28T13:56:55Z</time>
      </trkpt>
      <trkpt lat="43.53264" lon="5.51151">
        <ele>251</ele>
        <time>2023-05-28T13:56:56Z</time>
      </trkpt>
      <trkpt lat="43.53265" lon="5.51153">
        <ele>251.1</ele>
        <time>2023-05-28T13:56:57Z</time>
      </trkpt>
      <trkpt lat="43.53266" lon="5.51154">
        <ele>251.1</ele>
        <time>2023-05-28T13:56:58Z</time>
      </trkpt>
      <trkpt lat="43.53267" lon="5.51156">
        <ele>251.3</ele>
        <time>2023-05-28T13:56:59Z</time>
      </trkpt>
      <trkpt lat="43.53267" lon="5.51157">
        <ele>251.3</ele>
        <time>2023-05-28T13:57:00Z</time>
      </trkpt>
      <trkpt lat="43.53268" lon="5.51158">
        <ele>251.4</ele>
        <time>2023-05-28T13:57:01Z</time>
      </trkpt>
      <trkpt lat="43.53269" lon="5.51159">
        <ele>251.5</ele>
        <time>2023-05-28T13:57:02Z</time>
      </trkpt>
      <trkpt lat="43.5327" lon="5.5116">
        <ele>251.4</ele>
        <time>2023-05-28T13:57:03Z</time>
      </trkpt>
      <trkpt lat="43.5327" lon="5.51161">
        <ele>251.4</ele>
        <time>2023-05-28T13:57:04Z</time>
      </trkpt>
      <trkpt lat="43.53271" lon="5.51163">
        <ele>251.4</ele>
        <time>2023-05-28T13:57:05Z</time>
      </trkpt>
      <trkpt lat="43.53271" lon="5.51164">
        <ele>251.4</ele>
        <time>2023-05-28T13:57:06Z</time>
      </trkpt>
      <trkpt lat="43.53272" lon="5.51165">
        <ele>251.5</ele>
        <time>2023-05-28T13:57:07Z</time>
      </trkpt>
      <trkpt lat="43.53273" lon="5.51166">
        <ele>251.5</ele>
        <time>2023-05-28T13:57:08Z</time>
      </trkpt>
      <trkpt lat="43.53273" lon="5.51167">
        <ele>251.4</ele>
        <time>2023-05-28T13:57:09Z</time>
      </trkpt>
      <trkpt lat="43.53274" lon="5.51168">
        <ele>251.5</ele>
        <time>2023-05-28T13:57:10Z</time>
      </trkpt>
      <trkpt lat="43.53275" lon="5.51169">
        <ele>251.5</ele>
        <time>2023-05-28T13:57:11Z</time>
      </trkpt>
      <trkpt lat="43.53275" lon="5.5117">
        <ele>251.5</ele>
        <time>2023-05-28T13:57:12Z</time>
      </trkpt>
      <trkpt lat="43.53276" lon="5.51171">
        <ele>251.6</ele>
        <time>2023-05-28T13:57:13Z</time>
      </trkpt>
      <trkpt lat="43.53277" lon="5.51172">
        <ele>251.7</ele>
        <time>2023-05-28T13:57:14Z</time>
      </trkpt>
      <trkpt lat="43.53277" lon="5.51173">
        <ele>251.8</ele>
        <time>2023-05-28T13:57:15Z</time>
      </trkpt>
      <trkpt lat="43.53278" lon="5.51174">
        <ele>251.8</ele>
        <time>2023-05-28T13:57:16Z</time>
      </trkpt>
      <trkpt lat="43.53279" lon="5.51175">
        <ele>252</ele>
        <time>2023-05-28T13:57:17Z</time>
      </trkpt>
      <trkpt lat="43.53279" lon="5.51176">
        <ele>252.2</ele>
        <time>2023-05-28T13:57:18Z</time>
      </trkpt>
      <trkpt lat="43.53279" lon="5.51177">
        <ele>252.4</ele>
        <time>2023-05-28T13:57:19Z</time>
      </trkpt>
      <trkpt lat="43.53279" lon="5.51177">
        <ele>252.5</ele>
        <time>2023-05-28T13:57:20Z</time>
      </trkpt>
      <trkpt lat="43.53279" lon="5.51177">
        <ele>252.6</ele>
        <time>2023-05-28T13:57:21Z</time>
      </trkpt>
      <trkpt lat="43.53278" lon="5.51177">
        <ele>252.6</ele>
        <time>2023-05-28T13:57:22Z</time>
      </trkpt>
      <trkpt lat="43.53278" lon="5.51177">
        <ele>252.7</ele>
        <time>2023-05-28T13:57:23Z</time>
      </trkpt>
      <trkpt lat="43.53277" lon="5.51177">
        <ele>252.4</ele>
        <time>2023-05-28T13:57:24Z</time>
      </trkpt>
      <trkpt lat="43.53276" lon="5.51177">
        <ele>252.4</ele>
        <time>2023-05-28T13:57:25Z</time>
      </trkpt>
      <trkpt lat="43.53276" lon="5.51177">
        <ele>252.4</ele>
        <time>2023-05-28T13:57:26Z</time>
      </trkpt>
      <trkpt lat="43.53275" lon="5.51177">
        <ele>252.5</ele>
        <time>2023-05-28T13:57:27Z</time>
      </trkpt>
      <trkpt lat="43.53274" lon="5.51177">
        <ele>252.8</ele>
        <time>2023-05-28T13:57:28Z</time>
      </trkpt>
      <trkpt lat="43.53274" lon="5.51178">
        <ele>252.9</ele>
        <time>2023-05-28T13:57:29Z</time>
      </trkpt>
      <trkpt lat="43.53273" lon="5.51178">
        <ele>253</ele>
        <time>2023-05-28T13:57:30Z</time>
      </trkpt>
      <trkpt lat="43.53273" lon="5.51179">
        <ele>253.2</ele>
        <time>2023-05-28T13:57:31Z</time>
      </trkpt>
      <trkpt lat="43.53272" lon="5.51179">
        <ele>253.3</ele>
        <time>2023-05-28T13:57:32Z</time>
      </trkpt>
      <trkpt lat="43.53272" lon="5.5118">
        <ele>253.5</ele>
        <time>2023-05-28T13:57:33Z</time>
      </trkpt>
      <trkpt lat="43.53271" lon="5.51181">
        <ele>253.7</ele>
        <time>2023-05-28T13:57:34Z</time>
      </trkpt>
      <trkpt lat="43.53271" lon="5.51182">
        <ele>254</ele>
        <time>2023-05-28T13:57:35Z</time>
      </trkpt>
      <trkpt lat="43.5327" lon="5.51183">
        <ele>254.3</ele>
        <time>2023-05-28T13:57:36Z</time>
      </trkpt>
      <trkpt lat="43.5327" lon="5.51184">
        <ele>254.6</ele>
        <time>2023-05-28T13:57:37Z</time>
      </trkpt>
      <trkpt lat="43.5327" lon="5.51185">
        <ele>255</ele>
        <time>2023-05-28T13:57:38Z</time>
      </trkpt>
      <trkpt lat="43.53269" lon="5.51186">
        <ele>255.3</ele>
        <time>2023-05-28T13:57:39Z</time>
      </trkpt>
      <trkpt lat="43.53269" lon="5.51187">
        <ele>255.5</ele>
        <time>2023-05-28T13:57:40Z</time>
      </trkpt>
      <trkpt lat="43.53269" lon="5.51188">
        <ele>255.7</ele>
        <time>2023-05-28T13:57:41Z</time>
      </trkpt>
      <trkpt lat="43.53269" lon="5.51189">
        <ele>255.9</ele>
        <time>2023-05-28T13:57:42Z</time>
      </trkpt>
      <trkpt lat="43.53268" lon="5.5119">
        <ele>256.1</ele>
        <time>2023-05-28T13:57:43Z</time>
      </trkpt>
      <trkpt lat="43.53268" lon="5.51191">
        <ele>256.5</ele>
        <time>2023-05-28T13:57:44Z</time>
      </trkpt>
      <trkpt lat="43.53267" lon="5.51192">
        <ele>256.8</ele>
        <time>2023-05-28T13:57:45Z</time>
      </trkpt>
      <trkpt lat="43.53267" lon="5.51192">
        <ele>257.1</ele>
        <time>2023-05-28T13:57:46Z</time>
      </trkpt>
      <trkpt lat="43.53266" lon="5.51192">
        <ele>257.5</ele>
        <time>2023-05-28T13:57:47Z</time>
      </trkpt>
      <trkpt lat="43.53265" lon="5.51193">
        <ele>257.8</ele>
        <time>2023-05-28T13:57:48Z</time>
      </trkpt>
      <trkpt lat="43.53265" lon="5.51194">
        <ele>258</ele>
        <time>2023-05-28T13:57:49Z</time>
      </trkpt>
      <trkpt lat="43.53264" lon="5.51194">
        <ele>258.2</ele>
        <time>2023-05-28T13:57:50Z</time>
      </trkpt>
      <trkpt lat="43.53264" lon="5.51195">
        <ele>258.3</ele>
        <time>2023-05-28T13:57:51Z</time>
      </trkpt>
      <trkpt lat="43.53264" lon="5.51196">
        <ele>258.5</ele>
        <time>2023-05-28T13:57:52Z</time>
      </trkpt>
      <trkpt lat="43.53264" lon="5.51198">
        <ele>258.7</ele>
        <time>2023-05-28T13:57:53Z</time>
      </trkpt>
      <trkpt lat="43.53264" lon="5.51199">
        <ele>258.9</ele>
        <time>2023-05-28T13:57:54Z</time>
      </trkpt>
      <trkpt lat="43.53265" lon="5.512">
        <ele>259.1</ele>
        <time>2023-05-28T13:57:55Z</time>
      </trkpt>
      <trkpt lat="43.53265" lon="5.51201">
        <ele>259.3</ele>
        <time>2023-05-28T13:57:56Z</time>
      </trkpt>
      <trkpt lat="43.53265" lon="5.51202">
        <ele>259.5</ele>
        <time>2023-05-28T13:57:57Z</time>
      </trkpt>
      <trkpt lat="43.53266" lon="5.51203">
        <ele>259.6</ele>
        <time>2023-05-28T13:57:58Z</time>
      </trkpt>
      <trkpt lat="43.53266" lon="5.51204">
        <ele>259.8</ele>
        <time>2023-05-28T13:57:59Z</time>
      </trkpt>
      <trkpt lat="43.53266" lon="5.51206">
        <ele>259.9</ele>
        <time>2023-05-28T13:58:00Z</time>
      </trkpt>
      <trkpt lat="43.53266" lon="5.51207">
        <ele>260.1</ele>
        <time>2023-05-28T13:58:01Z</time>
      </trkpt>
      <trkpt lat="43.53266" lon="5.51208">
        <ele>260.2</ele>
        <time>2023-05-28T13:58:02Z</time>
      </trkpt>
      <trkpt lat="43.53267" lon="5.5121">
        <ele>260.4</ele>
        <time>2023-05-28T13:58:03Z</time>
      </trkpt>
      <trkpt lat="43.53267" lon="5.51212">
        <ele>260.6</ele>
        <time>2023-05-28T13:58:04Z</time>
      </trkpt>
      <trkpt lat="43.53268" lon="5.51213">
        <ele>260.8</ele>
        <time>2023-05-28T13:58:05Z</time>
      </trkpt>
      <trkpt lat="43.53268" lon="5.51214">
        <ele>261</ele>
        <time>2023-05-28T13:58:06Z</time>
      </trkpt>
      <trkpt lat="43.53269" lon="5.51215">
        <ele>261.1</ele>
        <time>2023-05-28T13:58:07Z</time>
      </trkpt>
      <trkpt lat="43.53269" lon="5.51216">
        <ele>261.3</ele>
        <time>2023-05-28T13:58:08Z</time>
      </trkpt>
      <trkpt lat="43.53269" lon="5.51216">
        <ele>261.5</ele>
        <time>2023-05-28T13:58:09Z</time>
      </trkpt>
      <trkpt lat="43.5327" lon="5.51217">
        <ele>261.6</ele>
        <time>2023-05-28T13:58:10Z</time>
      </trkpt>
      <trkpt lat="43.5327" lon="5.51218">
        <ele>261.8</ele>
        <time>2023-05-28T13:58:11Z</time>
      </trkpt>
      <trkpt lat="43.53271" lon="5.51219">
        <ele>261.9</ele>
        <time>2023-05-28T13:58:12Z</time>
      </trkpt>
      <trkpt lat="43.53271" lon="5.5122">
        <ele>262.2</ele>
        <time>2023-05-28T13:58:13Z</time>
      </trkpt>
      <trkpt lat="43.53272" lon="5.51222">
        <ele>262.3</ele>
        <time>2023-05-28T13:58:14Z</time>
      </trkpt>
      <trkpt lat="43.53272" lon="5.51223">
        <ele>262.5</ele>
        <time>2023-05-28T13:58:15Z</time>
      </trkpt>
      <trkpt lat="43.53272" lon="5.51224">
        <ele>262.7</ele>
        <time>2023-05-28T13:58:16Z</time>
      </trkpt>
      <trkpt lat="43.53273" lon="5.51225">
        <ele>262.9</ele>
        <time>2023-05-28T13:58:17Z</time>
      </trkpt>
      <trkpt lat="43.53274" lon="5.51227">
        <ele>263</ele>
        <time>2023-05-28T13:58:18Z</time>
      </trkpt>
      <trkpt lat="43.53274" lon="5.51228">
        <ele>263.1</ele>
        <time>2023-05-28T13:58:19Z</time>
      </trkpt>
      <trkpt lat="43.53274" lon="5.51229">
        <ele>263.3</ele>
        <time>2023-05-28T13:58:20Z</time>
      </trkpt>
      <trkpt lat="43.53274" lon="5.51231">
        <ele>263.5</ele>
        <time>2023-05-28T13:58:21Z</time>
      </trkpt>
      <trkpt lat="43.53273" lon="5.51232">
        <ele>263.5</ele>
        <time>2023-05-28T13:58:22Z</time>
      </trkpt>
      <trkpt lat="43.53273" lon="5.51233">
        <ele>263.6</ele>
        <time>2023-05-28T13:58:23Z</time>
      </trkpt>
      <trkpt lat="43.53273" lon="5.51234">
        <ele>263.8</ele>
        <time>2023-05-28T13:58:24Z</time>
      </trkpt>
      <trkpt lat="43.53273" lon="5.51235">
        <ele>263.9</ele>
        <time>2023-05-28T13:58:25Z</time>
      </trkpt>
      <trkpt lat="43.53272" lon="5.51236">
        <ele>264</ele>
        <time>2023-05-28T13:58:26Z</time>
      </trkpt>
      <trkpt lat="43.53272" lon="5.51237">
        <ele>264.2</ele>
        <time>2023-05-28T13:58:27Z</time>
      </trkpt>
      <trkpt lat="43.53272" lon="5.51239">
        <ele>264.4</ele>
        <time>2023-05-28T13:58:28Z</time>
      </trkpt>
      <trkpt lat="43.53272" lon="5.5124">
        <ele>264.5</ele>
        <time>2023-05-28T13:58:29Z</time>
      </trkpt>
      <trkpt lat="43.53272" lon="5.51241">
        <ele>264.6</ele>
        <time>2023-05-28T13:58:30Z</time>
      </trkpt>
      <trkpt lat="43.53272" lon="5.51242">
        <ele>264.7</ele>
        <time>2023-05-28T13:58:31Z</time>
      </trkpt>
      <trkpt lat="43.53273" lon="5.51243">
        <ele>264.9</ele>
        <time>2023-05-28T13:58:32Z</time>
      </trkpt>
      <trkpt lat="43.53273" lon="5.51244">
        <ele>265.1</ele>
        <time>2023-05-28T13:58:33Z</time>
      </trkpt>
      <trkpt lat="43.53273" lon="5.51246">
        <ele>265.3</ele>
        <time>2023-05-28T13:58:34Z</time>
      </trkpt>
      <trkpt lat="43.53274" lon="5.51247">
        <ele>265.5</ele>
        <time>2023-05-28T13:58:35Z</time>
      </trkpt>
      <trkpt lat="43.53274" lon="5.51248">
        <ele>265.7</ele>
        <time>2023-05-28T13:58:36Z</time>
      </trkpt>
      <trkpt lat="43.53274" lon="5.5125">
        <ele>265.9</ele>
        <time>2023-05-28T13:58:37Z</time>
      </trkpt>
      <trkpt lat="43.53274" lon="5.51251">
        <ele>266</ele>
        <time>2023-05-28T13:58:38Z</time>
      </trkpt>
      <trkpt lat="43.53274" lon="5.51252">
        <ele>266.1</ele>
        <time>2023-05-28T13:58:39Z</time>
      </trkpt>
      <trkpt lat="43.53274" lon="5.51254">
        <ele>266.2</ele>
        <time>2023-05-28T13:58:40Z</time>
      </trkpt>
      <trkpt lat="43.53274" lon="5.51255">
        <ele>266.3</ele>
        <time>2023-05-28T13:58:41Z</time>
      </trkpt>
      <trkpt lat="43.53275" lon="5.51256">
        <ele>266.3</ele>
        <time>2023-05-28T13:58:42Z</time>
      </trkpt>
      <trkpt lat="43.53275" lon="5.51257">
        <ele>266.4</ele>
        <time>2023-05-28T13:58:43Z</time>
      </trkpt>
      <trkpt lat="43.53275" lon="5.51258">
        <ele>266.5</ele>
        <time>2023-05-28T13:58:44Z</time>
      </trkpt>
      <trkpt lat="43.53275" lon="5.51259">
        <ele>266.6</ele>
        <time>2023-05-28T13:58:45Z</time>
      </trkpt>
      <trkpt lat="43.53275" lon="5.5126">
        <ele>266.8</ele>
        <time>2023-05-28T13:58:46Z</time>
      </trkpt>
      <trkpt lat="43.53275" lon="5.51261">
        <ele>267</ele>
        <time>2023-05-28T13:58:47Z</time>
      </trkpt>
      <trkpt lat="43.53276" lon="5.51263">
        <ele>267.2</ele>
        <time>2023-05-28T13:58:48Z</time>
      </trkpt>
      <trkpt lat="43.53276" lon="5.51264">
        <ele>267.4</ele>
        <time>2023-05-28T13:58:49Z</time>
      </trkpt>
      <trkpt lat="43.53276" lon="5.51265">
        <ele>267.5</ele>
        <time>2023-05-28T13:58:50Z</time>
      </trkpt>
      <trkpt lat="43.53276" lon="5.51267">
        <ele>267.6</ele>
        <time>2023-05-28T13:58:51Z</time>
      </trkpt>
      <trkpt lat="43.53276" lon="5.51268">
        <ele>267.9</ele>
        <time>2023-05-28T13:58:52Z</time>
      </trkpt>
      <trkpt lat="43.53275" lon="5.51269">
        <ele>268.1</ele>
        <time>2023-05-28T13:58:53Z</time>
      </trkpt>
      <trkpt lat="43.53275" lon="5.5127">
        <ele>268.2</ele>
        <time>2023-05-28T13:58:54Z</time>
      </trkpt>
      <trkpt lat="43.53275" lon="5.51271">
        <ele>268.4</ele>
        <time>2023-05-28T13:58:55Z</time>
      </trkpt>
      <trkpt lat="43.53275" lon="5.51273">
        <ele>268.6</ele>
        <time>2023-05-28T13:58:56Z</time>
      </trkpt>
      <trkpt lat="43.53275" lon="5.51274">
        <ele>268.7</ele>
        <time>2023-05-28T13:58:57Z</time>
      </trkpt>
      <trkpt lat="43.53275" lon="5.51275">
        <ele>268.8</ele>
        <time>2023-05-28T13:58:58Z</time>
      </trkpt>
      <trkpt lat="43.53275" lon="5.51276">
        <ele>269</ele>
        <time>2023-05-28T13:58:59Z</time>
      </trkpt>
      <trkpt lat="43.53275" lon="5.51278">
        <ele>269.1</ele>
        <time>2023-05-28T13:59:00Z</time>
      </trkpt>
      <trkpt lat="43.53275" lon="5.51279">
        <ele>269.1</ele>
        <time>2023-05-28T13:59:01Z</time>
      </trkpt>
      <trkpt lat="43.53276" lon="5.5128">
        <ele>269.2</ele>
        <time>2023-05-28T13:59:02Z</time>
      </trkpt>
      <trkpt lat="43.53277" lon="5.51281">
        <ele>269.4</ele>
        <time>2023-05-28T13:59:03Z</time>
      </trkpt>
      <trkpt lat="43.53277" lon="5.51282">
        <ele>269.6</ele>
        <time>2023-05-28T13:59:04Z</time>
      </trkpt>
      <trkpt lat="43.53278" lon="5.51282">
        <ele>269.9</ele>
        <time>2023-05-28T13:59:05Z</time>
      </trkpt>
      <trkpt lat="43.53279" lon="5.51283">
        <ele>270.2</ele>
        <time>2023-05-28T13:59:06Z</time>
      </trkpt>
      <trkpt lat="43.53279" lon="5.51283">
        <ele>270.6</ele>
        <time>2023-05-28T13:59:07Z</time>
      </trkpt>
      <trkpt lat="43.5328" lon="5.51284">
        <ele>270.9</ele>
        <time>2023-05-28T13:59:08Z</time>
      </trkpt>
      <trkpt lat="43.53281" lon="5.51285">
        <ele>271.2</ele>
        <time>2023-05-28T13:59:09Z</time>
      </trkpt>
      <trkpt lat="43.53281" lon="5.51285">
        <ele>271.5</ele>
        <time>2023-05-28T13:59:10Z</time>
      </trkpt>
      <trkpt lat="43.53282" lon="5.51286">
        <ele>271.9</ele>
        <time>2023-05-28T13:59:11Z</time>
      </trkpt>
      <trkpt lat="43.53283" lon="5.51287">
        <ele>272.2</ele>
        <time>2023-05-28T13:59:12Z</time>
      </trkpt>
      <trkpt lat="43.53284" lon="5.51288">
        <ele>272.4</ele>
        <time>2023-05-28T13:59:13Z</time>
      </trkpt>
      <trkpt lat="43.53284" lon="5.51289">
        <ele>272.6</ele>
        <time>2023-05-28T13:59:14Z</time>
      </trkpt>
      <trkpt lat="43.53285" lon="5.5129">
        <ele>272.6</ele>
        <time>2023-05-28T13:59:15Z</time>
      </trkpt>
      <trkpt lat="43.53286" lon="5.51291">
        <ele>272.7</ele>
        <time>2023-05-28T13:59:16Z</time>
      </trkpt>
      <trkpt lat="43.53286" lon="5.51292">
        <ele>272.8</ele>
        <time>2023-05-28T13:59:17Z</time>
      </trkpt>
      <trkpt lat="43.53287" lon="5.51293">
        <ele>272.9</ele>
        <time>2023-05-28T13:59:18Z</time>
      </trkpt>
      <trkpt lat="43.53288" lon="5.51294">
        <ele>273</ele>
        <time>2023-05-28T13:59:19Z</time>
      </trkpt>
      <trkpt lat="43.53288" lon="5.51295">
        <ele>273</ele>
        <time>2023-05-28T13:59:20Z</time>
      </trkpt>
      <trkpt lat="43.53288" lon="5.51296">
        <ele>273.1</ele>
        <time>2023-05-28T13:59:21Z</time>
      </trkpt>
      <trkpt lat="43.53288" lon="5.51297">
        <ele>273.2</ele>
        <time>2023-05-28T13:59:22Z</time>
      </trkpt>
      <trkpt lat="43.53289" lon="5.51298">
        <ele>273.3</ele>
        <time>2023-05-28T13:59:23Z</time>
      </trkpt>
      <trkpt lat="43.53289" lon="5.51299">
        <ele>273.4</ele>
        <time>2023-05-28T13:59:24Z</time>
      </trkpt>
      <trkpt lat="43.5329" lon="5.513">
        <ele>273.5</ele>
        <time>2023-05-28T13:59:25Z</time>
      </trkpt>
      <trkpt lat="43.5329" lon="5.51301">
        <ele>273.6</ele>
        <time>2023-05-28T13:59:26Z</time>
      </trkpt>
      <trkpt lat="43.5329" lon="5.51301">
        <ele>273.6</ele>
        <time>2023-05-28T13:59:27Z</time>
      </trkpt>
      <trkpt lat="43.5329" lon="5.51302">
        <ele>273.7</ele>
        <time>2023-05-28T13:59:28Z</time>
      </trkpt>
      <trkpt lat="43.5329" lon="5.51302">
        <ele>273.8</ele>
        <time>2023-05-28T13:59:29Z</time>
      </trkpt>
      <trkpt lat="43.5329" lon="5.51302">
        <ele>273.8</ele>
        <time>2023-05-28T13:59:30Z</time>
      </trkpt>
      <trkpt lat="43.5329" lon="5.51302">
        <ele>273.8</ele>
        <time>2023-05-28T13:59:31Z</time>
      </trkpt>
      <trkpt lat="43.5329" lon="5.51302">
        <ele>273.8</ele>
        <time>2023-05-28T13:59:32Z</time>
      </trkpt>
      <trkpt lat="43.5329" lon="5.51302">
        <ele>273.8</ele>
        <time>2023-05-28T13:59:33Z</time>
      </trkpt>
      <trkpt lat="43.5329" lon="5.51302">
        <ele>273.8</ele>
        <time>2023-05-28T13:59:34Z</time>
      </trkpt>
      <trkpt lat="43.5329" lon="5.51302">
        <ele>273.9</ele>
        <time>2023-05-28T13:59:35Z</time>
      </trkpt>
      <trkpt lat="43.5329" lon="5.51302">
        <ele>273.9</ele>
        <time>2023-05-28T13:59:36Z</time>
      </trkpt>
      <trkpt lat="43.5329" lon="5.51302">
        <ele>273.8</ele>
        <time>2023-05-28T13:59:37Z</time>
      </trkpt>
      <trkpt lat="43.5329" lon="5.51303">
        <ele>273.8</ele>
        <time>2023-05-28T13:59:38Z</time>
      </trkpt>
      <trkpt lat="43.5329" lon="5.51303">
        <ele>273.8</ele>
        <time>2023-05-28T13:59:39Z</time>
      </trkpt>
      <trkpt lat="43.5329" lon="5.51303">
        <ele>273.7</ele>
        <time>2023-05-28T13:59:40Z</time>
      </trkpt>
      <trkpt lat="43.5329" lon="5.51303">
        <ele>273.8</ele>
        <time>2023-05-28T13:59:41Z</time>
      </trkpt>
      <trkpt lat="43.5329" lon="5.51303">
        <ele>273.8</ele>
        <time>2023-05-28T13:59:42Z</time>
      </trkpt>
      <trkpt lat="43.5329" lon="5.51303">
        <ele>273.8</ele>
        <time>2023-05-28T13:59:43Z</time>
      </trkpt>
      <trkpt lat="43.5329" lon="5.51303">
        <ele>273.8</ele>
        <time>2023-05-28T13:59:44Z</time>
      </trkpt>
      <trkpt lat="43.5329" lon="5.51303">
        <ele>273.7</ele>
        <time>2023-05-28T13:59:45Z</time>
      </trkpt>
      <trkpt lat="43.5329" lon="5.51303">
        <ele>273.7</ele>
        <time>2023-05-28T13:59:46Z</time>
      </trkpt>
      <trkpt lat="43.5329" lon="5.51303">
        <ele>273.7</ele>
        <time>2023-05-28T13:59:47Z</time>
      </trkpt>
      <trkpt lat="43.5329" lon="5.51303">
        <ele>273.8</ele>
        <time>2023-05-28T13:59:48Z</time>
      </trkpt>
      <trkpt lat="43.5329" lon="5.51303">
        <ele>273.7</ele>
        <time>2023-05-28T13:59:49Z</time>
      </trkpt>
      <trkpt lat="43.53291" lon="5.51303">
        <ele>273.7</ele>
        <time>2023-05-28T13:59:50Z</time>
      </trkpt>
      <trkpt lat="43.53291" lon="5.51304">
        <ele>273.7</ele>
        <time>2023-05-28T13:59:51Z</time>
      </trkpt>
      <trkpt lat="43.53291" lon="5.51304">
        <ele>273.7</ele>
        <time>2023-05-28T13:59:52Z</time>
      </trkpt>
      <trkpt lat="43.53291" lon="5.51304">
        <ele>273.7</ele>
        <time>2023-05-28T13:59:53Z</time>
      </trkpt>
      <trkpt lat="43.53291" lon="5.51304">
        <ele>273.7</ele>
        <time>2023-05-28T13:59:54Z</time>
      </trkpt>
      <trkpt lat="43.53291" lon="5.51304">
        <ele>273.6</ele>
        <time>2023-05-28T13:59:55Z</time>
      </trkpt>
      <trkpt lat="43.53291" lon="5.51304">
        <ele>273.5</ele>
        <time>2023-05-28T13:59:56Z</time>
      </trkpt>
      <trkpt lat="43.53292" lon="5.51304">
        <ele>273.5</ele>
        <time>2023-05-28T13:59:57Z</time>
      </trkpt>
      <trkpt lat="43.53292" lon="5.51304">
        <ele>273.6</ele>
        <time>2023-05-28T13:59:58Z</time>
      </trkpt>
      <trkpt lat="43.53292" lon="5.51303">
        <ele>273.7</ele>
        <time>2023-05-28T13:59:59Z</time>
      </trkpt>
      <trkpt lat="43.53292" lon="5.51303">
        <ele>273.8</ele>
        <time>2023-05-28T14:00:00Z</time>
      </trkpt>
      <trkpt lat="43.53292" lon="5.51303">
        <ele>273.8</ele>
        <time>2023-05-28T14:00:01Z</time>
      </trkpt>
      <trkpt lat="43.53292" lon="5.51303">
        <ele>273.8</ele>
        <time>2023-05-28T14:00:02Z</time>
      </trkpt>
      <trkpt lat="43.53292" lon="5.51303">
        <ele>273.8</ele>
        <time>2023-05-28T14:00:03Z</time>
      </trkpt>
      <trkpt lat="43.53293" lon="5.51303">
        <ele>273.9</ele>
        <time>2023-05-28T14:00:04Z</time>
      </trkpt>
      <trkpt lat="43.53293" lon="5.51303">
        <ele>274</ele>
        <time>2023-05-28T14:00:05Z</time>
      </trkpt>
      <trkpt lat="43.53293" lon="5.51303">
        <ele>274</ele>
        <time>2023-05-28T14:00:06Z</time>
      </trkpt>
      <trkpt lat="43.53294" lon="5.51302">
        <ele>274.1</ele>
        <time>2023-05-28T14:00:07Z</time>
      </trkpt>
      <trkpt lat="43.53293" lon="5.51302">
        <ele>274.1</ele>
        <time>2023-05-28T14:00:08Z</time>
      </trkpt>
      <trkpt lat="43.53293" lon="5.51302">
        <ele>274.1</ele>
        <time>2023-05-28T14:00:09Z</time>
      </trkpt>
      <trkpt lat="43.53292" lon="5.51302">
        <ele>274</ele>
        <time>2023-05-28T14:00:10Z</time>
      </trkpt>
      <trkpt lat="43.53292" lon="5.51302">
        <ele>273.9</ele>
        <time>2023-05-28T14:00:11Z</time>
      </trkpt>
      <trkpt lat="43.53292" lon="5.51302">
        <ele>273.9</ele>
        <time>2023-05-28T14:00:12Z</time>
      </trkpt>
      <trkpt lat="43.53292" lon="5.51302">
        <ele>273.9</ele>
        <time>2023-05-28T14:00:13Z</time>
      </trkpt>
      <trkpt lat="43.53292" lon="5.51302">
        <ele>273.9</ele>
        <time>2023-05-28T14:00:14Z</time>
      </trkpt>
      <trkpt lat="43.53292" lon="5.51301">
        <ele>273.9</ele>
        <time>2023-05-28T14:00:15Z</time>
      </trkpt>
      <trkpt lat="43.53292" lon="5.51301">
        <ele>273.8</ele>
        <time>2023-05-28T14:00:16Z</time>
      </trkpt>
      <trkpt lat="43.53292" lon="5.51301">
        <ele>273.7</ele>
        <time>2023-05-28T14:00:17Z</time>
      </trkpt>
      <trkpt lat="43.53292" lon="5.51301">
        <ele>273.7</ele>
        <time>2023-05-28T14:00:18Z</time>
      </trkpt>
      <trkpt lat="43.53292" lon="5.51301">
        <ele>273.6</ele>
        <time>2023-05-28T14:00:19Z</time>
      </trkpt>
      <trkpt lat="43.53292" lon="5.51301">
        <ele>273.6</ele>
        <time>2023-05-28T14:00:20Z</time>
      </trkpt>
      <trkpt lat="43.53292" lon="5.51301">
        <ele>273.6</ele>
        <time>2023-05-28T14:00:21Z</time>
      </trkpt>
      <trkpt lat="43.53292" lon="5.51301">
        <ele>273.6</ele>
        <time>2023-05-28T14:00:22Z</time>
      </trkpt>
      <trkpt lat="43.53292" lon="5.51301">
        <ele>273.5</ele>
        <time>2023-05-28T14:00:23Z</time>
      </trkpt>
      <trkpt lat="43.53293" lon="5.51301">
        <ele>273.5</ele>
        <time>2023-05-28T14:00:24Z</time>
      </trkpt>
      <trkpt lat="43.53293" lon="5.51301">
        <ele>273.5</ele>
        <time>2023-05-28T14:00:25Z</time>
      </trkpt>
      <trkpt lat="43.53293" lon="5.51301">
        <ele>273.5</ele>
        <time>2023-05-28T14:00:26Z</time>
      </trkpt>
      <trkpt lat="43.53293" lon="5.51301">
        <ele>273.5</ele>
        <time>2023-05-28T14:00:27Z</time>
      </trkpt>
      <trkpt lat="43.53293" lon="5.51301">
        <ele>273.6</ele>
        <time>2023-05-28T14:00:28Z</time>
      </trkpt>
      <trkpt lat="43.53293" lon="5.51301">
        <ele>273.6</ele>
        <time>2023-05-28T14:00:29Z</time>
      </trkpt>
      <trkpt lat="43.53293" lon="5.51301">
        <ele>273.6</ele>
        <time>2023-05-28T14:00:30Z</time>
      </trkpt>
      <trkpt lat="43.53293" lon="5.51301">
        <ele>273.5</ele>
        <time>2023-05-28T14:00:31Z</time>
      </trkpt>
      <trkpt lat="43.53293" lon="5.51301">
        <ele>273.6</ele>
        <time>2023-05-28T14:00:32Z</time>
      </trkpt>
      <trkpt lat="43.53293" lon="5.51301">
        <ele>273.6</ele>
        <time>2023-05-28T14:00:33Z</time>
      </trkpt>
      <trkpt lat="43.53293" lon="5.51302">
        <ele>273.7</ele>
        <time>2023-05-28T14:00:34Z</time>
      </trkpt>
      <trkpt lat="43.53293" lon="5.51302">
        <ele>273.8</ele>
        <time>2023-05-28T14:00:35Z</time>
      </trkpt>
      <trkpt lat="43.53293" lon="5.51302">
        <ele>273.9</ele>
        <time>2023-05-28T14:00:36Z</time>
      </trkpt>
      <trkpt lat="43.53293" lon="5.51302">
        <ele>273.8</ele>
        <time>2023-05-28T14:00:37Z</time>
      </trkpt>
      <trkpt lat="43.53293" lon="5.51302">
        <ele>273.8</ele>
        <time>2023-05-28T14:00:38Z</time>
      </trkpt>
      <trkpt lat="43.53293" lon="5.51302">
        <ele>273.8</ele>
        <time>2023-05-28T14:00:39Z</time>
      </trkpt>
      <trkpt lat="43.53293" lon="5.51302">
        <ele>273.7</ele>
        <time>2023-05-28T14:00:40Z</time>
      </trkpt>
      <trkpt lat="43.53292" lon="5.51302">
        <ele>273.7</ele>
        <time>2023-05-28T14:00:41Z</time>
      </trkpt>
      <trkpt lat="43.53292" lon="5.51302">
        <ele>273.6</ele>
        <time>2023-05-28T14:00:42Z</time>
      </trkpt>
      <trkpt lat="43.53292" lon="5.51302">
        <ele>273.6</ele>
        <time>2023-05-28T14:00:43Z</time>
      </trkpt>
      <trkpt lat="43.53292" lon="5.51302">
        <ele>273.7</ele>
        <time>2023-05-28T14:00:44Z</time>
      </trkpt>
      <trkpt lat="43.53292" lon="5.51302">
        <ele>273.7</ele>
        <time>2023-05-28T14:00:45Z</time>
      </trkpt>
      <trkpt lat="43.53292" lon="5.51303">
        <ele>273.6</ele>
        <time>2023-05-28T14:00:46Z</time>
      </trkpt>
      <trkpt lat="43.53292" lon="5.51303">
        <ele>273.6</ele>
        <time>2023-05-28T14:00:47Z</time>
      </trkpt>
      <trkpt lat="43.53293" lon="5.51304">
        <ele>273.6</ele>
        <time>2023-05-28T14:00:48Z</time>
      </trkpt>
      <trkpt lat="43.53293" lon="5.51304">
        <ele>273.6</ele>
        <time>2023-05-28T14:00:49Z</time>
      </trkpt>
      <trkpt lat="43.53293" lon="5.51304">
        <ele>273.7</ele>
        <time>2023-05-28T14:00:50Z</time>
      </trkpt>
      <trkpt lat="43.53293" lon="5.51303">
        <ele>273.6</ele>
        <time>2023-05-28T14:00:51Z</time>
      </trkpt>
      <trkpt lat="43.53293" lon="5.51303">
        <ele>273.6</ele>
        <time>2023-05-28T14:00:52Z</time>
      </trkpt>
      <trkpt lat="43.53293" lon="5.51303">
        <ele>273.6</ele>
        <time>2023-05-28T14:00:53Z</time>
      </trkpt>
      <trkpt lat="43.53293" lon="5.51303">
        <ele>273.6</ele>
        <time>2023-05-28T14:00:54Z</time>
      </trkpt>
      <trkpt lat="43.53293" lon="5.51303">
        <ele>273.6</ele>
        <time>2023-05-28T14:00:55Z</time>
      </trkpt>
      <trkpt lat="43.53293" lon="5.51303">
        <ele>273.5</ele>
        <time>2023-05-28T14:00:56Z</time>
      </trkpt>
      <trkpt lat="43.53294" lon="5.51303">
        <ele>273.4</ele>
        <time>2023-05-28T14:00:57Z</time>
      </trkpt>
      <trkpt lat="43.53294" lon="5.51303">
        <ele>273.3</ele>
        <time>2023-05-28T14:00:58Z</time>
      </trkpt>
      <trkpt lat="43.53294" lon="5.51303">
        <ele>273.2</ele>
        <time>2023-05-28T14:00:59Z</time>
      </trkpt>
      <trkpt lat="43.53294" lon="5.51303">
        <ele>273.2</ele>
        <time>2023-05-28T14:01:00Z</time>
      </trkpt>
      <trkpt lat="43.53294" lon="5.51303">
        <ele>273.2</ele>
        <time>2023-05-28T14:01:01Z</time>
      </trkpt>
      <trkpt lat="43.53294" lon="5.51303">
        <ele>273.2</ele>
        <time>2023-05-28T14:01:02Z</time>
      </trkpt>
      <trkpt lat="43.53294" lon="5.51303">
        <ele>273.1</ele>
        <time>2023-05-28T14:01:03Z</time>
      </trkpt>
      <trkpt lat="43.53294" lon="5.51303">
        <ele>273.1</ele>
        <time>2023-05-28T14:01:04Z</time>
      </trkpt>
      <trkpt lat="43.53294" lon="5.51303">
        <ele>273.2</ele>
        <time>2023-05-28T14:01:05Z</time>
      </trkpt>
      <trkpt lat="43.53294" lon="5.51303">
        <ele>273.2</ele>
        <time>2023-05-28T14:01:06Z</time>
      </trkpt>
      <trkpt lat="43.53294" lon="5.51303">
        <ele>273.2</ele>
        <time>2023-05-28T14:01:07Z</time>
      </trkpt>
      <trkpt lat="43.53294" lon="5.51303">
        <ele>273.2</ele>
        <time>2023-05-28T14:01:08Z</time>
      </trkpt>
      <trkpt lat="43.53294" lon="5.51303">
        <ele>273.3</ele>
        <time>2023-05-28T14:01:09Z</time>
      </trkpt>
      <trkpt lat="43.53295" lon="5.51304">
        <ele>273.3</ele>
        <time>2023-05-28T14:01:10Z</time>
      </trkpt>
      <trkpt lat="43.53295" lon="5.51304">
        <ele>273.3</ele>
        <time>2023-05-28T14:01:11Z</time>
      </trkpt>
      <trkpt lat="43.53295" lon="5.51304">
        <ele>273.4</ele>
        <time>2023-05-28T14:01:12Z</time>
      </trkpt>
      <trkpt lat="43.53295" lon="5.51304">
        <ele>273.4</ele>
        <time>2023-05-28T14:01:13Z</time>
      </trkpt>
      <trkpt lat="43.53295" lon="5.51304">
        <ele>273.4</ele>
        <time>2023-05-28T14:01:14Z</time>
      </trkpt>
      <trkpt lat="43.53295" lon="5.51304">
        <ele>273.4</ele>
        <time>2023-05-28T14:01:15Z</time>
      </trkpt>
      <trkpt lat="43.53295" lon="5.51304">
        <ele>273.4</ele>
        <time>2023-05-28T14:01:16Z</time>
      </trkpt>
      <trkpt lat="43.53295" lon="5.51304">
        <ele>273.5</ele>
        <time>2023-05-28T14:01:17Z</time>
      </trkpt>
      <trkpt lat="43.53295" lon="5.51304">
        <ele>273.5</ele>
        <time>2023-05-28T14:01:18Z</time>
      </trkpt>
      <trkpt lat="43.53295" lon="5.51304">
        <ele>273.5</ele>
        <time>2023-05-28T14:01:19Z</time>
      </trkpt>
      <trkpt lat="43.53296" lon="5.51304">
        <ele>273.6</ele>
        <time>2023-05-28T14:01:20Z</time>
      </trkpt>
      <trkpt lat="43.53297" lon="5.51303">
        <ele>273.6</ele>
        <time>2023-05-28T14:01:21Z</time>
      </trkpt>
      <trkpt lat="43.53297" lon="5.51303">
        <ele>273.6</ele>
        <time>2023-05-28T14:01:22Z</time>
      </trkpt>
      <trkpt lat="43.53298" lon="5.51302">
        <ele>273.7</ele>
        <time>2023-05-28T14:01:23Z</time>
      </trkpt>
      <trkpt lat="43.53298" lon="5.51303">
        <ele>273.7</ele>
        <time>2023-05-28T14:01:24Z</time>
      </trkpt>
      <trkpt lat="43.53299" lon="5.51302">
        <ele>273.8</ele>
        <time>2023-05-28T14:01:25Z</time>
      </trkpt>
      <trkpt lat="43.53299" lon="5.51302">
        <ele>273.9</ele>
        <time>2023-05-28T14:01:26Z</time>
      </trkpt>
      <trkpt lat="43.533" lon="5.51303">
        <ele>273.9</ele>
        <time>2023-05-28T14:01:27Z</time>
      </trkpt>
      <trkpt lat="43.53301" lon="5.51303">
        <ele>273.9</ele>
        <time>2023-05-28T14:01:28Z</time>
      </trkpt>
      <trkpt lat="43.53301" lon="5.51304">
        <ele>273.9</ele>
        <time>2023-05-28T14:01:29Z</time>
      </trkpt>
      <trkpt lat="43.53302" lon="5.51304">
        <ele>274</ele>
        <time>2023-05-28T14:01:30Z</time>
      </trkpt>
      <trkpt lat="43.53303" lon="5.51305">
        <ele>274</ele>
        <time>2023-05-28T14:01:31Z</time>
      </trkpt>
      <trkpt lat="43.53304" lon="5.51305">
        <ele>274.1</ele>
        <time>2023-05-28T14:01:32Z</time>
      </trkpt>
      <trkpt lat="43.53304" lon="5.51305">
        <ele>274.1</ele>
        <time>2023-05-28T14:01:33Z</time>
      </trkpt>
      <trkpt lat="43.53305" lon="5.51305">
        <ele>274.3</ele>
        <time>2023-05-28T14:01:34Z</time>
      </trkpt>
      <trkpt lat="43.53306" lon="5.51305">
        <ele>274.3</ele>
        <time>2023-05-28T14:01:35Z</time>
      </trkpt>
      <trkpt lat="43.53306" lon="5.51305">
        <ele>274.3</ele>
        <time>2023-05-28T14:01:36Z</time>
      </trkpt>
      <trkpt lat="43.53307" lon="5.51306">
        <ele>274.3</ele>
        <time>2023-05-28T14:01:37Z</time>
      </trkpt>
      <trkpt lat="43.53308" lon="5.51306">
        <ele>274.4</ele>
        <time>2023-05-28T14:01:38Z</time>
      </trkpt>
      <trkpt lat="43.53308" lon="5.51306">
        <ele>274.4</ele>
        <time>2023-05-28T14:01:39Z</time>
      </trkpt>
      <trkpt lat="43.53309" lon="5.51306">
        <ele>274.4</ele>
        <time>2023-05-28T14:01:40Z</time>
      </trkpt>
      <trkpt lat="43.5331" lon="5.51307">
        <ele>274.4</ele>
        <time>2023-05-28T14:01:41Z</time>
      </trkpt>
      <trkpt lat="43.53312" lon="5.51306">
        <ele>274.5</ele>
        <time>2023-05-28T14:01:42Z</time>
      </trkpt>
      <trkpt lat="43.53312" lon="5.51307">
        <ele>274.4</ele>
        <time>2023-05-28T14:01:43Z</time>
      </trkpt>
      <trkpt lat="43.53313" lon="5.51307">
        <ele>274.4</ele>
        <time>2023-05-28T14:01:44Z</time>
      </trkpt>
      <trkpt lat="43.53314" lon="5.51308">
        <ele>274.4</ele>
        <time>2023-05-28T14:01:45Z</time>
      </trkpt>
      <trkpt lat="43.53316" lon="5.51308">
        <ele>274.3</ele>
        <time>2023-05-28T14:01:46Z</time>
      </trkpt>
      <trkpt lat="43.53317" lon="5.51308">
        <ele>274.1</ele>
        <time>2023-05-28T14:01:47Z</time>
      </trkpt>
      <trkpt lat="43.53318" lon="5.51309">
        <ele>274.1</ele>
        <time>2023-05-28T14:01:48Z</time>
      </trkpt>
      <trkpt lat="43.53319" lon="5.51309">
        <ele>274.1</ele>
        <time>2023-05-28T14:01:49Z</time>
      </trkpt>
      <trkpt lat="43.5332" lon="5.51309">
        <ele>274</ele>
        <time>2023-05-28T14:01:50Z</time>
      </trkpt>
      <trkpt lat="43.53322" lon="5.5131">
        <ele>274.1</ele>
        <time>2023-05-28T14:01:51Z</time>
      </trkpt>
      <trkpt lat="43.53322" lon="5.5131">
        <ele>274.2</ele>
        <time>2023-05-28T14:01:52Z</time>
      </trkpt>
      <trkpt lat="43.53323" lon="5.5131">
        <ele>274.1</ele>
        <time>2023-05-28T14:01:53Z</time>
      </trkpt>
      <trkpt lat="43.53324" lon="5.5131">
        <ele>274.1</ele>
        <time>2023-05-28T14:01:54Z</time>
      </trkpt>
      <trkpt lat="43.53325" lon="5.5131">
        <ele>274.1</ele>
        <time>2023-05-28T14:01:55Z</time>
      </trkpt>
      <trkpt lat="43.53326" lon="5.5131">
        <ele>274.1</ele>
        <time>2023-05-28T14:01:56Z</time>
      </trkpt>
      <trkpt lat="43.53327" lon="5.51311">
        <ele>274.1</ele>
        <time>2023-05-28T14:01:57Z</time>
      </trkpt>
      <trkpt lat="43.53329" lon="5.51311">
        <ele>274.1</ele>
        <time>2023-05-28T14:01:58Z</time>
      </trkpt>
      <trkpt lat="43.53329" lon="5.51311">
        <ele>274.1</ele>
        <time>2023-05-28T14:01:59Z</time>
      </trkpt>
      <trkpt lat="43.5333" lon="5.5131">
        <ele>274.2</ele>
        <time>2023-05-28T14:02:00Z</time>
      </trkpt>
      <trkpt lat="43.53331" lon="5.51309">
        <ele>274.2</ele>
        <time>2023-05-28T14:02:01Z</time>
      </trkpt>
      <trkpt lat="43.53333" lon="5.51308">
        <ele>274.2</ele>
        <time>2023-05-28T14:02:02Z</time>
      </trkpt>
      <trkpt lat="43.53334" lon="5.51308">
        <ele>274.1</ele>
        <time>2023-05-28T14:02:03Z</time>
      </trkpt>
      <trkpt lat="43.53335" lon="5.51307">
        <ele>274.1</ele>
        <time>2023-05-28T14:02:04Z</time>
      </trkpt>
      <trkpt lat="43.53336" lon="5.51307">
        <ele>274.1</ele>
        <time>2023-05-28T14:02:05Z</time>
      </trkpt>
      <trkpt lat="43.53336" lon="5.51306">
        <ele>274.1</ele>
        <time>2023-05-28T14:02:06Z</time>
      </trkpt>
      <trkpt lat="43.53337" lon="5.51306">
        <ele>274</ele>
        <time>2023-05-28T14:02:07Z</time>
      </trkpt>
      <trkpt lat="43.53337" lon="5.51306">
        <ele>274.1</ele>
        <time>2023-05-28T14:02:08Z</time>
      </trkpt>
      <trkpt lat="43.53338" lon="5.51305">
        <ele>274.1</ele>
        <time>2023-05-28T14:02:09Z</time>
      </trkpt>
      <trkpt lat="43.53339" lon="5.51305">
        <ele>274.2</ele>
        <time>2023-05-28T14:02:10Z</time>
      </trkpt>
      <trkpt lat="43.53339" lon="5.51305">
        <ele>274.3</ele>
        <time>2023-05-28T14:02:11Z</time>
      </trkpt>
      <trkpt lat="43.5334" lon="5.51304">
        <ele>274.3</ele>
        <time>2023-05-28T14:02:12Z</time>
      </trkpt>
      <trkpt lat="43.53341" lon="5.51304">
        <ele>274.3</ele>
        <time>2023-05-28T14:02:13Z</time>
      </trkpt>
      <trkpt lat="43.53342" lon="5.51304">
        <ele>274.4</ele>
        <time>2023-05-28T14:02:14Z</time>
      </trkpt>
      <trkpt lat="43.53344" lon="5.51304">
        <ele>274.3</ele>
        <time>2023-05-28T14:02:15Z</time>
      </trkpt>
      <trkpt lat="43.53345" lon="5.51304">
        <ele>274.4</ele>
        <time>2023-05-28T14:02:16Z</time>
      </trkpt>
      <trkpt lat="43.53346" lon="5.51304">
        <ele>274.5</ele>
        <time>2023-05-28T14:02:17Z</time>
      </trkpt>
      <trkpt lat="43.53347" lon="5.51303">
        <ele>274.6</ele>
        <time>2023-05-28T14:02:18Z</time>
      </trkpt>
      <trkpt lat="43.53348" lon="5.51302">
        <ele>274.6</ele>
        <time>2023-05-28T14:02:19Z</time>
      </trkpt>
      <trkpt lat="43.53349" lon="5.51301">
        <ele>274.7</ele>
        <time>2023-05-28T14:02:20Z</time>
      </trkpt>
      <trkpt lat="43.5335" lon="5.513">
        <ele>274.8</ele>
        <time>2023-05-28T14:02:21Z</time>
      </trkpt>
      <trkpt lat="43.53351" lon="5.513">
        <ele>274.9</ele>
        <time>2023-05-28T14:02:22Z</time>
      </trkpt>
      <trkpt lat="43.53351" lon="5.513">
        <ele>274.9</ele>
        <time>2023-05-28T14:02:23Z</time>
      </trkpt>
      <trkpt lat="43.53352" lon="5.51299">
        <ele>274.9</ele>
        <time>2023-05-28T14:02:24Z</time>
      </trkpt>
      <trkpt lat="43.53353" lon="5.513">
        <ele>274.9</ele>
        <time>2023-05-28T14:02:25Z</time>
      </trkpt>
      <trkpt lat="43.53354" lon="5.513">
        <ele>274.9</ele>
        <time>2023-05-28T14:02:26Z</time>
      </trkpt>
      <trkpt lat="43.53356" lon="5.513">
        <ele>274.9</ele>
        <time>2023-05-28T14:02:27Z</time>
      </trkpt>
      <trkpt lat="43.53357" lon="5.513">
        <ele>274.9</ele>
        <time>2023-05-28T14:02:28Z</time>
      </trkpt>
      <trkpt lat="43.53358" lon="5.513">
        <ele>274.9</ele>
        <time>2023-05-28T14:02:29Z</time>
      </trkpt>
      <trkpt lat="43.53359" lon="5.513">
        <ele>275</ele>
        <time>2023-05-28T14:02:30Z</time>
      </trkpt>
      <trkpt lat="43.5336" lon="5.51299">
        <ele>275</ele>
        <time>2023-05-28T14:02:31Z</time>
      </trkpt>
      <trkpt lat="43.5336" lon="5.51299">
        <ele>275.1</ele>
        <time>2023-05-28T14:02:32Z</time>
      </trkpt>
      <trkpt lat="43.53362" lon="5.51299">
        <ele>275.1</ele>
        <time>2023-05-28T14:02:33Z</time>
      </trkpt>
      <trkpt lat="43.53363" lon="5.51299">
        <ele>275.2</ele>
        <time>2023-05-28T14:02:34Z</time>
      </trkpt>
      <trkpt lat="43.53365" lon="5.513">
        <ele>275.2</ele>
        <time>2023-05-28T14:02:35Z</time>
      </trkpt>
      <trkpt lat="43.53366" lon="5.513">
        <ele>275.2</ele>
        <time>2023-05-28T14:02:36Z</time>
      </trkpt>
      <trkpt lat="43.53368" lon="5.513">
        <ele>275.3</ele>
        <time>2023-05-28T14:02:37Z</time>
      </trkpt>
      <trkpt lat="43.53369" lon="5.51301">
        <ele>275.5</ele>
        <time>2023-05-28T14:02:38Z</time>
      </trkpt>
      <trkpt lat="43.5337" lon="5.51301">
        <ele>275.5</ele>
        <time>2023-05-28T14:02:39Z</time>
      </trkpt>
      <trkpt lat="43.53371" lon="5.51301">
        <ele>275.6</ele>
        <time>2023-05-28T14:02:40Z</time>
      </trkpt>
      <trkpt lat="43.53372" lon="5.51301">
        <ele>275.6</ele>
        <time>2023-05-28T14:02:41Z</time>
      </trkpt>
      <trkpt lat="43.53373" lon="5.51301">
        <ele>275.7</ele>
        <time>2023-05-28T14:02:42Z</time>
      </trkpt>
      <trkpt lat="43.53374" lon="5.51301">
        <ele>275.8</ele>
        <time>2023-05-28T14:02:43Z</time>
      </trkpt>
      <trkpt lat="43.53376" lon="5.51301">
        <ele>275.7</ele>
        <time>2023-05-28T14:02:44Z</time>
      </trkpt>
      <trkpt lat="43.53377" lon="5.51301">
        <ele>275.7</ele>
        <time>2023-05-28T14:02:45Z</time>
      </trkpt>
      <trkpt lat="43.53378" lon="5.513">
        <ele>275.9</ele>
        <time>2023-05-28T14:02:46Z</time>
      </trkpt>
      <trkpt lat="43.53379" lon="5.513">
        <ele>276</ele>
        <time>2023-05-28T14:02:47Z</time>
      </trkpt>
      <trkpt lat="43.5338" lon="5.513">
        <ele>276.1</ele>
        <time>2023-05-28T14:02:48Z</time>
      </trkpt>
      <trkpt lat="43.53381" lon="5.51301">
        <ele>276.1</ele>
        <time>2023-05-28T14:02:49Z</time>
      </trkpt>
      <trkpt lat="43.53382" lon="5.51301">
        <ele>276.1</ele>
        <time>2023-05-28T14:02:50Z</time>
      </trkpt>
      <trkpt lat="43.53383" lon="5.513">
        <ele>276.2</ele>
        <time>2023-05-28T14:02:51Z</time>
      </trkpt>
      <trkpt lat="43.53385" lon="5.51299">
        <ele>276.3</ele>
        <time>2023-05-28T14:02:52Z</time>
      </trkpt>
      <trkpt lat="43.53386" lon="5.51298">
        <ele>276.3</ele>
        <time>2023-05-28T14:02:53Z</time>
      </trkpt>
      <trkpt lat="43.53386" lon="5.51298">
        <ele>276.3</ele>
        <time>2023-05-28T14:02:54Z</time>
      </trkpt>
      <trkpt lat="43.53387" lon="5.51298">
        <ele>276.5</ele>
        <time>2023-05-28T14:02:55Z</time>
      </trkpt>
      <trkpt lat="43.53388" lon="5.51297">
        <ele>276.6</ele>
        <time>2023-05-28T14:02:56Z</time>
      </trkpt>
      <trkpt lat="43.5339" lon="5.51296">
        <ele>276.7</ele>
        <time>2023-05-28T14:02:57Z</time>
      </trkpt>
      <trkpt lat="43.53391" lon="5.51296">
        <ele>276.8</ele>
        <time>2023-05-28T14:02:58Z</time>
      </trkpt>
      <trkpt lat="43.53392" lon="5.51295">
        <ele>276.9</ele>
        <time>2023-05-28T14:02:59Z</time>
      </trkpt>
      <trkpt lat="43.53393" lon="5.51294">
        <ele>276.8</ele>
        <time>2023-05-28T14:03:00Z</time>
      </trkpt>
      <trkpt lat="43.53395" lon="5.51293">
        <ele>276.8</ele>
        <time>2023-05-28T14:03:01Z</time>
      </trkpt>
      <trkpt lat="43.53396" lon="5.51292">
        <ele>276.9</ele>
        <time>2023-05-28T14:03:02Z</time>
      </trkpt>
      <trkpt lat="43.53397" lon="5.51291">
        <ele>277</ele>
        <time>2023-05-28T14:03:03Z</time>
      </trkpt>
      <trkpt lat="43.53398" lon="5.51289">
        <ele>277.2</ele>
        <time>2023-05-28T14:03:04Z</time>
      </trkpt>
      <trkpt lat="43.53398" lon="5.51288">
        <ele>277.4</ele>
        <time>2023-05-28T14:03:05Z</time>
      </trkpt>
      <trkpt lat="43.53399" lon="5.51286">
        <ele>277.5</ele>
        <time>2023-05-28T14:03:06Z</time>
      </trkpt>
      <trkpt lat="43.53399" lon="5.51285">
        <ele>277.6</ele>
        <time>2023-05-28T14:03:07Z</time>
      </trkpt>
      <trkpt lat="43.534" lon="5.51285">
        <ele>277.7</ele>
        <time>2023-05-28T14:03:08Z</time>
      </trkpt>
      <trkpt lat="43.534" lon="5.51284">
        <ele>277.8</ele>
        <time>2023-05-28T14:03:09Z</time>
      </trkpt>
      <trkpt lat="43.534" lon="5.51283">
        <ele>277.8</ele>
        <time>2023-05-28T14:03:10Z</time>
      </trkpt>
      <trkpt lat="43.53401" lon="5.51282">
        <ele>277.9</ele>
        <time>2023-05-28T14:03:11Z</time>
      </trkpt>
      <trkpt lat="43.53402" lon="5.51281">
        <ele>277.9</ele>
        <time>2023-05-28T14:03:12Z</time>
      </trkpt>
      <trkpt lat="43.53402" lon="5.51279">
        <ele>278</ele>
        <time>2023-05-28T14:03:13Z</time>
      </trkpt>
      <trkpt lat="43.53403" lon="5.51278">
        <ele>278.1</ele>
        <time>2023-05-28T14:03:14Z</time>
      </trkpt>
      <trkpt lat="43.53404" lon="5.51277">
        <ele>278.2</ele>
        <time>2023-05-28T14:03:15Z</time>
      </trkpt>
      <trkpt lat="43.53405" lon="5.51276">
        <ele>278.2</ele>
        <time>2023-05-28T14:03:16Z</time>
      </trkpt>
      <trkpt lat="43.53406" lon="5.51275">
        <ele>278.2</ele>
        <time>2023-05-28T14:03:17Z</time>
      </trkpt>
      <trkpt lat="43.53406" lon="5.51275">
        <ele>278.4</ele>
        <time>2023-05-28T14:03:18Z</time>
      </trkpt>
      <trkpt lat="43.53407" lon="5.51273">
        <ele>278.7</ele>
        <time>2023-05-28T14:03:19Z</time>
      </trkpt>
      <trkpt lat="43.53408" lon="5.51273">
        <ele>278.9</ele>
        <time>2023-05-28T14:03:20Z</time>
      </trkpt>
      <trkpt lat="43.53408" lon="5.51272">
        <ele>279.1</ele>
        <time>2023-05-28T14:03:21Z</time>
      </trkpt>
      <trkpt lat="43.53408" lon="5.51271">
        <ele>279.3</ele>
        <time>2023-05-28T14:03:22Z</time>
      </trkpt>
      <trkpt lat="43.53409" lon="5.51269">
        <ele>279.4</ele>
        <time>2023-05-28T14:03:23Z</time>
      </trkpt>
      <trkpt lat="43.5341" lon="5.51268">
        <ele>279.5</ele>
        <time>2023-05-28T14:03:24Z</time>
      </trkpt>
      <trkpt lat="43.5341" lon="5.51267">
        <ele>279.6</ele>
        <time>2023-05-28T14:03:25Z</time>
      </trkpt>
      <trkpt lat="43.53411" lon="5.51265">
        <ele>279.6</ele>
        <time>2023-05-28T14:03:26Z</time>
      </trkpt>
      <trkpt lat="43.53412" lon="5.51264">
        <ele>279.9</ele>
        <time>2023-05-28T14:03:27Z</time>
      </trkpt>
      <trkpt lat="43.53414" lon="5.51263">
        <ele>280</ele>
        <time>2023-05-28T14:03:28Z</time>
      </trkpt>
      <trkpt lat="43.53414" lon="5.51261">
        <ele>280.2</ele>
        <time>2023-05-28T14:03:29Z</time>
      </trkpt>
      <trkpt lat="43.53415" lon="5.5126">
        <ele>280.3</ele>
        <time>2023-05-28T14:03:30Z</time>
      </trkpt>
      <trkpt lat="43.53416" lon="5.51257">
        <ele>280.4</ele>
        <time>2023-05-28T14:03:31Z</time>
      </trkpt>
      <trkpt lat="43.53417" lon="5.51256">
        <ele>280.5</ele>
        <time>2023-05-28T14:03:32Z</time>
      </trkpt>
      <trkpt lat="43.53418" lon="5.51254">
        <ele>280.6</ele>
        <time>2023-05-28T14:03:33Z</time>
      </trkpt>
      <trkpt lat="43.53419" lon="5.51252">
        <ele>280.7</ele>
        <time>2023-05-28T14:03:34Z</time>
      </trkpt>
      <trkpt lat="43.53419" lon="5.51251">
        <ele>280.8</ele>
        <time>2023-05-28T14:03:35Z</time>
      </trkpt>
      <trkpt lat="43.5342" lon="5.5125">
        <ele>280.9</ele>
        <time>2023-05-28T14:03:36Z</time>
      </trkpt>
      <trkpt lat="43.53421" lon="5.51249">
        <ele>280.9</ele>
        <time>2023-05-28T14:03:37Z</time>
      </trkpt>
      <trkpt lat="43.53421" lon="5.51248">
        <ele>280.9</ele>
        <time>2023-05-28T14:03:38Z</time>
      </trkpt>
      <trkpt lat="43.53421" lon="5.51247">
        <ele>280.9</ele>
        <time>2023-05-28T14:03:39Z</time>
      </trkpt>
      <trkpt lat="43.53421" lon="5.51246">
        <ele>281</ele>
        <time>2023-05-28T14:03:40Z</time>
      </trkpt>
      <trkpt lat="43.53422" lon="5.51245">
        <ele>281</ele>
        <time>2023-05-28T14:03:41Z</time>
      </trkpt>
      <trkpt lat="43.53423" lon="5.51245">
        <ele>281</ele>
        <time>2023-05-28T14:03:42Z</time>
      </trkpt>
      <trkpt lat="43.53424" lon="5.51245">
        <ele>281</ele>
        <time>2023-05-28T14:03:43Z</time>
      </trkpt>
      <trkpt lat="43.53424" lon="5.51246">
        <ele>281</ele>
        <time>2023-05-28T14:03:44Z</time>
      </trkpt>
      <trkpt lat="43.53425" lon="5.51247">
        <ele>281</ele>
        <time>2023-05-28T14:03:45Z</time>
      </trkpt>
      <trkpt lat="43.53425" lon="5.51248">
        <ele>281</ele>
        <time>2023-05-28T14:03:46Z</time>
      </trkpt>
      <trkpt lat="43.53426" lon="5.51248">
        <ele>281.1</ele>
        <time>2023-05-28T14:03:47Z</time>
      </trkpt>
      <trkpt lat="43.53427" lon="5.51249">
        <ele>281.2</ele>
        <time>2023-05-28T14:03:48Z</time>
      </trkpt>
      <trkpt lat="43.53428" lon="5.51249">
        <ele>281.2</ele>
        <time>2023-05-28T14:03:49Z</time>
      </trkpt>
      <trkpt lat="43.53427" lon="5.51249">
        <ele>281.3</ele>
        <time>2023-05-28T14:03:50Z</time>
      </trkpt>
      <trkpt lat="43.53428" lon="5.5125">
        <ele>281.3</ele>
        <time>2023-05-28T14:03:51Z</time>
      </trkpt>
      <trkpt lat="43.53428" lon="5.51251">
        <ele>281.3</ele>
        <time>2023-05-28T14:03:52Z</time>
      </trkpt>
      <trkpt lat="43.53429" lon="5.51252">
        <ele>281.4</ele>
        <time>2023-05-28T14:03:53Z</time>
      </trkpt>
      <trkpt lat="43.53429" lon="5.51253">
        <ele>281.6</ele>
        <time>2023-05-28T14:03:54Z</time>
      </trkpt>
      <trkpt lat="43.5343" lon="5.51254">
        <ele>281.7</ele>
        <time>2023-05-28T14:03:55Z</time>
      </trkpt>
      <trkpt lat="43.53431" lon="5.51255">
        <ele>281.7</ele>
        <time>2023-05-28T14:03:56Z</time>
      </trkpt>
      <trkpt lat="43.53432" lon="5.51257">
        <ele>281.9</ele>
        <time>2023-05-28T14:03:57Z</time>
      </trkpt>
      <trkpt lat="43.53432" lon="5.51258">
        <ele>281.9</ele>
        <time>2023-05-28T14:03:58Z</time>
      </trkpt>
      <trkpt lat="43.53432" lon="5.51259">
        <ele>282</ele>
        <time>2023-05-28T14:03:59Z</time>
      </trkpt>
      <trkpt lat="43.53433" lon="5.5126">
        <ele>282</ele>
        <time>2023-05-28T14:04:00Z</time>
      </trkpt>
      <trkpt lat="43.53434" lon="5.51262">
        <ele>282.1</ele>
        <time>2023-05-28T14:04:01Z</time>
      </trkpt>
      <trkpt lat="43.53436" lon="5.51264">
        <ele>282.1</ele>
        <time>2023-05-28T14:04:02Z</time>
      </trkpt>
      <trkpt lat="43.53437" lon="5.51265">
        <ele>282.2</ele>
        <time>2023-05-28T14:04:03Z</time>
      </trkpt>
      <trkpt lat="43.53439" lon="5.51266">
        <ele>282.2</ele>
        <time>2023-05-28T14:04:04Z</time>
      </trkpt>
      <trkpt lat="43.5344" lon="5.51267">
        <ele>282.2</ele>
        <time>2023-05-28T14:04:05Z</time>
      </trkpt>
      <trkpt lat="43.53441" lon="5.51268">
        <ele>282.2</ele>
        <time>2023-05-28T14:04:06Z</time>
      </trkpt>
      <trkpt lat="43.53442" lon="5.51269">
        <ele>282</ele>
        <time>2023-05-28T14:04:07Z</time>
      </trkpt>
      <trkpt lat="43.53443" lon="5.5127">
        <ele>282</ele>
        <time>2023-05-28T14:04:08Z</time>
      </trkpt>
      <trkpt lat="43.53444" lon="5.51271">
        <ele>282.1</ele>
        <time>2023-05-28T14:04:09Z</time>
      </trkpt>
      <trkpt lat="43.53445" lon="5.51272">
        <ele>281.8</ele>
        <time>2023-05-28T14:04:10Z</time>
      </trkpt>
      <trkpt lat="43.53446" lon="5.51273">
        <ele>281.9</ele>
        <time>2023-05-28T14:04:11Z</time>
      </trkpt>
      <trkpt lat="43.53447" lon="5.51274">
        <ele>282</ele>
        <time>2023-05-28T14:04:12Z</time>
      </trkpt>
      <trkpt lat="43.53448" lon="5.51276">
        <ele>282.2</ele>
        <time>2023-05-28T14:04:13Z</time>
      </trkpt>
      <trkpt lat="43.53449" lon="5.51276">
        <ele>282.3</ele>
        <time>2023-05-28T14:04:14Z</time>
      </trkpt>
      <trkpt lat="43.5345" lon="5.51277">
        <ele>282.3</ele>
        <time>2023-05-28T14:04:15Z</time>
      </trkpt>
      <trkpt lat="43.53451" lon="5.51277">
        <ele>282.4</ele>
        <time>2023-05-28T14:04:16Z</time>
      </trkpt>
      <trkpt lat="43.53453" lon="5.51278">
        <ele>282.5</ele>
        <time>2023-05-28T14:04:17Z</time>
      </trkpt>
      <trkpt lat="43.53454" lon="5.51279">
        <ele>282.6</ele>
        <time>2023-05-28T14:04:18Z</time>
      </trkpt>
      <trkpt lat="43.53454" lon="5.51279">
        <ele>282.7</ele>
        <time>2023-05-28T14:04:19Z</time>
      </trkpt>
      <trkpt lat="43.53456" lon="5.51279">
        <ele>282.7</ele>
        <time>2023-05-28T14:04:20Z</time>
      </trkpt>
      <trkpt lat="43.53457" lon="5.5128">
        <ele>282.7</ele>
        <time>2023-05-28T14:04:21Z</time>
      </trkpt>
      <trkpt lat="43.53458" lon="5.5128">
        <ele>282.7</ele>
        <time>2023-05-28T14:04:22Z</time>
      </trkpt>
      <trkpt lat="43.53459" lon="5.51281">
        <ele>282.7</ele>
        <time>2023-05-28T14:04:23Z</time>
      </trkpt>
      <trkpt lat="43.5346" lon="5.51283">
        <ele>282.8</ele>
        <time>2023-05-28T14:04:24Z</time>
      </trkpt>
      <trkpt lat="43.5346" lon="5.51283">
        <ele>282.8</ele>
        <time>2023-05-28T14:04:25Z</time>
      </trkpt>
      <trkpt lat="43.53461" lon="5.51284">
        <ele>282.9</ele>
        <time>2023-05-28T14:04:26Z</time>
      </trkpt>
      <trkpt lat="43.53462" lon="5.51285">
        <ele>283</ele>
        <time>2023-05-28T14:04:27Z</time>
      </trkpt>
      <trkpt lat="43.53463" lon="5.51285">
        <ele>283</ele>
        <time>2023-05-28T14:04:28Z</time>
      </trkpt>
      <trkpt lat="43.53464" lon="5.51286">
        <ele>283</ele>
        <time>2023-05-28T14:04:29Z</time>
      </trkpt>
      <trkpt lat="43.53465" lon="5.51287">
        <ele>283.1</ele>
        <time>2023-05-28T14:04:30Z</time>
      </trkpt>
      <trkpt lat="43.53466" lon="5.51288">
        <ele>283.2</ele>
        <time>2023-05-28T14:04:31Z</time>
      </trkpt>
      <trkpt lat="43.53468" lon="5.51288">
        <ele>283.3</ele>
        <time>2023-05-28T14:04:32Z</time>
      </trkpt>
      <trkpt lat="43.53469" lon="5.51289">
        <ele>283.5</ele>
        <time>2023-05-28T14:04:33Z</time>
      </trkpt>
      <trkpt lat="43.5347" lon="5.5129">
        <ele>283.6</ele>
        <time>2023-05-28T14:04:34Z</time>
      </trkpt>
      <trkpt lat="43.53471" lon="5.5129">
        <ele>283.7</ele>
        <time>2023-05-28T14:04:35Z</time>
      </trkpt>
      <trkpt lat="43.53472" lon="5.5129">
        <ele>284</ele>
        <time>2023-05-28T14:04:36Z</time>
      </trkpt>
      <trkpt lat="43.53474" lon="5.51291">
        <ele>284.1</ele>
        <time>2023-05-28T14:04:37Z</time>
      </trkpt>
      <trkpt lat="43.53475" lon="5.51291">
        <ele>284.3</ele>
        <time>2023-05-28T14:04:38Z</time>
      </trkpt>
      <trkpt lat="43.53476" lon="5.51292">
        <ele>284.4</ele>
        <time>2023-05-28T14:04:39Z</time>
      </trkpt>
      <trkpt lat="43.53477" lon="5.51293">
        <ele>284.5</ele>
        <time>2023-05-28T14:04:40Z</time>
      </trkpt>
      <trkpt lat="43.53479" lon="5.51293">
        <ele>284.6</ele>
        <time>2023-05-28T14:04:41Z</time>
      </trkpt>
      <trkpt lat="43.5348" lon="5.51293">
        <ele>284.7</ele>
        <time>2023-05-28T14:04:42Z</time>
      </trkpt>
      <trkpt lat="43.53481" lon="5.51293">
        <ele>284.8</ele>
        <time>2023-05-28T14:04:43Z</time>
      </trkpt>
      <trkpt lat="43.53482" lon="5.51293">
        <ele>284.9</ele>
        <time>2023-05-28T14:04:44Z</time>
      </trkpt>
      <trkpt lat="43.53483" lon="5.51293">
        <ele>284.9</ele>
        <time>2023-05-28T14:04:45Z</time>
      </trkpt>
      <trkpt lat="43.53485" lon="5.51293">
        <ele>285</ele>
        <time>2023-05-28T14:04:46Z</time>
      </trkpt>
      <trkpt lat="43.53486" lon="5.51293">
        <ele>285.2</ele>
        <time>2023-05-28T14:04:47Z</time>
      </trkpt>
      <trkpt lat="43.53487" lon="5.51293">
        <ele>285.2</ele>
        <time>2023-05-28T14:04:48Z</time>
      </trkpt>
      <trkpt lat="43.53489" lon="5.51292">
        <ele>285.2</ele>
        <time>2023-05-28T14:04:49Z</time>
      </trkpt>
      <trkpt lat="43.53489" lon="5.51292">
        <ele>285.2</ele>
        <time>2023-05-28T14:04:50Z</time>
      </trkpt>
      <trkpt lat="43.53491" lon="5.51291">
        <ele>285.2</ele>
        <time>2023-05-28T14:04:51Z</time>
      </trkpt>
      <trkpt lat="43.53492" lon="5.5129">
        <ele>285.2</ele>
        <time>2023-05-28T14:04:52Z</time>
      </trkpt>
      <trkpt lat="43.53493" lon="5.51289">
        <ele>285.2</ele>
        <time>2023-05-28T14:04:53Z</time>
      </trkpt>
      <trkpt lat="43.53494" lon="5.51289">
        <ele>285.2</ele>
        <time>2023-05-28T14:04:54Z</time>
      </trkpt>
      <trkpt lat="43.53495" lon="5.51289">
        <ele>285.2</ele>
        <time>2023-05-28T14:04:55Z</time>
      </trkpt>
      <trkpt lat="43.53496" lon="5.51288">
        <ele>285.4</ele>
        <time>2023-05-28T14:04:56Z</time>
      </trkpt>
      <trkpt lat="43.53497" lon="5.51288">
        <ele>285.5</ele>
        <time>2023-05-28T14:04:57Z</time>
      </trkpt>
      <trkpt lat="43.53497" lon="5.51287">
        <ele>285.5</ele>
        <time>2023-05-28T14:04:58Z</time>
      </trkpt>
      <trkpt lat="43.53498" lon="5.51286">
        <ele>285.6</ele>
        <time>2023-05-28T14:04:59Z</time>
      </trkpt>
      <trkpt lat="43.53499" lon="5.51284">
        <ele>285.6</ele>
        <time>2023-05-28T14:05:00Z</time>
      </trkpt>
      <trkpt lat="43.535" lon="5.51282">
        <ele>285.8</ele>
        <time>2023-05-28T14:05:01Z</time>
      </trkpt>
      <trkpt lat="43.535" lon="5.51281">
        <ele>286</ele>
        <time>2023-05-28T14:05:02Z</time>
      </trkpt>
      <trkpt lat="43.53501" lon="5.51279">
        <ele>286.3</ele>
        <time>2023-05-28T14:05:03Z</time>
      </trkpt>
      <trkpt lat="43.53502" lon="5.51278">
        <ele>286.5</ele>
        <time>2023-05-28T14:05:04Z</time>
      </trkpt>
      <trkpt lat="43.53503" lon="5.51277">
        <ele>286.7</ele>
        <time>2023-05-28T14:05:05Z</time>
      </trkpt>
      <trkpt lat="43.53503" lon="5.51276">
        <ele>286.8</ele>
        <time>2023-05-28T14:05:06Z</time>
      </trkpt>
      <trkpt lat="43.53504" lon="5.51275">
        <ele>286.8</ele>
        <time>2023-05-28T14:05:07Z</time>
      </trkpt>
      <trkpt lat="43.53505" lon="5.51274">
        <ele>286.8</ele>
        <time>2023-05-28T14:05:08Z</time>
      </trkpt>
      <trkpt lat="43.53506" lon="5.51273">
        <ele>287</ele>
        <time>2023-05-28T14:05:09Z</time>
      </trkpt>
      <trkpt lat="43.53507" lon="5.51272">
        <ele>287.1</ele>
        <time>2023-05-28T14:05:10Z</time>
      </trkpt>
      <trkpt lat="43.53508" lon="5.5127">
        <ele>287.2</ele>
        <time>2023-05-28T14:05:11Z</time>
      </trkpt>
      <trkpt lat="43.53508" lon="5.51269">
        <ele>287.4</ele>
        <time>2023-05-28T14:05:12Z</time>
      </trkpt>
      <trkpt lat="43.53509" lon="5.51268">
        <ele>287.5</ele>
        <time>2023-05-28T14:05:13Z</time>
      </trkpt>
      <trkpt lat="43.53509" lon="5.51267">
        <ele>287.5</ele>
        <time>2023-05-28T14:05:14Z</time>
      </trkpt>
      <trkpt lat="43.5351" lon="5.51266">
        <ele>287.6</ele>
        <time>2023-05-28T14:05:15Z</time>
      </trkpt>
      <trkpt lat="43.5351" lon="5.51265">
        <ele>287.7</ele>
        <time>2023-05-28T14:05:16Z</time>
      </trkpt>
      <trkpt lat="43.5351" lon="5.51265">
        <ele>287.8</ele>
        <time>2023-05-28T14:05:17Z</time>
      </trkpt>
      <trkpt lat="43.5351" lon="5.51262">
        <ele>287.9</ele>
        <time>2023-05-28T14:05:18Z</time>
      </trkpt>
      <trkpt lat="43.53511" lon="5.5126">
        <ele>288</ele>
        <time>2023-05-28T14:05:19Z</time>
      </trkpt>
      <trkpt lat="43.53511" lon="5.51259">
        <ele>288.1</ele>
        <time>2023-05-28T14:05:20Z</time>
      </trkpt>
      <trkpt lat="43.53512" lon="5.51256">
        <ele>288.2</ele>
        <time>2023-05-28T14:05:21Z</time>
      </trkpt>
      <trkpt lat="43.53512" lon="5.51255">
        <ele>288.3</ele>
        <time>2023-05-28T14:05:22Z</time>
      </trkpt>
      <trkpt lat="43.53513" lon="5.51253">
        <ele>288.4</ele>
        <time>2023-05-28T14:05:23Z</time>
      </trkpt>
      <trkpt lat="43.53513" lon="5.51251">
        <ele>288.5</ele>
        <time>2023-05-28T14:05:24Z</time>
      </trkpt>
      <trkpt lat="43.53513" lon="5.51249">
        <ele>288.8</ele>
        <time>2023-05-28T14:05:25Z</time>
      </trkpt>
      <trkpt lat="43.53513" lon="5.51248">
        <ele>289</ele>
        <time>2023-05-28T14:05:26Z</time>
      </trkpt>
      <trkpt lat="43.53513" lon="5.51247">
        <ele>289.1</ele>
        <time>2023-05-28T14:05:27Z</time>
      </trkpt>
      <trkpt lat="43.53513" lon="5.51246">
        <ele>289.2</ele>
        <time>2023-05-28T14:05:28Z</time>
      </trkpt>
      <trkpt lat="43.53513" lon="5.51244">
        <ele>289.2</ele>
        <time>2023-05-28T14:05:29Z</time>
      </trkpt>
      <trkpt lat="43.53513" lon="5.51243">
        <ele>289.4</ele>
        <time>2023-05-28T14:05:30Z</time>
      </trkpt>
      <trkpt lat="43.53513" lon="5.51241">
        <ele>289.5</ele>
        <time>2023-05-28T14:05:31Z</time>
      </trkpt>
      <trkpt lat="43.53512" lon="5.5124">
        <ele>289.7</ele>
        <time>2023-05-28T14:05:32Z</time>
      </trkpt>
      <trkpt lat="43.53512" lon="5.51238">
        <ele>289.8</ele>
        <time>2023-05-28T14:05:33Z</time>
      </trkpt>
      <trkpt lat="43.53511" lon="5.51237">
        <ele>289.9</ele>
        <time>2023-05-28T14:05:34Z</time>
      </trkpt>
      <trkpt lat="43.53511" lon="5.51235">
        <ele>290.1</ele>
        <time>2023-05-28T14:05:35Z</time>
      </trkpt>
      <trkpt lat="43.5351" lon="5.51234">
        <ele>290.2</ele>
        <time>2023-05-28T14:05:36Z</time>
      </trkpt>
      <trkpt lat="43.5351" lon="5.51233">
        <ele>290.4</ele>
        <time>2023-05-28T14:05:37Z</time>
      </trkpt>
      <trkpt lat="43.5351" lon="5.51231">
        <ele>290.5</ele>
        <time>2023-05-28T14:05:38Z</time>
      </trkpt>
      <trkpt lat="43.5351" lon="5.5123">
        <ele>290.6</ele>
        <time>2023-05-28T14:05:39Z</time>
      </trkpt>
      <trkpt lat="43.53509" lon="5.5123">
        <ele>290.7</ele>
        <time>2023-05-28T14:05:40Z</time>
      </trkpt>
      <trkpt lat="43.53508" lon="5.51228">
        <ele>290.8</ele>
        <time>2023-05-28T14:05:41Z</time>
      </trkpt>
      <trkpt lat="43.53508" lon="5.51227">
        <ele>291</ele>
        <time>2023-05-28T14:05:42Z</time>
      </trkpt>
      <trkpt lat="43.53508" lon="5.51226">
        <ele>291.1</ele>
        <time>2023-05-28T14:05:43Z</time>
      </trkpt>
      <trkpt lat="43.53508" lon="5.51225">
        <ele>291.2</ele>
        <time>2023-05-28T14:05:44Z</time>
      </trkpt>
      <trkpt lat="43.53508" lon="5.51224">
        <ele>291.4</ele>
        <time>2023-05-28T14:05:45Z</time>
      </trkpt>
      <trkpt lat="43.53508" lon="5.51223">
        <ele>291.6</ele>
        <time>2023-05-28T14:05:46Z</time>
      </trkpt>
      <trkpt lat="43.53508" lon="5.51222">
        <ele>291.8</ele>
        <time>2023-05-28T14:05:47Z</time>
      </trkpt>
      <trkpt lat="43.53507" lon="5.51221">
        <ele>292</ele>
        <time>2023-05-28T14:05:48Z</time>
      </trkpt>
      <trkpt lat="43.53507" lon="5.5122">
        <ele>292.1</ele>
        <time>2023-05-28T14:05:49Z</time>
      </trkpt>
      <trkpt lat="43.53507" lon="5.51219">
        <ele>292.2</ele>
        <time>2023-05-28T14:05:50Z</time>
      </trkpt>
      <trkpt lat="43.53507" lon="5.51218">
        <ele>292.3</ele>
        <time>2023-05-28T14:05:51Z</time>
      </trkpt>
      <trkpt lat="43.53507" lon="5.51217">
        <ele>292.4</ele>
        <time>2023-05-28T14:05:52Z</time>
      </trkpt>
      <trkpt lat="43.53507" lon="5.51215">
        <ele>292.5</ele>
        <time>2023-05-28T14:05:53Z</time>
      </trkpt>
      <trkpt lat="43.53507" lon="5.51214">
        <ele>292.5</ele>
        <time>2023-05-28T14:05:54Z</time>
      </trkpt>
      <trkpt lat="43.53508" lon="5.51214">
        <ele>292.6</ele>
        <time>2023-05-28T14:05:55Z</time>
      </trkpt>
      <trkpt lat="43.53508" lon="5.51214">
        <ele>292.9</ele>
        <time>2023-05-28T14:05:56Z</time>
      </trkpt>
      <trkpt lat="43.53508" lon="5.51213">
        <ele>293.1</ele>
        <time>2023-05-28T14:05:57Z</time>
      </trkpt>
      <trkpt lat="43.53508" lon="5.51213">
        <ele>293.3</ele>
        <time>2023-05-28T14:05:58Z</time>
      </trkpt>
      <trkpt lat="43.53509" lon="5.51211">
        <ele>293.5</ele>
        <time>2023-05-28T14:05:59Z</time>
      </trkpt>
      <trkpt lat="43.53509" lon="5.5121">
        <ele>293.6</ele>
        <time>2023-05-28T14:06:00Z</time>
      </trkpt>
      <trkpt lat="43.53509" lon="5.51209">
        <ele>293.7</ele>
        <time>2023-05-28T14:06:01Z</time>
      </trkpt>
      <trkpt lat="43.5351" lon="5.51209">
        <ele>293.8</ele>
        <time>2023-05-28T14:06:02Z</time>
      </trkpt>
      <trkpt lat="43.5351" lon="5.51208">
        <ele>294</ele>
        <time>2023-05-28T14:06:03Z</time>
      </trkpt>
      <trkpt lat="43.53511" lon="5.51207">
        <ele>294.1</ele>
        <time>2023-05-28T14:06:04Z</time>
      </trkpt>
      <trkpt lat="43.53512" lon="5.51206">
        <ele>294.2</ele>
        <time>2023-05-28T14:06:05Z</time>
      </trkpt>
      <trkpt lat="43.53513" lon="5.51205">
        <ele>294.4</ele>
        <time>2023-05-28T14:06:06Z</time>
      </trkpt>
      <trkpt lat="43.53513" lon="5.51204">
        <ele>294.5</ele>
        <time>2023-05-28T14:06:07Z</time>
      </trkpt>
      <trkpt lat="43.53514" lon="5.51204">
        <ele>294.7</ele>
        <time>2023-05-28T14:06:08Z</time>
      </trkpt>
      <trkpt lat="43.53515" lon="5.51203">
        <ele>294.8</ele>
        <time>2023-05-28T14:06:09Z</time>
      </trkpt>
      <trkpt lat="43.53515" lon="5.51203">
        <ele>295</ele>
        <time>2023-05-28T14:06:10Z</time>
      </trkpt>
      <trkpt lat="43.53516" lon="5.51202">
        <ele>295.1</ele>
        <time>2023-05-28T14:06:11Z</time>
      </trkpt>
      <trkpt lat="43.53517" lon="5.51202">
        <ele>295.2</ele>
        <time>2023-05-28T14:06:12Z</time>
      </trkpt>
      <trkpt lat="43.53518" lon="5.51201">
        <ele>295.3</ele>
        <time>2023-05-28T14:06:13Z</time>
      </trkpt>
      <trkpt lat="43.53518" lon="5.51199">
        <ele>295.4</ele>
        <time>2023-05-28T14:06:14Z</time>
      </trkpt>
      <trkpt lat="43.53519" lon="5.51198">
        <ele>295.6</ele>
        <time>2023-05-28T14:06:15Z</time>
      </trkpt>
      <trkpt lat="43.5352" lon="5.51197">
        <ele>295.7</ele>
        <time>2023-05-28T14:06:16Z</time>
      </trkpt>
      <trkpt lat="43.53521" lon="5.51196">
        <ele>295.9</ele>
        <time>2023-05-28T14:06:17Z</time>
      </trkpt>
      <trkpt lat="43.53522" lon="5.51195">
        <ele>296</ele>
        <time>2023-05-28T14:06:18Z</time>
      </trkpt>
      <trkpt lat="43.53522" lon="5.51194">
        <ele>296.2</ele>
        <time>2023-05-28T14:06:19Z</time>
      </trkpt>
      <trkpt lat="43.53523" lon="5.51192">
        <ele>296.4</ele>
        <time>2023-05-28T14:06:20Z</time>
      </trkpt>
      <trkpt lat="43.53524" lon="5.51191">
        <ele>296.5</ele>
        <time>2023-05-28T14:06:21Z</time>
      </trkpt>
      <trkpt lat="43.53524" lon="5.51189">
        <ele>296.6</ele>
        <time>2023-05-28T14:06:22Z</time>
      </trkpt>
      <trkpt lat="43.53525" lon="5.51188">
        <ele>296.7</ele>
        <time>2023-05-28T14:06:23Z</time>
      </trkpt>
      <trkpt lat="43.53525" lon="5.51187">
        <ele>296.8</ele>
        <time>2023-05-28T14:06:24Z</time>
      </trkpt>
      <trkpt lat="43.53526" lon="5.51187">
        <ele>296.9</ele>
        <time>2023-05-28T14:06:25Z</time>
      </trkpt>
      <trkpt lat="43.53526" lon="5.51185">
        <ele>296.9</ele>
        <time>2023-05-28T14:06:26Z</time>
      </trkpt>
      <trkpt lat="43.53526" lon="5.51184">
        <ele>296.8</ele>
        <time>2023-05-28T14:06:27Z</time>
      </trkpt>
      <trkpt lat="43.53527" lon="5.51183">
        <ele>296.9</ele>
        <time>2023-05-28T14:06:28Z</time>
      </trkpt>
      <trkpt lat="43.53527" lon="5.51182">
        <ele>297.1</ele>
        <time>2023-05-28T14:06:29Z</time>
      </trkpt>
      <trkpt lat="43.53528" lon="5.51181">
        <ele>297.3</ele>
        <time>2023-05-28T14:06:30Z</time>
      </trkpt>
      <trkpt lat="43.53529" lon="5.51179">
        <ele>297.2</ele>
        <time>2023-05-28T14:06:31Z</time>
      </trkpt>
      <trkpt lat="43.53529" lon="5.51178">
        <ele>297.2</ele>
        <time>2023-05-28T14:06:32Z</time>
      </trkpt>
      <trkpt lat="43.5353" lon="5.51177">
        <ele>297.3</ele>
        <time>2023-05-28T14:06:33Z</time>
      </trkpt>
      <trkpt lat="43.5353" lon="5.51176">
        <ele>297.4</ele>
        <time>2023-05-28T14:06:34Z</time>
      </trkpt>
      <trkpt lat="43.53531" lon="5.51174">
        <ele>297.6</ele>
        <time>2023-05-28T14:06:35Z</time>
      </trkpt>
      <trkpt lat="43.53531" lon="5.51173">
        <ele>297.8</ele>
        <time>2023-05-28T14:06:36Z</time>
      </trkpt>
      <trkpt lat="43.53532" lon="5.51171">
        <ele>297.9</ele>
        <time>2023-05-28T14:06:37Z</time>
      </trkpt>
      <trkpt lat="43.53532" lon="5.51171">
        <ele>298</ele>
        <time>2023-05-28T14:06:38Z</time>
      </trkpt>
      <trkpt lat="43.53532" lon="5.5117">
        <ele>298.3</ele>
        <time>2023-05-28T14:06:39Z</time>
      </trkpt>
      <trkpt lat="43.53533" lon="5.51169">
        <ele>298.5</ele>
        <time>2023-05-28T14:06:40Z</time>
      </trkpt>
      <trkpt lat="43.53533" lon="5.51168">
        <ele>298.7</ele>
        <time>2023-05-28T14:06:41Z</time>
      </trkpt>
      <trkpt lat="43.53533" lon="5.51167">
        <ele>298.9</ele>
        <time>2023-05-28T14:06:42Z</time>
      </trkpt>
      <trkpt lat="43.53534" lon="5.51165">
        <ele>299</ele>
        <time>2023-05-28T14:06:43Z</time>
      </trkpt>
      <trkpt lat="43.53534" lon="5.51164">
        <ele>299.2</ele>
        <time>2023-05-28T14:06:44Z</time>
      </trkpt>
      <trkpt lat="43.53535" lon="5.51164">
        <ele>299.4</ele>
        <time>2023-05-28T14:06:45Z</time>
      </trkpt>
      <trkpt lat="43.53535" lon="5.51163">
        <ele>299.7</ele>
        <time>2023-05-28T14:06:46Z</time>
      </trkpt>
      <trkpt lat="43.53535" lon="5.51162">
        <ele>299.8</ele>
        <time>2023-05-28T14:06:47Z</time>
      </trkpt>
      <trkpt lat="43.53535" lon="5.51161">
        <ele>300</ele>
        <time>2023-05-28T14:06:48Z</time>
      </trkpt>
      <trkpt lat="43.53536" lon="5.5116">
        <ele>300.1</ele>
        <time>2023-05-28T14:06:49Z</time>
      </trkpt>
      <trkpt lat="43.53536" lon="5.51159">
        <ele>300.1</ele>
        <time>2023-05-28T14:06:50Z</time>
      </trkpt>
      <trkpt lat="43.53537" lon="5.51158">
        <ele>300.1</ele>
        <time>2023-05-28T14:06:51Z</time>
      </trkpt>
      <trkpt lat="43.53537" lon="5.51158">
        <ele>300.2</ele>
        <time>2023-05-28T14:06:52Z</time>
      </trkpt>
      <trkpt lat="43.53538" lon="5.51156">
        <ele>300.2</ele>
        <time>2023-05-28T14:06:53Z</time>
      </trkpt>
      <trkpt lat="43.53538" lon="5.51155">
        <ele>300.3</ele>
        <time>2023-05-28T14:06:54Z</time>
      </trkpt>
      <trkpt lat="43.53539" lon="5.51154">
        <ele>300.5</ele>
        <time>2023-05-28T14:06:55Z</time>
      </trkpt>
      <trkpt lat="43.5354" lon="5.51153">
        <ele>300.7</ele>
        <time>2023-05-28T14:06:56Z</time>
      </trkpt>
      <trkpt lat="43.5354" lon="5.51152">
        <ele>300.8</ele>
        <time>2023-05-28T14:06:57Z</time>
      </trkpt>
      <trkpt lat="43.53541" lon="5.51152">
        <ele>300.9</ele>
        <time>2023-05-28T14:06:58Z</time>
      </trkpt>
      <trkpt lat="43.53541" lon="5.51151">
        <ele>300.8</ele>
        <time>2023-05-28T14:06:59Z</time>
      </trkpt>
      <trkpt lat="43.53542" lon="5.5115">
        <ele>300.9</ele>
        <time>2023-05-28T14:07:00Z</time>
      </trkpt>
      <trkpt lat="43.53543" lon="5.51149">
        <ele>301</ele>
        <time>2023-05-28T14:07:01Z</time>
      </trkpt>
      <trkpt lat="43.53543" lon="5.51148">
        <ele>301</ele>
        <time>2023-05-28T14:07:02Z</time>
      </trkpt>
      <trkpt lat="43.53544" lon="5.51147">
        <ele>301.1</ele>
        <time>2023-05-28T14:07:03Z</time>
      </trkpt>
      <trkpt lat="43.53544" lon="5.51146">
        <ele>301.2</ele>
        <time>2023-05-28T14:07:04Z</time>
      </trkpt>
      <trkpt lat="43.53545" lon="5.51145">
        <ele>301.2</ele>
        <time>2023-05-28T14:07:05Z</time>
      </trkpt>
      <trkpt lat="43.53546" lon="5.51144">
        <ele>301.4</ele>
        <time>2023-05-28T14:07:06Z</time>
      </trkpt>
      <trkpt lat="43.53547" lon="5.51143">
        <ele>301.2</ele>
        <time>2023-05-28T14:07:07Z</time>
      </trkpt>
      <trkpt lat="43.53547" lon="5.51142">
        <ele>301.3</ele>
        <time>2023-05-28T14:07:08Z</time>
      </trkpt>
      <trkpt lat="43.53548" lon="5.51141">
        <ele>301.5</ele>
        <time>2023-05-28T14:07:09Z</time>
      </trkpt>
      <trkpt lat="43.53549" lon="5.5114">
        <ele>301.6</ele>
        <time>2023-05-28T14:07:10Z</time>
      </trkpt>
      <trkpt lat="43.53549" lon="5.51139">
        <ele>301.7</ele>
        <time>2023-05-28T14:07:11Z</time>
      </trkpt>
      <trkpt lat="43.5355" lon="5.51138">
        <ele>301.8</ele>
        <time>2023-05-28T14:07:12Z</time>
      </trkpt>
      <trkpt lat="43.5355" lon="5.51137">
        <ele>301.9</ele>
        <time>2023-05-28T14:07:13Z</time>
      </trkpt>
      <trkpt lat="43.5355" lon="5.51137">
        <ele>302</ele>
        <time>2023-05-28T14:07:14Z</time>
      </trkpt>
      <trkpt lat="43.53551" lon="5.51136">
        <ele>302.1</ele>
        <time>2023-05-28T14:07:15Z</time>
      </trkpt>
      <trkpt lat="43.53552" lon="5.51133">
        <ele>302.2</ele>
        <time>2023-05-28T14:07:16Z</time>
      </trkpt>
      <trkpt lat="43.53553" lon="5.51131">
        <ele>302.3</ele>
        <time>2023-05-28T14:07:17Z</time>
      </trkpt>
      <trkpt lat="43.53553" lon="5.5113">
        <ele>302.4</ele>
        <time>2023-05-28T14:07:18Z</time>
      </trkpt>
      <trkpt lat="43.53554" lon="5.51129">
        <ele>302.5</ele>
        <time>2023-05-28T14:07:19Z</time>
      </trkpt>
      <trkpt lat="43.53554" lon="5.51129">
        <ele>302.7</ele>
        <time>2023-05-28T14:07:20Z</time>
      </trkpt>
      <trkpt lat="43.53555" lon="5.51128">
        <ele>302.8</ele>
        <time>2023-05-28T14:07:21Z</time>
      </trkpt>
      <trkpt lat="43.53556" lon="5.51127">
        <ele>302.9</ele>
        <time>2023-05-28T14:07:22Z</time>
      </trkpt>
      <trkpt lat="43.53556" lon="5.51127">
        <ele>303.1</ele>
        <time>2023-05-28T14:07:23Z</time>
      </trkpt>
      <trkpt lat="43.53557" lon="5.51126">
        <ele>303.4</ele>
        <time>2023-05-28T14:07:24Z</time>
      </trkpt>
      <trkpt lat="43.53558" lon="5.51126">
        <ele>303.7</ele>
        <time>2023-05-28T14:07:25Z</time>
      </trkpt>
      <trkpt lat="43.53558" lon="5.51124">
        <ele>303.9</ele>
        <time>2023-05-28T14:07:26Z</time>
      </trkpt>
      <trkpt lat="43.53558" lon="5.51122">
        <ele>304.1</ele>
        <time>2023-05-28T14:07:27Z</time>
      </trkpt>
      <trkpt lat="43.53559" lon="5.51121">
        <ele>304.2</ele>
        <time>2023-05-28T14:07:28Z</time>
      </trkpt>
      <trkpt lat="43.53559" lon="5.51121">
        <ele>304.3</ele>
        <time>2023-05-28T14:07:29Z</time>
      </trkpt>
      <trkpt lat="43.53559" lon="5.51119">
        <ele>304.5</ele>
        <time>2023-05-28T14:07:30Z</time>
      </trkpt>
      <trkpt lat="43.53559" lon="5.51119">
        <ele>304.7</ele>
        <time>2023-05-28T14:07:31Z</time>
      </trkpt>
      <trkpt lat="43.5356" lon="5.51119">
        <ele>304.8</ele>
        <time>2023-05-28T14:07:32Z</time>
      </trkpt>
      <trkpt lat="43.5356" lon="5.51119">
        <ele>305.1</ele>
        <time>2023-05-28T14:07:33Z</time>
      </trkpt>
      <trkpt lat="43.53561" lon="5.51118">
        <ele>305.3</ele>
        <time>2023-05-28T14:07:34Z</time>
      </trkpt>
      <trkpt lat="43.53562" lon="5.51118">
        <ele>305.5</ele>
        <time>2023-05-28T14:07:35Z</time>
      </trkpt>
      <trkpt lat="43.53563" lon="5.51117">
        <ele>305.6</ele>
        <time>2023-05-28T14:07:36Z</time>
      </trkpt>
      <trkpt lat="43.53563" lon="5.51117">
        <ele>305.8</ele>
        <time>2023-05-28T14:07:37Z</time>
      </trkpt>
      <trkpt lat="43.53564" lon="5.51117">
        <ele>305.9</ele>
        <time>2023-05-28T14:07:38Z</time>
      </trkpt>
      <trkpt lat="43.53564" lon="5.51116">
        <ele>306.3</ele>
        <time>2023-05-28T14:07:39Z</time>
      </trkpt>
      <trkpt lat="43.53564" lon="5.51116">
        <ele>306.5</ele>
        <time>2023-05-28T14:07:40Z</time>
      </trkpt>
      <trkpt lat="43.53565" lon="5.51115">
        <ele>306.7</ele>
        <time>2023-05-28T14:07:41Z</time>
      </trkpt>
      <trkpt lat="43.53565" lon="5.51113">
        <ele>306.8</ele>
        <time>2023-05-28T14:07:42Z</time>
      </trkpt>
      <trkpt lat="43.53566" lon="5.51113">
        <ele>306.9</ele>
        <time>2023-05-28T14:07:43Z</time>
      </trkpt>
      <trkpt lat="43.53567" lon="5.51112">
        <ele>307.1</ele>
        <time>2023-05-28T14:07:44Z</time>
      </trkpt>
      <trkpt lat="43.53568" lon="5.51112">
        <ele>307.2</ele>
        <time>2023-05-28T14:07:45Z</time>
      </trkpt>
      <trkpt lat="43.53569" lon="5.51111">
        <ele>307.2</ele>
        <time>2023-05-28T14:07:46Z</time>
      </trkpt>
      <trkpt lat="43.5357" lon="5.51111">
        <ele>307.3</ele>
        <time>2023-05-28T14:07:47Z</time>
      </trkpt>
      <trkpt lat="43.5357" lon="5.5111">
        <ele>307.4</ele>
        <time>2023-05-28T14:07:48Z</time>
      </trkpt>
      <trkpt lat="43.53571" lon="5.5111">
        <ele>307.5</ele>
        <time>2023-05-28T14:07:49Z</time>
      </trkpt>
      <trkpt lat="43.53572" lon="5.51108">
        <ele>307.6</ele>
        <time>2023-05-28T14:07:50Z</time>
      </trkpt>
      <trkpt lat="43.53572" lon="5.51107">
        <ele>307.7</ele>
        <time>2023-05-28T14:07:51Z</time>
      </trkpt>
      <trkpt lat="43.53572" lon="5.51106">
        <ele>307.8</ele>
        <time>2023-05-28T14:07:52Z</time>
      </trkpt>
      <trkpt lat="43.53572" lon="5.51105">
        <ele>308</ele>
        <time>2023-05-28T14:07:53Z</time>
      </trkpt>
      <trkpt lat="43.53573" lon="5.51105">
        <ele>308.1</ele>
        <time>2023-05-28T14:07:54Z</time>
      </trkpt>
      <trkpt lat="43.53572" lon="5.51105">
        <ele>308.2</ele>
        <time>2023-05-28T14:07:55Z</time>
      </trkpt>
      <trkpt lat="43.53572" lon="5.51104">
        <ele>308.3</ele>
        <time>2023-05-28T14:07:56Z</time>
      </trkpt>
      <trkpt lat="43.53572" lon="5.51103">
        <ele>308.4</ele>
        <time>2023-05-28T14:07:57Z</time>
      </trkpt>
      <trkpt lat="43.53572" lon="5.51102">
        <ele>308.4</ele>
        <time>2023-05-28T14:07:58Z</time>
      </trkpt>
      <trkpt lat="43.53572" lon="5.51102">
        <ele>308.4</ele>
        <time>2023-05-28T14:07:59Z</time>
      </trkpt>
      <trkpt lat="43.53573" lon="5.51102">
        <ele>308.4</ele>
        <time>2023-05-28T14:08:00Z</time>
      </trkpt>
      <trkpt lat="43.53573" lon="5.51102">
        <ele>308.4</ele>
        <time>2023-05-28T14:08:01Z</time>
      </trkpt>
      <trkpt lat="43.53573" lon="5.51101">
        <ele>308.5</ele>
        <time>2023-05-28T14:08:02Z</time>
      </trkpt>
      <trkpt lat="43.53573" lon="5.51101">
        <ele>308.6</ele>
        <time>2023-05-28T14:08:03Z</time>
      </trkpt>
      <trkpt lat="43.53573" lon="5.51101">
        <ele>308.6</ele>
        <time>2023-05-28T14:08:04Z</time>
      </trkpt>
      <trkpt lat="43.53574" lon="5.511">
        <ele>308.5</ele>
        <time>2023-05-28T14:08:05Z</time>
      </trkpt>
      <trkpt lat="43.53575" lon="5.51099">
        <ele>308.4</ele>
        <time>2023-05-28T14:08:06Z</time>
      </trkpt>
      <trkpt lat="43.53575" lon="5.51099">
        <ele>308.4</ele>
        <time>2023-05-28T14:08:07Z</time>
      </trkpt>
      <trkpt lat="43.53575" lon="5.51099">
        <ele>308.5</ele>
        <time>2023-05-28T14:08:08Z</time>
      </trkpt>
      <trkpt lat="43.53575" lon="5.51099">
        <ele>308.6</ele>
        <time>2023-05-28T14:08:09Z</time>
      </trkpt>
      <trkpt lat="43.53576" lon="5.51099">
        <ele>308.7</ele>
        <time>2023-05-28T14:08:10Z</time>
      </trkpt>
      <trkpt lat="43.53577" lon="5.51098">
        <ele>308.8</ele>
        <time>2023-05-28T14:08:11Z</time>
      </trkpt>
      <trkpt lat="43.53578" lon="5.51097">
        <ele>309</ele>
        <time>2023-05-28T14:08:12Z</time>
      </trkpt>
      <trkpt lat="43.53578" lon="5.51096">
        <ele>309.2</ele>
        <time>2023-05-28T14:08:13Z</time>
      </trkpt>
      <trkpt lat="43.53579" lon="5.51097">
        <ele>309.5</ele>
        <time>2023-05-28T14:08:14Z</time>
      </trkpt>
      <trkpt lat="43.53579" lon="5.51097">
        <ele>309.6</ele>
        <time>2023-05-28T14:08:15Z</time>
      </trkpt>
      <trkpt lat="43.5358" lon="5.51097">
        <ele>309.7</ele>
        <time>2023-05-28T14:08:16Z</time>
      </trkpt>
      <trkpt lat="43.5358" lon="5.51097">
        <ele>309.7</ele>
        <time>2023-05-28T14:08:17Z</time>
      </trkpt>
      <trkpt lat="43.5358" lon="5.51096">
        <ele>309.8</ele>
        <time>2023-05-28T14:08:18Z</time>
      </trkpt>
      <trkpt lat="43.53581" lon="5.51096">
        <ele>310.1</ele>
        <time>2023-05-28T14:08:19Z</time>
      </trkpt>
      <trkpt lat="43.53581" lon="5.51095">
        <ele>310.3</ele>
        <time>2023-05-28T14:08:20Z</time>
      </trkpt>
      <trkpt lat="43.53582" lon="5.51093">
        <ele>310.4</ele>
        <time>2023-05-28T14:08:21Z</time>
      </trkpt>
      <trkpt lat="43.53582" lon="5.51092">
        <ele>310.5</ele>
        <time>2023-05-28T14:08:22Z</time>
      </trkpt>
      <trkpt lat="43.53583" lon="5.51092">
        <ele>310.7</ele>
        <time>2023-05-28T14:08:23Z</time>
      </trkpt>
      <trkpt lat="43.53583" lon="5.51092">
        <ele>310.9</ele>
        <time>2023-05-28T14:08:24Z</time>
      </trkpt>
      <trkpt lat="43.53584" lon="5.51091">
        <ele>311.2</ele>
        <time>2023-05-28T14:08:25Z</time>
      </trkpt>
      <trkpt lat="43.53584" lon="5.5109">
        <ele>311.4</ele>
        <time>2023-05-28T14:08:26Z</time>
      </trkpt>
      <trkpt lat="43.53585" lon="5.51089">
        <ele>311.6</ele>
        <time>2023-05-28T14:08:27Z</time>
      </trkpt>
      <trkpt lat="43.53585" lon="5.51088">
        <ele>311.8</ele>
        <time>2023-05-28T14:08:28Z</time>
      </trkpt>
      <trkpt lat="43.53586" lon="5.51088">
        <ele>311.9</ele>
        <time>2023-05-28T14:08:29Z</time>
      </trkpt>
      <trkpt lat="43.53586" lon="5.51087">
        <ele>312</ele>
        <time>2023-05-28T14:08:30Z</time>
      </trkpt>
      <trkpt lat="43.53587" lon="5.51087">
        <ele>312.2</ele>
        <time>2023-05-28T14:08:31Z</time>
      </trkpt>
      <trkpt lat="43.53587" lon="5.51087">
        <ele>312.4</ele>
        <time>2023-05-28T14:08:32Z</time>
      </trkpt>
      <trkpt lat="43.53588" lon="5.51085">
        <ele>312.6</ele>
        <time>2023-05-28T14:08:33Z</time>
      </trkpt>
      <trkpt lat="43.53589" lon="5.51085">
        <ele>312.7</ele>
        <time>2023-05-28T14:08:34Z</time>
      </trkpt>
      <trkpt lat="43.5359" lon="5.51085">
        <ele>312.8</ele>
        <time>2023-05-28T14:08:35Z</time>
      </trkpt>
      <trkpt lat="43.53591" lon="5.51085">
        <ele>312.9</ele>
        <time>2023-05-28T14:08:36Z</time>
      </trkpt>
      <trkpt lat="43.53592" lon="5.51085">
        <ele>312.9</ele>
        <time>2023-05-28T14:08:37Z</time>
      </trkpt>
      <trkpt lat="43.53592" lon="5.51083">
        <ele>313</ele>
        <time>2023-05-28T14:08:38Z</time>
      </trkpt>
      <trkpt lat="43.53593" lon="5.51082">
        <ele>313</ele>
        <time>2023-05-28T14:08:39Z</time>
      </trkpt>
      <trkpt lat="43.53594" lon="5.51082">
        <ele>313.1</ele>
        <time>2023-05-28T14:08:40Z</time>
      </trkpt>
      <trkpt lat="43.53594" lon="5.51081">
        <ele>313.1</ele>
        <time>2023-05-28T14:08:41Z</time>
      </trkpt>
      <trkpt lat="43.53595" lon="5.5108">
        <ele>313.2</ele>
        <time>2023-05-28T14:08:42Z</time>
      </trkpt>
      <trkpt lat="43.53596" lon="5.5108">
        <ele>313.4</ele>
        <time>2023-05-28T14:08:43Z</time>
      </trkpt>
      <trkpt lat="43.53597" lon="5.51079">
        <ele>313.5</ele>
        <time>2023-05-28T14:08:44Z</time>
      </trkpt>
      <trkpt lat="43.53597" lon="5.51079">
        <ele>313.6</ele>
        <time>2023-05-28T14:08:45Z</time>
      </trkpt>
      <trkpt lat="43.53598" lon="5.51078">
        <ele>313.8</ele>
        <time>2023-05-28T14:08:46Z</time>
      </trkpt>
      <trkpt lat="43.53599" lon="5.51078">
        <ele>313.9</ele>
        <time>2023-05-28T14:08:47Z</time>
      </trkpt>
      <trkpt lat="43.536" lon="5.51078">
        <ele>314.1</ele>
        <time>2023-05-28T14:08:48Z</time>
      </trkpt>
      <trkpt lat="43.53601" lon="5.51079">
        <ele>314.2</ele>
        <time>2023-05-28T14:08:49Z</time>
      </trkpt>
      <trkpt lat="43.53602" lon="5.51079">
        <ele>314.3</ele>
        <time>2023-05-28T14:08:50Z</time>
      </trkpt>
      <trkpt lat="43.53603" lon="5.51079">
        <ele>314.4</ele>
        <time>2023-05-28T14:08:51Z</time>
      </trkpt>
      <trkpt lat="43.53604" lon="5.51078">
        <ele>314.4</ele>
        <time>2023-05-28T14:08:52Z</time>
      </trkpt>
      <trkpt lat="43.53604" lon="5.51078">
        <ele>314.5</ele>
        <time>2023-05-28T14:08:53Z</time>
      </trkpt>
      <trkpt lat="43.53605" lon="5.51078">
        <ele>314.6</ele>
        <time>2023-05-28T14:08:54Z</time>
      </trkpt>
      <trkpt lat="43.53606" lon="5.51078">
        <ele>314.8</ele>
        <time>2023-05-28T14:08:55Z</time>
      </trkpt>
      <trkpt lat="43.53606" lon="5.51078">
        <ele>314.9</ele>
        <time>2023-05-28T14:08:56Z</time>
      </trkpt>
      <trkpt lat="43.53607" lon="5.51078">
        <ele>315.2</ele>
        <time>2023-05-28T14:08:57Z</time>
      </trkpt>
      <trkpt lat="43.53608" lon="5.51078">
        <ele>315.4</ele>
        <time>2023-05-28T14:08:58Z</time>
      </trkpt>
      <trkpt lat="43.53608" lon="5.51078">
        <ele>315.5</ele>
        <time>2023-05-28T14:08:59Z</time>
      </trkpt>
      <trkpt lat="43.53609" lon="5.51078">
        <ele>315.7</ele>
        <time>2023-05-28T14:09:00Z</time>
      </trkpt>
      <trkpt lat="43.53609" lon="5.51077">
        <ele>315.8</ele>
        <time>2023-05-28T14:09:01Z</time>
      </trkpt>
      <trkpt lat="43.5361" lon="5.51077">
        <ele>316</ele>
        <time>2023-05-28T14:09:02Z</time>
      </trkpt>
      <trkpt lat="43.5361" lon="5.51077">
        <ele>316.2</ele>
        <time>2023-05-28T14:09:03Z</time>
      </trkpt>
      <trkpt lat="43.53611" lon="5.51077">
        <ele>316.3</ele>
        <time>2023-05-28T14:09:04Z</time>
      </trkpt>
      <trkpt lat="43.53612" lon="5.51077">
        <ele>316.5</ele>
        <time>2023-05-28T14:09:05Z</time>
      </trkpt>
      <trkpt lat="43.53613" lon="5.51077">
        <ele>316.7</ele>
        <time>2023-05-28T14:09:06Z</time>
      </trkpt>
      <trkpt lat="43.53613" lon="5.51077">
        <ele>316.9</ele>
        <time>2023-05-28T14:09:07Z</time>
      </trkpt>
      <trkpt lat="43.53614" lon="5.51077">
        <ele>317</ele>
        <time>2023-05-28T14:09:08Z</time>
      </trkpt>
      <trkpt lat="43.53615" lon="5.51077">
        <ele>317.1</ele>
        <time>2023-05-28T14:09:09Z</time>
      </trkpt>
      <trkpt lat="43.53616" lon="5.51077">
        <ele>317.2</ele>
        <time>2023-05-28T14:09:10Z</time>
      </trkpt>
      <trkpt lat="43.53617" lon="5.51077">
        <ele>317.3</ele>
        <time>2023-05-28T14:09:11Z</time>
      </trkpt>
      <trkpt lat="43.53618" lon="5.51077">
        <ele>317.4</ele>
        <time>2023-05-28T14:09:12Z</time>
      </trkpt>
      <trkpt lat="43.53618" lon="5.51077">
        <ele>317.6</ele>
        <time>2023-05-28T14:09:13Z</time>
      </trkpt>
      <trkpt lat="43.53619" lon="5.51077">
        <ele>317.7</ele>
        <time>2023-05-28T14:09:14Z</time>
      </trkpt>
      <trkpt lat="43.5362" lon="5.51077">
        <ele>317.9</ele>
        <time>2023-05-28T14:09:15Z</time>
      </trkpt>
      <trkpt lat="43.53621" lon="5.51078">
        <ele>318.1</ele>
        <time>2023-05-28T14:09:16Z</time>
      </trkpt>
      <trkpt lat="43.53622" lon="5.51078">
        <ele>318.3</ele>
        <time>2023-05-28T14:09:17Z</time>
      </trkpt>
      <trkpt lat="43.53622" lon="5.51077">
        <ele>318.4</ele>
        <time>2023-05-28T14:09:18Z</time>
      </trkpt>
      <trkpt lat="43.53622" lon="5.51077">
        <ele>318.6</ele>
        <time>2023-05-28T14:09:19Z</time>
      </trkpt>
      <trkpt lat="43.53623" lon="5.51077">
        <ele>318.7</ele>
        <time>2023-05-28T14:09:20Z</time>
      </trkpt>
      <trkpt lat="43.53624" lon="5.51077">
        <ele>318.8</ele>
        <time>2023-05-28T14:09:21Z</time>
      </trkpt>
      <trkpt lat="43.53625" lon="5.51076">
        <ele>318.9</ele>
        <time>2023-05-28T14:09:22Z</time>
      </trkpt>
      <trkpt lat="43.53625" lon="5.51075">
        <ele>319</ele>
        <time>2023-05-28T14:09:23Z</time>
      </trkpt>
      <trkpt lat="43.53626" lon="5.51075">
        <ele>319.1</ele>
        <time>2023-05-28T14:09:24Z</time>
      </trkpt>
      <trkpt lat="43.53626" lon="5.51075">
        <ele>319.1</ele>
        <time>2023-05-28T14:09:25Z</time>
      </trkpt>
      <trkpt lat="43.53627" lon="5.51074">
        <ele>319.2</ele>
        <time>2023-05-28T14:09:26Z</time>
      </trkpt>
      <trkpt lat="43.53627" lon="5.51074">
        <ele>319.3</ele>
        <time>2023-05-28T14:09:27Z</time>
      </trkpt>
      <trkpt lat="43.53628" lon="5.51074">
        <ele>319.4</ele>
        <time>2023-05-28T14:09:28Z</time>
      </trkpt>
      <trkpt lat="43.53629" lon="5.51074">
        <ele>319.6</ele>
        <time>2023-05-28T14:09:29Z</time>
      </trkpt>
      <trkpt lat="43.5363" lon="5.51072">
        <ele>319.8</ele>
        <time>2023-05-28T14:09:30Z</time>
      </trkpt>
      <trkpt lat="43.53631" lon="5.51072">
        <ele>320</ele>
        <time>2023-05-28T14:09:31Z</time>
      </trkpt>
      <trkpt lat="43.53631" lon="5.51071">
        <ele>320.2</ele>
        <time>2023-05-28T14:09:32Z</time>
      </trkpt>
      <trkpt lat="43.53631" lon="5.51071">
        <ele>320.3</ele>
        <time>2023-05-28T14:09:33Z</time>
      </trkpt>
      <trkpt lat="43.53632" lon="5.51071">
        <ele>320.6</ele>
        <time>2023-05-28T14:09:34Z</time>
      </trkpt>
      <trkpt lat="43.53633" lon="5.5107">
        <ele>320.9</ele>
        <time>2023-05-28T14:09:35Z</time>
      </trkpt>
      <trkpt lat="43.53633" lon="5.5107">
        <ele>321</ele>
        <time>2023-05-28T14:09:36Z</time>
      </trkpt>
      <trkpt lat="43.53634" lon="5.5107">
        <ele>321.1</ele>
        <time>2023-05-28T14:09:37Z</time>
      </trkpt>
      <trkpt lat="43.53634" lon="5.51069">
        <ele>321.3</ele>
        <time>2023-05-28T14:09:38Z</time>
      </trkpt>
      <trkpt lat="43.53635" lon="5.51069">
        <ele>321.5</ele>
        <time>2023-05-28T14:09:39Z</time>
      </trkpt>
      <trkpt lat="43.53636" lon="5.51069">
        <ele>321.6</ele>
        <time>2023-05-28T14:09:40Z</time>
      </trkpt>
      <trkpt lat="43.53637" lon="5.51071">
        <ele>321.8</ele>
        <time>2023-05-28T14:09:41Z</time>
      </trkpt>
      <trkpt lat="43.53638" lon="5.51071">
        <ele>321.9</ele>
        <time>2023-05-28T14:09:42Z</time>
      </trkpt>
      <trkpt lat="43.53638" lon="5.51071">
        <ele>322.1</ele>
        <time>2023-05-28T14:09:43Z</time>
      </trkpt>
      <trkpt lat="43.53639" lon="5.51072">
        <ele>322.2</ele>
        <time>2023-05-28T14:09:44Z</time>
      </trkpt>
      <trkpt lat="43.5364" lon="5.51072">
        <ele>322.3</ele>
        <time>2023-05-28T14:09:45Z</time>
      </trkpt>
      <trkpt lat="43.5364" lon="5.51073">
        <ele>322.4</ele>
        <time>2023-05-28T14:09:46Z</time>
      </trkpt>
      <trkpt lat="43.5364" lon="5.51073">
        <ele>322.6</ele>
        <time>2023-05-28T14:09:47Z</time>
      </trkpt>
      <trkpt lat="43.5364" lon="5.51073">
        <ele>322.7</ele>
        <time>2023-05-28T14:09:48Z</time>
      </trkpt>
      <trkpt lat="43.53641" lon="5.51073">
        <ele>322.8</ele>
        <time>2023-05-28T14:09:49Z</time>
      </trkpt>
      <trkpt lat="43.53642" lon="5.51072">
        <ele>322.9</ele>
        <time>2023-05-28T14:09:50Z</time>
      </trkpt>
      <trkpt lat="43.53643" lon="5.51072">
        <ele>323</ele>
        <time>2023-05-28T14:09:51Z</time>
      </trkpt>
      <trkpt lat="43.53643" lon="5.51072">
        <ele>323.2</ele>
        <time>2023-05-28T14:09:52Z</time>
      </trkpt>
      <trkpt lat="43.53644" lon="5.51072">
        <ele>323.3</ele>
        <time>2023-05-28T14:09:53Z</time>
      </trkpt>
      <trkpt lat="43.53645" lon="5.51072">
        <ele>323.4</ele>
        <time>2023-05-28T14:09:54Z</time>
      </trkpt>
      <trkpt lat="43.53645" lon="5.51072">
        <ele>323.4</ele>
        <time>2023-05-28T14:09:55Z</time>
      </trkpt>
      <trkpt lat="43.53646" lon="5.51072">
        <ele>323.6</ele>
        <time>2023-05-28T14:09:56Z</time>
      </trkpt>
      <trkpt lat="43.53647" lon="5.51073">
        <ele>323.8</ele>
        <time>2023-05-28T14:09:57Z</time>
      </trkpt>
      <trkpt lat="43.53648" lon="5.51074">
        <ele>324</ele>
        <time>2023-05-28T14:09:58Z</time>
      </trkpt>
      <trkpt lat="43.53648" lon="5.51074">
        <ele>324.1</ele>
        <time>2023-05-28T14:09:59Z</time>
      </trkpt>
      <trkpt lat="43.53649" lon="5.51075">
        <ele>324.2</ele>
        <time>2023-05-28T14:10:00Z</time>
      </trkpt>
      <trkpt lat="43.53649" lon="5.51076">
        <ele>324.4</ele>
        <time>2023-05-28T14:10:01Z</time>
      </trkpt>
      <trkpt lat="43.5365" lon="5.51077">
        <ele>324.6</ele>
        <time>2023-05-28T14:10:02Z</time>
      </trkpt>
      <trkpt lat="43.5365" lon="5.51077">
        <ele>324.7</ele>
        <time>2023-05-28T14:10:03Z</time>
      </trkpt>
      <trkpt lat="43.53651" lon="5.51076">
        <ele>324.8</ele>
        <time>2023-05-28T14:10:04Z</time>
      </trkpt>
      <trkpt lat="43.53651" lon="5.51076">
        <ele>324.9</ele>
        <time>2023-05-28T14:10:05Z</time>
      </trkpt>
      <trkpt lat="43.53651" lon="5.51076">
        <ele>324.9</ele>
        <time>2023-05-28T14:10:06Z</time>
      </trkpt>
      <trkpt lat="43.53651" lon="5.51077">
        <ele>325</ele>
        <time>2023-05-28T14:10:07Z</time>
      </trkpt>
      <trkpt lat="43.53652" lon="5.51077">
        <ele>325.1</ele>
        <time>2023-05-28T14:10:08Z</time>
      </trkpt>
      <trkpt lat="43.53653" lon="5.51078">
        <ele>325.2</ele>
        <time>2023-05-28T14:10:09Z</time>
      </trkpt>
      <trkpt lat="43.53654" lon="5.51079">
        <ele>325.3</ele>
        <time>2023-05-28T14:10:10Z</time>
      </trkpt>
      <trkpt lat="43.53654" lon="5.51079">
        <ele>325.4</ele>
        <time>2023-05-28T14:10:11Z</time>
      </trkpt>
      <trkpt lat="43.53655" lon="5.51079">
        <ele>325.4</ele>
        <time>2023-05-28T14:10:12Z</time>
      </trkpt>
      <trkpt lat="43.53656" lon="5.51079">
        <ele>325.5</ele>
        <time>2023-05-28T14:10:13Z</time>
      </trkpt>
      <trkpt lat="43.53657" lon="5.5108">
        <ele>325.6</ele>
        <time>2023-05-28T14:10:14Z</time>
      </trkpt>
      <trkpt lat="43.53658" lon="5.5108">
        <ele>325.7</ele>
        <time>2023-05-28T14:10:15Z</time>
      </trkpt>
      <trkpt lat="43.53658" lon="5.5108">
        <ele>325.8</ele>
        <time>2023-05-28T14:10:16Z</time>
      </trkpt>
      <trkpt lat="43.53659" lon="5.51081">
        <ele>325.9</ele>
        <time>2023-05-28T14:10:17Z</time>
      </trkpt>
      <trkpt lat="43.53659" lon="5.51082">
        <ele>326</ele>
        <time>2023-05-28T14:10:18Z</time>
      </trkpt>
      <trkpt lat="43.53659" lon="5.51081">
        <ele>326.2</ele>
        <time>2023-05-28T14:10:19Z</time>
      </trkpt>
      <trkpt lat="43.53659" lon="5.5108">
        <ele>326.3</ele>
        <time>2023-05-28T14:10:20Z</time>
      </trkpt>
      <trkpt lat="43.5366" lon="5.51082">
        <ele>326.5</ele>
        <time>2023-05-28T14:10:21Z</time>
      </trkpt>
      <trkpt lat="43.5366" lon="5.51083">
        <ele>326.7</ele>
        <time>2023-05-28T14:10:22Z</time>
      </trkpt>
      <trkpt lat="43.53661" lon="5.51084">
        <ele>326.8</ele>
        <time>2023-05-28T14:10:23Z</time>
      </trkpt>
      <trkpt lat="43.53662" lon="5.51085">
        <ele>327</ele>
        <time>2023-05-28T14:10:24Z</time>
      </trkpt>
      <trkpt lat="43.53662" lon="5.51085">
        <ele>327.1</ele>
        <time>2023-05-28T14:10:25Z</time>
      </trkpt>
      <trkpt lat="43.53663" lon="5.51085">
        <ele>327.3</ele>
        <time>2023-05-28T14:10:26Z</time>
      </trkpt>
      <trkpt lat="43.53664" lon="5.51086">
        <ele>327.4</ele>
        <time>2023-05-28T14:10:27Z</time>
      </trkpt>
      <trkpt lat="43.53665" lon="5.51086">
        <ele>327.4</ele>
        <time>2023-05-28T14:10:28Z</time>
      </trkpt>
      <trkpt lat="43.53666" lon="5.51087">
        <ele>327.4</ele>
        <time>2023-05-28T14:10:29Z</time>
      </trkpt>
      <trkpt lat="43.53666" lon="5.51086">
        <ele>327.4</ele>
        <time>2023-05-28T14:10:30Z</time>
      </trkpt>
      <trkpt lat="43.53667" lon="5.51087">
        <ele>327.6</ele>
        <time>2023-05-28T14:10:31Z</time>
      </trkpt>
      <trkpt lat="43.53668" lon="5.51087">
        <ele>327.7</ele>
        <time>2023-05-28T14:10:32Z</time>
      </trkpt>
      <trkpt lat="43.53669" lon="5.51087">
        <ele>327.8</ele>
        <time>2023-05-28T14:10:33Z</time>
      </trkpt>
      <trkpt lat="43.5367" lon="5.51087">
        <ele>327.9</ele>
        <time>2023-05-28T14:10:34Z</time>
      </trkpt>
      <trkpt lat="43.53671" lon="5.51086">
        <ele>328.1</ele>
        <time>2023-05-28T14:10:35Z</time>
      </trkpt>
      <trkpt lat="43.53672" lon="5.51086">
        <ele>328.3</ele>
        <time>2023-05-28T14:10:36Z</time>
      </trkpt>
      <trkpt lat="43.53672" lon="5.51086">
        <ele>328.5</ele>
        <time>2023-05-28T14:10:37Z</time>
      </trkpt>
      <trkpt lat="43.53673" lon="5.51086">
        <ele>328.7</ele>
        <time>2023-05-28T14:10:38Z</time>
      </trkpt>
      <trkpt lat="43.53674" lon="5.51086">
        <ele>328.9</ele>
        <time>2023-05-28T14:10:39Z</time>
      </trkpt>
      <trkpt lat="43.53675" lon="5.51086">
        <ele>329.1</ele>
        <time>2023-05-28T14:10:40Z</time>
      </trkpt>
      <trkpt lat="43.53675" lon="5.51086">
        <ele>329.3</ele>
        <time>2023-05-28T14:10:41Z</time>
      </trkpt>
      <trkpt lat="43.53676" lon="5.51087">
        <ele>329.5</ele>
        <time>2023-05-28T14:10:42Z</time>
      </trkpt>
      <trkpt lat="43.53677" lon="5.51087">
        <ele>329.6</ele>
        <time>2023-05-28T14:10:43Z</time>
      </trkpt>
      <trkpt lat="43.53678" lon="5.51087">
        <ele>329.6</ele>
        <time>2023-05-28T14:10:44Z</time>
      </trkpt>
      <trkpt lat="43.53679" lon="5.51087">
        <ele>329.7</ele>
        <time>2023-05-28T14:10:45Z</time>
      </trkpt>
      <trkpt lat="43.53679" lon="5.51088">
        <ele>329.8</ele>
        <time>2023-05-28T14:10:46Z</time>
      </trkpt>
      <trkpt lat="43.5368" lon="5.51088">
        <ele>330</ele>
        <time>2023-05-28T14:10:47Z</time>
      </trkpt>
      <trkpt lat="43.5368" lon="5.51089">
        <ele>330.1</ele>
        <time>2023-05-28T14:10:48Z</time>
      </trkpt>
      <trkpt lat="43.53681" lon="5.51089">
        <ele>330.2</ele>
        <time>2023-05-28T14:10:49Z</time>
      </trkpt>
      <trkpt lat="43.53682" lon="5.51089">
        <ele>330.3</ele>
        <time>2023-05-28T14:10:50Z</time>
      </trkpt>
      <trkpt lat="43.53682" lon="5.51089">
        <ele>330.4</ele>
        <time>2023-05-28T14:10:51Z</time>
      </trkpt>
      <trkpt lat="43.53683" lon="5.5109">
        <ele>330.6</ele>
        <time>2023-05-28T14:10:52Z</time>
      </trkpt>
      <trkpt lat="43.53684" lon="5.5109">
        <ele>330.7</ele>
        <time>2023-05-28T14:10:53Z</time>
      </trkpt>
      <trkpt lat="43.53684" lon="5.51091">
        <ele>330.7</ele>
        <time>2023-05-28T14:10:54Z</time>
      </trkpt>
      <trkpt lat="43.53685" lon="5.51092">
        <ele>330.7</ele>
        <time>2023-05-28T14:10:55Z</time>
      </trkpt>
      <trkpt lat="43.53686" lon="5.51092">
        <ele>330.7</ele>
        <time>2023-05-28T14:10:56Z</time>
      </trkpt>
      <trkpt lat="43.53687" lon="5.51092">
        <ele>330.8</ele>
        <time>2023-05-28T14:10:57Z</time>
      </trkpt>
      <trkpt lat="43.53688" lon="5.51093">
        <ele>330.8</ele>
        <time>2023-05-28T14:10:58Z</time>
      </trkpt>
      <trkpt lat="43.53689" lon="5.51093">
        <ele>330.9</ele>
        <time>2023-05-28T14:10:59Z</time>
      </trkpt>
      <trkpt lat="43.5369" lon="5.51093">
        <ele>330.9</ele>
        <time>2023-05-28T14:11:00Z</time>
      </trkpt>
      <trkpt lat="43.53691" lon="5.51093">
        <ele>331</ele>
        <time>2023-05-28T14:11:01Z</time>
      </trkpt>
      <trkpt lat="43.53692" lon="5.51093">
        <ele>331.2</ele>
        <time>2023-05-28T14:11:02Z</time>
      </trkpt>
      <trkpt lat="43.53693" lon="5.51094">
        <ele>331.3</ele>
        <time>2023-05-28T14:11:03Z</time>
      </trkpt>
      <trkpt lat="43.53693" lon="5.51094">
        <ele>331.4</ele>
        <time>2023-05-28T14:11:04Z</time>
      </trkpt>
      <trkpt lat="43.53695" lon="5.51094">
        <ele>331.4</ele>
        <time>2023-05-28T14:11:05Z</time>
      </trkpt>
      <trkpt lat="43.53695" lon="5.51094">
        <ele>331.5</ele>
        <time>2023-05-28T14:11:06Z</time>
      </trkpt>
      <trkpt lat="43.53696" lon="5.51095">
        <ele>331.6</ele>
        <time>2023-05-28T14:11:07Z</time>
      </trkpt>
      <trkpt lat="43.53697" lon="5.51096">
        <ele>331.7</ele>
        <time>2023-05-28T14:11:08Z</time>
      </trkpt>
      <trkpt lat="43.53698" lon="5.51096">
        <ele>331.7</ele>
        <time>2023-05-28T14:11:09Z</time>
      </trkpt>
      <trkpt lat="43.53699" lon="5.51097">
        <ele>331.7</ele>
        <time>2023-05-28T14:11:10Z</time>
      </trkpt>
      <trkpt lat="43.537" lon="5.51098">
        <ele>331.7</ele>
        <time>2023-05-28T14:11:11Z</time>
      </trkpt>
      <trkpt lat="43.53701" lon="5.51098">
        <ele>331.7</ele>
        <time>2023-05-28T14:11:12Z</time>
      </trkpt>
      <trkpt lat="43.53701" lon="5.511">
        <ele>331.8</ele>
        <time>2023-05-28T14:11:13Z</time>
      </trkpt>
      <trkpt lat="43.53702" lon="5.511">
        <ele>331.9</ele>
        <time>2023-05-28T14:11:14Z</time>
      </trkpt>
      <trkpt lat="43.53702" lon="5.51101">
        <ele>331.9</ele>
        <time>2023-05-28T14:11:15Z</time>
      </trkpt>
      <trkpt lat="43.53703" lon="5.51102">
        <ele>332</ele>
        <time>2023-05-28T14:11:16Z</time>
      </trkpt>
      <trkpt lat="43.53703" lon="5.51103">
        <ele>332.1</ele>
        <time>2023-05-28T14:11:17Z</time>
      </trkpt>
      <trkpt lat="43.53704" lon="5.51104">
        <ele>332.1</ele>
        <time>2023-05-28T14:11:18Z</time>
      </trkpt>
      <trkpt lat="43.53705" lon="5.51104">
        <ele>332.1</ele>
        <time>2023-05-28T14:11:19Z</time>
      </trkpt>
      <trkpt lat="43.53705" lon="5.51105">
        <ele>332.1</ele>
        <time>2023-05-28T14:11:20Z</time>
      </trkpt>
      <trkpt lat="43.53706" lon="5.51106">
        <ele>332.1</ele>
        <time>2023-05-28T14:11:21Z</time>
      </trkpt>
      <trkpt lat="43.53706" lon="5.51107">
        <ele>332</ele>
        <time>2023-05-28T14:11:22Z</time>
      </trkpt>
      <trkpt lat="43.53707" lon="5.51109">
        <ele>332</ele>
        <time>2023-05-28T14:11:23Z</time>
      </trkpt>
      <trkpt lat="43.53707" lon="5.5111">
        <ele>332</ele>
        <time>2023-05-28T14:11:24Z</time>
      </trkpt>
      <trkpt lat="43.53708" lon="5.51111">
        <ele>332</ele>
        <time>2023-05-28T14:11:25Z</time>
      </trkpt>
      <trkpt lat="43.53709" lon="5.51112">
        <ele>331.9</ele>
        <time>2023-05-28T14:11:26Z</time>
      </trkpt>
      <trkpt lat="43.53709" lon="5.51113">
        <ele>331.8</ele>
        <time>2023-05-28T14:11:27Z</time>
      </trkpt>
      <trkpt lat="43.5371" lon="5.51114">
        <ele>331.7</ele>
        <time>2023-05-28T14:11:28Z</time>
      </trkpt>
      <trkpt lat="43.53711" lon="5.51115">
        <ele>331.7</ele>
        <time>2023-05-28T14:11:29Z</time>
      </trkpt>
      <trkpt lat="43.53712" lon="5.51116">
        <ele>331.7</ele>
        <time>2023-05-28T14:11:30Z</time>
      </trkpt>
      <trkpt lat="43.53713" lon="5.51117">
        <ele>331.7</ele>
        <time>2023-05-28T14:11:31Z</time>
      </trkpt>
      <trkpt lat="43.53714" lon="5.51118">
        <ele>331.7</ele>
        <time>2023-05-28T14:11:32Z</time>
      </trkpt>
      <trkpt lat="43.53715" lon="5.51119">
        <ele>331.8</ele>
        <time>2023-05-28T14:11:33Z</time>
      </trkpt>
      <trkpt lat="43.53716" lon="5.5112">
        <ele>331.7</ele>
        <time>2023-05-28T14:11:34Z</time>
      </trkpt>
      <trkpt lat="43.53717" lon="5.51121">
        <ele>331.7</ele>
        <time>2023-05-28T14:11:35Z</time>
      </trkpt>
      <trkpt lat="43.53718" lon="5.51122">
        <ele>331.7</ele>
        <time>2023-05-28T14:11:36Z</time>
      </trkpt>
      <trkpt lat="43.53719" lon="5.51122">
        <ele>331.7</ele>
        <time>2023-05-28T14:11:37Z</time>
      </trkpt>
      <trkpt lat="43.53719" lon="5.51124">
        <ele>331.7</ele>
        <time>2023-05-28T14:11:38Z</time>
      </trkpt>
      <trkpt lat="43.53721" lon="5.51125">
        <ele>331.7</ele>
        <time>2023-05-28T14:11:39Z</time>
      </trkpt>
      <trkpt lat="43.53722" lon="5.51126">
        <ele>331.7</ele>
        <time>2023-05-28T14:11:40Z</time>
      </trkpt>
      <trkpt lat="43.53723" lon="5.51126">
        <ele>331.8</ele>
        <time>2023-05-28T14:11:41Z</time>
      </trkpt>
      <trkpt lat="43.53724" lon="5.51127">
        <ele>331.9</ele>
        <time>2023-05-28T14:11:42Z</time>
      </trkpt>
      <trkpt lat="43.53725" lon="5.51128">
        <ele>331.9</ele>
        <time>2023-05-28T14:11:43Z</time>
      </trkpt>
      <trkpt lat="43.53725" lon="5.51129">
        <ele>332</ele>
        <time>2023-05-28T14:11:44Z</time>
      </trkpt>
      <trkpt lat="43.53726" lon="5.5113">
        <ele>332</ele>
        <time>2023-05-28T14:11:45Z</time>
      </trkpt>
      <trkpt lat="43.53727" lon="5.51131">
        <ele>331.9</ele>
        <time>2023-05-28T14:11:46Z</time>
      </trkpt>
      <trkpt lat="43.53728" lon="5.51132">
        <ele>332</ele>
        <time>2023-05-28T14:11:47Z</time>
      </trkpt>
      <trkpt lat="43.53728" lon="5.51133">
        <ele>332.1</ele>
        <time>2023-05-28T14:11:48Z</time>
      </trkpt>
      <trkpt lat="43.53729" lon="5.51133">
        <ele>332.2</ele>
        <time>2023-05-28T14:11:49Z</time>
      </trkpt>
      <trkpt lat="43.5373" lon="5.51134">
        <ele>332.2</ele>
        <time>2023-05-28T14:11:50Z</time>
      </trkpt>
      <trkpt lat="43.53731" lon="5.51135">
        <ele>332.2</ele>
        <time>2023-05-28T14:11:51Z</time>
      </trkpt>
      <trkpt lat="43.53731" lon="5.51136">
        <ele>332.1</ele>
        <time>2023-05-28T14:11:52Z</time>
      </trkpt>
      <trkpt lat="43.53732" lon="5.51137">
        <ele>332.2</ele>
        <time>2023-05-28T14:11:53Z</time>
      </trkpt>
      <trkpt lat="43.53732" lon="5.51138">
        <ele>332.2</ele>
        <time>2023-05-28T14:11:54Z</time>
      </trkpt>
      <trkpt lat="43.53733" lon="5.51139">
        <ele>332.2</ele>
        <time>2023-05-28T14:11:55Z</time>
      </trkpt>
      <trkpt lat="43.53733" lon="5.51139">
        <ele>332.3</ele>
        <time>2023-05-28T14:11:56Z</time>
      </trkpt>
      <trkpt lat="43.53734" lon="5.5114">
        <ele>332.4</ele>
        <time>2023-05-28T14:11:57Z</time>
      </trkpt>
      <trkpt lat="43.53734" lon="5.51141">
        <ele>332.5</ele>
        <time>2023-05-28T14:11:58Z</time>
      </trkpt>
      <trkpt lat="43.53734" lon="5.51141">
        <ele>332.6</ele>
        <time>2023-05-28T14:11:59Z</time>
      </trkpt>
      <trkpt lat="43.53735" lon="5.51142">
        <ele>332.7</ele>
        <time>2023-05-28T14:12:00Z</time>
      </trkpt>
      <trkpt lat="43.53736" lon="5.51143">
        <ele>332.6</ele>
        <time>2023-05-28T14:12:01Z</time>
      </trkpt>
      <trkpt lat="43.53736" lon="5.51144">
        <ele>332.6</ele>
        <time>2023-05-28T14:12:02Z</time>
      </trkpt>
      <trkpt lat="43.53737" lon="5.51145">
        <ele>332.6</ele>
        <time>2023-05-28T14:12:03Z</time>
      </trkpt>
      <trkpt lat="43.53737" lon="5.51145">
        <ele>332.7</ele>
        <time>2023-05-28T14:12:04Z</time>
      </trkpt>
      <trkpt lat="43.53736" lon="5.51146">
        <ele>332.7</ele>
        <time>2023-05-28T14:12:05Z</time>
      </trkpt>
      <trkpt lat="43.53736" lon="5.51147">
        <ele>332.7</ele>
        <time>2023-05-28T14:12:06Z</time>
      </trkpt>
      <trkpt lat="43.53735" lon="5.51148">
        <ele>332.7</ele>
        <time>2023-05-28T14:12:07Z</time>
      </trkpt>
      <trkpt lat="43.53735" lon="5.51149">
        <ele>332.7</ele>
        <time>2023-05-28T14:12:08Z</time>
      </trkpt>
      <trkpt lat="43.53736" lon="5.5115">
        <ele>332.8</ele>
        <time>2023-05-28T14:12:09Z</time>
      </trkpt>
      <trkpt lat="43.53736" lon="5.51151">
        <ele>332.8</ele>
        <time>2023-05-28T14:12:10Z</time>
      </trkpt>
      <trkpt lat="43.53736" lon="5.51152">
        <ele>332.8</ele>
        <time>2023-05-28T14:12:11Z</time>
      </trkpt>
      <trkpt lat="43.53736" lon="5.51154">
        <ele>332.8</ele>
        <time>2023-05-28T14:12:12Z</time>
      </trkpt>
      <trkpt lat="43.53735" lon="5.51154">
        <ele>332.7</ele>
        <time>2023-05-28T14:12:13Z</time>
      </trkpt>
      <trkpt lat="43.53735" lon="5.51155">
        <ele>332.5</ele>
        <time>2023-05-28T14:12:14Z</time>
      </trkpt>
      <trkpt lat="43.53735" lon="5.51156">
        <ele>332.4</ele>
        <time>2023-05-28T14:12:15Z</time>
      </trkpt>
      <trkpt lat="43.53733" lon="5.51156">
        <ele>332.3</ele>
        <time>2023-05-28T14:12:16Z</time>
      </trkpt>
      <trkpt lat="43.53733" lon="5.51157">
        <ele>332.2</ele>
        <time>2023-05-28T14:12:17Z</time>
      </trkpt>
      <trkpt lat="43.53732" lon="5.51158">
        <ele>332.2</ele>
        <time>2023-05-28T14:12:18Z</time>
      </trkpt>
      <trkpt lat="43.53732" lon="5.51159">
        <ele>332.2</ele>
        <time>2023-05-28T14:12:19Z</time>
      </trkpt>
      <trkpt lat="43.53732" lon="5.51159">
        <ele>332.3</ele>
        <time>2023-05-28T14:12:20Z</time>
      </trkpt>
      <trkpt lat="43.53731" lon="5.51159">
        <ele>332.3</ele>
        <time>2023-05-28T14:12:21Z</time>
      </trkpt>
      <trkpt lat="43.53731" lon="5.5116">
        <ele>332.3</ele>
        <time>2023-05-28T14:12:22Z</time>
      </trkpt>
      <trkpt lat="43.53731" lon="5.51161">
        <ele>332.4</ele>
        <time>2023-05-28T14:12:23Z</time>
      </trkpt>
      <trkpt lat="43.53731" lon="5.51163">
        <ele>332.3</ele>
        <time>2023-05-28T14:12:24Z</time>
      </trkpt>
      <trkpt lat="43.5373" lon="5.51163">
        <ele>332.3</ele>
        <time>2023-05-28T14:12:25Z</time>
      </trkpt>
      <trkpt lat="43.53729" lon="5.51164">
        <ele>332.4</ele>
        <time>2023-05-28T14:12:26Z</time>
      </trkpt>
      <trkpt lat="43.53729" lon="5.51164">
        <ele>332.5</ele>
        <time>2023-05-28T14:12:27Z</time>
      </trkpt>
      <trkpt lat="43.53728" lon="5.51164">
        <ele>332.5</ele>
        <time>2023-05-28T14:12:28Z</time>
      </trkpt>
      <trkpt lat="43.53727" lon="5.51164">
        <ele>332.5</ele>
        <time>2023-05-28T14:12:29Z</time>
      </trkpt>
      <trkpt lat="43.53727" lon="5.51165">
        <ele>332.6</ele>
        <time>2023-05-28T14:12:30Z</time>
      </trkpt>
      <trkpt lat="43.53726" lon="5.51166">
        <ele>332.7</ele>
        <time>2023-05-28T14:12:31Z</time>
      </trkpt>
      <trkpt lat="43.53725" lon="5.51167">
        <ele>332.8</ele>
        <time>2023-05-28T14:12:32Z</time>
      </trkpt>
      <trkpt lat="43.53724" lon="5.51167">
        <ele>332.8</ele>
        <time>2023-05-28T14:12:33Z</time>
      </trkpt>
      <trkpt lat="43.53723" lon="5.51168">
        <ele>332.8</ele>
        <time>2023-05-28T14:12:34Z</time>
      </trkpt>
      <trkpt lat="43.53722" lon="5.51168">
        <ele>333</ele>
        <time>2023-05-28T14:12:35Z</time>
      </trkpt>
      <trkpt lat="43.53721" lon="5.51169">
        <ele>333.1</ele>
        <time>2023-05-28T14:12:36Z</time>
      </trkpt>
      <trkpt lat="43.53721" lon="5.51169">
        <ele>333.1</ele>
        <time>2023-05-28T14:12:37Z</time>
      </trkpt>
      <trkpt lat="43.5372" lon="5.5117">
        <ele>333.1</ele>
        <time>2023-05-28T14:12:38Z</time>
      </trkpt>
      <trkpt lat="43.53719" lon="5.51171">
        <ele>333.1</ele>
        <time>2023-05-28T14:12:39Z</time>
      </trkpt>
      <trkpt lat="43.53718" lon="5.51171">
        <ele>333.1</ele>
        <time>2023-05-28T14:12:40Z</time>
      </trkpt>
      <trkpt lat="43.53717" lon="5.51171">
        <ele>333.2</ele>
        <time>2023-05-28T14:12:41Z</time>
      </trkpt>
      <trkpt lat="43.53716" lon="5.51171">
        <ele>333.2</ele>
        <time>2023-05-28T14:12:42Z</time>
      </trkpt>
      <trkpt lat="43.53716" lon="5.51172">
        <ele>333.2</ele>
        <time>2023-05-28T14:12:43Z</time>
      </trkpt>
      <trkpt lat="43.53715" lon="5.51172">
        <ele>333.3</ele>
        <time>2023-05-28T14:12:44Z</time>
      </trkpt>
      <trkpt lat="43.53714" lon="5.51172">
        <ele>333.4</ele>
        <time>2023-05-28T14:12:45Z</time>
      </trkpt>
      <trkpt lat="43.53713" lon="5.51173">
        <ele>333.4</ele>
        <time>2023-05-28T14:12:46Z</time>
      </trkpt>
      <trkpt lat="43.53712" lon="5.51174">
        <ele>333.5</ele>
        <time>2023-05-28T14:12:47Z</time>
      </trkpt>
      <trkpt lat="43.53711" lon="5.51174">
        <ele>333.5</ele>
        <time>2023-05-28T14:12:48Z</time>
      </trkpt>
      <trkpt lat="43.5371" lon="5.51175">
        <ele>333.6</ele>
        <time>2023-05-28T14:12:49Z</time>
      </trkpt>
      <trkpt lat="43.53709" lon="5.51176">
        <ele>333.6</ele>
        <time>2023-05-28T14:12:50Z</time>
      </trkpt>
      <trkpt lat="43.53709" lon="5.51177">
        <ele>333.7</ele>
        <time>2023-05-28T14:12:51Z</time>
      </trkpt>
      <trkpt lat="43.53708" lon="5.51177">
        <ele>333.7</ele>
        <time>2023-05-28T14:12:52Z</time>
      </trkpt>
      <trkpt lat="43.53707" lon="5.51178">
        <ele>333.7</ele>
        <time>2023-05-28T14:12:53Z</time>
      </trkpt>
      <trkpt lat="43.53705" lon="5.51179">
        <ele>333.7</ele>
        <time>2023-05-28T14:12:54Z</time>
      </trkpt>
      <trkpt lat="43.53704" lon="5.5118">
        <ele>333.7</ele>
        <time>2023-05-28T14:12:55Z</time>
      </trkpt>
      <trkpt lat="43.53704" lon="5.51181">
        <ele>333.6</ele>
        <time>2023-05-28T14:12:56Z</time>
      </trkpt>
      <trkpt lat="43.53703" lon="5.51181">
        <ele>333.5</ele>
        <time>2023-05-28T14:12:57Z</time>
      </trkpt>
      <trkpt lat="43.53702" lon="5.51182">
        <ele>333.4</ele>
        <time>2023-05-28T14:12:58Z</time>
      </trkpt>
      <trkpt lat="43.53701" lon="5.51183">
        <ele>333.3</ele>
        <time>2023-05-28T14:12:59Z</time>
      </trkpt>
      <trkpt lat="43.537" lon="5.51184">
        <ele>333.2</ele>
        <time>2023-05-28T14:13:00Z</time>
      </trkpt>
      <trkpt lat="43.53699" lon="5.51185">
        <ele>333</ele>
        <time>2023-05-28T14:13:01Z</time>
      </trkpt>
      <trkpt lat="43.53697" lon="5.51186">
        <ele>333</ele>
        <time>2023-05-28T14:13:02Z</time>
      </trkpt>
      <trkpt lat="43.53697" lon="5.51187">
        <ele>333</ele>
        <time>2023-05-28T14:13:03Z</time>
      </trkpt>
      <trkpt lat="43.53695" lon="5.51187">
        <ele>333</ele>
        <time>2023-05-28T14:13:04Z</time>
      </trkpt>
      <trkpt lat="43.53695" lon="5.51188">
        <ele>333</ele>
        <time>2023-05-28T14:13:05Z</time>
      </trkpt>
      <trkpt lat="43.53694" lon="5.5119">
        <ele>333</ele>
        <time>2023-05-28T14:13:06Z</time>
      </trkpt>
      <trkpt lat="43.53693" lon="5.51191">
        <ele>333.1</ele>
        <time>2023-05-28T14:13:07Z</time>
      </trkpt>
      <trkpt lat="43.53692" lon="5.51192">
        <ele>333.1</ele>
        <time>2023-05-28T14:13:08Z</time>
      </trkpt>
      <trkpt lat="43.53691" lon="5.51194">
        <ele>333.2</ele>
        <time>2023-05-28T14:13:09Z</time>
      </trkpt>
      <trkpt lat="43.5369" lon="5.51195">
        <ele>333.2</ele>
        <time>2023-05-28T14:13:10Z</time>
      </trkpt>
      <trkpt lat="43.53689" lon="5.51196">
        <ele>333.3</ele>
        <time>2023-05-28T14:13:11Z</time>
      </trkpt>
      <trkpt lat="43.53688" lon="5.51197">
        <ele>333.3</ele>
        <time>2023-05-28T14:13:12Z</time>
      </trkpt>
      <trkpt lat="43.53687" lon="5.51199">
        <ele>333.3</ele>
        <time>2023-05-28T14:13:13Z</time>
      </trkpt>
      <trkpt lat="43.53687" lon="5.512">
        <ele>333.3</ele>
        <time>2023-05-28T14:13:14Z</time>
      </trkpt>
      <trkpt lat="43.53686" lon="5.51201">
        <ele>333.3</ele>
        <time>2023-05-28T14:13:15Z</time>
      </trkpt>
      <trkpt lat="43.53685" lon="5.51202">
        <ele>333.4</ele>
        <time>2023-05-28T14:13:16Z</time>
      </trkpt>
      <trkpt lat="43.53684" lon="5.51203">
        <ele>333.4</ele>
        <time>2023-05-28T14:13:17Z</time>
      </trkpt>
      <trkpt lat="43.53683" lon="5.51205">
        <ele>333.5</ele>
        <time>2023-05-28T14:13:18Z</time>
      </trkpt>
      <trkpt lat="43.53683" lon="5.51207">
        <ele>333.4</ele>
        <time>2023-05-28T14:13:19Z</time>
      </trkpt>
      <trkpt lat="43.53682" lon="5.51208">
        <ele>333.4</ele>
        <time>2023-05-28T14:13:20Z</time>
      </trkpt>
      <trkpt lat="43.53682" lon="5.51211">
        <ele>333.4</ele>
        <time>2023-05-28T14:13:21Z</time>
      </trkpt>
      <trkpt lat="43.53682" lon="5.51212">
        <ele>333.5</ele>
        <time>2023-05-28T14:13:22Z</time>
      </trkpt>
      <trkpt lat="43.53681" lon="5.51214">
        <ele>333.6</ele>
        <time>2023-05-28T14:13:23Z</time>
      </trkpt>
      <trkpt lat="43.53681" lon="5.51216">
        <ele>333.6</ele>
        <time>2023-05-28T14:13:24Z</time>
      </trkpt>
      <trkpt lat="43.53681" lon="5.51218">
        <ele>333.8</ele>
        <time>2023-05-28T14:13:25Z</time>
      </trkpt>
      <trkpt lat="43.53681" lon="5.5122">
        <ele>333.9</ele>
        <time>2023-05-28T14:13:26Z</time>
      </trkpt>
      <trkpt lat="43.53681" lon="5.51222">
        <ele>334</ele>
        <time>2023-05-28T14:13:27Z</time>
      </trkpt>
      <trkpt lat="43.53681" lon="5.51223">
        <ele>334.1</ele>
        <time>2023-05-28T14:13:28Z</time>
      </trkpt>
      <trkpt lat="43.5368" lon="5.51225">
        <ele>334.1</ele>
        <time>2023-05-28T14:13:29Z</time>
      </trkpt>
      <trkpt lat="43.5368" lon="5.51226">
        <ele>334.1</ele>
        <time>2023-05-28T14:13:30Z</time>
      </trkpt>
      <trkpt lat="43.5368" lon="5.51228">
        <ele>334.1</ele>
        <time>2023-05-28T14:13:31Z</time>
      </trkpt>
      <trkpt lat="43.5368" lon="5.5123">
        <ele>334.1</ele>
        <time>2023-05-28T14:13:32Z</time>
      </trkpt>
      <trkpt lat="43.5368" lon="5.51231">
        <ele>334.2</ele>
        <time>2023-05-28T14:13:33Z</time>
      </trkpt>
      <trkpt lat="43.53679" lon="5.51232">
        <ele>334.3</ele>
        <time>2023-05-28T14:13:34Z</time>
      </trkpt>
      <trkpt lat="43.53679" lon="5.51234">
        <ele>334.3</ele>
        <time>2023-05-28T14:13:35Z</time>
      </trkpt>
      <trkpt lat="43.53678" lon="5.51236">
        <ele>334.3</ele>
        <time>2023-05-28T14:13:36Z</time>
      </trkpt>
      <trkpt lat="43.53678" lon="5.51237">
        <ele>334.2</ele>
        <time>2023-05-28T14:13:37Z</time>
      </trkpt>
      <trkpt lat="43.53678" lon="5.51239">
        <ele>334.2</ele>
        <time>2023-05-28T14:13:38Z</time>
      </trkpt>
      <trkpt lat="43.53677" lon="5.51241">
        <ele>334.3</ele>
        <time>2023-05-28T14:13:39Z</time>
      </trkpt>
      <trkpt lat="43.53677" lon="5.51242">
        <ele>334.3</ele>
        <time>2023-05-28T14:13:40Z</time>
      </trkpt>
      <trkpt lat="43.53677" lon="5.51243">
        <ele>334.3</ele>
        <time>2023-05-28T14:13:41Z</time>
      </trkpt>
      <trkpt lat="43.53676" lon="5.51245">
        <ele>334.5</ele>
        <time>2023-05-28T14:13:42Z</time>
      </trkpt>
      <trkpt lat="43.53675" lon="5.51246">
        <ele>334.6</ele>
        <time>2023-05-28T14:13:43Z</time>
      </trkpt>
      <trkpt lat="43.53676" lon="5.51248">
        <ele>334.7</ele>
        <time>2023-05-28T14:13:44Z</time>
      </trkpt>
      <trkpt lat="43.53675" lon="5.5125">
        <ele>334.8</ele>
        <time>2023-05-28T14:13:45Z</time>
      </trkpt>
      <trkpt lat="43.53675" lon="5.51251">
        <ele>334.8</ele>
        <time>2023-05-28T14:13:46Z</time>
      </trkpt>
      <trkpt lat="43.53675" lon="5.51253">
        <ele>334.9</ele>
        <time>2023-05-28T14:13:47Z</time>
      </trkpt>
      <trkpt lat="43.53674" lon="5.51255">
        <ele>334.9</ele>
        <time>2023-05-28T14:13:48Z</time>
      </trkpt>
      <trkpt lat="43.53674" lon="5.51256">
        <ele>334.8</ele>
        <time>2023-05-28T14:13:49Z</time>
      </trkpt>
      <trkpt lat="43.53674" lon="5.51258">
        <ele>334.8</ele>
        <time>2023-05-28T14:13:50Z</time>
      </trkpt>
      <trkpt lat="43.53674" lon="5.51259">
        <ele>334.9</ele>
        <time>2023-05-28T14:13:51Z</time>
      </trkpt>
      <trkpt lat="43.53674" lon="5.51261">
        <ele>334.9</ele>
        <time>2023-05-28T14:13:52Z</time>
      </trkpt>
      <trkpt lat="43.53674" lon="5.51262">
        <ele>335</ele>
        <time>2023-05-28T14:13:53Z</time>
      </trkpt>
      <trkpt lat="43.53674" lon="5.51264">
        <ele>335.1</ele>
        <time>2023-05-28T14:13:54Z</time>
      </trkpt>
      <trkpt lat="43.53674" lon="5.51265">
        <ele>335.1</ele>
        <time>2023-05-28T14:13:55Z</time>
      </trkpt>
      <trkpt lat="43.53673" lon="5.51267">
        <ele>335.2</ele>
        <time>2023-05-28T14:13:56Z</time>
      </trkpt>
      <trkpt lat="43.53673" lon="5.51268">
        <ele>335.3</ele>
        <time>2023-05-28T14:13:57Z</time>
      </trkpt>
      <trkpt lat="43.53672" lon="5.5127">
        <ele>335.4</ele>
        <time>2023-05-28T14:13:58Z</time>
      </trkpt>
      <trkpt lat="43.53672" lon="5.51272">
        <ele>335.4</ele>
        <time>2023-05-28T14:13:59Z</time>
      </trkpt>
      <trkpt lat="43.53672" lon="5.51273">
        <ele>335.5</ele>
        <time>2023-05-28T14:14:00Z</time>
      </trkpt>
      <trkpt lat="43.53672" lon="5.51274">
        <ele>335.6</ele>
        <time>2023-05-28T14:14:01Z</time>
      </trkpt>
      <trkpt lat="43.53672" lon="5.51276">
        <ele>335.7</ele>
        <time>2023-05-28T14:14:02Z</time>
      </trkpt>
      <trkpt lat="43.53672" lon="5.51278">
        <ele>335.8</ele>
        <time>2023-05-28T14:14:03Z</time>
      </trkpt>
      <trkpt lat="43.53671" lon="5.51279">
        <ele>335.8</ele>
        <time>2023-05-28T14:14:04Z</time>
      </trkpt>
      <trkpt lat="43.53671" lon="5.51281">
        <ele>335.8</ele>
        <time>2023-05-28T14:14:05Z</time>
      </trkpt>
      <trkpt lat="43.53671" lon="5.51283">
        <ele>335.7</ele>
        <time>2023-05-28T14:14:06Z</time>
      </trkpt>
      <trkpt lat="43.53671" lon="5.51284">
        <ele>335.7</ele>
        <time>2023-05-28T14:14:07Z</time>
      </trkpt>
      <trkpt lat="43.53671" lon="5.51286">
        <ele>335.6</ele>
        <time>2023-05-28T14:14:08Z</time>
      </trkpt>
      <trkpt lat="43.5367" lon="5.51288">
        <ele>335.6</ele>
        <time>2023-05-28T14:14:09Z</time>
      </trkpt>
      <trkpt lat="43.5367" lon="5.51289">
        <ele>335.6</ele>
        <time>2023-05-28T14:14:10Z</time>
      </trkpt>
      <trkpt lat="43.5367" lon="5.51291">
        <ele>335.6</ele>
        <time>2023-05-28T14:14:11Z</time>
      </trkpt>
      <trkpt lat="43.5367" lon="5.51293">
        <ele>335.6</ele>
        <time>2023-05-28T14:14:12Z</time>
      </trkpt>
      <trkpt lat="43.5367" lon="5.51294">
        <ele>335.6</ele>
        <time>2023-05-28T14:14:13Z</time>
      </trkpt>
      <trkpt lat="43.53669" lon="5.51296">
        <ele>335.7</ele>
        <time>2023-05-28T14:14:14Z</time>
      </trkpt>
      <trkpt lat="43.53669" lon="5.51297">
        <ele>335.8</ele>
        <time>2023-05-28T14:14:15Z</time>
      </trkpt>
      <trkpt lat="43.5367" lon="5.51299">
        <ele>335.9</ele>
        <time>2023-05-28T14:14:16Z</time>
      </trkpt>
      <trkpt lat="43.5367" lon="5.513">
        <ele>335.9</ele>
        <time>2023-05-28T14:14:17Z</time>
      </trkpt>
      <trkpt lat="43.5367" lon="5.51302">
        <ele>335.9</ele>
        <time>2023-05-28T14:14:18Z</time>
      </trkpt>
      <trkpt lat="43.53671" lon="5.51303">
        <ele>336</ele>
        <time>2023-05-28T14:14:19Z</time>
      </trkpt>
      <trkpt lat="43.53672" lon="5.51305">
        <ele>336.1</ele>
        <time>2023-05-28T14:14:20Z</time>
      </trkpt>
      <trkpt lat="43.53672" lon="5.51306">
        <ele>336.2</ele>
        <time>2023-05-28T14:14:21Z</time>
      </trkpt>
      <trkpt lat="43.53673" lon="5.51308">
        <ele>336.2</ele>
        <time>2023-05-28T14:14:22Z</time>
      </trkpt>
      <trkpt lat="43.53673" lon="5.51309">
        <ele>336.2</ele>
        <time>2023-05-28T14:14:23Z</time>
      </trkpt>
      <trkpt lat="43.53673" lon="5.5131">
        <ele>336.2</ele>
        <time>2023-05-28T14:14:24Z</time>
      </trkpt>
      <trkpt lat="43.53674" lon="5.51312">
        <ele>336.2</ele>
        <time>2023-05-28T14:14:25Z</time>
      </trkpt>
      <trkpt lat="43.53674" lon="5.51313">
        <ele>336.1</ele>
        <time>2023-05-28T14:14:26Z</time>
      </trkpt>
      <trkpt lat="43.53675" lon="5.51315">
        <ele>336.2</ele>
        <time>2023-05-28T14:14:27Z</time>
      </trkpt>
      <trkpt lat="43.53675" lon="5.51316">
        <ele>336.2</ele>
        <time>2023-05-28T14:14:28Z</time>
      </trkpt>
      <trkpt lat="43.53676" lon="5.51318">
        <ele>336.2</ele>
        <time>2023-05-28T14:14:29Z</time>
      </trkpt>
      <trkpt lat="43.53676" lon="5.51319">
        <ele>336.3</ele>
        <time>2023-05-28T14:14:30Z</time>
      </trkpt>
      <trkpt lat="43.53676" lon="5.51321">
        <ele>336.3</ele>
        <time>2023-05-28T14:14:31Z</time>
      </trkpt>
      <trkpt lat="43.53676" lon="5.51322">
        <ele>336.4</ele>
        <time>2023-05-28T14:14:32Z</time>
      </trkpt>
      <trkpt lat="43.53677" lon="5.51323">
        <ele>336.5</ele>
        <time>2023-05-28T14:14:33Z</time>
      </trkpt>
      <trkpt lat="43.53677" lon="5.51325">
        <ele>336.5</ele>
        <time>2023-05-28T14:14:34Z</time>
      </trkpt>
      <trkpt lat="43.53677" lon="5.51327">
        <ele>336.5</ele>
        <time>2023-05-28T14:14:35Z</time>
      </trkpt>
      <trkpt lat="43.53678" lon="5.51328">
        <ele>336.6</ele>
        <time>2023-05-28T14:14:36Z</time>
      </trkpt>
      <trkpt lat="43.53678" lon="5.5133">
        <ele>336.6</ele>
        <time>2023-05-28T14:14:37Z</time>
      </trkpt>
      <trkpt lat="43.53679" lon="5.51331">
        <ele>336.6</ele>
        <time>2023-05-28T14:14:38Z</time>
      </trkpt>
      <trkpt lat="43.53679" lon="5.51333">
        <ele>336.6</ele>
        <time>2023-05-28T14:14:39Z</time>
      </trkpt>
      <trkpt lat="43.5368" lon="5.51334">
        <ele>336.6</ele>
        <time>2023-05-28T14:14:40Z</time>
      </trkpt>
      <trkpt lat="43.5368" lon="5.51335">
        <ele>336.6</ele>
        <time>2023-05-28T14:14:41Z</time>
      </trkpt>
      <trkpt lat="43.5368" lon="5.51336">
        <ele>336.6</ele>
        <time>2023-05-28T14:14:42Z</time>
      </trkpt>
      <trkpt lat="43.53681" lon="5.51337">
        <ele>336.6</ele>
        <time>2023-05-28T14:14:43Z</time>
      </trkpt>
      <trkpt lat="43.53682" lon="5.51339">
        <ele>336.5</ele>
        <time>2023-05-28T14:14:44Z</time>
      </trkpt>
      <trkpt lat="43.53683" lon="5.5134">
        <ele>336.5</ele>
        <time>2023-05-28T14:14:45Z</time>
      </trkpt>
      <trkpt lat="43.53684" lon="5.51341">
        <ele>336.5</ele>
        <time>2023-05-28T14:14:46Z</time>
      </trkpt>
      <trkpt lat="43.53685" lon="5.51341">
        <ele>336.4</ele>
        <time>2023-05-28T14:14:47Z</time>
      </trkpt>
      <trkpt lat="43.53686" lon="5.51342">
        <ele>336.4</ele>
        <time>2023-05-28T14:14:48Z</time>
      </trkpt>
      <trkpt lat="43.53686" lon="5.51343">
        <ele>336.4</ele>
        <time>2023-05-28T14:14:49Z</time>
      </trkpt>
      <trkpt lat="43.53687" lon="5.51344">
        <ele>336.4</ele>
        <time>2023-05-28T14:14:50Z</time>
      </trkpt>
      <trkpt lat="43.53689" lon="5.51345">
        <ele>336.4</ele>
        <time>2023-05-28T14:14:51Z</time>
      </trkpt>
      <trkpt lat="43.5369" lon="5.51346">
        <ele>336.4</ele>
        <time>2023-05-28T14:14:52Z</time>
      </trkpt>
      <trkpt lat="43.5369" lon="5.51347">
        <ele>336.5</ele>
        <time>2023-05-28T14:14:53Z</time>
      </trkpt>
      <trkpt lat="43.53691" lon="5.51348">
        <ele>336.5</ele>
        <time>2023-05-28T14:14:54Z</time>
      </trkpt>
      <trkpt lat="43.53692" lon="5.51349">
        <ele>336.5</ele>
        <time>2023-05-28T14:14:55Z</time>
      </trkpt>
      <trkpt lat="43.53693" lon="5.5135">
        <ele>336.6</ele>
        <time>2023-05-28T14:14:56Z</time>
      </trkpt>
      <trkpt lat="43.53694" lon="5.51351">
        <ele>336.6</ele>
        <time>2023-05-28T14:14:57Z</time>
      </trkpt>
      <trkpt lat="43.53694" lon="5.51352">
        <ele>336.6</ele>
        <time>2023-05-28T14:14:58Z</time>
      </trkpt>
      <trkpt lat="43.53696" lon="5.51352">
        <ele>336.6</ele>
        <time>2023-05-28T14:14:59Z</time>
      </trkpt>
      <trkpt lat="43.53696" lon="5.51353">
        <ele>336.6</ele>
        <time>2023-05-28T14:15:00Z</time>
      </trkpt>
      <trkpt lat="43.53697" lon="5.51354">
        <ele>336.7</ele>
        <time>2023-05-28T14:15:01Z</time>
      </trkpt>
      <trkpt lat="43.53698" lon="5.51355">
        <ele>336.7</ele>
        <time>2023-05-28T14:15:02Z</time>
      </trkpt>
      <trkpt lat="43.53699" lon="5.51356">
        <ele>336.7</ele>
        <time>2023-05-28T14:15:03Z</time>
      </trkpt>
      <trkpt lat="43.537" lon="5.51357">
        <ele>336.7</ele>
        <time>2023-05-28T14:15:04Z</time>
      </trkpt>
      <trkpt lat="43.537" lon="5.51357">
        <ele>336.7</ele>
        <time>2023-05-28T14:15:05Z</time>
      </trkpt>
      <trkpt lat="43.53701" lon="5.51358">
        <ele>336.7</ele>
        <time>2023-05-28T14:15:06Z</time>
      </trkpt>
      <trkpt lat="43.53702" lon="5.51359">
        <ele>336.7</ele>
        <time>2023-05-28T14:15:07Z</time>
      </trkpt>
      <trkpt lat="43.53703" lon="5.5136">
        <ele>336.7</ele>
        <time>2023-05-28T14:15:08Z</time>
      </trkpt>
      <trkpt lat="43.53704" lon="5.51361">
        <ele>336.7</ele>
        <time>2023-05-28T14:15:09Z</time>
      </trkpt>
      <trkpt lat="43.53705" lon="5.51362">
        <ele>336.7</ele>
        <time>2023-05-28T14:15:10Z</time>
      </trkpt>
      <trkpt lat="43.53706" lon="5.51363">
        <ele>336.7</ele>
        <time>2023-05-28T14:15:11Z</time>
      </trkpt>
      <trkpt lat="43.53707" lon="5.51364">
        <ele>336.8</ele>
        <time>2023-05-28T14:15:12Z</time>
      </trkpt>
      <trkpt lat="43.53708" lon="5.51365">
        <ele>336.9</ele>
        <time>2023-05-28T14:15:13Z</time>
      </trkpt>
      <trkpt lat="43.53709" lon="5.51365">
        <ele>336.9</ele>
        <time>2023-05-28T14:15:14Z</time>
      </trkpt>
      <trkpt lat="43.5371" lon="5.51366">
        <ele>336.8</ele>
        <time>2023-05-28T14:15:15Z</time>
      </trkpt>
      <trkpt lat="43.53711" lon="5.51366">
        <ele>336.9</ele>
        <time>2023-05-28T14:15:16Z</time>
      </trkpt>
      <trkpt lat="43.53712" lon="5.51367">
        <ele>336.9</ele>
        <time>2023-05-28T14:15:17Z</time>
      </trkpt>
      <trkpt lat="43.53713" lon="5.51367">
        <ele>336.8</ele>
        <time>2023-05-28T14:15:18Z</time>
      </trkpt>
      <trkpt lat="43.53714" lon="5.51368">
        <ele>336.8</ele>
        <time>2023-05-28T14:15:19Z</time>
      </trkpt>
      <trkpt lat="43.53715" lon="5.51369">
        <ele>336.8</ele>
        <time>2023-05-28T14:15:20Z</time>
      </trkpt>
      <trkpt lat="43.53716" lon="5.51371">
        <ele>336.8</ele>
        <time>2023-05-28T14:15:21Z</time>
      </trkpt>
      <trkpt lat="43.53716" lon="5.51372">
        <ele>336.9</ele>
        <time>2023-05-28T14:15:22Z</time>
      </trkpt>
      <trkpt lat="43.53717" lon="5.51373">
        <ele>336.8</ele>
        <time>2023-05-28T14:15:23Z</time>
      </trkpt>
      <trkpt lat="43.53718" lon="5.51374">
        <ele>336.8</ele>
        <time>2023-05-28T14:15:24Z</time>
      </trkpt>
      <trkpt lat="43.53718" lon="5.51376">
        <ele>336.8</ele>
        <time>2023-05-28T14:15:25Z</time>
      </trkpt>
      <trkpt lat="43.53719" lon="5.51377">
        <ele>336.8</ele>
        <time>2023-05-28T14:15:26Z</time>
      </trkpt>
      <trkpt lat="43.5372" lon="5.51378">
        <ele>336.8</ele>
        <time>2023-05-28T14:15:27Z</time>
      </trkpt>
      <trkpt lat="43.53721" lon="5.51379">
        <ele>336.8</ele>
        <time>2023-05-28T14:15:28Z</time>
      </trkpt>
      <trkpt lat="43.53723" lon="5.5138">
        <ele>336.7</ele>
        <time>2023-05-28T14:15:29Z</time>
      </trkpt>
      <trkpt lat="43.53724" lon="5.5138">
        <ele>336.7</ele>
        <time>2023-05-28T14:15:30Z</time>
      </trkpt>
      <trkpt lat="43.53725" lon="5.51381">
        <ele>336.7</ele>
        <time>2023-05-28T14:15:31Z</time>
      </trkpt>
      <trkpt lat="43.53725" lon="5.51381">
        <ele>336.7</ele>
        <time>2023-05-28T14:15:32Z</time>
      </trkpt>
      <trkpt lat="43.53726" lon="5.51382">
        <ele>336.7</ele>
        <time>2023-05-28T14:15:33Z</time>
      </trkpt>
      <trkpt lat="43.53727" lon="5.51384">
        <ele>336.7</ele>
        <time>2023-05-28T14:15:34Z</time>
      </trkpt>
      <trkpt lat="43.53727" lon="5.51385">
        <ele>336.6</ele>
        <time>2023-05-28T14:15:35Z</time>
      </trkpt>
      <trkpt lat="43.53728" lon="5.51387">
        <ele>336.5</ele>
        <time>2023-05-28T14:15:36Z</time>
      </trkpt>
      <trkpt lat="43.53728" lon="5.51388">
        <ele>336.5</ele>
        <time>2023-05-28T14:15:37Z</time>
      </trkpt>
      <trkpt lat="43.53729" lon="5.5139">
        <ele>336.5</ele>
        <time>2023-05-28T14:15:38Z</time>
      </trkpt>
      <trkpt lat="43.53729" lon="5.51391">
        <ele>336.7</ele>
        <time>2023-05-28T14:15:39Z</time>
      </trkpt>
      <trkpt lat="43.5373" lon="5.51391">
        <ele>336.7</ele>
        <time>2023-05-28T14:15:40Z</time>
      </trkpt>
      <trkpt lat="43.5373" lon="5.51392">
        <ele>336.6</ele>
        <time>2023-05-28T14:15:41Z</time>
      </trkpt>
      <trkpt lat="43.5373" lon="5.51392">
        <ele>336.6</ele>
        <time>2023-05-28T14:15:42Z</time>
      </trkpt>
      <trkpt lat="43.53731" lon="5.51393">
        <ele>336.5</ele>
        <time>2023-05-28T14:15:43Z</time>
      </trkpt>
      <trkpt lat="43.53732" lon="5.51394">
        <ele>336.5</ele>
        <time>2023-05-28T14:15:44Z</time>
      </trkpt>
      <trkpt lat="43.53732" lon="5.51394">
        <ele>336.4</ele>
        <time>2023-05-28T14:15:45Z</time>
      </trkpt>
      <trkpt lat="43.53732" lon="5.51396">
        <ele>336.4</ele>
        <time>2023-05-28T14:15:46Z</time>
      </trkpt>
      <trkpt lat="43.53732" lon="5.51397">
        <ele>336.4</ele>
        <time>2023-05-28T14:15:47Z</time>
      </trkpt>
      <trkpt lat="43.53733" lon="5.51399">
        <ele>336.5</ele>
        <time>2023-05-28T14:15:48Z</time>
      </trkpt>
      <trkpt lat="43.53734" lon="5.51401">
        <ele>336.5</ele>
        <time>2023-05-28T14:15:49Z</time>
      </trkpt>
      <trkpt lat="43.53735" lon="5.51402">
        <ele>336.6</ele>
        <time>2023-05-28T14:15:50Z</time>
      </trkpt>
      <trkpt lat="43.53735" lon="5.51403">
        <ele>336.6</ele>
        <time>2023-05-28T14:15:51Z</time>
      </trkpt>
      <trkpt lat="43.53735" lon="5.51405">
        <ele>336.7</ele>
        <time>2023-05-28T14:15:52Z</time>
      </trkpt>
      <trkpt lat="43.53734" lon="5.51406">
        <ele>336.8</ele>
        <time>2023-05-28T14:15:53Z</time>
      </trkpt>
      <trkpt lat="43.53733" lon="5.51406">
        <ele>336.8</ele>
        <time>2023-05-28T14:15:54Z</time>
      </trkpt>
      <trkpt lat="43.53733" lon="5.51407">
        <ele>336.8</ele>
        <time>2023-05-28T14:15:55Z</time>
      </trkpt>
      <trkpt lat="43.53732" lon="5.51408">
        <ele>336.8</ele>
        <time>2023-05-28T14:15:56Z</time>
      </trkpt>
      <trkpt lat="43.53732" lon="5.51409">
        <ele>336.8</ele>
        <time>2023-05-28T14:15:57Z</time>
      </trkpt>
      <trkpt lat="43.53731" lon="5.5141">
        <ele>336.8</ele>
        <time>2023-05-28T14:15:58Z</time>
      </trkpt>
      <trkpt lat="43.5373" lon="5.51411">
        <ele>336.9</ele>
        <time>2023-05-28T14:15:59Z</time>
      </trkpt>
      <trkpt lat="43.53729" lon="5.51411">
        <ele>336.9</ele>
        <time>2023-05-28T14:16:00Z</time>
      </trkpt>
      <trkpt lat="43.53728" lon="5.51412">
        <ele>336.8</ele>
        <time>2023-05-28T14:16:01Z</time>
      </trkpt>
      <trkpt lat="43.53728" lon="5.51413">
        <ele>336.8</ele>
        <time>2023-05-28T14:16:02Z</time>
      </trkpt>
      <trkpt lat="43.53728" lon="5.51414">
        <ele>336.8</ele>
        <time>2023-05-28T14:16:03Z</time>
      </trkpt>
      <trkpt lat="43.53727" lon="5.51415">
        <ele>336.7</ele>
        <time>2023-05-28T14:16:04Z</time>
      </trkpt>
      <trkpt lat="43.53726" lon="5.51415">
        <ele>336.7</ele>
        <time>2023-05-28T14:16:05Z</time>
      </trkpt>
      <trkpt lat="43.53725" lon="5.51416">
        <ele>336.7</ele>
        <time>2023-05-28T14:16:06Z</time>
      </trkpt>
      <trkpt lat="43.53724" lon="5.51417">
        <ele>336.7</ele>
        <time>2023-05-28T14:16:07Z</time>
      </trkpt>
      <trkpt lat="43.53723" lon="5.51417">
        <ele>336.7</ele>
        <time>2023-05-28T14:16:08Z</time>
      </trkpt>
      <trkpt lat="43.53722" lon="5.51418">
        <ele>336.7</ele>
        <time>2023-05-28T14:16:09Z</time>
      </trkpt>
      <trkpt lat="43.53721" lon="5.51418">
        <ele>336.7</ele>
        <time>2023-05-28T14:16:10Z</time>
      </trkpt>
      <trkpt lat="43.5372" lon="5.51419">
        <ele>336.7</ele>
        <time>2023-05-28T14:16:11Z</time>
      </trkpt>
      <trkpt lat="43.53719" lon="5.5142">
        <ele>336.7</ele>
        <time>2023-05-28T14:16:12Z</time>
      </trkpt>
      <trkpt lat="43.53718" lon="5.5142">
        <ele>336.7</ele>
        <time>2023-05-28T14:16:13Z</time>
      </trkpt>
      <trkpt lat="43.53717" lon="5.51421">
        <ele>336.7</ele>
        <time>2023-05-28T14:16:14Z</time>
      </trkpt>
      <trkpt lat="43.53716" lon="5.51423">
        <ele>336.7</ele>
        <time>2023-05-28T14:16:15Z</time>
      </trkpt>
      <trkpt lat="43.53715" lon="5.51425">
        <ele>336.7</ele>
        <time>2023-05-28T14:16:16Z</time>
      </trkpt>
      <trkpt lat="43.53714" lon="5.51426">
        <ele>336.6</ele>
        <time>2023-05-28T14:16:17Z</time>
      </trkpt>
      <trkpt lat="43.53714" lon="5.51427">
        <ele>336.6</ele>
        <time>2023-05-28T14:16:18Z</time>
      </trkpt>
      <trkpt lat="43.53713" lon="5.51428">
        <ele>336.5</ele>
        <time>2023-05-28T14:16:19Z</time>
      </trkpt>
      <trkpt lat="43.53713" lon="5.51429">
        <ele>336.5</ele>
        <time>2023-05-28T14:16:20Z</time>
      </trkpt>
      <trkpt lat="43.53712" lon="5.51429">
        <ele>336.5</ele>
        <time>2023-05-28T14:16:21Z</time>
      </trkpt>
      <trkpt lat="43.53712" lon="5.51431">
        <ele>336.8</ele>
        <time>2023-05-28T14:16:22Z</time>
      </trkpt>
      <trkpt lat="43.53711" lon="5.51432">
        <ele>336.8</ele>
        <time>2023-05-28T14:16:23Z</time>
      </trkpt>
      <trkpt lat="43.53711" lon="5.51435">
        <ele>336.8</ele>
        <time>2023-05-28T14:16:24Z</time>
      </trkpt>
      <trkpt lat="43.53711" lon="5.51437">
        <ele>336.8</ele>
        <time>2023-05-28T14:16:25Z</time>
      </trkpt>
      <trkpt lat="43.5371" lon="5.51438">
        <ele>336.9</ele>
        <time>2023-05-28T14:16:26Z</time>
      </trkpt>
      <trkpt lat="43.53709" lon="5.51441">
        <ele>336.9</ele>
        <time>2023-05-28T14:16:27Z</time>
      </trkpt>
      <trkpt lat="43.53708" lon="5.51443">
        <ele>336.9</ele>
        <time>2023-05-28T14:16:28Z</time>
      </trkpt>
      <trkpt lat="43.53708" lon="5.51444">
        <ele>337</ele>
        <time>2023-05-28T14:16:29Z</time>
      </trkpt>
      <trkpt lat="43.53708" lon="5.51446">
        <ele>337</ele>
        <time>2023-05-28T14:16:30Z</time>
      </trkpt>
      <trkpt lat="43.53708" lon="5.51448">
        <ele>336.9</ele>
        <time>2023-05-28T14:16:31Z</time>
      </trkpt>
      <trkpt lat="43.53708" lon="5.5145">
        <ele>336.9</ele>
        <time>2023-05-28T14:16:32Z</time>
      </trkpt>
      <trkpt lat="43.53708" lon="5.51452">
        <ele>336.9</ele>
        <time>2023-05-28T14:16:33Z</time>
      </trkpt>
      <trkpt lat="43.53709" lon="5.51454">
        <ele>337</ele>
        <time>2023-05-28T14:16:34Z</time>
      </trkpt>
      <trkpt lat="43.53709" lon="5.51455">
        <ele>336.9</ele>
        <time>2023-05-28T14:16:35Z</time>
      </trkpt>
      <trkpt lat="43.5371" lon="5.51457">
        <ele>337</ele>
        <time>2023-05-28T14:16:36Z</time>
      </trkpt>
      <trkpt lat="43.53711" lon="5.51459">
        <ele>337</ele>
        <time>2023-05-28T14:16:37Z</time>
      </trkpt>
      <trkpt lat="43.53712" lon="5.51461">
        <ele>336.9</ele>
        <time>2023-05-28T14:16:38Z</time>
      </trkpt>
      <trkpt lat="43.53713" lon="5.51463">
        <ele>337</ele>
        <time>2023-05-28T14:16:39Z</time>
      </trkpt>
      <trkpt lat="43.53713" lon="5.51465">
        <ele>337.1</ele>
        <time>2023-05-28T14:16:40Z</time>
      </trkpt>
      <trkpt lat="43.53714" lon="5.51466">
        <ele>337.2</ele>
        <time>2023-05-28T14:16:41Z</time>
      </trkpt>
      <trkpt lat="43.53715" lon="5.51468">
        <ele>337.2</ele>
        <time>2023-05-28T14:16:42Z</time>
      </trkpt>
      <trkpt lat="43.53715" lon="5.5147">
        <ele>337.3</ele>
        <time>2023-05-28T14:16:43Z</time>
      </trkpt>
      <trkpt lat="43.53716" lon="5.51472">
        <ele>337.3</ele>
        <time>2023-05-28T14:16:44Z</time>
      </trkpt>
      <trkpt lat="43.53716" lon="5.51474">
        <ele>337.4</ele>
        <time>2023-05-28T14:16:45Z</time>
      </trkpt>
      <trkpt lat="43.53717" lon="5.51475">
        <ele>337.4</ele>
        <time>2023-05-28T14:16:46Z</time>
      </trkpt>
      <trkpt lat="43.53717" lon="5.51477">
        <ele>337.4</ele>
        <time>2023-05-28T14:16:47Z</time>
      </trkpt>
      <trkpt lat="43.53718" lon="5.51479">
        <ele>337.4</ele>
        <time>2023-05-28T14:16:48Z</time>
      </trkpt>
      <trkpt lat="43.53718" lon="5.51481">
        <ele>337.5</ele>
        <time>2023-05-28T14:16:49Z</time>
      </trkpt>
      <trkpt lat="43.53719" lon="5.51483">
        <ele>337.6</ele>
        <time>2023-05-28T14:16:50Z</time>
      </trkpt>
      <trkpt lat="43.53719" lon="5.51484">
        <ele>337.6</ele>
        <time>2023-05-28T14:16:51Z</time>
      </trkpt>
      <trkpt lat="43.5372" lon="5.51485">
        <ele>337.7</ele>
        <time>2023-05-28T14:16:52Z</time>
      </trkpt>
      <trkpt lat="43.5372" lon="5.51487">
        <ele>337.7</ele>
        <time>2023-05-28T14:16:53Z</time>
      </trkpt>
      <trkpt lat="43.5372" lon="5.51489">
        <ele>337.7</ele>
        <time>2023-05-28T14:16:54Z</time>
      </trkpt>
      <trkpt lat="43.53721" lon="5.5149">
        <ele>337.7</ele>
        <time>2023-05-28T14:16:55Z</time>
      </trkpt>
      <trkpt lat="43.53722" lon="5.51492">
        <ele>337.7</ele>
        <time>2023-05-28T14:16:56Z</time>
      </trkpt>
      <trkpt lat="43.53722" lon="5.51493">
        <ele>337.7</ele>
        <time>2023-05-28T14:16:57Z</time>
      </trkpt>
      <trkpt lat="43.53723" lon="5.51494">
        <ele>337.7</ele>
        <time>2023-05-28T14:16:58Z</time>
      </trkpt>
      <trkpt lat="43.53723" lon="5.51496">
        <ele>337.7</ele>
        <time>2023-05-28T14:16:59Z</time>
      </trkpt>
      <trkpt lat="43.53724" lon="5.51497">
        <ele>337.7</ele>
        <time>2023-05-28T14:17:00Z</time>
      </trkpt>
      <trkpt lat="43.53725" lon="5.51498">
        <ele>337.8</ele>
        <time>2023-05-28T14:17:01Z</time>
      </trkpt>
      <trkpt lat="43.53725" lon="5.515">
        <ele>337.8</ele>
        <time>2023-05-28T14:17:02Z</time>
      </trkpt>
      <trkpt lat="43.53726" lon="5.51502">
        <ele>337.8</ele>
        <time>2023-05-28T14:17:03Z</time>
      </trkpt>
      <trkpt lat="43.53726" lon="5.51503">
        <ele>337.9</ele>
        <time>2023-05-28T14:17:04Z</time>
      </trkpt>
      <trkpt lat="43.53727" lon="5.51504">
        <ele>337.8</ele>
        <time>2023-05-28T14:17:05Z</time>
      </trkpt>
      <trkpt lat="43.53728" lon="5.51506">
        <ele>337.8</ele>
        <time>2023-05-28T14:17:06Z</time>
      </trkpt>
      <trkpt lat="43.53728" lon="5.51507">
        <ele>337.9</ele>
        <time>2023-05-28T14:17:07Z</time>
      </trkpt>
      <trkpt lat="43.53729" lon="5.51509">
        <ele>337.9</ele>
        <time>2023-05-28T14:17:08Z</time>
      </trkpt>
      <trkpt lat="43.5373" lon="5.5151">
        <ele>337.9</ele>
        <time>2023-05-28T14:17:09Z</time>
      </trkpt>
      <trkpt lat="43.5373" lon="5.51512">
        <ele>337.9</ele>
        <time>2023-05-28T14:17:10Z</time>
      </trkpt>
      <trkpt lat="43.53731" lon="5.51513">
        <ele>337.9</ele>
        <time>2023-05-28T14:17:11Z</time>
      </trkpt>
      <trkpt lat="43.53731" lon="5.51515">
        <ele>337.8</ele>
        <time>2023-05-28T14:17:12Z</time>
      </trkpt>
      <trkpt lat="43.53732" lon="5.51516">
        <ele>337.7</ele>
        <time>2023-05-28T14:17:13Z</time>
      </trkpt>
      <trkpt lat="43.53732" lon="5.51517">
        <ele>337.7</ele>
        <time>2023-05-28T14:17:14Z</time>
      </trkpt>
      <trkpt lat="43.53733" lon="5.51518">
        <ele>337.8</ele>
        <time>2023-05-28T14:17:15Z</time>
      </trkpt>
      <trkpt lat="43.53734" lon="5.51519">
        <ele>337.8</ele>
        <time>2023-05-28T14:17:16Z</time>
      </trkpt>
      <trkpt lat="43.53734" lon="5.51521">
        <ele>337.7</ele>
        <time>2023-05-28T14:17:17Z</time>
      </trkpt>
      <trkpt lat="43.53735" lon="5.51522">
        <ele>337.7</ele>
        <time>2023-05-28T14:17:18Z</time>
      </trkpt>
      <trkpt lat="43.53736" lon="5.51523">
        <ele>337.7</ele>
        <time>2023-05-28T14:17:19Z</time>
      </trkpt>
      <trkpt lat="43.53737" lon="5.51524">
        <ele>337.7</ele>
        <time>2023-05-28T14:17:20Z</time>
      </trkpt>
      <trkpt lat="43.53737" lon="5.51525">
        <ele>337.7</ele>
        <time>2023-05-28T14:17:21Z</time>
      </trkpt>
      <trkpt lat="43.53738" lon="5.51527">
        <ele>337.8</ele>
        <time>2023-05-28T14:17:22Z</time>
      </trkpt>
      <trkpt lat="43.53739" lon="5.51528">
        <ele>337.8</ele>
        <time>2023-05-28T14:17:23Z</time>
      </trkpt>
      <trkpt lat="43.53739" lon="5.51529">
        <ele>337.8</ele>
        <time>2023-05-28T14:17:24Z</time>
      </trkpt>
      <trkpt lat="43.5374" lon="5.51531">
        <ele>337.9</ele>
        <time>2023-05-28T14:17:25Z</time>
      </trkpt>
      <trkpt lat="43.53741" lon="5.51532">
        <ele>337.9</ele>
        <time>2023-05-28T14:17:26Z</time>
      </trkpt>
      <trkpt lat="43.53741" lon="5.51533">
        <ele>338</ele>
        <time>2023-05-28T14:17:27Z</time>
      </trkpt>
      <trkpt lat="43.53742" lon="5.51534">
        <ele>338.1</ele>
        <time>2023-05-28T14:17:28Z</time>
      </trkpt>
      <trkpt lat="43.53742" lon="5.51536">
        <ele>338.2</ele>
        <time>2023-05-28T14:17:29Z</time>
      </trkpt>
      <trkpt lat="43.53743" lon="5.51538">
        <ele>338.2</ele>
        <time>2023-05-28T14:17:30Z</time>
      </trkpt>
      <trkpt lat="43.53744" lon="5.51539">
        <ele>338.3</ele>
        <time>2023-05-28T14:17:31Z</time>
      </trkpt>
      <trkpt lat="43.53744" lon="5.5154">
        <ele>338.3</ele>
        <time>2023-05-28T14:17:32Z</time>
      </trkpt>
      <trkpt lat="43.53745" lon="5.51542">
        <ele>338.3</ele>
        <time>2023-05-28T14:17:33Z</time>
      </trkpt>
      <trkpt lat="43.53746" lon="5.51543">
        <ele>338.4</ele>
        <time>2023-05-28T14:17:34Z</time>
      </trkpt>
      <trkpt lat="43.53747" lon="5.51544">
        <ele>338.4</ele>
        <time>2023-05-28T14:17:35Z</time>
      </trkpt>
      <trkpt lat="43.53748" lon="5.51546">
        <ele>338.5</ele>
        <time>2023-05-28T14:17:36Z</time>
      </trkpt>
      <trkpt lat="43.53749" lon="5.51547">
        <ele>338.5</ele>
        <time>2023-05-28T14:17:37Z</time>
      </trkpt>
      <trkpt lat="43.53749" lon="5.51548">
        <ele>338.5</ele>
        <time>2023-05-28T14:17:38Z</time>
      </trkpt>
      <trkpt lat="43.5375" lon="5.5155">
        <ele>338.6</ele>
        <time>2023-05-28T14:17:39Z</time>
      </trkpt>
      <trkpt lat="43.5375" lon="5.51551">
        <ele>338.6</ele>
        <time>2023-05-28T14:17:40Z</time>
      </trkpt>
      <trkpt lat="43.53751" lon="5.51553">
        <ele>338.6</ele>
        <time>2023-05-28T14:17:41Z</time>
      </trkpt>
      <trkpt lat="43.53752" lon="5.51554">
        <ele>338.6</ele>
        <time>2023-05-28T14:17:42Z</time>
      </trkpt>
      <trkpt lat="43.53753" lon="5.51555">
        <ele>338.6</ele>
        <time>2023-05-28T14:17:43Z</time>
      </trkpt>
      <trkpt lat="43.53754" lon="5.51557">
        <ele>338.6</ele>
        <time>2023-05-28T14:17:44Z</time>
      </trkpt>
      <trkpt lat="43.53755" lon="5.51558">
        <ele>338.7</ele>
        <time>2023-05-28T14:17:45Z</time>
      </trkpt>
      <trkpt lat="43.53756" lon="5.5156">
        <ele>338.7</ele>
        <time>2023-05-28T14:17:46Z</time>
      </trkpt>
      <trkpt lat="43.53757" lon="5.51561">
        <ele>338.7</ele>
        <time>2023-05-28T14:17:47Z</time>
      </trkpt>
      <trkpt lat="43.53758" lon="5.51562">
        <ele>338.7</ele>
        <time>2023-05-28T14:17:48Z</time>
      </trkpt>
      <trkpt lat="43.53758" lon="5.51563">
        <ele>338.7</ele>
        <time>2023-05-28T14:17:49Z</time>
      </trkpt>
      <trkpt lat="43.53759" lon="5.51565">
        <ele>338.6</ele>
        <time>2023-05-28T14:17:50Z</time>
      </trkpt>
      <trkpt lat="43.5376" lon="5.51566">
        <ele>338.6</ele>
        <time>2023-05-28T14:17:51Z</time>
      </trkpt>
      <trkpt lat="43.53761" lon="5.51567">
        <ele>338.4</ele>
        <time>2023-05-28T14:17:52Z</time>
      </trkpt>
      <trkpt lat="43.53762" lon="5.51568">
        <ele>338.4</ele>
        <time>2023-05-28T14:17:53Z</time>
      </trkpt>
      <trkpt lat="43.53763" lon="5.51569">
        <ele>338.4</ele>
        <time>2023-05-28T14:17:54Z</time>
      </trkpt>
      <trkpt lat="43.53764" lon="5.5157">
        <ele>338.4</ele>
        <time>2023-05-28T14:17:55Z</time>
      </trkpt>
      <trkpt lat="43.53764" lon="5.51571">
        <ele>338.4</ele>
        <time>2023-05-28T14:17:56Z</time>
      </trkpt>
      <trkpt lat="43.53765" lon="5.51572">
        <ele>338.5</ele>
        <time>2023-05-28T14:17:57Z</time>
      </trkpt>
      <trkpt lat="43.53766" lon="5.51572">
        <ele>338.5</ele>
        <time>2023-05-28T14:17:58Z</time>
      </trkpt>
      <trkpt lat="43.53767" lon="5.51574">
        <ele>338.5</ele>
        <time>2023-05-28T14:17:59Z</time>
      </trkpt>
      <trkpt lat="43.53768" lon="5.51575">
        <ele>338.5</ele>
        <time>2023-05-28T14:18:00Z</time>
      </trkpt>
      <trkpt lat="43.5377" lon="5.51577">
        <ele>338.5</ele>
        <time>2023-05-28T14:18:01Z</time>
      </trkpt>
      <trkpt lat="43.53771" lon="5.51578">
        <ele>338.6</ele>
        <time>2023-05-28T14:18:02Z</time>
      </trkpt>
      <trkpt lat="43.53772" lon="5.51579">
        <ele>338.6</ele>
        <time>2023-05-28T14:18:03Z</time>
      </trkpt>
      <trkpt lat="43.53773" lon="5.5158">
        <ele>338.5</ele>
        <time>2023-05-28T14:18:04Z</time>
      </trkpt>
      <trkpt lat="43.53773" lon="5.51581">
        <ele>338.5</ele>
        <time>2023-05-28T14:18:05Z</time>
      </trkpt>
      <trkpt lat="43.53773" lon="5.51583">
        <ele>338.6</ele>
        <time>2023-05-28T14:18:06Z</time>
      </trkpt>
      <trkpt lat="43.53774" lon="5.51584">
        <ele>338.6</ele>
        <time>2023-05-28T14:18:07Z</time>
      </trkpt>
      <trkpt lat="43.53775" lon="5.51585">
        <ele>338.6</ele>
        <time>2023-05-28T14:18:08Z</time>
      </trkpt>
      <trkpt lat="43.53776" lon="5.51586">
        <ele>338.6</ele>
        <time>2023-05-28T14:18:09Z</time>
      </trkpt>
      <trkpt lat="43.53776" lon="5.51587">
        <ele>338.5</ele>
        <time>2023-05-28T14:18:10Z</time>
      </trkpt>
      <trkpt lat="43.53777" lon="5.51589">
        <ele>338.5</ele>
        <time>2023-05-28T14:18:11Z</time>
      </trkpt>
      <trkpt lat="43.53778" lon="5.5159">
        <ele>338.4</ele>
        <time>2023-05-28T14:18:12Z</time>
      </trkpt>
      <trkpt lat="43.53778" lon="5.51592">
        <ele>338.4</ele>
        <time>2023-05-28T14:18:13Z</time>
      </trkpt>
      <trkpt lat="43.53779" lon="5.51593">
        <ele>338.4</ele>
        <time>2023-05-28T14:18:14Z</time>
      </trkpt>
      <trkpt lat="43.53779" lon="5.51595">
        <ele>338.4</ele>
        <time>2023-05-28T14:18:15Z</time>
      </trkpt>
      <trkpt lat="43.5378" lon="5.51597">
        <ele>338.4</ele>
        <time>2023-05-28T14:18:16Z</time>
      </trkpt>
      <trkpt lat="43.5378" lon="5.51598">
        <ele>338.5</ele>
        <time>2023-05-28T14:18:17Z</time>
      </trkpt>
      <trkpt lat="43.53781" lon="5.516">
        <ele>338.5</ele>
        <time>2023-05-28T14:18:18Z</time>
      </trkpt>
      <trkpt lat="43.53781" lon="5.51602">
        <ele>338.5</ele>
        <time>2023-05-28T14:18:19Z</time>
      </trkpt>
      <trkpt lat="43.53782" lon="5.51603">
        <ele>338.5</ele>
        <time>2023-05-28T14:18:20Z</time>
      </trkpt>
      <trkpt lat="43.53783" lon="5.51605">
        <ele>338.8</ele>
        <time>2023-05-28T14:18:21Z</time>
      </trkpt>
      <trkpt lat="43.53783" lon="5.51606">
        <ele>338.9</ele>
        <time>2023-05-28T14:18:22Z</time>
      </trkpt>
      <trkpt lat="43.53784" lon="5.51608">
        <ele>339</ele>
        <time>2023-05-28T14:18:23Z</time>
      </trkpt>
      <trkpt lat="43.53784" lon="5.51609">
        <ele>339</ele>
        <time>2023-05-28T14:18:24Z</time>
      </trkpt>
      <trkpt lat="43.53785" lon="5.51611">
        <ele>339</ele>
        <time>2023-05-28T14:18:25Z</time>
      </trkpt>
      <trkpt lat="43.53785" lon="5.51613">
        <ele>339</ele>
        <time>2023-05-28T14:18:26Z</time>
      </trkpt>
      <trkpt lat="43.53786" lon="5.51614">
        <ele>339.1</ele>
        <time>2023-05-28T14:18:27Z</time>
      </trkpt>
      <trkpt lat="43.53786" lon="5.51616">
        <ele>339.1</ele>
        <time>2023-05-28T14:18:28Z</time>
      </trkpt>
      <trkpt lat="43.53787" lon="5.51617">
        <ele>339.1</ele>
        <time>2023-05-28T14:18:29Z</time>
      </trkpt>
      <trkpt lat="43.53788" lon="5.51618">
        <ele>339.1</ele>
        <time>2023-05-28T14:18:30Z</time>
      </trkpt>
      <trkpt lat="43.53789" lon="5.5162">
        <ele>339.1</ele>
        <time>2023-05-28T14:18:31Z</time>
      </trkpt>
      <trkpt lat="43.53789" lon="5.51621">
        <ele>339.1</ele>
        <time>2023-05-28T14:18:32Z</time>
      </trkpt>
      <trkpt lat="43.53789" lon="5.51622">
        <ele>339.1</ele>
        <time>2023-05-28T14:18:33Z</time>
      </trkpt>
      <trkpt lat="43.5379" lon="5.51624">
        <ele>339.2</ele>
        <time>2023-05-28T14:18:34Z</time>
      </trkpt>
      <trkpt lat="43.5379" lon="5.51625">
        <ele>339.2</ele>
        <time>2023-05-28T14:18:35Z</time>
      </trkpt>
      <trkpt lat="43.5379" lon="5.51627">
        <ele>339.2</ele>
        <time>2023-05-28T14:18:36Z</time>
      </trkpt>
      <trkpt lat="43.5379" lon="5.51628">
        <ele>339.2</ele>
        <time>2023-05-28T14:18:37Z</time>
      </trkpt>
      <trkpt lat="43.53791" lon="5.5163">
        <ele>339.3</ele>
        <time>2023-05-28T14:18:38Z</time>
      </trkpt>
      <trkpt lat="43.53791" lon="5.51631">
        <ele>339.5</ele>
        <time>2023-05-28T14:18:39Z</time>
      </trkpt>
      <trkpt lat="43.53791" lon="5.51632">
        <ele>339.5</ele>
        <time>2023-05-28T14:18:40Z</time>
      </trkpt>
      <trkpt lat="43.53791" lon="5.51634">
        <ele>339.5</ele>
        <time>2023-05-28T14:18:41Z</time>
      </trkpt>
      <trkpt lat="43.53791" lon="5.51636">
        <ele>339.5</ele>
        <time>2023-05-28T14:18:42Z</time>
      </trkpt>
      <trkpt lat="43.53792" lon="5.51637">
        <ele>339.5</ele>
        <time>2023-05-28T14:18:43Z</time>
      </trkpt>
      <trkpt lat="43.53792" lon="5.51639">
        <ele>339.5</ele>
        <time>2023-05-28T14:18:44Z</time>
      </trkpt>
      <trkpt lat="43.53792" lon="5.51641">
        <ele>339.5</ele>
        <time>2023-05-28T14:18:45Z</time>
      </trkpt>
      <trkpt lat="43.53792" lon="5.51643">
        <ele>339.5</ele>
        <time>2023-05-28T14:18:46Z</time>
      </trkpt>
      <trkpt lat="43.53792" lon="5.51645">
        <ele>339.5</ele>
        <time>2023-05-28T14:18:47Z</time>
      </trkpt>
      <trkpt lat="43.53792" lon="5.51646">
        <ele>339.6</ele>
        <time>2023-05-28T14:18:48Z</time>
      </trkpt>
      <trkpt lat="43.53792" lon="5.51648">
        <ele>339.7</ele>
        <time>2023-05-28T14:18:49Z</time>
      </trkpt>
      <trkpt lat="43.53792" lon="5.51649">
        <ele>339.7</ele>
        <time>2023-05-28T14:18:50Z</time>
      </trkpt>
      <trkpt lat="43.53793" lon="5.51651">
        <ele>339.7</ele>
        <time>2023-05-28T14:18:51Z</time>
      </trkpt>
      <trkpt lat="43.53793" lon="5.51653">
        <ele>339.6</ele>
        <time>2023-05-28T14:18:52Z</time>
      </trkpt>
      <trkpt lat="43.53794" lon="5.51654">
        <ele>339.7</ele>
        <time>2023-05-28T14:18:53Z</time>
      </trkpt>
      <trkpt lat="43.53794" lon="5.51656">
        <ele>339.6</ele>
        <time>2023-05-28T14:18:54Z</time>
      </trkpt>
      <trkpt lat="43.53795" lon="5.51657">
        <ele>339.5</ele>
        <time>2023-05-28T14:18:55Z</time>
      </trkpt>
      <trkpt lat="43.53796" lon="5.51658">
        <ele>339.4</ele>
        <time>2023-05-28T14:18:56Z</time>
      </trkpt>
      <trkpt lat="43.53797" lon="5.51659">
        <ele>339.4</ele>
        <time>2023-05-28T14:18:57Z</time>
      </trkpt>
      <trkpt lat="43.53798" lon="5.51661">
        <ele>339.3</ele>
        <time>2023-05-28T14:18:58Z</time>
      </trkpt>
      <trkpt lat="43.53799" lon="5.51662">
        <ele>339.2</ele>
        <time>2023-05-28T14:18:59Z</time>
      </trkpt>
      <trkpt lat="43.538" lon="5.51663">
        <ele>339.1</ele>
        <time>2023-05-28T14:19:00Z</time>
      </trkpt>
      <trkpt lat="43.53801" lon="5.51664">
        <ele>339.1</ele>
        <time>2023-05-28T14:19:01Z</time>
      </trkpt>
      <trkpt lat="43.53802" lon="5.51665">
        <ele>339</ele>
        <time>2023-05-28T14:19:02Z</time>
      </trkpt>
      <trkpt lat="43.53804" lon="5.51665">
        <ele>339</ele>
        <time>2023-05-28T14:19:03Z</time>
      </trkpt>
      <trkpt lat="43.53805" lon="5.51666">
        <ele>339</ele>
        <time>2023-05-28T14:19:04Z</time>
      </trkpt>
      <trkpt lat="43.53806" lon="5.51667">
        <ele>338.8</ele>
        <time>2023-05-28T14:19:05Z</time>
      </trkpt>
      <trkpt lat="43.53807" lon="5.51668">
        <ele>338.8</ele>
        <time>2023-05-28T14:19:06Z</time>
      </trkpt>
      <trkpt lat="43.53808" lon="5.51668">
        <ele>338.9</ele>
        <time>2023-05-28T14:19:07Z</time>
      </trkpt>
      <trkpt lat="43.53809" lon="5.51668">
        <ele>338.9</ele>
        <time>2023-05-28T14:19:08Z</time>
      </trkpt>
      <trkpt lat="43.5381" lon="5.51669">
        <ele>339</ele>
        <time>2023-05-28T14:19:09Z</time>
      </trkpt>
      <trkpt lat="43.53812" lon="5.5167">
        <ele>339.2</ele>
        <time>2023-05-28T14:19:10Z</time>
      </trkpt>
      <trkpt lat="43.53813" lon="5.5167">
        <ele>339.2</ele>
        <time>2023-05-28T14:19:11Z</time>
      </trkpt>
      <trkpt lat="43.53814" lon="5.5167">
        <ele>339.2</ele>
        <time>2023-05-28T14:19:12Z</time>
      </trkpt>
      <trkpt lat="43.53816" lon="5.5167">
        <ele>339.3</ele>
        <time>2023-05-28T14:19:13Z</time>
      </trkpt>
      <trkpt lat="43.53817" lon="5.51671">
        <ele>339.4</ele>
        <time>2023-05-28T14:19:14Z</time>
      </trkpt>
      <trkpt lat="43.53818" lon="5.51671">
        <ele>339.5</ele>
        <time>2023-05-28T14:19:15Z</time>
      </trkpt>
      <trkpt lat="43.53819" lon="5.51671">
        <ele>339.6</ele>
        <time>2023-05-28T14:19:16Z</time>
      </trkpt>
      <trkpt lat="43.5382" lon="5.51672">
        <ele>339.8</ele>
        <time>2023-05-28T14:19:17Z</time>
      </trkpt>
      <trkpt lat="43.53822" lon="5.51672">
        <ele>339.8</ele>
        <time>2023-05-28T14:19:18Z</time>
      </trkpt>
      <trkpt lat="43.53823" lon="5.51672">
        <ele>339.9</ele>
        <time>2023-05-28T14:19:19Z</time>
      </trkpt>
      <trkpt lat="43.53824" lon="5.51672">
        <ele>340</ele>
        <time>2023-05-28T14:19:20Z</time>
      </trkpt>
      <trkpt lat="43.53825" lon="5.51673">
        <ele>339.8</ele>
        <time>2023-05-28T14:19:21Z</time>
      </trkpt>
      <trkpt lat="43.53827" lon="5.51673">
        <ele>339.7</ele>
        <time>2023-05-28T14:19:22Z</time>
      </trkpt>
      <trkpt lat="43.53828" lon="5.51674">
        <ele>339.6</ele>
        <time>2023-05-28T14:19:23Z</time>
      </trkpt>
      <trkpt lat="43.53829" lon="5.51674">
        <ele>339.6</ele>
        <time>2023-05-28T14:19:24Z</time>
      </trkpt>
      <trkpt lat="43.5383" lon="5.51675">
        <ele>339.5</ele>
        <time>2023-05-28T14:19:25Z</time>
      </trkpt>
      <trkpt lat="43.53831" lon="5.51677">
        <ele>339.4</ele>
        <time>2023-05-28T14:19:26Z</time>
      </trkpt>
      <trkpt lat="43.53832" lon="5.51677">
        <ele>339.4</ele>
        <time>2023-05-28T14:19:27Z</time>
      </trkpt>
      <trkpt lat="43.53833" lon="5.51678">
        <ele>339.4</ele>
        <time>2023-05-28T14:19:28Z</time>
      </trkpt>
      <trkpt lat="43.53834" lon="5.5168">
        <ele>339.2</ele>
        <time>2023-05-28T14:19:29Z</time>
      </trkpt>
      <trkpt lat="43.53836" lon="5.51681">
        <ele>339.1</ele>
        <time>2023-05-28T14:19:30Z</time>
      </trkpt>
      <trkpt lat="43.53837" lon="5.51681">
        <ele>339</ele>
        <time>2023-05-28T14:19:31Z</time>
      </trkpt>
      <trkpt lat="43.53839" lon="5.51682">
        <ele>339</ele>
        <time>2023-05-28T14:19:32Z</time>
      </trkpt>
      <trkpt lat="43.5384" lon="5.51683">
        <ele>338.9</ele>
        <time>2023-05-28T14:19:33Z</time>
      </trkpt>
      <trkpt lat="43.53841" lon="5.51684">
        <ele>338.9</ele>
        <time>2023-05-28T14:19:34Z</time>
      </trkpt>
      <trkpt lat="43.53842" lon="5.51684">
        <ele>338.9</ele>
        <time>2023-05-28T14:19:35Z</time>
      </trkpt>
      <trkpt lat="43.53843" lon="5.51685">
        <ele>338.9</ele>
        <time>2023-05-28T14:19:36Z</time>
      </trkpt>
      <trkpt lat="43.53844" lon="5.51685">
        <ele>338.9</ele>
        <time>2023-05-28T14:19:37Z</time>
      </trkpt>
      <trkpt lat="43.53845" lon="5.51686">
        <ele>338.9</ele>
        <time>2023-05-28T14:19:38Z</time>
      </trkpt>
      <trkpt lat="43.53847" lon="5.51686">
        <ele>338.9</ele>
        <time>2023-05-28T14:19:39Z</time>
      </trkpt>
      <trkpt lat="43.53848" lon="5.51687">
        <ele>338.9</ele>
        <time>2023-05-28T14:19:40Z</time>
      </trkpt>
      <trkpt lat="43.53849" lon="5.51688">
        <ele>338.9</ele>
        <time>2023-05-28T14:19:41Z</time>
      </trkpt>
      <trkpt lat="43.5385" lon="5.51688">
        <ele>338.9</ele>
        <time>2023-05-28T14:19:42Z</time>
      </trkpt>
      <trkpt lat="43.53851" lon="5.51689">
        <ele>338.9</ele>
        <time>2023-05-28T14:19:43Z</time>
      </trkpt>
      <trkpt lat="43.53852" lon="5.5169">
        <ele>338.9</ele>
        <time>2023-05-28T14:19:44Z</time>
      </trkpt>
      <trkpt lat="43.53853" lon="5.51691">
        <ele>338.8</ele>
        <time>2023-05-28T14:19:45Z</time>
      </trkpt>
      <trkpt lat="43.53854" lon="5.51691">
        <ele>338.8</ele>
        <time>2023-05-28T14:19:46Z</time>
      </trkpt>
      <trkpt lat="43.53855" lon="5.51692">
        <ele>338.8</ele>
        <time>2023-05-28T14:19:47Z</time>
      </trkpt>
      <trkpt lat="43.53856" lon="5.51693">
        <ele>338.8</ele>
        <time>2023-05-28T14:19:48Z</time>
      </trkpt>
      <trkpt lat="43.53857" lon="5.51693">
        <ele>338.9</ele>
        <time>2023-05-28T14:19:49Z</time>
      </trkpt>
      <trkpt lat="43.53858" lon="5.51694">
        <ele>339</ele>
        <time>2023-05-28T14:19:50Z</time>
      </trkpt>
      <trkpt lat="43.53859" lon="5.51695">
        <ele>339</ele>
        <time>2023-05-28T14:19:51Z</time>
      </trkpt>
      <trkpt lat="43.5386" lon="5.51696">
        <ele>339.1</ele>
        <time>2023-05-28T14:19:52Z</time>
      </trkpt>
      <trkpt lat="43.53861" lon="5.51696">
        <ele>339</ele>
        <time>2023-05-28T14:19:53Z</time>
      </trkpt>
      <trkpt lat="43.53862" lon="5.51697">
        <ele>339</ele>
        <time>2023-05-28T14:19:54Z</time>
      </trkpt>
      <trkpt lat="43.53863" lon="5.51698">
        <ele>339</ele>
        <time>2023-05-28T14:19:55Z</time>
      </trkpt>
      <trkpt lat="43.53865" lon="5.51698">
        <ele>339</ele>
        <time>2023-05-28T14:19:56Z</time>
      </trkpt>
      <trkpt lat="43.53866" lon="5.51699">
        <ele>339</ele>
        <time>2023-05-28T14:19:57Z</time>
      </trkpt>
      <trkpt lat="43.53867" lon="5.51699">
        <ele>339</ele>
        <time>2023-05-28T14:19:58Z</time>
      </trkpt>
      <trkpt lat="43.53869" lon="5.517">
        <ele>339</ele>
        <time>2023-05-28T14:19:59Z</time>
      </trkpt>
      <trkpt lat="43.5387" lon="5.51701">
        <ele>339</ele>
        <time>2023-05-28T14:20:00Z</time>
      </trkpt>
      <trkpt lat="43.53871" lon="5.51701">
        <ele>339</ele>
        <time>2023-05-28T14:20:01Z</time>
      </trkpt>
      <trkpt lat="43.53872" lon="5.51702">
        <ele>339</ele>
        <time>2023-05-28T14:20:02Z</time>
      </trkpt>
      <trkpt lat="43.53873" lon="5.51702">
        <ele>339</ele>
        <time>2023-05-28T14:20:03Z</time>
      </trkpt>
      <trkpt lat="43.53874" lon="5.51703">
        <ele>339</ele>
        <time>2023-05-28T14:20:04Z</time>
      </trkpt>
      <trkpt lat="43.53876" lon="5.51703">
        <ele>339.1</ele>
        <time>2023-05-28T14:20:05Z</time>
      </trkpt>
      <trkpt lat="43.53877" lon="5.51704">
        <ele>339.1</ele>
        <time>2023-05-28T14:20:06Z</time>
      </trkpt>
      <trkpt lat="43.53878" lon="5.51705">
        <ele>339.2</ele>
        <time>2023-05-28T14:20:07Z</time>
      </trkpt>
      <trkpt lat="43.53879" lon="5.51706">
        <ele>339.3</ele>
        <time>2023-05-28T14:20:08Z</time>
      </trkpt>
      <trkpt lat="43.5388" lon="5.51707">
        <ele>339.3</ele>
        <time>2023-05-28T14:20:09Z</time>
      </trkpt>
      <trkpt lat="43.53882" lon="5.51708">
        <ele>339.4</ele>
        <time>2023-05-28T14:20:10Z</time>
      </trkpt>
      <trkpt lat="43.53883" lon="5.51708">
        <ele>339.4</ele>
        <time>2023-05-28T14:20:11Z</time>
      </trkpt>
      <trkpt lat="43.53884" lon="5.51709">
        <ele>339.3</ele>
        <time>2023-05-28T14:20:12Z</time>
      </trkpt>
      <trkpt lat="43.53885" lon="5.5171">
        <ele>339.3</ele>
        <time>2023-05-28T14:20:13Z</time>
      </trkpt>
      <trkpt lat="43.53886" lon="5.51711">
        <ele>339.3</ele>
        <time>2023-05-28T14:20:14Z</time>
      </trkpt>
      <trkpt lat="43.53887" lon="5.51712">
        <ele>339.3</ele>
        <time>2023-05-28T14:20:15Z</time>
      </trkpt>
      <trkpt lat="43.53888" lon="5.51712">
        <ele>339.3</ele>
        <time>2023-05-28T14:20:16Z</time>
      </trkpt>
      <trkpt lat="43.53889" lon="5.51713">
        <ele>339.2</ele>
        <time>2023-05-28T14:20:17Z</time>
      </trkpt>
      <trkpt lat="43.53891" lon="5.51713">
        <ele>339.2</ele>
        <time>2023-05-28T14:20:18Z</time>
      </trkpt>
      <trkpt lat="43.53892" lon="5.51713">
        <ele>339.2</ele>
        <time>2023-05-28T14:20:19Z</time>
      </trkpt>
      <trkpt lat="43.53893" lon="5.51713">
        <ele>339.2</ele>
        <time>2023-05-28T14:20:20Z</time>
      </trkpt>
      <trkpt lat="43.53895" lon="5.51714">
        <ele>339.2</ele>
        <time>2023-05-28T14:20:21Z</time>
      </trkpt>
      <trkpt lat="43.53896" lon="5.51714">
        <ele>339.2</ele>
        <time>2023-05-28T14:20:22Z</time>
      </trkpt>
      <trkpt lat="43.53897" lon="5.51714">
        <ele>339.2</ele>
        <time>2023-05-28T14:20:23Z</time>
      </trkpt>
      <trkpt lat="43.53898" lon="5.51715">
        <ele>339.2</ele>
        <time>2023-05-28T14:20:24Z</time>
      </trkpt>
      <trkpt lat="43.53899" lon="5.51715">
        <ele>339.2</ele>
        <time>2023-05-28T14:20:25Z</time>
      </trkpt>
      <trkpt lat="43.539" lon="5.51716">
        <ele>339.2</ele>
        <time>2023-05-28T14:20:26Z</time>
      </trkpt>
      <trkpt lat="43.53902" lon="5.51716">
        <ele>339.1</ele>
        <time>2023-05-28T14:20:27Z</time>
      </trkpt>
      <trkpt lat="43.53903" lon="5.51716">
        <ele>339.1</ele>
        <time>2023-05-28T14:20:28Z</time>
      </trkpt>
      <trkpt lat="43.53904" lon="5.51717">
        <ele>339.1</ele>
        <time>2023-05-28T14:20:29Z</time>
      </trkpt>
      <trkpt lat="43.53905" lon="5.51717">
        <ele>339.1</ele>
        <time>2023-05-28T14:20:30Z</time>
      </trkpt>
      <trkpt lat="43.53906" lon="5.51718">
        <ele>339</ele>
        <time>2023-05-28T14:20:31Z</time>
      </trkpt>
      <trkpt lat="43.53907" lon="5.51718">
        <ele>338.9</ele>
        <time>2023-05-28T14:20:32Z</time>
      </trkpt>
      <trkpt lat="43.53908" lon="5.51719">
        <ele>338.9</ele>
        <time>2023-05-28T14:20:33Z</time>
      </trkpt>
      <trkpt lat="43.53909" lon="5.5172">
        <ele>338.9</ele>
        <time>2023-05-28T14:20:34Z</time>
      </trkpt>
      <trkpt lat="43.5391" lon="5.51721">
        <ele>338.9</ele>
        <time>2023-05-28T14:20:35Z</time>
      </trkpt>
      <trkpt lat="43.53911" lon="5.51722">
        <ele>338.9</ele>
        <time>2023-05-28T14:20:36Z</time>
      </trkpt>
      <trkpt lat="43.53911" lon="5.51723">
        <ele>338.9</ele>
        <time>2023-05-28T14:20:37Z</time>
      </trkpt>
      <trkpt lat="43.53912" lon="5.51724">
        <ele>338.8</ele>
        <time>2023-05-28T14:20:38Z</time>
      </trkpt>
      <trkpt lat="43.53913" lon="5.51724">
        <ele>338.7</ele>
        <time>2023-05-28T14:20:39Z</time>
      </trkpt>
      <trkpt lat="43.53914" lon="5.51725">
        <ele>338.6</ele>
        <time>2023-05-28T14:20:40Z</time>
      </trkpt>
      <trkpt lat="43.53915" lon="5.51727">
        <ele>338.6</ele>
        <time>2023-05-28T14:20:41Z</time>
      </trkpt>
      <trkpt lat="43.53916" lon="5.51728">
        <ele>338.7</ele>
        <time>2023-05-28T14:20:42Z</time>
      </trkpt>
      <trkpt lat="43.53917" lon="5.51729">
        <ele>338.6</ele>
        <time>2023-05-28T14:20:43Z</time>
      </trkpt>
      <trkpt lat="43.53918" lon="5.5173">
        <ele>338.6</ele>
        <time>2023-05-28T14:20:44Z</time>
      </trkpt>
      <trkpt lat="43.53919" lon="5.51731">
        <ele>338.6</ele>
        <time>2023-05-28T14:20:45Z</time>
      </trkpt>
      <trkpt lat="43.53919" lon="5.51732">
        <ele>338.6</ele>
        <time>2023-05-28T14:20:46Z</time>
      </trkpt>
      <trkpt lat="43.5392" lon="5.51733">
        <ele>338.5</ele>
        <time>2023-05-28T14:20:47Z</time>
      </trkpt>
      <trkpt lat="43.53921" lon="5.51735">
        <ele>338.5</ele>
        <time>2023-05-28T14:20:48Z</time>
      </trkpt>
      <trkpt lat="43.53922" lon="5.51735">
        <ele>338.4</ele>
        <time>2023-05-28T14:20:49Z</time>
      </trkpt>
      <trkpt lat="43.53923" lon="5.51737">
        <ele>338.4</ele>
        <time>2023-05-28T14:20:50Z</time>
      </trkpt>
      <trkpt lat="43.53924" lon="5.51738">
        <ele>338.4</ele>
        <time>2023-05-28T14:20:51Z</time>
      </trkpt>
      <trkpt lat="43.53925" lon="5.51739">
        <ele>338.4</ele>
        <time>2023-05-28T14:20:52Z</time>
      </trkpt>
      <trkpt lat="43.53926" lon="5.51741">
        <ele>338.4</ele>
        <time>2023-05-28T14:20:53Z</time>
      </trkpt>
      <trkpt lat="43.53926" lon="5.51742">
        <ele>338.4</ele>
        <time>2023-05-28T14:20:54Z</time>
      </trkpt>
      <trkpt lat="43.53927" lon="5.51743">
        <ele>338.7</ele>
        <time>2023-05-28T14:20:55Z</time>
      </trkpt>
      <trkpt lat="43.53927" lon="5.51745">
        <ele>338.7</ele>
        <time>2023-05-28T14:20:56Z</time>
      </trkpt>
      <trkpt lat="43.53928" lon="5.51746">
        <ele>338.8</ele>
        <time>2023-05-28T14:20:57Z</time>
      </trkpt>
      <trkpt lat="43.53929" lon="5.51748">
        <ele>338.8</ele>
        <time>2023-05-28T14:20:58Z</time>
      </trkpt>
      <trkpt lat="43.53929" lon="5.51749">
        <ele>338.7</ele>
        <time>2023-05-28T14:20:59Z</time>
      </trkpt>
      <trkpt lat="43.5393" lon="5.5175">
        <ele>338.7</ele>
        <time>2023-05-28T14:21:00Z</time>
      </trkpt>
      <trkpt lat="43.53931" lon="5.51751">
        <ele>338.6</ele>
        <time>2023-05-28T14:21:01Z</time>
      </trkpt>
      <trkpt lat="43.53931" lon="5.51752">
        <ele>338.6</ele>
        <time>2023-05-28T14:21:02Z</time>
      </trkpt>
      <trkpt lat="43.53932" lon="5.51753">
        <ele>338.7</ele>
        <time>2023-05-28T14:21:03Z</time>
      </trkpt>
      <trkpt lat="43.53933" lon="5.51754">
        <ele>338.7</ele>
        <time>2023-05-28T14:21:04Z</time>
      </trkpt>
      <trkpt lat="43.53934" lon="5.51755">
        <ele>338.7</ele>
        <time>2023-05-28T14:21:05Z</time>
      </trkpt>
      <trkpt lat="43.53935" lon="5.51756">
        <ele>338.7</ele>
        <time>2023-05-28T14:21:06Z</time>
      </trkpt>
      <trkpt lat="43.53936" lon="5.51758">
        <ele>338.7</ele>
        <time>2023-05-28T14:21:07Z</time>
      </trkpt>
      <trkpt lat="43.53937" lon="5.51759">
        <ele>338.7</ele>
        <time>2023-05-28T14:21:08Z</time>
      </trkpt>
      <trkpt lat="43.53937" lon="5.5176">
        <ele>338.8</ele>
        <time>2023-05-28T14:21:09Z</time>
      </trkpt>
      <trkpt lat="43.53938" lon="5.51761">
        <ele>338.8</ele>
        <time>2023-05-28T14:21:10Z</time>
      </trkpt>
      <trkpt lat="43.53938" lon="5.51762">
        <ele>338.8</ele>
        <time>2023-05-28T14:21:11Z</time>
      </trkpt>
      <trkpt lat="43.53939" lon="5.51763">
        <ele>338.8</ele>
        <time>2023-05-28T14:21:12Z</time>
      </trkpt>
      <trkpt lat="43.5394" lon="5.51764">
        <ele>338.9</ele>
        <time>2023-05-28T14:21:13Z</time>
      </trkpt>
      <trkpt lat="43.53941" lon="5.51765">
        <ele>338.8</ele>
        <time>2023-05-28T14:21:14Z</time>
      </trkpt>
      <trkpt lat="43.53941" lon="5.51766">
        <ele>338.9</ele>
        <time>2023-05-28T14:21:15Z</time>
      </trkpt>
      <trkpt lat="43.53942" lon="5.51768">
        <ele>339</ele>
        <time>2023-05-28T14:21:16Z</time>
      </trkpt>
      <trkpt lat="43.53943" lon="5.51769">
        <ele>339.1</ele>
        <time>2023-05-28T14:21:17Z</time>
      </trkpt>
      <trkpt lat="43.53943" lon="5.51771">
        <ele>339</ele>
        <time>2023-05-28T14:21:18Z</time>
      </trkpt>
      <trkpt lat="43.53943" lon="5.51773">
        <ele>339</ele>
        <time>2023-05-28T14:21:19Z</time>
      </trkpt>
      <trkpt lat="43.53944" lon="5.51775">
        <ele>339.2</ele>
        <time>2023-05-28T14:21:20Z</time>
      </trkpt>
      <trkpt lat="43.53945" lon="5.51776">
        <ele>339.2</ele>
        <time>2023-05-28T14:21:21Z</time>
      </trkpt>
      <trkpt lat="43.53946" lon="5.51777">
        <ele>339.2</ele>
        <time>2023-05-28T14:21:22Z</time>
      </trkpt>
      <trkpt lat="43.53947" lon="5.51779">
        <ele>339.2</ele>
        <time>2023-05-28T14:21:23Z</time>
      </trkpt>
      <trkpt lat="43.53947" lon="5.5178">
        <ele>339.2</ele>
        <time>2023-05-28T14:21:24Z</time>
      </trkpt>
      <trkpt lat="43.53948" lon="5.51782">
        <ele>339.2</ele>
        <time>2023-05-28T14:21:25Z</time>
      </trkpt>
      <trkpt lat="43.53949" lon="5.51783">
        <ele>339.2</ele>
        <time>2023-05-28T14:21:26Z</time>
      </trkpt>
      <trkpt lat="43.5395" lon="5.51785">
        <ele>339.2</ele>
        <time>2023-05-28T14:21:27Z</time>
      </trkpt>
      <trkpt lat="43.5395" lon="5.51786">
        <ele>339.1</ele>
        <time>2023-05-28T14:21:28Z</time>
      </trkpt>
      <trkpt lat="43.5395" lon="5.51788">
        <ele>339.1</ele>
        <time>2023-05-28T14:21:29Z</time>
      </trkpt>
      <trkpt lat="43.5395" lon="5.5179">
        <ele>339.1</ele>
        <time>2023-05-28T14:21:30Z</time>
      </trkpt>
      <trkpt lat="43.53951" lon="5.51791">
        <ele>339.1</ele>
        <time>2023-05-28T14:21:31Z</time>
      </trkpt>
      <trkpt lat="43.53951" lon="5.51793">
        <ele>339.1</ele>
        <time>2023-05-28T14:21:32Z</time>
      </trkpt>
      <trkpt lat="43.53951" lon="5.51795">
        <ele>339.1</ele>
        <time>2023-05-28T14:21:33Z</time>
      </trkpt>
      <trkpt lat="43.53951" lon="5.51797">
        <ele>339.1</ele>
        <time>2023-05-28T14:21:34Z</time>
      </trkpt>
      <trkpt lat="43.53952" lon="5.51799">
        <ele>339.1</ele>
        <time>2023-05-28T14:21:35Z</time>
      </trkpt>
      <trkpt lat="43.53952" lon="5.518">
        <ele>339</ele>
        <time>2023-05-28T14:21:36Z</time>
      </trkpt>
      <trkpt lat="43.53953" lon="5.51802">
        <ele>339</ele>
        <time>2023-05-28T14:21:37Z</time>
      </trkpt>
      <trkpt lat="43.53953" lon="5.51804">
        <ele>338.9</ele>
        <time>2023-05-28T14:21:38Z</time>
      </trkpt>
      <trkpt lat="43.53953" lon="5.51806">
        <ele>338.9</ele>
        <time>2023-05-28T14:21:39Z</time>
      </trkpt>
      <trkpt lat="43.53953" lon="5.51807">
        <ele>338.9</ele>
        <time>2023-05-28T14:21:40Z</time>
      </trkpt>
      <trkpt lat="43.53953" lon="5.51809">
        <ele>338.8</ele>
        <time>2023-05-28T14:21:41Z</time>
      </trkpt>
      <trkpt lat="43.53953" lon="5.5181">
        <ele>338.8</ele>
        <time>2023-05-28T14:21:42Z</time>
      </trkpt>
      <trkpt lat="43.53953" lon="5.51812">
        <ele>338.9</ele>
        <time>2023-05-28T14:21:43Z</time>
      </trkpt>
      <trkpt lat="43.53953" lon="5.51813">
        <ele>339</ele>
        <time>2023-05-28T14:21:44Z</time>
      </trkpt>
      <trkpt lat="43.53954" lon="5.51814">
        <ele>339</ele>
        <time>2023-05-28T14:21:45Z</time>
      </trkpt>
      <trkpt lat="43.53954" lon="5.51816">
        <ele>339</ele>
        <time>2023-05-28T14:21:46Z</time>
      </trkpt>
      <trkpt lat="43.53955" lon="5.51817">
        <ele>339</ele>
        <time>2023-05-28T14:21:47Z</time>
      </trkpt>
      <trkpt lat="43.53955" lon="5.51818">
        <ele>338.9</ele>
        <time>2023-05-28T14:21:48Z</time>
      </trkpt>
      <trkpt lat="43.53955" lon="5.5182">
        <ele>338.9</ele>
        <time>2023-05-28T14:21:49Z</time>
      </trkpt>
      <trkpt lat="43.53955" lon="5.51821">
        <ele>338.9</ele>
        <time>2023-05-28T14:21:50Z</time>
      </trkpt>
      <trkpt lat="43.53956" lon="5.51823">
        <ele>339</ele>
        <time>2023-05-28T14:21:51Z</time>
      </trkpt>
      <trkpt lat="43.53956" lon="5.51824">
        <ele>339.2</ele>
        <time>2023-05-28T14:21:52Z</time>
      </trkpt>
      <trkpt lat="43.53956" lon="5.51825">
        <ele>339.3</ele>
        <time>2023-05-28T14:21:53Z</time>
      </trkpt>
      <trkpt lat="43.53957" lon="5.51827">
        <ele>339.4</ele>
        <time>2023-05-28T14:21:54Z</time>
      </trkpt>
      <trkpt lat="43.53958" lon="5.51828">
        <ele>339.5</ele>
        <time>2023-05-28T14:21:55Z</time>
      </trkpt>
      <trkpt lat="43.53959" lon="5.51829">
        <ele>339.5</ele>
        <time>2023-05-28T14:21:56Z</time>
      </trkpt>
      <trkpt lat="43.5396" lon="5.51829">
        <ele>339.6</ele>
        <time>2023-05-28T14:21:57Z</time>
      </trkpt>
      <trkpt lat="43.53962" lon="5.5183">
        <ele>339.8</ele>
        <time>2023-05-28T14:21:58Z</time>
      </trkpt>
      <trkpt lat="43.53963" lon="5.5183">
        <ele>339.9</ele>
        <time>2023-05-28T14:21:59Z</time>
      </trkpt>
      <trkpt lat="43.53964" lon="5.51831">
        <ele>340.1</ele>
        <time>2023-05-28T14:22:00Z</time>
      </trkpt>
      <trkpt lat="43.53965" lon="5.51832">
        <ele>340.2</ele>
        <time>2023-05-28T14:22:01Z</time>
      </trkpt>
      <trkpt lat="43.53966" lon="5.51833">
        <ele>340.3</ele>
        <time>2023-05-28T14:22:02Z</time>
      </trkpt>
      <trkpt lat="43.53967" lon="5.51834">
        <ele>340.5</ele>
        <time>2023-05-28T14:22:03Z</time>
      </trkpt>
      <trkpt lat="43.53968" lon="5.51835">
        <ele>340.6</ele>
        <time>2023-05-28T14:22:04Z</time>
      </trkpt>
      <trkpt lat="43.53969" lon="5.51836">
        <ele>340.7</ele>
        <time>2023-05-28T14:22:05Z</time>
      </trkpt>
      <trkpt lat="43.5397" lon="5.51837">
        <ele>340.9</ele>
        <time>2023-05-28T14:22:06Z</time>
      </trkpt>
      <trkpt lat="43.53971" lon="5.51838">
        <ele>341</ele>
        <time>2023-05-28T14:22:07Z</time>
      </trkpt>
      <trkpt lat="43.53973" lon="5.5184">
        <ele>341.2</ele>
        <time>2023-05-28T14:22:08Z</time>
      </trkpt>
      <trkpt lat="43.53974" lon="5.51841">
        <ele>341.2</ele>
        <time>2023-05-28T14:22:09Z</time>
      </trkpt>
      <trkpt lat="43.53975" lon="5.51842">
        <ele>341.3</ele>
        <time>2023-05-28T14:22:10Z</time>
      </trkpt>
      <trkpt lat="43.53976" lon="5.51843">
        <ele>341.4</ele>
        <time>2023-05-28T14:22:11Z</time>
      </trkpt>
      <trkpt lat="43.53977" lon="5.51844">
        <ele>341.5</ele>
        <time>2023-05-28T14:22:12Z</time>
      </trkpt>
      <trkpt lat="43.53978" lon="5.51845">
        <ele>341.5</ele>
        <time>2023-05-28T14:22:13Z</time>
      </trkpt>
      <trkpt lat="43.53979" lon="5.51846">
        <ele>341.4</ele>
        <time>2023-05-28T14:22:14Z</time>
      </trkpt>
      <trkpt lat="43.53981" lon="5.51846">
        <ele>341.4</ele>
        <time>2023-05-28T14:22:15Z</time>
      </trkpt>
      <trkpt lat="43.53982" lon="5.51847">
        <ele>341.4</ele>
        <time>2023-05-28T14:22:16Z</time>
      </trkpt>
      <trkpt lat="43.53983" lon="5.51848">
        <ele>341.3</ele>
        <time>2023-05-28T14:22:17Z</time>
      </trkpt>
      <trkpt lat="43.53985" lon="5.51848">
        <ele>341.2</ele>
        <time>2023-05-28T14:22:18Z</time>
      </trkpt>
      <trkpt lat="43.53986" lon="5.51849">
        <ele>341.2</ele>
        <time>2023-05-28T14:22:19Z</time>
      </trkpt>
      <trkpt lat="43.53987" lon="5.5185">
        <ele>341.2</ele>
        <time>2023-05-28T14:22:20Z</time>
      </trkpt>
      <trkpt lat="43.53988" lon="5.5185">
        <ele>341.2</ele>
        <time>2023-05-28T14:22:21Z</time>
      </trkpt>
      <trkpt lat="43.5399" lon="5.5185">
        <ele>341.1</ele>
        <time>2023-05-28T14:22:22Z</time>
      </trkpt>
      <trkpt lat="43.53991" lon="5.51851">
        <ele>341.1</ele>
        <time>2023-05-28T14:22:23Z</time>
      </trkpt>
      <trkpt lat="43.53992" lon="5.51851">
        <ele>341</ele>
        <time>2023-05-28T14:22:24Z</time>
      </trkpt>
      <trkpt lat="43.53994" lon="5.51852">
        <ele>341</ele>
        <time>2023-05-28T14:22:25Z</time>
      </trkpt>
      <trkpt lat="43.53995" lon="5.51853">
        <ele>340.9</ele>
        <time>2023-05-28T14:22:26Z</time>
      </trkpt>
      <trkpt lat="43.53996" lon="5.51853">
        <ele>340.9</ele>
        <time>2023-05-28T14:22:27Z</time>
      </trkpt>
      <trkpt lat="43.53997" lon="5.51853">
        <ele>340.9</ele>
        <time>2023-05-28T14:22:28Z</time>
      </trkpt>
      <trkpt lat="43.53998" lon="5.51854">
        <ele>340.9</ele>
        <time>2023-05-28T14:22:29Z</time>
      </trkpt>
      <trkpt lat="43.53998" lon="5.51855">
        <ele>340.7</ele>
        <time>2023-05-28T14:22:30Z</time>
      </trkpt>
      <trkpt lat="43.53999" lon="5.51854">
        <ele>340.5</ele>
        <time>2023-05-28T14:22:31Z</time>
      </trkpt>
      <trkpt lat="43.54" lon="5.51854">
        <ele>340.4</ele>
        <time>2023-05-28T14:22:32Z</time>
      </trkpt>
      <trkpt lat="43.54002" lon="5.51855">
        <ele>340.2</ele>
        <time>2023-05-28T14:22:33Z</time>
      </trkpt>
      <trkpt lat="43.54002" lon="5.51856">
        <ele>340.1</ele>
        <time>2023-05-28T14:22:34Z</time>
      </trkpt>
      <trkpt lat="43.54004" lon="5.51856">
        <ele>340</ele>
        <time>2023-05-28T14:22:35Z</time>
      </trkpt>
      <trkpt lat="43.54005" lon="5.51856">
        <ele>339.9</ele>
        <time>2023-05-28T14:22:36Z</time>
      </trkpt>
      <trkpt lat="43.54006" lon="5.51856">
        <ele>339.7</ele>
        <time>2023-05-28T14:22:37Z</time>
      </trkpt>
      <trkpt lat="43.54008" lon="5.51857">
        <ele>339.6</ele>
        <time>2023-05-28T14:22:38Z</time>
      </trkpt>
      <trkpt lat="43.54008" lon="5.51857">
        <ele>339.5</ele>
        <time>2023-05-28T14:22:39Z</time>
      </trkpt>
      <trkpt lat="43.54009" lon="5.51857">
        <ele>339.4</ele>
        <time>2023-05-28T14:22:40Z</time>
      </trkpt>
      <trkpt lat="43.5401" lon="5.51858">
        <ele>339.2</ele>
        <time>2023-05-28T14:22:41Z</time>
      </trkpt>
      <trkpt lat="43.54011" lon="5.51858">
        <ele>339.2</ele>
        <time>2023-05-28T14:22:42Z</time>
      </trkpt>
      <trkpt lat="43.54012" lon="5.51858">
        <ele>338.9</ele>
        <time>2023-05-28T14:22:43Z</time>
      </trkpt>
      <trkpt lat="43.54013" lon="5.51858">
        <ele>338.8</ele>
        <time>2023-05-28T14:22:44Z</time>
      </trkpt>
      <trkpt lat="43.54015" lon="5.51859">
        <ele>338.7</ele>
        <time>2023-05-28T14:22:45Z</time>
      </trkpt>
      <trkpt lat="43.54016" lon="5.5186">
        <ele>338.7</ele>
        <time>2023-05-28T14:22:46Z</time>
      </trkpt>
      <trkpt lat="43.54017" lon="5.5186">
        <ele>338.7</ele>
        <time>2023-05-28T14:22:47Z</time>
      </trkpt>
      <trkpt lat="43.54018" lon="5.51859">
        <ele>338.6</ele>
        <time>2023-05-28T14:22:48Z</time>
      </trkpt>
      <trkpt lat="43.54019" lon="5.51859">
        <ele>338.5</ele>
        <time>2023-05-28T14:22:49Z</time>
      </trkpt>
      <trkpt lat="43.5402" lon="5.5186">
        <ele>338.4</ele>
        <time>2023-05-28T14:22:50Z</time>
      </trkpt>
      <trkpt lat="43.5402" lon="5.5186">
        <ele>338.3</ele>
        <time>2023-05-28T14:22:51Z</time>
      </trkpt>
      <trkpt lat="43.54022" lon="5.5186">
        <ele>338.2</ele>
        <time>2023-05-28T14:22:52Z</time>
      </trkpt>
      <trkpt lat="43.54023" lon="5.51861">
        <ele>338.2</ele>
        <time>2023-05-28T14:22:53Z</time>
      </trkpt>
      <trkpt lat="43.54024" lon="5.51861">
        <ele>338.1</ele>
        <time>2023-05-28T14:22:54Z</time>
      </trkpt>
      <trkpt lat="43.54025" lon="5.51861">
        <ele>338</ele>
        <time>2023-05-28T14:22:55Z</time>
      </trkpt>
      <trkpt lat="43.54025" lon="5.51861">
        <ele>338</ele>
        <time>2023-05-28T14:22:56Z</time>
      </trkpt>
      <trkpt lat="43.54025" lon="5.51862">
        <ele>337.9</ele>
        <time>2023-05-28T14:22:57Z</time>
      </trkpt>
      <trkpt lat="43.54026" lon="5.51864">
        <ele>338</ele>
        <time>2023-05-28T14:22:58Z</time>
      </trkpt>
      <trkpt lat="43.54027" lon="5.51863">
        <ele>338</ele>
        <time>2023-05-28T14:22:59Z</time>
      </trkpt>
      <trkpt lat="43.54028" lon="5.51865">
        <ele>338</ele>
        <time>2023-05-28T14:23:00Z</time>
      </trkpt>
      <trkpt lat="43.54029" lon="5.51866">
        <ele>338.1</ele>
        <time>2023-05-28T14:23:01Z</time>
      </trkpt>
      <trkpt lat="43.54029" lon="5.51866">
        <ele>338.1</ele>
        <time>2023-05-28T14:23:02Z</time>
      </trkpt>
      <trkpt lat="43.5403" lon="5.51866">
        <ele>338.1</ele>
        <time>2023-05-28T14:23:03Z</time>
      </trkpt>
      <trkpt lat="43.5403" lon="5.51867">
        <ele>338</ele>
        <time>2023-05-28T14:23:04Z</time>
      </trkpt>
      <trkpt lat="43.54031" lon="5.51868">
        <ele>338</ele>
        <time>2023-05-28T14:23:05Z</time>
      </trkpt>
      <trkpt lat="43.54032" lon="5.51869">
        <ele>338</ele>
        <time>2023-05-28T14:23:06Z</time>
      </trkpt>
      <trkpt lat="43.54033" lon="5.51871">
        <ele>338</ele>
        <time>2023-05-28T14:23:07Z</time>
      </trkpt>
      <trkpt lat="43.54034" lon="5.51872">
        <ele>338</ele>
        <time>2023-05-28T14:23:08Z</time>
      </trkpt>
      <trkpt lat="43.54034" lon="5.51873">
        <ele>338.1</ele>
        <time>2023-05-28T14:23:09Z</time>
      </trkpt>
      <trkpt lat="43.54035" lon="5.51874">
        <ele>338.2</ele>
        <time>2023-05-28T14:23:10Z</time>
      </trkpt>
      <trkpt lat="43.54035" lon="5.51875">
        <ele>338.2</ele>
        <time>2023-05-28T14:23:11Z</time>
      </trkpt>
      <trkpt lat="43.54036" lon="5.51876">
        <ele>338.2</ele>
        <time>2023-05-28T14:23:12Z</time>
      </trkpt>
      <trkpt lat="43.54037" lon="5.51878">
        <ele>338.3</ele>
        <time>2023-05-28T14:23:13Z</time>
      </trkpt>
      <trkpt lat="43.54037" lon="5.51879">
        <ele>338.3</ele>
        <time>2023-05-28T14:23:14Z</time>
      </trkpt>
      <trkpt lat="43.54038" lon="5.5188">
        <ele>338.4</ele>
        <time>2023-05-28T14:23:15Z</time>
      </trkpt>
      <trkpt lat="43.54038" lon="5.51881">
        <ele>338.4</ele>
        <time>2023-05-28T14:23:16Z</time>
      </trkpt>
      <trkpt lat="43.54039" lon="5.51882">
        <ele>338.5</ele>
        <time>2023-05-28T14:23:17Z</time>
      </trkpt>
      <trkpt lat="43.54039" lon="5.51884">
        <ele>338.5</ele>
        <time>2023-05-28T14:23:18Z</time>
      </trkpt>
      <trkpt lat="43.54038" lon="5.51885">
        <ele>338.6</ele>
        <time>2023-05-28T14:23:19Z</time>
      </trkpt>
      <trkpt lat="43.54038" lon="5.51886">
        <ele>338.6</ele>
        <time>2023-05-28T14:23:20Z</time>
      </trkpt>
      <trkpt lat="43.54038" lon="5.51886">
        <ele>338.7</ele>
        <time>2023-05-28T14:23:21Z</time>
      </trkpt>
      <trkpt lat="43.54039" lon="5.51886">
        <ele>338.8</ele>
        <time>2023-05-28T14:23:22Z</time>
      </trkpt>
      <trkpt lat="43.54039" lon="5.51886">
        <ele>339</ele>
        <time>2023-05-28T14:23:23Z</time>
      </trkpt>
      <trkpt lat="43.54038" lon="5.51887">
        <ele>339.4</ele>
        <time>2023-05-28T14:23:24Z</time>
      </trkpt>
      <trkpt lat="43.54038" lon="5.51888">
        <ele>339.7</ele>
        <time>2023-05-28T14:23:25Z</time>
      </trkpt>
      <trkpt lat="43.54037" lon="5.51888">
        <ele>339.9</ele>
        <time>2023-05-28T14:23:26Z</time>
      </trkpt>
      <trkpt lat="43.54037" lon="5.51888">
        <ele>340</ele>
        <time>2023-05-28T14:23:27Z</time>
      </trkpt>
      <trkpt lat="43.54037" lon="5.51888">
        <ele>340.1</ele>
        <time>2023-05-28T14:23:28Z</time>
      </trkpt>
      <trkpt lat="43.54037" lon="5.51888">
        <ele>340.3</ele>
        <time>2023-05-28T14:23:29Z</time>
      </trkpt>
      <trkpt lat="43.54036" lon="5.51889">
        <ele>340.6</ele>
        <time>2023-05-28T14:23:30Z</time>
      </trkpt>
      <trkpt lat="43.54036" lon="5.5189">
        <ele>340.8</ele>
        <time>2023-05-28T14:23:31Z</time>
      </trkpt>
      <trkpt lat="43.54037" lon="5.51891">
        <ele>341</ele>
        <time>2023-05-28T14:23:32Z</time>
      </trkpt>
      <trkpt lat="43.54036" lon="5.51892">
        <ele>341.3</ele>
        <time>2023-05-28T14:23:33Z</time>
      </trkpt>
      <trkpt lat="43.54036" lon="5.51892">
        <ele>341.5</ele>
        <time>2023-05-28T14:23:34Z</time>
      </trkpt>
      <trkpt lat="43.54036" lon="5.51893">
        <ele>341.7</ele>
        <time>2023-05-28T14:23:35Z</time>
      </trkpt>
      <trkpt lat="43.54035" lon="5.51896">
        <ele>341.8</ele>
        <time>2023-05-28T14:23:36Z</time>
      </trkpt>
      <trkpt lat="43.54034" lon="5.51897">
        <ele>341.9</ele>
        <time>2023-05-28T14:23:37Z</time>
      </trkpt>
      <trkpt lat="43.54033" lon="5.51898">
        <ele>342</ele>
        <time>2023-05-28T14:23:38Z</time>
      </trkpt>
      <trkpt lat="43.54032" lon="5.51898">
        <ele>342.1</ele>
        <time>2023-05-28T14:23:39Z</time>
      </trkpt>
      <trkpt lat="43.54031" lon="5.51899">
        <ele>342.1</ele>
        <time>2023-05-28T14:23:40Z</time>
      </trkpt>
      <trkpt lat="43.54031" lon="5.519">
        <ele>342.2</ele>
        <time>2023-05-28T14:23:41Z</time>
      </trkpt>
      <trkpt lat="43.54031" lon="5.519">
        <ele>342.3</ele>
        <time>2023-05-28T14:23:42Z</time>
      </trkpt>
      <trkpt lat="43.5403" lon="5.51901">
        <ele>342.3</ele>
        <time>2023-05-28T14:23:43Z</time>
      </trkpt>
      <trkpt lat="43.54029" lon="5.51903">
        <ele>342.4</ele>
        <time>2023-05-28T14:23:44Z</time>
      </trkpt>
      <trkpt lat="43.54028" lon="5.51904">
        <ele>342.4</ele>
        <time>2023-05-28T14:23:45Z</time>
      </trkpt>
      <trkpt lat="43.54027" lon="5.51905">
        <ele>342.4</ele>
        <time>2023-05-28T14:23:46Z</time>
      </trkpt>
      <trkpt lat="43.54026" lon="5.51907">
        <ele>342.4</ele>
        <time>2023-05-28T14:23:47Z</time>
      </trkpt>
      <trkpt lat="43.54026" lon="5.51908">
        <ele>342.5</ele>
        <time>2023-05-28T14:23:48Z</time>
      </trkpt>
      <trkpt lat="43.54025" lon="5.5191">
        <ele>342.7</ele>
        <time>2023-05-28T14:23:49Z</time>
      </trkpt>
      <trkpt lat="43.54024" lon="5.51911">
        <ele>342.8</ele>
        <time>2023-05-28T14:23:50Z</time>
      </trkpt>
      <trkpt lat="43.54023" lon="5.51913">
        <ele>342.9</ele>
        <time>2023-05-28T14:23:51Z</time>
      </trkpt>
      <trkpt lat="43.54023" lon="5.51914">
        <ele>343.1</ele>
        <time>2023-05-28T14:23:52Z</time>
      </trkpt>
      <trkpt lat="43.54022" lon="5.51915">
        <ele>343.2</ele>
        <time>2023-05-28T14:23:53Z</time>
      </trkpt>
      <trkpt lat="43.54021" lon="5.51916">
        <ele>343.3</ele>
        <time>2023-05-28T14:23:54Z</time>
      </trkpt>
      <trkpt lat="43.5402" lon="5.51916">
        <ele>343.4</ele>
        <time>2023-05-28T14:23:55Z</time>
      </trkpt>
      <trkpt lat="43.54019" lon="5.51917">
        <ele>343.4</ele>
        <time>2023-05-28T14:23:56Z</time>
      </trkpt>
      <trkpt lat="43.54019" lon="5.51918">
        <ele>343.4</ele>
        <time>2023-05-28T14:23:57Z</time>
      </trkpt>
      <trkpt lat="43.54018" lon="5.51919">
        <ele>343.3</ele>
        <time>2023-05-28T14:23:58Z</time>
      </trkpt>
      <trkpt lat="43.54017" lon="5.5192">
        <ele>343.3</ele>
        <time>2023-05-28T14:23:59Z</time>
      </trkpt>
      <trkpt lat="43.54016" lon="5.51921">
        <ele>343.3</ele>
        <time>2023-05-28T14:24:00Z</time>
      </trkpt>
      <trkpt lat="43.54015" lon="5.51923">
        <ele>343.3</ele>
        <time>2023-05-28T14:24:01Z</time>
      </trkpt>
      <trkpt lat="43.54014" lon="5.51924">
        <ele>343.3</ele>
        <time>2023-05-28T14:24:02Z</time>
      </trkpt>
      <trkpt lat="43.54014" lon="5.51925">
        <ele>343.3</ele>
        <time>2023-05-28T14:24:03Z</time>
      </trkpt>
      <trkpt lat="43.54013" lon="5.51926">
        <ele>343.3</ele>
        <time>2023-05-28T14:24:04Z</time>
      </trkpt>
      <trkpt lat="43.54012" lon="5.51928">
        <ele>343.4</ele>
        <time>2023-05-28T14:24:05Z</time>
      </trkpt>
      <trkpt lat="43.54011" lon="5.51929">
        <ele>343.4</ele>
        <time>2023-05-28T14:24:06Z</time>
      </trkpt>
      <trkpt lat="43.5401" lon="5.51929">
        <ele>343.4</ele>
        <time>2023-05-28T14:24:07Z</time>
      </trkpt>
      <trkpt lat="43.54009" lon="5.51931">
        <ele>343.3</ele>
        <time>2023-05-28T14:24:08Z</time>
      </trkpt>
      <trkpt lat="43.54008" lon="5.51931">
        <ele>343.4</ele>
        <time>2023-05-28T14:24:09Z</time>
      </trkpt>
      <trkpt lat="43.54007" lon="5.51932">
        <ele>343.5</ele>
        <time>2023-05-28T14:24:10Z</time>
      </trkpt>
      <trkpt lat="43.54007" lon="5.51934">
        <ele>343.6</ele>
        <time>2023-05-28T14:24:11Z</time>
      </trkpt>
      <trkpt lat="43.54006" lon="5.51935">
        <ele>343.7</ele>
        <time>2023-05-28T14:24:12Z</time>
      </trkpt>
      <trkpt lat="43.54006" lon="5.51936">
        <ele>343.8</ele>
        <time>2023-05-28T14:24:13Z</time>
      </trkpt>
      <trkpt lat="43.54006" lon="5.51936">
        <ele>343.8</ele>
        <time>2023-05-28T14:24:14Z</time>
      </trkpt>
      <trkpt lat="43.54005" lon="5.51937">
        <ele>343.9</ele>
        <time>2023-05-28T14:24:15Z</time>
      </trkpt>
      <trkpt lat="43.54004" lon="5.51938">
        <ele>344</ele>
        <time>2023-05-28T14:24:16Z</time>
      </trkpt>
      <trkpt lat="43.54004" lon="5.51939">
        <ele>344.2</ele>
        <time>2023-05-28T14:24:17Z</time>
      </trkpt>
      <trkpt lat="43.54003" lon="5.5194">
        <ele>344.2</ele>
        <time>2023-05-28T14:24:18Z</time>
      </trkpt>
      <trkpt lat="43.54003" lon="5.51941">
        <ele>344.3</ele>
        <time>2023-05-28T14:24:19Z</time>
      </trkpt>
      <trkpt lat="43.54002" lon="5.51942">
        <ele>344.3</ele>
        <time>2023-05-28T14:24:20Z</time>
      </trkpt>
      <trkpt lat="43.54001" lon="5.51942">
        <ele>344.4</ele>
        <time>2023-05-28T14:24:21Z</time>
      </trkpt>
      <trkpt lat="43.54001" lon="5.51942">
        <ele>344.5</ele>
        <time>2023-05-28T14:24:22Z</time>
      </trkpt>
      <trkpt lat="43.54" lon="5.51943">
        <ele>344.6</ele>
        <time>2023-05-28T14:24:23Z</time>
      </trkpt>
      <trkpt lat="43.53999" lon="5.51944">
        <ele>344.6</ele>
        <time>2023-05-28T14:24:24Z</time>
      </trkpt>
      <trkpt lat="43.53998" lon="5.51944">
        <ele>344.7</ele>
        <time>2023-05-28T14:24:25Z</time>
      </trkpt>
      <trkpt lat="43.53997" lon="5.51945">
        <ele>344.7</ele>
        <time>2023-05-28T14:24:26Z</time>
      </trkpt>
      <trkpt lat="43.53996" lon="5.51946">
        <ele>344.7</ele>
        <time>2023-05-28T14:24:27Z</time>
      </trkpt>
      <trkpt lat="43.53995" lon="5.51945">
        <ele>344.8</ele>
        <time>2023-05-28T14:24:28Z</time>
      </trkpt>
      <trkpt lat="43.53994" lon="5.51945">
        <ele>344.9</ele>
        <time>2023-05-28T14:24:29Z</time>
      </trkpt>
      <trkpt lat="43.53993" lon="5.51945">
        <ele>344.9</ele>
        <time>2023-05-28T14:24:30Z</time>
      </trkpt>
      <trkpt lat="43.53992" lon="5.51945">
        <ele>344.9</ele>
        <time>2023-05-28T14:24:31Z</time>
      </trkpt>
      <trkpt lat="43.53991" lon="5.51946">
        <ele>345</ele>
        <time>2023-05-28T14:24:32Z</time>
      </trkpt>
      <trkpt lat="43.5399" lon="5.51946">
        <ele>345</ele>
        <time>2023-05-28T14:24:33Z</time>
      </trkpt>
      <trkpt lat="43.53989" lon="5.51947">
        <ele>345.1</ele>
        <time>2023-05-28T14:24:34Z</time>
      </trkpt>
      <trkpt lat="43.53988" lon="5.51948">
        <ele>345.1</ele>
        <time>2023-05-28T14:24:35Z</time>
      </trkpt>
      <trkpt lat="43.53987" lon="5.51949">
        <ele>345.1</ele>
        <time>2023-05-28T14:24:36Z</time>
      </trkpt>
      <trkpt lat="43.53986" lon="5.51949">
        <ele>345.1</ele>
        <time>2023-05-28T14:24:37Z</time>
      </trkpt>
      <trkpt lat="43.53985" lon="5.51949">
        <ele>345.2</ele>
        <time>2023-05-28T14:24:38Z</time>
      </trkpt>
      <trkpt lat="43.53985" lon="5.5195">
        <ele>345.2</ele>
        <time>2023-05-28T14:24:39Z</time>
      </trkpt>
      <trkpt lat="43.53983" lon="5.51949">
        <ele>345.2</ele>
        <time>2023-05-28T14:24:40Z</time>
      </trkpt>
      <trkpt lat="43.53982" lon="5.5195">
        <ele>345.3</ele>
        <time>2023-05-28T14:24:41Z</time>
      </trkpt>
      <trkpt lat="43.53981" lon="5.5195">
        <ele>345.4</ele>
        <time>2023-05-28T14:24:42Z</time>
      </trkpt>
      <trkpt lat="43.5398" lon="5.5195">
        <ele>345.4</ele>
        <time>2023-05-28T14:24:43Z</time>
      </trkpt>
      <trkpt lat="43.53979" lon="5.51951">
        <ele>345.5</ele>
        <time>2023-05-28T14:24:44Z</time>
      </trkpt>
      <trkpt lat="43.53978" lon="5.51952">
        <ele>345.5</ele>
        <time>2023-05-28T14:24:45Z</time>
      </trkpt>
      <trkpt lat="43.53977" lon="5.51953">
        <ele>345.5</ele>
        <time>2023-05-28T14:24:46Z</time>
      </trkpt>
      <trkpt lat="43.53977" lon="5.51953">
        <ele>345.5</ele>
        <time>2023-05-28T14:24:47Z</time>
      </trkpt>
      <trkpt lat="43.53976" lon="5.51954">
        <ele>345.5</ele>
        <time>2023-05-28T14:24:48Z</time>
      </trkpt>
      <trkpt lat="43.53975" lon="5.51955">
        <ele>345.5</ele>
        <time>2023-05-28T14:24:49Z</time>
      </trkpt>
      <trkpt lat="43.53975" lon="5.51955">
        <ele>345.6</ele>
        <time>2023-05-28T14:24:50Z</time>
      </trkpt>
      <trkpt lat="43.53974" lon="5.51957">
        <ele>345.7</ele>
        <time>2023-05-28T14:24:51Z</time>
      </trkpt>
      <trkpt lat="43.53972" lon="5.51957">
        <ele>345.8</ele>
        <time>2023-05-28T14:24:52Z</time>
      </trkpt>
      <trkpt lat="43.53971" lon="5.51957">
        <ele>345.8</ele>
        <time>2023-05-28T14:24:53Z</time>
      </trkpt>
      <trkpt lat="43.5397" lon="5.51958">
        <ele>345.9</ele>
        <time>2023-05-28T14:24:54Z</time>
      </trkpt>
      <trkpt lat="43.53969" lon="5.51959">
        <ele>346</ele>
        <time>2023-05-28T14:24:55Z</time>
      </trkpt>
      <trkpt lat="43.53968" lon="5.51959">
        <ele>346.1</ele>
        <time>2023-05-28T14:24:56Z</time>
      </trkpt>
      <trkpt lat="43.53968" lon="5.5196">
        <ele>346.1</ele>
        <time>2023-05-28T14:24:57Z</time>
      </trkpt>
      <trkpt lat="43.53967" lon="5.51961">
        <ele>346.3</ele>
        <time>2023-05-28T14:24:58Z</time>
      </trkpt>
      <trkpt lat="43.53966" lon="5.51962">
        <ele>346.4</ele>
        <time>2023-05-28T14:24:59Z</time>
      </trkpt>
      <trkpt lat="43.53964" lon="5.51963">
        <ele>346.5</ele>
        <time>2023-05-28T14:25:00Z</time>
      </trkpt>
      <trkpt lat="43.53963" lon="5.51962">
        <ele>346.6</ele>
        <time>2023-05-28T14:25:01Z</time>
      </trkpt>
      <trkpt lat="43.53962" lon="5.51963">
        <ele>346.7</ele>
        <time>2023-05-28T14:25:02Z</time>
      </trkpt>
      <trkpt lat="43.5396" lon="5.51964">
        <ele>346.8</ele>
        <time>2023-05-28T14:25:03Z</time>
      </trkpt>
      <trkpt lat="43.53958" lon="5.51965">
        <ele>346.9</ele>
        <time>2023-05-28T14:25:04Z</time>
      </trkpt>
      <trkpt lat="43.53957" lon="5.51966">
        <ele>347</ele>
        <time>2023-05-28T14:25:05Z</time>
      </trkpt>
      <trkpt lat="43.53956" lon="5.51967">
        <ele>347</ele>
        <time>2023-05-28T14:25:06Z</time>
      </trkpt>
      <trkpt lat="43.53955" lon="5.51968">
        <ele>347</ele>
        <time>2023-05-28T14:25:07Z</time>
      </trkpt>
      <trkpt lat="43.53953" lon="5.51969">
        <ele>347</ele>
        <time>2023-05-28T14:25:08Z</time>
      </trkpt>
      <trkpt lat="43.53952" lon="5.5197">
        <ele>346.9</ele>
        <time>2023-05-28T14:25:09Z</time>
      </trkpt>
      <trkpt lat="43.5395" lon="5.51971">
        <ele>347</ele>
        <time>2023-05-28T14:25:10Z</time>
      </trkpt>
      <trkpt lat="43.53949" lon="5.51971">
        <ele>347.1</ele>
        <time>2023-05-28T14:25:11Z</time>
      </trkpt>
      <trkpt lat="43.53948" lon="5.51973">
        <ele>347.1</ele>
        <time>2023-05-28T14:25:12Z</time>
      </trkpt>
      <trkpt lat="43.53947" lon="5.51973">
        <ele>347.2</ele>
        <time>2023-05-28T14:25:13Z</time>
      </trkpt>
      <trkpt lat="43.53947" lon="5.51974">
        <ele>347.2</ele>
        <time>2023-05-28T14:25:14Z</time>
      </trkpt>
      <trkpt lat="43.53946" lon="5.51975">
        <ele>347.3</ele>
        <time>2023-05-28T14:25:15Z</time>
      </trkpt>
      <trkpt lat="43.53946" lon="5.51975">
        <ele>347.5</ele>
        <time>2023-05-28T14:25:16Z</time>
      </trkpt>
      <trkpt lat="43.53944" lon="5.51976">
        <ele>347.6</ele>
        <time>2023-05-28T14:25:17Z</time>
      </trkpt>
      <trkpt lat="43.53943" lon="5.51976">
        <ele>347.7</ele>
        <time>2023-05-28T14:25:18Z</time>
      </trkpt>
      <trkpt lat="43.53942" lon="5.51977">
        <ele>347.7</ele>
        <time>2023-05-28T14:25:19Z</time>
      </trkpt>
      <trkpt lat="43.53942" lon="5.51978">
        <ele>347.7</ele>
        <time>2023-05-28T14:25:20Z</time>
      </trkpt>
      <trkpt lat="43.53941" lon="5.51978">
        <ele>347.7</ele>
        <time>2023-05-28T14:25:21Z</time>
      </trkpt>
      <trkpt lat="43.53939" lon="5.51978">
        <ele>347.8</ele>
        <time>2023-05-28T14:25:22Z</time>
      </trkpt>
      <trkpt lat="43.53938" lon="5.51978">
        <ele>347.8</ele>
        <time>2023-05-28T14:25:23Z</time>
      </trkpt>
      <trkpt lat="43.53937" lon="5.51979">
        <ele>347.9</ele>
        <time>2023-05-28T14:25:24Z</time>
      </trkpt>
      <trkpt lat="43.53937" lon="5.5198">
        <ele>347.9</ele>
        <time>2023-05-28T14:25:25Z</time>
      </trkpt>
      <trkpt lat="43.53935" lon="5.5198">
        <ele>347.9</ele>
        <time>2023-05-28T14:25:26Z</time>
      </trkpt>
      <trkpt lat="43.53934" lon="5.51981">
        <ele>348</ele>
        <time>2023-05-28T14:25:27Z</time>
      </trkpt>
      <trkpt lat="43.53933" lon="5.51983">
        <ele>348</ele>
        <time>2023-05-28T14:25:28Z</time>
      </trkpt>
      <trkpt lat="43.53932" lon="5.51984">
        <ele>348</ele>
        <time>2023-05-28T14:25:29Z</time>
      </trkpt>
      <trkpt lat="43.53931" lon="5.51985">
        <ele>348</ele>
        <time>2023-05-28T14:25:30Z</time>
      </trkpt>
      <trkpt lat="43.53931" lon="5.51986">
        <ele>348</ele>
        <time>2023-05-28T14:25:31Z</time>
      </trkpt>
      <trkpt lat="43.5393" lon="5.51987">
        <ele>347.9</ele>
        <time>2023-05-28T14:25:32Z</time>
      </trkpt>
      <trkpt lat="43.53929" lon="5.51988">
        <ele>347.9</ele>
        <time>2023-05-28T14:25:33Z</time>
      </trkpt>
      <trkpt lat="43.53928" lon="5.5199">
        <ele>347.8</ele>
        <time>2023-05-28T14:25:34Z</time>
      </trkpt>
      <trkpt lat="43.53927" lon="5.51991">
        <ele>347.8</ele>
        <time>2023-05-28T14:25:35Z</time>
      </trkpt>
      <trkpt lat="43.53927" lon="5.51992">
        <ele>347.8</ele>
        <time>2023-05-28T14:25:36Z</time>
      </trkpt>
      <trkpt lat="43.53926" lon="5.51994">
        <ele>347.9</ele>
        <time>2023-05-28T14:25:37Z</time>
      </trkpt>
      <trkpt lat="43.53925" lon="5.51995">
        <ele>347.9</ele>
        <time>2023-05-28T14:25:38Z</time>
      </trkpt>
      <trkpt lat="43.53924" lon="5.51996">
        <ele>347.9</ele>
        <time>2023-05-28T14:25:39Z</time>
      </trkpt>
      <trkpt lat="43.53923" lon="5.51998">
        <ele>347.8</ele>
        <time>2023-05-28T14:25:40Z</time>
      </trkpt>
      <trkpt lat="43.53924" lon="5.52">
        <ele>347.7</ele>
        <time>2023-05-28T14:25:41Z</time>
      </trkpt>
      <trkpt lat="43.53924" lon="5.52002">
        <ele>347.8</ele>
        <time>2023-05-28T14:25:42Z</time>
      </trkpt>
      <trkpt lat="43.53923" lon="5.52004">
        <ele>347.8</ele>
        <time>2023-05-28T14:25:43Z</time>
      </trkpt>
      <trkpt lat="43.53923" lon="5.52006">
        <ele>347.9</ele>
        <time>2023-05-28T14:25:44Z</time>
      </trkpt>
      <trkpt lat="43.53923" lon="5.52007">
        <ele>347.9</ele>
        <time>2023-05-28T14:25:45Z</time>
      </trkpt>
      <trkpt lat="43.53922" lon="5.52009">
        <ele>347.9</ele>
        <time>2023-05-28T14:25:46Z</time>
      </trkpt>
      <trkpt lat="43.53922" lon="5.5201">
        <ele>348</ele>
        <time>2023-05-28T14:25:47Z</time>
      </trkpt>
      <trkpt lat="43.53922" lon="5.52011">
        <ele>348</ele>
        <time>2023-05-28T14:25:48Z</time>
      </trkpt>
      <trkpt lat="43.53922" lon="5.52013">
        <ele>348.1</ele>
        <time>2023-05-28T14:25:49Z</time>
      </trkpt>
      <trkpt lat="43.53923" lon="5.52015">
        <ele>348.2</ele>
        <time>2023-05-28T14:25:50Z</time>
      </trkpt>
      <trkpt lat="43.53923" lon="5.52016">
        <ele>348.2</ele>
        <time>2023-05-28T14:25:51Z</time>
      </trkpt>
      <trkpt lat="43.53924" lon="5.52017">
        <ele>348.3</ele>
        <time>2023-05-28T14:25:52Z</time>
      </trkpt>
      <trkpt lat="43.53924" lon="5.52018">
        <ele>348.3</ele>
        <time>2023-05-28T14:25:53Z</time>
      </trkpt>
      <trkpt lat="43.53925" lon="5.5202">
        <ele>348.3</ele>
        <time>2023-05-28T14:25:54Z</time>
      </trkpt>
      <trkpt lat="43.53925" lon="5.52021">
        <ele>348.2</ele>
        <time>2023-05-28T14:25:55Z</time>
      </trkpt>
      <trkpt lat="43.53926" lon="5.52022">
        <ele>348.2</ele>
        <time>2023-05-28T14:25:56Z</time>
      </trkpt>
      <trkpt lat="43.53926" lon="5.52023">
        <ele>348.2</ele>
        <time>2023-05-28T14:25:57Z</time>
      </trkpt>
      <trkpt lat="43.53927" lon="5.52025">
        <ele>348.2</ele>
        <time>2023-05-28T14:25:58Z</time>
      </trkpt>
      <trkpt lat="43.53928" lon="5.52026">
        <ele>348.2</ele>
        <time>2023-05-28T14:25:59Z</time>
      </trkpt>
      <trkpt lat="43.53929" lon="5.52027">
        <ele>348.3</ele>
        <time>2023-05-28T14:26:00Z</time>
      </trkpt>
      <trkpt lat="43.5393" lon="5.52029">
        <ele>348.4</ele>
        <time>2023-05-28T14:26:01Z</time>
      </trkpt>
      <trkpt lat="43.53931" lon="5.52031">
        <ele>348.5</ele>
        <time>2023-05-28T14:26:02Z</time>
      </trkpt>
      <trkpt lat="43.53932" lon="5.52032">
        <ele>348.5</ele>
        <time>2023-05-28T14:26:03Z</time>
      </trkpt>
      <trkpt lat="43.53933" lon="5.52034">
        <ele>348.6</ele>
        <time>2023-05-28T14:26:04Z</time>
      </trkpt>
      <trkpt lat="43.53934" lon="5.52036">
        <ele>348.6</ele>
        <time>2023-05-28T14:26:05Z</time>
      </trkpt>
      <trkpt lat="43.53935" lon="5.52037">
        <ele>348.6</ele>
        <time>2023-05-28T14:26:06Z</time>
      </trkpt>
      <trkpt lat="43.53937" lon="5.52038">
        <ele>348.6</ele>
        <time>2023-05-28T14:26:07Z</time>
      </trkpt>
      <trkpt lat="43.53937" lon="5.52038">
        <ele>348.6</ele>
        <time>2023-05-28T14:26:08Z</time>
      </trkpt>
      <trkpt lat="43.53938" lon="5.52039">
        <ele>348.5</ele>
        <time>2023-05-28T14:26:09Z</time>
      </trkpt>
      <trkpt lat="43.53939" lon="5.52041">
        <ele>348.5</ele>
        <time>2023-05-28T14:26:10Z</time>
      </trkpt>
      <trkpt lat="43.53939" lon="5.52043">
        <ele>348.5</ele>
        <time>2023-05-28T14:26:11Z</time>
      </trkpt>
      <trkpt lat="43.5394" lon="5.52044">
        <ele>348.5</ele>
        <time>2023-05-28T14:26:12Z</time>
      </trkpt>
      <trkpt lat="43.53941" lon="5.52045">
        <ele>348.5</ele>
        <time>2023-05-28T14:26:13Z</time>
      </trkpt>
      <trkpt lat="43.53941" lon="5.52047">
        <ele>348.5</ele>
        <time>2023-05-28T14:26:14Z</time>
      </trkpt>
      <trkpt lat="43.53942" lon="5.52048">
        <ele>348.4</ele>
        <time>2023-05-28T14:26:15Z</time>
      </trkpt>
      <trkpt lat="43.53942" lon="5.52048">
        <ele>348.4</ele>
        <time>2023-05-28T14:26:16Z</time>
      </trkpt>
      <trkpt lat="43.53942" lon="5.5205">
        <ele>348.3</ele>
        <time>2023-05-28T14:26:17Z</time>
      </trkpt>
      <trkpt lat="43.53943" lon="5.52051">
        <ele>348.1</ele>
        <time>2023-05-28T14:26:18Z</time>
      </trkpt>
      <trkpt lat="43.53943" lon="5.52052">
        <ele>348</ele>
        <time>2023-05-28T14:26:19Z</time>
      </trkpt>
      <trkpt lat="43.53943" lon="5.52053">
        <ele>348.1</ele>
        <time>2023-05-28T14:26:20Z</time>
      </trkpt>
      <trkpt lat="43.53944" lon="5.52055">
        <ele>348</ele>
        <time>2023-05-28T14:26:21Z</time>
      </trkpt>
      <trkpt lat="43.53945" lon="5.52057">
        <ele>347.9</ele>
        <time>2023-05-28T14:26:22Z</time>
      </trkpt>
      <trkpt lat="43.53946" lon="5.52058">
        <ele>347.8</ele>
        <time>2023-05-28T14:26:23Z</time>
      </trkpt>
      <trkpt lat="43.53946" lon="5.5206">
        <ele>347.6</ele>
        <time>2023-05-28T14:26:24Z</time>
      </trkpt>
      <trkpt lat="43.53947" lon="5.52062">
        <ele>347.5</ele>
        <time>2023-05-28T14:26:25Z</time>
      </trkpt>
      <trkpt lat="43.53948" lon="5.52063">
        <ele>347.4</ele>
        <time>2023-05-28T14:26:26Z</time>
      </trkpt>
      <trkpt lat="43.53949" lon="5.52065">
        <ele>347.3</ele>
        <time>2023-05-28T14:26:27Z</time>
      </trkpt>
      <trkpt lat="43.5395" lon="5.52065">
        <ele>347.3</ele>
        <time>2023-05-28T14:26:28Z</time>
      </trkpt>
      <trkpt lat="43.5395" lon="5.52065">
        <ele>347.1</ele>
        <time>2023-05-28T14:26:29Z</time>
      </trkpt>
      <trkpt lat="43.53951" lon="5.52066">
        <ele>347</ele>
        <time>2023-05-28T14:26:30Z</time>
      </trkpt>
      <trkpt lat="43.53951" lon="5.52068">
        <ele>347</ele>
        <time>2023-05-28T14:26:31Z</time>
      </trkpt>
      <trkpt lat="43.53952" lon="5.52069">
        <ele>347</ele>
        <time>2023-05-28T14:26:32Z</time>
      </trkpt>
      <trkpt lat="43.53953" lon="5.52071">
        <ele>346.9</ele>
        <time>2023-05-28T14:26:33Z</time>
      </trkpt>
      <trkpt lat="43.53953" lon="5.52072">
        <ele>346.9</ele>
        <time>2023-05-28T14:26:34Z</time>
      </trkpt>
      <trkpt lat="43.53954" lon="5.52073">
        <ele>346.9</ele>
        <time>2023-05-28T14:26:35Z</time>
      </trkpt>
      <trkpt lat="43.53954" lon="5.52075">
        <ele>346.9</ele>
        <time>2023-05-28T14:26:36Z</time>
      </trkpt>
      <trkpt lat="43.53956" lon="5.52077">
        <ele>346.9</ele>
        <time>2023-05-28T14:26:37Z</time>
      </trkpt>
      <trkpt lat="43.53957" lon="5.52078">
        <ele>346.9</ele>
        <time>2023-05-28T14:26:38Z</time>
      </trkpt>
      <trkpt lat="43.53959" lon="5.5208">
        <ele>346.9</ele>
        <time>2023-05-28T14:26:39Z</time>
      </trkpt>
      <trkpt lat="43.5396" lon="5.52081">
        <ele>346.8</ele>
        <time>2023-05-28T14:26:40Z</time>
      </trkpt>
      <trkpt lat="43.53961" lon="5.52082">
        <ele>346.8</ele>
        <time>2023-05-28T14:26:41Z</time>
      </trkpt>
      <trkpt lat="43.53962" lon="5.52083">
        <ele>346.7</ele>
        <time>2023-05-28T14:26:42Z</time>
      </trkpt>
      <trkpt lat="43.53963" lon="5.52083">
        <ele>346.7</ele>
        <time>2023-05-28T14:26:43Z</time>
      </trkpt>
      <trkpt lat="43.53964" lon="5.52084">
        <ele>346.5</ele>
        <time>2023-05-28T14:26:44Z</time>
      </trkpt>
      <trkpt lat="43.53965" lon="5.52083">
        <ele>346.4</ele>
        <time>2023-05-28T14:26:45Z</time>
      </trkpt>
      <trkpt lat="43.53964" lon="5.52084">
        <ele>346.3</ele>
        <time>2023-05-28T14:26:46Z</time>
      </trkpt>
      <trkpt lat="43.53965" lon="5.52086">
        <ele>346.2</ele>
        <time>2023-05-28T14:26:47Z</time>
      </trkpt>
      <trkpt lat="43.53965" lon="5.52087">
        <ele>346.1</ele>
        <time>2023-05-28T14:26:48Z</time>
      </trkpt>
      <trkpt lat="43.53965" lon="5.52087">
        <ele>345.9</ele>
        <time>2023-05-28T14:26:49Z</time>
      </trkpt>
      <trkpt lat="43.53966" lon="5.52089">
        <ele>345.7</ele>
        <time>2023-05-28T14:26:50Z</time>
      </trkpt>
      <trkpt lat="43.53966" lon="5.52091">
        <ele>345.6</ele>
        <time>2023-05-28T14:26:51Z</time>
      </trkpt>
      <trkpt lat="43.53965" lon="5.52092">
        <ele>345.5</ele>
        <time>2023-05-28T14:26:52Z</time>
      </trkpt>
      <trkpt lat="43.53965" lon="5.52093">
        <ele>345.4</ele>
        <time>2023-05-28T14:26:53Z</time>
      </trkpt>
      <trkpt lat="43.53965" lon="5.52094">
        <ele>345.3</ele>
        <time>2023-05-28T14:26:54Z</time>
      </trkpt>
      <trkpt lat="43.53965" lon="5.52095">
        <ele>345.1</ele>
        <time>2023-05-28T14:26:55Z</time>
      </trkpt>
      <trkpt lat="43.53965" lon="5.52096">
        <ele>345</ele>
        <time>2023-05-28T14:26:56Z</time>
      </trkpt>
      <trkpt lat="43.53964" lon="5.52097">
        <ele>344.9</ele>
        <time>2023-05-28T14:26:57Z</time>
      </trkpt>
      <trkpt lat="43.53964" lon="5.52099">
        <ele>344.8</ele>
        <time>2023-05-28T14:26:58Z</time>
      </trkpt>
      <trkpt lat="43.53964" lon="5.52099">
        <ele>344.6</ele>
        <time>2023-05-28T14:26:59Z</time>
      </trkpt>
      <trkpt lat="43.53964" lon="5.52101">
        <ele>344.5</ele>
        <time>2023-05-28T14:27:00Z</time>
      </trkpt>
      <trkpt lat="43.53964" lon="5.52102">
        <ele>344.4</ele>
        <time>2023-05-28T14:27:01Z</time>
      </trkpt>
      <trkpt lat="43.53964" lon="5.52102">
        <ele>344.3</ele>
        <time>2023-05-28T14:27:02Z</time>
      </trkpt>
      <trkpt lat="43.53963" lon="5.52104">
        <ele>344.3</ele>
        <time>2023-05-28T14:27:03Z</time>
      </trkpt>
      <trkpt lat="43.53962" lon="5.52104">
        <ele>344.2</ele>
        <time>2023-05-28T14:27:04Z</time>
      </trkpt>
      <trkpt lat="43.53961" lon="5.52105">
        <ele>344.2</ele>
        <time>2023-05-28T14:27:05Z</time>
      </trkpt>
      <trkpt lat="43.53961" lon="5.52105">
        <ele>344.2</ele>
        <time>2023-05-28T14:27:06Z</time>
      </trkpt>
      <trkpt lat="43.5396" lon="5.52106">
        <ele>344.2</ele>
        <time>2023-05-28T14:27:07Z</time>
      </trkpt>
      <trkpt lat="43.5396" lon="5.52107">
        <ele>344.1</ele>
        <time>2023-05-28T14:27:08Z</time>
      </trkpt>
      <trkpt lat="43.5396" lon="5.52108">
        <ele>344</ele>
        <time>2023-05-28T14:27:09Z</time>
      </trkpt>
      <trkpt lat="43.5396" lon="5.52109">
        <ele>343.9</ele>
        <time>2023-05-28T14:27:10Z</time>
      </trkpt>
      <trkpt lat="43.5396" lon="5.5211">
        <ele>343.8</ele>
        <time>2023-05-28T14:27:11Z</time>
      </trkpt>
      <trkpt lat="43.5396" lon="5.52112">
        <ele>343.8</ele>
        <time>2023-05-28T14:27:12Z</time>
      </trkpt>
      <trkpt lat="43.53959" lon="5.52113">
        <ele>343.7</ele>
        <time>2023-05-28T14:27:13Z</time>
      </trkpt>
      <trkpt lat="43.53959" lon="5.52115">
        <ele>343.6</ele>
        <time>2023-05-28T14:27:14Z</time>
      </trkpt>
      <trkpt lat="43.53958" lon="5.52116">
        <ele>343.6</ele>
        <time>2023-05-28T14:27:15Z</time>
      </trkpt>
      <trkpt lat="43.53957" lon="5.52117">
        <ele>343.5</ele>
        <time>2023-05-28T14:27:16Z</time>
      </trkpt>
      <trkpt lat="43.53957" lon="5.52117">
        <ele>343.3</ele>
        <time>2023-05-28T14:27:17Z</time>
      </trkpt>
      <trkpt lat="43.53956" lon="5.52118">
        <ele>343.3</ele>
        <time>2023-05-28T14:27:18Z</time>
      </trkpt>
      <trkpt lat="43.53955" lon="5.52118">
        <ele>343.1</ele>
        <time>2023-05-28T14:27:19Z</time>
      </trkpt>
      <trkpt lat="43.53955" lon="5.52119">
        <ele>343</ele>
        <time>2023-05-28T14:27:20Z</time>
      </trkpt>
      <trkpt lat="43.53954" lon="5.52119">
        <ele>342.9</ele>
        <time>2023-05-28T14:27:21Z</time>
      </trkpt>
      <trkpt lat="43.53953" lon="5.5212">
        <ele>342.8</ele>
        <time>2023-05-28T14:27:22Z</time>
      </trkpt>
      <trkpt lat="43.53952" lon="5.5212">
        <ele>342.7</ele>
        <time>2023-05-28T14:27:23Z</time>
      </trkpt>
      <trkpt lat="43.53951" lon="5.52121">
        <ele>342.6</ele>
        <time>2023-05-28T14:27:24Z</time>
      </trkpt>
      <trkpt lat="43.53949" lon="5.52123">
        <ele>342.6</ele>
        <time>2023-05-28T14:27:25Z</time>
      </trkpt>
      <trkpt lat="43.53949" lon="5.52124">
        <ele>342.6</ele>
        <time>2023-05-28T14:27:26Z</time>
      </trkpt>
      <trkpt lat="43.53948" lon="5.52125">
        <ele>342.6</ele>
        <time>2023-05-28T14:27:27Z</time>
      </trkpt>
      <trkpt lat="43.53947" lon="5.52126">
        <ele>342.6</ele>
        <time>2023-05-28T14:27:28Z</time>
      </trkpt>
      <trkpt lat="43.53946" lon="5.52127">
        <ele>342.6</ele>
        <time>2023-05-28T14:27:29Z</time>
      </trkpt>
      <trkpt lat="43.53945" lon="5.52128">
        <ele>342.6</ele>
        <time>2023-05-28T14:27:30Z</time>
      </trkpt>
      <trkpt lat="43.53945" lon="5.52129">
        <ele>342.6</ele>
        <time>2023-05-28T14:27:31Z</time>
      </trkpt>
      <trkpt lat="43.53944" lon="5.52131">
        <ele>342.6</ele>
        <time>2023-05-28T14:27:32Z</time>
      </trkpt>
      <trkpt lat="43.53943" lon="5.52131">
        <ele>342.7</ele>
        <time>2023-05-28T14:27:33Z</time>
      </trkpt>
      <trkpt lat="43.53942" lon="5.52132">
        <ele>342.8</ele>
        <time>2023-05-28T14:27:34Z</time>
      </trkpt>
      <trkpt lat="43.53941" lon="5.52133">
        <ele>342.9</ele>
        <time>2023-05-28T14:27:35Z</time>
      </trkpt>
      <trkpt lat="43.5394" lon="5.52134">
        <ele>343.1</ele>
        <time>2023-05-28T14:27:36Z</time>
      </trkpt>
      <trkpt lat="43.53939" lon="5.52135">
        <ele>343.2</ele>
        <time>2023-05-28T14:27:37Z</time>
      </trkpt>
      <trkpt lat="43.53938" lon="5.52136">
        <ele>343.3</ele>
        <time>2023-05-28T14:27:38Z</time>
      </trkpt>
      <trkpt lat="43.53937" lon="5.52136">
        <ele>343.3</ele>
        <time>2023-05-28T14:27:39Z</time>
      </trkpt>
      <trkpt lat="43.53937" lon="5.52138">
        <ele>343.4</ele>
        <time>2023-05-28T14:27:40Z</time>
      </trkpt>
      <trkpt lat="43.53936" lon="5.52139">
        <ele>343.5</ele>
        <time>2023-05-28T14:27:41Z</time>
      </trkpt>
      <trkpt lat="43.53935" lon="5.5214">
        <ele>343.5</ele>
        <time>2023-05-28T14:27:42Z</time>
      </trkpt>
      <trkpt lat="43.53934" lon="5.5214">
        <ele>343.5</ele>
        <time>2023-05-28T14:27:43Z</time>
      </trkpt>
      <trkpt lat="43.53933" lon="5.52141">
        <ele>343.5</ele>
        <time>2023-05-28T14:27:44Z</time>
      </trkpt>
      <trkpt lat="43.53932" lon="5.52142">
        <ele>343.5</ele>
        <time>2023-05-28T14:27:45Z</time>
      </trkpt>
      <trkpt lat="43.53931" lon="5.52143">
        <ele>343.4</ele>
        <time>2023-05-28T14:27:46Z</time>
      </trkpt>
      <trkpt lat="43.5393" lon="5.52144">
        <ele>343.4</ele>
        <time>2023-05-28T14:27:47Z</time>
      </trkpt>
      <trkpt lat="43.53929" lon="5.52145">
        <ele>343.4</ele>
        <time>2023-05-28T14:27:48Z</time>
      </trkpt>
      <trkpt lat="43.53928" lon="5.52146">
        <ele>343.3</ele>
        <time>2023-05-28T14:27:49Z</time>
      </trkpt>
      <trkpt lat="43.53927" lon="5.52147">
        <ele>343.3</ele>
        <time>2023-05-28T14:27:50Z</time>
      </trkpt>
      <trkpt lat="43.53926" lon="5.52148">
        <ele>343.3</ele>
        <time>2023-05-28T14:27:51Z</time>
      </trkpt>
      <trkpt lat="43.53925" lon="5.52148">
        <ele>343.3</ele>
        <time>2023-05-28T14:27:52Z</time>
      </trkpt>
      <trkpt lat="43.53924" lon="5.52148">
        <ele>343.3</ele>
        <time>2023-05-28T14:27:53Z</time>
      </trkpt>
      <trkpt lat="43.53923" lon="5.52149">
        <ele>343.3</ele>
        <time>2023-05-28T14:27:54Z</time>
      </trkpt>
      <trkpt lat="43.53922" lon="5.52149">
        <ele>343.4</ele>
        <time>2023-05-28T14:27:55Z</time>
      </trkpt>
      <trkpt lat="43.5392" lon="5.5215">
        <ele>343.5</ele>
        <time>2023-05-28T14:27:56Z</time>
      </trkpt>
      <trkpt lat="43.53919" lon="5.52151">
        <ele>343.5</ele>
        <time>2023-05-28T14:27:57Z</time>
      </trkpt>
      <trkpt lat="43.53918" lon="5.52151">
        <ele>343.5</ele>
        <time>2023-05-28T14:27:58Z</time>
      </trkpt>
      <trkpt lat="43.53917" lon="5.52152">
        <ele>343.4</ele>
        <time>2023-05-28T14:27:59Z</time>
      </trkpt>
      <trkpt lat="43.53916" lon="5.52152">
        <ele>343.4</ele>
        <time>2023-05-28T14:28:00Z</time>
      </trkpt>
      <trkpt lat="43.53915" lon="5.52153">
        <ele>343.4</ele>
        <time>2023-05-28T14:28:01Z</time>
      </trkpt>
      <trkpt lat="43.53914" lon="5.52154">
        <ele>343.4</ele>
        <time>2023-05-28T14:28:02Z</time>
      </trkpt>
      <trkpt lat="43.53913" lon="5.52154">
        <ele>343.4</ele>
        <time>2023-05-28T14:28:03Z</time>
      </trkpt>
      <trkpt lat="43.53912" lon="5.52155">
        <ele>343.4</ele>
        <time>2023-05-28T14:28:04Z</time>
      </trkpt>
      <trkpt lat="43.53911" lon="5.52156">
        <ele>343.5</ele>
        <time>2023-05-28T14:28:05Z</time>
      </trkpt>
      <trkpt lat="43.53909" lon="5.52156">
        <ele>343.5</ele>
        <time>2023-05-28T14:28:06Z</time>
      </trkpt>
      <trkpt lat="43.53908" lon="5.52157">
        <ele>343.5</ele>
        <time>2023-05-28T14:28:07Z</time>
      </trkpt>
      <trkpt lat="43.53907" lon="5.52157">
        <ele>343.5</ele>
        <time>2023-05-28T14:28:08Z</time>
      </trkpt>
      <trkpt lat="43.53906" lon="5.52157">
        <ele>343.5</ele>
        <time>2023-05-28T14:28:09Z</time>
      </trkpt>
      <trkpt lat="43.53905" lon="5.52158">
        <ele>343.4</ele>
        <time>2023-05-28T14:28:10Z</time>
      </trkpt>
      <trkpt lat="43.53904" lon="5.52158">
        <ele>343.4</ele>
        <time>2023-05-28T14:28:11Z</time>
      </trkpt>
      <trkpt lat="43.53903" lon="5.52159">
        <ele>343.4</ele>
        <time>2023-05-28T14:28:12Z</time>
      </trkpt>
      <trkpt lat="43.53901" lon="5.52159">
        <ele>343.4</ele>
        <time>2023-05-28T14:28:13Z</time>
      </trkpt>
      <trkpt lat="43.539" lon="5.5216">
        <ele>343.4</ele>
        <time>2023-05-28T14:28:14Z</time>
      </trkpt>
      <trkpt lat="43.53899" lon="5.52161">
        <ele>343.5</ele>
        <time>2023-05-28T14:28:15Z</time>
      </trkpt>
      <trkpt lat="43.53898" lon="5.52162">
        <ele>343.5</ele>
        <time>2023-05-28T14:28:16Z</time>
      </trkpt>
      <trkpt lat="43.53897" lon="5.52164">
        <ele>343.5</ele>
        <time>2023-05-28T14:28:17Z</time>
      </trkpt>
      <trkpt lat="43.53896" lon="5.52165">
        <ele>343.6</ele>
        <time>2023-05-28T14:28:18Z</time>
      </trkpt>
      <trkpt lat="43.53895" lon="5.52166">
        <ele>343.6</ele>
        <time>2023-05-28T14:28:19Z</time>
      </trkpt>
      <trkpt lat="43.53894" lon="5.52166">
        <ele>343.6</ele>
        <time>2023-05-28T14:28:20Z</time>
      </trkpt>
      <trkpt lat="43.53893" lon="5.52167">
        <ele>343.6</ele>
        <time>2023-05-28T14:28:21Z</time>
      </trkpt>
      <trkpt lat="43.53892" lon="5.52168">
        <ele>343.7</ele>
        <time>2023-05-28T14:28:22Z</time>
      </trkpt>
      <trkpt lat="43.53892" lon="5.52169">
        <ele>343.7</ele>
        <time>2023-05-28T14:28:23Z</time>
      </trkpt>
      <trkpt lat="43.53891" lon="5.5217">
        <ele>343.7</ele>
        <time>2023-05-28T14:28:24Z</time>
      </trkpt>
      <trkpt lat="43.5389" lon="5.5217">
        <ele>343.7</ele>
        <time>2023-05-28T14:28:25Z</time>
      </trkpt>
      <trkpt lat="43.53889" lon="5.5217">
        <ele>343.7</ele>
        <time>2023-05-28T14:28:26Z</time>
      </trkpt>
      <trkpt lat="43.53887" lon="5.5217">
        <ele>343.7</ele>
        <time>2023-05-28T14:28:27Z</time>
      </trkpt>
      <trkpt lat="43.53886" lon="5.5217">
        <ele>343.8</ele>
        <time>2023-05-28T14:28:28Z</time>
      </trkpt>
      <trkpt lat="43.53885" lon="5.5217">
        <ele>343.8</ele>
        <time>2023-05-28T14:28:29Z</time>
      </trkpt>
      <trkpt lat="43.53884" lon="5.5217">
        <ele>343.9</ele>
        <time>2023-05-28T14:28:30Z</time>
      </trkpt>
      <trkpt lat="43.53883" lon="5.52169">
        <ele>344</ele>
        <time>2023-05-28T14:28:31Z</time>
      </trkpt>
      <trkpt lat="43.53882" lon="5.5217">
        <ele>344.1</ele>
        <time>2023-05-28T14:28:32Z</time>
      </trkpt>
      <trkpt lat="43.53881" lon="5.5217">
        <ele>344.4</ele>
        <time>2023-05-28T14:28:33Z</time>
      </trkpt>
      <trkpt lat="43.5388" lon="5.5217">
        <ele>344.6</ele>
        <time>2023-05-28T14:28:34Z</time>
      </trkpt>
      <trkpt lat="43.53879" lon="5.52169">
        <ele>344.6</ele>
        <time>2023-05-28T14:28:35Z</time>
      </trkpt>
      <trkpt lat="43.53878" lon="5.52169">
        <ele>344.7</ele>
        <time>2023-05-28T14:28:36Z</time>
      </trkpt>
      <trkpt lat="43.53876" lon="5.52168">
        <ele>344.6</ele>
        <time>2023-05-28T14:28:37Z</time>
      </trkpt>
      <trkpt lat="43.53875" lon="5.52168">
        <ele>344.7</ele>
        <time>2023-05-28T14:28:38Z</time>
      </trkpt>
      <trkpt lat="43.53874" lon="5.52168">
        <ele>344.7</ele>
        <time>2023-05-28T14:28:39Z</time>
      </trkpt>
      <trkpt lat="43.53873" lon="5.52167">
        <ele>344.7</ele>
        <time>2023-05-28T14:28:40Z</time>
      </trkpt>
      <trkpt lat="43.53872" lon="5.52167">
        <ele>344.7</ele>
        <time>2023-05-28T14:28:41Z</time>
      </trkpt>
      <trkpt lat="43.53871" lon="5.52167">
        <ele>344.7</ele>
        <time>2023-05-28T14:28:42Z</time>
      </trkpt>
      <trkpt lat="43.5387" lon="5.52166">
        <ele>344.6</ele>
        <time>2023-05-28T14:28:43Z</time>
      </trkpt>
      <trkpt lat="43.53869" lon="5.52165">
        <ele>344.6</ele>
        <time>2023-05-28T14:28:44Z</time>
      </trkpt>
      <trkpt lat="43.53868" lon="5.52164">
        <ele>344.6</ele>
        <time>2023-05-28T14:28:45Z</time>
      </trkpt>
      <trkpt lat="43.53867" lon="5.52164">
        <ele>344.6</ele>
        <time>2023-05-28T14:28:46Z</time>
      </trkpt>
      <trkpt lat="43.53866" lon="5.52164">
        <ele>344.7</ele>
        <time>2023-05-28T14:28:47Z</time>
      </trkpt>
      <trkpt lat="43.53865" lon="5.52163">
        <ele>344.6</ele>
        <time>2023-05-28T14:28:48Z</time>
      </trkpt>
      <trkpt lat="43.53864" lon="5.52163">
        <ele>344.6</ele>
        <time>2023-05-28T14:28:49Z</time>
      </trkpt>
      <trkpt lat="43.53863" lon="5.52163">
        <ele>344.6</ele>
        <time>2023-05-28T14:28:50Z</time>
      </trkpt>
      <trkpt lat="43.53862" lon="5.52162">
        <ele>344.6</ele>
        <time>2023-05-28T14:28:51Z</time>
      </trkpt>
      <trkpt lat="43.53861" lon="5.52162">
        <ele>344.7</ele>
        <time>2023-05-28T14:28:52Z</time>
      </trkpt>
      <trkpt lat="43.5386" lon="5.52162">
        <ele>344.7</ele>
        <time>2023-05-28T14:28:53Z</time>
      </trkpt>
      <trkpt lat="43.5386" lon="5.52161">
        <ele>344.8</ele>
        <time>2023-05-28T14:28:54Z</time>
      </trkpt>
      <trkpt lat="43.53859" lon="5.52161">
        <ele>344.8</ele>
        <time>2023-05-28T14:28:55Z</time>
      </trkpt>
      <trkpt lat="43.53858" lon="5.52159">
        <ele>344.8</ele>
        <time>2023-05-28T14:28:56Z</time>
      </trkpt>
      <trkpt lat="43.53857" lon="5.52159">
        <ele>344.9</ele>
        <time>2023-05-28T14:28:57Z</time>
      </trkpt>
      <trkpt lat="43.53857" lon="5.52158">
        <ele>345</ele>
        <time>2023-05-28T14:28:58Z</time>
      </trkpt>
      <trkpt lat="43.53856" lon="5.52157">
        <ele>345</ele>
        <time>2023-05-28T14:28:59Z</time>
      </trkpt>
      <trkpt lat="43.53855" lon="5.52157">
        <ele>345</ele>
        <time>2023-05-28T14:29:00Z</time>
      </trkpt>
      <trkpt lat="43.53854" lon="5.52157">
        <ele>345.1</ele>
        <time>2023-05-28T14:29:01Z</time>
      </trkpt>
      <trkpt lat="43.53853" lon="5.52156">
        <ele>345.2</ele>
        <time>2023-05-28T14:29:02Z</time>
      </trkpt>
      <trkpt lat="43.53852" lon="5.52155">
        <ele>345</ele>
        <time>2023-05-28T14:29:03Z</time>
      </trkpt>
      <trkpt lat="43.53851" lon="5.52154">
        <ele>344.9</ele>
        <time>2023-05-28T14:29:04Z</time>
      </trkpt>
      <trkpt lat="43.5385" lon="5.52154">
        <ele>345</ele>
        <time>2023-05-28T14:29:05Z</time>
      </trkpt>
      <trkpt lat="43.53849" lon="5.52153">
        <ele>345</ele>
        <time>2023-05-28T14:29:06Z</time>
      </trkpt>
      <trkpt lat="43.53847" lon="5.52153">
        <ele>345</ele>
        <time>2023-05-28T14:29:07Z</time>
      </trkpt>
      <trkpt lat="43.53846" lon="5.52153">
        <ele>345.1</ele>
        <time>2023-05-28T14:29:08Z</time>
      </trkpt>
      <trkpt lat="43.53845" lon="5.52152">
        <ele>345.2</ele>
        <time>2023-05-28T14:29:09Z</time>
      </trkpt>
      <trkpt lat="43.53844" lon="5.52152">
        <ele>345.2</ele>
        <time>2023-05-28T14:29:10Z</time>
      </trkpt>
      <trkpt lat="43.53843" lon="5.52151">
        <ele>345.2</ele>
        <time>2023-05-28T14:29:11Z</time>
      </trkpt>
      <trkpt lat="43.53842" lon="5.52151">
        <ele>345.2</ele>
        <time>2023-05-28T14:29:12Z</time>
      </trkpt>
      <trkpt lat="43.53841" lon="5.5215">
        <ele>345.2</ele>
        <time>2023-05-28T14:29:13Z</time>
      </trkpt>
      <trkpt lat="43.5384" lon="5.52149">
        <ele>345.2</ele>
        <time>2023-05-28T14:29:14Z</time>
      </trkpt>
      <trkpt lat="43.53839" lon="5.52149">
        <ele>345.3</ele>
        <time>2023-05-28T14:29:15Z</time>
      </trkpt>
      <trkpt lat="43.53838" lon="5.52148">
        <ele>345.3</ele>
        <time>2023-05-28T14:29:16Z</time>
      </trkpt>
      <trkpt lat="43.53838" lon="5.52148">
        <ele>345.3</ele>
        <time>2023-05-28T14:29:17Z</time>
      </trkpt>
      <trkpt lat="43.53836" lon="5.52147">
        <ele>345.1</ele>
        <time>2023-05-28T14:29:18Z</time>
      </trkpt>
      <trkpt lat="43.53835" lon="5.52146">
        <ele>345.2</ele>
        <time>2023-05-28T14:29:19Z</time>
      </trkpt>
      <trkpt lat="43.53834" lon="5.52145">
        <ele>345.1</ele>
        <time>2023-05-28T14:29:20Z</time>
      </trkpt>
      <trkpt lat="43.53834" lon="5.52145">
        <ele>345.2</ele>
        <time>2023-05-28T14:29:21Z</time>
      </trkpt>
      <trkpt lat="43.53833" lon="5.52145">
        <ele>345.2</ele>
        <time>2023-05-28T14:29:22Z</time>
      </trkpt>
      <trkpt lat="43.53831" lon="5.52145">
        <ele>345.1</ele>
        <time>2023-05-28T14:29:23Z</time>
      </trkpt>
      <trkpt lat="43.5383" lon="5.52145">
        <ele>345.1</ele>
        <time>2023-05-28T14:29:24Z</time>
      </trkpt>
      <trkpt lat="43.5383" lon="5.52146">
        <ele>345.1</ele>
        <time>2023-05-28T14:29:25Z</time>
      </trkpt>
      <trkpt lat="43.53829" lon="5.52146">
        <ele>345.1</ele>
        <time>2023-05-28T14:29:26Z</time>
      </trkpt>
      <trkpt lat="43.53828" lon="5.52147">
        <ele>345</ele>
        <time>2023-05-28T14:29:27Z</time>
      </trkpt>
      <trkpt lat="43.53826" lon="5.52148">
        <ele>345</ele>
        <time>2023-05-28T14:29:28Z</time>
      </trkpt>
      <trkpt lat="43.53825" lon="5.52148">
        <ele>344.9</ele>
        <time>2023-05-28T14:29:29Z</time>
      </trkpt>
      <trkpt lat="43.53824" lon="5.52148">
        <ele>344.9</ele>
        <time>2023-05-28T14:29:30Z</time>
      </trkpt>
      <trkpt lat="43.53823" lon="5.52148">
        <ele>345</ele>
        <time>2023-05-28T14:29:31Z</time>
      </trkpt>
      <trkpt lat="43.53822" lon="5.52148">
        <ele>345</ele>
        <time>2023-05-28T14:29:32Z</time>
      </trkpt>
      <trkpt lat="43.53821" lon="5.52149">
        <ele>345</ele>
        <time>2023-05-28T14:29:33Z</time>
      </trkpt>
      <trkpt lat="43.5382" lon="5.5215">
        <ele>345</ele>
        <time>2023-05-28T14:29:34Z</time>
      </trkpt>
      <trkpt lat="43.53819" lon="5.5215">
        <ele>345</ele>
        <time>2023-05-28T14:29:35Z</time>
      </trkpt>
      <trkpt lat="43.53818" lon="5.52151">
        <ele>345</ele>
        <time>2023-05-28T14:29:36Z</time>
      </trkpt>
      <trkpt lat="43.53817" lon="5.52151">
        <ele>345</ele>
        <time>2023-05-28T14:29:37Z</time>
      </trkpt>
      <trkpt lat="43.53816" lon="5.52151">
        <ele>345</ele>
        <time>2023-05-28T14:29:38Z</time>
      </trkpt>
      <trkpt lat="43.53815" lon="5.52151">
        <ele>345</ele>
        <time>2023-05-28T14:29:39Z</time>
      </trkpt>
      <trkpt lat="43.53814" lon="5.52152">
        <ele>345</ele>
        <time>2023-05-28T14:29:40Z</time>
      </trkpt>
      <trkpt lat="43.53813" lon="5.52153">
        <ele>345</ele>
        <time>2023-05-28T14:29:41Z</time>
      </trkpt>
      <trkpt lat="43.53812" lon="5.52154">
        <ele>345</ele>
        <time>2023-05-28T14:29:42Z</time>
      </trkpt>
      <trkpt lat="43.53811" lon="5.52154">
        <ele>345</ele>
        <time>2023-05-28T14:29:43Z</time>
      </trkpt>
      <trkpt lat="43.5381" lon="5.52155">
        <ele>344.9</ele>
        <time>2023-05-28T14:29:44Z</time>
      </trkpt>
      <trkpt lat="43.53809" lon="5.52156">
        <ele>345</ele>
        <time>2023-05-28T14:29:45Z</time>
      </trkpt>
      <trkpt lat="43.53808" lon="5.52156">
        <ele>345</ele>
        <time>2023-05-28T14:29:46Z</time>
      </trkpt>
      <trkpt lat="43.53807" lon="5.52157">
        <ele>345</ele>
        <time>2023-05-28T14:29:47Z</time>
      </trkpt>
      <trkpt lat="43.53806" lon="5.52158">
        <ele>344.9</ele>
        <time>2023-05-28T14:29:48Z</time>
      </trkpt>
      <trkpt lat="43.53805" lon="5.5216">
        <ele>344.9</ele>
        <time>2023-05-28T14:29:49Z</time>
      </trkpt>
      <trkpt lat="43.53804" lon="5.52161">
        <ele>344.9</ele>
        <time>2023-05-28T14:29:50Z</time>
      </trkpt>
      <trkpt lat="43.53803" lon="5.52162">
        <ele>344.9</ele>
        <time>2023-05-28T14:29:51Z</time>
      </trkpt>
      <trkpt lat="43.53802" lon="5.52163">
        <ele>344.8</ele>
        <time>2023-05-28T14:29:52Z</time>
      </trkpt>
      <trkpt lat="43.53802" lon="5.52165">
        <ele>344.8</ele>
        <time>2023-05-28T14:29:53Z</time>
      </trkpt>
      <trkpt lat="43.53801" lon="5.52166">
        <ele>344.6</ele>
        <time>2023-05-28T14:29:54Z</time>
      </trkpt>
      <trkpt lat="43.53801" lon="5.52168">
        <ele>344.6</ele>
        <time>2023-05-28T14:29:55Z</time>
      </trkpt>
      <trkpt lat="43.538" lon="5.52169">
        <ele>344.5</ele>
        <time>2023-05-28T14:29:56Z</time>
      </trkpt>
      <trkpt lat="43.538" lon="5.5217">
        <ele>344.6</ele>
        <time>2023-05-28T14:29:57Z</time>
      </trkpt>
      <trkpt lat="43.538" lon="5.52171">
        <ele>344.7</ele>
        <time>2023-05-28T14:29:58Z</time>
      </trkpt>
      <trkpt lat="43.538" lon="5.52172">
        <ele>344.7</ele>
        <time>2023-05-28T14:29:59Z</time>
      </trkpt>
      <trkpt lat="43.538" lon="5.52173">
        <ele>344.8</ele>
        <time>2023-05-28T14:30:00Z</time>
      </trkpt>
      <trkpt lat="43.53799" lon="5.52174">
        <ele>344.8</ele>
        <time>2023-05-28T14:30:01Z</time>
      </trkpt>
      <trkpt lat="43.53799" lon="5.52174">
        <ele>344.9</ele>
        <time>2023-05-28T14:30:02Z</time>
      </trkpt>
      <trkpt lat="43.53799" lon="5.52175">
        <ele>344.9</ele>
        <time>2023-05-28T14:30:03Z</time>
      </trkpt>
      <trkpt lat="43.53798" lon="5.52174">
        <ele>345</ele>
        <time>2023-05-28T14:30:04Z</time>
      </trkpt>
      <trkpt lat="43.53798" lon="5.52174">
        <ele>345.1</ele>
        <time>2023-05-28T14:30:05Z</time>
      </trkpt>
      <trkpt lat="43.53798" lon="5.52174">
        <ele>345.1</ele>
        <time>2023-05-28T14:30:06Z</time>
      </trkpt>
      <trkpt lat="43.53798" lon="5.52174">
        <ele>345.2</ele>
        <time>2023-05-28T14:30:07Z</time>
      </trkpt>
      <trkpt lat="43.53797" lon="5.52174">
        <ele>345.3</ele>
        <time>2023-05-28T14:30:08Z</time>
      </trkpt>
      <trkpt lat="43.53797" lon="5.52174">
        <ele>345.3</ele>
        <time>2023-05-28T14:30:09Z</time>
      </trkpt>
      <trkpt lat="43.53797" lon="5.52174">
        <ele>345.3</ele>
        <time>2023-05-28T14:30:10Z</time>
      </trkpt>
      <trkpt lat="43.53797" lon="5.52174">
        <ele>345.3</ele>
        <time>2023-05-28T14:30:11Z</time>
      </trkpt>
      <trkpt lat="43.53797" lon="5.52174">
        <ele>345.3</ele>
        <time>2023-05-28T14:30:12Z</time>
      </trkpt>
      <trkpt lat="43.53797" lon="5.52175">
        <ele>345.2</ele>
        <time>2023-05-28T14:30:13Z</time>
      </trkpt>
      <trkpt lat="43.53797" lon="5.52176">
        <ele>345.2</ele>
        <time>2023-05-28T14:30:14Z</time>
      </trkpt>
      <trkpt lat="43.53797" lon="5.52176">
        <ele>345.2</ele>
        <time>2023-05-28T14:30:15Z</time>
      </trkpt>
      <trkpt lat="43.53797" lon="5.52176">
        <ele>345.3</ele>
        <time>2023-05-28T14:30:16Z</time>
      </trkpt>
      <trkpt lat="43.53797" lon="5.52176">
        <ele>345.4</ele>
        <time>2023-05-28T14:30:17Z</time>
      </trkpt>
      <trkpt lat="43.53797" lon="5.52176">
        <ele>345.5</ele>
        <time>2023-05-28T14:30:18Z</time>
      </trkpt>
      <trkpt lat="43.53797" lon="5.52176">
        <ele>345.5</ele>
        <time>2023-05-28T14:30:19Z</time>
      </trkpt>
      <trkpt lat="43.53797" lon="5.52176">
        <ele>345.5</ele>
        <time>2023-05-28T14:30:20Z</time>
      </trkpt>
      <trkpt lat="43.53796" lon="5.52176">
        <ele>345.5</ele>
        <time>2023-05-28T14:30:21Z</time>
      </trkpt>
      <trkpt lat="43.53796" lon="5.52176">
        <ele>345.5</ele>
        <time>2023-05-28T14:30:22Z</time>
      </trkpt>
      <trkpt lat="43.53796" lon="5.52176">
        <ele>345.6</ele>
        <time>2023-05-28T14:30:23Z</time>
      </trkpt>
      <trkpt lat="43.53797" lon="5.52176">
        <ele>345.6</ele>
        <time>2023-05-28T14:30:24Z</time>
      </trkpt>
      <trkpt lat="43.53797" lon="5.52176">
        <ele>345.6</ele>
        <time>2023-05-28T14:30:25Z</time>
      </trkpt>
      <trkpt lat="43.53796" lon="5.52176">
        <ele>345.6</ele>
        <time>2023-05-28T14:30:26Z</time>
      </trkpt>
      <trkpt lat="43.53796" lon="5.52176">
        <ele>345.6</ele>
        <time>2023-05-28T14:30:27Z</time>
      </trkpt>
      <trkpt lat="43.53796" lon="5.52175">
        <ele>345.7</ele>
        <time>2023-05-28T14:30:28Z</time>
      </trkpt>
      <trkpt lat="43.53796" lon="5.52175">
        <ele>345.7</ele>
        <time>2023-05-28T14:30:29Z</time>
      </trkpt>
      <trkpt lat="43.53796" lon="5.52175">
        <ele>345.7</ele>
        <time>2023-05-28T14:30:30Z</time>
      </trkpt>
      <trkpt lat="43.53796" lon="5.52175">
        <ele>345.7</ele>
        <time>2023-05-28T14:30:31Z</time>
      </trkpt>
      <trkpt lat="43.53796" lon="5.52175">
        <ele>345.7</ele>
        <time>2023-05-28T14:30:32Z</time>
      </trkpt>
      <trkpt lat="43.53796" lon="5.52175">
        <ele>345.8</ele>
        <time>2023-05-28T14:30:33Z</time>
      </trkpt>
      <trkpt lat="43.53796" lon="5.52176">
        <ele>345.8</ele>
        <time>2023-05-28T14:30:34Z</time>
      </trkpt>
      <trkpt lat="43.53796" lon="5.52176">
        <ele>345.8</ele>
        <time>2023-05-28T14:30:35Z</time>
      </trkpt>
      <trkpt lat="43.53796" lon="5.52177">
        <ele>345.8</ele>
        <time>2023-05-28T14:30:36Z</time>
      </trkpt>
      <trkpt lat="43.53796" lon="5.52177">
        <ele>345.8</ele>
        <time>2023-05-28T14:30:37Z</time>
      </trkpt>
      <trkpt lat="43.53796" lon="5.52177">
        <ele>345.8</ele>
        <time>2023-05-28T14:30:38Z</time>
      </trkpt>
      <trkpt lat="43.53796" lon="5.52177">
        <ele>345.7</ele>
        <time>2023-05-28T14:30:39Z</time>
      </trkpt>
      <trkpt lat="43.53796" lon="5.52177">
        <ele>345.7</ele>
        <time>2023-05-28T14:30:40Z</time>
      </trkpt>
      <trkpt lat="43.53796" lon="5.52177">
        <ele>345.7</ele>
        <time>2023-05-28T14:30:41Z</time>
      </trkpt>
      <trkpt lat="43.53796" lon="5.52177">
        <ele>345.7</ele>
        <time>2023-05-28T14:30:42Z</time>
      </trkpt>
      <trkpt lat="43.53796" lon="5.52177">
        <ele>345.6</ele>
        <time>2023-05-28T14:30:43Z</time>
      </trkpt>
      <trkpt lat="43.53796" lon="5.52178">
        <ele>345.6</ele>
        <time>2023-05-28T14:30:44Z</time>
      </trkpt>
      <trkpt lat="43.53796" lon="5.52179">
        <ele>345.7</ele>
        <time>2023-05-28T14:30:45Z</time>
      </trkpt>
      <trkpt lat="43.53796" lon="5.52179">
        <ele>345.9</ele>
        <time>2023-05-28T14:30:46Z</time>
      </trkpt>
      <trkpt lat="43.53796" lon="5.5218">
        <ele>346</ele>
        <time>2023-05-28T14:30:47Z</time>
      </trkpt>
      <trkpt lat="43.53796" lon="5.52182">
        <ele>346.1</ele>
        <time>2023-05-28T14:30:48Z</time>
      </trkpt>
      <trkpt lat="43.53797" lon="5.52183">
        <ele>346.1</ele>
        <time>2023-05-28T14:30:49Z</time>
      </trkpt>
      <trkpt lat="43.53797" lon="5.52184">
        <ele>346.2</ele>
        <time>2023-05-28T14:30:50Z</time>
      </trkpt>
      <trkpt lat="43.53797" lon="5.52186">
        <ele>346.3</ele>
        <time>2023-05-28T14:30:51Z</time>
      </trkpt>
      <trkpt lat="43.53798" lon="5.52187">
        <ele>346.4</ele>
        <time>2023-05-28T14:30:52Z</time>
      </trkpt>
      <trkpt lat="43.53799" lon="5.52188">
        <ele>346.5</ele>
        <time>2023-05-28T14:30:53Z</time>
      </trkpt>
      <trkpt lat="43.53799" lon="5.52189">
        <ele>346.5</ele>
        <time>2023-05-28T14:30:54Z</time>
      </trkpt>
      <trkpt lat="43.538" lon="5.5219">
        <ele>346.7</ele>
        <time>2023-05-28T14:30:55Z</time>
      </trkpt>
      <trkpt lat="43.53801" lon="5.52191">
        <ele>346.8</ele>
        <time>2023-05-28T14:30:56Z</time>
      </trkpt>
      <trkpt lat="43.53801" lon="5.52193">
        <ele>346.8</ele>
        <time>2023-05-28T14:30:57Z</time>
      </trkpt>
      <trkpt lat="43.53802" lon="5.52194">
        <ele>346.9</ele>
        <time>2023-05-28T14:30:58Z</time>
      </trkpt>
      <trkpt lat="43.53802" lon="5.52196">
        <ele>347</ele>
        <time>2023-05-28T14:30:59Z</time>
      </trkpt>
      <trkpt lat="43.53802" lon="5.52197">
        <ele>347.1</ele>
        <time>2023-05-28T14:31:00Z</time>
      </trkpt>
      <trkpt lat="43.53802" lon="5.52197">
        <ele>347.1</ele>
        <time>2023-05-28T14:31:01Z</time>
      </trkpt>
      <trkpt lat="43.53802" lon="5.52198">
        <ele>347.2</ele>
        <time>2023-05-28T14:31:02Z</time>
      </trkpt>
      <trkpt lat="43.53802" lon="5.52198">
        <ele>347.2</ele>
        <time>2023-05-28T14:31:03Z</time>
      </trkpt>
      <trkpt lat="43.53802" lon="5.52198">
        <ele>347.2</ele>
        <time>2023-05-28T14:31:04Z</time>
      </trkpt>
      <trkpt lat="43.53802" lon="5.52199">
        <ele>347.2</ele>
        <time>2023-05-28T14:31:05Z</time>
      </trkpt>
      <trkpt lat="43.53802" lon="5.52199">
        <ele>347.2</ele>
        <time>2023-05-28T14:31:06Z</time>
      </trkpt>
      <trkpt lat="43.53803" lon="5.522">
        <ele>347.2</ele>
        <time>2023-05-28T14:31:07Z</time>
      </trkpt>
      <trkpt lat="43.53803" lon="5.52201">
        <ele>347.2</ele>
        <time>2023-05-28T14:31:08Z</time>
      </trkpt>
      <trkpt lat="43.53803" lon="5.52202">
        <ele>347.2</ele>
        <time>2023-05-28T14:31:09Z</time>
      </trkpt>
      <trkpt lat="43.53804" lon="5.52203">
        <ele>347.2</ele>
        <time>2023-05-28T14:31:10Z</time>
      </trkpt>
      <trkpt lat="43.53804" lon="5.52204">
        <ele>347.2</ele>
        <time>2023-05-28T14:31:11Z</time>
      </trkpt>
      <trkpt lat="43.53805" lon="5.52204">
        <ele>347.2</ele>
        <time>2023-05-28T14:31:12Z</time>
      </trkpt>
      <trkpt lat="43.53805" lon="5.52205">
        <ele>347.3</ele>
        <time>2023-05-28T14:31:13Z</time>
      </trkpt>
      <trkpt lat="43.53806" lon="5.52207">
        <ele>347.4</ele>
        <time>2023-05-28T14:31:14Z</time>
      </trkpt>
      <trkpt lat="43.53806" lon="5.52208">
        <ele>347.4</ele>
        <time>2023-05-28T14:31:15Z</time>
      </trkpt>
      <trkpt lat="43.53806" lon="5.5221">
        <ele>347.5</ele>
        <time>2023-05-28T14:31:16Z</time>
      </trkpt>
      <trkpt lat="43.53806" lon="5.52211">
        <ele>347.5</ele>
        <time>2023-05-28T14:31:17Z</time>
      </trkpt>
      <trkpt lat="43.53807" lon="5.52212">
        <ele>347.5</ele>
        <time>2023-05-28T14:31:18Z</time>
      </trkpt>
      <trkpt lat="43.53807" lon="5.52214">
        <ele>347.6</ele>
        <time>2023-05-28T14:31:19Z</time>
      </trkpt>
      <trkpt lat="43.53808" lon="5.52215">
        <ele>347.5</ele>
        <time>2023-05-28T14:31:20Z</time>
      </trkpt>
      <trkpt lat="43.53808" lon="5.52217">
        <ele>347.5</ele>
        <time>2023-05-28T14:31:21Z</time>
      </trkpt>
      <trkpt lat="43.53808" lon="5.52218">
        <ele>347.5</ele>
        <time>2023-05-28T14:31:22Z</time>
      </trkpt>
      <trkpt lat="43.53809" lon="5.5222">
        <ele>347.5</ele>
        <time>2023-05-28T14:31:23Z</time>
      </trkpt>
      <trkpt lat="43.53809" lon="5.52221">
        <ele>347.5</ele>
        <time>2023-05-28T14:31:24Z</time>
      </trkpt>
      <trkpt lat="43.5381" lon="5.52222">
        <ele>347.5</ele>
        <time>2023-05-28T14:31:25Z</time>
      </trkpt>
      <trkpt lat="43.53811" lon="5.52223">
        <ele>347.5</ele>
        <time>2023-05-28T14:31:26Z</time>
      </trkpt>
      <trkpt lat="43.53811" lon="5.52224">
        <ele>347.5</ele>
        <time>2023-05-28T14:31:27Z</time>
      </trkpt>
      <trkpt lat="43.53812" lon="5.52225">
        <ele>347.5</ele>
        <time>2023-05-28T14:31:28Z</time>
      </trkpt>
      <trkpt lat="43.53813" lon="5.52225">
        <ele>347.5</ele>
        <time>2023-05-28T14:31:29Z</time>
      </trkpt>
      <trkpt lat="43.53814" lon="5.52226">
        <ele>347.6</ele>
        <time>2023-05-28T14:31:30Z</time>
      </trkpt>
      <trkpt lat="43.53815" lon="5.52226">
        <ele>347.6</ele>
        <time>2023-05-28T14:31:31Z</time>
      </trkpt>
      <trkpt lat="43.53816" lon="5.52226">
        <ele>347.7</ele>
        <time>2023-05-28T14:31:32Z</time>
      </trkpt>
      <trkpt lat="43.53816" lon="5.52226">
        <ele>347.7</ele>
        <time>2023-05-28T14:31:33Z</time>
      </trkpt>
      <trkpt lat="43.53817" lon="5.52226">
        <ele>347.8</ele>
        <time>2023-05-28T14:31:34Z</time>
      </trkpt>
      <trkpt lat="43.53818" lon="5.52226">
        <ele>348</ele>
        <time>2023-05-28T14:31:35Z</time>
      </trkpt>
      <trkpt lat="43.53819" lon="5.52226">
        <ele>348.1</ele>
        <time>2023-05-28T14:31:36Z</time>
      </trkpt>
      <trkpt lat="43.53819" lon="5.52227">
        <ele>348.2</ele>
        <time>2023-05-28T14:31:37Z</time>
      </trkpt>
      <trkpt lat="43.5382" lon="5.52227">
        <ele>348.4</ele>
        <time>2023-05-28T14:31:38Z</time>
      </trkpt>
      <trkpt lat="43.53821" lon="5.52227">
        <ele>348.6</ele>
        <time>2023-05-28T14:31:39Z</time>
      </trkpt>
      <trkpt lat="43.53821" lon="5.52226">
        <ele>348.8</ele>
        <time>2023-05-28T14:31:40Z</time>
      </trkpt>
      <trkpt lat="43.53822" lon="5.52226">
        <ele>348.8</ele>
        <time>2023-05-28T14:31:41Z</time>
      </trkpt>
      <trkpt lat="43.53823" lon="5.52226">
        <ele>348.9</ele>
        <time>2023-05-28T14:31:42Z</time>
      </trkpt>
      <trkpt lat="43.53824" lon="5.52227">
        <ele>349</ele>
        <time>2023-05-28T14:31:43Z</time>
      </trkpt>
      <trkpt lat="43.53825" lon="5.52227">
        <ele>349.1</ele>
        <time>2023-05-28T14:31:44Z</time>
      </trkpt>
      <trkpt lat="43.53825" lon="5.52228">
        <ele>349.2</ele>
        <time>2023-05-28T14:31:45Z</time>
      </trkpt>
      <trkpt lat="43.53826" lon="5.52229">
        <ele>349.1</ele>
        <time>2023-05-28T14:31:46Z</time>
      </trkpt>
      <trkpt lat="43.53827" lon="5.5223">
        <ele>349.2</ele>
        <time>2023-05-28T14:31:47Z</time>
      </trkpt>
      <trkpt lat="43.53827" lon="5.52231">
        <ele>349.4</ele>
        <time>2023-05-28T14:31:48Z</time>
      </trkpt>
      <trkpt lat="43.53828" lon="5.52232">
        <ele>349.5</ele>
        <time>2023-05-28T14:31:49Z</time>
      </trkpt>
      <trkpt lat="43.53829" lon="5.52233">
        <ele>349.6</ele>
        <time>2023-05-28T14:31:50Z</time>
      </trkpt>
      <trkpt lat="43.5383" lon="5.52234">
        <ele>349.6</ele>
        <time>2023-05-28T14:31:51Z</time>
      </trkpt>
      <trkpt lat="43.53831" lon="5.52235">
        <ele>349.7</ele>
        <time>2023-05-28T14:31:52Z</time>
      </trkpt>
      <trkpt lat="43.53832" lon="5.52236">
        <ele>349.7</ele>
        <time>2023-05-28T14:31:53Z</time>
      </trkpt>
      <trkpt lat="43.53833" lon="5.52237">
        <ele>349.7</ele>
        <time>2023-05-28T14:31:54Z</time>
      </trkpt>
      <trkpt lat="43.53834" lon="5.52237">
        <ele>349.7</ele>
        <time>2023-05-28T14:31:55Z</time>
      </trkpt>
      <trkpt lat="43.53834" lon="5.52238">
        <ele>349.7</ele>
        <time>2023-05-28T14:31:56Z</time>
      </trkpt>
      <trkpt lat="43.53835" lon="5.52239">
        <ele>349.8</ele>
        <time>2023-05-28T14:31:57Z</time>
      </trkpt>
      <trkpt lat="43.53836" lon="5.52239">
        <ele>349.9</ele>
        <time>2023-05-28T14:31:58Z</time>
      </trkpt>
      <trkpt lat="43.53837" lon="5.5224">
        <ele>349.9</ele>
        <time>2023-05-28T14:31:59Z</time>
      </trkpt>
      <trkpt lat="43.53838" lon="5.5224">
        <ele>349.8</ele>
        <time>2023-05-28T14:32:00Z</time>
      </trkpt>
      <trkpt lat="43.53839" lon="5.52241">
        <ele>349.9</ele>
        <time>2023-05-28T14:32:01Z</time>
      </trkpt>
      <trkpt lat="43.53839" lon="5.52242">
        <ele>349.9</ele>
        <time>2023-05-28T14:32:02Z</time>
      </trkpt>
      <trkpt lat="43.5384" lon="5.52243">
        <ele>350</ele>
        <time>2023-05-28T14:32:03Z</time>
      </trkpt>
      <trkpt lat="43.5384" lon="5.52244">
        <ele>350</ele>
        <time>2023-05-28T14:32:04Z</time>
      </trkpt>
      <trkpt lat="43.53841" lon="5.52245">
        <ele>350</ele>
        <time>2023-05-28T14:32:05Z</time>
      </trkpt>
      <trkpt lat="43.53841" lon="5.52246">
        <ele>350.1</ele>
        <time>2023-05-28T14:32:06Z</time>
      </trkpt>
      <trkpt lat="43.53842" lon="5.52248">
        <ele>350</ele>
        <time>2023-05-28T14:32:07Z</time>
      </trkpt>
      <trkpt lat="43.53842" lon="5.52249">
        <ele>349.9</ele>
        <time>2023-05-28T14:32:08Z</time>
      </trkpt>
      <trkpt lat="43.53843" lon="5.52251">
        <ele>349.8</ele>
        <time>2023-05-28T14:32:09Z</time>
      </trkpt>
      <trkpt lat="43.53844" lon="5.52252">
        <ele>349.7</ele>
        <time>2023-05-28T14:32:10Z</time>
      </trkpt>
      <trkpt lat="43.53845" lon="5.52253">
        <ele>349.7</ele>
        <time>2023-05-28T14:32:11Z</time>
      </trkpt>
      <trkpt lat="43.53845" lon="5.52255">
        <ele>349.7</ele>
        <time>2023-05-28T14:32:12Z</time>
      </trkpt>
      <trkpt lat="43.53846" lon="5.52256">
        <ele>349.7</ele>
        <time>2023-05-28T14:32:13Z</time>
      </trkpt>
      <trkpt lat="43.53846" lon="5.52258">
        <ele>349.7</ele>
        <time>2023-05-28T14:32:14Z</time>
      </trkpt>
      <trkpt lat="43.53847" lon="5.52259">
        <ele>349.7</ele>
        <time>2023-05-28T14:32:15Z</time>
      </trkpt>
      <trkpt lat="43.53848" lon="5.5226">
        <ele>349.7</ele>
        <time>2023-05-28T14:32:16Z</time>
      </trkpt>
      <trkpt lat="43.53849" lon="5.52262">
        <ele>349.7</ele>
        <time>2023-05-28T14:32:17Z</time>
      </trkpt>
      <trkpt lat="43.53849" lon="5.52263">
        <ele>349.8</ele>
        <time>2023-05-28T14:32:18Z</time>
      </trkpt>
      <trkpt lat="43.5385" lon="5.52264">
        <ele>349.7</ele>
        <time>2023-05-28T14:32:19Z</time>
      </trkpt>
      <trkpt lat="43.5385" lon="5.52266">
        <ele>349.7</ele>
        <time>2023-05-28T14:32:20Z</time>
      </trkpt>
      <trkpt lat="43.53851" lon="5.52267">
        <ele>349.7</ele>
        <time>2023-05-28T14:32:21Z</time>
      </trkpt>
      <trkpt lat="43.53852" lon="5.52268">
        <ele>349.8</ele>
        <time>2023-05-28T14:32:22Z</time>
      </trkpt>
      <trkpt lat="43.53853" lon="5.5227">
        <ele>349.8</ele>
        <time>2023-05-28T14:32:23Z</time>
      </trkpt>
      <trkpt lat="43.53853" lon="5.52271">
        <ele>349.9</ele>
        <time>2023-05-28T14:32:24Z</time>
      </trkpt>
      <trkpt lat="43.53853" lon="5.52272">
        <ele>350</ele>
        <time>2023-05-28T14:32:25Z</time>
      </trkpt>
      <trkpt lat="43.53854" lon="5.52273">
        <ele>350.1</ele>
        <time>2023-05-28T14:32:26Z</time>
      </trkpt>
      <trkpt lat="43.53855" lon="5.52274">
        <ele>350.2</ele>
        <time>2023-05-28T14:32:27Z</time>
      </trkpt>
      <trkpt lat="43.53855" lon="5.52275">
        <ele>350.3</ele>
        <time>2023-05-28T14:32:28Z</time>
      </trkpt>
      <trkpt lat="43.53856" lon="5.52276">
        <ele>350.4</ele>
        <time>2023-05-28T14:32:29Z</time>
      </trkpt>
      <trkpt lat="43.53856" lon="5.52277">
        <ele>350.4</ele>
        <time>2023-05-28T14:32:30Z</time>
      </trkpt>
      <trkpt lat="43.53857" lon="5.52278">
        <ele>350.4</ele>
        <time>2023-05-28T14:32:31Z</time>
      </trkpt>
      <trkpt lat="43.53858" lon="5.52279">
        <ele>350.5</ele>
        <time>2023-05-28T14:32:32Z</time>
      </trkpt>
      <trkpt lat="43.53858" lon="5.5228">
        <ele>350.5</ele>
        <time>2023-05-28T14:32:33Z</time>
      </trkpt>
      <trkpt lat="43.53859" lon="5.52281">
        <ele>350.6</ele>
        <time>2023-05-28T14:32:34Z</time>
      </trkpt>
      <trkpt lat="43.5386" lon="5.52282">
        <ele>350.6</ele>
        <time>2023-05-28T14:32:35Z</time>
      </trkpt>
      <trkpt lat="43.53861" lon="5.52283">
        <ele>350.6</ele>
        <time>2023-05-28T14:32:36Z</time>
      </trkpt>
      <trkpt lat="43.53862" lon="5.52284">
        <ele>350.7</ele>
        <time>2023-05-28T14:32:37Z</time>
      </trkpt>
      <trkpt lat="43.53862" lon="5.52285">
        <ele>350.7</ele>
        <time>2023-05-28T14:32:38Z</time>
      </trkpt>
      <trkpt lat="43.53863" lon="5.52287">
        <ele>350.9</ele>
        <time>2023-05-28T14:32:39Z</time>
      </trkpt>
      <trkpt lat="43.53863" lon="5.52288">
        <ele>350.9</ele>
        <time>2023-05-28T14:32:40Z</time>
      </trkpt>
      <trkpt lat="43.53864" lon="5.5229">
        <ele>351</ele>
        <time>2023-05-28T14:32:41Z</time>
      </trkpt>
      <trkpt lat="43.53864" lon="5.52291">
        <ele>351</ele>
        <time>2023-05-28T14:32:42Z</time>
      </trkpt>
      <trkpt lat="43.53865" lon="5.52293">
        <ele>351.1</ele>
        <time>2023-05-28T14:32:43Z</time>
      </trkpt>
      <trkpt lat="43.53866" lon="5.52294">
        <ele>351.1</ele>
        <time>2023-05-28T14:32:44Z</time>
      </trkpt>
      <trkpt lat="43.53866" lon="5.52296">
        <ele>351.1</ele>
        <time>2023-05-28T14:32:45Z</time>
      </trkpt>
      <trkpt lat="43.53866" lon="5.52298">
        <ele>351</ele>
        <time>2023-05-28T14:32:46Z</time>
      </trkpt>
      <trkpt lat="43.53866" lon="5.523">
        <ele>351</ele>
        <time>2023-05-28T14:32:47Z</time>
      </trkpt>
      <trkpt lat="43.53867" lon="5.52301">
        <ele>351</ele>
        <time>2023-05-28T14:32:48Z</time>
      </trkpt>
      <trkpt lat="43.53868" lon="5.52303">
        <ele>351</ele>
        <time>2023-05-28T14:32:49Z</time>
      </trkpt>
      <trkpt lat="43.53868" lon="5.52305">
        <ele>351</ele>
        <time>2023-05-28T14:32:50Z</time>
      </trkpt>
      <trkpt lat="43.53868" lon="5.52306">
        <ele>351</ele>
        <time>2023-05-28T14:32:51Z</time>
      </trkpt>
      <trkpt lat="43.53868" lon="5.52308">
        <ele>351</ele>
        <time>2023-05-28T14:32:52Z</time>
      </trkpt>
      <trkpt lat="43.53868" lon="5.5231">
        <ele>350.9</ele>
        <time>2023-05-28T14:32:53Z</time>
      </trkpt>
      <trkpt lat="43.53869" lon="5.52311">
        <ele>351</ele>
        <time>2023-05-28T14:32:54Z</time>
      </trkpt>
      <trkpt lat="43.53869" lon="5.52313">
        <ele>350.9</ele>
        <time>2023-05-28T14:32:55Z</time>
      </trkpt>
      <trkpt lat="43.5387" lon="5.52314">
        <ele>350.8</ele>
        <time>2023-05-28T14:32:56Z</time>
      </trkpt>
      <trkpt lat="43.5387" lon="5.52316">
        <ele>350.8</ele>
        <time>2023-05-28T14:32:57Z</time>
      </trkpt>
      <trkpt lat="43.53871" lon="5.52317">
        <ele>350.7</ele>
        <time>2023-05-28T14:32:58Z</time>
      </trkpt>
      <trkpt lat="43.53872" lon="5.52319">
        <ele>350.7</ele>
        <time>2023-05-28T14:32:59Z</time>
      </trkpt>
      <trkpt lat="43.53872" lon="5.52321">
        <ele>350.7</ele>
        <time>2023-05-28T14:33:00Z</time>
      </trkpt>
      <trkpt lat="43.53872" lon="5.52322">
        <ele>350.7</ele>
        <time>2023-05-28T14:33:01Z</time>
      </trkpt>
      <trkpt lat="43.53872" lon="5.52324">
        <ele>350.8</ele>
        <time>2023-05-28T14:33:02Z</time>
      </trkpt>
      <trkpt lat="43.53873" lon="5.52325">
        <ele>350.8</ele>
        <time>2023-05-28T14:33:03Z</time>
      </trkpt>
      <trkpt lat="43.53873" lon="5.52327">
        <ele>350.8</ele>
        <time>2023-05-28T14:33:04Z</time>
      </trkpt>
      <trkpt lat="43.53873" lon="5.52328">
        <ele>350.8</ele>
        <time>2023-05-28T14:33:05Z</time>
      </trkpt>
      <trkpt lat="43.53873" lon="5.5233">
        <ele>350.9</ele>
        <time>2023-05-28T14:33:06Z</time>
      </trkpt>
      <trkpt lat="43.53873" lon="5.52331">
        <ele>350.9</ele>
        <time>2023-05-28T14:33:07Z</time>
      </trkpt>
      <trkpt lat="43.53873" lon="5.52333">
        <ele>350.9</ele>
        <time>2023-05-28T14:33:08Z</time>
      </trkpt>
      <trkpt lat="43.53874" lon="5.52335">
        <ele>350.9</ele>
        <time>2023-05-28T14:33:09Z</time>
      </trkpt>
      <trkpt lat="43.53874" lon="5.52336">
        <ele>351</ele>
        <time>2023-05-28T14:33:10Z</time>
      </trkpt>
      <trkpt lat="43.53874" lon="5.52338">
        <ele>351.1</ele>
        <time>2023-05-28T14:33:11Z</time>
      </trkpt>
      <trkpt lat="43.53875" lon="5.52339">
        <ele>351.2</ele>
        <time>2023-05-28T14:33:12Z</time>
      </trkpt>
      <trkpt lat="43.53876" lon="5.5234">
        <ele>351.3</ele>
        <time>2023-05-28T14:33:13Z</time>
      </trkpt>
      <trkpt lat="43.53878" lon="5.52341">
        <ele>351.5</ele>
        <time>2023-05-28T14:33:14Z</time>
      </trkpt>
      <trkpt lat="43.53879" lon="5.52342">
        <ele>351.5</ele>
        <time>2023-05-28T14:33:15Z</time>
      </trkpt>
      <trkpt lat="43.5388" lon="5.52343">
        <ele>351.6</ele>
        <time>2023-05-28T14:33:16Z</time>
      </trkpt>
      <trkpt lat="43.53881" lon="5.52344">
        <ele>351.6</ele>
        <time>2023-05-28T14:33:17Z</time>
      </trkpt>
      <trkpt lat="43.53881" lon="5.52345">
        <ele>351.7</ele>
        <time>2023-05-28T14:33:18Z</time>
      </trkpt>
      <trkpt lat="43.53882" lon="5.52347">
        <ele>351.7</ele>
        <time>2023-05-28T14:33:19Z</time>
      </trkpt>
      <trkpt lat="43.53883" lon="5.52348">
        <ele>351.7</ele>
        <time>2023-05-28T14:33:20Z</time>
      </trkpt>
      <trkpt lat="43.53883" lon="5.52349">
        <ele>351.8</ele>
        <time>2023-05-28T14:33:21Z</time>
      </trkpt>
      <trkpt lat="43.53884" lon="5.5235">
        <ele>352</ele>
        <time>2023-05-28T14:33:22Z</time>
      </trkpt>
      <trkpt lat="43.53884" lon="5.52351">
        <ele>352.1</ele>
        <time>2023-05-28T14:33:23Z</time>
      </trkpt>
      <trkpt lat="43.53884" lon="5.52352">
        <ele>352.2</ele>
        <time>2023-05-28T14:33:24Z</time>
      </trkpt>
      <trkpt lat="43.53884" lon="5.52354">
        <ele>352.3</ele>
        <time>2023-05-28T14:33:25Z</time>
      </trkpt>
      <trkpt lat="43.53884" lon="5.52356">
        <ele>352.4</ele>
        <time>2023-05-28T14:33:26Z</time>
      </trkpt>
      <trkpt lat="43.53884" lon="5.52357">
        <ele>352.5</ele>
        <time>2023-05-28T14:33:27Z</time>
      </trkpt>
      <trkpt lat="43.53884" lon="5.52359">
        <ele>352.6</ele>
        <time>2023-05-28T14:33:28Z</time>
      </trkpt>
      <trkpt lat="43.53884" lon="5.5236">
        <ele>352.6</ele>
        <time>2023-05-28T14:33:29Z</time>
      </trkpt>
      <trkpt lat="43.53885" lon="5.52362">
        <ele>352.6</ele>
        <time>2023-05-28T14:33:30Z</time>
      </trkpt>
      <trkpt lat="43.53885" lon="5.52364">
        <ele>352.6</ele>
        <time>2023-05-28T14:33:31Z</time>
      </trkpt>
      <trkpt lat="43.53885" lon="5.52365">
        <ele>352.7</ele>
        <time>2023-05-28T14:33:32Z</time>
      </trkpt>
      <trkpt lat="43.53885" lon="5.52366">
        <ele>352.8</ele>
        <time>2023-05-28T14:33:33Z</time>
      </trkpt>
      <trkpt lat="43.53885" lon="5.52368">
        <ele>352.8</ele>
        <time>2023-05-28T14:33:34Z</time>
      </trkpt>
      <trkpt lat="43.53885" lon="5.5237">
        <ele>352.8</ele>
        <time>2023-05-28T14:33:35Z</time>
      </trkpt>
      <trkpt lat="43.53885" lon="5.52372">
        <ele>352.8</ele>
        <time>2023-05-28T14:33:36Z</time>
      </trkpt>
      <trkpt lat="43.53885" lon="5.52374">
        <ele>352.8</ele>
        <time>2023-05-28T14:33:37Z</time>
      </trkpt>
      <trkpt lat="43.53886" lon="5.52376">
        <ele>352.8</ele>
        <time>2023-05-28T14:33:38Z</time>
      </trkpt>
      <trkpt lat="43.53886" lon="5.52378">
        <ele>352.8</ele>
        <time>2023-05-28T14:33:39Z</time>
      </trkpt>
      <trkpt lat="43.53886" lon="5.52379">
        <ele>352.8</ele>
        <time>2023-05-28T14:33:40Z</time>
      </trkpt>
      <trkpt lat="43.53886" lon="5.52381">
        <ele>352.8</ele>
        <time>2023-05-28T14:33:41Z</time>
      </trkpt>
      <trkpt lat="43.53886" lon="5.52383">
        <ele>352.8</ele>
        <time>2023-05-28T14:33:42Z</time>
      </trkpt>
      <trkpt lat="43.53886" lon="5.52384">
        <ele>352.8</ele>
        <time>2023-05-28T14:33:43Z</time>
      </trkpt>
      <trkpt lat="43.53886" lon="5.52386">
        <ele>352.8</ele>
        <time>2023-05-28T14:33:44Z</time>
      </trkpt>
      <trkpt lat="43.53886" lon="5.52388">
        <ele>352.8</ele>
        <time>2023-05-28T14:33:45Z</time>
      </trkpt>
      <trkpt lat="43.53887" lon="5.52389">
        <ele>352.8</ele>
        <time>2023-05-28T14:33:46Z</time>
      </trkpt>
      <trkpt lat="43.53887" lon="5.5239">
        <ele>352.8</ele>
        <time>2023-05-28T14:33:47Z</time>
      </trkpt>
      <trkpt lat="43.53887" lon="5.52392">
        <ele>352.8</ele>
        <time>2023-05-28T14:33:48Z</time>
      </trkpt>
      <trkpt lat="43.53888" lon="5.52394">
        <ele>352.8</ele>
        <time>2023-05-28T14:33:49Z</time>
      </trkpt>
      <trkpt lat="43.53888" lon="5.52395">
        <ele>352.7</ele>
        <time>2023-05-28T14:33:50Z</time>
      </trkpt>
      <trkpt lat="43.53888" lon="5.52397">
        <ele>352.8</ele>
        <time>2023-05-28T14:33:51Z</time>
      </trkpt>
      <trkpt lat="43.53888" lon="5.52399">
        <ele>352.7</ele>
        <time>2023-05-28T14:33:52Z</time>
      </trkpt>
      <trkpt lat="43.53888" lon="5.52401">
        <ele>352.7</ele>
        <time>2023-05-28T14:33:53Z</time>
      </trkpt>
      <trkpt lat="43.53888" lon="5.52402">
        <ele>352.7</ele>
        <time>2023-05-28T14:33:54Z</time>
      </trkpt>
      <trkpt lat="43.53889" lon="5.52405">
        <ele>352.8</ele>
        <time>2023-05-28T14:33:55Z</time>
      </trkpt>
      <trkpt lat="43.53889" lon="5.52406">
        <ele>352.8</ele>
        <time>2023-05-28T14:33:56Z</time>
      </trkpt>
      <trkpt lat="43.53889" lon="5.52408">
        <ele>352.9</ele>
        <time>2023-05-28T14:33:57Z</time>
      </trkpt>
      <trkpt lat="43.5389" lon="5.5241">
        <ele>352.9</ele>
        <time>2023-05-28T14:33:58Z</time>
      </trkpt>
      <trkpt lat="43.5389" lon="5.52412">
        <ele>352.9</ele>
        <time>2023-05-28T14:33:59Z</time>
      </trkpt>
      <trkpt lat="43.53891" lon="5.52413">
        <ele>352.8</ele>
        <time>2023-05-28T14:34:00Z</time>
      </trkpt>
      <trkpt lat="43.53891" lon="5.52415">
        <ele>352.9</ele>
        <time>2023-05-28T14:34:01Z</time>
      </trkpt>
      <trkpt lat="43.53891" lon="5.52416">
        <ele>352.9</ele>
        <time>2023-05-28T14:34:02Z</time>
      </trkpt>
      <trkpt lat="43.53892" lon="5.52418">
        <ele>352.9</ele>
        <time>2023-05-28T14:34:03Z</time>
      </trkpt>
      <trkpt lat="43.53892" lon="5.52419">
        <ele>352.9</ele>
        <time>2023-05-28T14:34:04Z</time>
      </trkpt>
      <trkpt lat="43.53892" lon="5.52421">
        <ele>353</ele>
        <time>2023-05-28T14:34:05Z</time>
      </trkpt>
      <trkpt lat="43.53892" lon="5.52422">
        <ele>353.1</ele>
        <time>2023-05-28T14:34:06Z</time>
      </trkpt>
      <trkpt lat="43.53892" lon="5.52424">
        <ele>353.3</ele>
        <time>2023-05-28T14:34:07Z</time>
      </trkpt>
      <trkpt lat="43.53892" lon="5.52425">
        <ele>353.4</ele>
        <time>2023-05-28T14:34:08Z</time>
      </trkpt>
      <trkpt lat="43.53892" lon="5.52426">
        <ele>353.5</ele>
        <time>2023-05-28T14:34:09Z</time>
      </trkpt>
      <trkpt lat="43.53892" lon="5.52428">
        <ele>353.6</ele>
        <time>2023-05-28T14:34:10Z</time>
      </trkpt>
      <trkpt lat="43.53892" lon="5.52429">
        <ele>353.7</ele>
        <time>2023-05-28T14:34:11Z</time>
      </trkpt>
      <trkpt lat="43.53892" lon="5.5243">
        <ele>353.7</ele>
        <time>2023-05-28T14:34:12Z</time>
      </trkpt>
      <trkpt lat="43.53892" lon="5.52431">
        <ele>353.7</ele>
        <time>2023-05-28T14:34:13Z</time>
      </trkpt>
      <trkpt lat="43.53892" lon="5.52432">
        <ele>353.8</ele>
        <time>2023-05-28T14:34:14Z</time>
      </trkpt>
      <trkpt lat="43.53892" lon="5.52433">
        <ele>353.8</ele>
        <time>2023-05-28T14:34:15Z</time>
      </trkpt>
      <trkpt lat="43.53892" lon="5.52434">
        <ele>353.9</ele>
        <time>2023-05-28T14:34:16Z</time>
      </trkpt>
      <trkpt lat="43.53892" lon="5.52436">
        <ele>354</ele>
        <time>2023-05-28T14:34:17Z</time>
      </trkpt>
      <trkpt lat="43.53893" lon="5.52438">
        <ele>354.1</ele>
        <time>2023-05-28T14:34:18Z</time>
      </trkpt>
      <trkpt lat="43.53893" lon="5.5244">
        <ele>354.2</ele>
        <time>2023-05-28T14:34:19Z</time>
      </trkpt>
      <trkpt lat="43.53893" lon="5.52441">
        <ele>354.2</ele>
        <time>2023-05-28T14:34:20Z</time>
      </trkpt>
      <trkpt lat="43.53893" lon="5.52443">
        <ele>354.3</ele>
        <time>2023-05-28T14:34:21Z</time>
      </trkpt>
      <trkpt lat="43.53894" lon="5.52444">
        <ele>354.3</ele>
        <time>2023-05-28T14:34:22Z</time>
      </trkpt>
      <trkpt lat="43.53895" lon="5.52446">
        <ele>354.4</ele>
        <time>2023-05-28T14:34:23Z</time>
      </trkpt>
      <trkpt lat="43.53896" lon="5.52447">
        <ele>354.5</ele>
        <time>2023-05-28T14:34:24Z</time>
      </trkpt>
      <trkpt lat="43.53897" lon="5.52448">
        <ele>354.5</ele>
        <time>2023-05-28T14:34:25Z</time>
      </trkpt>
      <trkpt lat="43.53898" lon="5.5245">
        <ele>354.5</ele>
        <time>2023-05-28T14:34:26Z</time>
      </trkpt>
      <trkpt lat="43.53898" lon="5.52451">
        <ele>354.6</ele>
        <time>2023-05-28T14:34:27Z</time>
      </trkpt>
      <trkpt lat="43.53898" lon="5.52453">
        <ele>354.5</ele>
        <time>2023-05-28T14:34:28Z</time>
      </trkpt>
      <trkpt lat="43.53899" lon="5.52455">
        <ele>354.5</ele>
        <time>2023-05-28T14:34:29Z</time>
      </trkpt>
      <trkpt lat="43.539" lon="5.52457">
        <ele>354.5</ele>
        <time>2023-05-28T14:34:30Z</time>
      </trkpt>
      <trkpt lat="43.53901" lon="5.52459">
        <ele>354.5</ele>
        <time>2023-05-28T14:34:31Z</time>
      </trkpt>
      <trkpt lat="43.53902" lon="5.5246">
        <ele>354.5</ele>
        <time>2023-05-28T14:34:32Z</time>
      </trkpt>
      <trkpt lat="43.53903" lon="5.52462">
        <ele>354.4</ele>
        <time>2023-05-28T14:34:33Z</time>
      </trkpt>
      <trkpt lat="43.53904" lon="5.52463">
        <ele>354.4</ele>
        <time>2023-05-28T14:34:34Z</time>
      </trkpt>
      <trkpt lat="43.53904" lon="5.52465">
        <ele>354.4</ele>
        <time>2023-05-28T14:34:35Z</time>
      </trkpt>
      <trkpt lat="43.53905" lon="5.52466">
        <ele>354.4</ele>
        <time>2023-05-28T14:34:36Z</time>
      </trkpt>
      <trkpt lat="43.53906" lon="5.52467">
        <ele>354.3</ele>
        <time>2023-05-28T14:34:37Z</time>
      </trkpt>
      <trkpt lat="43.53907" lon="5.52468">
        <ele>354.3</ele>
        <time>2023-05-28T14:34:38Z</time>
      </trkpt>
      <trkpt lat="43.53908" lon="5.52469">
        <ele>354.2</ele>
        <time>2023-05-28T14:34:39Z</time>
      </trkpt>
      <trkpt lat="43.53909" lon="5.5247">
        <ele>354.2</ele>
        <time>2023-05-28T14:34:40Z</time>
      </trkpt>
      <trkpt lat="43.53909" lon="5.52471">
        <ele>354.1</ele>
        <time>2023-05-28T14:34:41Z</time>
      </trkpt>
      <trkpt lat="43.5391" lon="5.52472">
        <ele>354</ele>
        <time>2023-05-28T14:34:42Z</time>
      </trkpt>
      <trkpt lat="43.53911" lon="5.52474">
        <ele>354</ele>
        <time>2023-05-28T14:34:43Z</time>
      </trkpt>
      <trkpt lat="43.53912" lon="5.52475">
        <ele>354</ele>
        <time>2023-05-28T14:34:44Z</time>
      </trkpt>
      <trkpt lat="43.53914" lon="5.52476">
        <ele>353.9</ele>
        <time>2023-05-28T14:34:45Z</time>
      </trkpt>
      <trkpt lat="43.53915" lon="5.52477">
        <ele>353.8</ele>
        <time>2023-05-28T14:34:46Z</time>
      </trkpt>
      <trkpt lat="43.53916" lon="5.52478">
        <ele>353.8</ele>
        <time>2023-05-28T14:34:47Z</time>
      </trkpt>
      <trkpt lat="43.53917" lon="5.52478">
        <ele>353.8</ele>
        <time>2023-05-28T14:34:48Z</time>
      </trkpt>
      <trkpt lat="43.53918" lon="5.52479">
        <ele>353.7</ele>
        <time>2023-05-28T14:34:49Z</time>
      </trkpt>
      <trkpt lat="43.53919" lon="5.52479">
        <ele>353.8</ele>
        <time>2023-05-28T14:34:50Z</time>
      </trkpt>
      <trkpt lat="43.53921" lon="5.5248">
        <ele>353.8</ele>
        <time>2023-05-28T14:34:51Z</time>
      </trkpt>
      <trkpt lat="43.53922" lon="5.5248">
        <ele>353.8</ele>
        <time>2023-05-28T14:34:52Z</time>
      </trkpt>
      <trkpt lat="43.53923" lon="5.52481">
        <ele>353.8</ele>
        <time>2023-05-28T14:34:53Z</time>
      </trkpt>
      <trkpt lat="43.53924" lon="5.52481">
        <ele>353.8</ele>
        <time>2023-05-28T14:34:54Z</time>
      </trkpt>
      <trkpt lat="43.53926" lon="5.52481">
        <ele>353.8</ele>
        <time>2023-05-28T14:34:55Z</time>
      </trkpt>
      <trkpt lat="43.53927" lon="5.52481">
        <ele>353.8</ele>
        <time>2023-05-28T14:34:56Z</time>
      </trkpt>
      <trkpt lat="43.53928" lon="5.52481">
        <ele>353.9</ele>
        <time>2023-05-28T14:34:57Z</time>
      </trkpt>
      <trkpt lat="43.53929" lon="5.52481">
        <ele>354</ele>
        <time>2023-05-28T14:34:58Z</time>
      </trkpt>
      <trkpt lat="43.5393" lon="5.52481">
        <ele>354.1</ele>
        <time>2023-05-28T14:34:59Z</time>
      </trkpt>
      <trkpt lat="43.53931" lon="5.52482">
        <ele>354.1</ele>
        <time>2023-05-28T14:35:00Z</time>
      </trkpt>
      <trkpt lat="43.53932" lon="5.52482">
        <ele>354.1</ele>
        <time>2023-05-28T14:35:01Z</time>
      </trkpt>
      <trkpt lat="43.53933" lon="5.52483">
        <ele>354.2</ele>
        <time>2023-05-28T14:35:02Z</time>
      </trkpt>
      <trkpt lat="43.53933" lon="5.52484">
        <ele>354.2</ele>
        <time>2023-05-28T14:35:03Z</time>
      </trkpt>
      <trkpt lat="43.53934" lon="5.52484">
        <ele>354.3</ele>
        <time>2023-05-28T14:35:04Z</time>
      </trkpt>
      <trkpt lat="43.53935" lon="5.52485">
        <ele>354.3</ele>
        <time>2023-05-28T14:35:05Z</time>
      </trkpt>
      <trkpt lat="43.53936" lon="5.52486">
        <ele>354.3</ele>
        <time>2023-05-28T14:35:06Z</time>
      </trkpt>
      <trkpt lat="43.53937" lon="5.52487">
        <ele>354.2</ele>
        <time>2023-05-28T14:35:07Z</time>
      </trkpt>
      <trkpt lat="43.53938" lon="5.52488">
        <ele>354.2</ele>
        <time>2023-05-28T14:35:08Z</time>
      </trkpt>
      <trkpt lat="43.53939" lon="5.5249">
        <ele>354.2</ele>
        <time>2023-05-28T14:35:09Z</time>
      </trkpt>
      <trkpt lat="43.5394" lon="5.52491">
        <ele>354.2</ele>
        <time>2023-05-28T14:35:10Z</time>
      </trkpt>
      <trkpt lat="43.5394" lon="5.52492">
        <ele>354.3</ele>
        <time>2023-05-28T14:35:11Z</time>
      </trkpt>
      <trkpt lat="43.53941" lon="5.52493">
        <ele>354.3</ele>
        <time>2023-05-28T14:35:12Z</time>
      </trkpt>
      <trkpt lat="43.53942" lon="5.52494">
        <ele>354.2</ele>
        <time>2023-05-28T14:35:13Z</time>
      </trkpt>
      <trkpt lat="43.53942" lon="5.52495">
        <ele>354.2</ele>
        <time>2023-05-28T14:35:14Z</time>
      </trkpt>
      <trkpt lat="43.53943" lon="5.52496">
        <ele>354.2</ele>
        <time>2023-05-28T14:35:15Z</time>
      </trkpt>
      <trkpt lat="43.53943" lon="5.52497">
        <ele>354.2</ele>
        <time>2023-05-28T14:35:16Z</time>
      </trkpt>
      <trkpt lat="43.53943" lon="5.52498">
        <ele>354.1</ele>
        <time>2023-05-28T14:35:17Z</time>
      </trkpt>
      <trkpt lat="43.53944" lon="5.52499">
        <ele>354.1</ele>
        <time>2023-05-28T14:35:18Z</time>
      </trkpt>
      <trkpt lat="43.53945" lon="5.525">
        <ele>354</ele>
        <time>2023-05-28T14:35:19Z</time>
      </trkpt>
      <trkpt lat="43.53945" lon="5.52502">
        <ele>354</ele>
        <time>2023-05-28T14:35:20Z</time>
      </trkpt>
      <trkpt lat="43.53945" lon="5.52502">
        <ele>353.8</ele>
        <time>2023-05-28T14:35:21Z</time>
      </trkpt>
      <trkpt lat="43.53946" lon="5.52503">
        <ele>353.7</ele>
        <time>2023-05-28T14:35:22Z</time>
      </trkpt>
      <trkpt lat="43.53946" lon="5.52504">
        <ele>353.7</ele>
        <time>2023-05-28T14:35:23Z</time>
      </trkpt>
      <trkpt lat="43.53946" lon="5.52505">
        <ele>353.6</ele>
        <time>2023-05-28T14:35:24Z</time>
      </trkpt>
      <trkpt lat="43.53947" lon="5.52506">
        <ele>353.5</ele>
        <time>2023-05-28T14:35:25Z</time>
      </trkpt>
      <trkpt lat="43.53947" lon="5.52507">
        <ele>353.4</ele>
        <time>2023-05-28T14:35:26Z</time>
      </trkpt>
      <trkpt lat="43.53947" lon="5.52507">
        <ele>353.2</ele>
        <time>2023-05-28T14:35:27Z</time>
      </trkpt>
      <trkpt lat="43.53947" lon="5.52509">
        <ele>353</ele>
        <time>2023-05-28T14:35:28Z</time>
      </trkpt>
      <trkpt lat="43.53948" lon="5.5251">
        <ele>352.9</ele>
        <time>2023-05-28T14:35:29Z</time>
      </trkpt>
      <trkpt lat="43.53948" lon="5.52511">
        <ele>352.8</ele>
        <time>2023-05-28T14:35:30Z</time>
      </trkpt>
      <trkpt lat="43.53949" lon="5.52511">
        <ele>352.7</ele>
        <time>2023-05-28T14:35:31Z</time>
      </trkpt>
      <trkpt lat="43.53949" lon="5.52512">
        <ele>352.6</ele>
        <time>2023-05-28T14:35:32Z</time>
      </trkpt>
      <trkpt lat="43.53949" lon="5.52513">
        <ele>352.4</ele>
        <time>2023-05-28T14:35:33Z</time>
      </trkpt>
      <trkpt lat="43.53949" lon="5.52514">
        <ele>352.3</ele>
        <time>2023-05-28T14:35:34Z</time>
      </trkpt>
      <trkpt lat="43.53949" lon="5.52516">
        <ele>352.2</ele>
        <time>2023-05-28T14:35:35Z</time>
      </trkpt>
      <trkpt lat="43.53949" lon="5.52518">
        <ele>352.1</ele>
        <time>2023-05-28T14:35:36Z</time>
      </trkpt>
      <trkpt lat="43.53948" lon="5.5252">
        <ele>351.9</ele>
        <time>2023-05-28T14:35:37Z</time>
      </trkpt>
      <trkpt lat="43.53949" lon="5.52521">
        <ele>351.8</ele>
        <time>2023-05-28T14:35:38Z</time>
      </trkpt>
      <trkpt lat="43.53949" lon="5.52523">
        <ele>351.8</ele>
        <time>2023-05-28T14:35:39Z</time>
      </trkpt>
      <trkpt lat="43.53948" lon="5.52525">
        <ele>351.7</ele>
        <time>2023-05-28T14:35:40Z</time>
      </trkpt>
      <trkpt lat="43.53948" lon="5.52526">
        <ele>351.6</ele>
        <time>2023-05-28T14:35:41Z</time>
      </trkpt>
      <trkpt lat="43.53948" lon="5.52528">
        <ele>351.6</ele>
        <time>2023-05-28T14:35:42Z</time>
      </trkpt>
      <trkpt lat="43.53948" lon="5.52529">
        <ele>351.5</ele>
        <time>2023-05-28T14:35:43Z</time>
      </trkpt>
      <trkpt lat="43.53947" lon="5.5253">
        <ele>351.4</ele>
        <time>2023-05-28T14:35:44Z</time>
      </trkpt>
      <trkpt lat="43.53947" lon="5.52531">
        <ele>351.4</ele>
        <time>2023-05-28T14:35:45Z</time>
      </trkpt>
      <trkpt lat="43.53946" lon="5.52532">
        <ele>351.3</ele>
        <time>2023-05-28T14:35:46Z</time>
      </trkpt>
      <trkpt lat="43.53946" lon="5.52534">
        <ele>351.2</ele>
        <time>2023-05-28T14:35:47Z</time>
      </trkpt>
      <trkpt lat="43.53946" lon="5.52536">
        <ele>351.2</ele>
        <time>2023-05-28T14:35:48Z</time>
      </trkpt>
      <trkpt lat="43.53946" lon="5.52537">
        <ele>351.2</ele>
        <time>2023-05-28T14:35:49Z</time>
      </trkpt>
      <trkpt lat="43.53946" lon="5.52539">
        <ele>351.1</ele>
        <time>2023-05-28T14:35:50Z</time>
      </trkpt>
      <trkpt lat="43.53945" lon="5.5254">
        <ele>351.1</ele>
        <time>2023-05-28T14:35:51Z</time>
      </trkpt>
      <trkpt lat="43.53945" lon="5.52542">
        <ele>351.2</ele>
        <time>2023-05-28T14:35:52Z</time>
      </trkpt>
      <trkpt lat="43.53945" lon="5.52544">
        <ele>351.2</ele>
        <time>2023-05-28T14:35:53Z</time>
      </trkpt>
      <trkpt lat="43.53945" lon="5.52546">
        <ele>351.2</ele>
        <time>2023-05-28T14:35:54Z</time>
      </trkpt>
      <trkpt lat="43.53945" lon="5.52548">
        <ele>351.2</ele>
        <time>2023-05-28T14:35:55Z</time>
      </trkpt>
      <trkpt lat="43.53945" lon="5.5255">
        <ele>351.2</ele>
        <time>2023-05-28T14:35:56Z</time>
      </trkpt>
      <trkpt lat="43.53946" lon="5.52552">
        <ele>351.1</ele>
        <time>2023-05-28T14:35:57Z</time>
      </trkpt>
      <trkpt lat="43.53946" lon="5.52554">
        <ele>351.1</ele>
        <time>2023-05-28T14:35:58Z</time>
      </trkpt>
      <trkpt lat="43.53947" lon="5.52555">
        <ele>351.1</ele>
        <time>2023-05-28T14:35:59Z</time>
      </trkpt>
      <trkpt lat="43.53947" lon="5.52557">
        <ele>351.1</ele>
        <time>2023-05-28T14:36:00Z</time>
      </trkpt>
      <trkpt lat="43.53947" lon="5.52558">
        <ele>351.1</ele>
        <time>2023-05-28T14:36:01Z</time>
      </trkpt>
      <trkpt lat="43.53948" lon="5.5256">
        <ele>351.2</ele>
        <time>2023-05-28T14:36:02Z</time>
      </trkpt>
      <trkpt lat="43.53949" lon="5.52561">
        <ele>351.2</ele>
        <time>2023-05-28T14:36:03Z</time>
      </trkpt>
      <trkpt lat="43.53949" lon="5.52563">
        <ele>351.2</ele>
        <time>2023-05-28T14:36:04Z</time>
      </trkpt>
      <trkpt lat="43.53949" lon="5.52565">
        <ele>351.3</ele>
        <time>2023-05-28T14:36:05Z</time>
      </trkpt>
      <trkpt lat="43.53949" lon="5.52566">
        <ele>351.4</ele>
        <time>2023-05-28T14:36:06Z</time>
      </trkpt>
      <trkpt lat="43.5395" lon="5.52568">
        <ele>351.4</ele>
        <time>2023-05-28T14:36:07Z</time>
      </trkpt>
      <trkpt lat="43.5395" lon="5.52569">
        <ele>351.5</ele>
        <time>2023-05-28T14:36:08Z</time>
      </trkpt>
      <trkpt lat="43.5395" lon="5.52571">
        <ele>351.5</ele>
        <time>2023-05-28T14:36:09Z</time>
      </trkpt>
      <trkpt lat="43.5395" lon="5.52572">
        <ele>351.4</ele>
        <time>2023-05-28T14:36:10Z</time>
      </trkpt>
      <trkpt lat="43.5395" lon="5.52574">
        <ele>351.3</ele>
        <time>2023-05-28T14:36:11Z</time>
      </trkpt>
      <trkpt lat="43.5395" lon="5.52576">
        <ele>351.3</ele>
        <time>2023-05-28T14:36:12Z</time>
      </trkpt>
      <trkpt lat="43.53951" lon="5.52578">
        <ele>351.3</ele>
        <time>2023-05-28T14:36:13Z</time>
      </trkpt>
      <trkpt lat="43.53951" lon="5.52579">
        <ele>351.2</ele>
        <time>2023-05-28T14:36:14Z</time>
      </trkpt>
      <trkpt lat="43.53951" lon="5.52581">
        <ele>351.2</ele>
        <time>2023-05-28T14:36:15Z</time>
      </trkpt>
      <trkpt lat="43.53951" lon="5.52583">
        <ele>351.3</ele>
        <time>2023-05-28T14:36:16Z</time>
      </trkpt>
      <trkpt lat="43.53952" lon="5.52584">
        <ele>351.3</ele>
        <time>2023-05-28T14:36:17Z</time>
      </trkpt>
      <trkpt lat="43.53952" lon="5.52586">
        <ele>351.3</ele>
        <time>2023-05-28T14:36:18Z</time>
      </trkpt>
      <trkpt lat="43.53952" lon="5.52587">
        <ele>351.3</ele>
        <time>2023-05-28T14:36:19Z</time>
      </trkpt>
      <trkpt lat="43.53953" lon="5.52589">
        <ele>351.3</ele>
        <time>2023-05-28T14:36:20Z</time>
      </trkpt>
      <trkpt lat="43.53953" lon="5.52591">
        <ele>351.4</ele>
        <time>2023-05-28T14:36:21Z</time>
      </trkpt>
      <trkpt lat="43.53954" lon="5.52593">
        <ele>351.4</ele>
        <time>2023-05-28T14:36:22Z</time>
      </trkpt>
      <trkpt lat="43.53955" lon="5.52594">
        <ele>351.4</ele>
        <time>2023-05-28T14:36:23Z</time>
      </trkpt>
      <trkpt lat="43.53955" lon="5.52595">
        <ele>351.4</ele>
        <time>2023-05-28T14:36:24Z</time>
      </trkpt>
      <trkpt lat="43.53956" lon="5.52597">
        <ele>351.5</ele>
        <time>2023-05-28T14:36:25Z</time>
      </trkpt>
      <trkpt lat="43.53957" lon="5.52598">
        <ele>351.5</ele>
        <time>2023-05-28T14:36:26Z</time>
      </trkpt>
      <trkpt lat="43.53958" lon="5.52599">
        <ele>351.6</ele>
        <time>2023-05-28T14:36:27Z</time>
      </trkpt>
      <trkpt lat="43.53958" lon="5.52601">
        <ele>351.6</ele>
        <time>2023-05-28T14:36:28Z</time>
      </trkpt>
      <trkpt lat="43.53959" lon="5.52603">
        <ele>351.7</ele>
        <time>2023-05-28T14:36:29Z</time>
      </trkpt>
      <trkpt lat="43.53959" lon="5.52604">
        <ele>351.8</ele>
        <time>2023-05-28T14:36:30Z</time>
      </trkpt>
      <trkpt lat="43.5396" lon="5.52605">
        <ele>351.8</ele>
        <time>2023-05-28T14:36:31Z</time>
      </trkpt>
      <trkpt lat="43.53961" lon="5.52606">
        <ele>351.7</ele>
        <time>2023-05-28T14:36:32Z</time>
      </trkpt>
      <trkpt lat="43.53961" lon="5.52608">
        <ele>351.7</ele>
        <time>2023-05-28T14:36:33Z</time>
      </trkpt>
      <trkpt lat="43.53962" lon="5.52609">
        <ele>351.7</ele>
        <time>2023-05-28T14:36:34Z</time>
      </trkpt>
      <trkpt lat="43.53962" lon="5.52611">
        <ele>351.6</ele>
        <time>2023-05-28T14:36:35Z</time>
      </trkpt>
      <trkpt lat="43.53963" lon="5.52612">
        <ele>351.6</ele>
        <time>2023-05-28T14:36:36Z</time>
      </trkpt>
      <trkpt lat="43.53963" lon="5.52613">
        <ele>351.5</ele>
        <time>2023-05-28T14:36:37Z</time>
      </trkpt>
      <trkpt lat="43.53963" lon="5.52615">
        <ele>351.4</ele>
        <time>2023-05-28T14:36:38Z</time>
      </trkpt>
      <trkpt lat="43.53963" lon="5.52617">
        <ele>351.4</ele>
        <time>2023-05-28T14:36:39Z</time>
      </trkpt>
      <trkpt lat="43.53963" lon="5.52619">
        <ele>351.4</ele>
        <time>2023-05-28T14:36:40Z</time>
      </trkpt>
      <trkpt lat="43.53963" lon="5.5262">
        <ele>351.4</ele>
        <time>2023-05-28T14:36:41Z</time>
      </trkpt>
      <trkpt lat="43.53963" lon="5.52622">
        <ele>351.4</ele>
        <time>2023-05-28T14:36:42Z</time>
      </trkpt>
      <trkpt lat="43.53963" lon="5.52623">
        <ele>351.4</ele>
        <time>2023-05-28T14:36:43Z</time>
      </trkpt>
      <trkpt lat="43.53963" lon="5.52624">
        <ele>351.3</ele>
        <time>2023-05-28T14:36:44Z</time>
      </trkpt>
      <trkpt lat="43.53963" lon="5.52626">
        <ele>351.2</ele>
        <time>2023-05-28T14:36:45Z</time>
      </trkpt>
      <trkpt lat="43.53963" lon="5.52628">
        <ele>351.2</ele>
        <time>2023-05-28T14:36:46Z</time>
      </trkpt>
      <trkpt lat="43.53963" lon="5.52629">
        <ele>351.1</ele>
        <time>2023-05-28T14:36:47Z</time>
      </trkpt>
      <trkpt lat="43.53962" lon="5.52631">
        <ele>351.1</ele>
        <time>2023-05-28T14:36:48Z</time>
      </trkpt>
      <trkpt lat="43.53962" lon="5.52632">
        <ele>351.2</ele>
        <time>2023-05-28T14:36:49Z</time>
      </trkpt>
      <trkpt lat="43.53962" lon="5.52634">
        <ele>351.2</ele>
        <time>2023-05-28T14:36:50Z</time>
      </trkpt>
      <trkpt lat="43.53962" lon="5.52635">
        <ele>351.2</ele>
        <time>2023-05-28T14:36:51Z</time>
      </trkpt>
      <trkpt lat="43.53961" lon="5.52637">
        <ele>351.2</ele>
        <time>2023-05-28T14:36:52Z</time>
      </trkpt>
      <trkpt lat="43.53961" lon="5.52638">
        <ele>351.2</ele>
        <time>2023-05-28T14:36:53Z</time>
      </trkpt>
      <trkpt lat="43.53961" lon="5.5264">
        <ele>351.3</ele>
        <time>2023-05-28T14:36:54Z</time>
      </trkpt>
      <trkpt lat="43.53961" lon="5.52641">
        <ele>351.3</ele>
        <time>2023-05-28T14:36:55Z</time>
      </trkpt>
      <trkpt lat="43.53961" lon="5.52643">
        <ele>351.3</ele>
        <time>2023-05-28T14:36:56Z</time>
      </trkpt>
      <trkpt lat="43.53961" lon="5.52645">
        <ele>351.4</ele>
        <time>2023-05-28T14:36:57Z</time>
      </trkpt>
      <trkpt lat="43.53961" lon="5.52647">
        <ele>351.4</ele>
        <time>2023-05-28T14:36:58Z</time>
      </trkpt>
      <trkpt lat="43.53961" lon="5.52649">
        <ele>351.4</ele>
        <time>2023-05-28T14:36:59Z</time>
      </trkpt>
      <trkpt lat="43.53961" lon="5.5265">
        <ele>351.4</ele>
        <time>2023-05-28T14:37:00Z</time>
      </trkpt>
      <trkpt lat="43.53962" lon="5.52652">
        <ele>351.4</ele>
        <time>2023-05-28T14:37:01Z</time>
      </trkpt>
      <trkpt lat="43.53962" lon="5.52653">
        <ele>351.5</ele>
        <time>2023-05-28T14:37:02Z</time>
      </trkpt>
      <trkpt lat="43.53963" lon="5.52655">
        <ele>351.5</ele>
        <time>2023-05-28T14:37:03Z</time>
      </trkpt>
      <trkpt lat="43.53963" lon="5.52656">
        <ele>351.5</ele>
        <time>2023-05-28T14:37:04Z</time>
      </trkpt>
      <trkpt lat="43.53963" lon="5.52658">
        <ele>351.5</ele>
        <time>2023-05-28T14:37:05Z</time>
      </trkpt>
      <trkpt lat="43.53964" lon="5.5266">
        <ele>351.6</ele>
        <time>2023-05-28T14:37:06Z</time>
      </trkpt>
      <trkpt lat="43.53965" lon="5.52661">
        <ele>351.7</ele>
        <time>2023-05-28T14:37:07Z</time>
      </trkpt>
      <trkpt lat="43.53966" lon="5.52662">
        <ele>351.7</ele>
        <time>2023-05-28T14:37:08Z</time>
      </trkpt>
      <trkpt lat="43.53966" lon="5.52664">
        <ele>351.8</ele>
        <time>2023-05-28T14:37:09Z</time>
      </trkpt>
      <trkpt lat="43.53966" lon="5.52665">
        <ele>351.8</ele>
        <time>2023-05-28T14:37:10Z</time>
      </trkpt>
      <trkpt lat="43.53966" lon="5.52667">
        <ele>351.9</ele>
        <time>2023-05-28T14:37:11Z</time>
      </trkpt>
      <trkpt lat="43.53966" lon="5.52668">
        <ele>351.9</ele>
        <time>2023-05-28T14:37:12Z</time>
      </trkpt>
      <trkpt lat="43.53967" lon="5.52669">
        <ele>352</ele>
        <time>2023-05-28T14:37:13Z</time>
      </trkpt>
      <trkpt lat="43.53968" lon="5.52671">
        <ele>352</ele>
        <time>2023-05-28T14:37:14Z</time>
      </trkpt>
      <trkpt lat="43.53969" lon="5.52672">
        <ele>352.1</ele>
        <time>2023-05-28T14:37:15Z</time>
      </trkpt>
      <trkpt lat="43.53969" lon="5.52673">
        <ele>352.2</ele>
        <time>2023-05-28T14:37:16Z</time>
      </trkpt>
      <trkpt lat="43.5397" lon="5.52675">
        <ele>352.3</ele>
        <time>2023-05-28T14:37:17Z</time>
      </trkpt>
      <trkpt lat="43.5397" lon="5.52676">
        <ele>352.4</ele>
        <time>2023-05-28T14:37:18Z</time>
      </trkpt>
      <trkpt lat="43.53971" lon="5.52678">
        <ele>352.4</ele>
        <time>2023-05-28T14:37:19Z</time>
      </trkpt>
      <trkpt lat="43.53971" lon="5.52679">
        <ele>352.5</ele>
        <time>2023-05-28T14:37:20Z</time>
      </trkpt>
      <trkpt lat="43.53972" lon="5.52681">
        <ele>352.5</ele>
        <time>2023-05-28T14:37:21Z</time>
      </trkpt>
      <trkpt lat="43.53973" lon="5.52682">
        <ele>352.5</ele>
        <time>2023-05-28T14:37:22Z</time>
      </trkpt>
      <trkpt lat="43.53973" lon="5.52684">
        <ele>352.6</ele>
        <time>2023-05-28T14:37:23Z</time>
      </trkpt>
      <trkpt lat="43.53973" lon="5.52685">
        <ele>352.6</ele>
        <time>2023-05-28T14:37:24Z</time>
      </trkpt>
      <trkpt lat="43.53974" lon="5.52687">
        <ele>352.6</ele>
        <time>2023-05-28T14:37:25Z</time>
      </trkpt>
      <trkpt lat="43.53975" lon="5.52688">
        <ele>352.7</ele>
        <time>2023-05-28T14:37:26Z</time>
      </trkpt>
      <trkpt lat="43.53975" lon="5.5269">
        <ele>352.7</ele>
        <time>2023-05-28T14:37:27Z</time>
      </trkpt>
      <trkpt lat="43.53976" lon="5.52691">
        <ele>352.7</ele>
        <time>2023-05-28T14:37:28Z</time>
      </trkpt>
      <trkpt lat="43.53976" lon="5.52692">
        <ele>352.7</ele>
        <time>2023-05-28T14:37:29Z</time>
      </trkpt>
      <trkpt lat="43.53976" lon="5.52694">
        <ele>352.7</ele>
        <time>2023-05-28T14:37:30Z</time>
      </trkpt>
      <trkpt lat="43.53977" lon="5.52695">
        <ele>352.7</ele>
        <time>2023-05-28T14:37:31Z</time>
      </trkpt>
      <trkpt lat="43.53977" lon="5.52696">
        <ele>352.7</ele>
        <time>2023-05-28T14:37:32Z</time>
      </trkpt>
      <trkpt lat="43.53978" lon="5.52698">
        <ele>352.8</ele>
        <time>2023-05-28T14:37:33Z</time>
      </trkpt>
      <trkpt lat="43.53978" lon="5.52699">
        <ele>352.9</ele>
        <time>2023-05-28T14:37:34Z</time>
      </trkpt>
      <trkpt lat="43.53979" lon="5.527">
        <ele>352.9</ele>
        <time>2023-05-28T14:37:35Z</time>
      </trkpt>
      <trkpt lat="43.53979" lon="5.52701">
        <ele>353</ele>
        <time>2023-05-28T14:37:36Z</time>
      </trkpt>
      <trkpt lat="43.5398" lon="5.52703">
        <ele>353</ele>
        <time>2023-05-28T14:37:37Z</time>
      </trkpt>
      <trkpt lat="43.5398" lon="5.52704">
        <ele>353</ele>
        <time>2023-05-28T14:37:38Z</time>
      </trkpt>
      <trkpt lat="43.53981" lon="5.52706">
        <ele>353.1</ele>
        <time>2023-05-28T14:37:39Z</time>
      </trkpt>
      <trkpt lat="43.53981" lon="5.52707">
        <ele>353.1</ele>
        <time>2023-05-28T14:37:40Z</time>
      </trkpt>
      <trkpt lat="43.53981" lon="5.52709">
        <ele>353.2</ele>
        <time>2023-05-28T14:37:41Z</time>
      </trkpt>
      <trkpt lat="43.53982" lon="5.5271">
        <ele>353.2</ele>
        <time>2023-05-28T14:37:42Z</time>
      </trkpt>
      <trkpt lat="43.53982" lon="5.52712">
        <ele>353.3</ele>
        <time>2023-05-28T14:37:43Z</time>
      </trkpt>
      <trkpt lat="43.53982" lon="5.52713">
        <ele>353.4</ele>
        <time>2023-05-28T14:37:44Z</time>
      </trkpt>
      <trkpt lat="43.53983" lon="5.52715">
        <ele>353.5</ele>
        <time>2023-05-28T14:37:45Z</time>
      </trkpt>
      <trkpt lat="43.53983" lon="5.52716">
        <ele>353.5</ele>
        <time>2023-05-28T14:37:46Z</time>
      </trkpt>
      <trkpt lat="43.53983" lon="5.52718">
        <ele>353.7</ele>
        <time>2023-05-28T14:37:47Z</time>
      </trkpt>
      <trkpt lat="43.53983" lon="5.5272">
        <ele>353.8</ele>
        <time>2023-05-28T14:37:48Z</time>
      </trkpt>
      <trkpt lat="43.53983" lon="5.52721">
        <ele>353.8</ele>
        <time>2023-05-28T14:37:49Z</time>
      </trkpt>
      <trkpt lat="43.53983" lon="5.52723">
        <ele>353.9</ele>
        <time>2023-05-28T14:37:50Z</time>
      </trkpt>
      <trkpt lat="43.53984" lon="5.52724">
        <ele>353.9</ele>
        <time>2023-05-28T14:37:51Z</time>
      </trkpt>
      <trkpt lat="43.53984" lon="5.52725">
        <ele>354</ele>
        <time>2023-05-28T14:37:52Z</time>
      </trkpt>
      <trkpt lat="43.53984" lon="5.52727">
        <ele>354</ele>
        <time>2023-05-28T14:37:53Z</time>
      </trkpt>
      <trkpt lat="43.53984" lon="5.52728">
        <ele>354.1</ele>
        <time>2023-05-28T14:37:54Z</time>
      </trkpt>
      <trkpt lat="43.53984" lon="5.5273">
        <ele>354.1</ele>
        <time>2023-05-28T14:37:55Z</time>
      </trkpt>
      <trkpt lat="43.53984" lon="5.52731">
        <ele>354.2</ele>
        <time>2023-05-28T14:37:56Z</time>
      </trkpt>
      <trkpt lat="43.53984" lon="5.52733">
        <ele>354.3</ele>
        <time>2023-05-28T14:37:57Z</time>
      </trkpt>
      <trkpt lat="43.53984" lon="5.52734">
        <ele>354.4</ele>
        <time>2023-05-28T14:37:58Z</time>
      </trkpt>
      <trkpt lat="43.53984" lon="5.52735">
        <ele>354.4</ele>
        <time>2023-05-28T14:37:59Z</time>
      </trkpt>
      <trkpt lat="43.53984" lon="5.52735">
        <ele>354.5</ele>
        <time>2023-05-28T14:38:00Z</time>
      </trkpt>
      <trkpt lat="43.53984" lon="5.52737">
        <ele>354.6</ele>
        <time>2023-05-28T14:38:01Z</time>
      </trkpt>
      <trkpt lat="43.53984" lon="5.52738">
        <ele>354.8</ele>
        <time>2023-05-28T14:38:02Z</time>
      </trkpt>
      <trkpt lat="43.53984" lon="5.52739">
        <ele>355</ele>
        <time>2023-05-28T14:38:03Z</time>
      </trkpt>
      <trkpt lat="43.53984" lon="5.52741">
        <ele>355.1</ele>
        <time>2023-05-28T14:38:04Z</time>
      </trkpt>
      <trkpt lat="43.53984" lon="5.52742">
        <ele>355.2</ele>
        <time>2023-05-28T14:38:05Z</time>
      </trkpt>
      <trkpt lat="43.53984" lon="5.52743">
        <ele>355.4</ele>
        <time>2023-05-28T14:38:06Z</time>
      </trkpt>
      <trkpt lat="43.53983" lon="5.52745">
        <ele>355.5</ele>
        <time>2023-05-28T14:38:07Z</time>
      </trkpt>
      <trkpt lat="43.53983" lon="5.52746">
        <ele>355.6</ele>
        <time>2023-05-28T14:38:08Z</time>
      </trkpt>
      <trkpt lat="43.53983" lon="5.52747">
        <ele>355.7</ele>
        <time>2023-05-28T14:38:09Z</time>
      </trkpt>
      <trkpt lat="43.53983" lon="5.52748">
        <ele>355.9</ele>
        <time>2023-05-28T14:38:10Z</time>
      </trkpt>
      <trkpt lat="43.53983" lon="5.5275">
        <ele>356</ele>
        <time>2023-05-28T14:38:11Z</time>
      </trkpt>
      <trkpt lat="43.53983" lon="5.52751">
        <ele>356.1</ele>
        <time>2023-05-28T14:38:12Z</time>
      </trkpt>
      <trkpt lat="43.53983" lon="5.52752">
        <ele>356.2</ele>
        <time>2023-05-28T14:38:13Z</time>
      </trkpt>
      <trkpt lat="43.53983" lon="5.52753">
        <ele>356.3</ele>
        <time>2023-05-28T14:38:14Z</time>
      </trkpt>
      <trkpt lat="43.53982" lon="5.52754">
        <ele>356.4</ele>
        <time>2023-05-28T14:38:15Z</time>
      </trkpt>
      <trkpt lat="43.53982" lon="5.52756">
        <ele>356.6</ele>
        <time>2023-05-28T14:38:16Z</time>
      </trkpt>
      <trkpt lat="43.53983" lon="5.52757">
        <ele>356.8</ele>
        <time>2023-05-28T14:38:17Z</time>
      </trkpt>
      <trkpt lat="43.53983" lon="5.52759">
        <ele>356.9</ele>
        <time>2023-05-28T14:38:18Z</time>
      </trkpt>
      <trkpt lat="43.53983" lon="5.5276">
        <ele>356.9</ele>
        <time>2023-05-28T14:38:19Z</time>
      </trkpt>
      <trkpt lat="43.53983" lon="5.52762">
        <ele>357.1</ele>
        <time>2023-05-28T14:38:20Z</time>
      </trkpt>
      <trkpt lat="43.53983" lon="5.52764">
        <ele>357.2</ele>
        <time>2023-05-28T14:38:21Z</time>
      </trkpt>
      <trkpt lat="43.53984" lon="5.52766">
        <ele>357.3</ele>
        <time>2023-05-28T14:38:22Z</time>
      </trkpt>
      <trkpt lat="43.53984" lon="5.52767">
        <ele>357.4</ele>
        <time>2023-05-28T14:38:23Z</time>
      </trkpt>
      <trkpt lat="43.53984" lon="5.52769">
        <ele>357.5</ele>
        <time>2023-05-28T14:38:24Z</time>
      </trkpt>
      <trkpt lat="43.53984" lon="5.5277">
        <ele>357.6</ele>
        <time>2023-05-28T14:38:25Z</time>
      </trkpt>
      <trkpt lat="43.53985" lon="5.52772">
        <ele>357.7</ele>
        <time>2023-05-28T14:38:26Z</time>
      </trkpt>
      <trkpt lat="43.53984" lon="5.52773">
        <ele>357.8</ele>
        <time>2023-05-28T14:38:27Z</time>
      </trkpt>
      <trkpt lat="43.53984" lon="5.52775">
        <ele>357.8</ele>
        <time>2023-05-28T14:38:28Z</time>
      </trkpt>
      <trkpt lat="43.53984" lon="5.52776">
        <ele>357.8</ele>
        <time>2023-05-28T14:38:29Z</time>
      </trkpt>
      <trkpt lat="43.53984" lon="5.52777">
        <ele>357.9</ele>
        <time>2023-05-28T14:38:30Z</time>
      </trkpt>
      <trkpt lat="43.53985" lon="5.52778">
        <ele>358</ele>
        <time>2023-05-28T14:38:31Z</time>
      </trkpt>
      <trkpt lat="43.53985" lon="5.5278">
        <ele>357.9</ele>
        <time>2023-05-28T14:38:32Z</time>
      </trkpt>
      <trkpt lat="43.53985" lon="5.52781">
        <ele>357.9</ele>
        <time>2023-05-28T14:38:33Z</time>
      </trkpt>
      <trkpt lat="43.53985" lon="5.52783">
        <ele>357.9</ele>
        <time>2023-05-28T14:38:34Z</time>
      </trkpt>
      <trkpt lat="43.53986" lon="5.52784">
        <ele>358</ele>
        <time>2023-05-28T14:38:35Z</time>
      </trkpt>
      <trkpt lat="43.53986" lon="5.52786">
        <ele>358.1</ele>
        <time>2023-05-28T14:38:36Z</time>
      </trkpt>
      <trkpt lat="43.53986" lon="5.52788">
        <ele>358.1</ele>
        <time>2023-05-28T14:38:37Z</time>
      </trkpt>
      <trkpt lat="43.53986" lon="5.5279">
        <ele>358.1</ele>
        <time>2023-05-28T14:38:38Z</time>
      </trkpt>
      <trkpt lat="43.53986" lon="5.52791">
        <ele>358</ele>
        <time>2023-05-28T14:38:39Z</time>
      </trkpt>
      <trkpt lat="43.53986" lon="5.52792">
        <ele>358.1</ele>
        <time>2023-05-28T14:38:40Z</time>
      </trkpt>
      <trkpt lat="43.53986" lon="5.52794">
        <ele>358.1</ele>
        <time>2023-05-28T14:38:41Z</time>
      </trkpt>
      <trkpt lat="43.53986" lon="5.52795">
        <ele>358.1</ele>
        <time>2023-05-28T14:38:42Z</time>
      </trkpt>
      <trkpt lat="43.53986" lon="5.52797">
        <ele>358.1</ele>
        <time>2023-05-28T14:38:43Z</time>
      </trkpt>
      <trkpt lat="43.53987" lon="5.52798">
        <ele>358.2</ele>
        <time>2023-05-28T14:38:44Z</time>
      </trkpt>
      <trkpt lat="43.53987" lon="5.528">
        <ele>358.2</ele>
        <time>2023-05-28T14:38:45Z</time>
      </trkpt>
      <trkpt lat="43.53987" lon="5.52801">
        <ele>358.1</ele>
        <time>2023-05-28T14:38:46Z</time>
      </trkpt>
      <trkpt lat="43.53988" lon="5.52803">
        <ele>358.1</ele>
        <time>2023-05-28T14:38:47Z</time>
      </trkpt>
      <trkpt lat="43.53988" lon="5.52804">
        <ele>358</ele>
        <time>2023-05-28T14:38:48Z</time>
      </trkpt>
      <trkpt lat="43.53989" lon="5.52806">
        <ele>358</ele>
        <time>2023-05-28T14:38:49Z</time>
      </trkpt>
      <trkpt lat="43.5399" lon="5.52807">
        <ele>358.1</ele>
        <time>2023-05-28T14:38:50Z</time>
      </trkpt>
      <trkpt lat="43.53991" lon="5.52809">
        <ele>358.1</ele>
        <time>2023-05-28T14:38:51Z</time>
      </trkpt>
      <trkpt lat="43.53992" lon="5.5281">
        <ele>358.1</ele>
        <time>2023-05-28T14:38:52Z</time>
      </trkpt>
      <trkpt lat="43.53993" lon="5.52811">
        <ele>358.1</ele>
        <time>2023-05-28T14:38:53Z</time>
      </trkpt>
      <trkpt lat="43.53994" lon="5.52811">
        <ele>358.1</ele>
        <time>2023-05-28T14:38:54Z</time>
      </trkpt>
      <trkpt lat="43.53995" lon="5.52813">
        <ele>358.2</ele>
        <time>2023-05-28T14:38:55Z</time>
      </trkpt>
      <trkpt lat="43.53996" lon="5.52813">
        <ele>358.2</ele>
        <time>2023-05-28T14:38:56Z</time>
      </trkpt>
      <trkpt lat="43.53997" lon="5.52814">
        <ele>358.2</ele>
        <time>2023-05-28T14:38:57Z</time>
      </trkpt>
      <trkpt lat="43.53998" lon="5.52815">
        <ele>358.3</ele>
        <time>2023-05-28T14:38:58Z</time>
      </trkpt>
      <trkpt lat="43.54" lon="5.52816">
        <ele>358.3</ele>
        <time>2023-05-28T14:38:59Z</time>
      </trkpt>
      <trkpt lat="43.54001" lon="5.52817">
        <ele>358.4</ele>
        <time>2023-05-28T14:39:00Z</time>
      </trkpt>
      <trkpt lat="43.54002" lon="5.52818">
        <ele>358.3</ele>
        <time>2023-05-28T14:39:01Z</time>
      </trkpt>
      <trkpt lat="43.54003" lon="5.52818">
        <ele>358.3</ele>
        <time>2023-05-28T14:39:02Z</time>
      </trkpt>
      <trkpt lat="43.54004" lon="5.52818">
        <ele>358.3</ele>
        <time>2023-05-28T14:39:03Z</time>
      </trkpt>
      <trkpt lat="43.54005" lon="5.52819">
        <ele>358.3</ele>
        <time>2023-05-28T14:39:04Z</time>
      </trkpt>
      <trkpt lat="43.54006" lon="5.52821">
        <ele>358.3</ele>
        <time>2023-05-28T14:39:05Z</time>
      </trkpt>
      <trkpt lat="43.54007" lon="5.52822">
        <ele>358.4</ele>
        <time>2023-05-28T14:39:06Z</time>
      </trkpt>
      <trkpt lat="43.54008" lon="5.52823">
        <ele>358.5</ele>
        <time>2023-05-28T14:39:07Z</time>
      </trkpt>
      <trkpt lat="43.54009" lon="5.52824">
        <ele>358.5</ele>
        <time>2023-05-28T14:39:08Z</time>
      </trkpt>
      <trkpt lat="43.5401" lon="5.52825">
        <ele>358.6</ele>
        <time>2023-05-28T14:39:09Z</time>
      </trkpt>
      <trkpt lat="43.54011" lon="5.52826">
        <ele>358.7</ele>
        <time>2023-05-28T14:39:10Z</time>
      </trkpt>
      <trkpt lat="43.54012" lon="5.52828">
        <ele>358.7</ele>
        <time>2023-05-28T14:39:11Z</time>
      </trkpt>
      <trkpt lat="43.54013" lon="5.52829">
        <ele>358.8</ele>
        <time>2023-05-28T14:39:12Z</time>
      </trkpt>
      <trkpt lat="43.54014" lon="5.5283">
        <ele>358.8</ele>
        <time>2023-05-28T14:39:13Z</time>
      </trkpt>
      <trkpt lat="43.54015" lon="5.52831">
        <ele>358.8</ele>
        <time>2023-05-28T14:39:14Z</time>
      </trkpt>
      <trkpt lat="43.54015" lon="5.52832">
        <ele>358.7</ele>
        <time>2023-05-28T14:39:15Z</time>
      </trkpt>
      <trkpt lat="43.54017" lon="5.52832">
        <ele>358.7</ele>
        <time>2023-05-28T14:39:16Z</time>
      </trkpt>
      <trkpt lat="43.54018" lon="5.52833">
        <ele>358.6</ele>
        <time>2023-05-28T14:39:17Z</time>
      </trkpt>
      <trkpt lat="43.54019" lon="5.52834">
        <ele>358.6</ele>
        <time>2023-05-28T14:39:18Z</time>
      </trkpt>
      <trkpt lat="43.5402" lon="5.52835">
        <ele>358.6</ele>
        <time>2023-05-28T14:39:19Z</time>
      </trkpt>
      <trkpt lat="43.54021" lon="5.52836">
        <ele>358.5</ele>
        <time>2023-05-28T14:39:20Z</time>
      </trkpt>
      <trkpt lat="43.54021" lon="5.52837">
        <ele>358.5</ele>
        <time>2023-05-28T14:39:21Z</time>
      </trkpt>
      <trkpt lat="43.54023" lon="5.52838">
        <ele>358.5</ele>
        <time>2023-05-28T14:39:22Z</time>
      </trkpt>
      <trkpt lat="43.54023" lon="5.52839">
        <ele>358.5</ele>
        <time>2023-05-28T14:39:23Z</time>
      </trkpt>
      <trkpt lat="43.54025" lon="5.52841">
        <ele>358.5</ele>
        <time>2023-05-28T14:39:24Z</time>
      </trkpt>
      <trkpt lat="43.54026" lon="5.52842">
        <ele>358.4</ele>
        <time>2023-05-28T14:39:25Z</time>
      </trkpt>
      <trkpt lat="43.54027" lon="5.52843">
        <ele>358.3</ele>
        <time>2023-05-28T14:39:26Z</time>
      </trkpt>
      <trkpt lat="43.54028" lon="5.52844">
        <ele>358.3</ele>
        <time>2023-05-28T14:39:27Z</time>
      </trkpt>
      <trkpt lat="43.54029" lon="5.52845">
        <ele>358.2</ele>
        <time>2023-05-28T14:39:28Z</time>
      </trkpt>
      <trkpt lat="43.54029" lon="5.52846">
        <ele>358.1</ele>
        <time>2023-05-28T14:39:29Z</time>
      </trkpt>
      <trkpt lat="43.54029" lon="5.52848">
        <ele>358.2</ele>
        <time>2023-05-28T14:39:30Z</time>
      </trkpt>
      <trkpt lat="43.5403" lon="5.52849">
        <ele>358.2</ele>
        <time>2023-05-28T14:39:31Z</time>
      </trkpt>
      <trkpt lat="43.54031" lon="5.5285">
        <ele>358.2</ele>
        <time>2023-05-28T14:39:32Z</time>
      </trkpt>
      <trkpt lat="43.54031" lon="5.52851">
        <ele>358.2</ele>
        <time>2023-05-28T14:39:33Z</time>
      </trkpt>
      <trkpt lat="43.54032" lon="5.52853">
        <ele>358.1</ele>
        <time>2023-05-28T14:39:34Z</time>
      </trkpt>
      <trkpt lat="43.54032" lon="5.52854">
        <ele>358.1</ele>
        <time>2023-05-28T14:39:35Z</time>
      </trkpt>
      <trkpt lat="43.54033" lon="5.52856">
        <ele>358.1</ele>
        <time>2023-05-28T14:39:36Z</time>
      </trkpt>
      <trkpt lat="43.54034" lon="5.52857">
        <ele>358.1</ele>
        <time>2023-05-28T14:39:37Z</time>
      </trkpt>
      <trkpt lat="43.54035" lon="5.52858">
        <ele>358.1</ele>
        <time>2023-05-28T14:39:38Z</time>
      </trkpt>
      <trkpt lat="43.54035" lon="5.52859">
        <ele>358</ele>
        <time>2023-05-28T14:39:39Z</time>
      </trkpt>
      <trkpt lat="43.54037" lon="5.5286">
        <ele>357.9</ele>
        <time>2023-05-28T14:39:40Z</time>
      </trkpt>
      <trkpt lat="43.54037" lon="5.52861">
        <ele>357.9</ele>
        <time>2023-05-28T14:39:41Z</time>
      </trkpt>
      <trkpt lat="43.54038" lon="5.52862">
        <ele>357.9</ele>
        <time>2023-05-28T14:39:42Z</time>
      </trkpt>
      <trkpt lat="43.54039" lon="5.52864">
        <ele>357.9</ele>
        <time>2023-05-28T14:39:43Z</time>
      </trkpt>
      <trkpt lat="43.5404" lon="5.52864">
        <ele>357.9</ele>
        <time>2023-05-28T14:39:44Z</time>
      </trkpt>
      <trkpt lat="43.54041" lon="5.52865">
        <ele>357.9</ele>
        <time>2023-05-28T14:39:45Z</time>
      </trkpt>
      <trkpt lat="43.54042" lon="5.52865">
        <ele>357.9</ele>
        <time>2023-05-28T14:39:46Z</time>
      </trkpt>
      <trkpt lat="43.54043" lon="5.52866">
        <ele>357.8</ele>
        <time>2023-05-28T14:39:47Z</time>
      </trkpt>
      <trkpt lat="43.54044" lon="5.52866">
        <ele>357.8</ele>
        <time>2023-05-28T14:39:48Z</time>
      </trkpt>
      <trkpt lat="43.54045" lon="5.52865">
        <ele>357.8</ele>
        <time>2023-05-28T14:39:49Z</time>
      </trkpt>
      <trkpt lat="43.54046" lon="5.52866">
        <ele>357.8</ele>
        <time>2023-05-28T14:39:50Z</time>
      </trkpt>
      <trkpt lat="43.54047" lon="5.52867">
        <ele>357.7</ele>
        <time>2023-05-28T14:39:51Z</time>
      </trkpt>
      <trkpt lat="43.54048" lon="5.52868">
        <ele>357.7</ele>
        <time>2023-05-28T14:39:52Z</time>
      </trkpt>
      <trkpt lat="43.54049" lon="5.52869">
        <ele>357.8</ele>
        <time>2023-05-28T14:39:53Z</time>
      </trkpt>
      <trkpt lat="43.5405" lon="5.5287">
        <ele>357.8</ele>
        <time>2023-05-28T14:39:54Z</time>
      </trkpt>
      <trkpt lat="43.54051" lon="5.5287">
        <ele>357.8</ele>
        <time>2023-05-28T14:39:55Z</time>
      </trkpt>
      <trkpt lat="43.54052" lon="5.52871">
        <ele>357.8</ele>
        <time>2023-05-28T14:39:56Z</time>
      </trkpt>
      <trkpt lat="43.54053" lon="5.52872">
        <ele>357.9</ele>
        <time>2023-05-28T14:39:57Z</time>
      </trkpt>
      <trkpt lat="43.54054" lon="5.52873">
        <ele>357.9</ele>
        <time>2023-05-28T14:39:58Z</time>
      </trkpt>
      <trkpt lat="43.54055" lon="5.52874">
        <ele>357.9</ele>
        <time>2023-05-28T14:39:59Z</time>
      </trkpt>
      <trkpt lat="43.54056" lon="5.52875">
        <ele>357.9</ele>
        <time>2023-05-28T14:40:00Z</time>
      </trkpt>
      <trkpt lat="43.54056" lon="5.52877">
        <ele>357.9</ele>
        <time>2023-05-28T14:40:01Z</time>
      </trkpt>
      <trkpt lat="43.54057" lon="5.52878">
        <ele>358</ele>
        <time>2023-05-28T14:40:02Z</time>
      </trkpt>
      <trkpt lat="43.54058" lon="5.5288">
        <ele>358</ele>
        <time>2023-05-28T14:40:03Z</time>
      </trkpt>
      <trkpt lat="43.54059" lon="5.52881">
        <ele>357.9</ele>
        <time>2023-05-28T14:40:04Z</time>
      </trkpt>
      <trkpt lat="43.5406" lon="5.52883">
        <ele>357.9</ele>
        <time>2023-05-28T14:40:05Z</time>
      </trkpt>
      <trkpt lat="43.5406" lon="5.52884">
        <ele>357.8</ele>
        <time>2023-05-28T14:40:06Z</time>
      </trkpt>
      <trkpt lat="43.54061" lon="5.52886">
        <ele>357.8</ele>
        <time>2023-05-28T14:40:07Z</time>
      </trkpt>
      <trkpt lat="43.54062" lon="5.52888">
        <ele>357.8</ele>
        <time>2023-05-28T14:40:08Z</time>
      </trkpt>
      <trkpt lat="43.54062" lon="5.52889">
        <ele>357.8</ele>
        <time>2023-05-28T14:40:09Z</time>
      </trkpt>
      <trkpt lat="43.54063" lon="5.5289">
        <ele>357.9</ele>
        <time>2023-05-28T14:40:10Z</time>
      </trkpt>
      <trkpt lat="43.54064" lon="5.52891">
        <ele>358</ele>
        <time>2023-05-28T14:40:11Z</time>
      </trkpt>
      <trkpt lat="43.54064" lon="5.52891">
        <ele>358</ele>
        <time>2023-05-28T14:40:12Z</time>
      </trkpt>
      <trkpt lat="43.54065" lon="5.52892">
        <ele>358.1</ele>
        <time>2023-05-28T14:40:13Z</time>
      </trkpt>
      <trkpt lat="43.54065" lon="5.52894">
        <ele>358</ele>
        <time>2023-05-28T14:40:14Z</time>
      </trkpt>
      <trkpt lat="43.54066" lon="5.52895">
        <ele>358</ele>
        <time>2023-05-28T14:40:15Z</time>
      </trkpt>
      <trkpt lat="43.54066" lon="5.52896">
        <ele>358</ele>
        <time>2023-05-28T14:40:16Z</time>
      </trkpt>
      <trkpt lat="43.54067" lon="5.52897">
        <ele>358</ele>
        <time>2023-05-28T14:40:17Z</time>
      </trkpt>
      <trkpt lat="43.54067" lon="5.52899">
        <ele>358.1</ele>
        <time>2023-05-28T14:40:18Z</time>
      </trkpt>
      <trkpt lat="43.54068" lon="5.529">
        <ele>358.2</ele>
        <time>2023-05-28T14:40:19Z</time>
      </trkpt>
      <trkpt lat="43.54069" lon="5.52902">
        <ele>358.2</ele>
        <time>2023-05-28T14:40:20Z</time>
      </trkpt>
      <trkpt lat="43.54069" lon="5.52903">
        <ele>358.2</ele>
        <time>2023-05-28T14:40:21Z</time>
      </trkpt>
      <trkpt lat="43.5407" lon="5.52905">
        <ele>358.1</ele>
        <time>2023-05-28T14:40:22Z</time>
      </trkpt>
      <trkpt lat="43.54071" lon="5.52907">
        <ele>358.1</ele>
        <time>2023-05-28T14:40:23Z</time>
      </trkpt>
      <trkpt lat="43.54071" lon="5.52908">
        <ele>358.2</ele>
        <time>2023-05-28T14:40:24Z</time>
      </trkpt>
      <trkpt lat="43.54072" lon="5.5291">
        <ele>358.3</ele>
        <time>2023-05-28T14:40:25Z</time>
      </trkpt>
      <trkpt lat="43.54072" lon="5.52912">
        <ele>358.3</ele>
        <time>2023-05-28T14:40:26Z</time>
      </trkpt>
      <trkpt lat="43.54073" lon="5.52913">
        <ele>358.3</ele>
        <time>2023-05-28T14:40:27Z</time>
      </trkpt>
      <trkpt lat="43.54074" lon="5.52915">
        <ele>358.3</ele>
        <time>2023-05-28T14:40:28Z</time>
      </trkpt>
      <trkpt lat="43.54075" lon="5.52916">
        <ele>358.3</ele>
        <time>2023-05-28T14:40:29Z</time>
      </trkpt>
      <trkpt lat="43.54075" lon="5.52917">
        <ele>358.3</ele>
        <time>2023-05-28T14:40:30Z</time>
      </trkpt>
      <trkpt lat="43.54075" lon="5.52919">
        <ele>358.3</ele>
        <time>2023-05-28T14:40:31Z</time>
      </trkpt>
      <trkpt lat="43.54076" lon="5.5292">
        <ele>358.3</ele>
        <time>2023-05-28T14:40:32Z</time>
      </trkpt>
      <trkpt lat="43.54077" lon="5.52922">
        <ele>358.4</ele>
        <time>2023-05-28T14:40:33Z</time>
      </trkpt>
      <trkpt lat="43.54078" lon="5.52923">
        <ele>358.3</ele>
        <time>2023-05-28T14:40:34Z</time>
      </trkpt>
      <trkpt lat="43.54079" lon="5.52925">
        <ele>358.3</ele>
        <time>2023-05-28T14:40:35Z</time>
      </trkpt>
      <trkpt lat="43.5408" lon="5.52926">
        <ele>358.3</ele>
        <time>2023-05-28T14:40:36Z</time>
      </trkpt>
      <trkpt lat="43.5408" lon="5.52927">
        <ele>358.4</ele>
        <time>2023-05-28T14:40:37Z</time>
      </trkpt>
      <trkpt lat="43.54081" lon="5.52928">
        <ele>358.4</ele>
        <time>2023-05-28T14:40:38Z</time>
      </trkpt>
      <trkpt lat="43.54082" lon="5.52929">
        <ele>358.4</ele>
        <time>2023-05-28T14:40:39Z</time>
      </trkpt>
      <trkpt lat="43.54083" lon="5.5293">
        <ele>358.4</ele>
        <time>2023-05-28T14:40:40Z</time>
      </trkpt>
      <trkpt lat="43.54084" lon="5.52932">
        <ele>358.4</ele>
        <time>2023-05-28T14:40:41Z</time>
      </trkpt>
      <trkpt lat="43.54084" lon="5.52933">
        <ele>358.4</ele>
        <time>2023-05-28T14:40:42Z</time>
      </trkpt>
      <trkpt lat="43.54085" lon="5.52934">
        <ele>358.5</ele>
        <time>2023-05-28T14:40:43Z</time>
      </trkpt>
      <trkpt lat="43.54086" lon="5.52936">
        <ele>358.5</ele>
        <time>2023-05-28T14:40:44Z</time>
      </trkpt>
      <trkpt lat="43.54086" lon="5.52937">
        <ele>358.5</ele>
        <time>2023-05-28T14:40:45Z</time>
      </trkpt>
      <trkpt lat="43.54087" lon="5.52938">
        <ele>358.5</ele>
        <time>2023-05-28T14:40:46Z</time>
      </trkpt>
      <trkpt lat="43.54087" lon="5.5294">
        <ele>358.5</ele>
        <time>2023-05-28T14:40:47Z</time>
      </trkpt>
      <trkpt lat="43.54088" lon="5.52941">
        <ele>358.6</ele>
        <time>2023-05-28T14:40:48Z</time>
      </trkpt>
      <trkpt lat="43.54089" lon="5.52943">
        <ele>358.6</ele>
        <time>2023-05-28T14:40:49Z</time>
      </trkpt>
      <trkpt lat="43.5409" lon="5.52945">
        <ele>358.6</ele>
        <time>2023-05-28T14:40:50Z</time>
      </trkpt>
      <trkpt lat="43.54091" lon="5.52946">
        <ele>358.6</ele>
        <time>2023-05-28T14:40:51Z</time>
      </trkpt>
      <trkpt lat="43.54092" lon="5.52948">
        <ele>358.6</ele>
        <time>2023-05-28T14:40:52Z</time>
      </trkpt>
      <trkpt lat="43.54092" lon="5.5295">
        <ele>358.6</ele>
        <time>2023-05-28T14:40:53Z</time>
      </trkpt>
      <trkpt lat="43.54093" lon="5.52952">
        <ele>358.6</ele>
        <time>2023-05-28T14:40:54Z</time>
      </trkpt>
      <trkpt lat="43.54094" lon="5.52952">
        <ele>358.7</ele>
        <time>2023-05-28T14:40:55Z</time>
      </trkpt>
      <trkpt lat="43.54095" lon="5.52954">
        <ele>358.8</ele>
        <time>2023-05-28T14:40:56Z</time>
      </trkpt>
      <trkpt lat="43.54096" lon="5.52955">
        <ele>358.8</ele>
        <time>2023-05-28T14:40:57Z</time>
      </trkpt>
      <trkpt lat="43.54097" lon="5.52957">
        <ele>358.8</ele>
        <time>2023-05-28T14:40:58Z</time>
      </trkpt>
      <trkpt lat="43.54098" lon="5.52958">
        <ele>358.8</ele>
        <time>2023-05-28T14:40:59Z</time>
      </trkpt>
      <trkpt lat="43.54099" lon="5.52959">
        <ele>358.8</ele>
        <time>2023-05-28T14:41:00Z</time>
      </trkpt>
      <trkpt lat="43.541" lon="5.5296">
        <ele>358.8</ele>
        <time>2023-05-28T14:41:01Z</time>
      </trkpt>
      <trkpt lat="43.54102" lon="5.52961">
        <ele>358.8</ele>
        <time>2023-05-28T14:41:02Z</time>
      </trkpt>
      <trkpt lat="43.54103" lon="5.52962">
        <ele>358.8</ele>
        <time>2023-05-28T14:41:03Z</time>
      </trkpt>
      <trkpt lat="43.54104" lon="5.52964">
        <ele>358.8</ele>
        <time>2023-05-28T14:41:04Z</time>
      </trkpt>
      <trkpt lat="43.54105" lon="5.52965">
        <ele>359</ele>
        <time>2023-05-28T14:41:05Z</time>
      </trkpt>
      <trkpt lat="43.54106" lon="5.52966">
        <ele>359</ele>
        <time>2023-05-28T14:41:06Z</time>
      </trkpt>
      <trkpt lat="43.54107" lon="5.52967">
        <ele>359</ele>
        <time>2023-05-28T14:41:07Z</time>
      </trkpt>
      <trkpt lat="43.54108" lon="5.52968">
        <ele>359</ele>
        <time>2023-05-28T14:41:08Z</time>
      </trkpt>
      <trkpt lat="43.5411" lon="5.52968">
        <ele>359</ele>
        <time>2023-05-28T14:41:09Z</time>
      </trkpt>
      <trkpt lat="43.54111" lon="5.5297">
        <ele>359</ele>
        <time>2023-05-28T14:41:10Z</time>
      </trkpt>
      <trkpt lat="43.54112" lon="5.52971">
        <ele>358.9</ele>
        <time>2023-05-28T14:41:11Z</time>
      </trkpt>
      <trkpt lat="43.54113" lon="5.52972">
        <ele>358.9</ele>
        <time>2023-05-28T14:41:12Z</time>
      </trkpt>
      <trkpt lat="43.54114" lon="5.52973">
        <ele>358.8</ele>
        <time>2023-05-28T14:41:13Z</time>
      </trkpt>
      <trkpt lat="43.54115" lon="5.52973">
        <ele>358.8</ele>
        <time>2023-05-28T14:41:14Z</time>
      </trkpt>
      <trkpt lat="43.54115" lon="5.52975">
        <ele>358.7</ele>
        <time>2023-05-28T14:41:15Z</time>
      </trkpt>
      <trkpt lat="43.54116" lon="5.52976">
        <ele>358.6</ele>
        <time>2023-05-28T14:41:16Z</time>
      </trkpt>
      <trkpt lat="43.54118" lon="5.52977">
        <ele>358.6</ele>
        <time>2023-05-28T14:41:17Z</time>
      </trkpt>
      <trkpt lat="43.54119" lon="5.52978">
        <ele>358.5</ele>
        <time>2023-05-28T14:41:18Z</time>
      </trkpt>
      <trkpt lat="43.5412" lon="5.52979">
        <ele>358.5</ele>
        <time>2023-05-28T14:41:19Z</time>
      </trkpt>
      <trkpt lat="43.54121" lon="5.52981">
        <ele>358.5</ele>
        <time>2023-05-28T14:41:20Z</time>
      </trkpt>
      <trkpt lat="43.54122" lon="5.52982">
        <ele>358.6</ele>
        <time>2023-05-28T14:41:21Z</time>
      </trkpt>
      <trkpt lat="43.54123" lon="5.52983">
        <ele>358.6</ele>
        <time>2023-05-28T14:41:22Z</time>
      </trkpt>
      <trkpt lat="43.54123" lon="5.52984">
        <ele>358.6</ele>
        <time>2023-05-28T14:41:23Z</time>
      </trkpt>
      <trkpt lat="43.54124" lon="5.52985">
        <ele>358.6</ele>
        <time>2023-05-28T14:41:24Z</time>
      </trkpt>
      <trkpt lat="43.54125" lon="5.52986">
        <ele>358.5</ele>
        <time>2023-05-28T14:41:25Z</time>
      </trkpt>
      <trkpt lat="43.54126" lon="5.52988">
        <ele>358.6</ele>
        <time>2023-05-28T14:41:26Z</time>
      </trkpt>
      <trkpt lat="43.54127" lon="5.52989">
        <ele>358.6</ele>
        <time>2023-05-28T14:41:27Z</time>
      </trkpt>
      <trkpt lat="43.54127" lon="5.52991">
        <ele>358.6</ele>
        <time>2023-05-28T14:41:28Z</time>
      </trkpt>
      <trkpt lat="43.54127" lon="5.52992">
        <ele>358.5</ele>
        <time>2023-05-28T14:41:29Z</time>
      </trkpt>
      <trkpt lat="43.54127" lon="5.52994">
        <ele>358.5</ele>
        <time>2023-05-28T14:41:30Z</time>
      </trkpt>
      <trkpt lat="43.54127" lon="5.52995">
        <ele>358.7</ele>
        <time>2023-05-28T14:41:31Z</time>
      </trkpt>
      <trkpt lat="43.54128" lon="5.52997">
        <ele>358.8</ele>
        <time>2023-05-28T14:41:32Z</time>
      </trkpt>
      <trkpt lat="43.54128" lon="5.52998">
        <ele>358.9</ele>
        <time>2023-05-28T14:41:33Z</time>
      </trkpt>
      <trkpt lat="43.54129" lon="5.53">
        <ele>358.9</ele>
        <time>2023-05-28T14:41:34Z</time>
      </trkpt>
      <trkpt lat="43.54129" lon="5.53001">
        <ele>358.8</ele>
        <time>2023-05-28T14:41:35Z</time>
      </trkpt>
      <trkpt lat="43.54129" lon="5.53002">
        <ele>358.8</ele>
        <time>2023-05-28T14:41:36Z</time>
      </trkpt>
      <trkpt lat="43.54129" lon="5.53003">
        <ele>358.7</ele>
        <time>2023-05-28T14:41:37Z</time>
      </trkpt>
      <trkpt lat="43.54129" lon="5.53005">
        <ele>358.7</ele>
        <time>2023-05-28T14:41:38Z</time>
      </trkpt>
      <trkpt lat="43.54128" lon="5.53006">
        <ele>358.7</ele>
        <time>2023-05-28T14:41:39Z</time>
      </trkpt>
      <trkpt lat="43.54128" lon="5.53008">
        <ele>358.6</ele>
        <time>2023-05-28T14:41:40Z</time>
      </trkpt>
      <trkpt lat="43.54128" lon="5.5301">
        <ele>358.5</ele>
        <time>2023-05-28T14:41:41Z</time>
      </trkpt>
      <trkpt lat="43.54127" lon="5.53011">
        <ele>358.5</ele>
        <time>2023-05-28T14:41:42Z</time>
      </trkpt>
      <trkpt lat="43.54127" lon="5.53012">
        <ele>358.5</ele>
        <time>2023-05-28T14:41:43Z</time>
      </trkpt>
      <trkpt lat="43.54127" lon="5.53014">
        <ele>358.5</ele>
        <time>2023-05-28T14:41:44Z</time>
      </trkpt>
      <trkpt lat="43.54126" lon="5.53015">
        <ele>358.5</ele>
        <time>2023-05-28T14:41:45Z</time>
      </trkpt>
      <trkpt lat="43.54126" lon="5.53016">
        <ele>358.4</ele>
        <time>2023-05-28T14:41:46Z</time>
      </trkpt>
      <trkpt lat="43.54126" lon="5.53017">
        <ele>358.4</ele>
        <time>2023-05-28T14:41:47Z</time>
      </trkpt>
      <trkpt lat="43.54125" lon="5.53018">
        <ele>358.4</ele>
        <time>2023-05-28T14:41:48Z</time>
      </trkpt>
      <trkpt lat="43.54125" lon="5.5302">
        <ele>358.5</ele>
        <time>2023-05-28T14:41:49Z</time>
      </trkpt>
      <trkpt lat="43.54124" lon="5.53021">
        <ele>358.5</ele>
        <time>2023-05-28T14:41:50Z</time>
      </trkpt>
      <trkpt lat="43.54124" lon="5.53022">
        <ele>358.6</ele>
        <time>2023-05-28T14:41:51Z</time>
      </trkpt>
      <trkpt lat="43.54123" lon="5.53023">
        <ele>358.7</ele>
        <time>2023-05-28T14:41:52Z</time>
      </trkpt>
      <trkpt lat="43.54123" lon="5.53025">
        <ele>358.8</ele>
        <time>2023-05-28T14:41:53Z</time>
      </trkpt>
      <trkpt lat="43.54123" lon="5.53025">
        <ele>358.8</ele>
        <time>2023-05-28T14:41:54Z</time>
      </trkpt>
      <trkpt lat="43.54122" lon="5.53027">
        <ele>358.8</ele>
        <time>2023-05-28T14:41:55Z</time>
      </trkpt>
      <trkpt lat="43.54122" lon="5.53028">
        <ele>358.8</ele>
        <time>2023-05-28T14:41:56Z</time>
      </trkpt>
      <trkpt lat="43.54122" lon="5.53028">
        <ele>358.9</ele>
        <time>2023-05-28T14:41:57Z</time>
      </trkpt>
      <trkpt lat="43.54121" lon="5.53029">
        <ele>359.1</ele>
        <time>2023-05-28T14:41:58Z</time>
      </trkpt>
      <trkpt lat="43.5412" lon="5.5303">
        <ele>359.2</ele>
        <time>2023-05-28T14:41:59Z</time>
      </trkpt>
      <trkpt lat="43.5412" lon="5.53031">
        <ele>359.4</ele>
        <time>2023-05-28T14:42:00Z</time>
      </trkpt>
      <trkpt lat="43.54119" lon="5.53031">
        <ele>359.5</ele>
        <time>2023-05-28T14:42:01Z</time>
      </trkpt>
      <trkpt lat="43.54118" lon="5.53032">
        <ele>359.7</ele>
        <time>2023-05-28T14:42:02Z</time>
      </trkpt>
      <trkpt lat="43.54117" lon="5.53033">
        <ele>359.8</ele>
        <time>2023-05-28T14:42:03Z</time>
      </trkpt>
      <trkpt lat="43.54116" lon="5.53034">
        <ele>359.9</ele>
        <time>2023-05-28T14:42:04Z</time>
      </trkpt>
      <trkpt lat="43.54115" lon="5.53035">
        <ele>359.8</ele>
        <time>2023-05-28T14:42:05Z</time>
      </trkpt>
      <trkpt lat="43.54114" lon="5.53036">
        <ele>359.9</ele>
        <time>2023-05-28T14:42:06Z</time>
      </trkpt>
      <trkpt lat="43.54113" lon="5.53037">
        <ele>360</ele>
        <time>2023-05-28T14:42:07Z</time>
      </trkpt>
      <trkpt lat="43.54112" lon="5.53037">
        <ele>360.1</ele>
        <time>2023-05-28T14:42:08Z</time>
      </trkpt>
      <trkpt lat="43.54112" lon="5.53038">
        <ele>360.1</ele>
        <time>2023-05-28T14:42:09Z</time>
      </trkpt>
      <trkpt lat="43.54111" lon="5.53038">
        <ele>360.2</ele>
        <time>2023-05-28T14:42:10Z</time>
      </trkpt>
      <trkpt lat="43.5411" lon="5.53039">
        <ele>360.3</ele>
        <time>2023-05-28T14:42:11Z</time>
      </trkpt>
      <trkpt lat="43.54109" lon="5.5304">
        <ele>360.3</ele>
        <time>2023-05-28T14:42:12Z</time>
      </trkpt>
      <trkpt lat="43.54108" lon="5.5304">
        <ele>360.4</ele>
        <time>2023-05-28T14:42:13Z</time>
      </trkpt>
      <trkpt lat="43.54107" lon="5.53041">
        <ele>360.4</ele>
        <time>2023-05-28T14:42:14Z</time>
      </trkpt>
      <trkpt lat="43.54106" lon="5.53041">
        <ele>360.3</ele>
        <time>2023-05-28T14:42:15Z</time>
      </trkpt>
      <trkpt lat="43.54105" lon="5.53041">
        <ele>360.3</ele>
        <time>2023-05-28T14:42:16Z</time>
      </trkpt>
      <trkpt lat="43.54104" lon="5.53042">
        <ele>360.2</ele>
        <time>2023-05-28T14:42:17Z</time>
      </trkpt>
      <trkpt lat="43.54104" lon="5.53042">
        <ele>360.1</ele>
        <time>2023-05-28T14:42:17Z</time>
      </trkpt>
      <trkpt lat="43.54103" lon="5.53043">
        <ele>360.1</ele>
        <time>2023-05-28T14:42:18Z</time>
      </trkpt>
      <trkpt lat="43.54103" lon="5.53043">
        <ele>360.1</ele>
        <time>2023-05-28T14:42:18Z</time>
      </trkpt>
    </trkseg>
  </trk>
</gpx>